<?xml version='1.0' encoding='UTF-8'?><gpx version="1.1" creator="JPX - https://github.com/jenetics/jpx" xmlns="http://www.topografix.com/GPX/1/1"><trk><trkseg><trkpt lat="30.85338925305516" lon="-6.835411927125859"><ele>1133.0</ele><time>2026-03-22T09:03:34Z</time></trkpt><trkpt lat="30.853335253765323" lon="-6.835478677709022"><ele>1133.0</ele><time>2026-03-22T09:03:35Z</time></trkpt><trkpt lat="30.853296009179463" lon="-6.835568312463866"><ele>1133.0</ele><time>2026-03-22T09:03:36Z</time></trkpt><trkpt lat="30.853239335220067" lon="-6.835655046283966"><ele>1133.0</ele><time>2026-03-22T09:03:37Z</time></trkpt><trkpt lat="30.853170540173064" lon="-6.835731856231707"><ele>1133.0</ele><time>2026-03-22T09:03:38Z</time></trkpt><trkpt lat="30.853100304325945" lon="-6.835819897586236"><ele>1133.0</ele><time>2026-03-22T09:03:39Z</time></trkpt><trkpt lat="30.85302945399261" lon="-6.835916474592417"><ele>1133.0</ele><time>2026-03-22T09:03:40Z</time></trkpt><trkpt lat="30.852962584992905" lon="-6.836022677901229"><ele>1133.0</ele><time>2026-03-22T09:03:41Z</time></trkpt><trkpt lat="30.85289403598828" lon="-6.836118410183194"><ele>1133.0</ele><time>2026-03-22T09:03:42Z</time></trkpt><trkpt lat="30.852817363246878" lon="-6.836216254433188"><ele>1133.0</ele><time>2026-03-22T09:03:43Z</time></trkpt><trkpt lat="30.852743125933994" lon="-6.836284056716382"><ele>1133.6</ele><time>2026-03-22T09:03:44Z</time></trkpt><trkpt lat="30.852662945030676" lon="-6.83632487304807"><ele>1134.1999999999998</ele><time>2026-03-22T09:03:45Z</time></trkpt><trkpt lat="30.8525821535807" lon="-6.836336644465214"><ele>1134.8</ele><time>2026-03-22T09:03:46Z</time></trkpt><trkpt lat="30.852480433515243" lon="-6.836345335012337"><ele>1135.3999999999999</ele><time>2026-03-22T09:03:47Z</time></trkpt><trkpt lat="30.85235366524766" lon="-6.836376124399151"><ele>1136.0</ele><time>2026-03-22T09:03:48Z</time></trkpt><trkpt lat="30.852230632179616" lon="-6.836433176616316"><ele>1136.2</ele><time>2026-03-22T09:03:49Z</time></trkpt><trkpt lat="30.852120550424637" lon="-6.836469005257377"><ele>1136.3999999999999</ele><time>2026-03-22T09:03:50Z</time></trkpt><trkpt lat="30.85202237998879" lon="-6.836468070340434"><ele>1136.6</ele><time>2026-03-22T09:03:51Z</time></trkpt><trkpt lat="30.851945011071003" lon="-6.83642596312785"><ele>1136.8</ele><time>2026-03-22T09:03:52Z</time></trkpt><trkpt lat="30.85188128990617" lon="-6.836358166541929"><ele>1137.0</ele><time>2026-03-22T09:03:53Z</time></trkpt><trkpt lat="30.851814368756347" lon="-6.836279701512527"><ele>1137.75</ele><time>2026-03-22T09:03:54Z</time></trkpt><trkpt lat="30.851744437213338" lon="-6.836193429437681"><ele>1138.5</ele><time>2026-03-22T09:03:55Z</time></trkpt><trkpt lat="30.85164412387503" lon="-6.836121388216974"><ele>1139.25</ele><time>2026-03-22T09:03:56Z</time></trkpt><trkpt lat="30.85152594242272" lon="-6.836043572337881"><ele>1140.0</ele><time>2026-03-22T09:03:57Z</time></trkpt><trkpt lat="30.851410339031258" lon="-6.835973859407535"><ele>1141.5</ele><time>2026-03-22T09:03:58Z</time></trkpt><trkpt lat="30.85130467739945" lon="-6.8359109854289875"><ele>1143.0</ele><time>2026-03-22T09:03:59Z</time></trkpt><trkpt lat="30.851207092381856" lon="-6.83583258818479"><ele>1144.5</ele><time>2026-03-22T09:04:00Z</time></trkpt><trkpt lat="30.851117796453618" lon="-6.835731012984056"><ele>1146.0</ele><time>2026-03-22T09:04:01Z</time></trkpt><trkpt lat="30.851032112745415" lon="-6.835618270223181"><ele>1147.0</ele><time>2026-03-22T09:04:02Z</time></trkpt><trkpt lat="30.85092525833485" lon="-6.835503263659815"><ele>1148.0</ele><time>2026-03-22T09:04:03Z</time></trkpt><trkpt lat="30.8507925643759" lon="-6.835409754317177"><ele>1149.0</ele><time>2026-03-22T09:04:04Z</time></trkpt><trkpt lat="30.85067020668232" lon="-6.835333825618518"><ele>1150.0</ele><time>2026-03-22T09:04:05Z</time></trkpt><trkpt lat="30.850562479193403" lon="-6.835273699945745"><ele>1150.0</ele><time>2026-03-22T09:04:06Z</time></trkpt><trkpt lat="30.850465113848102" lon="-6.835224119976051"><ele>1150.0</ele><time>2026-03-22T09:04:07Z</time></trkpt><trkpt lat="30.85038917800335" lon="-6.835194760085965"><ele>1150.0</ele><time>2026-03-22T09:04:08Z</time></trkpt><trkpt lat="30.85031750699335" lon="-6.835186365405753"><ele>1150.0</ele><time>2026-03-22T09:04:09Z</time></trkpt><trkpt lat="30.85024952900604" lon="-6.8351831948114095"><ele>1150.0</ele><time>2026-03-22T09:04:10Z</time></trkpt><trkpt lat="30.850186309096" lon="-6.835188208039071"><ele>1150.0</ele><time>2026-03-22T09:04:11Z</time></trkpt><trkpt lat="30.85008585994943" lon="-6.835191024906726"><ele>1150.4</ele><time>2026-03-22T09:04:13Z</time></trkpt><trkpt lat="30.8500074361425" lon="-6.835201268886084"><ele>1150.8</ele><time>2026-03-22T09:04:15Z</time></trkpt><trkpt lat="30.84993119232468" lon="-6.835218260727506"><ele>1151.2</ele><time>2026-03-22T09:04:17Z</time></trkpt><trkpt lat="30.849824578524302" lon="-6.835246412631743"><ele>1151.6</ele><time>2026-03-22T09:04:19Z</time></trkpt><trkpt lat="30.84970691903666" lon="-6.835321377911254"><ele>1152.0</ele><time>2026-03-22T09:04:21Z</time></trkpt><trkpt lat="30.84964800761806" lon="-6.8353665577809295"><ele>1152.0</ele><time>2026-03-22T09:04:22Z</time></trkpt><trkpt lat="30.84958759870492" lon="-6.835422454681583"><ele>1152.0</ele><time>2026-03-22T09:04:23Z</time></trkpt><trkpt lat="30.84953334795541" lon="-6.8354997045655"><ele>1152.0</ele><time>2026-03-22T09:04:24Z</time></trkpt><trkpt lat="30.849495785699105" lon="-6.835593315459261"><ele>1152.0</ele><time>2026-03-22T09:04:25Z</time></trkpt><trkpt lat="30.849473317623485" lon="-6.8356825141160416"><ele>1152.0</ele><time>2026-03-22T09:04:26Z</time></trkpt><trkpt lat="30.8494527950822" lon="-6.835764699439608"><ele>1152.0</ele><time>2026-03-22T09:04:27Z</time></trkpt><trkpt lat="30.84943240259579" lon="-6.83583507301542"><ele>1152.0000000000002</ele><time>2026-03-22T09:04:28Z</time></trkpt><trkpt lat="30.849413548165746" lon="-6.835907989747189"><ele>1152.0</ele><time>2026-03-22T09:04:29Z</time></trkpt><trkpt lat="30.849385445886732" lon="-6.835982660918768"><ele>1152.0</ele><time>2026-03-22T09:04:30Z</time></trkpt><trkpt lat="30.84935959827785" lon="-6.836054934316165"><ele>1152.0</ele><time>2026-03-22T09:04:31Z</time></trkpt><trkpt lat="30.849324840807583" lon="-6.83612468208846"><ele>1152.0</ele><time>2026-03-22T09:04:32Z</time></trkpt><trkpt lat="30.84928060345551" lon="-6.8361831916799165"><ele>1152.0000000000002</ele><time>2026-03-22T09:04:33Z</time></trkpt><trkpt lat="30.84921358651018" lon="-6.836236572288348"><ele>1152.0</ele><time>2026-03-22T09:04:34Z</time></trkpt><trkpt lat="30.849114741018827" lon="-6.836279603989372"><ele>1153.2</ele><time>2026-03-22T09:04:35Z</time></trkpt><trkpt lat="30.848995350689574" lon="-6.836294802742184"><ele>1154.4</ele><time>2026-03-22T09:04:36Z</time></trkpt><trkpt lat="30.848895705397638" lon="-6.836298992867218"><ele>1155.6</ele><time>2026-03-22T09:04:37Z</time></trkpt><trkpt lat="30.848807807371234" lon="-6.836290028707477"><ele>1156.8</ele><time>2026-03-22T09:04:38Z</time></trkpt><trkpt lat="30.84872815266357" lon="-6.836265017799729"><ele>1158.0</ele><time>2026-03-22T09:04:39Z</time></trkpt><trkpt lat="30.84865814740907" lon="-6.836232427178823"><ele>1158.0</ele><time>2026-03-22T09:04:40Z</time></trkpt><trkpt lat="30.848587078964332" lon="-6.836207990340356"><ele>1158.0</ele><time>2026-03-22T09:04:41Z</time></trkpt><trkpt lat="30.84852085136987" lon="-6.836189134866162"><ele>1158.0</ele><time>2026-03-22T09:04:42Z</time></trkpt><trkpt lat="30.848438114924523" lon="-6.836150401785101"><ele>1158.0</ele><time>2026-03-22T09:04:43Z</time></trkpt><trkpt lat="30.848332356589754" lon="-6.836093698008771"><ele>1158.0</ele><time>2026-03-22T09:04:44Z</time></trkpt><trkpt lat="30.848244919839612" lon="-6.836029200455368"><ele>1157.8571428571427</ele><time>2026-03-22T09:04:45Z</time></trkpt><trkpt lat="30.848192040000082" lon="-6.835959920056268"><ele>1157.7142857142858</ele><time>2026-03-22T09:04:46Z</time></trkpt><trkpt lat="30.848170845704367" lon="-6.8358881943623375"><ele>1157.5714285714284</ele><time>2026-03-22T09:04:47Z</time></trkpt><trkpt lat="30.848182182693574" lon="-6.835810386987332"><ele>1157.4285714285713</ele><time>2026-03-22T09:04:48Z</time></trkpt><trkpt lat="30.848215385239225" lon="-6.835732353981287"><ele>1157.2857142857142</ele><time>2026-03-22T09:04:49Z</time></trkpt><trkpt lat="30.848249492305083" lon="-6.835645214988817"><ele>1157.142857142857</ele><time>2026-03-22T09:04:50Z</time></trkpt><trkpt lat="30.848269156860397" lon="-6.835566331564973"><ele>1157.0</ele><time>2026-03-22T09:04:51Z</time></trkpt><trkpt lat="30.848294361858155" lon="-6.835498588841465"><ele>1157.0</ele><time>2026-03-22T09:04:52Z</time></trkpt><trkpt lat="30.84831947550399" lon="-6.835428448582113"><ele>1157.0</ele><time>2026-03-22T09:04:53Z</time></trkpt><trkpt lat="30.84835238425119" lon="-6.83535886174844"><ele>1157.0</ele><time>2026-03-22T09:04:54Z</time></trkpt><trkpt lat="30.848384203220327" lon="-6.835287780361204"><ele>1157.0</ele><time>2026-03-22T09:04:55Z</time></trkpt><trkpt lat="30.84843638860622" lon="-6.835171464298485"><ele>1157.0</ele><time>2026-03-22T09:04:57Z</time></trkpt><trkpt lat="30.848521804684996" lon="-6.835067474723884"><ele>1157.0</ele><time>2026-03-22T09:04:59Z</time></trkpt><trkpt lat="30.848640409664316" lon="-6.835049020870977"><ele>1157.0</ele><time>2026-03-22T09:05:01Z</time></trkpt><trkpt lat="30.84870340154318" lon="-6.835027632963835"><ele>1157.0</ele><time>2026-03-22T09:05:02Z</time></trkpt><trkpt lat="30.84877024569774" lon="-6.835008350252103"><ele>1157.0</ele><time>2026-03-22T09:05:03Z</time></trkpt><trkpt lat="30.848834217000288" lon="-6.834976407711305"><ele>1157.0</ele><time>2026-03-22T09:05:04Z</time></trkpt><trkpt lat="30.848905345977148" lon="-6.8349475038895005"><ele>1157.0</ele><time>2026-03-22T09:05:05Z</time></trkpt><trkpt lat="30.848996102058244" lon="-6.834917988189349"><ele>1157.0</ele><time>2026-03-22T09:05:06Z</time></trkpt><trkpt lat="30.849083706738845" lon="-6.834880419484258"><ele>1157.0</ele><time>2026-03-22T09:05:07Z</time></trkpt><trkpt lat="30.84914758201619" lon="-6.834845509772086"><ele>1157.0</ele><time>2026-03-22T09:05:08Z</time></trkpt><trkpt lat="30.849206902150257" lon="-6.834813808878145"><ele>1157.0</ele><time>2026-03-22T09:05:09Z</time></trkpt><trkpt lat="30.849261011773326" lon="-6.8347732577522455"><ele>1157.0</ele><time>2026-03-22T09:05:10Z</time></trkpt><trkpt lat="30.849338934705035" lon="-6.83466797736213"><ele>1157.0</ele><time>2026-03-22T09:05:12Z</time></trkpt><trkpt lat="30.849359587803537" lon="-6.834533592935576"><ele>1157.0</ele><time>2026-03-22T09:05:14Z</time></trkpt><trkpt lat="30.84934386568875" lon="-6.834437957630843"><ele>1156.6666666666667</ele><time>2026-03-22T09:05:15Z</time></trkpt><trkpt lat="30.8492961661546" lon="-6.834337913309121"><ele>1156.3333333333335</ele><time>2026-03-22T09:05:16Z</time></trkpt><trkpt lat="30.849236103534842" lon="-6.834256270638724"><ele>1156.0</ele><time>2026-03-22T09:05:17Z</time></trkpt><trkpt lat="30.849190851272056" lon="-6.834191687509899"><ele>1155.6666666666667</ele><time>2026-03-22T09:05:18Z</time></trkpt><trkpt lat="30.849130645829906" lon="-6.834095230585484"><ele>1155.3333333333333</ele><time>2026-03-22T09:05:20Z</time></trkpt><trkpt lat="30.849069322395096" lon="-6.834028706314432"><ele>1155.0</ele><time>2026-03-22T09:05:22Z</time></trkpt><trkpt lat="30.848986812879666" lon="-6.833969422076644"><ele>1155.8</ele><time>2026-03-22T09:05:24Z</time></trkpt><trkpt lat="30.848917041634436" lon="-6.833918122556519"><ele>1156.6</ele><time>2026-03-22T09:05:26Z</time></trkpt><trkpt lat="30.84887300378087" lon="-6.833829428153265"><ele>1157.4</ele><time>2026-03-22T09:05:28Z</time></trkpt><trkpt lat="30.84887647192452" lon="-6.83373198399667"><ele>1158.2</ele><time>2026-03-22T09:05:30Z</time></trkpt><trkpt lat="30.84894620252671" lon="-6.833603263724389"><ele>1159.0</ele><time>2026-03-22T09:05:32Z</time></trkpt><trkpt lat="30.849000223169583" lon="-6.833533744653269"><ele>1159.0</ele><time>2026-03-22T09:05:33Z</time></trkpt><trkpt lat="30.849062542773357" lon="-6.833478655580679"><ele>1159.0</ele><time>2026-03-22T09:05:34Z</time></trkpt><trkpt lat="30.849107822884825" lon="-6.83342689949767"><ele>1159.0</ele><time>2026-03-22T09:05:35Z</time></trkpt><trkpt lat="30.849145644538712" lon="-6.8333575209279775"><ele>1159.0</ele><time>2026-03-22T09:05:41Z</time></trkpt><trkpt lat="30.849114513567233" lon="-6.833281104605524"><ele>1159.0</ele><time>2026-03-22T09:05:46Z</time></trkpt><trkpt lat="30.8490877072799" lon="-6.833177500458562"><ele>1159.0</ele><time>2026-03-22T09:05:49Z</time></trkpt><trkpt lat="30.84906455522423" lon="-6.833077885505501"><ele>1158.0</ele><time>2026-03-22T09:05:51Z</time></trkpt><trkpt lat="30.84904168809624" lon="-6.832994777015708"><ele>1157.0</ele><time>2026-03-22T09:05:52Z</time></trkpt><trkpt lat="30.84900401142323" lon="-6.832910732391706"><ele>1156.0</ele><time>2026-03-22T09:05:53Z</time></trkpt><trkpt lat="30.848952183227205" lon="-6.83283236724799"><ele>1155.0</ele><time>2026-03-22T09:05:54Z</time></trkpt><trkpt lat="30.848894776004407" lon="-6.832747833113827"><ele>1154.0</ele><time>2026-03-22T09:05:55Z</time></trkpt><trkpt lat="30.84884833911029" lon="-6.8326796026751335"><ele>1153.0</ele><time>2026-03-22T09:05:56Z</time></trkpt><trkpt lat="30.84876599109697" lon="-6.83259929090859"><ele>1151.6666666666665</ele><time>2026-03-22T09:05:58Z</time></trkpt><trkpt lat="30.848689504249748" lon="-6.832564970647085"><ele>1150.3333333333333</ele><time>2026-03-22T09:05:59Z</time></trkpt><trkpt lat="30.84858773679215" lon="-6.8325550369831465"><ele>1149.0</ele><time>2026-03-22T09:06:00Z</time></trkpt><trkpt lat="30.84850393067506" lon="-6.8325597736251"><ele>1147.6666666666667</ele><time>2026-03-22T09:06:01Z</time></trkpt><trkpt lat="30.848421578357776" lon="-6.832568889180961"><ele>1146.3333333333335</ele><time>2026-03-22T09:06:03Z</time></trkpt><trkpt lat="30.84837087976514" lon="-6.832497562088798"><ele>1145.0</ele><time>2026-03-22T09:06:06Z</time></trkpt><trkpt lat="30.848336791657243" lon="-6.83243332548415"><ele>1144.0</ele><time>2026-03-22T09:06:11Z</time></trkpt><trkpt lat="30.848322039377113" lon="-6.832352929922691"><ele>1143.0</ele><time>2026-03-22T09:06:18Z</time></trkpt><trkpt lat="30.84830633744212" lon="-6.832276235448844"><ele>1142.0</ele><time>2026-03-22T09:06:26Z</time></trkpt><trkpt lat="30.848265465340727" lon="-6.832154398708242"><ele>1141.0</ele><time>2026-03-22T09:06:28Z</time></trkpt><trkpt lat="30.84825827197693" lon="-6.832017027231673"><ele>1140.0</ele><time>2026-03-22T09:06:30Z</time></trkpt><trkpt lat="30.84825644650484" lon="-6.831886465165148"><ele>1141.2</ele><time>2026-03-22T09:06:31Z</time></trkpt><trkpt lat="30.84824746793746" lon="-6.831758557476653"><ele>1142.4</ele><time>2026-03-22T09:06:32Z</time></trkpt><trkpt lat="30.848231226788783" lon="-6.831656891277253"><ele>1143.6</ele><time>2026-03-22T09:06:33Z</time></trkpt><trkpt lat="30.8482006803972" lon="-6.8315858449756295"><ele>1144.8</ele><time>2026-03-22T09:06:34Z</time></trkpt><trkpt lat="30.848161616968" lon="-6.831486740149629"><ele>1146.0</ele><time>2026-03-22T09:06:35Z</time></trkpt><trkpt lat="30.84811323853412" lon="-6.831355758697964"><ele>1146.0</ele><time>2026-03-22T09:06:36Z</time></trkpt><trkpt lat="30.84805579879544" lon="-6.83122793032421"><ele>1146.0</ele><time>2026-03-22T09:06:37Z</time></trkpt><trkpt lat="30.848007262230343" lon="-6.831128979845212"><ele>1146.0</ele><time>2026-03-22T09:06:38Z</time></trkpt><trkpt lat="30.847956413870477" lon="-6.831071907548908"><ele>1146.0</ele><time>2026-03-22T09:06:40Z</time></trkpt><trkpt lat="30.847814744462877" lon="-6.831119129468285"><ele>1146.0</ele><time>2026-03-22T09:11:13Z</time></trkpt><trkpt lat="30.847704491587525" lon="-6.831154621125234"><ele>1147.25</ele><time>2026-03-22T09:11:14Z</time></trkpt><trkpt lat="30.847579085678223" lon="-6.831223187525153"><ele>1148.5</ele><time>2026-03-22T09:11:15Z</time></trkpt><trkpt lat="30.847459247136122" lon="-6.831236700749563"><ele>1149.75</ele><time>2026-03-22T09:11:16Z</time></trkpt><trkpt lat="30.847358215303544" lon="-6.83124809329587"><ele>1151.0</ele><time>2026-03-22T09:11:17Z</time></trkpt><trkpt lat="30.847248330796" lon="-6.831238877770721"><ele>1151.0</ele><time>2026-03-22T09:11:18Z</time></trkpt><trkpt lat="30.847131751468726" lon="-6.831226571199494"><ele>1151.0</ele><time>2026-03-22T09:11:19Z</time></trkpt><trkpt lat="30.846992630540363" lon="-6.8311823552002195"><ele>1151.0</ele><time>2026-03-22T09:11:20Z</time></trkpt><trkpt lat="30.846883770414646" lon="-6.831176716700785"><ele>1151.0</ele><time>2026-03-22T09:11:21Z</time></trkpt><trkpt lat="30.846784648382414" lon="-6.831168814870824"><ele>1151.0</ele><time>2026-03-22T09:11:22Z</time></trkpt><trkpt lat="30.846696083949542" lon="-6.831160596353035"><ele>1151.0</ele><time>2026-03-22T09:11:23Z</time></trkpt><trkpt lat="30.846622288017564" lon="-6.831152540151948"><ele>1151.0</ele><time>2026-03-22T09:11:24Z</time></trkpt><trkpt lat="30.846553366622715" lon="-6.831141760887313"><ele>1151.0</ele><time>2026-03-22T09:11:25Z</time></trkpt><trkpt lat="30.84648627588366" lon="-6.8311281649911475"><ele>1151.0</ele><time>2026-03-22T09:11:26Z</time></trkpt><trkpt lat="30.846378054497087" lon="-6.831117548182193"><ele>1151.0</ele><time>2026-03-22T09:11:28Z</time></trkpt><trkpt lat="30.846251308775557" lon="-6.831062969102087"><ele>1151.0</ele><time>2026-03-22T09:11:48Z</time></trkpt><trkpt lat="30.846144123463606" lon="-6.831019396865701"><ele>1151.0</ele><time>2026-03-22T09:11:49Z</time></trkpt><trkpt lat="30.846047908049293" lon="-6.830987948543386"><ele>1151.0</ele><time>2026-03-22T09:11:50Z</time></trkpt><trkpt lat="30.845948247255752" lon="-6.830966068027778"><ele>1151.0</ele><time>2026-03-22T09:11:51Z</time></trkpt><trkpt lat="30.845850413670128" lon="-6.830958099004559"><ele>1151.0</ele><time>2026-03-22T09:11:52Z</time></trkpt><trkpt lat="30.84574636158844" lon="-6.830966205960343"><ele>1151.6</ele><time>2026-03-22T09:11:53Z</time></trkpt><trkpt lat="30.84564953547412" lon="-6.8309982538107255"><ele>1152.1999999999998</ele><time>2026-03-22T09:11:54Z</time></trkpt><trkpt lat="30.84556209638871" lon="-6.831035131480485"><ele>1152.8000000000002</ele><time>2026-03-22T09:11:55Z</time></trkpt><trkpt lat="30.84547950090571" lon="-6.8310566613480415"><ele>1153.4</ele><time>2026-03-22T09:11:56Z</time></trkpt><trkpt lat="30.84537839191879" lon="-6.8310636999337"><ele>1154.0</ele><time>2026-03-22T09:11:57Z</time></trkpt><trkpt lat="30.845283790614424" lon="-6.831058866210763"><ele>1154.0</ele><time>2026-03-22T09:11:58Z</time></trkpt><trkpt lat="30.845189495128764" lon="-6.831052742437291"><ele>1154.0</ele><time>2026-03-22T09:11:59Z</time></trkpt><trkpt lat="30.84510552965074" lon="-6.83103111033886"><ele>1154.0</ele><time>2026-03-22T09:12:00Z</time></trkpt><trkpt lat="30.845011407344135" lon="-6.830989008228993"><ele>1154.0</ele><time>2026-03-22T09:12:01Z</time></trkpt><trkpt lat="30.844925059961774" lon="-6.8309420973830015"><ele>1154.0</ele><time>2026-03-22T09:12:02Z</time></trkpt><trkpt lat="30.84482696039822" lon="-6.830876916542152"><ele>1155.25</ele><time>2026-03-22T09:12:03Z</time></trkpt><trkpt lat="30.844723942750665" lon="-6.83080804433885"><ele>1156.5</ele><time>2026-03-22T09:12:04Z</time></trkpt><trkpt lat="30.844597573443252" lon="-6.830715794674077"><ele>1157.75</ele><time>2026-03-22T09:12:05Z</time></trkpt><trkpt lat="30.844470195028222" lon="-6.8306247006024075"><ele>1159.0</ele><time>2026-03-22T09:12:06Z</time></trkpt><trkpt lat="30.844356645178426" lon="-6.830549913114072"><ele>1159.25</ele><time>2026-03-22T09:12:07Z</time></trkpt><trkpt lat="30.844233833897377" lon="-6.830491236140851"><ele>1159.5</ele><time>2026-03-22T09:12:08Z</time></trkpt><trkpt lat="30.844109918094343" lon="-6.83043570002988"><ele>1159.75</ele><time>2026-03-22T09:12:09Z</time></trkpt><trkpt lat="30.843995862279236" lon="-6.83040067279149"><ele>1160.0</ele><time>2026-03-22T09:12:10Z</time></trkpt><trkpt lat="30.843897661947814" lon="-6.830370484908171"><ele>1160.0</ele><time>2026-03-22T09:12:11Z</time></trkpt><trkpt lat="30.843808408698806" lon="-6.830344556680406"><ele>1160.0</ele><time>2026-03-22T09:12:12Z</time></trkpt><trkpt lat="30.843732619675727" lon="-6.830345213992116"><ele>1160.0</ele><time>2026-03-22T09:12:13Z</time></trkpt><trkpt lat="30.843662082582764" lon="-6.830371952217868"><ele>1160.0</ele><time>2026-03-22T09:12:14Z</time></trkpt><trkpt lat="30.84358182974289" lon="-6.830421228621822"><ele>1160.0</ele><time>2026-03-22T09:12:15Z</time></trkpt><trkpt lat="30.84348096834165" lon="-6.830491122465987"><ele>1159.25</ele><time>2026-03-22T09:12:16Z</time></trkpt><trkpt lat="30.843354320242796" lon="-6.830562986660442"><ele>1158.5</ele><time>2026-03-22T09:12:17Z</time></trkpt><trkpt lat="30.84322647027053" lon="-6.830617091333447"><ele>1157.75</ele><time>2026-03-22T09:12:18Z</time></trkpt><trkpt lat="30.843109519696075" lon="-6.8306509758419125"><ele>1157.0</ele><time>2026-03-22T09:12:19Z</time></trkpt><trkpt lat="30.842983218763486" lon="-6.830700814524681"><ele>1157.0</ele><time>2026-03-22T09:12:20Z</time></trkpt><trkpt lat="30.842866467960736" lon="-6.8307474230358025"><ele>1157.0</ele><time>2026-03-22T09:12:21Z</time></trkpt><trkpt lat="30.8427591316851" lon="-6.830766823699797"><ele>1157.0</ele><time>2026-03-22T09:12:22Z</time></trkpt><trkpt lat="30.842650943996478" lon="-6.830796572795929"><ele>1157.0</ele><time>2026-03-22T09:12:23Z</time></trkpt><trkpt lat="30.842556683641966" lon="-6.830859873605312"><ele>1157.2</ele><time>2026-03-22T09:12:24Z</time></trkpt><trkpt lat="30.842478440805095" lon="-6.830939170208339"><ele>1157.4</ele><time>2026-03-22T09:12:25Z</time></trkpt><trkpt lat="30.842415173109917" lon="-6.831026746507045"><ele>1157.6</ele><time>2026-03-22T09:12:26Z</time></trkpt><trkpt lat="30.842362725533455" lon="-6.831120771599462"><ele>1157.8</ele><time>2026-03-22T09:12:27Z</time></trkpt><trkpt lat="30.842314960169357" lon="-6.831217556507"><ele>1158.0</ele><time>2026-03-22T09:12:28Z</time></trkpt><trkpt lat="30.84228041828823" lon="-6.831322171773786"><ele>1158.0</ele><time>2026-03-22T09:12:29Z</time></trkpt><trkpt lat="30.84224846517827" lon="-6.831453847738231"><ele>1158.0</ele><time>2026-03-22T09:12:30Z</time></trkpt><trkpt lat="30.842225610983558" lon="-6.831584470365579"><ele>1158.0</ele><time>2026-03-22T09:12:31Z</time></trkpt><trkpt lat="30.84217971081128" lon="-6.8316784405996085"><ele>1158.0</ele><time>2026-03-22T09:12:32Z</time></trkpt><trkpt lat="30.842104297544804" lon="-6.831756068770631"><ele>1158.0</ele><time>2026-03-22T09:12:33Z</time></trkpt><trkpt lat="30.842018102630817" lon="-6.831814750570514"><ele>1159.0</ele><time>2026-03-22T09:12:34Z</time></trkpt><trkpt lat="30.841931082274268" lon="-6.831860362688693"><ele>1160.0</ele><time>2026-03-22T09:12:35Z</time></trkpt><trkpt lat="30.841858608521196" lon="-6.8319159477598825"><ele>1161.0</ele><time>2026-03-22T09:12:36Z</time></trkpt><trkpt lat="30.84180707876209" lon="-6.831960849759447"><ele>1162.0</ele><time>2026-03-22T09:12:37Z</time></trkpt><trkpt lat="30.841751342346125" lon="-6.832005370045653"><ele>1163.0</ele><time>2026-03-22T09:12:42Z</time></trkpt><trkpt lat="30.841691321615283" lon="-6.832064616035742"><ele>1164.0</ele><time>2026-03-22T09:13:40.999Z</time></trkpt><trkpt lat="30.84162624787191" lon="-6.8321400483817785"><ele>1164.0</ele><time>2026-03-22T09:13:41.999Z</time></trkpt><trkpt lat="30.841558328218916" lon="-6.83222754636947"><ele>1164.0</ele><time>2026-03-22T09:13:42.999Z</time></trkpt><trkpt lat="30.841493768136974" lon="-6.832320668440163"><ele>1164.0</ele><time>2026-03-22T09:13:43.999Z</time></trkpt><trkpt lat="30.841427785790692" lon="-6.83241216740436"><ele>1164.0</ele><time>2026-03-22T09:13:44.999Z</time></trkpt><trkpt lat="30.841355880976597" lon="-6.832515240654422"><ele>1164.0</ele><time>2026-03-22T09:13:45.999Z</time></trkpt><trkpt lat="30.841281221988677" lon="-6.832634916161413"><ele>1166.0</ele><time>2026-03-22T09:13:46.999Z</time></trkpt><trkpt lat="30.84118335235247" lon="-6.832765651227942"><ele>1168.0</ele><time>2026-03-22T09:13:47.999Z</time></trkpt><trkpt lat="30.8410732575216" lon="-6.832900776848741"><ele>1170.0</ele><time>2026-03-22T09:13:48.999Z</time></trkpt><trkpt lat="30.84097736737279" lon="-6.8330501986816214"><ele>1168.6666666666667</ele><time>2026-03-22T09:13:49.999Z</time></trkpt><trkpt lat="30.84088340110343" lon="-6.833201923785135"><ele>1167.3333333333335</ele><time>2026-03-22T09:13:50.999Z</time></trkpt><trkpt lat="30.840782115887745" lon="-6.833356164039041"><ele>1166.0</ele><time>2026-03-22T09:13:51.999Z</time></trkpt><trkpt lat="30.840685492395533" lon="-6.833499827204975"><ele>1166.0</ele><time>2026-03-22T09:13:52.999Z</time></trkpt><trkpt lat="30.84058782401294" lon="-6.833630358615897"><ele>1166.0</ele><time>2026-03-22T09:13:53.999Z</time></trkpt><trkpt lat="30.840499950120577" lon="-6.833745964898909"><ele>1166.0</ele><time>2026-03-22T09:13:54.999Z</time></trkpt><trkpt lat="30.84042126394415" lon="-6.8338648692316735"><ele>1166.0</ele><time>2026-03-22T09:13:55.999Z</time></trkpt><trkpt lat="30.840351946086017" lon="-6.833996958980405"><ele>1166.0</ele><time>2026-03-22T09:13:56.999Z</time></trkpt><trkpt lat="30.840281690094777" lon="-6.834135477206079"><ele>1166.0</ele><time>2026-03-22T09:13:57.999Z</time></trkpt><trkpt lat="30.8402037173637" lon="-6.834266445541076"><ele>1166.0</ele><time>2026-03-22T09:13:58.999Z</time></trkpt><trkpt lat="30.84010994007359" lon="-6.834378590776024"><ele>1166.0</ele><time>2026-03-22T09:13:59.999Z</time></trkpt><trkpt lat="30.840048391429825" lon="-6.8344768577272745"><ele>1166.6</ele><time>2026-03-22T09:14:00.999Z</time></trkpt><trkpt lat="30.84001017762327" lon="-6.834575405196441"><ele>1167.1999999999998</ele><time>2026-03-22T09:14:01.999Z</time></trkpt><trkpt lat="30.839997828795838" lon="-6.834705651170863"><ele>1167.8000000000002</ele><time>2026-03-22T09:14:02.999Z</time></trkpt><trkpt lat="30.839984072279705" lon="-6.834850647773879"><ele>1168.4</ele><time>2026-03-22T09:14:03.999Z</time></trkpt><trkpt lat="30.83997049368199" lon="-6.834981606071084"><ele>1169.0</ele><time>2026-03-22T09:14:04.999Z</time></trkpt><trkpt lat="30.83995897118142" lon="-6.835095728526238"><ele>1169.6666666666667</ele><time>2026-03-22T09:14:05.999Z</time></trkpt><trkpt lat="30.83994664356506" lon="-6.835188213396598"><ele>1170.3333333333335</ele><time>2026-03-22T09:14:06.999Z</time></trkpt><trkpt lat="30.8399351084366" lon="-6.835272897090594"><ele>1171.0</ele><time>2026-03-22T09:14:07.999Z</time></trkpt><trkpt lat="30.839928982911786" lon="-6.835369462325902"><ele>1171.6666666666667</ele><time>2026-03-22T09:14:08.999Z</time></trkpt><trkpt lat="30.839931986281385" lon="-6.835471577857357"><ele>1172.3333333333333</ele><time>2026-03-22T09:14:09.999Z</time></trkpt><trkpt lat="30.839950989639025" lon="-6.83557563711179"><ele>1173.0</ele><time>2026-03-22T09:14:10.999Z</time></trkpt><trkpt lat="30.839982310506933" lon="-6.835685291432359"><ele>1173.0</ele><time>2026-03-22T09:14:11.999Z</time></trkpt><trkpt lat="30.84001717799632" lon="-6.83579983940853"><ele>1173.0</ele><time>2026-03-22T09:14:12.999Z</time></trkpt><trkpt lat="30.840044094106243" lon="-6.835911553221302"><ele>1173.0</ele><time>2026-03-22T09:14:13.999Z</time></trkpt><trkpt lat="30.840054515829554" lon="-6.836005776557489"><ele>1173.0</ele><time>2026-03-22T09:14:14.999Z</time></trkpt><trkpt lat="30.840009516257158" lon="-6.836161379487998"><ele>1173.0</ele><time>2026-03-22T09:14:16.999Z</time></trkpt><trkpt lat="30.839939287952177" lon="-6.836219184466779"><ele>1172.25</ele><time>2026-03-22T09:14:17.999Z</time></trkpt><trkpt lat="30.83982385220044" lon="-6.836254539636624"><ele>1171.5</ele><time>2026-03-22T09:14:18.999Z</time></trkpt><trkpt lat="30.839689711652927" lon="-6.836245399248377"><ele>1170.75</ele><time>2026-03-22T09:14:19.999Z</time></trkpt><trkpt lat="30.83954579350705" lon="-6.836229004702011"><ele>1170.0</ele><time>2026-03-22T09:14:20.999Z</time></trkpt><trkpt lat="30.83938188560449" lon="-6.836240323655025"><ele>1170.75</ele><time>2026-03-22T09:14:21.999Z</time></trkpt><trkpt lat="30.83924301325755" lon="-6.83628052660358"><ele>1171.5</ele><time>2026-03-22T09:14:22.999Z</time></trkpt><trkpt lat="30.839124369606413" lon="-6.836344892285501"><ele>1172.25</ele><time>2026-03-22T09:14:23.999Z</time></trkpt><trkpt lat="30.839018150660934" lon="-6.836403235263155"><ele>1173.0</ele><time>2026-03-22T09:14:24.999Z</time></trkpt><trkpt lat="30.838890871023693" lon="-6.836451078167568"><ele>1173.0</ele><time>2026-03-22T09:14:25.999Z</time></trkpt><trkpt lat="30.838752511921204" lon="-6.836471448131203"><ele>1173.0</ele><time>2026-03-22T09:14:26.999Z</time></trkpt><trkpt lat="30.838593402534517" lon="-6.836496924383895"><ele>1173.0</ele><time>2026-03-22T09:14:27.999Z</time></trkpt><trkpt lat="30.83842168439101" lon="-6.836528528241448"><ele>1172.75</ele><time>2026-03-22T09:14:28.999Z</time></trkpt><trkpt lat="30.838266918213908" lon="-6.83656061585106"><ele>1172.5</ele><time>2026-03-22T09:14:29.999Z</time></trkpt><trkpt lat="30.83814879604725" lon="-6.836587982630744"><ele>1172.25</ele><time>2026-03-22T09:14:30.999Z</time></trkpt><trkpt lat="30.838058641369198" lon="-6.836613361400344"><ele>1172.0</ele><time>2026-03-22T09:14:31.999Z</time></trkpt><trkpt lat="30.837973176083622" lon="-6.836658150820857"><ele>1172.0</ele><time>2026-03-22T09:14:32.999Z</time></trkpt><trkpt lat="30.83788856755254" lon="-6.836719976232042"><ele>1172.0</ele><time>2026-03-22T09:14:33.999Z</time></trkpt><trkpt lat="30.83780700728524" lon="-6.836794966441807"><ele>1172.0</ele><time>2026-03-22T09:14:34.999Z</time></trkpt><trkpt lat="30.83774446807362" lon="-6.83687048858257"><ele>1172.0</ele><time>2026-03-22T09:14:35.999Z</time></trkpt><trkpt lat="30.83768454337224" lon="-6.836974529040335"><ele>1172.0</ele><time>2026-03-22T09:14:36.999Z</time></trkpt><trkpt lat="30.837619001768008" lon="-6.837081369791201"><ele>1173.0</ele><time>2026-03-22T09:14:37.999Z</time></trkpt><trkpt lat="30.83751728269148" lon="-6.8371563047117165"><ele>1174.0</ele><time>2026-03-22T09:14:38.999Z</time></trkpt><trkpt lat="30.83738278837322" lon="-6.837200868947378"><ele>1175.0</ele><time>2026-03-22T09:14:39.999Z</time></trkpt><trkpt lat="30.837247657885932" lon="-6.837224340834061"><ele>1176.0</ele><time>2026-03-22T09:14:40.999Z</time></trkpt><trkpt lat="30.83712674262859" lon="-6.837220236447782"><ele>1176.0</ele><time>2026-03-22T09:14:41.999Z</time></trkpt><trkpt lat="30.837013314270607" lon="-6.8372159069019265"><ele>1176.0</ele><time>2026-03-22T09:14:42.999Z</time></trkpt><trkpt lat="30.836885723223773" lon="-6.837229665124571"><ele>1176.0</ele><time>2026-03-22T09:14:43.999Z</time></trkpt><trkpt lat="30.83676038584954" lon="-6.83725540737181"><ele>1176.0</ele><time>2026-03-22T09:14:44.999Z</time></trkpt><trkpt lat="30.83663813344196" lon="-6.83727431327066"><ele>1176.5</ele><time>2026-03-22T09:14:45.999Z</time></trkpt><trkpt lat="30.836515527992656" lon="-6.837291010587329"><ele>1177.0</ele><time>2026-03-22T09:14:46.999Z</time></trkpt><trkpt lat="30.836392602977902" lon="-6.837309802835836"><ele>1177.5</ele><time>2026-03-22T09:14:47.999Z</time></trkpt><trkpt lat="30.83626803996377" lon="-6.837340349437641"><ele>1178.0</ele><time>2026-03-22T09:14:48.999Z</time></trkpt><trkpt lat="30.836156301095766" lon="-6.83740128623663"><ele>1178.0</ele><time>2026-03-22T09:14:49.999Z</time></trkpt><trkpt lat="30.836085161925727" lon="-6.837481048010164"><ele>1178.0</ele><time>2026-03-22T09:14:50.999Z</time></trkpt><trkpt lat="30.83603501382531" lon="-6.8375574395517695"><ele>1178.0</ele><time>2026-03-22T09:14:51.999Z</time></trkpt><trkpt lat="30.83597684115956" lon="-6.837612899628158"><ele>1178.0</ele><time>2026-03-22T09:14:52.999Z</time></trkpt><trkpt lat="30.83590809542329" lon="-6.837659337389467"><ele>1178.0</ele><time>2026-03-22T09:14:53.999Z</time></trkpt><trkpt lat="30.835820248908348" lon="-6.837686439238836"><ele>1178.0</ele><time>2026-03-22T09:14:54.999Z</time></trkpt><trkpt lat="30.83573427175947" lon="-6.837688191058761"><ele>1178.8</ele><time>2026-03-22T09:14:55.999Z</time></trkpt><trkpt lat="30.835648886884883" lon="-6.837665498240985"><ele>1179.6</ele><time>2026-03-22T09:14:56.999Z</time></trkpt><trkpt lat="30.835542722561136" lon="-6.837615884000888"><ele>1180.4</ele><time>2026-03-22T09:14:57.999Z</time></trkpt><trkpt lat="30.83544850042516" lon="-6.837547883929004"><ele>1181.2</ele><time>2026-03-22T09:14:58.999Z</time></trkpt><trkpt lat="30.83535195781388" lon="-6.837475011691662"><ele>1182.0</ele><time>2026-03-22T09:14:59.999Z</time></trkpt><trkpt lat="30.83523442430997" lon="-6.837403685962413"><ele>1182.3333333333333</ele><time>2026-03-22T09:15:00.999Z</time></trkpt><trkpt lat="30.83511062593095" lon="-6.837313219698807"><ele>1182.6666666666665</ele><time>2026-03-22T09:15:01.999Z</time></trkpt><trkpt lat="30.834983795785615" lon="-6.837213450157815"><ele>1183.0</ele><time>2026-03-22T09:15:02.999Z</time></trkpt><trkpt lat="30.834837663522126" lon="-6.837086872449665"><ele>1183.0</ele><time>2026-03-22T09:15:03.999Z</time></trkpt><trkpt lat="30.834668294776428" lon="-6.836957344163095"><ele>1183.0</ele><time>2026-03-22T09:15:04.999Z</time></trkpt><trkpt lat="30.834514459330588" lon="-6.836851969419185"><ele>1183.0</ele><time>2026-03-22T09:15:05.999Z</time></trkpt><trkpt lat="30.834368641148927" lon="-6.836785188430366"><ele>1183.75</ele><time>2026-03-22T09:15:06.999Z</time></trkpt><trkpt lat="30.834215424617252" lon="-6.836719586876304"><ele>1184.5</ele><time>2026-03-22T09:15:07.999Z</time></trkpt><trkpt lat="30.834080955060337" lon="-6.836672842560304"><ele>1185.25</ele><time>2026-03-22T09:15:08.999Z</time></trkpt><trkpt lat="30.83395642322759" lon="-6.836655371211033"><ele>1186.0</ele><time>2026-03-22T09:15:09.999Z</time></trkpt><trkpt lat="30.833846335188724" lon="-6.836696980358268"><ele>1186.0</ele><time>2026-03-22T09:15:10.999Z</time></trkpt><trkpt lat="30.833745364562947" lon="-6.83674932834414"><ele>1186.0</ele><time>2026-03-22T09:15:11.999Z</time></trkpt><trkpt lat="30.833652126323113" lon="-6.836802361922072"><ele>1186.0</ele><time>2026-03-22T09:15:12.999Z</time></trkpt><trkpt lat="30.833570187692754" lon="-6.836833759050495"><ele>1186.0</ele><time>2026-03-22T09:15:13.999Z</time></trkpt><trkpt lat="30.833485424335382" lon="-6.836866376117493"><ele>1186.0</ele><time>2026-03-22T09:15:14.999Z</time></trkpt><trkpt lat="30.83339570270422" lon="-6.836903402372487"><ele>1187.6</ele><time>2026-03-22T09:15:15.999Z</time></trkpt><trkpt lat="30.833307511645216" lon="-6.83693756968955"><ele>1189.1999999999998</ele><time>2026-03-22T09:15:16.999Z</time></trkpt><trkpt lat="30.833218872878906" lon="-6.8369879193756855"><ele>1190.8000000000002</ele><time>2026-03-22T09:15:17.999Z</time></trkpt><trkpt lat="30.833135144542034" lon="-6.837064503616356"><ele>1192.4</ele><time>2026-03-22T09:15:18.999Z</time></trkpt><trkpt lat="30.833054261242935" lon="-6.837139511200682"><ele>1194.0</ele><time>2026-03-22T09:15:19.999Z</time></trkpt><trkpt lat="30.832980804271106" lon="-6.837210202658529"><ele>1194.0</ele><time>2026-03-22T09:15:20.999Z</time></trkpt><trkpt lat="30.832911998130918" lon="-6.837279624590158"><ele>1194.0</ele><time>2026-03-22T09:15:21.999Z</time></trkpt><trkpt lat="30.83283280911797" lon="-6.8373561555795455"><ele>1194.0</ele><time>2026-03-22T09:15:22.999Z</time></trkpt><trkpt lat="30.832754252885053" lon="-6.837433058133868"><ele>1194.0</ele><time>2026-03-22T09:15:23.999Z</time></trkpt><trkpt lat="30.832670426839567" lon="-6.837506175150707"><ele>1194.0</ele><time>2026-03-22T09:15:24.999Z</time></trkpt><trkpt lat="30.83258237679607" lon="-6.837569457034589"><ele>1195.25</ele><time>2026-03-22T09:15:25.999Z</time></trkpt><trkpt lat="30.83249631180097" lon="-6.837623202477377"><ele>1196.5</ele><time>2026-03-22T09:15:26.999Z</time></trkpt><trkpt lat="30.832397243958802" lon="-6.837675834622461"><ele>1197.75</ele><time>2026-03-22T09:15:27.999Z</time></trkpt><trkpt lat="30.83228035021573" lon="-6.837739481777242"><ele>1199.0</ele><time>2026-03-22T09:15:28.999Z</time></trkpt><trkpt lat="30.83213046187491" lon="-6.837804798211865"><ele>1200.0</ele><time>2026-03-22T09:15:29.999Z</time></trkpt><trkpt lat="30.831964297600866" lon="-6.837883386731007"><ele>1201.0</ele><time>2026-03-22T09:15:30.999Z</time></trkpt><trkpt lat="30.831791383496924" lon="-6.837969621202819"><ele>1202.0</ele><time>2026-03-22T09:15:31.999Z</time></trkpt><trkpt lat="30.83164347307855" lon="-6.838053429905405"><ele>1202.0</ele><time>2026-03-22T09:15:32.999Z</time></trkpt><trkpt lat="30.831535429292394" lon="-6.8381537050275645"><ele>1202.0</ele><time>2026-03-22T09:15:33.999Z</time></trkpt><trkpt lat="30.83143636890395" lon="-6.838274539495679"><ele>1202.0</ele><time>2026-03-22T09:15:34.999Z</time></trkpt><trkpt lat="30.831330035521194" lon="-6.838427532601249"><ele>1203.0</ele><time>2026-03-22T09:15:35.999Z</time></trkpt><trkpt lat="30.831226413464186" lon="-6.8385741297785625"><ele>1204.0</ele><time>2026-03-22T09:15:36.999Z</time></trkpt><trkpt lat="30.831131592729395" lon="-6.838701611348543"><ele>1205.0</ele><time>2026-03-22T09:15:37.999Z</time></trkpt><trkpt lat="30.831057943297886" lon="-6.838803209839087"><ele>1206.0</ele><time>2026-03-22T09:15:38.999Z</time></trkpt><trkpt lat="30.83098339438631" lon="-6.838860858929404"><ele>1205.25</ele><time>2026-03-22T09:15:39.999Z</time></trkpt><trkpt lat="30.830893709048503" lon="-6.838919631705799"><ele>1204.5</ele><time>2026-03-22T09:15:40.999Z</time></trkpt><trkpt lat="30.830775520447922" lon="-6.838986283941209"><ele>1203.75</ele><time>2026-03-22T09:15:41.999Z</time></trkpt><trkpt lat="30.830643645316563" lon="-6.8390539352028705"><ele>1203.0</ele><time>2026-03-22T09:15:42.999Z</time></trkpt><trkpt lat="30.83049241241058" lon="-6.839118937402771"><ele>1203.0</ele><time>2026-03-22T09:15:43.999Z</time></trkpt><trkpt lat="30.83031852178526" lon="-6.839183973295357"><ele>1203.0</ele><time>2026-03-22T09:15:44.999Z</time></trkpt><trkpt lat="30.830134594748152" lon="-6.839254685256513"><ele>1203.0</ele><time>2026-03-22T09:15:45.999Z</time></trkpt><trkpt lat="30.82997388796871" lon="-6.83930760043106"><ele>1205.25</ele><time>2026-03-22T09:15:46.999Z</time></trkpt><trkpt lat="30.829843242428062" lon="-6.8393592988861265"><ele>1207.5</ele><time>2026-03-22T09:15:47.999Z</time></trkpt><trkpt lat="30.82970485457266" lon="-6.839425748247227"><ele>1209.75</ele><time>2026-03-22T09:15:48.999Z</time></trkpt><trkpt lat="30.829578721574695" lon="-6.839503901303041"><ele>1212.0</ele><time>2026-03-22T09:15:49.999Z</time></trkpt><trkpt lat="30.829462851511963" lon="-6.839588047023312"><ele>1212.0</ele><time>2026-03-22T09:15:50.999Z</time></trkpt><trkpt lat="30.82935085427547" lon="-6.839664793874591"><ele>1212.0</ele><time>2026-03-22T09:15:51.999Z</time></trkpt><trkpt lat="30.829257737900292" lon="-6.839738474615625"><ele>1212.0</ele><time>2026-03-22T09:15:52.999Z</time></trkpt><trkpt lat="30.829168144121248" lon="-6.8398164578517635"><ele>1212.0</ele><time>2026-03-22T09:15:53.999Z</time></trkpt><trkpt lat="30.829089253272247" lon="-6.839887489861787"><ele>1212.2</ele><time>2026-03-22T09:15:54.999Z</time></trkpt><trkpt lat="30.829012838378016" lon="-6.839950304658153"><ele>1212.4</ele><time>2026-03-22T09:15:55.999Z</time></trkpt><trkpt lat="30.828946916847006" lon="-6.840015639371434"><ele>1212.6</ele><time>2026-03-22T09:15:56.999Z</time></trkpt><trkpt lat="30.82887777585172" lon="-6.840090714869074"><ele>1212.8</ele><time>2026-03-22T09:15:57.999Z</time></trkpt><trkpt lat="30.82880339972609" lon="-6.840163446768944"><ele>1213.0</ele><time>2026-03-22T09:15:58.999Z</time></trkpt><trkpt lat="30.828725760158235" lon="-6.84024433702567"><ele>1213.0</ele><time>2026-03-22T09:15:59.999Z</time></trkpt><trkpt lat="30.828645596612795" lon="-6.840316968594626"><ele>1213.0</ele><time>2026-03-22T09:16:00.999Z</time></trkpt><trkpt lat="30.828570981313963" lon="-6.8403854564845235"><ele>1213.0</ele><time>2026-03-22T09:16:01.999Z</time></trkpt><trkpt lat="30.828503777893705" lon="-6.840444311953546"><ele>1213.0</ele><time>2026-03-22T09:16:02.999Z</time></trkpt><trkpt lat="30.828438059184517" lon="-6.840509493722665"><ele>1213.0</ele><time>2026-03-22T09:16:03.999Z</time></trkpt><trkpt lat="30.828375297073027" lon="-6.840570322992985"><ele>1213.0</ele><time>2026-03-22T09:16:04.999Z</time></trkpt><trkpt lat="30.828297011225175" lon="-6.840643563328188"><ele>1213.2</ele><time>2026-03-22T09:16:05.999Z</time></trkpt><trkpt lat="30.82821735016446" lon="-6.840730840520016"><ele>1213.4</ele><time>2026-03-22T09:16:06.999Z</time></trkpt><trkpt lat="30.828139684140588" lon="-6.8408052922323686"><ele>1213.6000000000001</ele><time>2026-03-22T09:16:07.999Z</time></trkpt><trkpt lat="30.82806503729837" lon="-6.84087287437758"><ele>1213.8</ele><time>2026-03-22T09:16:08.999Z</time></trkpt><trkpt lat="30.82799687416608" lon="-6.840937763013278"><ele>1214.0</ele><time>2026-03-22T09:16:09.999Z</time></trkpt><trkpt lat="30.827918435866046" lon="-6.841006200453513"><ele>1214.0</ele><time>2026-03-22T09:16:10.999Z</time></trkpt><trkpt lat="30.827827586327476" lon="-6.841106248266234"><ele>1214.0</ele><time>2026-03-22T09:16:11.999Z</time></trkpt><trkpt lat="30.827730376552633" lon="-6.841205282425335"><ele>1214.0</ele><time>2026-03-22T09:16:12.999Z</time></trkpt><trkpt lat="30.827644164101685" lon="-6.841288199435107"><ele>1214.0</ele><time>2026-03-22T09:16:13.999Z</time></trkpt><trkpt lat="30.827569990881784" lon="-6.841370160857234"><ele>1213.8333333333335</ele><time>2026-03-22T09:16:14.999Z</time></trkpt><trkpt lat="30.82750118678349" lon="-6.841453291041391"><ele>1213.6666666666667</ele><time>2026-03-22T09:16:15.999Z</time></trkpt><trkpt lat="30.82744538110287" lon="-6.841523607539408"><ele>1213.5</ele><time>2026-03-22T09:16:16.999Z</time></trkpt><trkpt lat="30.82739914830745" lon="-6.841583913860893"><ele>1213.3333333333333</ele><time>2026-03-22T09:16:17.999Z</time></trkpt><trkpt lat="30.82735024891154" lon="-6.841641428813328"><ele>1213.1666666666665</ele><time>2026-03-22T09:16:18.999Z</time></trkpt><trkpt lat="30.827300393227745" lon="-6.841695075402942"><ele>1213.0</ele><time>2026-03-22T09:16:19.999Z</time></trkpt><trkpt lat="30.827220831797206" lon="-6.841766378232642"><ele>1214.2</ele><time>2026-03-22T09:16:21.999Z</time></trkpt><trkpt lat="30.827134666157836" lon="-6.841829694154756"><ele>1215.4</ele><time>2026-03-22T09:16:23.999Z</time></trkpt><trkpt lat="30.827051108384" lon="-6.841899059660666"><ele>1216.6000000000001</ele><time>2026-03-22T09:16:25.999Z</time></trkpt><trkpt lat="30.82698232514279" lon="-6.841947491388759"><ele>1217.8</ele><time>2026-03-22T09:16:27.999Z</time></trkpt><trkpt lat="30.82692034645643" lon="-6.842031192286582"><ele>1219.0</ele><time>2026-03-22T09:16:29.999Z</time></trkpt><trkpt lat="30.82685997192722" lon="-6.842113814676096"><ele>1219.75</ele><time>2026-03-22T09:16:31.999Z</time></trkpt><trkpt lat="30.826809637331817" lon="-6.842198271892168"><ele>1220.5</ele><time>2026-03-22T09:16:33.999Z</time></trkpt><trkpt lat="30.826762840693544" lon="-6.842267377164038"><ele>1221.25</ele><time>2026-03-22T09:16:36.999Z</time></trkpt><trkpt lat="30.826625255050782" lon="-6.8423848671717735"><ele>1222.0</ele><time>2026-03-22T09:17:05.999Z</time></trkpt><trkpt lat="30.826525238940107" lon="-6.842453296472389"><ele>1222.0</ele><time>2026-03-22T09:17:06.999Z</time></trkpt><trkpt lat="30.826416765505957" lon="-6.842510339109684"><ele>1222.0</ele><time>2026-03-22T09:17:07.999Z</time></trkpt><trkpt lat="30.826308867130855" lon="-6.842581931451842"><ele>1222.0</ele><time>2026-03-22T09:17:08.999Z</time></trkpt><trkpt lat="30.826189229873798" lon="-6.842700065866177"><ele>1222.0</ele><time>2026-03-22T09:17:09.999Z</time></trkpt><trkpt lat="30.826054157508235" lon="-6.842856139860512"><ele>1222.3333333333333</ele><time>2026-03-22T09:17:10.999Z</time></trkpt><trkpt lat="30.825924676932356" lon="-6.843033253798081"><ele>1222.6666666666667</ele><time>2026-03-22T09:17:11.999Z</time></trkpt><trkpt lat="30.825835268274233" lon="-6.843176722675054"><ele>1223.0</ele><time>2026-03-22T09:17:12.999Z</time></trkpt><trkpt lat="30.825775180091984" lon="-6.8432692335569385"><ele>1223.0</ele><time>2026-03-22T09:17:13.999Z</time></trkpt><trkpt lat="30.825730711684596" lon="-6.843330345588716"><ele>1223.0</ele><time>2026-03-22T09:17:14.999Z</time></trkpt><trkpt lat="30.82567112988782" lon="-6.843395281163715"><ele>1223.0</ele><time>2026-03-22T09:17:15.999Z</time></trkpt><trkpt lat="30.825591846699393" lon="-6.843470040505919"><ele>1223.0</ele><time>2026-03-22T09:17:16.999Z</time></trkpt><trkpt lat="30.825507515736213" lon="-6.84354848097807"><ele>1223.0</ele><time>2026-03-22T09:17:17.999Z</time></trkpt><trkpt lat="30.825444305291676" lon="-6.8436256945790825"><ele>1224.1666666666667</ele><time>2026-03-22T09:17:18.999Z</time></trkpt><trkpt lat="30.825397868749228" lon="-6.843724239001699"><ele>1225.3333333333335</ele><time>2026-03-22T09:17:19.999Z</time></trkpt><trkpt lat="30.82537916113435" lon="-6.843822043017878"><ele>1226.5</ele><time>2026-03-22T09:17:20.999Z</time></trkpt><trkpt lat="30.82538297979818" lon="-6.843918159506672"><ele>1227.6666666666667</ele><time>2026-03-22T09:17:21.999Z</time></trkpt><trkpt lat="30.825376648789724" lon="-6.844015480078933"><ele>1228.8333333333333</ele><time>2026-03-22T09:17:22.999Z</time></trkpt><trkpt lat="30.825363877562328" lon="-6.844126737770277"><ele>1230.0</ele><time>2026-03-22T09:17:23.999Z</time></trkpt><trkpt lat="30.82535420063351" lon="-6.844252014630838"><ele>1231.0</ele><time>2026-03-22T09:17:24.999Z</time></trkpt><trkpt lat="30.825330668736353" lon="-6.844407587451957"><ele>1232.0</ele><time>2026-03-22T09:17:25.999Z</time></trkpt><trkpt lat="30.825322174663384" lon="-6.84457726793727"><ele>1233.0</ele><time>2026-03-22T09:17:26.999Z</time></trkpt><trkpt lat="30.825286928601177" lon="-6.844744754020083"><ele>1234.0</ele><time>2026-03-22T09:17:27.999Z</time></trkpt><trkpt lat="30.82520732297382" lon="-6.844924502404612"><ele>1233.6666666666665</ele><time>2026-03-22T09:17:28.999Z</time></trkpt><trkpt lat="30.825127069869072" lon="-6.845084789061437"><ele>1233.3333333333333</ele><time>2026-03-22T09:17:29.999Z</time></trkpt><trkpt lat="30.82508258126911" lon="-6.845249470277097"><ele>1233.0</ele><time>2026-03-22T09:17:30.999Z</time></trkpt><trkpt lat="30.82503081270232" lon="-6.8454240460181035"><ele>1234.6666666666667</ele><time>2026-03-22T09:17:31.999Z</time></trkpt><trkpt lat="30.824956441181026" lon="-6.845562674270798"><ele>1236.3333333333335</ele><time>2026-03-22T09:17:32.999Z</time></trkpt><trkpt lat="30.82484984806857" lon="-6.845670517198797"><ele>1238.0</ele><time>2026-03-22T09:17:33.999Z</time></trkpt><trkpt lat="30.824707769972374" lon="-6.845782363903702"><ele>1238.0</ele><time>2026-03-22T09:17:34.999Z</time></trkpt><trkpt lat="30.824551022849" lon="-6.8459113736995105"><ele>1238.0</ele><time>2026-03-22T09:17:35.999Z</time></trkpt><trkpt lat="30.824391576665644" lon="-6.846029640775548"><ele>1238.0</ele><time>2026-03-22T09:17:36.999Z</time></trkpt><trkpt lat="30.82423904366829" lon="-6.846152063412101"><ele>1239.5</ele><time>2026-03-22T09:17:37.999Z</time></trkpt><trkpt lat="30.824132256593035" lon="-6.846273158166526"><ele>1241.0</ele><time>2026-03-22T09:17:38.999Z</time></trkpt><trkpt lat="30.82404052196627" lon="-6.846399199015023"><ele>1242.5</ele><time>2026-03-22T09:17:39.999Z</time></trkpt><trkpt lat="30.823935786896172" lon="-6.846521841209753"><ele>1244.0</ele><time>2026-03-22T09:17:40.999Z</time></trkpt><trkpt lat="30.823840566725714" lon="-6.8466365869950225"><ele>1244.0</ele><time>2026-03-22T09:17:41.999Z</time></trkpt><trkpt lat="30.823745882778947" lon="-6.846732525970686"><ele>1244.0</ele><time>2026-03-22T09:17:42.999Z</time></trkpt><trkpt lat="30.82364456465171" lon="-6.8468125728022375"><ele>1244.0</ele><time>2026-03-22T09:17:43.999Z</time></trkpt><trkpt lat="30.82355270148326" lon="-6.8468719156430655"><ele>1244.0</ele><time>2026-03-22T09:17:44.999Z</time></trkpt><trkpt lat="30.82347343516647" lon="-6.846912475119917"><ele>1244.0</ele><time>2026-03-22T09:17:45.999Z</time></trkpt><trkpt lat="30.823403769432716" lon="-6.846939841103067"><ele>1245.6000000000001</ele><time>2026-03-22T09:17:46.999Z</time></trkpt><trkpt lat="30.823292428063393" lon="-6.846984627901154"><ele>1247.2</ele><time>2026-03-22T09:17:48.999Z</time></trkpt><trkpt lat="30.823195580950365" lon="-6.847026310046565"><ele>1248.8000000000002</ele><time>2026-03-22T09:17:50.999Z</time></trkpt><trkpt lat="30.82310138194355" lon="-6.847064114038634"><ele>1250.4</ele><time>2026-03-22T09:17:52.999Z</time></trkpt><trkpt lat="30.822976099780732" lon="-6.847081420683889"><ele>1252.0</ele><time>2026-03-22T09:18:31.999Z</time></trkpt><trkpt lat="30.822887541997982" lon="-6.847111823104711"><ele>1252.0</ele><time>2026-03-22T09:18:32.999Z</time></trkpt><trkpt lat="30.82280495247734" lon="-6.847152302289235"><ele>1252.0</ele><time>2026-03-22T09:18:33.999Z</time></trkpt><trkpt lat="30.822709950753577" lon="-6.847190893101234"><ele>1252.0</ele><time>2026-03-22T09:18:34.999Z</time></trkpt><trkpt lat="30.822629457996623" lon="-6.84723651176549"><ele>1252.0</ele><time>2026-03-22T09:18:35.999Z</time></trkpt><trkpt lat="30.822554864406516" lon="-6.847279758686895"><ele>1252.0</ele><time>2026-03-22T09:18:36.999Z</time></trkpt><trkpt lat="30.822481969322993" lon="-6.847335589326825"><ele>1251.0</ele><time>2026-03-22T09:18:37.999Z</time></trkpt><trkpt lat="30.822394689712862" lon="-6.847389294214056"><ele>1250.0</ele><time>2026-03-22T09:18:38.999Z</time></trkpt><trkpt lat="30.822303357545177" lon="-6.847450087211397"><ele>1249.0</ele><time>2026-03-22T09:18:39.999Z</time></trkpt><trkpt lat="30.822212508353072" lon="-6.847504500440965"><ele>1248.0</ele><time>2026-03-22T09:18:40.999Z</time></trkpt><trkpt lat="30.82212112011469" lon="-6.847564373216596"><ele>1247.0</ele><time>2026-03-22T09:18:41.999Z</time></trkpt><trkpt lat="30.822022957144057" lon="-6.847628398935105"><ele>1246.75</ele><time>2026-03-22T09:18:42.999Z</time></trkpt><trkpt lat="30.821928812997516" lon="-6.84769454737529"><ele>1246.5</ele><time>2026-03-22T09:18:43.999Z</time></trkpt><trkpt lat="30.82183720308283" lon="-6.847771301596184"><ele>1246.25</ele><time>2026-03-22T09:18:44.999Z</time></trkpt><trkpt lat="30.821746758182506" lon="-6.847869856665406"><ele>1246.0</ele><time>2026-03-22T09:18:45.999Z</time></trkpt><trkpt lat="30.821668639969868" lon="-6.848007609316988"><ele>1244.25</ele><time>2026-03-22T09:18:46.999Z</time></trkpt><trkpt lat="30.82158493381195" lon="-6.84815882414313"><ele>1242.5</ele><time>2026-03-22T09:18:47.999Z</time></trkpt><trkpt lat="30.82149071292465" lon="-6.848286653125955"><ele>1240.75</ele><time>2026-03-22T09:18:48.999Z</time></trkpt><trkpt lat="30.821391672437397" lon="-6.848375590301753"><ele>1239.0</ele><time>2026-03-22T09:18:49.999Z</time></trkpt><trkpt lat="30.82128913603913" lon="-6.848438394853182"><ele>1238.2</ele><time>2026-03-22T09:18:50.999Z</time></trkpt><trkpt lat="30.821182978501433" lon="-6.848519879679431"><ele>1237.4</ele><time>2026-03-22T09:18:51.999Z</time></trkpt><trkpt lat="30.82107756817565" lon="-6.848602113314657"><ele>1236.6</ele><time>2026-03-22T09:18:52.999Z</time></trkpt><trkpt lat="30.820996092326023" lon="-6.848663579647462"><ele>1235.8</ele><time>2026-03-22T09:18:53.999Z</time></trkpt><trkpt lat="30.820934668433495" lon="-6.848700415391487"><ele>1235.0</ele><time>2026-03-22T09:18:54.999Z</time></trkpt><trkpt lat="30.820894227168424" lon="-6.8487608811099365"><ele>1233.75</ele><time>2026-03-22T09:18:55.999Z</time></trkpt><trkpt lat="30.82084347365652" lon="-6.848872520949283"><ele>1232.5</ele><time>2026-03-22T09:18:56.999Z</time></trkpt><trkpt lat="30.820774219623992" lon="-6.84898307864985"><ele>1231.25</ele><time>2026-03-22T09:18:57.999Z</time></trkpt><trkpt lat="30.820673153451242" lon="-6.849085265957857"><ele>1230.0</ele><time>2026-03-22T09:18:58.999Z</time></trkpt><trkpt lat="30.82054744092199" lon="-6.849184033789847"><ele>1230.0</ele><time>2026-03-22T09:18:59.999Z</time></trkpt><trkpt lat="30.82041649098044" lon="-6.849291119623473"><ele>1230.0</ele><time>2026-03-22T09:19:00.999Z</time></trkpt><trkpt lat="30.82027943905223" lon="-6.849429212135796"><ele>1230.0</ele><time>2026-03-22T09:19:01.999Z</time></trkpt><trkpt lat="30.82015645485207" lon="-6.849521026845236"><ele>1228.2</ele><time>2026-03-22T09:19:02.999Z</time></trkpt><trkpt lat="30.82004175742871" lon="-6.84958983780591"><ele>1226.4</ele><time>2026-03-22T09:19:03.999Z</time></trkpt><trkpt lat="30.819936831442163" lon="-6.849627661614407"><ele>1224.6</ele><time>2026-03-22T09:19:04.999Z</time></trkpt><trkpt lat="30.819833164243214" lon="-6.849640944114592"><ele>1222.8</ele><time>2026-03-22T09:19:05.999Z</time></trkpt><trkpt lat="30.819728431396886" lon="-6.849641460226699"><ele>1221.0</ele><time>2026-03-22T09:19:06.999Z</time></trkpt><trkpt lat="30.819633457177016" lon="-6.849664948205838"><ele>1221.0</ele><time>2026-03-22T09:19:07.999Z</time></trkpt><trkpt lat="30.819527911447317" lon="-6.849744858560489"><ele>1221.0</ele><time>2026-03-22T09:19:08.999Z</time></trkpt><trkpt lat="30.819410038143303" lon="-6.84985684221342"><ele>1221.0</ele><time>2026-03-22T09:19:09.999Z</time></trkpt><trkpt lat="30.8192811404495" lon="-6.849986180026414"><ele>1221.0</ele><time>2026-03-22T09:19:10.999Z</time></trkpt><trkpt lat="30.819149890630758" lon="-6.8500891416647605"><ele>1218.75</ele><time>2026-03-22T09:19:11.999Z</time></trkpt><trkpt lat="30.819032204488227" lon="-6.850159418496447"><ele>1216.5</ele><time>2026-03-22T09:19:12.999Z</time></trkpt><trkpt lat="30.81889755146869" lon="-6.850229355702028"><ele>1214.25</ele><time>2026-03-22T09:19:13.999Z</time></trkpt><trkpt lat="30.818764495862496" lon="-6.850278883615322"><ele>1212.0</ele><time>2026-03-22T09:19:14.999Z</time></trkpt><trkpt lat="30.81863836603432" lon="-6.850330850863206"><ele>1212.0</ele><time>2026-03-22T09:19:15.999Z</time></trkpt><trkpt lat="30.81850681763052" lon="-6.850412039585099"><ele>1212.0</ele><time>2026-03-22T09:19:16.999Z</time></trkpt><trkpt lat="30.818356421662116" lon="-6.850531180012602"><ele>1212.0</ele><time>2026-03-22T09:19:17.999Z</time></trkpt><trkpt lat="30.818207544031925" lon="-6.850650054036887"><ele>1211.6666666666667</ele><time>2026-03-22T09:19:18.999Z</time></trkpt><trkpt lat="30.81804902815848" lon="-6.850744059194257"><ele>1211.3333333333335</ele><time>2026-03-22T09:19:19.999Z</time></trkpt><trkpt lat="30.81787964558343" lon="-6.850854334421824"><ele>1211.0</ele><time>2026-03-22T09:19:20.999Z</time></trkpt><trkpt lat="30.817724220998425" lon="-6.850959482991301"><ele>1208.3333333333335</ele><time>2026-03-22T09:19:21.999Z</time></trkpt><trkpt lat="30.81758456085791" lon="-6.851049014224323"><ele>1205.6666666666667</ele><time>2026-03-22T09:19:22.999Z</time></trkpt><trkpt lat="30.81744501103387" lon="-6.8511298217863725"><ele>1203.0</ele><time>2026-03-22T09:19:23.999Z</time></trkpt><trkpt lat="30.81729667059515" lon="-6.851237372437853"><ele>1203.0</ele><time>2026-03-22T09:19:24.999Z</time></trkpt><trkpt lat="30.817133317512635" lon="-6.851365239199314"><ele>1203.0</ele><time>2026-03-22T09:19:25.999Z</time></trkpt><trkpt lat="30.816988729863546" lon="-6.851485901532901"><ele>1203.0</ele><time>2026-03-22T09:19:26.999Z</time></trkpt><trkpt lat="30.816862268524627" lon="-6.851591369534591"><ele>1202.75</ele><time>2026-03-22T09:19:27.999Z</time></trkpt><trkpt lat="30.816751836528514" lon="-6.851684832191217"><ele>1202.5</ele><time>2026-03-22T09:19:28.999Z</time></trkpt><trkpt lat="30.816659101165474" lon="-6.851772246815628"><ele>1202.25</ele><time>2026-03-22T09:19:29.999Z</time></trkpt><trkpt lat="30.816579693521764" lon="-6.851863824644711"><ele>1202.0</ele><time>2026-03-22T09:19:30.999Z</time></trkpt><trkpt lat="30.816501601976178" lon="-6.8519516365134505"><ele>1201.8</ele><time>2026-03-22T09:19:31.999Z</time></trkpt><trkpt lat="30.816434223051136" lon="-6.8520339948842945"><ele>1201.6</ele><time>2026-03-22T09:19:32.999Z</time></trkpt><trkpt lat="30.816367575765373" lon="-6.85211352546887"><ele>1201.3999999999999</ele><time>2026-03-22T09:19:33.999Z</time></trkpt><trkpt lat="30.816279883924977" lon="-6.852191218206653"><ele>1201.2</ele><time>2026-03-22T09:19:34.999Z</time></trkpt><trkpt lat="30.816200582118665" lon="-6.8522673413840645"><ele>1201.0</ele><time>2026-03-22T09:19:35.999Z</time></trkpt><trkpt lat="30.81614011397268" lon="-6.852329766303062"><ele>1201.0</ele><time>2026-03-22T09:19:36.999Z</time></trkpt><trkpt lat="30.8160489163905" lon="-6.852353171595739"><ele>1201.0</ele><time>2026-03-22T09:19:38.999Z</time></trkpt><trkpt lat="30.816004718690998" lon="-6.852280452857141"><ele>1201.0</ele><time>2026-03-22T09:19:41.999Z</time></trkpt><trkpt lat="30.8159631951734" lon="-6.852196510627381"><ele>1201.0</ele><time>2026-03-22T09:21:10.999Z</time></trkpt><trkpt lat="30.815908583902416" lon="-6.852142133852882"><ele>1201.0</ele><time>2026-03-22T09:21:12.999Z</time></trkpt><trkpt lat="30.81586158022722" lon="-6.852086154185818"><ele>1201.0</ele><time>2026-03-22T09:21:14.999Z</time></trkpt><trkpt lat="30.815811541961573" lon="-6.852023640123677"><ele>1200.3999999999999</ele><time>2026-03-22T09:21:16.999Z</time></trkpt><trkpt lat="30.815704626466516" lon="-6.85192816177167"><ele>1199.8</ele><time>2026-03-22T09:21:18.999Z</time></trkpt><trkpt lat="30.8156223718454" lon="-6.851847728976722"><ele>1199.1999999999998</ele><time>2026-03-22T09:21:19.999Z</time></trkpt><trkpt lat="30.815562147463098" lon="-6.851752467887042"><ele>1198.6</ele><time>2026-03-22T09:21:20.999Z</time></trkpt><trkpt lat="30.815509681104235" lon="-6.851660182934573"><ele>1198.0</ele><time>2026-03-22T09:21:21.999Z</time></trkpt><trkpt lat="30.815478312028368" lon="-6.851560304716048"><ele>1198.0</ele><time>2026-03-22T09:21:22.999Z</time></trkpt><trkpt lat="30.815463429204673" lon="-6.851453930201349"><ele>1198.0</ele><time>2026-03-22T09:21:23.999Z</time></trkpt><trkpt lat="30.815460161674526" lon="-6.851348015283377"><ele>1198.0</ele><time>2026-03-22T09:21:24.999Z</time></trkpt><trkpt lat="30.815457152316927" lon="-6.851250267579551"><ele>1198.0</ele><time>2026-03-22T09:21:25.999Z</time></trkpt><trkpt lat="30.815389495159557" lon="-6.851152958579971"><ele>1198.0</ele><time>2026-03-22T09:21:27.999Z</time></trkpt><trkpt lat="30.815270879699884" lon="-6.851142185672242"><ele>1198.0</ele><time>2026-03-22T09:21:29.999Z</time></trkpt><trkpt lat="30.815188458611065" lon="-6.851163267902264"><ele>1198.0</ele><time>2026-03-22T09:21:30.999Z</time></trkpt><trkpt lat="30.815102134667594" lon="-6.851157090957222"><ele>1198.0</ele><time>2026-03-22T09:21:31.999Z</time></trkpt><trkpt lat="30.81503926029879" lon="-6.851101362465948"><ele>1198.0</ele><time>2026-03-22T09:21:32.999Z</time></trkpt><trkpt lat="30.815007597013683" lon="-6.851024820476619"><ele>1198.0</ele><time>2026-03-22T09:21:33.999Z</time></trkpt><trkpt lat="30.81499037873759" lon="-6.85093813410996"><ele>1198.0</ele><time>2026-03-22T09:21:34.999Z</time></trkpt><trkpt lat="30.814999819950934" lon="-6.850828952108791"><ele>1197.75</ele><time>2026-03-22T09:21:35.999Z</time></trkpt><trkpt lat="30.815009309232842" lon="-6.8506900083986135"><ele>1197.5</ele><time>2026-03-22T09:21:36.999Z</time></trkpt><trkpt lat="30.815016679429327" lon="-6.8505416347531884"><ele>1197.25</ele><time>2026-03-22T09:21:37.999Z</time></trkpt><trkpt lat="30.815027841872308" lon="-6.850389842397745"><ele>1197.0</ele><time>2026-03-22T09:21:38.999Z</time></trkpt><trkpt lat="30.815053666600246" lon="-6.850267977806692"><ele>1197.0</ele><time>2026-03-22T09:21:39.999Z</time></trkpt><trkpt lat="30.815094605728166" lon="-6.850126014951857"><ele>1197.0</ele><time>2026-03-22T09:21:40.999Z</time></trkpt><trkpt lat="30.81513293703482" lon="-6.84996656261486"><ele>1197.0</ele><time>2026-03-22T09:21:41.999Z</time></trkpt><trkpt lat="30.815155421347068" lon="-6.849772000600326"><ele>1197.0</ele><time>2026-03-22T09:21:42.999Z</time></trkpt><trkpt lat="30.815153629311272" lon="-6.849560584751669"><ele>1197.25</ele><time>2026-03-22T09:21:43.999Z</time></trkpt><trkpt lat="30.815144789728855" lon="-6.849359601326786"><ele>1197.5</ele><time>2026-03-22T09:21:44.999Z</time></trkpt><trkpt lat="30.81515516220423" lon="-6.849194689369476"><ele>1197.75</ele><time>2026-03-22T09:21:45.999Z</time></trkpt><trkpt lat="30.81516589364985" lon="-6.849092257788157"><ele>1198.0</ele><time>2026-03-22T09:21:46.999Z</time></trkpt><trkpt lat="30.815173280134747" lon="-6.849014770294157"><ele>1198.5714285714287</ele><time>2026-03-22T09:21:47.999Z</time></trkpt><trkpt lat="30.81517779772175" lon="-6.848929214683871"><ele>1199.142857142857</ele><time>2026-03-22T09:21:48.999Z</time></trkpt><trkpt lat="30.81517296187517" lon="-6.848843614689254"><ele>1199.7142857142858</ele><time>2026-03-22T09:21:49.999Z</time></trkpt><trkpt lat="30.81516052473143" lon="-6.8487690363819285"><ele>1200.2857142857142</ele><time>2026-03-22T09:21:51.001Z</time></trkpt><trkpt lat="30.815139145100854" lon="-6.848691461197523"><ele>1200.857142857143</ele><time>2026-03-22T09:21:52.001Z</time></trkpt><trkpt lat="30.81510632438788" lon="-6.8486285128549635"><ele>1201.4285714285713</ele><time>2026-03-22T09:21:53.001Z</time></trkpt><trkpt lat="30.81505679772195" lon="-6.848582400358091"><ele>1202.0</ele><time>2026-03-22T09:21:54.001Z</time></trkpt><trkpt lat="30.81500251634918" lon="-6.848539234000386"><ele>1202.0</ele><time>2026-03-22T09:21:55.001Z</time></trkpt><trkpt lat="30.814941048851207" lon="-6.84848202655228"><ele>1202.0</ele><time>2026-03-22T09:21:56.001Z</time></trkpt><trkpt lat="30.814861400392722" lon="-6.848407591425707"><ele>1202.0</ele><time>2026-03-22T09:21:57.001Z</time></trkpt><trkpt lat="30.81476630032635" lon="-6.848355038164548"><ele>1202.0</ele><time>2026-03-22T09:21:58.001Z</time></trkpt><trkpt lat="30.814648187178403" lon="-6.848284809612108"><ele>1202.0</ele><time>2026-03-22T09:21:59.001Z</time></trkpt><trkpt lat="30.814532892473217" lon="-6.848227537113737"><ele>1202.1666666666667</ele><time>2026-03-22T09:22:00.001Z</time></trkpt><trkpt lat="30.814442173605812" lon="-6.8481711193329495"><ele>1202.3333333333335</ele><time>2026-03-22T09:22:01.001Z</time></trkpt><trkpt lat="30.81435963778468" lon="-6.848139737748382"><ele>1202.5</ele><time>2026-03-22T09:22:02.001Z</time></trkpt><trkpt lat="30.814288238346755" lon="-6.8481120980937895"><ele>1202.6666666666667</ele><time>2026-03-22T09:22:03.001Z</time></trkpt><trkpt lat="30.81422868172458" lon="-6.848070277577512"><ele>1202.8333333333333</ele><time>2026-03-22T09:22:04.001Z</time></trkpt><trkpt lat="30.814170644610527" lon="-6.8480090122815644"><ele>1203.0</ele><time>2026-03-22T09:22:05.001Z</time></trkpt><trkpt lat="30.81406348185849" lon="-6.847971450177832"><ele>1203.0</ele><time>2026-03-22T09:22:07.001Z</time></trkpt><trkpt lat="30.8139795258274" lon="-6.847983790967173"><ele>1203.0</ele><time>2026-03-22T09:22:08.001Z</time></trkpt><trkpt lat="30.813867805712636" lon="-6.848011331761418"><ele>1203.0</ele><time>2026-03-22T09:22:09.001Z</time></trkpt><trkpt lat="30.813736256056" lon="-6.848009466610584"><ele>1203.0</ele><time>2026-03-22T09:22:10.001Z</time></trkpt><trkpt lat="30.813609341325037" lon="-6.847963757866099"><ele>1203.0</ele><time>2026-03-22T09:22:11.001Z</time></trkpt><trkpt lat="30.81352934319966" lon="-6.847884687000022"><ele>1203.0</ele><time>2026-03-22T09:22:12.001Z</time></trkpt><trkpt lat="30.813470195845714" lon="-6.847770035066495"><ele>1203.0</ele><time>2026-03-22T09:22:13.001Z</time></trkpt><trkpt lat="30.813458545105505" lon="-6.847646766691295"><ele>1203.0</ele><time>2026-03-22T09:22:14.001Z</time></trkpt><trkpt lat="30.813468189350065" lon="-6.847502462343012"><ele>1203.4</ele><time>2026-03-22T09:22:15.001Z</time></trkpt><trkpt lat="30.813468743830278" lon="-6.847358381081666"><ele>1203.8</ele><time>2026-03-22T09:22:16.001Z</time></trkpt><trkpt lat="30.813455916111934" lon="-6.847217278209169"><ele>1204.2</ele><time>2026-03-22T09:22:17.001Z</time></trkpt><trkpt lat="30.81343261413212" lon="-6.847099395395054"><ele>1204.6</ele><time>2026-03-22T09:22:18.001Z</time></trkpt><trkpt lat="30.813399227968027" lon="-6.847005231229068"><ele>1205.0</ele><time>2026-03-22T09:22:19.001Z</time></trkpt><trkpt lat="30.81336575237128" lon="-6.846919097360185"><ele>1205.0</ele><time>2026-03-22T09:22:20.001Z</time></trkpt><trkpt lat="30.813330248043023" lon="-6.846854041412196"><ele>1205.0</ele><time>2026-03-22T09:22:21.001Z</time></trkpt><trkpt lat="30.813286132350484" lon="-6.846775918925107"><ele>1205.0</ele><time>2026-03-22T09:22:22.001Z</time></trkpt><trkpt lat="30.81324409678286" lon="-6.84668975362397"><ele>1205.0</ele><time>2026-03-22T09:22:23.001Z</time></trkpt><trkpt lat="30.813210515421346" lon="-6.846604725199602"><ele>1205.0</ele><time>2026-03-22T09:22:24.001Z</time></trkpt><trkpt lat="30.81317587564518" lon="-6.846520041281367"><ele>1205.0</ele><time>2026-03-22T09:22:25.001Z</time></trkpt><trkpt lat="30.813143482176685" lon="-6.846413224653735"><ele>1205.8</ele><time>2026-03-22T09:22:26.001Z</time></trkpt><trkpt lat="30.813120121600793" lon="-6.846297719587076"><ele>1206.6</ele><time>2026-03-22T09:22:27.001Z</time></trkpt><trkpt lat="30.813089702662246" lon="-6.846194269561452"><ele>1207.4</ele><time>2026-03-22T09:22:28.001Z</time></trkpt><trkpt lat="30.813043437429695" lon="-6.846103064112771"><ele>1208.2</ele><time>2026-03-22T09:22:29.001Z</time></trkpt><trkpt lat="30.813001448736756" lon="-6.846005609628224"><ele>1209.0</ele><time>2026-03-22T09:22:30.001Z</time></trkpt><trkpt lat="30.81298132324869" lon="-6.845895026044597"><ele>1210.0</ele><time>2026-03-22T09:22:31.001Z</time></trkpt><trkpt lat="30.812942490760673" lon="-6.84575198094058"><ele>1211.0</ele><time>2026-03-22T09:22:32.001Z</time></trkpt><trkpt lat="30.812900343486987" lon="-6.845602296633183"><ele>1212.0</ele><time>2026-03-22T09:22:33.001Z</time></trkpt><trkpt lat="30.81285063046838" lon="-6.845463331273779"><ele>1213.0</ele><time>2026-03-22T09:22:34.001Z</time></trkpt><trkpt lat="30.812773664191504" lon="-6.845330148714756"><ele>1213.0</ele><time>2026-03-22T09:22:35.001Z</time></trkpt><trkpt lat="30.81270752197889" lon="-6.845203252255728"><ele>1213.0</ele><time>2026-03-22T09:22:36Z</time></trkpt><trkpt lat="30.8126488592192" lon="-6.845079521229179"><ele>1213.0</ele><time>2026-03-22T09:22:37Z</time></trkpt><trkpt lat="30.812593867717723" lon="-6.844970153987576"><ele>1213.0</ele><time>2026-03-22T09:22:38Z</time></trkpt><trkpt lat="30.812535027699848" lon="-6.844864028645002"><ele>1215.25</ele><time>2026-03-22T09:22:39Z</time></trkpt><trkpt lat="30.81247836393375" lon="-6.844752677410453"><ele>1217.5</ele><time>2026-03-22T09:22:40Z</time></trkpt><trkpt lat="30.812415801053056" lon="-6.84464809172413"><ele>1219.75</ele><time>2026-03-22T09:22:41Z</time></trkpt><trkpt lat="30.812334472188173" lon="-6.844538534513705"><ele>1222.0</ele><time>2026-03-22T09:22:42Z</time></trkpt><trkpt lat="30.81225304609145" lon="-6.844415355707119"><ele>1223.75</ele><time>2026-03-22T09:22:43.001Z</time></trkpt><trkpt lat="30.812170493483844" lon="-6.844279567149574"><ele>1225.5</ele><time>2026-03-22T09:22:44.001Z</time></trkpt><trkpt lat="30.812100843149373" lon="-6.844166751059297"><ele>1227.25</ele><time>2026-03-22T09:22:45Z</time></trkpt><trkpt lat="30.81205291123385" lon="-6.8440663702856455"><ele>1229.0</ele><time>2026-03-22T09:22:46Z</time></trkpt><trkpt lat="30.811985179395247" lon="-6.843997280795834"><ele>1229.0</ele><time>2026-03-22T09:22:47Z</time></trkpt><trkpt lat="30.811909087098297" lon="-6.843953241362866"><ele>1229.0</ele><time>2026-03-22T09:22:48.001Z</time></trkpt><trkpt lat="30.811843538128493" lon="-6.843929318861109"><ele>1229.0</ele><time>2026-03-22T09:22:49Z</time></trkpt><trkpt lat="30.811784006585" lon="-6.843795289435824"><ele>1229.0</ele><time>2026-03-22T09:22:51Z</time></trkpt><trkpt lat="30.811753274154427" lon="-6.843669732996228"><ele>1229.0</ele><time>2026-03-22T09:22:52Z</time></trkpt><trkpt lat="30.811697142902975" lon="-6.843536088641902"><ele>1229.6666666666667</ele><time>2026-03-22T09:22:53Z</time></trkpt><trkpt lat="30.81160473001533" lon="-6.843382001733601"><ele>1230.3333333333333</ele><time>2026-03-22T09:22:54Z</time></trkpt><trkpt lat="30.811505883143187" lon="-6.843219123602152"><ele>1231.0</ele><time>2026-03-22T09:22:55Z</time></trkpt><trkpt lat="30.811416447437384" lon="-6.843092697381556"><ele>1231.0</ele><time>2026-03-22T09:22:56Z</time></trkpt><trkpt lat="30.811364669271608" lon="-6.8429786341075225"><ele>1231.0</ele><time>2026-03-22T09:22:57Z</time></trkpt><trkpt lat="30.81133735815787" lon="-6.842863462691963"><ele>1231.0</ele><time>2026-03-22T09:22:58Z</time></trkpt><trkpt lat="30.811318479976546" lon="-6.842734538491607"><ele>1231.0</ele><time>2026-03-22T09:22:59Z</time></trkpt><trkpt lat="30.81129283025752" lon="-6.842619025774799"><ele>1231.0</ele><time>2026-03-22T09:23:00Z</time></trkpt><trkpt lat="30.81125048564596" lon="-6.84250957939401"><ele>1232.2</ele><time>2026-03-22T09:23:01Z</time></trkpt><trkpt lat="30.811206168297907" lon="-6.842371442967822"><ele>1233.3999999999999</ele><time>2026-03-22T09:23:02Z</time></trkpt><trkpt lat="30.81117449361469" lon="-6.842263907650991"><ele>1234.6</ele><time>2026-03-22T09:23:03Z</time></trkpt><trkpt lat="30.81114192206789" lon="-6.842176338112376"><ele>1235.8</ele><time>2026-03-22T09:23:04Z</time></trkpt><trkpt lat="30.81109405262029" lon="-6.842098402109355"><ele>1237.0</ele><time>2026-03-22T09:23:05Z</time></trkpt><trkpt lat="30.811051247243" lon="-6.842016190869939"><ele>1237.0</ele><time>2026-03-22T09:23:06Z</time></trkpt><trkpt lat="30.811015994041227" lon="-6.841916202511802"><ele>1237.0</ele><time>2026-03-22T09:23:08Z</time></trkpt><trkpt lat="30.810945396901037" lon="-6.841812883620229"><ele>1237.0</ele><time>2026-03-22T09:23:10Z</time></trkpt><trkpt lat="30.810867601481895" lon="-6.841742092833962"><ele>1237.0</ele><time>2026-03-22T09:23:12Z</time></trkpt><trkpt lat="30.810815620738115" lon="-6.841684294138332"><ele>1237.0</ele><time>2026-03-22T09:23:13Z</time></trkpt><trkpt lat="30.810754256176207" lon="-6.841556597435186"><ele>1237.2</ele><time>2026-03-22T09:23:15Z</time></trkpt><trkpt lat="30.81071395768021" lon="-6.841494248708492"><ele>1237.4</ele><time>2026-03-22T09:23:16Z</time></trkpt><trkpt lat="30.810747725071128" lon="-6.84134776208668"><ele>1237.6</ele><time>2026-03-22T09:23:18Z</time></trkpt><trkpt lat="30.810762685737533" lon="-6.841223991664778"><ele>1237.8</ele><time>2026-03-22T09:23:20Z</time></trkpt><trkpt lat="30.81078204380518" lon="-6.841128023110466"><ele>1238.0</ele><time>2026-03-22T09:23:22Z</time></trkpt><trkpt lat="30.81078504261662" lon="-6.841050611190161"><ele>1239.3333333333335</ele><time>2026-03-22T09:23:23Z</time></trkpt><trkpt lat="30.810786346188856" lon="-6.840962477351974"><ele>1240.6666666666667</ele><time>2026-03-22T09:23:24Z</time></trkpt><trkpt lat="30.810796903724953" lon="-6.840876952850098"><ele>1242.0</ele><time>2026-03-22T09:23:25Z</time></trkpt><trkpt lat="30.810786036669494" lon="-6.840746051725046"><ele>1243.3333333333333</ele><time>2026-03-22T09:23:27Z</time></trkpt><trkpt lat="30.810771797429155" lon="-6.840659029828525"><ele>1244.6666666666665</ele><time>2026-03-22T09:23:28Z</time></trkpt><trkpt lat="30.810751242342004" lon="-6.840558927606639"><ele>1246.0</ele><time>2026-03-22T09:23:29Z</time></trkpt><trkpt lat="30.81070760282369" lon="-6.840440105877656"><ele>1246.0</ele><time>2026-03-22T09:23:30Z</time></trkpt><trkpt lat="30.810654399916356" lon="-6.840309250310072"><ele>1246.0</ele><time>2026-03-22T09:23:31Z</time></trkpt><trkpt lat="30.81061449423121" lon="-6.840189559285478"><ele>1246.0</ele><time>2026-03-22T09:23:32Z</time></trkpt><trkpt lat="30.810577552830768" lon="-6.840085928490565"><ele>1246.0</ele><time>2026-03-22T09:23:33Z</time></trkpt><trkpt lat="30.810530085014886" lon="-6.839976971335926"><ele>1246.0</ele><time>2026-03-22T09:23:34Z</time></trkpt><trkpt lat="30.81048445229563" lon="-6.8398696443662"><ele>1247.5</ele><time>2026-03-22T09:23:35Z</time></trkpt><trkpt lat="30.81043448417969" lon="-6.839766755589703"><ele>1249.0</ele><time>2026-03-22T09:23:36Z</time></trkpt><trkpt lat="30.810366889618653" lon="-6.839674917145084"><ele>1250.5</ele><time>2026-03-22T09:23:37Z</time></trkpt><trkpt lat="30.810281331839015" lon="-6.839578373119988"><ele>1252.0</ele><time>2026-03-22T09:23:38Z</time></trkpt><trkpt lat="30.810177873681074" lon="-6.839470779213313"><ele>1253.0</ele><time>2026-03-22T09:23:39Z</time></trkpt><trkpt lat="30.8100747834687" lon="-6.839385945862046"><ele>1254.0</ele><time>2026-03-22T09:23:40Z</time></trkpt><trkpt lat="30.809981417911903" lon="-6.83933226329484"><ele>1255.0</ele><time>2026-03-22T09:23:41Z</time></trkpt><trkpt lat="30.809886831601183" lon="-6.839282241904048"><ele>1256.0</ele><time>2026-03-22T09:23:42Z</time></trkpt><trkpt lat="30.809806064718227" lon="-6.839236993711144"><ele>1257.0</ele><time>2026-03-22T09:23:43Z</time></trkpt><trkpt lat="30.809723186762316" lon="-6.839206325062272"><ele>1257.0</ele><time>2026-03-22T09:23:44Z</time></trkpt><trkpt lat="30.80962664428471" lon="-6.839197356362124"><ele>1257.0</ele><time>2026-03-22T09:23:45Z</time></trkpt><trkpt lat="30.80951543340441" lon="-6.839203500736466"><ele>1257.0</ele><time>2026-03-22T09:23:46Z</time></trkpt><trkpt lat="30.80941025242222" lon="-6.839202381205495"><ele>1257.0</ele><time>2026-03-22T09:23:47Z</time></trkpt><trkpt lat="30.809290270200705" lon="-6.839173983215208"><ele>1257.0</ele><time>2026-03-22T09:23:48Z</time></trkpt><trkpt lat="30.809166086073567" lon="-6.839114383132153"><ele>1255.5</ele><time>2026-03-22T09:23:49Z</time></trkpt><trkpt lat="30.809050439814165" lon="-6.839055057804944"><ele>1254.0</ele><time>2026-03-22T09:23:50Z</time></trkpt><trkpt lat="30.808947178635123" lon="-6.839004283842109"><ele>1252.5</ele><time>2026-03-22T09:23:51Z</time></trkpt><trkpt lat="30.808841278665593" lon="-6.838944974727843"><ele>1251.0</ele><time>2026-03-22T09:23:52Z</time></trkpt><trkpt lat="30.808736866383033" lon="-6.838897154628845"><ele>1251.0</ele><time>2026-03-22T09:23:53Z</time></trkpt><trkpt lat="30.808633303947285" lon="-6.838859243048377"><ele>1251.0</ele><time>2026-03-22T09:23:54Z</time></trkpt><trkpt lat="30.808536284724394" lon="-6.83883855183058"><ele>1251.0</ele><time>2026-03-22T09:23:55Z</time></trkpt><trkpt lat="30.808437930194742" lon="-6.8388759057216815"><ele>1251.0</ele><time>2026-03-22T09:23:56Z</time></trkpt><trkpt lat="30.808343006559415" lon="-6.838914372090073"><ele>1251.0</ele><time>2026-03-22T09:23:57Z</time></trkpt><trkpt lat="30.808247495330402" lon="-6.838918049753792"><ele>1249.3999999999999</ele><time>2026-03-22T09:23:58Z</time></trkpt><trkpt lat="30.80813722826884" lon="-6.83890449972554"><ele>1247.8</ele><time>2026-03-22T09:23:59Z</time></trkpt><trkpt lat="30.808045052384415" lon="-6.838858360258576"><ele>1246.1999999999998</ele><time>2026-03-22T09:24:00Z</time></trkpt><trkpt lat="30.807968784411464" lon="-6.838767780784593"><ele>1244.6</ele><time>2026-03-22T09:24:01Z</time></trkpt><trkpt lat="30.80792460822797" lon="-6.838645044338001"><ele>1243.0</ele><time>2026-03-22T09:24:02Z</time></trkpt><trkpt lat="30.807903318364282" lon="-6.838520978210478"><ele>1243.0</ele><time>2026-03-22T09:24:03Z</time></trkpt><trkpt lat="30.807849782497954" lon="-6.838422095774424"><ele>1243.0</ele><time>2026-03-22T09:24:04Z</time></trkpt><trkpt lat="30.80774980390497" lon="-6.838352896244114"><ele>1243.0</ele><time>2026-03-22T09:24:05Z</time></trkpt><trkpt lat="30.80764483073385" lon="-6.838283936617013"><ele>1243.0</ele><time>2026-03-22T09:24:06Z</time></trkpt><trkpt lat="30.80758174419229" lon="-6.83818395480915"><ele>1243.0</ele><time>2026-03-22T09:24:07Z</time></trkpt><trkpt lat="30.807562498481506" lon="-6.838095090072612"><ele>1243.0</ele><time>2026-03-22T09:24:08Z</time></trkpt><trkpt lat="30.80752442818688" lon="-6.83797552299442"><ele>1243.0</ele><time>2026-03-22T09:24:10Z</time></trkpt><trkpt lat="30.80748853922864" lon="-6.837905903816963"><ele>1243.0</ele><time>2026-03-22T09:24:11Z</time></trkpt><trkpt lat="30.807428184988954" lon="-6.837773210612818"><ele>1243.0</ele><time>2026-03-22T09:24:13Z</time></trkpt><trkpt lat="30.80739459792708" lon="-6.837703054143251"><ele>1243.0</ele><time>2026-03-22T09:24:14Z</time></trkpt><trkpt lat="30.807351564806112" lon="-6.837634135652755"><ele>1244.6666666666665</ele><time>2026-03-22T09:24:15Z</time></trkpt><trkpt lat="30.807321409674422" lon="-6.837538772588489"><ele>1246.3333333333333</ele><time>2026-03-22T09:24:16Z</time></trkpt><trkpt lat="30.80730681212785" lon="-6.837418589714552"><ele>1248.0</ele><time>2026-03-22T09:24:17Z</time></trkpt><trkpt lat="30.807306204984766" lon="-6.837327231347341"><ele>1249.6666666666667</ele><time>2026-03-22T09:24:18Z</time></trkpt><trkpt lat="30.807309076059518" lon="-6.837237241479762"><ele>1251.3333333333335</ele><time>2026-03-22T09:24:19Z</time></trkpt><trkpt lat="30.80730993888351" lon="-6.837150933484763"><ele>1253.0</ele><time>2026-03-22T09:24:20Z</time></trkpt><trkpt lat="30.807317198984464" lon="-6.837011402333828"><ele>1253.0</ele><time>2026-03-22T09:24:21Z</time></trkpt><trkpt lat="30.80733712263693" lon="-6.836828389927411"><ele>1253.0</ele><time>2026-03-22T09:24:22Z</time></trkpt><trkpt lat="30.807358954105794" lon="-6.836645277242541"><ele>1253.0</ele><time>2026-03-22T09:24:23Z</time></trkpt><trkpt lat="30.807362133534195" lon="-6.836449550555817"><ele>1254.5</ele><time>2026-03-22T09:24:24Z</time></trkpt><trkpt lat="30.8073381426728" lon="-6.836299486741431"><ele>1256.0</ele><time>2026-03-22T09:24:25Z</time></trkpt><trkpt lat="30.8073071770176" lon="-6.8361676080377265"><ele>1257.5</ele><time>2026-03-22T09:24:26Z</time></trkpt><trkpt lat="30.80725049136722" lon="-6.836042961693925"><ele>1259.0</ele><time>2026-03-22T09:24:27Z</time></trkpt><trkpt lat="30.807187991018576" lon="-6.835915300558365"><ele>1259.5</ele><time>2026-03-22T09:24:28Z</time></trkpt><trkpt lat="30.807115000988915" lon="-6.83579817927193"><ele>1260.0</ele><time>2026-03-22T09:24:29Z</time></trkpt><trkpt lat="30.80705439968975" lon="-6.835674043471085"><ele>1260.5</ele><time>2026-03-22T09:24:30Z</time></trkpt><trkpt lat="30.807023559012485" lon="-6.835511019830989"><ele>1261.0</ele><time>2026-03-22T09:24:31Z</time></trkpt><trkpt lat="30.807018060817644" lon="-6.835346905872134"><ele>1261.0</ele><time>2026-03-22T09:24:32Z</time></trkpt><trkpt lat="30.807020592063868" lon="-6.835173078045878"><ele>1261.0</ele><time>2026-03-22T09:24:33Z</time></trkpt><trkpt lat="30.80704333876363" lon="-6.835004696900113"><ele>1261.0</ele><time>2026-03-22T09:24:34Z</time></trkpt><trkpt lat="30.807066417917653" lon="-6.834838208329774"><ele>1261.0</ele><time>2026-03-22T09:24:35Z</time></trkpt><trkpt lat="30.807108232209593" lon="-6.834682330774148"><ele>1260.8</ele><time>2026-03-22T09:24:36Z</time></trkpt><trkpt lat="30.8071800857565" lon="-6.834541133362394"><ele>1260.6</ele><time>2026-03-22T09:24:37Z</time></trkpt><trkpt lat="30.807252283454808" lon="-6.834426051078088"><ele>1260.4</ele><time>2026-03-22T09:24:38Z</time></trkpt><trkpt lat="30.80727983321312" lon="-6.834340831297441"><ele>1260.2</ele><time>2026-03-22T09:24:39Z</time></trkpt><trkpt lat="30.80729119905925" lon="-6.834231127344373"><ele>1260.0</ele><time>2026-03-22T09:24:41Z</time></trkpt><trkpt lat="30.80733546706632" lon="-6.834105330307733"><ele>1259.6</ele><time>2026-03-22T09:24:43Z</time></trkpt><trkpt lat="30.807315380675078" lon="-6.8339765532442724"><ele>1259.2</ele><time>2026-03-22T09:24:45.001Z</time></trkpt><trkpt lat="30.80724549090328" lon="-6.833902984756518"><ele>1258.8</ele><time>2026-03-22T09:24:47Z</time></trkpt><trkpt lat="30.807136261661725" lon="-6.833882781470519"><ele>1258.4</ele><time>2026-03-22T09:24:49.001Z</time></trkpt><trkpt lat="30.807028351084647" lon="-6.833890223463584"><ele>1258.0</ele><time>2026-03-22T09:24:51.001Z</time></trkpt><trkpt lat="30.80696251714437" lon="-6.833879633933533"><ele>1258.0</ele><time>2026-03-22T09:24:52.001Z</time></trkpt><trkpt lat="30.80686981656356" lon="-6.833869822608249"><ele>1258.0</ele><time>2026-03-22T09:24:54.001Z</time></trkpt><trkpt lat="30.806794923923764" lon="-6.833869611707744"><ele>1258.0</ele><time>2026-03-22T09:24:56Z</time></trkpt><trkpt lat="30.806708935136946" lon="-6.833861649701064"><ele>1258.0</ele><time>2026-03-22T09:24:58Z</time></trkpt><trkpt lat="30.806638999978333" lon="-6.83385011312779"><ele>1258.0</ele><time>2026-03-22T09:27:15Z</time></trkpt><trkpt lat="30.806558991213098" lon="-6.83384281223071"><ele>1258.0</ele><time>2026-03-22T09:27:18Z</time></trkpt><trkpt lat="30.80649238818374" lon="-6.833842171977627"><ele>1258.0</ele><time>2026-03-22T09:27:20Z</time></trkpt><trkpt lat="30.80641870188522" lon="-6.833859741506259"><ele>1258.0</ele><time>2026-03-22T09:27:21Z</time></trkpt><trkpt lat="30.806296585098988" lon="-6.833863524582685"><ele>1258.0</ele><time>2026-03-22T09:27:22Z</time></trkpt><trkpt lat="30.806144648119528" lon="-6.833856495927267"><ele>1258.0</ele><time>2026-03-22T09:27:23Z</time></trkpt><trkpt lat="30.805969352055307" lon="-6.83387063667459"><ele>1258.0</ele><time>2026-03-22T09:27:24Z</time></trkpt><trkpt lat="30.805815186503096" lon="-6.833844154908613"><ele>1258.0</ele><time>2026-03-22T09:27:25Z</time></trkpt><trkpt lat="30.805707197205614" lon="-6.833811254223655"><ele>1258.0</ele><time>2026-03-22T09:27:26Z</time></trkpt><trkpt lat="30.80560955171496" lon="-6.833809379110833"><ele>1258.0</ele><time>2026-03-22T09:27:27Z</time></trkpt><trkpt lat="30.80549097796543" lon="-6.833864234575334"><ele>1258.0</ele><time>2026-03-22T09:27:28Z</time></trkpt><trkpt lat="30.805348940434683" lon="-6.833963489217543"><ele>1258.0</ele><time>2026-03-22T09:27:29Z</time></trkpt><trkpt lat="30.80518395676457" lon="-6.834049831117114"><ele>1258.0</ele><time>2026-03-22T09:27:30Z</time></trkpt><trkpt lat="30.805032900232007" lon="-6.8341104296586845"><ele>1258.0</ele><time>2026-03-22T09:27:31Z</time></trkpt><trkpt lat="30.80492143354323" lon="-6.834157552021135"><ele>1258.0</ele><time>2026-03-22T09:27:32Z</time></trkpt><trkpt lat="30.804831311157663" lon="-6.834195693133848"><ele>1258.0</ele><time>2026-03-22T09:27:33Z</time></trkpt><trkpt lat="30.80474530236641" lon="-6.834235321903856"><ele>1258.0</ele><time>2026-03-22T09:27:34Z</time></trkpt><trkpt lat="30.804677075438985" lon="-6.834278399354818"><ele>1258.0</ele><time>2026-03-22T09:27:35Z</time></trkpt><trkpt lat="30.80462226256919" lon="-6.834334254112467"><ele>1257.2</ele><time>2026-03-22T09:27:36Z</time></trkpt><trkpt lat="30.80458153423083" lon="-6.834396323125249"><ele>1256.4</ele><time>2026-03-22T09:27:37Z</time></trkpt><trkpt lat="30.80452873927555" lon="-6.834505751250455"><ele>1255.6000000000001</ele><time>2026-03-22T09:27:38Z</time></trkpt><trkpt lat="30.804501225841587" lon="-6.834613648625768"><ele>1254.8</ele><time>2026-03-22T09:27:39Z</time></trkpt><trkpt lat="30.804434541182175" lon="-6.834703023986918"><ele>1254.0</ele><time>2026-03-22T09:27:40Z</time></trkpt><trkpt lat="30.804326953408733" lon="-6.834787841880755"><ele>1253.6666666666667</ele><time>2026-03-22T09:27:41Z</time></trkpt><trkpt lat="30.804187777610153" lon="-6.834857939783946"><ele>1253.3333333333335</ele><time>2026-03-22T09:27:42Z</time></trkpt><trkpt lat="30.804022026117213" lon="-6.834920060005151"><ele>1253.0</ele><time>2026-03-22T09:27:43Z</time></trkpt><trkpt lat="30.803866190905538" lon="-6.83500239652812"><ele>1253.0</ele><time>2026-03-22T09:27:44Z</time></trkpt><trkpt lat="30.803721163204884" lon="-6.835061192812254"><ele>1253.0</ele><time>2026-03-22T09:27:45Z</time></trkpt><trkpt lat="30.803572208721345" lon="-6.835101531760606"><ele>1253.0</ele><time>2026-03-22T09:27:46Z</time></trkpt><trkpt lat="30.803430656675154" lon="-6.83514435314958"><ele>1254.75</ele><time>2026-03-22T09:27:47Z</time></trkpt><trkpt lat="30.80328964641676" lon="-6.835188328394274"><ele>1256.5</ele><time>2026-03-22T09:27:48Z</time></trkpt><trkpt lat="30.803146896399962" lon="-6.835246354480475"><ele>1258.25</ele><time>2026-03-22T09:27:49Z</time></trkpt><trkpt lat="30.803020470835072" lon="-6.835308934729967"><ele>1260.0</ele><time>2026-03-22T09:27:50Z</time></trkpt><trkpt lat="30.8029006963437" lon="-6.835395273705342"><ele>1260.0</ele><time>2026-03-22T09:27:51Z</time></trkpt><trkpt lat="30.802770695030272" lon="-6.835484176254307"><ele>1260.0</ele><time>2026-03-22T09:27:52Z</time></trkpt><trkpt lat="30.802638754230614" lon="-6.835569818139375"><ele>1260.0</ele><time>2026-03-22T09:27:53Z</time></trkpt><trkpt lat="30.80252229544379" lon="-6.835659009585872"><ele>1260.0</ele><time>2026-03-22T09:27:54Z</time></trkpt><trkpt lat="30.802402674364394" lon="-6.835744331679568"><ele>1261.5</ele><time>2026-03-22T09:27:55Z</time></trkpt><trkpt lat="30.802286056651994" lon="-6.83582883272501"><ele>1263.0</ele><time>2026-03-22T09:27:56Z</time></trkpt><trkpt lat="30.802171824961906" lon="-6.835919341187026"><ele>1264.5</ele><time>2026-03-22T09:27:57Z</time></trkpt><trkpt lat="30.802065882872103" lon="-6.836002797941284"><ele>1266.0</ele><time>2026-03-22T09:27:58Z</time></trkpt><trkpt lat="30.80196543626329" lon="-6.8360688609931115"><ele>1265.2</ele><time>2026-03-22T09:27:59Z</time></trkpt><trkpt lat="30.80187636950176" lon="-6.836115272912208"><ele>1264.3999999999999</ele><time>2026-03-22T09:28:00Z</time></trkpt><trkpt lat="30.801789551673867" lon="-6.836185596167823"><ele>1263.6</ele><time>2026-03-22T09:28:01Z</time></trkpt><trkpt lat="30.80171015126162" lon="-6.836285241639484"><ele>1262.8</ele><time>2026-03-22T09:28:02Z</time></trkpt><trkpt lat="30.80163449367684" lon="-6.836402227195985"><ele>1262.0</ele><time>2026-03-22T09:28:03Z</time></trkpt><trkpt lat="30.801575995143498" lon="-6.836544890637448"><ele>1262.0</ele><time>2026-03-22T09:28:04Z</time></trkpt><trkpt lat="30.801542578981028" lon="-6.836656770228872"><ele>1262.0</ele><time>2026-03-22T09:28:05Z</time></trkpt><trkpt lat="30.80151659136398" lon="-6.836727119123376"><ele>1262.0</ele><time>2026-03-22T09:28:06Z</time></trkpt><trkpt lat="30.801462844077594" lon="-6.836776893594715"><ele>1262.0</ele><time>2026-03-22T09:28:07Z</time></trkpt><trkpt lat="30.80140093711222" lon="-6.8368191562801455"><ele>1262.0</ele><time>2026-03-22T09:28:08Z</time></trkpt><trkpt lat="30.80134714148964" lon="-6.836861758341731"><ele>1262.0</ele><time>2026-03-22T09:28:09Z</time></trkpt><trkpt lat="30.801280248220802" lon="-6.836898505166087"><ele>1262.0</ele><time>2026-03-22T09:28:10Z</time></trkpt><trkpt lat="30.80121138401387" lon="-6.836929854679953"><ele>1261.4</ele><time>2026-03-22T09:28:11Z</time></trkpt><trkpt lat="30.801140247034862" lon="-6.836957852570144"><ele>1260.8000000000002</ele><time>2026-03-22T09:28:12Z</time></trkpt><trkpt lat="30.80106028375061" lon="-6.836991562066315"><ele>1260.2</ele><time>2026-03-22T09:28:13Z</time></trkpt><trkpt lat="30.800977629797245" lon="-6.837029590563283"><ele>1259.6000000000001</ele><time>2026-03-22T09:28:14Z</time></trkpt><trkpt lat="30.800885171845476" lon="-6.837089010020958"><ele>1259.0</ele><time>2026-03-22T09:28:15Z</time></trkpt><trkpt lat="30.80079088028022" lon="-6.837144948385945"><ele>1259.0</ele><time>2026-03-22T09:28:16Z</time></trkpt><trkpt lat="30.80069326588589" lon="-6.837207260167967"><ele>1259.0</ele><time>2026-03-22T09:28:17Z</time></trkpt><trkpt lat="30.800579865783828" lon="-6.837267293918408"><ele>1259.0</ele><time>2026-03-22T09:28:18Z</time></trkpt><trkpt lat="30.80048205200284" lon="-6.837319262442646"><ele>1259.0</ele><time>2026-03-22T09:28:19Z</time></trkpt><trkpt lat="30.800399191276917" lon="-6.8373656572104915"><ele>1259.0</ele><time>2026-03-22T09:28:20Z</time></trkpt><trkpt lat="30.800305172644556" lon="-6.837435335404107"><ele>1259.0</ele><time>2026-03-22T09:28:21Z</time></trkpt><trkpt lat="30.800209467768106" lon="-6.837504658858989"><ele>1259.0</ele><time>2026-03-22T09:28:22Z</time></trkpt><trkpt lat="30.800106619478015" lon="-6.837563769095889"><ele>1259.0</ele><time>2026-03-22T09:28:23Z</time></trkpt><trkpt lat="30.799997091663446" lon="-6.837623521088391"><ele>1259.0</ele><time>2026-03-22T09:28:24Z</time></trkpt><trkpt lat="30.799879730777263" lon="-6.8376810299542505"><ele>1257.0</ele><time>2026-03-22T09:28:25Z</time></trkpt><trkpt lat="30.799754354871133" lon="-6.837725906194497"><ele>1255.0</ele><time>2026-03-22T09:28:26Z</time></trkpt><trkpt lat="30.799668472246868" lon="-6.8377859927888585"><ele>1253.0</ele><time>2026-03-22T09:28:27Z</time></trkpt><trkpt lat="30.799575402008337" lon="-6.8378800249243925"><ele>1251.0</ele><time>2026-03-22T09:28:28Z</time></trkpt><trkpt lat="30.799505374885467" lon="-6.837982452969078"><ele>1251.0</ele><time>2026-03-22T09:28:29Z</time></trkpt><trkpt lat="30.799445085809896" lon="-6.838087662845861"><ele>1251.0</ele><time>2026-03-22T09:28:30Z</time></trkpt><trkpt lat="30.79937740004001" lon="-6.838200401364959"><ele>1251.0</ele><time>2026-03-22T09:28:31Z</time></trkpt><trkpt lat="30.799296415009003" lon="-6.838321996984583"><ele>1251.0</ele><time>2026-03-22T09:28:32Z</time></trkpt><trkpt lat="30.799195154900733" lon="-6.838435913717658"><ele>1249.75</ele><time>2026-03-22T09:28:33Z</time></trkpt><trkpt lat="30.799089491355303" lon="-6.838532593855974"><ele>1248.5</ele><time>2026-03-22T09:28:34Z</time></trkpt><trkpt lat="30.79898942609385" lon="-6.838628279747286"><ele>1247.25</ele><time>2026-03-22T09:28:35Z</time></trkpt><trkpt lat="30.798921167953626" lon="-6.838729390970103"><ele>1246.0</ele><time>2026-03-22T09:28:36Z</time></trkpt><trkpt lat="30.798869206909195" lon="-6.838846379182993"><ele>1246.0</ele><time>2026-03-22T09:28:37Z</time></trkpt><trkpt lat="30.79880505576335" lon="-6.838959207263835"><ele>1246.0</ele><time>2026-03-22T09:28:38Z</time></trkpt><trkpt lat="30.798721695620653" lon="-6.839041868080478"><ele>1246.0</ele><time>2026-03-22T09:28:39Z</time></trkpt><trkpt lat="30.798648431124032" lon="-6.839100177439775"><ele>1246.0</ele><time>2026-03-22T09:28:40Z</time></trkpt><trkpt lat="30.798574308276574" lon="-6.839144638800413"><ele>1246.0</ele><time>2026-03-22T09:28:41Z</time></trkpt><trkpt lat="30.79849900632814" lon="-6.839181366324111"><ele>1245.8333333333333</ele><time>2026-03-22T09:28:42Z</time></trkpt><trkpt lat="30.798419665860212" lon="-6.839219585930863"><ele>1245.6666666666665</ele><time>2026-03-22T09:28:43Z</time></trkpt><trkpt lat="30.798351784793837" lon="-6.839261292043344"><ele>1245.5</ele><time>2026-03-22T09:28:44Z</time></trkpt><trkpt lat="30.798272271584846" lon="-6.8393178510099695"><ele>1245.3333333333333</ele><time>2026-03-22T09:28:45Z</time></trkpt><trkpt lat="30.798194923809817" lon="-6.839375555959603"><ele>1245.1666666666667</ele><time>2026-03-22T09:28:46Z</time></trkpt><trkpt lat="30.7981169654682" lon="-6.839434162670214"><ele>1245.0</ele><time>2026-03-22T09:28:47Z</time></trkpt><trkpt lat="30.79803753732094" lon="-6.839493249469639"><ele>1243.8</ele><time>2026-03-22T09:28:48Z</time></trkpt><trkpt lat="30.797952649105035" lon="-6.839551244274769"><ele>1242.6</ele><time>2026-03-22T09:28:49Z</time></trkpt><trkpt lat="30.797868530539812" lon="-6.839616162610597"><ele>1241.4</ele><time>2026-03-22T09:28:50Z</time></trkpt><trkpt lat="30.797795609391155" lon="-6.83968487116964"><ele>1240.2</ele><time>2026-03-22T09:28:51Z</time></trkpt><trkpt lat="30.797736865679248" lon="-6.839763094767334"><ele>1239.0</ele><time>2026-03-22T09:28:52Z</time></trkpt><trkpt lat="30.797673915969586" lon="-6.839844337521927"><ele>1238.3333333333333</ele><time>2026-03-22T09:28:53Z</time></trkpt><trkpt lat="30.797635739090044" lon="-6.839914991097825"><ele>1237.6666666666667</ele><time>2026-03-22T09:28:54Z</time></trkpt><trkpt lat="30.797602126688687" lon="-6.839980912381844"><ele>1237.0</ele><time>2026-03-22T09:28:55Z</time></trkpt><trkpt lat="30.79752692385511" lon="-6.840098151035083"><ele>1236.3333333333335</ele><time>2026-03-22T09:28:57Z</time></trkpt><trkpt lat="30.797463661646866" lon="-6.840213812494227"><ele>1235.6666666666667</ele><time>2026-03-22T09:28:59Z</time></trkpt><trkpt lat="30.79743490480698" lon="-6.84028079130321"><ele>1235.0</ele><time>2026-03-22T09:29:00Z</time></trkpt><trkpt lat="30.797386937268392" lon="-6.8403895164375985"><ele>1234.2</ele><time>2026-03-22T09:29:02Z</time></trkpt><trkpt lat="30.797343005748306" lon="-6.8405545785717266"><ele>1233.4</ele><time>2026-03-22T09:29:04Z</time></trkpt><trkpt lat="30.797314055451942" lon="-6.8406554158975466"><ele>1232.6</ele><time>2026-03-22T09:29:05Z</time></trkpt><trkpt lat="30.79726555625125" lon="-6.840765603235977"><ele>1231.8</ele><time>2026-03-22T09:29:06Z</time></trkpt><trkpt lat="30.797215365216204" lon="-6.840866038945506"><ele>1231.0</ele><time>2026-03-22T09:29:07Z</time></trkpt><trkpt lat="30.797154645279086" lon="-6.840957423006559"><ele>1231.0</ele><time>2026-03-22T09:29:08Z</time></trkpt><trkpt lat="30.79709658270287" lon="-6.841037594890854"><ele>1231.0</ele><time>2026-03-22T09:29:09Z</time></trkpt><trkpt lat="30.79703432463381" lon="-6.841117614729462"><ele>1231.0</ele><time>2026-03-22T09:29:10Z</time></trkpt><trkpt lat="30.79697825265409" lon="-6.84120534316566"><ele>1231.0</ele><time>2026-03-22T09:29:11Z</time></trkpt><trkpt lat="30.796900392594953" lon="-6.841312612483791"><ele>1231.0</ele><time>2026-03-22T09:29:12Z</time></trkpt><trkpt lat="30.796809997960246" lon="-6.841396479205778"><ele>1230.0</ele><time>2026-03-22T09:29:13Z</time></trkpt><trkpt lat="30.79672509715536" lon="-6.841464623957311"><ele>1229.0</ele><time>2026-03-22T09:29:14Z</time></trkpt><trkpt lat="30.796645850145335" lon="-6.841523424797521"><ele>1228.0</ele><time>2026-03-22T09:29:15Z</time></trkpt><trkpt lat="30.79657779022732" lon="-6.84158830980698"><ele>1227.0</ele><time>2026-03-22T09:29:16Z</time></trkpt><trkpt lat="30.79650927582352" lon="-6.841649427810038"><ele>1226.0</ele><time>2026-03-22T09:29:17Z</time></trkpt><trkpt lat="30.796447783188864" lon="-6.8417079720951355"><ele>1226.0</ele><time>2026-03-22T09:29:18Z</time></trkpt><trkpt lat="30.796377406643668" lon="-6.841781373620909"><ele>1226.0</ele><time>2026-03-22T09:29:19Z</time></trkpt><trkpt lat="30.79630279419661" lon="-6.841841664309424"><ele>1226.0</ele><time>2026-03-22T09:29:20Z</time></trkpt><trkpt lat="30.796227732578416" lon="-6.841899326403192"><ele>1226.0</ele><time>2026-03-22T09:29:21Z</time></trkpt><trkpt lat="30.796152287827844" lon="-6.841958232750877"><ele>1226.0</ele><time>2026-03-22T09:29:22Z</time></trkpt><trkpt lat="30.79607198994983" lon="-6.842025973893524"><ele>1226.75</ele><time>2026-03-22T09:29:23Z</time></trkpt><trkpt lat="30.795992125064235" lon="-6.8421155556025735"><ele>1227.5</ele><time>2026-03-22T09:29:24Z</time></trkpt><trkpt lat="30.795898002015512" lon="-6.842208378554978"><ele>1228.25</ele><time>2026-03-22T09:29:25Z</time></trkpt><trkpt lat="30.795781514919565" lon="-6.842323003264893"><ele>1229.0</ele><time>2026-03-22T09:29:26Z</time></trkpt><trkpt lat="30.79566536641946" lon="-6.84243631357835"><ele>1229.0</ele><time>2026-03-22T09:29:27Z</time></trkpt><trkpt lat="30.7955430944954" lon="-6.842561226961494"><ele>1229.0</ele><time>2026-03-22T09:29:28Z</time></trkpt><trkpt lat="30.795411459958164" lon="-6.842700279697072"><ele>1229.0</ele><time>2026-03-22T09:29:29Z</time></trkpt><trkpt lat="30.795278609092446" lon="-6.842829027643287"><ele>1230.0</ele><time>2026-03-22T09:29:30Z</time></trkpt><trkpt lat="30.795149455615327" lon="-6.842941446936428"><ele>1231.0</ele><time>2026-03-22T09:29:31Z</time></trkpt><trkpt lat="30.795011765982796" lon="-6.843058341537315"><ele>1232.0</ele><time>2026-03-22T09:29:32Z</time></trkpt><trkpt lat="30.794862211101087" lon="-6.843178339704748"><ele>1232.0</ele><time>2026-03-22T09:29:33Z</time></trkpt><trkpt lat="30.794706571203683" lon="-6.843292384945317"><ele>1232.0</ele><time>2026-03-22T09:29:34Z</time></trkpt><trkpt lat="30.794547467333633" lon="-6.843393596483446"><ele>1232.0</ele><time>2026-03-22T09:29:35Z</time></trkpt><trkpt lat="30.79438848451951" lon="-6.843495312232081"><ele>1232.6666666666667</ele><time>2026-03-22T09:29:36Z</time></trkpt><trkpt lat="30.794231026526106" lon="-6.843616322923076"><ele>1233.3333333333333</ele><time>2026-03-22T09:29:37Z</time></trkpt><trkpt lat="30.794069212195172" lon="-6.8437148955017895"><ele>1234.0</ele><time>2026-03-22T09:29:38Z</time></trkpt><trkpt lat="30.793903680035154" lon="-6.843824735992854"><ele>1234.0</ele><time>2026-03-22T09:29:39Z</time></trkpt><trkpt lat="30.793714574073032" lon="-6.8439413223829915"><ele>1234.0</ele><time>2026-03-22T09:29:40Z</time></trkpt><trkpt lat="30.79350766114043" lon="-6.844047072218461"><ele>1234.0</ele><time>2026-03-22T09:29:41Z</time></trkpt><trkpt lat="30.79329175974542" lon="-6.8441494710376505"><ele>1234.3333333333333</ele><time>2026-03-22T09:29:42Z</time></trkpt><trkpt lat="30.793101387977536" lon="-6.844257222740148"><ele>1234.6666666666667</ele><time>2026-03-22T09:29:43Z</time></trkpt><trkpt lat="30.792951653264172" lon="-6.844332221380671"><ele>1235.0</ele><time>2026-03-22T09:29:44Z</time></trkpt><trkpt lat="30.792813936857517" lon="-6.844407159638801"><ele>1235.6666666666667</ele><time>2026-03-22T09:29:45Z</time></trkpt><trkpt lat="30.792661355581263" lon="-6.844473195371051"><ele>1236.3333333333333</ele><time>2026-03-22T09:29:46Z</time></trkpt><trkpt lat="30.792484252698944" lon="-6.844530416385179"><ele>1237.0</ele><time>2026-03-22T09:29:47Z</time></trkpt><trkpt lat="30.792297384011622" lon="-6.8445752438355285"><ele>1237.0</ele><time>2026-03-22T09:29:48Z</time></trkpt><trkpt lat="30.79210827931443" lon="-6.844623659974585"><ele>1237.0</ele><time>2026-03-22T09:29:49Z</time></trkpt><trkpt lat="30.79194945627767" lon="-6.844664860054409"><ele>1237.0</ele><time>2026-03-22T09:29:50Z</time></trkpt><trkpt lat="30.791829809053258" lon="-6.844721660864446"><ele>1236.25</ele><time>2026-03-22T09:29:51Z</time></trkpt><trkpt lat="30.791724812121455" lon="-6.844811513598871"><ele>1235.5</ele><time>2026-03-22T09:29:52Z</time></trkpt><trkpt lat="30.79162498931795" lon="-6.844936375306194"><ele>1234.75</ele><time>2026-03-22T09:29:53Z</time></trkpt><trkpt lat="30.791516174648947" lon="-6.8450781268743235"><ele>1234.0</ele><time>2026-03-22T09:29:54Z</time></trkpt><trkpt lat="30.791401612057157" lon="-6.845214341063428"><ele>1234.0</ele><time>2026-03-22T09:29:55Z</time></trkpt><trkpt lat="30.791301327133958" lon="-6.845334773834734"><ele>1234.0</ele><time>2026-03-22T09:29:56Z</time></trkpt><trkpt lat="30.791201532891876" lon="-6.845433315924991"><ele>1234.0</ele><time>2026-03-22T09:29:57Z</time></trkpt><trkpt lat="30.791081169943983" lon="-6.845500698676498"><ele>1234.0</ele><time>2026-03-22T09:29:58Z</time></trkpt><trkpt lat="30.790940873221633" lon="-6.84555067829475"><ele>1232.6666666666665</ele><time>2026-03-22T09:29:59Z</time></trkpt><trkpt lat="30.79077456026697" lon="-6.8455963353559355"><ele>1231.3333333333333</ele><time>2026-03-22T09:30:00Z</time></trkpt><trkpt lat="30.790601369691192" lon="-6.8456450069038715"><ele>1230.0</ele><time>2026-03-22T09:30:01Z</time></trkpt><trkpt lat="30.79044389313796" lon="-6.845723795503221"><ele>1230.0</ele><time>2026-03-22T09:30:02Z</time></trkpt><trkpt lat="30.790305740582664" lon="-6.84580940411251"><ele>1230.0</ele><time>2026-03-22T09:30:03Z</time></trkpt><trkpt lat="30.79016946858963" lon="-6.845882269748094"><ele>1230.0</ele><time>2026-03-22T09:30:04Z</time></trkpt><trkpt lat="30.790043450049662" lon="-6.845944467223111"><ele>1230.0</ele><time>2026-03-22T09:30:05Z</time></trkpt><trkpt lat="30.789931853868154" lon="-6.845985957872928"><ele>1227.3333333333333</ele><time>2026-03-22T09:30:06Z</time></trkpt><trkpt lat="30.78982486157737" lon="-6.846069877550423"><ele>1224.6666666666665</ele><time>2026-03-22T09:30:07Z</time></trkpt><trkpt lat="30.789706051184453" lon="-6.84620834132799"><ele>1222.0</ele><time>2026-03-22T09:30:08Z</time></trkpt><trkpt lat="30.789572371920883" lon="-6.8463531803413975"><ele>1222.0</ele><time>2026-03-22T09:30:09Z</time></trkpt><trkpt lat="30.789425986211775" lon="-6.846467514104234"><ele>1222.0</ele><time>2026-03-22T09:30:10Z</time></trkpt><trkpt lat="30.789315494431015" lon="-6.846547856304666"><ele>1222.0</ele><time>2026-03-22T09:30:11Z</time></trkpt><trkpt lat="30.78921021287221" lon="-6.846590688326601"><ele>1222.0</ele><time>2026-03-22T09:30:12Z</time></trkpt><trkpt lat="30.78909852064018" lon="-6.846620108473203"><ele>1222.0</ele><time>2026-03-22T09:30:13Z</time></trkpt><trkpt lat="30.789005323322336" lon="-6.846637410995605"><ele>1222.0</ele><time>2026-03-22T09:30:14Z</time></trkpt><trkpt lat="30.788921916868556" lon="-6.8466977306067305"><ele>1222.0</ele><time>2026-03-22T09:30:15Z</time></trkpt><trkpt lat="30.788854156650807" lon="-6.84681298398568"><ele>1222.0</ele><time>2026-03-22T09:30:16Z</time></trkpt><trkpt lat="30.788770854116176" lon="-6.8469625706354575"><ele>1221.25</ele><time>2026-03-22T09:30:17Z</time></trkpt><trkpt lat="30.78867870261242" lon="-6.847111556018713"><ele>1220.5</ele><time>2026-03-22T09:30:18Z</time></trkpt><trkpt lat="30.788597899352666" lon="-6.8472211386197115"><ele>1219.75</ele><time>2026-03-22T09:30:19Z</time></trkpt><trkpt lat="30.78850880976485" lon="-6.84731320477206"><ele>1219.0</ele><time>2026-03-22T09:30:20Z</time></trkpt><trkpt lat="30.78839652506278" lon="-6.847399440626424"><ele>1218.5</ele><time>2026-03-22T09:30:21Z</time></trkpt><trkpt lat="30.788263084919585" lon="-6.8474720696454305"><ele>1218.0</ele><time>2026-03-22T09:30:22Z</time></trkpt><trkpt lat="30.78812628835487" lon="-6.847508545361669"><ele>1217.5</ele><time>2026-03-22T09:30:23Z</time></trkpt><trkpt lat="30.788003189473223" lon="-6.847525404120707"><ele>1217.0</ele><time>2026-03-22T09:30:24Z</time></trkpt><trkpt lat="30.787904578033494" lon="-6.847519611253761"><ele>1217.0</ele><time>2026-03-22T09:30:25Z</time></trkpt><trkpt lat="30.787816769126838" lon="-6.8475238497353645"><ele>1217.0</ele><time>2026-03-22T09:30:26Z</time></trkpt><trkpt lat="30.7877317184241" lon="-6.847525607980421"><ele>1217.0</ele><time>2026-03-22T09:30:27Z</time></trkpt><trkpt lat="30.787652786317697" lon="-6.847534092932994"><ele>1217.0</ele><time>2026-03-22T09:30:28Z</time></trkpt><trkpt lat="30.787579130545307" lon="-6.84752933961314"><ele>1217.0</ele><time>2026-03-22T09:30:29Z</time></trkpt><trkpt lat="30.78751333182888" lon="-6.847533074473662"><ele>1217.0</ele><time>2026-03-22T09:30:30Z</time></trkpt><trkpt lat="30.787418121304963" lon="-6.84752448586079"><ele>1217.8333333333335</ele><time>2026-03-22T09:30:31Z</time></trkpt><trkpt lat="30.78730609029303" lon="-6.84751546634449"><ele>1218.6666666666667</ele><time>2026-03-22T09:30:32Z</time></trkpt><trkpt lat="30.78720359465465" lon="-6.847515888189507"><ele>1219.5</ele><time>2026-03-22T09:30:33Z</time></trkpt><trkpt lat="30.78711742104977" lon="-6.847517764874161"><ele>1220.3333333333333</ele><time>2026-03-22T09:30:34Z</time></trkpt><trkpt lat="30.78704181742393" lon="-6.847523073318349"><ele>1221.1666666666665</ele><time>2026-03-22T09:30:35Z</time></trkpt><trkpt lat="30.786977052169384" lon="-6.847544151480667"><ele>1222.0</ele><time>2026-03-22T09:30:36Z</time></trkpt><trkpt lat="30.786911656275652" lon="-6.847554180020551"><ele>1223.0</ele><time>2026-03-22T09:30:37Z</time></trkpt><trkpt lat="30.786831938074293" lon="-6.847538549139914"><ele>1224.0</ele><time>2026-03-22T09:30:38Z</time></trkpt><trkpt lat="30.786738733614246" lon="-6.847507503923273"><ele>1225.0</ele><time>2026-03-22T09:30:39Z</time></trkpt><trkpt lat="30.78663409211313" lon="-6.847480135271806"><ele>1226.0</ele><time>2026-03-22T09:30:40Z</time></trkpt><trkpt lat="30.786524494901638" lon="-6.847470589208217"><ele>1227.0</ele><time>2026-03-22T09:30:41Z</time></trkpt><trkpt lat="30.786411128201284" lon="-6.847474456676607"><ele>1227.0</ele><time>2026-03-22T09:30:42Z</time></trkpt><trkpt lat="30.78630423391655" lon="-6.8474683627299"><ele>1227.0</ele><time>2026-03-22T09:30:43Z</time></trkpt><trkpt lat="30.786197426462117" lon="-6.847438379984174"><ele>1227.0</ele><time>2026-03-22T09:30:44Z</time></trkpt><trkpt lat="30.78607904113054" lon="-6.8473932669179085"><ele>1227.0</ele><time>2026-03-22T09:30:45Z</time></trkpt><trkpt lat="30.785944228498973" lon="-6.8473286974849685"><ele>1228.0</ele><time>2026-03-22T09:30:46Z</time></trkpt><trkpt lat="30.785810029036767" lon="-6.847307527253337"><ele>1229.0</ele><time>2026-03-22T09:30:47Z</time></trkpt><trkpt lat="30.78570955908666" lon="-6.847342716920009"><ele>1230.0</ele><time>2026-03-22T09:30:48Z</time></trkpt><trkpt lat="30.78559818164682" lon="-6.84740283487216"><ele>1231.0</ele><time>2026-03-22T09:30:49Z</time></trkpt><trkpt lat="30.78547632827711" lon="-6.847460397456499"><ele>1231.0</ele><time>2026-03-22T09:30:50Z</time></trkpt><trkpt lat="30.785409506532915" lon="-6.847528758558382"><ele>1231.0</ele><time>2026-03-22T09:30:51Z</time></trkpt><trkpt lat="30.785364107965687" lon="-6.847597353597045"><ele>1231.0</ele><time>2026-03-22T09:30:52Z</time></trkpt><trkpt lat="30.785322355883217" lon="-6.847672684173255"><ele>1231.0</ele><time>2026-03-22T09:30:53Z</time></trkpt><trkpt lat="30.785286351569734" lon="-6.847766273333234"><ele>1231.0</ele><time>2026-03-22T09:30:54Z</time></trkpt><trkpt lat="30.785240849738503" lon="-6.847864608326136"><ele>1231.0</ele><time>2026-03-22T09:30:55Z</time></trkpt><trkpt lat="30.785197268324254" lon="-6.847946928875136"><ele>1231.1666666666665</ele><time>2026-03-22T09:30:56Z</time></trkpt><trkpt lat="30.785146481090788" lon="-6.848012151198969"><ele>1231.3333333333333</ele><time>2026-03-22T09:30:57Z</time></trkpt><trkpt lat="30.785071876365237" lon="-6.848106701506639"><ele>1231.5</ele><time>2026-03-22T09:30:59Z</time></trkpt><trkpt lat="30.78501533241232" lon="-6.8481506123867915"><ele>1231.6666666666667</ele><time>2026-03-22T09:31:01Z</time></trkpt><trkpt lat="30.784946911583397" lon="-6.8481533074291985"><ele>1231.8333333333335</ele><time>2026-03-22T09:31:04Z</time></trkpt><trkpt lat="30.784879658334322" lon="-6.848138258998595"><ele>1232.0</ele><time>2026-03-22T09:31:07Z</time></trkpt><trkpt lat="30.784831277485942" lon="-6.848058891095125"><ele>1232.0</ele><time>2026-03-22T09:31:09.001Z</time></trkpt><trkpt lat="30.784794763188337" lon="-6.8479792832448"><ele>1232.0</ele><time>2026-03-22T09:31:10Z</time></trkpt><trkpt lat="30.784731522449825" lon="-6.847892537857927"><ele>1232.0</ele><time>2026-03-22T09:31:11Z</time></trkpt><trkpt lat="30.784651770213575" lon="-6.847825147258659"><ele>1232.0</ele><time>2026-03-22T09:31:12Z</time></trkpt><trkpt lat="30.784538569885456" lon="-6.847781298569743"><ele>1232.0</ele><time>2026-03-22T09:31:13Z</time></trkpt><trkpt lat="30.784438797678487" lon="-6.847771316202549"><ele>1232.0</ele><time>2026-03-22T09:31:14Z</time></trkpt><trkpt lat="30.784373525701564" lon="-6.84780174463814"><ele>1232.0</ele><time>2026-03-22T09:31:15Z</time></trkpt><trkpt lat="30.78432450095257" lon="-6.8478645931716695"><ele>1232.0</ele><time>2026-03-22T09:31:16Z</time></trkpt><trkpt lat="30.784309889169787" lon="-6.847937745626895"><ele>1232.0</ele><time>2026-03-22T09:31:17Z</time></trkpt><trkpt lat="30.78428952860467" lon="-6.848031456884864"><ele>1232.0</ele><time>2026-03-22T09:31:18Z</time></trkpt><trkpt lat="30.784260177978187" lon="-6.848147898468291"><ele>1232.0</ele><time>2026-03-22T09:31:19Z</time></trkpt><trkpt lat="30.784215699671503" lon="-6.848274893713194"><ele>1232.25</ele><time>2026-03-22T09:31:20Z</time></trkpt><trkpt lat="30.784170464078212" lon="-6.848395404355452"><ele>1232.5</ele><time>2026-03-22T09:31:21Z</time></trkpt><trkpt lat="30.7841574245969" lon="-6.848516725106728"><ele>1232.75</ele><time>2026-03-22T09:31:22Z</time></trkpt><trkpt lat="30.78416861888218" lon="-6.848660175515631"><ele>1233.0</ele><time>2026-03-22T09:31:23Z</time></trkpt><trkpt lat="30.78418768746461" lon="-6.848822140982791"><ele>1233.0</ele><time>2026-03-22T09:31:24Z</time></trkpt><trkpt lat="30.784217723636452" lon="-6.848976441778696"><ele>1233.0</ele><time>2026-03-22T09:31:25Z</time></trkpt><trkpt lat="30.784267086338104" lon="-6.849106496520735"><ele>1233.0</ele><time>2026-03-22T09:31:26Z</time></trkpt><trkpt lat="30.7842965891029" lon="-6.849219534648363"><ele>1233.0</ele><time>2026-03-22T09:31:27Z</time></trkpt><trkpt lat="30.784278571840584" lon="-6.849329196184864"><ele>1233.0</ele><time>2026-03-22T09:31:28Z</time></trkpt><trkpt lat="30.78421248894763" lon="-6.849415553298126"><ele>1233.0</ele><time>2026-03-22T09:31:29Z</time></trkpt><trkpt lat="30.78412404549296" lon="-6.849483759203423"><ele>1233.0</ele><time>2026-03-22T09:31:30Z</time></trkpt><trkpt lat="30.783995975191182" lon="-6.849525289872959"><ele>1233.0</ele><time>2026-03-22T09:31:31Z</time></trkpt><trkpt lat="30.783848402642594" lon="-6.849544150989858"><ele>1233.0</ele><time>2026-03-22T09:31:32Z</time></trkpt><trkpt lat="30.783709440794393" lon="-6.849594430465208"><ele>1233.0</ele><time>2026-03-22T09:31:33Z</time></trkpt><trkpt lat="30.783604882374874" lon="-6.849697100914911"><ele>1233.0</ele><time>2026-03-22T09:31:34Z</time></trkpt><trkpt lat="30.783474373504795" lon="-6.849808269946333"><ele>1233.0</ele><time>2026-03-22T09:31:35Z</time></trkpt><trkpt lat="30.78332749554902" lon="-6.84990557631227"><ele>1232.6666666666667</ele><time>2026-03-22T09:31:36Z</time></trkpt><trkpt lat="30.783165374867625" lon="-6.849979070684085"><ele>1232.3333333333335</ele><time>2026-03-22T09:31:37Z</time></trkpt><trkpt lat="30.783008338137538" lon="-6.850051307348353"><ele>1232.0</ele><time>2026-03-22T09:31:38Z</time></trkpt><trkpt lat="30.78287235342993" lon="-6.8501368786750465"><ele>1232.25</ele><time>2026-03-22T09:31:39Z</time></trkpt><trkpt lat="30.782779232098488" lon="-6.850191418683172"><ele>1232.5</ele><time>2026-03-22T09:31:40Z</time></trkpt><trkpt lat="30.78268129019756" lon="-6.850263537706813"><ele>1232.75</ele><time>2026-03-22T09:31:41Z</time></trkpt><trkpt lat="30.782590637702544" lon="-6.85035892939105"><ele>1233.0</ele><time>2026-03-22T09:31:42Z</time></trkpt><trkpt lat="30.782509095001867" lon="-6.850474644239926"><ele>1233.0</ele><time>2026-03-22T09:31:43Z</time></trkpt><trkpt lat="30.782432393311208" lon="-6.85058502826873"><ele>1233.0</ele><time>2026-03-22T09:31:44Z</time></trkpt><trkpt lat="30.782351382190587" lon="-6.850675502469288"><ele>1233.0</ele><time>2026-03-22T09:31:45Z</time></trkpt><trkpt lat="30.78226904686428" lon="-6.850746072726722"><ele>1233.0</ele><time>2026-03-22T09:31:46Z</time></trkpt><trkpt lat="30.782198722228195" lon="-6.850811492391799"><ele>1233.0</ele><time>2026-03-22T09:31:47Z</time></trkpt><trkpt lat="30.782141267472834" lon="-6.850869902958441"><ele>1233.0</ele><time>2026-03-22T09:31:48Z</time></trkpt><trkpt lat="30.782085400678028" lon="-6.850936406172018"><ele>1233.0</ele><time>2026-03-22T09:31:49Z</time></trkpt><trkpt lat="30.782032937626457" lon="-6.851020048383322"><ele>1233.0</ele><time>2026-03-22T09:31:50Z</time></trkpt><trkpt lat="30.781954819946353" lon="-6.851106384216767"><ele>1233.0</ele><time>2026-03-22T09:31:51Z</time></trkpt><trkpt lat="30.78184584699774" lon="-6.851191976345146"><ele>1233.0</ele><time>2026-03-22T09:31:52Z</time></trkpt><trkpt lat="30.781732118642587" lon="-6.851287228077689"><ele>1231.8</ele><time>2026-03-22T09:31:53Z</time></trkpt><trkpt lat="30.781619945275402" lon="-6.85137462346247"><ele>1230.6</ele><time>2026-03-22T09:31:54Z</time></trkpt><trkpt lat="30.781525710226646" lon="-6.851452172489454"><ele>1229.4</ele><time>2026-03-22T09:31:55Z</time></trkpt><trkpt lat="30.78145405391087" lon="-6.851532085415245"><ele>1228.2</ele><time>2026-03-22T09:31:56Z</time></trkpt><trkpt lat="30.78139973698965" lon="-6.851625987973919"><ele>1227.0</ele><time>2026-03-22T09:31:57Z</time></trkpt><trkpt lat="30.781346325620092" lon="-6.851716429654509"><ele>1225.5</ele><time>2026-03-22T09:31:58Z</time></trkpt><trkpt lat="30.781290519513124" lon="-6.851807650278989"><ele>1224.0</ele><time>2026-03-22T09:31:59Z</time></trkpt><trkpt lat="30.781195432232717" lon="-6.851865786266811"><ele>1222.5</ele><time>2026-03-22T09:32:00Z</time></trkpt><trkpt lat="30.78109639333464" lon="-6.8519413856753415"><ele>1221.0</ele><time>2026-03-22T09:32:01Z</time></trkpt><trkpt lat="30.780998531025773" lon="-6.852046887964582"><ele>1221.0</ele><time>2026-03-22T09:32:02Z</time></trkpt><trkpt lat="30.780886156297985" lon="-6.852124303074194"><ele>1221.0</ele><time>2026-03-22T09:32:03Z</time></trkpt><trkpt lat="30.780786777135564" lon="-6.852183945720399"><ele>1221.0</ele><time>2026-03-22T09:32:04Z</time></trkpt><trkpt lat="30.780704041439357" lon="-6.852249755683748"><ele>1221.0</ele><time>2026-03-22T09:32:05Z</time></trkpt><trkpt lat="30.78063653717864" lon="-6.85235923950371"><ele>1221.0</ele><time>2026-03-22T09:32:06Z</time></trkpt><trkpt lat="30.78056976823591" lon="-6.852482463972707"><ele>1221.0</ele><time>2026-03-22T09:32:07Z</time></trkpt><trkpt lat="30.780520943967048" lon="-6.852600176709518"><ele>1221.0</ele><time>2026-03-22T09:32:08Z</time></trkpt><trkpt lat="30.78047084480351" lon="-6.852711814869027"><ele>1221.0</ele><time>2026-03-22T09:32:09Z</time></trkpt><trkpt lat="30.780406513735247" lon="-6.8528376561012445"><ele>1219.3999999999999</ele><time>2026-03-22T09:32:10Z</time></trkpt><trkpt lat="30.780342060990975" lon="-6.852945877599014"><ele>1217.8</ele><time>2026-03-22T09:32:11Z</time></trkpt><trkpt lat="30.78026034458885" lon="-6.8530177073773935"><ele>1216.1999999999998</ele><time>2026-03-22T09:32:12Z</time></trkpt><trkpt lat="30.78013996289742" lon="-6.853046054697142"><ele>1214.6</ele><time>2026-03-22T09:32:13Z</time></trkpt><trkpt lat="30.78004078117291" lon="-6.8530879661968545"><ele>1213.0</ele><time>2026-03-22T09:32:14Z</time></trkpt><trkpt lat="30.779994773220693" lon="-6.8531605519810785"><ele>1213.0</ele><time>2026-03-22T09:32:15Z</time></trkpt><trkpt lat="30.779942968861604" lon="-6.85326143527096"><ele>1213.0</ele><time>2026-03-22T09:32:16Z</time></trkpt><trkpt lat="30.7798871802204" lon="-6.853372283203401"><ele>1213.0</ele><time>2026-03-22T09:32:17Z</time></trkpt><trkpt lat="30.779837699640773" lon="-6.853475507878963"><ele>1213.0</ele><time>2026-03-22T09:32:18Z</time></trkpt><trkpt lat="30.77978835305792" lon="-6.853576572937911"><ele>1213.0</ele><time>2026-03-22T09:32:19Z</time></trkpt><trkpt lat="30.77973937869634" lon="-6.853684444406141"><ele>1215.0</ele><time>2026-03-22T09:32:20Z</time></trkpt><trkpt lat="30.779681252422794" lon="-6.8538011282248545"><ele>1217.0</ele><time>2026-03-22T09:32:21Z</time></trkpt><trkpt lat="30.77961223107933" lon="-6.853903233474363"><ele>1219.0</ele><time>2026-03-22T09:32:22Z</time></trkpt><trkpt lat="30.77952858713017" lon="-6.853999860383729"><ele>1221.0</ele><time>2026-03-22T09:32:23Z</time></trkpt><trkpt lat="30.779459051332168" lon="-6.854093017824531"><ele>1221.0</ele><time>2026-03-22T09:32:24Z</time></trkpt><trkpt lat="30.779399689438073" lon="-6.854202179178658"><ele>1221.0</ele><time>2026-03-22T09:32:25Z</time></trkpt><trkpt lat="30.779342931937464" lon="-6.854311454227752"><ele>1221.0</ele><time>2026-03-22T09:32:26Z</time></trkpt><trkpt lat="30.77927705713115" lon="-6.854419628397599"><ele>1221.0</ele><time>2026-03-22T09:32:27Z</time></trkpt><trkpt lat="30.77921296806827" lon="-6.854521309702686"><ele>1221.0</ele><time>2026-03-22T09:32:28Z</time></trkpt><trkpt lat="30.779143281039328" lon="-6.854618732479862"><ele>1220.6666666666667</ele><time>2026-03-22T09:32:29Z</time></trkpt><trkpt lat="30.77907447172533" lon="-6.854715072512124"><ele>1220.3333333333333</ele><time>2026-03-22T09:32:30Z</time></trkpt><trkpt lat="30.779028092288563" lon="-6.854802444129446"><ele>1220.0</ele><time>2026-03-22T09:32:31Z</time></trkpt><trkpt lat="30.778992192355616" lon="-6.854888092679442"><ele>1219.6666666666665</ele><time>2026-03-22T09:32:32Z</time></trkpt><trkpt lat="30.778972873230618" lon="-6.854960268113664"><ele>1219.3333333333333</ele><time>2026-03-22T09:32:33Z</time></trkpt><trkpt lat="30.778946250622752" lon="-6.85504462113993"><ele>1219.0</ele><time>2026-03-22T09:32:34Z</time></trkpt><trkpt lat="30.77888516779312" lon="-6.855144831771253"><ele>1219.0</ele><time>2026-03-22T09:32:35Z</time></trkpt><trkpt lat="30.778801625737568" lon="-6.855244852825076"><ele>1219.0</ele><time>2026-03-22T09:32:36Z</time></trkpt><trkpt lat="30.778723117714602" lon="-6.855330913120973"><ele>1219.0</ele><time>2026-03-22T09:32:37Z</time></trkpt><trkpt lat="30.778658126210395" lon="-6.855396182460193"><ele>1219.0</ele><time>2026-03-22T09:32:38Z</time></trkpt><trkpt lat="30.778610018088877" lon="-6.85546602421054"><ele>1219.0</ele><time>2026-03-22T09:32:39Z</time></trkpt><trkpt lat="30.778571185250186" lon="-6.855537196699237"><ele>1219.0</ele><time>2026-03-22T09:32:40Z</time></trkpt><trkpt lat="30.77853242819951" lon="-6.85560651773489"><ele>1219.0</ele><time>2026-03-22T09:32:41Z</time></trkpt><trkpt lat="30.778456428416074" lon="-6.8557167525490845"><ele>1219.0</ele><time>2026-03-22T09:32:43Z</time></trkpt><trkpt lat="30.778394647409346" lon="-6.855792590429678"><ele>1219.0</ele><time>2026-03-22T09:32:45Z</time></trkpt><trkpt lat="30.778302256992575" lon="-6.855901823408494"><ele>1219.0</ele><time>2026-03-22T09:32:47Z</time></trkpt><trkpt lat="30.77823947990327" lon="-6.855991410521278"><ele>1214.6000000000001</ele><time>2026-03-22T09:32:48Z</time></trkpt><trkpt lat="30.778170905674482" lon="-6.856074922098531"><ele>1210.2</ele><time>2026-03-22T09:32:49Z</time></trkpt><trkpt lat="30.778102543085133" lon="-6.856154056697867"><ele>1205.8000000000002</ele><time>2026-03-22T09:32:50Z</time></trkpt><trkpt lat="30.778040237979543" lon="-6.856219724473128"><ele>1201.4</ele><time>2026-03-22T09:32:51Z</time></trkpt><trkpt lat="30.77797912499328" lon="-6.856291246530987"><ele>1197.0</ele><time>2026-03-22T09:32:52Z</time></trkpt><trkpt lat="30.777910942309582" lon="-6.856357983679479"><ele>1197.0</ele><time>2026-03-22T09:32:53Z</time></trkpt><trkpt lat="30.777860859708326" lon="-6.8564162089023775"><ele>1197.0</ele><time>2026-03-22T09:32:54Z</time></trkpt><trkpt lat="30.77783492648789" lon="-6.856549362191641"><ele>1197.0</ele><time>2026-03-22T09:32:56Z</time></trkpt><trkpt lat="30.777779965325617" lon="-6.856667033169562"><ele>1197.0</ele><time>2026-03-22T09:32:58Z</time></trkpt><trkpt lat="30.77771255950914" lon="-6.856772585249855"><ele>1197.0</ele><time>2026-03-22T09:32:59Z</time></trkpt><trkpt lat="30.777661126850024" lon="-6.856895897972192"><ele>1196.0</ele><time>2026-03-22T09:33:00Z</time></trkpt><trkpt lat="30.77763205381192" lon="-6.856972180877385"><ele>1195.0</ele><time>2026-03-22T09:33:01Z</time></trkpt><trkpt lat="30.777536739320894" lon="-6.856944030104828"><ele>1194.0</ele><time>2026-03-22T09:33:03Z</time></trkpt><trkpt lat="30.777461186323748" lon="-6.856878582477238"><ele>1193.0</ele><time>2026-03-22T09:33:04Z</time></trkpt><trkpt lat="30.777344614881283" lon="-6.856815307636797"><ele>1192.0</ele><time>2026-03-22T09:33:05Z</time></trkpt><trkpt lat="30.777245297328967" lon="-6.856785678025711"><ele>1191.5</ele><time>2026-03-22T09:33:06Z</time></trkpt><trkpt lat="30.777164632134365" lon="-6.856791156454641"><ele>1191.0</ele><time>2026-03-22T09:33:07Z</time></trkpt><trkpt lat="30.777064697046775" lon="-6.856792060039671"><ele>1190.5</ele><time>2026-03-22T09:33:08Z</time></trkpt><trkpt lat="30.77696925229332" lon="-6.856786710223896"><ele>1190.0</ele><time>2026-03-22T09:33:09Z</time></trkpt><trkpt lat="30.776889317193145" lon="-6.856789000636168"><ele>1189.5</ele><time>2026-03-22T09:33:09.999Z</time></trkpt><trkpt lat="30.776813201936825" lon="-6.856820577856608"><ele>1189.0</ele><time>2026-03-22T09:33:10.999Z</time></trkpt><trkpt lat="30.776743012406623" lon="-6.856893341004565"><ele>1188.5</ele><time>2026-03-22T09:33:12.001Z</time></trkpt><trkpt lat="30.77665344089495" lon="-6.8569284437146125"><ele>1188.0</ele><time>2026-03-22T09:33:13Z</time></trkpt><trkpt lat="30.776524686818362" lon="-6.856933309400173"><ele>1187.5</ele><time>2026-03-22T09:33:14Z</time></trkpt><trkpt lat="30.776362693769347" lon="-6.856925884590191"><ele>1187.0</ele><time>2026-03-22T09:33:15.001Z</time></trkpt><trkpt lat="30.776219810962818" lon="-6.8569466300512"><ele>1187.0</ele><time>2026-03-22T09:33:15.999Z</time></trkpt><trkpt lat="30.776102960424573" lon="-6.856996303806845"><ele>1187.0</ele><time>2026-03-22T09:33:16.999Z</time></trkpt><trkpt lat="30.775987516533057" lon="-6.857048102654749"><ele>1187.0</ele><time>2026-03-22T09:33:18Z</time></trkpt><trkpt lat="30.775871002355224" lon="-6.857115894994705"><ele>1187.0</ele><time>2026-03-22T09:33:19Z</time></trkpt><trkpt lat="30.77572093138727" lon="-6.857147245674897"><ele>1187.6666666666667</ele><time>2026-03-22T09:33:20Z</time></trkpt><trkpt lat="30.775552002644105" lon="-6.857160192035444"><ele>1188.3333333333333</ele><time>2026-03-22T09:33:21Z</time></trkpt><trkpt lat="30.775413993503445" lon="-6.857201496135802"><ele>1189.0</ele><time>2026-03-22T09:33:22Z</time></trkpt><trkpt lat="30.775269724070846" lon="-6.857247643477139"><ele>1189.5</ele><time>2026-03-22T09:33:23Z</time></trkpt><trkpt lat="30.775121223751853" lon="-6.8573169049738905"><ele>1190.0</ele><time>2026-03-22T09:33:24Z</time></trkpt><trkpt lat="30.77501314792776" lon="-6.857382672029939"><ele>1190.5</ele><time>2026-03-22T09:33:25Z</time></trkpt><trkpt lat="30.774921256161722" lon="-6.857455587512653"><ele>1191.0</ele><time>2026-03-22T09:33:26Z</time></trkpt><trkpt lat="30.774836087492886" lon="-6.8575090398504885"><ele>1191.0</ele><time>2026-03-22T09:33:27Z</time></trkpt><trkpt lat="30.77476060689041" lon="-6.857555871759583"><ele>1191.0</ele><time>2026-03-22T09:33:28Z</time></trkpt><trkpt lat="30.774691734110142" lon="-6.857579604975697"><ele>1191.0</ele><time>2026-03-22T09:33:29Z</time></trkpt><trkpt lat="30.77458002918367" lon="-6.8576060200809685"><ele>1191.0</ele><time>2026-03-22T09:33:31Z</time></trkpt><trkpt lat="30.774473838665386" lon="-6.857603012660613"><ele>1191.0</ele><time>2026-03-22T09:33:33Z</time></trkpt><trkpt lat="30.77436224097686" lon="-6.857605004571175"><ele>1191.142857142857</ele><time>2026-03-22T09:33:35Z</time></trkpt><trkpt lat="30.77429833113319" lon="-6.857601098197587"><ele>1191.2857142857142</ele><time>2026-03-22T09:33:36Z</time></trkpt><trkpt lat="30.774227300437705" lon="-6.857581898222113"><ele>1191.4285714285713</ele><time>2026-03-22T09:33:37Z</time></trkpt><trkpt lat="30.774162601143132" lon="-6.857553168121413"><ele>1191.5714285714284</ele><time>2026-03-22T09:33:38Z</time></trkpt><trkpt lat="30.774105669037894" lon="-6.857518690640718"><ele>1191.7142857142856</ele><time>2026-03-22T09:33:39Z</time></trkpt><trkpt lat="30.77404564348185" lon="-6.857484355883746"><ele>1191.857142857143</ele><time>2026-03-22T09:33:40Z</time></trkpt><trkpt lat="30.773979730487902" lon="-6.857449464139753"><ele>1192.0</ele><time>2026-03-22T09:33:41Z</time></trkpt><trkpt lat="30.773893219170482" lon="-6.857412809002612"><ele>1192.0</ele><time>2026-03-22T09:33:42Z</time></trkpt><trkpt lat="30.77380524362334" lon="-6.857368136917029"><ele>1192.0</ele><time>2026-03-22T09:33:43Z</time></trkpt><trkpt lat="30.773722125656022" lon="-6.8573214507459825"><ele>1192.0</ele><time>2026-03-22T09:33:44Z</time></trkpt><trkpt lat="30.77364438274587" lon="-6.857286558624624"><ele>1192.0</ele><time>2026-03-22T09:33:45Z</time></trkpt><trkpt lat="30.773558689512186" lon="-6.85725432563456"><ele>1192.0</ele><time>2026-03-22T09:33:46Z</time></trkpt><trkpt lat="30.773476863286415" lon="-6.857207378547206"><ele>1192.1666666666665</ele><time>2026-03-22T09:33:47Z</time></trkpt><trkpt lat="30.77339302639553" lon="-6.857139096819999"><ele>1192.3333333333333</ele><time>2026-03-22T09:33:48Z</time></trkpt><trkpt lat="30.773334884017697" lon="-6.857060122888542"><ele>1192.5</ele><time>2026-03-22T09:33:49Z</time></trkpt><trkpt lat="30.773284127651653" lon="-6.856990833760375"><ele>1192.6666666666667</ele><time>2026-03-22T09:33:50Z</time></trkpt><trkpt lat="30.773216591035442" lon="-6.856920998095852"><ele>1192.8333333333335</ele><time>2026-03-22T09:33:52Z</time></trkpt><trkpt lat="30.7731466608782" lon="-6.856896817270001"><ele>1193.0</ele><time>2026-03-22T09:33:59Z</time></trkpt><trkpt lat="30.773082440078394" lon="-6.856831983594984"><ele>1193.0</ele><time>2026-03-22T09:34:01Z</time></trkpt><trkpt lat="30.773045730628972" lon="-6.856762073921369"><ele>1193.0</ele><time>2026-03-22T09:34:03Z</time></trkpt><trkpt lat="30.773129593894883" lon="-6.8567916524027686"><ele>1193.0</ele><time>2026-03-22T09:34:11Z</time></trkpt><trkpt lat="30.773182939958257" lon="-6.856861369691799"><ele>1193.0</ele><time>2026-03-22T09:34:23Z</time></trkpt><trkpt lat="30.77304602936724" lon="-6.856899667354867"><ele>1193.0</ele><time>2026-03-22T09:34:37Z</time></trkpt><trkpt lat="30.772974702138423" lon="-6.856913969705975"><ele>1193.0</ele><time>2026-03-22T09:34:38Z</time></trkpt><trkpt lat="30.77289956087971" lon="-6.85695223933047"><ele>1193.0</ele><time>2026-03-22T09:34:39Z</time></trkpt><trkpt lat="30.772860267601576" lon="-6.857033234291407"><ele>1193.0</ele><time>2026-03-22T09:34:40Z</time></trkpt><trkpt lat="30.77282519864702" lon="-6.857154157993325"><ele>1193.0</ele><time>2026-03-22T09:34:41Z</time></trkpt><trkpt lat="30.77277965071648" lon="-6.857285556447863"><ele>1193.0</ele><time>2026-03-22T09:34:42Z</time></trkpt><trkpt lat="30.77272613988219" lon="-6.857369826077992"><ele>1194.8</ele><time>2026-03-22T09:34:43Z</time></trkpt><trkpt lat="30.772646542846616" lon="-6.857408561222119"><ele>1196.6</ele><time>2026-03-22T09:34:44Z</time></trkpt><trkpt lat="30.772555069738903" lon="-6.857457075346239"><ele>1198.4</ele><time>2026-03-22T09:34:45Z</time></trkpt><trkpt lat="30.772482407307514" lon="-6.857571809816139"><ele>1200.2</ele><time>2026-03-22T09:34:46Z</time></trkpt><trkpt lat="30.772446705259295" lon="-6.8577015391448155"><ele>1202.0</ele><time>2026-03-22T09:34:47Z</time></trkpt><trkpt lat="30.77241039229004" lon="-6.857857908102027"><ele>1202.0</ele><time>2026-03-22T09:34:48Z</time></trkpt><trkpt lat="30.77234185493091" lon="-6.858020890245214"><ele>1202.0</ele><time>2026-03-22T09:34:49Z</time></trkpt><trkpt lat="30.77225477222916" lon="-6.858176841924787"><ele>1202.0</ele><time>2026-03-22T09:34:50Z</time></trkpt><trkpt lat="30.77216090980581" lon="-6.858324453716804"><ele>1202.0</ele><time>2026-03-22T09:34:51Z</time></trkpt><trkpt lat="30.772096715415536" lon="-6.858434705389276"><ele>1202.0</ele><time>2026-03-22T09:34:52Z</time></trkpt><trkpt lat="30.772058364821575" lon="-6.85853360274004"><ele>1202.0</ele><time>2026-03-22T09:34:53Z</time></trkpt><trkpt lat="30.772024060540435" lon="-6.858616311460854"><ele>1202.0</ele><time>2026-03-22T09:34:54Z</time></trkpt><trkpt lat="30.771998652310284" lon="-6.858696210052366"><ele>1202.0</ele><time>2026-03-22T09:34:55Z</time></trkpt><trkpt lat="30.77190373147586" lon="-6.858694278058497"><ele>1202.0</ele><time>2026-03-22T09:34:57Z</time></trkpt><trkpt lat="30.771890117239565" lon="-6.858543273471602"><ele>1202.0</ele><time>2026-03-22T09:34:59Z</time></trkpt><trkpt lat="30.771895003159067" lon="-6.858449925213356"><ele>1202.0</ele><time>2026-03-22T09:35:00Z</time></trkpt><trkpt lat="30.771855532694268" lon="-6.858320059808916"><ele>1202.0</ele><time>2026-03-22T09:35:01Z</time></trkpt><trkpt lat="30.771785897741545" lon="-6.858175085557246"><ele>1205.0</ele><time>2026-03-22T09:35:02Z</time></trkpt><trkpt lat="30.77173213548437" lon="-6.858059957169033"><ele>1208.0</ele><time>2026-03-22T09:35:03Z</time></trkpt><trkpt lat="30.771711355849398" lon="-6.857989081613349"><ele>1211.0</ele><time>2026-03-22T09:35:04Z</time></trkpt><trkpt lat="30.77168865332062" lon="-6.857894463446637"><ele>1214.0</ele><time>2026-03-22T09:35:06Z</time></trkpt><trkpt lat="30.77164345195239" lon="-6.8578045536709515"><ele>1217.0</ele><time>2026-03-22T09:35:09Z</time></trkpt><trkpt lat="30.77162057949565" lon="-6.857700971079947"><ele>1220.0</ele><time>2026-03-22T09:42:06Z</time></trkpt><trkpt lat="30.771575880705548" lon="-6.857605282684238"><ele>1220.0</ele><time>2026-03-22T09:42:08Z</time></trkpt><trkpt lat="30.771515140970312" lon="-6.857545938954083"><ele>1220.0</ele><time>2026-03-22T09:42:10Z</time></trkpt><trkpt lat="30.771445143111794" lon="-6.857429431046105"><ele>1220.0</ele><time>2026-03-22T09:42:13Z</time></trkpt><trkpt lat="30.771378875039474" lon="-6.857342416629283"><ele>1220.0</ele><time>2026-03-22T09:42:15Z</time></trkpt><trkpt lat="30.77127420837875" lon="-6.857348161663334"><ele>1220.0</ele><time>2026-03-22T09:42:17Z</time></trkpt><trkpt lat="30.771191758021498" lon="-6.857352162368841"><ele>1220.0</ele><time>2026-03-22T09:42:18Z</time></trkpt><trkpt lat="30.77109788035921" lon="-6.857348165054406"><ele>1220.0</ele><time>2026-03-22T09:42:19Z</time></trkpt><trkpt lat="30.771020349463853" lon="-6.857345624949148"><ele>1220.0</ele><time>2026-03-22T09:42:20Z</time></trkpt><trkpt lat="30.770927480463204" lon="-6.857365412999097"><ele>1220.0</ele><time>2026-03-22T09:42:21Z</time></trkpt><trkpt lat="30.770863339872225" lon="-6.857417303897603"><ele>1220.0</ele><time>2026-03-22T09:42:22Z</time></trkpt><trkpt lat="30.77080519531249" lon="-6.857494716770924"><ele>1220.0</ele><time>2026-03-22T09:42:23Z</time></trkpt><trkpt lat="30.770751570965242" lon="-6.857595562665026"><ele>1225.75</ele><time>2026-03-22T09:42:24Z</time></trkpt><trkpt lat="30.77067742604498" lon="-6.857703574657898"><ele>1231.5</ele><time>2026-03-22T09:42:25Z</time></trkpt><trkpt lat="30.770610061509526" lon="-6.85779461714865"><ele>1237.25</ele><time>2026-03-22T09:42:26Z</time></trkpt><trkpt lat="30.770519576159284" lon="-6.857895088837261"><ele>1243.0</ele><time>2026-03-22T09:42:27Z</time></trkpt><trkpt lat="30.770431151827893" lon="-6.858000567364922"><ele>1243.0</ele><time>2026-03-22T09:42:28Z</time></trkpt><trkpt lat="30.770364649628874" lon="-6.858103965294964"><ele>1243.0</ele><time>2026-03-22T09:42:29Z</time></trkpt><trkpt lat="30.770329589304797" lon="-6.858220153319543"><ele>1243.0</ele><time>2026-03-22T09:42:30Z</time></trkpt><trkpt lat="30.77029562180616" lon="-6.858346967314185"><ele>1243.0</ele><time>2026-03-22T09:42:31Z</time></trkpt><trkpt lat="30.770259112824515" lon="-6.858458744329228"><ele>1243.0</ele><time>2026-03-22T09:42:32Z</time></trkpt><trkpt lat="30.770211369914605" lon="-6.8585666933656455"><ele>1244.4</ele><time>2026-03-22T09:42:33Z</time></trkpt><trkpt lat="30.770153653259978" lon="-6.858662377869577"><ele>1245.8</ele><time>2026-03-22T09:42:34Z</time></trkpt><trkpt lat="30.770084711885485" lon="-6.85873988821017"><ele>1247.2</ele><time>2026-03-22T09:42:35Z</time></trkpt><trkpt lat="30.770025695111176" lon="-6.858783241888424"><ele>1248.6</ele><time>2026-03-22T09:42:36Z</time></trkpt><trkpt lat="30.769898123907833" lon="-6.858796580340001"><ele>1250.0</ele><time>2026-03-22T09:42:38Z</time></trkpt><trkpt lat="30.769823172624452" lon="-6.858754048701459"><ele>1250.0</ele><time>2026-03-22T09:42:39Z</time></trkpt><trkpt lat="30.76973514724628" lon="-6.858693695372883"><ele>1250.0</ele><time>2026-03-22T09:42:40Z</time></trkpt><trkpt lat="30.769650287760925" lon="-6.8586402394664505"><ele>1250.0</ele><time>2026-03-22T09:42:41Z</time></trkpt><trkpt lat="30.76955327076301" lon="-6.858588019190548"><ele>1250.0</ele><time>2026-03-22T09:42:42Z</time></trkpt><trkpt lat="30.769472127689614" lon="-6.858544744525898"><ele>1250.0</ele><time>2026-03-22T09:42:43Z</time></trkpt><trkpt lat="30.76939980318054" lon="-6.858511857144751"><ele>1251.6</ele><time>2026-03-22T09:42:44Z</time></trkpt><trkpt lat="30.769309022043437" lon="-6.85846799275406"><ele>1253.2</ele><time>2026-03-22T09:42:45Z</time></trkpt><trkpt lat="30.769201868953303" lon="-6.858426759807755"><ele>1254.8</ele><time>2026-03-22T09:42:46Z</time></trkpt><trkpt lat="30.769105910959446" lon="-6.858389670575407"><ele>1256.4</ele><time>2026-03-22T09:42:47Z</time></trkpt><trkpt lat="30.769007250392416" lon="-6.858352978209687"><ele>1258.0</ele><time>2026-03-22T09:42:48Z</time></trkpt><trkpt lat="30.76890110468909" lon="-6.858314002875733"><ele>1258.0</ele><time>2026-03-22T09:42:49Z</time></trkpt><trkpt lat="30.76879340288027" lon="-6.8582800375174795"><ele>1258.0</ele><time>2026-03-22T09:42:50Z</time></trkpt><trkpt lat="30.76868803743916" lon="-6.858254384106544"><ele>1258.0</ele><time>2026-03-22T09:42:51Z</time></trkpt><trkpt lat="30.76858414843291" lon="-6.858224984960162"><ele>1258.0</ele><time>2026-03-22T09:42:52Z</time></trkpt><trkpt lat="30.768467935157037" lon="-6.858181510320453"><ele>1258.0</ele><time>2026-03-22T09:42:53Z</time></trkpt><trkpt lat="30.768354884544934" lon="-6.858127701651473"><ele>1259.2</ele><time>2026-03-22T09:42:54Z</time></trkpt><trkpt lat="30.76825842214771" lon="-6.858061861992509"><ele>1260.4</ele><time>2026-03-22T09:42:55Z</time></trkpt><trkpt lat="30.76815313279448" lon="-6.857977171241709"><ele>1261.6000000000001</ele><time>2026-03-22T09:42:56Z</time></trkpt><trkpt lat="30.768069834106704" lon="-6.85790133217039"><ele>1262.8</ele><time>2026-03-22T09:42:57Z</time></trkpt><trkpt lat="30.7679947681772" lon="-6.857826283418203"><ele>1264.0</ele><time>2026-03-22T09:42:58Z</time></trkpt><trkpt lat="30.76791745043501" lon="-6.857741611609252"><ele>1264.0</ele><time>2026-03-22T09:42:59Z</time></trkpt><trkpt lat="30.76784752461163" lon="-6.857651546738286"><ele>1264.0</ele><time>2026-03-22T09:43:00Z</time></trkpt><trkpt lat="30.767766236710866" lon="-6.8575840110536035"><ele>1264.0</ele><time>2026-03-22T09:43:01Z</time></trkpt><trkpt lat="30.767678734256123" lon="-6.857529611488249"><ele>1264.0</ele><time>2026-03-22T09:43:02Z</time></trkpt><trkpt lat="30.767587675891026" lon="-6.8575060054193955"><ele>1264.0</ele><time>2026-03-22T09:43:03Z</time></trkpt><trkpt lat="30.767494173100182" lon="-6.857493016289153"><ele>1262.4</ele><time>2026-03-22T09:43:04Z</time></trkpt><trkpt lat="30.767412073800138" lon="-6.857469061789315"><ele>1260.8000000000002</ele><time>2026-03-22T09:43:05Z</time></trkpt><trkpt lat="30.76734241665503" lon="-6.857443265170965"><ele>1259.1999999999998</ele><time>2026-03-22T09:43:06Z</time></trkpt><trkpt lat="30.767276394535983" lon="-6.857418665915732"><ele>1257.6</ele><time>2026-03-22T09:43:07Z</time></trkpt><trkpt lat="30.76718418546823" lon="-6.857464704630985"><ele>1256.0</ele><time>2026-03-22T09:43:09Z</time></trkpt><trkpt lat="30.767166471794877" lon="-6.857608506153791"><ele>1255.5</ele><time>2026-03-22T09:43:11Z</time></trkpt><trkpt lat="30.767190328120133" lon="-6.857710550376337"><ele>1255.0</ele><time>2026-03-22T09:43:12Z</time></trkpt><trkpt lat="30.767200954027757" lon="-6.857795295669211"><ele>1254.5</ele><time>2026-03-22T09:43:13Z</time></trkpt><trkpt lat="30.767184203069426" lon="-6.857873700083238"><ele>1254.0</ele><time>2026-03-22T09:43:14Z</time></trkpt><trkpt lat="30.767142869994487" lon="-6.857956454751011"><ele>1253.5</ele><time>2026-03-22T09:43:15Z</time></trkpt><trkpt lat="30.767080064951635" lon="-6.85805129930501"><ele>1253.0</ele><time>2026-03-22T09:43:16Z</time></trkpt><trkpt lat="30.767012018241573" lon="-6.858158497888967"><ele>1253.0</ele><time>2026-03-22T09:43:17Z</time></trkpt><trkpt lat="30.766945924556612" lon="-6.858275226288209"><ele>1253.0</ele><time>2026-03-22T09:43:18Z</time></trkpt><trkpt lat="30.76687836770766" lon="-6.858389887221728"><ele>1253.0</ele><time>2026-03-22T09:43:19Z</time></trkpt><trkpt lat="30.76682304767716" lon="-6.858483331386002"><ele>1253.0</ele><time>2026-03-22T09:43:20Z</time></trkpt><trkpt lat="30.76676911994413" lon="-6.858564329058533"><ele>1253.0</ele><time>2026-03-22T09:43:21Z</time></trkpt><trkpt lat="30.766722091188523" lon="-6.858646205911401"><ele>1250.6</ele><time>2026-03-22T09:43:22Z</time></trkpt><trkpt lat="30.766696541697826" lon="-6.858740342909011"><ele>1248.1999999999998</ele><time>2026-03-22T09:43:23Z</time></trkpt><trkpt lat="30.76669188189727" lon="-6.858847980225048"><ele>1245.8</ele><time>2026-03-22T09:43:24Z</time></trkpt><trkpt lat="30.76672424311787" lon="-6.858958860120107"><ele>1243.3999999999999</ele><time>2026-03-22T09:43:25Z</time></trkpt><trkpt lat="30.76677463835979" lon="-6.859044310326176"><ele>1241.0</ele><time>2026-03-22T09:43:26Z</time></trkpt><trkpt lat="30.76683403391993" lon="-6.859111131798939"><ele>1240.8333333333335</ele><time>2026-03-22T09:43:27Z</time></trkpt><trkpt lat="30.766913789757428" lon="-6.85919347051914"><ele>1240.6666666666667</ele><time>2026-03-22T09:43:28Z</time></trkpt><trkpt lat="30.76698568524391" lon="-6.859268266329931"><ele>1240.5</ele><time>2026-03-22T09:43:29Z</time></trkpt><trkpt lat="30.767020563575326" lon="-6.859351050366229"><ele>1240.3333333333333</ele><time>2026-03-22T09:43:30Z</time></trkpt><trkpt lat="30.76701735074703" lon="-6.859431180657478"><ele>1240.1666666666665</ele><time>2026-03-22T09:43:31Z</time></trkpt><trkpt lat="30.766999264977745" lon="-6.859536660465365"><ele>1240.0</ele><time>2026-03-22T09:43:32Z</time></trkpt><trkpt lat="30.766984969799317" lon="-6.859656739098955"><ele>1240.0</ele><time>2026-03-22T09:43:33Z</time></trkpt><trkpt lat="30.766989128015922" lon="-6.859789577073067"><ele>1240.0</ele><time>2026-03-22T09:43:34Z</time></trkpt><trkpt lat="30.767003297453236" lon="-6.859934679985832"><ele>1240.0</ele><time>2026-03-22T09:43:35Z</time></trkpt><trkpt lat="30.767038928937506" lon="-6.860083343457564"><ele>1240.0</ele><time>2026-03-22T09:43:36Z</time></trkpt><trkpt lat="30.76708803673529" lon="-6.860199807426013"><ele>1239.6666666666665</ele><time>2026-03-22T09:43:37Z</time></trkpt><trkpt lat="30.767126098727655" lon="-6.860295573255743"><ele>1239.3333333333333</ele><time>2026-03-22T09:43:38Z</time></trkpt><trkpt lat="30.767147820345475" lon="-6.86037620562448"><ele>1239.0</ele><time>2026-03-22T09:43:39Z</time></trkpt><trkpt lat="30.767137685880265" lon="-6.860458367528492"><ele>1238.6666666666667</ele><time>2026-03-22T09:43:40Z</time></trkpt><trkpt lat="30.767097147761643" lon="-6.860556734822301"><ele>1238.3333333333335</ele><time>2026-03-22T09:43:41Z</time></trkpt><trkpt lat="30.767051229857486" lon="-6.860664714148701"><ele>1238.0</ele><time>2026-03-22T09:43:41.999Z</time></trkpt><trkpt lat="30.766987914944462" lon="-6.860767405027661"><ele>1238.0</ele><time>2026-03-22T09:43:42.999Z</time></trkpt><trkpt lat="30.766923209256163" lon="-6.860861515588214"><ele>1238.0</ele><time>2026-03-22T09:43:44Z</time></trkpt><trkpt lat="30.766845190723387" lon="-6.8609345423476915"><ele>1238.0</ele><time>2026-03-22T09:43:45Z</time></trkpt><trkpt lat="30.76676200067998" lon="-6.860994928911129"><ele>1238.0</ele><time>2026-03-22T09:43:46Z</time></trkpt><trkpt lat="30.766666790282954" lon="-6.861046082757879"><ele>1238.0</ele><time>2026-03-22T09:43:47Z</time></trkpt><trkpt lat="30.76653985401606" lon="-6.86110463390114"><ele>1238.3333333333335</ele><time>2026-03-22T09:43:48Z</time></trkpt><trkpt lat="30.76638798150949" lon="-6.8612094692384735"><ele>1238.6666666666667</ele><time>2026-03-22T09:43:49Z</time></trkpt><trkpt lat="30.76625714935375" lon="-6.861295705309468"><ele>1239.0</ele><time>2026-03-22T09:43:50Z</time></trkpt><trkpt lat="30.766133468043254" lon="-6.8613428962943965"><ele>1239.0</ele><time>2026-03-22T09:43:51Z</time></trkpt><trkpt lat="30.766037740566425" lon="-6.861372070905858"><ele>1239.0</ele><time>2026-03-22T09:43:52Z</time></trkpt><trkpt lat="30.765943780499278" lon="-6.86140107948382"><ele>1239.0</ele><time>2026-03-22T09:43:53Z</time></trkpt><trkpt lat="30.765857672511626" lon="-6.861452383135296"><ele>1239.0</ele><time>2026-03-22T09:43:54Z</time></trkpt><trkpt lat="30.765764199354514" lon="-6.861512262177036"><ele>1239.0</ele><time>2026-03-22T09:43:55Z</time></trkpt><trkpt lat="30.76567092519725" lon="-6.861586956055991"><ele>1239.25</ele><time>2026-03-22T09:43:56Z</time></trkpt><trkpt lat="30.765598596398803" lon="-6.861668703786398"><ele>1239.5</ele><time>2026-03-22T09:43:57Z</time></trkpt><trkpt lat="30.765520676192367" lon="-6.86174038181517"><ele>1239.75</ele><time>2026-03-22T09:43:58Z</time></trkpt><trkpt lat="30.76541705035871" lon="-6.8618005588907485"><ele>1240.0</ele><time>2026-03-22T09:43:59Z</time></trkpt><trkpt lat="30.7652866018912" lon="-6.8618414111677435"><ele>1242.0</ele><time>2026-03-22T09:44:00Z</time></trkpt><trkpt lat="30.765167109110195" lon="-6.861880739151301"><ele>1244.0</ele><time>2026-03-22T09:44:01Z</time></trkpt><trkpt lat="30.765048378618484" lon="-6.861907498155264"><ele>1246.0</ele><time>2026-03-22T09:44:02Z</time></trkpt><trkpt lat="30.764932408486665" lon="-6.861919864637038"><ele>1248.0</ele><time>2026-03-22T09:44:03Z</time></trkpt><trkpt lat="30.76482002198154" lon="-6.861947726429689"><ele>1248.0</ele><time>2026-03-22T09:44:04Z</time></trkpt><trkpt lat="30.76471652583069" lon="-6.861980457939514"><ele>1248.0</ele><time>2026-03-22T09:44:05Z</time></trkpt><trkpt lat="30.764608763478588" lon="-6.861999437084984"><ele>1248.0</ele><time>2026-03-22T09:44:06Z</time></trkpt><trkpt lat="30.76450031913305" lon="-6.862006543814096"><ele>1248.0</ele><time>2026-03-22T09:44:07Z</time></trkpt><trkpt lat="30.764408667545155" lon="-6.862001134309595"><ele>1248.0</ele><time>2026-03-22T09:44:08Z</time></trkpt><trkpt lat="30.764332922539076" lon="-6.86199648486447"><ele>1248.6666666666667</ele><time>2026-03-22T09:44:09Z</time></trkpt><trkpt lat="30.76425262574736" lon="-6.862056027917754"><ele>1249.3333333333333</ele><time>2026-03-22T09:44:11Z</time></trkpt><trkpt lat="30.764229140488574" lon="-6.862132174419097"><ele>1250.0</ele><time>2026-03-22T09:44:12Z</time></trkpt><trkpt lat="30.76421308649783" lon="-6.862212452409951"><ele>1250.6666666666665</ele><time>2026-03-22T09:44:13Z</time></trkpt><trkpt lat="30.7642006200053" lon="-6.862288536825358"><ele>1251.3333333333333</ele><time>2026-03-22T09:44:14Z</time></trkpt><trkpt lat="30.764166951696104" lon="-6.862427096025583"><ele>1252.0</ele><time>2026-03-22T09:44:16Z</time></trkpt><trkpt lat="30.76413947065091" lon="-6.862557221063991"><ele>1253.2</ele><time>2026-03-22T09:44:18Z</time></trkpt><trkpt lat="30.764146875590935" lon="-6.8626714924579835"><ele>1254.4</ele><time>2026-03-22T09:44:20Z</time></trkpt><trkpt lat="30.76417986870339" lon="-6.862788774421315"><ele>1255.6</ele><time>2026-03-22T09:44:22Z</time></trkpt><trkpt lat="30.764261726982333" lon="-6.862894113947223"><ele>1256.8</ele><time>2026-03-22T09:44:24Z</time></trkpt><trkpt lat="30.764330852797837" lon="-6.86293866424374"><ele>1258.0</ele><time>2026-03-22T09:44:25Z</time></trkpt><trkpt lat="30.764394915547992" lon="-6.862975986366986"><ele>1258.0</ele><time>2026-03-22T09:44:26Z</time></trkpt><trkpt lat="30.764474386219618" lon="-6.863065724466297"><ele>1258.0</ele><time>2026-03-22T09:44:28Z</time></trkpt><trkpt lat="30.764509802168778" lon="-6.863133726313691"><ele>1258.0</ele><time>2026-03-22T09:44:29Z</time></trkpt><trkpt lat="30.764557410435874" lon="-6.863224210149176"><ele>1258.0</ele><time>2026-03-22T09:44:30Z</time></trkpt><trkpt lat="30.764604600907564" lon="-6.863299701292161"><ele>1258.0</ele><time>2026-03-22T09:44:31Z</time></trkpt><trkpt lat="30.76465225023363" lon="-6.863378504171494"><ele>1258.0</ele><time>2026-03-22T09:44:32Z</time></trkpt><trkpt lat="30.764692932659862" lon="-6.863463104537454"><ele>1258.3333333333333</ele><time>2026-03-22T09:44:33Z</time></trkpt><trkpt lat="30.764718947220427" lon="-6.863545355017999"><ele>1258.6666666666665</ele><time>2026-03-22T09:44:34Z</time></trkpt><trkpt lat="30.76474937113109" lon="-6.8636338771182395"><ele>1259.0</ele><time>2026-03-22T09:44:35Z</time></trkpt><trkpt lat="30.764783142382896" lon="-6.86371883487754"><ele>1259.3333333333333</ele><time>2026-03-22T09:44:36Z</time></trkpt><trkpt lat="30.764779008328823" lon="-6.863806657441485"><ele>1259.6666666666667</ele><time>2026-03-22T09:44:37Z</time></trkpt><trkpt lat="30.76474464243325" lon="-6.863891863213884"><ele>1260.0</ele><time>2026-03-22T09:44:38Z</time></trkpt><trkpt lat="30.764701843851196" lon="-6.863970947720879"><ele>1260.0</ele><time>2026-03-22T09:44:39Z</time></trkpt><trkpt lat="30.764617109847872" lon="-6.864035221741385"><ele>1260.0</ele><time>2026-03-22T09:44:41Z</time></trkpt><trkpt lat="30.764522590524592" lon="-6.864019971362622"><ele>1260.0</ele><time>2026-03-22T09:44:44Z</time></trkpt><trkpt lat="30.764424676134897" lon="-6.863984393216406"><ele>1260.0</ele><time>2026-03-22T09:44:46Z</time></trkpt><trkpt lat="30.764322081724384" lon="-6.864005699381841"><ele>1260.0</ele><time>2026-03-22T09:44:48Z</time></trkpt><trkpt lat="30.764230562744004" lon="-6.864038388232732"><ele>1260.8333333333333</ele><time>2026-03-22T09:44:49Z</time></trkpt><trkpt lat="30.764163622105155" lon="-6.864067145726914"><ele>1261.6666666666667</ele><time>2026-03-22T09:44:50Z</time></trkpt><trkpt lat="30.764070563490815" lon="-6.864075292212975"><ele>1262.5</ele><time>2026-03-22T09:44:52Z</time></trkpt><trkpt lat="30.76396392326475" lon="-6.864120989488641"><ele>1263.3333333333335</ele><time>2026-03-22T09:44:54Z</time></trkpt><trkpt lat="30.763893810431444" lon="-6.864152980494568"><ele>1264.1666666666667</ele><time>2026-03-22T09:44:55Z</time></trkpt><trkpt lat="30.763835803619454" lon="-6.864189452886127"><ele>1265.0</ele><time>2026-03-22T09:44:56Z</time></trkpt><trkpt lat="30.763776896723833" lon="-6.864230106683752"><ele>1265.0</ele><time>2026-03-22T09:44:57Z</time></trkpt><trkpt lat="30.763700816376826" lon="-6.864255472992567"><ele>1265.0</ele><time>2026-03-22T09:44:58Z</time></trkpt><trkpt lat="30.763636513398033" lon="-6.8642705757222675"><ele>1265.0</ele><time>2026-03-22T09:44:59Z</time></trkpt><trkpt lat="30.763518274268435" lon="-6.864255752004852"><ele>1265.0</ele><time>2026-03-22T09:45:01Z</time></trkpt><trkpt lat="30.763440347254" lon="-6.864241277898497"><ele>1265.0</ele><time>2026-03-22T09:45:02Z</time></trkpt><trkpt lat="30.76334879602151" lon="-6.864222969276172"><ele>1265.0</ele><time>2026-03-22T09:45:03Z</time></trkpt><trkpt lat="30.76325945861589" lon="-6.864197152327559"><ele>1268.0</ele><time>2026-03-22T09:45:04Z</time></trkpt><trkpt lat="30.763132909017425" lon="-6.864165723037578"><ele>1271.0</ele><time>2026-03-22T09:45:05Z</time></trkpt><trkpt lat="30.762982582243364" lon="-6.864153522906082"><ele>1274.0</ele><time>2026-03-22T09:45:06Z</time></trkpt><trkpt lat="30.76278909557891" lon="-6.864158650953715"><ele>1275.6666666666667</ele><time>2026-03-22T09:45:07Z</time></trkpt><trkpt lat="30.76258991565409" lon="-6.864154982377781"><ele>1277.3333333333333</ele><time>2026-03-22T09:45:08Z</time></trkpt><trkpt lat="30.762433998039874" lon="-6.864145151496225"><ele>1279.0</ele><time>2026-03-22T09:45:09Z</time></trkpt><trkpt lat="30.76226530725052" lon="-6.864181951727829"><ele>1279.0</ele><time>2026-03-22T09:45:10Z</time></trkpt><trkpt lat="30.762091229554816" lon="-6.864251333501486"><ele>1279.0</ele><time>2026-03-22T09:45:11Z</time></trkpt><trkpt lat="30.761890821144547" lon="-6.86433543870859"><ele>1279.0</ele><time>2026-03-22T09:45:12Z</time></trkpt><trkpt lat="30.76170588677047" lon="-6.864417662082319"><ele>1277.6666666666665</ele><time>2026-03-22T09:45:13Z</time></trkpt><trkpt lat="30.76158434358255" lon="-6.8645166859412"><ele>1276.3333333333333</ele><time>2026-03-22T09:45:14Z</time></trkpt><trkpt lat="30.761463223843243" lon="-6.864613267376802"><ele>1275.0</ele><time>2026-03-22T09:45:15Z</time></trkpt><trkpt lat="30.761329334953395" lon="-6.864714139259676"><ele>1275.0</ele><time>2026-03-22T09:45:16Z</time></trkpt><trkpt lat="30.761220290626063" lon="-6.864798099417854"><ele>1275.0</ele><time>2026-03-22T09:45:17Z</time></trkpt><trkpt lat="30.76114752607905" lon="-6.864924289200428"><ele>1275.0</ele><time>2026-03-22T09:45:18Z</time></trkpt><trkpt lat="30.76107537207718" lon="-6.8650722718886525"><ele>1275.0</ele><time>2026-03-22T09:45:19Z</time></trkpt><trkpt lat="30.76100263747993" lon="-6.865207535750754"><ele>1273.8</ele><time>2026-03-22T09:45:20Z</time></trkpt><trkpt lat="30.76095375564348" lon="-6.865288768313473"><ele>1272.6</ele><time>2026-03-22T09:45:21Z</time></trkpt><trkpt lat="30.76088791144056" lon="-6.865337549959548"><ele>1271.4</ele><time>2026-03-22T09:45:22Z</time></trkpt><trkpt lat="30.760787269976312" lon="-6.865318149943641"><ele>1270.2</ele><time>2026-03-22T09:45:23Z</time></trkpt><trkpt lat="30.760686618668835" lon="-6.865244153840441"><ele>1269.0</ele><time>2026-03-22T09:45:24Z</time></trkpt><trkpt lat="30.760639280448263" lon="-6.865152074624698"><ele>1270.3333333333333</ele><time>2026-03-22T09:45:25Z</time></trkpt><trkpt lat="30.760620379670495" lon="-6.865040393562695"><ele>1271.6666666666667</ele><time>2026-03-22T09:45:26Z</time></trkpt><trkpt lat="30.760615732882037" lon="-6.864933336834181"><ele>1273.0</ele><time>2026-03-22T09:45:27Z</time></trkpt><trkpt lat="30.760610571334148" lon="-6.864838153402369"><ele>1274.3333333333335</ele><time>2026-03-22T09:45:28Z</time></trkpt><trkpt lat="30.760607251826865" lon="-6.864743739937015"><ele>1275.6666666666667</ele><time>2026-03-22T09:45:29Z</time></trkpt><trkpt lat="30.760596001147867" lon="-6.864641985631754"><ele>1277.0</ele><time>2026-03-22T09:45:30Z</time></trkpt><trkpt lat="30.760584714471822" lon="-6.864556385406675"><ele>1277.0</ele><time>2026-03-22T09:45:31Z</time></trkpt><trkpt lat="30.760499430068066" lon="-6.864490205816252"><ele>1277.0</ele><time>2026-03-22T09:45:33Z</time></trkpt><trkpt lat="30.76036959740789" lon="-6.864549833078302"><ele>1277.0</ele><time>2026-03-22T09:45:35Z</time></trkpt><trkpt lat="30.76031954850693" lon="-6.864631816507291"><ele>1277.0</ele><time>2026-03-22T09:45:36Z</time></trkpt><trkpt lat="30.760250021982674" lon="-6.864720317935373"><ele>1277.0</ele><time>2026-03-22T09:45:37Z</time></trkpt><trkpt lat="30.760170449233197" lon="-6.864798083293017"><ele>1275.6</ele><time>2026-03-22T09:45:38Z</time></trkpt><trkpt lat="30.760082218766012" lon="-6.864860544491496"><ele>1274.2</ele><time>2026-03-22T09:45:39Z</time></trkpt><trkpt lat="30.759988232772475" lon="-6.86490572374148"><ele>1272.8</ele><time>2026-03-22T09:45:40Z</time></trkpt><trkpt lat="30.75989128965795" lon="-6.864935337120375"><ele>1271.4</ele><time>2026-03-22T09:45:41Z</time></trkpt><trkpt lat="30.759795386232852" lon="-6.864947286198478"><ele>1270.0</ele><time>2026-03-22T09:45:42Z</time></trkpt><trkpt lat="30.759704735171532" lon="-6.8649565090255"><ele>1270.0</ele><time>2026-03-22T09:45:43Z</time></trkpt><trkpt lat="30.759613334880378" lon="-6.864979333506422"><ele>1270.0</ele><time>2026-03-22T09:45:44Z</time></trkpt><trkpt lat="30.75955080259007" lon="-6.865010652501157"><ele>1270.0</ele><time>2026-03-22T09:45:44.999Z</time></trkpt><trkpt lat="30.759474443720006" lon="-6.865042170332128"><ele>1270.0</ele><time>2026-03-22T09:45:45.999Z</time></trkpt><trkpt lat="30.75939666276111" lon="-6.8650609261985664"><ele>1270.0</ele><time>2026-03-22T09:45:46.999Z</time></trkpt><trkpt lat="30.759301529939247" lon="-6.865088786676815"><ele>1270.0</ele><time>2026-03-22T09:45:48Z</time></trkpt><trkpt lat="30.759214167489834" lon="-6.865120382916985"><ele>1268.6</ele><time>2026-03-22T09:45:49Z</time></trkpt><trkpt lat="30.759145171801897" lon="-6.865153383796942"><ele>1267.2</ele><time>2026-03-22T09:45:50Z</time></trkpt><trkpt lat="30.759070837651226" lon="-6.8651776446255965"><ele>1265.8</ele><time>2026-03-22T09:45:51Z</time></trkpt><trkpt lat="30.758976803840525" lon="-6.865182602607567"><ele>1264.4</ele><time>2026-03-22T09:45:52Z</time></trkpt><trkpt lat="30.758872641668987" lon="-6.8651796596107975"><ele>1263.0</ele><time>2026-03-22T09:45:53Z</time></trkpt><trkpt lat="30.758760788600863" lon="-6.8651813261275745"><ele>1263.0</ele><time>2026-03-22T09:45:53.999Z</time></trkpt><trkpt lat="30.758646670178422" lon="-6.865188817907507"><ele>1263.0</ele><time>2026-03-22T09:45:54.999Z</time></trkpt><trkpt lat="30.75852070974535" lon="-6.865212451422554"><ele>1263.0</ele><time>2026-03-22T09:45:55.999Z</time></trkpt><trkpt lat="30.7584017129487" lon="-6.865267026794151"><ele>1263.0</ele><time>2026-03-22T09:45:56.999Z</time></trkpt><trkpt lat="30.758292297628035" lon="-6.865318427272575"><ele>1264.6</ele><time>2026-03-22T09:45:57.999Z</time></trkpt><trkpt lat="30.758202268434538" lon="-6.865367804147642"><ele>1266.1999999999998</ele><time>2026-03-22T09:45:58.999Z</time></trkpt><trkpt lat="30.75811574101067" lon="-6.8653990135334215"><ele>1267.8</ele><time>2026-03-22T09:45:59.999Z</time></trkpt><trkpt lat="30.75801244202977" lon="-6.865412142997245"><ele>1269.3999999999999</ele><time>2026-03-22T09:46:00.999Z</time></trkpt><trkpt lat="30.75789960377483" lon="-6.865414919760786"><ele>1271.0</ele><time>2026-03-22T09:46:01.999Z</time></trkpt><trkpt lat="30.75780120941192" lon="-6.865426529552222"><ele>1271.0</ele><time>2026-03-22T09:46:02.999Z</time></trkpt><trkpt lat="30.757727541251132" lon="-6.865427561771037"><ele>1271.0</ele><time>2026-03-22T09:46:03.999Z</time></trkpt><trkpt lat="30.757669736351723" lon="-6.865382972577815"><ele>1271.0</ele><time>2026-03-22T09:46:04.999Z</time></trkpt><trkpt lat="30.75762674567026" lon="-6.865296531921567"><ele>1271.0</ele><time>2026-03-22T09:46:05.999Z</time></trkpt><trkpt lat="30.757589857597228" lon="-6.865208647598153"><ele>1271.0</ele><time>2026-03-22T09:46:06.999Z</time></trkpt><trkpt lat="30.757530461078108" lon="-6.865114723513297"><ele>1271.0</ele><time>2026-03-22T09:46:07.999Z</time></trkpt><trkpt lat="30.757504721488353" lon="-6.865029634651915"><ele>1271.5</ele><time>2026-03-22T09:46:08.999Z</time></trkpt><trkpt lat="30.757491563983944" lon="-6.8648953180522145"><ele>1272.0</ele><time>2026-03-22T09:46:10.999Z</time></trkpt><trkpt lat="30.757423235710178" lon="-6.864855389951531"><ele>1272.5</ele><time>2026-03-22T09:46:12.999Z</time></trkpt><trkpt lat="30.757346048226555" lon="-6.864865978543114"><ele>1273.0</ele><time>2026-03-22T09:46:14.999Z</time></trkpt><trkpt lat="30.757261930583716" lon="-6.86488697477925"><ele>1273.5</ele><time>2026-03-22T09:46:16.999Z</time></trkpt><trkpt lat="30.757190869414337" lon="-6.864939642606602"><ele>1274.0</ele><time>2026-03-22T09:46:18.999Z</time></trkpt><trkpt lat="30.75711324434344" lon="-6.865037215016275"><ele>1274.0</ele><time>2026-03-22T09:46:20.999Z</time></trkpt><trkpt lat="30.757068180318974" lon="-6.865093141276359"><ele>1274.0</ele><time>2026-03-22T09:46:21.999Z</time></trkpt><trkpt lat="30.757003098199817" lon="-6.8651463631529"><ele>1274.0</ele><time>2026-03-22T09:46:22.999Z</time></trkpt><trkpt lat="30.756939009367855" lon="-6.8651925354910155"><ele>1274.0</ele><time>2026-03-22T09:46:23.999Z</time></trkpt><trkpt lat="30.756865247277425" lon="-6.865236544525766"><ele>1274.0</ele><time>2026-03-22T09:46:24.999Z</time></trkpt><trkpt lat="30.756791798292983" lon="-6.865253781099235"><ele>1274.0</ele><time>2026-03-22T09:46:25.999Z</time></trkpt><trkpt lat="30.756717963162874" lon="-6.865244418161779"><ele>1275.8000000000002</ele><time>2026-03-22T09:46:26.999Z</time></trkpt><trkpt lat="30.756631947032318" lon="-6.865215739659805"><ele>1277.6000000000001</ele><time>2026-03-22T09:46:27.999Z</time></trkpt><trkpt lat="30.756553598625604" lon="-6.865193893546312"><ele>1279.4</ele><time>2026-03-22T09:46:28.999Z</time></trkpt><trkpt lat="30.75644908678632" lon="-6.865118171120441"><ele>1281.2</ele><time>2026-03-22T09:46:30.999Z</time></trkpt><trkpt lat="30.75639981928177" lon="-6.865052010821984"><ele>1283.0</ele><time>2026-03-22T09:46:31.999Z</time></trkpt><trkpt lat="30.75632453454105" lon="-6.864963897661652"><ele>1283.0</ele><time>2026-03-22T09:46:32.999Z</time></trkpt><trkpt lat="30.756237514903027" lon="-6.864888072663147"><ele>1283.0</ele><time>2026-03-22T09:46:33.999Z</time></trkpt><trkpt lat="30.756141458077273" lon="-6.864805649388158"><ele>1283.0</ele><time>2026-03-22T09:46:34.999Z</time></trkpt><trkpt lat="30.756063348540994" lon="-6.864734596088363"><ele>1283.0</ele><time>2026-03-22T09:46:35.999Z</time></trkpt><trkpt lat="30.755986777851874" lon="-6.864676796149081"><ele>1283.0</ele><time>2026-03-22T09:46:36.999Z</time></trkpt><trkpt lat="30.755888981588278" lon="-6.864645725068673"><ele>1281.75</ele><time>2026-03-22T09:46:37.999Z</time></trkpt><trkpt lat="30.755769750322838" lon="-6.864643688702452"><ele>1280.5</ele><time>2026-03-22T09:46:38.999Z</time></trkpt><trkpt lat="30.75562875648771" lon="-6.864657172005177"><ele>1279.25</ele><time>2026-03-22T09:46:39.999Z</time></trkpt><trkpt lat="30.75549254642054" lon="-6.864670449873275"><ele>1278.0</ele><time>2026-03-22T09:46:40.999Z</time></trkpt><trkpt lat="30.755360850198226" lon="-6.8646749199390555"><ele>1278.0</ele><time>2026-03-22T09:46:41.999Z</time></trkpt><trkpt lat="30.755248270457642" lon="-6.864664544012686"><ele>1278.0</ele><time>2026-03-22T09:46:42.999Z</time></trkpt><trkpt lat="30.75512369031171" lon="-6.8646236749466425"><ele>1278.0</ele><time>2026-03-22T09:46:43.999Z</time></trkpt><trkpt lat="30.754988993409913" lon="-6.864563213881365"><ele>1278.0</ele><time>2026-03-22T09:46:44.999Z</time></trkpt><trkpt lat="30.754877817506888" lon="-6.86451858539211"><ele>1277.0</ele><time>2026-03-22T09:46:45.999Z</time></trkpt><trkpt lat="30.754780656439486" lon="-6.864493141438644"><ele>1276.0</ele><time>2026-03-22T09:46:46.999Z</time></trkpt><trkpt lat="30.754692328291426" lon="-6.864477594164606"><ele>1275.0</ele><time>2026-03-22T09:46:47.999Z</time></trkpt><trkpt lat="30.754614259654463" lon="-6.8644551204536475"><ele>1274.0</ele><time>2026-03-22T09:46:48.999Z</time></trkpt><trkpt lat="30.754527133042256" lon="-6.864426278015003"><ele>1273.0</ele><time>2026-03-22T09:46:49.999Z</time></trkpt><trkpt lat="30.754415550006232" lon="-6.8643937039405225"><ele>1272.8333333333333</ele><time>2026-03-22T09:46:50.999Z</time></trkpt><trkpt lat="30.754341974656484" lon="-6.864353592026226"><ele>1272.6666666666665</ele><time>2026-03-22T09:46:51.999Z</time></trkpt><trkpt lat="30.754266787631988" lon="-6.864313453532222"><ele>1272.5</ele><time>2026-03-22T09:46:52.999Z</time></trkpt><trkpt lat="30.754188523810686" lon="-6.864276981593793"><ele>1272.3333333333333</ele><time>2026-03-22T09:46:53.999Z</time></trkpt><trkpt lat="30.754124298732155" lon="-6.8642626058095"><ele>1272.1666666666667</ele><time>2026-03-22T09:46:54.999Z</time></trkpt><trkpt lat="30.754050078567968" lon="-6.864268168914768"><ele>1272.0</ele><time>2026-03-22T09:46:55.999Z</time></trkpt><trkpt lat="30.753984850174795" lon="-6.864323495990068"><ele>1272.0</ele><time>2026-03-22T09:46:56.999Z</time></trkpt><trkpt lat="30.753912825385072" lon="-6.864397692685908"><ele>1272.0</ele><time>2026-03-22T09:46:57.999Z</time></trkpt><trkpt lat="30.75383178250322" lon="-6.864444234382595"><ele>1272.0</ele><time>2026-03-22T09:46:58.999Z</time></trkpt><trkpt lat="30.753730225507965" lon="-6.864437160117748"><ele>1272.0</ele><time>2026-03-22T09:47:00.999Z</time></trkpt><trkpt lat="30.753661311879593" lon="-6.864422648197081"><ele>1272.0</ele><time>2026-03-22T09:47:01.999Z</time></trkpt><trkpt lat="30.753570843403864" lon="-6.864389755987083"><ele>1272.6666666666667</ele><time>2026-03-22T09:47:02.999Z</time></trkpt><trkpt lat="30.753476500855157" lon="-6.864341399351117"><ele>1273.3333333333333</ele><time>2026-03-22T09:47:03.999Z</time></trkpt><trkpt lat="30.753422138651995" lon="-6.864296061692949"><ele>1274.0</ele><time>2026-03-22T09:47:04.999Z</time></trkpt><trkpt lat="30.753387559872873" lon="-6.8642321387665195"><ele>1274.6666666666665</ele><time>2026-03-22T09:47:05.999Z</time></trkpt><trkpt lat="30.753353979640927" lon="-6.864118835372949"><ele>1275.3333333333333</ele><time>2026-03-22T09:47:07.999Z</time></trkpt><trkpt lat="30.753293656395893" lon="-6.864035852266888"><ele>1276.0</ele><time>2026-03-22T09:49:09Z</time></trkpt><trkpt lat="30.753262991280316" lon="-6.86395759773009"><ele>1277.1666666666665</ele><time>2026-03-22T09:49:10Z</time></trkpt><trkpt lat="30.753231679604728" lon="-6.863877617708614"><ele>1278.3333333333333</ele><time>2026-03-22T09:49:11Z</time></trkpt><trkpt lat="30.753187097346782" lon="-6.8637900138997425"><ele>1279.5</ele><time>2026-03-22T09:49:12Z</time></trkpt><trkpt lat="30.753133510822593" lon="-6.863694946226306"><ele>1280.6666666666667</ele><time>2026-03-22T09:49:13Z</time></trkpt><trkpt lat="30.753086140819292" lon="-6.863609399888651"><ele>1281.8333333333335</ele><time>2026-03-22T09:49:14Z</time></trkpt><trkpt lat="30.75304648973057" lon="-6.863538256381859"><ele>1283.0</ele><time>2026-03-22T09:49:15Z</time></trkpt><trkpt lat="30.753008341505723" lon="-6.86347009460328"><ele>1283.0</ele><time>2026-03-22T09:49:16Z</time></trkpt><trkpt lat="30.75297726329856" lon="-6.863399567995161"><ele>1283.0</ele><time>2026-03-22T09:49:17Z</time></trkpt><trkpt lat="30.752941220909886" lon="-6.863320957891935"><ele>1283.0</ele><time>2026-03-22T09:49:18Z</time></trkpt><trkpt lat="30.75289854746852" lon="-6.863242451397782"><ele>1283.0</ele><time>2026-03-22T09:49:19Z</time></trkpt><trkpt lat="30.752859331928747" lon="-6.863147593302165"><ele>1283.0</ele><time>2026-03-22T09:49:20Z</time></trkpt><trkpt lat="30.75278807784007" lon="-6.863032836201369"><ele>1283.0</ele><time>2026-03-22T09:49:21Z</time></trkpt><trkpt lat="30.75268755027551" lon="-6.862891647207591"><ele>1282.6666666666667</ele><time>2026-03-22T09:49:22Z</time></trkpt><trkpt lat="30.75258169570348" lon="-6.862735551163865"><ele>1282.3333333333333</ele><time>2026-03-22T09:49:23Z</time></trkpt><trkpt lat="30.752481771830766" lon="-6.862587191074879"><ele>1282.0</ele><time>2026-03-22T09:49:24Z</time></trkpt><trkpt lat="30.752413559493053" lon="-6.862474134264154"><ele>1281.6</ele><time>2026-03-22T09:49:25Z</time></trkpt><trkpt lat="30.75237378708931" lon="-6.862379301213421"><ele>1281.1999999999998</ele><time>2026-03-22T09:49:26Z</time></trkpt><trkpt lat="30.752369126052614" lon="-6.862263040654931"><ele>1280.8</ele><time>2026-03-22T09:49:27Z</time></trkpt><trkpt lat="30.75236592845573" lon="-6.862120341070215"><ele>1280.4</ele><time>2026-03-22T09:49:28Z</time></trkpt><trkpt lat="30.7523207947219" lon="-6.861977263942428"><ele>1280.0</ele><time>2026-03-22T09:49:29Z</time></trkpt><trkpt lat="30.752257317223915" lon="-6.86184962232059"><ele>1279.25</ele><time>2026-03-22T09:49:30Z</time></trkpt><trkpt lat="30.75219708939363" lon="-6.861708312448479"><ele>1278.5</ele><time>2026-03-22T09:49:31Z</time></trkpt><trkpt lat="30.752140105033433" lon="-6.861568903261133"><ele>1277.75</ele><time>2026-03-22T09:49:32Z</time></trkpt><trkpt lat="30.75208985679133" lon="-6.8614582445874355"><ele>1277.0</ele><time>2026-03-22T09:49:33Z</time></trkpt><trkpt lat="30.75202586257204" lon="-6.861363736701272"><ele>1277.0</ele><time>2026-03-22T09:49:34Z</time></trkpt><trkpt lat="30.751957867557394" lon="-6.8613270370300254"><ele>1277.0</ele><time>2026-03-22T09:49:35Z</time></trkpt><trkpt lat="30.751884976245762" lon="-6.861359321695591"><ele>1277.0</ele><time>2026-03-22T09:49:36Z</time></trkpt><trkpt lat="30.751798640691856" lon="-6.861436224242432"><ele>1277.0</ele><time>2026-03-22T09:49:37Z</time></trkpt><trkpt lat="30.751682694862" lon="-6.861555192915736"><ele>1277.0</ele><time>2026-03-22T09:49:38Z</time></trkpt><trkpt lat="30.751561689707554" lon="-6.86171025867315"><ele>1277.3333333333335</ele><time>2026-03-22T09:49:39Z</time></trkpt><trkpt lat="30.75144475854149" lon="-6.861844518848033"><ele>1277.6666666666667</ele><time>2026-03-22T09:49:40Z</time></trkpt><trkpt lat="30.751345103058" lon="-6.861959696064091"><ele>1278.0</ele><time>2026-03-22T09:49:41Z</time></trkpt><trkpt lat="30.75122641379309" lon="-6.862087694740126"><ele>1278.0</ele><time>2026-03-22T09:49:42Z</time></trkpt><trkpt lat="30.751085104863034" lon="-6.862197967785342"><ele>1278.0</ele><time>2026-03-22T09:49:43Z</time></trkpt><trkpt lat="30.750953691418765" lon="-6.862296673847018"><ele>1278.0</ele><time>2026-03-22T09:49:44Z</time></trkpt><trkpt lat="30.750840309092624" lon="-6.862346862484523"><ele>1278.0</ele><time>2026-03-22T09:49:45Z</time></trkpt><trkpt lat="30.750762285148845" lon="-6.862399730749338"><ele>1278.0</ele><time>2026-03-22T09:49:46Z</time></trkpt><trkpt lat="30.750714676189826" lon="-6.862502407144689"><ele>1278.0</ele><time>2026-03-22T09:49:47Z</time></trkpt><trkpt lat="30.750651150538445" lon="-6.862633087192038"><ele>1278.0</ele><time>2026-03-22T09:49:48Z</time></trkpt><trkpt lat="30.75057778118057" lon="-6.862757131873692"><ele>1278.0</ele><time>2026-03-22T09:49:49Z</time></trkpt><trkpt lat="30.750489807710704" lon="-6.862881521499887"><ele>1278.5</ele><time>2026-03-22T09:49:50Z</time></trkpt><trkpt lat="30.750384807639854" lon="-6.863019032026327"><ele>1279.0</ele><time>2026-03-22T09:49:51Z</time></trkpt><trkpt lat="30.750279073389823" lon="-6.86313742192415"><ele>1279.5</ele><time>2026-03-22T09:49:52Z</time></trkpt><trkpt lat="30.750181281490683" lon="-6.863230863324841"><ele>1280.0</ele><time>2026-03-22T09:49:53Z</time></trkpt><trkpt lat="30.75008052438245" lon="-6.863321601190805"><ele>1280.0</ele><time>2026-03-22T09:49:53.999Z</time></trkpt><trkpt lat="30.749975668097314" lon="-6.863405829278197"><ele>1280.0</ele><time>2026-03-22T09:49:54.999Z</time></trkpt><trkpt lat="30.74987378711667" lon="-6.863464237188459"><ele>1280.0</ele><time>2026-03-22T09:49:56Z</time></trkpt><trkpt lat="30.749774676120012" lon="-6.8635288954856275"><ele>1280.0</ele><time>2026-03-22T09:49:56.999Z</time></trkpt><trkpt lat="30.749669228580768" lon="-6.863613059625834"><ele>1281.0</ele><time>2026-03-22T09:49:57.999Z</time></trkpt><trkpt lat="30.74956091912018" lon="-6.863736133565122"><ele>1282.0</ele><time>2026-03-22T09:49:59Z</time></trkpt><trkpt lat="30.749434288772306" lon="-6.863852930299626"><ele>1283.0</ele><time>2026-03-22T09:50:00Z</time></trkpt><trkpt lat="30.74932777018036" lon="-6.863951755224445"><ele>1284.0</ele><time>2026-03-22T09:50:01Z</time></trkpt><trkpt lat="30.749247731375256" lon="-6.864086405687716"><ele>1284.0</ele><time>2026-03-22T09:50:02Z</time></trkpt><trkpt lat="30.749173955148766" lon="-6.864244298794651"><ele>1284.0</ele><time>2026-03-22T09:50:03Z</time></trkpt><trkpt lat="30.74909534196792" lon="-6.864400861353705"><ele>1284.0</ele><time>2026-03-22T09:50:04Z</time></trkpt><trkpt lat="30.748991172721354" lon="-6.864521010553548"><ele>1284.6666666666667</ele><time>2026-03-22T09:50:05Z</time></trkpt><trkpt lat="30.748867779592665" lon="-6.864619541284936"><ele>1285.3333333333335</ele><time>2026-03-22T09:50:06Z</time></trkpt><trkpt lat="30.74875381204853" lon="-6.864742163263509"><ele>1286.0</ele><time>2026-03-22T09:50:07Z</time></trkpt><trkpt lat="30.74864633344621" lon="-6.864928936180522"><ele>1284.6666666666667</ele><time>2026-03-22T09:50:08Z</time></trkpt><trkpt lat="30.748515013843168" lon="-6.865141689653565"><ele>1283.3333333333333</ele><time>2026-03-22T09:50:09Z</time></trkpt><trkpt lat="30.748419558161704" lon="-6.865334071643124"><ele>1282.0</ele><time>2026-03-22T09:50:10Z</time></trkpt><trkpt lat="30.748342737427954" lon="-6.865495345499467"><ele>1282.0</ele><time>2026-03-22T09:50:11Z</time></trkpt><trkpt lat="30.7482686344198" lon="-6.865615480836487"><ele>1282.0</ele><time>2026-03-22T09:50:12Z</time></trkpt><trkpt lat="30.748176900406108" lon="-6.865724502103533"><ele>1282.0</ele><time>2026-03-22T09:50:13Z</time></trkpt><trkpt lat="30.748089383164544" lon="-6.865862046617389"><ele>1282.0</ele><time>2026-03-22T09:50:14Z</time></trkpt><trkpt lat="30.748011309660686" lon="-6.865997100400451"><ele>1281.3333333333333</ele><time>2026-03-22T09:50:15Z</time></trkpt><trkpt lat="30.74791302347755" lon="-6.8661470154233175"><ele>1280.6666666666667</ele><time>2026-03-22T09:50:16Z</time></trkpt><trkpt lat="30.747795758952964" lon="-6.866299376958425"><ele>1280.0</ele><time>2026-03-22T09:50:17Z</time></trkpt><trkpt lat="30.747657824832856" lon="-6.86642943089437"><ele>1280.0</ele><time>2026-03-22T09:50:18Z</time></trkpt><trkpt lat="30.747546240157405" lon="-6.866545443249313"><ele>1280.0</ele><time>2026-03-22T09:50:19Z</time></trkpt><trkpt lat="30.74743889819476" lon="-6.866638515733285"><ele>1280.0</ele><time>2026-03-22T09:50:20Z</time></trkpt><trkpt lat="30.747334692364255" lon="-6.866733651908121"><ele>1280.0</ele><time>2026-03-22T09:50:21Z</time></trkpt><trkpt lat="30.747222947778052" lon="-6.866815072222008"><ele>1279.5</ele><time>2026-03-22T09:50:22Z</time></trkpt><trkpt lat="30.74710600559582" lon="-6.8668528844252155"><ele>1279.0</ele><time>2026-03-22T09:50:23Z</time></trkpt><trkpt lat="30.74699882244624" lon="-6.866909359289544"><ele>1278.5</ele><time>2026-03-22T09:50:24Z</time></trkpt><trkpt lat="30.74688277262696" lon="-6.866996474288931"><ele>1278.0</ele><time>2026-03-22T09:50:25Z</time></trkpt><trkpt lat="30.746774405002032" lon="-6.8670949992895345"><ele>1278.0</ele><time>2026-03-22T09:50:26Z</time></trkpt><trkpt lat="30.746645982772293" lon="-6.867179879904011"><ele>1278.0</ele><time>2026-03-22T09:50:27Z</time></trkpt><trkpt lat="30.74650480530628" lon="-6.867245093661181"><ele>1278.0</ele><time>2026-03-22T09:50:28Z</time></trkpt><trkpt lat="30.74636367131412" lon="-6.867306045823048"><ele>1278.0</ele><time>2026-03-22T09:50:29Z</time></trkpt><trkpt lat="30.74622773429667" lon="-6.867365609327278"><ele>1278.0</ele><time>2026-03-22T09:50:30Z</time></trkpt><trkpt lat="30.746095068975805" lon="-6.867440546583994"><ele>1278.0</ele><time>2026-03-22T09:50:31Z</time></trkpt><trkpt lat="30.74595423775177" lon="-6.8675220659057326"><ele>1277.75</ele><time>2026-03-22T09:50:32Z</time></trkpt><trkpt lat="30.7458249070345" lon="-6.8675999478167125"><ele>1277.5</ele><time>2026-03-22T09:50:33Z</time></trkpt><trkpt lat="30.74570662577678" lon="-6.867670557412216"><ele>1277.25</ele><time>2026-03-22T09:50:34Z</time></trkpt><trkpt lat="30.745600363871883" lon="-6.867712384467805"><ele>1277.0</ele><time>2026-03-22T09:50:35Z</time></trkpt><trkpt lat="30.74548593501662" lon="-6.8676929356764775"><ele>1277.0</ele><time>2026-03-22T09:50:36Z</time></trkpt><trkpt lat="30.74533961957001" lon="-6.867662887394249"><ele>1277.0</ele><time>2026-03-22T09:50:37Z</time></trkpt><trkpt lat="30.74518489614061" lon="-6.867660759981922"><ele>1277.0</ele><time>2026-03-22T09:50:38Z</time></trkpt><trkpt lat="30.745044008482022" lon="-6.867679257298201"><ele>1277.0</ele><time>2026-03-22T09:50:39Z</time></trkpt><trkpt lat="30.744922384263116" lon="-6.867735422269285"><ele>1274.3333333333335</ele><time>2026-03-22T09:50:40Z</time></trkpt><trkpt lat="30.744805579061772" lon="-6.867822093585189"><ele>1271.6666666666667</ele><time>2026-03-22T09:50:41Z</time></trkpt><trkpt lat="30.744696177299815" lon="-6.867960271423156"><ele>1269.0</ele><time>2026-03-22T09:50:42Z</time></trkpt><trkpt lat="30.744553433232575" lon="-6.868086475338754"><ele>1269.0</ele><time>2026-03-22T09:50:43Z</time></trkpt><trkpt lat="30.744409385792633" lon="-6.868196174544772"><ele>1269.0</ele><time>2026-03-22T09:50:44Z</time></trkpt><trkpt lat="30.74426766135593" lon="-6.868280337023228"><ele>1269.0</ele><time>2026-03-22T09:50:45Z</time></trkpt><trkpt lat="30.74415472409369" lon="-6.8684107999231365"><ele>1268.5</ele><time>2026-03-22T09:50:46Z</time></trkpt><trkpt lat="30.74405214874041" lon="-6.868551088638401"><ele>1268.0</ele><time>2026-03-22T09:50:47Z</time></trkpt><trkpt lat="30.743962669313326" lon="-6.868669615005205"><ele>1267.5</ele><time>2026-03-22T09:50:48Z</time></trkpt><trkpt lat="30.743900399769977" lon="-6.8687880269969135"><ele>1267.0</ele><time>2026-03-22T09:50:49Z</time></trkpt><trkpt lat="30.743840891479525" lon="-6.86893170017475"><ele>1267.0</ele><time>2026-03-22T09:50:50Z</time></trkpt><trkpt lat="30.743781113329618" lon="-6.869067258782739"><ele>1267.0</ele><time>2026-03-22T09:50:51Z</time></trkpt><trkpt lat="30.74371717698922" lon="-6.869165960266182"><ele>1267.0</ele><time>2026-03-22T09:50:52Z</time></trkpt><trkpt lat="30.743646898015935" lon="-6.869233480294602"><ele>1267.0</ele><time>2026-03-22T09:50:53Z</time></trkpt><trkpt lat="30.74353224571153" lon="-6.869287491961017"><ele>1267.5</ele><time>2026-03-22T09:50:54Z</time></trkpt><trkpt lat="30.743433350344272" lon="-6.869360380200612"><ele>1268.0</ele><time>2026-03-22T09:50:55Z</time></trkpt><trkpt lat="30.743376495110333" lon="-6.869474231234562"><ele>1268.5</ele><time>2026-03-22T09:50:56Z</time></trkpt><trkpt lat="30.743346283014038" lon="-6.869604663530239"><ele>1269.0</ele><time>2026-03-22T09:50:57Z</time></trkpt><trkpt lat="30.743321680932436" lon="-6.869759258589253"><ele>1269.0</ele><time>2026-03-22T09:50:58Z</time></trkpt><trkpt lat="30.74328499693356" lon="-6.869880795521751"><ele>1269.0</ele><time>2026-03-22T09:50:59Z</time></trkpt><trkpt lat="30.743235722909503" lon="-6.869961716475193"><ele>1269.0</ele><time>2026-03-22T09:51:00Z</time></trkpt><trkpt lat="30.743159423472083" lon="-6.870018617795566"><ele>1269.0</ele><time>2026-03-22T09:51:01Z</time></trkpt><trkpt lat="30.7430486615211" lon="-6.870067923378723"><ele>1269.0</ele><time>2026-03-22T09:51:02Z</time></trkpt><trkpt lat="30.74292269694476" lon="-6.87007351524287"><ele>1269.0</ele><time>2026-03-22T09:51:03Z</time></trkpt><trkpt lat="30.742808879953497" lon="-6.870066817815229"><ele>1269.0</ele><time>2026-03-22T09:51:04Z</time></trkpt><trkpt lat="30.74271842570646" lon="-6.870032390502151"><ele>1269.0</ele><time>2026-03-22T09:51:05Z</time></trkpt><trkpt lat="30.74261686523322" lon="-6.869961668968649"><ele>1269.0</ele><time>2026-03-22T09:51:07Z</time></trkpt><trkpt lat="30.742528716470307" lon="-6.869988228719116"><ele>1269.0</ele><time>2026-03-22T09:51:09Z</time></trkpt><trkpt lat="30.742477959444198" lon="-6.870049456961427"><ele>1269.8333333333333</ele><time>2026-03-22T09:51:11Z</time></trkpt><trkpt lat="30.742410934495613" lon="-6.870105755438727"><ele>1270.6666666666667</ele><time>2026-03-22T09:53:20.999Z</time></trkpt><trkpt lat="30.742364127523665" lon="-6.870198309262249"><ele>1271.5</ele><time>2026-03-22T09:53:26.999Z</time></trkpt><trkpt lat="30.742312920272987" lon="-6.870276553770995"><ele>1272.3333333333335</ele><time>2026-03-22T09:53:28.999Z</time></trkpt><trkpt lat="30.74228077357281" lon="-6.870343838179448"><ele>1273.1666666666667</ele><time>2026-03-22T09:53:29.999Z</time></trkpt><trkpt lat="30.7422149868512" lon="-6.870464736729158"><ele>1274.0</ele><time>2026-03-22T09:53:31.999Z</time></trkpt><trkpt lat="30.74216460590634" lon="-6.870527905006976"><ele>1275.4</ele><time>2026-03-22T09:53:32.999Z</time></trkpt><trkpt lat="30.74209887572274" lon="-6.8705872707665065"><ele>1276.8000000000002</ele><time>2026-03-22T09:53:33.999Z</time></trkpt><trkpt lat="30.74201709691799" lon="-6.87062166898274"><ele>1278.1999999999998</ele><time>2026-03-22T09:53:34.999Z</time></trkpt><trkpt lat="30.741906902413348" lon="-6.8706079407975595"><ele>1279.6</ele><time>2026-03-22T09:53:35.999Z</time></trkpt><trkpt lat="30.741784894219816" lon="-6.87058661748207"><ele>1281.0</ele><time>2026-03-22T09:53:36.999Z</time></trkpt><trkpt lat="30.741661077271576" lon="-6.870589530148492"><ele>1281.6</ele><time>2026-03-22T09:53:37.999Z</time></trkpt><trkpt lat="30.74155258430285" lon="-6.870597513511939"><ele>1282.1999999999998</ele><time>2026-03-22T09:53:38.999Z</time></trkpt><trkpt lat="30.741457803717875" lon="-6.870623555421892"><ele>1282.8000000000002</ele><time>2026-03-22T09:53:39.999Z</time></trkpt><trkpt lat="30.74136637359127" lon="-6.870677774081837"><ele>1283.4</ele><time>2026-03-22T09:53:40.999Z</time></trkpt><trkpt lat="30.741274212321485" lon="-6.870740562730622"><ele>1284.0</ele><time>2026-03-22T09:53:41.999Z</time></trkpt><trkpt lat="30.741182638063727" lon="-6.870792366802066"><ele>1284.0</ele><time>2026-03-22T09:53:42.999Z</time></trkpt><trkpt lat="30.741111124209173" lon="-6.870845723525284"><ele>1284.0</ele><time>2026-03-22T09:53:43.999Z</time></trkpt><trkpt lat="30.74103418301062" lon="-6.870927688548559"><ele>1284.0</ele><time>2026-03-22T09:53:44.999Z</time></trkpt><trkpt lat="30.74094146834739" lon="-6.871005269324761"><ele>1284.0</ele><time>2026-03-22T09:53:45.999Z</time></trkpt><trkpt lat="30.74084297847761" lon="-6.871048852144247"><ele>1284.0</ele><time>2026-03-22T09:53:46.999Z</time></trkpt><trkpt lat="30.740761825247993" lon="-6.871084096945326"><ele>1286.2</ele><time>2026-03-22T09:53:47.999Z</time></trkpt><trkpt lat="30.740672698964136" lon="-6.871163842895082"><ele>1288.4</ele><time>2026-03-22T09:53:48.999Z</time></trkpt><trkpt lat="30.740563169129548" lon="-6.871234706653949"><ele>1290.6</ele><time>2026-03-22T09:53:49.999Z</time></trkpt><trkpt lat="30.740472074217028" lon="-6.871285168598336"><ele>1292.8</ele><time>2026-03-22T09:53:50.999Z</time></trkpt><trkpt lat="30.74040207729133" lon="-6.871353143691875"><ele>1295.0</ele><time>2026-03-22T09:53:51.999Z</time></trkpt><trkpt lat="30.740340847149586" lon="-6.871474167032503"><ele>1295.0</ele><time>2026-03-22T09:53:52.999Z</time></trkpt><trkpt lat="30.74028923049079" lon="-6.871604304112458"><ele>1295.0</ele><time>2026-03-22T09:53:53.999Z</time></trkpt><trkpt lat="30.740252505217168" lon="-6.871758567652026"><ele>1295.0</ele><time>2026-03-22T09:53:54.999Z</time></trkpt><trkpt lat="30.740222359065047" lon="-6.871877539655965"><ele>1295.0</ele><time>2026-03-22T09:53:55.999Z</time></trkpt><trkpt lat="30.74016857978609" lon="-6.871978203234326"><ele>1294.75</ele><time>2026-03-22T09:53:56.999Z</time></trkpt><trkpt lat="30.740089457595797" lon="-6.872094324511765"><ele>1294.5</ele><time>2026-03-22T09:53:57.999Z</time></trkpt><trkpt lat="30.740039586928802" lon="-6.8722553813606195"><ele>1294.25</ele><time>2026-03-22T09:53:58.999Z</time></trkpt><trkpt lat="30.739999030608665" lon="-6.872430808663393"><ele>1294.0</ele><time>2026-03-22T09:53:59.999Z</time></trkpt><trkpt lat="30.739952279051458" lon="-6.872571864094471"><ele>1295.0</ele><time>2026-03-22T09:54:00.999Z</time></trkpt><trkpt lat="30.739896829863277" lon="-6.872667848595551"><ele>1296.0</ele><time>2026-03-22T09:54:01.999Z</time></trkpt><trkpt lat="30.739831737255784" lon="-6.872762789717922"><ele>1297.0</ele><time>2026-03-22T09:54:02.999Z</time></trkpt><trkpt lat="30.73978115483982" lon="-6.872858851250715"><ele>1298.0</ele><time>2026-03-22T09:54:03.999Z</time></trkpt><trkpt lat="30.739744154798412" lon="-6.872967454234974"><ele>1299.0</ele><time>2026-03-22T09:54:04.999Z</time></trkpt><trkpt lat="30.739719164592973" lon="-6.873082856969829"><ele>1299.0</ele><time>2026-03-22T09:54:06Z</time></trkpt><trkpt lat="30.73970797674083" lon="-6.873197506075098"><ele>1299.0</ele><time>2026-03-22T09:54:07Z</time></trkpt><trkpt lat="30.73970892251413" lon="-6.873311805571542"><ele>1299.0</ele><time>2026-03-22T09:54:07.999Z</time></trkpt><trkpt lat="30.739715379029597" lon="-6.873417989292501"><ele>1299.0</ele><time>2026-03-22T09:54:08.999Z</time></trkpt><trkpt lat="30.739733827891" lon="-6.873517835310425"><ele>1299.0</ele><time>2026-03-22T09:54:09.999Z</time></trkpt><trkpt lat="30.73975133556968" lon="-6.873628059749118"><ele>1299.6</ele><time>2026-03-22T09:54:11Z</time></trkpt><trkpt lat="30.739769937822633" lon="-6.873738163728643"><ele>1300.2</ele><time>2026-03-22T09:54:11.999Z</time></trkpt><trkpt lat="30.73979506521232" lon="-6.873849567234363"><ele>1300.8</ele><time>2026-03-22T09:54:12.999Z</time></trkpt><trkpt lat="30.739825677191856" lon="-6.873972815442461"><ele>1301.3999999999999</ele><time>2026-03-22T09:54:13.999Z</time></trkpt><trkpt lat="30.739862999404494" lon="-6.874099330916809"><ele>1302.0</ele><time>2026-03-22T09:54:15Z</time></trkpt><trkpt lat="30.73990716712589" lon="-6.874222244793841"><ele>1302.6666666666667</ele><time>2026-03-22T09:54:16Z</time></trkpt><trkpt lat="30.739935251047008" lon="-6.874331995913449"><ele>1303.3333333333333</ele><time>2026-03-22T09:54:16.999Z</time></trkpt><trkpt lat="30.739949665204513" lon="-6.874418758062148"><ele>1304.0</ele><time>2026-03-22T09:54:18Z</time></trkpt><trkpt lat="30.73995573461637" lon="-6.874506763179861"><ele>1304.6666666666665</ele><time>2026-03-22T09:54:19Z</time></trkpt><trkpt lat="30.73995248399178" lon="-6.874593209856519"><ele>1305.3333333333333</ele><time>2026-03-22T09:54:20Z</time></trkpt><trkpt lat="30.73995022027113" lon="-6.874673274629761"><ele>1306.0</ele><time>2026-03-22T09:54:21Z</time></trkpt><trkpt lat="30.73995284305808" lon="-6.874760541809844"><ele>1306.0</ele><time>2026-03-22T09:54:22Z</time></trkpt><trkpt lat="30.73995454104562" lon="-6.874847400004522"><ele>1306.0</ele><time>2026-03-22T09:54:23Z</time></trkpt><trkpt lat="30.73996518201619" lon="-6.874946348158341"><ele>1306.0</ele><time>2026-03-22T09:54:24Z</time></trkpt><trkpt lat="30.739970937483317" lon="-6.875056244014226"><ele>1306.0</ele><time>2026-03-22T09:54:25Z</time></trkpt><trkpt lat="30.73996407563553" lon="-6.875171519218653"><ele>1306.0</ele><time>2026-03-22T09:54:26Z</time></trkpt><trkpt lat="30.739932784805088" lon="-6.875295698752534"><ele>1306.4</ele><time>2026-03-22T09:54:27Z</time></trkpt><trkpt lat="30.739876154411885" lon="-6.875412797792414"><ele>1306.8</ele><time>2026-03-22T09:54:28Z</time></trkpt><trkpt lat="30.73981094320098" lon="-6.875503048940348"><ele>1307.2</ele><time>2026-03-22T09:54:29Z</time></trkpt><trkpt lat="30.739715793032573" lon="-6.8755766492143575"><ele>1307.6000000000001</ele><time>2026-03-22T09:54:30Z</time></trkpt><trkpt lat="30.739629830428203" lon="-6.875623789823086"><ele>1308.0</ele><time>2026-03-22T09:54:31Z</time></trkpt><trkpt lat="30.739542737966552" lon="-6.875672703397304"><ele>1308.0</ele><time>2026-03-22T09:54:32Z</time></trkpt><trkpt lat="30.73945062529488" lon="-6.875712745957952"><ele>1308.0</ele><time>2026-03-22T09:54:33Z</time></trkpt><trkpt lat="30.739356000760814" lon="-6.875745011780557"><ele>1308.0</ele><time>2026-03-22T09:54:34Z</time></trkpt><trkpt lat="30.73926731062615" lon="-6.875749705404288"><ele>1308.0</ele><time>2026-03-22T09:54:35Z</time></trkpt><trkpt lat="30.739177343824228" lon="-6.87573522486426"><ele>1308.0</ele><time>2026-03-22T09:54:36Z</time></trkpt><trkpt lat="30.739093846123016" lon="-6.875728447604737"><ele>1307.8000000000002</ele><time>2026-03-22T09:54:37Z</time></trkpt><trkpt lat="30.739001054525918" lon="-6.875738314599252"><ele>1307.6</ele><time>2026-03-22T09:54:38Z</time></trkpt><trkpt lat="30.738911285849838" lon="-6.875775958060346"><ele>1307.4</ele><time>2026-03-22T09:54:39Z</time></trkpt><trkpt lat="30.73882348338926" lon="-6.8758457058974445"><ele>1307.1999999999998</ele><time>2026-03-22T09:54:40Z</time></trkpt><trkpt lat="30.738718511265503" lon="-6.875911644520653"><ele>1307.0</ele><time>2026-03-22T09:54:41Z</time></trkpt><trkpt lat="30.73857362782121" lon="-6.875961866093622"><ele>1304.0</ele><time>2026-03-22T09:54:42Z</time></trkpt><trkpt lat="30.73843400447363" lon="-6.876014469923243"><ele>1301.0</ele><time>2026-03-22T09:54:43Z</time></trkpt><trkpt lat="30.738317557253612" lon="-6.876064227267708"><ele>1298.0</ele><time>2026-03-22T09:54:44Z</time></trkpt><trkpt lat="30.73822150717194" lon="-6.876101103107452"><ele>1295.0</ele><time>2026-03-22T09:54:45Z</time></trkpt><trkpt lat="30.738135501425457" lon="-6.876123833563238"><ele>1295.0</ele><time>2026-03-22T09:54:46Z</time></trkpt><trkpt lat="30.738031904540716" lon="-6.876133804097755"><ele>1295.0</ele><time>2026-03-22T09:54:47Z</time></trkpt><trkpt lat="30.73792747966076" lon="-6.876124288232965"><ele>1295.0</ele><time>2026-03-22T09:54:48Z</time></trkpt><trkpt lat="30.73782778575904" lon="-6.876088989456747"><ele>1295.0</ele><time>2026-03-22T09:54:49Z</time></trkpt><trkpt lat="30.737719367081247" lon="-6.876047513261676"><ele>1295.0</ele><time>2026-03-22T09:54:50Z</time></trkpt><trkpt lat="30.737602212050444" lon="-6.8760138837860705"><ele>1294.5</ele><time>2026-03-22T09:54:51Z</time></trkpt><trkpt lat="30.737490060189174" lon="-6.8759798783851975"><ele>1294.0</ele><time>2026-03-22T09:54:52Z</time></trkpt><trkpt lat="30.737373509424465" lon="-6.875947874242335"><ele>1293.5</ele><time>2026-03-22T09:54:53Z</time></trkpt><trkpt lat="30.737251196643378" lon="-6.875913278242408"><ele>1293.0</ele><time>2026-03-22T09:54:54Z</time></trkpt><trkpt lat="30.737132405739352" lon="-6.875868903491886"><ele>1294.6000000000001</ele><time>2026-03-22T09:54:55Z</time></trkpt><trkpt lat="30.737022467809446" lon="-6.875844300138312"><ele>1296.2</ele><time>2026-03-22T09:54:56Z</time></trkpt><trkpt lat="30.7369089513497" lon="-6.875818966055062"><ele>1297.8</ele><time>2026-03-22T09:54:57Z</time></trkpt><trkpt lat="30.736802433256955" lon="-6.8757744496420035"><ele>1299.4</ele><time>2026-03-22T09:54:58Z</time></trkpt><trkpt lat="30.736703874411745" lon="-6.875726430036524"><ele>1301.0</ele><time>2026-03-22T09:54:59Z</time></trkpt><trkpt lat="30.736586953495355" lon="-6.875691415400558"><ele>1301.0</ele><time>2026-03-22T09:55:00Z</time></trkpt><trkpt lat="30.736460443474268" lon="-6.875650393405744"><ele>1301.0</ele><time>2026-03-22T09:55:01Z</time></trkpt><trkpt lat="30.736331267551446" lon="-6.875624138943447"><ele>1301.0</ele><time>2026-03-22T09:55:02Z</time></trkpt><trkpt lat="30.736219171463095" lon="-6.875617958836836"><ele>1301.0</ele><time>2026-03-22T09:55:03Z</time></trkpt><trkpt lat="30.73610268348867" lon="-6.87561258412233"><ele>1300.4</ele><time>2026-03-22T09:55:04Z</time></trkpt><trkpt lat="30.73599849733373" lon="-6.875589608957748"><ele>1299.8</ele><time>2026-03-22T09:55:05Z</time></trkpt><trkpt lat="30.73588629907591" lon="-6.8755555714184595"><ele>1299.2</ele><time>2026-03-22T09:55:06Z</time></trkpt><trkpt lat="30.73577001463976" lon="-6.8755343806999045"><ele>1298.6000000000001</ele><time>2026-03-22T09:55:07Z</time></trkpt><trkpt lat="30.73568288631844" lon="-6.875525818424359"><ele>1298.0</ele><time>2026-03-22T09:55:08Z</time></trkpt><trkpt lat="30.73561064167051" lon="-6.875515406936758"><ele>1298.0</ele><time>2026-03-22T09:55:09Z</time></trkpt><trkpt lat="30.73554215268368" lon="-6.875488285378621"><ele>1298.0</ele><time>2026-03-22T09:55:10Z</time></trkpt><trkpt lat="30.735464845068226" lon="-6.875431196103055"><ele>1298.0</ele><time>2026-03-22T09:55:11Z</time></trkpt><trkpt lat="30.735376323918537" lon="-6.8753626040892435"><ele>1298.0</ele><time>2026-03-22T09:55:12Z</time></trkpt><trkpt lat="30.735315957260603" lon="-6.87533404903826"><ele>1298.0</ele><time>2026-03-22T09:55:13Z</time></trkpt><trkpt lat="30.735227483735102" lon="-6.8754368366130185"><ele>1298.2</ele><time>2026-03-22T09:55:15Z</time></trkpt><trkpt lat="30.735197030194296" lon="-6.875547437445197"><ele>1298.4</ele><time>2026-03-22T09:55:16Z</time></trkpt><trkpt lat="30.735141568520167" lon="-6.875635657641817"><ele>1298.6000000000001</ele><time>2026-03-22T09:55:17Z</time></trkpt><trkpt lat="30.73505940334951" lon="-6.875667215978207"><ele>1298.8000000000002</ele><time>2026-03-22T09:55:18Z</time></trkpt><trkpt lat="30.73496279967919" lon="-6.875676814655643"><ele>1299.0</ele><time>2026-03-22T09:55:19Z</time></trkpt><trkpt lat="30.734869155077487" lon="-6.875679943284553"><ele>1299.0</ele><time>2026-03-22T09:55:20Z</time></trkpt><trkpt lat="30.734792989905536" lon="-6.875716688619723"><ele>1299.0</ele><time>2026-03-22T09:55:21Z</time></trkpt><trkpt lat="30.73474934600967" lon="-6.875797987205188"><ele>1299.0</ele><time>2026-03-22T09:55:22Z</time></trkpt><trkpt lat="30.73473284687405" lon="-6.875907089721908"><ele>1299.0</ele><time>2026-03-22T09:55:23Z</time></trkpt><trkpt lat="30.73468236979883" lon="-6.876019788951729"><ele>1299.0</ele><time>2026-03-22T09:55:24Z</time></trkpt><trkpt lat="30.73461113715177" lon="-6.876133301021534"><ele>1299.6</ele><time>2026-03-22T09:55:25Z</time></trkpt><trkpt lat="30.734539058737795" lon="-6.876247879385782"><ele>1300.2</ele><time>2026-03-22T09:55:26Z</time></trkpt><trkpt lat="30.734467579943747" lon="-6.8763348917974945"><ele>1300.8</ele><time>2026-03-22T09:55:27Z</time></trkpt><trkpt lat="30.734411889898094" lon="-6.876417699413567"><ele>1301.3999999999999</ele><time>2026-03-22T09:55:28Z</time></trkpt><trkpt lat="30.734337230561596" lon="-6.876490916720246"><ele>1302.0</ele><time>2026-03-22T09:55:29Z</time></trkpt><trkpt lat="30.734245485489364" lon="-6.876538894225554"><ele>1302.0</ele><time>2026-03-22T09:55:30Z</time></trkpt><trkpt lat="30.734142445805876" lon="-6.876528826951163"><ele>1302.0</ele><time>2026-03-22T09:55:31Z</time></trkpt><trkpt lat="30.734039964070075" lon="-6.876518693641559"><ele>1302.0</ele><time>2026-03-22T09:55:32Z</time></trkpt><trkpt lat="30.733924786573496" lon="-6.876524939823113"><ele>1302.0</ele><time>2026-03-22T09:55:33Z</time></trkpt><trkpt lat="30.733811147570673" lon="-6.8765347929863685"><ele>1302.0</ele><time>2026-03-22T09:55:34Z</time></trkpt><trkpt lat="30.733711476082398" lon="-6.876549330241523"><ele>1302.0</ele><time>2026-03-22T09:55:35Z</time></trkpt><trkpt lat="30.733622735051757" lon="-6.876555210753666"><ele>1302.0</ele><time>2026-03-22T09:55:36Z</time></trkpt><trkpt lat="30.733477793546317" lon="-6.87655814348553"><ele>1302.0</ele><time>2026-03-22T09:55:38Z</time></trkpt><trkpt lat="30.733374036074956" lon="-6.876558071163283"><ele>1302.0</ele><time>2026-03-22T09:55:39Z</time></trkpt><trkpt lat="30.733220367573796" lon="-6.876562773708207"><ele>1301.6666666666667</ele><time>2026-03-22T09:55:40Z</time></trkpt><trkpt lat="30.73305623123041" lon="-6.876555109899916"><ele>1301.3333333333335</ele><time>2026-03-22T09:55:41Z</time></trkpt><trkpt lat="30.732893647686762" lon="-6.87653396367011"><ele>1301.0</ele><time>2026-03-22T09:55:42Z</time></trkpt><trkpt lat="30.73271047380591" lon="-6.876492814329603"><ele>1301.75</ele><time>2026-03-22T09:55:43Z</time></trkpt><trkpt lat="30.732561730477677" lon="-6.87646204075036"><ele>1302.5</ele><time>2026-03-22T09:55:44Z</time></trkpt><trkpt lat="30.73244506673958" lon="-6.876455584432166"><ele>1303.25</ele><time>2026-03-22T09:55:45Z</time></trkpt><trkpt lat="30.73231185792195" lon="-6.876472166083385"><ele>1304.0</ele><time>2026-03-22T09:55:46Z</time></trkpt><trkpt lat="30.73215898494213" lon="-6.876503597664001"><ele>1304.0</ele><time>2026-03-22T09:55:47Z</time></trkpt><trkpt lat="30.732012694381364" lon="-6.876512737416475"><ele>1304.0</ele><time>2026-03-22T09:55:48Z</time></trkpt><trkpt lat="30.731896156178447" lon="-6.87649846688514"><ele>1304.0</ele><time>2026-03-22T09:55:49Z</time></trkpt><trkpt lat="30.731775319796853" lon="-6.8764767226628605"><ele>1304.0</ele><time>2026-03-22T09:55:50Z</time></trkpt><trkpt lat="30.731634376297336" lon="-6.876467890641314"><ele>1304.0</ele><time>2026-03-22T09:55:51Z</time></trkpt><trkpt lat="30.7314836645362" lon="-6.876462152756656"><ele>1304.0</ele><time>2026-03-22T09:55:52Z</time></trkpt><trkpt lat="30.731359027126317" lon="-6.87646470922615"><ele>1304.0</ele><time>2026-03-22T09:55:53Z</time></trkpt><trkpt lat="30.731255695533967" lon="-6.8764567193070985"><ele>1304.0</ele><time>2026-03-22T09:55:54Z</time></trkpt><trkpt lat="30.731155467124704" lon="-6.876447426754947"><ele>1304.0</ele><time>2026-03-22T09:55:55Z</time></trkpt><trkpt lat="30.731060503541954" lon="-6.876448287606375"><ele>1304.0</ele><time>2026-03-22T09:55:56Z</time></trkpt><trkpt lat="30.730956883760005" lon="-6.876462687203953"><ele>1304.0</ele><time>2026-03-22T09:55:57Z</time></trkpt><trkpt lat="30.730852143394692" lon="-6.876510674429986"><ele>1304.0</ele><time>2026-03-22T09:55:58Z</time></trkpt><trkpt lat="30.730742897629497" lon="-6.87657952341641"><ele>1304.0</ele><time>2026-03-22T09:55:59Z</time></trkpt><trkpt lat="30.730632209475665" lon="-6.8766448851948665"><ele>1304.2</ele><time>2026-03-22T09:56:00Z</time></trkpt><trkpt lat="30.730513635224405" lon="-6.876702512657891"><ele>1304.4</ele><time>2026-03-22T09:56:01Z</time></trkpt><trkpt lat="30.730408671492775" lon="-6.876755400738466"><ele>1304.6</ele><time>2026-03-22T09:56:02Z</time></trkpt><trkpt lat="30.730318316173204" lon="-6.876793839718164"><ele>1304.8</ele><time>2026-03-22T09:56:03Z</time></trkpt><trkpt lat="30.730220589542167" lon="-6.876829648577933"><ele>1305.0</ele><time>2026-03-22T09:56:04Z</time></trkpt><trkpt lat="30.73010473960156" lon="-6.87687341236022"><ele>1306.0</ele><time>2026-03-22T09:56:05Z</time></trkpt><trkpt lat="30.72998894200009" lon="-6.876911119083186"><ele>1307.0</ele><time>2026-03-22T09:56:06Z</time></trkpt><trkpt lat="30.729888660914256" lon="-6.876941808480234"><ele>1308.0</ele><time>2026-03-22T09:56:07Z</time></trkpt><trkpt lat="30.729796934067785" lon="-6.876975181456388"><ele>1309.0</ele><time>2026-03-22T09:56:08Z</time></trkpt><trkpt lat="30.729715916480657" lon="-6.876996217450727"><ele>1310.0</ele><time>2026-03-22T09:56:09Z</time></trkpt><trkpt lat="30.729624442887385" lon="-6.876962475320037"><ele>1310.0</ele><time>2026-03-22T09:56:11Z</time></trkpt><trkpt lat="30.729548499305302" lon="-6.876937010124214"><ele>1310.0</ele><time>2026-03-22T09:56:12.999Z</time></trkpt><trkpt lat="30.72945182824081" lon="-6.876894867105947"><ele>1310.0</ele><time>2026-03-22T09:56:17.999Z</time></trkpt><trkpt lat="30.729395161981653" lon="-6.876860952616088"><ele>1310.0</ele><time>2026-03-22T09:56:19.999Z</time></trkpt><trkpt lat="30.72932748045036" lon="-6.8768429433766025"><ele>1310.0</ele><time>2026-03-22T09:58:11.999Z</time></trkpt><trkpt lat="30.72925113720847" lon="-6.876807537026723"><ele>1310.0</ele><time>2026-03-22T09:58:13.999Z</time></trkpt><trkpt lat="30.729136391095416" lon="-6.876750897863135"><ele>1309.4</ele><time>2026-03-22T09:58:15.999Z</time></trkpt><trkpt lat="30.729072454013192" lon="-6.876722180311206"><ele>1308.8</ele><time>2026-03-22T09:58:16.999Z</time></trkpt><trkpt lat="30.728986668947766" lon="-6.8766774783798965"><ele>1308.1999999999998</ele><time>2026-03-22T09:58:18Z</time></trkpt><trkpt lat="30.72888460443753" lon="-6.876604107669222"><ele>1307.6</ele><time>2026-03-22T09:58:19Z</time></trkpt><trkpt lat="30.72878215206711" lon="-6.876521890964959"><ele>1307.0</ele><time>2026-03-22T09:58:20Z</time></trkpt><trkpt lat="30.72869254373415" lon="-6.8764788228657086"><ele>1307.0</ele><time>2026-03-22T09:58:20.999Z</time></trkpt><trkpt lat="30.72859949897578" lon="-6.876461985855525"><ele>1307.0</ele><time>2026-03-22T09:58:21.999Z</time></trkpt><trkpt lat="30.728496900004266" lon="-6.8764425672431795"><ele>1307.0</ele><time>2026-03-22T09:58:22.999Z</time></trkpt><trkpt lat="30.728398536881905" lon="-6.8763836224354575"><ele>1307.0</ele><time>2026-03-22T09:58:24Z</time></trkpt><trkpt lat="30.7283664326612" lon="-6.876299374498136"><ele>1307.0</ele><time>2026-03-22T09:58:25Z</time></trkpt><trkpt lat="30.728375247248284" lon="-6.876181944669117"><ele>1307.0</ele><time>2026-03-22T09:58:25.999Z</time></trkpt><trkpt lat="30.72836961129327" lon="-6.876040040317583"><ele>1307.0</ele><time>2026-03-22T09:58:26.999Z</time></trkpt><trkpt lat="30.72836409970608" lon="-6.875868261824536"><ele>1307.0</ele><time>2026-03-22T09:58:27.999Z</time></trkpt><trkpt lat="30.728338350694795" lon="-6.875682555949448"><ele>1307.0</ele><time>2026-03-22T09:58:28.999Z</time></trkpt><trkpt lat="30.72828451771358" lon="-6.875488960915439"><ele>1307.0</ele><time>2026-03-22T09:58:29.999Z</time></trkpt><trkpt lat="30.72820260873361" lon="-6.875270160173667"><ele>1307.0</ele><time>2026-03-22T09:58:30.999Z</time></trkpt><trkpt lat="30.728130812750592" lon="-6.875033342746606"><ele>1307.0</ele><time>2026-03-22T09:58:31.999Z</time></trkpt><trkpt lat="30.728084454452357" lon="-6.874833564981415"><ele>1307.5</ele><time>2026-03-22T09:58:32.999Z</time></trkpt><trkpt lat="30.72805180890417" lon="-6.874691579819323"><ele>1308.0</ele><time>2026-03-22T09:58:33.999Z</time></trkpt><trkpt lat="30.728014654768426" lon="-6.874567339274067"><ele>1308.5</ele><time>2026-03-22T09:58:34.999Z</time></trkpt><trkpt lat="30.728028346268704" lon="-6.874429367422326"><ele>1309.0</ele><time>2026-03-22T09:58:35.999Z</time></trkpt><trkpt lat="30.728067467628385" lon="-6.874281845936323"><ele>1309.25</ele><time>2026-03-22T09:58:36.999Z</time></trkpt><trkpt lat="30.72810559109169" lon="-6.874097629796837"><ele>1309.5</ele><time>2026-03-22T09:58:37.999Z</time></trkpt><trkpt lat="30.728110068801367" lon="-6.873926581491833"><ele>1309.75</ele><time>2026-03-22T09:58:38.999Z</time></trkpt><trkpt lat="30.728152621753836" lon="-6.873793396905673"><ele>1310.0</ele><time>2026-03-22T09:58:39.999Z</time></trkpt><trkpt lat="30.72822978785642" lon="-6.873713317680052"><ele>1310.0</ele><time>2026-03-22T09:58:40.999Z</time></trkpt><trkpt lat="30.728338099413786" lon="-6.873623243260109"><ele>1310.0</ele><time>2026-03-22T09:58:41.999Z</time></trkpt><trkpt lat="30.72844239995756" lon="-6.873517629818007"><ele>1310.0</ele><time>2026-03-22T09:58:42.999Z</time></trkpt><trkpt lat="30.7285101133065" lon="-6.873418914509142"><ele>1310.0</ele><time>2026-03-22T09:58:43.999Z</time></trkpt><trkpt lat="30.728553911946754" lon="-6.8733072279251815"><ele>1311.0</ele><time>2026-03-22T09:58:44.999Z</time></trkpt><trkpt lat="30.728604382223125" lon="-6.873200755847101"><ele>1312.0</ele><time>2026-03-22T09:58:45.999Z</time></trkpt><trkpt lat="30.728659437381637" lon="-6.873112783104891"><ele>1313.0</ele><time>2026-03-22T09:58:46.999Z</time></trkpt><trkpt lat="30.72870772389378" lon="-6.87303210012571"><ele>1314.0</ele><time>2026-03-22T09:58:47.999Z</time></trkpt><trkpt lat="30.728747236888022" lon="-6.872958101578163"><ele>1315.0</ele><time>2026-03-22T09:58:48.999Z</time></trkpt><trkpt lat="30.728782152477276" lon="-6.872880930548653"><ele>1316.0</ele><time>2026-03-22T09:58:49.999Z</time></trkpt><trkpt lat="30.728813070386792" lon="-6.872813301591693"><ele>1316.0</ele><time>2026-03-22T09:58:50.999Z</time></trkpt><trkpt lat="30.72887408061671" lon="-6.87268922567144"><ele>1316.0</ele><time>2026-03-22T09:58:52.999Z</time></trkpt><trkpt lat="30.72887611223101" lon="-6.872566997008835"><ele>1316.0</ele><time>2026-03-22T09:58:54.999Z</time></trkpt><trkpt lat="30.728850588446914" lon="-6.872494576589564"><ele>1316.0</ele><time>2026-03-22T09:58:55.999Z</time></trkpt><trkpt lat="30.728808981417153" lon="-6.872438634942119"><ele>1316.0</ele><time>2026-03-22T09:58:56.999Z</time></trkpt><trkpt lat="30.728757259406784" lon="-6.872394550278673"><ele>1316.0</ele><time>2026-03-22T09:58:57.999Z</time></trkpt><trkpt lat="30.72867374976606" lon="-6.872304864349226"><ele>1316.0</ele><time>2026-03-22T09:58:59.999Z</time></trkpt><trkpt lat="30.728655752336923" lon="-6.872234619338673"><ele>1316.0</ele><time>2026-03-22T09:59:00.999Z</time></trkpt><trkpt lat="30.728645611402563" lon="-6.872097051179813"><ele>1316.0</ele><time>2026-03-22T09:59:02.999Z</time></trkpt><trkpt lat="30.72865739322144" lon="-6.871950125354608"><ele>1316.0</ele><time>2026-03-22T09:59:04.999Z</time></trkpt><trkpt lat="30.728645173259896" lon="-6.871854735400015"><ele>1316.0</ele><time>2026-03-22T09:59:05.999Z</time></trkpt><trkpt lat="30.728628454028243" lon="-6.871727989757739"><ele>1316.0</ele><time>2026-03-22T09:59:06.999Z</time></trkpt><trkpt lat="30.728631170154404" lon="-6.871583970762258"><ele>1316.0</ele><time>2026-03-22T09:59:07.999Z</time></trkpt><trkpt lat="30.728613825528313" lon="-6.871422946021326"><ele>1316.0</ele><time>2026-03-22T09:59:08.999Z</time></trkpt><trkpt lat="30.728606922823285" lon="-6.871273252620769"><ele>1316.0</ele><time>2026-03-22T09:59:09.999Z</time></trkpt><trkpt lat="30.728606338128667" lon="-6.871133791038376"><ele>1316.0</ele><time>2026-03-22T09:59:10.999Z</time></trkpt><trkpt lat="30.728624246957565" lon="-6.8710029463928315"><ele>1316.0</ele><time>2026-03-22T09:59:11.999Z</time></trkpt><trkpt lat="30.72865831731073" lon="-6.870878259742956"><ele>1316.0</ele><time>2026-03-22T09:59:12.999Z</time></trkpt><trkpt lat="30.72870183855346" lon="-6.870758844308092"><ele>1316.0</ele><time>2026-03-22T09:59:13.999Z</time></trkpt><trkpt lat="30.7287722236094" lon="-6.87063800229605"><ele>1317.0</ele><time>2026-03-22T09:59:14.999Z</time></trkpt><trkpt lat="30.728858135233786" lon="-6.870509379373342"><ele>1318.0</ele><time>2026-03-22T09:59:15.999Z</time></trkpt><trkpt lat="30.728915642976617" lon="-6.870374327745459"><ele>1319.0</ele><time>2026-03-22T09:59:16.999Z</time></trkpt><trkpt lat="30.728927262719413" lon="-6.870255228410731"><ele>1320.0</ele><time>2026-03-22T09:59:17.999Z</time></trkpt><trkpt lat="30.728887367962887" lon="-6.8701466851592405"><ele>1319.6666666666667</ele><time>2026-03-22T09:59:18.999Z</time></trkpt><trkpt lat="30.728801308564332" lon="-6.870042695664125"><ele>1319.3333333333335</ele><time>2026-03-22T09:59:19.999Z</time></trkpt><trkpt lat="30.72868038063725" lon="-6.869915594422332"><ele>1319.0</ele><time>2026-03-22T09:59:20.999Z</time></trkpt><trkpt lat="30.72854129405164" lon="-6.8697870614016905"><ele>1319.0</ele><time>2026-03-22T09:59:21.999Z</time></trkpt><trkpt lat="30.728378560156692" lon="-6.869614633037635"><ele>1319.0</ele><time>2026-03-22T09:59:22.999Z</time></trkpt><trkpt lat="30.72825125130258" lon="-6.869425363943303"><ele>1319.0</ele><time>2026-03-22T09:59:23.999Z</time></trkpt><trkpt lat="30.728188304205872" lon="-6.869248081719061"><ele>1319.3333333333335</ele><time>2026-03-22T09:59:24.999Z</time></trkpt><trkpt lat="30.72815313520333" lon="-6.869067709938052"><ele>1319.6666666666667</ele><time>2026-03-22T09:59:25.999Z</time></trkpt><trkpt lat="30.728146176694672" lon="-6.868856753040012"><ele>1320.0</ele><time>2026-03-22T09:59:26.999Z</time></trkpt><trkpt lat="30.72817509361917" lon="-6.868626159434747"><ele>1319.6666666666667</ele><time>2026-03-22T09:59:27.999Z</time></trkpt><trkpt lat="30.728216093619746" lon="-6.868379787915735"><ele>1319.3333333333335</ele><time>2026-03-22T09:59:28.999Z</time></trkpt><trkpt lat="30.728261408480115" lon="-6.868146636924896"><ele>1319.0</ele><time>2026-03-22T09:59:29.999Z</time></trkpt><trkpt lat="30.72825805371012" lon="-6.867987701815238"><ele>1319.0</ele><time>2026-03-22T09:59:30.999Z</time></trkpt><trkpt lat="30.72822972438732" lon="-6.867862695899068"><ele>1319.0</ele><time>2026-03-22T09:59:31.999Z</time></trkpt><trkpt lat="30.72821011378761" lon="-6.867724569971057"><ele>1319.0</ele><time>2026-03-22T09:59:32.999Z</time></trkpt><trkpt lat="30.728206271994704" lon="-6.867577929587638"><ele>1319.0</ele><time>2026-03-22T09:59:33.999Z</time></trkpt><trkpt lat="30.728210427863043" lon="-6.867438187510236"><ele>1319.4</ele><time>2026-03-22T09:59:34.999Z</time></trkpt><trkpt lat="30.7281970589423" lon="-6.867314373823542"><ele>1319.8000000000002</ele><time>2026-03-22T09:59:35.999Z</time></trkpt><trkpt lat="30.72818092543845" lon="-6.86719680126954"><ele>1320.1999999999998</ele><time>2026-03-22T09:59:36.999Z</time></trkpt><trkpt lat="30.728178026952744" lon="-6.867089071189505"><ele>1320.6</ele><time>2026-03-22T09:59:37.999Z</time></trkpt><trkpt lat="30.728202681990208" lon="-6.866984277033878"><ele>1321.0</ele><time>2026-03-22T09:59:38.999Z</time></trkpt><trkpt lat="30.728233511375517" lon="-6.866885507467468"><ele>1321.0</ele><time>2026-03-22T09:59:39.999Z</time></trkpt><trkpt lat="30.72826718973525" lon="-6.866781073572653"><ele>1321.0</ele><time>2026-03-22T09:59:40.999Z</time></trkpt><trkpt lat="30.7282987681074" lon="-6.866672586233622"><ele>1321.0</ele><time>2026-03-22T09:59:41.999Z</time></trkpt><trkpt lat="30.728320856241695" lon="-6.866562015959164"><ele>1321.0</ele><time>2026-03-22T09:59:42.999Z</time></trkpt><trkpt lat="30.72832844064161" lon="-6.8664385816005185"><ele>1321.0</ele><time>2026-03-22T09:59:43.999Z</time></trkpt><trkpt lat="30.728331802693894" lon="-6.86631994285162"><ele>1321.6</ele><time>2026-03-22T09:59:44.999Z</time></trkpt><trkpt lat="30.728327738355016" lon="-6.8661923129816484"><ele>1322.1999999999998</ele><time>2026-03-22T09:59:45.999Z</time></trkpt><trkpt lat="30.728311967337753" lon="-6.866071312237631"><ele>1322.8000000000002</ele><time>2026-03-22T09:59:46.999Z</time></trkpt><trkpt lat="30.72828797769455" lon="-6.865957424438173"><ele>1323.4</ele><time>2026-03-22T09:59:47.999Z</time></trkpt><trkpt lat="30.728274327537303" lon="-6.865843257006595"><ele>1324.0</ele><time>2026-03-22T09:59:48.999Z</time></trkpt><trkpt lat="30.728275665237263" lon="-6.865719240226008"><ele>1324.75</ele><time>2026-03-22T09:59:49.999Z</time></trkpt><trkpt lat="30.728282658466448" lon="-6.865578630476616"><ele>1325.5</ele><time>2026-03-22T09:59:50.999Z</time></trkpt><trkpt lat="30.728281563078294" lon="-6.865441501090505"><ele>1326.25</ele><time>2026-03-22T09:59:51.999Z</time></trkpt><trkpt lat="30.72826389300127" lon="-6.865305177155282"><ele>1327.0</ele><time>2026-03-22T09:59:52.999Z</time></trkpt><trkpt lat="30.72824801087991" lon="-6.865154019019468"><ele>1328.0</ele><time>2026-03-22T09:59:53.999Z</time></trkpt><trkpt lat="30.72824609352743" lon="-6.864984300860525"><ele>1329.0</ele><time>2026-03-22T09:59:54.999Z</time></trkpt><trkpt lat="30.728264181073623" lon="-6.864805634013387"><ele>1330.0</ele><time>2026-03-22T09:59:55.999Z</time></trkpt><trkpt lat="30.728284253187343" lon="-6.864634954737926"><ele>1331.0</ele><time>2026-03-22T09:59:56.999Z</time></trkpt><trkpt lat="30.728291752380304" lon="-6.864479021756905"><ele>1331.0</ele><time>2026-03-22T09:59:57.999Z</time></trkpt><trkpt lat="30.728289825524882" lon="-6.864351884195148"><ele>1331.0</ele><time>2026-03-22T09:59:58.999Z</time></trkpt><trkpt lat="30.72827178787345" lon="-6.864243612298268"><ele>1331.0</ele><time>2026-03-22T09:59:59.999Z</time></trkpt><trkpt lat="30.72824175394986" lon="-6.864153048449215"><ele>1331.0</ele><time>2026-03-22T10:00:00.999Z</time></trkpt><trkpt lat="30.728231983810524" lon="-6.8640644597335525"><ele>1331.0</ele><time>2026-03-22T10:00:01.999Z</time></trkpt><trkpt lat="30.72824012465985" lon="-6.863974744144913"><ele>1331.0</ele><time>2026-03-22T10:00:02.999Z</time></trkpt><trkpt lat="30.72821503923637" lon="-6.86389014081926"><ele>1331.1999999999998</ele><time>2026-03-22T10:00:03.999Z</time></trkpt><trkpt lat="30.728150334564184" lon="-6.863796737378912"><ele>1331.3999999999999</ele><time>2026-03-22T10:00:04.999Z</time></trkpt><trkpt lat="30.728087348810195" lon="-6.8637045754482715"><ele>1331.6</ele><time>2026-03-22T10:00:05.999Z</time></trkpt><trkpt lat="30.728053069096095" lon="-6.863579014186149"><ele>1331.8</ele><time>2026-03-22T10:00:06.999Z</time></trkpt><trkpt lat="30.728047452825294" lon="-6.863451541970561"><ele>1332.0</ele><time>2026-03-22T10:00:07.999Z</time></trkpt><trkpt lat="30.728037470882573" lon="-6.863301845914144"><ele>1332.5</ele><time>2026-03-22T10:00:08.999Z</time></trkpt><trkpt lat="30.72801845305185" lon="-6.863161296493624"><ele>1333.0</ele><time>2026-03-22T10:00:09.999Z</time></trkpt><trkpt lat="30.727996354508797" lon="-6.863024994217104"><ele>1333.5</ele><time>2026-03-22T10:00:10.999Z</time></trkpt><trkpt lat="30.727992828003813" lon="-6.862895976389475"><ele>1334.0</ele><time>2026-03-22T10:00:11.999Z</time></trkpt><trkpt lat="30.72799332374131" lon="-6.8627719683326385"><ele>1334.0</ele><time>2026-03-22T10:00:12.999Z</time></trkpt><trkpt lat="30.7279856897837" lon="-6.862642175271983"><ele>1334.0</ele><time>2026-03-22T10:00:13.999Z</time></trkpt><trkpt lat="30.72796267046275" lon="-6.8625151243021305"><ele>1334.0</ele><time>2026-03-22T10:00:14.999Z</time></trkpt><trkpt lat="30.727935494081525" lon="-6.862373478669083"><ele>1334.0</ele><time>2026-03-22T10:00:15.999Z</time></trkpt><trkpt lat="30.727912488329252" lon="-6.862228447648791"><ele>1333.5</ele><time>2026-03-22T10:00:16.999Z</time></trkpt><trkpt lat="30.727897870047236" lon="-6.862081684383"><ele>1333.0</ele><time>2026-03-22T10:00:17.999Z</time></trkpt><trkpt lat="30.727885289886082" lon="-6.861939813983405"><ele>1332.5</ele><time>2026-03-22T10:00:18.999Z</time></trkpt><trkpt lat="30.727848713436607" lon="-6.861787381297064"><ele>1332.0</ele><time>2026-03-22T10:00:19.999Z</time></trkpt><trkpt lat="30.727794665744415" lon="-6.861636770537256"><ele>1331.75</ele><time>2026-03-22T10:00:20.999Z</time></trkpt><trkpt lat="30.727733955053242" lon="-6.861476104701549"><ele>1331.5</ele><time>2026-03-22T10:00:21.999Z</time></trkpt><trkpt lat="30.727699215561554" lon="-6.861330797893032"><ele>1331.25</ele><time>2026-03-22T10:00:23Z</time></trkpt><trkpt lat="30.72767700532423" lon="-6.861203771914802"><ele>1331.0</ele><time>2026-03-22T10:00:23.999Z</time></trkpt><trkpt lat="30.727647237670936" lon="-6.86106641673723"><ele>1330.75</ele><time>2026-03-22T10:00:24.999Z</time></trkpt><trkpt lat="30.727607919559418" lon="-6.860922162652094"><ele>1330.5</ele><time>2026-03-22T10:00:25.999Z</time></trkpt><trkpt lat="30.727565333388743" lon="-6.8607744549973715"><ele>1330.25</ele><time>2026-03-22T10:00:27Z</time></trkpt><trkpt lat="30.727527643806912" lon="-6.860627205064309"><ele>1330.0</ele><time>2026-03-22T10:00:28Z</time></trkpt><trkpt lat="30.72749996971078" lon="-6.860487659808944"><ele>1330.0</ele><time>2026-03-22T10:00:28.999Z</time></trkpt><trkpt lat="30.727451867382005" lon="-6.860346790918187"><ele>1330.0</ele><time>2026-03-22T10:00:30Z</time></trkpt><trkpt lat="30.727400242263247" lon="-6.860197500520307"><ele>1330.0</ele><time>2026-03-22T10:00:31Z</time></trkpt><trkpt lat="30.72735751420962" lon="-6.860052520418039"><ele>1330.0</ele><time>2026-03-22T10:00:32Z</time></trkpt><trkpt lat="30.727329910461272" lon="-6.859918717735593"><ele>1330.5</ele><time>2026-03-22T10:00:32.999Z</time></trkpt><trkpt lat="30.72732117189425" lon="-6.859765789437892"><ele>1331.0</ele><time>2026-03-22T10:00:33.999Z</time></trkpt><trkpt lat="30.727304634412263" lon="-6.859621819121367"><ele>1331.5</ele><time>2026-03-22T10:00:34.999Z</time></trkpt><trkpt lat="30.72726628384322" lon="-6.859502741899625"><ele>1332.0</ele><time>2026-03-22T10:00:36Z</time></trkpt><trkpt lat="30.727199152385328" lon="-6.859412438706154"><ele>1332.0</ele><time>2026-03-22T10:00:37Z</time></trkpt><trkpt lat="30.727109282174844" lon="-6.859330145546545"><ele>1332.0</ele><time>2026-03-22T10:00:38Z</time></trkpt><trkpt lat="30.727017385120607" lon="-6.859264552279236"><ele>1332.0</ele><time>2026-03-22T10:00:39Z</time></trkpt><trkpt lat="30.726922495810513" lon="-6.859207505297114"><ele>1332.0</ele><time>2026-03-22T10:00:40Z</time></trkpt><trkpt lat="30.726827796983553" lon="-6.859174684179424"><ele>1332.0</ele><time>2026-03-22T10:00:41Z</time></trkpt><trkpt lat="30.726725113449245" lon="-6.859146823657489"><ele>1333.75</ele><time>2026-03-22T10:00:42Z</time></trkpt><trkpt lat="30.72661098918192" lon="-6.859093173997104"><ele>1335.5</ele><time>2026-03-22T10:00:43Z</time></trkpt><trkpt lat="30.726497870605332" lon="-6.859018236790077"><ele>1337.25</ele><time>2026-03-22T10:00:44Z</time></trkpt><trkpt lat="30.726390879518537" lon="-6.858954394571526"><ele>1339.0</ele><time>2026-03-22T10:00:45Z</time></trkpt><trkpt lat="30.726285976594554" lon="-6.858881078527655"><ele>1339.0</ele><time>2026-03-22T10:00:46Z</time></trkpt><trkpt lat="30.72618868232362" lon="-6.85880418146377"><ele>1339.0</ele><time>2026-03-22T10:00:47Z</time></trkpt><trkpt lat="30.726099934510408" lon="-6.858743635418748"><ele>1339.0</ele><time>2026-03-22T10:00:48Z</time></trkpt><trkpt lat="30.72600634788793" lon="-6.858687575857989"><ele>1339.0</ele><time>2026-03-22T10:00:49Z</time></trkpt><trkpt lat="30.725903175590446" lon="-6.858644096430643"><ele>1339.0</ele><time>2026-03-22T10:00:50Z</time></trkpt><trkpt lat="30.725793646445705" lon="-6.858601557801017"><ele>1339.75</ele><time>2026-03-22T10:00:51Z</time></trkpt><trkpt lat="30.725687517341267" lon="-6.858553760178963"><ele>1340.5</ele><time>2026-03-22T10:00:52Z</time></trkpt><trkpt lat="30.725596469292135" lon="-6.8585184555433925"><ele>1341.25</ele><time>2026-03-22T10:00:53Z</time></trkpt><trkpt lat="30.725479906752696" lon="-6.858471244733325"><ele>1342.0</ele><time>2026-03-22T10:00:54Z</time></trkpt><trkpt lat="30.725345823481966" lon="-6.858416491269818"><ele>1342.5</ele><time>2026-03-22T10:00:55Z</time></trkpt><trkpt lat="30.7252335568252" lon="-6.858360364064895"><ele>1343.0</ele><time>2026-03-22T10:00:56Z</time></trkpt><trkpt lat="30.725133325924936" lon="-6.858295611770451"><ele>1343.5</ele><time>2026-03-22T10:00:57Z</time></trkpt><trkpt lat="30.725023183860383" lon="-6.858238130690058"><ele>1344.0</ele><time>2026-03-22T10:00:58Z</time></trkpt><trkpt lat="30.724898426707078" lon="-6.85819961539033"><ele>1344.25</ele><time>2026-03-22T10:00:59Z</time></trkpt><trkpt lat="30.724780622239653" lon="-6.8581848964876295"><ele>1344.5</ele><time>2026-03-22T10:01:00Z</time></trkpt><trkpt lat="30.72466418508913" lon="-6.858202573553514"><ele>1344.75</ele><time>2026-03-22T10:01:01Z</time></trkpt><trkpt lat="30.724530820645448" lon="-6.858251077587658"><ele>1345.0</ele><time>2026-03-22T10:01:02Z</time></trkpt><trkpt lat="30.724391922938352" lon="-6.858317838189816"><ele>1345.6</ele><time>2026-03-22T10:01:03Z</time></trkpt><trkpt lat="30.724286267247532" lon="-6.8583968508535715"><ele>1346.2</ele><time>2026-03-22T10:01:04Z</time></trkpt><trkpt lat="30.72421565623815" lon="-6.858479026978448"><ele>1346.8000000000002</ele><time>2026-03-22T10:01:05Z</time></trkpt><trkpt lat="30.72415981712029" lon="-6.858560072576524"><ele>1347.4</ele><time>2026-03-22T10:01:06Z</time></trkpt><trkpt lat="30.724102783018438" lon="-6.858643718547181"><ele>1348.0</ele><time>2026-03-22T10:01:07Z</time></trkpt><trkpt lat="30.72403966228081" lon="-6.858741951776941"><ele>1348.0</ele><time>2026-03-22T10:01:08Z</time></trkpt><trkpt lat="30.723966091433937" lon="-6.8588216458854525"><ele>1348.0</ele><time>2026-03-22T10:01:09Z</time></trkpt><trkpt lat="30.72388524376453" lon="-6.858899055366597"><ele>1348.0</ele><time>2026-03-22T10:01:10Z</time></trkpt><trkpt lat="30.723800286911953" lon="-6.858990994135817"><ele>1348.0</ele><time>2026-03-22T10:01:11Z</time></trkpt><trkpt lat="30.72371200883862" lon="-6.8590918570314745"><ele>1348.0</ele><time>2026-03-22T10:01:12Z</time></trkpt><trkpt lat="30.72361648295136" lon="-6.859209370877182"><ele>1348.0</ele><time>2026-03-22T10:01:13Z</time></trkpt><trkpt lat="30.723536551413016" lon="-6.8593346802829736"><ele>1348.0</ele><time>2026-03-22T10:01:14Z</time></trkpt><trkpt lat="30.723485654674572" lon="-6.859498440625673"><ele>1348.0</ele><time>2026-03-22T10:01:15Z</time></trkpt><trkpt lat="30.72344065774243" lon="-6.859671995741643"><ele>1348.0</ele><time>2026-03-22T10:01:16Z</time></trkpt><trkpt lat="30.723398476208967" lon="-6.85981990692566"><ele>1348.0</ele><time>2026-03-22T10:01:17Z</time></trkpt><trkpt lat="30.723362982838413" lon="-6.85994830869154"><ele>1348.0</ele><time>2026-03-22T10:01:18Z</time></trkpt><trkpt lat="30.723299585541174" lon="-6.86009367002005"><ele>1348.0</ele><time>2026-03-22T10:01:19Z</time></trkpt><trkpt lat="30.723220216831894" lon="-6.860276337747515"><ele>1348.0</ele><time>2026-03-22T10:01:20Z</time></trkpt><trkpt lat="30.723164891838845" lon="-6.86042825680029"><ele>1347.6666666666665</ele><time>2026-03-22T10:01:21Z</time></trkpt><trkpt lat="30.723117172612227" lon="-6.860588649941696"><ele>1347.3333333333333</ele><time>2026-03-22T10:01:22Z</time></trkpt><trkpt lat="30.72305536287377" lon="-6.860780531207262"><ele>1347.0</ele><time>2026-03-22T10:01:23Z</time></trkpt><trkpt lat="30.722980361048233" lon="-6.860988530087563"><ele>1347.0</ele><time>2026-03-22T10:01:24Z</time></trkpt><trkpt lat="30.722916219161654" lon="-6.861181460907562"><ele>1347.0</ele><time>2026-03-22T10:01:25Z</time></trkpt><trkpt lat="30.72285627142399" lon="-6.86132904772818"><ele>1347.0</ele><time>2026-03-22T10:01:26Z</time></trkpt><trkpt lat="30.72279673693687" lon="-6.861458141521032"><ele>1347.0</ele><time>2026-03-22T10:01:27Z</time></trkpt><trkpt lat="30.722736042591638" lon="-6.861566879786974"><ele>1346.8</ele><time>2026-03-22T10:01:28Z</time></trkpt><trkpt lat="30.722668922762466" lon="-6.861666639623545"><ele>1346.6</ele><time>2026-03-22T10:01:29Z</time></trkpt><trkpt lat="30.72263179190506" lon="-6.861749561242914"><ele>1346.3999999999999</ele><time>2026-03-22T10:01:30Z</time></trkpt><trkpt lat="30.722592540340635" lon="-6.86183895131036"><ele>1346.1999999999998</ele><time>2026-03-22T10:01:31Z</time></trkpt><trkpt lat="30.722535818722523" lon="-6.861918499341037"><ele>1346.0</ele><time>2026-03-22T10:01:32Z</time></trkpt><trkpt lat="30.722457674521426" lon="-6.861977792921892"><ele>1346.6</ele><time>2026-03-22T10:01:33Z</time></trkpt><trkpt lat="30.722393942089376" lon="-6.86203954650586"><ele>1347.1999999999998</ele><time>2026-03-22T10:01:34Z</time></trkpt><trkpt lat="30.722314778564424" lon="-6.862119240718224"><ele>1347.8000000000002</ele><time>2026-03-22T10:01:35Z</time></trkpt><trkpt lat="30.72224125122165" lon="-6.862199660015851"><ele>1348.4</ele><time>2026-03-22T10:01:36Z</time></trkpt><trkpt lat="30.722177969587744" lon="-6.862297727509926"><ele>1349.0</ele><time>2026-03-22T10:01:37Z</time></trkpt><trkpt lat="30.722127954188704" lon="-6.862404542992113"><ele>1349.0</ele><time>2026-03-22T10:01:38Z</time></trkpt><trkpt lat="30.72208753471803" lon="-6.862508457195654"><ele>1349.0</ele><time>2026-03-22T10:01:39Z</time></trkpt><trkpt lat="30.722054289650412" lon="-6.862615265938196"><ele>1349.0</ele><time>2026-03-22T10:01:40Z</time></trkpt><trkpt lat="30.72201277712312" lon="-6.86272584780273"><ele>1349.0</ele><time>2026-03-22T10:01:41Z</time></trkpt><trkpt lat="30.7219781745826" lon="-6.8628518761620105"><ele>1349.0</ele><time>2026-03-22T10:01:42Z</time></trkpt><trkpt lat="30.72195132909272" lon="-6.862976155898803"><ele>1349.8000000000002</ele><time>2026-03-22T10:01:43Z</time></trkpt><trkpt lat="30.721916450231397" lon="-6.863092260026986"><ele>1350.6000000000001</ele><time>2026-03-22T10:01:44Z</time></trkpt><trkpt lat="30.721863720084173" lon="-6.863209633838205"><ele>1351.4</ele><time>2026-03-22T10:01:45Z</time></trkpt><trkpt lat="30.721804317987434" lon="-6.863317081450787"><ele>1352.2</ele><time>2026-03-22T10:01:46Z</time></trkpt><trkpt lat="30.72173379103076" lon="-6.863412654493379"><ele>1353.0</ele><time>2026-03-22T10:01:47Z</time></trkpt><trkpt lat="30.721652081656025" lon="-6.863509766125758"><ele>1353.75</ele><time>2026-03-22T10:01:48Z</time></trkpt><trkpt lat="30.7215711980503" lon="-6.8636178486084445"><ele>1354.5</ele><time>2026-03-22T10:01:49Z</time></trkpt><trkpt lat="30.721491356657047" lon="-6.863724273657203"><ele>1355.25</ele><time>2026-03-22T10:01:50Z</time></trkpt><trkpt lat="30.72138343377678" lon="-6.863831109907184"><ele>1356.0</ele><time>2026-03-22T10:01:51Z</time></trkpt><trkpt lat="30.721274999535424" lon="-6.863910792240747"><ele>1356.0</ele><time>2026-03-22T10:01:52Z</time></trkpt><trkpt lat="30.721164975486886" lon="-6.863972559491115"><ele>1356.0</ele><time>2026-03-22T10:01:53Z</time></trkpt><trkpt lat="30.72104590107681" lon="-6.86402369148018"><ele>1356.0</ele><time>2026-03-22T10:01:54Z</time></trkpt><trkpt lat="30.720923820346172" lon="-6.864060380508578"><ele>1356.0</ele><time>2026-03-22T10:01:55Z</time></trkpt><trkpt lat="30.720806966431816" lon="-6.864097479465068"><ele>1355.5</ele><time>2026-03-22T10:01:56Z</time></trkpt><trkpt lat="30.720695389802444" lon="-6.864135970319801"><ele>1355.0</ele><time>2026-03-22T10:01:57Z</time></trkpt><trkpt lat="30.72058418889056" lon="-6.864190898489038"><ele>1354.5</ele><time>2026-03-22T10:01:58Z</time></trkpt><trkpt lat="30.72046884589168" lon="-6.864240923068042"><ele>1354.0</ele><time>2026-03-22T10:01:59Z</time></trkpt><trkpt lat="30.720356561945927" lon="-6.864298961517812"><ele>1353.75</ele><time>2026-03-22T10:02:00Z</time></trkpt><trkpt lat="30.720248766637233" lon="-6.864360832019967"><ele>1353.5</ele><time>2026-03-22T10:02:01Z</time></trkpt><trkpt lat="30.7201373950812" lon="-6.8644257099850945"><ele>1353.25</ele><time>2026-03-22T10:02:02Z</time></trkpt><trkpt lat="30.720021756788043" lon="-6.864489179219832"><ele>1353.0</ele><time>2026-03-22T10:02:03Z</time></trkpt><trkpt lat="30.719897846579503" lon="-6.864553479585987"><ele>1353.0</ele><time>2026-03-22T10:02:04Z</time></trkpt><trkpt lat="30.71977835948043" lon="-6.864622186728439"><ele>1353.0</ele><time>2026-03-22T10:02:05Z</time></trkpt><trkpt lat="30.71967981402165" lon="-6.864686184328049"><ele>1353.0</ele><time>2026-03-22T10:02:06Z</time></trkpt><trkpt lat="30.719585838192508" lon="-6.864724966997492"><ele>1353.0</ele><time>2026-03-22T10:02:07Z</time></trkpt><trkpt lat="30.719495191151577" lon="-6.864753796296675"><ele>1353.0</ele><time>2026-03-22T10:02:08Z</time></trkpt><trkpt lat="30.719402452687973" lon="-6.864770095347396"><ele>1352.6000000000001</ele><time>2026-03-22T10:02:09Z</time></trkpt><trkpt lat="30.719293881869906" lon="-6.864791648620764"><ele>1352.2</ele><time>2026-03-22T10:02:10Z</time></trkpt><trkpt lat="30.719183837984957" lon="-6.8648057586439455"><ele>1351.8</ele><time>2026-03-22T10:02:11Z</time></trkpt><trkpt lat="30.71907473991716" lon="-6.8648107363465645"><ele>1351.4</ele><time>2026-03-22T10:02:12Z</time></trkpt><trkpt lat="30.71896724310107" lon="-6.864824386890403"><ele>1351.0</ele><time>2026-03-22T10:02:13Z</time></trkpt><trkpt lat="30.71886152282847" lon="-6.864824998055948"><ele>1351.0</ele><time>2026-03-22T10:02:14Z</time></trkpt><trkpt lat="30.71874911153123" lon="-6.864825799762473"><ele>1351.0</ele><time>2026-03-22T10:02:15Z</time></trkpt><trkpt lat="30.71862047363831" lon="-6.864830461083721"><ele>1351.0</ele><time>2026-03-22T10:02:16Z</time></trkpt><trkpt lat="30.718477580603846" lon="-6.864821019999659"><ele>1351.0</ele><time>2026-03-22T10:02:17Z</time></trkpt><trkpt lat="30.718330941961508" lon="-6.864783813122264"><ele>1350.75</ele><time>2026-03-22T10:02:18Z</time></trkpt><trkpt lat="30.718198216784618" lon="-6.864737983387775"><ele>1350.5</ele><time>2026-03-22T10:02:19Z</time></trkpt><trkpt lat="30.718072301986716" lon="-6.864691522849204"><ele>1350.25</ele><time>2026-03-22T10:02:20Z</time></trkpt><trkpt lat="30.717954094999936" lon="-6.864657832459689"><ele>1350.0</ele><time>2026-03-22T10:02:21Z</time></trkpt><trkpt lat="30.717851803080265" lon="-6.864645647801797"><ele>1350.0</ele><time>2026-03-22T10:02:22Z</time></trkpt><trkpt lat="30.717755652355084" lon="-6.864639251919764"><ele>1350.0</ele><time>2026-03-22T10:02:23Z</time></trkpt><trkpt lat="30.717662463290157" lon="-6.864626937583288"><ele>1350.0</ele><time>2026-03-22T10:02:24Z</time></trkpt><trkpt lat="30.71757711809395" lon="-6.864592211267501"><ele>1350.0</ele><time>2026-03-22T10:02:25Z</time></trkpt><trkpt lat="30.717474989343163" lon="-6.864580879136736"><ele>1350.0</ele><time>2026-03-22T10:02:26Z</time></trkpt><trkpt lat="30.71735269443653" lon="-6.864611236203065"><ele>1349.25</ele><time>2026-03-22T10:02:27Z</time></trkpt><trkpt lat="30.717220054837462" lon="-6.864657219204814"><ele>1348.5</ele><time>2026-03-22T10:02:28Z</time></trkpt><trkpt lat="30.71709460792022" lon="-6.864673486598144"><ele>1347.75</ele><time>2026-03-22T10:02:28.999Z</time></trkpt><trkpt lat="30.716965890190643" lon="-6.864669075306722"><ele>1347.0</ele><time>2026-03-22T10:02:29.999Z</time></trkpt><trkpt lat="30.71682999580532" lon="-6.864667312628778"><ele>1346.5</ele><time>2026-03-22T10:02:30.999Z</time></trkpt><trkpt lat="30.716694585294793" lon="-6.864660006056762"><ele>1346.0</ele><time>2026-03-22T10:02:31.999Z</time></trkpt><trkpt lat="30.716584187622278" lon="-6.864622349068034"><ele>1345.5</ele><time>2026-03-22T10:02:32.999Z</time></trkpt><trkpt lat="30.716474083840172" lon="-6.86455729579835"><ele>1345.0</ele><time>2026-03-22T10:02:33.999Z</time></trkpt><trkpt lat="30.716353764985215" lon="-6.8645005061245845"><ele>1345.0</ele><time>2026-03-22T10:02:34.999Z</time></trkpt><trkpt lat="30.716234745630924" lon="-6.864443110466825"><ele>1345.0</ele><time>2026-03-22T10:02:35.999Z</time></trkpt><trkpt lat="30.71613680478115" lon="-6.8643945881651875"><ele>1345.0</ele><time>2026-03-22T10:02:36.999Z</time></trkpt><trkpt lat="30.71603597792184" lon="-6.864348813098374"><ele>1345.0</ele><time>2026-03-22T10:02:38Z</time></trkpt><trkpt lat="30.715935990871042" lon="-6.864327024732292"><ele>1345.0</ele><time>2026-03-22T10:02:38.998Z</time></trkpt><trkpt lat="30.715835864691414" lon="-6.8643245282123315"><ele>1344.2</ele><time>2026-03-22T10:02:39.998Z</time></trkpt><trkpt lat="30.715722083869014" lon="-6.864315358009836"><ele>1343.4</ele><time>2026-03-22T10:02:40.999Z</time></trkpt><trkpt lat="30.715622795275582" lon="-6.864276834535239"><ele>1342.6</ele><time>2026-03-22T10:02:41.998Z</time></trkpt><trkpt lat="30.715526890199136" lon="-6.8642261080078635"><ele>1341.8</ele><time>2026-03-22T10:02:42.998Z</time></trkpt><trkpt lat="30.715432858088604" lon="-6.864183492364177"><ele>1341.0</ele><time>2026-03-22T10:02:43.998Z</time></trkpt><trkpt lat="30.715334795536" lon="-6.864165963217498"><ele>1339.8</ele><time>2026-03-22T10:02:44.998Z</time></trkpt><trkpt lat="30.71523003472132" lon="-6.864157271961113"><ele>1338.6</ele><time>2026-03-22T10:02:45.998Z</time></trkpt><trkpt lat="30.715122057877867" lon="-6.864131422656584"><ele>1337.4</ele><time>2026-03-22T10:02:46.998Z</time></trkpt><trkpt lat="30.71503286862114" lon="-6.864103529406693"><ele>1336.2</ele><time>2026-03-22T10:02:47.998Z</time></trkpt><trkpt lat="30.714947364237037" lon="-6.864071759320347"><ele>1335.0</ele><time>2026-03-22T10:02:48.998Z</time></trkpt><trkpt lat="30.714871448071406" lon="-6.864064013826906"><ele>1335.0</ele><time>2026-03-22T10:02:49.998Z</time></trkpt><trkpt lat="30.714806193902547" lon="-6.86409218542294"><ele>1335.0</ele><time>2026-03-22T10:02:50.998Z</time></trkpt><trkpt lat="30.71473819582359" lon="-6.864136264400036"><ele>1335.0</ele><time>2026-03-22T10:02:51.998Z</time></trkpt><trkpt lat="30.71467286243275" lon="-6.864149883442419"><ele>1335.0</ele><time>2026-03-22T10:02:52.998Z</time></trkpt><trkpt lat="30.714586255776048" lon="-6.864131925937184"><ele>1335.0</ele><time>2026-03-22T10:02:53.998Z</time></trkpt><trkpt lat="30.714497534850274" lon="-6.864113009142775"><ele>1335.0</ele><time>2026-03-22T10:02:54.998Z</time></trkpt><trkpt lat="30.714412831300972" lon="-6.8641076236169845"><ele>1336.0</ele><time>2026-03-22T10:02:55.998Z</time></trkpt><trkpt lat="30.71431996232084" lon="-6.864111412251711"><ele>1337.0</ele><time>2026-03-22T10:02:56.998Z</time></trkpt><trkpt lat="30.71424180073761" lon="-6.864108183365778"><ele>1338.0</ele><time>2026-03-22T10:02:57.998Z</time></trkpt><trkpt lat="30.714154952727146" lon="-6.864078615343311"><ele>1339.0</ele><time>2026-03-22T10:02:58.998Z</time></trkpt><trkpt lat="30.714069417639607" lon="-6.864057106282159"><ele>1340.0</ele><time>2026-03-22T10:02:59.998Z</time></trkpt><trkpt lat="30.713982243996075" lon="-6.864047555804829"><ele>1341.0</ele><time>2026-03-22T10:03:00.998Z</time></trkpt><trkpt lat="30.713897194534244" lon="-6.864034270477695"><ele>1341.0</ele><time>2026-03-22T10:03:01.998Z</time></trkpt><trkpt lat="30.713818654583186" lon="-6.864016404044358"><ele>1341.0</ele><time>2026-03-22T10:03:02.998Z</time></trkpt><trkpt lat="30.713740778175765" lon="-6.864008710012927"><ele>1341.0</ele><time>2026-03-22T10:03:03.998Z</time></trkpt><trkpt lat="30.713652575043533" lon="-6.864000063952299"><ele>1341.0</ele><time>2026-03-22T10:03:04.998Z</time></trkpt><trkpt lat="30.713578304182995" lon="-6.8639767590159115"><ele>1341.0</ele><time>2026-03-22T10:03:05.998Z</time></trkpt><trkpt lat="30.71350098542227" lon="-6.86395732709176"><ele>1341.0</ele><time>2026-03-22T10:03:06.998Z</time></trkpt><trkpt lat="30.713435266535367" lon="-6.863944225865686"><ele>1342.6</ele><time>2026-03-22T10:03:07.998Z</time></trkpt><trkpt lat="30.713315635334858" lon="-6.863946156255478"><ele>1344.1999999999998</ele><time>2026-03-22T10:03:09.998Z</time></trkpt><trkpt lat="30.713230380178725" lon="-6.863951432935238"><ele>1345.8000000000002</ele><time>2026-03-22T10:03:10.998Z</time></trkpt><trkpt lat="30.71316196645149" lon="-6.86395201002415"><ele>1347.4</ele><time>2026-03-22T10:03:11.998Z</time></trkpt><trkpt lat="30.713049313773723" lon="-6.864005991593213"><ele>1349.0</ele><time>2026-03-22T10:03:13.998Z</time></trkpt><trkpt lat="30.712968089781935" lon="-6.864066075958848"><ele>1349.0</ele><time>2026-03-22T10:03:14.998Z</time></trkpt><trkpt lat="30.712875637368334" lon="-6.864128643523514"><ele>1349.0</ele><time>2026-03-22T10:03:15.998Z</time></trkpt><trkpt lat="30.712785785623964" lon="-6.864187057936444"><ele>1349.0</ele><time>2026-03-22T10:03:16.998Z</time></trkpt><trkpt lat="30.71270538641859" lon="-6.8642578066950115"><ele>1349.0</ele><time>2026-03-22T10:03:17.998Z</time></trkpt><trkpt lat="30.71260942458224" lon="-6.8643559023577305"><ele>1349.0</ele><time>2026-03-22T10:03:18.998Z</time></trkpt><trkpt lat="30.71250194248514" lon="-6.864459828850945"><ele>1352.0</ele><time>2026-03-22T10:03:19.998Z</time></trkpt><trkpt lat="30.712398310504636" lon="-6.864564191896984"><ele>1355.0</ele><time>2026-03-22T10:03:20.998Z</time></trkpt><trkpt lat="30.712294333655258" lon="-6.864678767718988"><ele>1358.0</ele><time>2026-03-22T10:03:21.998Z</time></trkpt><trkpt lat="30.71221127126911" lon="-6.864781763266449"><ele>1361.0</ele><time>2026-03-22T10:03:22.998Z</time></trkpt><trkpt lat="30.712143694546164" lon="-6.8648785188239705"><ele>1361.0</ele><time>2026-03-22T10:03:23.998Z</time></trkpt><trkpt lat="30.712063322592172" lon="-6.864985040053457"><ele>1361.0</ele><time>2026-03-22T10:03:24.998Z</time></trkpt><trkpt lat="30.711972666236587" lon="-6.865095798303563"><ele>1361.0</ele><time>2026-03-22T10:03:25.998Z</time></trkpt><trkpt lat="30.7118768562388" lon="-6.865200593934944"><ele>1361.0</ele><time>2026-03-22T10:03:26.998Z</time></trkpt><trkpt lat="30.71179280577111" lon="-6.865290704971579"><ele>1360.25</ele><time>2026-03-22T10:03:27.998Z</time></trkpt><trkpt lat="30.711716754368567" lon="-6.865393932755007"><ele>1359.5</ele><time>2026-03-22T10:03:28.998Z</time></trkpt><trkpt lat="30.711651425527588" lon="-6.865525577274789"><ele>1358.75</ele><time>2026-03-22T10:03:29.998Z</time></trkpt><trkpt lat="30.71157379538536" lon="-6.865642627203379"><ele>1358.0</ele><time>2026-03-22T10:03:30.998Z</time></trkpt><trkpt lat="30.71148930297721" lon="-6.865745007044824"><ele>1358.0</ele><time>2026-03-22T10:03:31.998Z</time></trkpt><trkpt lat="30.711412358560192" lon="-6.8658228074170875"><ele>1358.0</ele><time>2026-03-22T10:03:32.998Z</time></trkpt><trkpt lat="30.71134587001539" lon="-6.865883750014895"><ele>1358.0</ele><time>2026-03-22T10:03:33.998Z</time></trkpt><trkpt lat="30.71127119415121" lon="-6.865931515133856"><ele>1358.0</ele><time>2026-03-22T10:03:34.998Z</time></trkpt><trkpt lat="30.71119640267584" lon="-6.865976922713443"><ele>1358.0</ele><time>2026-03-22T10:03:35.998Z</time></trkpt><trkpt lat="30.71110537911061" lon="-6.866011610268852"><ele>1357.0</ele><time>2026-03-22T10:03:36.998Z</time></trkpt><trkpt lat="30.710995619560045" lon="-6.866040345545368"><ele>1356.0</ele><time>2026-03-22T10:03:37.998Z</time></trkpt><trkpt lat="30.710840363533855" lon="-6.866083073872482"><ele>1355.0</ele><time>2026-03-22T10:03:38.998Z</time></trkpt><trkpt lat="30.71067604842504" lon="-6.866152143401057"><ele>1354.0</ele><time>2026-03-22T10:03:39.998Z</time></trkpt><trkpt lat="30.7104981829577" lon="-6.86623471076485"><ele>1354.0</ele><time>2026-03-22T10:03:40.998Z</time></trkpt><trkpt lat="30.710353287969273" lon="-6.86631617698335"><ele>1354.0</ele><time>2026-03-22T10:03:41.998Z</time></trkpt><trkpt lat="30.7102373490665" lon="-6.866400009137226"><ele>1354.0</ele><time>2026-03-22T10:03:42.998Z</time></trkpt><trkpt lat="30.710142556160086" lon="-6.8664773275230715"><ele>1354.0</ele><time>2026-03-22T10:03:43.998Z</time></trkpt><trkpt lat="30.710057209485626" lon="-6.866533575727039"><ele>1355.0</ele><time>2026-03-22T10:03:44.998Z</time></trkpt><trkpt lat="30.709966283357495" lon="-6.866563007664804"><ele>1356.0</ele><time>2026-03-22T10:03:45.998Z</time></trkpt><trkpt lat="30.70988655970409" lon="-6.866548763194296"><ele>1357.0</ele><time>2026-03-22T10:03:46.998Z</time></trkpt><trkpt lat="30.709805507716915" lon="-6.866519800684375"><ele>1358.0</ele><time>2026-03-22T10:03:47.998Z</time></trkpt><trkpt lat="30.709716339391544" lon="-6.866502741428791"><ele>1359.0</ele><time>2026-03-22T10:03:48.998Z</time></trkpt><trkpt lat="30.709621547521696" lon="-6.86650491645681"><ele>1360.0</ele><time>2026-03-22T10:03:49.998Z</time></trkpt><trkpt lat="30.70954143328648" lon="-6.866501901035045"><ele>1360.0</ele><time>2026-03-22T10:03:50.998Z</time></trkpt><trkpt lat="30.70946075876031" lon="-6.866494038625219"><ele>1360.0</ele><time>2026-03-22T10:03:51.998Z</time></trkpt><trkpt lat="30.709381215087866" lon="-6.866503911013583"><ele>1360.0</ele><time>2026-03-22T10:03:52.998Z</time></trkpt><trkpt lat="30.70931148502489" lon="-6.866544487475487"><ele>1360.0</ele><time>2026-03-22T10:03:53.998Z</time></trkpt><trkpt lat="30.709239860390902" lon="-6.866625278121318"><ele>1360.0</ele><time>2026-03-22T10:03:55.998Z</time></trkpt><trkpt lat="30.70914068225158" lon="-6.866626841923958"><ele>1360.0</ele><time>2026-03-22T10:03:57.998Z</time></trkpt><trkpt lat="30.709071648676264" lon="-6.866571685323788"><ele>1361.3333333333333</ele><time>2026-03-22T10:03:58.998Z</time></trkpt><trkpt lat="30.708984797569418" lon="-6.866510340070286"><ele>1362.6666666666665</ele><time>2026-03-22T10:03:59.998Z</time></trkpt><trkpt lat="30.70890264169766" lon="-6.866454941042687"><ele>1364.0</ele><time>2026-03-22T10:04:00.998Z</time></trkpt><trkpt lat="30.70882560123888" lon="-6.866402085808958"><ele>1365.3333333333333</ele><time>2026-03-22T10:04:01.998Z</time></trkpt><trkpt lat="30.708755386324846" lon="-6.866348154517192"><ele>1366.6666666666667</ele><time>2026-03-22T10:04:02.998Z</time></trkpt><trkpt lat="30.708684301092976" lon="-6.866315947481124"><ele>1368.0</ele><time>2026-03-22T10:04:03.998Z</time></trkpt><trkpt lat="30.70861087044793" lon="-6.866305052557588"><ele>1367.5</ele><time>2026-03-22T10:04:04.998Z</time></trkpt><trkpt lat="30.708540385309025" lon="-6.866323715324323"><ele>1367.0</ele><time>2026-03-22T10:04:05.998Z</time></trkpt><trkpt lat="30.708483332217416" lon="-6.8663799104436105"><ele>1366.5</ele><time>2026-03-22T10:04:06.998Z</time></trkpt><trkpt lat="30.708417618709465" lon="-6.866447061169878"><ele>1366.0</ele><time>2026-03-22T10:04:07.998Z</time></trkpt><trkpt lat="30.70834236997206" lon="-6.866506593845467"><ele>1365.5</ele><time>2026-03-22T10:04:08.998Z</time></trkpt><trkpt lat="30.708271789688204" lon="-6.866556983830499"><ele>1365.0</ele><time>2026-03-22T10:04:09.998Z</time></trkpt><trkpt lat="30.708190112799706" lon="-6.866597822096657"><ele>1365.0</ele><time>2026-03-22T10:04:10.998Z</time></trkpt><trkpt lat="30.708116450129225" lon="-6.866639074504216"><ele>1365.0</ele><time>2026-03-22T10:04:11.998Z</time></trkpt><trkpt lat="30.70805087490581" lon="-6.8666909511233944"><ele>1365.0</ele><time>2026-03-22T10:04:12.998Z</time></trkpt><trkpt lat="30.707990862185085" lon="-6.866748833158411"><ele>1365.0</ele><time>2026-03-22T10:04:13.998Z</time></trkpt><trkpt lat="30.707925985415855" lon="-6.866805715853732"><ele>1365.0</ele><time>2026-03-22T10:04:14.998Z</time></trkpt><trkpt lat="30.707830851588408" lon="-6.866858835405254"><ele>1365.0</ele><time>2026-03-22T10:04:15.998Z</time></trkpt><trkpt lat="30.707731274011632" lon="-6.866901520612646"><ele>1363.2</ele><time>2026-03-22T10:04:16.998Z</time></trkpt><trkpt lat="30.707639231898746" lon="-6.8669453802700025"><ele>1361.4</ele><time>2026-03-22T10:04:17.998Z</time></trkpt><trkpt lat="30.70756408426438" lon="-6.866992761763903"><ele>1359.6</ele><time>2026-03-22T10:04:18.998Z</time></trkpt><trkpt lat="30.707488295570585" lon="-6.867035746456917"><ele>1357.8</ele><time>2026-03-22T10:04:19.998Z</time></trkpt><trkpt lat="30.707418982549093" lon="-6.867055243637047"><ele>1356.0</ele><time>2026-03-22T10:04:20.998Z</time></trkpt><trkpt lat="30.707309256104445" lon="-6.867064549867096"><ele>1356.0</ele><time>2026-03-22T10:04:22.998Z</time></trkpt><trkpt lat="30.70721649730566" lon="-6.8670642226366265"><ele>1356.0</ele><time>2026-03-22T10:04:23.998Z</time></trkpt><trkpt lat="30.707121772817043" lon="-6.867055492367031"><ele>1356.0</ele><time>2026-03-22T10:04:24.998Z</time></trkpt><trkpt lat="30.707025622348418" lon="-6.86701336987425"><ele>1356.0</ele><time>2026-03-22T10:04:25.998Z</time></trkpt><trkpt lat="30.70690351255349" lon="-6.866952609351165"><ele>1356.0</ele><time>2026-03-22T10:04:26.998Z</time></trkpt><trkpt lat="30.706754931675043" lon="-6.866886055102377"><ele>1357.0</ele><time>2026-03-22T10:04:27.998Z</time></trkpt><trkpt lat="30.70664519909574" lon="-6.866830194993131"><ele>1358.0</ele><time>2026-03-22T10:04:28.998Z</time></trkpt><trkpt lat="30.706577324969874" lon="-6.866768412020778"><ele>1359.0</ele><time>2026-03-22T10:04:29.998Z</time></trkpt><trkpt lat="30.706505672708328" lon="-6.866700337966978"><ele>1360.0</ele><time>2026-03-22T10:04:30.998Z</time></trkpt><trkpt lat="30.70638906252787" lon="-6.866647753005267"><ele>1361.0</ele><time>2026-03-22T10:04:31.998Z</time></trkpt><trkpt lat="30.706257355297957" lon="-6.866583709839484"><ele>1361.0</ele><time>2026-03-22T10:04:32.998Z</time></trkpt><trkpt lat="30.706171470722655" lon="-6.866497360820543"><ele>1361.0</ele><time>2026-03-22T10:04:33.998Z</time></trkpt><trkpt lat="30.706120955288146" lon="-6.866366831721042"><ele>1361.0</ele><time>2026-03-22T10:04:35Z</time></trkpt><trkpt lat="30.7061145046727" lon="-6.866247726054996"><ele>1361.0</ele><time>2026-03-22T10:04:35.999Z</time></trkpt><trkpt lat="30.706134243919585" lon="-6.866118647736186"><ele>1361.0</ele><time>2026-03-22T10:04:36.999Z</time></trkpt><trkpt lat="30.70615516887609" lon="-6.86597636736496"><ele>1361.0</ele><time>2026-03-22T10:04:37.999Z</time></trkpt><trkpt lat="30.706157470308895" lon="-6.865854948712372"><ele>1361.0</ele><time>2026-03-22T10:04:38.999Z</time></trkpt><trkpt lat="30.70618638403454" lon="-6.865742791140426"><ele>1361.0</ele><time>2026-03-22T10:04:41Z</time></trkpt><trkpt lat="30.70619768028697" lon="-6.865627644221758"><ele>1361.0</ele><time>2026-03-22T10:04:42.999Z</time></trkpt><trkpt lat="30.70616841684543" lon="-6.865506635226881"><ele>1362.1999999999998</ele><time>2026-03-22T10:04:44.999Z</time></trkpt><trkpt lat="30.70605919914498" lon="-6.865445443813703"><ele>1363.3999999999999</ele><time>2026-03-22T10:04:46.999Z</time></trkpt><trkpt lat="30.7059739751394" lon="-6.865516569355288"><ele>1364.6</ele><time>2026-03-22T10:04:48.999Z</time></trkpt><trkpt lat="30.70592772610916" lon="-6.865611318582839"><ele>1365.8</ele><time>2026-03-22T10:04:50.999Z</time></trkpt><trkpt lat="30.705892222985383" lon="-6.865708813849618"><ele>1367.0</ele><time>2026-03-22T10:04:52.999Z</time></trkpt><trkpt lat="30.705856207567106" lon="-6.86578389872988"><ele>1367.0</ele><time>2026-03-22T10:04:54.999Z</time></trkpt><trkpt lat="30.70577799237968" lon="-6.865847983005429"><ele>1367.0</ele><time>2026-03-22T10:04:57.999Z</time></trkpt><trkpt lat="30.705669685629303" lon="-6.865896769082447"><ele>1367.0</ele><time>2026-03-22T10:04:59.999Z</time></trkpt><trkpt lat="30.705611954241093" lon="-6.865946542330012"><ele>1367.0</ele><time>2026-03-22T10:05:00.999Z</time></trkpt><trkpt lat="30.705572278375072" lon="-6.866011470588149"><ele>1367.0</ele><time>2026-03-22T10:05:01.999Z</time></trkpt><trkpt lat="30.705513864162132" lon="-6.866067636479219"><ele>1367.0</ele><time>2026-03-22T10:05:02.999Z</time></trkpt><trkpt lat="30.705450390039093" lon="-6.8661285104168535"><ele>1366.6666666666667</ele><time>2026-03-22T10:05:03.999Z</time></trkpt><trkpt lat="30.705379682771685" lon="-6.866196156203647"><ele>1366.3333333333335</ele><time>2026-03-22T10:05:04.999Z</time></trkpt><trkpt lat="30.705322531069065" lon="-6.866277965286488"><ele>1366.0</ele><time>2026-03-22T10:05:05.999Z</time></trkpt><trkpt lat="30.70526812718051" lon="-6.8663424066479894"><ele>1365.6666666666667</ele><time>2026-03-22T10:05:06.999Z</time></trkpt><trkpt lat="30.70520891822194" lon="-6.866381600553106"><ele>1365.3333333333333</ele><time>2026-03-22T10:05:07.999Z</time></trkpt><trkpt lat="30.705137697227418" lon="-6.8664177143617104"><ele>1365.0</ele><time>2026-03-22T10:05:08.999Z</time></trkpt><trkpt lat="30.705057479333757" lon="-6.866447503414405"><ele>1366.3333333333333</ele><time>2026-03-22T10:05:09.999Z</time></trkpt><trkpt lat="30.704968027454655" lon="-6.866464643596255"><ele>1367.6666666666667</ele><time>2026-03-22T10:05:10.999Z</time></trkpt><trkpt lat="30.70488553264896" lon="-6.866496752147108"><ele>1369.0</ele><time>2026-03-22T10:05:11.999Z</time></trkpt><trkpt lat="30.704811814453368" lon="-6.866545573796231"><ele>1370.3333333333335</ele><time>2026-03-22T10:05:12.999Z</time></trkpt><trkpt lat="30.7047426308426" lon="-6.866573453374391"><ele>1371.6666666666667</ele><time>2026-03-22T10:05:13.999Z</time></trkpt><trkpt lat="30.704664182745862" lon="-6.866584431421317"><ele>1373.0</ele><time>2026-03-22T10:05:14.999Z</time></trkpt><trkpt lat="30.704585175820107" lon="-6.8665767570140375"><ele>1373.0</ele><time>2026-03-22T10:05:15.999Z</time></trkpt><trkpt lat="30.70449965345722" lon="-6.86656524127794"><ele>1373.0</ele><time>2026-03-22T10:05:16.999Z</time></trkpt><trkpt lat="30.70440103726519" lon="-6.866558554166515"><ele>1373.0</ele><time>2026-03-22T10:05:17.999Z</time></trkpt><trkpt lat="30.704296287120478" lon="-6.866554830326578"><ele>1373.0</ele><time>2026-03-22T10:05:18.999Z</time></trkpt><trkpt lat="30.704205617118294" lon="-6.866537556442448"><ele>1373.0</ele><time>2026-03-22T10:05:19.999Z</time></trkpt><trkpt lat="30.704120592250582" lon="-6.866541973089977"><ele>1371.6000000000001</ele><time>2026-03-22T10:05:20.999Z</time></trkpt><trkpt lat="30.704036726516126" lon="-6.866569243140787"><ele>1370.2</ele><time>2026-03-22T10:05:21.999Z</time></trkpt><trkpt lat="30.703953310067554" lon="-6.866595567405363"><ele>1368.8</ele><time>2026-03-22T10:05:22.999Z</time></trkpt><trkpt lat="30.70387327231534" lon="-6.866585714474341"><ele>1367.4</ele><time>2026-03-22T10:05:23.999Z</time></trkpt><trkpt lat="30.703784977772354" lon="-6.866520766010271"><ele>1366.0</ele><time>2026-03-22T10:05:24.999Z</time></trkpt><trkpt lat="30.70371857067305" lon="-6.866418891205933"><ele>1366.0</ele><time>2026-03-22T10:05:25.999Z</time></trkpt><trkpt lat="30.703664872962648" lon="-6.866300490196428"><ele>1366.0</ele><time>2026-03-22T10:05:26.999Z</time></trkpt><trkpt lat="30.703613020350623" lon="-6.866202977955423"><ele>1366.0</ele><time>2026-03-22T10:05:27.999Z</time></trkpt><trkpt lat="30.703548852392853" lon="-6.866142586325886"><ele>1366.0</ele><time>2026-03-22T10:05:28.999Z</time></trkpt><trkpt lat="30.70346656479702" lon="-6.866132721581351"><ele>1366.0</ele><time>2026-03-22T10:05:29.999Z</time></trkpt><trkpt lat="30.703355532589175" lon="-6.8661219740623745"><ele>1365.25</ele><time>2026-03-22T10:05:30.999Z</time></trkpt><trkpt lat="30.703230942329153" lon="-6.8661160024630545"><ele>1364.5</ele><time>2026-03-22T10:05:31.999Z</time></trkpt><trkpt lat="30.70310055637699" lon="-6.866103839736657"><ele>1363.75</ele><time>2026-03-22T10:05:32.999Z</time></trkpt><trkpt lat="30.702969407158825" lon="-6.866097466635675"><ele>1363.0</ele><time>2026-03-22T10:05:33.999Z</time></trkpt><trkpt lat="30.70284773036602" lon="-6.866110259321252"><ele>1363.25</ele><time>2026-03-22T10:05:34.999Z</time></trkpt><trkpt lat="30.70272759099057" lon="-6.866125313921283"><ele>1363.5</ele><time>2026-03-22T10:05:35.999Z</time></trkpt><trkpt lat="30.702607995920612" lon="-6.866118163478886"><ele>1363.75</ele><time>2026-03-22T10:05:36.999Z</time></trkpt><trkpt lat="30.70249431748581" lon="-6.866089137278344"><ele>1364.0</ele><time>2026-03-22T10:05:37.999Z</time></trkpt><trkpt lat="30.70237343949554" lon="-6.866035462401043"><ele>1364.0</ele><time>2026-03-22T10:05:38.999Z</time></trkpt><trkpt lat="30.702250845963064" lon="-6.86598971476996"><ele>1364.0</ele><time>2026-03-22T10:05:39.999Z</time></trkpt><trkpt lat="30.70213054917256" lon="-6.865950683155845"><ele>1364.0</ele><time>2026-03-22T10:05:40.999Z</time></trkpt><trkpt lat="30.70200636192922" lon="-6.865922792580138"><ele>1364.0</ele><time>2026-03-22T10:05:41.999Z</time></trkpt><trkpt lat="30.701888325022086" lon="-6.865898477680636"><ele>1364.5</ele><time>2026-03-22T10:05:42.999Z</time></trkpt><trkpt lat="30.701766947490206" lon="-6.865857766747755"><ele>1365.0</ele><time>2026-03-22T10:05:43.999Z</time></trkpt><trkpt lat="30.70164710404968" lon="-6.865804778787232"><ele>1365.5</ele><time>2026-03-22T10:05:44.999Z</time></trkpt><trkpt lat="30.70154021143462" lon="-6.865747839797941"><ele>1366.0</ele><time>2026-03-22T10:05:45.999Z</time></trkpt><trkpt lat="30.70142764902648" lon="-6.865685359095537"><ele>1366.0</ele><time>2026-03-22T10:05:46.999Z</time></trkpt><trkpt lat="30.701260416993364" lon="-6.865606281475913"><ele>1366.0</ele><time>2026-03-22T10:05:47.999Z</time></trkpt><trkpt lat="30.70107270218011" lon="-6.865556974207766"><ele>1366.0</ele><time>2026-03-22T10:05:48.999Z</time></trkpt><trkpt lat="30.70091032696675" lon="-6.865509254002493"><ele>1367.5</ele><time>2026-03-22T10:05:49.999Z</time></trkpt><trkpt lat="30.700791962652502" lon="-6.8654587290705305"><ele>1369.0</ele><time>2026-03-22T10:05:50.999Z</time></trkpt><trkpt lat="30.700664555849375" lon="-6.865420855359301"><ele>1370.5</ele><time>2026-03-22T10:05:51.999Z</time></trkpt><trkpt lat="30.700525835543" lon="-6.865383467980667"><ele>1372.0</ele><time>2026-03-22T10:05:52.999Z</time></trkpt><trkpt lat="30.700388894123115" lon="-6.865343210654654"><ele>1372.0</ele><time>2026-03-22T10:05:53.999Z</time></trkpt><trkpt lat="30.70028062016247" lon="-6.865334253013652"><ele>1372.0</ele><time>2026-03-22T10:05:54.999Z</time></trkpt><trkpt lat="30.700193061063608" lon="-6.8653055727048455"><ele>1372.0</ele><time>2026-03-22T10:05:55.999Z</time></trkpt><trkpt lat="30.70010809470668" lon="-6.865230985614947"><ele>1372.0</ele><time>2026-03-22T10:05:56.999Z</time></trkpt><trkpt lat="30.700018305759738" lon="-6.865137195526511"><ele>1372.0</ele><time>2026-03-22T10:05:57.999Z</time></trkpt><trkpt lat="30.699927148179285" lon="-6.865065978066218"><ele>1372.5</ele><time>2026-03-22T10:05:58.999Z</time></trkpt><trkpt lat="30.699810629268104" lon="-6.865034146152649"><ele>1373.0</ele><time>2026-03-22T10:05:59.999Z</time></trkpt><trkpt lat="30.699702742780318" lon="-6.865008714500448"><ele>1373.5</ele><time>2026-03-22T10:06:00.999Z</time></trkpt><trkpt lat="30.699573993963643" lon="-6.86498147850247"><ele>1374.0</ele><time>2026-03-22T10:06:01.999Z</time></trkpt><trkpt lat="30.69943918242121" lon="-6.864945960638008"><ele>1375.0</ele><time>2026-03-22T10:06:02.999Z</time></trkpt><trkpt lat="30.699295996539817" lon="-6.864862391932649"><ele>1376.0</ele><time>2026-03-22T10:06:03.999Z</time></trkpt><trkpt lat="30.699159403966654" lon="-6.864732398601375"><ele>1377.0</ele><time>2026-03-22T10:06:04.999Z</time></trkpt><trkpt lat="30.69904781426342" lon="-6.864564965534095"><ele>1377.0</ele><time>2026-03-22T10:06:05.999Z</time></trkpt><trkpt lat="30.698937065366653" lon="-6.86439562031323"><ele>1377.0</ele><time>2026-03-22T10:06:06.999Z</time></trkpt><trkpt lat="30.69883803429132" lon="-6.86427347524543"><ele>1377.0</ele><time>2026-03-22T10:06:07.999Z</time></trkpt><trkpt lat="30.698771201469086" lon="-6.8641637698582425"><ele>1377.0</ele><time>2026-03-22T10:06:08.999Z</time></trkpt><trkpt lat="30.69874002967758" lon="-6.864060922939465"><ele>1376.8333333333333</ele><time>2026-03-22T10:06:09.999Z</time></trkpt><trkpt lat="30.698743232188725" lon="-6.863967771917827"><ele>1376.6666666666667</ele><time>2026-03-22T10:06:10.999Z</time></trkpt><trkpt lat="30.698766739444352" lon="-6.863884667164754"><ele>1376.5</ele><time>2026-03-22T10:06:11.999Z</time></trkpt><trkpt lat="30.69878127923575" lon="-6.863801945851463"><ele>1376.3333333333335</ele><time>2026-03-22T10:06:12.999Z</time></trkpt><trkpt lat="30.698768496727283" lon="-6.863720354438147"><ele>1376.1666666666667</ele><time>2026-03-22T10:06:13.999Z</time></trkpt><trkpt lat="30.698739429818378" lon="-6.86363060455984"><ele>1376.0</ele><time>2026-03-22T10:06:14.999Z</time></trkpt><trkpt lat="30.698711016096237" lon="-6.863548662760605"><ele>1376.0</ele><time>2026-03-22T10:06:15.999Z</time></trkpt><trkpt lat="30.698681011047846" lon="-6.863473790138775"><ele>1376.0</ele><time>2026-03-22T10:06:16.999Z</time></trkpt><trkpt lat="30.698627706315985" lon="-6.8634131742912"><ele>1376.0</ele><time>2026-03-22T10:06:17.999Z</time></trkpt><trkpt lat="30.698560586006455" lon="-6.8633743225788155"><ele>1376.0</ele><time>2026-03-22T10:06:18.999Z</time></trkpt><trkpt lat="30.69848373570749" lon="-6.863354938733844"><ele>1376.0</ele><time>2026-03-22T10:06:19.999Z</time></trkpt><trkpt lat="30.6983971296717" lon="-6.863359933634588"><ele>1376.0</ele><time>2026-03-22T10:06:20.999Z</time></trkpt><trkpt lat="30.69830236190424" lon="-6.863370727107422"><ele>1374.75</ele><time>2026-03-22T10:06:21.999Z</time></trkpt><trkpt lat="30.698201715176157" lon="-6.86336787171587"><ele>1373.5</ele><time>2026-03-22T10:06:22.999Z</time></trkpt><trkpt lat="30.69808330713335" lon="-6.863347267117774"><ele>1372.25</ele><time>2026-03-22T10:06:23.999Z</time></trkpt><trkpt lat="30.697962790306843" lon="-6.86333138944578"><ele>1371.0</ele><time>2026-03-22T10:06:24.999Z</time></trkpt><trkpt lat="30.69785028511338" lon="-6.863321859446743"><ele>1370.1999999999998</ele><time>2026-03-22T10:06:25.999Z</time></trkpt><trkpt lat="30.69773263395431" lon="-6.86330280287714"><ele>1369.3999999999999</ele><time>2026-03-22T10:06:26.999Z</time></trkpt><trkpt lat="30.697636101602523" lon="-6.8632667644870144"><ele>1368.6</ele><time>2026-03-22T10:06:27.999Z</time></trkpt><trkpt lat="30.697542879261302" lon="-6.863209223285517"><ele>1367.8</ele><time>2026-03-22T10:06:28.999Z</time></trkpt><trkpt lat="30.69747068455927" lon="-6.8631642142222"><ele>1367.0</ele><time>2026-03-22T10:06:29.999Z</time></trkpt><trkpt lat="30.69741029205388" lon="-6.8631280250817115"><ele>1367.0</ele><time>2026-03-22T10:06:30.999Z</time></trkpt><trkpt lat="30.69735352724274" lon="-6.863085784992722"><ele>1367.0</ele><time>2026-03-22T10:06:31.999Z</time></trkpt><trkpt lat="30.69729130690672" lon="-6.862994711927669"><ele>1367.0</ele><time>2026-03-22T10:06:33.999Z</time></trkpt><trkpt lat="30.697213051386647" lon="-6.8629180348508285"><ele>1367.0</ele><time>2026-03-22T10:06:35.999Z</time></trkpt><trkpt lat="30.69712890592729" lon="-6.862895068755871"><ele>1367.0</ele><time>2026-03-22T10:06:37.999Z</time></trkpt><trkpt lat="30.69704387245311" lon="-6.862940076993312"><ele>1367.0</ele><time>2026-03-22T10:06:39.999Z</time></trkpt><trkpt lat="30.696948260672485" lon="-6.8629384050969096"><ele>1367.0</ele><time>2026-03-22T10:06:41.999Z</time></trkpt><trkpt lat="30.69684318980235" lon="-6.8628528314915975"><ele>1367.0</ele><time>2026-03-22T10:06:43.999Z</time></trkpt><trkpt lat="30.696755517153534" lon="-6.8627997819626225"><ele>1367.0</ele><time>2026-03-22T10:06:44.999Z</time></trkpt><trkpt lat="30.69665099340435" lon="-6.862755144688029"><ele>1367.0</ele><time>2026-03-22T10:06:45.999Z</time></trkpt><trkpt lat="30.696544558342172" lon="-6.862696032738856"><ele>1367.0</ele><time>2026-03-22T10:06:47Z</time></trkpt><trkpt lat="30.696457688176697" lon="-6.862628914073935"><ele>1367.0</ele><time>2026-03-22T10:06:47.999Z</time></trkpt><trkpt lat="30.696376710856885" lon="-6.862559695467378"><ele>1367.0</ele><time>2026-03-22T10:06:48.999Z</time></trkpt><trkpt lat="30.69630799493442" lon="-6.862473955067759"><ele>1367.0</ele><time>2026-03-22T10:06:49.999Z</time></trkpt><trkpt lat="30.696240576666266" lon="-6.862381814618605"><ele>1367.0</ele><time>2026-03-22T10:06:50.999Z</time></trkpt><trkpt lat="30.69617238953649" lon="-6.862285280310817"><ele>1367.1999999999998</ele><time>2026-03-22T10:06:51.999Z</time></trkpt><trkpt lat="30.696102010481866" lon="-6.862193166978012"><ele>1367.4</ele><time>2026-03-22T10:06:52.999Z</time></trkpt><trkpt lat="30.696028954262914" lon="-6.862098512162709"><ele>1367.6</ele><time>2026-03-22T10:06:53.999Z</time></trkpt><trkpt lat="30.69596047005584" lon="-6.862001360479112"><ele>1367.8000000000002</ele><time>2026-03-22T10:06:54.999Z</time></trkpt><trkpt lat="30.695893443904623" lon="-6.861902384440633"><ele>1368.0</ele><time>2026-03-22T10:06:55.999Z</time></trkpt><trkpt lat="30.695832164722407" lon="-6.861805595414518"><ele>1369.25</ele><time>2026-03-22T10:06:56.999Z</time></trkpt><trkpt lat="30.695769838944273" lon="-6.861703557561738"><ele>1370.5</ele><time>2026-03-22T10:06:57.999Z</time></trkpt><trkpt lat="30.695699255477937" lon="-6.8616022702121375"><ele>1371.75</ele><time>2026-03-22T10:06:58.999Z</time></trkpt><trkpt lat="30.695623028921826" lon="-6.861501950368387"><ele>1373.0</ele><time>2026-03-22T10:06:59.999Z</time></trkpt><trkpt lat="30.695547562075205" lon="-6.8613803504694015"><ele>1373.0</ele><time>2026-03-22T10:07:00.999Z</time></trkpt><trkpt lat="30.695478402374" lon="-6.861261654505342"><ele>1373.0</ele><time>2026-03-22T10:07:01.999Z</time></trkpt><trkpt lat="30.695422780700397" lon="-6.861155103749381"><ele>1373.0</ele><time>2026-03-22T10:07:02.999Z</time></trkpt><trkpt lat="30.695385173912285" lon="-6.861059953515838"><ele>1373.0</ele><time>2026-03-22T10:07:03.999Z</time></trkpt><trkpt lat="30.69534096142548" lon="-6.860956402672191"><ele>1373.0</ele><time>2026-03-22T10:07:04.999Z</time></trkpt><trkpt lat="30.695294269042336" lon="-6.860853617347409"><ele>1374.4</ele><time>2026-03-22T10:07:05.999Z</time></trkpt><trkpt lat="30.6952445396376" lon="-6.860749893850298"><ele>1375.8000000000002</ele><time>2026-03-22T10:07:06.999Z</time></trkpt><trkpt lat="30.695190965075447" lon="-6.860641952482269"><ele>1377.2</ele><time>2026-03-22T10:07:07.999Z</time></trkpt><trkpt lat="30.695133382044904" lon="-6.860530405057425"><ele>1378.6</ele><time>2026-03-22T10:07:08.999Z</time></trkpt><trkpt lat="30.69507991338652" lon="-6.86041378572581"><ele>1380.0</ele><time>2026-03-22T10:07:09.999Z</time></trkpt><trkpt lat="30.695038196752957" lon="-6.860304255188569"><ele>1380.0</ele><time>2026-03-22T10:07:10.999Z</time></trkpt><trkpt lat="30.695005360650214" lon="-6.860188987543331"><ele>1380.0</ele><time>2026-03-22T10:07:11.999Z</time></trkpt><trkpt lat="30.69497432956901" lon="-6.860063231395759"><ele>1380.0</ele><time>2026-03-22T10:07:12.999Z</time></trkpt><trkpt lat="30.694944828974506" lon="-6.859892293943781"><ele>1380.0</ele><time>2026-03-22T10:07:13.999Z</time></trkpt><trkpt lat="30.694895154776862" lon="-6.859750522195233"><ele>1381.0</ele><time>2026-03-22T10:07:14.999Z</time></trkpt><trkpt lat="30.69483344181372" lon="-6.859622386902621"><ele>1382.0</ele><time>2026-03-22T10:07:15.999Z</time></trkpt><trkpt lat="30.69479526151491" lon="-6.859435906975197"><ele>1383.0</ele><time>2026-03-22T10:07:16.999Z</time></trkpt><trkpt lat="30.69478378950798" lon="-6.859242000528067"><ele>1383.6000000000001</ele><time>2026-03-22T10:07:17.999Z</time></trkpt><trkpt lat="30.694765608344436" lon="-6.85910575725495"><ele>1384.2</ele><time>2026-03-22T10:07:18.999Z</time></trkpt><trkpt lat="30.69469939755048" lon="-6.8590001649436"><ele>1384.8</ele><time>2026-03-22T10:07:19.999Z</time></trkpt><trkpt lat="30.694635173640393" lon="-6.858908790056167"><ele>1385.4</ele><time>2026-03-22T10:07:20.999Z</time></trkpt><trkpt lat="30.694593468524157" lon="-6.858795211428075"><ele>1386.0</ele><time>2026-03-22T10:07:21.999Z</time></trkpt><trkpt lat="30.694542060786258" lon="-6.858693112971138"><ele>1386.0</ele><time>2026-03-22T10:07:22.999Z</time></trkpt><trkpt lat="30.694482011199483" lon="-6.858619915680997"><ele>1386.0</ele><time>2026-03-22T10:07:23.999Z</time></trkpt><trkpt lat="30.694388237523395" lon="-6.858601569962943"><ele>1386.0</ele><time>2026-03-22T10:07:24.999Z</time></trkpt><trkpt lat="30.694255782024346" lon="-6.858588288801132"><ele>1386.0</ele><time>2026-03-22T10:07:25.999Z</time></trkpt><trkpt lat="30.69411418474549" lon="-6.858555168824753"><ele>1385.5</ele><time>2026-03-22T10:07:26.999Z</time></trkpt><trkpt lat="30.694022083114625" lon="-6.858487510891105"><ele>1385.0</ele><time>2026-03-22T10:07:27.999Z</time></trkpt><trkpt lat="30.693961571111615" lon="-6.858385782003149"><ele>1384.5</ele><time>2026-03-22T10:07:28.999Z</time></trkpt><trkpt lat="30.693875440655397" lon="-6.858272196149699"><ele>1384.0</ele><time>2026-03-22T10:07:29.999Z</time></trkpt><trkpt lat="30.69378546560568" lon="-6.858150011501032"><ele>1385.25</ele><time>2026-03-22T10:07:30.999Z</time></trkpt><trkpt lat="30.69371982292173" lon="-6.858029177129559"><ele>1386.5</ele><time>2026-03-22T10:07:31.999Z</time></trkpt><trkpt lat="30.693669859124608" lon="-6.85789917352923"><ele>1387.75</ele><time>2026-03-22T10:07:32.999Z</time></trkpt><trkpt lat="30.693614672250245" lon="-6.857722515337269"><ele>1389.0</ele><time>2026-03-22T10:07:33.999Z</time></trkpt><trkpt lat="30.69356138280942" lon="-6.857565603036591"><ele>1389.0</ele><time>2026-03-22T10:07:34.999Z</time></trkpt><trkpt lat="30.693514065762866" lon="-6.857420953503807"><ele>1389.0</ele><time>2026-03-22T10:07:35.999Z</time></trkpt><trkpt lat="30.693465162479963" lon="-6.8572688710897065"><ele>1389.0</ele><time>2026-03-22T10:07:36.999Z</time></trkpt><trkpt lat="30.693401432756442" lon="-6.857126514494438"><ele>1389.0</ele><time>2026-03-22T10:07:37.999Z</time></trkpt><trkpt lat="30.693329689732508" lon="-6.857009499326851"><ele>1389.0</ele><time>2026-03-22T10:07:38.999Z</time></trkpt><trkpt lat="30.69326495335033" lon="-6.856917473352768"><ele>1389.0</ele><time>2026-03-22T10:07:39.999Z</time></trkpt><trkpt lat="30.693210905408947" lon="-6.856836592444562"><ele>1389.0</ele><time>2026-03-22T10:07:40.999Z</time></trkpt><trkpt lat="30.693168854594425" lon="-6.856745733984365"><ele>1389.0</ele><time>2026-03-22T10:07:41.999Z</time></trkpt><trkpt lat="30.693136591703073" lon="-6.856647944564486"><ele>1389.0</ele><time>2026-03-22T10:07:42.999Z</time></trkpt><trkpt lat="30.693101718896312" lon="-6.85653859450857"><ele>1389.8333333333333</ele><time>2026-03-22T10:07:43.999Z</time></trkpt><trkpt lat="30.693059097885524" lon="-6.8564551917021985"><ele>1390.6666666666667</ele><time>2026-03-22T10:07:44.999Z</time></trkpt><trkpt lat="30.693026788703975" lon="-6.856392102917912"><ele>1391.5</ele><time>2026-03-22T10:07:45.999Z</time></trkpt><trkpt lat="30.6930198151828" lon="-6.856269926630198"><ele>1392.3333333333335</ele><time>2026-03-22T10:07:47.999Z</time></trkpt><trkpt lat="30.693026408921327" lon="-6.856189986041686"><ele>1393.1666666666667</ele><time>2026-03-22T10:07:48.999Z</time></trkpt><trkpt lat="30.69302986913255" lon="-6.856106927246566"><ele>1394.0</ele><time>2026-03-22T10:07:49.999Z</time></trkpt><trkpt lat="30.69299602614056" lon="-6.855974284009377"><ele>1393.5</ele><time>2026-03-22T10:07:51.999Z</time></trkpt><trkpt lat="30.692961289424435" lon="-6.855867173508124"><ele>1393.0</ele><time>2026-03-22T10:07:53.999Z</time></trkpt><trkpt lat="30.69295691772644" lon="-6.8557916985269305"><ele>1392.5</ele><time>2026-03-22T10:07:54.999Z</time></trkpt><trkpt lat="30.69294832068257" lon="-6.8556971973567595"><ele>1392.0</ele><time>2026-03-22T10:07:55.999Z</time></trkpt><trkpt lat="30.69292602126493" lon="-6.855612979141753"><ele>1391.5</ele><time>2026-03-22T10:07:56.999Z</time></trkpt><trkpt lat="30.692874019821506" lon="-6.855549611548314"><ele>1391.0</ele><time>2026-03-22T10:07:57.999Z</time></trkpt><trkpt lat="30.6928058417873" lon="-6.855479289756285"><ele>1390.1999999999998</ele><time>2026-03-22T10:07:58.999Z</time></trkpt><trkpt lat="30.69272680414414" lon="-6.855400992731432"><ele>1389.3999999999999</ele><time>2026-03-22T10:07:59.999Z</time></trkpt><trkpt lat="30.692665202416343" lon="-6.855322039700483"><ele>1388.6</ele><time>2026-03-22T10:08:00.999Z</time></trkpt><trkpt lat="30.69260188099474" lon="-6.855249811767289"><ele>1387.8</ele><time>2026-03-22T10:08:01.999Z</time></trkpt><trkpt lat="30.692538879161404" lon="-6.855183154372581"><ele>1387.0</ele><time>2026-03-22T10:08:02.999Z</time></trkpt><trkpt lat="30.69246054891552" lon="-6.855097248968451"><ele>1386.0</ele><time>2026-03-22T10:08:03.999Z</time></trkpt><trkpt lat="30.692386969702834" lon="-6.8549992326555484"><ele>1385.0</ele><time>2026-03-22T10:08:04.999Z</time></trkpt><trkpt lat="30.69232202756796" lon="-6.854898077476557"><ele>1384.0</ele><time>2026-03-22T10:08:05.999Z</time></trkpt><trkpt lat="30.692249291999143" lon="-6.854802868944205"><ele>1383.0</ele><time>2026-03-22T10:08:06.999Z</time></trkpt><trkpt lat="30.69217668043322" lon="-6.854735557235978"><ele>1382.0</ele><time>2026-03-22T10:08:07.999Z</time></trkpt><trkpt lat="30.692093480710223" lon="-6.854663885895279"><ele>1382.0</ele><time>2026-03-22T10:08:08.999Z</time></trkpt><trkpt lat="30.69200326254776" lon="-6.85459862711092"><ele>1382.0</ele><time>2026-03-22T10:08:09.999Z</time></trkpt><trkpt lat="30.691919960842437" lon="-6.8545224901648965"><ele>1382.0</ele><time>2026-03-22T10:08:10.999Z</time></trkpt><trkpt lat="30.691838877162304" lon="-6.854454325279561"><ele>1382.0</ele><time>2026-03-22T10:08:11.999Z</time></trkpt><trkpt lat="30.691751993631676" lon="-6.854368373360893"><ele>1382.0</ele><time>2026-03-22T10:08:12.999Z</time></trkpt><trkpt lat="30.691657673692102" lon="-6.854298077129167"><ele>1380.25</ele><time>2026-03-22T10:08:13.999Z</time></trkpt><trkpt lat="30.691553206014756" lon="-6.854224480218328"><ele>1378.5</ele><time>2026-03-22T10:08:14.999Z</time></trkpt><trkpt lat="30.69145388102686" lon="-6.854166013260414"><ele>1376.75</ele><time>2026-03-22T10:08:15.999Z</time></trkpt><trkpt lat="30.691319009028767" lon="-6.854072348570279"><ele>1375.0</ele><time>2026-03-22T10:08:16.999Z</time></trkpt><trkpt lat="30.691200192432124" lon="-6.85396450428924"><ele>1375.0</ele><time>2026-03-22T10:08:17.999Z</time></trkpt><trkpt lat="30.69109728291014" lon="-6.8538838332038"><ele>1375.0</ele><time>2026-03-22T10:08:18.999Z</time></trkpt><trkpt lat="30.690993465538185" lon="-6.853835352323692"><ele>1375.0</ele><time>2026-03-22T10:08:19.999Z</time></trkpt><trkpt lat="30.69089708768778" lon="-6.853791775849717"><ele>1375.0</ele><time>2026-03-22T10:08:20.999Z</time></trkpt><trkpt lat="30.690794800628172" lon="-6.853769509792164"><ele>1375.0</ele><time>2026-03-22T10:08:21.999Z</time></trkpt><trkpt lat="30.690681537052505" lon="-6.853755859653163"><ele>1374.25</ele><time>2026-03-22T10:08:22.999Z</time></trkpt><trkpt lat="30.69055213713022" lon="-6.853741035684206"><ele>1373.5</ele><time>2026-03-22T10:08:23.999Z</time></trkpt><trkpt lat="30.69043318190207" lon="-6.8537201543338595"><ele>1372.75</ele><time>2026-03-22T10:08:24.999Z</time></trkpt><trkpt lat="30.69033351520968" lon="-6.853686987235041"><ele>1372.0</ele><time>2026-03-22T10:08:25.999Z</time></trkpt><trkpt lat="30.69023353163549" lon="-6.85362167530471"><ele>1371.5</ele><time>2026-03-22T10:08:26.999Z</time></trkpt><trkpt lat="30.69011713429673" lon="-6.853528606715675"><ele>1371.0</ele><time>2026-03-22T10:08:27.999Z</time></trkpt><trkpt lat="30.689992964513905" lon="-6.853431795523459"><ele>1370.5</ele><time>2026-03-22T10:08:28.999Z</time></trkpt><trkpt lat="30.68988005486429" lon="-6.85335725301706"><ele>1370.0</ele><time>2026-03-22T10:08:29.999Z</time></trkpt><trkpt lat="30.689777844955973" lon="-6.853280794836325"><ele>1370.0</ele><time>2026-03-22T10:08:30.999Z</time></trkpt><trkpt lat="30.689699343804868" lon="-6.853196051378872"><ele>1370.0</ele><time>2026-03-22T10:08:31.999Z</time></trkpt><trkpt lat="30.689614251408482" lon="-6.8530953681173905"><ele>1370.0</ele><time>2026-03-22T10:08:32.999Z</time></trkpt><trkpt lat="30.689520951034496" lon="-6.852994773563823"><ele>1370.0</ele><time>2026-03-22T10:08:33.999Z</time></trkpt><trkpt lat="30.689421573792853" lon="-6.852902876446438"><ele>1370.4</ele><time>2026-03-22T10:08:34.999Z</time></trkpt><trkpt lat="30.689320350601978" lon="-6.852824470139746"><ele>1370.8</ele><time>2026-03-22T10:08:35.999Z</time></trkpt><trkpt lat="30.6892337639924" lon="-6.852745800777715"><ele>1371.1999999999998</ele><time>2026-03-22T10:08:36.999Z</time></trkpt><trkpt lat="30.689171312117537" lon="-6.852654474641873"><ele>1371.6</ele><time>2026-03-22T10:08:37.999Z</time></trkpt><trkpt lat="30.689124274645472" lon="-6.852560825013945"><ele>1372.0</ele><time>2026-03-22T10:08:38.999Z</time></trkpt><trkpt lat="30.689061857276954" lon="-6.852500791944773"><ele>1372.0</ele><time>2026-03-22T10:08:39.999Z</time></trkpt><trkpt lat="30.688976495773538" lon="-6.852490795357372"><ele>1372.0</ele><time>2026-03-22T10:08:40.999Z</time></trkpt><trkpt lat="30.68887193289787" lon="-6.852482277439183"><ele>1372.0</ele><time>2026-03-22T10:08:41.999Z</time></trkpt><trkpt lat="30.6887659344266" lon="-6.852463085397795"><ele>1372.0</ele><time>2026-03-22T10:08:42.999Z</time></trkpt><trkpt lat="30.688659418749122" lon="-6.85244211014165"><ele>1372.0</ele><time>2026-03-22T10:08:43.999Z</time></trkpt><trkpt lat="30.68857157795346" lon="-6.8524206388032205"><ele>1371.1999999999998</ele><time>2026-03-22T10:08:44.999Z</time></trkpt><trkpt lat="30.688487067317784" lon="-6.852391792086684"><ele>1370.4</ele><time>2026-03-22T10:08:45.999Z</time></trkpt><trkpt lat="30.688409851856" lon="-6.852358825674809"><ele>1369.6</ele><time>2026-03-22T10:08:46.999Z</time></trkpt><trkpt lat="30.688331378311716" lon="-6.852308746915296"><ele>1368.8000000000002</ele><time>2026-03-22T10:08:47.999Z</time></trkpt><trkpt lat="30.68825564939408" lon="-6.852237851483445"><ele>1368.0</ele><time>2026-03-22T10:08:48.999Z</time></trkpt><trkpt lat="30.688189857268764" lon="-6.852153709515522"><ele>1368.0</ele><time>2026-03-22T10:08:49.999Z</time></trkpt><trkpt lat="30.688119627669582" lon="-6.852075331789919"><ele>1368.0</ele><time>2026-03-22T10:08:50.999Z</time></trkpt><trkpt lat="30.688037103542538" lon="-6.8520075826606925"><ele>1368.0</ele><time>2026-03-22T10:08:51.999Z</time></trkpt><trkpt lat="30.687967672838433" lon="-6.851972001055578"><ele>1368.0</ele><time>2026-03-22T10:08:52.999Z</time></trkpt><trkpt lat="30.687852508786296" lon="-6.851944475854762"><ele>1368.0</ele><time>2026-03-22T10:08:54.999Z</time></trkpt><trkpt lat="30.687729169704674" lon="-6.851897217406548"><ele>1368.4</ele><time>2026-03-22T10:08:56.999Z</time></trkpt><trkpt lat="30.687639384608843" lon="-6.851823482064425"><ele>1368.8000000000002</ele><time>2026-03-22T10:08:58.999Z</time></trkpt><trkpt lat="30.687584592271584" lon="-6.851752018390429"><ele>1369.2</ele><time>2026-03-22T10:09:00.999Z</time></trkpt><trkpt lat="30.687516671526627" lon="-6.851605877004303"><ele>1369.6</ele><time>2026-03-22T10:09:02.999Z</time></trkpt><trkpt lat="30.687469710949124" lon="-6.8515161727049305"><ele>1370.0</ele><time>2026-03-22T10:09:03.999Z</time></trkpt><trkpt lat="30.68739913813931" lon="-6.851416372100634"><ele>1370.0</ele><time>2026-03-22T10:09:05.999Z</time></trkpt><trkpt lat="30.68728043411636" lon="-6.851391723096733"><ele>1370.0</ele><time>2026-03-22T10:09:07.999Z</time></trkpt><trkpt lat="30.68720591618145" lon="-6.851389899370634"><ele>1370.0</ele><time>2026-03-22T10:09:08.999Z</time></trkpt><trkpt lat="30.687128560817147" lon="-6.851389873718586"><ele>1370.0</ele><time>2026-03-22T10:09:09.999Z</time></trkpt><trkpt lat="30.687051113941564" lon="-6.851378224393026"><ele>1370.0</ele><time>2026-03-22T10:09:10.999Z</time></trkpt><trkpt lat="30.68697131787306" lon="-6.851358743226072"><ele>1370.0</ele><time>2026-03-22T10:09:11.999Z</time></trkpt><trkpt lat="30.686897577674873" lon="-6.851324576613797"><ele>1369.6666666666667</ele><time>2026-03-22T10:09:12.999Z</time></trkpt><trkpt lat="30.686821821069902" lon="-6.851285502174406"><ele>1369.3333333333335</ele><time>2026-03-22T10:09:13.999Z</time></trkpt><trkpt lat="30.686749672837507" lon="-6.851247367118543"><ele>1369.0</ele><time>2026-03-22T10:09:14.999Z</time></trkpt><trkpt lat="30.68667960648107" lon="-6.851208704020222"><ele>1368.6666666666667</ele><time>2026-03-22T10:09:15.999Z</time></trkpt><trkpt lat="30.68660868000482" lon="-6.851173566789702"><ele>1368.3333333333333</ele><time>2026-03-22T10:09:16.999Z</time></trkpt><trkpt lat="30.686532089417472" lon="-6.851143878489362"><ele>1368.0</ele><time>2026-03-22T10:09:17.999Z</time></trkpt><trkpt lat="30.686453334653276" lon="-6.8511088355116545"><ele>1368.0</ele><time>2026-03-22T10:09:18.999Z</time></trkpt><trkpt lat="30.686383127129123" lon="-6.851067933442196"><ele>1368.0</ele><time>2026-03-22T10:09:19.999Z</time></trkpt><trkpt lat="30.686304159556663" lon="-6.85100711371785"><ele>1368.0</ele><time>2026-03-22T10:09:20.999Z</time></trkpt><trkpt lat="30.686220778783756" lon="-6.850930873668192"><ele>1368.0</ele><time>2026-03-22T10:09:21.999Z</time></trkpt><trkpt lat="30.68610007408244" lon="-6.850838949898495"><ele>1368.0</ele><time>2026-03-22T10:09:22.999Z</time></trkpt><trkpt lat="30.685964608043236" lon="-6.850722399159044"><ele>1367.6666666666667</ele><time>2026-03-22T10:09:23.999Z</time></trkpt><trkpt lat="30.68581798589579" lon="-6.850565213622521"><ele>1367.3333333333335</ele><time>2026-03-22T10:09:24.999Z</time></trkpt><trkpt lat="30.685688471319157" lon="-6.850383216884686"><ele>1367.0</ele><time>2026-03-22T10:09:25.999Z</time></trkpt><trkpt lat="30.68559438874308" lon="-6.850204064290146"><ele>1368.0</ele><time>2026-03-22T10:09:26.999Z</time></trkpt><trkpt lat="30.685520359769864" lon="-6.850055822992858"><ele>1369.0</ele><time>2026-03-22T10:09:27.999Z</time></trkpt><trkpt lat="30.685429258716024" lon="-6.849939536431082"><ele>1370.0</ele><time>2026-03-22T10:09:28.999Z</time></trkpt><trkpt lat="30.685338756815856" lon="-6.849857966810806"><ele>1371.0</ele><time>2026-03-22T10:09:29.999Z</time></trkpt><trkpt lat="30.685239657197343" lon="-6.849802160314939"><ele>1371.0</ele><time>2026-03-22T10:09:30.999Z</time></trkpt><trkpt lat="30.68514486041111" lon="-6.84974428464681"><ele>1371.0</ele><time>2026-03-22T10:09:31.999Z</time></trkpt><trkpt lat="30.685067192854515" lon="-6.849645259112254"><ele>1371.0</ele><time>2026-03-22T10:09:32.999Z</time></trkpt><trkpt lat="30.685008631620704" lon="-6.849476731537603"><ele>1371.0</ele><time>2026-03-22T10:09:33.999Z</time></trkpt><trkpt lat="30.68495137257703" lon="-6.849281205839814"><ele>1371.0</ele><time>2026-03-22T10:09:34.999Z</time></trkpt><trkpt lat="30.684903011831846" lon="-6.849122070356432"><ele>1371.0</ele><time>2026-03-22T10:09:35.999Z</time></trkpt><trkpt lat="30.684872834837435" lon="-6.848978102707089"><ele>1371.0</ele><time>2026-03-22T10:09:36.999Z</time></trkpt><trkpt lat="30.684845716034456" lon="-6.848849514034156"><ele>1371.0</ele><time>2026-03-22T10:09:37.999Z</time></trkpt><trkpt lat="30.684802005089466" lon="-6.8487281054064955"><ele>1371.0</ele><time>2026-03-22T10:09:38.999Z</time></trkpt><trkpt lat="30.684756412618896" lon="-6.848615890166131"><ele>1371.0</ele><time>2026-03-22T10:09:39.999Z</time></trkpt><trkpt lat="30.68471970274579" lon="-6.848502449821928"><ele>1371.0</ele><time>2026-03-22T10:09:40.999Z</time></trkpt><trkpt lat="30.684708010391137" lon="-6.848392937873979"><ele>1371.0</ele><time>2026-03-22T10:09:41.999Z</time></trkpt><trkpt lat="30.68471105758007" lon="-6.848272741062652"><ele>1371.0</ele><time>2026-03-22T10:09:42.999Z</time></trkpt><trkpt lat="30.684725885061432" lon="-6.848158535557877"><ele>1371.6666666666667</ele><time>2026-03-22T10:09:43.999Z</time></trkpt><trkpt lat="30.68474712853441" lon="-6.84805010515509"><ele>1372.3333333333333</ele><time>2026-03-22T10:09:44.999Z</time></trkpt><trkpt lat="30.684764559227276" lon="-6.847939238250162"><ele>1373.0</ele><time>2026-03-22T10:09:45.999Z</time></trkpt><trkpt lat="30.68477800616409" lon="-6.8478454308752505"><ele>1373.6666666666665</ele><time>2026-03-22T10:09:46.999Z</time></trkpt><trkpt lat="30.684792542318853" lon="-6.847743992923272"><ele>1374.3333333333333</ele><time>2026-03-22T10:09:47.999Z</time></trkpt><trkpt lat="30.684804812721172" lon="-6.847656003060528"><ele>1375.0</ele><time>2026-03-22T10:09:48.999Z</time></trkpt><trkpt lat="30.684820653962518" lon="-6.847581075604545"><ele>1375.3333333333333</ele><time>2026-03-22T10:09:49.999Z</time></trkpt><trkpt lat="30.684845271455803" lon="-6.847503164842551"><ele>1375.6666666666665</ele><time>2026-03-22T10:09:50.999Z</time></trkpt><trkpt lat="30.68487105700914" lon="-6.847427498571133"><ele>1376.0</ele><time>2026-03-22T10:09:51.999Z</time></trkpt><trkpt lat="30.684898252268578" lon="-6.847351535604586"><ele>1376.3333333333333</ele><time>2026-03-22T10:09:52.999Z</time></trkpt><trkpt lat="30.684917386875398" lon="-6.847278813037175"><ele>1376.6666666666667</ele><time>2026-03-22T10:09:53.999Z</time></trkpt><trkpt lat="30.684979843367717" lon="-6.847182701535824"><ele>1377.0</ele><time>2026-03-22T10:09:55.999Z</time></trkpt><trkpt lat="30.685054044636086" lon="-6.847083927514118"><ele>1377.0</ele><time>2026-03-22T10:09:57.999Z</time></trkpt><trkpt lat="30.6850593452234" lon="-6.846947521072203"><ele>1377.0</ele><time>2026-03-22T10:09:59.999Z</time></trkpt><trkpt lat="30.685026085044477" lon="-6.846862223485773"><ele>1377.0</ele><time>2026-03-22T10:10:00.999Z</time></trkpt><trkpt lat="30.684988535436453" lon="-6.846800864799263"><ele>1377.0</ele><time>2026-03-22T10:10:01.999Z</time></trkpt><trkpt lat="30.684954087120218" lon="-6.846731804444579"><ele>1377.0</ele><time>2026-03-22T10:10:02.999Z</time></trkpt><trkpt lat="30.684935321910515" lon="-6.846656385144219"><ele>1377.0</ele><time>2026-03-22T10:10:03.999Z</time></trkpt><trkpt lat="30.684944997278798" lon="-6.846555868196518"><ele>1377.0</ele><time>2026-03-22T10:10:04.999Z</time></trkpt><trkpt lat="30.684951687055563" lon="-6.846441264492337"><ele>1377.0</ele><time>2026-03-22T10:10:05.999Z</time></trkpt><trkpt lat="30.684966074556208" lon="-6.846320754567357"><ele>1377.0</ele><time>2026-03-22T10:10:06.999Z</time></trkpt><trkpt lat="30.684982695290028" lon="-6.84613678109814"><ele>1377.0</ele><time>2026-03-22T10:10:07.999Z</time></trkpt><trkpt lat="30.684989368975405" lon="-6.845934537449347"><ele>1378.0</ele><time>2026-03-22T10:10:08.999Z</time></trkpt><trkpt lat="30.685017349271643" lon="-6.84575565883853"><ele>1379.0</ele><time>2026-03-22T10:10:09.999Z</time></trkpt><trkpt lat="30.6850490336149" lon="-6.8456173121808845"><ele>1380.0</ele><time>2026-03-22T10:10:10.999Z</time></trkpt><trkpt lat="30.68507780818759" lon="-6.845488810813903"><ele>1381.0</ele><time>2026-03-22T10:10:11.999Z</time></trkpt><trkpt lat="30.685112827872242" lon="-6.845360014279196"><ele>1381.0</ele><time>2026-03-22T10:10:12.999Z</time></trkpt><trkpt lat="30.685150010135054" lon="-6.845239783028691"><ele>1381.0</ele><time>2026-03-22T10:10:13.999Z</time></trkpt><trkpt lat="30.685185737297452" lon="-6.8451266475626475"><ele>1381.0</ele><time>2026-03-22T10:10:14.999Z</time></trkpt><trkpt lat="30.685229256346194" lon="-6.845013349725478"><ele>1381.0</ele><time>2026-03-22T10:10:15.999Z</time></trkpt><trkpt lat="30.68527417501786" lon="-6.844899199270288"><ele>1381.0</ele><time>2026-03-22T10:10:16.999Z</time></trkpt><trkpt lat="30.68532936185153" lon="-6.84477365595948"><ele>1382.25</ele><time>2026-03-22T10:10:17.999Z</time></trkpt><trkpt lat="30.685380304456704" lon="-6.844639654998906"><ele>1383.5</ele><time>2026-03-22T10:10:18.999Z</time></trkpt><trkpt lat="30.685435108994024" lon="-6.844504893562438"><ele>1384.75</ele><time>2026-03-22T10:10:19.999Z</time></trkpt><trkpt lat="30.685486076264468" lon="-6.844374895522057"><ele>1386.0</ele><time>2026-03-22T10:10:20.999Z</time></trkpt><trkpt lat="30.685533372494213" lon="-6.84424034142482"><ele>1386.0</ele><time>2026-03-22T10:10:21.999Z</time></trkpt><trkpt lat="30.68556471034401" lon="-6.844111720114877"><ele>1386.0</ele><time>2026-03-22T10:10:22.999Z</time></trkpt><trkpt lat="30.685594794808022" lon="-6.843990990048328"><ele>1386.0</ele><time>2026-03-22T10:10:23.999Z</time></trkpt><trkpt lat="30.68562231026261" lon="-6.843883159487909"><ele>1386.0</ele><time>2026-03-22T10:10:24.999Z</time></trkpt><trkpt lat="30.6856609723249" lon="-6.843789246599918"><ele>1386.0</ele><time>2026-03-22T10:10:25.999Z</time></trkpt><trkpt lat="30.68570903209781" lon="-6.843708680661286"><ele>1386.0</ele><time>2026-03-22T10:10:26.999Z</time></trkpt><trkpt lat="30.685772444379058" lon="-6.843612094252559"><ele>1386.0</ele><time>2026-03-22T10:10:27.999Z</time></trkpt><trkpt lat="30.68580240069976" lon="-6.843529286128962"><ele>1386.0</ele><time>2026-03-22T10:10:28.999Z</time></trkpt><trkpt lat="30.6858084158199" lon="-6.8434369224052105"><ele>1386.0</ele><time>2026-03-22T10:10:29.999Z</time></trkpt><trkpt lat="30.685814714171855" lon="-6.843336610219238"><ele>1386.0</ele><time>2026-03-22T10:10:30.999Z</time></trkpt><trkpt lat="30.68581603375748" lon="-6.8432585686335585"><ele>1386.0</ele><time>2026-03-22T10:10:31.999Z</time></trkpt><trkpt lat="30.68578396322211" lon="-6.843165206456588"><ele>1385.0</ele><time>2026-03-22T10:10:33.999Z</time></trkpt><trkpt lat="30.685706303172957" lon="-6.843154214508187"><ele>1384.0</ele><time>2026-03-22T10:10:36.999Z</time></trkpt><trkpt lat="30.68565060947313" lon="-6.843118463964959"><ele>1383.0</ele><time>2026-03-22T10:10:37.999Z</time></trkpt><trkpt lat="30.68559371794384" lon="-6.843057915005776"><ele>1382.0</ele><time>2026-03-22T10:10:38.999Z</time></trkpt><trkpt lat="30.68552380960351" lon="-6.842964177673832"><ele>1381.0</ele><time>2026-03-22T10:10:39.999Z</time></trkpt><trkpt lat="30.685439786598817" lon="-6.842905124976656"><ele>1380.0</ele><time>2026-03-22T10:10:40.999Z</time></trkpt><trkpt lat="30.685346739858797" lon="-6.84286272153551"><ele>1379.3333333333333</ele><time>2026-03-22T10:10:41.999Z</time></trkpt><trkpt lat="30.685251680556956" lon="-6.842769130547864"><ele>1378.6666666666667</ele><time>2026-03-22T10:10:43.999Z</time></trkpt><trkpt lat="30.685201135097508" lon="-6.842699829693266"><ele>1378.0</ele><time>2026-03-22T10:10:44.999Z</time></trkpt><trkpt lat="30.685128478416832" lon="-6.842646395858429"><ele>1377.3333333333335</ele><time>2026-03-22T10:10:46.999Z</time></trkpt><trkpt lat="30.685054306017843" lon="-6.842670235668934"><ele>1376.6666666666667</ele><time>2026-03-22T10:10:48.999Z</time></trkpt><trkpt lat="30.685007637153767" lon="-6.842734782267758"><ele>1376.0</ele><time>2026-03-22T10:10:50.999Z</time></trkpt><trkpt lat="30.684948485249777" lon="-6.842839805903521"><ele>1376.0</ele><time>2026-03-22T10:10:52.999Z</time></trkpt><trkpt lat="30.684896994548374" lon="-6.842890574162302"><ele>1376.0</ele><time>2026-03-22T10:10:53.999Z</time></trkpt><trkpt lat="30.68480544765235" lon="-6.842908371897622"><ele>1376.0</ele><time>2026-03-22T10:10:54.999Z</time></trkpt><trkpt lat="30.68471089722626" lon="-6.842916813664633"><ele>1376.0</ele><time>2026-03-22T10:10:55.999Z</time></trkpt><trkpt lat="30.68459994367419" lon="-6.842914115966704"><ele>1376.0</ele><time>2026-03-22T10:10:56.999Z</time></trkpt><trkpt lat="30.68443471905897" lon="-6.842934698221833"><ele>1376.5</ele><time>2026-03-22T10:10:57.999Z</time></trkpt><trkpt lat="30.684263193485297" lon="-6.842953837362441"><ele>1377.0</ele><time>2026-03-22T10:10:58.999Z</time></trkpt><trkpt lat="30.684119608235374" lon="-6.8429813764537215"><ele>1377.5</ele><time>2026-03-22T10:10:59.999Z</time></trkpt><trkpt lat="30.68401104663777" lon="-6.843029771386567"><ele>1378.0</ele><time>2026-03-22T10:11:00.999Z</time></trkpt><trkpt lat="30.68389184442835" lon="-6.843125447106495"><ele>1378.0</ele><time>2026-03-22T10:11:01.999Z</time></trkpt><trkpt lat="30.683727578889563" lon="-6.843225735244503"><ele>1378.0</ele><time>2026-03-22T10:11:02.999Z</time></trkpt><trkpt lat="30.683556288360414" lon="-6.843311559242924"><ele>1378.0</ele><time>2026-03-22T10:11:03.999Z</time></trkpt><trkpt lat="30.683443070454064" lon="-6.8434023123513"><ele>1378.0</ele><time>2026-03-22T10:11:04.999Z</time></trkpt><trkpt lat="30.68331268669069" lon="-6.843529288668167"><ele>1378.0</ele><time>2026-03-22T10:11:05.999Z</time></trkpt><trkpt lat="30.68316080063702" lon="-6.843685885629955"><ele>1378.0</ele><time>2026-03-22T10:11:06.999Z</time></trkpt><trkpt lat="30.683017748711933" lon="-6.843821754428533"><ele>1378.0</ele><time>2026-03-22T10:11:07.999Z</time></trkpt><trkpt lat="30.682927256342488" lon="-6.843921131400781"><ele>1378.0</ele><time>2026-03-22T10:11:08.999Z</time></trkpt><trkpt lat="30.68285122696428" lon="-6.843996639781515"><ele>1378.0</ele><time>2026-03-22T10:11:09.999Z</time></trkpt><trkpt lat="30.68277676251418" lon="-6.844058280133167"><ele>1378.0</ele><time>2026-03-22T10:11:10.999Z</time></trkpt><trkpt lat="30.68271131814219" lon="-6.844113418526469"><ele>1378.0</ele><time>2026-03-22T10:11:11.999Z</time></trkpt><trkpt lat="30.682651467912624" lon="-6.8441465008036415"><ele>1378.0</ele><time>2026-03-22T10:11:12.999Z</time></trkpt><trkpt lat="30.682583804920725" lon="-6.844174675340828"><ele>1378.0</ele><time>2026-03-22T10:11:14.999Z</time></trkpt><trkpt lat="30.68253994810487" lon="-6.844250934839312"><ele>1378.0</ele><time>2026-03-22T10:11:18.999Z</time></trkpt><trkpt lat="30.682592580049405" lon="-6.844302573703614"><ele>1378.0</ele><time>2026-03-22T10:11:21.998Z</time></trkpt><trkpt lat="30.682613780294744" lon="-6.844211141648596"><ele>1378.0</ele><time>2026-03-22T10:11:24.998Z</time></trkpt><trkpt lat="30.68260464561762" lon="-6.844134676490364"><ele>1378.0</ele><time>2026-03-22T10:11:31.998Z</time></trkpt><trkpt lat="30.682536911972978" lon="-6.844112712045775"><ele>1378.0</ele><time>2026-03-22T10:11:35.998Z</time></trkpt><trkpt lat="30.68250265641002" lon="-6.844184430618705"><ele>1378.0</ele><time>2026-03-22T10:11:38.998Z</time></trkpt><trkpt lat="30.68249903303691" lon="-6.844280540119138"><ele>1378.0</ele><time>2026-03-22T10:11:41.998Z</time></trkpt><trkpt lat="30.682463611371304" lon="-6.844363960946208"><ele>1378.0</ele><time>2026-03-22T10:13:31.999Z</time></trkpt><trkpt lat="30.682497062145806" lon="-6.844296708400386"><ele>1378.0</ele><time>2026-03-22T10:14:32.999Z</time></trkpt><trkpt lat="30.682423387422407" lon="-6.844342293949102"><ele>1378.0</ele><time>2026-03-22T10:22:29.998Z</time></trkpt><trkpt lat="30.682330742116992" lon="-6.844408518923849"><ele>1378.0</ele><time>2026-03-22T10:22:31.998Z</time></trkpt><trkpt lat="30.682271928684834" lon="-6.844453603571851"><ele>1378.8000000000002</ele><time>2026-03-22T10:22:32.998Z</time></trkpt><trkpt lat="30.682194156449608" lon="-6.844501549958726"><ele>1379.6</ele><time>2026-03-22T10:22:33.998Z</time></trkpt><trkpt lat="30.68208253612009" lon="-6.844558417993486"><ele>1380.4</ele><time>2026-03-22T10:22:34.998Z</time></trkpt><trkpt lat="30.68197347263294" lon="-6.844609385141662"><ele>1381.1999999999998</ele><time>2026-03-22T10:22:35.998Z</time></trkpt><trkpt lat="30.681880813794535" lon="-6.844689789292088"><ele>1382.0</ele><time>2026-03-22T10:22:36.998Z</time></trkpt><trkpt lat="30.681780793101204" lon="-6.844795508384935"><ele>1382.0</ele><time>2026-03-22T10:22:37.998Z</time></trkpt><trkpt lat="30.681663296806665" lon="-6.844910970098774"><ele>1382.0</ele><time>2026-03-22T10:22:38.998Z</time></trkpt><trkpt lat="30.681511203473626" lon="-6.844997374203462"><ele>1382.0</ele><time>2026-03-22T10:22:39.998Z</time></trkpt><trkpt lat="30.68133174285908" lon="-6.845077589686119"><ele>1382.6666666666667</ele><time>2026-03-22T10:22:40.998Z</time></trkpt><trkpt lat="30.681122758443564" lon="-6.845169993307523"><ele>1383.3333333333333</ele><time>2026-03-22T10:22:41.998Z</time></trkpt><trkpt lat="30.680954900579636" lon="-6.845248273650714"><ele>1384.0</ele><time>2026-03-22T10:22:42.998Z</time></trkpt><trkpt lat="30.680792601669747" lon="-6.84531428340512"><ele>1384.25</ele><time>2026-03-22T10:22:43.998Z</time></trkpt><trkpt lat="30.680639821517328" lon="-6.845342215562042"><ele>1384.5</ele><time>2026-03-22T10:22:44.998Z</time></trkpt><trkpt lat="30.680506102900768" lon="-6.845365596122998"><ele>1384.75</ele><time>2026-03-22T10:22:45.998Z</time></trkpt><trkpt lat="30.68038378604633" lon="-6.845415170076793"><ele>1385.0</ele><time>2026-03-22T10:22:46.998Z</time></trkpt><trkpt lat="30.680280304176602" lon="-6.845482844421454"><ele>1385.75</ele><time>2026-03-22T10:22:47.998Z</time></trkpt><trkpt lat="30.680170359060405" lon="-6.845563710901243"><ele>1386.5</ele><time>2026-03-22T10:22:48.998Z</time></trkpt><trkpt lat="30.680055329332465" lon="-6.845651491905668"><ele>1387.25</ele><time>2026-03-22T10:22:49.998Z</time></trkpt><trkpt lat="30.679934324942305" lon="-6.845742833850655"><ele>1388.0</ele><time>2026-03-22T10:22:50.998Z</time></trkpt><trkpt lat="30.679802676953678" lon="-6.84583297695749"><ele>1388.0</ele><time>2026-03-22T10:22:51.998Z</time></trkpt><trkpt lat="30.67964270556347" lon="-6.845925823324507"><ele>1388.0</ele><time>2026-03-22T10:22:52.998Z</time></trkpt><trkpt lat="30.679468722353814" lon="-6.846029400073793"><ele>1388.0</ele><time>2026-03-22T10:22:53.998Z</time></trkpt><trkpt lat="30.67928184830046" lon="-6.84614013773146"><ele>1388.3333333333335</ele><time>2026-03-22T10:22:54.998Z</time></trkpt><trkpt lat="30.679114078552534" lon="-6.84623572908827"><ele>1388.6666666666667</ele><time>2026-03-22T10:22:55.998Z</time></trkpt><trkpt lat="30.67897791714079" lon="-6.846319856216244"><ele>1389.0</ele><time>2026-03-22T10:22:56.998Z</time></trkpt><trkpt lat="30.678838766614028" lon="-6.846411274430997"><ele>1389.0</ele><time>2026-03-22T10:22:57.998Z</time></trkpt><trkpt lat="30.67867838996671" lon="-6.846547597686096"><ele>1389.0</ele><time>2026-03-22T10:22:58.998Z</time></trkpt><trkpt lat="30.678487683099146" lon="-6.846678519566092"><ele>1389.0</ele><time>2026-03-22T10:22:59.998Z</time></trkpt><trkpt lat="30.67829441542328" lon="-6.846816048634912"><ele>1389.5</ele><time>2026-03-22T10:23:00.998Z</time></trkpt><trkpt lat="30.678143924243795" lon="-6.846943399499644"><ele>1390.0</ele><time>2026-03-22T10:23:01.998Z</time></trkpt><trkpt lat="30.67802614177158" lon="-6.847045985619241"><ele>1390.5</ele><time>2026-03-22T10:23:02.998Z</time></trkpt><trkpt lat="30.67792648651912" lon="-6.847097281395784"><ele>1391.0</ele><time>2026-03-22T10:23:03.998Z</time></trkpt><trkpt lat="30.67784857300874" lon="-6.8470963068556605"><ele>1390.5</ele><time>2026-03-22T10:23:04.998Z</time></trkpt><trkpt lat="30.677753032448067" lon="-6.847074944091628"><ele>1390.0</ele><time>2026-03-22T10:23:05.998Z</time></trkpt><trkpt lat="30.677642373560957" lon="-6.847011801765125"><ele>1389.5</ele><time>2026-03-22T10:23:06.998Z</time></trkpt><trkpt lat="30.67751477881219" lon="-6.8469088410970125"><ele>1389.0</ele><time>2026-03-22T10:23:07.998Z</time></trkpt><trkpt lat="30.677365167926038" lon="-6.846785879126781"><ele>1389.0</ele><time>2026-03-22T10:23:08.998Z</time></trkpt><trkpt lat="30.677192765463005" lon="-6.84667672780021"><ele>1389.0</ele><time>2026-03-22T10:23:09.998Z</time></trkpt><trkpt lat="30.677027170984584" lon="-6.846596573905109"><ele>1389.0</ele><time>2026-03-22T10:23:10.998Z</time></trkpt><trkpt lat="30.67685457465321" lon="-6.846531019060173"><ele>1389.6666666666667</ele><time>2026-03-22T10:23:11.998Z</time></trkpt><trkpt lat="30.676663408326217" lon="-6.846465830429308"><ele>1390.3333333333335</ele><time>2026-03-22T10:23:12.998Z</time></trkpt><trkpt lat="30.67647433369864" lon="-6.84641521184168"><ele>1391.0</ele><time>2026-03-22T10:23:13.998Z</time></trkpt><trkpt lat="30.676327618083423" lon="-6.846373628443241"><ele>1391.0</ele><time>2026-03-22T10:23:14.998Z</time></trkpt><trkpt lat="30.67618335581114" lon="-6.846374185537928"><ele>1391.0</ele><time>2026-03-22T10:23:15.998Z</time></trkpt><trkpt lat="30.676011231915574" lon="-6.8464003739587955"><ele>1391.0</ele><time>2026-03-22T10:23:16.998Z</time></trkpt><trkpt lat="30.6758187557319" lon="-6.846405396133793"><ele>1391.6666666666667</ele><time>2026-03-22T10:23:17.998Z</time></trkpt><trkpt lat="30.67558654309098" lon="-6.846391581828353"><ele>1392.3333333333333</ele><time>2026-03-22T10:23:18.998Z</time></trkpt><trkpt lat="30.67538003823102" lon="-6.846357940782941"><ele>1393.0</ele><time>2026-03-22T10:23:19.998Z</time></trkpt><trkpt lat="30.675214031935784" lon="-6.846320829185517"><ele>1393.0</ele><time>2026-03-22T10:23:20.998Z</time></trkpt><trkpt lat="30.675066705819116" lon="-6.8462766457928605"><ele>1393.0</ele><time>2026-03-22T10:23:21.998Z</time></trkpt><trkpt lat="30.67491136815585" lon="-6.846226272434785"><ele>1393.0</ele><time>2026-03-22T10:23:22.998Z</time></trkpt><trkpt lat="30.674730668854387" lon="-6.84619915700595"><ele>1393.0</ele><time>2026-03-22T10:23:23.998Z</time></trkpt><trkpt lat="30.674552368464" lon="-6.846181836966204"><ele>1393.0</ele><time>2026-03-22T10:23:24.998Z</time></trkpt><trkpt lat="30.674401099138315" lon="-6.846157177826586"><ele>1393.0</ele><time>2026-03-22T10:23:25.998Z</time></trkpt><trkpt lat="30.674261072315648" lon="-6.84611642358219"><ele>1391.3333333333333</ele><time>2026-03-22T10:23:26.998Z</time></trkpt><trkpt lat="30.674128279667126" lon="-6.846069207841065"><ele>1389.6666666666667</ele><time>2026-03-22T10:23:27.998Z</time></trkpt><trkpt lat="30.67398023323257" lon="-6.8460120682463765"><ele>1388.0</ele><time>2026-03-22T10:23:28.998Z</time></trkpt><trkpt lat="30.673818012110964" lon="-6.845987248428597"><ele>1388.0</ele><time>2026-03-22T10:23:29.998Z</time></trkpt><trkpt lat="30.67366448853291" lon="-6.845983165503779"><ele>1388.0</ele><time>2026-03-22T10:23:30.998Z</time></trkpt><trkpt lat="30.67351093001777" lon="-6.845986061008337"><ele>1388.0</ele><time>2026-03-22T10:23:31.997Z</time></trkpt><trkpt lat="30.673319621949815" lon="-6.845989918204081"><ele>1388.0</ele><time>2026-03-22T10:23:32.998Z</time></trkpt><trkpt lat="30.673131936378912" lon="-6.84599733276524"><ele>1388.0</ele><time>2026-03-22T10:23:33.998Z</time></trkpt><trkpt lat="30.672981960504874" lon="-6.846018890003355"><ele>1388.0</ele><time>2026-03-22T10:23:34.998Z</time></trkpt><trkpt lat="30.67285216367067" lon="-6.846047782084068"><ele>1389.25</ele><time>2026-03-22T10:23:35.997Z</time></trkpt><trkpt lat="30.672731419052027" lon="-6.846069421825705"><ele>1390.5</ele><time>2026-03-22T10:23:36.997Z</time></trkpt><trkpt lat="30.672615839788044" lon="-6.8460776375061245"><ele>1391.75</ele><time>2026-03-22T10:23:37.997Z</time></trkpt><trkpt lat="30.672495046690333" lon="-6.846064751387069"><ele>1393.0</ele><time>2026-03-22T10:23:38.998Z</time></trkpt><trkpt lat="30.67236345002321" lon="-6.846049056439017"><ele>1393.0</ele><time>2026-03-22T10:23:39.998Z</time></trkpt><trkpt lat="30.672226855006098" lon="-6.846020965709016"><ele>1393.0</ele><time>2026-03-22T10:23:40.998Z</time></trkpt><trkpt lat="30.672078655793594" lon="-6.845999112725644"><ele>1393.0</ele><time>2026-03-22T10:23:41.998Z</time></trkpt><trkpt lat="30.671916642870595" lon="-6.845981414075078"><ele>1393.0</ele><time>2026-03-22T10:23:42.998Z</time></trkpt><trkpt lat="30.671734162115182" lon="-6.8459538936268665"><ele>1393.0</ele><time>2026-03-22T10:23:43.998Z</time></trkpt><trkpt lat="30.671540904262326" lon="-6.845914408689411"><ele>1393.0</ele><time>2026-03-22T10:23:44.998Z</time></trkpt><trkpt lat="30.671333371956084" lon="-6.845853467064523"><ele>1392.5</ele><time>2026-03-22T10:23:45.998Z</time></trkpt><trkpt lat="30.67110401424746" lon="-6.845780626874615"><ele>1392.0</ele><time>2026-03-22T10:23:46.998Z</time></trkpt><trkpt lat="30.67088175893979" lon="-6.845705487966614"><ele>1392.0</ele><time>2026-03-22T10:23:47.998Z</time></trkpt><trkpt lat="30.67069935267488" lon="-6.8456558178980735"><ele>1392.0</ele><time>2026-03-22T10:23:48.998Z</time></trkpt><trkpt lat="30.670546796783935" lon="-6.84560467872261"><ele>1392.0</ele><time>2026-03-22T10:23:49.998Z</time></trkpt><trkpt lat="30.670417915111976" lon="-6.845550432120272"><ele>1391.6666666666667</ele><time>2026-03-22T10:23:50.998Z</time></trkpt><trkpt lat="30.6702734900227" lon="-6.845514686531394"><ele>1391.3333333333335</ele><time>2026-03-22T10:23:51.998Z</time></trkpt><trkpt lat="30.670114879693934" lon="-6.845477426148728"><ele>1391.0</ele><time>2026-03-22T10:23:52.998Z</time></trkpt><trkpt lat="30.669926236040485" lon="-6.8454309446466235"><ele>1391.0</ele><time>2026-03-22T10:23:53.998Z</time></trkpt><trkpt lat="30.669708203413318" lon="-6.845371099247136"><ele>1391.0</ele><time>2026-03-22T10:23:54.998Z</time></trkpt><trkpt lat="30.669488296108952" lon="-6.845314382874043"><ele>1391.0</ele><time>2026-03-22T10:23:55.998Z</time></trkpt><trkpt lat="30.669327475948506" lon="-6.845271755785452"><ele>1391.4</ele><time>2026-03-22T10:23:56.998Z</time></trkpt><trkpt lat="30.669207226843007" lon="-6.845241402430876"><ele>1391.8</ele><time>2026-03-22T10:23:57.998Z</time></trkpt><trkpt lat="30.669113684082063" lon="-6.845225372916127"><ele>1392.2</ele><time>2026-03-22T10:23:58.998Z</time></trkpt><trkpt lat="30.66903477230558" lon="-6.8452207058068595"><ele>1392.6000000000001</ele><time>2026-03-22T10:23:59.998Z</time></trkpt><trkpt lat="30.6689304946268" lon="-6.845278719670938"><ele>1393.0</ele><time>2026-03-22T10:24:01.998Z</time></trkpt><trkpt lat="30.668881148950597" lon="-6.845349054911759"><ele>1393.0</ele><time>2026-03-22T10:24:02.998Z</time></trkpt><trkpt lat="30.668829608359687" lon="-6.84540940881909"><ele>1393.0</ele><time>2026-03-22T10:24:03.998Z</time></trkpt><trkpt lat="30.66876235851878" lon="-6.845419289577554"><ele>1393.0</ele><time>2026-03-22T10:24:04.998Z</time></trkpt><trkpt lat="30.668682099794324" lon="-6.845382923274633"><ele>1393.0</ele><time>2026-03-22T10:24:05.998Z</time></trkpt><trkpt lat="30.66854742915476" lon="-6.845329801878259"><ele>1393.0</ele><time>2026-03-22T10:24:06.998Z</time></trkpt><trkpt lat="30.668379038014958" lon="-6.845300044567858"><ele>1393.75</ele><time>2026-03-22T10:24:07.998Z</time></trkpt><trkpt lat="30.66821970908297" lon="-6.845295078217149"><ele>1394.5</ele><time>2026-03-22T10:24:08.998Z</time></trkpt><trkpt lat="30.66808877478609" lon="-6.8452704133278415"><ele>1395.25</ele><time>2026-03-22T10:24:09.998Z</time></trkpt><trkpt lat="30.66797978798415" lon="-6.845217183844871"><ele>1396.0</ele><time>2026-03-22T10:24:10.998Z</time></trkpt><trkpt lat="30.667862767956066" lon="-6.845158593900094"><ele>1396.75</ele><time>2026-03-22T10:24:11.998Z</time></trkpt><trkpt lat="30.6677427741897" lon="-6.845086984503883"><ele>1397.5</ele><time>2026-03-22T10:24:12.998Z</time></trkpt><trkpt lat="30.667619231470358" lon="-6.8450075051776595"><ele>1398.25</ele><time>2026-03-22T10:24:13.998Z</time></trkpt><trkpt lat="30.667513397070252" lon="-6.8449302907671585"><ele>1399.0</ele><time>2026-03-22T10:24:14.998Z</time></trkpt><trkpt lat="30.66742462481851" lon="-6.844841907593359"><ele>1399.0</ele><time>2026-03-22T10:24:15.998Z</time></trkpt><trkpt lat="30.667356493954117" lon="-6.8447520102288095"><ele>1399.0</ele><time>2026-03-22T10:24:16.998Z</time></trkpt><trkpt lat="30.667276854841077" lon="-6.844644954554608"><ele>1399.0</ele><time>2026-03-22T10:24:17.998Z</time></trkpt><trkpt lat="30.667193974682384" lon="-6.8445217104760525"><ele>1399.0</ele><time>2026-03-22T10:24:18.998Z</time></trkpt><trkpt lat="30.667103985770847" lon="-6.84438386611641"><ele>1398.75</ele><time>2026-03-22T10:24:19.998Z</time></trkpt><trkpt lat="30.667023511617618" lon="-6.844259223707761"><ele>1398.5</ele><time>2026-03-22T10:24:20.998Z</time></trkpt><trkpt lat="30.666936847784047" lon="-6.844126860436192"><ele>1398.25</ele><time>2026-03-22T10:24:21.998Z</time></trkpt><trkpt lat="30.666837666648128" lon="-6.843997809394109"><ele>1398.0</ele><time>2026-03-22T10:24:22.998Z</time></trkpt><trkpt lat="30.66672503306225" lon="-6.843876564654337"><ele>1398.0</ele><time>2026-03-22T10:24:23.998Z</time></trkpt><trkpt lat="30.66660866426334" lon="-6.843766656741727"><ele>1398.0</ele><time>2026-03-22T10:24:24.998Z</time></trkpt><trkpt lat="30.666498342158445" lon="-6.843668224954412"><ele>1398.0</ele><time>2026-03-22T10:24:25.998Z</time></trkpt><trkpt lat="30.666380390691053" lon="-6.843577530359009"><ele>1398.0</ele><time>2026-03-22T10:24:26.998Z</time></trkpt><trkpt lat="30.666263730395613" lon="-6.8434842394571165"><ele>1398.3333333333333</ele><time>2026-03-22T10:24:27.998Z</time></trkpt><trkpt lat="30.666135689854794" lon="-6.843378095814672"><ele>1398.6666666666665</ele><time>2026-03-22T10:24:28.998Z</time></trkpt><trkpt lat="30.66599526091945" lon="-6.8432669315801045"><ele>1399.0</ele><time>2026-03-22T10:24:29.998Z</time></trkpt><trkpt lat="30.66586614146096" lon="-6.843160518312597"><ele>1399.75</ele><time>2026-03-22T10:24:30.998Z</time></trkpt><trkpt lat="30.66575392004513" lon="-6.843053304099139"><ele>1400.5</ele><time>2026-03-22T10:24:31.998Z</time></trkpt><trkpt lat="30.665647248672062" lon="-6.8429392508884614"><ele>1401.25</ele><time>2026-03-22T10:24:32.998Z</time></trkpt><trkpt lat="30.665535966344205" lon="-6.8428221584182065"><ele>1402.0</ele><time>2026-03-22T10:24:33.998Z</time></trkpt><trkpt lat="30.665422158221155" lon="-6.84270392812021"><ele>1402.0</ele><time>2026-03-22T10:24:34.998Z</time></trkpt><trkpt lat="30.665309658000222" lon="-6.842586813360332"><ele>1402.0</ele><time>2026-03-22T10:24:35.998Z</time></trkpt><trkpt lat="30.665202788289623" lon="-6.8424663439471365"><ele>1402.0</ele><time>2026-03-22T10:24:36.998Z</time></trkpt><trkpt lat="30.665101447136035" lon="-6.842340148747293"><ele>1402.0</ele><time>2026-03-22T10:24:37.998Z</time></trkpt><trkpt lat="30.665007081313913" lon="-6.842207795529568"><ele>1402.25</ele><time>2026-03-22T10:24:38.998Z</time></trkpt><trkpt lat="30.664911242911696" lon="-6.84206964356879"><ele>1402.5</ele><time>2026-03-22T10:24:39.998Z</time></trkpt><trkpt lat="30.664814354529685" lon="-6.841942652475388"><ele>1402.75</ele><time>2026-03-22T10:24:40.998Z</time></trkpt><trkpt lat="30.664717925703712" lon="-6.841827043460244"><ele>1403.0</ele><time>2026-03-22T10:24:41.998Z</time></trkpt><trkpt lat="30.6646214029815" lon="-6.841717841936174"><ele>1403.25</ele><time>2026-03-22T10:24:42.998Z</time></trkpt><trkpt lat="30.664509582819413" lon="-6.841629675958656"><ele>1403.5</ele><time>2026-03-22T10:24:43.998Z</time></trkpt><trkpt lat="30.664398189134825" lon="-6.841572370821373"><ele>1403.75</ele><time>2026-03-22T10:24:44.998Z</time></trkpt><trkpt lat="30.66427292317539" lon="-6.841530531262423"><ele>1404.0</ele><time>2026-03-22T10:24:45.998Z</time></trkpt><trkpt lat="30.664127765258247" lon="-6.841486020013434"><ele>1404.3333333333333</ele><time>2026-03-22T10:24:46.998Z</time></trkpt><trkpt lat="30.663972001453274" lon="-6.841439375484798"><ele>1404.6666666666665</ele><time>2026-03-22T10:24:47.998Z</time></trkpt><trkpt lat="30.663820310668513" lon="-6.841405363408744"><ele>1405.0</ele><time>2026-03-22T10:24:48.998Z</time></trkpt><trkpt lat="30.66366783813513" lon="-6.841367407539161"><ele>1405.0</ele><time>2026-03-22T10:24:49.998Z</time></trkpt><trkpt lat="30.663511364791063" lon="-6.8413326707034905"><ele>1405.0</ele><time>2026-03-22T10:24:50.998Z</time></trkpt><trkpt lat="30.66336244146976" lon="-6.841302221211459"><ele>1405.0</ele><time>2026-03-22T10:24:51.998Z</time></trkpt><trkpt lat="30.663205709832354" lon="-6.841278888271416"><ele>1405.0</ele><time>2026-03-22T10:24:52.998Z</time></trkpt><trkpt lat="30.66305373421825" lon="-6.841265178510799"><ele>1405.0</ele><time>2026-03-22T10:24:53.998Z</time></trkpt><trkpt lat="30.662915687539233" lon="-6.841262906953803"><ele>1405.0</ele><time>2026-03-22T10:24:54.998Z</time></trkpt><trkpt lat="30.662781120018263" lon="-6.8412686604539505"><ele>1405.0</ele><time>2026-03-22T10:24:55.998Z</time></trkpt><trkpt lat="30.662665563185993" lon="-6.841262714931948"><ele>1406.75</ele><time>2026-03-22T10:24:56.998Z</time></trkpt><trkpt lat="30.662557655470373" lon="-6.841230307098434"><ele>1408.5</ele><time>2026-03-22T10:24:57.998Z</time></trkpt><trkpt lat="30.662449828100275" lon="-6.84117485001103"><ele>1410.25</ele><time>2026-03-22T10:24:58.998Z</time></trkpt><trkpt lat="30.662338409835993" lon="-6.841091794249663"><ele>1412.0</ele><time>2026-03-22T10:24:59.998Z</time></trkpt><trkpt lat="30.66221859717723" lon="-6.840984314337992"><ele>1412.3333333333335</ele><time>2026-03-22T10:25:00.998Z</time></trkpt><trkpt lat="30.662105297982826" lon="-6.840845226484778"><ele>1412.6666666666667</ele><time>2026-03-22T10:25:01.998Z</time></trkpt><trkpt lat="30.661978993262906" lon="-6.840696633136338"><ele>1413.0</ele><time>2026-03-22T10:25:02.998Z</time></trkpt><trkpt lat="30.661842514050747" lon="-6.840561968361061"><ele>1413.0</ele><time>2026-03-22T10:25:03.998Z</time></trkpt><trkpt lat="30.66172184935333" lon="-6.840446901616502"><ele>1413.0</ele><time>2026-03-22T10:25:04.998Z</time></trkpt><trkpt lat="30.66162273829374" lon="-6.840330791382061"><ele>1413.0</ele><time>2026-03-22T10:25:05.998Z</time></trkpt><trkpt lat="30.661541007393605" lon="-6.840212663900763"><ele>1413.0</ele><time>2026-03-22T10:25:06.998Z</time></trkpt><trkpt lat="30.661477362636433" lon="-6.840116393036867"><ele>1412.8333333333333</ele><time>2026-03-22T10:25:07.998Z</time></trkpt><trkpt lat="30.6614139145491" lon="-6.840031635625568"><ele>1412.6666666666667</ele><time>2026-03-22T10:25:08.998Z</time></trkpt><trkpt lat="30.661350236262024" lon="-6.839977655490128"><ele>1412.5</ele><time>2026-03-22T10:25:09.998Z</time></trkpt><trkpt lat="30.661280116551445" lon="-6.839966664386009"><ele>1412.3333333333335</ele><time>2026-03-22T10:25:10.998Z</time></trkpt><trkpt lat="30.66119689440461" lon="-6.839979150299839"><ele>1412.1666666666667</ele><time>2026-03-22T10:25:11.998Z</time></trkpt><trkpt lat="30.661125496995762" lon="-6.840007959402937"><ele>1412.0</ele><time>2026-03-22T10:25:12.998Z</time></trkpt><trkpt lat="30.66106413281157" lon="-6.840037845277193"><ele>1412.75</ele><time>2026-03-22T10:25:13.998Z</time></trkpt><trkpt lat="30.660988024230225" lon="-6.840124800865299"><ele>1413.5</ele><time>2026-03-22T10:25:15.998Z</time></trkpt><trkpt lat="30.660941457238284" lon="-6.840220715993655"><ele>1414.25</ele><time>2026-03-22T10:25:17.998Z</time></trkpt><trkpt lat="30.660894167030136" lon="-6.840304523088956"><ele>1415.0</ele><time>2026-03-22T10:25:21.998Z</time></trkpt><trkpt lat="30.660788312340845" lon="-6.840462782548869"><ele>1415.0</ele><time>2026-03-22T10:26:12.998Z</time></trkpt><trkpt lat="30.660735244319163" lon="-6.840548190391769"><ele>1415.0</ele><time>2026-03-22T10:26:13.998Z</time></trkpt><trkpt lat="30.660663920525796" lon="-6.840662513766338"><ele>1415.0</ele><time>2026-03-22T10:26:14.998Z</time></trkpt><trkpt lat="30.660605945348024" lon="-6.840743092599252"><ele>1415.0</ele><time>2026-03-22T10:26:15.998Z</time></trkpt><trkpt lat="30.660560913266853" lon="-6.840821618842047"><ele>1415.0</ele><time>2026-03-22T10:26:16.998Z</time></trkpt><trkpt lat="30.66050229192029" lon="-6.840909309864732"><ele>1415.0</ele><time>2026-03-22T10:26:17.998Z</time></trkpt><trkpt lat="30.66042476409811" lon="-6.840997528145431"><ele>1415.0</ele><time>2026-03-22T10:26:18.998Z</time></trkpt><trkpt lat="30.66033414185857" lon="-6.841092228268244"><ele>1415.0</ele><time>2026-03-22T10:26:19.998Z</time></trkpt><trkpt lat="30.660238997749268" lon="-6.841184941569126"><ele>1415.0</ele><time>2026-03-22T10:26:20.998Z</time></trkpt><trkpt lat="30.660148241070964" lon="-6.8412908061988436"><ele>1415.25</ele><time>2026-03-22T10:26:21.998Z</time></trkpt><trkpt lat="30.660051062828753" lon="-6.84142352313164"><ele>1415.5</ele><time>2026-03-22T10:26:22.998Z</time></trkpt><trkpt lat="30.659951672063322" lon="-6.841562885957027"><ele>1415.75</ele><time>2026-03-22T10:26:23.998Z</time></trkpt><trkpt lat="30.659866420420048" lon="-6.841682477640719"><ele>1416.0</ele><time>2026-03-22T10:26:24.998Z</time></trkpt><trkpt lat="30.65979011067461" lon="-6.841804438604434"><ele>1416.5</ele><time>2026-03-22T10:26:25.998Z</time></trkpt><trkpt lat="30.659721011848042" lon="-6.841922868624189"><ele>1417.0</ele><time>2026-03-22T10:26:26.998Z</time></trkpt><trkpt lat="30.65964956893927" lon="-6.8420323671910035"><ele>1417.5</ele><time>2026-03-22T10:26:27.998Z</time></trkpt><trkpt lat="30.65956794054386" lon="-6.842120116803254"><ele>1418.0</ele><time>2026-03-22T10:26:28.998Z</time></trkpt><trkpt lat="30.659489084751353" lon="-6.842206081628831"><ele>1418.75</ele><time>2026-03-22T10:26:29.998Z</time></trkpt><trkpt lat="30.659401205544967" lon="-6.842285018419144"><ele>1419.5</ele><time>2026-03-22T10:26:30.998Z</time></trkpt><trkpt lat="30.659318230507928" lon="-6.8423737618206575"><ele>1420.25</ele><time>2026-03-22T10:26:31.998Z</time></trkpt><trkpt lat="30.659242682970977" lon="-6.842464761781697"><ele>1421.0</ele><time>2026-03-22T10:26:32.998Z</time></trkpt><trkpt lat="30.659149138794852" lon="-6.842554091745805"><ele>1421.0</ele><time>2026-03-22T10:26:33.998Z</time></trkpt><trkpt lat="30.6590453190707" lon="-6.842627899820612"><ele>1421.0</ele><time>2026-03-22T10:26:34.998Z</time></trkpt><trkpt lat="30.658948413295786" lon="-6.8426996040399235"><ele>1421.0</ele><time>2026-03-22T10:26:35.998Z</time></trkpt><trkpt lat="30.658866370770895" lon="-6.842786581762789"><ele>1421.0</ele><time>2026-03-22T10:26:36.998Z</time></trkpt><trkpt lat="30.658810049858392" lon="-6.842909091907695"><ele>1421.0</ele><time>2026-03-22T10:26:37.998Z</time></trkpt><trkpt lat="30.65875502388854" lon="-6.843031450428991"><ele>1421.0</ele><time>2026-03-22T10:26:38.998Z</time></trkpt><trkpt lat="30.658707831362666" lon="-6.843144498873013"><ele>1421.0</ele><time>2026-03-22T10:26:39.998Z</time></trkpt><trkpt lat="30.65863151193316" lon="-6.843255413947703"><ele>1421.0</ele><time>2026-03-22T10:26:40.998Z</time></trkpt><trkpt lat="30.658551391997413" lon="-6.843363078750346"><ele>1419.5</ele><time>2026-03-22T10:26:41.998Z</time></trkpt><trkpt lat="30.658485818868506" lon="-6.843472301355589"><ele>1418.0</ele><time>2026-03-22T10:26:42.998Z</time></trkpt><trkpt lat="30.658426025852336" lon="-6.843586959526263"><ele>1416.5</ele><time>2026-03-22T10:26:43.998Z</time></trkpt><trkpt lat="30.65837401930461" lon="-6.843703632782657"><ele>1415.0</ele><time>2026-03-22T10:26:44.998Z</time></trkpt><trkpt lat="30.65832736211829" lon="-6.84383205620828"><ele>1415.0</ele><time>2026-03-22T10:26:45.998Z</time></trkpt><trkpt lat="30.658270572608178" lon="-6.84395419700618"><ele>1415.0</ele><time>2026-03-22T10:26:46.998Z</time></trkpt><trkpt lat="30.65820180339905" lon="-6.8440890296070185"><ele>1415.0</ele><time>2026-03-22T10:26:47.998Z</time></trkpt><trkpt lat="30.658124580827433" lon="-6.844221369546622"><ele>1415.0</ele><time>2026-03-22T10:26:48.998Z</time></trkpt><trkpt lat="30.658045771207547" lon="-6.844347331140681"><ele>1414.75</ele><time>2026-03-22T10:26:49.998Z</time></trkpt><trkpt lat="30.65795857563284" lon="-6.844466355677722"><ele>1414.5</ele><time>2026-03-22T10:26:50.998Z</time></trkpt><trkpt lat="30.657872237261945" lon="-6.8445836963132125"><ele>1414.25</ele><time>2026-03-22T10:26:51.998Z</time></trkpt><trkpt lat="30.657802181550355" lon="-6.844691864809147"><ele>1414.0</ele><time>2026-03-22T10:26:52.998Z</time></trkpt><trkpt lat="30.657755809518008" lon="-6.844793396517329"><ele>1414.8000000000002</ele><time>2026-03-22T10:26:53.998Z</time></trkpt><trkpt lat="30.657718545115653" lon="-6.844885968638159"><ele>1415.6000000000001</ele><time>2026-03-22T10:26:54.998Z</time></trkpt><trkpt lat="30.65767544183226" lon="-6.844969615731844"><ele>1416.4</ele><time>2026-03-22T10:26:55.998Z</time></trkpt><trkpt lat="30.657620538633505" lon="-6.8450495800012385"><ele>1417.2</ele><time>2026-03-22T10:26:56.998Z</time></trkpt><trkpt lat="30.657556362607217" lon="-6.84512469214404"><ele>1418.0</ele><time>2026-03-22T10:26:57.998Z</time></trkpt><trkpt lat="30.657481689104653" lon="-6.845204300211973"><ele>1418.0</ele><time>2026-03-22T10:26:58.998Z</time></trkpt><trkpt lat="30.65740159073688" lon="-6.84528597069683"><ele>1418.0</ele><time>2026-03-22T10:26:59.998Z</time></trkpt><trkpt lat="30.65729645974258" lon="-6.845357966742599"><ele>1418.0</ele><time>2026-03-22T10:27:00.998Z</time></trkpt><trkpt lat="30.657170640422777" lon="-6.845418850348545"><ele>1418.0</ele><time>2026-03-22T10:27:01.998Z</time></trkpt><trkpt lat="30.657044458925384" lon="-6.84547353706203"><ele>1418.25</ele><time>2026-03-22T10:27:02.998Z</time></trkpt><trkpt lat="30.65691785597081" lon="-6.845522408626745"><ele>1418.5</ele><time>2026-03-22T10:27:03.998Z</time></trkpt><trkpt lat="30.656798008030265" lon="-6.8455585331817925"><ele>1418.75</ele><time>2026-03-22T10:27:04.998Z</time></trkpt><trkpt lat="30.656681591661908" lon="-6.845595551020205"><ele>1419.0</ele><time>2026-03-22T10:27:05.998Z</time></trkpt><trkpt lat="30.65657730151218" lon="-6.845643515008053"><ele>1419.0</ele><time>2026-03-22T10:27:06.998Z</time></trkpt><trkpt lat="30.656476526159146" lon="-6.845684011396281"><ele>1419.0</ele><time>2026-03-22T10:27:07.998Z</time></trkpt><trkpt lat="30.656386162302876" lon="-6.845721902921293"><ele>1419.0</ele><time>2026-03-22T10:27:08.998Z</time></trkpt><trkpt lat="30.656297004903625" lon="-6.8457852834636155"><ele>1419.0</ele><time>2026-03-22T10:27:09.998Z</time></trkpt><trkpt lat="30.65621448155371" lon="-6.845877511633194"><ele>1419.0</ele><time>2026-03-22T10:27:10.998Z</time></trkpt><trkpt lat="30.65611991133374" lon="-6.845969344757774"><ele>1418.0</ele><time>2026-03-22T10:27:11.998Z</time></trkpt><trkpt lat="30.656028140422254" lon="-6.846052544543851"><ele>1417.0</ele><time>2026-03-22T10:27:12.998Z</time></trkpt><trkpt lat="30.65592488269114" lon="-6.846136407390767"><ele>1416.0</ele><time>2026-03-22T10:27:13.998Z</time></trkpt><trkpt lat="30.655824007744194" lon="-6.846212345602978"><ele>1415.0</ele><time>2026-03-22T10:27:14.998Z</time></trkpt><trkpt lat="30.655724223718845" lon="-6.84628575015642"><ele>1415.0</ele><time>2026-03-22T10:27:15.998Z</time></trkpt><trkpt lat="30.6556212586948" lon="-6.846375395011212"><ele>1415.0</ele><time>2026-03-22T10:27:16.998Z</time></trkpt><trkpt lat="30.655523233386088" lon="-6.84648273774358"><ele>1415.0</ele><time>2026-03-22T10:27:17.998Z</time></trkpt><trkpt lat="30.65542500726423" lon="-6.846597921046697"><ele>1415.0</ele><time>2026-03-22T10:27:18.998Z</time></trkpt><trkpt lat="30.655327533623073" lon="-6.846710089688177"><ele>1414.0</ele><time>2026-03-22T10:27:19.998Z</time></trkpt><trkpt lat="30.655231575686578" lon="-6.846817657027332"><ele>1413.0</ele><time>2026-03-22T10:27:20.998Z</time></trkpt><trkpt lat="30.655147261699803" lon="-6.846932825347992"><ele>1412.0</ele><time>2026-03-22T10:27:21.998Z</time></trkpt><trkpt lat="30.65505420725895" lon="-6.847048182706712"><ele>1411.0</ele><time>2026-03-22T10:27:22.998Z</time></trkpt><trkpt lat="30.654954865051764" lon="-6.847157082207206"><ele>1411.0</ele><time>2026-03-22T10:27:23.998Z</time></trkpt><trkpt lat="30.654849559724855" lon="-6.847256853685991"><ele>1411.0</ele><time>2026-03-22T10:27:24.998Z</time></trkpt><trkpt lat="30.654727651706732" lon="-6.847355433844028"><ele>1411.0</ele><time>2026-03-22T10:27:25.998Z</time></trkpt><trkpt lat="30.654617608268655" lon="-6.847460159657062"><ele>1411.0</ele><time>2026-03-22T10:27:26.998Z</time></trkpt><trkpt lat="30.65451730451961" lon="-6.847573627643476"><ele>1410.75</ele><time>2026-03-22T10:27:27.998Z</time></trkpt><trkpt lat="30.654416917080724" lon="-6.847696641485991"><ele>1410.5</ele><time>2026-03-22T10:27:28.998Z</time></trkpt><trkpt lat="30.65431153018482" lon="-6.8478141205107805"><ele>1410.25</ele><time>2026-03-22T10:27:29.998Z</time></trkpt><trkpt lat="30.654198020310048" lon="-6.847930883829864"><ele>1410.0</ele><time>2026-03-22T10:27:30.998Z</time></trkpt><trkpt lat="30.65408787845702" lon="-6.848034446082163"><ele>1410.0</ele><time>2026-03-22T10:27:31.998Z</time></trkpt><trkpt lat="30.65398882056089" lon="-6.848121496134794"><ele>1410.0</ele><time>2026-03-22T10:27:32.998Z</time></trkpt><trkpt lat="30.653865839205977" lon="-6.848200315805065"><ele>1410.0</ele><time>2026-03-22T10:27:33.998Z</time></trkpt><trkpt lat="30.653746035961984" lon="-6.848285818950041"><ele>1410.0</ele><time>2026-03-22T10:27:34.998Z</time></trkpt><trkpt lat="30.65365745251335" lon="-6.848362698984323"><ele>1410.6</ele><time>2026-03-22T10:27:35.998Z</time></trkpt><trkpt lat="30.653580359470904" lon="-6.848422908604364"><ele>1411.2</ele><time>2026-03-22T10:27:36.998Z</time></trkpt><trkpt lat="30.65350638212307" lon="-6.848490969202963"><ele>1411.8000000000002</ele><time>2026-03-22T10:27:37.998Z</time></trkpt><trkpt lat="30.653425440013553" lon="-6.848567016960282"><ele>1412.4</ele><time>2026-03-22T10:27:38.998Z</time></trkpt><trkpt lat="30.65334852528867" lon="-6.848649879891179"><ele>1413.0</ele><time>2026-03-22T10:27:39.998Z</time></trkpt><trkpt lat="30.653279083896866" lon="-6.848726584658353"><ele>1413.1666666666667</ele><time>2026-03-22T10:27:40.997Z</time></trkpt><trkpt lat="30.653232946739614" lon="-6.848802120546046"><ele>1413.3333333333333</ele><time>2026-03-22T10:27:41.997Z</time></trkpt><trkpt lat="30.653184726862406" lon="-6.848874415363509"><ele>1413.5</ele><time>2026-03-22T10:27:42.997Z</time></trkpt><trkpt lat="30.653140132684307" lon="-6.848949504340675"><ele>1413.6666666666665</ele><time>2026-03-22T10:27:43.997Z</time></trkpt><trkpt lat="30.6530788272976" lon="-6.849018463912095"><ele>1413.8333333333333</ele><time>2026-03-22T10:27:44.998Z</time></trkpt><trkpt lat="30.653000293674175" lon="-6.849106395657317"><ele>1414.0</ele><time>2026-03-22T10:27:45.998Z</time></trkpt><trkpt lat="30.652919186003455" lon="-6.84918813196144"><ele>1414.0</ele><time>2026-03-22T10:27:46.998Z</time></trkpt><trkpt lat="30.65283151760472" lon="-6.849266361850728"><ele>1414.0</ele><time>2026-03-22T10:27:47.997Z</time></trkpt><trkpt lat="30.652751199782937" lon="-6.849362254114733"><ele>1414.0</ele><time>2026-03-22T10:27:48.997Z</time></trkpt><trkpt lat="30.652669827322534" lon="-6.849459212968612"><ele>1414.0</ele><time>2026-03-22T10:27:49.997Z</time></trkpt><trkpt lat="30.652589604103245" lon="-6.849556140536838"><ele>1414.6</ele><time>2026-03-22T10:27:50.997Z</time></trkpt><trkpt lat="30.65253061344787" lon="-6.849648777960234"><ele>1415.2</ele><time>2026-03-22T10:27:51.997Z</time></trkpt><trkpt lat="30.652471945889552" lon="-6.849742713750938"><ele>1415.8</ele><time>2026-03-22T10:27:52.997Z</time></trkpt><trkpt lat="30.652397764646974" lon="-6.84983670750331"><ele>1416.3999999999999</ele><time>2026-03-22T10:27:53.997Z</time></trkpt><trkpt lat="30.652314459940705" lon="-6.849935730200764"><ele>1417.0</ele><time>2026-03-22T10:27:54.997Z</time></trkpt><trkpt lat="30.65222762357935" lon="-6.850037073097268"><ele>1417.6666666666665</ele><time>2026-03-22T10:27:55.997Z</time></trkpt><trkpt lat="30.65211270146624" lon="-6.8501598487695"><ele>1418.3333333333333</ele><time>2026-03-22T10:27:56.997Z</time></trkpt><trkpt lat="30.65199885622611" lon="-6.850318476736938"><ele>1419.0</ele><time>2026-03-22T10:27:57.997Z</time></trkpt><trkpt lat="30.651907134577414" lon="-6.850475850215421"><ele>1419.6666666666667</ele><time>2026-03-22T10:27:58.997Z</time></trkpt><trkpt lat="30.651840737579974" lon="-6.850633678827194"><ele>1420.3333333333335</ele><time>2026-03-22T10:27:59.997Z</time></trkpt><trkpt lat="30.651763179721186" lon="-6.850832067360058"><ele>1421.0</ele><time>2026-03-22T10:28:00.997Z</time></trkpt><trkpt lat="30.65167857363398" lon="-6.851025305117225"><ele>1421.25</ele><time>2026-03-22T10:28:01.997Z</time></trkpt><trkpt lat="30.651604238269513" lon="-6.851186947567312"><ele>1421.5</ele><time>2026-03-22T10:28:02.997Z</time></trkpt><trkpt lat="30.651531730674552" lon="-6.851321082034603"><ele>1421.75</ele><time>2026-03-22T10:28:03.997Z</time></trkpt><trkpt lat="30.65147916281309" lon="-6.8514518007096346"><ele>1422.0</ele><time>2026-03-22T10:28:04.997Z</time></trkpt><trkpt lat="30.651428415422696" lon="-6.851561508336754"><ele>1422.0</ele><time>2026-03-22T10:28:05.997Z</time></trkpt><trkpt lat="30.65138603709803" lon="-6.851663688401065"><ele>1422.0</ele><time>2026-03-22T10:28:06.997Z</time></trkpt><trkpt lat="30.651337945034467" lon="-6.851756355791375"><ele>1422.0</ele><time>2026-03-22T10:28:07.997Z</time></trkpt><trkpt lat="30.651301746824824" lon="-6.851868233117504"><ele>1422.0</ele><time>2026-03-22T10:28:08.997Z</time></trkpt><trkpt lat="30.65129663665043" lon="-6.8519896768491275"><ele>1422.0</ele><time>2026-03-22T10:28:09.997Z</time></trkpt><trkpt lat="30.651318205136576" lon="-6.852102006171127"><ele>1423.25</ele><time>2026-03-22T10:28:10.997Z</time></trkpt><trkpt lat="30.651334469589123" lon="-6.852242335020485"><ele>1424.5</ele><time>2026-03-22T10:28:11.997Z</time></trkpt><trkpt lat="30.6513313218175" lon="-6.852376782328481"><ele>1425.75</ele><time>2026-03-22T10:28:12.997Z</time></trkpt><trkpt lat="30.651311246212845" lon="-6.852511614744"><ele>1427.0</ele><time>2026-03-22T10:28:13.997Z</time></trkpt><trkpt lat="30.65129793757159" lon="-6.852648942302205"><ele>1428.0</ele><time>2026-03-22T10:28:14.997Z</time></trkpt><trkpt lat="30.65127427598734" lon="-6.852778314672603"><ele>1429.0</ele><time>2026-03-22T10:28:15.997Z</time></trkpt><trkpt lat="30.6512384494229" lon="-6.852921543909849"><ele>1430.0</ele><time>2026-03-22T10:28:16.997Z</time></trkpt><trkpt lat="30.651190005560856" lon="-6.853088259728458"><ele>1431.0</ele><time>2026-03-22T10:28:17.997Z</time></trkpt><trkpt lat="30.65115786109497" lon="-6.853231340792855"><ele>1431.0</ele><time>2026-03-22T10:28:18.997Z</time></trkpt><trkpt lat="30.65114364686296" lon="-6.853341474840864"><ele>1431.0</ele><time>2026-03-22T10:28:19.997Z</time></trkpt><trkpt lat="30.651154425853917" lon="-6.853460311451111"><ele>1431.0</ele><time>2026-03-22T10:28:20.997Z</time></trkpt><trkpt lat="30.65115865481658" lon="-6.853568070675221"><ele>1431.0</ele><time>2026-03-22T10:28:21.997Z</time></trkpt><trkpt lat="30.651091975723563" lon="-6.853624200819554"><ele>1431.0</ele><time>2026-03-22T10:28:23.997Z</time></trkpt><trkpt lat="30.651005053962958" lon="-6.853668127926262"><ele>1432.0</ele><time>2026-03-22T10:28:25.997Z</time></trkpt><trkpt lat="30.6509503401567" lon="-6.853707142561437"><ele>1433.0</ele><time>2026-03-22T10:28:27.997Z</time></trkpt><trkpt lat="30.650873741925395" lon="-6.853766982688686"><ele>1434.0</ele><time>2026-03-22T10:28:29.997Z</time></trkpt><trkpt lat="30.650824204799456" lon="-6.853846347373644"><ele>1435.0</ele><time>2026-03-22T10:28:31.997Z</time></trkpt><trkpt lat="30.650790038085947" lon="-6.85394354933274"><ele>1436.0</ele><time>2026-03-22T10:28:33.997Z</time></trkpt><trkpt lat="30.65075461982237" lon="-6.85407147640562"><ele>1437.0</ele><time>2026-03-22T10:28:35.997Z</time></trkpt><trkpt lat="30.650729887290915" lon="-6.854140280191605"><ele>1437.0</ele><time>2026-03-22T10:28:36.997Z</time></trkpt><trkpt lat="30.650701404676195" lon="-6.8542155195678145"><ele>1437.0</ele><time>2026-03-22T10:28:37.997Z</time></trkpt><trkpt lat="30.650668099413977" lon="-6.854289644445446"><ele>1437.0</ele><time>2026-03-22T10:28:38.997Z</time></trkpt><trkpt lat="30.65064003713185" lon="-6.854367681376376"><ele>1437.0</ele><time>2026-03-22T10:28:39.997Z</time></trkpt><trkpt lat="30.650592481627147" lon="-6.854443552548599"><ele>1437.0</ele><time>2026-03-22T10:28:40.997Z</time></trkpt><trkpt lat="30.65054557155242" lon="-6.854518858524057"><ele>1437.0</ele><time>2026-03-22T10:28:41.997Z</time></trkpt><trkpt lat="30.650489006760257" lon="-6.854588409269079"><ele>1437.3333333333333</ele><time>2026-03-22T10:28:42.997Z</time></trkpt><trkpt lat="30.650422365358928" lon="-6.8546413409925915"><ele>1437.6666666666667</ele><time>2026-03-22T10:28:43.997Z</time></trkpt><trkpt lat="30.650352756632174" lon="-6.8546782004138755"><ele>1438.0</ele><time>2026-03-22T10:28:44.997Z</time></trkpt><trkpt lat="30.650287912632443" lon="-6.854704695138201"><ele>1438.3333333333335</ele><time>2026-03-22T10:28:45.997Z</time></trkpt><trkpt lat="30.650213956123437" lon="-6.854751594254788"><ele>1438.6666666666667</ele><time>2026-03-22T10:28:46.997Z</time></trkpt><trkpt lat="30.65013215606239" lon="-6.854802302815311"><ele>1439.0</ele><time>2026-03-22T10:28:47.997Z</time></trkpt><trkpt lat="30.65004992737933" lon="-6.854845202300986"><ele>1439.6666666666667</ele><time>2026-03-22T10:28:48.997Z</time></trkpt><trkpt lat="30.649974755606685" lon="-6.854879559942571"><ele>1440.3333333333335</ele><time>2026-03-22T10:28:49.997Z</time></trkpt><trkpt lat="30.649901811125872" lon="-6.854911538543232"><ele>1441.0</ele><time>2026-03-22T10:28:50.997Z</time></trkpt><trkpt lat="30.64979202326724" lon="-6.85494429913592"><ele>1441.6666666666667</ele><time>2026-03-22T10:28:52.997Z</time></trkpt><trkpt lat="30.649721750714335" lon="-6.854904560093684"><ele>1442.3333333333333</ele><time>2026-03-22T10:28:54.997Z</time></trkpt><trkpt lat="30.649665061869086" lon="-6.854865210307914"><ele>1443.0</ele><time>2026-03-22T10:28:56.997Z</time></trkpt><trkpt lat="30.64961196137848" lon="-6.854805934958252"><ele>1443.0</ele><time>2026-03-22T10:28:58.997Z</time></trkpt><trkpt lat="30.64957286096214" lon="-6.854740921718471"><ele>1443.0</ele><time>2026-03-22T10:29:00.997Z</time></trkpt><trkpt lat="30.64955186476978" lon="-6.854661656128798"><ele>1443.0</ele><time>2026-03-22T10:29:03.997Z</time></trkpt><trkpt lat="30.649532769764512" lon="-6.854568824009304"><ele>1443.0</ele><time>2026-03-22T10:29:05.997Z</time></trkpt><trkpt lat="30.649514259245024" lon="-6.854342300998198"><ele>1443.0</ele><time>2026-03-22T10:30:11.997Z</time></trkpt><trkpt lat="30.649498963052736" lon="-6.85419727929853"><ele>1443.8000000000002</ele><time>2026-03-22T10:30:13.997Z</time></trkpt><trkpt lat="30.64947141887959" lon="-6.854118318325608"><ele>1444.6</ele><time>2026-03-22T10:30:14.997Z</time></trkpt><trkpt lat="30.649369581346033" lon="-6.854088358493619"><ele>1445.4</ele><time>2026-03-22T10:30:16.997Z</time></trkpt><trkpt lat="30.64928756580255" lon="-6.854167942579156"><ele>1446.1999999999998</ele><time>2026-03-22T10:30:18.997Z</time></trkpt><trkpt lat="30.64921298547458" lon="-6.854270474387046"><ele>1447.0</ele><time>2026-03-22T10:30:20.997Z</time></trkpt><trkpt lat="30.64915143830065" lon="-6.8543185909729765"><ele>1447.0</ele><time>2026-03-22T10:30:21.997Z</time></trkpt><trkpt lat="30.64909565661468" lon="-6.854385659854191"><ele>1447.0</ele><time>2026-03-22T10:30:22.997Z</time></trkpt><trkpt lat="30.649046902983866" lon="-6.854437756867132"><ele>1447.0</ele><time>2026-03-22T10:30:23.997Z</time></trkpt><trkpt lat="30.649000844298122" lon="-6.854490593166384"><ele>1447.0</ele><time>2026-03-22T10:30:24.997Z</time></trkpt><trkpt lat="30.648906432034057" lon="-6.854550740641721"><ele>1447.0</ele><time>2026-03-22T10:30:26.997Z</time></trkpt><trkpt lat="30.64881677724178" lon="-6.854612035181253"><ele>1447.0</ele><time>2026-03-22T10:30:28.997Z</time></trkpt><trkpt lat="30.648742130116005" lon="-6.854653601000269"><ele>1447.0</ele><time>2026-03-22T10:30:29.997Z</time></trkpt><trkpt lat="30.648655605237593" lon="-6.8546711463428895"><ele>1447.0</ele><time>2026-03-22T10:30:30.997Z</time></trkpt><trkpt lat="30.648547173507158" lon="-6.854664025956398"><ele>1447.0</ele><time>2026-03-22T10:30:31.997Z</time></trkpt><trkpt lat="30.64845780446781" lon="-6.8546509369929565"><ele>1447.0</ele><time>2026-03-22T10:30:32.997Z</time></trkpt><trkpt lat="30.648352213773006" lon="-6.854662764682248"><ele>1447.0</ele><time>2026-03-22T10:30:33.997Z</time></trkpt><trkpt lat="30.64825916181654" lon="-6.854692165856046"><ele>1449.0</ele><time>2026-03-22T10:30:34.997Z</time></trkpt><trkpt lat="30.64816334884737" lon="-6.854721055706228"><ele>1451.0</ele><time>2026-03-22T10:30:35.997Z</time></trkpt><trkpt lat="30.648073827405685" lon="-6.854741934686021"><ele>1453.0</ele><time>2026-03-22T10:30:36.997Z</time></trkpt><trkpt lat="30.648004355925988" lon="-6.854759846414321"><ele>1455.0</ele><time>2026-03-22T10:30:37.997Z</time></trkpt><trkpt lat="30.647909534988926" lon="-6.854784850374358"><ele>1457.0</ele><time>2026-03-22T10:30:39.997Z</time></trkpt><trkpt lat="30.64781975367095" lon="-6.854810831187921"><ele>1457.6</ele><time>2026-03-22T10:30:41.997Z</time></trkpt><trkpt lat="30.647720508569936" lon="-6.854866888377653"><ele>1458.1999999999998</ele><time>2026-03-22T10:30:43.997Z</time></trkpt><trkpt lat="30.647634949143892" lon="-6.854944728883169"><ele>1458.8</ele><time>2026-03-22T10:30:45.997Z</time></trkpt><trkpt lat="30.64751441959076" lon="-6.85496851829864"><ele>1459.4</ele><time>2026-03-22T10:30:47.997Z</time></trkpt><trkpt lat="30.647444615001593" lon="-6.854985737624039"><ele>1460.0</ele><time>2026-03-22T10:30:48.997Z</time></trkpt><trkpt lat="30.647356398975738" lon="-6.854995716393537"><ele>1460.0</ele><time>2026-03-22T10:30:49.997Z</time></trkpt><trkpt lat="30.64727932935972" lon="-6.855010344942028"><ele>1460.0</ele><time>2026-03-22T10:30:50.997Z</time></trkpt><trkpt lat="30.647155427816912" lon="-6.855004540807338"><ele>1460.0</ele><time>2026-03-22T10:30:52.997Z</time></trkpt><trkpt lat="30.64703436964273" lon="-6.855026366538134"><ele>1460.0</ele><time>2026-03-22T10:30:54.997Z</time></trkpt><trkpt lat="30.64691609787009" lon="-6.855056671446751"><ele>1460.0</ele><time>2026-03-22T10:30:56.997Z</time></trkpt><trkpt lat="30.646805796626058" lon="-6.855110561814866"><ele>1461.0</ele><time>2026-03-22T10:30:58.997Z</time></trkpt><trkpt lat="30.646726297499857" lon="-6.855154805813083"><ele>1462.0</ele><time>2026-03-22T10:31:00.997Z</time></trkpt><trkpt lat="30.64665702338877" lon="-6.855212228057982"><ele>1463.0</ele><time>2026-03-22T10:31:02.997Z</time></trkpt><trkpt lat="30.64658754193108" lon="-6.8552500171372115"><ele>1464.0</ele><time>2026-03-22T10:31:03.997Z</time></trkpt><trkpt lat="30.646515382642164" lon="-6.855294391865946"><ele>1465.0</ele><time>2026-03-22T10:31:04.997Z</time></trkpt><trkpt lat="30.646426281244526" lon="-6.8553448773555425"><ele>1466.0</ele><time>2026-03-22T10:31:05.997Z</time></trkpt><trkpt lat="30.6463310024485" lon="-6.8553625206406075"><ele>1466.0</ele><time>2026-03-22T10:31:06.997Z</time></trkpt><trkpt lat="30.6462424974149" lon="-6.855359331647742"><ele>1466.0</ele><time>2026-03-22T10:31:07.997Z</time></trkpt><trkpt lat="30.646179141778685" lon="-6.855335162714627"><ele>1466.0</ele><time>2026-03-22T10:31:08.997Z</time></trkpt><trkpt lat="30.646110619457648" lon="-6.855242314898384"><ele>1466.0</ele><time>2026-03-22T10:31:10.997Z</time></trkpt><trkpt lat="30.646111199398355" lon="-6.855149397480966"><ele>1466.0</ele><time>2026-03-22T10:31:11.997Z</time></trkpt><trkpt lat="30.6461383917926" lon="-6.85502218832589"><ele>1464.0</ele><time>2026-03-22T10:31:12.997Z</time></trkpt><trkpt lat="30.64615783083449" lon="-6.85489377502086"><ele>1462.0</ele><time>2026-03-22T10:31:13.997Z</time></trkpt><trkpt lat="30.64619329800751" lon="-6.85477979628822"><ele>1460.0</ele><time>2026-03-22T10:31:14.997Z</time></trkpt><trkpt lat="30.646212821279452" lon="-6.854686544511361"><ele>1458.0</ele><time>2026-03-22T10:31:15.997Z</time></trkpt><trkpt lat="30.646232853358686" lon="-6.854611012471313"><ele>1456.0</ele><time>2026-03-22T10:31:16.997Z</time></trkpt><trkpt lat="30.646240661946546" lon="-6.854500265895601"><ele>1456.0</ele><time>2026-03-22T10:31:18.997Z</time></trkpt><trkpt lat="30.64619270009049" lon="-6.854445466010152"><ele>1456.0</ele><time>2026-03-22T10:31:20.997Z</time></trkpt><trkpt lat="30.64612404037299" lon="-6.8544164437752935"><ele>1456.0</ele><time>2026-03-22T10:31:22.997Z</time></trkpt><trkpt lat="30.646067669824983" lon="-6.854355444192001"><ele>1456.0</ele><time>2026-03-22T10:31:25.997Z</time></trkpt><trkpt lat="30.64596691622082" lon="-6.854301337780554"><ele>1456.0</ele><time>2026-03-22T10:31:28.997Z</time></trkpt><trkpt lat="30.645857339256466" lon="-6.854311173318001"><ele>1456.0</ele><time>2026-03-22T10:31:30.997Z</time></trkpt><trkpt lat="30.645747164679896" lon="-6.85434870944418"><ele>1455.6666666666665</ele><time>2026-03-22T10:31:32.997Z</time></trkpt><trkpt lat="30.645682493700395" lon="-6.854387900733042"><ele>1455.3333333333333</ele><time>2026-03-22T10:31:33.997Z</time></trkpt><trkpt lat="30.645598622400183" lon="-6.854403412211666"><ele>1455.0</ele><time>2026-03-22T10:31:34.997Z</time></trkpt><trkpt lat="30.6455146686491" lon="-6.854391374178551"><ele>1454.6666666666667</ele><time>2026-03-22T10:31:35.997Z</time></trkpt><trkpt lat="30.645431651833388" lon="-6.854394031340117"><ele>1454.3333333333335</ele><time>2026-03-22T10:31:36.997Z</time></trkpt><trkpt lat="30.64532634336372" lon="-6.854417803696412"><ele>1454.0</ele><time>2026-03-22T10:31:37.997Z</time></trkpt><trkpt lat="30.64523284480626" lon="-6.85445343220544"><ele>1453.2</ele><time>2026-03-22T10:31:38.997Z</time></trkpt><trkpt lat="30.64515262571174" lon="-6.854535760771524"><ele>1452.4</ele><time>2026-03-22T10:31:39.997Z</time></trkpt><trkpt lat="30.64508470144404" lon="-6.854649159442172"><ele>1451.6</ele><time>2026-03-22T10:31:40.997Z</time></trkpt><trkpt lat="30.645025907905357" lon="-6.8547380746130955"><ele>1450.8</ele><time>2026-03-22T10:31:41.997Z</time></trkpt><trkpt lat="30.644971585311506" lon="-6.854779664846539"><ele>1450.0</ele><time>2026-03-22T10:31:42.997Z</time></trkpt><trkpt lat="30.64489920651649" lon="-6.854791493419711"><ele>1450.0</ele><time>2026-03-22T10:31:43.997Z</time></trkpt><trkpt lat="30.644806584713876" lon="-6.8547708764342214"><ele>1450.0</ele><time>2026-03-22T10:31:44.997Z</time></trkpt><trkpt lat="30.64472644860323" lon="-6.854745971549455"><ele>1450.0</ele><time>2026-03-22T10:31:45.997Z</time></trkpt><trkpt lat="30.6446546601902" lon="-6.854733066994845"><ele>1450.0</ele><time>2026-03-22T10:31:46.997Z</time></trkpt><trkpt lat="30.644545817965763" lon="-6.854739589939552"><ele>1450.0</ele><time>2026-03-22T10:31:47.997Z</time></trkpt><trkpt lat="30.644400822532493" lon="-6.85474819473064"><ele>1450.25</ele><time>2026-03-22T10:31:48.997Z</time></trkpt><trkpt lat="30.64425832050622" lon="-6.854783187286037"><ele>1450.5</ele><time>2026-03-22T10:31:49.997Z</time></trkpt><trkpt lat="30.64414691508466" lon="-6.8548345492065765"><ele>1450.75</ele><time>2026-03-22T10:31:50.997Z</time></trkpt><trkpt lat="30.644041244629463" lon="-6.854894771979136"><ele>1451.0</ele><time>2026-03-22T10:31:51.997Z</time></trkpt><trkpt lat="30.643922154264512" lon="-6.854934852545868"><ele>1451.0</ele><time>2026-03-22T10:31:52.997Z</time></trkpt><trkpt lat="30.64380188901939" lon="-6.8549497519260605"><ele>1451.0</ele><time>2026-03-22T10:31:53.997Z</time></trkpt><trkpt lat="30.643688597092215" lon="-6.8549578341811825"><ele>1451.0</ele><time>2026-03-22T10:31:54.997Z</time></trkpt><trkpt lat="30.643596543866572" lon="-6.854968312007926"><ele>1451.0</ele><time>2026-03-22T10:31:55.996Z</time></trkpt><trkpt lat="30.643516082738763" lon="-6.854990845414724"><ele>1451.0</ele><time>2026-03-22T10:31:56.996Z</time></trkpt><trkpt lat="30.643450439437423" lon="-6.85503261949841"><ele>1450.6</ele><time>2026-03-22T10:31:57.997Z</time></trkpt><trkpt lat="30.643400671619098" lon="-6.855106790179946"><ele>1450.1999999999998</ele><time>2026-03-22T10:31:58.997Z</time></trkpt><trkpt lat="30.643344193383776" lon="-6.855217891881896"><ele>1449.8000000000002</ele><time>2026-03-22T10:31:59.997Z</time></trkpt><trkpt lat="30.643300999922033" lon="-6.8553376088391555"><ele>1449.4</ele><time>2026-03-22T10:32:00.997Z</time></trkpt><trkpt lat="30.643254755231" lon="-6.855456839861965"><ele>1449.0</ele><time>2026-03-22T10:32:01.997Z</time></trkpt><trkpt lat="30.643200752993092" lon="-6.855550631834787"><ele>1448.8000000000002</ele><time>2026-03-22T10:32:02.997Z</time></trkpt><trkpt lat="30.643116207538878" lon="-6.855621251941317"><ele>1448.6000000000001</ele><time>2026-03-22T10:32:03.997Z</time></trkpt><trkpt lat="30.643031777558544" lon="-6.855686501873624"><ele>1448.4</ele><time>2026-03-22T10:32:04.997Z</time></trkpt><trkpt lat="30.64295428200906" lon="-6.855769801463594"><ele>1448.2</ele><time>2026-03-22T10:32:05.997Z</time></trkpt><trkpt lat="30.64287589015118" lon="-6.855879091698464"><ele>1448.0</ele><time>2026-03-22T10:32:06.997Z</time></trkpt><trkpt lat="30.64277945198711" lon="-6.855969888972356"><ele>1448.0</ele><time>2026-03-22T10:32:07.997Z</time></trkpt><trkpt lat="30.642681016542536" lon="-6.856060956987444"><ele>1448.0</ele><time>2026-03-22T10:32:08.997Z</time></trkpt><trkpt lat="30.642597603731407" lon="-6.856194112070815"><ele>1448.0</ele><time>2026-03-22T10:32:09.997Z</time></trkpt><trkpt lat="30.642519344656396" lon="-6.85635003455723"><ele>1448.0</ele><time>2026-03-22T10:32:10.997Z</time></trkpt><trkpt lat="30.64243753120754" lon="-6.856492158472964"><ele>1448.0</ele><time>2026-03-22T10:32:11.997Z</time></trkpt><trkpt lat="30.642365904446585" lon="-6.856620228024436"><ele>1448.0</ele><time>2026-03-22T10:32:12.997Z</time></trkpt><trkpt lat="30.642300861324276" lon="-6.856726216361389"><ele>1448.0</ele><time>2026-03-22T10:32:13.997Z</time></trkpt><trkpt lat="30.64221213458191" lon="-6.856816147169456"><ele>1448.0</ele><time>2026-03-22T10:32:14.997Z</time></trkpt><trkpt lat="30.642125816427217" lon="-6.856947229198922"><ele>1447.6666666666667</ele><time>2026-03-22T10:32:15.997Z</time></trkpt><trkpt lat="30.64204453054731" lon="-6.8570988411932134"><ele>1447.3333333333333</ele><time>2026-03-22T10:32:16.997Z</time></trkpt><trkpt lat="30.64194900423246" lon="-6.857251009558079"><ele>1447.0</ele><time>2026-03-22T10:32:17.997Z</time></trkpt><trkpt lat="30.641847490414996" lon="-6.857404677510818"><ele>1447.0</ele><time>2026-03-22T10:32:18.997Z</time></trkpt><trkpt lat="30.641755334410792" lon="-6.857549891491665"><ele>1447.0</ele><time>2026-03-22T10:32:19.997Z</time></trkpt><trkpt lat="30.641683226263588" lon="-6.857674886192575"><ele>1447.0</ele><time>2026-03-22T10:32:20.997Z</time></trkpt><trkpt lat="30.641633840233258" lon="-6.857792580624723"><ele>1447.0</ele><time>2026-03-22T10:32:21.997Z</time></trkpt><trkpt lat="30.641597935694225" lon="-6.857911231609354"><ele>1447.3333333333333</ele><time>2026-03-22T10:32:22.997Z</time></trkpt><trkpt lat="30.64158737751189" lon="-6.858010499284797"><ele>1447.6666666666665</ele><time>2026-03-22T10:32:23.997Z</time></trkpt><trkpt lat="30.64158195658729" lon="-6.85811182529998"><ele>1448.0</ele><time>2026-03-22T10:32:24.997Z</time></trkpt><trkpt lat="30.64155632795597" lon="-6.858186793104609"><ele>1448.3333333333333</ele><time>2026-03-22T10:32:25.997Z</time></trkpt><trkpt lat="30.64150534708399" lon="-6.858307439758472"><ele>1448.6666666666667</ele><time>2026-03-22T10:32:27.997Z</time></trkpt><trkpt lat="30.641447719204052" lon="-6.858387739989866"><ele>1449.0</ele><time>2026-03-22T10:32:29.997Z</time></trkpt><trkpt lat="30.641372690956175" lon="-6.858456427669319"><ele>1449.0</ele><time>2026-03-22T10:32:33.997Z</time></trkpt><trkpt lat="30.641378905248143" lon="-6.858606262866128"><ele>1449.0</ele><time>2026-03-22T10:32:35.997Z</time></trkpt><trkpt lat="30.641448035896698" lon="-6.858667900234666"><ele>1449.0</ele><time>2026-03-22T10:32:36.997Z</time></trkpt><trkpt lat="30.641528094509834" lon="-6.858709406195015"><ele>1449.0</ele><time>2026-03-22T10:32:37.997Z</time></trkpt><trkpt lat="30.641497707694878" lon="-6.8588134187866405"><ele>1449.0</ele><time>2026-03-22T10:32:39.997Z</time></trkpt><trkpt lat="30.641431964194922" lon="-6.858845021676936"><ele>1449.0</ele><time>2026-03-22T10:32:40.997Z</time></trkpt><trkpt lat="30.641334981975977" lon="-6.858865903269877"><ele>1449.0</ele><time>2026-03-22T10:32:41.997Z</time></trkpt><trkpt lat="30.641230506771283" lon="-6.858910379129603"><ele>1449.0</ele><time>2026-03-22T10:32:42.997Z</time></trkpt><trkpt lat="30.641127993425197" lon="-6.858981644442462"><ele>1449.0</ele><time>2026-03-22T10:32:43.997Z</time></trkpt><trkpt lat="30.641012832015377" lon="-6.859051755525674"><ele>1449.5</ele><time>2026-03-22T10:32:44.997Z</time></trkpt><trkpt lat="30.640905559309548" lon="-6.859100850216772"><ele>1450.0</ele><time>2026-03-22T10:32:45.997Z</time></trkpt><trkpt lat="30.640821353748827" lon="-6.859139980136966"><ele>1450.5</ele><time>2026-03-22T10:32:46.997Z</time></trkpt><trkpt lat="30.640743205410566" lon="-6.859168699641154"><ele>1451.0</ele><time>2026-03-22T10:32:47.997Z</time></trkpt><trkpt lat="30.64066857600291" lon="-6.859207442493058"><ele>1451.5</ele><time>2026-03-22T10:32:48.997Z</time></trkpt><trkpt lat="30.640600038174234" lon="-6.8592511037709"><ele>1452.0</ele><time>2026-03-22T10:32:49.997Z</time></trkpt><trkpt lat="30.640536562880744" lon="-6.8593042937014195"><ele>1454.0</ele><time>2026-03-22T10:32:50.997Z</time></trkpt><trkpt lat="30.640481872824886" lon="-6.859368861270991"><ele>1456.0</ele><time>2026-03-22T10:32:51.997Z</time></trkpt><trkpt lat="30.64043090222626" lon="-6.85946108804745"><ele>1458.0</ele><time>2026-03-22T10:32:52.997Z</time></trkpt><trkpt lat="30.64037741002111" lon="-6.859580509887822"><ele>1460.0</ele><time>2026-03-22T10:32:53.997Z</time></trkpt><trkpt lat="30.64032870066245" lon="-6.85970367334602"><ele>1462.0</ele><time>2026-03-22T10:32:54.997Z</time></trkpt><trkpt lat="30.640273223643103" lon="-6.859801540226013"><ele>1462.0</ele><time>2026-03-22T10:32:55.997Z</time></trkpt><trkpt lat="30.64020957619819" lon="-6.859896936038664"><ele>1462.0</ele><time>2026-03-22T10:32:56.997Z</time></trkpt><trkpt lat="30.64015475796064" lon="-6.859976201629731"><ele>1462.0</ele><time>2026-03-22T10:32:57.997Z</time></trkpt><trkpt lat="30.640123704112504" lon="-6.860044172924793"><ele>1462.0</ele><time>2026-03-22T10:32:58.997Z</time></trkpt><trkpt lat="30.640143695835643" lon="-6.860178386174494"><ele>1462.0</ele><time>2026-03-22T10:33:00.997Z</time></trkpt><trkpt lat="30.640166511446747" lon="-6.860260888924671"><ele>1462.0</ele><time>2026-03-22T10:33:01.997Z</time></trkpt><trkpt lat="30.640147238179196" lon="-6.860356109956389"><ele>1461.8</ele><time>2026-03-22T10:33:02.997Z</time></trkpt><trkpt lat="30.640110863083617" lon="-6.860437302807407"><ele>1461.6</ele><time>2026-03-22T10:33:03.997Z</time></trkpt><trkpt lat="30.640023936781624" lon="-6.860572847762178"><ele>1461.3999999999999</ele><time>2026-03-22T10:33:05.997Z</time></trkpt><trkpt lat="30.63995658530456" lon="-6.860658890149243"><ele>1461.1999999999998</ele><time>2026-03-22T10:33:06.997Z</time></trkpt><trkpt lat="30.639885145884385" lon="-6.860754194784474"><ele>1461.0</ele><time>2026-03-22T10:33:07.997Z</time></trkpt><trkpt lat="30.63982726368573" lon="-6.860864958167515"><ele>1459.4</ele><time>2026-03-22T10:33:08.997Z</time></trkpt><trkpt lat="30.63980734169365" lon="-6.860984271482163"><ele>1457.8</ele><time>2026-03-22T10:33:09.997Z</time></trkpt><trkpt lat="30.63979798208679" lon="-6.861113964931117"><ele>1456.2</ele><time>2026-03-22T10:33:10.997Z</time></trkpt><trkpt lat="30.63977466648275" lon="-6.861233281449381"><ele>1454.6000000000001</ele><time>2026-03-22T10:33:11.997Z</time></trkpt><trkpt lat="30.639739767561437" lon="-6.861351555158944"><ele>1453.0</ele><time>2026-03-22T10:33:12.997Z</time></trkpt><trkpt lat="30.63968965603809" lon="-6.861446011914847"><ele>1453.0</ele><time>2026-03-22T10:33:13.997Z</time></trkpt><trkpt lat="30.639631188733862" lon="-6.861537691814072"><ele>1453.0</ele><time>2026-03-22T10:33:14.997Z</time></trkpt><trkpt lat="30.63961100866265" lon="-6.861650709600728"><ele>1453.0</ele><time>2026-03-22T10:33:15.997Z</time></trkpt><trkpt lat="30.6395939717293" lon="-6.861747940150494"><ele>1453.0</ele><time>2026-03-22T10:33:16.997Z</time></trkpt><trkpt lat="30.6395484004941" lon="-6.861844712077449"><ele>1453.0</ele><time>2026-03-22T10:33:17.997Z</time></trkpt><trkpt lat="30.639485783283305" lon="-6.861931403047208"><ele>1454.2</ele><time>2026-03-22T10:33:18.997Z</time></trkpt><trkpt lat="30.639429380138925" lon="-6.862010502086726"><ele>1455.4</ele><time>2026-03-22T10:33:19.997Z</time></trkpt><trkpt lat="30.63937010940344" lon="-6.862099441653016"><ele>1456.6000000000001</ele><time>2026-03-22T10:33:20.997Z</time></trkpt><trkpt lat="30.63930842778714" lon="-6.862189951915493"><ele>1457.8000000000002</ele><time>2026-03-22T10:33:21.997Z</time></trkpt><trkpt lat="30.63925318774089" lon="-6.8622701431198525"><ele>1459.0</ele><time>2026-03-22T10:33:22.997Z</time></trkpt><trkpt lat="30.639195802532168" lon="-6.862345322383859"><ele>1459.0</ele><time>2026-03-22T10:33:23.997Z</time></trkpt><trkpt lat="30.639135955248097" lon="-6.862444700888399"><ele>1459.0</ele><time>2026-03-22T10:33:24.997Z</time></trkpt><trkpt lat="30.639089491816186" lon="-6.862553029736908"><ele>1459.0</ele><time>2026-03-22T10:33:25.997Z</time></trkpt><trkpt lat="30.63904305627995" lon="-6.862648624475184"><ele>1459.0</ele><time>2026-03-22T10:33:26.997Z</time></trkpt><trkpt lat="30.63898423788255" lon="-6.8627518369933505"><ele>1459.0</ele><time>2026-03-22T10:33:27.997Z</time></trkpt><trkpt lat="30.63896095033856" lon="-6.862860297721214"><ele>1458.4</ele><time>2026-03-22T10:33:28.997Z</time></trkpt><trkpt lat="30.638942594995815" lon="-6.862970554575561"><ele>1457.8000000000002</ele><time>2026-03-22T10:33:29.997Z</time></trkpt><trkpt lat="30.63890366920376" lon="-6.863082494578258"><ele>1457.1999999999998</ele><time>2026-03-22T10:33:30.997Z</time></trkpt><trkpt lat="30.63887064013669" lon="-6.863177951378936"><ele>1456.6</ele><time>2026-03-22T10:33:31.997Z</time></trkpt><trkpt lat="30.638825451889215" lon="-6.863286485420432"><ele>1456.0</ele><time>2026-03-22T10:33:32.997Z</time></trkpt><trkpt lat="30.638797599272248" lon="-6.863411497282617"><ele>1458.0</ele><time>2026-03-22T10:33:33.997Z</time></trkpt><trkpt lat="30.638787443761018" lon="-6.863518358876696"><ele>1460.0</ele><time>2026-03-22T10:33:34.997Z</time></trkpt><trkpt lat="30.638796027249683" lon="-6.863623547135244"><ele>1462.0</ele><time>2026-03-22T10:33:36.997Z</time></trkpt><trkpt lat="30.638750533609105" lon="-6.863685326240598"><ele>1464.0</ele><time>2026-03-22T10:33:39.997Z</time></trkpt><trkpt lat="30.638682637896913" lon="-6.863728214386067"><ele>1466.0</ele><time>2026-03-22T10:33:42.997Z</time></trkpt><trkpt lat="30.638636611417" lon="-6.8638132828598675"><ele>1468.0</ele><time>2026-03-22T10:33:44.997Z</time></trkpt><trkpt lat="30.638600180516537" lon="-6.863909206475113"><ele>1468.0</ele><time>2026-03-22T10:33:46.997Z</time></trkpt><trkpt lat="30.63856301683375" lon="-6.863999289585713"><ele>1468.0</ele><time>2026-03-22T10:33:48.997Z</time></trkpt><trkpt lat="30.638472766161023" lon="-6.86408395026144"><ele>1468.0</ele><time>2026-03-22T10:33:50.997Z</time></trkpt><trkpt lat="30.6384280504433" lon="-6.864143862761144"><ele>1468.0</ele><time>2026-03-22T10:33:51.997Z</time></trkpt><trkpt lat="30.638376459214527" lon="-6.86421085094529"><ele>1468.0</ele><time>2026-03-22T10:33:52.997Z</time></trkpt><trkpt lat="30.63833806303487" lon="-6.864271198666153"><ele>1468.0</ele><time>2026-03-22T10:33:53.997Z</time></trkpt><trkpt lat="30.638304740522376" lon="-6.864347580871557"><ele>1468.0</ele><time>2026-03-22T10:33:54.997Z</time></trkpt><trkpt lat="30.638251440978877" lon="-6.8644872848537775"><ele>1468.0</ele><time>2026-03-22T10:33:55.997Z</time></trkpt><trkpt lat="30.638194074265538" lon="-6.864611822862037"><ele>1468.0</ele><time>2026-03-22T10:33:56.997Z</time></trkpt><trkpt lat="30.6381453609789" lon="-6.864744871402298"><ele>1468.0</ele><time>2026-03-22T10:33:57.997Z</time></trkpt><trkpt lat="30.63807139939783" lon="-6.864870857845308"><ele>1468.0</ele><time>2026-03-22T10:33:58.997Z</time></trkpt><trkpt lat="30.638010589871506" lon="-6.864990027570806"><ele>1468.0</ele><time>2026-03-22T10:33:59.997Z</time></trkpt><trkpt lat="30.637978855318934" lon="-6.865121622611436"><ele>1468.0</ele><time>2026-03-22T10:34:00.997Z</time></trkpt><trkpt lat="30.637922476837936" lon="-6.865265340249736"><ele>1468.0</ele><time>2026-03-22T10:34:01.997Z</time></trkpt><trkpt lat="30.63785629792982" lon="-6.865418301141796"><ele>1469.25</ele><time>2026-03-22T10:34:02.997Z</time></trkpt><trkpt lat="30.637787418214625" lon="-6.865535292083183"><ele>1470.5</ele><time>2026-03-22T10:34:03.997Z</time></trkpt><trkpt lat="30.637709613439124" lon="-6.86563725801469"><ele>1471.75</ele><time>2026-03-22T10:34:04.997Z</time></trkpt><trkpt lat="30.63763055735698" lon="-6.865740831165247"><ele>1473.0</ele><time>2026-03-22T10:34:05.997Z</time></trkpt><trkpt lat="30.637565673459" lon="-6.865849306799133"><ele>1473.5</ele><time>2026-03-22T10:34:06.997Z</time></trkpt><trkpt lat="30.637515854848385" lon="-6.865973026603134"><ele>1474.0</ele><time>2026-03-22T10:34:07.996Z</time></trkpt><trkpt lat="30.637464174065244" lon="-6.866109951203027"><ele>1474.5</ele><time>2026-03-22T10:34:08.996Z</time></trkpt><trkpt lat="30.637400677174252" lon="-6.866232757306346"><ele>1475.0</ele><time>2026-03-22T10:34:09.997Z</time></trkpt><trkpt lat="30.63736534248414" lon="-6.866374379835039"><ele>1475.0</ele><time>2026-03-22T10:34:10.997Z</time></trkpt><trkpt lat="30.63731682075945" lon="-6.866530794125042"><ele>1475.0</ele><time>2026-03-22T10:34:11.997Z</time></trkpt><trkpt lat="30.637258380006898" lon="-6.866661410423716"><ele>1475.0</ele><time>2026-03-22T10:34:12.997Z</time></trkpt><trkpt lat="30.63722559825952" lon="-6.866768493967379"><ele>1475.0</ele><time>2026-03-22T10:34:13.997Z</time></trkpt><trkpt lat="30.637220747121763" lon="-6.866858631022375"><ele>1475.0</ele><time>2026-03-22T10:34:14.997Z</time></trkpt><trkpt lat="30.637224522762182" lon="-6.866952177467158"><ele>1476.4</ele><time>2026-03-22T10:34:15.997Z</time></trkpt><trkpt lat="30.63724171649609" lon="-6.867076450769692"><ele>1477.8</ele><time>2026-03-22T10:34:17.997Z</time></trkpt><trkpt lat="30.637257247911162" lon="-6.867194828335399"><ele>1479.1999999999998</ele><time>2026-03-22T10:34:19.997Z</time></trkpt><trkpt lat="30.63726997423754" lon="-6.8673160527854575"><ele>1480.6</ele><time>2026-03-22T10:34:21.997Z</time></trkpt><trkpt lat="30.63726515486576" lon="-6.8674420310896425"><ele>1482.0</ele><time>2026-03-22T10:34:23.997Z</time></trkpt><trkpt lat="30.637231533091736" lon="-6.867557401911459"><ele>1483.0</ele><time>2026-03-22T10:34:25.997Z</time></trkpt><trkpt lat="30.637183439343836" lon="-6.867667955172144"><ele>1484.0</ele><time>2026-03-22T10:34:27.997Z</time></trkpt><trkpt lat="30.637155834269226" lon="-6.867735004896476"><ele>1485.0</ele><time>2026-03-22T10:34:28.997Z</time></trkpt><trkpt lat="30.637107284672457" lon="-6.867859156284585"><ele>1486.0</ele><time>2026-03-22T10:34:30.997Z</time></trkpt><trkpt lat="30.637098442589803" lon="-6.867937412843448"><ele>1487.0</ele><time>2026-03-22T10:34:31.997Z</time></trkpt><trkpt lat="30.637090861689142" lon="-6.868012119718525"><ele>1488.0</ele><time>2026-03-22T10:34:32.997Z</time></trkpt><trkpt lat="30.637080721569276" lon="-6.868090735571562"><ele>1488.0</ele><time>2026-03-22T10:34:33.997Z</time></trkpt><trkpt lat="30.637058676768778" lon="-6.868172095785285"><ele>1488.0</ele><time>2026-03-22T10:34:34.997Z</time></trkpt><trkpt lat="30.637045798165193" lon="-6.8682583985492"><ele>1488.0</ele><time>2026-03-22T10:34:35.997Z</time></trkpt><trkpt lat="30.63704461284948" lon="-6.868343460529378"><ele>1488.0</ele><time>2026-03-22T10:34:36.997Z</time></trkpt><trkpt lat="30.637047296341738" lon="-6.868430717831167"><ele>1488.0</ele><time>2026-03-22T10:34:37.997Z</time></trkpt><trkpt lat="30.637050461995596" lon="-6.868514883139225"><ele>1488.0</ele><time>2026-03-22T10:34:38.997Z</time></trkpt><trkpt lat="30.63705982723087" lon="-6.8686089686925484"><ele>1488.5714285714287</ele><time>2026-03-22T10:34:39.997Z</time></trkpt><trkpt lat="30.63706106736564" lon="-6.868707796969613"><ele>1489.142857142857</ele><time>2026-03-22T10:34:40.997Z</time></trkpt><trkpt lat="30.63705782021723" lon="-6.868802716513857"><ele>1489.7142857142858</ele><time>2026-03-22T10:34:41.997Z</time></trkpt><trkpt lat="30.63705324071905" lon="-6.86888792941378"><ele>1490.2857142857142</ele><time>2026-03-22T10:34:42.997Z</time></trkpt><trkpt lat="30.637042622354166" lon="-6.868972543844772"><ele>1490.857142857143</ele><time>2026-03-22T10:34:43.997Z</time></trkpt><trkpt lat="30.637020817930622" lon="-6.869045641621496"><ele>1491.4285714285716</ele><time>2026-03-22T10:34:44.997Z</time></trkpt><trkpt lat="30.63700328417637" lon="-6.8691230734415685"><ele>1492.0</ele><time>2026-03-22T10:34:45.997Z</time></trkpt><trkpt lat="30.636990491553583" lon="-6.869197128631744"><ele>1492.0</ele><time>2026-03-22T10:34:46.997Z</time></trkpt><trkpt lat="30.63697686889341" lon="-6.869272688248292"><ele>1492.0</ele><time>2026-03-22T10:34:47.997Z</time></trkpt><trkpt lat="30.636956062095294" lon="-6.869366124141247"><ele>1492.0</ele><time>2026-03-22T10:34:48.997Z</time></trkpt><trkpt lat="30.63693827139964" lon="-6.869447857006938"><ele>1492.0</ele><time>2026-03-22T10:34:49.997Z</time></trkpt><trkpt lat="30.636911269907515" lon="-6.8695256785044325"><ele>1492.0</ele><time>2026-03-22T10:34:50.997Z</time></trkpt><trkpt lat="30.63687576177056" lon="-6.869601855692212"><ele>1492.0</ele><time>2026-03-22T10:34:51.997Z</time></trkpt><trkpt lat="30.636835729895303" lon="-6.869687835487244"><ele>1491.3333333333333</ele><time>2026-03-22T10:34:52.997Z</time></trkpt><trkpt lat="30.636791131441008" lon="-6.869763641737743"><ele>1490.6666666666665</ele><time>2026-03-22T10:34:53.997Z</time></trkpt><trkpt lat="30.636750165517714" lon="-6.869847356806468"><ele>1490.0</ele><time>2026-03-22T10:34:54.997Z</time></trkpt><trkpt lat="30.63671835082707" lon="-6.869932869144194"><ele>1489.3333333333333</ele><time>2026-03-22T10:34:55.997Z</time></trkpt><trkpt lat="30.636695345087443" lon="-6.870022908832305"><ele>1488.6666666666667</ele><time>2026-03-22T10:34:56.997Z</time></trkpt><trkpt lat="30.636674422756503" lon="-6.8701046440660125"><ele>1488.0</ele><time>2026-03-22T10:34:57.997Z</time></trkpt><trkpt lat="30.636650876554288" lon="-6.870202183918815"><ele>1487.2</ele><time>2026-03-22T10:34:58.997Z</time></trkpt><trkpt lat="30.636625588133438" lon="-6.870280252429847"><ele>1486.4</ele><time>2026-03-22T10:34:59.997Z</time></trkpt><trkpt lat="30.636593168476264" lon="-6.870360005917129"><ele>1485.6000000000001</ele><time>2026-03-22T10:35:00.997Z</time></trkpt><trkpt lat="30.636562781129474" lon="-6.870459299665612"><ele>1484.8000000000002</ele><time>2026-03-22T10:35:01.997Z</time></trkpt><trkpt lat="30.63653280819253" lon="-6.870591985130772"><ele>1484.0</ele><time>2026-03-22T10:35:02.997Z</time></trkpt><trkpt lat="30.63649129042026" lon="-6.870715923876514"><ele>1484.0</ele><time>2026-03-22T10:35:03.997Z</time></trkpt><trkpt lat="30.636429928382885" lon="-6.870852280171493"><ele>1484.0</ele><time>2026-03-22T10:35:04.997Z</time></trkpt><trkpt lat="30.636356843904846" lon="-6.870957898965594"><ele>1484.0</ele><time>2026-03-22T10:35:05.997Z</time></trkpt><trkpt lat="30.636276584812652" lon="-6.871052969062804"><ele>1484.0</ele><time>2026-03-22T10:35:06.997Z</time></trkpt><trkpt lat="30.636178983201095" lon="-6.871169572501775"><ele>1482.75</ele><time>2026-03-22T10:35:07.997Z</time></trkpt><trkpt lat="30.636071861040744" lon="-6.87130359959942"><ele>1481.5</ele><time>2026-03-22T10:35:08.997Z</time></trkpt><trkpt lat="30.635977545968945" lon="-6.871405361511777"><ele>1480.25</ele><time>2026-03-22T10:35:09.997Z</time></trkpt><trkpt lat="30.635846700756844" lon="-6.871485927229533"><ele>1479.0</ele><time>2026-03-22T10:35:10.997Z</time></trkpt><trkpt lat="30.635719564180867" lon="-6.871588774722031"><ele>1479.0</ele><time>2026-03-22T10:35:11.997Z</time></trkpt><trkpt lat="30.635594725752547" lon="-6.871699989970385"><ele>1479.0</ele><time>2026-03-22T10:35:12.997Z</time></trkpt><trkpt lat="30.63547174899811" lon="-6.871828524437753"><ele>1479.0</ele><time>2026-03-22T10:35:13.997Z</time></trkpt><trkpt lat="30.635370023472465" lon="-6.87194676731656"><ele>1478.8000000000002</ele><time>2026-03-22T10:35:14.997Z</time></trkpt><trkpt lat="30.63528804549733" lon="-6.8720448272026795"><ele>1478.6000000000001</ele><time>2026-03-22T10:35:15.997Z</time></trkpt><trkpt lat="30.635228372327756" lon="-6.8721253498856285"><ele>1478.4</ele><time>2026-03-22T10:35:16.997Z</time></trkpt><trkpt lat="30.635167561801552" lon="-6.872214027424511"><ele>1478.2</ele><time>2026-03-22T10:35:17.997Z</time></trkpt><trkpt lat="30.635107063328864" lon="-6.87229472291832"><ele>1478.0</ele><time>2026-03-22T10:35:18.997Z</time></trkpt><trkpt lat="30.635041083815103" lon="-6.872381984893729"><ele>1478.0</ele><time>2026-03-22T10:35:19.997Z</time></trkpt><trkpt lat="30.63495802111533" lon="-6.872480363389095"><ele>1478.0</ele><time>2026-03-22T10:35:20.997Z</time></trkpt><trkpt lat="30.634879074288953" lon="-6.872598345587693"><ele>1478.0</ele><time>2026-03-22T10:35:21.997Z</time></trkpt><trkpt lat="30.634798155675632" lon="-6.872722668617833"><ele>1478.0</ele><time>2026-03-22T10:35:22.997Z</time></trkpt><trkpt lat="30.634720108286917" lon="-6.872841535307956"><ele>1477.25</ele><time>2026-03-22T10:35:23.997Z</time></trkpt><trkpt lat="30.63464444277882" lon="-6.872942539721343"><ele>1476.5</ele><time>2026-03-22T10:35:24.997Z</time></trkpt><trkpt lat="30.634561674886736" lon="-6.873038540286368"><ele>1475.75</ele><time>2026-03-22T10:35:25.997Z</time></trkpt><trkpt lat="30.63447799101662" lon="-6.873138218366854"><ele>1475.0</ele><time>2026-03-22T10:35:26.997Z</time></trkpt><trkpt lat="30.634391336085343" lon="-6.873233321780223"><ele>1475.0</ele><time>2026-03-22T10:35:27.997Z</time></trkpt><trkpt lat="30.634306998969567" lon="-6.873319956623003"><ele>1475.0</ele><time>2026-03-22T10:35:28.997Z</time></trkpt><trkpt lat="30.63422773482939" lon="-6.87339877881794"><ele>1475.0</ele><time>2026-03-22T10:35:29.997Z</time></trkpt><trkpt lat="30.63414787016181" lon="-6.8734778843523054"><ele>1475.0</ele><time>2026-03-22T10:35:30.997Z</time></trkpt><trkpt lat="30.63407768219464" lon="-6.873578129142457"><ele>1475.0</ele><time>2026-03-22T10:35:31.997Z</time></trkpt><trkpt lat="30.634012954196685" lon="-6.873675641841619"><ele>1474.2</ele><time>2026-03-22T10:35:32.997Z</time></trkpt><trkpt lat="30.633941931367197" lon="-6.873765844093392"><ele>1473.4</ele><time>2026-03-22T10:35:33.997Z</time></trkpt><trkpt lat="30.633879322170245" lon="-6.87383974918893"><ele>1472.6</ele><time>2026-03-22T10:35:34.997Z</time></trkpt><trkpt lat="30.633784832800494" lon="-6.873902278001944"><ele>1471.8</ele><time>2026-03-22T10:35:35.997Z</time></trkpt><trkpt lat="30.633707992337403" lon="-6.873971748655034"><ele>1471.0</ele><time>2026-03-22T10:35:36.997Z</time></trkpt><trkpt lat="30.633639606955082" lon="-6.874053282999187"><ele>1470.8333333333333</ele><time>2026-03-22T10:35:37.997Z</time></trkpt><trkpt lat="30.633583828962475" lon="-6.874121218633237"><ele>1470.6666666666665</ele><time>2026-03-22T10:35:38.997Z</time></trkpt><trkpt lat="30.633510928966935" lon="-6.874183448193857"><ele>1470.5</ele><time>2026-03-22T10:35:39.997Z</time></trkpt><trkpt lat="30.63344590079372" lon="-6.874244953042978"><ele>1470.3333333333333</ele><time>2026-03-22T10:35:40.997Z</time></trkpt><trkpt lat="30.63337063410042" lon="-6.874312063856397"><ele>1470.1666666666667</ele><time>2026-03-22T10:35:41.997Z</time></trkpt><trkpt lat="30.63330615956196" lon="-6.874369695844622"><ele>1470.0</ele><time>2026-03-22T10:35:42.997Z</time></trkpt><trkpt lat="30.63324185978307" lon="-6.874444382245197"><ele>1469.0</ele><time>2026-03-22T10:35:43.997Z</time></trkpt><trkpt lat="30.6331776615549" lon="-6.8745391936448055"><ele>1468.0</ele><time>2026-03-22T10:35:44.997Z</time></trkpt><trkpt lat="30.633123357370437" lon="-6.874649891798382"><ele>1467.0</ele><time>2026-03-22T10:35:45.997Z</time></trkpt><trkpt lat="30.633059564021742" lon="-6.874771280729288"><ele>1466.0</ele><time>2026-03-22T10:35:46.997Z</time></trkpt><trkpt lat="30.632958777217354" lon="-6.874904149696218"><ele>1466.0</ele><time>2026-03-22T10:35:47.997Z</time></trkpt><trkpt lat="30.632853142374515" lon="-6.875019181104042"><ele>1466.0</ele><time>2026-03-22T10:35:48.997Z</time></trkpt><trkpt lat="30.632743513277582" lon="-6.87510674686645"><ele>1466.0</ele><time>2026-03-22T10:35:49.997Z</time></trkpt><trkpt lat="30.63263934872422" lon="-6.875165350144429"><ele>1466.0</ele><time>2026-03-22T10:35:50.997Z</time></trkpt><trkpt lat="30.632515534556454" lon="-6.875222424564499"><ele>1466.75</ele><time>2026-03-22T10:35:51.997Z</time></trkpt><trkpt lat="30.632374923017835" lon="-6.875296873670387"><ele>1467.5</ele><time>2026-03-22T10:35:52.997Z</time></trkpt><trkpt lat="30.632243518796116" lon="-6.875380680919172"><ele>1468.25</ele><time>2026-03-22T10:35:53.997Z</time></trkpt><trkpt lat="30.63214544342891" lon="-6.875487602621879"><ele>1469.0</ele><time>2026-03-22T10:35:54.997Z</time></trkpt><trkpt lat="30.63205542333686" lon="-6.87561352574935"><ele>1469.5</ele><time>2026-03-22T10:35:55.997Z</time></trkpt><trkpt lat="30.63196141107514" lon="-6.875729229486717"><ele>1470.0</ele><time>2026-03-22T10:35:56.997Z</time></trkpt><trkpt lat="30.631843178591772" lon="-6.8758181996400936"><ele>1470.5</ele><time>2026-03-22T10:35:57.997Z</time></trkpt><trkpt lat="30.631710931945996" lon="-6.87590174684161"><ele>1471.0</ele><time>2026-03-22T10:35:58.997Z</time></trkpt><trkpt lat="30.631566597849428" lon="-6.876003291950828"><ele>1471.75</ele><time>2026-03-22T10:35:59.997Z</time></trkpt><trkpt lat="30.631458449084764" lon="-6.876151193684088"><ele>1472.5</ele><time>2026-03-22T10:36:00.997Z</time></trkpt><trkpt lat="30.631361281853138" lon="-6.876267301232671"><ele>1473.25</ele><time>2026-03-22T10:36:01.997Z</time></trkpt><trkpt lat="30.631281031604942" lon="-6.876352369270385"><ele>1474.0</ele><time>2026-03-22T10:36:02.997Z</time></trkpt><trkpt lat="30.631181980121237" lon="-6.8764312151871065"><ele>1474.4</ele><time>2026-03-22T10:36:03.996Z</time></trkpt><trkpt lat="30.63109844515792" lon="-6.876492409887139"><ele>1474.8000000000002</ele><time>2026-03-22T10:36:04.997Z</time></trkpt><trkpt lat="30.631008070195502" lon="-6.876538909634035"><ele>1475.1999999999998</ele><time>2026-03-22T10:36:05.997Z</time></trkpt><trkpt lat="30.630912738410732" lon="-6.876594943269367"><ele>1475.6</ele><time>2026-03-22T10:36:06.997Z</time></trkpt><trkpt lat="30.63080682639922" lon="-6.87668549007648"><ele>1476.0</ele><time>2026-03-22T10:36:07.997Z</time></trkpt><trkpt lat="30.63070375441763" lon="-6.87678171082773"><ele>1476.0</ele><time>2026-03-22T10:36:08.997Z</time></trkpt><trkpt lat="30.630642701567226" lon="-6.876852603197539"><ele>1476.0</ele><time>2026-03-22T10:36:09.997Z</time></trkpt><trkpt lat="30.630544665905568" lon="-6.8769261018417085"><ele>1476.0</ele><time>2026-03-22T10:36:11.997Z</time></trkpt><trkpt lat="30.630430409556215" lon="-6.877015700997316"><ele>1476.0</ele><time>2026-03-22T10:36:13.997Z</time></trkpt><trkpt lat="30.63036079011727" lon="-6.877064635722768"><ele>1476.0</ele><time>2026-03-22T10:36:14.997Z</time></trkpt><trkpt lat="30.630294951123748" lon="-6.8771024343331"><ele>1475.5</ele><time>2026-03-22T10:36:15.997Z</time></trkpt><trkpt lat="30.630227471971818" lon="-6.87713121149656"><ele>1475.0</ele><time>2026-03-22T10:36:16.996Z</time></trkpt><trkpt lat="30.630153193770862" lon="-6.877165853399816"><ele>1474.5</ele><time>2026-03-22T10:36:17.996Z</time></trkpt><trkpt lat="30.63008292675757" lon="-6.877215843099063"><ele>1474.0</ele><time>2026-03-22T10:36:18.996Z</time></trkpt><trkpt lat="30.63002035400646" lon="-6.877282756190533"><ele>1473.5</ele><time>2026-03-22T10:36:19.996Z</time></trkpt><trkpt lat="30.62996870277321" lon="-6.877355424163534"><ele>1473.0</ele><time>2026-03-22T10:36:20.996Z</time></trkpt><trkpt lat="30.629916912208063" lon="-6.877403919158984"><ele>1473.0</ele><time>2026-03-22T10:36:21.996Z</time></trkpt><trkpt lat="30.62985889461854" lon="-6.877455049438665"><ele>1473.0</ele><time>2026-03-22T10:36:22.996Z</time></trkpt><trkpt lat="30.62979895954413" lon="-6.87749163638655"><ele>1473.0</ele><time>2026-03-22T10:36:23.996Z</time></trkpt><trkpt lat="30.62972816183379" lon="-6.877531666408434"><ele>1473.0</ele><time>2026-03-22T10:36:24.996Z</time></trkpt><trkpt lat="30.62965347067008" lon="-6.8775666620016125"><ele>1473.0</ele><time>2026-03-22T10:36:25.996Z</time></trkpt><trkpt lat="30.629581373456737" lon="-6.8776020946294905"><ele>1473.0</ele><time>2026-03-22T10:36:26.996Z</time></trkpt><trkpt lat="30.629496367409846" lon="-6.87764439143082"><ele>1473.0</ele><time>2026-03-22T10:36:27.996Z</time></trkpt><trkpt lat="30.62940948762636" lon="-6.8776800627934"><ele>1473.0</ele><time>2026-03-22T10:36:28.996Z</time></trkpt><trkpt lat="30.629316228648456" lon="-6.877725845961847"><ele>1473.0</ele><time>2026-03-22T10:36:29.996Z</time></trkpt><trkpt lat="30.629235385844304" lon="-6.877767455967228"><ele>1473.0</ele><time>2026-03-22T10:36:30.996Z</time></trkpt><trkpt lat="30.629156762031684" lon="-6.877814465095866"><ele>1473.0</ele><time>2026-03-22T10:36:31.996Z</time></trkpt><trkpt lat="30.629078901114546" lon="-6.877871860026874"><ele>1473.0</ele><time>2026-03-22T10:36:32.996Z</time></trkpt><trkpt lat="30.628997139560823" lon="-6.8779254657219555"><ele>1473.0</ele><time>2026-03-22T10:36:33.996Z</time></trkpt><trkpt lat="30.628909976230066" lon="-6.877983111690861"><ele>1473.0</ele><time>2026-03-22T10:36:34.996Z</time></trkpt><trkpt lat="30.628827374878078" lon="-6.878038703430642"><ele>1473.0</ele><time>2026-03-22T10:36:35.996Z</time></trkpt><trkpt lat="30.62874298454384" lon="-6.878061435919248"><ele>1473.0</ele><time>2026-03-22T10:36:36.996Z</time></trkpt><trkpt lat="30.628658652810095" lon="-6.878064586294688"><ele>1473.5</ele><time>2026-03-22T10:36:37.996Z</time></trkpt><trkpt lat="30.628572208878126" lon="-6.878057375150242"><ele>1474.0</ele><time>2026-03-22T10:36:38.996Z</time></trkpt><trkpt lat="30.628487180365358" lon="-6.878042352373695"><ele>1474.5</ele><time>2026-03-22T10:36:39.996Z</time></trkpt><trkpt lat="30.628417459015722" lon="-6.8780247126942635"><ele>1475.0</ele><time>2026-03-22T10:36:40.996Z</time></trkpt><trkpt lat="30.62834544388505" lon="-6.878011299568692"><ele>1475.5</ele><time>2026-03-22T10:36:41.996Z</time></trkpt><trkpt lat="30.6282767704078" lon="-6.877999183214604"><ele>1476.0</ele><time>2026-03-22T10:36:42.996Z</time></trkpt><trkpt lat="30.628203297258096" lon="-6.877987909985389"><ele>1476.0</ele><time>2026-03-22T10:36:43.996Z</time></trkpt><trkpt lat="30.628128081112713" lon="-6.8779731372154504"><ele>1476.0</ele><time>2026-03-22T10:36:44.996Z</time></trkpt><trkpt lat="30.628044296689097" lon="-6.877961279843862"><ele>1476.0</ele><time>2026-03-22T10:36:45.996Z</time></trkpt><trkpt lat="30.62796026281533" lon="-6.8779522803902635"><ele>1476.0</ele><time>2026-03-22T10:36:46.996Z</time></trkpt><trkpt lat="30.627873766464756" lon="-6.8779348624650405"><ele>1476.0</ele><time>2026-03-22T10:36:47.996Z</time></trkpt><trkpt lat="30.62778152828643" lon="-6.877925235585065"><ele>1476.0</ele><time>2026-03-22T10:36:48.996Z</time></trkpt><trkpt lat="30.62768598785726" lon="-6.8779075817498825"><ele>1476.6</ele><time>2026-03-22T10:36:49.996Z</time></trkpt><trkpt lat="30.62758987825515" lon="-6.877887346918391"><ele>1477.1999999999998</ele><time>2026-03-22T10:36:50.996Z</time></trkpt><trkpt lat="30.627483942176617" lon="-6.877876309316145"><ele>1477.8000000000002</ele><time>2026-03-22T10:36:51.996Z</time></trkpt><trkpt lat="30.627382617760066" lon="-6.877859450488222"><ele>1478.4</ele><time>2026-03-22T10:36:52.996Z</time></trkpt><trkpt lat="30.627263890137172" lon="-6.877840034463153"><ele>1479.0</ele><time>2026-03-22T10:36:53.996Z</time></trkpt><trkpt lat="30.627141868523662" lon="-6.8778138655184"><ele>1479.0</ele><time>2026-03-22T10:36:54.996Z</time></trkpt><trkpt lat="30.62701512312473" lon="-6.877803472774498"><ele>1479.0</ele><time>2026-03-22T10:36:55.996Z</time></trkpt><trkpt lat="30.62687834950974" lon="-6.877798432281485"><ele>1479.0</ele><time>2026-03-22T10:36:56.996Z</time></trkpt><trkpt lat="30.62675279332689" lon="-6.877780130871383"><ele>1479.0</ele><time>2026-03-22T10:36:57.996Z</time></trkpt><trkpt lat="30.626626326836295" lon="-6.87777407360154"><ele>1479.25</ele><time>2026-03-22T10:36:58.996Z</time></trkpt><trkpt lat="30.626521422410846" lon="-6.877798705284347"><ele>1479.5</ele><time>2026-03-22T10:36:59.996Z</time></trkpt><trkpt lat="30.626407064345198" lon="-6.877887200987652"><ele>1479.75</ele><time>2026-03-22T10:37:00.996Z</time></trkpt><trkpt lat="30.62627394288743" lon="-6.877996891393682"><ele>1480.0</ele><time>2026-03-22T10:37:01.996Z</time></trkpt><trkpt lat="30.62613890679037" lon="-6.878105896441529"><ele>1480.75</ele><time>2026-03-22T10:37:02.996Z</time></trkpt><trkpt lat="30.626025635792146" lon="-6.878170567351178"><ele>1481.5</ele><time>2026-03-22T10:37:03.996Z</time></trkpt><trkpt lat="30.62591031977569" lon="-6.878164930142663"><ele>1482.25</ele><time>2026-03-22T10:37:04.996Z</time></trkpt><trkpt lat="30.625767008040242" lon="-6.8781595633994534"><ele>1483.0</ele><time>2026-03-22T10:37:05.996Z</time></trkpt><trkpt lat="30.625591079813596" lon="-6.878196708879523"><ele>1483.0</ele><time>2026-03-22T10:37:06.996Z</time></trkpt><trkpt lat="30.62543751754392" lon="-6.878237595916692"><ele>1483.0</ele><time>2026-03-22T10:37:07.996Z</time></trkpt><trkpt lat="30.625290357411547" lon="-6.878286561498953"><ele>1483.0</ele><time>2026-03-22T10:37:08.996Z</time></trkpt><trkpt lat="30.625168977197323" lon="-6.878336411254923"><ele>1483.0</ele><time>2026-03-22T10:37:09.996Z</time></trkpt><trkpt lat="30.625064669232966" lon="-6.878399903870346"><ele>1483.1666666666665</ele><time>2026-03-22T10:37:10.996Z</time></trkpt><trkpt lat="30.624971051448934" lon="-6.878451427829144"><ele>1483.3333333333333</ele><time>2026-03-22T10:37:11.996Z</time></trkpt><trkpt lat="30.624893801887374" lon="-6.8784946560248414"><ele>1483.5</ele><time>2026-03-22T10:37:12.996Z</time></trkpt><trkpt lat="30.62482382917344" lon="-6.878529955224507"><ele>1483.6666666666667</ele><time>2026-03-22T10:37:13.996Z</time></trkpt><trkpt lat="30.624764203113223" lon="-6.878574339507981"><ele>1483.8333333333335</ele><time>2026-03-22T10:37:14.996Z</time></trkpt><trkpt lat="30.624708722467346" lon="-6.87863116597433"><ele>1484.0</ele><time>2026-03-22T10:37:15.996Z</time></trkpt><trkpt lat="30.624661807409478" lon="-6.878697113556795"><ele>1484.0</ele><time>2026-03-22T10:37:16.996Z</time></trkpt><trkpt lat="30.624625712554828" lon="-6.878757476230603"><ele>1484.0</ele><time>2026-03-22T10:37:17.996Z</time></trkpt><trkpt lat="30.62457264661754" lon="-6.878904328708136"><ele>1484.0</ele><time>2026-03-22T10:37:19.996Z</time></trkpt><trkpt lat="30.624539677471812" lon="-6.878997457865267"><ele>1484.0</ele><time>2026-03-22T10:37:20.996Z</time></trkpt><trkpt lat="30.624511679711816" lon="-6.879100030500676"><ele>1484.0</ele><time>2026-03-22T10:37:21.996Z</time></trkpt><trkpt lat="30.624476235832052" lon="-6.879201604116516"><ele>1485.0</ele><time>2026-03-22T10:37:22.996Z</time></trkpt><trkpt lat="30.624456964662084" lon="-6.87928880993749"><ele>1486.0</ele><time>2026-03-22T10:37:23.996Z</time></trkpt><trkpt lat="30.624433585614852" lon="-6.879369858296089"><ele>1487.0</ele><time>2026-03-22T10:37:24.996Z</time></trkpt><trkpt lat="30.624406281882372" lon="-6.879479469145175"><ele>1488.0</ele><time>2026-03-22T10:37:25.996Z</time></trkpt><trkpt lat="30.62436858627934" lon="-6.879613223358236"><ele>1489.0</ele><time>2026-03-22T10:37:26.996Z</time></trkpt><trkpt lat="30.624345144657717" lon="-6.879737284826933"><ele>1489.0</ele><time>2026-03-22T10:37:27.996Z</time></trkpt><trkpt lat="30.624317911900032" lon="-6.879851273096366"><ele>1489.0</ele><time>2026-03-22T10:37:28.996Z</time></trkpt><trkpt lat="30.624286651131065" lon="-6.879960886342835"><ele>1489.0</ele><time>2026-03-22T10:37:29.996Z</time></trkpt><trkpt lat="30.624237288890942" lon="-6.880060647883791"><ele>1489.0</ele><time>2026-03-22T10:37:30.996Z</time></trkpt><trkpt lat="30.62417211848925" lon="-6.880147142013824"><ele>1489.0</ele><time>2026-03-22T10:37:31.996Z</time></trkpt><trkpt lat="30.624102457208114" lon="-6.880224981902392"><ele>1489.5</ele><time>2026-03-22T10:37:32.996Z</time></trkpt><trkpt lat="30.624041478768373" lon="-6.880300274875359"><ele>1490.0</ele><time>2026-03-22T10:37:33.996Z</time></trkpt><trkpt lat="30.62399373766181" lon="-6.880381044106017"><ele>1490.5</ele><time>2026-03-22T10:37:34.996Z</time></trkpt><trkpt lat="30.62395703222351" lon="-6.880480170613367"><ele>1491.0</ele><time>2026-03-22T10:37:35.996Z</time></trkpt><trkpt lat="30.623939936659855" lon="-6.880567629900629"><ele>1491.5</ele><time>2026-03-22T10:37:36.996Z</time></trkpt><trkpt lat="30.62395510219327" lon="-6.8806525171722965"><ele>1492.0</ele><time>2026-03-22T10:37:37.996Z</time></trkpt><trkpt lat="30.62398243460165" lon="-6.880739324427325"><ele>1492.0</ele><time>2026-03-22T10:37:38.996Z</time></trkpt><trkpt lat="30.624024708806164" lon="-6.880846661973659"><ele>1492.0</ele><time>2026-03-22T10:37:39.996Z</time></trkpt><trkpt lat="30.624055226735607" lon="-6.88097318919641"><ele>1492.0</ele><time>2026-03-22T10:37:40.996Z</time></trkpt><trkpt lat="30.624075224745674" lon="-6.881144657018591"><ele>1492.0</ele><time>2026-03-22T10:37:41.996Z</time></trkpt><trkpt lat="30.624090750048143" lon="-6.8813121612625725"><ele>1491.75</ele><time>2026-03-22T10:37:42.996Z</time></trkpt><trkpt lat="30.624078276737063" lon="-6.88146753490016"><ele>1491.5</ele><time>2026-03-22T10:37:43.996Z</time></trkpt><trkpt lat="30.624045120371285" lon="-6.881611385197278"><ele>1491.25</ele><time>2026-03-22T10:37:44.996Z</time></trkpt><trkpt lat="30.624007690230123" lon="-6.881737714421353"><ele>1491.0</ele><time>2026-03-22T10:37:45.996Z</time></trkpt><trkpt lat="30.623971635032834" lon="-6.88184082379887"><ele>1491.0</ele><time>2026-03-22T10:37:46.996Z</time></trkpt><trkpt lat="30.623917645279427" lon="-6.881930502908591"><ele>1491.0</ele><time>2026-03-22T10:37:47.996Z</time></trkpt><trkpt lat="30.623846139299136" lon="-6.882008322817364"><ele>1491.0</ele><time>2026-03-22T10:37:48.996Z</time></trkpt><trkpt lat="30.623758630899875" lon="-6.882106821871481"><ele>1491.0</ele><time>2026-03-22T10:37:49.996Z</time></trkpt><trkpt lat="30.623665722821393" lon="-6.882212588694344"><ele>1491.0</ele><time>2026-03-22T10:37:50.996Z</time></trkpt><trkpt lat="30.62359131623188" lon="-6.882322481031386"><ele>1491.1999999999998</ele><time>2026-03-22T10:37:51.996Z</time></trkpt><trkpt lat="30.623518179657633" lon="-6.88242463104056"><ele>1491.3999999999999</ele><time>2026-03-22T10:37:52.996Z</time></trkpt><trkpt lat="30.62343921105977" lon="-6.88251656968591"><ele>1491.6</ele><time>2026-03-22T10:37:53.996Z</time></trkpt><trkpt lat="30.623367763178393" lon="-6.8826163616962495"><ele>1491.8</ele><time>2026-03-22T10:37:54.996Z</time></trkpt><trkpt lat="30.623299651759567" lon="-6.882718437524501"><ele>1492.0</ele><time>2026-03-22T10:37:55.996Z</time></trkpt><trkpt lat="30.623235007027596" lon="-6.882823202343023"><ele>1492.0</ele><time>2026-03-22T10:37:56.996Z</time></trkpt><trkpt lat="30.623184151509367" lon="-6.882950679546013"><ele>1492.0</ele><time>2026-03-22T10:37:57.996Z</time></trkpt><trkpt lat="30.623140105181257" lon="-6.883070825658062"><ele>1492.0</ele><time>2026-03-22T10:37:58.996Z</time></trkpt><trkpt lat="30.62308393703044" lon="-6.8831908708978355"><ele>1492.0</ele><time>2026-03-22T10:37:59.996Z</time></trkpt><trkpt lat="30.62303256955073" lon="-6.883344452030579"><ele>1492.6666666666665</ele><time>2026-03-22T10:38:00.996Z</time></trkpt><trkpt lat="30.62297743148242" lon="-6.883532523897328"><ele>1493.3333333333333</ele><time>2026-03-22T10:38:01.996Z</time></trkpt><trkpt lat="30.62293256719791" lon="-6.883721990168619"><ele>1494.0</ele><time>2026-03-22T10:38:02.996Z</time></trkpt><trkpt lat="30.62290307189911" lon="-6.883895076156093"><ele>1494.0</ele><time>2026-03-22T10:38:03.996Z</time></trkpt><trkpt lat="30.622852566067028" lon="-6.884045268334458"><ele>1494.0</ele><time>2026-03-22T10:38:04.996Z</time></trkpt><trkpt lat="30.62279103084606" lon="-6.8841975523827"><ele>1494.0</ele><time>2026-03-22T10:38:05.996Z</time></trkpt><trkpt lat="30.622718915828298" lon="-6.88436740521883"><ele>1494.0</ele><time>2026-03-22T10:38:06.996Z</time></trkpt><trkpt lat="30.622667539330596" lon="-6.8845540742197455"><ele>1494.4</ele><time>2026-03-22T10:38:07.996Z</time></trkpt><trkpt lat="30.622628769024846" lon="-6.884709323879652"><ele>1494.8000000000002</ele><time>2026-03-22T10:38:08.996Z</time></trkpt><trkpt lat="30.622602867825897" lon="-6.884816974244767"><ele>1495.1999999999998</ele><time>2026-03-22T10:38:09.997Z</time></trkpt><trkpt lat="30.622589517480446" lon="-6.884898927731482"><ele>1495.6</ele><time>2026-03-22T10:38:10.996Z</time></trkpt><trkpt lat="30.622594610737508" lon="-6.884993112747115"><ele>1496.0</ele><time>2026-03-22T10:38:11.996Z</time></trkpt><trkpt lat="30.622611706287813" lon="-6.88509141493121"><ele>1496.1666666666667</ele><time>2026-03-22T10:38:12.997Z</time></trkpt><trkpt lat="30.62265811507886" lon="-6.88517847293234"><ele>1496.3333333333335</ele><time>2026-03-22T10:38:13.996Z</time></trkpt><trkpt lat="30.62271142828907" lon="-6.885259804601571"><ele>1496.5</ele><time>2026-03-22T10:38:14.996Z</time></trkpt><trkpt lat="30.622732469795142" lon="-6.885330406461894"><ele>1496.6666666666667</ele><time>2026-03-22T10:38:15.997Z</time></trkpt><trkpt lat="30.622700900536852" lon="-6.8854100082149206"><ele>1496.8333333333333</ele><time>2026-03-22T10:38:16.997Z</time></trkpt><trkpt lat="30.622651782735133" lon="-6.885523462619692"><ele>1497.0</ele><time>2026-03-22T10:38:17.997Z</time></trkpt><trkpt lat="30.622616052579218" lon="-6.885658463169581"><ele>1497.0</ele><time>2026-03-22T10:38:18.996Z</time></trkpt><trkpt lat="30.62255986257353" lon="-6.885795672285724"><ele>1497.0</ele><time>2026-03-22T10:38:19.996Z</time></trkpt><trkpt lat="30.622478555423267" lon="-6.885928777809393"><ele>1497.0</ele><time>2026-03-22T10:38:20.996Z</time></trkpt><trkpt lat="30.62238209000172" lon="-6.886091114144925"><ele>1497.0</ele><time>2026-03-22T10:38:21.996Z</time></trkpt><trkpt lat="30.622315241695766" lon="-6.88625067655838"><ele>1497.75</ele><time>2026-03-22T10:38:22.997Z</time></trkpt><trkpt lat="30.622278502554792" lon="-6.886374281396852"><ele>1498.5</ele><time>2026-03-22T10:38:23.997Z</time></trkpt><trkpt lat="30.62225047787651" lon="-6.886500435454527"><ele>1499.25</ele><time>2026-03-22T10:38:24.997Z</time></trkpt><trkpt lat="30.6222520504131" lon="-6.886639618606813"><ele>1500.0</ele><time>2026-03-22T10:38:25.997Z</time></trkpt><trkpt lat="30.62227918987998" lon="-6.886765146209951"><ele>1501.25</ele><time>2026-03-22T10:38:26.997Z</time></trkpt><trkpt lat="30.622276796002065" lon="-6.8869218311708895"><ele>1502.5</ele><time>2026-03-22T10:38:27.997Z</time></trkpt><trkpt lat="30.622222176093928" lon="-6.887079736232416"><ele>1503.75</ele><time>2026-03-22T10:38:28.997Z</time></trkpt><trkpt lat="30.622168835317456" lon="-6.887238738697826"><ele>1505.0</ele><time>2026-03-22T10:38:29.997Z</time></trkpt><trkpt lat="30.622105690422735" lon="-6.887352289687529"><ele>1505.0</ele><time>2026-03-22T10:38:30.997Z</time></trkpt><trkpt lat="30.622050896364556" lon="-6.887487896945336"><ele>1505.0</ele><time>2026-03-22T10:38:31.997Z</time></trkpt><trkpt lat="30.6220206232681" lon="-6.887602018126316"><ele>1505.0</ele><time>2026-03-22T10:38:32.997Z</time></trkpt><trkpt lat="30.62200020460452" lon="-6.887710039842434"><ele>1505.0</ele><time>2026-03-22T10:38:33.997Z</time></trkpt><trkpt lat="30.62199382716182" lon="-6.887817617417293"><ele>1505.0</ele><time>2026-03-22T10:38:34.997Z</time></trkpt><trkpt lat="30.621982660756036" lon="-6.887929913332111"><ele>1505.0</ele><time>2026-03-22T10:38:35.997Z</time></trkpt><trkpt lat="30.62197230362973" lon="-6.888054188033615"><ele>1505.0</ele><time>2026-03-22T10:38:36.997Z</time></trkpt><trkpt lat="30.621938003638505" lon="-6.888167722950905"><ele>1505.0</ele><time>2026-03-22T10:38:37.997Z</time></trkpt><trkpt lat="30.621895374604556" lon="-6.888291150581961"><ele>1505.0</ele><time>2026-03-22T10:38:38.997Z</time></trkpt><trkpt lat="30.621856226299165" lon="-6.888405588413316"><ele>1505.0</ele><time>2026-03-22T10:38:39.997Z</time></trkpt><trkpt lat="30.62180911868661" lon="-6.888521277468759"><ele>1505.8</ele><time>2026-03-22T10:38:40.997Z</time></trkpt><trkpt lat="30.62174739198037" lon="-6.888638790853052"><ele>1506.6</ele><time>2026-03-22T10:38:41.997Z</time></trkpt><trkpt lat="30.62167538463227" lon="-6.888728089393872"><ele>1507.4</ele><time>2026-03-22T10:38:42.997Z</time></trkpt><trkpt lat="30.62161150839234" lon="-6.88879905471368"><ele>1508.2</ele><time>2026-03-22T10:38:43.997Z</time></trkpt><trkpt lat="30.62155403869271" lon="-6.888863257441841"><ele>1509.0</ele><time>2026-03-22T10:38:44.997Z</time></trkpt><trkpt lat="30.62151557615777" lon="-6.888935313993307"><ele>1509.0</ele><time>2026-03-22T10:38:45.997Z</time></trkpt><trkpt lat="30.621454127159737" lon="-6.889035071311474"><ele>1509.0</ele><time>2026-03-22T10:38:47.997Z</time></trkpt><trkpt lat="30.621408326107378" lon="-6.889116850342918"><ele>1509.0</ele><time>2026-03-22T10:38:49.997Z</time></trkpt><trkpt lat="30.621341707863188" lon="-6.889154918015134"><ele>1509.0</ele><time>2026-03-22T10:38:52.997Z</time></trkpt><trkpt lat="30.62126600195055" lon="-6.889177883886629"><ele>1509.0</ele><time>2026-03-22T10:38:54.997Z</time></trkpt><trkpt lat="30.621191625355127" lon="-6.8892392907691695"><ele>1509.0</ele><time>2026-03-22T10:38:56.997Z</time></trkpt><trkpt lat="30.621128196997066" lon="-6.889247890822392"><ele>1508.8000000000002</ele><time>2026-03-22T10:45:38.997Z</time></trkpt><trkpt lat="30.62119615658555" lon="-6.889268658711684"><ele>1508.6000000000001</ele><time>2026-03-22T10:58:45.996Z</time></trkpt><trkpt lat="30.621136314680992" lon="-6.8893026500443355"><ele>1508.4</ele><time>2026-03-22T10:59:20.996Z</time></trkpt><trkpt lat="30.621070968258085" lon="-6.889364947744726"><ele>1508.2</ele><time>2026-03-22T10:59:21.995Z</time></trkpt><trkpt lat="30.62098398993827" lon="-6.8894505475435155"><ele>1508.0</ele><time>2026-03-22T10:59:22.996Z</time></trkpt><trkpt lat="30.620884100987904" lon="-6.889572948339849"><ele>1507.6666666666667</ele><time>2026-03-22T10:59:23.996Z</time></trkpt><trkpt lat="30.620766587801306" lon="-6.889727329828874"><ele>1507.3333333333333</ele><time>2026-03-22T10:59:24.996Z</time></trkpt><trkpt lat="30.62064509287071" lon="-6.889906818534017"><ele>1507.0</ele><time>2026-03-22T10:59:25.996Z</time></trkpt><trkpt lat="30.620506129763548" lon="-6.890104097698252"><ele>1506.3333333333333</ele><time>2026-03-22T10:59:26.996Z</time></trkpt><trkpt lat="30.620380538438035" lon="-6.890272227268272"><ele>1505.6666666666667</ele><time>2026-03-22T10:59:27.996Z</time></trkpt><trkpt lat="30.620278970123447" lon="-6.8904206622127155"><ele>1505.0</ele><time>2026-03-22T10:59:28.996Z</time></trkpt><trkpt lat="30.620177697097535" lon="-6.8905678416365"><ele>1504.6666666666667</ele><time>2026-03-22T10:59:29.996Z</time></trkpt><trkpt lat="30.620076016969787" lon="-6.890711797127946"><ele>1504.3333333333333</ele><time>2026-03-22T10:59:30.996Z</time></trkpt><trkpt lat="30.61997128275608" lon="-6.890859350756144"><ele>1504.0</ele><time>2026-03-22T10:59:31.996Z</time></trkpt><trkpt lat="30.619866141554798" lon="-6.891013380051101"><ele>1504.0</ele><time>2026-03-22T10:59:32.996Z</time></trkpt><trkpt lat="30.619763099041254" lon="-6.891144381901682"><ele>1504.0</ele><time>2026-03-22T10:59:33.996Z</time></trkpt><trkpt lat="30.61968289438214" lon="-6.891267395797212"><ele>1504.0</ele><time>2026-03-22T10:59:34.996Z</time></trkpt><trkpt lat="30.61960329040331" lon="-6.891372975037306"><ele>1504.0</ele><time>2026-03-22T10:59:35.996Z</time></trkpt><trkpt lat="30.619510867515817" lon="-6.891472320383552"><ele>1503.0</ele><time>2026-03-22T10:59:36.996Z</time></trkpt><trkpt lat="30.61941511040468" lon="-6.8915740662436695"><ele>1502.0</ele><time>2026-03-22T10:59:37.996Z</time></trkpt><trkpt lat="30.6193254558001" lon="-6.891695118503831"><ele>1501.0</ele><time>2026-03-22T10:59:38.996Z</time></trkpt><trkpt lat="30.619249092800263" lon="-6.891811691601338"><ele>1500.0</ele><time>2026-03-22T10:59:39.996Z</time></trkpt><trkpt lat="30.61918812725438" lon="-6.891935827200791"><ele>1500.0</ele><time>2026-03-22T10:59:40.996Z</time></trkpt><trkpt lat="30.619123848995898" lon="-6.892055742998948"><ele>1500.0</ele><time>2026-03-22T10:59:41.996Z</time></trkpt><trkpt lat="30.61905082552679" lon="-6.8921784745908905"><ele>1500.0</ele><time>2026-03-22T10:59:42.996Z</time></trkpt><trkpt lat="30.618968193433545" lon="-6.892299513556857"><ele>1500.0</ele><time>2026-03-22T10:59:43.996Z</time></trkpt><trkpt lat="30.618865566983764" lon="-6.892439212283907"><ele>1500.0</ele><time>2026-03-22T10:59:44.996Z</time></trkpt><trkpt lat="30.618758513976687" lon="-6.892585996367517"><ele>1500.0</ele><time>2026-03-22T10:59:45.996Z</time></trkpt><trkpt lat="30.61866270157101" lon="-6.892730359931304"><ele>1500.0</ele><time>2026-03-22T10:59:46.996Z</time></trkpt><trkpt lat="30.618575944283727" lon="-6.892865110811466"><ele>1499.75</ele><time>2026-03-22T10:59:47.996Z</time></trkpt><trkpt lat="30.61848337923074" lon="-6.892987616598162"><ele>1499.5</ele><time>2026-03-22T10:59:48.996Z</time></trkpt><trkpt lat="30.618372557667744" lon="-6.893093115528081"><ele>1499.25</ele><time>2026-03-22T10:59:49.996Z</time></trkpt><trkpt lat="30.61826087827709" lon="-6.893197142710061"><ele>1499.0</ele><time>2026-03-22T10:59:50.996Z</time></trkpt><trkpt lat="30.618164773473588" lon="-6.893309852037845"><ele>1499.0</ele><time>2026-03-22T10:59:51.996Z</time></trkpt><trkpt lat="30.618092831332298" lon="-6.893417730746034"><ele>1499.0</ele><time>2026-03-22T10:59:52.996Z</time></trkpt><trkpt lat="30.618016582687194" lon="-6.893505078332068"><ele>1499.0</ele><time>2026-03-22T10:59:53.996Z</time></trkpt><trkpt lat="30.617947281864122" lon="-6.893589377649261"><ele>1499.0</ele><time>2026-03-22T10:59:54.996Z</time></trkpt><trkpt lat="30.61789264161779" lon="-6.893672030321018"><ele>1499.0</ele><time>2026-03-22T10:59:55.996Z</time></trkpt><trkpt lat="30.61785952547251" lon="-6.893766998110509"><ele>1498.6</ele><time>2026-03-22T10:59:56.996Z</time></trkpt><trkpt lat="30.61782290339856" lon="-6.893855203078835"><ele>1498.2</ele><time>2026-03-22T10:59:57.996Z</time></trkpt><trkpt lat="30.617777835275806" lon="-6.893915024075899"><ele>1497.8</ele><time>2026-03-22T10:59:58.996Z</time></trkpt><trkpt lat="30.617702663825437" lon="-6.893929096385274"><ele>1497.3999999999999</ele><time>2026-03-22T10:59:59.996Z</time></trkpt><trkpt lat="30.61760573095451" lon="-6.893917689864211"><ele>1497.0</ele><time>2026-03-22T11:00:00.996Z</time></trkpt><trkpt lat="30.61747867768391" lon="-6.893869828541057"><ele>1496.75</ele><time>2026-03-22T11:00:01.996Z</time></trkpt><trkpt lat="30.617339597482538" lon="-6.893802899365096"><ele>1496.5</ele><time>2026-03-22T11:00:02.996Z</time></trkpt><trkpt lat="30.617221407020182" lon="-6.893760080467596"><ele>1496.25</ele><time>2026-03-22T11:00:03.996Z</time></trkpt><trkpt lat="30.617120647184773" lon="-6.89372707379042"><ele>1496.0</ele><time>2026-03-22T11:00:04.996Z</time></trkpt><trkpt lat="30.61702467745263" lon="-6.893703980752845"><ele>1496.75</ele><time>2026-03-22T11:00:05.996Z</time></trkpt><trkpt lat="30.61692591263359" lon="-6.893702893107786"><ele>1497.5</ele><time>2026-03-22T11:00:06.996Z</time></trkpt><trkpt lat="30.616829456262206" lon="-6.893727838415028"><ele>1498.25</ele><time>2026-03-22T11:00:07.996Z</time></trkpt><trkpt lat="30.616719905034365" lon="-6.893775149196714"><ele>1499.0</ele><time>2026-03-22T11:00:08.996Z</time></trkpt><trkpt lat="30.616593159461193" lon="-6.893833280662079"><ele>1499.0</ele><time>2026-03-22T11:00:09.996Z</time></trkpt><trkpt lat="30.616463055113517" lon="-6.893877977636301"><ele>1499.0</ele><time>2026-03-22T11:00:10.996Z</time></trkpt><trkpt lat="30.616328768163044" lon="-6.893909261221031"><ele>1499.0</ele><time>2026-03-22T11:00:11.996Z</time></trkpt><trkpt lat="30.616186357059863" lon="-6.8939295939187994"><ele>1499.0</ele><time>2026-03-22T11:00:12.996Z</time></trkpt><trkpt lat="30.616021153784967" lon="-6.893959874580756"><ele>1499.3333333333335</ele><time>2026-03-22T11:00:13.996Z</time></trkpt><trkpt lat="30.615859905226888" lon="-6.894006115265057"><ele>1499.6666666666667</ele><time>2026-03-22T11:00:14.996Z</time></trkpt><trkpt lat="30.615720081537482" lon="-6.894062118067928"><ele>1500.0</ele><time>2026-03-22T11:00:15.996Z</time></trkpt><trkpt lat="30.615590851658382" lon="-6.894111905336081"><ele>1500.0</ele><time>2026-03-22T11:00:16.996Z</time></trkpt><trkpt lat="30.615460732467078" lon="-6.894152802791208"><ele>1500.0</ele><time>2026-03-22T11:00:17.996Z</time></trkpt><trkpt lat="30.61532696017254" lon="-6.894194399373675"><ele>1500.0</ele><time>2026-03-22T11:00:18.996Z</time></trkpt><trkpt lat="30.61519891099903" lon="-6.894239253081171"><ele>1500.0</ele><time>2026-03-22T11:00:19.996Z</time></trkpt><trkpt lat="30.615085022313185" lon="-6.894279925210079"><ele>1499.5</ele><time>2026-03-22T11:00:20.996Z</time></trkpt><trkpt lat="30.614972880022226" lon="-6.894314018263621"><ele>1499.0</ele><time>2026-03-22T11:00:21.996Z</time></trkpt><trkpt lat="30.614854408492175" lon="-6.894330948610459"><ele>1498.5</ele><time>2026-03-22T11:00:22.996Z</time></trkpt><trkpt lat="30.61473570208924" lon="-6.894353575285261"><ele>1498.0</ele><time>2026-03-22T11:00:23.996Z</time></trkpt><trkpt lat="30.614630090403498" lon="-6.894381065592418"><ele>1498.0</ele><time>2026-03-22T11:00:24.996Z</time></trkpt><trkpt lat="30.61453758846444" lon="-6.894417847846382"><ele>1498.0</ele><time>2026-03-22T11:00:25.996Z</time></trkpt><trkpt lat="30.61444205587864" lon="-6.894478497374489"><ele>1498.0</ele><time>2026-03-22T11:00:26.996Z</time></trkpt><trkpt lat="30.614338681522867" lon="-6.894545953228838"><ele>1498.0</ele><time>2026-03-22T11:00:27.996Z</time></trkpt><trkpt lat="30.61423524087128" lon="-6.8946061188979195"><ele>1498.0</ele><time>2026-03-22T11:00:28.996Z</time></trkpt><trkpt lat="30.61412316770143" lon="-6.894672257077619"><ele>1498.0</ele><time>2026-03-22T11:00:29.996Z</time></trkpt><trkpt lat="30.614007879341944" lon="-6.894735621331796"><ele>1498.0</ele><time>2026-03-22T11:00:30.996Z</time></trkpt><trkpt lat="30.613917632292154" lon="-6.8947813356241365"><ele>1498.0</ele><time>2026-03-22T11:00:31.996Z</time></trkpt><trkpt lat="30.61385709691909" lon="-6.89480614033172"><ele>1498.0</ele><time>2026-03-22T11:00:32.996Z</time></trkpt><trkpt lat="30.61379372083684" lon="-6.894823497728266"><ele>1498.0</ele><time>2026-03-22T11:00:33.996Z</time></trkpt><trkpt lat="30.613722950900772" lon="-6.894828495379918"><ele>1498.0</ele><time>2026-03-22T11:00:34.996Z</time></trkpt><trkpt lat="30.61365145025348" lon="-6.894822692952171"><ele>1498.1666666666665</ele><time>2026-03-22T11:00:35.996Z</time></trkpt><trkpt lat="30.613577011661853" lon="-6.89481629732656"><ele>1498.3333333333333</ele><time>2026-03-22T11:00:36.996Z</time></trkpt><trkpt lat="30.613501486175345" lon="-6.894813641686135"><ele>1498.5</ele><time>2026-03-22T11:00:37.996Z</time></trkpt><trkpt lat="30.613427454230973" lon="-6.89480833509657"><ele>1498.6666666666667</ele><time>2026-03-22T11:00:38.996Z</time></trkpt><trkpt lat="30.613351305531683" lon="-6.894805677206962"><ele>1498.8333333333335</ele><time>2026-03-22T11:00:39.996Z</time></trkpt><trkpt lat="30.61326784728469" lon="-6.894804792858901"><ele>1499.0</ele><time>2026-03-22T11:00:40.996Z</time></trkpt><trkpt lat="30.61318005226147" lon="-6.894803712315596"><ele>1499.0</ele><time>2026-03-22T11:00:41.996Z</time></trkpt><trkpt lat="30.613092285382354" lon="-6.894805663364972"><ele>1499.0</ele><time>2026-03-22T11:00:42.996Z</time></trkpt><trkpt lat="30.6130107934688" lon="-6.894812281848665"><ele>1499.0</ele><time>2026-03-22T11:00:43.996Z</time></trkpt><trkpt lat="30.612944244304604" lon="-6.8948132167871155"><ele>1499.0</ele><time>2026-03-22T11:00:44.996Z</time></trkpt><trkpt lat="30.61285355497567" lon="-6.8948267728695924"><ele>1499.0</ele><time>2026-03-22T11:00:46.996Z</time></trkpt><trkpt lat="30.6127983096306" lon="-6.894878077917544"><ele>1499.0</ele><time>2026-03-22T11:00:49.996Z</time></trkpt><trkpt lat="30.612730409460582" lon="-6.894926579426565"><ele>1499.0</ele><time>2026-03-22T11:00:52.996Z</time></trkpt><trkpt lat="30.612686682480415" lon="-6.89498510129551"><ele>1499.0</ele><time>2026-03-22T11:00:54.996Z</time></trkpt><trkpt lat="30.612619199492492" lon="-6.895084153954342"><ele>1499.0</ele><time>2026-03-22T11:00:56.996Z</time></trkpt><trkpt lat="30.612554583640062" lon="-6.895172261224127"><ele>1499.0</ele><time>2026-03-22T11:00:58.996Z</time></trkpt><trkpt lat="30.61249716656475" lon="-6.895258680000324"><ele>1499.0</ele><time>2026-03-22T11:01:00.996Z</time></trkpt><trkpt lat="30.61244673785709" lon="-6.895309585979403"><ele>1499.0</ele><time>2026-03-22T11:01:01.996Z</time></trkpt><trkpt lat="30.61238683506402" lon="-6.895350479958826"><ele>1498.8333333333335</ele><time>2026-03-22T11:01:02.996Z</time></trkpt><trkpt lat="30.612321531466435" lon="-6.895375943784512"><ele>1498.6666666666667</ele><time>2026-03-22T11:01:03.996Z</time></trkpt><trkpt lat="30.612251678558327" lon="-6.895409970151355"><ele>1498.5</ele><time>2026-03-22T11:01:04.996Z</time></trkpt><trkpt lat="30.612178519508152" lon="-6.8954288788052"><ele>1498.3333333333333</ele><time>2026-03-22T11:01:05.996Z</time></trkpt><trkpt lat="30.612112473950365" lon="-6.895435453326701"><ele>1498.1666666666665</ele><time>2026-03-22T11:01:06.996Z</time></trkpt><trkpt lat="30.612001758980412" lon="-6.895419878672312"><ele>1498.0</ele><time>2026-03-22T11:01:08.996Z</time></trkpt><trkpt lat="30.61188863864481" lon="-6.895369755756042"><ele>1498.4</ele><time>2026-03-22T11:01:10.996Z</time></trkpt><trkpt lat="30.611828066655907" lon="-6.895335055101796"><ele>1498.8000000000002</ele><time>2026-03-22T11:01:11.996Z</time></trkpt><trkpt lat="30.611731864338914" lon="-6.895262726445335"><ele>1499.2</ele><time>2026-03-22T11:01:13.996Z</time></trkpt><trkpt lat="30.61167211606783" lon="-6.895208119255721"><ele>1499.6</ele><time>2026-03-22T11:01:15.996Z</time></trkpt><trkpt lat="30.611585574114457" lon="-6.895152280411201"><ele>1500.0</ele><time>2026-03-22T11:01:17.996Z</time></trkpt><trkpt lat="30.61147801776162" lon="-6.895103752462436"><ele>1500.2</ele><time>2026-03-22T11:01:19.996Z</time></trkpt><trkpt lat="30.611420745660514" lon="-6.895070028284985"><ele>1500.4</ele><time>2026-03-22T11:01:20.996Z</time></trkpt><trkpt lat="30.611356362160937" lon="-6.895032352797245"><ele>1500.6</ele><time>2026-03-22T11:01:21.996Z</time></trkpt><trkpt lat="30.611272075731854" lon="-6.894983892727644"><ele>1500.8</ele><time>2026-03-22T11:01:22.996Z</time></trkpt><trkpt lat="30.61116099819764" lon="-6.894928944562792"><ele>1501.0</ele><time>2026-03-22T11:01:23.996Z</time></trkpt><trkpt lat="30.611037985582964" lon="-6.894864417281538"><ele>1501.3333333333333</ele><time>2026-03-22T11:01:24.996Z</time></trkpt><trkpt lat="30.610903988922598" lon="-6.894786861203803"><ele>1501.6666666666667</ele><time>2026-03-22T11:01:25.996Z</time></trkpt><trkpt lat="30.610752917961452" lon="-6.8947209130714455"><ele>1502.0</ele><time>2026-03-22T11:01:26.996Z</time></trkpt><trkpt lat="30.610593354476073" lon="-6.894658626828281"><ele>1502.0</ele><time>2026-03-22T11:01:27.996Z</time></trkpt><trkpt lat="30.610454226036055" lon="-6.894606840773345"><ele>1502.0</ele><time>2026-03-22T11:01:28.996Z</time></trkpt><trkpt lat="30.610322939594134" lon="-6.894553349280799"><ele>1502.0</ele><time>2026-03-22T11:01:29.996Z</time></trkpt><trkpt lat="30.61019568114135" lon="-6.894508111406691"><ele>1502.0</ele><time>2026-03-22T11:01:30.996Z</time></trkpt><trkpt lat="30.610073415117167" lon="-6.894465893214066"><ele>1502.0</ele><time>2026-03-22T11:01:31.996Z</time></trkpt><trkpt lat="30.609955070462828" lon="-6.8944265335418065"><ele>1502.0</ele><time>2026-03-22T11:01:32.996Z</time></trkpt><trkpt lat="30.609837126035583" lon="-6.894389101533991"><ele>1502.0</ele><time>2026-03-22T11:01:33.996Z</time></trkpt><trkpt lat="30.60972925752007" lon="-6.894352390275483"><ele>1502.0</ele><time>2026-03-22T11:01:34.996Z</time></trkpt><trkpt lat="30.609613395248104" lon="-6.894307169712221"><ele>1502.0</ele><time>2026-03-22T11:01:35.996Z</time></trkpt><trkpt lat="30.609470317679364" lon="-6.89426918683462"><ele>1502.0</ele><time>2026-03-22T11:01:36.996Z</time></trkpt><trkpt lat="30.60930456980931" lon="-6.894205460464116"><ele>1502.0</ele><time>2026-03-22T11:01:37.996Z</time></trkpt><trkpt lat="30.609126479203262" lon="-6.894143896950265"><ele>1502.3333333333335</ele><time>2026-03-22T11:01:38.996Z</time></trkpt><trkpt lat="30.608941233161573" lon="-6.894077384232862"><ele>1502.6666666666667</ele><time>2026-03-22T11:01:39.996Z</time></trkpt><trkpt lat="30.608749650192017" lon="-6.8940034869906"><ele>1503.0</ele><time>2026-03-22T11:01:40.996Z</time></trkpt><trkpt lat="30.60853899772057" lon="-6.893928285455148"><ele>1503.0</ele><time>2026-03-22T11:01:41.996Z</time></trkpt><trkpt lat="30.60832639611298" lon="-6.893845754014323"><ele>1503.0</ele><time>2026-03-22T11:01:42.996Z</time></trkpt><trkpt lat="30.608116937011907" lon="-6.89377156474332"><ele>1503.0</ele><time>2026-03-22T11:01:43.996Z</time></trkpt><trkpt lat="30.607922652509483" lon="-6.89369787902374"><ele>1502.6666666666667</ele><time>2026-03-22T11:01:44.996Z</time></trkpt><trkpt lat="30.607750104357752" lon="-6.893627594822157"><ele>1502.3333333333335</ele><time>2026-03-22T11:01:45.996Z</time></trkpt><trkpt lat="30.60759022443283" lon="-6.8935676149474885"><ele>1502.0</ele><time>2026-03-22T11:01:46.996Z</time></trkpt><trkpt lat="30.60744141530588" lon="-6.8935243597369835"><ele>1502.0</ele><time>2026-03-22T11:01:47.996Z</time></trkpt><trkpt lat="30.607301466835278" lon="-6.893489263263623"><ele>1502.0</ele><time>2026-03-22T11:01:48.996Z</time></trkpt><trkpt lat="30.60716578917259" lon="-6.893455391410122"><ele>1502.0</ele><time>2026-03-22T11:01:49.996Z</time></trkpt><trkpt lat="30.60703085749002" lon="-6.893415172270301"><ele>1502.0</ele><time>2026-03-22T11:01:50.996Z</time></trkpt><trkpt lat="30.60689368639142" lon="-6.893373244683451"><ele>1502.0</ele><time>2026-03-22T11:01:51.996Z</time></trkpt><trkpt lat="30.606749576870012" lon="-6.89332351451877"><ele>1502.0</ele><time>2026-03-22T11:01:52.996Z</time></trkpt><trkpt lat="30.60660878009428" lon="-6.893280075029508"><ele>1502.0</ele><time>2026-03-22T11:01:53.996Z</time></trkpt><trkpt lat="30.606459085978628" lon="-6.893234142240932"><ele>1502.0</ele><time>2026-03-22T11:01:54.996Z</time></trkpt><trkpt lat="30.606317550845514" lon="-6.89318902488696"><ele>1502.0</ele><time>2026-03-22T11:01:55.996Z</time></trkpt><trkpt lat="30.606181627148544" lon="-6.8931494244036475"><ele>1502.0</ele><time>2026-03-22T11:01:56.996Z</time></trkpt><trkpt lat="30.606032325300387" lon="-6.893114713249738"><ele>1502.0</ele><time>2026-03-22T11:01:57.996Z</time></trkpt><trkpt lat="30.6058670643107" lon="-6.893074196790977"><ele>1501.6666666666667</ele><time>2026-03-22T11:01:58.996Z</time></trkpt><trkpt lat="30.605699951409083" lon="-6.893032147448445"><ele>1501.3333333333333</ele><time>2026-03-22T11:01:59.996Z</time></trkpt><trkpt lat="30.605524496478495" lon="-6.892982654581415"><ele>1501.0</ele><time>2026-03-22T11:02:00.996Z</time></trkpt><trkpt lat="30.60533197759392" lon="-6.892920709743653"><ele>1501.0</ele><time>2026-03-22T11:02:01.996Z</time></trkpt><trkpt lat="30.605119056814335" lon="-6.892853073097135"><ele>1501.0</ele><time>2026-03-22T11:02:02.996Z</time></trkpt><trkpt lat="30.604951275032082" lon="-6.892797866443677"><ele>1501.0</ele><time>2026-03-22T11:02:03.996Z</time></trkpt><trkpt lat="30.604781143433556" lon="-6.892744229747768"><ele>1501.0</ele><time>2026-03-22T11:02:04.996Z</time></trkpt><trkpt lat="30.604584566553964" lon="-6.89267697258222"><ele>1501.0</ele><time>2026-03-22T11:02:05.996Z</time></trkpt><trkpt lat="30.60439570154332" lon="-6.892613844282415"><ele>1501.0</ele><time>2026-03-22T11:02:06.996Z</time></trkpt><trkpt lat="30.60421752789364" lon="-6.892567538113892"><ele>1501.6666666666665</ele><time>2026-03-22T11:02:07.996Z</time></trkpt><trkpt lat="30.6040490270269" lon="-6.892506988955529"><ele>1502.3333333333333</ele><time>2026-03-22T11:02:08.996Z</time></trkpt><trkpt lat="30.603888860904544" lon="-6.892457712897338"><ele>1503.0</ele><time>2026-03-22T11:02:09.996Z</time></trkpt><trkpt lat="30.60374626329216" lon="-6.8924011436292965"><ele>1502.3333333333333</ele><time>2026-03-22T11:02:10.996Z</time></trkpt><trkpt lat="30.60360122101656" lon="-6.8923386275932685"><ele>1501.6666666666665</ele><time>2026-03-22T11:02:11.996Z</time></trkpt><trkpt lat="30.60344911378338" lon="-6.892262402918637"><ele>1501.0</ele><time>2026-03-22T11:02:12.996Z</time></trkpt><trkpt lat="30.603313042478682" lon="-6.892189513575409"><ele>1501.0</ele><time>2026-03-22T11:02:13.996Z</time></trkpt><trkpt lat="30.603194196669307" lon="-6.892116784250022"><ele>1501.0</ele><time>2026-03-22T11:02:14.996Z</time></trkpt><trkpt lat="30.603080525265902" lon="-6.8920488793488985"><ele>1501.0</ele><time>2026-03-22T11:02:15.996Z</time></trkpt><trkpt lat="30.602945003166536" lon="-6.891969748414133"><ele>1501.0</ele><time>2026-03-22T11:02:16.996Z</time></trkpt><trkpt lat="30.60281629929524" lon="-6.891884797290757"><ele>1501.25</ele><time>2026-03-22T11:02:17.996Z</time></trkpt><trkpt lat="30.60268633277462" lon="-6.891809034880115"><ele>1501.5</ele><time>2026-03-22T11:02:18.996Z</time></trkpt><trkpt lat="30.602558652438898" lon="-6.8917422141343705"><ele>1501.75</ele><time>2026-03-22T11:02:19.996Z</time></trkpt><trkpt lat="30.60243214196363" lon="-6.8916739038136345"><ele>1502.0</ele><time>2026-03-22T11:02:20.996Z</time></trkpt><trkpt lat="30.602300230835" lon="-6.8916101816435615"><ele>1502.75</ele><time>2026-03-22T11:02:21.996Z</time></trkpt><trkpt lat="30.60216284686164" lon="-6.8915506754440115"><ele>1503.5</ele><time>2026-03-22T11:02:22.996Z</time></trkpt><trkpt lat="30.602028689841912" lon="-6.89148780146776"><ele>1504.25</ele><time>2026-03-22T11:02:23.996Z</time></trkpt><trkpt lat="30.601900197164937" lon="-6.891435247191474"><ele>1505.0</ele><time>2026-03-22T11:02:24.996Z</time></trkpt><trkpt lat="30.601794694117732" lon="-6.8913843375631885"><ele>1506.0</ele><time>2026-03-22T11:02:25.996Z</time></trkpt><trkpt lat="30.60169584003206" lon="-6.891331649603569"><ele>1507.0</ele><time>2026-03-22T11:02:26.996Z</time></trkpt><trkpt lat="30.601591787763" lon="-6.8912625068687055"><ele>1508.0</ele><time>2026-03-22T11:02:27.996Z</time></trkpt><trkpt lat="30.601482348822163" lon="-6.8911852067067905"><ele>1509.0</ele><time>2026-03-22T11:02:28.996Z</time></trkpt><trkpt lat="30.60135807697345" lon="-6.891126511612479"><ele>1509.0</ele><time>2026-03-22T11:02:29.996Z</time></trkpt><trkpt lat="30.601237228997142" lon="-6.891072403574908"><ele>1509.0</ele><time>2026-03-22T11:02:30.996Z</time></trkpt><trkpt lat="30.60113216703229" lon="-6.891020004048934"><ele>1509.0</ele><time>2026-03-22T11:02:31.996Z</time></trkpt><trkpt lat="30.6010285346497" lon="-6.890964440050265"><ele>1509.0</ele><time>2026-03-22T11:02:32.996Z</time></trkpt><trkpt lat="30.600929451066357" lon="-6.890911154858709"><ele>1510.0</ele><time>2026-03-22T11:02:33.996Z</time></trkpt><trkpt lat="30.600823752890467" lon="-6.890867066988459"><ele>1511.0</ele><time>2026-03-22T11:02:34.996Z</time></trkpt><trkpt lat="30.600714117591814" lon="-6.890833346048658"><ele>1512.0</ele><time>2026-03-22T11:02:35.996Z</time></trkpt><trkpt lat="30.600612615444977" lon="-6.890794371851232"><ele>1513.0</ele><time>2026-03-22T11:02:36.996Z</time></trkpt><trkpt lat="30.600514570646006" lon="-6.890754248875296"><ele>1514.0</ele><time>2026-03-22T11:02:37.996Z</time></trkpt><trkpt lat="30.60041238227691" lon="-6.890705830965658"><ele>1515.0</ele><time>2026-03-22T11:02:38.996Z</time></trkpt><trkpt lat="30.60030772168482" lon="-6.890664517103741"><ele>1516.0</ele><time>2026-03-22T11:02:39.996Z</time></trkpt><trkpt lat="30.600198578376222" lon="-6.890640937363161"><ele>1517.0</ele><time>2026-03-22T11:02:40.996Z</time></trkpt><trkpt lat="30.600101888004218" lon="-6.8906172258029725"><ele>1518.0</ele><time>2026-03-22T11:02:41.996Z</time></trkpt><trkpt lat="30.600013444421403" lon="-6.8905701843658465"><ele>1519.0</ele><time>2026-03-22T11:02:42.996Z</time></trkpt><trkpt lat="30.59993076170389" lon="-6.890513527873489"><ele>1519.0</ele><time>2026-03-22T11:02:43.996Z</time></trkpt><trkpt lat="30.599836108047832" lon="-6.890482063768844"><ele>1519.0</ele><time>2026-03-22T11:02:44.996Z</time></trkpt><trkpt lat="30.599736114152893" lon="-6.890465237818859"><ele>1519.0</ele><time>2026-03-22T11:02:45.996Z</time></trkpt><trkpt lat="30.59964626415203" lon="-6.890449283581911"><ele>1519.0</ele><time>2026-03-22T11:02:46.996Z</time></trkpt><trkpt lat="30.5995632408505" lon="-6.890439770932137"><ele>1519.0</ele><time>2026-03-22T11:02:47.996Z</time></trkpt><trkpt lat="30.59947751751253" lon="-6.89043893991022"><ele>1519.2</ele><time>2026-03-22T11:02:48.996Z</time></trkpt><trkpt lat="30.599392373463555" lon="-6.89045439868611"><ele>1519.4</ele><time>2026-03-22T11:02:49.996Z</time></trkpt><trkpt lat="30.599305902778333" lon="-6.890480206754981"><ele>1519.6</ele><time>2026-03-22T11:02:50.996Z</time></trkpt><trkpt lat="30.59922567198314" lon="-6.890515480328162"><ele>1519.8</ele><time>2026-03-22T11:02:51.996Z</time></trkpt><trkpt lat="30.599139527534035" lon="-6.890563787090261"><ele>1520.0</ele><time>2026-03-22T11:02:52.996Z</time></trkpt><trkpt lat="30.59904706570153" lon="-6.890621937937851"><ele>1520.0</ele><time>2026-03-22T11:02:53.996Z</time></trkpt><trkpt lat="30.598950137027774" lon="-6.890681926898519"><ele>1520.0</ele><time>2026-03-22T11:02:54.996Z</time></trkpt><trkpt lat="30.598852173717738" lon="-6.890742337805255"><ele>1520.0</ele><time>2026-03-22T11:02:55.996Z</time></trkpt><trkpt lat="30.598750624495697" lon="-6.890800118667947"><ele>1520.0</ele><time>2026-03-22T11:02:56.996Z</time></trkpt><trkpt lat="30.598643024137097" lon="-6.890845884845781"><ele>1520.0</ele><time>2026-03-22T11:02:57.996Z</time></trkpt><trkpt lat="30.59852278616851" lon="-6.890879887699799"><ele>1519.75</ele><time>2026-03-22T11:02:58.996Z</time></trkpt><trkpt lat="30.598400137341347" lon="-6.890922925734737"><ele>1519.5</ele><time>2026-03-22T11:02:59.996Z</time></trkpt><trkpt lat="30.598281538843494" lon="-6.890970830777945"><ele>1519.25</ele><time>2026-03-22T11:03:00.996Z</time></trkpt><trkpt lat="30.598165712893135" lon="-6.891016998180343"><ele>1519.0</ele><time>2026-03-22T11:03:01.996Z</time></trkpt><trkpt lat="30.59803854452573" lon="-6.891044642622859"><ele>1519.75</ele><time>2026-03-22T11:03:02.996Z</time></trkpt><trkpt lat="30.597913718921273" lon="-6.891063922314427"><ele>1520.5</ele><time>2026-03-22T11:03:03.996Z</time></trkpt><trkpt lat="30.597795328030116" lon="-6.891077959088229"><ele>1521.25</ele><time>2026-03-22T11:03:04.996Z</time></trkpt><trkpt lat="30.59767802685379" lon="-6.891098697456258"><ele>1522.0</ele><time>2026-03-22T11:03:05.996Z</time></trkpt><trkpt lat="30.59756907922297" lon="-6.891119257263512"><ele>1522.0</ele><time>2026-03-22T11:03:06.996Z</time></trkpt><trkpt lat="30.597468569692825" lon="-6.891143073848737"><ele>1522.0</ele><time>2026-03-22T11:03:07.996Z</time></trkpt><trkpt lat="30.597375959488556" lon="-6.891176419144469"><ele>1522.0</ele><time>2026-03-22T11:03:08.996Z</time></trkpt><trkpt lat="30.59728409022056" lon="-6.891224513084732"><ele>1522.0</ele><time>2026-03-22T11:03:09.996Z</time></trkpt><trkpt lat="30.597188648985654" lon="-6.891287522942459"><ele>1522.0</ele><time>2026-03-22T11:03:10.996Z</time></trkpt><trkpt lat="30.597089777829666" lon="-6.8913472777343685"><ele>1521.25</ele><time>2026-03-22T11:03:11.996Z</time></trkpt><trkpt lat="30.596990975587648" lon="-6.891409609645303"><ele>1520.5</ele><time>2026-03-22T11:03:12.996Z</time></trkpt><trkpt lat="30.596888451571886" lon="-6.891481717725299"><ele>1519.75</ele><time>2026-03-22T11:03:13.996Z</time></trkpt><trkpt lat="30.596791516870237" lon="-6.891557003974962"><ele>1519.0</ele><time>2026-03-22T11:03:14.996Z</time></trkpt><trkpt lat="30.596700320616023" lon="-6.89162904187882"><ele>1519.0</ele><time>2026-03-22T11:03:15.996Z</time></trkpt><trkpt lat="30.596611154102874" lon="-6.891699420440904"><ele>1519.0</ele><time>2026-03-22T11:03:16.996Z</time></trkpt><trkpt lat="30.59651665685219" lon="-6.891773264356218"><ele>1519.0</ele><time>2026-03-22T11:03:17.996Z</time></trkpt><trkpt lat="30.596433797968547" lon="-6.891858426705661"><ele>1519.0</ele><time>2026-03-22T11:03:18.996Z</time></trkpt><trkpt lat="30.596336345134695" lon="-6.891954871486144"><ele>1519.25</ele><time>2026-03-22T11:03:19.995Z</time></trkpt><trkpt lat="30.596237762467712" lon="-6.892046783793602"><ele>1519.5</ele><time>2026-03-22T11:03:20.996Z</time></trkpt><trkpt lat="30.59614862342302" lon="-6.892127940442641"><ele>1519.75</ele><time>2026-03-22T11:03:21.995Z</time></trkpt><trkpt lat="30.596050676341743" lon="-6.892196457549445"><ele>1520.0</ele><time>2026-03-22T11:03:22.995Z</time></trkpt><trkpt lat="30.59593724805998" lon="-6.89226802136037"><ele>1520.0</ele><time>2026-03-22T11:03:23.994Z</time></trkpt><trkpt lat="30.59583042012135" lon="-6.892325994137781"><ele>1520.0</ele><time>2026-03-22T11:03:24.993Z</time></trkpt><trkpt lat="30.59571873528058" lon="-6.892388829452469"><ele>1520.0</ele><time>2026-03-22T11:03:25.993Z</time></trkpt><trkpt lat="30.595611410230987" lon="-6.892470661394878"><ele>1520.0</ele><time>2026-03-22T11:03:26.993Z</time></trkpt><trkpt lat="30.595511834162718" lon="-6.892547338957521"><ele>1520.4</ele><time>2026-03-22T11:03:27.992Z</time></trkpt><trkpt lat="30.595434807804107" lon="-6.892635074391867"><ele>1520.8</ele><time>2026-03-22T11:03:28.992Z</time></trkpt><trkpt lat="30.595348382935757" lon="-6.892717311876134"><ele>1521.1999999999998</ele><time>2026-03-22T11:03:29.992Z</time></trkpt><trkpt lat="30.595250109676005" lon="-6.892787717155457"><ele>1521.6</ele><time>2026-03-22T11:03:30.992Z</time></trkpt><trkpt lat="30.595158008088397" lon="-6.892825324401205"><ele>1522.0</ele><time>2026-03-22T11:03:31.992Z</time></trkpt><trkpt lat="30.59505992045953" lon="-6.892847153288299"><ele>1522.0</ele><time>2026-03-22T11:03:32.992Z</time></trkpt><trkpt lat="30.594969473677367" lon="-6.892882895039964"><ele>1522.0</ele><time>2026-03-22T11:03:33.991Z</time></trkpt><trkpt lat="30.59488196475531" lon="-6.892925030673873"><ele>1522.0</ele><time>2026-03-22T11:03:34.99Z</time></trkpt><trkpt lat="30.594789512553934" lon="-6.892962482054746"><ele>1522.0</ele><time>2026-03-22T11:03:35.99Z</time></trkpt><trkpt lat="30.59468866605223" lon="-6.8930103597423"><ele>1522.0</ele><time>2026-03-22T11:03:36.99Z</time></trkpt><trkpt lat="30.594592548029624" lon="-6.893074025887583"><ele>1521.6</ele><time>2026-03-22T11:03:37.99Z</time></trkpt><trkpt lat="30.594489877729394" lon="-6.893130800600173"><ele>1521.1999999999998</ele><time>2026-03-22T11:03:38.99Z</time></trkpt><trkpt lat="30.594387160856773" lon="-6.893181189358376"><ele>1520.8</ele><time>2026-03-22T11:03:39.99Z</time></trkpt><trkpt lat="30.59428632927318" lon="-6.893236304527614"><ele>1520.4</ele><time>2026-03-22T11:03:40.989Z</time></trkpt><trkpt lat="30.59419205106618" lon="-6.893280453154563"><ele>1520.0</ele><time>2026-03-22T11:03:41.989Z</time></trkpt><trkpt lat="30.59411732230154" lon="-6.893336364650114"><ele>1520.0</ele><time>2026-03-22T11:03:42.989Z</time></trkpt><trkpt lat="30.594043955186898" lon="-6.89339105801418"><ele>1520.0</ele><time>2026-03-22T11:03:43.989Z</time></trkpt><trkpt lat="30.593970865607407" lon="-6.893460745519511"><ele>1520.0</ele><time>2026-03-22T11:03:44.989Z</time></trkpt><trkpt lat="30.59389617415018" lon="-6.893527962297773"><ele>1520.0</ele><time>2026-03-22T11:03:45.989Z</time></trkpt><trkpt lat="30.593819791090777" lon="-6.893579068603014"><ele>1520.0</ele><time>2026-03-22T11:03:46.989Z</time></trkpt><trkpt lat="30.593733436375654" lon="-6.893601933117953"><ele>1520.8333333333335</ele><time>2026-03-22T11:03:47.989Z</time></trkpt><trkpt lat="30.593640143934792" lon="-6.89359723679511"><ele>1521.6666666666667</ele><time>2026-03-22T11:03:48.989Z</time></trkpt><trkpt lat="30.593555300146882" lon="-6.89357701415101"><ele>1522.5</ele><time>2026-03-22T11:03:49.989Z</time></trkpt><trkpt lat="30.593479558470897" lon="-6.893550326084819"><ele>1523.3333333333333</ele><time>2026-03-22T11:03:50.989Z</time></trkpt><trkpt lat="30.593405025154805" lon="-6.893524619712454"><ele>1524.1666666666665</ele><time>2026-03-22T11:03:51.988Z</time></trkpt><trkpt lat="30.593338242207697" lon="-6.893506952585009"><ele>1525.0</ele><time>2026-03-22T11:03:52.988Z</time></trkpt><trkpt lat="30.59326224313194" lon="-6.893546513571976"><ele>1525.0</ele><time>2026-03-22T11:03:54.988Z</time></trkpt><trkpt lat="30.593201235861283" lon="-6.893626777893885"><ele>1525.0</ele><time>2026-03-22T11:03:56.988Z</time></trkpt><trkpt lat="30.59312015503147" lon="-6.893724622207478"><ele>1525.0</ele><time>2026-03-22T11:03:58.988Z</time></trkpt><trkpt lat="30.59300590411318" lon="-6.893804451403535"><ele>1525.0</ele><time>2026-03-22T11:04:00.988Z</time></trkpt><trkpt lat="30.592932256499676" lon="-6.893865021081307"><ele>1525.0</ele><time>2026-03-22T11:04:01.988Z</time></trkpt><trkpt lat="30.59285505856981" lon="-6.893928074730959"><ele>1525.0</ele><time>2026-03-22T11:04:02.988Z</time></trkpt><trkpt lat="30.592775565615906" lon="-6.894013178434152"><ele>1525.0</ele><time>2026-03-22T11:04:03.988Z</time></trkpt><trkpt lat="30.59269174220261" lon="-6.894115916940081"><ele>1525.0</ele><time>2026-03-22T11:04:04.988Z</time></trkpt><trkpt lat="30.592600775324723" lon="-6.894238994751462"><ele>1525.0</ele><time>2026-03-22T11:04:05.988Z</time></trkpt><trkpt lat="30.592507480131147" lon="-6.894377324510068"><ele>1525.0</ele><time>2026-03-22T11:04:06.988Z</time></trkpt><trkpt lat="30.59239880580724" lon="-6.894515162028391"><ele>1525.0</ele><time>2026-03-22T11:04:07.988Z</time></trkpt><trkpt lat="30.592294260490767" lon="-6.89463182068133"><ele>1525.0</ele><time>2026-03-22T11:04:08.988Z</time></trkpt><trkpt lat="30.592203110115506" lon="-6.894737491056329"><ele>1525.0</ele><time>2026-03-22T11:04:09.988Z</time></trkpt><trkpt lat="30.592124554194395" lon="-6.89483675779717"><ele>1525.0</ele><time>2026-03-22T11:04:10.988Z</time></trkpt><trkpt lat="30.592063822255604" lon="-6.894944752037349"><ele>1525.0</ele><time>2026-03-22T11:04:11.988Z</time></trkpt><trkpt lat="30.592016806103867" lon="-6.895046594584731"><ele>1525.0</ele><time>2026-03-22T11:04:12.988Z</time></trkpt><trkpt lat="30.59198626178032" lon="-6.895122306071221"><ele>1525.0</ele><time>2026-03-22T11:04:13.988Z</time></trkpt><trkpt lat="30.591932190570528" lon="-6.895181828831854"><ele>1525.0</ele><time>2026-03-22T11:04:14.988Z</time></trkpt><trkpt lat="30.591862757436402" lon="-6.895214541366696"><ele>1525.0</ele><time>2026-03-22T11:04:15.988Z</time></trkpt><trkpt lat="30.59179639801572" lon="-6.895228175652534"><ele>1525.0</ele><time>2026-03-22T11:04:16.988Z</time></trkpt><trkpt lat="30.59173230505622" lon="-6.89521308614265"><ele>1525.0</ele><time>2026-03-22T11:04:17.988Z</time></trkpt><trkpt lat="30.591625510293206" lon="-6.895164568663118"><ele>1525.0</ele><time>2026-03-22T11:04:19.988Z</time></trkpt><trkpt lat="30.59153133139308" lon="-6.8951582463387595"><ele>1525.0</ele><time>2026-03-22T11:04:20.988Z</time></trkpt><trkpt lat="30.591435357302526" lon="-6.895164350534733"><ele>1525.0</ele><time>2026-03-22T11:04:21.988Z</time></trkpt><trkpt lat="30.59136614536049" lon="-6.895198576387317"><ele>1525.0</ele><time>2026-03-22T11:04:22.988Z</time></trkpt><trkpt lat="30.591283589105654" lon="-6.895226017101163"><ele>1525.0</ele><time>2026-03-22T11:04:23.988Z</time></trkpt><trkpt lat="30.59120843576772" lon="-6.895238175128678"><ele>1525.0</ele><time>2026-03-22T11:04:24.988Z</time></trkpt><trkpt lat="30.591144055343477" lon="-6.89522384625103"><ele>1525.0</ele><time>2026-03-22T11:04:25.988Z</time></trkpt><trkpt lat="30.59109465125369" lon="-6.89517735575459"><ele>1525.0</ele><time>2026-03-22T11:04:26.988Z</time></trkpt><trkpt lat="30.591060621140553" lon="-6.895100921162002"><ele>1525.0</ele><time>2026-03-22T11:04:27.988Z</time></trkpt><trkpt lat="30.591031694115156" lon="-6.895000693309336"><ele>1525.0</ele><time>2026-03-22T11:04:28.988Z</time></trkpt><trkpt lat="30.591006092457924" lon="-6.894902474009106"><ele>1524.2</ele><time>2026-03-22T11:04:29.988Z</time></trkpt><trkpt lat="30.59095607590857" lon="-6.894823591491364"><ele>1523.4</ele><time>2026-03-22T11:04:30.988Z</time></trkpt><trkpt lat="30.590882720317293" lon="-6.894739030718154"><ele>1522.6</ele><time>2026-03-22T11:04:31.987Z</time></trkpt><trkpt lat="30.590799844707007" lon="-6.894619860496144"><ele>1521.8</ele><time>2026-03-22T11:04:32.987Z</time></trkpt><trkpt lat="30.590761568474353" lon="-6.8944985348556225"><ele>1521.0</ele><time>2026-03-22T11:04:33.987Z</time></trkpt><trkpt lat="30.590741529945333" lon="-6.894368039543793"><ele>1520.75</ele><time>2026-03-22T11:04:34.987Z</time></trkpt><trkpt lat="30.59074647167449" lon="-6.894246583470158"><ele>1520.5</ele><time>2026-03-22T11:04:35.987Z</time></trkpt><trkpt lat="30.590786222953742" lon="-6.894114405459489"><ele>1520.25</ele><time>2026-03-22T11:04:36.987Z</time></trkpt><trkpt lat="30.59084082276815" lon="-6.893974613705349"><ele>1520.0</ele><time>2026-03-22T11:04:37.987Z</time></trkpt><trkpt lat="30.590859163164243" lon="-6.893860836216989"><ele>1520.0</ele><time>2026-03-22T11:04:38.987Z</time></trkpt><trkpt lat="30.590867229328595" lon="-6.893772176586509"><ele>1520.0</ele><time>2026-03-22T11:04:39.987Z</time></trkpt><trkpt lat="30.590830971033057" lon="-6.893644588412176"><ele>1520.0</ele><time>2026-03-22T11:04:41.987Z</time></trkpt><trkpt lat="30.590757746353628" lon="-6.893572017602899"><ele>1520.0</ele><time>2026-03-22T11:04:43.987Z</time></trkpt><trkpt lat="30.59070318274471" lon="-6.8934949481044425"><ele>1520.0</ele><time>2026-03-22T11:04:45.987Z</time></trkpt><trkpt lat="30.59069013458178" lon="-6.8934055280238145"><ele>1519.8333333333335</ele><time>2026-03-22T11:04:47.987Z</time></trkpt><trkpt lat="30.590728746922608" lon="-6.8933100119325115"><ele>1519.6666666666667</ele><time>2026-03-22T11:04:49.987Z</time></trkpt><trkpt lat="30.590790386762357" lon="-6.893211163748252"><ele>1519.5</ele><time>2026-03-22T11:04:51.987Z</time></trkpt><trkpt lat="30.59082190493385" lon="-6.893144562110139"><ele>1519.3333333333333</ele><time>2026-03-22T11:04:52.987Z</time></trkpt><trkpt lat="30.590855882218985" lon="-6.893075705416125"><ele>1519.1666666666665</ele><time>2026-03-22T11:04:53.987Z</time></trkpt><trkpt lat="30.59089398132399" lon="-6.893003716019144"><ele>1519.0</ele><time>2026-03-22T11:04:54.987Z</time></trkpt><trkpt lat="30.590933880208627" lon="-6.892924320703213"><ele>1519.0</ele><time>2026-03-22T11:04:55.987Z</time></trkpt><trkpt lat="30.590973953299986" lon="-6.892839281279782"><ele>1519.0</ele><time>2026-03-22T11:04:56.987Z</time></trkpt><trkpt lat="30.591013973831064" lon="-6.892755494636484"><ele>1519.0</ele><time>2026-03-22T11:04:57.987Z</time></trkpt><trkpt lat="30.59106666143934" lon="-6.892665638811419"><ele>1519.0</ele><time>2026-03-22T11:04:58.987Z</time></trkpt><trkpt lat="30.591118898819346" lon="-6.892585882728419"><ele>1519.0</ele><time>2026-03-22T11:04:59.987Z</time></trkpt><trkpt lat="30.591166647106107" lon="-6.892496256765696"><ele>1519.0</ele><time>2026-03-22T11:05:00.987Z</time></trkpt><trkpt lat="30.591200917685345" lon="-6.892398791234424"><ele>1518.0</ele><time>2026-03-22T11:05:01.987Z</time></trkpt><trkpt lat="30.591196486875447" lon="-6.892298179965876"><ele>1517.0</ele><time>2026-03-22T11:05:02.987Z</time></trkpt><trkpt lat="30.591188826084274" lon="-6.89218678869577"><ele>1516.0</ele><time>2026-03-22T11:05:03.987Z</time></trkpt><trkpt lat="30.591193828936163" lon="-6.892069399137012"><ele>1515.0</ele><time>2026-03-22T11:05:04.987Z</time></trkpt><trkpt lat="30.591234178873197" lon="-6.891957825241973"><ele>1514.0</ele><time>2026-03-22T11:05:05.987Z</time></trkpt><trkpt lat="30.591298920244082" lon="-6.891814780981931"><ele>1513.4</ele><time>2026-03-22T11:05:06.987Z</time></trkpt><trkpt lat="30.591348281024906" lon="-6.891684188513003"><ele>1512.8000000000002</ele><time>2026-03-22T11:05:07.987Z</time></trkpt><trkpt lat="30.591372993744557" lon="-6.891554309008822"><ele>1512.1999999999998</ele><time>2026-03-22T11:05:08.987Z</time></trkpt><trkpt lat="30.591392891932614" lon="-6.891427510175955"><ele>1511.6</ele><time>2026-03-22T11:05:09.987Z</time></trkpt><trkpt lat="30.59143223275612" lon="-6.891322239169079"><ele>1511.0</ele><time>2026-03-22T11:05:10.987Z</time></trkpt><trkpt lat="30.59146951391111" lon="-6.891227980308454"><ele>1511.0</ele><time>2026-03-22T11:05:11.987Z</time></trkpt><trkpt lat="30.591510856516294" lon="-6.891129308049403"><ele>1511.0</ele><time>2026-03-22T11:05:12.987Z</time></trkpt><trkpt lat="30.591553298215977" lon="-6.891030925835989"><ele>1511.0</ele><time>2026-03-22T11:05:13.987Z</time></trkpt><trkpt lat="30.591590413471415" lon="-6.890947924119967"><ele>1511.0</ele><time>2026-03-22T11:05:14.987Z</time></trkpt><trkpt lat="30.59162229361077" lon="-6.8908702317069634"><ele>1511.0</ele><time>2026-03-22T11:05:15.987Z</time></trkpt><trkpt lat="30.591656098647597" lon="-6.8907927724691715"><ele>1511.0</ele><time>2026-03-22T11:05:16.987Z</time></trkpt><trkpt lat="30.59165363115849" lon="-6.890651809442732"><ele>1510.5</ele><time>2026-03-22T11:05:18.987Z</time></trkpt><trkpt lat="30.591548388333717" lon="-6.8906118308184485"><ele>1510.0</ele><time>2026-03-22T11:05:20.987Z</time></trkpt><trkpt lat="30.59145124992199" lon="-6.890668895488747"><ele>1509.5</ele><time>2026-03-22T11:05:21.987Z</time></trkpt><trkpt lat="30.591329442357377" lon="-6.890711023831902"><ele>1509.0</ele><time>2026-03-22T11:05:22.987Z</time></trkpt><trkpt lat="30.591192349176012" lon="-6.890695742645827"><ele>1509.4</ele><time>2026-03-22T11:05:23.987Z</time></trkpt><trkpt lat="30.59107352287516" lon="-6.890661079419757"><ele>1509.8000000000002</ele><time>2026-03-22T11:05:24.987Z</time></trkpt><trkpt lat="30.590988311231246" lon="-6.890659779544213"><ele>1510.1999999999998</ele><time>2026-03-22T11:05:25.988Z</time></trkpt><trkpt lat="30.590911519573233" lon="-6.890669396999039"><ele>1510.6</ele><time>2026-03-22T11:05:26.988Z</time></trkpt><trkpt lat="30.59084892664584" lon="-6.890659904954254"><ele>1511.0</ele><time>2026-03-22T11:05:27.988Z</time></trkpt><trkpt lat="30.59075200935302" lon="-6.890535127796704"><ele>1511.0</ele><time>2026-03-22T11:05:29.988Z</time></trkpt><trkpt lat="30.590711708581992" lon="-6.890415680838606"><ele>1511.0</ele><time>2026-03-22T11:05:30.988Z</time></trkpt><trkpt lat="30.590654065194816" lon="-6.89035337978245"><ele>1511.0</ele><time>2026-03-22T11:05:31.989Z</time></trkpt><trkpt lat="30.590575234132032" lon="-6.8903147986150985"><ele>1511.0</ele><time>2026-03-22T11:05:32.988Z</time></trkpt><trkpt lat="30.590519047174283" lon="-6.890262667737637"><ele>1511.0</ele><time>2026-03-22T11:05:33.988Z</time></trkpt><trkpt lat="30.590501541853044" lon="-6.890187346931354"><ele>1511.0</ele><time>2026-03-22T11:05:34.988Z</time></trkpt><trkpt lat="30.590522437302177" lon="-6.890093851382915"><ele>1510.0</ele><time>2026-03-22T11:05:35.988Z</time></trkpt><trkpt lat="30.590566110086247" lon="-6.889997638860834"><ele>1509.0</ele><time>2026-03-22T11:05:36.988Z</time></trkpt><trkpt lat="30.59061033145337" lon="-6.889878640508568"><ele>1508.0</ele><time>2026-03-22T11:05:37.989Z</time></trkpt><trkpt lat="30.590626647488154" lon="-6.88974744039016"><ele>1507.0</ele><time>2026-03-22T11:05:38.988Z</time></trkpt><trkpt lat="30.59062174793628" lon="-6.889621572611942"><ele>1506.0</ele><time>2026-03-22T11:05:39.988Z</time></trkpt><trkpt lat="30.590599024764806" lon="-6.889492812700515"><ele>1506.0</ele><time>2026-03-22T11:05:40.988Z</time></trkpt><trkpt lat="30.5905869323116" lon="-6.889371174590223"><ele>1506.0</ele><time>2026-03-22T11:05:41.988Z</time></trkpt><trkpt lat="30.59060445972314" lon="-6.889262449752153"><ele>1506.0</ele><time>2026-03-22T11:05:42.988Z</time></trkpt><trkpt lat="30.590643800730586" lon="-6.889150978789021"><ele>1506.0</ele><time>2026-03-22T11:05:43.988Z</time></trkpt><trkpt lat="30.590685009222035" lon="-6.889040321605092"><ele>1506.0</ele><time>2026-03-22T11:05:44.988Z</time></trkpt><trkpt lat="30.59071921659092" lon="-6.888922704066492"><ele>1504.6</ele><time>2026-03-22T11:05:45.988Z</time></trkpt><trkpt lat="30.59074754560284" lon="-6.888803131987515"><ele>1503.1999999999998</ele><time>2026-03-22T11:05:46.988Z</time></trkpt><trkpt lat="30.59076799286804" lon="-6.888672296734317"><ele>1501.8000000000002</ele><time>2026-03-22T11:05:47.988Z</time></trkpt><trkpt lat="30.590785315759323" lon="-6.888553942214834"><ele>1500.4</ele><time>2026-03-22T11:05:48.988Z</time></trkpt><trkpt lat="30.590797292709407" lon="-6.888452466553835"><ele>1499.0</ele><time>2026-03-22T11:05:49.988Z</time></trkpt><trkpt lat="30.59081132482601" lon="-6.888370121058663"><ele>1498.1666666666667</ele><time>2026-03-22T11:05:50.988Z</time></trkpt><trkpt lat="30.590836534411494" lon="-6.88830171465866"><ele>1497.3333333333335</ele><time>2026-03-22T11:05:51.988Z</time></trkpt><trkpt lat="30.590880254685917" lon="-6.8882315178999445"><ele>1496.5</ele><time>2026-03-22T11:05:52.988Z</time></trkpt><trkpt lat="30.59092303646881" lon="-6.888174360482507"><ele>1495.6666666666667</ele><time>2026-03-22T11:05:53.988Z</time></trkpt><trkpt lat="30.590975505664733" lon="-6.888068648172333"><ele>1494.8333333333333</ele><time>2026-03-22T11:05:55.988Z</time></trkpt><trkpt lat="30.59102446289139" lon="-6.887965597685843"><ele>1494.0</ele><time>2026-03-22T11:05:57.988Z</time></trkpt><trkpt lat="30.591073336294073" lon="-6.887904678357173"><ele>1494.0</ele><time>2026-03-22T11:05:58.988Z</time></trkpt><trkpt lat="30.591131471908692" lon="-6.887848590464204"><ele>1494.0</ele><time>2026-03-22T11:05:59.988Z</time></trkpt><trkpt lat="30.591183280846852" lon="-6.887794909903269"><ele>1494.0</ele><time>2026-03-22T11:06:00.988Z</time></trkpt><trkpt lat="30.591253932231382" lon="-6.887678036369398"><ele>1494.0</ele><time>2026-03-22T11:06:02.988Z</time></trkpt><trkpt lat="30.591286056117255" lon="-6.887531526255138"><ele>1494.0</ele><time>2026-03-22T11:06:04.988Z</time></trkpt><trkpt lat="30.591323874411973" lon="-6.887405261539643"><ele>1493.2</ele><time>2026-03-22T11:06:06.988Z</time></trkpt><trkpt lat="30.591358435784368" lon="-6.887271731925803"><ele>1492.4</ele><time>2026-03-22T11:06:08.988Z</time></trkpt><trkpt lat="30.59135432365653" lon="-6.887157608346169"><ele>1491.6</ele><time>2026-03-22T11:06:10.988Z</time></trkpt><trkpt lat="30.59133751683479" lon="-6.887053521378487"><ele>1490.8</ele><time>2026-03-22T11:06:12.988Z</time></trkpt><trkpt lat="30.591286535499833" lon="-6.886948261437189"><ele>1490.0</ele><time>2026-03-22T11:06:14.988Z</time></trkpt><trkpt lat="30.59121508091555" lon="-6.886885198326575"><ele>1489.6</ele><time>2026-03-22T11:06:16.988Z</time></trkpt><trkpt lat="30.591138012782302" lon="-6.886854231314072"><ele>1489.2</ele><time>2026-03-22T11:06:18.988Z</time></trkpt><trkpt lat="30.591047186832046" lon="-6.886815058688907"><ele>1488.8000000000002</ele><time>2026-03-22T11:06:20.988Z</time></trkpt><trkpt lat="30.59093844699023" lon="-6.886789533520905"><ele>1488.4</ele><time>2026-03-22T11:06:22.988Z</time></trkpt><trkpt lat="30.59083262992355" lon="-6.886780149561072"><ele>1488.0</ele><time>2026-03-22T11:06:24.988Z</time></trkpt><trkpt lat="30.590746562834255" lon="-6.886740230711667"><ele>1485.6000000000001</ele><time>2026-03-22T11:06:26.988Z</time></trkpt><trkpt lat="30.590720475880573" lon="-6.886671893556228"><ele>1483.2</ele><time>2026-03-22T11:06:27.988Z</time></trkpt><trkpt lat="30.59063678471036" lon="-6.886586672831773"><ele>1480.8</ele><time>2026-03-22T11:06:29.988Z</time></trkpt><trkpt lat="30.5905613363714" lon="-6.886504671832993"><ele>1478.4</ele><time>2026-03-22T11:06:31.988Z</time></trkpt><trkpt lat="30.59049080937583" lon="-6.886404605132163"><ele>1476.0</ele><time>2026-03-22T11:06:33.988Z</time></trkpt><trkpt lat="30.590444797841805" lon="-6.886344809299295"><ele>1476.0</ele><time>2026-03-22T11:06:34.988Z</time></trkpt><trkpt lat="30.590359238641756" lon="-6.886242360680047"><ele>1476.0</ele><time>2026-03-22T11:06:35.988Z</time></trkpt><trkpt lat="30.590270460646515" lon="-6.8861258024834635"><ele>1476.0</ele><time>2026-03-22T11:06:36.988Z</time></trkpt><trkpt lat="30.590207734757772" lon="-6.886038501274388"><ele>1476.0</ele><time>2026-03-22T11:06:37.988Z</time></trkpt><trkpt lat="30.59014644420308" lon="-6.885979246910471"><ele>1476.0</ele><time>2026-03-22T11:06:38.988Z</time></trkpt><trkpt lat="30.590070577067248" lon="-6.885944935334637"><ele>1475.4</ele><time>2026-03-22T11:06:39.988Z</time></trkpt><trkpt lat="30.589976176564516" lon="-6.885930199465807"><ele>1474.8</ele><time>2026-03-22T11:06:40.988Z</time></trkpt><trkpt lat="30.58987598049836" lon="-6.8859171666686505"><ele>1474.2</ele><time>2026-03-22T11:06:41.988Z</time></trkpt><trkpt lat="30.589794472974003" lon="-6.8859286837285865"><ele>1473.6000000000001</ele><time>2026-03-22T11:06:42.988Z</time></trkpt><trkpt lat="30.58971444412152" lon="-6.885977384344366"><ele>1473.0</ele><time>2026-03-22T11:06:43.988Z</time></trkpt><trkpt lat="30.58963813554578" lon="-6.886057204260848"><ele>1473.0</ele><time>2026-03-22T11:06:44.988Z</time></trkpt><trkpt lat="30.589545968214058" lon="-6.886128312517213"><ele>1473.0</ele><time>2026-03-22T11:06:45.988Z</time></trkpt><trkpt lat="30.589457181432344" lon="-6.886197565062314"><ele>1473.0</ele><time>2026-03-22T11:06:46.988Z</time></trkpt><trkpt lat="30.58936983092197" lon="-6.886295802149515"><ele>1473.0</ele><time>2026-03-22T11:06:47.988Z</time></trkpt><trkpt lat="30.589281386437793" lon="-6.886397980637507"><ele>1471.4</ele><time>2026-03-22T11:06:48.988Z</time></trkpt><trkpt lat="30.589215667104654" lon="-6.886489023035995"><ele>1469.8000000000002</ele><time>2026-03-22T11:06:49.988Z</time></trkpt><trkpt lat="30.589156603283378" lon="-6.886568490528074"><ele>1468.2</ele><time>2026-03-22T11:06:50.988Z</time></trkpt><trkpt lat="30.589099961490184" lon="-6.886644996366875"><ele>1466.6</ele><time>2026-03-22T11:06:51.988Z</time></trkpt><trkpt lat="30.589054867305638" lon="-6.886718844883501"><ele>1465.0</ele><time>2026-03-22T11:06:52.988Z</time></trkpt><trkpt lat="30.58900203790046" lon="-6.88680723072343"><ele>1465.0</ele><time>2026-03-22T11:06:53.988Z</time></trkpt><trkpt lat="30.58895215532315" lon="-6.886918725342753"><ele>1465.0</ele><time>2026-03-22T11:06:54.988Z</time></trkpt><trkpt lat="30.588887475997023" lon="-6.887045319280834"><ele>1465.0</ele><time>2026-03-22T11:06:55.988Z</time></trkpt><trkpt lat="30.58881348945545" lon="-6.887188017066981"><ele>1465.0</ele><time>2026-03-22T11:06:56.988Z</time></trkpt><trkpt lat="30.588758611473093" lon="-6.887313936713712"><ele>1465.0</ele><time>2026-03-22T11:06:57.988Z</time></trkpt><trkpt lat="30.588728989412715" lon="-6.887414679956894"><ele>1465.0</ele><time>2026-03-22T11:06:58.988Z</time></trkpt><trkpt lat="30.588688235845034" lon="-6.887493844045086"><ele>1465.0</ele><time>2026-03-22T11:06:59.988Z</time></trkpt><trkpt lat="30.5886133023206" lon="-6.88757410363184"><ele>1465.0</ele><time>2026-03-22T11:07:00.988Z</time></trkpt><trkpt lat="30.588521387300194" lon="-6.887648627920172"><ele>1465.0</ele><time>2026-03-22T11:07:01.988Z</time></trkpt><trkpt lat="30.588427313707008" lon="-6.88771339174997"><ele>1463.75</ele><time>2026-03-22T11:07:02.988Z</time></trkpt><trkpt lat="30.588308753575767" lon="-6.887780857041058"><ele>1462.5</ele><time>2026-03-22T11:07:03.988Z</time></trkpt><trkpt lat="30.588180888484054" lon="-6.887832381372395"><ele>1461.25</ele><time>2026-03-22T11:07:04.988Z</time></trkpt><trkpt lat="30.58806376880652" lon="-6.887842444518295"><ele>1460.0</ele><time>2026-03-22T11:07:05.988Z</time></trkpt><trkpt lat="30.58793010946919" lon="-6.8878170428109975"><ele>1457.6666666666667</ele><time>2026-03-22T11:07:06.988Z</time></trkpt><trkpt lat="30.587753069063673" lon="-6.88775298865843"><ele>1455.3333333333333</ele><time>2026-03-22T11:07:07.988Z</time></trkpt><trkpt lat="30.58759652614604" lon="-6.8877202001107145"><ele>1453.0</ele><time>2026-03-22T11:07:08.988Z</time></trkpt><trkpt lat="30.587466311087685" lon="-6.887713941739534"><ele>1453.0</ele><time>2026-03-22T11:07:09.988Z</time></trkpt><trkpt lat="30.587321074237966" lon="-6.887720351271427"><ele>1453.0</ele><time>2026-03-22T11:07:10.988Z</time></trkpt><trkpt lat="30.587165439550002" lon="-6.887703687082493"><ele>1453.0</ele><time>2026-03-22T11:07:11.988Z</time></trkpt><trkpt lat="30.586999216759875" lon="-6.887693235966894"><ele>1451.5</ele><time>2026-03-22T11:07:12.988Z</time></trkpt><trkpt lat="30.586842569007313" lon="-6.887690569088423"><ele>1450.0</ele><time>2026-03-22T11:07:13.988Z</time></trkpt><trkpt lat="30.58672252620554" lon="-6.887676744557327"><ele>1448.5</ele><time>2026-03-22T11:07:14.988Z</time></trkpt><trkpt lat="30.586606333419642" lon="-6.887642293043951"><ele>1447.0</ele><time>2026-03-22T11:07:15.988Z</time></trkpt><trkpt lat="30.586470655229498" lon="-6.887608733348852"><ele>1446.0</ele><time>2026-03-22T11:07:16.988Z</time></trkpt><trkpt lat="30.58633581241976" lon="-6.8875835937057746"><ele>1445.0</ele><time>2026-03-22T11:07:17.988Z</time></trkpt><trkpt lat="30.58621134485562" lon="-6.887552531093024"><ele>1444.0</ele><time>2026-03-22T11:07:18.988Z</time></trkpt><trkpt lat="30.586108256377432" lon="-6.887525847071326"><ele>1443.0</ele><time>2026-03-22T11:07:19.988Z</time></trkpt><trkpt lat="30.585999639671705" lon="-6.887511329947273"><ele>1442.2</ele><time>2026-03-22T11:07:20.988Z</time></trkpt><trkpt lat="30.585888904006154" lon="-6.887513567064446"><ele>1441.4</ele><time>2026-03-22T11:07:21.988Z</time></trkpt><trkpt lat="30.58579267028891" lon="-6.887512398589876"><ele>1440.6000000000001</ele><time>2026-03-22T11:07:22.988Z</time></trkpt><trkpt lat="30.585692113458745" lon="-6.887508877941954"><ele>1439.8000000000002</ele><time>2026-03-22T11:07:23.988Z</time></trkpt><trkpt lat="30.58559808209694" lon="-6.887505625199231"><ele>1439.0</ele><time>2026-03-22T11:07:24.988Z</time></trkpt><trkpt lat="30.585499488542734" lon="-6.887495768865596"><ele>1439.0</ele><time>2026-03-22T11:07:25.988Z</time></trkpt><trkpt lat="30.58540525671723" lon="-6.887484666714645"><ele>1439.0</ele><time>2026-03-22T11:07:26.988Z</time></trkpt><trkpt lat="30.585319210061648" lon="-6.887477573522206"><ele>1439.0</ele><time>2026-03-22T11:07:27.988Z</time></trkpt><trkpt lat="30.58523769738779" lon="-6.887476494500153"><ele>1439.0</ele><time>2026-03-22T11:07:28.988Z</time></trkpt><trkpt lat="30.585167984310733" lon="-6.887476994558038"><ele>1439.0</ele><time>2026-03-22T11:07:29.988Z</time></trkpt><trkpt lat="30.58509869114004" lon="-6.887473536016064"><ele>1439.0</ele><time>2026-03-22T11:07:30.988Z</time></trkpt><trkpt lat="30.585025915368735" lon="-6.887465231957164"><ele>1438.3333333333335</ele><time>2026-03-22T11:07:31.988Z</time></trkpt><trkpt lat="30.584947164280294" lon="-6.8874563422931745"><ele>1437.6666666666667</ele><time>2026-03-22T11:07:32.988Z</time></trkpt><trkpt lat="30.584876201334957" lon="-6.8874459775717884"><ele>1437.0</ele><time>2026-03-22T11:07:33.988Z</time></trkpt><trkpt lat="30.584805588935847" lon="-6.887429530981486"><ele>1436.3333333333333</ele><time>2026-03-22T11:07:34.988Z</time></trkpt><trkpt lat="30.58472613477999" lon="-6.8873929273102314"><ele>1435.6666666666665</ele><time>2026-03-22T11:07:35.988Z</time></trkpt><trkpt lat="30.58463068195218" lon="-6.887346423776725"><ele>1435.0</ele><time>2026-03-22T11:07:36.988Z</time></trkpt><trkpt lat="30.58451855975818" lon="-6.887304261389493"><ele>1435.0</ele><time>2026-03-22T11:07:37.987Z</time></trkpt><trkpt lat="30.584412449275106" lon="-6.887306224806399"><ele>1435.0</ele><time>2026-03-22T11:07:38.988Z</time></trkpt><trkpt lat="30.584315884287655" lon="-6.887314013747017"><ele>1435.0</ele><time>2026-03-22T11:07:39.988Z</time></trkpt><trkpt lat="30.58420130994559" lon="-6.887289546135273"><ele>1435.0</ele><time>2026-03-22T11:07:40.988Z</time></trkpt><trkpt lat="30.584091589214847" lon="-6.887277148948476"><ele>1435.0</ele><time>2026-03-22T11:07:41.988Z</time></trkpt><trkpt lat="30.584007701199248" lon="-6.8872696279699195"><ele>1435.0</ele><time>2026-03-22T11:07:42.988Z</time></trkpt><trkpt lat="30.583924430751637" lon="-6.887277936120512"><ele>1435.0</ele><time>2026-03-22T11:07:43.988Z</time></trkpt><trkpt lat="30.583840352973976" lon="-6.887295064124306"><ele>1435.0</ele><time>2026-03-22T11:07:44.987Z</time></trkpt><trkpt lat="30.583751263357385" lon="-6.887321880831151"><ele>1435.0</ele><time>2026-03-22T11:07:45.987Z</time></trkpt><trkpt lat="30.583643041238698" lon="-6.887367468820583"><ele>1435.0</ele><time>2026-03-22T11:07:46.987Z</time></trkpt><trkpt lat="30.583537388602288" lon="-6.887410028506921"><ele>1434.4285714285713</ele><time>2026-03-22T11:07:47.987Z</time></trkpt><trkpt lat="30.583465980554198" lon="-6.887416165351162"><ele>1433.857142857143</ele><time>2026-03-22T11:07:48.987Z</time></trkpt><trkpt lat="30.58339009133722" lon="-6.887430618301157"><ele>1433.2857142857142</ele><time>2026-03-22T11:07:49.987Z</time></trkpt><trkpt lat="30.583322560087332" lon="-6.887470393829511"><ele>1432.7142857142858</ele><time>2026-03-22T11:07:50.987Z</time></trkpt><trkpt lat="30.58326898476365" lon="-6.887514233175934"><ele>1432.142857142857</ele><time>2026-03-22T11:07:51.987Z</time></trkpt><trkpt lat="30.583223860007827" lon="-6.887577546092523"><ele>1431.5714285714284</ele><time>2026-03-22T11:07:52.987Z</time></trkpt><trkpt lat="30.583180575808672" lon="-6.887660082616365"><ele>1431.0</ele><time>2026-03-22T11:07:53.987Z</time></trkpt><trkpt lat="30.58313383811443" lon="-6.887741391722324"><ele>1431.0</ele><time>2026-03-22T11:07:54.987Z</time></trkpt><trkpt lat="30.583032901538605" lon="-6.887810724809957"><ele>1431.0</ele><time>2026-03-22T11:07:55.987Z</time></trkpt><trkpt lat="30.582924873282312" lon="-6.887871516521342"><ele>1431.0</ele><time>2026-03-22T11:07:56.987Z</time></trkpt><trkpt lat="30.582829321419016" lon="-6.887945695068903"><ele>1431.0</ele><time>2026-03-22T11:07:57.987Z</time></trkpt><trkpt lat="30.582751296405572" lon="-6.888014869410518"><ele>1431.0</ele><time>2026-03-22T11:07:58.987Z</time></trkpt><trkpt lat="30.582681224704448" lon="-6.888078757894617"><ele>1431.0</ele><time>2026-03-22T11:07:59.987Z</time></trkpt><trkpt lat="30.582615709948254" lon="-6.88814170579283"><ele>1431.0</ele><time>2026-03-22T11:08:00.987Z</time></trkpt><trkpt lat="30.582556127651166" lon="-6.888198415967371"><ele>1431.0</ele><time>2026-03-22T11:08:01.987Z</time></trkpt><trkpt lat="30.582510716914456" lon="-6.888256004180955"><ele>1431.0</ele><time>2026-03-22T11:08:02.987Z</time></trkpt><trkpt lat="30.582469720529733" lon="-6.888322923815152"><ele>1431.0</ele><time>2026-03-22T11:08:03.987Z</time></trkpt><trkpt lat="30.582432618832915" lon="-6.888401626604924"><ele>1431.3333333333333</ele><time>2026-03-22T11:08:04.987Z</time></trkpt><trkpt lat="30.582406741500392" lon="-6.888491206483985"><ele>1431.6666666666667</ele><time>2026-03-22T11:08:05.987Z</time></trkpt><trkpt lat="30.582374942777918" lon="-6.888575477865206"><ele>1432.0</ele><time>2026-03-22T11:08:06.987Z</time></trkpt><trkpt lat="30.582327295722703" lon="-6.888651732511781"><ele>1432.3333333333335</ele><time>2026-03-22T11:08:07.987Z</time></trkpt><trkpt lat="30.582293983384496" lon="-6.888721419472524"><ele>1432.6666666666667</ele><time>2026-03-22T11:08:08.987Z</time></trkpt><trkpt lat="30.582257342827372" lon="-6.8887819822616745"><ele>1433.0</ele><time>2026-03-22T11:08:09.987Z</time></trkpt><trkpt lat="30.58219147422509" lon="-6.888847822730551"><ele>1433.0</ele><time>2026-03-22T11:08:11.987Z</time></trkpt><trkpt lat="30.582089403955397" lon="-6.888808597377179"><ele>1433.0</ele><time>2026-03-22T11:08:13.987Z</time></trkpt><trkpt lat="30.582034366036478" lon="-6.888749386151212"><ele>1433.0</ele><time>2026-03-22T11:08:14.987Z</time></trkpt><trkpt lat="30.581973392287516" lon="-6.888692762622275"><ele>1433.0</ele><time>2026-03-22T11:08:15.987Z</time></trkpt><trkpt lat="30.581898891213697" lon="-6.888660938989982"><ele>1433.0</ele><time>2026-03-22T11:08:16.987Z</time></trkpt><trkpt lat="30.581822771077448" lon="-6.888620135764323"><ele>1433.0</ele><time>2026-03-22T11:08:17.987Z</time></trkpt><trkpt lat="30.58173739026639" lon="-6.888561913624255"><ele>1434.0</ele><time>2026-03-22T11:08:18.987Z</time></trkpt><trkpt lat="30.581628162265513" lon="-6.888484562295216"><ele>1435.0</ele><time>2026-03-22T11:08:19.987Z</time></trkpt><trkpt lat="30.581483114249334" lon="-6.888389703614566"><ele>1436.0</ele><time>2026-03-22T11:08:20.987Z</time></trkpt><trkpt lat="30.581368359493958" lon="-6.888320383732709"><ele>1437.0</ele><time>2026-03-22T11:08:21.987Z</time></trkpt><trkpt lat="30.58126230269939" lon="-6.888261433683127"><ele>1435.0</ele><time>2026-03-22T11:08:22.987Z</time></trkpt><trkpt lat="30.581154134630186" lon="-6.888214273334827"><ele>1433.0</ele><time>2026-03-22T11:08:23.987Z</time></trkpt><trkpt lat="30.581041831302635" lon="-6.888164631822573"><ele>1431.0</ele><time>2026-03-22T11:08:24.987Z</time></trkpt><trkpt lat="30.58092941345465" lon="-6.888129131290671"><ele>1429.0</ele><time>2026-03-22T11:08:25.987Z</time></trkpt><trkpt lat="30.580826144311125" lon="-6.888103517304754"><ele>1429.0</ele><time>2026-03-22T11:08:26.987Z</time></trkpt><trkpt lat="30.580719595117493" lon="-6.888074197148883"><ele>1429.0</ele><time>2026-03-22T11:08:27.987Z</time></trkpt><trkpt lat="30.580610769016992" lon="-6.888022410657878"><ele>1429.0</ele><time>2026-03-22T11:08:28.987Z</time></trkpt><trkpt lat="30.580497438171328" lon="-6.887977804831416"><ele>1429.0</ele><time>2026-03-22T11:08:29.987Z</time></trkpt><trkpt lat="30.580388908908297" lon="-6.887946812584661"><ele>1430.8000000000002</ele><time>2026-03-22T11:08:30.987Z</time></trkpt><trkpt lat="30.58029251121237" lon="-6.8879197027951085"><ele>1432.6000000000001</ele><time>2026-03-22T11:08:31.987Z</time></trkpt><trkpt lat="30.58020497123001" lon="-6.887894042629711"><ele>1434.4</ele><time>2026-03-22T11:08:32.987Z</time></trkpt><trkpt lat="30.580113625395796" lon="-6.8878675051154765"><ele>1436.2</ele><time>2026-03-22T11:08:33.987Z</time></trkpt><trkpt lat="30.580001526342656" lon="-6.887834184245543"><ele>1438.0</ele><time>2026-03-22T11:08:34.987Z</time></trkpt><trkpt lat="30.579896807070256" lon="-6.887820200755766"><ele>1438.0</ele><time>2026-03-22T11:08:35.987Z</time></trkpt><trkpt lat="30.57980006223074" lon="-6.887826482640924"><ele>1438.0</ele><time>2026-03-22T11:08:36.987Z</time></trkpt><trkpt lat="30.579699589533792" lon="-6.887859677949735"><ele>1438.0</ele><time>2026-03-22T11:08:37.987Z</time></trkpt><trkpt lat="30.579564560773754" lon="-6.887926432200862"><ele>1438.0</ele><time>2026-03-22T11:08:38.987Z</time></trkpt><trkpt lat="30.57941562969915" lon="-6.8879955284835646"><ele>1435.0</ele><time>2026-03-22T11:08:39.987Z</time></trkpt><trkpt lat="30.57927669784079" lon="-6.888041907128588"><ele>1432.0</ele><time>2026-03-22T11:08:40.987Z</time></trkpt><trkpt lat="30.57916734380555" lon="-6.8880981130164"><ele>1429.0</ele><time>2026-03-22T11:08:41.987Z</time></trkpt><trkpt lat="30.579063216586288" lon="-6.888155960837354"><ele>1426.0</ele><time>2026-03-22T11:08:42.987Z</time></trkpt><trkpt lat="30.578983344610446" lon="-6.888208344469463"><ele>1426.0</ele><time>2026-03-22T11:08:43.987Z</time></trkpt><trkpt lat="30.57890199923674" lon="-6.8882613995490685"><ele>1426.0</ele><time>2026-03-22T11:08:44.987Z</time></trkpt><trkpt lat="30.578818807094606" lon="-6.888315630665136"><ele>1426.0</ele><time>2026-03-22T11:08:45.987Z</time></trkpt><trkpt lat="30.578732769847196" lon="-6.888366726997785"><ele>1426.0</ele><time>2026-03-22T11:08:46.987Z</time></trkpt><trkpt lat="30.578643668416767" lon="-6.888417031401824"><ele>1426.0</ele><time>2026-03-22T11:08:47.987Z</time></trkpt><trkpt lat="30.578559266512546" lon="-6.888466641230616"><ele>1426.6</ele><time>2026-03-22T11:08:48.987Z</time></trkpt><trkpt lat="30.578471713254217" lon="-6.8885103542812605"><ele>1427.1999999999998</ele><time>2026-03-22T11:08:49.987Z</time></trkpt><trkpt lat="30.578371991328567" lon="-6.88855004543092"><ele>1427.8000000000002</ele><time>2026-03-22T11:08:50.987Z</time></trkpt><trkpt lat="30.578269188889873" lon="-6.888603334303157"><ele>1428.4</ele><time>2026-03-22T11:08:51.987Z</time></trkpt><trkpt lat="30.57815263740005" lon="-6.8886567056705115"><ele>1429.0</ele><time>2026-03-22T11:08:52.987Z</time></trkpt><trkpt lat="30.578027786781746" lon="-6.888718979129871"><ele>1429.0</ele><time>2026-03-22T11:08:53.987Z</time></trkpt><trkpt lat="30.57792292480687" lon="-6.888776472748584"><ele>1429.0</ele><time>2026-03-22T11:08:54.987Z</time></trkpt><trkpt lat="30.57784016043252" lon="-6.888852286804944"><ele>1429.0</ele><time>2026-03-22T11:08:55.987Z</time></trkpt><trkpt lat="30.57775308824002" lon="-6.888940292888913"><ele>1429.0</ele><time>2026-03-22T11:08:56.987Z</time></trkpt><trkpt lat="30.57766631030293" lon="-6.889046947395179"><ele>1426.5</ele><time>2026-03-22T11:08:57.987Z</time></trkpt><trkpt lat="30.577574600351902" lon="-6.889175420045779"><ele>1424.0</ele><time>2026-03-22T11:08:58.987Z</time></trkpt><trkpt lat="30.577498198382738" lon="-6.889332830830496"><ele>1421.5</ele><time>2026-03-22T11:08:59.987Z</time></trkpt><trkpt lat="30.577458934489762" lon="-6.889474920850642"><ele>1419.0</ele><time>2026-03-22T11:09:00.987Z</time></trkpt><trkpt lat="30.57744804529156" lon="-6.889603626211131"><ele>1419.0</ele><time>2026-03-22T11:09:01.987Z</time></trkpt><trkpt lat="30.5774484704958" lon="-6.889760131326369"><ele>1419.0</ele><time>2026-03-22T11:09:02.987Z</time></trkpt><trkpt lat="30.57746569671299" lon="-6.8899523460863135"><ele>1419.0</ele><time>2026-03-22T11:09:03.987Z</time></trkpt><trkpt lat="30.577451629964568" lon="-6.89010324966965"><ele>1419.0</ele><time>2026-03-22T11:09:04.987Z</time></trkpt><trkpt lat="30.577406074111323" lon="-6.890251483386592"><ele>1419.25</ele><time>2026-03-22T11:09:05.987Z</time></trkpt><trkpt lat="30.57737087368614" lon="-6.8904046471885385"><ele>1419.5</ele><time>2026-03-22T11:09:06.987Z</time></trkpt><trkpt lat="30.577322755286215" lon="-6.890564597201557"><ele>1419.75</ele><time>2026-03-22T11:09:07.987Z</time></trkpt><trkpt lat="30.577273545453913" lon="-6.890710199220579"><ele>1420.0</ele><time>2026-03-22T11:09:08.987Z</time></trkpt><trkpt lat="30.577244836220146" lon="-6.890823609331446"><ele>1420.0</ele><time>2026-03-22T11:09:09.987Z</time></trkpt><trkpt lat="30.577204509756125" lon="-6.890917038894392"><ele>1420.0</ele><time>2026-03-22T11:09:10.987Z</time></trkpt><trkpt lat="30.577169699663237" lon="-6.89100377767639"><ele>1420.0</ele><time>2026-03-22T11:09:11.987Z</time></trkpt><trkpt lat="30.577141029366093" lon="-6.891084825257968"><ele>1420.0</ele><time>2026-03-22T11:09:12.987Z</time></trkpt><trkpt lat="30.57707366850206" lon="-6.891193922873494"><ele>1420.0</ele><time>2026-03-22T11:09:14.987Z</time></trkpt><trkpt lat="30.576995240916858" lon="-6.891223860578987"><ele>1420.0</ele><time>2026-03-22T11:09:16.987Z</time></trkpt><trkpt lat="30.576934035261527" lon="-6.891197683394763"><ele>1419.1666666666665</ele><time>2026-03-22T11:09:21.987Z</time></trkpt><trkpt lat="30.57687970106687" lon="-6.89114632291075"><ele>1418.3333333333333</ele><time>2026-03-22T11:09:25.987Z</time></trkpt><trkpt lat="30.57682148133492" lon="-6.891109210398046"><ele>1417.5</ele><time>2026-03-22T11:09:28.987Z</time></trkpt><trkpt lat="30.57676657070908" lon="-6.891154057887571"><ele>1416.6666666666667</ele><time>2026-03-22T11:09:30.987Z</time></trkpt><trkpt lat="30.576712625642077" lon="-6.891241375845614"><ele>1415.8333333333335</ele><time>2026-03-22T11:09:33.987Z</time></trkpt><trkpt lat="30.57666889593256" lon="-6.891346916283087"><ele>1415.0</ele><time>2026-03-22T11:09:35.987Z</time></trkpt><trkpt lat="30.576614772232272" lon="-6.891478883735798"><ele>1415.0</ele><time>2026-03-22T11:09:37.987Z</time></trkpt><trkpt lat="30.576577129331195" lon="-6.891556565819406"><ele>1415.0</ele><time>2026-03-22T11:09:38.987Z</time></trkpt><trkpt lat="30.57652888758527" lon="-6.891634684744063"><ele>1415.0</ele><time>2026-03-22T11:09:39.988Z</time></trkpt><trkpt lat="30.576475960983128" lon="-6.89172104366564"><ele>1415.0</ele><time>2026-03-22T11:09:40.988Z</time></trkpt><trkpt lat="30.57642003030618" lon="-6.891817638118801"><ele>1415.0</ele><time>2026-03-22T11:09:41.988Z</time></trkpt><trkpt lat="30.576364719881052" lon="-6.891895899859053"><ele>1415.0</ele><time>2026-03-22T11:09:42.987Z</time></trkpt><trkpt lat="30.576305230349792" lon="-6.891975713120961"><ele>1415.8</ele><time>2026-03-22T11:09:43.987Z</time></trkpt><trkpt lat="30.576234586795337" lon="-6.892045928673925"><ele>1416.6</ele><time>2026-03-22T11:09:44.987Z</time></trkpt><trkpt lat="30.57616279392765" lon="-6.892108507899449"><ele>1417.4</ele><time>2026-03-22T11:09:45.988Z</time></trkpt><trkpt lat="30.576090478854216" lon="-6.892160763938136"><ele>1418.2</ele><time>2026-03-22T11:09:46.987Z</time></trkpt><trkpt lat="30.576012053600756" lon="-6.892209486046074"><ele>1419.0</ele><time>2026-03-22T11:09:47.987Z</time></trkpt><trkpt lat="30.575928548788927" lon="-6.892260589201358"><ele>1416.5</ele><time>2026-03-22T11:09:48.988Z</time></trkpt><trkpt lat="30.575827189012077" lon="-6.892303421375191"><ele>1414.0</ele><time>2026-03-22T11:09:49.987Z</time></trkpt><trkpt lat="30.575702167123325" lon="-6.892341722733341"><ele>1411.5</ele><time>2026-03-22T11:09:50.987Z</time></trkpt><trkpt lat="30.575557924936085" lon="-6.892351999787981"><ele>1409.0</ele><time>2026-03-22T11:09:51.987Z</time></trkpt><trkpt lat="30.575418529218485" lon="-6.892374064790683"><ele>1409.3333333333335</ele><time>2026-03-22T11:09:52.987Z</time></trkpt><trkpt lat="30.575254068574086" lon="-6.89243097782659"><ele>1409.6666666666667</ele><time>2026-03-22T11:09:53.987Z</time></trkpt><trkpt lat="30.575094419044603" lon="-6.892484220870831"><ele>1410.0</ele><time>2026-03-22T11:09:54.987Z</time></trkpt><trkpt lat="30.574965786397186" lon="-6.892560432186953"><ele>1410.75</ele><time>2026-03-22T11:09:55.987Z</time></trkpt><trkpt lat="30.574869707701104" lon="-6.892618457902878"><ele>1411.5</ele><time>2026-03-22T11:09:56.987Z</time></trkpt><trkpt lat="30.574745792048663" lon="-6.892652805163131"><ele>1412.25</ele><time>2026-03-22T11:09:57.987Z</time></trkpt><trkpt lat="30.57460602245038" lon="-6.892667692719633"><ele>1413.0</ele><time>2026-03-22T11:09:58.987Z</time></trkpt><trkpt lat="30.57444500519518" lon="-6.892662905057916"><ele>1411.5</ele><time>2026-03-22T11:09:59.987Z</time></trkpt><trkpt lat="30.57430333434193" lon="-6.89267043393581"><ele>1410.0</ele><time>2026-03-22T11:10:00.987Z</time></trkpt><trkpt lat="30.574163679173946" lon="-6.892691859656689"><ele>1408.5</ele><time>2026-03-22T11:10:01.987Z</time></trkpt><trkpt lat="30.574013136412653" lon="-6.8927215455618445"><ele>1407.0</ele><time>2026-03-22T11:10:02.987Z</time></trkpt><trkpt lat="30.573887924653874" lon="-6.892765857509424"><ele>1407.0</ele><time>2026-03-22T11:10:03.987Z</time></trkpt><trkpt lat="30.573777243614895" lon="-6.892824975557656"><ele>1407.0</ele><time>2026-03-22T11:10:04.987Z</time></trkpt><trkpt lat="30.57366250791113" lon="-6.892893892176237"><ele>1407.0</ele><time>2026-03-22T11:10:05.987Z</time></trkpt><trkpt lat="30.57353951233822" lon="-6.892982122414078"><ele>1407.0</ele><time>2026-03-22T11:10:06.987Z</time></trkpt><trkpt lat="30.573393314134947" lon="-6.893060212320304"><ele>1406.6666666666667</ele><time>2026-03-22T11:10:07.987Z</time></trkpt><trkpt lat="30.57322649378902" lon="-6.893133213650505"><ele>1406.3333333333335</ele><time>2026-03-22T11:10:08.987Z</time></trkpt><trkpt lat="30.57308598157669" lon="-6.893211399541414"><ele>1406.0</ele><time>2026-03-22T11:10:09.987Z</time></trkpt><trkpt lat="30.572962889650157" lon="-6.893310847080168"><ele>1406.0</ele><time>2026-03-22T11:10:10.987Z</time></trkpt><trkpt lat="30.57286030413743" lon="-6.893387772539957"><ele>1406.0</ele><time>2026-03-22T11:10:11.987Z</time></trkpt><trkpt lat="30.572795063260777" lon="-6.893464894539877"><ele>1406.0</ele><time>2026-03-22T11:10:12.987Z</time></trkpt><trkpt lat="30.572758365151643" lon="-6.893562948822459"><ele>1406.0</ele><time>2026-03-22T11:10:13.987Z</time></trkpt><trkpt lat="30.57271129575207" lon="-6.893664046824221"><ele>1406.0</ele><time>2026-03-22T11:10:14.987Z</time></trkpt><trkpt lat="30.572670170738775" lon="-6.893755575255722"><ele>1405.4</ele><time>2026-03-22T11:10:15.987Z</time></trkpt><trkpt lat="30.572621541903867" lon="-6.893836226597422"><ele>1404.8</ele><time>2026-03-22T11:10:16.987Z</time></trkpt><trkpt lat="30.572579941961344" lon="-6.893922284238882"><ele>1404.2</ele><time>2026-03-22T11:10:17.987Z</time></trkpt><trkpt lat="30.572548263030836" lon="-6.894013987932427"><ele>1403.6000000000001</ele><time>2026-03-22T11:10:18.987Z</time></trkpt><trkpt lat="30.572504443652956" lon="-6.894117665357616"><ele>1403.0</ele><time>2026-03-22T11:10:19.987Z</time></trkpt><trkpt lat="30.572459735741454" lon="-6.894234884319033"><ele>1403.8000000000002</ele><time>2026-03-22T11:10:20.987Z</time></trkpt><trkpt lat="30.572397481028666" lon="-6.894364545020752"><ele>1404.6</ele><time>2026-03-22T11:10:21.987Z</time></trkpt><trkpt lat="30.57233253474534" lon="-6.894479354834943"><ele>1405.4</ele><time>2026-03-22T11:10:22.987Z</time></trkpt><trkpt lat="30.57227665406659" lon="-6.89458052391029"><ele>1406.1999999999998</ele><time>2026-03-22T11:10:23.987Z</time></trkpt><trkpt lat="30.572236289474684" lon="-6.894666892502443"><ele>1407.0</ele><time>2026-03-22T11:10:24.987Z</time></trkpt><trkpt lat="30.57220099773506" lon="-6.894753885447749"><ele>1407.0</ele><time>2026-03-22T11:10:25.987Z</time></trkpt><trkpt lat="30.572179544828646" lon="-6.894846141066038"><ele>1407.0</ele><time>2026-03-22T11:10:26.987Z</time></trkpt><trkpt lat="30.572179943629905" lon="-6.894934732928021"><ele>1407.0</ele><time>2026-03-22T11:10:27.987Z</time></trkpt><trkpt lat="30.5722142199595" lon="-6.895037076934214"><ele>1407.0</ele><time>2026-03-22T11:10:28.987Z</time></trkpt><trkpt lat="30.572266333542437" lon="-6.8951288380108515"><ele>1407.0</ele><time>2026-03-22T11:10:29.987Z</time></trkpt><trkpt lat="30.572309196670282" lon="-6.8952255055631815"><ele>1407.0</ele><time>2026-03-22T11:10:30.987Z</time></trkpt><trkpt lat="30.572338017993086" lon="-6.895318962374782"><ele>1406.8333333333333</ele><time>2026-03-22T11:10:31.987Z</time></trkpt><trkpt lat="30.572370048224073" lon="-6.895415239719464"><ele>1406.6666666666667</ele><time>2026-03-22T11:10:32.987Z</time></trkpt><trkpt lat="30.572407784321815" lon="-6.895509912984011"><ele>1406.5</ele><time>2026-03-22T11:10:33.987Z</time></trkpt><trkpt lat="30.572444558181413" lon="-6.895596434518245"><ele>1406.3333333333335</ele><time>2026-03-22T11:10:34.987Z</time></trkpt><trkpt lat="30.572474725002827" lon="-6.895686885172306"><ele>1406.1666666666667</ele><time>2026-03-22T11:10:35.987Z</time></trkpt><trkpt lat="30.57249628874888" lon="-6.8957751995643015"><ele>1406.0</ele><time>2026-03-22T11:10:36.987Z</time></trkpt><trkpt lat="30.572534467473037" lon="-6.89586062428204"><ele>1405.8</ele><time>2026-03-22T11:10:37.987Z</time></trkpt><trkpt lat="30.57257070440899" lon="-6.895947859180897"><ele>1405.6</ele><time>2026-03-22T11:10:38.987Z</time></trkpt><trkpt lat="30.572599888744314" lon="-6.896045313337604"><ele>1405.4</ele><time>2026-03-22T11:10:39.987Z</time></trkpt><trkpt lat="30.57262515460211" lon="-6.896150855410196"><ele>1405.2</ele><time>2026-03-22T11:10:40.987Z</time></trkpt><trkpt lat="30.57264538014007" lon="-6.896272360592707"><ele>1405.0</ele><time>2026-03-22T11:10:41.987Z</time></trkpt><trkpt lat="30.572663158860337" lon="-6.896410205015568"><ele>1405.0</ele><time>2026-03-22T11:10:42.987Z</time></trkpt><trkpt lat="30.572637785194733" lon="-6.8965283279758784"><ele>1405.0</ele><time>2026-03-22T11:10:43.987Z</time></trkpt><trkpt lat="30.572600409510436" lon="-6.896607163524793"><ele>1405.0</ele><time>2026-03-22T11:10:44.987Z</time></trkpt><trkpt lat="30.572542766845082" lon="-6.89664814435166"><ele>1405.0</ele><time>2026-03-22T11:10:45.987Z</time></trkpt><trkpt lat="30.57245891320154" lon="-6.896630209322268"><ele>1405.0</ele><time>2026-03-22T11:10:46.987Z</time></trkpt><trkpt lat="30.57235220934493" lon="-6.89657740449163"><ele>1405.0</ele><time>2026-03-22T11:10:47.987Z</time></trkpt><trkpt lat="30.57222003853713" lon="-6.896521385729205"><ele>1405.0</ele><time>2026-03-22T11:10:48.987Z</time></trkpt><trkpt lat="30.57208309795092" lon="-6.896437388478271"><ele>1405.0</ele><time>2026-03-22T11:10:49.987Z</time></trkpt><trkpt lat="30.571982778553597" lon="-6.8963561398289075"><ele>1405.0</ele><time>2026-03-22T11:10:50.987Z</time></trkpt><trkpt lat="30.571897575716662" lon="-6.89630903500834"><ele>1405.3333333333333</ele><time>2026-03-22T11:10:51.987Z</time></trkpt><trkpt lat="30.571824375052586" lon="-6.896278752852123"><ele>1405.6666666666665</ele><time>2026-03-22T11:10:52.987Z</time></trkpt><trkpt lat="30.571754664117677" lon="-6.89626429449573"><ele>1406.0</ele><time>2026-03-22T11:10:53.987Z</time></trkpt><trkpt lat="30.57168775721778" lon="-6.896266262850723"><ele>1406.3333333333333</ele><time>2026-03-22T11:10:54.987Z</time></trkpt><trkpt lat="30.571581060290754" lon="-6.89631938775941"><ele>1406.6666666666667</ele><time>2026-03-22T11:10:56.987Z</time></trkpt><trkpt lat="30.571554011103146" lon="-6.896392888237008"><ele>1407.0</ele><time>2026-03-22T11:10:57.987Z</time></trkpt><trkpt lat="30.571547572992063" lon="-6.896500387972172"><ele>1407.0</ele><time>2026-03-22T11:10:58.987Z</time></trkpt><trkpt lat="30.571539951792495" lon="-6.896616522614341"><ele>1407.0</ele><time>2026-03-22T11:10:59.987Z</time></trkpt><trkpt lat="30.571501991948512" lon="-6.8967342897423825"><ele>1407.0</ele><time>2026-03-22T11:11:00.987Z</time></trkpt><trkpt lat="30.571432917412768" lon="-6.896855241684448"><ele>1407.0</ele><time>2026-03-22T11:11:01.987Z</time></trkpt><trkpt lat="30.571363598387027" lon="-6.896974310288649"><ele>1407.8333333333333</ele><time>2026-03-22T11:11:02.987Z</time></trkpt><trkpt lat="30.571301543111943" lon="-6.897056370799743"><ele>1408.6666666666667</ele><time>2026-03-22T11:11:03.987Z</time></trkpt><trkpt lat="30.571260414397905" lon="-6.897135071195668"><ele>1409.5</ele><time>2026-03-22T11:11:04.987Z</time></trkpt><trkpt lat="30.571248012573022" lon="-6.897209307016201"><ele>1410.3333333333335</ele><time>2026-03-22T11:11:05.987Z</time></trkpt><trkpt lat="30.57125731728849" lon="-6.897293889242314"><ele>1411.1666666666667</ele><time>2026-03-22T11:11:06.987Z</time></trkpt><trkpt lat="30.571271823677655" lon="-6.897409613201215"><ele>1412.0</ele><time>2026-03-22T11:11:07.987Z</time></trkpt><trkpt lat="30.571278948074564" lon="-6.897535017686479"><ele>1412.6</ele><time>2026-03-22T11:11:08.987Z</time></trkpt><trkpt lat="30.571287337883245" lon="-6.897648339994923"><ele>1413.1999999999998</ele><time>2026-03-22T11:11:09.987Z</time></trkpt><trkpt lat="30.57128480718829" lon="-6.897754456006072"><ele>1413.8</ele><time>2026-03-22T11:11:10.987Z</time></trkpt><trkpt lat="30.571279348872046" lon="-6.897876375461913"><ele>1414.4</ele><time>2026-03-22T11:11:11.987Z</time></trkpt><trkpt lat="30.57129541010133" lon="-6.897980493149646"><ele>1415.0</ele><time>2026-03-22T11:11:12.987Z</time></trkpt><trkpt lat="30.571332630815053" lon="-6.898085926279648"><ele>1415.0</ele><time>2026-03-22T11:11:13.987Z</time></trkpt><trkpt lat="30.571382767449823" lon="-6.898164189951674"><ele>1415.0</ele><time>2026-03-22T11:11:14.987Z</time></trkpt><trkpt lat="30.571430053474028" lon="-6.898230175988892"><ele>1415.0</ele><time>2026-03-22T11:11:15.987Z</time></trkpt><trkpt lat="30.571475017886524" lon="-6.898296806992549"><ele>1415.0</ele><time>2026-03-22T11:11:16.987Z</time></trkpt><trkpt lat="30.57152505320743" lon="-6.898372255241316"><ele>1415.0</ele><time>2026-03-22T11:11:17.987Z</time></trkpt><trkpt lat="30.571566409736256" lon="-6.898461935998045"><ele>1415.0</ele><time>2026-03-22T11:11:18.987Z</time></trkpt><trkpt lat="30.57161965858662" lon="-6.898552544470837"><ele>1415.75</ele><time>2026-03-22T11:11:19.987Z</time></trkpt><trkpt lat="30.571679668289782" lon="-6.898647309393886"><ele>1416.5</ele><time>2026-03-22T11:11:20.987Z</time></trkpt><trkpt lat="30.57174559932987" lon="-6.898747724856717"><ele>1417.25</ele><time>2026-03-22T11:11:21.987Z</time></trkpt><trkpt lat="30.571798489559818" lon="-6.898884938914829"><ele>1418.0</ele><time>2026-03-22T11:11:22.987Z</time></trkpt><trkpt lat="30.571840020116028" lon="-6.899060938482917"><ele>1420.6666666666667</ele><time>2026-03-22T11:11:23.987Z</time></trkpt><trkpt lat="30.57188716293424" lon="-6.899265026627778"><ele>1423.3333333333333</ele><time>2026-03-22T11:11:24.987Z</time></trkpt><trkpt lat="30.57197382590782" lon="-6.8994555067146575"><ele>1426.0</ele><time>2026-03-22T11:11:25.987Z</time></trkpt><trkpt lat="30.57204021506898" lon="-6.899592554441025"><ele>1426.0</ele><time>2026-03-22T11:11:26.987Z</time></trkpt><trkpt lat="30.572056059444854" lon="-6.899729703270033"><ele>1426.0</ele><time>2026-03-22T11:11:27.987Z</time></trkpt><trkpt lat="30.572010528619735" lon="-6.899875206350216"><ele>1426.0</ele><time>2026-03-22T11:11:28.987Z</time></trkpt><trkpt lat="30.571946835166006" lon="-6.900057789295627"><ele>1426.0</ele><time>2026-03-22T11:11:29.987Z</time></trkpt><trkpt lat="30.5719142554097" lon="-6.900269577900062"><ele>1427.25</ele><time>2026-03-22T11:11:30.987Z</time></trkpt><trkpt lat="30.571893299380065" lon="-6.90046489460516"><ele>1428.5</ele><time>2026-03-22T11:11:31.987Z</time></trkpt><trkpt lat="30.57187134268606" lon="-6.900602498930735"><ele>1429.75</ele><time>2026-03-22T11:11:32.987Z</time></trkpt><trkpt lat="30.57185402692939" lon="-6.900725572194204"><ele>1431.0</ele><time>2026-03-22T11:11:33.987Z</time></trkpt><trkpt lat="30.571845690472436" lon="-6.900846677220677"><ele>1433.25</ele><time>2026-03-22T11:11:34.987Z</time></trkpt><trkpt lat="30.57184156807526" lon="-6.900987596962941"><ele>1435.5</ele><time>2026-03-22T11:11:35.987Z</time></trkpt><trkpt lat="30.571829216953002" lon="-6.901130674766538"><ele>1437.75</ele><time>2026-03-22T11:11:36.987Z</time></trkpt><trkpt lat="30.57181946041976" lon="-6.901274677575898"><ele>1440.0</ele><time>2026-03-22T11:11:37.987Z</time></trkpt><trkpt lat="30.57180405705781" lon="-6.901412385685326"><ele>1440.0</ele><time>2026-03-22T11:11:38.987Z</time></trkpt><trkpt lat="30.571785511689797" lon="-6.901552991113488"><ele>1440.0</ele><time>2026-03-22T11:11:39.987Z</time></trkpt><trkpt lat="30.571766157474222" lon="-6.901684563383035"><ele>1440.0</ele><time>2026-03-22T11:11:40.987Z</time></trkpt><trkpt lat="30.571730347607634" lon="-6.901824942903411"><ele>1440.0</ele><time>2026-03-22T11:11:41.987Z</time></trkpt><trkpt lat="30.571699561912357" lon="-6.901973043801318"><ele>1441.25</ele><time>2026-03-22T11:11:42.988Z</time></trkpt><trkpt lat="30.57168718542029" lon="-6.90210187687523"><ele>1442.5</ele><time>2026-03-22T11:11:43.988Z</time></trkpt><trkpt lat="30.571698605943194" lon="-6.9022337524733715"><ele>1443.75</ele><time>2026-03-22T11:11:44.988Z</time></trkpt><trkpt lat="30.571717379415343" lon="-6.902373213545039"><ele>1445.0</ele><time>2026-03-22T11:11:45.987Z</time></trkpt><trkpt lat="30.571734505383308" lon="-6.90252776434823"><ele>1446.0</ele><time>2026-03-22T11:11:46.987Z</time></trkpt><trkpt lat="30.571744843482715" lon="-6.902710043381745"><ele>1447.0</ele><time>2026-03-22T11:11:47.987Z</time></trkpt><trkpt lat="30.571752896871576" lon="-6.902887491077684"><ele>1448.0</ele><time>2026-03-22T11:11:48.987Z</time></trkpt><trkpt lat="30.57176585630229" lon="-6.903061923653541"><ele>1448.0</ele><time>2026-03-22T11:11:49.988Z</time></trkpt><trkpt lat="30.57176533804986" lon="-6.903206477014512"><ele>1448.0</ele><time>2026-03-22T11:11:50.988Z</time></trkpt><trkpt lat="30.571786590912062" lon="-6.903347450483306"><ele>1448.0</ele><time>2026-03-22T11:11:51.988Z</time></trkpt><trkpt lat="30.571798212119223" lon="-6.903497692373277"><ele>1448.0</ele><time>2026-03-22T11:11:52.987Z</time></trkpt><trkpt lat="30.57181010693577" lon="-6.9036609248524226"><ele>1448.75</ele><time>2026-03-22T11:11:53.987Z</time></trkpt><trkpt lat="30.571815935818663" lon="-6.903824510441645"><ele>1449.5</ele><time>2026-03-22T11:11:54.987Z</time></trkpt><trkpt lat="30.57182105391737" lon="-6.903987513333063"><ele>1450.25</ele><time>2026-03-22T11:11:55.988Z</time></trkpt><trkpt lat="30.571827472212714" lon="-6.904127385263283"><ele>1451.0</ele><time>2026-03-22T11:11:56.988Z</time></trkpt><trkpt lat="30.571842017168436" lon="-6.904252889820972"><ele>1452.0</ele><time>2026-03-22T11:11:57.988Z</time></trkpt><trkpt lat="30.571876526738603" lon="-6.9043732839423155"><ele>1453.0</ele><time>2026-03-22T11:11:58.988Z</time></trkpt><trkpt lat="30.571917642519395" lon="-6.9044813780331085"><ele>1454.0</ele><time>2026-03-22T11:11:59.988Z</time></trkpt><trkpt lat="30.571956310431798" lon="-6.904597185354775"><ele>1455.0</ele><time>2026-03-22T11:12:00.988Z</time></trkpt><trkpt lat="30.571973348967784" lon="-6.904715323038305"><ele>1456.0</ele><time>2026-03-22T11:12:01.988Z</time></trkpt><trkpt lat="30.57196806968114" lon="-6.904850540534511"><ele>1456.0</ele><time>2026-03-22T11:12:02.988Z</time></trkpt><trkpt lat="30.57196236900532" lon="-6.904993870729704"><ele>1456.0</ele><time>2026-03-22T11:12:03.988Z</time></trkpt><trkpt lat="30.571960488867795" lon="-6.905137493530692"><ele>1456.0</ele><time>2026-03-22T11:12:04.988Z</time></trkpt><trkpt lat="30.571937049953295" lon="-6.9052721025185155"><ele>1456.0</ele><time>2026-03-22T11:12:05.988Z</time></trkpt><trkpt lat="30.571876475003478" lon="-6.905411437383608"><ele>1457.0</ele><time>2026-03-22T11:12:06.988Z</time></trkpt><trkpt lat="30.57179833908767" lon="-6.905538526183968"><ele>1458.0</ele><time>2026-03-22T11:12:07.988Z</time></trkpt><trkpt lat="30.571697757992" lon="-6.905652896355003"><ele>1459.0</ele><time>2026-03-22T11:12:08.988Z</time></trkpt><trkpt lat="30.571589967326666" lon="-6.905747495450715"><ele>1460.0</ele><time>2026-03-22T11:12:09.988Z</time></trkpt><trkpt lat="30.571514075585583" lon="-6.90583509803534"><ele>1460.4</ele><time>2026-03-22T11:12:10.988Z</time></trkpt><trkpt lat="30.571464426952808" lon="-6.905937522689263"><ele>1460.8</ele><time>2026-03-22T11:12:11.988Z</time></trkpt><trkpt lat="30.571408529315477" lon="-6.906031248986035"><ele>1461.1999999999998</ele><time>2026-03-22T11:12:12.988Z</time></trkpt><trkpt lat="30.571336806837166" lon="-6.906115041640367"><ele>1461.6</ele><time>2026-03-22T11:12:13.988Z</time></trkpt><trkpt lat="30.571259101924777" lon="-6.906175021220144"><ele>1462.0</ele><time>2026-03-22T11:12:14.988Z</time></trkpt><trkpt lat="30.57116500629685" lon="-6.906216871724272"><ele>1462.3333333333333</ele><time>2026-03-22T11:12:15.988Z</time></trkpt><trkpt lat="30.57106599855689" lon="-6.906270799856702"><ele>1462.6666666666665</ele><time>2026-03-22T11:12:16.988Z</time></trkpt><trkpt lat="30.570988898159065" lon="-6.906305471748708"><ele>1463.0</ele><time>2026-03-22T11:12:17.988Z</time></trkpt><trkpt lat="30.570922700529344" lon="-6.906321154853414"><ele>1463.3333333333333</ele><time>2026-03-22T11:12:18.988Z</time></trkpt><trkpt lat="30.570859353147057" lon="-6.9063211619166776"><ele>1463.6666666666667</ele><time>2026-03-22T11:12:19.988Z</time></trkpt><trkpt lat="30.57078585411852" lon="-6.906317306156028"><ele>1464.0</ele><time>2026-03-22T11:12:20.988Z</time></trkpt><trkpt lat="30.570696303971513" lon="-6.906303343044532"><ele>1464.0</ele><time>2026-03-22T11:12:21.988Z</time></trkpt><trkpt lat="30.570612739630487" lon="-6.906293448016824"><ele>1464.0</ele><time>2026-03-22T11:12:22.988Z</time></trkpt><trkpt lat="30.570536728882903" lon="-6.906287777182774"><ele>1464.0</ele><time>2026-03-22T11:12:23.988Z</time></trkpt><trkpt lat="30.570452142214993" lon="-6.906285561028272"><ele>1464.0</ele><time>2026-03-22T11:12:24.988Z</time></trkpt><trkpt lat="30.57033221643519" lon="-6.906319996942519"><ele>1464.0</ele><time>2026-03-22T11:12:25.988Z</time></trkpt><trkpt lat="30.570199192469712" lon="-6.906397851674613"><ele>1463.0</ele><time>2026-03-22T11:12:26.988Z</time></trkpt><trkpt lat="30.570035550848043" lon="-6.906500484898881"><ele>1462.0</ele><time>2026-03-22T11:12:27.988Z</time></trkpt><trkpt lat="30.569863472729825" lon="-6.906595721246295"><ele>1461.0</ele><time>2026-03-22T11:12:28.988Z</time></trkpt><trkpt lat="30.569687860617872" lon="-6.906662906410208"><ele>1461.0</ele><time>2026-03-22T11:12:29.988Z</time></trkpt><trkpt lat="30.569494693478465" lon="-6.9067326245626015"><ele>1461.0</ele><time>2026-03-22T11:12:30.988Z</time></trkpt><trkpt lat="30.569323204335017" lon="-6.906782189937887"><ele>1461.0</ele><time>2026-03-22T11:12:31.988Z</time></trkpt><trkpt lat="30.56916686741183" lon="-6.906855632204723"><ele>1461.0</ele><time>2026-03-22T11:12:32.988Z</time></trkpt><trkpt lat="30.568975757756448" lon="-6.9069338831231635"><ele>1461.0</ele><time>2026-03-22T11:12:33.988Z</time></trkpt><trkpt lat="30.568774597990412" lon="-6.906980636317049"><ele>1461.0</ele><time>2026-03-22T11:12:34.988Z</time></trkpt><trkpt lat="30.56860580184389" lon="-6.907018414766546"><ele>1461.25</ele><time>2026-03-22T11:12:35.988Z</time></trkpt><trkpt lat="30.568475176455546" lon="-6.907043041615446"><ele>1461.5</ele><time>2026-03-22T11:12:36.988Z</time></trkpt><trkpt lat="30.568343609652985" lon="-6.90706383054422"><ele>1461.75</ele><time>2026-03-22T11:12:37.988Z</time></trkpt><trkpt lat="30.568221071639005" lon="-6.907083021667056"><ele>1462.0</ele><time>2026-03-22T11:12:38.988Z</time></trkpt><trkpt lat="30.568102536161472" lon="-6.907104147096459"><ele>1462.0</ele><time>2026-03-22T11:12:39.988Z</time></trkpt><trkpt lat="30.56799248508797" lon="-6.907133143142122"><ele>1462.0</ele><time>2026-03-22T11:12:40.988Z</time></trkpt><trkpt lat="30.567883506128975" lon="-6.907180653967995"><ele>1462.0</ele><time>2026-03-22T11:12:41.988Z</time></trkpt><trkpt lat="30.56777283144915" lon="-6.90722727676947"><ele>1462.0</ele><time>2026-03-22T11:12:42.988Z</time></trkpt><trkpt lat="30.567657376676284" lon="-6.90727400623622"><ele>1462.8</ele><time>2026-03-22T11:12:43.988Z</time></trkpt><trkpt lat="30.567543318300967" lon="-6.907320005147428"><ele>1463.6</ele><time>2026-03-22T11:12:44.988Z</time></trkpt><trkpt lat="30.567438615725564" lon="-6.90736464541218"><ele>1464.3999999999999</ele><time>2026-03-22T11:12:45.988Z</time></trkpt><trkpt lat="30.567338257281634" lon="-6.90740022378975"><ele>1465.1999999999998</ele><time>2026-03-22T11:12:46.988Z</time></trkpt><trkpt lat="30.56724492106078" lon="-6.907437983155135"><ele>1466.0</ele><time>2026-03-22T11:12:47.988Z</time></trkpt><trkpt lat="30.56716173189216" lon="-6.907455344754725"><ele>1466.0</ele><time>2026-03-22T11:12:48.988Z</time></trkpt><trkpt lat="30.56707653447859" lon="-6.90745072751189"><ele>1466.0</ele><time>2026-03-22T11:12:49.988Z</time></trkpt><trkpt lat="30.566984403719488" lon="-6.907443129843022"><ele>1466.0</ele><time>2026-03-22T11:12:50.988Z</time></trkpt><trkpt lat="30.566876021976615" lon="-6.9074470932110925"><ele>1466.0</ele><time>2026-03-22T11:12:51.988Z</time></trkpt><trkpt lat="30.56676340402882" lon="-6.907456690015521"><ele>1466.0</ele><time>2026-03-22T11:12:52.988Z</time></trkpt><trkpt lat="30.56664842014786" lon="-6.907469708931967"><ele>1466.0</ele><time>2026-03-22T11:12:53.988Z</time></trkpt><trkpt lat="30.566520490583194" lon="-6.907491080966997"><ele>1466.0</ele><time>2026-03-22T11:12:54.988Z</time></trkpt><trkpt lat="30.56640627072501" lon="-6.907506784655854"><ele>1466.0</ele><time>2026-03-22T11:12:55.988Z</time></trkpt><trkpt lat="30.566269668074987" lon="-6.90753139011385"><ele>1466.0</ele><time>2026-03-22T11:12:56.988Z</time></trkpt><trkpt lat="30.566100628819665" lon="-6.907554159221773"><ele>1464.0</ele><time>2026-03-22T11:12:57.988Z</time></trkpt><trkpt lat="30.56593874116221" lon="-6.907591314648385"><ele>1462.0</ele><time>2026-03-22T11:12:58.988Z</time></trkpt><trkpt lat="30.56578205393333" lon="-6.90765111884958"><ele>1460.0</ele><time>2026-03-22T11:12:59.988Z</time></trkpt><trkpt lat="30.565620800222028" lon="-6.90771319048211"><ele>1460.0</ele><time>2026-03-22T11:13:00.988Z</time></trkpt><trkpt lat="30.565470919061923" lon="-6.907743041369485"><ele>1460.0</ele><time>2026-03-22T11:13:01.988Z</time></trkpt><trkpt lat="30.565274358126363" lon="-6.907763952044516"><ele>1460.0</ele><time>2026-03-22T11:13:02.988Z</time></trkpt><trkpt lat="30.565057476194223" lon="-6.90779188869258"><ele>1459.0</ele><time>2026-03-22T11:13:03.988Z</time></trkpt><trkpt lat="30.564844209489085" lon="-6.907826535312815"><ele>1458.0</ele><time>2026-03-22T11:13:04.988Z</time></trkpt><trkpt lat="30.56467197477393" lon="-6.9078649608785225"><ele>1457.0</ele><time>2026-03-22T11:13:05.988Z</time></trkpt><trkpt lat="30.564510865652316" lon="-6.907897563831478"><ele>1456.5</ele><time>2026-03-22T11:13:06.988Z</time></trkpt><trkpt lat="30.564369910924707" lon="-6.907916882093122"><ele>1456.0</ele><time>2026-03-22T11:13:07.988Z</time></trkpt><trkpt lat="30.564239008338976" lon="-6.90793579154116"><ele>1455.5</ele><time>2026-03-22T11:13:08.988Z</time></trkpt><trkpt lat="30.56410402334574" lon="-6.907950155220478"><ele>1455.0</ele><time>2026-03-22T11:13:09.988Z</time></trkpt><trkpt lat="30.563967082143332" lon="-6.9079667378917184"><ele>1455.0</ele><time>2026-03-22T11:13:10.988Z</time></trkpt><trkpt lat="30.563837791524676" lon="-6.907999145504895"><ele>1455.0</ele><time>2026-03-22T11:13:11.988Z</time></trkpt><trkpt lat="30.56370897172809" lon="-6.908029316741875"><ele>1455.0</ele><time>2026-03-22T11:13:12.988Z</time></trkpt><trkpt lat="30.5635851150449" lon="-6.90805962969016"><ele>1455.0</ele><time>2026-03-22T11:13:13.988Z</time></trkpt><trkpt lat="30.563447455272705" lon="-6.908080709269152"><ele>1454.3333333333333</ele><time>2026-03-22T11:13:14.988Z</time></trkpt><trkpt lat="30.56328648825388" lon="-6.908082122481581"><ele>1453.6666666666665</ele><time>2026-03-22T11:13:15.988Z</time></trkpt><trkpt lat="30.56310067766311" lon="-6.9080782877757665"><ele>1453.0</ele><time>2026-03-22T11:13:16.988Z</time></trkpt><trkpt lat="30.562910375644112" lon="-6.908056676016299"><ele>1452.6666666666665</ele><time>2026-03-22T11:13:17.988Z</time></trkpt><trkpt lat="30.562753241122955" lon="-6.908041605754609"><ele>1452.3333333333333</ele><time>2026-03-22T11:13:18.988Z</time></trkpt><trkpt lat="30.562583956597678" lon="-6.908034799293911"><ele>1452.0</ele><time>2026-03-22T11:13:19.988Z</time></trkpt><trkpt lat="30.562394876322266" lon="-6.908046685609003"><ele>1452.0</ele><time>2026-03-22T11:13:20.988Z</time></trkpt><trkpt lat="30.56222235111581" lon="-6.9080637076759155"><ele>1452.0</ele><time>2026-03-22T11:13:21.988Z</time></trkpt><trkpt lat="30.56207157333099" lon="-6.90808615344187"><ele>1452.0</ele><time>2026-03-22T11:13:22.988Z</time></trkpt><trkpt lat="30.561953615391737" lon="-6.908104158017227"><ele>1452.0</ele><time>2026-03-22T11:13:23.988Z</time></trkpt><trkpt lat="30.561859898892695" lon="-6.908121683525094"><ele>1451.8</ele><time>2026-03-22T11:13:24.988Z</time></trkpt><trkpt lat="30.56176233314366" lon="-6.908126423707917"><ele>1451.6</ele><time>2026-03-22T11:13:25.988Z</time></trkpt><trkpt lat="30.56164690772204" lon="-6.9081334461182085"><ele>1451.3999999999999</ele><time>2026-03-22T11:13:26.988Z</time></trkpt><trkpt lat="30.56153515604951" lon="-6.90813974883057"><ele>1451.1999999999998</ele><time>2026-03-22T11:13:27.988Z</time></trkpt><trkpt lat="30.561438722798677" lon="-6.908173250541018"><ele>1451.0</ele><time>2026-03-22T11:13:28.988Z</time></trkpt><trkpt lat="30.56134566929131" lon="-6.908215933071346"><ele>1451.0</ele><time>2026-03-22T11:13:29.988Z</time></trkpt><trkpt lat="30.561255212885595" lon="-6.908263711799658"><ele>1451.0</ele><time>2026-03-22T11:13:30.988Z</time></trkpt><trkpt lat="30.561161503429613" lon="-6.908305068141627"><ele>1451.0</ele><time>2026-03-22T11:13:31.988Z</time></trkpt><trkpt lat="30.561054939293072" lon="-6.908330574268672"><ele>1451.0</ele><time>2026-03-22T11:13:32.988Z</time></trkpt><trkpt lat="30.56094932317232" lon="-6.908343460840414"><ele>1451.0</ele><time>2026-03-22T11:13:33.988Z</time></trkpt><trkpt lat="30.56084696019476" lon="-6.908337729396639"><ele>1450.1999999999998</ele><time>2026-03-22T11:13:34.988Z</time></trkpt><trkpt lat="30.560752188723452" lon="-6.9083134645502975"><ele>1449.3999999999999</ele><time>2026-03-22T11:13:35.988Z</time></trkpt><trkpt lat="30.560664395767372" lon="-6.908268663134471"><ele>1448.6</ele><time>2026-03-22T11:13:36.988Z</time></trkpt><trkpt lat="30.560589695927256" lon="-6.908211207486798"><ele>1447.8</ele><time>2026-03-22T11:13:37.988Z</time></trkpt><trkpt lat="30.560520649189257" lon="-6.908150020990041"><ele>1447.0</ele><time>2026-03-22T11:13:38.988Z</time></trkpt><trkpt lat="30.560476216986125" lon="-6.908070533084699"><ele>1447.0</ele><time>2026-03-22T11:13:39.988Z</time></trkpt><trkpt lat="30.56046981588605" lon="-6.907936955609567"><ele>1447.0</ele><time>2026-03-22T11:13:40.988Z</time></trkpt><trkpt lat="30.560480391336203" lon="-6.907769417596491"><ele>1447.0</ele><time>2026-03-22T11:13:41.988Z</time></trkpt><trkpt lat="30.5604666296849" lon="-6.907567622998557"><ele>1447.0</ele><time>2026-03-22T11:13:42.988Z</time></trkpt><trkpt lat="30.560420615317444" lon="-6.90736350075409"><ele>1447.5</ele><time>2026-03-22T11:13:43.988Z</time></trkpt><trkpt lat="30.560369198159787" lon="-6.907183535307351"><ele>1448.0</ele><time>2026-03-22T11:13:44.988Z</time></trkpt><trkpt lat="30.56033206855863" lon="-6.907060847385346"><ele>1448.5</ele><time>2026-03-22T11:13:45.988Z</time></trkpt><trkpt lat="30.560296195230524" lon="-6.906982151048253"><ele>1449.0</ele><time>2026-03-22T11:13:46.988Z</time></trkpt><trkpt lat="30.56020798365837" lon="-6.906919574320967"><ele>1449.75</ele><time>2026-03-22T11:13:47.988Z</time></trkpt><trkpt lat="30.560116978952628" lon="-6.906817078932162"><ele>1450.5</ele><time>2026-03-22T11:13:48.988Z</time></trkpt><trkpt lat="30.56008127741548" lon="-6.906694237357136"><ele>1451.25</ele><time>2026-03-22T11:13:49.987Z</time></trkpt><trkpt lat="30.560047898684218" lon="-6.90651116334355"><ele>1452.0</ele><time>2026-03-22T11:13:50.987Z</time></trkpt><trkpt lat="30.559981668234496" lon="-6.906336759506309"><ele>1452.0</ele><time>2026-03-22T11:13:51.987Z</time></trkpt><trkpt lat="30.559916441570916" lon="-6.906199047857017"><ele>1452.0</ele><time>2026-03-22T11:13:52.988Z</time></trkpt><trkpt lat="30.55987218000648" lon="-6.906099279733907"><ele>1452.0</ele><time>2026-03-22T11:13:53.988Z</time></trkpt><trkpt lat="30.559877508046256" lon="-6.906022643777372"><ele>1452.0</ele><time>2026-03-22T11:13:54.987Z</time></trkpt><trkpt lat="30.559905021128834" lon="-6.905951078646378"><ele>1452.0</ele><time>2026-03-22T11:13:55.987Z</time></trkpt><trkpt lat="30.55991885903206" lon="-6.905878983440841"><ele>1452.0</ele><time>2026-03-22T11:13:56.987Z</time></trkpt><trkpt lat="30.559894286728298" lon="-6.905751090268694"><ele>1452.1666666666667</ele><time>2026-03-22T11:13:58.987Z</time></trkpt><trkpt lat="30.559867168221682" lon="-6.9056620281082965"><ele>1452.3333333333333</ele><time>2026-03-22T11:14:00.987Z</time></trkpt><trkpt lat="30.559782542673897" lon="-6.905599756248692"><ele>1452.5</ele><time>2026-03-22T11:14:02.987Z</time></trkpt><trkpt lat="30.559656621979613" lon="-6.90560746070374"><ele>1452.6666666666665</ele><time>2026-03-22T11:14:04.987Z</time></trkpt><trkpt lat="30.559595353417425" lon="-6.905628639148584"><ele>1452.8333333333333</ele><time>2026-03-22T11:14:05.987Z</time></trkpt><trkpt lat="30.559532820866128" lon="-6.9056456567539595"><ele>1453.0</ele><time>2026-03-22T11:14:06.987Z</time></trkpt><trkpt lat="30.559467996481306" lon="-6.905660666271966"><ele>1453.1666666666665</ele><time>2026-03-22T11:14:07.987Z</time></trkpt><trkpt lat="30.559377465835578" lon="-6.905713740479035"><ele>1453.3333333333333</ele><time>2026-03-22T11:14:09.987Z</time></trkpt><trkpt lat="30.559285672995536" lon="-6.90578148029358"><ele>1453.5</ele><time>2026-03-22T11:14:11.987Z</time></trkpt><trkpt lat="30.55922455174118" lon="-6.905823767986451"><ele>1453.6666666666667</ele><time>2026-03-22T11:14:12.987Z</time></trkpt><trkpt lat="30.559172594919136" lon="-6.905873208290383"><ele>1453.8333333333335</ele><time>2026-03-22T11:14:13.987Z</time></trkpt><trkpt lat="30.559121773735388" lon="-6.90593037212875"><ele>1454.0</ele><time>2026-03-22T11:14:14.987Z</time></trkpt><trkpt lat="30.559064701432554" lon="-6.905987339167591"><ele>1454.0</ele><time>2026-03-22T11:14:15.987Z</time></trkpt><trkpt lat="30.559014985381822" lon="-6.906040704691002"><ele>1454.0</ele><time>2026-03-22T11:14:16.987Z</time></trkpt><trkpt lat="30.55895851644862" lon="-6.906094674905675"><ele>1454.0</ele><time>2026-03-22T11:14:17.987Z</time></trkpt><trkpt lat="30.558901887683895" lon="-6.906141996995754"><ele>1454.0</ele><time>2026-03-22T11:14:18.987Z</time></trkpt><trkpt lat="30.558846814195338" lon="-6.906186613125177"><ele>1454.0</ele><time>2026-03-22T11:14:19.987Z</time></trkpt><trkpt lat="30.5587970416506" lon="-6.9062361611367065"><ele>1454.0</ele><time>2026-03-22T11:14:20.987Z</time></trkpt><trkpt lat="30.558744518158484" lon="-6.90629646776838"><ele>1454.0</ele><time>2026-03-22T11:14:21.987Z</time></trkpt><trkpt lat="30.558680540092805" lon="-6.906352699519182"><ele>1454.0</ele><time>2026-03-22T11:14:22.987Z</time></trkpt><trkpt lat="30.558605783223747" lon="-6.906400583782651"><ele>1454.0</ele><time>2026-03-22T11:14:23.987Z</time></trkpt><trkpt lat="30.558529143516008" lon="-6.906435352589342"><ele>1454.0</ele><time>2026-03-22T11:14:24.987Z</time></trkpt><trkpt lat="30.558445343889357" lon="-6.906462831419788"><ele>1454.0</ele><time>2026-03-22T11:14:25.987Z</time></trkpt><trkpt lat="30.558374360378057" lon="-6.906485541231978"><ele>1454.0</ele><time>2026-03-22T11:14:26.987Z</time></trkpt><trkpt lat="30.55831496233926" lon="-6.906520039557021"><ele>1454.0</ele><time>2026-03-22T11:14:27.987Z</time></trkpt><trkpt lat="30.55824412880784" lon="-6.906583913139312"><ele>1454.0</ele><time>2026-03-22T11:14:28.987Z</time></trkpt><trkpt lat="30.558175896238865" lon="-6.906635810776104"><ele>1454.0</ele><time>2026-03-22T11:14:29.987Z</time></trkpt><trkpt lat="30.558107088091756" lon="-6.906686088390299"><ele>1454.0</ele><time>2026-03-22T11:14:30.987Z</time></trkpt><trkpt lat="30.55802875696547" lon="-6.906741575329609"><ele>1454.0</ele><time>2026-03-22T11:14:31.987Z</time></trkpt><trkpt lat="30.557943523314993" lon="-6.90680027767145"><ele>1454.0</ele><time>2026-03-22T11:14:32.987Z</time></trkpt><trkpt lat="30.557829294497328" lon="-6.906865675013598"><ele>1456.0</ele><time>2026-03-22T11:14:33.987Z</time></trkpt><trkpt lat="30.557712906234784" lon="-6.906935232410714"><ele>1458.0</ele><time>2026-03-22T11:14:34.987Z</time></trkpt><trkpt lat="30.55758496231205" lon="-6.90702622823569"><ele>1460.0</ele><time>2026-03-22T11:14:35.987Z</time></trkpt><trkpt lat="30.557452564768827" lon="-6.907139820842422"><ele>1462.0</ele><time>2026-03-22T11:14:36.987Z</time></trkpt><trkpt lat="30.55732858272435" lon="-6.907247868381628"><ele>1462.0</ele><time>2026-03-22T11:14:37.987Z</time></trkpt><trkpt lat="30.55718354193303" lon="-6.907319938461223"><ele>1462.0</ele><time>2026-03-22T11:14:38.987Z</time></trkpt><trkpt lat="30.557003777246877" lon="-6.9073947178654045"><ele>1462.0</ele><time>2026-03-22T11:14:39.987Z</time></trkpt><trkpt lat="30.556786793120306" lon="-6.907466907874992"><ele>1462.3333333333333</ele><time>2026-03-22T11:14:40.987Z</time></trkpt><trkpt lat="30.556592179261813" lon="-6.907533815227605"><ele>1462.6666666666667</ele><time>2026-03-22T11:14:41.987Z</time></trkpt><trkpt lat="30.556414238435156" lon="-6.90759616784903"><ele>1463.0</ele><time>2026-03-22T11:14:42.987Z</time></trkpt><trkpt lat="30.556218386853082" lon="-6.90767831118397"><ele>1461.3333333333335</ele><time>2026-03-22T11:14:43.987Z</time></trkpt><trkpt lat="30.55604094093233" lon="-6.907747851172359"><ele>1459.6666666666667</ele><time>2026-03-22T11:14:44.987Z</time></trkpt><trkpt lat="30.5558464753069" lon="-6.907789878868693"><ele>1458.0</ele><time>2026-03-22T11:14:45.987Z</time></trkpt><trkpt lat="30.555652564846355" lon="-6.907847192206511"><ele>1458.0</ele><time>2026-03-22T11:14:46.987Z</time></trkpt><trkpt lat="30.55544493475492" lon="-6.907946329657872"><ele>1458.0</ele><time>2026-03-22T11:14:47.987Z</time></trkpt><trkpt lat="30.555230391678098" lon="-6.908034172032942"><ele>1456.0</ele><time>2026-03-22T11:14:48.987Z</time></trkpt><trkpt lat="30.55504204409763" lon="-6.90811277290545"><ele>1454.0</ele><time>2026-03-22T11:14:49.987Z</time></trkpt><trkpt lat="30.554831656876882" lon="-6.908220527540244"><ele>1452.0</ele><time>2026-03-22T11:14:50.987Z</time></trkpt><trkpt lat="30.554628793648853" lon="-6.9083388912706205"><ele>1452.3333333333333</ele><time>2026-03-22T11:14:51.987Z</time></trkpt><trkpt lat="30.554432567719655" lon="-6.908460863107002"><ele>1452.6666666666665</ele><time>2026-03-22T11:14:52.987Z</time></trkpt><trkpt lat="30.554261381101416" lon="-6.90856125371149"><ele>1453.0</ele><time>2026-03-22T11:14:53.987Z</time></trkpt><trkpt lat="30.55410445442829" lon="-6.908665785084592"><ele>1453.0</ele><time>2026-03-22T11:14:54.987Z</time></trkpt><trkpt lat="30.553914877903345" lon="-6.908783747248587"><ele>1453.0</ele><time>2026-03-22T11:14:55.987Z</time></trkpt><trkpt lat="30.55372940611324" lon="-6.9088810666686715"><ele>1453.0</ele><time>2026-03-22T11:14:56.987Z</time></trkpt><trkpt lat="30.553574565540856" lon="-6.908971407094379"><ele>1451.3333333333333</ele><time>2026-03-22T11:14:57.987Z</time></trkpt><trkpt lat="30.55341342446266" lon="-6.909078316856597"><ele>1449.6666666666667</ele><time>2026-03-22T11:14:58.987Z</time></trkpt><trkpt lat="30.553235150710666" lon="-6.90920346430047"><ele>1448.0</ele><time>2026-03-22T11:14:59.987Z</time></trkpt><trkpt lat="30.553056406093347" lon="-6.909327043427616"><ele>1448.0</ele><time>2026-03-22T11:15:00.987Z</time></trkpt><trkpt lat="30.552876542938538" lon="-6.909427858247558"><ele>1448.0</ele><time>2026-03-22T11:15:01.987Z</time></trkpt><trkpt lat="30.55271728955168" lon="-6.909519491079763"><ele>1448.0</ele><time>2026-03-22T11:15:02.987Z</time></trkpt><trkpt lat="30.55258314002384" lon="-6.909598282202797"><ele>1448.0</ele><time>2026-03-22T11:15:03.987Z</time></trkpt><trkpt lat="30.55247346528784" lon="-6.909670436539262"><ele>1448.0</ele><time>2026-03-22T11:15:04.987Z</time></trkpt><trkpt lat="30.55237324431807" lon="-6.909745986178874"><ele>1448.0</ele><time>2026-03-22T11:15:05.987Z</time></trkpt><trkpt lat="30.5522767675361" lon="-6.909831775665154"><ele>1448.0</ele><time>2026-03-22T11:15:06.987Z</time></trkpt><trkpt lat="30.552196879873204" lon="-6.909917810957519"><ele>1448.0</ele><time>2026-03-22T11:15:07.987Z</time></trkpt><trkpt lat="30.552134929337893" lon="-6.910000042462001"><ele>1448.0</ele><time>2026-03-22T11:15:08.987Z</time></trkpt><trkpt lat="30.552069645223636" lon="-6.9100235856096965"><ele>1448.0</ele><time>2026-03-22T11:15:09.987Z</time></trkpt><trkpt lat="30.552005993692028" lon="-6.909990173896521"><ele>1448.0</ele><time>2026-03-22T11:15:10.987Z</time></trkpt><trkpt lat="30.55195287919793" lon="-6.909907054496648"><ele>1448.0</ele><time>2026-03-22T11:15:11.987Z</time></trkpt><trkpt lat="30.55190670199369" lon="-6.909779288582019"><ele>1448.0</ele><time>2026-03-22T11:15:12.987Z</time></trkpt><trkpt lat="30.551844754802236" lon="-6.909706867305699"><ele>1447.0</ele><time>2026-03-22T11:15:13.987Z</time></trkpt><trkpt lat="30.551773991925124" lon="-6.909717608176421"><ele>1446.0</ele><time>2026-03-22T11:15:14.987Z</time></trkpt><trkpt lat="30.55168044507472" lon="-6.90980056518877"><ele>1445.0</ele><time>2026-03-22T11:15:15.987Z</time></trkpt><trkpt lat="30.55155847067983" lon="-6.909915904858586"><ele>1444.0</ele><time>2026-03-22T11:15:16.987Z</time></trkpt><trkpt lat="30.55143483134221" lon="-6.910053563064173"><ele>1444.75</ele><time>2026-03-22T11:15:17.987Z</time></trkpt><trkpt lat="30.551328471999433" lon="-6.91020503360886"><ele>1445.5</ele><time>2026-03-22T11:15:18.987Z</time></trkpt><trkpt lat="30.551250566640302" lon="-6.910311997793195"><ele>1446.25</ele><time>2026-03-22T11:15:19.987Z</time></trkpt><trkpt lat="30.55118725132023" lon="-6.910383878674862"><ele>1447.0</ele><time>2026-03-22T11:15:20.987Z</time></trkpt><trkpt lat="30.551109467717776" lon="-6.910433113512005"><ele>1445.0</ele><time>2026-03-22T11:15:21.987Z</time></trkpt><trkpt lat="30.551008332029074" lon="-6.91047699952847"><ele>1443.0</ele><time>2026-03-22T11:15:22.987Z</time></trkpt><trkpt lat="30.550902461406107" lon="-6.9105182842519675"><ele>1441.0</ele><time>2026-03-22T11:15:23.987Z</time></trkpt><trkpt lat="30.550823545123453" lon="-6.910561589827755"><ele>1439.0</ele><time>2026-03-22T11:15:24.987Z</time></trkpt><trkpt lat="30.55073284948352" lon="-6.910600427477706"><ele>1437.0</ele><time>2026-03-22T11:15:25.987Z</time></trkpt><trkpt lat="30.55064358003172" lon="-6.910643010896953"><ele>1437.0</ele><time>2026-03-22T11:15:26.987Z</time></trkpt><trkpt lat="30.550550143592943" lon="-6.910699322229373"><ele>1437.0</ele><time>2026-03-22T11:15:27.987Z</time></trkpt><trkpt lat="30.550461825404216" lon="-6.910754445102293"><ele>1437.0</ele><time>2026-03-22T11:15:28.987Z</time></trkpt><trkpt lat="30.55038541480261" lon="-6.910817999800374"><ele>1437.0</ele><time>2026-03-22T11:15:29.987Z</time></trkpt><trkpt lat="30.55031612569677" lon="-6.9108770696918755"><ele>1437.0</ele><time>2026-03-22T11:15:30.987Z</time></trkpt><trkpt lat="30.550219882056357" lon="-6.910907427994921"><ele>1436.8</ele><time>2026-03-22T11:15:31.987Z</time></trkpt><trkpt lat="30.550126500096038" lon="-6.910930680998871"><ele>1436.6</ele><time>2026-03-22T11:15:32.987Z</time></trkpt><trkpt lat="30.550028480563178" lon="-6.910958269754709"><ele>1436.3999999999999</ele><time>2026-03-22T11:15:33.987Z</time></trkpt><trkpt lat="30.54993004233849" lon="-6.9109841162537125"><ele>1436.1999999999998</ele><time>2026-03-22T11:15:34.987Z</time></trkpt><trkpt lat="30.549809479133327" lon="-6.911008208190042"><ele>1436.0</ele><time>2026-03-22T11:15:35.987Z</time></trkpt><trkpt lat="30.549699033861142" lon="-6.91103319456522"><ele>1436.0</ele><time>2026-03-22T11:15:36.987Z</time></trkpt><trkpt lat="30.549611001402152" lon="-6.911066995483877"><ele>1436.0</ele><time>2026-03-22T11:15:37.987Z</time></trkpt><trkpt lat="30.54952609080141" lon="-6.9111422245433385"><ele>1436.0</ele><time>2026-03-22T11:15:38.987Z</time></trkpt><trkpt lat="30.549448403070315" lon="-6.911275175944726"><ele>1436.0</ele><time>2026-03-22T11:15:39.987Z</time></trkpt><trkpt lat="30.54935539228325" lon="-6.9113878771116415"><ele>1433.0</ele><time>2026-03-22T11:15:40.987Z</time></trkpt><trkpt lat="30.549200760185588" lon="-6.911442024449881"><ele>1430.0</ele><time>2026-03-22T11:15:41.987Z</time></trkpt><trkpt lat="30.549015357854206" lon="-6.911454112737756"><ele>1427.0</ele><time>2026-03-22T11:15:42.987Z</time></trkpt><trkpt lat="30.548854616310965" lon="-6.911425268138583"><ele>1426.0</ele><time>2026-03-22T11:15:43.987Z</time></trkpt><trkpt lat="30.54869950875655" lon="-6.911365616288585"><ele>1425.0</ele><time>2026-03-22T11:15:44.987Z</time></trkpt><trkpt lat="30.548536371369632" lon="-6.911308673118617"><ele>1424.0</ele><time>2026-03-22T11:15:45.987Z</time></trkpt><trkpt lat="30.54839119351549" lon="-6.911270272613818"><ele>1424.0</ele><time>2026-03-22T11:15:46.987Z</time></trkpt><trkpt lat="30.54826207344359" lon="-6.911241658847597"><ele>1424.0</ele><time>2026-03-22T11:15:47.987Z</time></trkpt><trkpt lat="30.54812016431977" lon="-6.9112207414545415"><ele>1424.0</ele><time>2026-03-22T11:15:48.987Z</time></trkpt><trkpt lat="30.547988541383678" lon="-6.911198770224709"><ele>1424.0</ele><time>2026-03-22T11:15:49.987Z</time></trkpt><trkpt lat="30.54787792805232" lon="-6.911213358961596"><ele>1424.0</ele><time>2026-03-22T11:15:50.987Z</time></trkpt><trkpt lat="30.54775740282113" lon="-6.911229249455092"><ele>1424.0</ele><time>2026-03-22T11:15:51.987Z</time></trkpt><trkpt lat="30.547627464632072" lon="-6.911201638969577"><ele>1424.0</ele><time>2026-03-22T11:15:52.987Z</time></trkpt><trkpt lat="30.547511290361737" lon="-6.911169644853915"><ele>1424.0</ele><time>2026-03-22T11:15:53.987Z</time></trkpt><trkpt lat="30.54741167770759" lon="-6.911154440458324"><ele>1424.0</ele><time>2026-03-22T11:15:54.987Z</time></trkpt><trkpt lat="30.54731128494901" lon="-6.911156371689829"><ele>1424.0</ele><time>2026-03-22T11:15:55.987Z</time></trkpt><trkpt lat="30.547204299056922" lon="-6.911133324791784"><ele>1424.0</ele><time>2026-03-22T11:15:56.987Z</time></trkpt><trkpt lat="30.54710376879687" lon="-6.911093573881298"><ele>1424.0</ele><time>2026-03-22T11:15:57.987Z</time></trkpt><trkpt lat="30.547008154765354" lon="-6.911047467056661"><ele>1424.0</ele><time>2026-03-22T11:15:58.987Z</time></trkpt><trkpt lat="30.546931550422368" lon="-6.910995300364161"><ele>1423.8000000000002</ele><time>2026-03-22T11:15:59.987Z</time></trkpt><trkpt lat="30.54684527039155" lon="-6.910926766808782"><ele>1423.6000000000001</ele><time>2026-03-22T11:16:00.987Z</time></trkpt><trkpt lat="30.546762079283152" lon="-6.910842271186771"><ele>1423.4</ele><time>2026-03-22T11:16:01.987Z</time></trkpt><trkpt lat="30.546677671142316" lon="-6.9107666131467855"><ele>1423.2</ele><time>2026-03-22T11:16:02.987Z</time></trkpt><trkpt lat="30.546586764704827" lon="-6.910697212701068"><ele>1423.0</ele><time>2026-03-22T11:16:03.988Z</time></trkpt><trkpt lat="30.546492527873642" lon="-6.9106409789459216"><ele>1423.0</ele><time>2026-03-22T11:16:04.987Z</time></trkpt><trkpt lat="30.546385372154198" lon="-6.910611632998736"><ele>1423.0</ele><time>2026-03-22T11:16:05.987Z</time></trkpt><trkpt lat="30.546266881630626" lon="-6.910588666257761"><ele>1423.0</ele><time>2026-03-22T11:16:06.987Z</time></trkpt><trkpt lat="30.546142073161707" lon="-6.910555108707222"><ele>1423.0</ele><time>2026-03-22T11:16:07.987Z</time></trkpt><trkpt lat="30.54601774502776" lon="-6.910510924011188"><ele>1421.5</ele><time>2026-03-22T11:16:08.987Z</time></trkpt><trkpt lat="30.545908218656855" lon="-6.910467851997175"><ele>1420.0</ele><time>2026-03-22T11:16:09.987Z</time></trkpt><trkpt lat="30.54579627777003" lon="-6.910431638766616"><ele>1418.5</ele><time>2026-03-22T11:16:10.987Z</time></trkpt><trkpt lat="30.545682642478884" lon="-6.910395598680305"><ele>1417.0</ele><time>2026-03-22T11:16:11.987Z</time></trkpt><trkpt lat="30.54557026789299" lon="-6.910357945237217"><ele>1417.0</ele><time>2026-03-22T11:16:12.987Z</time></trkpt><trkpt lat="30.545468136263565" lon="-6.910315492923984"><ele>1417.0</ele><time>2026-03-22T11:16:13.987Z</time></trkpt><trkpt lat="30.54538945614287" lon="-6.910262879104273"><ele>1417.0</ele><time>2026-03-22T11:16:14.987Z</time></trkpt><trkpt lat="30.545309179153026" lon="-6.910213387067062"><ele>1417.0</ele><time>2026-03-22T11:16:15.987Z</time></trkpt><trkpt lat="30.54522588557504" lon="-6.910156937296096"><ele>1417.0</ele><time>2026-03-22T11:16:16.987Z</time></trkpt><trkpt lat="30.54513058564657" lon="-6.910096367421358"><ele>1417.25</ele><time>2026-03-22T11:16:17.987Z</time></trkpt><trkpt lat="30.545032012057256" lon="-6.910021764406642"><ele>1417.5</ele><time>2026-03-22T11:16:18.987Z</time></trkpt><trkpt lat="30.544927289500016" lon="-6.909940905530353"><ele>1417.75</ele><time>2026-03-22T11:16:19.987Z</time></trkpt><trkpt lat="30.544815446555184" lon="-6.909847076573666"><ele>1418.0</ele><time>2026-03-22T11:16:20.987Z</time></trkpt><trkpt lat="30.544698298268237" lon="-6.909778938946905"><ele>1418.0</ele><time>2026-03-22T11:16:21.987Z</time></trkpt><trkpt lat="30.54458815072445" lon="-6.909751551250753"><ele>1418.0</ele><time>2026-03-22T11:16:22.987Z</time></trkpt><trkpt lat="30.54449884453126" lon="-6.909706810917191"><ele>1418.0</ele><time>2026-03-22T11:16:23.987Z</time></trkpt><trkpt lat="30.54441925188917" lon="-6.909629094962495"><ele>1418.0</ele><time>2026-03-22T11:16:24.987Z</time></trkpt><trkpt lat="30.54432702146849" lon="-6.909533201462953"><ele>1418.0</ele><time>2026-03-22T11:16:25.987Z</time></trkpt><trkpt lat="30.544215502574747" lon="-6.909411230328845"><ele>1416.0</ele><time>2026-03-22T11:16:26.987Z</time></trkpt><trkpt lat="30.54411123946765" lon="-6.90928923467112"><ele>1414.0</ele><time>2026-03-22T11:16:27.987Z</time></trkpt><trkpt lat="30.544004769594384" lon="-6.909159227644414"><ele>1412.0</ele><time>2026-03-22T11:16:28.987Z</time></trkpt><trkpt lat="30.54390107443226" lon="-6.909020316797169"><ele>1412.0</ele><time>2026-03-22T11:16:29.987Z</time></trkpt><trkpt lat="30.54379924225569" lon="-6.908885172388914"><ele>1412.0</ele><time>2026-03-22T11:16:30.987Z</time></trkpt><trkpt lat="30.543702015997397" lon="-6.908756758638645"><ele>1412.0</ele><time>2026-03-22T11:16:31.987Z</time></trkpt><trkpt lat="30.54359569944351" lon="-6.9086228080262035"><ele>1410.6666666666667</ele><time>2026-03-22T11:16:32.987Z</time></trkpt><trkpt lat="30.54350679009802" lon="-6.908417980567815"><ele>1409.3333333333333</ele><time>2026-03-22T11:16:33.987Z</time></trkpt><trkpt lat="30.543440725813934" lon="-6.908238438180072"><ele>1408.0</ele><time>2026-03-22T11:16:34.987Z</time></trkpt><trkpt lat="30.54337003116062" lon="-6.9080457316702315"><ele>1407.3333333333333</ele><time>2026-03-22T11:16:35.987Z</time></trkpt><trkpt lat="30.54326355238529" lon="-6.9078654897295015"><ele>1406.6666666666667</ele><time>2026-03-22T11:16:36.987Z</time></trkpt><trkpt lat="30.54315552074775" lon="-6.907665225897412"><ele>1406.0</ele><time>2026-03-22T11:16:37.987Z</time></trkpt><trkpt lat="30.543055477997754" lon="-6.907480239096709"><ele>1405.6666666666667</ele><time>2026-03-22T11:16:38.987Z</time></trkpt><trkpt lat="30.542961451401148" lon="-6.9073064291241515"><ele>1405.3333333333333</ele><time>2026-03-22T11:16:39.987Z</time></trkpt><trkpt lat="30.542874065597946" lon="-6.907145584020216"><ele>1405.0</ele><time>2026-03-22T11:16:40.987Z</time></trkpt><trkpt lat="30.54277988359655" lon="-6.906970207915041"><ele>1404.6666666666665</ele><time>2026-03-22T11:16:41.987Z</time></trkpt><trkpt lat="30.54269632678846" lon="-6.906815166709205"><ele>1404.3333333333333</ele><time>2026-03-22T11:16:42.987Z</time></trkpt><trkpt lat="30.542612944181133" lon="-6.9066508899775965"><ele>1404.0</ele><time>2026-03-22T11:16:43.987Z</time></trkpt><trkpt lat="30.54252436224863" lon="-6.90647202194609"><ele>1404.0</ele><time>2026-03-22T11:16:44.987Z</time></trkpt><trkpt lat="30.54242065039136" lon="-6.9062619487374155"><ele>1404.0</ele><time>2026-03-22T11:16:45.987Z</time></trkpt><trkpt lat="30.54232684601257" lon="-6.906051750657032"><ele>1404.0</ele><time>2026-03-22T11:16:46.987Z</time></trkpt><trkpt lat="30.54231527478295" lon="-6.905834047535327"><ele>1404.0</ele><time>2026-03-22T11:16:47.987Z</time></trkpt><trkpt lat="30.542260911149068" lon="-6.90564975109781"><ele>1404.0</ele><time>2026-03-22T11:16:48.987Z</time></trkpt><trkpt lat="30.542209992595016" lon="-6.905498582894292"><ele>1404.0</ele><time>2026-03-22T11:16:49.987Z</time></trkpt><trkpt lat="30.5421549221196" lon="-6.905362482124042"><ele>1404.0</ele><time>2026-03-22T11:16:50.987Z</time></trkpt><trkpt lat="30.54209892567316" lon="-6.905227942155941"><ele>1404.0</ele><time>2026-03-22T11:16:51.987Z</time></trkpt><trkpt lat="30.542049323972336" lon="-6.905086324813702"><ele>1404.0</ele><time>2026-03-22T11:16:52.987Z</time></trkpt><trkpt lat="30.542005079533602" lon="-6.904900264928568"><ele>1404.0</ele><time>2026-03-22T11:16:53.987Z</time></trkpt><trkpt lat="30.54193339336041" lon="-6.904723002186284"><ele>1402.0</ele><time>2026-03-22T11:16:54.987Z</time></trkpt><trkpt lat="30.541864268185375" lon="-6.904566527403004"><ele>1400.0</ele><time>2026-03-22T11:16:55.987Z</time></trkpt><trkpt lat="30.541793361528903" lon="-6.904405903490052"><ele>1398.0</ele><time>2026-03-22T11:16:56.987Z</time></trkpt><trkpt lat="30.541708855351327" lon="-6.904248001791493"><ele>1398.6666666666667</ele><time>2026-03-22T11:16:57.987Z</time></trkpt><trkpt lat="30.541606527066687" lon="-6.904095665600343"><ele>1399.3333333333335</ele><time>2026-03-22T11:16:58.987Z</time></trkpt><trkpt lat="30.541487399942426" lon="-6.903937172545978"><ele>1400.0</ele><time>2026-03-22T11:16:59.987Z</time></trkpt><trkpt lat="30.541376497226675" lon="-6.90379845016095"><ele>1400.0</ele><time>2026-03-22T11:17:00.987Z</time></trkpt><trkpt lat="30.541271164449324" lon="-6.90367305977451"><ele>1400.0</ele><time>2026-03-22T11:17:01.987Z</time></trkpt><trkpt lat="30.541160424954793" lon="-6.903546168424952"><ele>1400.0</ele><time>2026-03-22T11:17:02.987Z</time></trkpt><trkpt lat="30.541048529351393" lon="-6.903418432555833"><ele>1398.0</ele><time>2026-03-22T11:17:03.987Z</time></trkpt><trkpt lat="30.54094512912115" lon="-6.903298020634241"><ele>1396.0</ele><time>2026-03-22T11:17:04.987Z</time></trkpt><trkpt lat="30.540854972331445" lon="-6.90317573285258"><ele>1394.0</ele><time>2026-03-22T11:17:05.987Z</time></trkpt><trkpt lat="30.54075284387257" lon="-6.90300720495751"><ele>1394.0</ele><time>2026-03-22T11:17:06.987Z</time></trkpt><trkpt lat="30.540623665299986" lon="-6.902829560848188"><ele>1394.0</ele><time>2026-03-22T11:17:07.987Z</time></trkpt><trkpt lat="30.54048555696044" lon="-6.902681044320477"><ele>1394.0</ele><time>2026-03-22T11:17:08.987Z</time></trkpt><trkpt lat="30.540388152653048" lon="-6.902586166030932"><ele>1393.8000000000002</ele><time>2026-03-22T11:17:09.987Z</time></trkpt><trkpt lat="30.540328925518388" lon="-6.902507690995334"><ele>1393.6000000000001</ele><time>2026-03-22T11:17:10.987Z</time></trkpt><trkpt lat="30.540316376343856" lon="-6.902408574228568"><ele>1393.4</ele><time>2026-03-22T11:17:11.987Z</time></trkpt><trkpt lat="30.540341592489014" lon="-6.902292010015073"><ele>1393.2</ele><time>2026-03-22T11:17:12.987Z</time></trkpt><trkpt lat="30.540371469313598" lon="-6.902125279315408"><ele>1393.0</ele><time>2026-03-22T11:17:13.987Z</time></trkpt><trkpt lat="30.540380187523517" lon="-6.901944487502784"><ele>1393.0</ele><time>2026-03-22T11:17:14.987Z</time></trkpt><trkpt lat="30.540344205359325" lon="-6.901835567648056"><ele>1393.0</ele><time>2026-03-22T11:17:15.987Z</time></trkpt><trkpt lat="30.540259486079485" lon="-6.9017688525926335"><ele>1393.0</ele><time>2026-03-22T11:17:16.987Z</time></trkpt><trkpt lat="30.54019658070208" lon="-6.90162149146124"><ele>1393.0</ele><time>2026-03-22T11:17:17.987Z</time></trkpt><trkpt lat="30.540139943871083" lon="-6.901426554196839"><ele>1392.0</ele><time>2026-03-22T11:17:18.987Z</time></trkpt><trkpt lat="30.54005602897391" lon="-6.901229029420214"><ele>1391.0</ele><time>2026-03-22T11:17:19.987Z</time></trkpt><trkpt lat="30.53999185229249" lon="-6.901052015715685"><ele>1390.0</ele><time>2026-03-22T11:17:20.987Z</time></trkpt><trkpt lat="30.539943447471206" lon="-6.900894890654662"><ele>1390.0</ele><time>2026-03-22T11:17:21.987Z</time></trkpt><trkpt lat="30.539898453448014" lon="-6.900753364992811"><ele>1390.0</ele><time>2026-03-22T11:17:22.987Z</time></trkpt><trkpt lat="30.539944268348243" lon="-6.900585693732988"><ele>1390.0</ele><time>2026-03-22T11:17:23.987Z</time></trkpt><trkpt lat="30.539908430029506" lon="-6.900452271348083"><ele>1390.0</ele><time>2026-03-22T11:17:24.987Z</time></trkpt><trkpt lat="30.539867700211687" lon="-6.900322984140147"><ele>1390.0</ele><time>2026-03-22T11:17:25.987Z</time></trkpt><trkpt lat="30.539861228057273" lon="-6.900190010848366"><ele>1390.0</ele><time>2026-03-22T11:17:26.987Z</time></trkpt><trkpt lat="30.539888797369247" lon="-6.9000643346325905"><ele>1390.0</ele><time>2026-03-22T11:17:27.987Z</time></trkpt><trkpt lat="30.539901385954444" lon="-6.899934176423744"><ele>1390.0</ele><time>2026-03-22T11:17:28.987Z</time></trkpt><trkpt lat="30.539890185841603" lon="-6.899804090200688"><ele>1390.6</ele><time>2026-03-22T11:17:29.987Z</time></trkpt><trkpt lat="30.539860072455173" lon="-6.899689350183038"><ele>1391.2</ele><time>2026-03-22T11:17:30.987Z</time></trkpt><trkpt lat="30.539835319853662" lon="-6.899586059870863"><ele>1391.8000000000002</ele><time>2026-03-22T11:17:31.987Z</time></trkpt><trkpt lat="30.539815407366255" lon="-6.899469711481254"><ele>1392.4</ele><time>2026-03-22T11:17:32.987Z</time></trkpt><trkpt lat="30.539794439583403" lon="-6.899335609665507"><ele>1393.0</ele><time>2026-03-22T11:17:33.987Z</time></trkpt><trkpt lat="30.539769199584708" lon="-6.899196936402936"><ele>1393.75</ele><time>2026-03-22T11:17:34.987Z</time></trkpt><trkpt lat="30.539737862818445" lon="-6.89905462284219"><ele>1394.5</ele><time>2026-03-22T11:17:35.987Z</time></trkpt><trkpt lat="30.539695332909197" lon="-6.898923602620646"><ele>1395.25</ele><time>2026-03-22T11:17:36.987Z</time></trkpt><trkpt lat="30.539645714789263" lon="-6.898810492618767"><ele>1396.0</ele><time>2026-03-22T11:17:37.987Z</time></trkpt><trkpt lat="30.53961339829193" lon="-6.8987040945011575"><ele>1396.0</ele><time>2026-03-22T11:17:38.987Z</time></trkpt><trkpt lat="30.53960663671386" lon="-6.898590199366786"><ele>1396.0</ele><time>2026-03-22T11:17:39.987Z</time></trkpt><trkpt lat="30.539606232074284" lon="-6.898451323523788"><ele>1396.0</ele><time>2026-03-22T11:17:40.987Z</time></trkpt><trkpt lat="30.539603443629808" lon="-6.898320688708737"><ele>1396.0</ele><time>2026-03-22T11:17:41.987Z</time></trkpt><trkpt lat="30.539580119658073" lon="-6.898200912678608"><ele>1396.0</ele><time>2026-03-22T11:17:42.987Z</time></trkpt><trkpt lat="30.53955328826868" lon="-6.898086498000487"><ele>1396.0</ele><time>2026-03-22T11:17:43.987Z</time></trkpt><trkpt lat="30.539539323865462" lon="-6.897986617416312"><ele>1396.0</ele><time>2026-03-22T11:17:44.987Z</time></trkpt><trkpt lat="30.539526016406306" lon="-6.897881243461193"><ele>1396.0</ele><time>2026-03-22T11:17:45.987Z</time></trkpt><trkpt lat="30.539517543804077" lon="-6.897769325311728"><ele>1396.0</ele><time>2026-03-22T11:17:46.987Z</time></trkpt><trkpt lat="30.539501707013528" lon="-6.897658797212118"><ele>1396.0</ele><time>2026-03-22T11:17:47.987Z</time></trkpt><trkpt lat="30.539465689957858" lon="-6.897552796121039"><ele>1396.0</ele><time>2026-03-22T11:17:48.987Z</time></trkpt><trkpt lat="30.539410417590595" lon="-6.897453190422602"><ele>1396.0</ele><time>2026-03-22T11:17:49.987Z</time></trkpt><trkpt lat="30.53934234157788" lon="-6.89736155710727"><ele>1396.0</ele><time>2026-03-22T11:17:50.987Z</time></trkpt><trkpt lat="30.53927774520491" lon="-6.897275130926252"><ele>1396.0</ele><time>2026-03-22T11:17:51.987Z</time></trkpt><trkpt lat="30.539216359425108" lon="-6.8971859898719385"><ele>1396.0</ele><time>2026-03-22T11:17:52.987Z</time></trkpt><trkpt lat="30.539144465038305" lon="-6.897103613033854"><ele>1396.0</ele><time>2026-03-22T11:17:53.987Z</time></trkpt><trkpt lat="30.539083055070588" lon="-6.897013289594693"><ele>1396.0</ele><time>2026-03-22T11:17:54.987Z</time></trkpt><trkpt lat="30.539023521417203" lon="-6.896915035225458"><ele>1396.0</ele><time>2026-03-22T11:17:55.987Z</time></trkpt><trkpt lat="30.538958110088817" lon="-6.896817851281681"><ele>1396.0</ele><time>2026-03-22T11:17:56.987Z</time></trkpt><trkpt lat="30.53889845842434" lon="-6.896707481675631"><ele>1396.0</ele><time>2026-03-22T11:17:57.987Z</time></trkpt><trkpt lat="30.538844926141074" lon="-6.896571519125235"><ele>1396.75</ele><time>2026-03-22T11:17:58.987Z</time></trkpt><trkpt lat="30.53879989476876" lon="-6.896400479749261"><ele>1397.5</ele><time>2026-03-22T11:17:59.987Z</time></trkpt><trkpt lat="30.538750646924328" lon="-6.896230751959527"><ele>1398.25</ele><time>2026-03-22T11:18:00.987Z</time></trkpt><trkpt lat="30.538719419168356" lon="-6.896087884525399"><ele>1399.0</ele><time>2026-03-22T11:18:01.987Z</time></trkpt><trkpt lat="30.538669795380024" lon="-6.895970694023046"><ele>1397.0</ele><time>2026-03-22T11:18:02.987Z</time></trkpt><trkpt lat="30.538585579858438" lon="-6.895851507988459"><ele>1395.0</ele><time>2026-03-22T11:18:03.987Z</time></trkpt><trkpt lat="30.538513248066547" lon="-6.895746897325254"><ele>1393.0</ele><time>2026-03-22T11:18:04.987Z</time></trkpt><trkpt lat="30.538451135471043" lon="-6.895644148630971"><ele>1391.0</ele><time>2026-03-22T11:18:05.987Z</time></trkpt><trkpt lat="30.538421590603605" lon="-6.895536132563193"><ele>1391.0</ele><time>2026-03-22T11:18:06.987Z</time></trkpt><trkpt lat="30.538409583053504" lon="-6.89542735723255"><ele>1391.0</ele><time>2026-03-22T11:18:07.987Z</time></trkpt><trkpt lat="30.53840283606043" lon="-6.895326307340311"><ele>1391.0</ele><time>2026-03-22T11:18:08.987Z</time></trkpt><trkpt lat="30.538391473456276" lon="-6.895220155779706"><ele>1391.0</ele><time>2026-03-22T11:18:09.987Z</time></trkpt><trkpt lat="30.538389490624905" lon="-6.895091997731487"><ele>1391.0</ele><time>2026-03-22T11:18:10.986Z</time></trkpt><trkpt lat="30.53839100513479" lon="-6.8949544641643215"><ele>1391.6</ele><time>2026-03-22T11:18:11.986Z</time></trkpt><trkpt lat="30.53839566745102" lon="-6.89482551540596"><ele>1392.1999999999998</ele><time>2026-03-22T11:18:12.987Z</time></trkpt><trkpt lat="30.53839060891172" lon="-6.894705453758313"><ele>1392.8000000000002</ele><time>2026-03-22T11:18:13.986Z</time></trkpt><trkpt lat="30.53836947848006" lon="-6.894599178269488"><ele>1393.4</ele><time>2026-03-22T11:18:14.986Z</time></trkpt><trkpt lat="30.538334256747923" lon="-6.894504890561584"><ele>1394.0</ele><time>2026-03-22T11:18:15.986Z</time></trkpt><trkpt lat="30.53830986497592" lon="-6.894391275960506"><ele>1394.0</ele><time>2026-03-22T11:18:16.986Z</time></trkpt><trkpt lat="30.53828265337251" lon="-6.894271572012069"><ele>1394.0</ele><time>2026-03-22T11:18:17.986Z</time></trkpt><trkpt lat="30.538248926096344" lon="-6.894147404643406"><ele>1394.0</ele><time>2026-03-22T11:18:18.986Z</time></trkpt><trkpt lat="30.538204455486127" lon="-6.894048503946269"><ele>1394.0</ele><time>2026-03-22T11:18:19.986Z</time></trkpt><trkpt lat="30.538136980039297" lon="-6.893965514162514"><ele>1394.0</ele><time>2026-03-22T11:18:20.986Z</time></trkpt><trkpt lat="30.538054947290853" lon="-6.89386750265451"><ele>1394.0</ele><time>2026-03-22T11:18:21.986Z</time></trkpt><trkpt lat="30.53797461058187" lon="-6.893774611541921"><ele>1394.0</ele><time>2026-03-22T11:18:22.986Z</time></trkpt><trkpt lat="30.537895298608756" lon="-6.893681061886589"><ele>1394.0</ele><time>2026-03-22T11:18:23.986Z</time></trkpt><trkpt lat="30.53781602173448" lon="-6.893581048896315"><ele>1394.0</ele><time>2026-03-22T11:18:24.986Z</time></trkpt><trkpt lat="30.537738417735092" lon="-6.893490263214728"><ele>1394.4</ele><time>2026-03-22T11:18:25.986Z</time></trkpt><trkpt lat="30.537654577587816" lon="-6.893424863155233"><ele>1394.8000000000002</ele><time>2026-03-22T11:18:26.986Z</time></trkpt><trkpt lat="30.53756599856559" lon="-6.893374092734438"><ele>1395.1999999999998</ele><time>2026-03-22T11:18:27.986Z</time></trkpt><trkpt lat="30.537484307643812" lon="-6.893326755567732"><ele>1395.6</ele><time>2026-03-22T11:18:28.986Z</time></trkpt><trkpt lat="30.537410868463652" lon="-6.893271122396047"><ele>1396.0</ele><time>2026-03-22T11:18:29.986Z</time></trkpt><trkpt lat="30.53733526375128" lon="-6.893206505828135"><ele>1396.0</ele><time>2026-03-22T11:18:30.986Z</time></trkpt><trkpt lat="30.53727005922569" lon="-6.893137536540711"><ele>1396.0</ele><time>2026-03-22T11:18:31.986Z</time></trkpt><trkpt lat="30.537204074177687" lon="-6.893065629521473"><ele>1396.0</ele><time>2026-03-22T11:18:32.986Z</time></trkpt><trkpt lat="30.537139995702294" lon="-6.892987279894308"><ele>1396.0</ele><time>2026-03-22T11:18:33.986Z</time></trkpt><trkpt lat="30.537085270745184" lon="-6.892889091195768"><ele>1396.0</ele><time>2026-03-22T11:18:34.986Z</time></trkpt><trkpt lat="30.53703009834475" lon="-6.892791773697339"><ele>1394.8</ele><time>2026-03-22T11:18:35.986Z</time></trkpt><trkpt lat="30.536974135629954" lon="-6.892693039424308"><ele>1393.6</ele><time>2026-03-22T11:18:36.986Z</time></trkpt><trkpt lat="30.536923047740228" lon="-6.892594848804552"><ele>1392.4</ele><time>2026-03-22T11:18:37.986Z</time></trkpt><trkpt lat="30.5368771717036" lon="-6.892484539396014"><ele>1391.2</ele><time>2026-03-22T11:18:38.986Z</time></trkpt><trkpt lat="30.5368423757582" lon="-6.892379499380387"><ele>1390.0</ele><time>2026-03-22T11:18:39.986Z</time></trkpt><trkpt lat="30.53681721114515" lon="-6.892269978341198"><ele>1389.6</ele><time>2026-03-22T11:18:40.986Z</time></trkpt><trkpt lat="30.53682270734286" lon="-6.8921615799764915"><ele>1389.2</ele><time>2026-03-22T11:18:41.986Z</time></trkpt><trkpt lat="30.53684671706449" lon="-6.892053609603726"><ele>1388.8000000000002</ele><time>2026-03-22T11:18:42.986Z</time></trkpt><trkpt lat="30.536857772861637" lon="-6.891930327744281"><ele>1388.4</ele><time>2026-03-22T11:18:43.986Z</time></trkpt><trkpt lat="30.536921073570593" lon="-6.891792112115888"><ele>1388.0</ele><time>2026-03-22T11:18:44.986Z</time></trkpt><trkpt lat="30.53700674837367" lon="-6.891622489150351"><ele>1389.0</ele><time>2026-03-22T11:18:45.986Z</time></trkpt><trkpt lat="30.537088213473005" lon="-6.8914609686134645"><ele>1390.0</ele><time>2026-03-22T11:18:46.986Z</time></trkpt><trkpt lat="30.537106927468777" lon="-6.891290441695421"><ele>1391.0</ele><time>2026-03-22T11:18:47.986Z</time></trkpt><trkpt lat="30.537148796054993" lon="-6.89109760067674"><ele>1387.6666666666667</ele><time>2026-03-22T11:18:48.986Z</time></trkpt><trkpt lat="30.537205599542016" lon="-6.890896966592969"><ele>1384.3333333333333</ele><time>2026-03-22T11:18:49.986Z</time></trkpt><trkpt lat="30.537314848405746" lon="-6.890768220831766"><ele>1381.0</ele><time>2026-03-22T11:18:50.986Z</time></trkpt><trkpt lat="30.537351872152303" lon="-6.890627035061627"><ele>1381.0</ele><time>2026-03-22T11:18:51.986Z</time></trkpt><trkpt lat="30.53740742898119" lon="-6.890493258903826"><ele>1381.0</ele><time>2026-03-22T11:18:52.986Z</time></trkpt><trkpt lat="30.537494306377887" lon="-6.890344854082219"><ele>1381.0</ele><time>2026-03-22T11:18:53.986Z</time></trkpt><trkpt lat="30.537582115608256" lon="-6.8901797336041275"><ele>1380.0</ele><time>2026-03-22T11:18:54.986Z</time></trkpt><trkpt lat="30.537645035896006" lon="-6.890038285159902"><ele>1379.0</ele><time>2026-03-22T11:18:55.986Z</time></trkpt><trkpt lat="30.537682663450614" lon="-6.889898059866932"><ele>1378.0</ele><time>2026-03-22T11:18:56.986Z</time></trkpt><trkpt lat="30.537708146015046" lon="-6.889769588255079"><ele>1377.0</ele><time>2026-03-22T11:18:57.986Z</time></trkpt><trkpt lat="30.53773661848894" lon="-6.889650205506863"><ele>1377.0</ele><time>2026-03-22T11:18:58.986Z</time></trkpt><trkpt lat="30.53777502243159" lon="-6.8895444388065625"><ele>1377.0</ele><time>2026-03-22T11:18:59.986Z</time></trkpt><trkpt lat="30.53782566764585" lon="-6.889469341771708"><ele>1377.0</ele><time>2026-03-22T11:19:00.986Z</time></trkpt><trkpt lat="30.537890703737016" lon="-6.889415605303003"><ele>1377.0</ele><time>2026-03-22T11:19:01.986Z</time></trkpt><trkpt lat="30.53794288557155" lon="-6.8893621639039955"><ele>1377.0</ele><time>2026-03-22T11:19:02.986Z</time></trkpt><trkpt lat="30.53795572136491" lon="-6.889271403197485"><ele>1377.0</ele><time>2026-03-22T11:19:03.986Z</time></trkpt><trkpt lat="30.53794066895809" lon="-6.889153381883317"><ele>1377.0</ele><time>2026-03-22T11:19:04.986Z</time></trkpt><trkpt lat="30.537927052284324" lon="-6.889004113115566"><ele>1377.0</ele><time>2026-03-22T11:19:05.986Z</time></trkpt><trkpt lat="30.53792492192944" lon="-6.888829940731034"><ele>1377.0</ele><time>2026-03-22T11:19:06.986Z</time></trkpt><trkpt lat="30.537920027768667" lon="-6.8886792492758095"><ele>1377.0</ele><time>2026-03-22T11:19:07.986Z</time></trkpt><trkpt lat="30.537897492485893" lon="-6.88852819990579"><ele>1376.25</ele><time>2026-03-22T11:19:08.986Z</time></trkpt><trkpt lat="30.53788710032816" lon="-6.8883751683063075"><ele>1375.5</ele><time>2026-03-22T11:19:09.986Z</time></trkpt><trkpt lat="30.537885123122482" lon="-6.888233586295212"><ele>1374.75</ele><time>2026-03-22T11:19:10.986Z</time></trkpt><trkpt lat="30.537889774124327" lon="-6.8881030816932896"><ele>1374.0</ele><time>2026-03-22T11:19:11.986Z</time></trkpt><trkpt lat="30.537901675764257" lon="-6.887975933441471"><ele>1374.0</ele><time>2026-03-22T11:19:12.986Z</time></trkpt><trkpt lat="30.53790535886429" lon="-6.887819473288008"><ele>1374.0</ele><time>2026-03-22T11:19:13.986Z</time></trkpt><trkpt lat="30.537878687960582" lon="-6.887659759307614"><ele>1374.0</ele><time>2026-03-22T11:19:14.986Z</time></trkpt><trkpt lat="30.53785021101621" lon="-6.887494882888944"><ele>1374.0</ele><time>2026-03-22T11:19:15.986Z</time></trkpt><trkpt lat="30.537825232599868" lon="-6.887344910402319"><ele>1372.25</ele><time>2026-03-22T11:19:16.986Z</time></trkpt><trkpt lat="30.537797156262698" lon="-6.887207406713034"><ele>1370.5</ele><time>2026-03-22T11:19:17.986Z</time></trkpt><trkpt lat="30.537776369948077" lon="-6.887067499778004"><ele>1368.75</ele><time>2026-03-22T11:19:18.986Z</time></trkpt><trkpt lat="30.5377755802927" lon="-6.8869325850553285"><ele>1367.0</ele><time>2026-03-22T11:19:19.986Z</time></trkpt><trkpt lat="30.53774587269935" lon="-6.886807404924794"><ele>1366.75</ele><time>2026-03-22T11:19:20.986Z</time></trkpt><trkpt lat="30.537697146969194" lon="-6.886670689153105"><ele>1366.5</ele><time>2026-03-22T11:19:21.986Z</time></trkpt><trkpt lat="30.53764661409333" lon="-6.886541257462239"><ele>1366.25</ele><time>2026-03-22T11:19:22.986Z</time></trkpt><trkpt lat="30.537606844810895" lon="-6.886419721524425"><ele>1366.0</ele><time>2026-03-22T11:19:23.986Z</time></trkpt><trkpt lat="30.537575869071645" lon="-6.886306472675395"><ele>1366.0</ele><time>2026-03-22T11:19:24.986Z</time></trkpt><trkpt lat="30.53757441564235" lon="-6.886202162076306"><ele>1366.0</ele><time>2026-03-22T11:19:25.986Z</time></trkpt><trkpt lat="30.53756610740804" lon="-6.886111982716024"><ele>1366.0</ele><time>2026-03-22T11:19:26.986Z</time></trkpt><trkpt lat="30.537521363290484" lon="-6.885980195058838"><ele>1366.0</ele><time>2026-03-22T11:19:28.986Z</time></trkpt><trkpt lat="30.5374350507741" lon="-6.8858993723428945"><ele>1366.0</ele><time>2026-03-22T11:19:30.986Z</time></trkpt><trkpt lat="30.53736622823533" lon="-6.885875968543484"><ele>1365.8</ele><time>2026-03-22T11:19:32.986Z</time></trkpt><trkpt lat="30.537297712455256" lon="-6.8858637309379676"><ele>1365.6</ele><time>2026-03-22T11:19:35.986Z</time></trkpt><trkpt lat="30.53710623538925" lon="-6.885848681681356"><ele>1365.4</ele><time>2026-03-22T11:19:37.986Z</time></trkpt><trkpt lat="30.537011109680062" lon="-6.885853440527118"><ele>1365.2</ele><time>2026-03-22T11:19:38.986Z</time></trkpt><trkpt lat="30.53693126810257" lon="-6.88585876157089"><ele>1365.0</ele><time>2026-03-22T11:19:39.986Z</time></trkpt><trkpt lat="30.536843831969183" lon="-6.885836744854348"><ele>1365.6666666666667</ele><time>2026-03-22T11:19:40.986Z</time></trkpt><trkpt lat="30.53676154111464" lon="-6.885784513427198"><ele>1366.3333333333333</ele><time>2026-03-22T11:19:41.986Z</time></trkpt><trkpt lat="30.53670236337317" lon="-6.885710639571581"><ele>1367.0</ele><time>2026-03-22T11:19:42.986Z</time></trkpt><trkpt lat="30.536658309496488" lon="-6.885628478898109"><ele>1367.6666666666665</ele><time>2026-03-22T11:19:43.986Z</time></trkpt><trkpt lat="30.53662281824692" lon="-6.8855547314535075"><ele>1368.3333333333333</ele><time>2026-03-22T11:19:44.986Z</time></trkpt><trkpt lat="30.536564654686995" lon="-6.885458868770085"><ele>1369.0</ele><time>2026-03-22T11:19:45.986Z</time></trkpt><trkpt lat="30.53644897194719" lon="-6.885360351413043"><ele>1369.0</ele><time>2026-03-22T11:19:46.986Z</time></trkpt><trkpt lat="30.536337064777857" lon="-6.885275279892257"><ele>1369.0</ele><time>2026-03-22T11:19:47.986Z</time></trkpt><trkpt lat="30.53623056796149" lon="-6.885189727850843"><ele>1369.0</ele><time>2026-03-22T11:19:48.986Z</time></trkpt><trkpt lat="30.53615412263592" lon="-6.885118756483729"><ele>1369.0</ele><time>2026-03-22T11:19:49.986Z</time></trkpt><trkpt lat="30.536035107090598" lon="-6.885117138823388"><ele>1369.25</ele><time>2026-03-22T11:19:51.986Z</time></trkpt><trkpt lat="30.53595135458074" lon="-6.885144193440603"><ele>1369.5</ele><time>2026-03-22T11:19:52.986Z</time></trkpt><trkpt lat="30.535823803807475" lon="-6.885178332679952"><ele>1369.75</ele><time>2026-03-22T11:19:53.986Z</time></trkpt><trkpt lat="30.535695376830066" lon="-6.885258343861323"><ele>1370.0</ele><time>2026-03-22T11:19:54.986Z</time></trkpt><trkpt lat="30.53559249808021" lon="-6.885330415282547"><ele>1370.0</ele><time>2026-03-22T11:19:55.986Z</time></trkpt><trkpt lat="30.53550428533719" lon="-6.885417482921923"><ele>1370.0</ele><time>2026-03-22T11:19:56.986Z</time></trkpt><trkpt lat="30.53541534422234" lon="-6.885485345694164"><ele>1370.0</ele><time>2026-03-22T11:19:57.986Z</time></trkpt><trkpt lat="30.535318184927387" lon="-6.885529802506332"><ele>1370.0</ele><time>2026-03-22T11:19:58.986Z</time></trkpt><trkpt lat="30.535223107270465" lon="-6.885556821159572"><ele>1370.0</ele><time>2026-03-22T11:19:59.986Z</time></trkpt><trkpt lat="30.53513219052741" lon="-6.885572343603913"><ele>1370.6</ele><time>2026-03-22T11:20:00.986Z</time></trkpt><trkpt lat="30.535047198042083" lon="-6.885591408141217"><ele>1371.2</ele><time>2026-03-22T11:20:01.986Z</time></trkpt><trkpt lat="30.534975282594445" lon="-6.885643956290505"><ele>1371.8000000000002</ele><time>2026-03-22T11:20:02.986Z</time></trkpt><trkpt lat="30.534908319268197" lon="-6.885723054527333"><ele>1372.4</ele><time>2026-03-22T11:20:03.986Z</time></trkpt><trkpt lat="30.534836092360422" lon="-6.885816845271573"><ele>1373.0</ele><time>2026-03-22T11:20:04.986Z</time></trkpt><trkpt lat="30.534762288623167" lon="-6.8858993737845"><ele>1373.8000000000002</ele><time>2026-03-22T11:20:05.986Z</time></trkpt><trkpt lat="30.534678749937658" lon="-6.885977701123385"><ele>1374.6</ele><time>2026-03-22T11:20:06.987Z</time></trkpt><trkpt lat="30.53457737056604" lon="-6.886060589819812"><ele>1375.4</ele><time>2026-03-22T11:20:07.987Z</time></trkpt><trkpt lat="30.534502674817332" lon="-6.88614210067198"><ele>1376.1999999999998</ele><time>2026-03-22T11:20:08.987Z</time></trkpt><trkpt lat="30.534442401971855" lon="-6.886253261036078"><ele>1377.0</ele><time>2026-03-22T11:20:09.987Z</time></trkpt><trkpt lat="30.53438433932123" lon="-6.886371642770488"><ele>1377.3999999999999</ele><time>2026-03-22T11:20:10.986Z</time></trkpt><trkpt lat="30.53434006459351" lon="-6.886480767514603"><ele>1377.8</ele><time>2026-03-22T11:20:11.986Z</time></trkpt><trkpt lat="30.53429169217045" lon="-6.886570764524131"><ele>1378.2</ele><time>2026-03-22T11:20:12.987Z</time></trkpt><trkpt lat="30.53423034022257" lon="-6.886654704696213"><ele>1378.6</ele><time>2026-03-22T11:20:13.986Z</time></trkpt><trkpt lat="30.534174387304763" lon="-6.88672350985283"><ele>1379.0</ele><time>2026-03-22T11:20:14.986Z</time></trkpt><trkpt lat="30.534107129537475" lon="-6.88677275994398"><ele>1379.0</ele><time>2026-03-22T11:20:15.987Z</time></trkpt><trkpt lat="30.534024715169036" lon="-6.886801482778841"><ele>1379.0</ele><time>2026-03-22T11:20:16.987Z</time></trkpt><trkpt lat="30.533929182381115" lon="-6.886828467139977"><ele>1379.0</ele><time>2026-03-22T11:20:17.987Z</time></trkpt><trkpt lat="30.533863859065132" lon="-6.886836887954403"><ele>1379.0</ele><time>2026-03-22T11:20:18.987Z</time></trkpt><trkpt lat="30.533776326632754" lon="-6.886836509913608"><ele>1379.0</ele><time>2026-03-22T11:20:20.986Z</time></trkpt><trkpt lat="30.53370975278159" lon="-6.886826355884685"><ele>1379.0</ele><time>2026-03-22T11:20:22.986Z</time></trkpt><trkpt lat="30.5336388916294" lon="-6.886814076795571"><ele>1379.0</ele><time>2026-03-22T11:20:25.986Z</time></trkpt><trkpt lat="30.53357850717023" lon="-6.886771841118619"><ele>1379.0</ele><time>2026-03-22T11:22:41.986Z</time></trkpt><trkpt lat="30.533638347269594" lon="-6.886810575820897"><ele>1379.0</ele><time>2026-03-22T11:22:51.986Z</time></trkpt><trkpt lat="30.53370643405883" lon="-6.886824456310421"><ele>1379.0</ele><time>2026-03-22T11:22:58.986Z</time></trkpt><trkpt lat="30.53377577050395" lon="-6.88683596275052"><ele>1379.0</ele><time>2026-03-22T11:23:06.986Z</time></trkpt><trkpt lat="30.533841451830494" lon="-6.88681727899844"><ele>1379.0</ele><time>2026-03-22T11:23:12.986Z</time></trkpt><trkpt lat="30.53390066449949" lon="-6.886784006811174"><ele>1379.0</ele><time>2026-03-22T11:23:20.986Z</time></trkpt><trkpt lat="30.533837745293198" lon="-6.886820241979637"><ele>1379.0</ele><time>2026-03-22T11:24:14.985Z</time></trkpt><trkpt lat="30.53376713397678" lon="-6.886815877593545"><ele>1379.0</ele><time>2026-03-22T11:24:21.986Z</time></trkpt><trkpt lat="30.533696764418806" lon="-6.886805423630575"><ele>1379.0</ele><time>2026-03-22T11:24:28.986Z</time></trkpt><trkpt lat="30.53362894626146" lon="-6.886797434834706"><ele>1379.0</ele><time>2026-03-22T11:24:46.986Z</time></trkpt><trkpt lat="30.533660875844497" lon="-6.886667349493031"><ele>1379.0</ele><time>2026-03-22T11:27:57.985Z</time></trkpt><trkpt lat="30.533764515187514" lon="-6.886658777787786"><ele>1379.0</ele><time>2026-03-22T11:27:58.985Z</time></trkpt><trkpt lat="30.533888700859837" lon="-6.886583802566643"><ele>1379.0</ele><time>2026-03-22T11:27:59.985Z</time></trkpt><trkpt lat="30.53398966898263" lon="-6.886465234467802"><ele>1379.0</ele><time>2026-03-22T11:28:00.985Z</time></trkpt><trkpt lat="30.534064778051512" lon="-6.8863414623590105"><ele>1379.0</ele><time>2026-03-22T11:28:01.985Z</time></trkpt><trkpt lat="30.534101333200848" lon="-6.88621193683505"><ele>1379.0</ele><time>2026-03-22T11:28:02.985Z</time></trkpt><trkpt lat="30.53411032815975" lon="-6.886063380438457"><ele>1379.3333333333335</ele><time>2026-03-22T11:28:03.985Z</time></trkpt><trkpt lat="30.534117554959945" lon="-6.885903983536613"><ele>1379.6666666666667</ele><time>2026-03-22T11:28:04.985Z</time></trkpt><trkpt lat="30.534125288567047" lon="-6.885724368026288"><ele>1380.0</ele><time>2026-03-22T11:28:05.985Z</time></trkpt><trkpt lat="30.534138737623127" lon="-6.88553659083852"><ele>1380.0</ele><time>2026-03-22T11:28:06.985Z</time></trkpt><trkpt lat="30.53414685302485" lon="-6.88537432357621"><ele>1380.0</ele><time>2026-03-22T11:28:07.985Z</time></trkpt><trkpt lat="30.534153035341987" lon="-6.885206518685039"><ele>1380.0</ele><time>2026-03-22T11:28:08.985Z</time></trkpt><trkpt lat="30.534166293201817" lon="-6.885029314862239"><ele>1380.0</ele><time>2026-03-22T11:28:09.985Z</time></trkpt><trkpt lat="30.534178165164306" lon="-6.884843954819073"><ele>1379.6666666666667</ele><time>2026-03-22T11:28:10.985Z</time></trkpt><trkpt lat="30.534199539521616" lon="-6.884639538493289"><ele>1379.3333333333335</ele><time>2026-03-22T11:28:11.985Z</time></trkpt><trkpt lat="30.534216700699766" lon="-6.884418773572232"><ele>1379.0</ele><time>2026-03-22T11:28:12.985Z</time></trkpt><trkpt lat="30.534238407076533" lon="-6.884184814880891"><ele>1378.0</ele><time>2026-03-22T11:28:13.985Z</time></trkpt><trkpt lat="30.534262345315938" lon="-6.883944787329064"><ele>1377.0</ele><time>2026-03-22T11:28:14.985Z</time></trkpt><trkpt lat="30.53428194933286" lon="-6.883703566943633"><ele>1376.0</ele><time>2026-03-22T11:28:15.985Z</time></trkpt><trkpt lat="30.534299620194833" lon="-6.883466698341849"><ele>1375.6666666666667</ele><time>2026-03-22T11:28:16.985Z</time></trkpt><trkpt lat="30.53431576620474" lon="-6.883231882952985"><ele>1375.3333333333333</ele><time>2026-03-22T11:28:17.985Z</time></trkpt><trkpt lat="30.534335021276455" lon="-6.883008036619816"><ele>1375.0</ele><time>2026-03-22T11:28:18.985Z</time></trkpt><trkpt lat="30.534355108768434" lon="-6.882786920601216"><ele>1375.6666666666665</ele><time>2026-03-22T11:28:19.985Z</time></trkpt><trkpt lat="30.53437589587062" lon="-6.882566996513449"><ele>1376.3333333333333</ele><time>2026-03-22T11:28:20.985Z</time></trkpt><trkpt lat="30.53439479867813" lon="-6.882347959435442"><ele>1377.0</ele><time>2026-03-22T11:28:21.985Z</time></trkpt><trkpt lat="30.53440871493481" lon="-6.882135708098972"><ele>1377.0</ele><time>2026-03-22T11:28:22.985Z</time></trkpt><trkpt lat="30.534424039511233" lon="-6.881932038749011"><ele>1377.0</ele><time>2026-03-22T11:28:23.985Z</time></trkpt><trkpt lat="30.534444909329558" lon="-6.881730218649331"><ele>1377.0</ele><time>2026-03-22T11:28:24.985Z</time></trkpt><trkpt lat="30.534461232506114" lon="-6.881532691244792"><ele>1377.3333333333333</ele><time>2026-03-22T11:28:25.985Z</time></trkpt><trkpt lat="30.53447853596771" lon="-6.881339439172001"><ele>1377.6666666666665</ele><time>2026-03-22T11:28:26.985Z</time></trkpt><trkpt lat="30.534477983517302" lon="-6.881151213810921"><ele>1378.0</ele><time>2026-03-22T11:28:27.985Z</time></trkpt><trkpt lat="30.53449264298018" lon="-6.880984864701628"><ele>1378.3333333333333</ele><time>2026-03-22T11:28:28.985Z</time></trkpt><trkpt lat="30.53450766113147" lon="-6.880817330485731"><ele>1378.6666666666667</ele><time>2026-03-22T11:28:29.985Z</time></trkpt><trkpt lat="30.534523797375957" lon="-6.880637323502918"><ele>1379.0</ele><time>2026-03-22T11:28:30.985Z</time></trkpt><trkpt lat="30.534540878321977" lon="-6.880446777817258"><ele>1376.6666666666667</ele><time>2026-03-22T11:28:31.986Z</time></trkpt><trkpt lat="30.53455950590715" lon="-6.8802435625088485"><ele>1374.3333333333333</ele><time>2026-03-22T11:28:32.986Z</time></trkpt><trkpt lat="30.53457820218831" lon="-6.880035635509191"><ele>1372.0</ele><time>2026-03-22T11:28:33.986Z</time></trkpt><trkpt lat="30.534597217339265" lon="-6.87981907173068"><ele>1372.0</ele><time>2026-03-22T11:28:34.985Z</time></trkpt><trkpt lat="30.534617079352625" lon="-6.879598771820193"><ele>1372.0</ele><time>2026-03-22T11:28:35.985Z</time></trkpt><trkpt lat="30.534632287665353" lon="-6.879377182055545"><ele>1372.0</ele><time>2026-03-22T11:28:36.986Z</time></trkpt><trkpt lat="30.534646482820946" lon="-6.879164007683554"><ele>1373.6666666666665</ele><time>2026-03-22T11:28:37.985Z</time></trkpt><trkpt lat="30.534661190779655" lon="-6.878951154929049"><ele>1375.3333333333333</ele><time>2026-03-22T11:28:38.985Z</time></trkpt><trkpt lat="30.53467844772339" lon="-6.878738807319612"><ele>1377.0</ele><time>2026-03-22T11:28:39.986Z</time></trkpt><trkpt lat="30.534695252242518" lon="-6.878523185759861"><ele>1379.0</ele><time>2026-03-22T11:28:40.985Z</time></trkpt><trkpt lat="30.53471289880317" lon="-6.87829289878155"><ele>1381.0</ele><time>2026-03-22T11:28:41.985Z</time></trkpt><trkpt lat="30.53473039743741" lon="-6.878070615544018"><ele>1383.0</ele><time>2026-03-22T11:28:42.986Z</time></trkpt><trkpt lat="30.534747033569296" lon="-6.877862922869638"><ele>1383.0</ele><time>2026-03-22T11:28:43.985Z</time></trkpt><trkpt lat="30.534764420546505" lon="-6.877645931240282"><ele>1383.0</ele><time>2026-03-22T11:28:44.985Z</time></trkpt><trkpt lat="30.534782111832072" lon="-6.877421005742114"><ele>1383.0</ele><time>2026-03-22T11:28:45.985Z</time></trkpt><trkpt lat="30.53479901425008" lon="-6.877200136718122"><ele>1383.6666666666667</ele><time>2026-03-22T11:28:46.985Z</time></trkpt><trkpt lat="30.534816188753062" lon="-6.876976416163369"><ele>1384.3333333333335</ele><time>2026-03-22T11:28:47.985Z</time></trkpt><trkpt lat="30.534834247026875" lon="-6.876757008986941"><ele>1385.0</ele><time>2026-03-22T11:28:48.985Z</time></trkpt><trkpt lat="30.534853220844987" lon="-6.8765452952701125"><ele>1385.6666666666667</ele><time>2026-03-22T11:28:49.985Z</time></trkpt><trkpt lat="30.534871336160286" lon="-6.876339125772527"><ele>1386.3333333333333</ele><time>2026-03-22T11:28:50.985Z</time></trkpt><trkpt lat="30.534889170623366" lon="-6.876133851855089"><ele>1387.0</ele><time>2026-03-22T11:28:51.985Z</time></trkpt><trkpt lat="30.53490679542375" lon="-6.875936237016243"><ele>1388.6666666666665</ele><time>2026-03-22T11:28:52.985Z</time></trkpt><trkpt lat="30.534923724282205" lon="-6.8757431454455915"><ele>1390.3333333333333</ele><time>2026-03-22T11:28:53.985Z</time></trkpt><trkpt lat="30.534940440183778" lon="-6.875550581625272"><ele>1392.0</ele><time>2026-03-22T11:28:54.985Z</time></trkpt><trkpt lat="30.534957252689022" lon="-6.875361476361967"><ele>1392.0</ele><time>2026-03-22T11:28:55.985Z</time></trkpt><trkpt lat="30.534972319710448" lon="-6.875189259364199"><ele>1392.0</ele><time>2026-03-22T11:28:56.985Z</time></trkpt><trkpt lat="30.534981495862414" lon="-6.875018545878431"><ele>1392.0</ele><time>2026-03-22T11:28:57.985Z</time></trkpt><trkpt lat="30.534986316229183" lon="-6.874854040561606"><ele>1392.0</ele><time>2026-03-22T11:28:58.985Z</time></trkpt><trkpt lat="30.534986316233205" lon="-6.874685642883985"><ele>1393.3333333333333</ele><time>2026-03-22T11:28:59.985Z</time></trkpt><trkpt lat="30.534986075691776" lon="-6.874507058722722"><ele>1394.6666666666665</ele><time>2026-03-22T11:29:00.985Z</time></trkpt><trkpt lat="30.534985679466395" lon="-6.87432855816586"><ele>1396.0</ele><time>2026-03-22T11:29:01.985Z</time></trkpt><trkpt lat="30.534985265189786" lon="-6.874141925157749"><ele>1397.6666666666665</ele><time>2026-03-22T11:29:02.985Z</time></trkpt><trkpt lat="30.534985116246077" lon="-6.873943224307151"><ele>1399.3333333333333</ele><time>2026-03-22T11:29:03.985Z</time></trkpt><trkpt lat="30.53498511624887" lon="-6.873738672930169"><ele>1401.0</ele><time>2026-03-22T11:29:04.985Z</time></trkpt><trkpt lat="30.534984965177145" lon="-6.873528510479735"><ele>1401.6666666666667</ele><time>2026-03-22T11:29:05.985Z</time></trkpt><trkpt lat="30.534984095905784" lon="-6.873317711898468"><ele>1402.3333333333335</ele><time>2026-03-22T11:29:06.985Z</time></trkpt><trkpt lat="30.534982941517082" lon="-6.8731077513479475"><ele>1403.0</ele><time>2026-03-22T11:29:07.985Z</time></trkpt><trkpt lat="30.53498151181964" lon="-6.872898481974383"><ele>1403.0</ele><time>2026-03-22T11:29:08.985Z</time></trkpt><trkpt lat="30.534980000466568" lon="-6.87269041304325"><ele>1403.0</ele><time>2026-03-22T11:29:09.985Z</time></trkpt><trkpt lat="30.534978341102157" lon="-6.872482343088804"><ele>1403.0</ele><time>2026-03-22T11:29:10.985Z</time></trkpt><trkpt lat="30.534976442701385" lon="-6.872274651693961"><ele>1404.0</ele><time>2026-03-22T11:29:11.985Z</time></trkpt><trkpt lat="30.534974070035933" lon="-6.872071182478902"><ele>1405.0</ele><time>2026-03-22T11:29:12.985Z</time></trkpt><trkpt lat="30.53497060219015" lon="-6.8718696192346576"><ele>1406.0</ele><time>2026-03-22T11:29:13.985Z</time></trkpt><trkpt lat="30.534967291127014" lon="-6.8716738690606425"><ele>1407.0</ele><time>2026-03-22T11:29:14.985Z</time></trkpt><trkpt lat="30.534964410794775" lon="-6.8714884579914655"><ele>1408.0</ele><time>2026-03-22T11:29:15.985Z</time></trkpt><trkpt lat="30.53496493156758" lon="-6.871297161384902"><ele>1409.0</ele><time>2026-03-22T11:29:16.985Z</time></trkpt><trkpt lat="30.5349655655222" lon="-6.871106551729325"><ele>1408.6666666666667</ele><time>2026-03-22T11:29:17.985Z</time></trkpt><trkpt lat="30.534982814396987" lon="-6.870908617594459"><ele>1408.3333333333333</ele><time>2026-03-22T11:29:18.985Z</time></trkpt><trkpt lat="30.535030248032463" lon="-6.870701082888682"><ele>1408.0</ele><time>2026-03-22T11:29:19.985Z</time></trkpt><trkpt lat="30.53508865071862" lon="-6.870494055748625"><ele>1408.0</ele><time>2026-03-22T11:29:20.985Z</time></trkpt><trkpt lat="30.535154695156795" lon="-6.870261312067167"><ele>1408.0</ele><time>2026-03-22T11:29:21.985Z</time></trkpt><trkpt lat="30.535227512583184" lon="-6.87000441383016"><ele>1408.0</ele><time>2026-03-22T11:29:22.985Z</time></trkpt><trkpt lat="30.535305743538668" lon="-6.8697284166466135"><ele>1408.5</ele><time>2026-03-22T11:29:23.985Z</time></trkpt><trkpt lat="30.535378538252345" lon="-6.869473077075575"><ele>1409.0</ele><time>2026-03-22T11:29:24.985Z</time></trkpt><trkpt lat="30.535444938873972" lon="-6.869229467754803"><ele>1409.0</ele><time>2026-03-22T11:29:25.985Z</time></trkpt><trkpt lat="30.5355075152112" lon="-6.8689975693785845"><ele>1409.0</ele><time>2026-03-22T11:29:26.985Z</time></trkpt><trkpt lat="30.535568984284126" lon="-6.868769709012619"><ele>1409.0</ele><time>2026-03-22T11:29:27.985Z</time></trkpt><trkpt lat="30.535629953885454" lon="-6.868541812294991"><ele>1406.0</ele><time>2026-03-22T11:29:28.985Z</time></trkpt><trkpt lat="30.535691972588598" lon="-6.868312573330002"><ele>1403.0</ele><time>2026-03-22T11:29:29.985Z</time></trkpt><trkpt lat="30.535755226855784" lon="-6.86807897953651"><ele>1400.0</ele><time>2026-03-22T11:29:30.985Z</time></trkpt><trkpt lat="30.53581715817745" lon="-6.86784987089031"><ele>1400.0</ele><time>2026-03-22T11:29:31.985Z</time></trkpt><trkpt lat="30.535880330230373" lon="-6.867615796849215"><ele>1400.0</ele><time>2026-03-22T11:29:32.985Z</time></trkpt><trkpt lat="30.535944423808708" lon="-6.867382955897632"><ele>1400.0</ele><time>2026-03-22T11:29:33.985Z</time></trkpt><trkpt lat="30.536014041598754" lon="-6.8671465081927225"><ele>1399.3333333333335</ele><time>2026-03-22T11:29:34.985Z</time></trkpt><trkpt lat="30.536085519319236" lon="-6.866900559008781"><ele>1398.6666666666667</ele><time>2026-03-22T11:29:35.985Z</time></trkpt><trkpt lat="30.53615445389111" lon="-6.86666152403555"><ele>1398.0</ele><time>2026-03-22T11:29:36.985Z</time></trkpt><trkpt lat="30.536221437525406" lon="-6.866435226703236"><ele>1398.0</ele><time>2026-03-22T11:29:37.985Z</time></trkpt><trkpt lat="30.536283328148798" lon="-6.866205589858248"><ele>1398.0</ele><time>2026-03-22T11:29:38.985Z</time></trkpt><trkpt lat="30.536344421229753" lon="-6.865976156440264"><ele>1398.0</ele><time>2026-03-22T11:29:39.985Z</time></trkpt><trkpt lat="30.53640437971872" lon="-6.865750680744809"><ele>1395.6666666666667</ele><time>2026-03-22T11:29:40.985Z</time></trkpt><trkpt lat="30.536467210096653" lon="-6.865526144648189"><ele>1393.3333333333335</ele><time>2026-03-22T11:29:41.985Z</time></trkpt><trkpt lat="30.53652943577278" lon="-6.865308590424001"><ele>1391.0</ele><time>2026-03-22T11:29:42.985Z</time></trkpt><trkpt lat="30.536591701885193" lon="-6.865090281694436"><ele>1389.0</ele><time>2026-03-22T11:29:43.985Z</time></trkpt><trkpt lat="30.53665527573883" lon="-6.864867388152537"><ele>1387.0</ele><time>2026-03-22T11:29:44.985Z</time></trkpt><trkpt lat="30.536723102678106" lon="-6.8646300275465615"><ele>1385.0</ele><time>2026-03-22T11:29:45.985Z</time></trkpt><trkpt lat="30.536801568540643" lon="-6.864404468596198"><ele>1383.0</ele><time>2026-03-22T11:29:46.985Z</time></trkpt><trkpt lat="30.536862068236854" lon="-6.864171854853491"><ele>1381.0</ele><time>2026-03-22T11:29:47.985Z</time></trkpt><trkpt lat="30.536916884451102" lon="-6.86394190341302"><ele>1379.0</ele><time>2026-03-22T11:29:48.985Z</time></trkpt><trkpt lat="30.536977652119607" lon="-6.863710072525981"><ele>1379.0</ele><time>2026-03-22T11:29:49.985Z</time></trkpt><trkpt lat="30.537037224806298" lon="-6.863492480083941"><ele>1379.0</ele><time>2026-03-22T11:29:50.985Z</time></trkpt><trkpt lat="30.537097925146305" lon="-6.863247060333687"><ele>1379.0</ele><time>2026-03-22T11:29:51.985Z</time></trkpt><trkpt lat="30.53716221159728" lon="-6.863002189776684"><ele>1380.3333333333335</ele><time>2026-03-22T11:29:52.985Z</time></trkpt><trkpt lat="30.537223485381492" lon="-6.8627758497807205"><ele>1381.6666666666667</ele><time>2026-03-22T11:29:53.985Z</time></trkpt><trkpt lat="30.537288563786277" lon="-6.862561339272878"><ele>1383.0</ele><time>2026-03-22T11:29:54.985Z</time></trkpt><trkpt lat="30.53735634510423" lon="-6.86236509598869"><ele>1383.0</ele><time>2026-03-22T11:29:55.985Z</time></trkpt><trkpt lat="30.537416996176827" lon="-6.862170029361334"><ele>1383.0</ele><time>2026-03-22T11:29:56.985Z</time></trkpt><trkpt lat="30.53747559031711" lon="-6.861985712831354"><ele>1383.0</ele><time>2026-03-22T11:29:57.985Z</time></trkpt><trkpt lat="30.53752526822241" lon="-6.86179068849387"><ele>1381.0</ele><time>2026-03-22T11:29:58.985Z</time></trkpt><trkpt lat="30.53758587937617" lon="-6.861601970526119"><ele>1379.0</ele><time>2026-03-22T11:29:59.985Z</time></trkpt><trkpt lat="30.537643617331785" lon="-6.861392753342252"><ele>1377.0</ele><time>2026-03-22T11:30:00.985Z</time></trkpt><trkpt lat="30.537704228826478" lon="-6.8611872086526295"><ele>1377.0</ele><time>2026-03-22T11:30:01.985Z</time></trkpt><trkpt lat="30.53774925266091" lon="-6.860976728872571"><ele>1377.0</ele><time>2026-03-22T11:30:02.985Z</time></trkpt><trkpt lat="30.537807546112543" lon="-6.860772998702306"><ele>1377.0</ele><time>2026-03-22T11:30:03.985Z</time></trkpt><trkpt lat="30.53787974339329" lon="-6.860574387170359"><ele>1377.0</ele><time>2026-03-22T11:30:04.985Z</time></trkpt><trkpt lat="30.537935394727157" lon="-6.860370571985788"><ele>1377.0</ele><time>2026-03-22T11:30:05.985Z</time></trkpt><trkpt lat="30.537992542677042" lon="-6.8601610319631"><ele>1377.0</ele><time>2026-03-22T11:30:06.985Z</time></trkpt><trkpt lat="30.538047136018307" lon="-6.859952515222338"><ele>1373.6666666666667</ele><time>2026-03-22T11:30:07.985Z</time></trkpt><trkpt lat="30.53809087980894" lon="-6.859742282481909"><ele>1370.3333333333335</ele><time>2026-03-22T11:30:08.985Z</time></trkpt><trkpt lat="30.538134718215183" lon="-6.859546436114308"><ele>1367.0</ele><time>2026-03-22T11:30:09.985Z</time></trkpt><trkpt lat="30.53816741108436" lon="-6.859360568111509"><ele>1365.3333333333335</ele><time>2026-03-22T11:30:10.985Z</time></trkpt><trkpt lat="30.538166146858185" lon="-6.859164010386248"><ele>1363.6666666666667</ele><time>2026-03-22T11:30:11.985Z</time></trkpt><trkpt lat="30.53815990297057" lon="-6.858956767292558"><ele>1362.0</ele><time>2026-03-22T11:30:12.985Z</time></trkpt><trkpt lat="30.538144300904726" lon="-6.858738986505745"><ele>1362.0</ele><time>2026-03-22T11:30:13.985Z</time></trkpt><trkpt lat="30.538126685761224" lon="-6.858483712296664"><ele>1362.0</ele><time>2026-03-22T11:30:14.985Z</time></trkpt><trkpt lat="30.538108621738996" lon="-6.858219230304755"><ele>1362.0</ele><time>2026-03-22T11:30:15.985Z</time></trkpt><trkpt lat="30.53808810312309" lon="-6.857936346870832"><ele>1364.0</ele><time>2026-03-22T11:30:16.985Z</time></trkpt><trkpt lat="30.538061880297587" lon="-6.857648226019593"><ele>1366.0</ele><time>2026-03-22T11:30:17.985Z</time></trkpt><trkpt lat="30.53804026134568" lon="-6.857408126629545"><ele>1368.0</ele><time>2026-03-22T11:30:18.985Z</time></trkpt><trkpt lat="30.538018845556156" lon="-6.857169522597677"><ele>1370.0</ele><time>2026-03-22T11:30:19.985Z</time></trkpt><trkpt lat="30.537997933094424" lon="-6.856932758937711"><ele>1372.0</ele><time>2026-03-22T11:30:20.985Z</time></trkpt><trkpt lat="30.53798116750402" lon="-6.8567024737753455"><ele>1374.0</ele><time>2026-03-22T11:30:21.985Z</time></trkpt><trkpt lat="30.53796441303572" lon="-6.85647244254437"><ele>1376.0</ele><time>2026-03-22T11:30:22.985Z</time></trkpt><trkpt lat="30.537964594978398" lon="-6.8562468891318336"><ele>1378.0</ele><time>2026-03-22T11:30:23.985Z</time></trkpt><trkpt lat="30.537947865692516" lon="-6.856020781427447"><ele>1376.6666666666665</ele><time>2026-03-22T11:30:24.985Z</time></trkpt><trkpt lat="30.537931466136772" lon="-6.855794425307512"><ele>1375.3333333333333</ele><time>2026-03-22T11:30:25.985Z</time></trkpt><trkpt lat="30.537913159849133" lon="-6.855568101166865"><ele>1374.0</ele><time>2026-03-22T11:30:26.985Z</time></trkpt><trkpt lat="30.537880085863613" lon="-6.855346846287175"><ele>1375.0</ele><time>2026-03-22T11:30:27.985Z</time></trkpt><trkpt lat="30.53786165321861" lon="-6.855120214584396"><ele>1376.0</ele><time>2026-03-22T11:30:28.985Z</time></trkpt><trkpt lat="30.537844377722042" lon="-6.854900955610665"><ele>1377.0</ele><time>2026-03-22T11:30:29.985Z</time></trkpt><trkpt lat="30.537826317109502" lon="-6.854684023910413"><ele>1377.0</ele><time>2026-03-22T11:30:30.985Z</time></trkpt><trkpt lat="30.53780877027938" lon="-6.85446610324997"><ele>1377.0</ele><time>2026-03-22T11:30:31.985Z</time></trkpt><trkpt lat="30.537791337447484" lon="-6.8542503609552545"><ele>1377.0</ele><time>2026-03-22T11:30:32.985Z</time></trkpt><trkpt lat="30.53777342378202" lon="-6.8540333514831175"><ele>1377.3333333333333</ele><time>2026-03-22T11:30:33.985Z</time></trkpt><trkpt lat="30.537755381822393" lon="-6.853815641395044"><ele>1377.6666666666665</ele><time>2026-03-22T11:30:34.985Z</time></trkpt><trkpt lat="30.537737474309854" lon="-6.853594795967932"><ele>1378.0</ele><time>2026-03-22T11:30:35.985Z</time></trkpt><trkpt lat="30.53771951627443" lon="-6.853370346213264"><ele>1379.0</ele><time>2026-03-22T11:30:36.985Z</time></trkpt><trkpt lat="30.537701541505644" lon="-6.853146556797563"><ele>1380.0</ele><time>2026-03-22T11:30:37.985Z</time></trkpt><trkpt lat="30.537683362661493" lon="-6.852921933554059"><ele>1381.0</ele><time>2026-03-22T11:30:38.985Z</time></trkpt><trkpt lat="30.53766494290918" lon="-6.852694333575023"><ele>1381.6666666666665</ele><time>2026-03-22T11:30:39.986Z</time></trkpt><trkpt lat="30.537646235437357" lon="-6.852468756391014"><ele>1382.3333333333333</ele><time>2026-03-22T11:30:40.985Z</time></trkpt><trkpt lat="30.53762750190153" lon="-6.852243953948432"><ele>1383.0</ele><time>2026-03-22T11:30:41.985Z</time></trkpt><trkpt lat="30.53760876950125" lon="-6.852015189831904"><ele>1383.6666666666667</ele><time>2026-03-22T11:30:42.985Z</time></trkpt><trkpt lat="30.537590079495956" lon="-6.8517847802787655"><ele>1384.3333333333335</ele><time>2026-03-22T11:30:43.985Z</time></trkpt><trkpt lat="30.53757129952882" lon="-6.851552577410228"><ele>1385.0</ele><time>2026-03-22T11:30:44.985Z</time></trkpt><trkpt lat="30.537552115491103" lon="-6.85131537830234"><ele>1385.0</ele><time>2026-03-22T11:30:45.985Z</time></trkpt><trkpt lat="30.537533982020225" lon="-6.851085702638535"><ele>1385.0</ele><time>2026-03-22T11:30:46.985Z</time></trkpt><trkpt lat="30.537516910609423" lon="-6.850864295156857"><ele>1385.0</ele><time>2026-03-22T11:30:47.985Z</time></trkpt><trkpt lat="30.537515293012696" lon="-6.85064068227007"><ele>1385.0</ele><time>2026-03-22T11:30:48.985Z</time></trkpt><trkpt lat="30.537496012697144" lon="-6.850411623804771"><ele>1385.0</ele><time>2026-03-22T11:30:49.985Z</time></trkpt><trkpt lat="30.53748013557003" lon="-6.8501821297226035"><ele>1385.0</ele><time>2026-03-22T11:30:50.985Z</time></trkpt><trkpt lat="30.5374629366456" lon="-6.849946484102291"><ele>1385.0</ele><time>2026-03-22T11:30:51.985Z</time></trkpt><trkpt lat="30.53744735427921" lon="-6.849712873310485"><ele>1385.0</ele><time>2026-03-22T11:30:52.985Z</time></trkpt><trkpt lat="30.53742711969361" lon="-6.84947424028474"><ele>1385.0</ele><time>2026-03-22T11:30:53.985Z</time></trkpt><trkpt lat="30.53741190492231" lon="-6.849232232571952"><ele>1384.0</ele><time>2026-03-22T11:30:54.985Z</time></trkpt><trkpt lat="30.53739567042187" lon="-6.848993660342832"><ele>1383.0</ele><time>2026-03-22T11:30:55.985Z</time></trkpt><trkpt lat="30.537371945028774" lon="-6.848754276476768"><ele>1382.0</ele><time>2026-03-22T11:30:56.985Z</time></trkpt><trkpt lat="30.537339591449914" lon="-6.848518954166942"><ele>1381.6666666666667</ele><time>2026-03-22T11:30:57.985Z</time></trkpt><trkpt lat="30.537290566720397" lon="-6.84828239339369"><ele>1381.3333333333333</ele><time>2026-03-22T11:30:58.985Z</time></trkpt><trkpt lat="30.537220855585485" lon="-6.848041128900991"><ele>1381.0</ele><time>2026-03-22T11:30:59.985Z</time></trkpt><trkpt lat="30.537132475998327" lon="-6.847819339660863"><ele>1381.6666666666665</ele><time>2026-03-22T11:31:00.985Z</time></trkpt><trkpt lat="30.53705464998163" lon="-6.8476057361315315"><ele>1382.3333333333333</ele><time>2026-03-22T11:31:01.985Z</time></trkpt><trkpt lat="30.53697927056886" lon="-6.84739727052521"><ele>1383.0</ele><time>2026-03-22T11:31:02.985Z</time></trkpt><trkpt lat="30.536905760007986" lon="-6.847195836726661"><ele>1380.0</ele><time>2026-03-22T11:31:03.985Z</time></trkpt><trkpt lat="30.536830236363645" lon="-6.846989984439847"><ele>1377.0</ele><time>2026-03-22T11:31:04.985Z</time></trkpt><trkpt lat="30.536756957057545" lon="-6.846788505976748"><ele>1374.0</ele><time>2026-03-22T11:31:05.985Z</time></trkpt><trkpt lat="30.536685160176823" lon="-6.846588883563084"><ele>1373.6666666666667</ele><time>2026-03-22T11:31:06.985Z</time></trkpt><trkpt lat="30.53661437000517" lon="-6.846383662885615"><ele>1373.3333333333335</ele><time>2026-03-22T11:31:07.985Z</time></trkpt><trkpt lat="30.536541399319624" lon="-6.846169786372546"><ele>1373.0</ele><time>2026-03-22T11:31:08.985Z</time></trkpt><trkpt lat="30.5364670286622" lon="-6.845950805844927"><ele>1372.6666666666667</ele><time>2026-03-22T11:31:09.985Z</time></trkpt><trkpt lat="30.536391453120928" lon="-6.84572988838577"><ele>1372.3333333333333</ele><time>2026-03-22T11:31:10.985Z</time></trkpt><trkpt lat="30.536316069677724" lon="-6.8455114089052325"><ele>1372.0</ele><time>2026-03-22T11:31:11.985Z</time></trkpt><trkpt lat="30.53623954967704" lon="-6.845288503615908"><ele>1370.3333333333333</ele><time>2026-03-22T11:31:12.985Z</time></trkpt><trkpt lat="30.536162663007918" lon="-6.845062445829997"><ele>1368.6666666666667</ele><time>2026-03-22T11:31:13.985Z</time></trkpt><trkpt lat="30.53610077078408" lon="-6.844830615754166"><ele>1367.0</ele><time>2026-03-22T11:31:14.985Z</time></trkpt><trkpt lat="30.535992201444774" lon="-6.844612300817838"><ele>1367.0</ele><time>2026-03-22T11:31:15.985Z</time></trkpt><trkpt lat="30.53591530497314" lon="-6.8443855840296415"><ele>1367.0</ele><time>2026-03-22T11:31:16.985Z</time></trkpt><trkpt lat="30.535834873719654" lon="-6.8441564053297945"><ele>1367.0</ele><time>2026-03-22T11:31:17.985Z</time></trkpt><trkpt lat="30.535754308226856" lon="-6.843929257787899"><ele>1365.3333333333335</ele><time>2026-03-22T11:31:18.985Z</time></trkpt><trkpt lat="30.53567276417415" lon="-6.843706682330202"><ele>1363.6666666666667</ele><time>2026-03-22T11:31:19.985Z</time></trkpt><trkpt lat="30.53560468263105" lon="-6.843505702411998"><ele>1362.0</ele><time>2026-03-22T11:31:20.985Z</time></trkpt><trkpt lat="30.53553264383795" lon="-6.843291471570725"><ele>1361.6666666666667</ele><time>2026-03-22T11:31:21.985Z</time></trkpt><trkpt lat="30.535464507184745" lon="-6.843069241220987"><ele>1361.3333333333335</ele><time>2026-03-22T11:31:22.985Z</time></trkpt><trkpt lat="30.53539966985646" lon="-6.842843101968353"><ele>1361.0</ele><time>2026-03-22T11:31:23.985Z</time></trkpt><trkpt lat="30.535339616345844" lon="-6.842616851505543"><ele>1359.0</ele><time>2026-03-22T11:31:24.985Z</time></trkpt><trkpt lat="30.53528125258532" lon="-6.8423873094572984"><ele>1357.0</ele><time>2026-03-22T11:31:25.985Z</time></trkpt><trkpt lat="30.535222665706343" lon="-6.8421538159125825"><ele>1355.0</ele><time>2026-03-22T11:31:26.985Z</time></trkpt><trkpt lat="30.53516102461931" lon="-6.841915049073626"><ele>1353.0</ele><time>2026-03-22T11:31:27.985Z</time></trkpt><trkpt lat="30.535091947431795" lon="-6.841681572352884"><ele>1351.0</ele><time>2026-03-22T11:31:28.985Z</time></trkpt><trkpt lat="30.53502474634698" lon="-6.84144090409293"><ele>1349.0</ele><time>2026-03-22T11:31:29.985Z</time></trkpt><trkpt lat="30.534959622693236" lon="-6.8411953193128685"><ele>1349.3333333333335</ele><time>2026-03-22T11:31:30.985Z</time></trkpt><trkpt lat="30.534895097655784" lon="-6.840952353700493"><ele>1349.6666666666667</ele><time>2026-03-22T11:31:31.985Z</time></trkpt><trkpt lat="30.534829662831367" lon="-6.840701219275976"><ele>1350.0</ele><time>2026-03-22T11:31:32.985Z</time></trkpt><trkpt lat="30.53475749809375" lon="-6.84044206661488"><ele>1350.0</ele><time>2026-03-22T11:31:33.985Z</time></trkpt><trkpt lat="30.534678801924635" lon="-6.840160612505124"><ele>1350.0</ele><time>2026-03-22T11:31:34.985Z</time></trkpt><trkpt lat="30.534605424990964" lon="-6.839908604288099"><ele>1347.5</ele><time>2026-03-22T11:31:35.985Z</time></trkpt><trkpt lat="30.534534612917692" lon="-6.839657312787215"><ele>1345.0</ele><time>2026-03-22T11:31:36.985Z</time></trkpt><trkpt lat="30.534451524100056" lon="-6.839407457831933"><ele>1345.0</ele><time>2026-03-22T11:31:37.985Z</time></trkpt><trkpt lat="30.534363369423733" lon="-6.839167112403317"><ele>1345.0</ele><time>2026-03-22T11:31:38.985Z</time></trkpt><trkpt lat="30.534277411399003" lon="-6.838911152674272"><ele>1345.0</ele><time>2026-03-22T11:31:39.985Z</time></trkpt><trkpt lat="30.534199261384607" lon="-6.838658239686467"><ele>1345.0</ele><time>2026-03-22T11:31:40.985Z</time></trkpt><trkpt lat="30.534130461438505" lon="-6.838423843228386"><ele>1345.0</ele><time>2026-03-22T11:31:41.985Z</time></trkpt><trkpt lat="30.534076023979168" lon="-6.838192857187683"><ele>1345.0</ele><time>2026-03-22T11:31:42.985Z</time></trkpt><trkpt lat="30.534060749477298" lon="-6.838013976694483"><ele>1345.0</ele><time>2026-03-22T11:31:43.985Z</time></trkpt><trkpt lat="30.534024904476354" lon="-6.837830512655388"><ele>1345.0</ele><time>2026-03-22T11:31:44.985Z</time></trkpt><trkpt lat="30.533981718554553" lon="-6.8376178831483525"><ele>1345.3333333333333</ele><time>2026-03-22T11:31:45.985Z</time></trkpt><trkpt lat="30.53393085943768" lon="-6.8374094476119565"><ele>1345.6666666666667</ele><time>2026-03-22T11:31:46.985Z</time></trkpt><trkpt lat="30.533881520930123" lon="-6.837201485131829"><ele>1346.0</ele><time>2026-03-22T11:31:47.985Z</time></trkpt><trkpt lat="30.533845610778204" lon="-6.836999135343279"><ele>1346.6666666666667</ele><time>2026-03-22T11:31:48.985Z</time></trkpt><trkpt lat="30.53381585677722" lon="-6.836796668670243"><ele>1347.3333333333333</ele><time>2026-03-22T11:31:49.985Z</time></trkpt><trkpt lat="30.53378608055289" lon="-6.836593659202402"><ele>1348.0</ele><time>2026-03-22T11:31:50.985Z</time></trkpt><trkpt lat="30.53374605213318" lon="-6.836388401642544"><ele>1344.6666666666665</ele><time>2026-03-22T11:31:51.985Z</time></trkpt><trkpt lat="30.533686155176845" lon="-6.83617229231662"><ele>1341.3333333333333</ele><time>2026-03-22T11:31:52.985Z</time></trkpt><trkpt lat="30.533632167126303" lon="-6.835960580122122"><ele>1338.0</ele><time>2026-03-22T11:31:53.985Z</time></trkpt><trkpt lat="30.53360853417696" lon="-6.835757658872954"><ele>1338.0</ele><time>2026-03-22T11:31:54.985Z</time></trkpt><trkpt lat="30.53357830503907" lon="-6.8355180500012445"><ele>1338.0</ele><time>2026-03-22T11:31:55.985Z</time></trkpt><trkpt lat="30.53352901742514" lon="-6.8352733939293175"><ele>1338.0</ele><time>2026-03-22T11:31:56.985Z</time></trkpt><trkpt lat="30.533464550530287" lon="-6.835061110197243"><ele>1338.6666666666667</ele><time>2026-03-22T11:31:57.985Z</time></trkpt><trkpt lat="30.533387667213425" lon="-6.83484247754698"><ele>1339.3333333333335</ele><time>2026-03-22T11:31:58.985Z</time></trkpt><trkpt lat="30.533299465541592" lon="-6.83461604753247"><ele>1340.0</ele><time>2026-03-22T11:31:59.985Z</time></trkpt><trkpt lat="30.533191730255954" lon="-6.834361165711407"><ele>1341.0</ele><time>2026-03-22T11:32:00.985Z</time></trkpt><trkpt lat="30.53307783874526" lon="-6.83410759220305"><ele>1342.0</ele><time>2026-03-22T11:32:01.985Z</time></trkpt><trkpt lat="30.533012815817667" lon="-6.833879229730652"><ele>1342.0</ele><time>2026-03-22T11:32:02.985Z</time></trkpt><trkpt lat="30.532954231261957" lon="-6.833651203331129"><ele>1342.0</ele><time>2026-03-22T11:32:03.985Z</time></trkpt><trkpt lat="30.53290039255051" lon="-6.833368085779875"><ele>1334.0</ele><time>2026-03-22T11:32:04.985Z</time></trkpt><trkpt lat="30.532844164345057" lon="-6.833098818915202"><ele>1326.0</ele><time>2026-03-22T11:32:05.985Z</time></trkpt><trkpt lat="30.532790622551815" lon="-6.832847676345483"><ele>1325.6666666666667</ele><time>2026-03-22T11:32:06.985Z</time></trkpt><trkpt lat="30.532739230099022" lon="-6.8326090353178515"><ele>1325.3333333333335</ele><time>2026-03-22T11:32:07.985Z</time></trkpt><trkpt lat="30.5326844685182" lon="-6.832365637140418"><ele>1325.0</ele><time>2026-03-22T11:32:08.985Z</time></trkpt><trkpt lat="30.532627912251556" lon="-6.8321098845325885"><ele>1325.0</ele><time>2026-03-22T11:32:09.985Z</time></trkpt><trkpt lat="30.532567392698603" lon="-6.8318524102314635"><ele>1325.0</ele><time>2026-03-22T11:32:10.985Z</time></trkpt><trkpt lat="30.532508014265886" lon="-6.831580733978371"><ele>1324.0</ele><time>2026-03-22T11:32:11.985Z</time></trkpt><trkpt lat="30.53244525416726" lon="-6.8313149406584195"><ele>1323.0</ele><time>2026-03-22T11:32:12.985Z</time></trkpt><trkpt lat="30.53238471911035" lon="-6.831057783254145"><ele>1322.0</ele><time>2026-03-22T11:32:13.985Z</time></trkpt><trkpt lat="30.53233119903513" lon="-6.830804722805321"><ele>1321.0</ele><time>2026-03-22T11:32:14.985Z</time></trkpt><trkpt lat="30.532274292119368" lon="-6.830550584606409"><ele>1321.0</ele><time>2026-03-22T11:32:15.985Z</time></trkpt><trkpt lat="30.532208852022826" lon="-6.830262283024349"><ele>1321.0</ele><time>2026-03-22T11:32:16.985Z</time></trkpt><trkpt lat="30.53214941950715" lon="-6.830010393766936"><ele>1320.0</ele><time>2026-03-22T11:32:17.985Z</time></trkpt><trkpt lat="30.532098755714987" lon="-6.829768470044999"><ele>1319.0</ele><time>2026-03-22T11:32:18.985Z</time></trkpt><trkpt lat="30.53204817716522" lon="-6.829531106379094"><ele>1318.0</ele><time>2026-03-22T11:32:19.985Z</time></trkpt><trkpt lat="30.532004518097466" lon="-6.829314215164513"><ele>1318.0</ele><time>2026-03-22T11:32:20.985Z</time></trkpt><trkpt lat="30.53196485191668" lon="-6.829109228111553"><ele>1318.0</ele><time>2026-03-22T11:32:21.985Z</time></trkpt><trkpt lat="30.531928127155254" lon="-6.828918472960586"><ele>1318.0</ele><time>2026-03-22T11:32:22.985Z</time></trkpt><trkpt lat="30.53189355928783" lon="-6.82873405309402"><ele>1318.0</ele><time>2026-03-22T11:32:23.985Z</time></trkpt><trkpt lat="30.531855612078164" lon="-6.828537038281373"><ele>1318.0</ele><time>2026-03-22T11:32:24.985Z</time></trkpt><trkpt lat="30.531811393225162" lon="-6.828341912006927"><ele>1318.0</ele><time>2026-03-22T11:32:25.985Z</time></trkpt><trkpt lat="30.53177197196783" lon="-6.828157873954265"><ele>1317.6666666666665</ele><time>2026-03-22T11:32:26.985Z</time></trkpt><trkpt lat="30.531730134084075" lon="-6.827967712506893"><ele>1317.3333333333333</ele><time>2026-03-22T11:32:27.985Z</time></trkpt><trkpt lat="30.531687373837972" lon="-6.827787576180381"><ele>1317.0</ele><time>2026-03-22T11:32:28.985Z</time></trkpt><trkpt lat="30.531650704155957" lon="-6.827610758116538"><ele>1315.0</ele><time>2026-03-22T11:32:29.985Z</time></trkpt><trkpt lat="30.531609427061024" lon="-6.8274268823570825"><ele>1313.0</ele><time>2026-03-22T11:32:30.985Z</time></trkpt><trkpt lat="30.531570358807496" lon="-6.82723766569925"><ele>1311.0</ele><time>2026-03-22T11:32:31.985Z</time></trkpt><trkpt lat="30.53153349602256" lon="-6.827057673520403"><ele>1311.0</ele><time>2026-03-22T11:32:32.985Z</time></trkpt><trkpt lat="30.531492574931196" lon="-6.8268671788419"><ele>1311.0</ele><time>2026-03-22T11:32:33.985Z</time></trkpt><trkpt lat="30.53143324789779" lon="-6.8266801572321825"><ele>1311.0</ele><time>2026-03-22T11:32:34.985Z</time></trkpt><trkpt lat="30.531379611560826" lon="-6.826480212210354"><ele>1311.0</ele><time>2026-03-22T11:32:35.985Z</time></trkpt><trkpt lat="30.531329356833837" lon="-6.826273724784634"><ele>1311.0</ele><time>2026-03-22T11:32:36.985Z</time></trkpt><trkpt lat="30.531278075613205" lon="-6.826054985538204"><ele>1311.0</ele><time>2026-03-22T11:32:37.985Z</time></trkpt><trkpt lat="30.531224341956364" lon="-6.825825158184926"><ele>1314.6666666666667</ele><time>2026-03-22T11:32:38.985Z</time></trkpt><trkpt lat="30.531167354615217" lon="-6.8255807267901565"><ele>1318.3333333333335</ele><time>2026-03-22T11:32:39.985Z</time></trkpt><trkpt lat="30.531109170930492" lon="-6.825329638307505"><ele>1322.0</ele><time>2026-03-22T11:32:40.985Z</time></trkpt><trkpt lat="30.53104732266718" lon="-6.825063594328448"><ele>1322.0</ele><time>2026-03-22T11:32:41.985Z</time></trkpt><trkpt lat="30.530992510382802" lon="-6.824807923870757"><ele>1322.0</ele><time>2026-03-22T11:32:42.985Z</time></trkpt><trkpt lat="30.530900140213664" lon="-6.82455672762388"><ele>1321.0</ele><time>2026-03-22T11:32:43.985Z</time></trkpt><trkpt lat="30.530796413414407" lon="-6.824307774024438"><ele>1320.0</ele><time>2026-03-22T11:32:44.986Z</time></trkpt><trkpt lat="30.530682351354212" lon="-6.824062657940399"><ele>1320.0</ele><time>2026-03-22T11:32:45.985Z</time></trkpt><trkpt lat="30.53076700997285" lon="-6.824095563466042"><ele>1320.0</ele><time>2026-03-22T11:32:46.985Z</time></trkpt><trkpt lat="30.530670895607177" lon="-6.823987069509394"><ele>1320.0</ele><time>2026-03-22T11:32:47.985Z</time></trkpt><trkpt lat="30.530566267966144" lon="-6.823918518309641"><ele>1320.0</ele><time>2026-03-22T11:32:48.986Z</time></trkpt><trkpt lat="30.530465029235373" lon="-6.823903632626293"><ele>1320.0</ele><time>2026-03-22T11:32:49.986Z</time></trkpt><trkpt lat="30.53036890450441" lon="-6.823904352010258"><ele>1322.0</ele><time>2026-03-22T11:32:50.985Z</time></trkpt><trkpt lat="30.53027319269582" lon="-6.82393791744973"><ele>1324.0</ele><time>2026-03-22T11:32:51.986Z</time></trkpt><trkpt lat="30.530178500150782" lon="-6.824003004312208"><ele>1326.0</ele><time>2026-03-22T11:32:52.986Z</time></trkpt><trkpt lat="30.53004164720023" lon="-6.82410878687314"><ele>1328.0</ele><time>2026-03-22T11:32:53.985Z</time></trkpt><trkpt lat="30.529905129363875" lon="-6.824233716856046"><ele>1332.0</ele><time>2026-03-22T11:32:54.985Z</time></trkpt><trkpt lat="30.529744086958555" lon="-6.824380348306155"><ele>1336.0</ele><time>2026-03-22T11:32:55.985Z</time></trkpt><trkpt lat="30.529581453793234" lon="-6.8245000183459155"><ele>1340.0</ele><time>2026-03-22T11:32:56.985Z</time></trkpt><trkpt lat="30.529425309810236" lon="-6.824576741930828"><ele>1341.0</ele><time>2026-03-22T11:32:57.985Z</time></trkpt><trkpt lat="30.52926939607799" lon="-6.824609403750524"><ele>1342.0</ele><time>2026-03-22T11:32:58.985Z</time></trkpt><trkpt lat="30.52909524195588" lon="-6.824571498541034"><ele>1343.0</ele><time>2026-03-22T11:32:59.985Z</time></trkpt><trkpt lat="30.52894920723785" lon="-6.824552548527112"><ele>1343.0</ele><time>2026-03-22T11:33:00.985Z</time></trkpt><trkpt lat="30.528801995811058" lon="-6.824538374500492"><ele>1343.0</ele><time>2026-03-22T11:33:01.985Z</time></trkpt><trkpt lat="30.528651989838924" lon="-6.824526544895001"><ele>1343.0</ele><time>2026-03-22T11:33:02.985Z</time></trkpt><trkpt lat="30.528503235801807" lon="-6.824526447174571"><ele>1343.0</ele><time>2026-03-22T11:33:03.985Z</time></trkpt><trkpt lat="30.528348114660766" lon="-6.824529259842549"><ele>1342.6666666666667</ele><time>2026-03-22T11:33:04.985Z</time></trkpt><trkpt lat="30.52818295114283" lon="-6.824535424635602"><ele>1342.3333333333333</ele><time>2026-03-22T11:33:05.985Z</time></trkpt><trkpt lat="30.528015297369556" lon="-6.824546231190721"><ele>1342.0</ele><time>2026-03-22T11:33:06.985Z</time></trkpt><trkpt lat="30.527844987298014" lon="-6.824567701428994"><ele>1340.0</ele><time>2026-03-22T11:33:07.985Z</time></trkpt><trkpt lat="30.527670204986105" lon="-6.824590389093654"><ele>1338.0</ele><time>2026-03-22T11:33:08.985Z</time></trkpt><trkpt lat="30.527502064805933" lon="-6.82461158252713"><ele>1336.0</ele><time>2026-03-22T11:33:09.985Z</time></trkpt><trkpt lat="30.527333241697665" lon="-6.8246203769020815"><ele>1336.0</ele><time>2026-03-22T11:33:10.985Z</time></trkpt><trkpt lat="30.527138913124784" lon="-6.824591301713755"><ele>1336.0</ele><time>2026-03-22T11:33:11.985Z</time></trkpt><trkpt lat="30.526972260437233" lon="-6.824516995908247"><ele>1336.0</ele><time>2026-03-22T11:33:12.985Z</time></trkpt><trkpt lat="30.52682844313686" lon="-6.824431872667941"><ele>1338.6666666666665</ele><time>2026-03-22T11:33:13.985Z</time></trkpt><trkpt lat="30.526700623699135" lon="-6.824328422464575"><ele>1341.3333333333333</ele><time>2026-03-22T11:33:14.985Z</time></trkpt><trkpt lat="30.526606897281" lon="-6.824184673917025"><ele>1344.0</ele><time>2026-03-22T11:33:15.985Z</time></trkpt><trkpt lat="30.526539606151015" lon="-6.8240089731347515"><ele>1345.3333333333333</ele><time>2026-03-22T11:33:16.985Z</time></trkpt><trkpt lat="30.526481829380636" lon="-6.8238187665255685"><ele>1346.6666666666665</ele><time>2026-03-22T11:33:17.985Z</time></trkpt><trkpt lat="30.52644300592114" lon="-6.82361440334489"><ele>1348.0</ele><time>2026-03-22T11:33:18.985Z</time></trkpt><trkpt lat="30.526404377982107" lon="-6.823412757713038"><ele>1349.3333333333333</ele><time>2026-03-22T11:33:19.985Z</time></trkpt><trkpt lat="30.526355497476207" lon="-6.823216995381815"><ele>1350.6666666666667</ele><time>2026-03-22T11:33:20.985Z</time></trkpt><trkpt lat="30.526303243238143" lon="-6.823020029196407"><ele>1352.0</ele><time>2026-03-22T11:33:21.985Z</time></trkpt><trkpt lat="30.52625354090403" lon="-6.822821361564986"><ele>1352.3333333333335</ele><time>2026-03-22T11:33:22.985Z</time></trkpt><trkpt lat="30.526207672307798" lon="-6.822623994649611"><ele>1352.6666666666667</ele><time>2026-03-22T11:33:23.985Z</time></trkpt><trkpt lat="30.52614920777335" lon="-6.822402402263652"><ele>1353.0</ele><time>2026-03-22T11:33:24.985Z</time></trkpt><trkpt lat="30.52607922687735" lon="-6.822174841683752"><ele>1353.0</ele><time>2026-03-22T11:33:25.985Z</time></trkpt><trkpt lat="30.526011934522757" lon="-6.821969792989432"><ele>1353.0</ele><time>2026-03-22T11:33:26.985Z</time></trkpt><trkpt lat="30.525924255911963" lon="-6.821789233424473"><ele>1353.0</ele><time>2026-03-22T11:33:27.985Z</time></trkpt><trkpt lat="30.52587418250609" lon="-6.8215987199696215"><ele>1352.0</ele><time>2026-03-22T11:33:28.985Z</time></trkpt><trkpt lat="30.525826453776315" lon="-6.821430714469289"><ele>1351.0</ele><time>2026-03-22T11:33:29.985Z</time></trkpt><trkpt lat="30.525779634699276" lon="-6.821262664484608"><ele>1350.0</ele><time>2026-03-22T11:33:30.985Z</time></trkpt><trkpt lat="30.52573234054125" lon="-6.821094541046371"><ele>1349.75</ele><time>2026-03-22T11:33:31.985Z</time></trkpt><trkpt lat="30.52568965913046" lon="-6.820938300179015"><ele>1349.5</ele><time>2026-03-22T11:33:32.985Z</time></trkpt><trkpt lat="30.525642264506413" lon="-6.820789038680505"><ele>1349.25</ele><time>2026-03-22T11:33:33.985Z</time></trkpt><trkpt lat="30.525596917910264" lon="-6.8206275845364885"><ele>1349.0</ele><time>2026-03-22T11:33:34.985Z</time></trkpt><trkpt lat="30.52555626616993" lon="-6.820473422479757"><ele>1349.0</ele><time>2026-03-22T11:33:35.985Z</time></trkpt><trkpt lat="30.525516870591595" lon="-6.820323475033489"><ele>1349.0</ele><time>2026-03-22T11:33:36.985Z</time></trkpt><trkpt lat="30.52548119951427" lon="-6.820172916753444"><ele>1349.0</ele><time>2026-03-22T11:33:37.985Z</time></trkpt><trkpt lat="30.525437328081544" lon="-6.8200200871699295"><ele>1349.0</ele><time>2026-03-22T11:33:38.985Z</time></trkpt><trkpt lat="30.525390865386036" lon="-6.819861567342269"><ele>1350.25</ele><time>2026-03-22T11:33:39.985Z</time></trkpt><trkpt lat="30.525337407019048" lon="-6.819697302543662"><ele>1351.5</ele><time>2026-03-22T11:33:40.985Z</time></trkpt><trkpt lat="30.52528342769596" lon="-6.819540362366431"><ele>1352.75</ele><time>2026-03-22T11:33:41.985Z</time></trkpt><trkpt lat="30.525238474284304" lon="-6.819385664544201"><ele>1354.0</ele><time>2026-03-22T11:33:42.985Z</time></trkpt><trkpt lat="30.525212594139855" lon="-6.819232050772217"><ele>1354.0</ele><time>2026-03-22T11:33:43.985Z</time></trkpt><trkpt lat="30.52518712714285" lon="-6.819081828088046"><ele>1354.0</ele><time>2026-03-22T11:33:44.985Z</time></trkpt><trkpt lat="30.525178632188187" lon="-6.818927827722625"><ele>1354.0</ele><time>2026-03-22T11:33:45.985Z</time></trkpt><trkpt lat="30.52517547834299" lon="-6.818769203644734"><ele>1354.0</ele><time>2026-03-22T11:33:46.985Z</time></trkpt><trkpt lat="30.525187607412217" lon="-6.818620722820634"><ele>1353.75</ele><time>2026-03-22T11:33:47.985Z</time></trkpt><trkpt lat="30.525202926536018" lon="-6.81847348682277"><ele>1353.5</ele><time>2026-03-22T11:33:48.985Z</time></trkpt><trkpt lat="30.525209591114645" lon="-6.818326963049839"><ele>1353.25</ele><time>2026-03-22T11:33:49.985Z</time></trkpt><trkpt lat="30.525208678671877" lon="-6.818191480244138"><ele>1353.0</ele><time>2026-03-22T11:33:50.985Z</time></trkpt><trkpt lat="30.525183010864758" lon="-6.818052817988698"><ele>1353.0</ele><time>2026-03-22T11:33:51.985Z</time></trkpt><trkpt lat="30.525146772945583" lon="-6.817935672550004"><ele>1353.0</ele><time>2026-03-22T11:33:52.985Z</time></trkpt><trkpt lat="30.52507627010676" lon="-6.817817195109308"><ele>1353.0</ele><time>2026-03-22T11:33:53.985Z</time></trkpt><trkpt lat="30.524991944073957" lon="-6.8176865909005695"><ele>1353.0</ele><time>2026-03-22T11:33:54.985Z</time></trkpt><trkpt lat="30.52489365570723" lon="-6.817563699562821"><ele>1353.75</ele><time>2026-03-22T11:33:55.985Z</time></trkpt><trkpt lat="30.52480604450459" lon="-6.817446451302574"><ele>1354.5</ele><time>2026-03-22T11:33:56.985Z</time></trkpt><trkpt lat="30.524725841749678" lon="-6.8173208869912525"><ele>1355.25</ele><time>2026-03-22T11:33:57.985Z</time></trkpt><trkpt lat="30.524648007850868" lon="-6.817178020005177"><ele>1356.0</ele><time>2026-03-22T11:33:58.985Z</time></trkpt><trkpt lat="30.524571734816554" lon="-6.817009338477739"><ele>1356.3333333333333</ele><time>2026-03-22T11:33:59.985Z</time></trkpt><trkpt lat="30.524520970854965" lon="-6.81682088716518"><ele>1356.6666666666665</ele><time>2026-03-22T11:34:00.985Z</time></trkpt><trkpt lat="30.524477044589425" lon="-6.816641619323392"><ele>1357.0</ele><time>2026-03-22T11:34:01.985Z</time></trkpt><trkpt lat="30.524432136255772" lon="-6.816463359881393"><ele>1357.0</ele><time>2026-03-22T11:34:02.985Z</time></trkpt><trkpt lat="30.5243935052353" lon="-6.816295978375593"><ele>1357.0</ele><time>2026-03-22T11:34:03.985Z</time></trkpt><trkpt lat="30.524362713943013" lon="-6.816127017341907"><ele>1357.0</ele><time>2026-03-22T11:34:04.985Z</time></trkpt><trkpt lat="30.52433480996922" lon="-6.815964770487822"><ele>1357.0</ele><time>2026-03-22T11:34:05.985Z</time></trkpt><trkpt lat="30.524309868049883" lon="-6.815819162253846"><ele>1358.0</ele><time>2026-03-22T11:34:06.985Z</time></trkpt><trkpt lat="30.524280495074816" lon="-6.815666377010029"><ele>1359.0</ele><time>2026-03-22T11:34:07.985Z</time></trkpt><trkpt lat="30.524246586805816" lon="-6.815512246563788"><ele>1360.0</ele><time>2026-03-22T11:34:08.985Z</time></trkpt><trkpt lat="30.524202977716126" lon="-6.815358322799054"><ele>1361.0</ele><time>2026-03-22T11:34:09.985Z</time></trkpt><trkpt lat="30.524150885261022" lon="-6.815193002454595"><ele>1361.0</ele><time>2026-03-22T11:34:10.985Z</time></trkpt><trkpt lat="30.524089626765246" lon="-6.8150188176515565"><ele>1361.0</ele><time>2026-03-22T11:34:11.985Z</time></trkpt><trkpt lat="30.524030810165403" lon="-6.81485213591587"><ele>1361.0</ele><time>2026-03-22T11:34:12.985Z</time></trkpt><trkpt lat="30.523972497458043" lon="-6.814685676153784"><ele>1361.0</ele><time>2026-03-22T11:34:13.985Z</time></trkpt><trkpt lat="30.523918870211382" lon="-6.814513427381542"><ele>1361.0</ele><time>2026-03-22T11:34:14.985Z</time></trkpt><trkpt lat="30.5238796567976" lon="-6.814335384037185"><ele>1361.0</ele><time>2026-03-22T11:34:15.985Z</time></trkpt><trkpt lat="30.523852994715053" lon="-6.814150543364695"><ele>1361.6666666666667</ele><time>2026-03-22T11:34:16.985Z</time></trkpt><trkpt lat="30.523829174752166" lon="-6.813942487014785"><ele>1362.3333333333333</ele><time>2026-03-22T11:34:17.985Z</time></trkpt><trkpt lat="30.523797441860136" lon="-6.813723564715242"><ele>1363.0</ele><time>2026-03-22T11:34:18.985Z</time></trkpt><trkpt lat="30.52376178155692" lon="-6.813519278664647"><ele>1366.3333333333333</ele><time>2026-03-22T11:34:19.985Z</time></trkpt><trkpt lat="30.523724850235823" lon="-6.8133321669058775"><ele>1369.6666666666667</ele><time>2026-03-22T11:34:20.985Z</time></trkpt><trkpt lat="30.523680738721406" lon="-6.8131553644011"><ele>1373.0</ele><time>2026-03-22T11:34:21.985Z</time></trkpt><trkpt lat="30.523626404928358" lon="-6.812991401365915"><ele>1373.0</ele><time>2026-03-22T11:34:22.985Z</time></trkpt><trkpt lat="30.523564580495425" lon="-6.812825377621224"><ele>1373.0</ele><time>2026-03-22T11:34:23.985Z</time></trkpt><trkpt lat="30.523493408543164" lon="-6.8126563469341725"><ele>1373.0</ele><time>2026-03-22T11:34:24.985Z</time></trkpt><trkpt lat="30.52341781304042" lon="-6.812486529752311"><ele>1372.3333333333335</ele><time>2026-03-22T11:34:25.985Z</time></trkpt><trkpt lat="30.523350471064656" lon="-6.8123140731021214"><ele>1371.6666666666667</ele><time>2026-03-22T11:34:26.985Z</time></trkpt><trkpt lat="30.523287130698456" lon="-6.812131170314162"><ele>1371.0</ele><time>2026-03-22T11:34:27.985Z</time></trkpt><trkpt lat="30.52322026591405" lon="-6.811947502532523"><ele>1371.0</ele><time>2026-03-22T11:34:28.985Z</time></trkpt><trkpt lat="30.523146628432155" lon="-6.811769862178897"><ele>1371.0</ele><time>2026-03-22T11:34:29.985Z</time></trkpt><trkpt lat="30.523070965623976" lon="-6.8115899495281"><ele>1371.0</ele><time>2026-03-22T11:34:30.985Z</time></trkpt><trkpt lat="30.52299343333048" lon="-6.8114113683824185"><ele>1371.0</ele><time>2026-03-22T11:34:31.985Z</time></trkpt><trkpt lat="30.522913127733947" lon="-6.811231639128134"><ele>1371.0</ele><time>2026-03-22T11:34:32.985Z</time></trkpt><trkpt lat="30.52283611776589" lon="-6.8110599622765"><ele>1371.0</ele><time>2026-03-22T11:34:33.985Z</time></trkpt><trkpt lat="30.522767713645344" lon="-6.810915138287227"><ele>1372.1666666666667</ele><time>2026-03-22T11:34:34.985Z</time></trkpt><trkpt lat="30.5227106691555" lon="-6.810792441963619"><ele>1373.3333333333333</ele><time>2026-03-22T11:34:35.985Z</time></trkpt><trkpt lat="30.52266386664238" lon="-6.810691472589805"><ele>1374.5</ele><time>2026-03-22T11:34:36.985Z</time></trkpt><trkpt lat="30.522627785566545" lon="-6.810623985480767"><ele>1375.6666666666665</ele><time>2026-03-22T11:34:37.985Z</time></trkpt><trkpt lat="30.522574527311182" lon="-6.8105380134944955"><ele>1376.8333333333333</ele><time>2026-03-22T11:35:20.971Z</time></trkpt><trkpt lat="30.522553899438464" lon="-6.810462495973784"><ele>1378.0</ele><time>2026-03-22T11:35:21.971Z</time></trkpt><trkpt lat="30.52251568325177" lon="-6.8103772847204676"><ele>1378.0</ele><time>2026-03-22T11:35:22.971Z</time></trkpt><trkpt lat="30.52246654401693" lon="-6.810260584408394"><ele>1378.0</ele><time>2026-03-22T11:35:23.97Z</time></trkpt><trkpt lat="30.52241094454336" lon="-6.810131503522889"><ele>1378.0</ele><time>2026-03-22T11:35:24.97Z</time></trkpt><trkpt lat="30.52235518572958" lon="-6.809969188353492"><ele>1378.0</ele><time>2026-03-22T11:35:25.97Z</time></trkpt><trkpt lat="30.52230406787774" lon="-6.8097749036664466"><ele>1377.3333333333333</ele><time>2026-03-22T11:35:26.97Z</time></trkpt><trkpt lat="30.52224996142617" lon="-6.809565036698016"><ele>1376.6666666666667</ele><time>2026-03-22T11:35:27.97Z</time></trkpt><trkpt lat="30.522211415304685" lon="-6.809375623207828"><ele>1376.0</ele><time>2026-03-22T11:35:28.97Z</time></trkpt><trkpt lat="30.522162636810936" lon="-6.809195266829726"><ele>1376.0</ele><time>2026-03-22T11:35:29.97Z</time></trkpt><trkpt lat="30.52208359216674" lon="-6.809016878786365"><ele>1376.0</ele><time>2026-03-22T11:35:30.97Z</time></trkpt><trkpt lat="30.52204168045318" lon="-6.808843134081182"><ele>1376.0</ele><time>2026-03-22T11:35:31.97Z</time></trkpt><trkpt lat="30.522002514095018" lon="-6.808698036097191"><ele>1377.25</ele><time>2026-03-22T11:35:32.97Z</time></trkpt><trkpt lat="30.521939117200066" lon="-6.808587850854095"><ele>1378.5</ele><time>2026-03-22T11:35:33.97Z</time></trkpt><trkpt lat="30.52185956015037" lon="-6.808493136060179"><ele>1379.75</ele><time>2026-03-22T11:35:34.97Z</time></trkpt><trkpt lat="30.521763203463443" lon="-6.808387375709688"><ele>1381.0</ele><time>2026-03-22T11:35:35.97Z</time></trkpt><trkpt lat="30.521698462859597" lon="-6.808270737913128"><ele>1381.1999999999998</ele><time>2026-03-22T11:35:36.97Z</time></trkpt><trkpt lat="30.521636467075865" lon="-6.808160008493689"><ele>1381.3999999999999</ele><time>2026-03-22T11:35:37.97Z</time></trkpt><trkpt lat="30.52157706410989" lon="-6.808062481621633"><ele>1381.6</ele><time>2026-03-22T11:35:38.97Z</time></trkpt><trkpt lat="30.521502137088365" lon="-6.807977460851127"><ele>1381.8</ele><time>2026-03-22T11:35:39.97Z</time></trkpt><trkpt lat="30.521417460369147" lon="-6.807904764817926"><ele>1382.0</ele><time>2026-03-22T11:35:40.97Z</time></trkpt><trkpt lat="30.521325191354773" lon="-6.807841468777961"><ele>1382.3999999999999</ele><time>2026-03-22T11:35:41.97Z</time></trkpt><trkpt lat="30.521230607447873" lon="-6.807792588841424"><ele>1382.8</ele><time>2026-03-22T11:35:42.97Z</time></trkpt><trkpt lat="30.52113960966398" lon="-6.807751234191534"><ele>1383.2</ele><time>2026-03-22T11:35:43.97Z</time></trkpt><trkpt lat="30.521056782770167" lon="-6.807708769850774"><ele>1383.6</ele><time>2026-03-22T11:35:44.97Z</time></trkpt><trkpt lat="30.520981906035562" lon="-6.807673140631124"><ele>1384.0</ele><time>2026-03-22T11:35:45.97Z</time></trkpt><trkpt lat="30.520903294030806" lon="-6.807639125890746"><ele>1382.8333333333333</ele><time>2026-03-22T11:35:46.97Z</time></trkpt><trkpt lat="30.520832975866735" lon="-6.80760732202144"><ele>1381.6666666666665</ele><time>2026-03-22T11:35:47.97Z</time></trkpt><trkpt lat="30.520757221022723" lon="-6.807576008149175"><ele>1380.5</ele><time>2026-03-22T11:35:48.97Z</time></trkpt><trkpt lat="30.520671227524687" lon="-6.807535779981155"><ele>1379.3333333333333</ele><time>2026-03-22T11:35:49.97Z</time></trkpt><trkpt lat="30.520583547171228" lon="-6.80749348158756"><ele>1378.1666666666667</ele><time>2026-03-22T11:35:50.97Z</time></trkpt><trkpt lat="30.520500190142783" lon="-6.807452705885078"><ele>1377.0</ele><time>2026-03-22T11:35:51.97Z</time></trkpt><trkpt lat="30.520423837043587" lon="-6.807416910729706"><ele>1376.6</ele><time>2026-03-22T11:35:52.97Z</time></trkpt><trkpt lat="30.520344498349385" lon="-6.807367465024964"><ele>1376.1999999999998</ele><time>2026-03-22T11:35:53.969Z</time></trkpt><trkpt lat="30.520266058295228" lon="-6.807312190620581"><ele>1375.8</ele><time>2026-03-22T11:35:54.969Z</time></trkpt><trkpt lat="30.520189864989803" lon="-6.80724618215327"><ele>1375.4</ele><time>2026-03-22T11:35:55.969Z</time></trkpt><trkpt lat="30.52011086400925" lon="-6.807184264098011"><ele>1375.0</ele><time>2026-03-22T11:35:56.969Z</time></trkpt><trkpt lat="30.520030556550044" lon="-6.807121750580712"><ele>1375.0</ele><time>2026-03-22T11:35:57.969Z</time></trkpt><trkpt lat="30.519949038176712" lon="-6.807052590155858"><ele>1375.0</ele><time>2026-03-22T11:35:58.969Z</time></trkpt><trkpt lat="30.519870598153062" lon="-6.8069695429662165"><ele>1375.0</ele><time>2026-03-22T11:35:59.969Z</time></trkpt><trkpt lat="30.51978608544149" lon="-6.806876146309738"><ele>1375.0</ele><time>2026-03-22T11:36:00.969Z</time></trkpt><trkpt lat="30.519708048483974" lon="-6.806771142978018"><ele>1375.0</ele><time>2026-03-22T11:36:01.969Z</time></trkpt><trkpt lat="30.51963150527263" lon="-6.806670100464859"><ele>1373.25</ele><time>2026-03-22T11:36:02.969Z</time></trkpt><trkpt lat="30.51954494120979" lon="-6.806561315060126"><ele>1371.5</ele><time>2026-03-22T11:36:03.969Z</time></trkpt><trkpt lat="30.519449762253625" lon="-6.806442285922132"><ele>1369.75</ele><time>2026-03-22T11:36:04.969Z</time></trkpt><trkpt lat="30.519352702985607" lon="-6.806326484735988"><ele>1368.0</ele><time>2026-03-22T11:36:05.969Z</time></trkpt><trkpt lat="30.519233905297735" lon="-6.806178408984266"><ele>1368.0</ele><time>2026-03-22T11:36:06.969Z</time></trkpt><trkpt lat="30.519156725168536" lon="-6.8060108398514325"><ele>1368.0</ele><time>2026-03-22T11:36:07.969Z</time></trkpt><trkpt lat="30.519087265939078" lon="-6.805908158025033"><ele>1368.0</ele><time>2026-03-22T11:36:08.969Z</time></trkpt><trkpt lat="30.519039164183148" lon="-6.8057958264746645"><ele>1368.0</ele><time>2026-03-22T11:36:09.969Z</time></trkpt><trkpt lat="30.51897569735701" lon="-6.805672176243314"><ele>1367.5</ele><time>2026-03-22T11:36:10.969Z</time></trkpt><trkpt lat="30.518882159047717" lon="-6.805566600649188"><ele>1367.0</ele><time>2026-03-22T11:36:11.969Z</time></trkpt><trkpt lat="30.518764766967113" lon="-6.8054586443076905"><ele>1366.5</ele><time>2026-03-22T11:36:12.969Z</time></trkpt><trkpt lat="30.51865794761168" lon="-6.805347576322379"><ele>1366.0</ele><time>2026-03-22T11:36:13.969Z</time></trkpt><trkpt lat="30.518558338200442" lon="-6.80522924354713"><ele>1365.75</ele><time>2026-03-22T11:36:14.969Z</time></trkpt><trkpt lat="30.518476561174978" lon="-6.805098521873113"><ele>1365.5</ele><time>2026-03-22T11:36:15.969Z</time></trkpt><trkpt lat="30.51841134278447" lon="-6.804952905013531"><ele>1365.25</ele><time>2026-03-22T11:36:16.969Z</time></trkpt><trkpt lat="30.518345056603536" lon="-6.804806417438942"><ele>1365.0</ele><time>2026-03-22T11:36:17.969Z</time></trkpt><trkpt lat="30.51828062831068" lon="-6.80466789610945"><ele>1365.0</ele><time>2026-03-22T11:36:18.969Z</time></trkpt><trkpt lat="30.518204384144436" lon="-6.804534216118044"><ele>1365.0</ele><time>2026-03-22T11:36:19.969Z</time></trkpt><trkpt lat="30.518109924681347" lon="-6.804411428355113"><ele>1365.0</ele><time>2026-03-22T11:36:20.969Z</time></trkpt><trkpt lat="30.518000616863" lon="-6.804298536379389"><ele>1365.0</ele><time>2026-03-22T11:36:21.969Z</time></trkpt><trkpt lat="30.51788022387262" lon="-6.804187142802824"><ele>1364.0</ele><time>2026-03-22T11:36:22.969Z</time></trkpt><trkpt lat="30.51775846037963" lon="-6.804081961813371"><ele>1363.0</ele><time>2026-03-22T11:36:23.969Z</time></trkpt><trkpt lat="30.517635871683282" lon="-6.803972932375655"><ele>1362.0</ele><time>2026-03-22T11:36:24.969Z</time></trkpt><trkpt lat="30.51751453765919" lon="-6.803848132873515"><ele>1362.0</ele><time>2026-03-22T11:36:25.969Z</time></trkpt><trkpt lat="30.51739137006018" lon="-6.803717253498332"><ele>1362.0</ele><time>2026-03-22T11:36:26.969Z</time></trkpt><trkpt lat="30.517271459227416" lon="-6.803587618477928"><ele>1362.0</ele><time>2026-03-22T11:36:27.969Z</time></trkpt><trkpt lat="30.517145816806426" lon="-6.8034565705006385"><ele>1361.0</ele><time>2026-03-22T11:36:28.969Z</time></trkpt><trkpt lat="30.517019783749554" lon="-6.803319510345092"><ele>1360.0</ele><time>2026-03-22T11:36:29.969Z</time></trkpt><trkpt lat="30.51690981781843" lon="-6.803208242272241"><ele>1359.0</ele><time>2026-03-22T11:36:30.969Z</time></trkpt><trkpt lat="30.516809261751956" lon="-6.803098783332275"><ele>1359.0</ele><time>2026-03-22T11:36:31.969Z</time></trkpt><trkpt lat="30.51672292395324" lon="-6.802985823993737"><ele>1359.0</ele><time>2026-03-22T11:36:32.969Z</time></trkpt><trkpt lat="30.51664509897694" lon="-6.802873122372074"><ele>1359.0</ele><time>2026-03-22T11:36:33.969Z</time></trkpt><trkpt lat="30.516582299110564" lon="-6.80276948664763"><ele>1359.0</ele><time>2026-03-22T11:36:34.969Z</time></trkpt><trkpt lat="30.516529445643254" lon="-6.802669822059456"><ele>1358.6</ele><time>2026-03-22T11:36:35.969Z</time></trkpt><trkpt lat="30.516483780220273" lon="-6.802560433316593"><ele>1358.2</ele><time>2026-03-22T11:36:36.969Z</time></trkpt><trkpt lat="30.516441892021945" lon="-6.8024465520289175"><ele>1357.8</ele><time>2026-03-22T11:36:37.969Z</time></trkpt><trkpt lat="30.516376409708894" lon="-6.802344223564166"><ele>1357.3999999999999</ele><time>2026-03-22T11:36:38.969Z</time></trkpt><trkpt lat="30.51631473470632" lon="-6.802249175970196"><ele>1357.0</ele><time>2026-03-22T11:36:39.969Z</time></trkpt><trkpt lat="30.516261530297932" lon="-6.802157061189426"><ele>1356.8</ele><time>2026-03-22T11:36:40.969Z</time></trkpt><trkpt lat="30.516219952087514" lon="-6.802076576363378"><ele>1356.6</ele><time>2026-03-22T11:36:41.969Z</time></trkpt><trkpt lat="30.516191110650855" lon="-6.802002449518923"><ele>1356.3999999999999</ele><time>2026-03-22T11:36:42.969Z</time></trkpt><trkpt lat="30.516172202096655" lon="-6.801857228721765"><ele>1356.1999999999998</ele><time>2026-03-22T11:36:44.969Z</time></trkpt><trkpt lat="30.5161704977504" lon="-6.801762799522887"><ele>1356.0</ele><time>2026-03-22T11:36:45.969Z</time></trkpt><trkpt lat="30.516168317423126" lon="-6.801645949441177"><ele>1355.6</ele><time>2026-03-22T11:36:46.969Z</time></trkpt><trkpt lat="30.516156785873257" lon="-6.801531560902666"><ele>1355.1999999999998</ele><time>2026-03-22T11:36:47.969Z</time></trkpt><trkpt lat="30.516145402621547" lon="-6.801422416627337"><ele>1354.8000000000002</ele><time>2026-03-22T11:36:48.969Z</time></trkpt><trkpt lat="30.51612429194996" lon="-6.801324123189137"><ele>1354.4</ele><time>2026-03-22T11:36:49.969Z</time></trkpt><trkpt lat="30.516093913586396" lon="-6.8012244711761705"><ele>1354.0</ele><time>2026-03-22T11:36:50.969Z</time></trkpt><trkpt lat="30.516057714569307" lon="-6.8011228870068985"><ele>1354.0</ele><time>2026-03-22T11:36:51.969Z</time></trkpt><trkpt lat="30.516021157761855" lon="-6.801022821700815"><ele>1354.0</ele><time>2026-03-22T11:36:52.969Z</time></trkpt><trkpt lat="30.515988455556233" lon="-6.8009196008676716"><ele>1354.0</ele><time>2026-03-22T11:36:53.969Z</time></trkpt><trkpt lat="30.5159587847937" lon="-6.800805826261998"><ele>1354.0</ele><time>2026-03-22T11:36:54.969Z</time></trkpt><trkpt lat="30.51593350021024" lon="-6.800691320265254"><ele>1354.0</ele><time>2026-03-22T11:36:55.969Z</time></trkpt><trkpt lat="30.51590651772349" lon="-6.80056786994012"><ele>1354.5</ele><time>2026-03-22T11:36:56.969Z</time></trkpt><trkpt lat="30.51588404599922" lon="-6.8004422572988075"><ele>1355.0</ele><time>2026-03-22T11:36:57.969Z</time></trkpt><trkpt lat="30.51586239011821" lon="-6.80031088292904"><ele>1355.5</ele><time>2026-03-22T11:36:58.969Z</time></trkpt><trkpt lat="30.515846225181416" lon="-6.800188920758429"><ele>1356.0</ele><time>2026-03-22T11:36:59.969Z</time></trkpt><trkpt lat="30.51581997618228" lon="-6.800056015811705"><ele>1356.25</ele><time>2026-03-22T11:37:00.969Z</time></trkpt><trkpt lat="30.515783954356554" lon="-6.799915915392911"><ele>1356.5</ele><time>2026-03-22T11:37:01.969Z</time></trkpt><trkpt lat="30.51575218669147" lon="-6.799785479732754"><ele>1356.75</ele><time>2026-03-22T11:37:02.969Z</time></trkpt><trkpt lat="30.515713698498544" lon="-6.799662466746071"><ele>1357.0</ele><time>2026-03-22T11:37:03.969Z</time></trkpt><trkpt lat="30.515673963160605" lon="-6.799522805561819"><ele>1357.0</ele><time>2026-03-22T11:37:04.969Z</time></trkpt><trkpt lat="30.515626834647964" lon="-6.7993613067918295"><ele>1357.0</ele><time>2026-03-22T11:37:05.969Z</time></trkpt><trkpt lat="30.515577883380097" lon="-6.799215890306554"><ele>1357.0</ele><time>2026-03-22T11:37:06.969Z</time></trkpt><trkpt lat="30.515542802387678" lon="-6.799081392974573"><ele>1357.0</ele><time>2026-03-22T11:37:07.969Z</time></trkpt><trkpt lat="30.51551209972696" lon="-6.798943383029131"><ele>1356.75</ele><time>2026-03-22T11:37:08.969Z</time></trkpt><trkpt lat="30.515491300749662" lon="-6.798809101456546"><ele>1356.5</ele><time>2026-03-22T11:37:09.969Z</time></trkpt><trkpt lat="30.515472113471986" lon="-6.798664442182782"><ele>1356.25</ele><time>2026-03-22T11:37:10.969Z</time></trkpt><trkpt lat="30.515463003609334" lon="-6.798523263398959"><ele>1356.0</ele><time>2026-03-22T11:37:11.969Z</time></trkpt><trkpt lat="30.51546673057443" lon="-6.798387906954249"><ele>1356.0</ele><time>2026-03-22T11:37:12.969Z</time></trkpt><trkpt lat="30.51547322079736" lon="-6.7982520836116604"><ele>1356.0</ele><time>2026-03-22T11:37:13.969Z</time></trkpt><trkpt lat="30.5154794291908" lon="-6.798118987649172"><ele>1356.0</ele><time>2026-03-22T11:37:14.969Z</time></trkpt><trkpt lat="30.51549405968403" lon="-6.7979736777323305"><ele>1356.0</ele><time>2026-03-22T11:37:15.969Z</time></trkpt><trkpt lat="30.515516789323176" lon="-6.797814348431193"><ele>1355.75</ele><time>2026-03-22T11:37:16.969Z</time></trkpt><trkpt lat="30.515528177927468" lon="-6.797651764793359"><ele>1355.5</ele><time>2026-03-22T11:37:17.969Z</time></trkpt><trkpt lat="30.515524046134534" lon="-6.797493473772305"><ele>1355.25</ele><time>2026-03-22T11:37:18.969Z</time></trkpt><trkpt lat="30.515532038397293" lon="-6.797318742847142"><ele>1355.0</ele><time>2026-03-22T11:37:19.969Z</time></trkpt><trkpt lat="30.51555567763226" lon="-6.79713407120376"><ele>1355.0</ele><time>2026-03-22T11:37:20.969Z</time></trkpt><trkpt lat="30.515593196413" lon="-6.7969657897038775"><ele>1355.0</ele><time>2026-03-22T11:37:21.969Z</time></trkpt><trkpt lat="30.515626926564856" lon="-6.796812945773209"><ele>1355.0</ele><time>2026-03-22T11:37:22.969Z</time></trkpt><trkpt lat="30.515653183915482" lon="-6.796676084568347"><ele>1355.0</ele><time>2026-03-22T11:37:23.969Z</time></trkpt><trkpt lat="30.515671930032195" lon="-6.796551500357004"><ele>1354.5</ele><time>2026-03-22T11:37:24.969Z</time></trkpt><trkpt lat="30.51569098084515" lon="-6.796425745914696"><ele>1354.0</ele><time>2026-03-22T11:37:25.969Z</time></trkpt><trkpt lat="30.515711748105407" lon="-6.796303076095684"><ele>1353.5</ele><time>2026-03-22T11:37:26.969Z</time></trkpt><trkpt lat="30.515726763876145" lon="-6.796170215131059"><ele>1353.0</ele><time>2026-03-22T11:37:27.969Z</time></trkpt><trkpt lat="30.51573016700068" lon="-6.796026130867673"><ele>1352.5</ele><time>2026-03-22T11:37:28.969Z</time></trkpt><trkpt lat="30.5157172397752" lon="-6.795863361508074"><ele>1352.0</ele><time>2026-03-22T11:37:29.969Z</time></trkpt><trkpt lat="30.515683830306575" lon="-6.795690353635087"><ele>1351.5</ele><time>2026-03-22T11:37:30.969Z</time></trkpt><trkpt lat="30.515647497250665" lon="-6.795530297747346"><ele>1351.0</ele><time>2026-03-22T11:37:31.969Z</time></trkpt><trkpt lat="30.515609967438028" lon="-6.795376959597592"><ele>1351.0</ele><time>2026-03-22T11:37:32.969Z</time></trkpt><trkpt lat="30.515586563878102" lon="-6.795231647225119"><ele>1351.0</ele><time>2026-03-22T11:37:33.969Z</time></trkpt><trkpt lat="30.5155783883205" lon="-6.79508049309527"><ele>1351.0</ele><time>2026-03-22T11:37:34.969Z</time></trkpt><trkpt lat="30.515574937287994" lon="-6.794916458473115"><ele>1351.0</ele><time>2026-03-22T11:37:35.969Z</time></trkpt><trkpt lat="30.51557146910901" lon="-6.794757897317634"><ele>1350.75</ele><time>2026-03-22T11:37:36.969Z</time></trkpt><trkpt lat="30.51555496359439" lon="-6.794606220185844"><ele>1350.5</ele><time>2026-03-22T11:37:37.969Z</time></trkpt><trkpt lat="30.515524827436206" lon="-6.794462212356941"><ele>1350.25</ele><time>2026-03-22T11:37:38.969Z</time></trkpt><trkpt lat="30.51548717900815" lon="-6.794312320755678"><ele>1350.0</ele><time>2026-03-22T11:37:39.969Z</time></trkpt><trkpt lat="30.515454536680988" lon="-6.794173032051388"><ele>1349.8</ele><time>2026-03-22T11:37:40.969Z</time></trkpt><trkpt lat="30.51542987792124" lon="-6.7940411794697635"><ele>1349.6</ele><time>2026-03-22T11:37:41.969Z</time></trkpt><trkpt lat="30.515414106577666" lon="-6.793913263300642"><ele>1349.4</ele><time>2026-03-22T11:37:42.969Z</time></trkpt><trkpt lat="30.515400875282754" lon="-6.793792273066595"><ele>1349.2</ele><time>2026-03-22T11:37:43.969Z</time></trkpt><trkpt lat="30.515398999885477" lon="-6.793689602753295"><ele>1349.0</ele><time>2026-03-22T11:37:44.969Z</time></trkpt><trkpt lat="30.515389700790546" lon="-6.793587872162088"><ele>1348.6</ele><time>2026-03-22T11:37:45.969Z</time></trkpt><trkpt lat="30.51536881756395" lon="-6.793473630045572"><ele>1348.2</ele><time>2026-03-22T11:37:46.969Z</time></trkpt><trkpt lat="30.51534131525298" lon="-6.793343421881139"><ele>1347.8</ele><time>2026-03-22T11:37:47.969Z</time></trkpt><trkpt lat="30.51530096242745" lon="-6.793214988834351"><ele>1347.3999999999999</ele><time>2026-03-22T11:37:48.969Z</time></trkpt><trkpt lat="30.51526259679478" lon="-6.793089495000475"><ele>1347.0</ele><time>2026-03-22T11:37:49.969Z</time></trkpt><trkpt lat="30.515230720649974" lon="-6.7929664177411935"><ele>1347.0</ele><time>2026-03-22T11:37:50.969Z</time></trkpt><trkpt lat="30.515207995888368" lon="-6.79284767552905"><ele>1347.0</ele><time>2026-03-22T11:37:51.969Z</time></trkpt><trkpt lat="30.515184741002724" lon="-6.7927290339404465"><ele>1347.0</ele><time>2026-03-22T11:37:52.969Z</time></trkpt><trkpt lat="30.515168261788283" lon="-6.792600218082327"><ele>1347.0</ele><time>2026-03-22T11:37:53.969Z</time></trkpt><trkpt lat="30.515153540060332" lon="-6.7924659260782185"><ele>1347.0</ele><time>2026-03-22T11:37:54.969Z</time></trkpt><trkpt lat="30.51514125065186" lon="-6.792331293801472"><ele>1347.25</ele><time>2026-03-22T11:37:55.969Z</time></trkpt><trkpt lat="30.515126148785214" lon="-6.79219083524647"><ele>1347.5</ele><time>2026-03-22T11:37:56.969Z</time></trkpt><trkpt lat="30.515124122352255" lon="-6.79206266204461"><ele>1347.75</ele><time>2026-03-22T11:37:57.969Z</time></trkpt><trkpt lat="30.515144616730044" lon="-6.791938530423644"><ele>1348.0</ele><time>2026-03-22T11:37:58.969Z</time></trkpt><trkpt lat="30.51515570129551" lon="-6.791804142494217"><ele>1347.5</ele><time>2026-03-22T11:37:59.969Z</time></trkpt><trkpt lat="30.51515688325993" lon="-6.791659792030356"><ele>1347.0</ele><time>2026-03-22T11:38:00.969Z</time></trkpt><trkpt lat="30.515177016382705" lon="-6.791525955525543"><ele>1346.5</ele><time>2026-03-22T11:38:01.969Z</time></trkpt><trkpt lat="30.51520088724004" lon="-6.791383573257288"><ele>1346.0</ele><time>2026-03-22T11:38:02.969Z</time></trkpt><trkpt lat="30.515231740756942" lon="-6.791254026898264"><ele>1346.0</ele><time>2026-03-22T11:38:03.969Z</time></trkpt><trkpt lat="30.5152345214718" lon="-6.791129375347642"><ele>1346.0</ele><time>2026-03-22T11:38:04.969Z</time></trkpt><trkpt lat="30.51521623963453" lon="-6.790996093796487"><ele>1346.0</ele><time>2026-03-22T11:38:05.969Z</time></trkpt><trkpt lat="30.515209970357017" lon="-6.7908544897825465"><ele>1346.0</ele><time>2026-03-22T11:38:06.968Z</time></trkpt><trkpt lat="30.515220870478863" lon="-6.7907055470817035"><ele>1346.3333333333335</ele><time>2026-03-22T11:38:07.968Z</time></trkpt><trkpt lat="30.51526492203541" lon="-6.790535813334989"><ele>1346.6666666666667</ele><time>2026-03-22T11:38:08.968Z</time></trkpt><trkpt lat="30.51532472584003" lon="-6.7903675047398835"><ele>1347.0</ele><time>2026-03-22T11:38:09.968Z</time></trkpt><trkpt lat="30.515394680157385" lon="-6.790226525107063"><ele>1347.0</ele><time>2026-03-22T11:38:10.968Z</time></trkpt><trkpt lat="30.515493665058973" lon="-6.790081012207831"><ele>1347.0</ele><time>2026-03-22T11:38:11.968Z</time></trkpt><trkpt lat="30.51559371758931" lon="-6.789939726750348"><ele>1347.0</ele><time>2026-03-22T11:38:12.968Z</time></trkpt><trkpt lat="30.515679854676094" lon="-6.789792403039566"><ele>1347.0</ele><time>2026-03-22T11:38:13.968Z</time></trkpt><trkpt lat="30.515747076648154" lon="-6.789666766818022"><ele>1347.0</ele><time>2026-03-22T11:38:14.968Z</time></trkpt><trkpt lat="30.515806819215243" lon="-6.789561100495252"><ele>1347.0</ele><time>2026-03-22T11:38:15.968Z</time></trkpt><trkpt lat="30.51586288868768" lon="-6.789463683101787"><ele>1347.0</ele><time>2026-03-22T11:38:16.968Z</time></trkpt><trkpt lat="30.51591433055255" lon="-6.789371538101071"><ele>1347.0</ele><time>2026-03-22T11:38:17.968Z</time></trkpt><trkpt lat="30.51596170702183" lon="-6.789290134925615"><ele>1347.1666666666667</ele><time>2026-03-22T11:38:18.968Z</time></trkpt><trkpt lat="30.51599850198896" lon="-6.7892157795194485"><ele>1347.3333333333333</ele><time>2026-03-22T11:38:19.968Z</time></trkpt><trkpt lat="30.51603408701585" lon="-6.789144305640557"><ele>1347.5</ele><time>2026-03-22T11:38:20.968Z</time></trkpt><trkpt lat="30.51606614524932" lon="-6.789073830235898"><ele>1347.6666666666665</ele><time>2026-03-22T11:38:21.968Z</time></trkpt><trkpt lat="30.516124705914216" lon="-6.788954192820247"><ele>1347.8333333333333</ele><time>2026-03-22T11:38:23.968Z</time></trkpt><trkpt lat="30.51615593549103" lon="-6.788885140024289"><ele>1348.0</ele><time>2026-03-22T11:38:24.968Z</time></trkpt><trkpt lat="30.516191687742324" lon="-6.788815190301419"><ele>1348.2</ele><time>2026-03-22T11:38:25.968Z</time></trkpt><trkpt lat="30.516260669112754" lon="-6.788710813783226"><ele>1348.4</ele><time>2026-03-22T11:38:27.968Z</time></trkpt><trkpt lat="30.516360900732366" lon="-6.788641920574384"><ele>1348.6000000000001</ele><time>2026-03-22T11:38:29.968Z</time></trkpt><trkpt lat="30.516420311325923" lon="-6.788560799800274"><ele>1348.8000000000002</ele><time>2026-03-22T11:38:31.968Z</time></trkpt><trkpt lat="30.51645785200538" lon="-6.788481016118763"><ele>1349.0</ele><time>2026-03-22T11:38:32.968Z</time></trkpt><trkpt lat="30.516501209571956" lon="-6.7884050736761115"><ele>1349.0</ele><time>2026-03-22T11:38:33.968Z</time></trkpt><trkpt lat="30.516564259215283" lon="-6.788335007605034"><ele>1349.0</ele><time>2026-03-22T11:38:34.968Z</time></trkpt><trkpt lat="30.516634584420657" lon="-6.788264510642687"><ele>1349.0</ele><time>2026-03-22T11:38:35.968Z</time></trkpt><trkpt lat="30.516697117172185" lon="-6.788191015802912"><ele>1349.0</ele><time>2026-03-22T11:38:36.968Z</time></trkpt><trkpt lat="30.516742831014657" lon="-6.788119157811796"><ele>1349.0</ele><time>2026-03-22T11:38:37.968Z</time></trkpt><trkpt lat="30.51677524981311" lon="-6.788053704198216"><ele>1349.0</ele><time>2026-03-22T11:38:38.968Z</time></trkpt><trkpt lat="30.51680821876076" lon="-6.787956278248977"><ele>1349.0</ele><time>2026-03-22T11:38:40.968Z</time></trkpt><trkpt lat="30.516836706389768" lon="-6.787870296957427"><ele>1349.0</ele><time>2026-03-22T11:38:42.968Z</time></trkpt><trkpt lat="30.51685164887" lon="-6.787797542865497"><ele>1349.0</ele><time>2026-03-22T11:38:44.968Z</time></trkpt><trkpt lat="30.516905527154897" lon="-6.787758208776423"><ele>1349.0</ele><time>2026-03-22T11:38:47.968Z</time></trkpt><trkpt lat="30.51696878417914" lon="-6.787735729410581"><ele>1349.0</ele><time>2026-03-22T11:38:51.968Z</time></trkpt><trkpt lat="30.51699308536228" lon="-6.7876676930536455"><ele>1349.0</ele><time>2026-03-22T11:38:53.968Z</time></trkpt><trkpt lat="30.51701455771827" lon="-6.787571056229074"><ele>1349.0</ele><time>2026-03-22T11:38:56.968Z</time></trkpt><trkpt lat="30.51701474207845" lon="-6.787484102754354"><ele>1348.8000000000002</ele><time>2026-03-22T11:38:58.968Z</time></trkpt><trkpt lat="30.51702393489225" lon="-6.787392073004743"><ele>1348.6000000000001</ele><time>2026-03-22T11:39:00.968Z</time></trkpt><trkpt lat="30.517037408946923" lon="-6.787265966585693"><ele>1348.4</ele><time>2026-03-22T11:39:02.968Z</time></trkpt><trkpt lat="30.517027996290093" lon="-6.787135720745469"><ele>1348.2</ele><time>2026-03-22T11:39:04.968Z</time></trkpt><trkpt lat="30.517008810035083" lon="-6.787011996094097"><ele>1348.0</ele><time>2026-03-22T11:39:06.969Z</time></trkpt><trkpt lat="30.517008024147458" lon="-6.78693808758926"><ele>1348.0000000000002</ele><time>2026-03-22T11:39:07.969Z</time></trkpt><trkpt lat="30.51700057226717" lon="-6.786863596789311"><ele>1348.0</ele><time>2026-03-22T11:39:08.969Z</time></trkpt><trkpt lat="30.516986969144533" lon="-6.786772754296052"><ele>1348.0</ele><time>2026-03-22T11:39:09.968Z</time></trkpt><trkpt lat="30.51697343044417" lon="-6.786687156869136"><ele>1348.0</ele><time>2026-03-22T11:39:10.968Z</time></trkpt><trkpt lat="30.51696316361515" lon="-6.7866039562523515"><ele>1348.0</ele><time>2026-03-22T11:39:11.969Z</time></trkpt><trkpt lat="30.516955113390324" lon="-6.786517720929495"><ele>1348.0000000000002</ele><time>2026-03-22T11:39:12.968Z</time></trkpt><trkpt lat="30.5169418974653" lon="-6.786431097831207"><ele>1348.0</ele><time>2026-03-22T11:39:13.968Z</time></trkpt><trkpt lat="30.516940569844458" lon="-6.786354036072319"><ele>1347.6000000000001</ele><time>2026-03-22T11:39:14.968Z</time></trkpt><trkpt lat="30.5169300923718" lon="-6.786276388969576"><ele>1347.2</ele><time>2026-03-22T11:39:15.968Z</time></trkpt><trkpt lat="30.51692147017104" lon="-6.786185352483894"><ele>1346.8</ele><time>2026-03-22T11:39:16.968Z</time></trkpt><trkpt lat="30.51693032630126" lon="-6.786066650972291"><ele>1346.4</ele><time>2026-03-22T11:39:17.968Z</time></trkpt><trkpt lat="30.516953379484214" lon="-6.78597055913583"><ele>1346.0</ele><time>2026-03-22T11:39:18.968Z</time></trkpt><trkpt lat="30.516981233738697" lon="-6.785823797057391"><ele>1346.0</ele><time>2026-03-22T11:39:20.968Z</time></trkpt><trkpt lat="30.516991438398662" lon="-6.785717455182418"><ele>1346.0</ele><time>2026-03-22T11:39:21.968Z</time></trkpt><trkpt lat="30.51698300304322" lon="-6.785607982573711"><ele>1346.0</ele><time>2026-03-22T11:39:22.968Z</time></trkpt><trkpt lat="30.516955897218338" lon="-6.78547881060941"><ele>1346.0</ele><time>2026-03-22T11:39:23.968Z</time></trkpt><trkpt lat="30.51691741348733" lon="-6.785339840719986"><ele>1346.0</ele><time>2026-03-22T11:39:24.968Z</time></trkpt><trkpt lat="30.51688018853217" lon="-6.785221807840232"><ele>1347.0</ele><time>2026-03-22T11:39:25.968Z</time></trkpt><trkpt lat="30.51686266014784" lon="-6.785108697456993"><ele>1348.0</ele><time>2026-03-22T11:39:26.968Z</time></trkpt><trkpt lat="30.5168860354501" lon="-6.785006284449004"><ele>1349.0</ele><time>2026-03-22T11:39:27.968Z</time></trkpt><trkpt lat="30.516944067059946" lon="-6.784925088924081"><ele>1350.0</ele><time>2026-03-22T11:39:28.968Z</time></trkpt><trkpt lat="30.517029607331484" lon="-6.784836337153485"><ele>1351.0</ele><time>2026-03-22T11:39:29.968Z</time></trkpt><trkpt lat="30.517116752269047" lon="-6.784715160592567"><ele>1350.75</ele><time>2026-03-22T11:39:30.968Z</time></trkpt><trkpt lat="30.51719754056993" lon="-6.78459288770461"><ele>1350.5</ele><time>2026-03-22T11:39:31.968Z</time></trkpt><trkpt lat="30.517275637796526" lon="-6.784468501342358"><ele>1350.25</ele><time>2026-03-22T11:39:32.968Z</time></trkpt><trkpt lat="30.517357336799538" lon="-6.784338637017694"><ele>1350.0</ele><time>2026-03-22T11:39:33.968Z</time></trkpt><trkpt lat="30.517438149374936" lon="-6.784210423044694"><ele>1350.0</ele><time>2026-03-22T11:39:34.968Z</time></trkpt><trkpt lat="30.517523643973195" lon="-6.784065029538194"><ele>1350.0</ele><time>2026-03-22T11:39:35.968Z</time></trkpt><trkpt lat="30.517596237146694" lon="-6.783900658815991"><ele>1350.0</ele><time>2026-03-22T11:39:36.968Z</time></trkpt><trkpt lat="30.51766841796199" lon="-6.783703213287557"><ele>1350.3333333333333</ele><time>2026-03-22T11:39:37.967Z</time></trkpt><trkpt lat="30.517750318801124" lon="-6.783493099282091"><ele>1350.6666666666665</ele><time>2026-03-22T11:39:38.967Z</time></trkpt><trkpt lat="30.517835213880502" lon="-6.783307838281887"><ele>1351.0</ele><time>2026-03-22T11:39:39.967Z</time></trkpt><trkpt lat="30.517892599223025" lon="-6.7831364650628085"><ele>1355.0</ele><time>2026-03-22T11:39:40.967Z</time></trkpt><trkpt lat="30.51793805650073" lon="-6.782957977154804"><ele>1359.0</ele><time>2026-03-22T11:39:41.967Z</time></trkpt><trkpt lat="30.517991064702027" lon="-6.782740010749584"><ele>1363.0</ele><time>2026-03-22T11:39:42.967Z</time></trkpt><trkpt lat="30.518054628500433" lon="-6.782505567864415"><ele>1363.0</ele><time>2026-03-22T11:39:43.967Z</time></trkpt><trkpt lat="30.51809717222659" lon="-6.7822684375029185"><ele>1363.0</ele><time>2026-03-22T11:39:44.967Z</time></trkpt><trkpt lat="30.51813763799291" lon="-6.782035907219756"><ele>1363.0</ele><time>2026-03-22T11:39:45.967Z</time></trkpt><trkpt lat="30.518177485193384" lon="-6.781839027161764"><ele>1362.5</ele><time>2026-03-22T11:39:46.967Z</time></trkpt><trkpt lat="30.51820011815578" lon="-6.781655890889035"><ele>1362.0</ele><time>2026-03-22T11:39:47.967Z</time></trkpt><trkpt lat="30.51818886092683" lon="-6.781498852126862"><ele>1361.5</ele><time>2026-03-22T11:39:48.967Z</time></trkpt><trkpt lat="30.518170769743143" lon="-6.781357806264333"><ele>1361.0</ele><time>2026-03-22T11:39:49.967Z</time></trkpt><trkpt lat="30.518127517288807" lon="-6.7812200811438155"><ele>1361.0</ele><time>2026-03-22T11:39:50.967Z</time></trkpt><trkpt lat="30.518080425026206" lon="-6.781069719982029"><ele>1361.0</ele><time>2026-03-22T11:39:51.967Z</time></trkpt><trkpt lat="30.518024743745112" lon="-6.780882993780267"><ele>1361.0</ele><time>2026-03-22T11:39:52.967Z</time></trkpt><trkpt lat="30.517985327127505" lon="-6.780674301849025"><ele>1360.6666666666667</ele><time>2026-03-22T11:39:53.967Z</time></trkpt><trkpt lat="30.517979149396723" lon="-6.7804859458397315"><ele>1360.3333333333333</ele><time>2026-03-22T11:39:54.967Z</time></trkpt><trkpt lat="30.51799724341511" lon="-6.780280941410035"><ele>1360.0</ele><time>2026-03-22T11:39:55.967Z</time></trkpt><trkpt lat="30.518025038467172" lon="-6.780090792888249"><ele>1360.0</ele><time>2026-03-22T11:39:56.967Z</time></trkpt><trkpt lat="30.51805538138538" lon="-6.779931527957754"><ele>1360.0</ele><time>2026-03-22T11:39:57.967Z</time></trkpt><trkpt lat="30.518082913371487" lon="-6.779786757947262"><ele>1360.0</ele><time>2026-03-22T11:39:58.967Z</time></trkpt><trkpt lat="30.518115867260985" lon="-6.779657909474783"><ele>1360.0</ele><time>2026-03-22T11:39:59.967Z</time></trkpt><trkpt lat="30.518159278545124" lon="-6.779541115856711"><ele>1360.0</ele><time>2026-03-22T11:40:00.967Z</time></trkpt><trkpt lat="30.518208979509545" lon="-6.779436406346341"><ele>1360.0</ele><time>2026-03-22T11:40:01.967Z</time></trkpt><trkpt lat="30.518242903307954" lon="-6.7793403506741665"><ele>1360.0</ele><time>2026-03-22T11:40:02.967Z</time></trkpt><trkpt lat="30.518266512586436" lon="-6.77924344879999"><ele>1360.0</ele><time>2026-03-22T11:40:03.967Z</time></trkpt><trkpt lat="30.518272927970926" lon="-6.779156916344945"><ele>1360.0</ele><time>2026-03-22T11:40:04.967Z</time></trkpt><trkpt lat="30.518261037375282" lon="-6.779066950760272"><ele>1360.0</ele><time>2026-03-22T11:40:05.967Z</time></trkpt><trkpt lat="30.518234920322026" lon="-6.778949497908617"><ele>1359.6</ele><time>2026-03-22T11:40:06.967Z</time></trkpt><trkpt lat="30.518200471541828" lon="-6.778831023552567"><ele>1359.2</ele><time>2026-03-22T11:40:07.967Z</time></trkpt><trkpt lat="30.518166930625178" lon="-6.778714646727065"><ele>1358.8000000000002</ele><time>2026-03-22T11:40:08.967Z</time></trkpt><trkpt lat="30.518124343011756" lon="-6.7786006307771425"><ele>1358.4</ele><time>2026-03-22T11:40:09.967Z</time></trkpt><trkpt lat="30.518086448810863" lon="-6.77848597275111"><ele>1358.0</ele><time>2026-03-22T11:40:10.967Z</time></trkpt><trkpt lat="30.518061653568648" lon="-6.778372934589187"><ele>1358.0</ele><time>2026-03-22T11:40:11.967Z</time></trkpt><trkpt lat="30.518054868777504" lon="-6.778249707558235"><ele>1358.0</ele><time>2026-03-22T11:40:12.967Z</time></trkpt><trkpt lat="30.518063570672705" lon="-6.778108039422195"><ele>1358.0</ele><time>2026-03-22T11:40:13.967Z</time></trkpt><trkpt lat="30.518103380495504" lon="-6.777970363591778"><ele>1358.0</ele><time>2026-03-22T11:40:14.967Z</time></trkpt><trkpt lat="30.518171382020014" lon="-6.777844670878056"><ele>1358.0</ele><time>2026-03-22T11:40:15.967Z</time></trkpt><trkpt lat="30.51823726516426" lon="-6.777745302535787"><ele>1358.0</ele><time>2026-03-22T11:40:16.967Z</time></trkpt><trkpt lat="30.518280906578994" lon="-6.777646504844054"><ele>1358.0</ele><time>2026-03-22T11:40:17.967Z</time></trkpt><trkpt lat="30.51831660561478" lon="-6.777558716269828"><ele>1358.0</ele><time>2026-03-22T11:40:18.967Z</time></trkpt><trkpt lat="30.51831320040278" lon="-6.777473691717379"><ele>1358.0</ele><time>2026-03-22T11:40:19.967Z</time></trkpt><trkpt lat="30.5182928231155" lon="-6.777388049700131"><ele>1358.0</ele><time>2026-03-22T11:40:20.967Z</time></trkpt><trkpt lat="30.518283793544274" lon="-6.777300877029531"><ele>1357.5</ele><time>2026-03-22T11:40:21.967Z</time></trkpt><trkpt lat="30.51828011919753" lon="-6.777206124106438"><ele>1357.0</ele><time>2026-03-22T11:40:22.967Z</time></trkpt><trkpt lat="30.518281981473788" lon="-6.77711584768471"><ele>1356.5</ele><time>2026-03-22T11:40:23.967Z</time></trkpt><trkpt lat="30.518294780891537" lon="-6.777031808000087"><ele>1356.0</ele><time>2026-03-22T11:40:24.967Z</time></trkpt><trkpt lat="30.5183109069792" lon="-6.776930442378278"><ele>1355.5</ele><time>2026-03-22T11:40:25.967Z</time></trkpt><trkpt lat="30.518322716729426" lon="-6.776817527893478"><ele>1355.0</ele><time>2026-03-22T11:40:26.967Z</time></trkpt><trkpt lat="30.518337311856268" lon="-6.7767094524035585"><ele>1355.0</ele><time>2026-03-22T11:40:27.967Z</time></trkpt><trkpt lat="30.51836124142766" lon="-6.7765900504583305"><ele>1355.0</ele><time>2026-03-22T11:40:28.967Z</time></trkpt><trkpt lat="30.51839999789184" lon="-6.776471319732796"><ele>1355.0</ele><time>2026-03-22T11:40:29.967Z</time></trkpt><trkpt lat="30.51845027932105" lon="-6.776349893820675"><ele>1355.0</ele><time>2026-03-22T11:40:30.967Z</time></trkpt><trkpt lat="30.518473245159257" lon="-6.776229436981184"><ele>1355.0</ele><time>2026-03-22T11:40:31.967Z</time></trkpt><trkpt lat="30.518483281930664" lon="-6.776101467838185"><ele>1354.75</ele><time>2026-03-22T11:40:32.967Z</time></trkpt><trkpt lat="30.518506806928425" lon="-6.7759808233975845"><ele>1354.5</ele><time>2026-03-22T11:40:33.967Z</time></trkpt><trkpt lat="30.518541177045815" lon="-6.7758491232496345"><ele>1354.25</ele><time>2026-03-22T11:40:34.967Z</time></trkpt><trkpt lat="30.518585879705192" lon="-6.775710738934618"><ele>1354.0</ele><time>2026-03-22T11:40:35.967Z</time></trkpt><trkpt lat="30.518618720705067" lon="-6.775538630607109"><ele>1354.0</ele><time>2026-03-22T11:40:36.967Z</time></trkpt><trkpt lat="30.51863447810373" lon="-6.775344784308551"><ele>1354.0</ele><time>2026-03-22T11:40:37.967Z</time></trkpt><trkpt lat="30.51867321332795" lon="-6.77513233062747"><ele>1354.0</ele><time>2026-03-22T11:40:38.967Z</time></trkpt><trkpt lat="30.518708855628525" lon="-6.774971565507499"><ele>1352.0</ele><time>2026-03-22T11:40:39.967Z</time></trkpt><trkpt lat="30.518747963971467" lon="-6.774826978304834"><ele>1350.0</ele><time>2026-03-22T11:40:40.967Z</time></trkpt><trkpt lat="30.518791225893253" lon="-6.77470085844977"><ele>1348.0</ele><time>2026-03-22T11:40:41.967Z</time></trkpt><trkpt lat="30.518833564368787" lon="-6.774586056259318"><ele>1346.0</ele><time>2026-03-22T11:40:42.967Z</time></trkpt><trkpt lat="30.518854758334815" lon="-6.774477011434543"><ele>1346.5</ele><time>2026-03-22T11:40:43.967Z</time></trkpt><trkpt lat="30.518852278613707" lon="-6.77435041522343"><ele>1347.0</ele><time>2026-03-22T11:40:44.967Z</time></trkpt><trkpt lat="30.51882445195322" lon="-6.774193194117318"><ele>1347.5</ele><time>2026-03-22T11:40:45.967Z</time></trkpt><trkpt lat="30.51881852273194" lon="-6.774025074666448"><ele>1348.0</ele><time>2026-03-22T11:40:46.967Z</time></trkpt><trkpt lat="30.51881710304781" lon="-6.773841398374092"><ele>1348.0</ele><time>2026-03-22T11:40:47.967Z</time></trkpt><trkpt lat="30.51882072168895" lon="-6.773672650040901"><ele>1348.0</ele><time>2026-03-22T11:40:48.967Z</time></trkpt><trkpt lat="30.51880830898143" lon="-6.77355337370961"><ele>1348.0</ele><time>2026-03-22T11:40:49.967Z</time></trkpt><trkpt lat="30.518780269001965" lon="-6.773427860762227"><ele>1348.0</ele><time>2026-03-22T11:40:50.967Z</time></trkpt><trkpt lat="30.518734435969932" lon="-6.7732860586567565"><ele>1348.3333333333333</ele><time>2026-03-22T11:40:51.967Z</time></trkpt><trkpt lat="30.51865403826916" lon="-6.773148875961256"><ele>1348.6666666666667</ele><time>2026-03-22T11:40:52.967Z</time></trkpt><trkpt lat="30.51853819613844" lon="-6.773008877845754"><ele>1349.0</ele><time>2026-03-22T11:40:53.967Z</time></trkpt><trkpt lat="30.51842665554756" lon="-6.772862888287001"><ele>1349.0</ele><time>2026-03-22T11:40:54.967Z</time></trkpt><trkpt lat="30.518298157660126" lon="-6.772701336724517"><ele>1349.0</ele><time>2026-03-22T11:40:55.967Z</time></trkpt><trkpt lat="30.5181948609207" lon="-6.772578108069779"><ele>1349.0</ele><time>2026-03-22T11:40:56.967Z</time></trkpt><trkpt lat="30.518105412806854" lon="-6.772478582826243"><ele>1348.8000000000002</ele><time>2026-03-22T11:40:57.967Z</time></trkpt><trkpt lat="30.518032183861315" lon="-6.772378106215943"><ele>1348.6000000000001</ele><time>2026-03-22T11:40:58.967Z</time></trkpt><trkpt lat="30.51796459563665" lon="-6.772284546889323"><ele>1348.4</ele><time>2026-03-22T11:40:59.967Z</time></trkpt><trkpt lat="30.517903064679487" lon="-6.772199646893175"><ele>1348.2</ele><time>2026-03-22T11:41:00.967Z</time></trkpt><trkpt lat="30.517856694600464" lon="-6.7721302971240815"><ele>1348.0</ele><time>2026-03-22T11:41:01.967Z</time></trkpt><trkpt lat="30.517821043131356" lon="-6.772045711518502"><ele>1348.0</ele><time>2026-03-22T11:41:03.967Z</time></trkpt><trkpt lat="30.51780335877612" lon="-6.771964673333401"><ele>1348.0</ele><time>2026-03-22T11:41:06.968Z</time></trkpt><trkpt lat="30.517799751274" lon="-6.77187876788011"><ele>1348.0</ele><time>2026-03-22T11:41:09.968Z</time></trkpt><trkpt lat="30.517780818034375" lon="-6.771767288953481"><ele>1348.0</ele><time>2026-03-22T11:42:41.967Z</time></trkpt><trkpt lat="30.517774730936935" lon="-6.771671493653975"><ele>1348.0</ele><time>2026-03-22T11:42:43.967Z</time></trkpt><trkpt lat="30.517760860543337" lon="-6.771587128638833"><ele>1348.0</ele><time>2026-03-22T11:42:45.967Z</time></trkpt><trkpt lat="30.51778795503909" lon="-6.771506660056434"><ele>1348.8333333333333</ele><time>2026-03-22T11:42:48.967Z</time></trkpt><trkpt lat="30.517851450123437" lon="-6.7715034533239"><ele>1349.6666666666665</ele><time>2026-03-22T11:42:50.967Z</time></trkpt><trkpt lat="30.51795566236601" lon="-6.771512563458919"><ele>1350.5</ele><time>2026-03-22T11:42:52.967Z</time></trkpt><trkpt lat="30.518060075411675" lon="-6.771514777685474"><ele>1351.3333333333333</ele><time>2026-03-22T11:42:54.967Z</time></trkpt><trkpt lat="30.518147820878696" lon="-6.771531274357966"><ele>1352.1666666666667</ele><time>2026-03-22T11:42:56.967Z</time></trkpt><trkpt lat="30.51822370329102" lon="-6.7715619003287255"><ele>1353.0</ele><time>2026-03-22T11:42:58.967Z</time></trkpt><trkpt lat="30.518282982782672" lon="-6.771601116649498"><ele>1353.0</ele><time>2026-03-22T11:43:00.967Z</time></trkpt><trkpt lat="30.518345002335092" lon="-6.771657704148323"><ele>1353.0</ele><time>2026-03-22T11:43:02.967Z</time></trkpt><trkpt lat="30.518430725820316" lon="-6.771729688375553"><ele>1353.0</ele><time>2026-03-22T11:43:04.967Z</time></trkpt><trkpt lat="30.518491282565996" lon="-6.771778330258855"><ele>1353.0</ele><time>2026-03-22T11:43:05.967Z</time></trkpt><trkpt lat="30.518564149328625" lon="-6.771852569038038"><ele>1353.0</ele><time>2026-03-22T11:43:06.967Z</time></trkpt><trkpt lat="30.518641342474595" lon="-6.771943408263111"><ele>1352.5</ele><time>2026-03-22T11:43:07.967Z</time></trkpt><trkpt lat="30.5187165068018" lon="-6.772041732903334"><ele>1352.0</ele><time>2026-03-22T11:43:08.967Z</time></trkpt><trkpt lat="30.518795173244747" lon="-6.772151394489594"><ele>1351.5</ele><time>2026-03-22T11:43:09.967Z</time></trkpt><trkpt lat="30.518860881446226" lon="-6.7722772498678205"><ele>1351.0</ele><time>2026-03-22T11:43:10.967Z</time></trkpt><trkpt lat="30.51891432327971" lon="-6.772383942183811"><ele>1348.5</ele><time>2026-03-22T11:43:11.968Z</time></trkpt><trkpt lat="30.51899499164713" lon="-6.772431945923909"><ele>1346.0</ele><time>2026-03-22T11:43:12.967Z</time></trkpt><trkpt lat="30.5191169633549" lon="-6.772470975635609"><ele>1343.5</ele><time>2026-03-22T11:43:13.967Z</time></trkpt><trkpt lat="30.51926262817586" lon="-6.772517610933084"><ele>1341.0</ele><time>2026-03-22T11:43:14.967Z</time></trkpt><trkpt lat="30.519403755624683" lon="-6.772566732369668"><ele>1341.0</ele><time>2026-03-22T11:43:15.967Z</time></trkpt><trkpt lat="30.519543632785975" lon="-6.772606175042454"><ele>1341.0</ele><time>2026-03-22T11:43:16.967Z</time></trkpt><trkpt lat="30.519665971656703" lon="-6.772633973092534"><ele>1341.0</ele><time>2026-03-22T11:43:17.967Z</time></trkpt><trkpt lat="30.519740802445764" lon="-6.772624889705724"><ele>1341.0</ele><time>2026-03-22T11:43:18.967Z</time></trkpt><trkpt lat="30.519798359552993" lon="-6.772573945666993"><ele>1341.0</ele><time>2026-03-22T11:43:19.967Z</time></trkpt><trkpt lat="30.519843611551583" lon="-6.772493270696558"><ele>1339.0</ele><time>2026-03-22T11:43:20.967Z</time></trkpt><trkpt lat="30.519917424174064" lon="-6.772380798290483"><ele>1337.0</ele><time>2026-03-22T11:43:21.967Z</time></trkpt><trkpt lat="30.52000622180761" lon="-6.7722817943580935"><ele>1335.0</ele><time>2026-03-22T11:43:22.967Z</time></trkpt><trkpt lat="30.520082207330205" lon="-6.772203938025563"><ele>1333.0</ele><time>2026-03-22T11:43:23.967Z</time></trkpt><trkpt lat="30.52015666049704" lon="-6.772146690948312"><ele>1331.0</ele><time>2026-03-22T11:43:24.967Z</time></trkpt><trkpt lat="30.520230073170573" lon="-6.772111371594984"><ele>1331.0</ele><time>2026-03-22T11:43:25.967Z</time></trkpt><trkpt lat="30.520290543539716" lon="-6.772085539705425"><ele>1331.0</ele><time>2026-03-22T11:43:26.967Z</time></trkpt><trkpt lat="30.520322635205954" lon="-6.772019191462854"><ele>1331.0</ele><time>2026-03-22T11:43:28.967Z</time></trkpt><trkpt lat="30.5202720119831" lon="-6.771891297001718"><ele>1331.0</ele><time>2026-03-22T11:43:30.967Z</time></trkpt><trkpt lat="30.52020571332007" lon="-6.771795125690484"><ele>1331.0</ele><time>2026-03-22T11:43:31.967Z</time></trkpt><trkpt lat="30.520168587149364" lon="-6.771644127574638"><ele>1330.75</ele><time>2026-03-22T11:43:32.967Z</time></trkpt><trkpt lat="30.520177764662943" lon="-6.771464497705164"><ele>1330.5</ele><time>2026-03-22T11:43:33.967Z</time></trkpt><trkpt lat="30.520197557188347" lon="-6.771296147135907"><ele>1330.25</ele><time>2026-03-22T11:43:34.967Z</time></trkpt><trkpt lat="30.52018875248482" lon="-6.771166380187186"><ele>1330.0</ele><time>2026-03-22T11:43:35.967Z</time></trkpt><trkpt lat="30.520142388153722" lon="-6.7710265813148744"><ele>1330.3333333333333</ele><time>2026-03-22T11:43:36.967Z</time></trkpt><trkpt lat="30.520067565922602" lon="-6.7708733084559904"><ele>1330.6666666666667</ele><time>2026-03-22T11:43:37.967Z</time></trkpt><trkpt lat="30.519996543759383" lon="-6.77068431836449"><ele>1331.0</ele><time>2026-03-22T11:43:38.967Z</time></trkpt><trkpt lat="30.519968162618476" lon="-6.770502189181614"><ele>1331.0</ele><time>2026-03-22T11:43:39.967Z</time></trkpt><trkpt lat="30.519974947993592" lon="-6.770346971179069"><ele>1331.0</ele><time>2026-03-22T11:43:40.967Z</time></trkpt><trkpt lat="30.5199904154661" lon="-6.770179819443358"><ele>1331.0</ele><time>2026-03-22T11:43:41.967Z</time></trkpt><trkpt lat="30.520005171120914" lon="-6.769996006015582"><ele>1331.0</ele><time>2026-03-22T11:43:42.967Z</time></trkpt><trkpt lat="30.52000730397759" lon="-6.769826746547984"><ele>1330.5</ele><time>2026-03-22T11:43:43.967Z</time></trkpt><trkpt lat="30.520013326311048" lon="-6.769677081444584"><ele>1330.0</ele><time>2026-03-22T11:43:44.967Z</time></trkpt><trkpt lat="30.520019037732016" lon="-6.769532265196784"><ele>1329.5</ele><time>2026-03-22T11:43:45.967Z</time></trkpt><trkpt lat="30.52002921719215" lon="-6.7693798363583015"><ele>1329.0</ele><time>2026-03-22T11:43:46.967Z</time></trkpt><trkpt lat="30.520026164554658" lon="-6.769240102958766"><ele>1329.0</ele><time>2026-03-22T11:43:47.967Z</time></trkpt><trkpt lat="30.520014418946957" lon="-6.769098231466059"><ele>1329.0</ele><time>2026-03-22T11:43:48.967Z</time></trkpt><trkpt lat="30.520000396131334" lon="-6.768955028065479"><ele>1329.0</ele><time>2026-03-22T11:43:49.967Z</time></trkpt><trkpt lat="30.5199876148296" lon="-6.768793024222409"><ele>1329.0</ele><time>2026-03-22T11:43:50.967Z</time></trkpt><trkpt lat="30.519970451749135" lon="-6.768648600205248"><ele>1329.0</ele><time>2026-03-22T11:43:51.967Z</time></trkpt><trkpt lat="30.5199464307306" lon="-6.768515000233988"><ele>1329.0</ele><time>2026-03-22T11:43:52.967Z</time></trkpt><trkpt lat="30.51993600007897" lon="-6.7683696999334115"><ele>1329.0</ele><time>2026-03-22T11:43:53.967Z</time></trkpt><trkpt lat="30.519959726448594" lon="-6.768187388243008"><ele>1329.0</ele><time>2026-03-22T11:43:54.967Z</time></trkpt><trkpt lat="30.519958077310598" lon="-6.768009591290963"><ele>1329.0</ele><time>2026-03-22T11:43:55.967Z</time></trkpt><trkpt lat="30.519927812416476" lon="-6.767863533916617"><ele>1329.0</ele><time>2026-03-22T11:43:56.967Z</time></trkpt><trkpt lat="30.5198796480971" lon="-6.767692195162881"><ele>1329.0</ele><time>2026-03-22T11:43:57.967Z</time></trkpt><trkpt lat="30.51984057141185" lon="-6.767529886699304"><ele>1329.0</ele><time>2026-03-22T11:43:58.967Z</time></trkpt><trkpt lat="30.51979718352216" lon="-6.767392742294426"><ele>1329.25</ele><time>2026-03-22T11:43:59.967Z</time></trkpt><trkpt lat="30.51977665699754" lon="-6.767247167462549"><ele>1329.5</ele><time>2026-03-22T11:44:00.967Z</time></trkpt><trkpt lat="30.519785125462946" lon="-6.767076907770468"><ele>1329.75</ele><time>2026-03-22T11:44:01.967Z</time></trkpt><trkpt lat="30.51979455717427" lon="-6.766891748337971"><ele>1330.0</ele><time>2026-03-22T11:44:02.967Z</time></trkpt><trkpt lat="30.519779623429685" lon="-6.766746523325988"><ele>1329.2</ele><time>2026-03-22T11:44:03.967Z</time></trkpt><trkpt lat="30.51974252721234" lon="-6.766619639837496"><ele>1328.4</ele><time>2026-03-22T11:44:04.967Z</time></trkpt><trkpt lat="30.51971282083148" lon="-6.766502834741133"><ele>1327.6</ele><time>2026-03-22T11:44:05.967Z</time></trkpt><trkpt lat="30.519700846348996" lon="-6.7664028992666125"><ele>1326.8</ele><time>2026-03-22T11:44:06.967Z</time></trkpt><trkpt lat="30.519702176931975" lon="-6.766295846718882"><ele>1326.0</ele><time>2026-03-22T11:44:07.967Z</time></trkpt><trkpt lat="30.519707670527854" lon="-6.766197806262296"><ele>1326.0</ele><time>2026-03-22T11:44:08.967Z</time></trkpt><trkpt lat="30.519699146321617" lon="-6.766097878647027"><ele>1326.0</ele><time>2026-03-22T11:44:09.967Z</time></trkpt><trkpt lat="30.51968813299954" lon="-6.7659961406538285"><ele>1326.0</ele><time>2026-03-22T11:44:10.967Z</time></trkpt><trkpt lat="30.51967465441504" lon="-6.765900937384912"><ele>1326.0</ele><time>2026-03-22T11:44:11.967Z</time></trkpt><trkpt lat="30.51965703372549" lon="-6.765802552665235"><ele>1326.0</ele><time>2026-03-22T11:44:12.967Z</time></trkpt><trkpt lat="30.51962767386064" lon="-6.765693693893292"><ele>1326.0</ele><time>2026-03-22T11:44:13.967Z</time></trkpt><trkpt lat="30.519613095775597" lon="-6.765600189504465"><ele>1326.3333333333333</ele><time>2026-03-22T11:44:14.967Z</time></trkpt><trkpt lat="30.51959832929752" lon="-6.765507037506497"><ele>1326.6666666666667</ele><time>2026-03-22T11:44:15.967Z</time></trkpt><trkpt lat="30.51959382811873" lon="-6.765397452600145"><ele>1327.0</ele><time>2026-03-22T11:44:16.967Z</time></trkpt><trkpt lat="30.519599788822067" lon="-6.765297849367423"><ele>1327.3333333333335</ele><time>2026-03-22T11:44:17.967Z</time></trkpt><trkpt lat="30.519589610205625" lon="-6.7652107649272235"><ele>1327.6666666666667</ele><time>2026-03-22T11:44:18.967Z</time></trkpt><trkpt lat="30.519577624716582" lon="-6.765112448872389"><ele>1328.0</ele><time>2026-03-22T11:44:19.967Z</time></trkpt><trkpt lat="30.519553776796887" lon="-6.7650193250733865"><ele>1328.2</ele><time>2026-03-22T11:44:20.967Z</time></trkpt><trkpt lat="30.519530556040348" lon="-6.764921343270911"><ele>1328.4</ele><time>2026-03-22T11:44:21.967Z</time></trkpt><trkpt lat="30.519514225063183" lon="-6.764826210152849"><ele>1328.6000000000001</ele><time>2026-03-22T11:44:22.967Z</time></trkpt><trkpt lat="30.519496752697663" lon="-6.764712592859089"><ele>1328.8000000000002</ele><time>2026-03-22T11:44:23.967Z</time></trkpt><trkpt lat="30.519480886107587" lon="-6.764595966113796"><ele>1329.0</ele><time>2026-03-22T11:44:24.967Z</time></trkpt><trkpt lat="30.5194418579656" lon="-6.764449136976108"><ele>1328.3333333333333</ele><time>2026-03-22T11:44:25.967Z</time></trkpt><trkpt lat="30.51939309420384" lon="-6.764273531084598"><ele>1327.6666666666665</ele><time>2026-03-22T11:44:26.967Z</time></trkpt><trkpt lat="30.51935634552799" lon="-6.764073367415774"><ele>1327.0</ele><time>2026-03-22T11:44:27.967Z</time></trkpt><trkpt lat="30.519331945774663" lon="-6.7638934078139945"><ele>1327.0</ele><time>2026-03-22T11:44:28.967Z</time></trkpt><trkpt lat="30.51931964750995" lon="-6.763731702628421"><ele>1327.0</ele><time>2026-03-22T11:44:29.967Z</time></trkpt><trkpt lat="30.519313874403387" lon="-6.763564306154921"><ele>1327.0</ele><time>2026-03-22T11:44:30.967Z</time></trkpt><trkpt lat="30.519281879430448" lon="-6.763432573415385"><ele>1327.0</ele><time>2026-03-22T11:44:31.967Z</time></trkpt><trkpt lat="30.519227422759354" lon="-6.763273754177733"><ele>1326.75</ele><time>2026-03-22T11:44:32.967Z</time></trkpt><trkpt lat="30.51918374705097" lon="-6.763095426768736"><ele>1326.5</ele><time>2026-03-22T11:44:33.967Z</time></trkpt><trkpt lat="30.519162002923657" lon="-6.7629361393109955"><ele>1326.25</ele><time>2026-03-22T11:44:34.967Z</time></trkpt><trkpt lat="30.519153075309415" lon="-6.762768015542127"><ele>1326.0</ele><time>2026-03-22T11:44:35.967Z</time></trkpt><trkpt lat="30.519142083227543" lon="-6.76258564702499"><ele>1326.0</ele><time>2026-03-22T11:44:36.967Z</time></trkpt><trkpt lat="30.519108180726178" lon="-6.762426097466084"><ele>1326.0</ele><time>2026-03-22T11:44:37.967Z</time></trkpt><trkpt lat="30.51907469765439" lon="-6.762270582770443"><ele>1326.0</ele><time>2026-03-22T11:44:38.967Z</time></trkpt><trkpt lat="30.51904118137052" lon="-6.762102104475355"><ele>1326.0</ele><time>2026-03-22T11:44:39.967Z</time></trkpt><trkpt lat="30.518988564212403" lon="-6.761930884232015"><ele>1325.0</ele><time>2026-03-22T11:44:40.967Z</time></trkpt><trkpt lat="30.51892758546628" lon="-6.761750132352837"><ele>1324.0</ele><time>2026-03-22T11:44:41.967Z</time></trkpt><trkpt lat="30.51888888116555" lon="-6.761560183327237"><ele>1323.0</ele><time>2026-03-22T11:44:42.967Z</time></trkpt><trkpt lat="30.51883990540597" lon="-6.7613857837758715"><ele>1323.0</ele><time>2026-03-22T11:44:43.967Z</time></trkpt><trkpt lat="30.518800909334175" lon="-6.761241435127124"><ele>1323.0</ele><time>2026-03-22T11:44:44.967Z</time></trkpt><trkpt lat="30.518789139866247" lon="-6.761105123527212"><ele>1323.0</ele><time>2026-03-22T11:44:45.967Z</time></trkpt><trkpt lat="30.518785232321672" lon="-6.7609792545548855"><ele>1323.0</ele><time>2026-03-22T11:44:46.967Z</time></trkpt><trkpt lat="30.518812277475046" lon="-6.760822077296262"><ele>1323.75</ele><time>2026-03-22T11:44:47.967Z</time></trkpt><trkpt lat="30.51883787389576" lon="-6.760665718404498"><ele>1324.5</ele><time>2026-03-22T11:44:48.967Z</time></trkpt><trkpt lat="30.51883489454034" lon="-6.7605233476896425"><ele>1325.25</ele><time>2026-03-22T11:44:49.967Z</time></trkpt><trkpt lat="30.51881203959535" lon="-6.7604007531304475"><ele>1326.0</ele><time>2026-03-22T11:44:50.967Z</time></trkpt><trkpt lat="30.518784184367536" lon="-6.760285725537391"><ele>1325.4</ele><time>2026-03-22T11:44:51.967Z</time></trkpt><trkpt lat="30.518779473858334" lon="-6.7601699768124055"><ele>1324.8</ele><time>2026-03-22T11:44:52.967Z</time></trkpt><trkpt lat="30.51878381603222" lon="-6.760061595888548"><ele>1324.2</ele><time>2026-03-22T11:44:53.967Z</time></trkpt><trkpt lat="30.51878347054766" lon="-6.759957283834839"><ele>1323.6000000000001</ele><time>2026-03-22T11:44:54.967Z</time></trkpt><trkpt lat="30.51878158625892" lon="-6.759858585731806"><ele>1323.0</ele><time>2026-03-22T11:44:55.967Z</time></trkpt><trkpt lat="30.518748338218916" lon="-6.759759230670636"><ele>1322.6000000000001</ele><time>2026-03-22T11:44:56.967Z</time></trkpt><trkpt lat="30.51870111884785" lon="-6.759657303976739"><ele>1322.2</ele><time>2026-03-22T11:44:57.967Z</time></trkpt><trkpt lat="30.518651705903526" lon="-6.759546485721947"><ele>1321.8</ele><time>2026-03-22T11:44:58.967Z</time></trkpt><trkpt lat="30.51860943599011" lon="-6.759420408166918"><ele>1321.4</ele><time>2026-03-22T11:44:59.967Z</time></trkpt><trkpt lat="30.518576646529112" lon="-6.759289508786977"><ele>1321.0</ele><time>2026-03-22T11:45:00.967Z</time></trkpt><trkpt lat="30.51854462487058" lon="-6.759172151482745"><ele>1320.8333333333333</ele><time>2026-03-22T11:45:01.967Z</time></trkpt><trkpt lat="30.5185144174092" lon="-6.759053107985108"><ele>1320.6666666666665</ele><time>2026-03-22T11:45:02.967Z</time></trkpt><trkpt lat="30.51850241905931" lon="-6.758933454575204"><ele>1320.5</ele><time>2026-03-22T11:45:03.967Z</time></trkpt><trkpt lat="30.518480111837754" lon="-6.758841794153037"><ele>1320.3333333333333</ele><time>2026-03-22T11:45:04.967Z</time></trkpt><trkpt lat="30.51843774582833" lon="-6.758770548231547"><ele>1320.1666666666667</ele><time>2026-03-22T11:45:05.967Z</time></trkpt><trkpt lat="30.518381394453417" lon="-6.758705209777094"><ele>1320.0</ele><time>2026-03-22T11:45:06.967Z</time></trkpt><trkpt lat="30.51832752012566" lon="-6.758654393693162"><ele>1320.0000000000002</ele><time>2026-03-22T11:45:07.967Z</time></trkpt><trkpt lat="30.51827086198287" lon="-6.758612586312527"><ele>1320.0</ele><time>2026-03-22T11:45:08.967Z</time></trkpt><trkpt lat="30.518207104376767" lon="-6.758578714781541"><ele>1320.0</ele><time>2026-03-22T11:45:09.967Z</time></trkpt><trkpt lat="30.51813534944364" lon="-6.758546309760843"><ele>1320.0</ele><time>2026-03-22T11:45:10.967Z</time></trkpt><trkpt lat="30.51806396440629" lon="-6.758517832031184"><ele>1320.0</ele><time>2026-03-22T11:45:11.967Z</time></trkpt><trkpt lat="30.517988869386837" lon="-6.758501635686285"><ele>1320.0000000000002</ele><time>2026-03-22T11:45:12.967Z</time></trkpt><trkpt lat="30.517912690646583" lon="-6.758476887256894"><ele>1320.0</ele><time>2026-03-22T11:45:13.967Z</time></trkpt><trkpt lat="30.517844256371976" lon="-6.758441300276014"><ele>1319.8333333333333</ele><time>2026-03-22T11:45:14.967Z</time></trkpt><trkpt lat="30.517775191481654" lon="-6.758398799288125"><ele>1319.6666666666667</ele><time>2026-03-22T11:45:15.967Z</time></trkpt><trkpt lat="30.51772035174776" lon="-6.758340322458168"><ele>1319.5</ele><time>2026-03-22T11:45:16.967Z</time></trkpt><trkpt lat="30.517663608741664" lon="-6.7582707486180436"><ele>1319.3333333333335</ele><time>2026-03-22T11:45:17.967Z</time></trkpt><trkpt lat="30.517599244352756" lon="-6.758187959720004"><ele>1319.1666666666667</ele><time>2026-03-22T11:45:18.967Z</time></trkpt><trkpt lat="30.51751541768271" lon="-6.758107853455865"><ele>1319.0</ele><time>2026-03-22T11:45:19.967Z</time></trkpt><trkpt lat="30.517395283124365" lon="-6.758054596501829"><ele>1319.0</ele><time>2026-03-22T11:45:20.967Z</time></trkpt><trkpt lat="30.51723638080574" lon="-6.758010692409454"><ele>1319.0</ele><time>2026-03-22T11:45:21.966Z</time></trkpt><trkpt lat="30.51706650931484" lon="-6.757946403250937"><ele>1319.0</ele><time>2026-03-22T11:45:22.966Z</time></trkpt><trkpt lat="30.51690003281547" lon="-6.757889225069646"><ele>1318.6</ele><time>2026-03-22T11:45:23.967Z</time></trkpt><trkpt lat="30.516766865664344" lon="-6.757846767513077"><ele>1318.2</ele><time>2026-03-22T11:45:24.966Z</time></trkpt><trkpt lat="30.516662343511157" lon="-6.757811176248817"><ele>1317.8</ele><time>2026-03-22T11:45:25.966Z</time></trkpt><trkpt lat="30.516582213399463" lon="-6.757788295570797"><ele>1317.3999999999999</ele><time>2026-03-22T11:45:26.966Z</time></trkpt><trkpt lat="30.516495729445808" lon="-6.7577891343582195"><ele>1317.0</ele><time>2026-03-22T11:45:27.967Z</time></trkpt><trkpt lat="30.516397384387087" lon="-6.75776050033953"><ele>1317.0</ele><time>2026-03-22T11:45:28.967Z</time></trkpt><trkpt lat="30.51631558498752" lon="-6.757713930470055"><ele>1317.0</ele><time>2026-03-22T11:45:29.966Z</time></trkpt><trkpt lat="30.51624988288885" lon="-6.757632324469657"><ele>1317.0</ele><time>2026-03-22T11:45:30.966Z</time></trkpt><trkpt lat="30.516193512808503" lon="-6.757523606566182"><ele>1317.0</ele><time>2026-03-22T11:45:31.966Z</time></trkpt><trkpt lat="30.51613462167512" lon="-6.757405033534"><ele>1317.0</ele><time>2026-03-22T11:45:32.966Z</time></trkpt><trkpt lat="30.51607319008392" lon="-6.757300212493558"><ele>1317.0</ele><time>2026-03-22T11:45:33.966Z</time></trkpt><trkpt lat="30.516007413623132" lon="-6.757208975517526"><ele>1317.0</ele><time>2026-03-22T11:45:34.966Z</time></trkpt><trkpt lat="30.51594857218192" lon="-6.757131747797605"><ele>1317.0</ele><time>2026-03-22T11:45:35.966Z</time></trkpt><trkpt lat="30.51589283947601" lon="-6.757042648266463"><ele>1317.0</ele><time>2026-03-22T11:45:36.966Z</time></trkpt><trkpt lat="30.51583772023293" lon="-6.756942143561985"><ele>1317.0</ele><time>2026-03-22T11:45:37.966Z</time></trkpt><trkpt lat="30.51579103339082" lon="-6.75681710093555"><ele>1317.0</ele><time>2026-03-22T11:45:38.966Z</time></trkpt><trkpt lat="30.515774760363083" lon="-6.756695619872346"><ele>1317.0</ele><time>2026-03-22T11:45:39.966Z</time></trkpt><trkpt lat="30.515784473537906" lon="-6.756532235109839"><ele>1317.0</ele><time>2026-03-22T11:45:40.966Z</time></trkpt><trkpt lat="30.515808208168092" lon="-6.7563443966158845"><ele>1317.0</ele><time>2026-03-22T11:45:41.966Z</time></trkpt><trkpt lat="30.51583559325946" lon="-6.756160289060622"><ele>1317.5</ele><time>2026-03-22T11:45:42.966Z</time></trkpt><trkpt lat="30.515860871689476" lon="-6.75599837534562"><ele>1318.0</ele><time>2026-03-22T11:45:43.966Z</time></trkpt><trkpt lat="30.515866283361138" lon="-6.755862532562589"><ele>1318.5</ele><time>2026-03-22T11:45:44.966Z</time></trkpt><trkpt lat="30.5158445362242" lon="-6.755739959132174"><ele>1319.0</ele><time>2026-03-22T11:45:45.966Z</time></trkpt><trkpt lat="30.515807746868273" lon="-6.755648758520503"><ele>1319.0</ele><time>2026-03-22T11:45:46.966Z</time></trkpt><trkpt lat="30.515749719985383" lon="-6.755570892475753"><ele>1319.0</ele><time>2026-03-22T11:45:47.966Z</time></trkpt><trkpt lat="30.51565519181011" lon="-6.755478842768188"><ele>1319.0</ele><time>2026-03-22T11:45:48.966Z</time></trkpt><trkpt lat="30.515542852206178" lon="-6.755373239502104"><ele>1319.0</ele><time>2026-03-22T11:45:49.966Z</time></trkpt><trkpt lat="30.515440206297672" lon="-6.755289200909748"><ele>1318.25</ele><time>2026-03-22T11:45:50.966Z</time></trkpt><trkpt lat="30.51534324723884" lon="-6.7552326427337075"><ele>1317.5</ele><time>2026-03-22T11:45:51.966Z</time></trkpt><trkpt lat="30.515248954354913" lon="-6.755167993682988"><ele>1316.75</ele><time>2026-03-22T11:45:52.966Z</time></trkpt><trkpt lat="30.51515337938476" lon="-6.7550882628356845"><ele>1316.0</ele><time>2026-03-22T11:45:53.966Z</time></trkpt><trkpt lat="30.51506247145589" lon="-6.755006836365974"><ele>1315.1999999999998</ele><time>2026-03-22T11:45:54.966Z</time></trkpt><trkpt lat="30.514980700350584" lon="-6.754916838867542"><ele>1314.3999999999999</ele><time>2026-03-22T11:45:55.966Z</time></trkpt><trkpt lat="30.514912565171468" lon="-6.754835101847769"><ele>1313.6</ele><time>2026-03-22T11:45:56.966Z</time></trkpt><trkpt lat="30.514843396321012" lon="-6.754753733084008"><ele>1312.8</ele><time>2026-03-22T11:45:57.966Z</time></trkpt><trkpt lat="30.51476493663121" lon="-6.754695634593904"><ele>1312.0</ele><time>2026-03-22T11:45:58.966Z</time></trkpt><trkpt lat="30.51469927102501" lon="-6.754663549648315"><ele>1312.0</ele><time>2026-03-22T11:46:00.966Z</time></trkpt><trkpt lat="30.51459822573631" lon="-6.754632222631694"><ele>1312.0</ele><time>2026-03-22T11:46:02.966Z</time></trkpt><trkpt lat="30.51452898958421" lon="-6.754619313934166"><ele>1312.0</ele><time>2026-03-22T11:46:03.966Z</time></trkpt><trkpt lat="30.51443889892678" lon="-6.754632060291968"><ele>1312.0</ele><time>2026-03-22T11:46:05.966Z</time></trkpt><trkpt lat="30.514351148992304" lon="-6.7546637895347805"><ele>1312.0</ele><time>2026-03-22T11:46:07.966Z</time></trkpt><trkpt lat="30.51425480221032" lon="-6.754697037323591"><ele>1311.8</ele><time>2026-03-22T11:46:09.966Z</time></trkpt><trkpt lat="30.51414139506854" lon="-6.754740230166745"><ele>1311.6</ele><time>2026-03-22T11:46:11.966Z</time></trkpt><trkpt lat="30.51405659983805" lon="-6.754778675778452"><ele>1311.3999999999999</ele><time>2026-03-22T11:46:13.966Z</time></trkpt><trkpt lat="30.513970815959862" lon="-6.754799283944075"><ele>1311.1999999999998</ele><time>2026-03-22T11:46:15.966Z</time></trkpt><trkpt lat="30.51386895330609" lon="-6.7547707990673835"><ele>1311.0</ele><time>2026-03-22T11:46:17.966Z</time></trkpt><trkpt lat="30.51379171748125" lon="-6.75469841449133"><ele>1310.3333333333333</ele><time>2026-03-22T11:46:19.966Z</time></trkpt><trkpt lat="30.513735026638145" lon="-6.75465532981388"><ele>1309.6666666666667</ele><time>2026-03-22T11:46:20.966Z</time></trkpt><trkpt lat="30.51366966034279" lon="-6.7546193594478465"><ele>1309.0</ele><time>2026-03-22T11:46:21.966Z</time></trkpt><trkpt lat="30.51358856834627" lon="-6.754671559264185"><ele>1308.3333333333335</ele><time>2026-03-22T11:46:23.966Z</time></trkpt><trkpt lat="30.513577607251797" lon="-6.754745337584544"><ele>1307.6666666666667</ele><time>2026-03-22T11:46:24.966Z</time></trkpt><trkpt lat="30.513618491380168" lon="-6.754833994076613"><ele>1307.0</ele><time>2026-03-22T11:46:25.966Z</time></trkpt><trkpt lat="30.513672475228844" lon="-6.754950880062239"><ele>1307.0</ele><time>2026-03-22T11:46:26.966Z</time></trkpt><trkpt lat="30.5136963131599" lon="-6.7550703063480135"><ele>1307.0</ele><time>2026-03-22T11:46:27.966Z</time></trkpt><trkpt lat="30.51367441726248" lon="-6.755166489887853"><ele>1307.0</ele><time>2026-03-22T11:46:28.966Z</time></trkpt><trkpt lat="30.513617964472253" lon="-6.755261766269257"><ele>1307.0</ele><time>2026-03-22T11:46:29.966Z</time></trkpt><trkpt lat="30.513528164958416" lon="-6.755359151954819"><ele>1307.0</ele><time>2026-03-22T11:46:30.966Z</time></trkpt><trkpt lat="30.513445396939808" lon="-6.755429618266501"><ele>1306.6</ele><time>2026-03-22T11:46:31.966Z</time></trkpt><trkpt lat="30.513353957293873" lon="-6.7554417305387195"><ele>1306.1999999999998</ele><time>2026-03-22T11:46:32.966Z</time></trkpt><trkpt lat="30.51325322351073" lon="-6.7554220496463815"><ele>1305.8</ele><time>2026-03-22T11:46:33.966Z</time></trkpt><trkpt lat="30.513181996731813" lon="-6.755424960833456"><ele>1305.4</ele><time>2026-03-22T11:46:34.966Z</time></trkpt><trkpt lat="30.513085127949047" lon="-6.755375398083156"><ele>1305.0</ele><time>2026-03-22T11:46:36.966Z</time></trkpt><trkpt lat="30.513055439250312" lon="-6.755245852185992"><ele>1305.3333333333333</ele><time>2026-03-22T11:46:38.966Z</time></trkpt><trkpt lat="30.51304805126455" lon="-6.7551695524074455"><ele>1305.6666666666667</ele><time>2026-03-22T11:46:39.966Z</time></trkpt><trkpt lat="30.51300397975305" lon="-6.7550466763596955"><ele>1306.0</ele><time>2026-03-22T11:46:41.966Z</time></trkpt><trkpt lat="30.51294912647301" lon="-6.755008610317569"><ele>1306.3333333333335</ele><time>2026-03-22T11:46:42.966Z</time></trkpt><trkpt lat="30.512881853956785" lon="-6.754990641325549"><ele>1306.6666666666667</ele><time>2026-03-22T11:46:43.966Z</time></trkpt><trkpt lat="30.512785858616954" lon="-6.754952415587401"><ele>1307.0</ele><time>2026-03-22T11:46:44.966Z</time></trkpt><trkpt lat="30.512712408183454" lon="-6.754905072766161"><ele>1305.7142857142856</ele><time>2026-03-22T11:46:45.966Z</time></trkpt><trkpt lat="30.51267514311743" lon="-6.7548401522978345"><ele>1304.4285714285716</ele><time>2026-03-22T11:46:46.966Z</time></trkpt><trkpt lat="30.512661331096187" lon="-6.754752903867258"><ele>1303.142857142857</ele><time>2026-03-22T11:46:47.966Z</time></trkpt><trkpt lat="30.51264807926404" lon="-6.754660216595666"><ele>1301.8571428571427</ele><time>2026-03-22T11:46:48.966Z</time></trkpt><trkpt lat="30.51263057983539" lon="-6.754571313068472"><ele>1300.5714285714284</ele><time>2026-03-22T11:46:49.966Z</time></trkpt><trkpt lat="30.512620451353737" lon="-6.754493380288326"><ele>1299.2857142857142</ele><time>2026-03-22T11:46:50.966Z</time></trkpt><trkpt lat="30.512610621927056" lon="-6.754403912741587"><ele>1298.0</ele><time>2026-03-22T11:46:51.966Z</time></trkpt><trkpt lat="30.512594759032087" lon="-6.7543205658988095"><ele>1297.7142857142856</ele><time>2026-03-22T11:46:52.966Z</time></trkpt><trkpt lat="30.51256799715533" lon="-6.7542526406900185"><ele>1297.4285714285713</ele><time>2026-03-22T11:46:53.966Z</time></trkpt><trkpt lat="30.512533344668938" lon="-6.754189315683983"><ele>1297.142857142857</ele><time>2026-03-22T11:46:54.966Z</time></trkpt><trkpt lat="30.512483277192867" lon="-6.754121960392937"><ele>1296.8571428571427</ele><time>2026-03-22T11:46:55.966Z</time></trkpt><trkpt lat="30.51244774476515" lon="-6.754051234448596"><ele>1296.5714285714284</ele><time>2026-03-22T11:46:56.966Z</time></trkpt><trkpt lat="30.512435343963116" lon="-6.7539729781319675"><ele>1296.2857142857142</ele><time>2026-03-22T11:46:57.966Z</time></trkpt><trkpt lat="30.512447156239258" lon="-6.753896087411179"><ele>1296.0</ele><time>2026-03-22T11:46:58.966Z</time></trkpt><trkpt lat="30.512459052069325" lon="-6.753810476480772"><ele>1296.0</ele><time>2026-03-22T11:46:59.966Z</time></trkpt><trkpt lat="30.512441182057316" lon="-6.753733769161108"><ele>1296.0</ele><time>2026-03-22T11:47:00.966Z</time></trkpt><trkpt lat="30.512454733150488" lon="-6.753641950139471"><ele>1296.0</ele><time>2026-03-22T11:47:01.966Z</time></trkpt><trkpt lat="30.512463749263492" lon="-6.753555437075626"><ele>1296.0</ele><time>2026-03-22T11:47:02.966Z</time></trkpt><trkpt lat="30.512431284783155" lon="-6.753453965065669"><ele>1296.0</ele><time>2026-03-22T11:47:03.966Z</time></trkpt><trkpt lat="30.512399918085734" lon="-6.753324180586795"><ele>1296.0</ele><time>2026-03-22T11:47:04.966Z</time></trkpt><trkpt lat="30.51237627534047" lon="-6.753220454703104"><ele>1295.5</ele><time>2026-03-22T11:47:05.966Z</time></trkpt><trkpt lat="30.512342354952832" lon="-6.7531325322292695"><ele>1295.0</ele><time>2026-03-22T11:47:06.966Z</time></trkpt><trkpt lat="30.512317890607587" lon="-6.753051975399071"><ele>1294.5</ele><time>2026-03-22T11:47:07.966Z</time></trkpt><trkpt lat="30.512292586494876" lon="-6.752960735110201"><ele>1294.0</ele><time>2026-03-22T11:47:08.966Z</time></trkpt><trkpt lat="30.512290688552362" lon="-6.752854221840319"><ele>1293.5</ele><time>2026-03-22T11:47:09.966Z</time></trkpt><trkpt lat="30.512325469143736" lon="-6.75276097271722"><ele>1293.0</ele><time>2026-03-22T11:47:10.966Z</time></trkpt><trkpt lat="30.512382692540967" lon="-6.752673528223272"><ele>1292.2</ele><time>2026-03-22T11:47:11.966Z</time></trkpt><trkpt lat="30.51246454343505" lon="-6.752607957190624"><ele>1291.4</ele><time>2026-03-22T11:47:12.966Z</time></trkpt><trkpt lat="30.512541534200317" lon="-6.752550585107381"><ele>1290.6000000000001</ele><time>2026-03-22T11:47:13.966Z</time></trkpt><trkpt lat="30.512607300636443" lon="-6.7524933722438485"><ele>1289.8000000000002</ele><time>2026-03-22T11:47:14.966Z</time></trkpt><trkpt lat="30.51264119036366" lon="-6.752369287647368"><ele>1289.0</ele><time>2026-03-22T11:47:16.966Z</time></trkpt><trkpt lat="30.512621234160044" lon="-6.752219397526669"><ele>1289.0</ele><time>2026-03-22T11:47:18.966Z</time></trkpt><trkpt lat="30.51260583222778" lon="-6.752138197930807"><ele>1289.0</ele><time>2026-03-22T11:47:19.966Z</time></trkpt><trkpt lat="30.512563864651156" lon="-6.751997781586677"><ele>1289.0</ele><time>2026-03-22T11:47:21.966Z</time></trkpt><trkpt lat="30.512530418662852" lon="-6.751874159954344"><ele>1289.0</ele><time>2026-03-22T11:47:23.966Z</time></trkpt><trkpt lat="30.512497730971088" lon="-6.75177607556165"><ele>1289.0</ele><time>2026-03-22T11:47:25.966Z</time></trkpt><trkpt lat="30.512478274731155" lon="-6.751677621750026"><ele>1289.1666666666667</ele><time>2026-03-22T11:47:27.966Z</time></trkpt><trkpt lat="30.512467442081828" lon="-6.751568428642112"><ele>1289.3333333333335</ele><time>2026-03-22T11:47:29.966Z</time></trkpt><trkpt lat="30.512462733434585" lon="-6.751462118124094"><ele>1289.5</ele><time>2026-03-22T11:47:31.966Z</time></trkpt><trkpt lat="30.51247240569185" lon="-6.751358326429038"><ele>1289.6666666666667</ele><time>2026-03-22T11:47:33.966Z</time></trkpt><trkpt lat="30.512500772585838" lon="-6.751279272512331"><ele>1289.8333333333333</ele><time>2026-03-22T11:47:35.966Z</time></trkpt><trkpt lat="30.51254399521335" lon="-6.751196830158831"><ele>1290.0</ele><time>2026-03-22T11:47:45.966Z</time></trkpt><trkpt lat="30.51263300458423" lon="-6.751125409345587"><ele>1290.0</ele><time>2026-03-22T11:47:47.966Z</time></trkpt><trkpt lat="30.512705697783616" lon="-6.751065016178636"><ele>1290.0</ele><time>2026-03-22T11:47:49.966Z</time></trkpt><trkpt lat="30.512742571606392" lon="-6.750982565797716"><ele>1290.0</ele><time>2026-03-22T11:47:51.966Z</time></trkpt><trkpt lat="30.512776467502068" lon="-6.750914204727623"><ele>1290.0</ele><time>2026-03-22T11:47:52.966Z</time></trkpt><trkpt lat="30.512810633992803" lon="-6.750837573460843"><ele>1290.0</ele><time>2026-03-22T11:47:53.966Z</time></trkpt><trkpt lat="30.512836581547266" lon="-6.7507666862962346"><ele>1290.0</ele><time>2026-03-22T11:47:54.966Z</time></trkpt><trkpt lat="30.512851654897233" lon="-6.750655132085753"><ele>1290.5</ele><time>2026-03-22T11:47:56.966Z</time></trkpt><trkpt lat="30.512860798080762" lon="-6.7505470855867795"><ele>1291.0</ele><time>2026-03-22T11:47:58.966Z</time></trkpt><trkpt lat="30.512895493837437" lon="-6.750433802111313"><ele>1291.5</ele><time>2026-03-22T11:48:00.966Z</time></trkpt><trkpt lat="30.51291391300947" lon="-6.7503557657430315"><ele>1292.0</ele><time>2026-03-22T11:48:01.966Z</time></trkpt><trkpt lat="30.512926308064475" lon="-6.750278078593981"><ele>1292.5</ele><time>2026-03-22T11:48:02.966Z</time></trkpt><trkpt lat="30.512940357349066" lon="-6.750204783720162"><ele>1293.0</ele><time>2026-03-22T11:48:03.966Z</time></trkpt><trkpt lat="30.512958470146877" lon="-6.750123594111474"><ele>1295.2</ele><time>2026-03-22T11:48:04.966Z</time></trkpt><trkpt lat="30.512992227407736" lon="-6.750028601834284"><ele>1297.4</ele><time>2026-03-22T11:48:05.966Z</time></trkpt><trkpt lat="30.51304650058514" lon="-6.749941095620591"><ele>1299.6000000000001</ele><time>2026-03-22T11:48:06.966Z</time></trkpt><trkpt lat="30.5131243021406" lon="-6.74985730852313"><ele>1301.8000000000002</ele><time>2026-03-22T11:48:07.966Z</time></trkpt><trkpt lat="30.51318960495693" lon="-6.749775056009011"><ele>1304.0</ele><time>2026-03-22T11:48:08.966Z</time></trkpt><trkpt lat="30.51324132972836" lon="-6.749700541009693"><ele>1304.0</ele><time>2026-03-22T11:48:09.966Z</time></trkpt><trkpt lat="30.51329410654086" lon="-6.749647628371972"><ele>1304.0</ele><time>2026-03-22T11:48:10.966Z</time></trkpt><trkpt lat="30.51334292881036" lon="-6.749588713311634"><ele>1304.0</ele><time>2026-03-22T11:48:11.966Z</time></trkpt><trkpt lat="30.51338182746578" lon="-6.749523295428581"><ele>1304.0</ele><time>2026-03-22T11:48:12.966Z</time></trkpt><trkpt lat="30.51343514016278" lon="-6.7493898730308395"><ele>1304.0</ele><time>2026-03-22T11:48:14.966Z</time></trkpt><trkpt lat="30.513465958374752" lon="-6.749322416645579"><ele>1304.0</ele><time>2026-03-22T11:48:15.966Z</time></trkpt><trkpt lat="30.513502408175363" lon="-6.7492402542285985"><ele>1304.1666666666667</ele><time>2026-03-22T11:48:16.966Z</time></trkpt><trkpt lat="30.51354875480535" lon="-6.749157181198128"><ele>1304.3333333333335</ele><time>2026-03-22T11:48:17.966Z</time></trkpt><trkpt lat="30.513597279954404" lon="-6.7490750092096965"><ele>1304.5</ele><time>2026-03-22T11:48:18.966Z</time></trkpt><trkpt lat="30.513645497364216" lon="-6.748985076749026"><ele>1304.6666666666667</ele><time>2026-03-22T11:48:19.966Z</time></trkpt><trkpt lat="30.513686696579214" lon="-6.748896427347604"><ele>1304.8333333333333</ele><time>2026-03-22T11:48:20.965Z</time></trkpt><trkpt lat="30.513717356160424" lon="-6.748819198962099"><ele>1305.0</ele><time>2026-03-22T11:48:21.965Z</time></trkpt><trkpt lat="30.513733289748284" lon="-6.748679159943896"><ele>1304.8</ele><time>2026-03-22T11:48:23.965Z</time></trkpt><trkpt lat="30.513751258329602" lon="-6.748552748089132"><ele>1304.6</ele><time>2026-03-22T11:48:25.965Z</time></trkpt><trkpt lat="30.513777079403102" lon="-6.74843962205754"><ele>1304.4</ele><time>2026-03-22T11:48:27.965Z</time></trkpt><trkpt lat="30.51380722978061" lon="-6.748317433157707"><ele>1304.2</ele><time>2026-03-22T11:48:29.965Z</time></trkpt><trkpt lat="30.51383325190253" lon="-6.748184048074039"><ele>1304.0</ele><time>2026-03-22T11:48:31.965Z</time></trkpt><trkpt lat="30.513854525489585" lon="-6.7480602653523905"><ele>1304.0</ele><time>2026-03-22T11:48:33.965Z</time></trkpt><trkpt lat="30.513855281697293" lon="-6.747983050382807"><ele>1304.0</ele><time>2026-03-22T11:48:34.965Z</time></trkpt><trkpt lat="30.513860446231906" lon="-6.747903616099949"><ele>1304.0</ele><time>2026-03-22T11:48:35.965Z</time></trkpt><trkpt lat="30.513895789133947" lon="-6.7477626752596525"><ele>1304.0</ele><time>2026-03-22T11:48:37.965Z</time></trkpt><trkpt lat="30.513913261542687" lon="-6.74768348617707"><ele>1304.0</ele><time>2026-03-22T11:48:38.965Z</time></trkpt><trkpt lat="30.51392535364043" lon="-6.747609832650289"><ele>1304.0</ele><time>2026-03-22T11:48:39.965Z</time></trkpt><trkpt lat="30.51391265532563" lon="-6.747534057309828"><ele>1303.1666666666667</ele><time>2026-03-22T11:48:40.965Z</time></trkpt><trkpt lat="30.513889855448934" lon="-6.747416119440579"><ele>1302.3333333333335</ele><time>2026-03-22T11:48:41.965Z</time></trkpt><trkpt lat="30.513881609277067" lon="-6.74730754784427"><ele>1301.5</ele><time>2026-03-22T11:48:42.965Z</time></trkpt><trkpt lat="30.513891740016238" lon="-6.747226328210465"><ele>1300.6666666666667</ele><time>2026-03-22T11:48:43.965Z</time></trkpt><trkpt lat="30.51393793036135" lon="-6.7471659447615995"><ele>1299.8333333333333</ele><time>2026-03-22T11:48:44.965Z</time></trkpt><trkpt lat="30.514015125702826" lon="-6.747083921924304"><ele>1299.0</ele><time>2026-03-22T11:48:45.965Z</time></trkpt><trkpt lat="30.514094682072493" lon="-6.746983958956097"><ele>1299.0</ele><time>2026-03-22T11:48:46.965Z</time></trkpt><trkpt lat="30.514149551988407" lon="-6.746904861642684"><ele>1299.0</ele><time>2026-03-22T11:48:47.965Z</time></trkpt><trkpt lat="30.514182375639788" lon="-6.74683438043111"><ele>1299.0</ele><time>2026-03-22T11:48:48.965Z</time></trkpt><trkpt lat="30.514234985860845" lon="-6.746758273363476"><ele>1299.0</ele><time>2026-03-22T11:48:49.965Z</time></trkpt><trkpt lat="30.5142855115461" lon="-6.746673914067131"><ele>1299.0</ele><time>2026-03-22T11:48:50.965Z</time></trkpt><trkpt lat="30.514335640763974" lon="-6.746566799155185"><ele>1299.0</ele><time>2026-03-22T11:48:51.965Z</time></trkpt><trkpt lat="30.514391746874" lon="-6.746457493390369"><ele>1299.2</ele><time>2026-03-22T11:48:52.965Z</time></trkpt><trkpt lat="30.514436454569587" lon="-6.746360574663906"><ele>1299.4</ele><time>2026-03-22T11:48:53.965Z</time></trkpt><trkpt lat="30.514487486464674" lon="-6.746247897065317"><ele>1299.6</ele><time>2026-03-22T11:48:54.965Z</time></trkpt><trkpt lat="30.514507685965636" lon="-6.746138601276041"><ele>1299.8</ele><time>2026-03-22T11:48:55.965Z</time></trkpt><trkpt lat="30.514527005642876" lon="-6.746028848372405"><ele>1300.0</ele><time>2026-03-22T11:48:56.965Z</time></trkpt><trkpt lat="30.514560934519533" lon="-6.7459366465642665"><ele>1301.0</ele><time>2026-03-22T11:48:57.965Z</time></trkpt><trkpt lat="30.514588159897855" lon="-6.745858489741009"><ele>1302.0</ele><time>2026-03-22T11:48:58.965Z</time></trkpt><trkpt lat="30.51462172436841" lon="-6.745786355244122"><ele>1303.0</ele><time>2026-03-22T11:48:59.965Z</time></trkpt><trkpt lat="30.51465054389583" lon="-6.745717431717748"><ele>1304.0</ele><time>2026-03-22T11:49:00.965Z</time></trkpt><trkpt lat="30.514692112697066" lon="-6.7456200340879215"><ele>1305.0</ele><time>2026-03-22T11:49:02.965Z</time></trkpt><trkpt lat="30.514728198576986" lon="-6.745527011281222"><ele>1306.0</ele><time>2026-03-22T11:49:06.965Z</time></trkpt><trkpt lat="30.514792700097622" lon="-6.7454924072285944"><ele>1306.0</ele><time>2026-03-22T11:49:10.965Z</time></trkpt><trkpt lat="30.514821934501846" lon="-6.7453991283549675"><ele>1306.0</ele><time>2026-03-22T11:50:58.965Z</time></trkpt><trkpt lat="30.514855707395917" lon="-6.745470757459006"><ele>1306.0</ele><time>2026-03-22T11:53:52.965Z</time></trkpt><trkpt lat="30.51480942118302" lon="-6.745420306737029"><ele>1306.0</ele><time>2026-03-22T11:54:40.964Z</time></trkpt></trkseg><trkseg><trkpt lat="30.514828693662416" lon="-6.745357389910005"><ele>1306.0</ele><time>2026-03-22T13:04:23.943Z</time></trkpt><trkpt lat="30.5148464572099" lon="-6.745247088193484"><ele>1306.0</ele><time>2026-03-22T13:06:21.943Z</time></trkpt><trkpt lat="30.514811413777952" lon="-6.745181043658913"><ele>1306.0</ele><time>2026-03-22T13:06:23.943Z</time></trkpt><trkpt lat="30.51483743623072" lon="-6.7451090433432075"><ele>1306.0</ele><time>2026-03-22T13:06:25.943Z</time></trkpt><trkpt lat="30.514886363028076" lon="-6.745040162240841"><ele>1306.0</ele><time>2026-03-22T13:06:27.943Z</time></trkpt><trkpt lat="30.51489441125995" lon="-6.744958299118126"><ele>1306.0</ele><time>2026-03-22T13:06:29.943Z</time></trkpt><trkpt lat="30.51491555266718" lon="-6.744815387665073"><ele>1306.3333333333333</ele><time>2026-03-22T13:06:31.943Z</time></trkpt><trkpt lat="30.514942406307437" lon="-6.744727390432896"><ele>1306.6666666666665</ele><time>2026-03-22T13:06:32.943Z</time></trkpt><trkpt lat="30.514982994710387" lon="-6.7446408887368205"><ele>1307.0</ele><time>2026-03-22T13:06:34.943Z</time></trkpt><trkpt lat="30.515013804236983" lon="-6.744554250586314"><ele>1307.3333333333333</ele><time>2026-03-22T13:06:37.943Z</time></trkpt><trkpt lat="30.514943447971103" lon="-6.744490284096278"><ele>1307.6666666666667</ele><time>2026-03-22T13:06:40.943Z</time></trkpt><trkpt lat="30.51484707067454" lon="-6.7445319583713035"><ele>1308.0</ele><time>2026-03-22T13:06:42.943Z</time></trkpt><trkpt lat="30.514762026197133" lon="-6.7445276936038985"><ele>1308.0</ele><time>2026-03-22T13:06:44.943Z</time></trkpt><trkpt lat="30.514701011594386" lon="-6.744483718543961"><ele>1308.0</ele><time>2026-03-22T13:06:46.943Z</time></trkpt><trkpt lat="30.51463976031799" lon="-6.74445299644717"><ele>1308.0</ele><time>2026-03-22T13:06:50.943Z</time></trkpt><trkpt lat="30.514568735983453" lon="-6.744448928008277"><ele>1308.0</ele><time>2026-03-22T13:07:00.942Z</time></trkpt><trkpt lat="30.514466345169765" lon="-6.744448566589393"><ele>1308.0</ele><time>2026-03-22T13:07:02.943Z</time></trkpt><trkpt lat="30.514403640726485" lon="-6.744456678233397"><ele>1308.0</ele><time>2026-03-22T13:07:03.943Z</time></trkpt><trkpt lat="30.514291564910504" lon="-6.744514807814791"><ele>1308.3333333333333</ele><time>2026-03-22T13:07:05.943Z</time></trkpt><trkpt lat="30.514227233702673" lon="-6.744538838948734"><ele>1308.6666666666667</ele><time>2026-03-22T13:07:06.943Z</time></trkpt><trkpt lat="30.514115229933644" lon="-6.744568204840752"><ele>1309.0</ele><time>2026-03-22T13:07:08.943Z</time></trkpt><trkpt lat="30.514008380282682" lon="-6.744569894557164"><ele>1309.3333333333335</ele><time>2026-03-22T13:07:10.943Z</time></trkpt><trkpt lat="30.513936069787853" lon="-6.744550327661425"><ele>1309.6666666666667</ele><time>2026-03-22T13:07:11.943Z</time></trkpt><trkpt lat="30.51385925404261" lon="-6.74452972373568"><ele>1310.0</ele><time>2026-03-22T13:07:12.943Z</time></trkpt><trkpt lat="30.513776502683847" lon="-6.744505068966034"><ele>1309.6</ele><time>2026-03-22T13:07:13.943Z</time></trkpt><trkpt lat="30.513682627743066" lon="-6.744476226745617"><ele>1309.2</ele><time>2026-03-22T13:07:14.943Z</time></trkpt><trkpt lat="30.513589654825132" lon="-6.744453901239809"><ele>1308.8000000000002</ele><time>2026-03-22T13:07:15.943Z</time></trkpt><trkpt lat="30.513500569302654" lon="-6.744436931142332"><ele>1308.4</ele><time>2026-03-22T13:07:16.943Z</time></trkpt><trkpt lat="30.513411939050474" lon="-6.744426439746102"><ele>1308.0</ele><time>2026-03-22T13:07:17.943Z</time></trkpt><trkpt lat="30.513312950375944" lon="-6.744427439834967"><ele>1308.0</ele><time>2026-03-22T13:07:18.943Z</time></trkpt><trkpt lat="30.51321471021364" lon="-6.744455716206264"><ele>1308.0</ele><time>2026-03-22T13:07:19.943Z</time></trkpt><trkpt lat="30.51312606945531" lon="-6.744492487364122"><ele>1308.0</ele><time>2026-03-22T13:07:20.943Z</time></trkpt><trkpt lat="30.513050738323543" lon="-6.744522072364038"><ele>1308.0</ele><time>2026-03-22T13:07:21.943Z</time></trkpt><trkpt lat="30.51297394851104" lon="-6.744548625504662"><ele>1308.0</ele><time>2026-03-22T13:07:22.943Z</time></trkpt><trkpt lat="30.51289509917418" lon="-6.744571601046604"><ele>1308.0</ele><time>2026-03-22T13:07:23.943Z</time></trkpt><trkpt lat="30.51282702568048" lon="-6.744599159561834"><ele>1307.7142857142858</ele><time>2026-03-22T13:07:24.943Z</time></trkpt><trkpt lat="30.512757362361278" lon="-6.744622135797776"><ele>1307.4285714285716</ele><time>2026-03-22T13:07:25.943Z</time></trkpt><trkpt lat="30.512682030047582" lon="-6.744644529050476"><ele>1307.1428571428573</ele><time>2026-03-22T13:07:26.943Z</time></trkpt><trkpt lat="30.512608048299807" lon="-6.744658900530851"><ele>1306.857142857143</ele><time>2026-03-22T13:07:27.943Z</time></trkpt><trkpt lat="30.51254321059376" lon="-6.744664860482141"><ele>1306.5714285714287</ele><time>2026-03-22T13:07:28.943Z</time></trkpt><trkpt lat="30.51247809835904" lon="-6.744647466095635"><ele>1306.2857142857144</ele><time>2026-03-22T13:07:29.943Z</time></trkpt><trkpt lat="30.512417703458514" lon="-6.744621039027301"><ele>1306.0</ele><time>2026-03-22T13:07:30.943Z</time></trkpt><trkpt lat="30.51234729790363" lon="-6.74460941140589"><ele>1306.0</ele><time>2026-03-22T13:07:31.943Z</time></trkpt><trkpt lat="30.512276711762492" lon="-6.744602764688428"><ele>1306.0</ele><time>2026-03-22T13:07:32.943Z</time></trkpt><trkpt lat="30.512206554049914" lon="-6.744589102946512"><ele>1306.0</ele><time>2026-03-22T13:07:33.943Z</time></trkpt><trkpt lat="30.512148862404747" lon="-6.744549597586261"><ele>1306.0</ele><time>2026-03-22T13:07:34.943Z</time></trkpt><trkpt lat="30.51209598097929" lon="-6.744494719653477"><ele>1306.0</ele><time>2026-03-22T13:07:35.943Z</time></trkpt><trkpt lat="30.512030015693007" lon="-6.744392079134811"><ele>1306.0</ele><time>2026-03-22T13:07:37.943Z</time></trkpt><trkpt lat="30.511987100868687" lon="-6.744277429229313"><ele>1304.6</ele><time>2026-03-22T13:07:39.943Z</time></trkpt><trkpt lat="30.511969824802595" lon="-6.744152414223578"><ele>1303.1999999999998</ele><time>2026-03-22T13:07:41.943Z</time></trkpt><trkpt lat="30.51196069891418" lon="-6.7440758079379695"><ele>1301.8000000000002</ele><time>2026-03-22T13:07:42.943Z</time></trkpt><trkpt lat="30.511955046537768" lon="-6.743964902506029"><ele>1300.4</ele><time>2026-03-22T13:07:44.943Z</time></trkpt><trkpt lat="30.511991370148746" lon="-6.743823072153552"><ele>1299.0</ele><time>2026-03-22T13:07:46.943Z</time></trkpt><trkpt lat="30.512018938197528" lon="-6.74372268051051"><ele>1299.0000000000002</ele><time>2026-03-22T13:07:47.943Z</time></trkpt><trkpt lat="30.51202514618408" lon="-6.7436278404892755"><ele>1299.0</ele><time>2026-03-22T13:07:48.943Z</time></trkpt><trkpt lat="30.51201549357497" lon="-6.74353964514589"><ele>1299.0</ele><time>2026-03-22T13:07:49.943Z</time></trkpt><trkpt lat="30.51202066358022" lon="-6.743462662609964"><ele>1299.0</ele><time>2026-03-22T13:07:50.943Z</time></trkpt><trkpt lat="30.512028592961613" lon="-6.743378177799143"><ele>1299.0</ele><time>2026-03-22T13:07:51.943Z</time></trkpt><trkpt lat="30.512044582040993" lon="-6.743287561245453"><ele>1299.0000000000002</ele><time>2026-03-22T13:07:52.943Z</time></trkpt><trkpt lat="30.512074992270353" lon="-6.743221364088112"><ele>1299.0</ele><time>2026-03-22T13:07:53.943Z</time></trkpt><trkpt lat="30.512109327569146" lon="-6.743158016204866"><ele>1298.8333333333333</ele><time>2026-03-22T13:07:54.943Z</time></trkpt><trkpt lat="30.512141731156962" lon="-6.74309211298694"><ele>1298.6666666666667</ele><time>2026-03-22T13:07:55.943Z</time></trkpt><trkpt lat="30.512192772540015" lon="-6.742981540822778"><ele>1298.5</ele><time>2026-03-22T13:07:57.943Z</time></trkpt><trkpt lat="30.51222385097573" lon="-6.742864884338251"><ele>1298.3333333333335</ele><time>2026-03-22T13:07:59.943Z</time></trkpt><trkpt lat="30.512244604393494" lon="-6.742784285075115"><ele>1298.1666666666667</ele><time>2026-03-22T13:08:01.943Z</time></trkpt><trkpt lat="30.512244737398266" lon="-6.742705373052773"><ele>1298.0</ele><time>2026-03-22T13:08:03.942Z</time></trkpt><trkpt lat="30.512230824768807" lon="-6.742628331569458"><ele>1298.0</ele><time>2026-03-22T13:08:06.942Z</time></trkpt><trkpt lat="30.512206254751693" lon="-6.74255917407986"><ele>1298.0</ele><time>2026-03-22T13:08:11.942Z</time></trkpt><trkpt lat="30.512151572529394" lon="-6.742505536386088"><ele>1298.0</ele><time>2026-03-22T13:08:13.942Z</time></trkpt><trkpt lat="30.512037673679856" lon="-6.742477124895967"><ele>1298.0</ele><time>2026-03-22T13:08:15.942Z</time></trkpt><trkpt lat="30.51195937202385" lon="-6.742464496398754"><ele>1298.0</ele><time>2026-03-22T13:08:16.942Z</time></trkpt><trkpt lat="30.511888194047508" lon="-6.742459108564296"><ele>1298.0</ele><time>2026-03-22T13:08:17.942Z</time></trkpt><trkpt lat="30.51181932379385" lon="-6.742469138852462"><ele>1298.6000000000001</ele><time>2026-03-22T13:08:18.942Z</time></trkpt><trkpt lat="30.511708792489415" lon="-6.7424368370476895"><ele>1299.2</ele><time>2026-03-22T13:08:20.942Z</time></trkpt><trkpt lat="30.511626585911678" lon="-6.742422463289632"><ele>1299.8</ele><time>2026-03-22T13:08:22.942Z</time></trkpt><trkpt lat="30.511541443950776" lon="-6.742497915606452"><ele>1300.4</ele><time>2026-03-22T13:08:24.942Z</time></trkpt><trkpt lat="30.511460801442716" lon="-6.742594403655049"><ele>1301.0</ele><time>2026-03-22T13:08:26.942Z</time></trkpt><trkpt lat="30.51132963010022" lon="-6.742615085181622"><ele>1301.0</ele><time>2026-03-22T13:08:28.942Z</time></trkpt><trkpt lat="30.511266602083342" lon="-6.742606478049876"><ele>1301.0</ele><time>2026-03-22T13:08:29.942Z</time></trkpt><trkpt lat="30.511204612387058" lon="-6.742575861730795"><ele>1301.0</ele><time>2026-03-22T13:08:30.942Z</time></trkpt><trkpt lat="30.5111480728681" lon="-6.742526658197662"><ele>1301.0</ele><time>2026-03-22T13:08:31.942Z</time></trkpt><trkpt lat="30.51109850548154" lon="-6.7424608299642825"><ele>1301.0</ele><time>2026-03-22T13:08:32.942Z</time></trkpt><trkpt lat="30.511052407794935" lon="-6.742400590546768"><ele>1301.0</ele><time>2026-03-22T13:08:33.942Z</time></trkpt><trkpt lat="30.51100343448276" lon="-6.742267166502603"><ele>1303.0</ele><time>2026-03-22T13:08:35.942Z</time></trkpt><trkpt lat="30.51097193862481" lon="-6.742154650399187"><ele>1305.0</ele><time>2026-03-22T13:08:37.942Z</time></trkpt><trkpt lat="30.51097920848514" lon="-6.74205965597728"><ele>1307.0</ele><time>2026-03-22T13:08:39.942Z</time></trkpt><trkpt lat="30.510995925982225" lon="-6.741915741908299"><ele>1309.0</ele><time>2026-03-22T13:08:41.942Z</time></trkpt><trkpt lat="30.511021381541003" lon="-6.741770924744989"><ele>1311.0</ele><time>2026-03-22T13:08:43.942Z</time></trkpt><trkpt lat="30.511039306971043" lon="-6.74167490015641"><ele>1311.5714285714287</ele><time>2026-03-22T13:08:44.942Z</time></trkpt><trkpt lat="30.51105231252959" lon="-6.741592015745926"><ele>1312.142857142857</ele><time>2026-03-22T13:08:45.942Z</time></trkpt><trkpt lat="30.511058358336825" lon="-6.741513726613254"><ele>1312.7142857142858</ele><time>2026-03-22T13:08:46.942Z</time></trkpt><trkpt lat="30.511069413787755" lon="-6.741424243635164"><ele>1313.2857142857142</ele><time>2026-03-22T13:08:47.942Z</time></trkpt><trkpt lat="30.511071309009274" lon="-6.741349434943182"><ele>1313.857142857143</ele><time>2026-03-22T13:08:48.942Z</time></trkpt><trkpt lat="30.511073060940788" lon="-6.74126774545213"><ele>1314.4285714285713</ele><time>2026-03-22T13:08:50.942Z</time></trkpt><trkpt lat="30.511092073958192" lon="-6.741165922947362"><ele>1315.0</ele><time>2026-03-22T13:09:00.942Z</time></trkpt><trkpt lat="30.511116389338888" lon="-6.74106223866979"><ele>1314.5</ele><time>2026-03-22T13:09:02.943Z</time></trkpt><trkpt lat="30.511129284661422" lon="-6.740989732906657"><ele>1314.0</ele><time>2026-03-22T13:09:03.943Z</time></trkpt><trkpt lat="30.511157367489822" lon="-6.740903574803628"><ele>1313.5</ele><time>2026-03-22T13:09:04.943Z</time></trkpt><trkpt lat="30.51119428159268" lon="-6.740811236003545"><ele>1313.0</ele><time>2026-03-22T13:09:05.943Z</time></trkpt><trkpt lat="30.511232831274203" lon="-6.740722565100234"><ele>1312.5</ele><time>2026-03-22T13:09:06.943Z</time></trkpt><trkpt lat="30.511268927364593" lon="-6.740654311396967"><ele>1312.0</ele><time>2026-03-22T13:09:07.943Z</time></trkpt><trkpt lat="30.51134429176463" lon="-6.7405230223856645"><ele>1311.1666666666665</ele><time>2026-03-22T13:09:09.942Z</time></trkpt><trkpt lat="30.511390620520974" lon="-6.740438023464699"><ele>1310.3333333333333</ele><time>2026-03-22T13:09:10.942Z</time></trkpt><trkpt lat="30.511444964188442" lon="-6.740363448742177"><ele>1309.5</ele><time>2026-03-22T13:09:11.942Z</time></trkpt><trkpt lat="30.511509770708784" lon="-6.740285620689445"><ele>1308.6666666666667</ele><time>2026-03-22T13:09:12.942Z</time></trkpt><trkpt lat="30.51157760129276" lon="-6.740222405138853"><ele>1307.8333333333335</ele><time>2026-03-22T13:09:13.942Z</time></trkpt><trkpt lat="30.511646018034412" lon="-6.740178231269371"><ele>1307.0</ele><time>2026-03-22T13:09:14.942Z</time></trkpt><trkpt lat="30.511719447151467" lon="-6.740133639771629"><ele>1306.5</ele><time>2026-03-22T13:09:15.942Z</time></trkpt><trkpt lat="30.511790031952103" lon="-6.74008450972475"><ele>1306.0</ele><time>2026-03-22T13:09:16.942Z</time></trkpt><trkpt lat="30.51186171884602" lon="-6.740017028501584"><ele>1305.5</ele><time>2026-03-22T13:09:17.942Z</time></trkpt><trkpt lat="30.511925214683664" lon="-6.739942824480627"><ele>1305.0</ele><time>2026-03-22T13:09:18.942Z</time></trkpt><trkpt lat="30.511980829634243" lon="-6.739883101208599"><ele>1304.5</ele><time>2026-03-22T13:09:19.942Z</time></trkpt><trkpt lat="30.51203674813529" lon="-6.739832896547442"><ele>1304.0</ele><time>2026-03-22T13:09:20.942Z</time></trkpt><trkpt lat="30.512120496264085" lon="-6.739726562054015"><ele>1303.8333333333335</ele><time>2026-03-22T13:09:22.942Z</time></trkpt><trkpt lat="30.512169072826254" lon="-6.739645538760802"><ele>1303.6666666666667</ele><time>2026-03-22T13:09:24.942Z</time></trkpt><trkpt lat="30.51220380531021" lon="-6.739559938393408"><ele>1303.5</ele><time>2026-03-22T13:09:26.942Z</time></trkpt><trkpt lat="30.51213954532544" lon="-6.739465985443347"><ele>1303.3333333333333</ele><time>2026-03-22T13:09:28.942Z</time></trkpt><trkpt lat="30.51208227557117" lon="-6.739404530235315"><ele>1303.1666666666665</ele><time>2026-03-22T13:09:29.942Z</time></trkpt><trkpt lat="30.512039617301582" lon="-6.739328404128868"><ele>1303.0</ele><time>2026-03-22T13:09:30.942Z</time></trkpt><trkpt lat="30.51200873241806" lon="-6.739242116256407"><ele>1303.0</ele><time>2026-03-22T13:09:31.942Z</time></trkpt><trkpt lat="30.51198295001103" lon="-6.7391608457138785"><ele>1303.0</ele><time>2026-03-22T13:09:32.942Z</time></trkpt><trkpt lat="30.5119702499058" lon="-6.739082051104189"><ele>1303.0</ele><time>2026-03-22T13:09:33.942Z</time></trkpt><trkpt lat="30.511957257113814" lon="-6.738940699142485"><ele>1303.0</ele><time>2026-03-22T13:09:35.942Z</time></trkpt><trkpt lat="30.51194205391682" lon="-6.738861590487902"><ele>1303.0</ele><time>2026-03-22T13:09:36.942Z</time></trkpt><trkpt lat="30.51192001638072" lon="-6.7387882508556896"><ele>1303.0</ele><time>2026-03-22T13:09:37.942Z</time></trkpt><trkpt lat="30.511909982540516" lon="-6.73871411811584"><ele>1303.0</ele><time>2026-03-22T13:09:38.942Z</time></trkpt><trkpt lat="30.511954834856613" lon="-6.738580366508402"><ele>1303.0</ele><time>2026-03-22T13:09:40.942Z</time></trkpt><trkpt lat="30.511982872154164" lon="-6.738498719995819"><ele>1303.0</ele><time>2026-03-22T13:09:41.942Z</time></trkpt><trkpt lat="30.512000339304652" lon="-6.738406323295564"><ele>1303.0</ele><time>2026-03-22T13:09:42.942Z</time></trkpt><trkpt lat="30.512016267760387" lon="-6.738317582802006"><ele>1303.0</ele><time>2026-03-22T13:09:43.942Z</time></trkpt><trkpt lat="30.512039572281072" lon="-6.738231893046194"><ele>1303.0</ele><time>2026-03-22T13:09:44.942Z</time></trkpt><trkpt lat="30.512074099440117" lon="-6.738147231722547"><ele>1303.6000000000001</ele><time>2026-03-22T13:09:45.942Z</time></trkpt><trkpt lat="30.512112499859278" lon="-6.738064468817109"><ele>1304.2</ele><time>2026-03-22T13:09:46.942Z</time></trkpt><trkpt lat="30.512157620828432" lon="-6.737975348853161"><ele>1304.8</ele><time>2026-03-22T13:09:47.942Z</time></trkpt><trkpt lat="30.512211088536763" lon="-6.737865721168978"><ele>1305.4</ele><time>2026-03-22T13:09:48.942Z</time></trkpt><trkpt lat="30.512269966162382" lon="-6.737743858583449"><ele>1306.0</ele><time>2026-03-22T13:09:49.942Z</time></trkpt><trkpt lat="30.512327714994463" lon="-6.737626051705884"><ele>1306.0</ele><time>2026-03-22T13:09:50.942Z</time></trkpt><trkpt lat="30.51238474297446" lon="-6.737514301195575"><ele>1306.0</ele><time>2026-03-22T13:09:51.942Z</time></trkpt><trkpt lat="30.51243122201629" lon="-6.737400201620229"><ele>1306.0</ele><time>2026-03-22T13:09:52.942Z</time></trkpt><trkpt lat="30.51246880430896" lon="-6.737281309085189"><ele>1306.0</ele><time>2026-03-22T13:09:53.942Z</time></trkpt><trkpt lat="30.51252103480073" lon="-6.737163063963444"><ele>1306.0</ele><time>2026-03-22T13:09:54.942Z</time></trkpt><trkpt lat="30.512592628459462" lon="-6.737062443611842"><ele>1306.0</ele><time>2026-03-22T13:09:55.942Z</time></trkpt><trkpt lat="30.51267393735276" lon="-6.736966528250305"><ele>1306.0</ele><time>2026-03-22T13:09:56.942Z</time></trkpt><trkpt lat="30.51274374850782" lon="-6.736884206873719"><ele>1306.0</ele><time>2026-03-22T13:09:57.942Z</time></trkpt><trkpt lat="30.51280960732533" lon="-6.736822140975126"><ele>1306.0</ele><time>2026-03-22T13:09:58.942Z</time></trkpt><trkpt lat="30.51287652100844" lon="-6.736776214719368"><ele>1306.0</ele><time>2026-03-22T13:09:59.942Z</time></trkpt><trkpt lat="30.51295212743506" lon="-6.736712589995836"><ele>1306.1666666666665</ele><time>2026-03-22T13:10:00.942Z</time></trkpt><trkpt lat="30.513027320987693" lon="-6.736660650097941"><ele>1306.3333333333333</ele><time>2026-03-22T13:10:01.942Z</time></trkpt><trkpt lat="30.51309608687448" lon="-6.736598475437028"><ele>1306.5</ele><time>2026-03-22T13:10:02.942Z</time></trkpt><trkpt lat="30.513161546723268" lon="-6.736535941618406"><ele>1306.6666666666667</ele><time>2026-03-22T13:10:03.942Z</time></trkpt><trkpt lat="30.513212596691723" lon="-6.736456343501781"><ele>1306.8333333333335</ele><time>2026-03-22T13:10:04.942Z</time></trkpt><trkpt lat="30.513256357510144" lon="-6.736369008315528"><ele>1307.0</ele><time>2026-03-22T13:10:05.942Z</time></trkpt><trkpt lat="30.513304579983533" lon="-6.736268272618328"><ele>1307.0</ele><time>2026-03-22T13:10:06.942Z</time></trkpt><trkpt lat="30.51335370409" lon="-6.736175598116974"><ele>1307.0</ele><time>2026-03-22T13:10:07.942Z</time></trkpt><trkpt lat="30.51341036534416" lon="-6.736088925000995"><ele>1307.0</ele><time>2026-03-22T13:10:08.942Z</time></trkpt><trkpt lat="30.513461702563202" lon="-6.736009340827794"><ele>1307.0</ele><time>2026-03-22T13:10:09.942Z</time></trkpt><trkpt lat="30.513507505432642" lon="-6.73592506118506"><ele>1307.0</ele><time>2026-03-22T13:10:10.942Z</time></trkpt><trkpt lat="30.51356620856513" lon="-6.7358279330863775"><ele>1307.3999999999999</ele><time>2026-03-22T13:10:11.942Z</time></trkpt><trkpt lat="30.513620598232038" lon="-6.735718093354803"><ele>1307.8</ele><time>2026-03-22T13:10:12.942Z</time></trkpt><trkpt lat="30.513670922331617" lon="-6.735632257351484"><ele>1308.2</ele><time>2026-03-22T13:10:13.942Z</time></trkpt><trkpt lat="30.513724680811848" lon="-6.73552698834313"><ele>1308.6</ele><time>2026-03-22T13:10:14.942Z</time></trkpt><trkpt lat="30.513789202758502" lon="-6.7354134531603576"><ele>1309.0</ele><time>2026-03-22T13:10:15.942Z</time></trkpt><trkpt lat="30.5138567565582" lon="-6.73531670237962"><ele>1309.6666666666665</ele><time>2026-03-22T13:10:16.942Z</time></trkpt><trkpt lat="30.513913083078112" lon="-6.735231513822134"><ele>1310.3333333333333</ele><time>2026-03-22T13:10:17.942Z</time></trkpt><trkpt lat="30.51396537353799" lon="-6.7351499331654745"><ele>1311.0</ele><time>2026-03-22T13:10:18.942Z</time></trkpt><trkpt lat="30.513994425272713" lon="-6.735073261260589"><ele>1311.6666666666667</ele><time>2026-03-22T13:10:19.942Z</time></trkpt><trkpt lat="30.514007866050054" lon="-6.73499617715556"><ele>1312.3333333333335</ele><time>2026-03-22T13:10:20.942Z</time></trkpt><trkpt lat="30.513999988832825" lon="-6.734909344890825"><ele>1313.0</ele><time>2026-03-22T13:10:21.942Z</time></trkpt><trkpt lat="30.514007610881958" lon="-6.734816593346336"><ele>1313.2</ele><time>2026-03-22T13:10:22.942Z</time></trkpt><trkpt lat="30.51403144268177" lon="-6.73474623619307"><ele>1313.4</ele><time>2026-03-22T13:10:23.942Z</time></trkpt><trkpt lat="30.514071047507496" lon="-6.734617743319941"><ele>1313.6000000000001</ele><time>2026-03-22T13:10:25.942Z</time></trkpt><trkpt lat="30.51411242913943" lon="-6.7344900228240405"><ele>1313.8000000000002</ele><time>2026-03-22T13:10:27.942Z</time></trkpt><trkpt lat="30.514114537324154" lon="-6.7343554783189825"><ele>1314.0</ele><time>2026-03-22T13:10:29.942Z</time></trkpt><trkpt lat="30.51409546029351" lon="-6.734224021007747"><ele>1314.1666666666667</ele><time>2026-03-22T13:10:31.942Z</time></trkpt><trkpt lat="30.514100692223135" lon="-6.7341478163255895"><ele>1314.3333333333333</ele><time>2026-03-22T13:10:32.942Z</time></trkpt><trkpt lat="30.514114139254747" lon="-6.734076168235096"><ele>1314.5</ele><time>2026-03-22T13:10:33.942Z</time></trkpt><trkpt lat="30.514162079030516" lon="-6.733937015534658"><ele>1314.6666666666665</ele><time>2026-03-22T13:10:35.942Z</time></trkpt><trkpt lat="30.51420045555731" lon="-6.73387497532729"><ele>1314.8333333333333</ele><time>2026-03-22T13:10:36.942Z</time></trkpt><trkpt lat="30.51425926954234" lon="-6.7337734950158"><ele>1315.0</ele><time>2026-03-22T13:10:38.942Z</time></trkpt><trkpt lat="30.514358751114777" lon="-6.7337413703240685"><ele>1315.0</ele><time>2026-03-22T13:10:40.942Z</time></trkpt><trkpt lat="30.514442646475796" lon="-6.733775937436342"><ele>1315.0</ele><time>2026-03-22T13:10:42.942Z</time></trkpt><trkpt lat="30.514525248321554" lon="-6.7337775668927025"><ele>1315.0</ele><time>2026-03-22T13:10:44.942Z</time></trkpt><trkpt lat="30.514620944218464" lon="-6.7337967577404445"><ele>1315.0</ele><time>2026-03-22T13:10:46.942Z</time></trkpt><trkpt lat="30.514742233598053" lon="-6.733763378432309"><ele>1315.0</ele><time>2026-03-22T13:10:48.942Z</time></trkpt><trkpt lat="30.51481316551437" lon="-6.733732885516179"><ele>1316.0</ele><time>2026-03-22T13:10:49.942Z</time></trkpt><trkpt lat="30.51487716251415" lon="-6.733692856409561"><ele>1317.0</ele><time>2026-03-22T13:10:50.942Z</time></trkpt><trkpt lat="30.514935595630078" lon="-6.733647245106711"><ele>1318.0</ele><time>2026-03-22T13:10:51.942Z</time></trkpt><trkpt lat="30.514984034078495" lon="-6.733593704759158"><ele>1319.0</ele><time>2026-03-22T13:10:52.942Z</time></trkpt><trkpt lat="30.515025291731575" lon="-6.733523563559637"><ele>1320.0</ele><time>2026-03-22T13:10:53.942Z</time></trkpt><trkpt lat="30.51505926318066" lon="-6.733430329430976"><ele>1321.0</ele><time>2026-03-22T13:10:54.942Z</time></trkpt><trkpt lat="30.515071166912094" lon="-6.733351470121114"><ele>1322.0</ele><time>2026-03-22T13:10:55.942Z</time></trkpt><trkpt lat="30.51509942678049" lon="-6.733282035227671"><ele>1322.0</ele><time>2026-03-22T13:10:56.942Z</time></trkpt><trkpt lat="30.51514774735945" lon="-6.7332084098496425"><ele>1322.0</ele><time>2026-03-22T13:10:57.942Z</time></trkpt><trkpt lat="30.515206460745308" lon="-6.733145107171471"><ele>1322.0</ele><time>2026-03-22T13:10:58.942Z</time></trkpt><trkpt lat="30.515274896616333" lon="-6.733096821035527"><ele>1322.0</ele><time>2026-03-22T13:10:59.942Z</time></trkpt><trkpt lat="30.515345094748" lon="-6.733046219735605"><ele>1322.0</ele><time>2026-03-22T13:11:00.942Z</time></trkpt><trkpt lat="30.51541620298918" lon="-6.732996694869123"><ele>1322.0</ele><time>2026-03-22T13:11:01.942Z</time></trkpt><trkpt lat="30.51547551002107" lon="-6.732928382787633"><ele>1322.8333333333335</ele><time>2026-03-22T13:11:02.942Z</time></trkpt><trkpt lat="30.51552953163742" lon="-6.7328604954747995"><ele>1323.6666666666667</ele><time>2026-03-22T13:11:03.942Z</time></trkpt><trkpt lat="30.515584938256385" lon="-6.732796553193026"><ele>1324.5</ele><time>2026-03-22T13:11:04.942Z</time></trkpt><trkpt lat="30.51566129847847" lon="-6.732727599948492"><ele>1325.3333333333333</ele><time>2026-03-22T13:11:06.942Z</time></trkpt><trkpt lat="30.515680257347338" lon="-6.732648376352287"><ele>1326.1666666666665</ele><time>2026-03-22T13:11:08.942Z</time></trkpt><trkpt lat="30.515629239811815" lon="-6.732522499520164"><ele>1327.0</ele><time>2026-03-22T13:11:10.942Z</time></trkpt><trkpt lat="30.51559778011534" lon="-6.732457496376914"><ele>1327.0</ele><time>2026-03-22T13:11:11.942Z</time></trkpt><trkpt lat="30.515536992280925" lon="-6.732344460507574"><ele>1327.0</ele><time>2026-03-22T13:11:13.941Z</time></trkpt><trkpt lat="30.51546278368812" lon="-6.732267177403862"><ele>1327.0</ele><time>2026-03-22T13:11:15.942Z</time></trkpt><trkpt lat="30.51536908141169" lon="-6.732177942484377"><ele>1327.0</ele><time>2026-03-22T13:11:17.942Z</time></trkpt><trkpt lat="30.515300886786118" lon="-6.732075729110775"><ele>1327.0</ele><time>2026-03-22T13:11:19.942Z</time></trkpt><trkpt lat="30.515271475959615" lon="-6.732001006979975"><ele>1326.8</ele><time>2026-03-22T13:11:20.942Z</time></trkpt><trkpt lat="30.51526008814125" lon="-6.7319199520601725"><ele>1326.6</ele><time>2026-03-22T13:11:21.941Z</time></trkpt><trkpt lat="30.515273778853317" lon="-6.731830996574712"><ele>1326.3999999999999</ele><time>2026-03-22T13:11:22.941Z</time></trkpt><trkpt lat="30.515285278243294" lon="-6.731719535878243"><ele>1326.1999999999998</ele><time>2026-03-22T13:11:23.941Z</time></trkpt><trkpt lat="30.51529624091466" lon="-6.731595182137013"><ele>1326.0</ele><time>2026-03-22T13:11:24.941Z</time></trkpt><trkpt lat="30.51530044471833" lon="-6.731435432066036"><ele>1326.0</ele><time>2026-03-22T13:11:25.941Z</time></trkpt><trkpt lat="30.515303668415466" lon="-6.731266621735216"><ele>1326.0</ele><time>2026-03-22T13:11:26.941Z</time></trkpt><trkpt lat="30.51529378524341" lon="-6.731132541014621"><ele>1326.0</ele><time>2026-03-22T13:11:27.941Z</time></trkpt><trkpt lat="30.51526839611684" lon="-6.731010246207287"><ele>1326.0</ele><time>2026-03-22T13:11:28.941Z</time></trkpt><trkpt lat="30.51525467552741" lon="-6.730901116223422"><ele>1326.6666666666667</ele><time>2026-03-22T13:11:29.941Z</time></trkpt><trkpt lat="30.515237035211488" lon="-6.730805312450725"><ele>1327.3333333333333</ele><time>2026-03-22T13:11:30.941Z</time></trkpt><trkpt lat="30.515229485109636" lon="-6.730716189477996"><ele>1328.0</ele><time>2026-03-22T13:11:31.941Z</time></trkpt><trkpt lat="30.515231777886466" lon="-6.73062304379461"><ele>1328.6666666666665</ele><time>2026-03-22T13:11:32.941Z</time></trkpt><trkpt lat="30.515246942418845" lon="-6.730532418737308"><ele>1329.3333333333333</ele><time>2026-03-22T13:11:33.941Z</time></trkpt><trkpt lat="30.51526738311618" lon="-6.730444781519736"><ele>1330.0</ele><time>2026-03-22T13:11:34.941Z</time></trkpt><trkpt lat="30.51528771375065" lon="-6.730361958372846"><ele>1330.0</ele><time>2026-03-22T13:11:35.941Z</time></trkpt><trkpt lat="30.515308745335943" lon="-6.730282016053727"><ele>1330.0</ele><time>2026-03-22T13:11:36.941Z</time></trkpt><trkpt lat="30.51532921181567" lon="-6.730193249024716"><ele>1330.0</ele><time>2026-03-22T13:11:37.941Z</time></trkpt><trkpt lat="30.515337102716668" lon="-6.730099961347156"><ele>1330.0</ele><time>2026-03-22T13:11:38.941Z</time></trkpt><trkpt lat="30.515331894473814" lon="-6.729998242336194"><ele>1330.0</ele><time>2026-03-22T13:11:39.941Z</time></trkpt><trkpt lat="30.51532813496422" lon="-6.729888655989603"><ele>1330.0</ele><time>2026-03-22T13:11:40.941Z</time></trkpt><trkpt lat="30.51532572509674" lon="-6.729790274397434"><ele>1330.142857142857</ele><time>2026-03-22T13:11:41.941Z</time></trkpt><trkpt lat="30.515326565677587" lon="-6.729689613962499"><ele>1330.2857142857142</ele><time>2026-03-22T13:11:42.941Z</time></trkpt><trkpt lat="30.515329598925838" lon="-6.729595740525866"><ele>1330.4285714285716</ele><time>2026-03-22T13:11:43.941Z</time></trkpt><trkpt lat="30.515348481920462" lon="-6.729512557035232"><ele>1330.5714285714284</ele><time>2026-03-22T13:11:44.941Z</time></trkpt><trkpt lat="30.51536990027826" lon="-6.729438144687207"><ele>1330.7142857142858</ele><time>2026-03-22T13:11:45.941Z</time></trkpt><trkpt lat="30.51538981082039" lon="-6.729368692140509"><ele>1330.857142857143</ele><time>2026-03-22T13:11:46.941Z</time></trkpt><trkpt lat="30.515416159409643" lon="-6.729299054478196"><ele>1331.0</ele><time>2026-03-22T13:11:47.941Z</time></trkpt><trkpt lat="30.51545389185549" lon="-6.729218344234478"><ele>1331.0</ele><time>2026-03-22T13:11:48.941Z</time></trkpt><trkpt lat="30.51548784512117" lon="-6.729128709446752"><ele>1331.0</ele><time>2026-03-22T13:11:49.941Z</time></trkpt><trkpt lat="30.515513454703665" lon="-6.729057632567285"><ele>1331.0</ele><time>2026-03-22T13:11:50.941Z</time></trkpt><trkpt lat="30.51554800006598" lon="-6.728977288193729"><ele>1331.0</ele><time>2026-03-22T13:11:51.941Z</time></trkpt><trkpt lat="30.515588609281338" lon="-6.72890675818764"><ele>1331.0</ele><time>2026-03-22T13:11:52.941Z</time></trkpt><trkpt lat="30.51564016939274" lon="-6.728838005182857"><ele>1331.0</ele><time>2026-03-22T13:11:53.941Z</time></trkpt><trkpt lat="30.515677189158634" lon="-6.728762151960071"><ele>1331.0</ele><time>2026-03-22T13:11:54.941Z</time></trkpt><trkpt lat="30.515709276422644" lon="-6.728678772197476"><ele>1331.0</ele><time>2026-03-22T13:11:55.941Z</time></trkpt><trkpt lat="30.515765842771415" lon="-6.728585885826122"><ele>1331.0</ele><time>2026-03-22T13:11:56.941Z</time></trkpt><trkpt lat="30.515832015385143" lon="-6.728498576385663"><ele>1331.0</ele><time>2026-03-22T13:11:57.941Z</time></trkpt><trkpt lat="30.51589332291034" lon="-6.728406490201552"><ele>1331.0</ele><time>2026-03-22T13:11:58.941Z</time></trkpt><trkpt lat="30.515949988504616" lon="-6.728308313534224"><ele>1331.1999999999998</ele><time>2026-03-22T13:11:59.941Z</time></trkpt><trkpt lat="30.515995933439513" lon="-6.728214708498403"><ele>1331.3999999999999</ele><time>2026-03-22T13:12:00.941Z</time></trkpt><trkpt lat="30.51603147984319" lon="-6.728113575735131"><ele>1331.6</ele><time>2026-03-22T13:12:01.941Z</time></trkpt><trkpt lat="30.516080685329484" lon="-6.72801466530448"><ele>1331.8</ele><time>2026-03-22T13:12:02.941Z</time></trkpt><trkpt lat="30.51612610480324" lon="-6.7279185494477645"><ele>1332.0</ele><time>2026-03-22T13:12:03.941Z</time></trkpt><trkpt lat="30.516189717357477" lon="-6.727792872483663"><ele>1331.8</ele><time>2026-03-22T13:12:04.941Z</time></trkpt><trkpt lat="30.516249933361397" lon="-6.727675350168855"><ele>1331.6</ele><time>2026-03-22T13:12:05.941Z</time></trkpt><trkpt lat="30.516302062214542" lon="-6.727573485909038"><ele>1331.3999999999999</ele><time>2026-03-22T13:12:06.941Z</time></trkpt><trkpt lat="30.51633257058577" lon="-6.727480157161887"><ele>1331.1999999999998</ele><time>2026-03-22T13:12:07.941Z</time></trkpt><trkpt lat="30.516357412371416" lon="-6.727387993476615"><ele>1331.0</ele><time>2026-03-22T13:12:08.941Z</time></trkpt><trkpt lat="30.51639831626305" lon="-6.727290429598006"><ele>1331.0</ele><time>2026-03-22T13:12:09.941Z</time></trkpt><trkpt lat="30.516435145409282" lon="-6.727187132307716"><ele>1331.0</ele><time>2026-03-22T13:12:10.941Z</time></trkpt><trkpt lat="30.516464691326235" lon="-6.727072039182978"><ele>1331.0</ele><time>2026-03-22T13:12:11.941Z</time></trkpt><trkpt lat="30.516505568352898" lon="-6.7269620629824916"><ele>1331.0</ele><time>2026-03-22T13:12:12.941Z</time></trkpt><trkpt lat="30.516548667353156" lon="-6.726873556879271"><ele>1331.0</ele><time>2026-03-22T13:12:13.941Z</time></trkpt><trkpt lat="30.51659819181188" lon="-6.726800104221888"><ele>1331.1999999999998</ele><time>2026-03-22T13:12:14.941Z</time></trkpt><trkpt lat="30.516648492104128" lon="-6.726731443135072"><ele>1331.3999999999999</ele><time>2026-03-22T13:12:15.941Z</time></trkpt><trkpt lat="30.516676100191265" lon="-6.726642049783444"><ele>1331.6</ele><time>2026-03-22T13:12:16.941Z</time></trkpt><trkpt lat="30.516707785596605" lon="-6.726529450265503"><ele>1331.8</ele><time>2026-03-22T13:12:17.941Z</time></trkpt><trkpt lat="30.51673934744294" lon="-6.726423096940072"><ele>1332.0</ele><time>2026-03-22T13:12:18.941Z</time></trkpt><trkpt lat="30.516776233076833" lon="-6.726291894451552"><ele>1332.0</ele><time>2026-03-22T13:12:19.941Z</time></trkpt><trkpt lat="30.516820759741112" lon="-6.726130989208377"><ele>1332.0</ele><time>2026-03-22T13:12:20.941Z</time></trkpt><trkpt lat="30.516873732764658" lon="-6.725955277718623"><ele>1332.0</ele><time>2026-03-22T13:12:21.941Z</time></trkpt><trkpt lat="30.51693209747172" lon="-6.725773491008651"><ele>1332.25</ele><time>2026-03-22T13:12:22.941Z</time></trkpt><trkpt lat="30.516985844246413" lon="-6.725597580664696"><ele>1332.5</ele><time>2026-03-22T13:12:23.941Z</time></trkpt><trkpt lat="30.517033001217015" lon="-6.725445008567053"><ele>1332.75</ele><time>2026-03-22T13:12:24.941Z</time></trkpt><trkpt lat="30.517084415933965" lon="-6.7253089004805675"><ele>1333.0</ele><time>2026-03-22T13:12:25.941Z</time></trkpt><trkpt lat="30.51713461056397" lon="-6.725197254700917"><ele>1332.2</ele><time>2026-03-22T13:12:26.941Z</time></trkpt><trkpt lat="30.51717387722148" lon="-6.725090525793173"><ele>1331.4</ele><time>2026-03-22T13:12:27.941Z</time></trkpt><trkpt lat="30.51719981907173" lon="-6.72498247664657"><ele>1330.6000000000001</ele><time>2026-03-22T13:12:28.941Z</time></trkpt><trkpt lat="30.51721822076271" lon="-6.724887375986447"><ele>1329.8000000000002</ele><time>2026-03-22T13:12:29.941Z</time></trkpt><trkpt lat="30.51723048100702" lon="-6.724776025894763"><ele>1329.0</ele><time>2026-03-22T13:12:30.941Z</time></trkpt><trkpt lat="30.517242966826274" lon="-6.72467424899634"><ele>1329.0</ele><time>2026-03-22T13:12:31.941Z</time></trkpt><trkpt lat="30.517257947445525" lon="-6.72455486188742"><ele>1329.0</ele><time>2026-03-22T13:12:32.941Z</time></trkpt><trkpt lat="30.51727814005059" lon="-6.724438092611166"><ele>1329.0</ele><time>2026-03-22T13:12:33.941Z</time></trkpt><trkpt lat="30.517294421444358" lon="-6.724315001779298"><ele>1329.0</ele><time>2026-03-22T13:12:34.941Z</time></trkpt><trkpt lat="30.517316347438605" lon="-6.724194022099996"><ele>1329.0</ele><time>2026-03-22T13:12:35.941Z</time></trkpt><trkpt lat="30.51734524936641" lon="-6.724075835635455"><ele>1329.25</ele><time>2026-03-22T13:12:36.941Z</time></trkpt><trkpt lat="30.51738693289793" lon="-6.723943720280731"><ele>1329.5</ele><time>2026-03-22T13:12:37.941Z</time></trkpt><trkpt lat="30.517417314728107" lon="-6.723797060139439"><ele>1329.75</ele><time>2026-03-22T13:12:38.941Z</time></trkpt><trkpt lat="30.517445233516238" lon="-6.723650018405649"><ele>1330.0</ele><time>2026-03-22T13:12:39.941Z</time></trkpt><trkpt lat="30.517472602103773" lon="-6.723506200920115"><ele>1330.0</ele><time>2026-03-22T13:12:40.941Z</time></trkpt><trkpt lat="30.51749871858528" lon="-6.723384552043558"><ele>1330.0</ele><time>2026-03-22T13:12:41.941Z</time></trkpt><trkpt lat="30.517517176600492" lon="-6.7232735112830495"><ele>1330.0</ele><time>2026-03-22T13:12:42.941Z</time></trkpt><trkpt lat="30.517527867623418" lon="-6.7231518479174746"><ele>1330.0</ele><time>2026-03-22T13:12:43.941Z</time></trkpt><trkpt lat="30.517539543425627" lon="-6.723030839703786"><ele>1330.0</ele><time>2026-03-22T13:12:44.941Z</time></trkpt><trkpt lat="30.517550456213527" lon="-6.722911263086277"><ele>1330.0</ele><time>2026-03-22T13:12:45.941Z</time></trkpt><trkpt lat="30.517548882867143" lon="-6.7227937116653464"><ele>1330.0</ele><time>2026-03-22T13:12:46.941Z</time></trkpt><trkpt lat="30.51754012316043" lon="-6.722680134851111"><ele>1330.0</ele><time>2026-03-22T13:12:47.941Z</time></trkpt><trkpt lat="30.51754510626112" lon="-6.722573540669402"><ele>1330.0</ele><time>2026-03-22T13:12:48.941Z</time></trkpt><trkpt lat="30.51755885099868" lon="-6.722476332140638"><ele>1330.0</ele><time>2026-03-22T13:12:49.941Z</time></trkpt><trkpt lat="30.517565027883432" lon="-6.722380879657136"><ele>1330.1666666666665</ele><time>2026-03-22T13:12:50.941Z</time></trkpt><trkpt lat="30.51756890755116" lon="-6.722295472438473"><ele>1330.3333333333333</ele><time>2026-03-22T13:12:51.941Z</time></trkpt><trkpt lat="30.517569233136303" lon="-6.7222162285038145"><ele>1330.5</ele><time>2026-03-22T13:12:52.941Z</time></trkpt><trkpt lat="30.517549692796308" lon="-6.722127555697935"><ele>1330.6666666666667</ele><time>2026-03-22T13:12:53.941Z</time></trkpt><trkpt lat="30.517514740521978" lon="-6.722030832837399"><ele>1330.8333333333335</ele><time>2026-03-22T13:12:54.941Z</time></trkpt><trkpt lat="30.517481876427023" lon="-6.7219277766195225"><ele>1331.0</ele><time>2026-03-22T13:12:55.941Z</time></trkpt><trkpt lat="30.517457709696508" lon="-6.721817395038849"><ele>1331.1999999999998</ele><time>2026-03-22T13:12:56.941Z</time></trkpt><trkpt lat="30.517436110886997" lon="-6.721706798376106"><ele>1331.3999999999999</ele><time>2026-03-22T13:12:57.941Z</time></trkpt><trkpt lat="30.517408851551934" lon="-6.721594662575787"><ele>1331.6</ele><time>2026-03-22T13:12:58.941Z</time></trkpt><trkpt lat="30.517379035579957" lon="-6.721487383754337"><ele>1331.8</ele><time>2026-03-22T13:12:59.941Z</time></trkpt><trkpt lat="30.517343443358865" lon="-6.721387450236714"><ele>1332.0</ele><time>2026-03-22T13:13:00.941Z</time></trkpt><trkpt lat="30.517309870288937" lon="-6.7213119737433455"><ele>1332.0</ele><time>2026-03-22T13:13:01.941Z</time></trkpt><trkpt lat="30.517258181405285" lon="-6.721213106738251"><ele>1332.0</ele><time>2026-03-22T13:13:03.941Z</time></trkpt><trkpt lat="30.517216478587912" lon="-6.721111943520408"><ele>1332.0</ele><time>2026-03-22T13:13:05.941Z</time></trkpt><trkpt lat="30.517182189968633" lon="-6.720996327015803"><ele>1332.0</ele><time>2026-03-22T13:13:07.941Z</time></trkpt><trkpt lat="30.517143629246426" lon="-6.720874923584015"><ele>1332.0</ele><time>2026-03-22T13:13:09.941Z</time></trkpt><trkpt lat="30.517118431228038" lon="-6.720720119947011"><ele>1332.0</ele><time>2026-03-22T13:13:11.941Z</time></trkpt><trkpt lat="30.51709744469176" lon="-6.720620516777552"><ele>1332.0</ele><time>2026-03-22T13:13:12.941Z</time></trkpt><trkpt lat="30.51708097759894" lon="-6.7205240584174755"><ele>1332.0</ele><time>2026-03-22T13:13:13.941Z</time></trkpt><trkpt lat="30.517071539855973" lon="-6.72044470058669"><ele>1332.0</ele><time>2026-03-22T13:13:14.941Z</time></trkpt><trkpt lat="30.51708708257438" lon="-6.720338650447155"><ele>1332.0</ele><time>2026-03-22T13:13:16.941Z</time></trkpt><trkpt lat="30.51710798581776" lon="-6.720245695575776"><ele>1332.0</ele><time>2026-03-22T13:13:18.941Z</time></trkpt><trkpt lat="30.517104827438715" lon="-6.720129895324291"><ele>1332.1999999999998</ele><time>2026-03-22T13:13:20.941Z</time></trkpt><trkpt lat="30.517080947803347" lon="-6.720018108675938"><ele>1332.4</ele><time>2026-03-22T13:13:22.941Z</time></trkpt><trkpt lat="30.517059724352638" lon="-6.719884752736412"><ele>1332.6</ele><time>2026-03-22T13:13:24.941Z</time></trkpt><trkpt lat="30.517045869168676" lon="-6.719806691197864"><ele>1332.8000000000002</ele><time>2026-03-22T13:13:25.941Z</time></trkpt><trkpt lat="30.51703466272423" lon="-6.719719638907059"><ele>1333.0</ele><time>2026-03-22T13:13:26.941Z</time></trkpt><trkpt lat="30.51702446534609" lon="-6.7196144762515635"><ele>1333.2</ele><time>2026-03-22T13:13:27.941Z</time></trkpt><trkpt lat="30.517014267793268" lon="-6.719529743090143"><ele>1333.4</ele><time>2026-03-22T13:13:28.941Z</time></trkpt><trkpt lat="30.516999546849725" lon="-6.719394785664555"><ele>1333.6000000000001</ele><time>2026-03-22T13:13:30.941Z</time></trkpt><trkpt lat="30.517015454398813" lon="-6.719299599737172"><ele>1333.8000000000002</ele><time>2026-03-22T13:13:32.941Z</time></trkpt><trkpt lat="30.5170743708781" lon="-6.719250516788311"><ele>1334.0</ele><time>2026-03-22T13:13:34.941Z</time></trkpt><trkpt lat="30.517193862291634" lon="-6.719231995387419"><ele>1334.0</ele><time>2026-03-22T13:13:36.941Z</time></trkpt><trkpt lat="30.51728539673033" lon="-6.719203999652169"><ele>1334.0</ele><time>2026-03-22T13:13:37.941Z</time></trkpt><trkpt lat="30.51738286349102" lon="-6.71917377168256"><ele>1334.0</ele><time>2026-03-22T13:13:38.941Z</time></trkpt><trkpt lat="30.517478863047774" lon="-6.719138505372615"><ele>1334.0</ele><time>2026-03-22T13:13:39.941Z</time></trkpt><trkpt lat="30.51755116704555" lon="-6.719105293889778"><ele>1334.0</ele><time>2026-03-22T13:13:40.941Z</time></trkpt><trkpt lat="30.51762468674588" lon="-6.718980301516323"><ele>1334.0</ele><time>2026-03-22T13:13:42.941Z</time></trkpt><trkpt lat="30.51763652375354" lon="-6.718897782174414"><ele>1334.0</ele><time>2026-03-22T13:13:43.941Z</time></trkpt><trkpt lat="30.51760889123757" lon="-6.718803538447059"><ele>1334.0</ele><time>2026-03-22T13:13:44.941Z</time></trkpt><trkpt lat="30.517557786048364" lon="-6.718676961242081"><ele>1334.0</ele><time>2026-03-22T13:13:45.941Z</time></trkpt><trkpt lat="30.517519097277294" lon="-6.718523538608"><ele>1334.0</ele><time>2026-03-22T13:13:46.941Z</time></trkpt><trkpt lat="30.51748948877403" lon="-6.718358389501654"><ele>1334.5</ele><time>2026-03-22T13:13:47.941Z</time></trkpt><trkpt lat="30.517469511931612" lon="-6.718209091338115"><ele>1335.0</ele><time>2026-03-22T13:13:48.941Z</time></trkpt><trkpt lat="30.51746415727541" lon="-6.718070259591518"><ele>1335.5</ele><time>2026-03-22T13:13:49.941Z</time></trkpt><trkpt lat="30.517464309440268" lon="-6.717941182783912"><ele>1336.0</ele><time>2026-03-22T13:13:50.941Z</time></trkpt><trkpt lat="30.5174634273137" lon="-6.717827547454256"><ele>1336.25</ele><time>2026-03-22T13:13:51.941Z</time></trkpt><trkpt lat="30.51746274687571" lon="-6.717704797093607"><ele>1336.5</ele><time>2026-03-22T13:13:52.941Z</time></trkpt><trkpt lat="30.51746030775111" lon="-6.717573564219492"><ele>1336.75</ele><time>2026-03-22T13:13:53.941Z</time></trkpt><trkpt lat="30.51747048573609" lon="-6.717430272677229"><ele>1337.0</ele><time>2026-03-22T13:13:54.941Z</time></trkpt><trkpt lat="30.517476539820088" lon="-6.717288994422134"><ele>1337.0</ele><time>2026-03-22T13:13:55.941Z</time></trkpt><trkpt lat="30.517478931424687" lon="-6.717145832815961"><ele>1337.0</ele><time>2026-03-22T13:13:56.941Z</time></trkpt><trkpt lat="30.517486983500188" lon="-6.7170125411067385"><ele>1337.0</ele><time>2026-03-22T13:13:57.941Z</time></trkpt><trkpt lat="30.517498510037015" lon="-6.716879338522121"><ele>1337.0</ele><time>2026-03-22T13:13:58.941Z</time></trkpt><trkpt lat="30.517499401870424" lon="-6.71675417905404"><ele>1336.6</ele><time>2026-03-22T13:13:59.941Z</time></trkpt><trkpt lat="30.517500375005493" lon="-6.716650751313291"><ele>1336.1999999999998</ele><time>2026-03-22T13:14:00.941Z</time></trkpt><trkpt lat="30.51749722113277" lon="-6.716529085204929"><ele>1335.8</ele><time>2026-03-22T13:14:01.941Z</time></trkpt><trkpt lat="30.51748880083759" lon="-6.716386571901581"><ele>1335.4</ele><time>2026-03-22T13:14:02.941Z</time></trkpt><trkpt lat="30.51747630618849" lon="-6.716254598914804"><ele>1335.0</ele><time>2026-03-22T13:14:03.941Z</time></trkpt><trkpt lat="30.51745973737193" lon="-6.716130433586396"><ele>1335.4</ele><time>2026-03-22T13:14:04.941Z</time></trkpt><trkpt lat="30.517443840923182" lon="-6.715999904630994"><ele>1335.8</ele><time>2026-03-22T13:14:05.941Z</time></trkpt><trkpt lat="30.51742592265842" lon="-6.715864741279178"><ele>1336.1999999999998</ele><time>2026-03-22T13:14:06.941Z</time></trkpt><trkpt lat="30.517403363091706" lon="-6.71574252073256"><ele>1336.6</ele><time>2026-03-22T13:14:07.941Z</time></trkpt><trkpt lat="30.51737976091853" lon="-6.715627641969968"><ele>1337.0</ele><time>2026-03-22T13:14:08.941Z</time></trkpt><trkpt lat="30.517366554907028" lon="-6.71551674435817"><ele>1337.0</ele><time>2026-03-22T13:14:09.941Z</time></trkpt><trkpt lat="30.517356304858996" lon="-6.715411485525572"><ele>1337.0</ele><time>2026-03-22T13:14:10.941Z</time></trkpt><trkpt lat="30.517342943440074" lon="-6.715301056051022"><ele>1337.0</ele><time>2026-03-22T13:14:11.941Z</time></trkpt><trkpt lat="30.517326822041326" lon="-6.71519020969425"><ele>1337.0</ele><time>2026-03-22T13:14:12.941Z</time></trkpt><trkpt lat="30.51731110072986" lon="-6.715078591864452"><ele>1337.0</ele><time>2026-03-22T13:14:13.941Z</time></trkpt><trkpt lat="30.51729106177691" lon="-6.714970660191037"><ele>1336.8</ele><time>2026-03-22T13:14:14.941Z</time></trkpt><trkpt lat="30.51727072986507" lon="-6.714865392787262"><ele>1336.6</ele><time>2026-03-22T13:14:15.941Z</time></trkpt><trkpt lat="30.517246898974598" lon="-6.71475440139097"><ele>1336.3999999999999</ele><time>2026-03-22T13:14:16.941Z</time></trkpt><trkpt lat="30.51722234131974" lon="-6.714644970828652"><ele>1336.1999999999998</ele><time>2026-03-22T13:14:17.941Z</time></trkpt><trkpt lat="30.51719496900129" lon="-6.714533537636486"><ele>1336.0</ele><time>2026-03-22T13:14:18.941Z</time></trkpt><trkpt lat="30.517171004612976" lon="-6.714424963942364"><ele>1336.6</ele><time>2026-03-22T13:14:19.941Z</time></trkpt><trkpt lat="30.517149233191134" lon="-6.714319084107595"><ele>1337.1999999999998</ele><time>2026-03-22T13:14:20.941Z</time></trkpt><trkpt lat="30.517126198231086" lon="-6.714213032831508"><ele>1337.8000000000002</ele><time>2026-03-22T13:14:21.941Z</time></trkpt><trkpt lat="30.517112761111694" lon="-6.714104521390003"><ele>1338.4</ele><time>2026-03-22T13:14:22.941Z</time></trkpt><trkpt lat="30.51709006223921" lon="-6.713981317078716"><ele>1339.0</ele><time>2026-03-22T13:14:23.941Z</time></trkpt><trkpt lat="30.517049819894925" lon="-6.713857380379682"><ele>1339.2</ele><time>2026-03-22T13:14:24.941Z</time></trkpt><trkpt lat="30.51701678144492" lon="-6.713732492977123"><ele>1339.4</ele><time>2026-03-22T13:14:25.941Z</time></trkpt><trkpt lat="30.516984323020992" lon="-6.713624806165999"><ele>1339.6</ele><time>2026-03-22T13:14:26.941Z</time></trkpt><trkpt lat="30.516951969165223" lon="-6.713518769496739"><ele>1339.8</ele><time>2026-03-22T13:14:27.941Z</time></trkpt><trkpt lat="30.51691571070602" lon="-6.7134083527014345"><ele>1340.0</ele><time>2026-03-22T13:14:28.941Z</time></trkpt><trkpt lat="30.516883432775657" lon="-6.713298488597036"><ele>1340.0</ele><time>2026-03-22T13:14:29.941Z</time></trkpt><trkpt lat="30.516838006221928" lon="-6.713192412520469"><ele>1340.0</ele><time>2026-03-22T13:14:30.941Z</time></trkpt><trkpt lat="30.51679630583583" lon="-6.713093578993174"><ele>1340.0</ele><time>2026-03-22T13:14:31.941Z</time></trkpt><trkpt lat="30.51676165433491" lon="-6.712984389046299"><ele>1340.0</ele><time>2026-03-22T13:14:32.941Z</time></trkpt><trkpt lat="30.516716962265466" lon="-6.712876172326725"><ele>1340.0</ele><time>2026-03-22T13:14:33.941Z</time></trkpt><trkpt lat="30.51667097836257" lon="-6.712761790041522"><ele>1340.0</ele><time>2026-03-22T13:14:34.94Z</time></trkpt><trkpt lat="30.516641671470026" lon="-6.712648447624435"><ele>1340.0</ele><time>2026-03-22T13:14:35.94Z</time></trkpt><trkpt lat="30.516621816801813" lon="-6.71253428941473"><ele>1340.0</ele><time>2026-03-22T13:14:36.94Z</time></trkpt><trkpt lat="30.516610705680968" lon="-6.712401676150976"><ele>1340.0</ele><time>2026-03-22T13:14:37.94Z</time></trkpt><trkpt lat="30.516612818108296" lon="-6.712248238334122"><ele>1340.0</ele><time>2026-03-22T13:14:38.94Z</time></trkpt><trkpt lat="30.51663126381511" lon="-6.712086127161124"><ele>1340.0</ele><time>2026-03-22T13:14:39.94Z</time></trkpt><trkpt lat="30.516659874285537" lon="-6.711919549869984"><ele>1340.0</ele><time>2026-03-22T13:14:40.94Z</time></trkpt><trkpt lat="30.51668775355626" lon="-6.711773579424888"><ele>1340.0</ele><time>2026-03-22T13:14:41.94Z</time></trkpt><trkpt lat="30.51671500003008" lon="-6.711648621728118"><ele>1340.0</ele><time>2026-03-22T13:14:42.94Z</time></trkpt><trkpt lat="30.516742136447114" lon="-6.711515822906549"><ele>1340.5</ele><time>2026-03-22T13:14:43.94Z</time></trkpt><trkpt lat="30.51676373049451" lon="-6.71137324752264"><ele>1341.0</ele><time>2026-03-22T13:14:44.94Z</time></trkpt><trkpt lat="30.516803645177166" lon="-6.711217869825999"><ele>1341.5</ele><time>2026-03-22T13:14:45.94Z</time></trkpt><trkpt lat="30.516840337898067" lon="-6.71105061622516"><ele>1342.0</ele><time>2026-03-22T13:14:46.94Z</time></trkpt><trkpt lat="30.516901188186093" lon="-6.710894294549271"><ele>1342.0</ele><time>2026-03-22T13:14:47.94Z</time></trkpt><trkpt lat="30.516945971089708" lon="-6.710730267197964"><ele>1342.0</ele><time>2026-03-22T13:14:48.94Z</time></trkpt><trkpt lat="30.51697573930962" lon="-6.710561175995827"><ele>1342.0</ele><time>2026-03-22T13:14:49.94Z</time></trkpt><trkpt lat="30.516993456014102" lon="-6.710403557544435"><ele>1342.0</ele><time>2026-03-22T13:14:50.94Z</time></trkpt><trkpt lat="30.51701122141464" lon="-6.71026895471033"><ele>1343.0</ele><time>2026-03-22T13:14:51.94Z</time></trkpt><trkpt lat="30.517040019464808" lon="-6.710139067064968"><ele>1344.0</ele><time>2026-03-22T13:14:52.94Z</time></trkpt><trkpt lat="30.517069658513904" lon="-6.709998450904906"><ele>1345.0</ele><time>2026-03-22T13:14:53.94Z</time></trkpt><trkpt lat="30.51709996022224" lon="-6.709861155115528"><ele>1346.0</ele><time>2026-03-22T13:14:54.94Z</time></trkpt><trkpt lat="30.517137374111638" lon="-6.709730749450749"><ele>1347.75</ele><time>2026-03-22T13:14:55.94Z</time></trkpt><trkpt lat="30.517166082995367" lon="-6.709612871400563"><ele>1349.5</ele><time>2026-03-22T13:14:56.94Z</time></trkpt><trkpt lat="30.517200157152278" lon="-6.709497701798098"><ele>1351.25</ele><time>2026-03-22T13:14:57.94Z</time></trkpt><trkpt lat="30.51725147883141" lon="-6.709374210017727"><ele>1353.0</ele><time>2026-03-22T13:14:58.94Z</time></trkpt><trkpt lat="30.51729828109161" lon="-6.709232177246054"><ele>1353.0</ele><time>2026-03-22T13:14:59.94Z</time></trkpt><trkpt lat="30.517328329621737" lon="-6.709096908887184"><ele>1353.0</ele><time>2026-03-22T13:15:00.94Z</time></trkpt><trkpt lat="30.517342587614063" lon="-6.708962085303826"><ele>1353.0</ele><time>2026-03-22T13:15:01.94Z</time></trkpt><trkpt lat="30.517354939320466" lon="-6.70883636070323"><ele>1353.0</ele><time>2026-03-22T13:15:02.94Z</time></trkpt><trkpt lat="30.517383379446528" lon="-6.708710809644977"><ele>1353.0</ele><time>2026-03-22T13:15:03.94Z</time></trkpt><trkpt lat="30.517428442444125" lon="-6.708600418989823"><ele>1353.0</ele><time>2026-03-22T13:15:04.94Z</time></trkpt><trkpt lat="30.51747794758421" lon="-6.708510018497329"><ele>1353.0</ele><time>2026-03-22T13:15:05.94Z</time></trkpt><trkpt lat="30.517523016137623" lon="-6.708443343015856"><ele>1353.0</ele><time>2026-03-22T13:15:06.94Z</time></trkpt><trkpt lat="30.517578658266082" lon="-6.708383809629708"><ele>1353.0</ele><time>2026-03-22T13:15:07.94Z</time></trkpt><trkpt lat="30.51763712960743" lon="-6.70832798295713"><ele>1353.0</ele><time>2026-03-22T13:15:08.94Z</time></trkpt><trkpt lat="30.517694150259462" lon="-6.708278309239631"><ele>1353.0</ele><time>2026-03-22T13:15:09.94Z</time></trkpt><trkpt lat="30.51774693317899" lon="-6.708224128436513"><ele>1353.0</ele><time>2026-03-22T13:15:10.94Z</time></trkpt><trkpt lat="30.517797618528228" lon="-6.708147438444754"><ele>1353.0</ele><time>2026-03-22T13:15:11.94Z</time></trkpt><trkpt lat="30.517837320663364" lon="-6.70808957939907"><ele>1353.0</ele><time>2026-03-22T13:15:12.94Z</time></trkpt><trkpt lat="30.517870325471005" lon="-6.708023705482861"><ele>1353.0</ele><time>2026-03-22T13:15:13.94Z</time></trkpt><trkpt lat="30.51790280995158" lon="-6.707939995917716"><ele>1353.0</ele><time>2026-03-22T13:15:14.94Z</time></trkpt><trkpt lat="30.517948018151017" lon="-6.7078178598983165"><ele>1354.25</ele><time>2026-03-22T13:15:15.94Z</time></trkpt><trkpt lat="30.51799789307448" lon="-6.707681040174365"><ele>1355.5</ele><time>2026-03-22T13:15:16.94Z</time></trkpt><trkpt lat="30.518064786992067" lon="-6.70751087550995"><ele>1356.75</ele><time>2026-03-22T13:15:17.941Z</time></trkpt><trkpt lat="30.518131648604474" lon="-6.707344405671081"><ele>1358.0</ele><time>2026-03-22T13:15:18.941Z</time></trkpt><trkpt lat="30.51817202031054" lon="-6.7072000242360845"><ele>1358.0</ele><time>2026-03-22T13:15:19.941Z</time></trkpt><trkpt lat="30.518199752518825" lon="-6.707079086567118"><ele>1358.0</ele><time>2026-03-22T13:15:20.941Z</time></trkpt><trkpt lat="30.518225868418245" lon="-6.7069803141402025"><ele>1358.0</ele><time>2026-03-22T13:15:21.941Z</time></trkpt><trkpt lat="30.518251435176776" lon="-6.706893499935919"><ele>1358.0</ele><time>2026-03-22T13:15:22.94Z</time></trkpt><trkpt lat="30.51828127667129" lon="-6.706818660789957"><ele>1358.0</ele><time>2026-03-22T13:15:23.941Z</time></trkpt><trkpt lat="30.51830733706222" lon="-6.706743500698309"><ele>1358.0</ele><time>2026-03-22T13:15:24.941Z</time></trkpt><trkpt lat="30.518321312682417" lon="-6.706659467227564"><ele>1357.6666666666667</ele><time>2026-03-22T13:15:25.941Z</time></trkpt><trkpt lat="30.51832605049418" lon="-6.706576705582954"><ele>1357.3333333333335</ele><time>2026-03-22T13:15:26.94Z</time></trkpt><trkpt lat="30.51833541150629" lon="-6.706496434926"><ele>1357.0</ele><time>2026-03-22T13:15:27.94Z</time></trkpt><trkpt lat="30.518336476557927" lon="-6.706410645572633"><ele>1356.6666666666667</ele><time>2026-03-22T13:15:28.94Z</time></trkpt><trkpt lat="30.51833616612909" lon="-6.706320790416486"><ele>1356.3333333333333</ele><time>2026-03-22T13:15:29.94Z</time></trkpt><trkpt lat="30.51834271605699" lon="-6.706231824556788"><ele>1356.0</ele><time>2026-03-22T13:15:30.94Z</time></trkpt><trkpt lat="30.518344508524613" lon="-6.706133794731301"><ele>1354.8</ele><time>2026-03-22T13:15:31.94Z</time></trkpt><trkpt lat="30.518354661232415" lon="-6.706036106171447"><ele>1353.6</ele><time>2026-03-22T13:15:32.94Z</time></trkpt><trkpt lat="30.518366888737567" lon="-6.7059432043914216"><ele>1352.4</ele><time>2026-03-22T13:15:33.94Z</time></trkpt><trkpt lat="30.518368006017802" lon="-6.705840414991509"><ele>1351.2</ele><time>2026-03-22T13:15:34.94Z</time></trkpt><trkpt lat="30.518367397286802" lon="-6.705715099307981"><ele>1350.0</ele><time>2026-03-22T13:15:35.94Z</time></trkpt><trkpt lat="30.51837194203328" lon="-6.7055788364449445"><ele>1350.0</ele><time>2026-03-22T13:15:36.94Z</time></trkpt><trkpt lat="30.5183798155096" lon="-6.705458362808066"><ele>1350.0</ele><time>2026-03-22T13:15:37.94Z</time></trkpt><trkpt lat="30.51840312627926" lon="-6.705363900101251"><ele>1350.0</ele><time>2026-03-22T13:15:38.94Z</time></trkpt><trkpt lat="30.518432629477022" lon="-6.705286092174871"><ele>1350.0</ele><time>2026-03-22T13:15:39.94Z</time></trkpt><trkpt lat="30.5184673297686" lon="-6.705210137356741"><ele>1350.0</ele><time>2026-03-22T13:15:40.94Z</time></trkpt><trkpt lat="30.51848790637877" lon="-6.70512268084952"><ele>1350.0</ele><time>2026-03-22T13:15:41.94Z</time></trkpt><trkpt lat="30.51850803484606" lon="-6.705031037083056"><ele>1349.6666666666667</ele><time>2026-03-22T13:15:42.94Z</time></trkpt><trkpt lat="30.518509010426047" lon="-6.704935894551143"><ele>1349.3333333333333</ele><time>2026-03-22T13:15:43.94Z</time></trkpt><trkpt lat="30.518500694317588" lon="-6.7048385018670595"><ele>1349.0</ele><time>2026-03-22T13:15:44.94Z</time></trkpt><trkpt lat="30.51850710207904" lon="-6.704753201198234"><ele>1348.6666666666665</ele><time>2026-03-22T13:15:45.94Z</time></trkpt><trkpt lat="30.518517490629737" lon="-6.704676975289039"><ele>1348.3333333333333</ele><time>2026-03-22T13:15:46.94Z</time></trkpt><trkpt lat="30.51851963594234" lon="-6.704594410402747"><ele>1348.0</ele><time>2026-03-22T13:15:47.94Z</time></trkpt><trkpt lat="30.518501442855364" lon="-6.704498862816245"><ele>1347.6000000000001</ele><time>2026-03-22T13:15:48.94Z</time></trkpt><trkpt lat="30.518482730543884" lon="-6.704378836879552"><ele>1347.2</ele><time>2026-03-22T13:15:49.94Z</time></trkpt><trkpt lat="30.518472197965885" lon="-6.704255314499733"><ele>1346.8</ele><time>2026-03-22T13:15:50.94Z</time></trkpt><trkpt lat="30.518466759764706" lon="-6.704127143928562"><ele>1346.4</ele><time>2026-03-22T13:15:51.94Z</time></trkpt><trkpt lat="30.518469592275785" lon="-6.703994798646141"><ele>1346.0</ele><time>2026-03-22T13:15:52.94Z</time></trkpt><trkpt lat="30.518477647255963" lon="-6.703866880716076"><ele>1346.0</ele><time>2026-03-22T13:15:53.94Z</time></trkpt><trkpt lat="30.518478604389557" lon="-6.703740128129852"><ele>1346.0</ele><time>2026-03-22T13:15:54.94Z</time></trkpt><trkpt lat="30.518473645899046" lon="-6.703623579139569"><ele>1346.0</ele><time>2026-03-22T13:15:55.94Z</time></trkpt><trkpt lat="30.51846766442478" lon="-6.703507425246413"><ele>1346.0</ele><time>2026-03-22T13:15:56.94Z</time></trkpt><trkpt lat="30.51846836282892" lon="-6.703398778562108"><ele>1346.0</ele><time>2026-03-22T13:15:57.94Z</time></trkpt><trkpt lat="30.518462479418847" lon="-6.703292225823154"><ele>1345.0</ele><time>2026-03-22T13:15:58.94Z</time></trkpt><trkpt lat="30.518461759180312" lon="-6.703195485989931"><ele>1344.0</ele><time>2026-03-22T13:15:59.94Z</time></trkpt><trkpt lat="30.518463359394513" lon="-6.703109728712159"><ele>1343.0</ele><time>2026-03-22T13:16:00.94Z</time></trkpt><trkpt lat="30.51846540448189" lon="-6.703031165416217"><ele>1342.0</ele><time>2026-03-22T13:16:01.94Z</time></trkpt><trkpt lat="30.518470899269367" lon="-6.702951923107262"><ele>1341.0</ele><time>2026-03-22T13:16:02.94Z</time></trkpt><trkpt lat="30.51847771334174" lon="-6.702804491011427"><ele>1340.0</ele><time>2026-03-22T13:16:04.94Z</time></trkpt><trkpt lat="30.518469618676033" lon="-6.702723527737216"><ele>1339.1666666666667</ele><time>2026-03-22T13:16:05.94Z</time></trkpt><trkpt lat="30.518464328968864" lon="-6.702648288754354"><ele>1338.3333333333335</ele><time>2026-03-22T13:16:06.94Z</time></trkpt><trkpt lat="30.51845782716533" lon="-6.702562492620929"><ele>1337.5</ele><time>2026-03-22T13:16:07.94Z</time></trkpt><trkpt lat="30.518449739296816" lon="-6.702472667605944"><ele>1336.6666666666667</ele><time>2026-03-22T13:16:08.94Z</time></trkpt><trkpt lat="30.51843935883753" lon="-6.702371577084122"><ele>1335.8333333333333</ele><time>2026-03-22T13:16:09.94Z</time></trkpt><trkpt lat="30.518430877717325" lon="-6.702280296624537"><ele>1335.0</ele><time>2026-03-22T13:16:10.94Z</time></trkpt><trkpt lat="30.51842241018457" lon="-6.702186275909621"><ele>1335.0</ele><time>2026-03-22T13:16:11.94Z</time></trkpt><trkpt lat="30.518405624261455" lon="-6.702096338190387"><ele>1335.0</ele><time>2026-03-22T13:16:12.94Z</time></trkpt><trkpt lat="30.518392138050075" lon="-6.702010274189273"><ele>1335.0</ele><time>2026-03-22T13:16:13.94Z</time></trkpt><trkpt lat="30.518377992183858" lon="-6.701938144790246"><ele>1335.0</ele><time>2026-03-22T13:16:14.94Z</time></trkpt><trkpt lat="30.51836131416063" lon="-6.701862637983903"><ele>1335.0</ele><time>2026-03-22T13:16:15.94Z</time></trkpt><trkpt lat="30.51832926880803" lon="-6.701740195056523"><ele>1335.0</ele><time>2026-03-22T13:16:17.94Z</time></trkpt><trkpt lat="30.518315486515863" lon="-6.70165190608127"><ele>1335.1666666666667</ele><time>2026-03-22T13:16:19.94Z</time></trkpt><trkpt lat="30.518300804727513" lon="-6.701565886544653"><ele>1335.3333333333333</ele><time>2026-03-22T13:16:21.94Z</time></trkpt><trkpt lat="30.51828376846916" lon="-6.701467308576829"><ele>1335.5</ele><time>2026-03-22T13:16:23.94Z</time></trkpt><trkpt lat="30.51827753186662" lon="-6.70139124353739"><ele>1335.6666666666665</ele><time>2026-03-22T13:16:25.94Z</time></trkpt><trkpt lat="30.5182787954073" lon="-6.701308360256698"><ele>1335.8333333333333</ele><time>2026-03-22T13:16:28.94Z</time></trkpt><trkpt lat="30.51828635601355" lon="-6.701212934447737"><ele>1336.0</ele><time>2026-03-22T13:16:36.94Z</time></trkpt><trkpt lat="30.51823697750994" lon="-6.701103451549583"><ele>1336.0</ele><time>2026-03-22T13:16:38.94Z</time></trkpt><trkpt lat="30.51817646164907" lon="-6.700980947527404"><ele>1336.0</ele><time>2026-03-22T13:16:40.94Z</time></trkpt><trkpt lat="30.518147034100743" lon="-6.700898476472888"><ele>1336.0</ele><time>2026-03-22T13:16:41.94Z</time></trkpt><trkpt lat="30.51812584662691" lon="-6.700819851234571"><ele>1336.0</ele><time>2026-03-22T13:16:42.94Z</time></trkpt><trkpt lat="30.518082996119006" lon="-6.700694961605433"><ele>1336.0</ele><time>2026-03-22T13:16:44.94Z</time></trkpt><trkpt lat="30.518034380052747" lon="-6.7005548779404664"><ele>1336.0</ele><time>2026-03-22T13:16:46.94Z</time></trkpt><trkpt lat="30.518000543140623" lon="-6.70046137711975"><ele>1336.0</ele><time>2026-03-22T13:16:47.94Z</time></trkpt><trkpt lat="30.517954729144105" lon="-6.700329766214609"><ele>1336.0</ele><time>2026-03-22T13:16:48.94Z</time></trkpt><trkpt lat="30.517894076643586" lon="-6.700170445571794"><ele>1336.0</ele><time>2026-03-22T13:16:49.94Z</time></trkpt><trkpt lat="30.517859180495496" lon="-6.700013546818393"><ele>1336.25</ele><time>2026-03-22T13:16:50.94Z</time></trkpt><trkpt lat="30.517801966540993" lon="-6.699869966481077"><ele>1336.5</ele><time>2026-03-22T13:16:51.94Z</time></trkpt><trkpt lat="30.51776379400334" lon="-6.699763063568555"><ele>1336.75</ele><time>2026-03-22T13:16:52.94Z</time></trkpt><trkpt lat="30.517709465795004" lon="-6.699624124383804"><ele>1337.0</ele><time>2026-03-22T13:16:53.94Z</time></trkpt><trkpt lat="30.51766751606319" lon="-6.699483460705914"><ele>1336.3333333333335</ele><time>2026-03-22T13:16:54.94Z</time></trkpt><trkpt lat="30.517635851645686" lon="-6.699366176041256"><ele>1335.6666666666667</ele><time>2026-03-22T13:16:55.94Z</time></trkpt><trkpt lat="30.517611606818985" lon="-6.69926741016684"><ele>1335.0</ele><time>2026-03-22T13:16:56.94Z</time></trkpt><trkpt lat="30.51758570707704" lon="-6.699183344048283"><ele>1334.3333333333333</ele><time>2026-03-22T13:16:57.94Z</time></trkpt><trkpt lat="30.517554356970013" lon="-6.699095877023428"><ele>1333.6666666666665</ele><time>2026-03-22T13:16:58.94Z</time></trkpt><trkpt lat="30.517522880895942" lon="-6.6990104085268865"><ele>1333.0</ele><time>2026-03-22T13:16:59.94Z</time></trkpt><trkpt lat="30.517492543393196" lon="-6.698925860127461"><ele>1333.0</ele><time>2026-03-22T13:17:00.94Z</time></trkpt><trkpt lat="30.51746089033236" lon="-6.698854338454709"><ele>1333.0</ele><time>2026-03-22T13:17:01.94Z</time></trkpt><trkpt lat="30.517384949869623" lon="-6.698710524211616"><ele>1333.0</ele><time>2026-03-22T13:17:03.94Z</time></trkpt><trkpt lat="30.51734625379481" lon="-6.69859661138508"><ele>1333.0</ele><time>2026-03-22T13:17:04.94Z</time></trkpt><trkpt lat="30.51731809353205" lon="-6.698470429062929"><ele>1333.0</ele><time>2026-03-22T13:17:05.94Z</time></trkpt><trkpt lat="30.517288837418267" lon="-6.698373828352386"><ele>1332.8000000000002</ele><time>2026-03-22T13:17:06.94Z</time></trkpt><trkpt lat="30.51725712461168" lon="-6.698271761007468"><ele>1332.6</ele><time>2026-03-22T13:17:07.94Z</time></trkpt><trkpt lat="30.517222698229247" lon="-6.698162240272461"><ele>1332.4</ele><time>2026-03-22T13:17:08.94Z</time></trkpt><trkpt lat="30.517183901511792" lon="-6.698050319103224"><ele>1332.1999999999998</ele><time>2026-03-22T13:17:09.94Z</time></trkpt><trkpt lat="30.517144865216306" lon="-6.697945762748884"><ele>1332.0</ele><time>2026-03-22T13:17:10.94Z</time></trkpt><trkpt lat="30.51710174649064" lon="-6.697858162979347"><ele>1332.1666666666667</ele><time>2026-03-22T13:17:11.94Z</time></trkpt><trkpt lat="30.517063228718303" lon="-6.697771246850024"><ele>1332.3333333333333</ele><time>2026-03-22T13:17:12.94Z</time></trkpt><trkpt lat="30.517032599944848" lon="-6.697679805505402"><ele>1332.5</ele><time>2026-03-22T13:17:13.94Z</time></trkpt><trkpt lat="30.517005597077965" lon="-6.697581478178543"><ele>1332.6666666666665</ele><time>2026-03-22T13:17:14.94Z</time></trkpt><trkpt lat="30.516972456168556" lon="-6.697485598925555"><ele>1332.8333333333333</ele><time>2026-03-22T13:17:15.94Z</time></trkpt><trkpt lat="30.516934893379425" lon="-6.697380759518385"><ele>1333.0</ele><time>2026-03-22T13:17:16.94Z</time></trkpt><trkpt lat="30.51689386616107" lon="-6.697278035679141"><ele>1333.0</ele><time>2026-03-22T13:17:17.94Z</time></trkpt><trkpt lat="30.51685755638098" lon="-6.69717193237545"><ele>1333.0</ele><time>2026-03-22T13:17:18.94Z</time></trkpt><trkpt lat="30.516818828373303" lon="-6.697074417064599"><ele>1333.0</ele><time>2026-03-22T13:17:19.939Z</time></trkpt><trkpt lat="30.516774559536554" lon="-6.696974440977906"><ele>1333.0</ele><time>2026-03-22T13:17:20.939Z</time></trkpt><trkpt lat="30.51672920246148" lon="-6.696875011448948"><ele>1333.0</ele><time>2026-03-22T13:17:21.939Z</time></trkpt><trkpt lat="30.516683460498903" lon="-6.6967806955363605"><ele>1333.0</ele><time>2026-03-22T13:17:22.94Z</time></trkpt><trkpt lat="30.51663736858001" lon="-6.696689697541108"><ele>1333.0</ele><time>2026-03-22T13:17:23.939Z</time></trkpt><trkpt lat="30.516601633920985" lon="-6.6965980187249325"><ele>1333.0</ele><time>2026-03-22T13:17:24.939Z</time></trkpt><trkpt lat="30.516566583557186" lon="-6.696508917826331"><ele>1333.0</ele><time>2026-03-22T13:17:25.94Z</time></trkpt><trkpt lat="30.516526093622108" lon="-6.6964127779573905"><ele>1333.0</ele><time>2026-03-22T13:17:26.94Z</time></trkpt><trkpt lat="30.51648600486038" lon="-6.696318334916134"><ele>1333.0</ele><time>2026-03-22T13:17:27.94Z</time></trkpt><trkpt lat="30.516441312514207" lon="-6.696230154059615"><ele>1333.0</ele><time>2026-03-22T13:17:28.94Z</time></trkpt><trkpt lat="30.516409871923752" lon="-6.696137786682426"><ele>1333.0</ele><time>2026-03-22T13:17:29.94Z</time></trkpt><trkpt lat="30.516365832331417" lon="-6.696040020438579"><ele>1333.0</ele><time>2026-03-22T13:17:30.94Z</time></trkpt><trkpt lat="30.516315789749093" lon="-6.695937928863255"><ele>1333.0</ele><time>2026-03-22T13:17:31.94Z</time></trkpt><trkpt lat="30.516266815427134" lon="-6.695829665670021"><ele>1333.0</ele><time>2026-03-22T13:17:32.94Z</time></trkpt><trkpt lat="30.51621037643874" lon="-6.695717730055707"><ele>1333.0</ele><time>2026-03-22T13:17:33.94Z</time></trkpt><trkpt lat="30.51613458739715" lon="-6.695567854200167"><ele>1333.0</ele><time>2026-03-22T13:17:34.94Z</time></trkpt><trkpt lat="30.516041641543346" lon="-6.695395979477484"><ele>1333.0</ele><time>2026-03-22T13:17:35.94Z</time></trkpt><trkpt lat="30.515966731238045" lon="-6.695236751238188"><ele>1332.8000000000002</ele><time>2026-03-22T13:17:36.94Z</time></trkpt><trkpt lat="30.51590778827442" lon="-6.695111481615578"><ele>1332.6</ele><time>2026-03-22T13:17:37.94Z</time></trkpt><trkpt lat="30.515856490320566" lon="-6.694984745996556"><ele>1332.4</ele><time>2026-03-22T13:17:38.94Z</time></trkpt><trkpt lat="30.515816043492386" lon="-6.69487642720929"><ele>1332.1999999999998</ele><time>2026-03-22T13:17:39.94Z</time></trkpt><trkpt lat="30.515775438977748" lon="-6.694777672863786"><ele>1332.0</ele><time>2026-03-22T13:17:40.94Z</time></trkpt><trkpt lat="30.515737015390084" lon="-6.694677632362772"><ele>1332.0</ele><time>2026-03-22T13:17:41.94Z</time></trkpt><trkpt lat="30.51571268816898" lon="-6.69458181967764"><ele>1332.0</ele><time>2026-03-22T13:17:42.94Z</time></trkpt><trkpt lat="30.515701038637864" lon="-6.69450411267919"><ele>1332.0</ele><time>2026-03-22T13:17:43.94Z</time></trkpt><trkpt lat="30.51566610820946" lon="-6.6943525814599605"><ele>1332.0</ele><time>2026-03-22T13:17:45.94Z</time></trkpt><trkpt lat="30.515641633554928" lon="-6.69426882617598"><ele>1332.0</ele><time>2026-03-22T13:17:46.94Z</time></trkpt><trkpt lat="30.515614218494477" lon="-6.694181866288486"><ele>1332.0</ele><time>2026-03-22T13:17:47.94Z</time></trkpt><trkpt lat="30.515575268315157" lon="-6.6940833455891715"><ele>1332.25</ele><time>2026-03-22T13:17:48.94Z</time></trkpt><trkpt lat="30.515524267324967" lon="-6.693974192998861"><ele>1332.5</ele><time>2026-03-22T13:17:49.94Z</time></trkpt><trkpt lat="30.515472416800325" lon="-6.693860108900308"><ele>1332.75</ele><time>2026-03-22T13:17:50.94Z</time></trkpt><trkpt lat="30.51542428536317" lon="-6.693746573428796"><ele>1333.0</ele><time>2026-03-22T13:17:51.94Z</time></trkpt><trkpt lat="30.515368889252482" lon="-6.693616258800278"><ele>1333.4</ele><time>2026-03-22T13:17:52.94Z</time></trkpt><trkpt lat="30.515314562348127" lon="-6.693498737669625"><ele>1333.8000000000002</ele><time>2026-03-22T13:17:53.94Z</time></trkpt><trkpt lat="30.51527922786068" lon="-6.6933985021271765"><ele>1334.2</ele><time>2026-03-22T13:17:54.94Z</time></trkpt><trkpt lat="30.515255962390288" lon="-6.693307575211278"><ele>1334.6</ele><time>2026-03-22T13:17:55.94Z</time></trkpt><trkpt lat="30.515250165068764" lon="-6.693208328140406"><ele>1335.0</ele><time>2026-03-22T13:17:56.94Z</time></trkpt><trkpt lat="30.51523614794302" lon="-6.693103221216964"><ele>1335.0</ele><time>2026-03-22T13:17:57.94Z</time></trkpt><trkpt lat="30.515209238285138" lon="-6.69298909625194"><ele>1335.0</ele><time>2026-03-22T13:17:58.94Z</time></trkpt><trkpt lat="30.5151759878929" lon="-6.692851210731333"><ele>1335.0</ele><time>2026-03-22T13:17:59.94Z</time></trkpt><trkpt lat="30.51514539729262" lon="-6.692715784723475"><ele>1335.0</ele><time>2026-03-22T13:18:00.94Z</time></trkpt><trkpt lat="30.515101829708478" lon="-6.692566345576611"><ele>1335.6666666666667</ele><time>2026-03-22T13:18:01.94Z</time></trkpt><trkpt lat="30.515055038492523" lon="-6.6923713106775065"><ele>1336.3333333333335</ele><time>2026-03-22T13:18:02.94Z</time></trkpt><trkpt lat="30.515011567870612" lon="-6.692158066491485"><ele>1337.0</ele><time>2026-03-22T13:18:03.94Z</time></trkpt><trkpt lat="30.514979504993132" lon="-6.691993897509041"><ele>1337.25</ele><time>2026-03-22T13:18:04.94Z</time></trkpt><trkpt lat="30.51491281800868" lon="-6.691860014454548"><ele>1337.5</ele><time>2026-03-22T13:18:05.94Z</time></trkpt><trkpt lat="30.51483267811022" lon="-6.691744825218422"><ele>1337.75</ele><time>2026-03-22T13:18:06.94Z</time></trkpt><trkpt lat="30.514757572070682" lon="-6.691613578476519"><ele>1338.0</ele><time>2026-03-22T13:18:07.939Z</time></trkpt><trkpt lat="30.51468442004528" lon="-6.691493768026211"><ele>1338.0</ele><time>2026-03-22T13:18:08.939Z</time></trkpt><trkpt lat="30.514624961985287" lon="-6.691384178684442"><ele>1338.0</ele><time>2026-03-22T13:18:09.939Z</time></trkpt><trkpt lat="30.51457571093791" lon="-6.6912880860301955"><ele>1338.0</ele><time>2026-03-22T13:18:10.939Z</time></trkpt><trkpt lat="30.51452876402113" lon="-6.69120637841675"><ele>1338.0</ele><time>2026-03-22T13:18:11.939Z</time></trkpt><trkpt lat="30.51448280095781" lon="-6.691117006904654"><ele>1338.0</ele><time>2026-03-22T13:18:12.939Z</time></trkpt><trkpt lat="30.514433840222342" lon="-6.691025882085568"><ele>1337.4</ele><time>2026-03-22T13:18:13.939Z</time></trkpt><trkpt lat="30.514388084140258" lon="-6.690925831838973"><ele>1336.8000000000002</ele><time>2026-03-22T13:18:14.939Z</time></trkpt><trkpt lat="30.51434888296806" lon="-6.690826167155854"><ele>1336.2</ele><time>2026-03-22T13:18:15.939Z</time></trkpt><trkpt lat="30.514315481519567" lon="-6.690732305895756"><ele>1335.6</ele><time>2026-03-22T13:18:16.939Z</time></trkpt><trkpt lat="30.514299371068983" lon="-6.690657124611411"><ele>1335.0</ele><time>2026-03-22T13:18:17.939Z</time></trkpt><trkpt lat="30.514267490287963" lon="-6.690536032488071"><ele>1335.0</ele><time>2026-03-22T13:18:19.939Z</time></trkpt><trkpt lat="30.51425871934126" lon="-6.690425999118992"><ele>1335.0</ele><time>2026-03-22T13:18:21.939Z</time></trkpt><trkpt lat="30.514246824480814" lon="-6.690284356651841"><ele>1335.0</ele><time>2026-03-22T13:18:23.939Z</time></trkpt><trkpt lat="30.514244787886508" lon="-6.6901980779483425"><ele>1335.0</ele><time>2026-03-22T13:18:24.939Z</time></trkpt><trkpt lat="30.514251351777247" lon="-6.6900993962803055"><ele>1335.0</ele><time>2026-03-22T13:18:25.939Z</time></trkpt><trkpt lat="30.51425779203548" lon="-6.689999346271236"><ele>1334.8333333333333</ele><time>2026-03-22T13:18:26.939Z</time></trkpt><trkpt lat="30.5142612289296" lon="-6.689905800675989"><ele>1334.6666666666667</ele><time>2026-03-22T13:18:27.939Z</time></trkpt><trkpt lat="30.514257441288926" lon="-6.689808865669273"><ele>1334.5</ele><time>2026-03-22T13:18:28.939Z</time></trkpt><trkpt lat="30.5142534353343" lon="-6.689703077896754"><ele>1334.3333333333335</ele><time>2026-03-22T13:18:29.939Z</time></trkpt><trkpt lat="30.51426144735087" lon="-6.689596481723447"><ele>1334.1666666666667</ele><time>2026-03-22T13:18:30.939Z</time></trkpt><trkpt lat="30.514283561610323" lon="-6.68948272418766"><ele>1334.0</ele><time>2026-03-22T13:18:31.939Z</time></trkpt><trkpt lat="30.514322906987303" lon="-6.689374101759434"><ele>1333.5</ele><time>2026-03-22T13:18:32.939Z</time></trkpt><trkpt lat="30.514381838324777" lon="-6.689236970104246"><ele>1333.0</ele><time>2026-03-22T13:18:33.939Z</time></trkpt><trkpt lat="30.514447242801197" lon="-6.689088421242324"><ele>1332.5</ele><time>2026-03-22T13:18:34.939Z</time></trkpt><trkpt lat="30.514501456955657" lon="-6.68896435233089"><ele>1332.0</ele><time>2026-03-22T13:18:35.939Z</time></trkpt><trkpt lat="30.51454025639133" lon="-6.6888514347804024"><ele>1332.0</ele><time>2026-03-22T13:18:36.939Z</time></trkpt><trkpt lat="30.51456739277018" lon="-6.688755335810485"><ele>1332.0</ele><time>2026-03-22T13:18:37.939Z</time></trkpt><trkpt lat="30.514582299016755" lon="-6.688677633529108"><ele>1332.0</ele><time>2026-03-22T13:18:38.939Z</time></trkpt><trkpt lat="30.51458458856907" lon="-6.688603169193054"><ele>1332.0</ele><time>2026-03-22T13:18:39.939Z</time></trkpt><trkpt lat="30.514517645567942" lon="-6.688509537921373"><ele>1332.0</ele><time>2026-03-22T13:18:41.939Z</time></trkpt><trkpt lat="30.514454889789754" lon="-6.688436375402028"><ele>1332.0</ele><time>2026-03-22T13:18:42.939Z</time></trkpt><trkpt lat="30.51441559548387" lon="-6.6883676423756"><ele>1331.5</ele><time>2026-03-22T13:18:43.939Z</time></trkpt><trkpt lat="30.51438739605425" lon="-6.688299869779304"><ele>1331.0</ele><time>2026-03-22T13:18:44.939Z</time></trkpt><trkpt lat="30.514337602309887" lon="-6.688225533917896"><ele>1330.5</ele><time>2026-03-22T13:18:45.939Z</time></trkpt><trkpt lat="30.51428855741525" lon="-6.688134313936625"><ele>1330.0</ele><time>2026-03-22T13:18:46.939Z</time></trkpt><trkpt lat="30.514248697402593" lon="-6.68803412247504"><ele>1329.5</ele><time>2026-03-22T13:18:47.939Z</time></trkpt><trkpt lat="30.51421143385413" lon="-6.6879364169732485"><ele>1329.0</ele><time>2026-03-22T13:18:48.939Z</time></trkpt><trkpt lat="30.514176079359085" lon="-6.68783656954348"><ele>1328.8000000000002</ele><time>2026-03-22T13:18:49.939Z</time></trkpt><trkpt lat="30.51413532337896" lon="-6.68773911133972"><ele>1328.6000000000001</ele><time>2026-03-22T13:18:50.939Z</time></trkpt><trkpt lat="30.514097232464035" lon="-6.687630939798288"><ele>1328.4</ele><time>2026-03-22T13:18:51.939Z</time></trkpt><trkpt lat="30.514057688888478" lon="-6.687530914845401"><ele>1328.2</ele><time>2026-03-22T13:18:52.939Z</time></trkpt><trkpt lat="30.514007003693276" lon="-6.687426829509162"><ele>1328.0</ele><time>2026-03-22T13:18:53.939Z</time></trkpt><trkpt lat="30.513958844499033" lon="-6.687325768700104"><ele>1328.0</ele><time>2026-03-22T13:18:54.939Z</time></trkpt><trkpt lat="30.513909589113002" lon="-6.687224384442252"><ele>1328.0</ele><time>2026-03-22T13:18:55.939Z</time></trkpt><trkpt lat="30.513849509497348" lon="-6.687085442343506"><ele>1328.0</ele><time>2026-03-22T13:18:56.939Z</time></trkpt><trkpt lat="30.51376853574158" lon="-6.686924914710813"><ele>1328.0</ele><time>2026-03-22T13:18:57.939Z</time></trkpt><trkpt lat="30.513673172821385" lon="-6.6867583854403865"><ele>1329.3333333333335</ele><time>2026-03-22T13:18:58.939Z</time></trkpt><trkpt lat="30.51356387136074" lon="-6.686594619985031"><ele>1330.6666666666667</ele><time>2026-03-22T13:18:59.939Z</time></trkpt><trkpt lat="30.513457686878393" lon="-6.68645336814609"><ele>1332.0</ele><time>2026-03-22T13:19:00.939Z</time></trkpt><trkpt lat="30.513351894419277" lon="-6.68635785171437"><ele>1332.0</ele><time>2026-03-22T13:19:01.939Z</time></trkpt><trkpt lat="30.513258772286225" lon="-6.686268974827882"><ele>1332.0</ele><time>2026-03-22T13:19:02.939Z</time></trkpt><trkpt lat="30.51317695746012" lon="-6.6861928209765376"><ele>1332.0</ele><time>2026-03-22T13:19:03.939Z</time></trkpt><trkpt lat="30.513098786661516" lon="-6.686115799681983"><ele>1332.0</ele><time>2026-03-22T13:19:04.939Z</time></trkpt><trkpt lat="30.51302420714839" lon="-6.686043118594707"><ele>1332.0</ele><time>2026-03-22T13:19:05.939Z</time></trkpt><trkpt lat="30.512938307946385" lon="-6.68597342335631"><ele>1331.6</ele><time>2026-03-22T13:19:06.939Z</time></trkpt><trkpt lat="30.512860217664468" lon="-6.685899811511036"><ele>1331.1999999999998</ele><time>2026-03-22T13:19:07.939Z</time></trkpt><trkpt lat="30.51278552519289" lon="-6.685822812647033"><ele>1330.8</ele><time>2026-03-22T13:19:08.939Z</time></trkpt><trkpt lat="30.512727002373747" lon="-6.6857398264297245"><ele>1330.4</ele><time>2026-03-22T13:19:09.939Z</time></trkpt><trkpt lat="30.512663521716576" lon="-6.685648984210379"><ele>1330.0</ele><time>2026-03-22T13:19:10.939Z</time></trkpt><trkpt lat="30.5125947753173" lon="-6.685564300971268"><ele>1330.0</ele><time>2026-03-22T13:19:11.939Z</time></trkpt><trkpt lat="30.51251395920833" lon="-6.685462545029857"><ele>1330.0</ele><time>2026-03-22T13:19:12.939Z</time></trkpt><trkpt lat="30.51243211633405" lon="-6.68534251815016"><ele>1330.0</ele><time>2026-03-22T13:19:13.939Z</time></trkpt><trkpt lat="30.512366365469436" lon="-6.685240076342191"><ele>1330.0</ele><time>2026-03-22T13:19:14.939Z</time></trkpt><trkpt lat="30.512316404360217" lon="-6.685142579315767"><ele>1330.0</ele><time>2026-03-22T13:19:15.939Z</time></trkpt><trkpt lat="30.512268864790055" lon="-6.685032471406501"><ele>1330.0</ele><time>2026-03-22T13:19:16.939Z</time></trkpt><trkpt lat="30.512203912918572" lon="-6.684927587505158"><ele>1330.0</ele><time>2026-03-22T13:19:17.939Z</time></trkpt><trkpt lat="30.512124948757705" lon="-6.684836432765612"><ele>1330.0</ele><time>2026-03-22T13:19:18.939Z</time></trkpt><trkpt lat="30.512043509196044" lon="-6.684739728010018"><ele>1330.0</ele><time>2026-03-22T13:19:19.939Z</time></trkpt><trkpt lat="30.51199218351978" lon="-6.684645732530682"><ele>1329.6</ele><time>2026-03-22T13:19:20.939Z</time></trkpt><trkpt lat="30.51194842735078" lon="-6.6845481905755175"><ele>1329.2</ele><time>2026-03-22T13:19:21.939Z</time></trkpt><trkpt lat="30.511913352342955" lon="-6.68444724247945"><ele>1328.8000000000002</ele><time>2026-03-22T13:19:22.939Z</time></trkpt><trkpt lat="30.51187751578407" lon="-6.684336281252902"><ele>1328.4</ele><time>2026-03-22T13:19:23.939Z</time></trkpt><trkpt lat="30.51183574080001" lon="-6.684235820097103"><ele>1328.0</ele><time>2026-03-22T13:19:24.939Z</time></trkpt><trkpt lat="30.511788569140005" lon="-6.684129741748204"><ele>1328.0</ele><time>2026-03-22T13:19:25.939Z</time></trkpt><trkpt lat="30.51174397406908" lon="-6.684016357759166"><ele>1328.0</ele><time>2026-03-22T13:19:26.939Z</time></trkpt><trkpt lat="30.511700988757866" lon="-6.683883521509475"><ele>1328.0</ele><time>2026-03-22T13:19:27.939Z</time></trkpt><trkpt lat="30.51163558664004" lon="-6.683744492710643"><ele>1328.0</ele><time>2026-03-22T13:19:28.939Z</time></trkpt><trkpt lat="30.511581177492804" lon="-6.683613333880715"><ele>1327.8000000000002</ele><time>2026-03-22T13:19:29.939Z</time></trkpt><trkpt lat="30.511514296238236" lon="-6.683502686576671"><ele>1327.6</ele><time>2026-03-22T13:19:30.939Z</time></trkpt><trkpt lat="30.51145440855682" lon="-6.683410091183238"><ele>1327.4</ele><time>2026-03-22T13:19:31.939Z</time></trkpt><trkpt lat="30.511408342981575" lon="-6.683336059148683"><ele>1327.1999999999998</ele><time>2026-03-22T13:19:32.939Z</time></trkpt><trkpt lat="30.51134030346121" lon="-6.683220595020755"><ele>1327.0</ele><time>2026-03-22T13:19:34.939Z</time></trkpt><trkpt lat="30.51129134205632" lon="-6.68307888288155"><ele>1327.0</ele><time>2026-03-22T13:19:36.939Z</time></trkpt><trkpt lat="30.51126651575733" lon="-6.682990766001095"><ele>1327.0</ele><time>2026-03-22T13:19:37.939Z</time></trkpt><trkpt lat="30.511233672674557" lon="-6.682898463821144"><ele>1327.0</ele><time>2026-03-22T13:19:38.939Z</time></trkpt><trkpt lat="30.511173450543744" lon="-6.682807144358963"><ele>1327.0</ele><time>2026-03-22T13:19:39.939Z</time></trkpt><trkpt lat="30.511105630525734" lon="-6.682719645351579"><ele>1327.0</ele><time>2026-03-22T13:19:40.939Z</time></trkpt><trkpt lat="30.511046779446634" lon="-6.682636252389289"><ele>1326.8</ele><time>2026-03-22T13:19:41.939Z</time></trkpt><trkpt lat="30.510996350312595" lon="-6.682533251718654"><ele>1326.6</ele><time>2026-03-22T13:19:42.939Z</time></trkpt><trkpt lat="30.51096307780109" lon="-6.68242159455995"><ele>1326.3999999999999</ele><time>2026-03-22T13:19:43.939Z</time></trkpt><trkpt lat="30.51094077726228" lon="-6.68231365860436"><ele>1326.1999999999998</ele><time>2026-03-22T13:19:44.939Z</time></trkpt><trkpt lat="30.510937010688732" lon="-6.682207085078746"><ele>1326.0</ele><time>2026-03-22T13:19:45.939Z</time></trkpt><trkpt lat="30.51093260366973" lon="-6.682098273961365"><ele>1326.0</ele><time>2026-03-22T13:19:46.939Z</time></trkpt><trkpt lat="30.510905207121596" lon="-6.681975695810834"><ele>1326.0</ele><time>2026-03-22T13:19:47.939Z</time></trkpt><trkpt lat="30.510858194242676" lon="-6.681831856952433"><ele>1326.0</ele><time>2026-03-22T13:19:48.939Z</time></trkpt><trkpt lat="30.51081300077708" lon="-6.681673106068945"><ele>1326.0</ele><time>2026-03-22T13:19:49.939Z</time></trkpt><trkpt lat="30.510765456678133" lon="-6.681517079739433"><ele>1325.25</ele><time>2026-03-22T13:19:50.939Z</time></trkpt><trkpt lat="30.51072882815412" lon="-6.681359501818135"><ele>1324.5</ele><time>2026-03-22T13:19:51.939Z</time></trkpt><trkpt lat="30.510713343431604" lon="-6.68122634007331"><ele>1323.75</ele><time>2026-03-22T13:19:52.939Z</time></trkpt><trkpt lat="30.51070213474939" lon="-6.681088484736108"><ele>1323.0</ele><time>2026-03-22T13:19:53.939Z</time></trkpt><trkpt lat="30.51069164615234" lon="-6.68094728420002"><ele>1323.0</ele><time>2026-03-22T13:19:54.939Z</time></trkpt><trkpt lat="30.510673719164895" lon="-6.680775070121699"><ele>1323.0</ele><time>2026-03-22T13:19:55.939Z</time></trkpt><trkpt lat="30.51065944151732" lon="-6.680576274794356"><ele>1323.0</ele><time>2026-03-22T13:19:56.939Z</time></trkpt><trkpt lat="30.510659399798726" lon="-6.6803916970900525"><ele>1322.8000000000002</ele><time>2026-03-22T13:19:57.939Z</time></trkpt><trkpt lat="30.510664869893915" lon="-6.680247946999575"><ele>1322.6</ele><time>2026-03-22T13:19:58.939Z</time></trkpt><trkpt lat="30.510674056303092" lon="-6.680127320196524"><ele>1322.4</ele><time>2026-03-22T13:19:59.939Z</time></trkpt><trkpt lat="30.510674345903418" lon="-6.680019783680002"><ele>1322.1999999999998</ele><time>2026-03-22T13:20:00.939Z</time></trkpt><trkpt lat="30.51066914334959" lon="-6.679914331276387"><ele>1322.0</ele><time>2026-03-22T13:20:01.939Z</time></trkpt><trkpt lat="30.510657120344327" lon="-6.679775504322594"><ele>1322.0</ele><time>2026-03-22T13:20:02.939Z</time></trkpt><trkpt lat="30.510652998997752" lon="-6.679628562403552"><ele>1322.0</ele><time>2026-03-22T13:20:03.939Z</time></trkpt><trkpt lat="30.51064676516724" lon="-6.679488278141975"><ele>1322.0</ele><time>2026-03-22T13:20:04.939Z</time></trkpt><trkpt lat="30.510637766582864" lon="-6.679344812631968"><ele>1322.0</ele><time>2026-03-22T13:20:05.939Z</time></trkpt><trkpt lat="30.510632095472857" lon="-6.67922207272263"><ele>1322.3999999999999</ele><time>2026-03-22T13:20:06.939Z</time></trkpt><trkpt lat="30.510618879978953" lon="-6.679096507431713"><ele>1322.8</ele><time>2026-03-22T13:20:07.939Z</time></trkpt><trkpt lat="30.51060374701398" lon="-6.678978182357961"><ele>1323.2</ele><time>2026-03-22T13:20:08.939Z</time></trkpt><trkpt lat="30.510585919189833" lon="-6.678863579676206"><ele>1323.6</ele><time>2026-03-22T13:20:09.939Z</time></trkpt><trkpt lat="30.510556843162234" lon="-6.678754609746364"><ele>1324.0</ele><time>2026-03-22T13:20:10.939Z</time></trkpt><trkpt lat="30.51051839232605" lon="-6.678640322869273"><ele>1323.75</ele><time>2026-03-22T13:20:11.939Z</time></trkpt><trkpt lat="30.510463994838762" lon="-6.6785125928905735"><ele>1323.5</ele><time>2026-03-22T13:20:12.939Z</time></trkpt><trkpt lat="30.51039267354397" lon="-6.678380066802805"><ele>1323.25</ele><time>2026-03-22T13:20:13.939Z</time></trkpt><trkpt lat="30.51033161862937" lon="-6.678279412625984"><ele>1323.0</ele><time>2026-03-22T13:20:14.939Z</time></trkpt><trkpt lat="30.510260844323845" lon="-6.678192859933458"><ele>1322.2</ele><time>2026-03-22T13:20:15.939Z</time></trkpt><trkpt lat="30.51019100613383" lon="-6.678108401825866"><ele>1321.4</ele><time>2026-03-22T13:20:16.939Z</time></trkpt><trkpt lat="30.510116233573992" lon="-6.67802579000739"><ele>1320.6000000000001</ele><time>2026-03-22T13:20:17.939Z</time></trkpt><trkpt lat="30.510036989290878" lon="-6.677941812108723"><ele>1319.8000000000002</ele><time>2026-03-22T13:20:18.939Z</time></trkpt><trkpt lat="30.509958344650997" lon="-6.677853960936728"><ele>1319.0</ele><time>2026-03-22T13:20:19.939Z</time></trkpt><trkpt lat="30.509877882740682" lon="-6.677758577712453"><ele>1319.0</ele><time>2026-03-22T13:20:20.939Z</time></trkpt><trkpt lat="30.50979540854743" lon="-6.6776499375587655"><ele>1319.0</ele><time>2026-03-22T13:20:21.939Z</time></trkpt><trkpt lat="30.509722997924722" lon="-6.677513099834934"><ele>1319.0</ele><time>2026-03-22T13:20:22.939Z</time></trkpt><trkpt lat="30.50967055372519" lon="-6.677399087728654"><ele>1319.0</ele><time>2026-03-22T13:20:23.939Z</time></trkpt><trkpt lat="30.509629471277705" lon="-6.6772792731714885"><ele>1319.0</ele><time>2026-03-22T13:20:24.939Z</time></trkpt><trkpt lat="30.50958967743829" lon="-6.677150704431985"><ele>1319.0</ele><time>2026-03-22T13:20:25.939Z</time></trkpt><trkpt lat="30.50954774685717" lon="-6.677017494237183"><ele>1319.0</ele><time>2026-03-22T13:20:26.939Z</time></trkpt><trkpt lat="30.50951467022312" lon="-6.676891832040311"><ele>1319.0</ele><time>2026-03-22T13:20:27.939Z</time></trkpt><trkpt lat="30.509488936580446" lon="-6.676752679570091"><ele>1318.75</ele><time>2026-03-22T13:20:28.939Z</time></trkpt><trkpt lat="30.509449957518786" lon="-6.676606434882158"><ele>1318.5</ele><time>2026-03-22T13:20:29.939Z</time></trkpt><trkpt lat="30.50941237707907" lon="-6.676467169732848"><ele>1318.25</ele><time>2026-03-22T13:20:30.939Z</time></trkpt><trkpt lat="30.509368905715863" lon="-6.676345501576969"><ele>1318.0</ele><time>2026-03-22T13:20:31.939Z</time></trkpt><trkpt lat="30.50933279731199" lon="-6.676240666177875"><ele>1318.0</ele><time>2026-03-22T13:20:32.939Z</time></trkpt><trkpt lat="30.509289667237866" lon="-6.6761140525723635"><ele>1318.0</ele><time>2026-03-22T13:20:33.939Z</time></trkpt><trkpt lat="30.509231658438168" lon="-6.675982218016015"><ele>1318.0</ele><time>2026-03-22T13:20:34.939Z</time></trkpt><trkpt lat="30.509162287437196" lon="-6.675831426135462"><ele>1318.0</ele><time>2026-03-22T13:20:35.939Z</time></trkpt><trkpt lat="30.509094874233725" lon="-6.675700267667006"><ele>1317.8000000000002</ele><time>2026-03-22T13:20:36.939Z</time></trkpt><trkpt lat="30.509039916721076" lon="-6.675575228370165"><ele>1317.6</ele><time>2026-03-22T13:20:37.939Z</time></trkpt><trkpt lat="30.508989092333685" lon="-6.6754637194432425"><ele>1317.4</ele><time>2026-03-22T13:20:38.939Z</time></trkpt><trkpt lat="30.508929412534822" lon="-6.6753489851835575"><ele>1317.1999999999998</ele><time>2026-03-22T13:20:39.939Z</time></trkpt><trkpt lat="30.50887512338763" lon="-6.6752455261828"><ele>1317.0</ele><time>2026-03-22T13:20:40.939Z</time></trkpt><trkpt lat="30.50880684362237" lon="-6.675136010998637"><ele>1316.0</ele><time>2026-03-22T13:20:41.939Z</time></trkpt><trkpt lat="30.508722374152445" lon="-6.675031616096681"><ele>1315.0</ele><time>2026-03-22T13:20:42.939Z</time></trkpt><trkpt lat="30.50862569845921" lon="-6.674926649845764"><ele>1314.0</ele><time>2026-03-22T13:20:43.939Z</time></trkpt><trkpt lat="30.508545108026777" lon="-6.674786965381896"><ele>1313.0</ele><time>2026-03-22T13:20:44.939Z</time></trkpt><trkpt lat="30.508474960874253" lon="-6.674670509116221"><ele>1313.0</ele><time>2026-03-22T13:20:45.939Z</time></trkpt><trkpt lat="30.508408662085355" lon="-6.674566641752431"><ele>1313.0</ele><time>2026-03-22T13:20:46.939Z</time></trkpt><trkpt lat="30.50836090157717" lon="-6.674468832073709"><ele>1313.0</ele><time>2026-03-22T13:20:47.938Z</time></trkpt><trkpt lat="30.508328571046942" lon="-6.674379265332812"><ele>1313.0</ele><time>2026-03-22T13:20:48.938Z</time></trkpt><trkpt lat="30.50829991455556" lon="-6.674292506618332"><ele>1313.0</ele><time>2026-03-22T13:20:49.938Z</time></trkpt><trkpt lat="30.508265288362008" lon="-6.674203892256927"><ele>1312.8000000000002</ele><time>2026-03-22T13:20:50.938Z</time></trkpt><trkpt lat="30.508232522391175" lon="-6.6741111530710215"><ele>1312.6</ele><time>2026-03-22T13:20:51.938Z</time></trkpt><trkpt lat="30.508197458060216" lon="-6.6740113931068805"><ele>1312.4</ele><time>2026-03-22T13:20:52.938Z</time></trkpt><trkpt lat="30.508157070085023" lon="-6.673905602217112"><ele>1312.1999999999998</ele><time>2026-03-22T13:20:53.938Z</time></trkpt><trkpt lat="30.50811243150163" lon="-6.673796863854258"><ele>1312.0</ele><time>2026-03-22T13:20:54.938Z</time></trkpt><trkpt lat="30.50806383439804" lon="-6.673693855391139"><ele>1312.0</ele><time>2026-03-22T13:20:55.938Z</time></trkpt><trkpt lat="30.50801847988399" lon="-6.67359831583482"><ele>1312.0</ele><time>2026-03-22T13:20:56.938Z</time></trkpt><trkpt lat="30.507968864417382" lon="-6.6735012279044135"><ele>1312.0</ele><time>2026-03-22T13:20:57.938Z</time></trkpt><trkpt lat="30.507910685200567" lon="-6.67340095453373"><ele>1312.0</ele><time>2026-03-22T13:20:58.938Z</time></trkpt><trkpt lat="30.507850944676527" lon="-6.673303246484079"><ele>1312.0</ele><time>2026-03-22T13:20:59.938Z</time></trkpt><trkpt lat="30.507784922582225" lon="-6.673210832558065"><ele>1312.0</ele><time>2026-03-22T13:21:00.938Z</time></trkpt><trkpt lat="30.507718757738814" lon="-6.673109493106751"><ele>1312.0</ele><time>2026-03-22T13:21:01.938Z</time></trkpt><trkpt lat="30.507654804840467" lon="-6.673007775308701"><ele>1312.0</ele><time>2026-03-22T13:21:02.938Z</time></trkpt><trkpt lat="30.507597046585545" lon="-6.672895460335602"><ele>1312.0</ele><time>2026-03-22T13:21:03.938Z</time></trkpt><trkpt lat="30.507545747596016" lon="-6.6727809530879085"><ele>1312.0</ele><time>2026-03-22T13:21:04.938Z</time></trkpt><trkpt lat="30.50750478845673" lon="-6.672673292777543"><ele>1311.75</ele><time>2026-03-22T13:21:05.938Z</time></trkpt><trkpt lat="30.507471485818836" lon="-6.672555707537876"><ele>1311.5</ele><time>2026-03-22T13:21:06.938Z</time></trkpt><trkpt lat="30.507458177041077" lon="-6.672412968359057"><ele>1311.25</ele><time>2026-03-22T13:21:07.938Z</time></trkpt><trkpt lat="30.50743183180182" lon="-6.672241053606011"><ele>1311.0</ele><time>2026-03-22T13:21:08.938Z</time></trkpt><trkpt lat="30.507401861485953" lon="-6.672118782159042"><ele>1311.0</ele><time>2026-03-22T13:21:09.938Z</time></trkpt><trkpt lat="30.507326288128386" lon="-6.6720213040923175"><ele>1311.0</ele><time>2026-03-22T13:21:10.938Z</time></trkpt><trkpt lat="30.50722114390498" lon="-6.671908170858601"><ele>1311.0</ele><time>2026-03-22T13:21:11.938Z</time></trkpt><trkpt lat="30.50713916080704" lon="-6.6717978628296235"><ele>1311.0</ele><time>2026-03-22T13:21:12.938Z</time></trkpt><trkpt lat="30.50708106006688" lon="-6.67169723355596"><ele>1310.5</ele><time>2026-03-22T13:21:13.938Z</time></trkpt><trkpt lat="30.507022372578472" lon="-6.671601987049131"><ele>1310.0</ele><time>2026-03-22T13:21:14.938Z</time></trkpt><trkpt lat="30.506953451596956" lon="-6.671484099342013"><ele>1309.5</ele><time>2026-03-22T13:21:15.938Z</time></trkpt><trkpt lat="30.50686439833926" lon="-6.671345583272773"><ele>1309.0</ele><time>2026-03-22T13:21:16.938Z</time></trkpt><trkpt lat="30.506783892015502" lon="-6.67119541700127"><ele>1309.0</ele><time>2026-03-22T13:21:17.938Z</time></trkpt><trkpt lat="30.506703031587307" lon="-6.671040903207869"><ele>1309.0</ele><time>2026-03-22T13:21:18.938Z</time></trkpt><trkpt lat="30.506625183240722" lon="-6.670887494245764"><ele>1309.0</ele><time>2026-03-22T13:21:19.938Z</time></trkpt><trkpt lat="30.50654061075639" lon="-6.67075215178784"><ele>1309.0</ele><time>2026-03-22T13:21:20.938Z</time></trkpt><trkpt lat="30.50645641679496" lon="-6.670614516492234"><ele>1309.0</ele><time>2026-03-22T13:21:21.938Z</time></trkpt><trkpt lat="30.50636098671367" lon="-6.670493313671165"><ele>1309.0</ele><time>2026-03-22T13:21:22.938Z</time></trkpt><trkpt lat="30.506267775777548" lon="-6.670370402078337"><ele>1309.0</ele><time>2026-03-22T13:21:23.938Z</time></trkpt><trkpt lat="30.50617441894469" lon="-6.670247801212127"><ele>1308.0</ele><time>2026-03-22T13:21:24.938Z</time></trkpt><trkpt lat="30.506074911241107" lon="-6.670135685499326"><ele>1307.0</ele><time>2026-03-22T13:21:25.938Z</time></trkpt><trkpt lat="30.505991396801534" lon="-6.670037883941047"><ele>1306.0</ele><time>2026-03-22T13:21:26.938Z</time></trkpt><trkpt lat="30.505914695874342" lon="-6.669940447055182"><ele>1305.0</ele><time>2026-03-22T13:21:27.938Z</time></trkpt><trkpt lat="30.505836703942254" lon="-6.669834343221826"><ele>1305.0</ele><time>2026-03-22T13:21:28.938Z</time></trkpt><trkpt lat="30.505783717547523" lon="-6.669720423416917"><ele>1305.0</ele><time>2026-03-22T13:21:29.938Z</time></trkpt><trkpt lat="30.505757733464364" lon="-6.669615533111567"><ele>1305.0</ele><time>2026-03-22T13:21:30.938Z</time></trkpt><trkpt lat="30.505754250349515" lon="-6.669504631217991"><ele>1305.0</ele><time>2026-03-22T13:21:31.938Z</time></trkpt><trkpt lat="30.505758143726123" lon="-6.669401607952071"><ele>1305.0</ele><time>2026-03-22T13:21:32.939Z</time></trkpt><trkpt lat="30.505752664847034" lon="-6.669303372519884"><ele>1305.2</ele><time>2026-03-22T13:21:33.939Z</time></trkpt><trkpt lat="30.505737172025196" lon="-6.669195453276557"><ele>1305.4</ele><time>2026-03-22T13:21:34.938Z</time></trkpt><trkpt lat="30.505730016090194" lon="-6.669072069588188"><ele>1305.6</ele><time>2026-03-22T13:21:35.938Z</time></trkpt><trkpt lat="30.505730697472522" lon="-6.668955296572157"><ele>1305.8</ele><time>2026-03-22T13:21:36.938Z</time></trkpt><trkpt lat="30.505733990558173" lon="-6.668839907216206"><ele>1306.0</ele><time>2026-03-22T13:21:37.939Z</time></trkpt><trkpt lat="30.50574226689743" lon="-6.668720345981199"><ele>1306.0</ele><time>2026-03-22T13:21:38.938Z</time></trkpt><trkpt lat="30.505739075042428" lon="-6.668594524577099"><ele>1306.0</ele><time>2026-03-22T13:21:39.938Z</time></trkpt><trkpt lat="30.505718361938776" lon="-6.6684794661866205"><ele>1306.0</ele><time>2026-03-22T13:21:40.938Z</time></trkpt><trkpt lat="30.505677105094207" lon="-6.668378400539791"><ele>1306.0</ele><time>2026-03-22T13:21:41.938Z</time></trkpt><trkpt lat="30.50563101975028" lon="-6.668267350458856"><ele>1306.0</ele><time>2026-03-22T13:21:42.938Z</time></trkpt><trkpt lat="30.505589112596617" lon="-6.668153922896172"><ele>1306.0</ele><time>2026-03-22T13:21:43.938Z</time></trkpt><trkpt lat="30.50554846139601" lon="-6.668046947740344"><ele>1306.0</ele><time>2026-03-22T13:21:44.938Z</time></trkpt><trkpt lat="30.505517639106433" lon="-6.667940582548097"><ele>1306.0</ele><time>2026-03-22T13:21:45.938Z</time></trkpt><trkpt lat="30.505494595861887" lon="-6.667838133260221"><ele>1306.0</ele><time>2026-03-22T13:21:46.938Z</time></trkpt><trkpt lat="30.50546641287629" lon="-6.66773739215629"><ele>1306.0</ele><time>2026-03-22T13:21:47.938Z</time></trkpt><trkpt lat="30.50543672691269" lon="-6.667632079617629"><ele>1305.1999999999998</ele><time>2026-03-22T13:21:48.938Z</time></trkpt><trkpt lat="30.50540236633625" lon="-6.667531735524268"><ele>1304.3999999999999</ele><time>2026-03-22T13:21:49.938Z</time></trkpt><trkpt lat="30.505373523932974" lon="-6.667432834906814"><ele>1303.6</ele><time>2026-03-22T13:21:50.938Z</time></trkpt><trkpt lat="30.505357763688668" lon="-6.667321502452736"><ele>1302.8</ele><time>2026-03-22T13:21:51.938Z</time></trkpt><trkpt lat="30.505356847631358" lon="-6.66718482613341"><ele>1302.0</ele><time>2026-03-22T13:21:52.938Z</time></trkpt><trkpt lat="30.50538054465404" lon="-6.6670539895276395"><ele>1302.0</ele><time>2026-03-22T13:21:53.938Z</time></trkpt><trkpt lat="30.505429496346324" lon="-6.66694219498754"><ele>1302.0</ele><time>2026-03-22T13:21:54.938Z</time></trkpt><trkpt lat="30.505482234598034" lon="-6.666843912879622"><ele>1302.0</ele><time>2026-03-22T13:21:55.938Z</time></trkpt><trkpt lat="30.505507110549534" lon="-6.666756379556098"><ele>1302.0</ele><time>2026-03-22T13:21:56.938Z</time></trkpt><trkpt lat="30.50549651363889" lon="-6.666671996351517"><ele>1302.0</ele><time>2026-03-22T13:21:57.938Z</time></trkpt><trkpt lat="30.50546030237703" lon="-6.666603119635263"><ele>1302.0</ele><time>2026-03-22T13:21:58.938Z</time></trkpt><trkpt lat="30.50539137864763" lon="-6.666508549646458"><ele>1302.0</ele><time>2026-03-22T13:22:00.938Z</time></trkpt><trkpt lat="30.505327549126296" lon="-6.66643639735391"><ele>1302.0</ele><time>2026-03-22T13:22:01.938Z</time></trkpt><trkpt lat="30.505273941937144" lon="-6.666364607786487"><ele>1302.0</ele><time>2026-03-22T13:22:02.938Z</time></trkpt><trkpt lat="30.50521557243561" lon="-6.666292326040769"><ele>1302.0</ele><time>2026-03-22T13:22:03.938Z</time></trkpt><trkpt lat="30.50517498887934" lon="-6.666225432740599"><ele>1302.0</ele><time>2026-03-22T13:22:04.938Z</time></trkpt><trkpt lat="30.505136680732345" lon="-6.666149123704027"><ele>1302.0</ele><time>2026-03-22T13:22:05.938Z</time></trkpt><trkpt lat="30.505097499227745" lon="-6.666073068761399"><ele>1302.0</ele><time>2026-03-22T13:22:06.938Z</time></trkpt><trkpt lat="30.50505828486845" lon="-6.665986040825438"><ele>1302.0</ele><time>2026-03-22T13:22:07.938Z</time></trkpt><trkpt lat="30.50503844325601" lon="-6.665893676546068"><ele>1302.0</ele><time>2026-03-22T13:22:08.938Z</time></trkpt><trkpt lat="30.50503342152453" lon="-6.66578676857133"><ele>1302.0</ele><time>2026-03-22T13:22:09.938Z</time></trkpt><trkpt lat="30.5050302490015" lon="-6.665687612622449"><ele>1302.0</ele><time>2026-03-22T13:22:10.938Z</time></trkpt><trkpt lat="30.505029074223966" lon="-6.6656063508711325"><ele>1302.0</ele><time>2026-03-22T13:22:11.938Z</time></trkpt><trkpt lat="30.50502537139128" lon="-6.665523901246588"><ele>1302.0</ele><time>2026-03-22T13:22:12.938Z</time></trkpt><trkpt lat="30.50502096396039" lon="-6.665439595656199"><ele>1302.0</ele><time>2026-03-22T13:22:13.938Z</time></trkpt><trkpt lat="30.50502615389839" lon="-6.665328236745861"><ele>1302.0</ele><time>2026-03-22T13:22:14.938Z</time></trkpt><trkpt lat="30.505065291563433" lon="-6.66521468225838"><ele>1302.0</ele><time>2026-03-22T13:22:15.938Z</time></trkpt><trkpt lat="30.50511735518892" lon="-6.665087608344859"><ele>1302.0</ele><time>2026-03-22T13:22:16.938Z</time></trkpt><trkpt lat="30.50518439578637" lon="-6.664966327666649"><ele>1301.6</ele><time>2026-03-22T13:22:17.938Z</time></trkpt><trkpt lat="30.505246318099804" lon="-6.664864903122021"><ele>1301.1999999999998</ele><time>2026-03-22T13:22:18.938Z</time></trkpt><trkpt lat="30.50531024786597" lon="-6.6647816076724995"><ele>1300.8</ele><time>2026-03-22T13:22:19.938Z</time></trkpt><trkpt lat="30.505400178586214" lon="-6.66470435513178"><ele>1300.4</ele><time>2026-03-22T13:22:20.938Z</time></trkpt><trkpt lat="30.505494016677332" lon="-6.664623228153694"><ele>1300.0</ele><time>2026-03-22T13:22:21.938Z</time></trkpt><trkpt lat="30.50557215327683" lon="-6.664547379518645"><ele>1300.1666666666665</ele><time>2026-03-22T13:22:22.938Z</time></trkpt><trkpt lat="30.505635958389902" lon="-6.664489904628787"><ele>1300.3333333333333</ele><time>2026-03-22T13:22:23.938Z</time></trkpt><trkpt lat="30.505694510406848" lon="-6.664435193310914"><ele>1300.5</ele><time>2026-03-22T13:22:24.938Z</time></trkpt><trkpt lat="30.50575473661317" lon="-6.664395979690305"><ele>1300.6666666666667</ele><time>2026-03-22T13:22:25.938Z</time></trkpt><trkpt lat="30.50582568520941" lon="-6.664365935539937"><ele>1300.8333333333335</ele><time>2026-03-22T13:22:26.938Z</time></trkpt><trkpt lat="30.50590908620402" lon="-6.6643442451033765"><ele>1301.0</ele><time>2026-03-22T13:22:27.938Z</time></trkpt><trkpt lat="30.505993916131093" lon="-6.664324615849372"><ele>1301.0</ele><time>2026-03-22T13:22:28.938Z</time></trkpt><trkpt lat="30.50607189108428" lon="-6.664302553553757"><ele>1301.0</ele><time>2026-03-22T13:22:29.938Z</time></trkpt><trkpt lat="30.50614318962487" lon="-6.66426913805293"><ele>1301.0</ele><time>2026-03-22T13:22:30.938Z</time></trkpt><trkpt lat="30.506214920966357" lon="-6.664253143911365"><ele>1301.0</ele><time>2026-03-22T13:22:31.938Z</time></trkpt><trkpt lat="30.50628723722436" lon="-6.664269932736241"><ele>1301.0</ele><time>2026-03-22T13:22:32.938Z</time></trkpt><trkpt lat="30.506368314443364" lon="-6.66430582081223"><ele>1301.0</ele><time>2026-03-22T13:22:33.938Z</time></trkpt><trkpt lat="30.506446982706983" lon="-6.664361317572403"><ele>1300.6666666666667</ele><time>2026-03-22T13:22:34.938Z</time></trkpt><trkpt lat="30.50651985670556" lon="-6.664413361199064"><ele>1300.3333333333335</ele><time>2026-03-22T13:22:35.938Z</time></trkpt><trkpt lat="30.50660787524897" lon="-6.664457351818657"><ele>1300.0</ele><time>2026-03-22T13:22:36.938Z</time></trkpt><trkpt lat="30.5066942884544" lon="-6.664498960996191"><ele>1299.6666666666667</ele><time>2026-03-22T13:22:37.938Z</time></trkpt><trkpt lat="30.506771889757154" lon="-6.664538795275493"><ele>1299.3333333333333</ele><time>2026-03-22T13:22:38.938Z</time></trkpt><trkpt lat="30.506851253449156" lon="-6.6645849223811116"><ele>1299.0</ele><time>2026-03-22T13:22:39.938Z</time></trkpt><trkpt lat="30.50693330082183" lon="-6.664636379006125"><ele>1299.8000000000002</ele><time>2026-03-22T13:22:40.938Z</time></trkpt><trkpt lat="30.507016489745688" lon="-6.664692957565046"><ele>1300.6000000000001</ele><time>2026-03-22T13:22:41.938Z</time></trkpt><trkpt lat="30.507108149070163" lon="-6.664747075871529"><ele>1301.4</ele><time>2026-03-22T13:22:42.938Z</time></trkpt><trkpt lat="30.507198904757708" lon="-6.6648020281491895"><ele>1302.2</ele><time>2026-03-22T13:22:43.938Z</time></trkpt><trkpt lat="30.507286167033982" lon="-6.664860302424571"><ele>1303.0</ele><time>2026-03-22T13:22:44.938Z</time></trkpt><trkpt lat="30.507403545378942" lon="-6.664926563376912"><ele>1303.0</ele><time>2026-03-22T13:22:45.938Z</time></trkpt><trkpt lat="30.50753378423676" lon="-6.665008587128392"><ele>1303.0</ele><time>2026-03-22T13:22:46.938Z</time></trkpt><trkpt lat="30.507656413489226" lon="-6.665100073528005"><ele>1303.0</ele><time>2026-03-22T13:22:47.938Z</time></trkpt><trkpt lat="30.50775486774669" lon="-6.6651902903246505"><ele>1303.0</ele><time>2026-03-22T13:22:48.938Z</time></trkpt><trkpt lat="30.507838026690973" lon="-6.6652753644728175"><ele>1303.25</ele><time>2026-03-22T13:22:49.938Z</time></trkpt><trkpt lat="30.507908191704608" lon="-6.665353356144933"><ele>1303.5</ele><time>2026-03-22T13:22:50.938Z</time></trkpt><trkpt lat="30.50797048121008" lon="-6.665392355617659"><ele>1303.75</ele><time>2026-03-22T13:22:51.938Z</time></trkpt><trkpt lat="30.508058795990898" lon="-6.665418807337462"><ele>1304.0</ele><time>2026-03-22T13:22:53.938Z</time></trkpt><trkpt lat="30.508249836865826" lon="-6.665304507910372"><ele>1304.0</ele><time>2026-03-22T13:22:58.938Z</time></trkpt><trkpt lat="30.508281192772706" lon="-6.665170548361406"><ele>1304.0</ele><time>2026-03-22T13:23:00.938Z</time></trkpt><trkpt lat="30.508288179510892" lon="-6.665073451723079"><ele>1304.0</ele><time>2026-03-22T13:23:01.938Z</time></trkpt><trkpt lat="30.50825799719767" lon="-6.664966064019925"><ele>1304.0</ele><time>2026-03-22T13:23:02.938Z</time></trkpt><trkpt lat="30.50817534110196" lon="-6.664851801400063"><ele>1304.0</ele><time>2026-03-22T13:23:03.938Z</time></trkpt><trkpt lat="30.508098884183923" lon="-6.664747900730735"><ele>1304.0</ele><time>2026-03-22T13:23:04.938Z</time></trkpt><trkpt lat="30.508027447410964" lon="-6.664589636464124"><ele>1304.0</ele><time>2026-03-22T13:23:05.938Z</time></trkpt><trkpt lat="30.507960722088008" lon="-6.664431072647489"><ele>1304.0</ele><time>2026-03-22T13:23:06.938Z</time></trkpt><trkpt lat="30.507883120139535" lon="-6.664296804071225"><ele>1304.0</ele><time>2026-03-22T13:23:07.938Z</time></trkpt><trkpt lat="30.50780298022847" lon="-6.664160417875925"><ele>1303.25</ele><time>2026-03-22T13:23:08.938Z</time></trkpt><trkpt lat="30.50773322763876" lon="-6.664023811304686"><ele>1302.5</ele><time>2026-03-22T13:23:09.938Z</time></trkpt><trkpt lat="30.50765876993769" lon="-6.663892931781461"><ele>1301.75</ele><time>2026-03-22T13:23:10.938Z</time></trkpt><trkpt lat="30.507585150049337" lon="-6.6637615015355784"><ele>1301.0</ele><time>2026-03-22T13:23:11.938Z</time></trkpt><trkpt lat="30.507517515149125" lon="-6.663634473889141"><ele>1300.75</ele><time>2026-03-22T13:23:12.938Z</time></trkpt><trkpt lat="30.507443190457003" lon="-6.663506006257425"><ele>1300.5</ele><time>2026-03-22T13:23:13.938Z</time></trkpt><trkpt lat="30.50736625892654" lon="-6.663377382632797"><ele>1300.25</ele><time>2026-03-22T13:23:14.938Z</time></trkpt><trkpt lat="30.507294182529524" lon="-6.663256085307057"><ele>1300.0</ele><time>2026-03-22T13:23:15.938Z</time></trkpt><trkpt lat="30.5072212979449" lon="-6.663129355088594"><ele>1300.0</ele><time>2026-03-22T13:23:16.938Z</time></trkpt><trkpt lat="30.507150858083993" lon="-6.662995354273685"><ele>1300.0</ele><time>2026-03-22T13:23:17.938Z</time></trkpt><trkpt lat="30.507057665728507" lon="-6.662849538216324"><ele>1300.0</ele><time>2026-03-22T13:23:18.938Z</time></trkpt><trkpt lat="30.506990714601987" lon="-6.662732330633988"><ele>1300.0</ele><time>2026-03-22T13:23:19.938Z</time></trkpt><trkpt lat="30.506927632582077" lon="-6.662623495290366"><ele>1299.75</ele><time>2026-03-22T13:23:20.938Z</time></trkpt><trkpt lat="30.5068665584692" lon="-6.662488049209525"><ele>1299.5</ele><time>2026-03-22T13:23:21.938Z</time></trkpt><trkpt lat="30.50680442806665" lon="-6.662336070287316"><ele>1299.25</ele><time>2026-03-22T13:23:22.938Z</time></trkpt><trkpt lat="30.50675173142104" lon="-6.662187735262989"><ele>1299.0</ele><time>2026-03-22T13:23:23.938Z</time></trkpt><trkpt lat="30.506685091072963" lon="-6.662059931965537"><ele>1298.75</ele><time>2026-03-22T13:23:24.938Z</time></trkpt><trkpt lat="30.50660325367368" lon="-6.6619478501457765"><ele>1298.5</ele><time>2026-03-22T13:23:25.938Z</time></trkpt><trkpt lat="30.506507749254485" lon="-6.661816866822545"><ele>1298.25</ele><time>2026-03-22T13:23:26.938Z</time></trkpt><trkpt lat="30.506412087925234" lon="-6.661661358401685"><ele>1298.0</ele><time>2026-03-22T13:23:27.938Z</time></trkpt><trkpt lat="30.50631552081712" lon="-6.661513203920541"><ele>1297.8000000000002</ele><time>2026-03-22T13:23:28.938Z</time></trkpt><trkpt lat="30.506228464136562" lon="-6.661393074558487"><ele>1297.6</ele><time>2026-03-22T13:23:29.938Z</time></trkpt><trkpt lat="30.50615364595744" lon="-6.661299226584338"><ele>1297.4</ele><time>2026-03-22T13:23:30.938Z</time></trkpt><trkpt lat="30.50608382370907" lon="-6.661222246736354"><ele>1297.1999999999998</ele><time>2026-03-22T13:23:31.938Z</time></trkpt><trkpt lat="30.50600692393314" lon="-6.661161205486615"><ele>1297.0</ele><time>2026-03-22T13:23:32.938Z</time></trkpt><trkpt lat="30.505928564236356" lon="-6.661117857799814"><ele>1297.0</ele><time>2026-03-22T13:23:33.938Z</time></trkpt><trkpt lat="30.505849118047536" lon="-6.661091911519875"><ele>1297.0</ele><time>2026-03-22T13:23:34.938Z</time></trkpt><trkpt lat="30.50577045943699" lon="-6.661074159814574"><ele>1297.0</ele><time>2026-03-22T13:23:35.938Z</time></trkpt><trkpt lat="30.505689458666684" lon="-6.66106223365853"><ele>1297.0</ele><time>2026-03-22T13:23:36.938Z</time></trkpt><trkpt lat="30.50561265484803" lon="-6.661053003097361"><ele>1297.0</ele><time>2026-03-22T13:23:37.938Z</time></trkpt><trkpt lat="30.505535179255315" lon="-6.661048082682847"><ele>1297.0</ele><time>2026-03-22T13:23:38.938Z</time></trkpt><trkpt lat="30.50546531673646" lon="-6.661049286071869"><ele>1296.5714285714287</ele><time>2026-03-22T13:23:39.938Z</time></trkpt><trkpt lat="30.505396572848912" lon="-6.661051227890082"><ele>1296.142857142857</ele><time>2026-03-22T13:23:40.938Z</time></trkpt><trkpt lat="30.505324369275606" lon="-6.6610489803159485"><ele>1295.7142857142858</ele><time>2026-03-22T13:23:41.938Z</time></trkpt><trkpt lat="30.50525228521214" lon="-6.6610313638273055"><ele>1295.2857142857142</ele><time>2026-03-22T13:23:42.938Z</time></trkpt><trkpt lat="30.505190942055723" lon="-6.660995214395047"><ele>1294.857142857143</ele><time>2026-03-22T13:23:43.938Z</time></trkpt><trkpt lat="30.505142905373724" lon="-6.660945899110186"><ele>1294.4285714285713</ele><time>2026-03-22T13:23:44.938Z</time></trkpt><trkpt lat="30.505089325357304" lon="-6.6608775683124275"><ele>1294.0</ele><time>2026-03-22T13:23:45.938Z</time></trkpt><trkpt lat="30.50502522673429" lon="-6.660808072189969"><ele>1294.0</ele><time>2026-03-22T13:23:46.937Z</time></trkpt><trkpt lat="30.504944491454133" lon="-6.660715250635887"><ele>1294.0</ele><time>2026-03-22T13:23:47.937Z</time></trkpt><trkpt lat="30.504887151748065" lon="-6.660607743031924"><ele>1294.0</ele><time>2026-03-22T13:23:48.937Z</time></trkpt><trkpt lat="30.50486151240839" lon="-6.660479187805258"><ele>1294.0</ele><time>2026-03-22T13:23:49.937Z</time></trkpt><trkpt lat="30.50484856926205" lon="-6.660338302717136"><ele>1294.0</ele><time>2026-03-22T13:23:50.938Z</time></trkpt><trkpt lat="30.504824064158093" lon="-6.6601848310208265"><ele>1294.0</ele><time>2026-03-22T13:23:51.938Z</time></trkpt><trkpt lat="30.5048134083345" lon="-6.66005624509507"><ele>1294.0</ele><time>2026-03-22T13:23:52.938Z</time></trkpt><trkpt lat="30.504843517680253" lon="-6.659951595319319"><ele>1294.0</ele><time>2026-03-22T13:23:53.938Z</time></trkpt><trkpt lat="30.504903469278663" lon="-6.659870721756946"><ele>1294.0</ele><time>2026-03-22T13:23:54.938Z</time></trkpt><trkpt lat="30.505011157141332" lon="-6.659805895703977"><ele>1294.0</ele><time>2026-03-22T13:23:55.938Z</time></trkpt><trkpt lat="30.505156472537895" lon="-6.659750899747677"><ele>1294.0</ele><time>2026-03-22T13:23:56.938Z</time></trkpt><trkpt lat="30.505302230038563" lon="-6.659696341038951"><ele>1294.0</ele><time>2026-03-22T13:23:57.938Z</time></trkpt><trkpt lat="30.50540696200335" lon="-6.6596594815934935"><ele>1294.0</ele><time>2026-03-22T13:23:58.938Z</time></trkpt><trkpt lat="30.50548249492873" lon="-6.659610378931567"><ele>1294.8000000000002</ele><time>2026-03-22T13:23:59.938Z</time></trkpt><trkpt lat="30.505544176918086" lon="-6.659547742891858"><ele>1295.6000000000001</ele><time>2026-03-22T13:24:00.938Z</time></trkpt><trkpt lat="30.505590532709547" lon="-6.659475327613584"><ele>1296.4</ele><time>2026-03-22T13:24:01.938Z</time></trkpt><trkpt lat="30.50560438822764" lon="-6.659391434240056"><ele>1297.2</ele><time>2026-03-22T13:24:02.938Z</time></trkpt><trkpt lat="30.50557148562745" lon="-6.65926764928014"><ele>1298.0</ele><time>2026-03-22T13:24:03.938Z</time></trkpt><trkpt lat="30.50551520595101" lon="-6.659140710373343"><ele>1297.75</ele><time>2026-03-22T13:24:04.938Z</time></trkpt><trkpt lat="30.50543255981073" lon="-6.659037557837938"><ele>1297.5</ele><time>2026-03-22T13:24:05.937Z</time></trkpt><trkpt lat="30.505327012489733" lon="-6.658929965807942"><ele>1297.25</ele><time>2026-03-22T13:24:06.937Z</time></trkpt><trkpt lat="30.505251784878173" lon="-6.658851759142874"><ele>1297.0</ele><time>2026-03-22T13:24:07.937Z</time></trkpt><trkpt lat="30.505194558453816" lon="-6.658775529559069"><ele>1297.0</ele><time>2026-03-22T13:24:08.937Z</time></trkpt><trkpt lat="30.505145081621862" lon="-6.6586900491091505"><ele>1297.0</ele><time>2026-03-22T13:24:09.937Z</time></trkpt><trkpt lat="30.505089169289832" lon="-6.658606485773448"><ele>1297.0</ele><time>2026-03-22T13:24:10.937Z</time></trkpt><trkpt lat="30.50502168752018" lon="-6.658520029962958"><ele>1297.0</ele><time>2026-03-22T13:24:11.937Z</time></trkpt><trkpt lat="30.504964782874772" lon="-6.658437525053726"><ele>1297.0</ele><time>2026-03-22T13:24:12.937Z</time></trkpt><trkpt lat="30.504909048232438" lon="-6.658374932377761"><ele>1297.0</ele><time>2026-03-22T13:24:13.937Z</time></trkpt><trkpt lat="30.50486359120996" lon="-6.658311369965305"><ele>1297.3333333333333</ele><time>2026-03-22T13:24:14.937Z</time></trkpt><trkpt lat="30.50483983427145" lon="-6.658241864852715"><ele>1297.6666666666665</ele><time>2026-03-22T13:24:15.937Z</time></trkpt><trkpt lat="30.504831370541577" lon="-6.658161858258717"><ele>1298.0</ele><time>2026-03-22T13:24:16.937Z</time></trkpt><trkpt lat="30.504831636453485" lon="-6.6580638328590735"><ele>1298.3333333333333</ele><time>2026-03-22T13:24:17.937Z</time></trkpt><trkpt lat="30.504859085183625" lon="-6.657957593750252"><ele>1298.6666666666667</ele><time>2026-03-22T13:24:18.937Z</time></trkpt><trkpt lat="30.504897093811184" lon="-6.657871723474423"><ele>1299.0</ele><time>2026-03-22T13:24:19.937Z</time></trkpt><trkpt lat="30.50493103378735" lon="-6.657791994499422"><ele>1298.8333333333333</ele><time>2026-03-22T13:24:20.937Z</time></trkpt><trkpt lat="30.504968308058263" lon="-6.657692463373064"><ele>1298.6666666666667</ele><time>2026-03-22T13:24:22.937Z</time></trkpt><trkpt lat="30.50497816297641" lon="-6.657569437730072"><ele>1298.5</ele><time>2026-03-22T13:24:24.937Z</time></trkpt><trkpt lat="30.504942164062786" lon="-6.6574817066604"><ele>1298.3333333333335</ele><time>2026-03-22T13:24:25.937Z</time></trkpt><trkpt lat="30.504887373378136" lon="-6.657415461042201"><ele>1298.1666666666667</ele><time>2026-03-22T13:24:26.937Z</time></trkpt><trkpt lat="30.50482823255721" lon="-6.657360978006444"><ele>1298.0</ele><time>2026-03-22T13:24:27.937Z</time></trkpt><trkpt lat="30.50477096634906" lon="-6.657311168572087"><ele>1298.0</ele><time>2026-03-22T13:24:28.937Z</time></trkpt><trkpt lat="30.504706139697653" lon="-6.657267421774241"><ele>1298.0</ele><time>2026-03-22T13:24:29.937Z</time></trkpt><trkpt lat="30.504635237860604" lon="-6.657225250669972"><ele>1298.0</ele><time>2026-03-22T13:24:30.937Z</time></trkpt><trkpt lat="30.504562463160294" lon="-6.657182137562221"><ele>1298.0</ele><time>2026-03-22T13:24:31.937Z</time></trkpt><trkpt lat="30.504490864191595" lon="-6.657139580717843"><ele>1298.0</ele><time>2026-03-22T13:24:32.937Z</time></trkpt><trkpt lat="30.50442645784582" lon="-6.657101558268284"><ele>1298.0</ele><time>2026-03-22T13:24:33.937Z</time></trkpt><trkpt lat="30.504358817542375" lon="-6.657055176124267"><ele>1298.3333333333335</ele><time>2026-03-22T13:24:34.937Z</time></trkpt><trkpt lat="30.50429113363944" lon="-6.657008886747161"><ele>1298.6666666666667</ele><time>2026-03-22T13:24:35.937Z</time></trkpt><trkpt lat="30.504218977448495" lon="-6.6569669042298205"><ele>1299.0</ele><time>2026-03-22T13:24:36.937Z</time></trkpt><trkpt lat="30.504138182791056" lon="-6.656928484822535"><ele>1299.3333333333333</ele><time>2026-03-22T13:24:37.937Z</time></trkpt><trkpt lat="30.504055530563278" lon="-6.656888083622274"><ele>1299.6666666666665</ele><time>2026-03-22T13:24:38.937Z</time></trkpt><trkpt lat="30.50396835669589" lon="-6.65684129539561"><ele>1300.0</ele><time>2026-03-22T13:24:39.937Z</time></trkpt><trkpt lat="30.5038717566564" lon="-6.656784496352381"><ele>1300.0</ele><time>2026-03-22T13:24:40.937Z</time></trkpt><trkpt lat="30.503768024128064" lon="-6.656725193099846"><ele>1300.0</ele><time>2026-03-22T13:24:41.937Z</time></trkpt><trkpt lat="30.50366637698985" lon="-6.65664423585382"><ele>1300.0</ele><time>2026-03-22T13:24:42.937Z</time></trkpt><trkpt lat="30.503570767100783" lon="-6.65653043616259"><ele>1300.0</ele><time>2026-03-22T13:24:43.937Z</time></trkpt><trkpt lat="30.503483952578936" lon="-6.656392635579699"><ele>1297.6666666666665</ele><time>2026-03-22T13:24:44.937Z</time></trkpt><trkpt lat="30.50339768433631" lon="-6.656223778165708"><ele>1295.3333333333333</ele><time>2026-03-22T13:24:45.937Z</time></trkpt><trkpt lat="30.503319937510245" lon="-6.656033167776945"><ele>1293.0</ele><time>2026-03-22T13:24:46.937Z</time></trkpt><trkpt lat="30.503247832128682" lon="-6.655849717392001"><ele>1293.0</ele><time>2026-03-22T13:24:47.937Z</time></trkpt><trkpt lat="30.50319151305936" lon="-6.655689853395488"><ele>1293.0</ele><time>2026-03-22T13:24:48.937Z</time></trkpt><trkpt lat="30.50311824476594" lon="-6.655563482409408"><ele>1293.0</ele><time>2026-03-22T13:24:49.937Z</time></trkpt><trkpt lat="30.503010831427584" lon="-6.655426709600373"><ele>1293.0</ele><time>2026-03-22T13:24:50.937Z</time></trkpt><trkpt lat="30.502906756620277" lon="-6.655291857408222"><ele>1291.3333333333333</ele><time>2026-03-22T13:24:51.937Z</time></trkpt><trkpt lat="30.502811812299377" lon="-6.655148307903698"><ele>1289.6666666666665</ele><time>2026-03-22T13:24:52.937Z</time></trkpt><trkpt lat="30.502712091382357" lon="-6.655011043328768"><ele>1288.0</ele><time>2026-03-22T13:24:53.937Z</time></trkpt><trkpt lat="30.50262101345211" lon="-6.654882565488756"><ele>1288.0</ele><time>2026-03-22T13:24:54.937Z</time></trkpt><trkpt lat="30.502531694453484" lon="-6.65475086128152"><ele>1288.0</ele><time>2026-03-22T13:24:55.937Z</time></trkpt><trkpt lat="30.502441108691368" lon="-6.654590740698865"><ele>1288.0</ele><time>2026-03-22T13:24:56.937Z</time></trkpt><trkpt lat="30.502340993006957" lon="-6.654402496541646"><ele>1287.3333333333333</ele><time>2026-03-22T13:24:57.937Z</time></trkpt><trkpt lat="30.502222136535195" lon="-6.654184384735754"><ele>1286.6666666666667</ele><time>2026-03-22T13:24:58.937Z</time></trkpt><trkpt lat="30.502097195070366" lon="-6.653987458402597"><ele>1286.0</ele><time>2026-03-22T13:24:59.937Z</time></trkpt><trkpt lat="30.501999260642172" lon="-6.653845142563351"><ele>1286.0</ele><time>2026-03-22T13:25:00.937Z</time></trkpt><trkpt lat="30.501926279312602" lon="-6.653692815600341"><ele>1286.0</ele><time>2026-03-22T13:25:01.937Z</time></trkpt><trkpt lat="30.50184384949318" lon="-6.653536249462935"><ele>1286.0</ele><time>2026-03-22T13:25:02.937Z</time></trkpt><trkpt lat="30.501758697618275" lon="-6.653383339506406"><ele>1286.0</ele><time>2026-03-22T13:25:03.937Z</time></trkpt><trkpt lat="30.501689050731976" lon="-6.653239235587585"><ele>1286.0</ele><time>2026-03-22T13:25:04.937Z</time></trkpt><trkpt lat="30.501626553147094" lon="-6.653089740152787"><ele>1286.0</ele><time>2026-03-22T13:25:05.937Z</time></trkpt><trkpt lat="30.501573396664718" lon="-6.65289997710318"><ele>1285.3333333333335</ele><time>2026-03-22T13:25:06.937Z</time></trkpt><trkpt lat="30.501505147858403" lon="-6.6526846498455745"><ele>1284.6666666666667</ele><time>2026-03-22T13:25:07.937Z</time></trkpt><trkpt lat="30.501417311120463" lon="-6.652481411233366"><ele>1284.0</ele><time>2026-03-22T13:25:08.937Z</time></trkpt><trkpt lat="30.501321017432176" lon="-6.6523206538157424"><ele>1283.75</ele><time>2026-03-22T13:25:09.937Z</time></trkpt><trkpt lat="30.501241777878978" lon="-6.652194652535142"><ele>1283.5</ele><time>2026-03-22T13:25:10.937Z</time></trkpt><trkpt lat="30.50116672476009" lon="-6.652077116555623"><ele>1283.25</ele><time>2026-03-22T13:25:11.937Z</time></trkpt><trkpt lat="30.501097302071596" lon="-6.651965220419827"><ele>1283.0</ele><time>2026-03-22T13:25:12.937Z</time></trkpt><trkpt lat="30.50103889004629" lon="-6.651847045657963"><ele>1283.0</ele><time>2026-03-22T13:25:13.937Z</time></trkpt><trkpt lat="30.500969468249455" lon="-6.651721229308038"><ele>1283.0</ele><time>2026-03-22T13:25:14.937Z</time></trkpt><trkpt lat="30.500905289187177" lon="-6.651586202789762"><ele>1283.0</ele><time>2026-03-22T13:25:15.937Z</time></trkpt><trkpt lat="30.50083166797841" lon="-6.651450996536267"><ele>1283.0</ele><time>2026-03-22T13:25:16.937Z</time></trkpt><trkpt lat="30.500748787225774" lon="-6.651325606439864"><ele>1283.0</ele><time>2026-03-22T13:25:17.937Z</time></trkpt><trkpt lat="30.500665210791702" lon="-6.6512126432426095"><ele>1283.0</ele><time>2026-03-22T13:25:18.937Z</time></trkpt><trkpt lat="30.500587737644512" lon="-6.6511003142205665"><ele>1283.0</ele><time>2026-03-22T13:25:19.937Z</time></trkpt><trkpt lat="30.500526277087513" lon="-6.650986003715972"><ele>1283.0</ele><time>2026-03-22T13:25:20.937Z</time></trkpt><trkpt lat="30.50045973556683" lon="-6.650883512139161"><ele>1282.6000000000001</ele><time>2026-03-22T13:25:21.937Z</time></trkpt><trkpt lat="30.500399474517256" lon="-6.650777146244543"><ele>1282.2</ele><time>2026-03-22T13:25:22.937Z</time></trkpt><trkpt lat="30.50034420971957" lon="-6.650690690559919"><ele>1281.8</ele><time>2026-03-22T13:25:23.937Z</time></trkpt><trkpt lat="30.50030780443987" lon="-6.650584076977698"><ele>1281.4</ele><time>2026-03-22T13:25:24.937Z</time></trkpt><trkpt lat="30.500290380552062" lon="-6.6504482792763016"><ele>1281.0</ele><time>2026-03-22T13:25:25.937Z</time></trkpt><trkpt lat="30.500272879029158" lon="-6.650294362563811"><ele>1281.5</ele><time>2026-03-22T13:25:26.937Z</time></trkpt><trkpt lat="30.50024353872241" lon="-6.6501560132073685"><ele>1282.0</ele><time>2026-03-22T13:25:27.937Z</time></trkpt><trkpt lat="30.500197563136336" lon="-6.650018359297363"><ele>1282.5</ele><time>2026-03-22T13:25:28.937Z</time></trkpt><trkpt lat="30.500148554512425" lon="-6.649907859966587"><ele>1283.0</ele><time>2026-03-22T13:25:29.937Z</time></trkpt><trkpt lat="30.5000475494614" lon="-6.6498293029262605"><ele>1283.0</ele><time>2026-03-22T13:25:30.937Z</time></trkpt><trkpt lat="30.499994914398062" lon="-6.649726782741496"><ele>1283.0</ele><time>2026-03-22T13:25:31.937Z</time></trkpt><trkpt lat="30.499957782535596" lon="-6.649604997726799"><ele>1283.0</ele><time>2026-03-22T13:25:32.937Z</time></trkpt><trkpt lat="30.499905805503" lon="-6.649491501492412"><ele>1283.0</ele><time>2026-03-22T13:25:33.937Z</time></trkpt><trkpt lat="30.499855584996023" lon="-6.649352173163288"><ele>1282.75</ele><time>2026-03-22T13:25:34.937Z</time></trkpt><trkpt lat="30.499820697743203" lon="-6.649206415628469"><ele>1282.5</ele><time>2026-03-22T13:25:35.937Z</time></trkpt><trkpt lat="30.49978924461072" lon="-6.649075376273231"><ele>1282.25</ele><time>2026-03-22T13:25:36.937Z</time></trkpt><trkpt lat="30.499760894251576" lon="-6.648948687674726"><ele>1282.0</ele><time>2026-03-22T13:25:37.937Z</time></trkpt><trkpt lat="30.499739185530466" lon="-6.648822008370323"><ele>1282.0</ele><time>2026-03-22T13:25:38.937Z</time></trkpt><trkpt lat="30.49969716385833" lon="-6.6487039191291"><ele>1282.0</ele><time>2026-03-22T13:25:39.937Z</time></trkpt><trkpt lat="30.499675619120914" lon="-6.648564388334194"><ele>1282.0</ele><time>2026-03-22T13:25:40.937Z</time></trkpt><trkpt lat="30.499625025233833" lon="-6.648434737904685"><ele>1282.0</ele><time>2026-03-22T13:25:41.937Z</time></trkpt><trkpt lat="30.49957878233705" lon="-6.648313640717826"><ele>1281.25</ele><time>2026-03-22T13:25:42.937Z</time></trkpt><trkpt lat="30.499488164544058" lon="-6.648220256013956"><ele>1280.5</ele><time>2026-03-22T13:25:43.937Z</time></trkpt><trkpt lat="30.49943319316728" lon="-6.648098889781442"><ele>1279.75</ele><time>2026-03-22T13:25:44.937Z</time></trkpt><trkpt lat="30.49937220798025" lon="-6.647991771143091"><ele>1279.0</ele><time>2026-03-22T13:25:45.937Z</time></trkpt><trkpt lat="30.499314225345202" lon="-6.647885672905248"><ele>1278.8</ele><time>2026-03-22T13:25:46.937Z</time></trkpt><trkpt lat="30.49926943970461" lon="-6.64777370408364"><ele>1278.6000000000001</ele><time>2026-03-22T13:25:47.936Z</time></trkpt><trkpt lat="30.499200676242136" lon="-6.647675605083882"><ele>1278.4</ele><time>2026-03-22T13:25:48.935Z</time></trkpt><trkpt lat="30.49914954043468" lon="-6.64758559347347"><ele>1278.2</ele><time>2026-03-22T13:25:49.935Z</time></trkpt><trkpt lat="30.499103882170242" lon="-6.647490431321092"><ele>1278.0</ele><time>2026-03-22T13:25:50.933Z</time></trkpt><trkpt lat="30.499058419442672" lon="-6.6473965769090775"><ele>1278.0</ele><time>2026-03-22T13:25:51.933Z</time></trkpt><trkpt lat="30.499011586160382" lon="-6.647299797861674"><ele>1278.0</ele><time>2026-03-22T13:25:52.933Z</time></trkpt><trkpt lat="30.498978389860724" lon="-6.647210033665517"><ele>1278.0</ele><time>2026-03-22T13:25:53.931Z</time></trkpt><trkpt lat="30.49893414372593" lon="-6.6471300378511575"><ele>1278.0</ele><time>2026-03-22T13:25:54.931Z</time></trkpt><trkpt lat="30.498880867271083" lon="-6.647058692195357"><ele>1278.0</ele><time>2026-03-22T13:25:55.931Z</time></trkpt><trkpt lat="30.498805914207313" lon="-6.646995756498738"><ele>1278.0</ele><time>2026-03-22T13:25:56.93Z</time></trkpt><trkpt lat="30.4987210867857" lon="-6.646951917630611"><ele>1277.0</ele><time>2026-03-22T13:25:57.929Z</time></trkpt><trkpt lat="30.49862105700298" lon="-6.646912957147387"><ele>1276.0</ele><time>2026-03-22T13:25:58.929Z</time></trkpt><trkpt lat="30.498518496342754" lon="-6.646881767823703"><ele>1275.0</ele><time>2026-03-22T13:25:59.928Z</time></trkpt><trkpt lat="30.49842226425255" lon="-6.6468561458630395"><ele>1274.0</ele><time>2026-03-22T13:26:00.928Z</time></trkpt><trkpt lat="30.498339039805344" lon="-6.646826369550051"><ele>1273.0</ele><time>2026-03-22T13:26:01.927Z</time></trkpt><trkpt lat="30.4982716135328" lon="-6.646780424187346"><ele>1273.0</ele><time>2026-03-22T13:26:02.927Z</time></trkpt><trkpt lat="30.49821952935403" lon="-6.646732303454155"><ele>1273.0</ele><time>2026-03-22T13:26:03.927Z</time></trkpt><trkpt lat="30.498183267007594" lon="-6.646671842372301"><ele>1273.0</ele><time>2026-03-22T13:26:04.926Z</time></trkpt><trkpt lat="30.49810687297436" lon="-6.6466638430897875"><ele>1273.0</ele><time>2026-03-22T13:26:05.926Z</time></trkpt><trkpt lat="30.49813052200473" lon="-6.646534048350717"><ele>1273.0</ele><time>2026-03-22T13:26:06.926Z</time></trkpt><trkpt lat="30.498096313276115" lon="-6.646457713191385"><ele>1273.0</ele><time>2026-03-22T13:26:07.926Z</time></trkpt><trkpt lat="30.49805279781739" lon="-6.646362388216281"><ele>1273.0</ele><time>2026-03-22T13:26:08.925Z</time></trkpt><trkpt lat="30.498019447618198" lon="-6.646254754582764"><ele>1273.0</ele><time>2026-03-22T13:26:09.925Z</time></trkpt><trkpt lat="30.498000999216746" lon="-6.646158771004415"><ele>1273.0</ele><time>2026-03-22T13:26:10.925Z</time></trkpt><trkpt lat="30.497999304944877" lon="-6.646046739532173"><ele>1273.0</ele><time>2026-03-22T13:26:11.925Z</time></trkpt><trkpt lat="30.497989328725165" lon="-6.6459355848097195"><ele>1273.0</ele><time>2026-03-22T13:26:12.925Z</time></trkpt><trkpt lat="30.497979823701208" lon="-6.645814005459674"><ele>1273.1666666666665</ele><time>2026-03-22T13:26:13.924Z</time></trkpt><trkpt lat="30.49797895247537" lon="-6.645712296522797"><ele>1273.3333333333333</ele><time>2026-03-22T13:26:14.924Z</time></trkpt><trkpt lat="30.49798154557653" lon="-6.645600820452596"><ele>1273.5</ele><time>2026-03-22T13:26:15.924Z</time></trkpt><trkpt lat="30.49797879381423" lon="-6.645493753929234"><ele>1273.6666666666667</ele><time>2026-03-22T13:26:16.924Z</time></trkpt><trkpt lat="30.497966302732106" lon="-6.645397927595339"><ele>1273.8333333333335</ele><time>2026-03-22T13:26:17.924Z</time></trkpt><trkpt lat="30.497947654552757" lon="-6.645304095014107"><ele>1274.0</ele><time>2026-03-22T13:26:18.924Z</time></trkpt><trkpt lat="30.497924198118973" lon="-6.645213046329877"><ele>1276.3333333333335</ele><time>2026-03-22T13:26:19.923Z</time></trkpt><trkpt lat="30.49789717506728" lon="-6.645124087159273"><ele>1278.6666666666667</ele><time>2026-03-22T13:26:20.923Z</time></trkpt><trkpt lat="30.49786612892072" lon="-6.645029270616932"><ele>1281.0</ele><time>2026-03-22T13:26:21.923Z</time></trkpt><trkpt lat="30.497828602561555" lon="-6.644933338412696"><ele>1283.3333333333333</ele><time>2026-03-22T13:26:22.923Z</time></trkpt><trkpt lat="30.497773686735954" lon="-6.644845109979523"><ele>1285.6666666666665</ele><time>2026-03-22T13:26:23.923Z</time></trkpt><trkpt lat="30.49770032528389" lon="-6.644779822513747"><ele>1288.0</ele><time>2026-03-22T13:26:24.923Z</time></trkpt><trkpt lat="30.49762946797031" lon="-6.644720484498359"><ele>1288.0</ele><time>2026-03-22T13:26:25.923Z</time></trkpt><trkpt lat="30.49755628305451" lon="-6.644626770966022"><ele>1288.0</ele><time>2026-03-22T13:26:26.923Z</time></trkpt><trkpt lat="30.497510220568465" lon="-6.644501969490993"><ele>1288.0</ele><time>2026-03-22T13:26:27.923Z</time></trkpt><trkpt lat="30.49751976072609" lon="-6.644363488481602"><ele>1288.0</ele><time>2026-03-22T13:26:28.923Z</time></trkpt><trkpt lat="30.49754940860198" lon="-6.644214289391433"><ele>1288.0</ele><time>2026-03-22T13:26:29.923Z</time></trkpt><trkpt lat="30.497562423812404" lon="-6.644063314983032"><ele>1288.0</ele><time>2026-03-22T13:26:30.923Z</time></trkpt><trkpt lat="30.497556709160254" lon="-6.643899378919934"><ele>1288.0</ele><time>2026-03-22T13:26:31.922Z</time></trkpt><trkpt lat="30.497565009994425" lon="-6.643704204958931"><ele>1288.0</ele><time>2026-03-22T13:26:32.922Z</time></trkpt><trkpt lat="30.497580469364166" lon="-6.643514262785129"><ele>1288.5</ele><time>2026-03-22T13:26:33.922Z</time></trkpt><trkpt lat="30.497603287770385" lon="-6.643361080358956"><ele>1289.0</ele><time>2026-03-22T13:26:34.922Z</time></trkpt><trkpt lat="30.497608693692467" lon="-6.643229888983458"><ele>1289.5</ele><time>2026-03-22T13:26:35.922Z</time></trkpt><trkpt lat="30.497601377429717" lon="-6.6431001121051665"><ele>1290.0</ele><time>2026-03-22T13:26:36.922Z</time></trkpt><trkpt lat="30.497587690878756" lon="-6.642983454796345"><ele>1290.0</ele><time>2026-03-22T13:26:37.922Z</time></trkpt><trkpt lat="30.49756706450776" lon="-6.642863785905804"><ele>1290.0</ele><time>2026-03-22T13:26:38.922Z</time></trkpt><trkpt lat="30.497533317962763" lon="-6.64276356155621"><ele>1290.0</ele><time>2026-03-22T13:26:39.922Z</time></trkpt><trkpt lat="30.497503185525353" lon="-6.642653617887365"><ele>1290.0</ele><time>2026-03-22T13:26:40.922Z</time></trkpt><trkpt lat="30.497479276403865" lon="-6.642545972760603"><ele>1290.0</ele><time>2026-03-22T13:26:41.922Z</time></trkpt><trkpt lat="30.497475660693755" lon="-6.642424330026721"><ele>1291.25</ele><time>2026-03-22T13:26:42.922Z</time></trkpt><trkpt lat="30.49747202315416" lon="-6.642287902424546"><ele>1292.5</ele><time>2026-03-22T13:26:43.922Z</time></trkpt><trkpt lat="30.4974614583444" lon="-6.642147571872574"><ele>1293.75</ele><time>2026-03-22T13:26:44.922Z</time></trkpt><trkpt lat="30.4974724482151" lon="-6.641998421539561"><ele>1295.0</ele><time>2026-03-22T13:26:45.922Z</time></trkpt><trkpt lat="30.497484622437405" lon="-6.641837511342638"><ele>1296.4</ele><time>2026-03-22T13:26:46.922Z</time></trkpt><trkpt lat="30.49748892496439" lon="-6.64170842004422"><ele>1297.8</ele><time>2026-03-22T13:26:47.922Z</time></trkpt><trkpt lat="30.497481342839656" lon="-6.641630369978185"><ele>1299.1999999999998</ele><time>2026-03-22T13:26:48.922Z</time></trkpt><trkpt lat="30.4974449737103" lon="-6.641543920196057"><ele>1300.6</ele><time>2026-03-22T13:26:49.922Z</time></trkpt><trkpt lat="30.497357799719865" lon="-6.641486262349422"><ele>1302.0</ele><time>2026-03-22T13:26:50.922Z</time></trkpt><trkpt lat="30.497252738343814" lon="-6.641418989229036"><ele>1302.0</ele><time>2026-03-22T13:26:51.922Z</time></trkpt><trkpt lat="30.49714258177351" lon="-6.641315229267688"><ele>1302.0</ele><time>2026-03-22T13:26:52.922Z</time></trkpt><trkpt lat="30.497058657888022" lon="-6.6411776703072825"><ele>1302.0</ele><time>2026-03-22T13:26:53.922Z</time></trkpt><trkpt lat="30.4970135946562" lon="-6.641044956993005"><ele>1302.0</ele><time>2026-03-22T13:26:54.922Z</time></trkpt><trkpt lat="30.49698864996957" lon="-6.640929463743551"><ele>1303.6</ele><time>2026-03-22T13:26:55.922Z</time></trkpt><trkpt lat="30.496983899157257" lon="-6.640822746677564"><ele>1305.1999999999998</ele><time>2026-03-22T13:26:56.922Z</time></trkpt><trkpt lat="30.496981205033894" lon="-6.640709555590485"><ele>1306.8</ele><time>2026-03-22T13:26:57.922Z</time></trkpt><trkpt lat="30.496979587505393" lon="-6.640597215871738"><ele>1308.4</ele><time>2026-03-22T13:26:58.922Z</time></trkpt><trkpt lat="30.49696834249607" lon="-6.64047430860177"><ele>1310.0</ele><time>2026-03-22T13:26:59.922Z</time></trkpt><trkpt lat="30.49696078836758" lon="-6.640332215417916"><ele>1309.75</ele><time>2026-03-22T13:27:00.922Z</time></trkpt><trkpt lat="30.49696459141255" lon="-6.640182592407894"><ele>1309.5</ele><time>2026-03-22T13:27:01.922Z</time></trkpt><trkpt lat="30.496964254884166" lon="-6.640032713728118"><ele>1309.25</ele><time>2026-03-22T13:27:02.922Z</time></trkpt><trkpt lat="30.4969545318548" lon="-6.63988864769571"><ele>1309.0</ele><time>2026-03-22T13:27:03.922Z</time></trkpt><trkpt lat="30.49695258661149" lon="-6.63973391984096"><ele>1309.0</ele><time>2026-03-22T13:27:04.922Z</time></trkpt><trkpt lat="30.49694550588254" lon="-6.639583616829984"><ele>1309.0</ele><time>2026-03-22T13:27:05.922Z</time></trkpt><trkpt lat="30.49694287921052" lon="-6.639444105358459"><ele>1309.0</ele><time>2026-03-22T13:27:06.922Z</time></trkpt><trkpt lat="30.49693594253146" lon="-6.639308605571219"><ele>1309.0</ele><time>2026-03-22T13:27:07.922Z</time></trkpt><trkpt lat="30.496925563059722" lon="-6.639185554866315"><ele>1309.0</ele><time>2026-03-22T13:27:08.922Z</time></trkpt><trkpt lat="30.496922071734407" lon="-6.639052570727838"><ele>1309.0</ele><time>2026-03-22T13:27:09.922Z</time></trkpt><trkpt lat="30.4969262504169" lon="-6.6389175580587825"><ele>1309.0</ele><time>2026-03-22T13:27:10.922Z</time></trkpt><trkpt lat="30.496937058622738" lon="-6.638755972796978"><ele>1309.0</ele><time>2026-03-22T13:27:11.922Z</time></trkpt><trkpt lat="30.496938818322004" lon="-6.638574782947691"><ele>1309.75</ele><time>2026-03-22T13:27:12.922Z</time></trkpt><trkpt lat="30.496942776789382" lon="-6.638409218656444"><ele>1310.5</ele><time>2026-03-22T13:27:13.922Z</time></trkpt><trkpt lat="30.49694266226438" lon="-6.638248703761378"><ele>1311.25</ele><time>2026-03-22T13:27:14.922Z</time></trkpt><trkpt lat="30.49694088793066" lon="-6.638088000638568"><ele>1312.0</ele><time>2026-03-22T13:27:15.922Z</time></trkpt><trkpt lat="30.49693188928036" lon="-6.637929708262537"><ele>1313.25</ele><time>2026-03-22T13:27:16.922Z</time></trkpt><trkpt lat="30.496918090280523" lon="-6.637771991358145"><ele>1314.5</ele><time>2026-03-22T13:27:17.921Z</time></trkpt><trkpt lat="30.49689794077775" lon="-6.637633202018931"><ele>1315.75</ele><time>2026-03-22T13:27:18.921Z</time></trkpt><trkpt lat="30.496873080098275" lon="-6.637496173507926"><ele>1317.0</ele><time>2026-03-22T13:27:19.921Z</time></trkpt><trkpt lat="30.496840156525806" lon="-6.6373665177122145"><ele>1317.0</ele><time>2026-03-22T13:27:20.921Z</time></trkpt><trkpt lat="30.49680837286708" lon="-6.637232349467572"><ele>1317.0</ele><time>2026-03-22T13:27:21.921Z</time></trkpt><trkpt lat="30.496755654617438" lon="-6.637111528562673"><ele>1317.0</ele><time>2026-03-22T13:27:22.921Z</time></trkpt><trkpt lat="30.496700986991424" lon="-6.636971112434483"><ele>1317.0</ele><time>2026-03-22T13:27:23.921Z</time></trkpt><trkpt lat="30.496643686674474" lon="-6.636811232525725"><ele>1316.75</ele><time>2026-03-22T13:27:24.921Z</time></trkpt><trkpt lat="30.49660272478649" lon="-6.6366484373198755"><ele>1316.5</ele><time>2026-03-22T13:27:25.921Z</time></trkpt><trkpt lat="30.49657419696571" lon="-6.636503596098353"><ele>1316.25</ele><time>2026-03-22T13:27:26.921Z</time></trkpt><trkpt lat="30.496562686831528" lon="-6.636373254703828"><ele>1316.0</ele><time>2026-03-22T13:27:27.921Z</time></trkpt><trkpt lat="30.496549120895654" lon="-6.636241237637673"><ele>1316.1666666666667</ele><time>2026-03-22T13:27:28.921Z</time></trkpt><trkpt lat="30.496523484904934" lon="-6.636132417948278"><ele>1316.3333333333335</ele><time>2026-03-22T13:27:29.921Z</time></trkpt><trkpt lat="30.49650935224722" lon="-6.636039301745776"><ele>1316.5</ele><time>2026-03-22T13:27:30.921Z</time></trkpt><trkpt lat="30.49649562293843" lon="-6.6359490261144565"><ele>1316.6666666666667</ele><time>2026-03-22T13:27:31.921Z</time></trkpt><trkpt lat="30.496477197495754" lon="-6.635858499995298"><ele>1316.8333333333333</ele><time>2026-03-22T13:27:32.921Z</time></trkpt><trkpt lat="30.496452273512134" lon="-6.6357728564106715"><ele>1317.0</ele><time>2026-03-22T13:27:33.921Z</time></trkpt><trkpt lat="30.49642466108878" lon="-6.635693774023315"><ele>1317.0</ele><time>2026-03-22T13:27:34.921Z</time></trkpt><trkpt lat="30.4963952204468" lon="-6.635612616940093"><ele>1317.0</ele><time>2026-03-22T13:27:35.921Z</time></trkpt><trkpt lat="30.49636775863969" lon="-6.635532999940591"><ele>1317.0</ele><time>2026-03-22T13:27:36.921Z</time></trkpt><trkpt lat="30.496343364239124" lon="-6.635445048222003"><ele>1317.0</ele><time>2026-03-22T13:27:37.921Z</time></trkpt><trkpt lat="30.496337696177754" lon="-6.635343904181364"><ele>1317.0</ele><time>2026-03-22T13:27:38.921Z</time></trkpt><trkpt lat="30.4963297458338" lon="-6.635230051108684"><ele>1317.0</ele><time>2026-03-22T13:27:39.921Z</time></trkpt><trkpt lat="30.49631878087631" lon="-6.635114068398072"><ele>1315.75</ele><time>2026-03-22T13:27:40.921Z</time></trkpt><trkpt lat="30.496317423352785" lon="-6.634997984016003"><ele>1314.5</ele><time>2026-03-22T13:27:41.921Z</time></trkpt><trkpt lat="30.4963390652714" lon="-6.634843049430706"><ele>1313.25</ele><time>2026-03-22T13:27:42.921Z</time></trkpt><trkpt lat="30.496377053231555" lon="-6.63468269922789"><ele>1312.0</ele><time>2026-03-22T13:27:43.921Z</time></trkpt><trkpt lat="30.496413650748664" lon="-6.6345375178444534"><ele>1310.75</ele><time>2026-03-22T13:27:44.921Z</time></trkpt><trkpt lat="30.49643077057298" lon="-6.634411559771289"><ele>1309.5</ele><time>2026-03-22T13:27:45.921Z</time></trkpt><trkpt lat="30.49644873801013" lon="-6.634290646361704"><ele>1308.25</ele><time>2026-03-22T13:27:46.921Z</time></trkpt><trkpt lat="30.4964449758018" lon="-6.634161788688266"><ele>1307.0</ele><time>2026-03-22T13:27:47.921Z</time></trkpt><trkpt lat="30.496415584020646" lon="-6.6339959239196356"><ele>1307.0</ele><time>2026-03-22T13:27:48.921Z</time></trkpt><trkpt lat="30.496382449128117" lon="-6.633798156505182"><ele>1307.0</ele><time>2026-03-22T13:27:49.922Z</time></trkpt><trkpt lat="30.496338725792246" lon="-6.633594776072536"><ele>1307.0</ele><time>2026-03-22T13:27:50.921Z</time></trkpt><trkpt lat="30.49630661282326" lon="-6.633434444825384"><ele>1307.0</ele><time>2026-03-22T13:27:51.921Z</time></trkpt><trkpt lat="30.49628112759217" lon="-6.633310968277531"><ele>1307.0</ele><time>2026-03-22T13:27:52.922Z</time></trkpt><trkpt lat="30.496223966394574" lon="-6.63320059265839"><ele>1307.0</ele><time>2026-03-22T13:27:53.921Z</time></trkpt><trkpt lat="30.49614338406493" lon="-6.633084741488933"><ele>1307.0</ele><time>2026-03-22T13:27:54.921Z</time></trkpt><trkpt lat="30.496067055420045" lon="-6.632941738944223"><ele>1307.25</ele><time>2026-03-22T13:27:55.922Z</time></trkpt><trkpt lat="30.49602597224198" lon="-6.632794652640745"><ele>1307.5</ele><time>2026-03-22T13:27:56.922Z</time></trkpt><trkpt lat="30.495999487985245" lon="-6.632629285037329"><ele>1307.75</ele><time>2026-03-22T13:27:57.922Z</time></trkpt><trkpt lat="30.495970923464075" lon="-6.63244857387297"><ele>1308.0</ele><time>2026-03-22T13:27:58.922Z</time></trkpt><trkpt lat="30.49594499740472" lon="-6.632292613788971"><ele>1308.0</ele><time>2026-03-22T13:27:59.922Z</time></trkpt><trkpt lat="30.495925053064227" lon="-6.632166691015059"><ele>1308.0</ele><time>2026-03-22T13:28:00.922Z</time></trkpt><trkpt lat="30.49588630536661" lon="-6.632036967136707"><ele>1308.0</ele><time>2026-03-22T13:28:01.921Z</time></trkpt><trkpt lat="30.495850894931372" lon="-6.631898160741004"><ele>1308.0</ele><time>2026-03-22T13:28:02.921Z</time></trkpt><trkpt lat="30.495825418933787" lon="-6.631752127848115"><ele>1307.25</ele><time>2026-03-22T13:28:03.921Z</time></trkpt><trkpt lat="30.495814444261093" lon="-6.631615847993599"><ele>1306.5</ele><time>2026-03-22T13:28:04.921Z</time></trkpt><trkpt lat="30.495807048278163" lon="-6.6314608979258916"><ele>1305.75</ele><time>2026-03-22T13:28:05.921Z</time></trkpt><trkpt lat="30.495826256365643" lon="-6.63129228134534"><ele>1305.0</ele><time>2026-03-22T13:28:06.921Z</time></trkpt><trkpt lat="30.495877486251633" lon="-6.631140963728119"><ele>1305.2</ele><time>2026-03-22T13:28:07.921Z</time></trkpt><trkpt lat="30.495934285327092" lon="-6.630998964827283"><ele>1305.4</ele><time>2026-03-22T13:28:08.921Z</time></trkpt><trkpt lat="30.495972524441605" lon="-6.630880356316312"><ele>1305.6</ele><time>2026-03-22T13:28:09.921Z</time></trkpt><trkpt lat="30.496001218786322" lon="-6.630767184184498"><ele>1305.8</ele><time>2026-03-22T13:28:10.921Z</time></trkpt><trkpt lat="30.49602180567006" lon="-6.630655099017932"><ele>1306.0</ele><time>2026-03-22T13:28:11.921Z</time></trkpt><trkpt lat="30.496066095139298" lon="-6.630532461730232"><ele>1306.0</ele><time>2026-03-22T13:28:12.921Z</time></trkpt><trkpt lat="30.4961364668551" lon="-6.630406229714279"><ele>1306.0</ele><time>2026-03-22T13:28:13.921Z</time></trkpt><trkpt lat="30.49622479463658" lon="-6.630271745886371"><ele>1306.0</ele><time>2026-03-22T13:28:14.921Z</time></trkpt><trkpt lat="30.496322952226027" lon="-6.6301250520270045"><ele>1306.0</ele><time>2026-03-22T13:28:15.921Z</time></trkpt><trkpt lat="30.49640889663115" lon="-6.629961867034893"><ele>1304.25</ele><time>2026-03-22T13:28:16.921Z</time></trkpt><trkpt lat="30.49647530372264" lon="-6.629813494313032"><ele>1302.5</ele><time>2026-03-22T13:28:17.921Z</time></trkpt><trkpt lat="30.496531831150534" lon="-6.629676248948696"><ele>1300.75</ele><time>2026-03-22T13:28:18.921Z</time></trkpt><trkpt lat="30.49657989961668" lon="-6.629552022323077"><ele>1299.0</ele><time>2026-03-22T13:28:19.921Z</time></trkpt><trkpt lat="30.496613553926895" lon="-6.629431146058719"><ele>1298.8000000000002</ele><time>2026-03-22T13:28:20.921Z</time></trkpt><trkpt lat="30.49663082626613" lon="-6.6293046608570325"><ele>1298.6000000000001</ele><time>2026-03-22T13:28:21.921Z</time></trkpt><trkpt lat="30.496631747457005" lon="-6.6292025829901435"><ele>1298.4</ele><time>2026-03-22T13:28:22.921Z</time></trkpt><trkpt lat="30.496627632911135" lon="-6.629083404300154"><ele>1298.2</ele><time>2026-03-22T13:28:23.921Z</time></trkpt><trkpt lat="30.496611251933906" lon="-6.6289497913242315"><ele>1298.0</ele><time>2026-03-22T13:28:24.921Z</time></trkpt><trkpt lat="30.49660490082279" lon="-6.62882182964699"><ele>1298.0</ele><time>2026-03-22T13:28:25.921Z</time></trkpt><trkpt lat="30.496597935080104" lon="-6.628724306193696"><ele>1298.0</ele><time>2026-03-22T13:28:26.921Z</time></trkpt><trkpt lat="30.496566830796638" lon="-6.62861064099424"><ele>1298.0</ele><time>2026-03-22T13:28:27.921Z</time></trkpt><trkpt lat="30.496511237510134" lon="-6.62851417734348"><ele>1298.0</ele><time>2026-03-22T13:28:28.921Z</time></trkpt><trkpt lat="30.496421698387852" lon="-6.628417012048523"><ele>1298.0</ele><time>2026-03-22T13:28:29.921Z</time></trkpt><trkpt lat="30.496312474613937" lon="-6.628275246954075"><ele>1299.5</ele><time>2026-03-22T13:28:30.921Z</time></trkpt><trkpt lat="30.496221272096935" lon="-6.628141306015986"><ele>1301.0</ele><time>2026-03-22T13:28:31.921Z</time></trkpt><trkpt lat="30.496149996595488" lon="-6.628023114248137"><ele>1302.5</ele><time>2026-03-22T13:28:32.921Z</time></trkpt><trkpt lat="30.496075049066768" lon="-6.627915364064271"><ele>1304.0</ele><time>2026-03-22T13:28:33.921Z</time></trkpt><trkpt lat="30.495994187438228" lon="-6.627818419262553"><ele>1303.5</ele><time>2026-03-22T13:28:34.921Z</time></trkpt><trkpt lat="30.495905961396634" lon="-6.627726335965494"><ele>1303.0</ele><time>2026-03-22T13:28:35.921Z</time></trkpt><trkpt lat="30.495808439565785" lon="-6.627637329307509"><ele>1302.5</ele><time>2026-03-22T13:28:36.921Z</time></trkpt><trkpt lat="30.495724441217643" lon="-6.6275693497779615"><ele>1302.0</ele><time>2026-03-22T13:28:37.921Z</time></trkpt><trkpt lat="30.49563939948364" lon="-6.627478017827149"><ele>1302.0</ele><time>2026-03-22T13:28:38.921Z</time></trkpt><trkpt lat="30.495553273384562" lon="-6.627379075929427"><ele>1302.0</ele><time>2026-03-22T13:28:39.921Z</time></trkpt><trkpt lat="30.49546234654426" lon="-6.627288814817775"><ele>1302.0</ele><time>2026-03-22T13:28:40.921Z</time></trkpt><trkpt lat="30.4953752446184" lon="-6.627209377556761"><ele>1302.0</ele><time>2026-03-22T13:28:41.921Z</time></trkpt><trkpt lat="30.495303343113537" lon="-6.627136826161913"><ele>1302.0</ele><time>2026-03-22T13:28:42.921Z</time></trkpt><trkpt lat="30.495228617589195" lon="-6.627053263307431"><ele>1303.6</ele><time>2026-03-22T13:28:43.921Z</time></trkpt><trkpt lat="30.49516132842826" lon="-6.6269610327063715"><ele>1305.1999999999998</ele><time>2026-03-22T13:28:44.921Z</time></trkpt><trkpt lat="30.495097014897166" lon="-6.626861930647288"><ele>1306.8</ele><time>2026-03-22T13:28:45.921Z</time></trkpt><trkpt lat="30.495057418437458" lon="-6.626751792673666"><ele>1308.4</ele><time>2026-03-22T13:28:46.921Z</time></trkpt><trkpt lat="30.495014194092462" lon="-6.6266441534883676"><ele>1310.0</ele><time>2026-03-22T13:28:47.921Z</time></trkpt><trkpt lat="30.494981695951125" lon="-6.6265388047660325"><ele>1310.0</ele><time>2026-03-22T13:28:48.921Z</time></trkpt><trkpt lat="30.49494828689714" lon="-6.626437335522767"><ele>1310.0</ele><time>2026-03-22T13:28:49.921Z</time></trkpt><trkpt lat="30.49491604424132" lon="-6.626340220496173"><ele>1310.0</ele><time>2026-03-22T13:28:50.921Z</time></trkpt><trkpt lat="30.494880040940952" lon="-6.626214827922997"><ele>1310.0</ele><time>2026-03-22T13:28:51.921Z</time></trkpt><trkpt lat="30.494834575811872" lon="-6.626037775421981"><ele>1308.6666666666667</ele><time>2026-03-22T13:28:52.921Z</time></trkpt><trkpt lat="30.494783078457495" lon="-6.625836642509848"><ele>1307.3333333333333</ele><time>2026-03-22T13:28:53.921Z</time></trkpt><trkpt lat="30.494722567260713" lon="-6.625651523642217"><ele>1306.0</ele><time>2026-03-22T13:28:54.921Z</time></trkpt><trkpt lat="30.494661770714085" lon="-6.625531964864437"><ele>1306.0</ele><time>2026-03-22T13:28:55.921Z</time></trkpt><trkpt lat="30.494599303085064" lon="-6.625399486984288"><ele>1306.0</ele><time>2026-03-22T13:28:56.921Z</time></trkpt><trkpt lat="30.49454482710994" lon="-6.625264588442118"><ele>1306.0</ele><time>2026-03-22T13:28:57.921Z</time></trkpt><trkpt lat="30.494470013361404" lon="-6.625145267950954"><ele>1306.0</ele><time>2026-03-22T13:28:58.921Z</time></trkpt><trkpt lat="30.494394218738325" lon="-6.625059396740519"><ele>1304.8</ele><time>2026-03-22T13:28:59.921Z</time></trkpt><trkpt lat="30.494306734334057" lon="-6.624988075780428"><ele>1303.6</ele><time>2026-03-22T13:29:00.921Z</time></trkpt><trkpt lat="30.494203699138172" lon="-6.624917434972148"><ele>1302.4</ele><time>2026-03-22T13:29:01.921Z</time></trkpt><trkpt lat="30.49411279012413" lon="-6.624840714470045"><ele>1301.2</ele><time>2026-03-22T13:29:02.921Z</time></trkpt><trkpt lat="30.494025726182226" lon="-6.624804336059548"><ele>1300.0</ele><time>2026-03-22T13:29:03.921Z</time></trkpt><trkpt lat="30.493951330934454" lon="-6.6247909990036"><ele>1300.0</ele><time>2026-03-22T13:29:04.921Z</time></trkpt><trkpt lat="30.49385980926446" lon="-6.624806603694916"><ele>1300.0</ele><time>2026-03-22T13:29:05.921Z</time></trkpt><trkpt lat="30.493751685778378" lon="-6.624842925089236"><ele>1300.0</ele><time>2026-03-22T13:29:06.921Z</time></trkpt><trkpt lat="30.493651935348527" lon="-6.624862405081434"><ele>1300.0</ele><time>2026-03-22T13:29:07.921Z</time></trkpt><trkpt lat="30.493558011352683" lon="-6.6248567181508795"><ele>1300.0</ele><time>2026-03-22T13:29:08.921Z</time></trkpt><trkpt lat="30.493478759854657" lon="-6.624825682579934"><ele>1300.3333333333333</ele><time>2026-03-22T13:29:09.921Z</time></trkpt><trkpt lat="30.49338985312201" lon="-6.624786696597412"><ele>1300.6666666666665</ele><time>2026-03-22T13:29:10.921Z</time></trkpt><trkpt lat="30.49331807912272" lon="-6.624729746579001"><ele>1301.0</ele><time>2026-03-22T13:29:11.921Z</time></trkpt><trkpt lat="30.49326757082561" lon="-6.624668858315356"><ele>1301.3333333333333</ele><time>2026-03-22T13:29:12.921Z</time></trkpt><trkpt lat="30.493209471380567" lon="-6.624606925732928"><ele>1301.6666666666667</ele><time>2026-03-22T13:29:13.921Z</time></trkpt><trkpt lat="30.493157743814066" lon="-6.6245466926738725"><ele>1302.0</ele><time>2026-03-22T13:29:14.921Z</time></trkpt><trkpt lat="30.49307647237109" lon="-6.624474335606174"><ele>1302.0</ele><time>2026-03-22T13:29:15.921Z</time></trkpt><trkpt lat="30.492986742055276" lon="-6.624393565958627"><ele>1302.0</ele><time>2026-03-22T13:29:16.921Z</time></trkpt><trkpt lat="30.492884217118547" lon="-6.624320603382637"><ele>1302.0</ele><time>2026-03-22T13:29:17.921Z</time></trkpt><trkpt lat="30.492802388995557" lon="-6.624276717827293"><ele>1302.0</ele><time>2026-03-22T13:29:18.921Z</time></trkpt><trkpt lat="30.492732588799168" lon="-6.624231415088725"><ele>1302.0</ele><time>2026-03-22T13:29:19.921Z</time></trkpt><trkpt lat="30.492684544013468" lon="-6.624178651287318"><ele>1303.0</ele><time>2026-03-22T13:29:20.921Z</time></trkpt><trkpt lat="30.49265879696407" lon="-6.624062603841241"><ele>1304.0</ele><time>2026-03-22T13:29:22.921Z</time></trkpt><trkpt lat="30.492682530248615" lon="-6.623992385149873"><ele>1305.0</ele><time>2026-03-22T13:29:23.921Z</time></trkpt><trkpt lat="30.492718447495008" lon="-6.623901833220111"><ele>1306.0</ele><time>2026-03-22T13:29:24.921Z</time></trkpt><trkpt lat="30.492755763294035" lon="-6.62380015671372"><ele>1307.0</ele><time>2026-03-22T13:29:25.921Z</time></trkpt><trkpt lat="30.49277649394036" lon="-6.623710227021131"><ele>1308.0</ele><time>2026-03-22T13:29:26.921Z</time></trkpt><trkpt lat="30.492789555894035" lon="-6.623604389029343"><ele>1309.6000000000001</ele><time>2026-03-22T13:29:27.921Z</time></trkpt><trkpt lat="30.49277745410767" lon="-6.623496764662722"><ele>1311.2</ele><time>2026-03-22T13:29:28.921Z</time></trkpt><trkpt lat="30.492757475559216" lon="-6.623374560610657"><ele>1312.8</ele><time>2026-03-22T13:29:29.921Z</time></trkpt><trkpt lat="30.492749902560902" lon="-6.6232512531336"><ele>1314.4</ele><time>2026-03-22T13:29:30.921Z</time></trkpt><trkpt lat="30.49274880910172" lon="-6.623114636550523"><ele>1316.0</ele><time>2026-03-22T13:29:31.921Z</time></trkpt><trkpt lat="30.492744802461004" lon="-6.622968421776541"><ele>1317.0</ele><time>2026-03-22T13:29:32.921Z</time></trkpt><trkpt lat="30.492727489380943" lon="-6.622813440519974"><ele>1318.0</ele><time>2026-03-22T13:29:33.921Z</time></trkpt><trkpt lat="30.492725118307337" lon="-6.62267417764521"><ele>1319.0</ele><time>2026-03-22T13:29:34.921Z</time></trkpt><trkpt lat="30.492756926391753" lon="-6.622557218498819"><ele>1320.0</ele><time>2026-03-22T13:29:35.921Z</time></trkpt><trkpt lat="30.492809638910174" lon="-6.622475517944649"><ele>1321.0</ele><time>2026-03-22T13:29:36.921Z</time></trkpt><trkpt lat="30.492854787525477" lon="-6.622360992021265"><ele>1321.0</ele><time>2026-03-22T13:29:38.921Z</time></trkpt><trkpt lat="30.492878140097044" lon="-6.622273299435943"><ele>1321.0</ele><time>2026-03-22T13:29:40.921Z</time></trkpt><trkpt lat="30.492898105458785" lon="-6.622200926814901"><ele>1321.0</ele><time>2026-03-22T13:29:42.921Z</time></trkpt><trkpt lat="30.492930616882678" lon="-6.622123873252378"><ele>1321.0</ele><time>2026-03-22T13:29:44.921Z</time></trkpt><trkpt lat="30.492962701406654" lon="-6.622048789394774"><ele>1321.0</ele><time>2026-03-22T13:29:47.921Z</time></trkpt><trkpt lat="30.492960956834253" lon="-6.621884765062829"><ele>1321.0</ele><time>2026-03-22T13:31:49.92Z</time></trkpt><trkpt lat="30.492965647576423" lon="-6.621776026279341"><ele>1319.5</ele><time>2026-03-22T13:31:50.92Z</time></trkpt><trkpt lat="30.492974770145224" lon="-6.621656044599589"><ele>1318.0</ele><time>2026-03-22T13:31:51.92Z</time></trkpt><trkpt lat="30.492996033291274" lon="-6.621503059262495"><ele>1316.5</ele><time>2026-03-22T13:31:52.92Z</time></trkpt><trkpt lat="30.4930295542364" lon="-6.621311159990761"><ele>1315.0</ele><time>2026-03-22T13:31:53.92Z</time></trkpt><trkpt lat="30.49301257470734" lon="-6.621080775912245"><ele>1314.25</ele><time>2026-03-22T13:31:54.92Z</time></trkpt><trkpt lat="30.493043465248856" lon="-6.6208689835992525"><ele>1313.5</ele><time>2026-03-22T13:31:55.92Z</time></trkpt><trkpt lat="30.493063776413283" lon="-6.6207000933943805"><ele>1312.75</ele><time>2026-03-22T13:31:56.92Z</time></trkpt><trkpt lat="30.4930591407499" lon="-6.620577573865474"><ele>1312.0</ele><time>2026-03-22T13:31:57.92Z</time></trkpt><trkpt lat="30.49301806982476" lon="-6.620458722630505"><ele>1312.0</ele><time>2026-03-22T13:31:58.92Z</time></trkpt><trkpt lat="30.49294374795003" lon="-6.620316376283413"><ele>1312.0</ele><time>2026-03-22T13:31:59.92Z</time></trkpt><trkpt lat="30.49288950053532" lon="-6.620106716574613"><ele>1312.0</ele><time>2026-03-22T13:32:00.92Z</time></trkpt><trkpt lat="30.492777569305897" lon="-6.61993442484049"><ele>1312.0</ele><time>2026-03-22T13:32:01.921Z</time></trkpt><trkpt lat="30.49266176870417" lon="-6.619765437890737"><ele>1312.0</ele><time>2026-03-22T13:32:02.92Z</time></trkpt><trkpt lat="30.492536496243964" lon="-6.619599179082457"><ele>1312.0</ele><time>2026-03-22T13:32:03.92Z</time></trkpt><trkpt lat="30.492429174685242" lon="-6.619414832933834"><ele>1312.0</ele><time>2026-03-22T13:32:04.92Z</time></trkpt><trkpt lat="30.492327041471427" lon="-6.619226827089936"><ele>1312.0</ele><time>2026-03-22T13:32:05.92Z</time></trkpt><trkpt lat="30.492226348371346" lon="-6.619019955786464"><ele>1312.0</ele><time>2026-03-22T13:32:06.92Z</time></trkpt><trkpt lat="30.492133080821937" lon="-6.6188282572492"><ele>1309.3333333333333</ele><time>2026-03-22T13:32:07.92Z</time></trkpt><trkpt lat="30.492056261811733" lon="-6.6186525416638124"><ele>1306.6666666666667</ele><time>2026-03-22T13:32:08.92Z</time></trkpt><trkpt lat="30.492010796200123" lon="-6.61847404728528"><ele>1304.0</ele><time>2026-03-22T13:32:09.92Z</time></trkpt><trkpt lat="30.491966418153165" lon="-6.618286627279858"><ele>1304.0</ele><time>2026-03-22T13:32:10.92Z</time></trkpt><trkpt lat="30.491897688752495" lon="-6.618116429721915"><ele>1304.0</ele><time>2026-03-22T13:32:11.92Z</time></trkpt><trkpt lat="30.49182928978372" lon="-6.6179447285006185"><ele>1304.0</ele><time>2026-03-22T13:32:12.92Z</time></trkpt><trkpt lat="30.491778141744135" lon="-6.6177605346567425"><ele>1304.6666666666667</ele><time>2026-03-22T13:32:13.92Z</time></trkpt><trkpt lat="30.491720734242524" lon="-6.617562633884178"><ele>1305.3333333333333</ele><time>2026-03-22T13:32:14.92Z</time></trkpt><trkpt lat="30.491669316800138" lon="-6.617379328222815"><ele>1306.0</ele><time>2026-03-22T13:32:15.92Z</time></trkpt><trkpt lat="30.49162974428025" lon="-6.617183690571977"><ele>1305.3333333333333</ele><time>2026-03-22T13:32:16.92Z</time></trkpt><trkpt lat="30.491584590444464" lon="-6.616963041287641"><ele>1304.6666666666667</ele><time>2026-03-22T13:32:17.92Z</time></trkpt><trkpt lat="30.491545191719418" lon="-6.616745518372556"><ele>1304.0</ele><time>2026-03-22T13:32:18.92Z</time></trkpt><trkpt lat="30.491493175346204" lon="-6.6165524504610636"><ele>1304.0</ele><time>2026-03-22T13:32:19.92Z</time></trkpt><trkpt lat="30.49143530570127" lon="-6.616387730985151"><ele>1304.0</ele><time>2026-03-22T13:32:20.92Z</time></trkpt><trkpt lat="30.491365164486236" lon="-6.616235228592564"><ele>1304.0</ele><time>2026-03-22T13:32:21.92Z</time></trkpt><trkpt lat="30.49129542291966" lon="-6.616087645547757"><ele>1304.0</ele><time>2026-03-22T13:32:22.92Z</time></trkpt><trkpt lat="30.49123772323316" lon="-6.615929362446901"><ele>1300.6666666666667</ele><time>2026-03-22T13:32:23.92Z</time></trkpt><trkpt lat="30.4911815525763" lon="-6.6157495983472945"><ele>1297.3333333333333</ele><time>2026-03-22T13:32:24.92Z</time></trkpt><trkpt lat="30.49112107718956" lon="-6.615563595223926"><ele>1294.0</ele><time>2026-03-22T13:32:25.92Z</time></trkpt><trkpt lat="30.491073119784797" lon="-6.615399358925223"><ele>1293.75</ele><time>2026-03-22T13:32:26.92Z</time></trkpt><trkpt lat="30.49102987794829" lon="-6.615257585822136"><ele>1293.5</ele><time>2026-03-22T13:32:27.92Z</time></trkpt><trkpt lat="30.490979722164663" lon="-6.615120560660444"><ele>1293.25</ele><time>2026-03-22T13:32:28.92Z</time></trkpt><trkpt lat="30.490919234261884" lon="-6.614970525531093"><ele>1293.0</ele><time>2026-03-22T13:32:29.92Z</time></trkpt><trkpt lat="30.490853280906716" lon="-6.614829810342493"><ele>1293.0</ele><time>2026-03-22T13:32:30.92Z</time></trkpt><trkpt lat="30.490793563415235" lon="-6.614699527408529"><ele>1293.0</ele><time>2026-03-22T13:32:31.92Z</time></trkpt><trkpt lat="30.490735343090858" lon="-6.614562432935022"><ele>1293.0</ele><time>2026-03-22T13:32:32.92Z</time></trkpt><trkpt lat="30.490699250332536" lon="-6.614432320641619"><ele>1293.0</ele><time>2026-03-22T13:32:33.92Z</time></trkpt><trkpt lat="30.49067335986435" lon="-6.614302229776953"><ele>1291.75</ele><time>2026-03-22T13:32:34.92Z</time></trkpt><trkpt lat="30.490630394001" lon="-6.614176248163886"><ele>1290.5</ele><time>2026-03-22T13:32:35.92Z</time></trkpt><trkpt lat="30.490578766121313" lon="-6.614053669101472"><ele>1289.25</ele><time>2026-03-22T13:32:36.92Z</time></trkpt><trkpt lat="30.49052460725301" lon="-6.613930952921508"><ele>1288.0</ele><time>2026-03-22T13:32:37.92Z</time></trkpt><trkpt lat="30.49046241526198" lon="-6.613802366604752"><ele>1288.5</ele><time>2026-03-22T13:32:38.92Z</time></trkpt><trkpt lat="30.490395988145053" lon="-6.6136756339915435"><ele>1289.0</ele><time>2026-03-22T13:32:39.92Z</time></trkpt><trkpt lat="30.490320718370423" lon="-6.613545410997025"><ele>1289.5</ele><time>2026-03-22T13:32:40.92Z</time></trkpt><trkpt lat="30.490245218512644" lon="-6.613406986748194"><ele>1290.0</ele><time>2026-03-22T13:32:41.92Z</time></trkpt><trkpt lat="30.49015311276521" lon="-6.613234777140606"><ele>1291.0</ele><time>2026-03-22T13:32:42.92Z</time></trkpt><trkpt lat="30.49005972563737" lon="-6.61306138465316"><ele>1292.0</ele><time>2026-03-22T13:32:43.92Z</time></trkpt><trkpt lat="30.489988991647884" lon="-6.612879679292099"><ele>1293.0</ele><time>2026-03-22T13:32:44.92Z</time></trkpt><trkpt lat="30.48993695116559" lon="-6.61270219384684"><ele>1293.5</ele><time>2026-03-22T13:32:45.92Z</time></trkpt><trkpt lat="30.489867952948494" lon="-6.6125499762024775"><ele>1294.0</ele><time>2026-03-22T13:32:46.92Z</time></trkpt><trkpt lat="30.48980249679797" lon="-6.61241527251245"><ele>1294.5</ele><time>2026-03-22T13:32:47.92Z</time></trkpt><trkpt lat="30.489756324931186" lon="-6.612282837810229"><ele>1295.0</ele><time>2026-03-22T13:32:48.92Z</time></trkpt><trkpt lat="30.489715634889677" lon="-6.612156187823612"><ele>1295.0</ele><time>2026-03-22T13:32:49.92Z</time></trkpt><trkpt lat="30.489673130066446" lon="-6.6120302656199055"><ele>1295.0</ele><time>2026-03-22T13:32:50.92Z</time></trkpt><trkpt lat="30.489621233302337" lon="-6.611920568641069"><ele>1295.0</ele><time>2026-03-22T13:32:51.92Z</time></trkpt><trkpt lat="30.489546573768983" lon="-6.611828605619013"><ele>1295.0</ele><time>2026-03-22T13:32:52.92Z</time></trkpt><trkpt lat="30.4894765416663" lon="-6.611754972493133"><ele>1295.0</ele><time>2026-03-22T13:32:53.92Z</time></trkpt><trkpt lat="30.489397926201942" lon="-6.611672895494373"><ele>1296.75</ele><time>2026-03-22T13:32:54.92Z</time></trkpt><trkpt lat="30.489300137364058" lon="-6.611584796440688"><ele>1298.5</ele><time>2026-03-22T13:32:55.92Z</time></trkpt><trkpt lat="30.48920008435852" lon="-6.611518539666205"><ele>1300.25</ele><time>2026-03-22T13:32:56.92Z</time></trkpt><trkpt lat="30.489077898631944" lon="-6.611443041773954"><ele>1302.0</ele><time>2026-03-22T13:32:57.92Z</time></trkpt><trkpt lat="30.488979182735534" lon="-6.611344303673305"><ele>1302.0</ele><time>2026-03-22T13:32:58.92Z</time></trkpt><trkpt lat="30.4888738731896" lon="-6.611255597276215"><ele>1302.0</ele><time>2026-03-22T13:32:59.92Z</time></trkpt><trkpt lat="30.488774877442264" lon="-6.611193391433045"><ele>1302.0</ele><time>2026-03-22T13:33:00.92Z</time></trkpt><trkpt lat="30.488693759740475" lon="-6.611128029176084"><ele>1302.0</ele><time>2026-03-22T13:33:01.92Z</time></trkpt><trkpt lat="30.488612949594874" lon="-6.611041978535265"><ele>1302.0</ele><time>2026-03-22T13:33:02.92Z</time></trkpt><trkpt lat="30.488541737422615" lon="-6.610953988217036"><ele>1302.0</ele><time>2026-03-22T13:33:03.92Z</time></trkpt><trkpt lat="30.488465583124643" lon="-6.610856970950587"><ele>1302.0</ele><time>2026-03-22T13:33:04.92Z</time></trkpt><trkpt lat="30.488396641969" lon="-6.610762009570485"><ele>1302.0</ele><time>2026-03-22T13:33:05.92Z</time></trkpt><trkpt lat="30.488328684112265" lon="-6.610665663823034"><ele>1302.0</ele><time>2026-03-22T13:33:06.92Z</time></trkpt><trkpt lat="30.48825190018853" lon="-6.61057068977502"><ele>1302.0</ele><time>2026-03-22T13:33:07.92Z</time></trkpt><trkpt lat="30.488161839639382" lon="-6.610454162717328"><ele>1302.0</ele><time>2026-03-22T13:33:08.92Z</time></trkpt><trkpt lat="30.488063960283387" lon="-6.610312474063868"><ele>1302.0</ele><time>2026-03-22T13:33:09.92Z</time></trkpt><trkpt lat="30.48796454337869" lon="-6.6101588925307295"><ele>1302.0</ele><time>2026-03-22T13:33:10.92Z</time></trkpt><trkpt lat="30.48784322301153" lon="-6.610012665447202"><ele>1302.0</ele><time>2026-03-22T13:33:11.92Z</time></trkpt><trkpt lat="30.487743281879688" lon="-6.609876753114492"><ele>1302.0</ele><time>2026-03-22T13:33:12.92Z</time></trkpt><trkpt lat="30.48764959231073" lon="-6.609739320064133"><ele>1302.0</ele><time>2026-03-22T13:33:13.92Z</time></trkpt><trkpt lat="30.487575277181197" lon="-6.609603143296099"><ele>1302.0</ele><time>2026-03-22T13:33:14.92Z</time></trkpt><trkpt lat="30.48750224767597" lon="-6.609482244031096"><ele>1302.0</ele><time>2026-03-22T13:33:15.92Z</time></trkpt><trkpt lat="30.48743092928606" lon="-6.609368196276136"><ele>1302.0</ele><time>2026-03-22T13:33:16.92Z</time></trkpt><trkpt lat="30.487372170593893" lon="-6.609271784201841"><ele>1300.75</ele><time>2026-03-22T13:33:17.92Z</time></trkpt><trkpt lat="30.48731858614465" lon="-6.6091676646348505"><ele>1299.5</ele><time>2026-03-22T13:33:18.92Z</time></trkpt><trkpt lat="30.487252823885438" lon="-6.609061965188943"><ele>1298.25</ele><time>2026-03-22T13:33:19.92Z</time></trkpt><trkpt lat="30.48716529741245" lon="-6.608956130633098"><ele>1297.0</ele><time>2026-03-22T13:33:20.92Z</time></trkpt><trkpt lat="30.487078735274363" lon="-6.608834450695009"><ele>1297.0</ele><time>2026-03-22T13:33:21.92Z</time></trkpt><trkpt lat="30.486965304026242" lon="-6.608701330072519"><ele>1297.0</ele><time>2026-03-22T13:33:22.92Z</time></trkpt><trkpt lat="30.486859666790085" lon="-6.6086040595721744"><ele>1297.0</ele><time>2026-03-22T13:33:23.92Z</time></trkpt><trkpt lat="30.486775266324493" lon="-6.608511445642641"><ele>1297.0</ele><time>2026-03-22T13:33:24.92Z</time></trkpt><trkpt lat="30.48669078514983" lon="-6.608409936948998"><ele>1296.75</ele><time>2026-03-22T13:33:25.92Z</time></trkpt><trkpt lat="30.48660838384113" lon="-6.608298140996644"><ele>1296.5</ele><time>2026-03-22T13:33:26.92Z</time></trkpt><trkpt lat="30.4865270182791" lon="-6.608196492464604"><ele>1296.25</ele><time>2026-03-22T13:33:27.92Z</time></trkpt><trkpt lat="30.48644597972053" lon="-6.608104586834171"><ele>1296.0</ele><time>2026-03-22T13:33:28.92Z</time></trkpt><trkpt lat="30.48637840369003" lon="-6.608016927562445"><ele>1296.0</ele><time>2026-03-22T13:33:29.92Z</time></trkpt><trkpt lat="30.48630849481728" lon="-6.607920295485093"><ele>1296.0</ele><time>2026-03-22T13:33:30.92Z</time></trkpt><trkpt lat="30.48623616400567" lon="-6.607820067492802"><ele>1296.0</ele><time>2026-03-22T13:33:31.92Z</time></trkpt><trkpt lat="30.486178603934416" lon="-6.60771381521308"><ele>1296.0</ele><time>2026-03-22T13:33:32.92Z</time></trkpt><trkpt lat="30.486133038579766" lon="-6.6076034069671765"><ele>1296.0</ele><time>2026-03-22T13:33:33.92Z</time></trkpt><trkpt lat="30.48608004963801" lon="-6.6074959426928395"><ele>1297.25</ele><time>2026-03-22T13:33:34.92Z</time></trkpt><trkpt lat="30.486020810377383" lon="-6.60738501037725"><ele>1298.5</ele><time>2026-03-22T13:33:35.92Z</time></trkpt><trkpt lat="30.485943038329722" lon="-6.607284452041936"><ele>1299.75</ele><time>2026-03-22T13:33:36.92Z</time></trkpt><trkpt lat="30.48586638690408" lon="-6.607191242180858"><ele>1301.0</ele><time>2026-03-22T13:33:37.92Z</time></trkpt><trkpt lat="30.48574424019461" lon="-6.607156559703856"><ele>1301.0</ele><time>2026-03-22T13:33:38.92Z</time></trkpt><trkpt lat="30.48566302942244" lon="-6.607093783138238"><ele>1301.0</ele><time>2026-03-22T13:33:39.92Z</time></trkpt><trkpt lat="30.48558347452859" lon="-6.607040261351945"><ele>1301.0</ele><time>2026-03-22T13:33:40.92Z</time></trkpt><trkpt lat="30.48549533860857" lon="-6.606990475279428"><ele>1301.0</ele><time>2026-03-22T13:33:41.92Z</time></trkpt><trkpt lat="30.48541078452572" lon="-6.606962486087509"><ele>1301.0</ele><time>2026-03-22T13:33:42.92Z</time></trkpt><trkpt lat="30.48531169520772" lon="-6.606934390354438"><ele>1300.6</ele><time>2026-03-22T13:33:43.92Z</time></trkpt><trkpt lat="30.48521512850591" lon="-6.606935669746626"><ele>1300.1999999999998</ele><time>2026-03-22T13:33:44.92Z</time></trkpt><trkpt lat="30.48513338547433" lon="-6.6069183608211235"><ele>1299.8000000000002</ele><time>2026-03-22T13:33:45.92Z</time></trkpt><trkpt lat="30.48506245784968" lon="-6.606959612127197"><ele>1299.4</ele><time>2026-03-22T13:33:46.92Z</time></trkpt><trkpt lat="30.484996687614494" lon="-6.607038726843708"><ele>1299.0</ele><time>2026-03-22T13:33:47.92Z</time></trkpt><trkpt lat="30.484948203197597" lon="-6.607154512761222"><ele>1299.0</ele><time>2026-03-22T13:33:48.92Z</time></trkpt><trkpt lat="30.48488828608849" lon="-6.6072625670677505"><ele>1299.0</ele><time>2026-03-22T13:33:49.92Z</time></trkpt><trkpt lat="30.484818099552697" lon="-6.6073229136942375"><ele>1299.0</ele><time>2026-03-22T13:33:50.92Z</time></trkpt><trkpt lat="30.484713378456476" lon="-6.607380366807843"><ele>1299.0</ele><time>2026-03-22T13:33:51.92Z</time></trkpt><trkpt lat="30.484595758014283" lon="-6.6074159556191665"><ele>1299.0</ele><time>2026-03-22T13:33:52.92Z</time></trkpt><trkpt lat="30.4844781529789" lon="-6.6074412109382035"><ele>1297.6</ele><time>2026-03-22T13:33:53.92Z</time></trkpt><trkpt lat="30.484370584719944" lon="-6.607464719683432"><ele>1296.2</ele><time>2026-03-22T13:33:54.92Z</time></trkpt><trkpt lat="30.484270926679656" lon="-6.6074589904997225"><ele>1294.8</ele><time>2026-03-22T13:33:55.92Z</time></trkpt><trkpt lat="30.484179028321382" lon="-6.60740672113691"><ele>1293.3999999999999</ele><time>2026-03-22T13:33:56.92Z</time></trkpt><trkpt lat="30.484081002502823" lon="-6.607330830744866"><ele>1292.0</ele><time>2026-03-22T13:33:57.92Z</time></trkpt><trkpt lat="30.48397164060817" lon="-6.607225732543188"><ele>1292.0</ele><time>2026-03-22T13:33:58.92Z</time></trkpt><trkpt lat="30.483852881221853" lon="-6.6071155705244315"><ele>1292.0</ele><time>2026-03-22T13:33:59.92Z</time></trkpt><trkpt lat="30.48375681951657" lon="-6.607030423120429"><ele>1292.0</ele><time>2026-03-22T13:34:00.92Z</time></trkpt><trkpt lat="30.48369509362054" lon="-6.606968014712328"><ele>1292.0</ele><time>2026-03-22T13:34:01.92Z</time></trkpt><trkpt lat="30.483636175916818" lon="-6.606918051266519"><ele>1292.0</ele><time>2026-03-22T13:34:02.92Z</time></trkpt><trkpt lat="30.483540474863705" lon="-6.606898103744173"><ele>1289.1999999999998</ele><time>2026-03-22T13:34:03.92Z</time></trkpt><trkpt lat="30.483455481358394" lon="-6.6068666219990275"><ele>1286.3999999999999</ele><time>2026-03-22T13:34:04.92Z</time></trkpt><trkpt lat="30.483377084160384" lon="-6.606814328666402"><ele>1283.6</ele><time>2026-03-22T13:34:05.92Z</time></trkpt><trkpt lat="30.48329368994198" lon="-6.606747301104236"><ele>1280.8</ele><time>2026-03-22T13:34:06.92Z</time></trkpt><trkpt lat="30.483209341333126" lon="-6.606691040709633"><ele>1278.0</ele><time>2026-03-22T13:34:07.919Z</time></trkpt><trkpt lat="30.483115593075418" lon="-6.606641101052033"><ele>1278.0</ele><time>2026-03-22T13:34:08.919Z</time></trkpt><trkpt lat="30.48300745324784" lon="-6.606601870584578"><ele>1278.0</ele><time>2026-03-22T13:34:09.919Z</time></trkpt><trkpt lat="30.482905153786007" lon="-6.60655277905566"><ele>1278.0</ele><time>2026-03-22T13:34:10.919Z</time></trkpt><trkpt lat="30.482819062591446" lon="-6.606489208280738"><ele>1278.0</ele><time>2026-03-22T13:34:11.919Z</time></trkpt><trkpt lat="30.482747133075144" lon="-6.606423253074528"><ele>1278.0</ele><time>2026-03-22T13:34:12.919Z</time></trkpt><trkpt lat="30.482667994307764" lon="-6.606373600489485"><ele>1277.4</ele><time>2026-03-22T13:34:13.919Z</time></trkpt><trkpt lat="30.482588571238878" lon="-6.606352825109295"><ele>1276.8</ele><time>2026-03-22T13:34:14.919Z</time></trkpt><trkpt lat="30.48251464916026" lon="-6.606367042820562"><ele>1276.2</ele><time>2026-03-22T13:34:15.919Z</time></trkpt><trkpt lat="30.48242668110766" lon="-6.606403972940655"><ele>1275.6</ele><time>2026-03-22T13:34:16.919Z</time></trkpt><trkpt lat="30.482324801115933" lon="-6.60644924432027"><ele>1275.0</ele><time>2026-03-22T13:34:17.919Z</time></trkpt><trkpt lat="30.482214446872394" lon="-6.606497554747887"><ele>1275.0</ele><time>2026-03-22T13:34:18.919Z</time></trkpt><trkpt lat="30.482104017041404" lon="-6.606545126759395"><ele>1275.0</ele><time>2026-03-22T13:34:19.919Z</time></trkpt><trkpt lat="30.481989275617334" lon="-6.606582269315532"><ele>1275.0</ele><time>2026-03-22T13:34:20.919Z</time></trkpt><trkpt lat="30.481884909686983" lon="-6.60661655920833"><ele>1275.0</ele><time>2026-03-22T13:34:21.919Z</time></trkpt><trkpt lat="30.4817785430572" lon="-6.606654545797995"><ele>1274.4</ele><time>2026-03-22T13:34:22.919Z</time></trkpt><trkpt lat="30.481677195819223" lon="-6.60669212167047"><ele>1273.8</ele><time>2026-03-22T13:34:23.919Z</time></trkpt><trkpt lat="30.48158933244966" lon="-6.606732721901879"><ele>1273.2</ele><time>2026-03-22T13:34:24.919Z</time></trkpt><trkpt lat="30.48152021869194" lon="-6.606779307008707"><ele>1272.6</ele><time>2026-03-22T13:34:25.919Z</time></trkpt><trkpt lat="30.48145201392304" lon="-6.606850146798499"><ele>1272.0</ele><time>2026-03-22T13:34:26.919Z</time></trkpt><trkpt lat="30.481391559500075" lon="-6.6069255669238505"><ele>1272.0</ele><time>2026-03-22T13:34:27.919Z</time></trkpt><trkpt lat="30.481327854465587" lon="-6.60697600274907"><ele>1272.0</ele><time>2026-03-22T13:34:28.919Z</time></trkpt><trkpt lat="30.481223352481088" lon="-6.606946477956034"><ele>1272.0</ele><time>2026-03-22T13:34:30.919Z</time></trkpt><trkpt lat="30.481165609806247" lon="-6.606879378172163"><ele>1272.0</ele><time>2026-03-22T13:34:31.919Z</time></trkpt><trkpt lat="30.481117457952358" lon="-6.606828984743683"><ele>1272.0</ele><time>2026-03-22T13:34:32.919Z</time></trkpt><trkpt lat="30.48106584476781" lon="-6.606774091238283"><ele>1272.0</ele><time>2026-03-22T13:34:33.919Z</time></trkpt><trkpt lat="30.48098494129514" lon="-6.606708579933048"><ele>1270.25</ele><time>2026-03-22T13:34:34.919Z</time></trkpt><trkpt lat="30.480885120490818" lon="-6.606672397352085"><ele>1268.5</ele><time>2026-03-22T13:34:35.919Z</time></trkpt><trkpt lat="30.480760218254417" lon="-6.606651968260803"><ele>1266.75</ele><time>2026-03-22T13:34:36.919Z</time></trkpt><trkpt lat="30.480622096093448" lon="-6.606593931603414"><ele>1265.0</ele><time>2026-03-22T13:34:37.919Z</time></trkpt><trkpt lat="30.480506485255972" lon="-6.606542513698533"><ele>1263.0</ele><time>2026-03-22T13:34:38.919Z</time></trkpt><trkpt lat="30.480416343789855" lon="-6.606516535567453"><ele>1261.0</ele><time>2026-03-22T13:34:39.919Z</time></trkpt><trkpt lat="30.4803261278923" lon="-6.606481119505334"><ele>1259.0</ele><time>2026-03-22T13:34:40.919Z</time></trkpt><trkpt lat="30.480258563903366" lon="-6.606425474283406"><ele>1257.0</ele><time>2026-03-22T13:34:41.919Z</time></trkpt><trkpt lat="30.48019583839364" lon="-6.606358797784656"><ele>1255.0</ele><time>2026-03-22T13:34:42.919Z</time></trkpt><trkpt lat="30.480153751804263" lon="-6.606293483309517"><ele>1253.0</ele><time>2026-03-22T13:34:43.919Z</time></trkpt><trkpt lat="30.480130074919828" lon="-6.606207889300921"><ele>1253.1666666666667</ele><time>2026-03-22T13:34:44.919Z</time></trkpt><trkpt lat="30.480119601564763" lon="-6.60611304210414"><ele>1253.3333333333335</ele><time>2026-03-22T13:34:45.919Z</time></trkpt><trkpt lat="30.480139521807644" lon="-6.606034042676975"><ele>1253.5</ele><time>2026-03-22T13:34:46.919Z</time></trkpt><trkpt lat="30.48016792251106" lon="-6.6059658506106755"><ele>1253.6666666666667</ele><time>2026-03-22T13:34:47.919Z</time></trkpt><trkpt lat="30.480199749005084" lon="-6.605841300368586"><ele>1253.8333333333333</ele><time>2026-03-22T13:34:49.919Z</time></trkpt><trkpt lat="30.480180358118375" lon="-6.605729412846069"><ele>1254.0</ele><time>2026-03-22T13:34:51.919Z</time></trkpt><trkpt lat="30.480088483654793" lon="-6.605698015888667"><ele>1254.0</ele><time>2026-03-22T13:34:53.919Z</time></trkpt><trkpt lat="30.479994738936586" lon="-6.605739847392963"><ele>1254.0</ele><time>2026-03-22T13:34:55.919Z</time></trkpt><trkpt lat="30.479941932599555" lon="-6.605795141124438"><ele>1254.0</ele><time>2026-03-22T13:34:56.919Z</time></trkpt><trkpt lat="30.479852474295015" lon="-6.605817192056968"><ele>1254.0</ele><time>2026-03-22T13:34:57.919Z</time></trkpt><trkpt lat="30.479754041139437" lon="-6.605774226085583"><ele>1254.0</ele><time>2026-03-22T13:34:58.919Z</time></trkpt><trkpt lat="30.479631085511894" lon="-6.605729845709773"><ele>1252.0</ele><time>2026-03-22T13:34:59.919Z</time></trkpt><trkpt lat="30.479517280288" lon="-6.6057393870503045"><ele>1250.0</ele><time>2026-03-22T13:35:00.919Z</time></trkpt><trkpt lat="30.479442616709445" lon="-6.605789919388421"><ele>1248.0</ele><time>2026-03-22T13:35:01.919Z</time></trkpt><trkpt lat="30.479353971100178" lon="-6.605874550168649"><ele>1246.0</ele><time>2026-03-22T13:35:02.919Z</time></trkpt><trkpt lat="30.479270359608932" lon="-6.60593806473688"><ele>1244.0</ele><time>2026-03-22T13:35:03.919Z</time></trkpt><trkpt lat="30.479188590077612" lon="-6.605993236009427"><ele>1244.0</ele><time>2026-03-22T13:35:04.919Z</time></trkpt><trkpt lat="30.479112231966816" lon="-6.605981455865161"><ele>1244.0</ele><time>2026-03-22T13:35:05.919Z</time></trkpt><trkpt lat="30.479002391871866" lon="-6.6059239444212166"><ele>1244.0</ele><time>2026-03-22T13:35:06.919Z</time></trkpt><trkpt lat="30.478897598807084" lon="-6.605822973811725"><ele>1244.0</ele><time>2026-03-22T13:35:07.919Z</time></trkpt><trkpt lat="30.478817426211194" lon="-6.605719740948516"><ele>1242.6000000000001</ele><time>2026-03-22T13:35:08.919Z</time></trkpt><trkpt lat="30.47875468430697" lon="-6.605644916751107"><ele>1241.2</ele><time>2026-03-22T13:35:09.919Z</time></trkpt><trkpt lat="30.4786931172678" lon="-6.605569561551073"><ele>1239.8000000000002</ele><time>2026-03-22T13:35:10.919Z</time></trkpt><trkpt lat="30.478624197386456" lon="-6.605498167819538"><ele>1238.4</ele><time>2026-03-22T13:35:11.919Z</time></trkpt><trkpt lat="30.478552752365196" lon="-6.6054280205562454"><ele>1237.0</ele><time>2026-03-22T13:35:12.919Z</time></trkpt><trkpt lat="30.478480414956678" lon="-6.605356012135279"><ele>1236.8</ele><time>2026-03-22T13:35:13.919Z</time></trkpt><trkpt lat="30.478406733864606" lon="-6.605275932923915"><ele>1236.6</ele><time>2026-03-22T13:35:14.919Z</time></trkpt><trkpt lat="30.478343294447413" lon="-6.605183721840581"><ele>1236.3999999999999</ele><time>2026-03-22T13:35:15.919Z</time></trkpt><trkpt lat="30.478293646633464" lon="-6.605092564045825"><ele>1236.2</ele><time>2026-03-22T13:35:16.919Z</time></trkpt><trkpt lat="30.478255715246917" lon="-6.605011940504548"><ele>1236.0</ele><time>2026-03-22T13:35:17.919Z</time></trkpt><trkpt lat="30.478222673788675" lon="-6.604932318692985"><ele>1236.0</ele><time>2026-03-22T13:35:18.919Z</time></trkpt><trkpt lat="30.478201691083775" lon="-6.604847857831517"><ele>1236.0</ele><time>2026-03-22T13:35:19.919Z</time></trkpt><trkpt lat="30.47817979983265" lon="-6.60476127137339"><ele>1236.0</ele><time>2026-03-22T13:35:20.919Z</time></trkpt><trkpt lat="30.478144899819835" lon="-6.6046892564160435"><ele>1236.0</ele><time>2026-03-22T13:35:21.919Z</time></trkpt><trkpt lat="30.478087275140187" lon="-6.604613738313351"><ele>1236.0</ele><time>2026-03-22T13:35:22.919Z</time></trkpt><trkpt lat="30.478027304285675" lon="-6.60454705217369"><ele>1236.0</ele><time>2026-03-22T13:35:23.919Z</time></trkpt><trkpt lat="30.477979805330488" lon="-6.604463549253789"><ele>1236.8</ele><time>2026-03-22T13:35:24.919Z</time></trkpt><trkpt lat="30.477937073846306" lon="-6.604360049256575"><ele>1237.6</ele><time>2026-03-22T13:35:25.919Z</time></trkpt><trkpt lat="30.477887758714218" lon="-6.604260745918168"><ele>1238.4</ele><time>2026-03-22T13:35:26.919Z</time></trkpt><trkpt lat="30.47782858113754" lon="-6.604172996173728"><ele>1239.2</ele><time>2026-03-22T13:35:27.919Z</time></trkpt><trkpt lat="30.4777548592016" lon="-6.6040831957169095"><ele>1240.0</ele><time>2026-03-22T13:35:28.919Z</time></trkpt><trkpt lat="30.477660898011155" lon="-6.603991803822577"><ele>1240.0</ele><time>2026-03-22T13:35:29.919Z</time></trkpt><trkpt lat="30.47755095259276" lon="-6.603903992076996"><ele>1240.0</ele><time>2026-03-22T13:35:30.919Z</time></trkpt><trkpt lat="30.47745426464957" lon="-6.603835647950099"><ele>1240.0</ele><time>2026-03-22T13:35:31.919Z</time></trkpt><trkpt lat="30.477356368456384" lon="-6.603773417228609"><ele>1240.0</ele><time>2026-03-22T13:35:32.919Z</time></trkpt><trkpt lat="30.477257428107283" lon="-6.603702891146364"><ele>1240.75</ele><time>2026-03-22T13:35:33.919Z</time></trkpt><trkpt lat="30.477164982134415" lon="-6.603634746856526"><ele>1241.5</ele><time>2026-03-22T13:35:34.919Z</time></trkpt><trkpt lat="30.477066571781254" lon="-6.603570361538363"><ele>1242.25</ele><time>2026-03-22T13:35:35.919Z</time></trkpt><trkpt lat="30.476957030229535" lon="-6.603509797125179"><ele>1243.0</ele><time>2026-03-22T13:35:36.919Z</time></trkpt><trkpt lat="30.476854245017517" lon="-6.603450396344279"><ele>1243.0</ele><time>2026-03-22T13:35:37.919Z</time></trkpt><trkpt lat="30.476763289211913" lon="-6.603396096995036"><ele>1243.0</ele><time>2026-03-22T13:35:38.919Z</time></trkpt><trkpt lat="30.476686312062373" lon="-6.603339367875908"><ele>1243.0</ele><time>2026-03-22T13:35:39.919Z</time></trkpt><trkpt lat="30.476612256126664" lon="-6.603278139726472"><ele>1243.0</ele><time>2026-03-22T13:35:40.919Z</time></trkpt><trkpt lat="30.47653201723906" lon="-6.603209731636455"><ele>1243.0</ele><time>2026-03-22T13:35:41.919Z</time></trkpt><trkpt lat="30.476442525679" lon="-6.603142271881056"><ele>1243.0</ele><time>2026-03-22T13:35:42.919Z</time></trkpt><trkpt lat="30.476349950219696" lon="-6.603081801543512"><ele>1243.0</ele><time>2026-03-22T13:35:43.919Z</time></trkpt><trkpt lat="30.47627190523015" lon="-6.603026964657968"><ele>1243.0</ele><time>2026-03-22T13:35:44.919Z</time></trkpt><trkpt lat="30.476205905162587" lon="-6.602983498605321"><ele>1243.0</ele><time>2026-03-22T13:35:45.919Z</time></trkpt><trkpt lat="30.476132973503642" lon="-6.602933855404731"><ele>1243.0</ele><time>2026-03-22T13:35:46.919Z</time></trkpt><trkpt lat="30.47605861769882" lon="-6.602879720404659"><ele>1243.0</ele><time>2026-03-22T13:35:47.919Z</time></trkpt><trkpt lat="30.47598957720443" lon="-6.602834947585041"><ele>1244.3333333333333</ele><time>2026-03-22T13:35:48.919Z</time></trkpt><trkpt lat="30.475928364200932" lon="-6.602797105001221"><ele>1245.6666666666665</ele><time>2026-03-22T13:35:49.919Z</time></trkpt><trkpt lat="30.47585403613518" lon="-6.6027614651698965"><ele>1247.0</ele><time>2026-03-22T13:35:50.919Z</time></trkpt><trkpt lat="30.475779922502774" lon="-6.602721310950541"><ele>1248.3333333333333</ele><time>2026-03-22T13:35:51.919Z</time></trkpt><trkpt lat="30.47569439410364" lon="-6.602684622510149"><ele>1249.6666666666667</ele><time>2026-03-22T13:35:52.919Z</time></trkpt><trkpt lat="30.47560838333153" lon="-6.602662754680894"><ele>1251.0</ele><time>2026-03-22T13:35:53.919Z</time></trkpt><trkpt lat="30.475523384203736" lon="-6.602625046264451"><ele>1251.0</ele><time>2026-03-22T13:35:54.919Z</time></trkpt><trkpt lat="30.475439577270965" lon="-6.602568685577626"><ele>1251.0</ele><time>2026-03-22T13:35:55.919Z</time></trkpt><trkpt lat="30.475365546505632" lon="-6.602499328354515"><ele>1251.0</ele><time>2026-03-22T13:35:56.919Z</time></trkpt><trkpt lat="30.47527153247588" lon="-6.602427294994642"><ele>1251.0</ele><time>2026-03-22T13:35:57.919Z</time></trkpt><trkpt lat="30.47518249968067" lon="-6.602361324863985"><ele>1251.0</ele><time>2026-03-22T13:35:58.919Z</time></trkpt><trkpt lat="30.475081803266097" lon="-6.60227217219688"><ele>1250.25</ele><time>2026-03-22T13:35:59.919Z</time></trkpt><trkpt lat="30.474974564038384" lon="-6.6021544610999285"><ele>1249.5</ele><time>2026-03-22T13:36:00.919Z</time></trkpt><trkpt lat="30.474872703356013" lon="-6.602022803675374"><ele>1248.75</ele><time>2026-03-22T13:36:01.919Z</time></trkpt><trkpt lat="30.47477307522782" lon="-6.601902458681932"><ele>1248.0</ele><time>2026-03-22T13:36:02.919Z</time></trkpt><trkpt lat="30.474692337241304" lon="-6.601807465185876"><ele>1248.0</ele><time>2026-03-22T13:36:03.919Z</time></trkpt><trkpt lat="30.474632810376754" lon="-6.601722101334419"><ele>1248.0</ele><time>2026-03-22T13:36:04.919Z</time></trkpt><trkpt lat="30.474582730055644" lon="-6.601647451242283"><ele>1248.0</ele><time>2026-03-22T13:36:05.919Z</time></trkpt><trkpt lat="30.474544534595644" lon="-6.601566555184226"><ele>1248.0</ele><time>2026-03-22T13:36:06.919Z</time></trkpt><trkpt lat="30.474505662881032" lon="-6.601499302247283"><ele>1248.0</ele><time>2026-03-22T13:36:07.919Z</time></trkpt><trkpt lat="30.474458095101156" lon="-6.601442112944921"><ele>1248.0</ele><time>2026-03-22T13:36:08.919Z</time></trkpt><trkpt lat="30.4744018180956" lon="-6.601395979754546"><ele>1250.6666666666667</ele><time>2026-03-22T13:36:09.919Z</time></trkpt><trkpt lat="30.474343576346723" lon="-6.601362841471372"><ele>1253.3333333333333</ele><time>2026-03-22T13:36:10.919Z</time></trkpt><trkpt lat="30.47427536534404" lon="-6.601335640873124"><ele>1256.0</ele><time>2026-03-22T13:36:11.919Z</time></trkpt><trkpt lat="30.474194709175855" lon="-6.6013157458436424"><ele>1258.6666666666665</ele><time>2026-03-22T13:36:12.919Z</time></trkpt><trkpt lat="30.4741113498275" lon="-6.60131096567448"><ele>1261.3333333333333</ele><time>2026-03-22T13:36:13.918Z</time></trkpt><trkpt lat="30.474019719313045" lon="-6.601333294246411"><ele>1264.0</ele><time>2026-03-22T13:36:14.918Z</time></trkpt><trkpt lat="30.473916163386036" lon="-6.60137635397287"><ele>1264.0</ele><time>2026-03-22T13:36:15.918Z</time></trkpt><trkpt lat="30.473809226868937" lon="-6.601420323709504"><ele>1264.0</ele><time>2026-03-22T13:36:16.918Z</time></trkpt><trkpt lat="30.473706525180546" lon="-6.601472080027341"><ele>1264.0</ele><time>2026-03-22T13:36:17.918Z</time></trkpt><trkpt lat="30.473620660620934" lon="-6.601529904316691"><ele>1264.0</ele><time>2026-03-22T13:36:18.918Z</time></trkpt><trkpt lat="30.47356710616796" lon="-6.601593214400296"><ele>1264.0</ele><time>2026-03-22T13:36:19.918Z</time></trkpt><trkpt lat="30.473502737990426" lon="-6.601684003441116"><ele>1264.0</ele><time>2026-03-22T13:36:20.919Z</time></trkpt><trkpt lat="30.473448388895907" lon="-6.601764668207601"><ele>1264.0</ele><time>2026-03-22T13:36:21.919Z</time></trkpt><trkpt lat="30.473408197730762" lon="-6.601850043324358"><ele>1264.0</ele><time>2026-03-22T13:36:22.918Z</time></trkpt><trkpt lat="30.473361198276596" lon="-6.601948996563205"><ele>1264.0</ele><time>2026-03-22T13:36:23.919Z</time></trkpt><trkpt lat="30.47331143673693" lon="-6.602054200112631"><ele>1264.0</ele><time>2026-03-22T13:36:24.919Z</time></trkpt><trkpt lat="30.47326651731302" lon="-6.602144673464526"><ele>1266.2</ele><time>2026-03-22T13:36:25.918Z</time></trkpt><trkpt lat="30.47322001443894" lon="-6.6022450886868205"><ele>1268.4</ele><time>2026-03-22T13:36:26.918Z</time></trkpt><trkpt lat="30.47315978967882" lon="-6.602342533749951"><ele>1270.6</ele><time>2026-03-22T13:36:27.918Z</time></trkpt><trkpt lat="30.473086629316814" lon="-6.602417836725894"><ele>1272.8</ele><time>2026-03-22T13:36:28.918Z</time></trkpt><trkpt lat="30.473015815023594" lon="-6.6024935436863945"><ele>1275.0</ele><time>2026-03-22T13:36:29.918Z</time></trkpt><trkpt lat="30.472933020205968" lon="-6.602564036271674"><ele>1275.0</ele><time>2026-03-22T13:36:30.918Z</time></trkpt><trkpt lat="30.472860080535213" lon="-6.6026417089491805"><ele>1275.0</ele><time>2026-03-22T13:36:31.918Z</time></trkpt><trkpt lat="30.472794015388832" lon="-6.602728435321594"><ele>1275.0</ele><time>2026-03-22T13:36:32.918Z</time></trkpt><trkpt lat="30.472738195727093" lon="-6.602819340751745"><ele>1275.0</ele><time>2026-03-22T13:36:33.918Z</time></trkpt><trkpt lat="30.472660118482235" lon="-6.602894818681926"><ele>1275.0</ele><time>2026-03-22T13:36:34.918Z</time></trkpt><trkpt lat="30.472584076889333" lon="-6.602965686229817"><ele>1277.6</ele><time>2026-03-22T13:36:35.918Z</time></trkpt><trkpt lat="30.472506154187563" lon="-6.603021690281118"><ele>1280.2</ele><time>2026-03-22T13:36:36.918Z</time></trkpt><trkpt lat="30.47244618658368" lon="-6.603149315537071"><ele>1282.8000000000002</ele><time>2026-03-22T13:36:38.918Z</time></trkpt><trkpt lat="30.472436451843073" lon="-6.603258384093843"><ele>1285.4</ele><time>2026-03-22T13:36:39.918Z</time></trkpt><trkpt lat="30.47241650408589" lon="-6.603371141754934"><ele>1288.0</ele><time>2026-03-22T13:36:40.918Z</time></trkpt><trkpt lat="30.472367036340078" lon="-6.60348585353155"><ele>1288.0</ele><time>2026-03-22T13:36:41.918Z</time></trkpt><trkpt lat="30.472312804709297" lon="-6.60359193791739"><ele>1288.0</ele><time>2026-03-22T13:36:42.918Z</time></trkpt><trkpt lat="30.47226686207079" lon="-6.60364301681348"><ele>1288.0</ele><time>2026-03-22T13:36:43.918Z</time></trkpt><trkpt lat="30.472157078825028" lon="-6.603623145338907"><ele>1288.0</ele><time>2026-03-22T13:36:45.918Z</time></trkpt><trkpt lat="30.472107256585318" lon="-6.60352513500264"><ele>1288.0</ele><time>2026-03-22T13:36:46.918Z</time></trkpt><trkpt lat="30.472073623173237" lon="-6.603397278586639"><ele>1289.75</ele><time>2026-03-22T13:36:47.918Z</time></trkpt><trkpt lat="30.472023775925287" lon="-6.603252721967353"><ele>1291.5</ele><time>2026-03-22T13:36:48.918Z</time></trkpt><trkpt lat="30.47196851513753" lon="-6.603115213409612"><ele>1293.25</ele><time>2026-03-22T13:36:49.918Z</time></trkpt><trkpt lat="30.47190893351222" lon="-6.6029414434143705"><ele>1295.0</ele><time>2026-03-22T13:36:50.918Z</time></trkpt><trkpt lat="30.471841717935817" lon="-6.602764396813065"><ele>1295.0</ele><time>2026-03-22T13:36:51.918Z</time></trkpt><trkpt lat="30.47176833289324" lon="-6.602557050122133"><ele>1295.0</ele><time>2026-03-22T13:36:52.918Z</time></trkpt><trkpt lat="30.47170983439664" lon="-6.602357561013718"><ele>1295.0</ele><time>2026-03-22T13:36:53.918Z</time></trkpt><trkpt lat="30.471684055988487" lon="-6.602208177249965"><ele>1295.0</ele><time>2026-03-22T13:36:54.918Z</time></trkpt><trkpt lat="30.471670075163843" lon="-6.602083411540115"><ele>1295.0</ele><time>2026-03-22T13:36:55.918Z</time></trkpt><trkpt lat="30.471667305795755" lon="-6.601957378860606"><ele>1295.0</ele><time>2026-03-22T13:36:56.918Z</time></trkpt><trkpt lat="30.47167030329188" lon="-6.601841092410889"><ele>1295.0</ele><time>2026-03-22T13:36:57.918Z</time></trkpt><trkpt lat="30.471700374156292" lon="-6.601719775233972"><ele>1295.0</ele><time>2026-03-22T13:36:58.918Z</time></trkpt><trkpt lat="30.471749090686007" lon="-6.601583697825037"><ele>1294.6666666666667</ele><time>2026-03-22T13:36:59.918Z</time></trkpt><trkpt lat="30.471808312336233" lon="-6.6013988924601765"><ele>1294.3333333333333</ele><time>2026-03-22T13:37:00.918Z</time></trkpt><trkpt lat="30.4718740372332" lon="-6.601233377540537"><ele>1294.0</ele><time>2026-03-22T13:37:01.918Z</time></trkpt><trkpt lat="30.471908315930882" lon="-6.601081756391949"><ele>1293.75</ele><time>2026-03-22T13:37:02.918Z</time></trkpt><trkpt lat="30.47190834316105" lon="-6.600951363253069"><ele>1293.5</ele><time>2026-03-22T13:37:03.918Z</time></trkpt><trkpt lat="30.471874000963936" lon="-6.600827421545453"><ele>1293.25</ele><time>2026-03-22T13:37:04.918Z</time></trkpt><trkpt lat="30.471838242553265" lon="-6.600678977671099"><ele>1293.0</ele><time>2026-03-22T13:37:05.918Z</time></trkpt><trkpt lat="30.471814982064224" lon="-6.600528430979819"><ele>1293.0</ele><time>2026-03-22T13:37:06.918Z</time></trkpt><trkpt lat="30.471803769019044" lon="-6.600413867316161"><ele>1293.0</ele><time>2026-03-22T13:37:07.918Z</time></trkpt><trkpt lat="30.471804913958287" lon="-6.600307837937932"><ele>1293.0</ele><time>2026-03-22T13:37:08.918Z</time></trkpt><trkpt lat="30.47179703526136" lon="-6.600196922755945"><ele>1293.0</ele><time>2026-03-22T13:37:09.918Z</time></trkpt><trkpt lat="30.471760897265913" lon="-6.6000784888400075"><ele>1293.0</ele><time>2026-03-22T13:37:10.918Z</time></trkpt><trkpt lat="30.47170712840433" lon="-6.59996384944936"><ele>1294.6666666666667</ele><time>2026-03-22T13:37:11.918Z</time></trkpt><trkpt lat="30.47163726915753" lon="-6.599866984829755"><ele>1296.3333333333333</ele><time>2026-03-22T13:37:12.918Z</time></trkpt><trkpt lat="30.47157506341322" lon="-6.599797954374591"><ele>1298.0</ele><time>2026-03-22T13:37:13.918Z</time></trkpt><trkpt lat="30.4715095652483" lon="-6.599733686905145"><ele>1299.6666666666665</ele><time>2026-03-22T13:37:14.918Z</time></trkpt><trkpt lat="30.471481752825063" lon="-6.599666903302186"><ele>1301.3333333333333</ele><time>2026-03-22T13:37:15.918Z</time></trkpt><trkpt lat="30.47146740923072" lon="-6.599580649654951"><ele>1303.0</ele><time>2026-03-22T13:37:16.918Z</time></trkpt><trkpt lat="30.47147059174396" lon="-6.599486243520388"><ele>1303.4</ele><time>2026-03-22T13:37:17.918Z</time></trkpt><trkpt lat="30.471489960812484" lon="-6.599386528622922"><ele>1303.8000000000002</ele><time>2026-03-22T13:37:18.918Z</time></trkpt><trkpt lat="30.471517180652707" lon="-6.599281913732744"><ele>1304.2</ele><time>2026-03-22T13:37:19.918Z</time></trkpt><trkpt lat="30.471560828103364" lon="-6.599151154420273"><ele>1304.6</ele><time>2026-03-22T13:37:20.918Z</time></trkpt><trkpt lat="30.47160610191913" lon="-6.598995308949482"><ele>1305.0</ele><time>2026-03-22T13:37:21.918Z</time></trkpt><trkpt lat="30.471654807901945" lon="-6.598846828229696"><ele>1305.0</ele><time>2026-03-22T13:37:22.918Z</time></trkpt><trkpt lat="30.471687355520302" lon="-6.598714639243189"><ele>1305.0</ele><time>2026-03-22T13:37:23.918Z</time></trkpt><trkpt lat="30.471672697609264" lon="-6.598609428858653"><ele>1305.0</ele><time>2026-03-22T13:37:24.918Z</time></trkpt><trkpt lat="30.471645187978737" lon="-6.598522891397086"><ele>1305.0</ele><time>2026-03-22T13:37:25.918Z</time></trkpt><trkpt lat="30.471599518284897" lon="-6.598437962175326"><ele>1305.0</ele><time>2026-03-22T13:37:26.918Z</time></trkpt><trkpt lat="30.471556996191488" lon="-6.598357644468843"><ele>1305.5</ele><time>2026-03-22T13:37:27.918Z</time></trkpt><trkpt lat="30.471482453793108" lon="-6.598287102569088"><ele>1306.0</ele><time>2026-03-22T13:37:28.918Z</time></trkpt><trkpt lat="30.47137612363556" lon="-6.598193971533586"><ele>1306.5</ele><time>2026-03-22T13:37:29.918Z</time></trkpt><trkpt lat="30.47128026793954" lon="-6.598132566218983"><ele>1307.0</ele><time>2026-03-22T13:37:30.918Z</time></trkpt><trkpt lat="30.471177251354373" lon="-6.598083419698362"><ele>1302.8</ele><time>2026-03-22T13:37:31.918Z</time></trkpt><trkpt lat="30.47107412576208" lon="-6.598044163239945"><ele>1298.6</ele><time>2026-03-22T13:37:32.918Z</time></trkpt><trkpt lat="30.470977119012428" lon="-6.5980117742189535"><ele>1294.3999999999999</ele><time>2026-03-22T13:37:33.918Z</time></trkpt><trkpt lat="30.470883055062913" lon="-6.5979834344966735"><ele>1290.1999999999998</ele><time>2026-03-22T13:37:34.918Z</time></trkpt><trkpt lat="30.470784984069205" lon="-6.597952633349885"><ele>1286.0</ele><time>2026-03-22T13:37:35.918Z</time></trkpt><trkpt lat="30.470681519905295" lon="-6.597918496837027"><ele>1286.0</ele><time>2026-03-22T13:37:36.918Z</time></trkpt><trkpt lat="30.47057557934018" lon="-6.59787534964647"><ele>1286.0</ele><time>2026-03-22T13:37:37.918Z</time></trkpt><trkpt lat="30.470483840036007" lon="-6.597851178609419"><ele>1286.0</ele><time>2026-03-22T13:37:38.918Z</time></trkpt><trkpt lat="30.470395897110507" lon="-6.597827175198034"><ele>1286.0</ele><time>2026-03-22T13:37:39.918Z</time></trkpt><trkpt lat="30.470312024601533" lon="-6.597793290729391"><ele>1286.0</ele><time>2026-03-22T13:37:40.918Z</time></trkpt><trkpt lat="30.470242151767625" lon="-6.59773892731495"><ele>1287.3333333333335</ele><time>2026-03-22T13:37:41.918Z</time></trkpt><trkpt lat="30.47017769028355" lon="-6.5976797571798524"><ele>1288.6666666666667</ele><time>2026-03-22T13:37:42.918Z</time></trkpt><trkpt lat="30.47011526762833" lon="-6.597631181242361"><ele>1290.0</ele><time>2026-03-22T13:37:43.918Z</time></trkpt><trkpt lat="30.470052572902944" lon="-6.597580352976601"><ele>1291.3333333333333</ele><time>2026-03-22T13:37:44.918Z</time></trkpt><trkpt lat="30.469978518136514" lon="-6.597525018309274"><ele>1292.6666666666665</ele><time>2026-03-22T13:37:45.918Z</time></trkpt><trkpt lat="30.469904162458192" lon="-6.597479324769773"><ele>1294.0</ele><time>2026-03-22T13:37:46.918Z</time></trkpt><trkpt lat="30.46982579921772" lon="-6.597438544866079"><ele>1294.0</ele><time>2026-03-22T13:37:47.918Z</time></trkpt><trkpt lat="30.469743503665192" lon="-6.597394047815338"><ele>1294.0</ele><time>2026-03-22T13:37:48.918Z</time></trkpt><trkpt lat="30.469637582586408" lon="-6.597335428749457"><ele>1294.0</ele><time>2026-03-22T13:37:49.918Z</time></trkpt><trkpt lat="30.4695482522942" lon="-6.597278386011713"><ele>1294.0</ele><time>2026-03-22T13:37:50.918Z</time></trkpt><trkpt lat="30.469477581682487" lon="-6.59721932356223"><ele>1294.0</ele><time>2026-03-22T13:37:51.918Z</time></trkpt><trkpt lat="30.469421394582746" lon="-6.597152519617849"><ele>1293.4</ele><time>2026-03-22T13:37:52.918Z</time></trkpt><trkpt lat="30.46939831873486" lon="-6.597073930876862"><ele>1292.8000000000002</ele><time>2026-03-22T13:37:53.918Z</time></trkpt><trkpt lat="30.46941963687918" lon="-6.596985030134167"><ele>1292.1999999999998</ele><time>2026-03-22T13:37:54.918Z</time></trkpt><trkpt lat="30.46946851965462" lon="-6.596852873221246"><ele>1291.6</ele><time>2026-03-22T13:37:55.918Z</time></trkpt><trkpt lat="30.4695327839366" lon="-6.596705364753819"><ele>1291.0</ele><time>2026-03-22T13:37:56.918Z</time></trkpt><trkpt lat="30.469594934179245" lon="-6.596537466925916"><ele>1290.4</ele><time>2026-03-22T13:37:57.918Z</time></trkpt><trkpt lat="30.46963549777715" lon="-6.596391109757929"><ele>1289.8</ele><time>2026-03-22T13:37:58.918Z</time></trkpt><trkpt lat="30.469658692719833" lon="-6.59625682319455"><ele>1289.2</ele><time>2026-03-22T13:37:59.918Z</time></trkpt><trkpt lat="30.46967622121377" lon="-6.596139814899758"><ele>1288.6000000000001</ele><time>2026-03-22T13:38:00.918Z</time></trkpt><trkpt lat="30.469697090178403" lon="-6.596033881606714"><ele>1288.0</ele><time>2026-03-22T13:38:01.918Z</time></trkpt><trkpt lat="30.469729037854844" lon="-6.595923056987384"><ele>1288.0</ele><time>2026-03-22T13:38:02.918Z</time></trkpt><trkpt lat="30.469756214594426" lon="-6.595835120469955"><ele>1288.0</ele><time>2026-03-22T13:38:03.918Z</time></trkpt><trkpt lat="30.469779943435853" lon="-6.595745432337704"><ele>1288.0</ele><time>2026-03-22T13:38:04.918Z</time></trkpt><trkpt lat="30.469720270923858" lon="-6.5956268893421335"><ele>1288.0</ele><time>2026-03-22T13:38:06.918Z</time></trkpt><trkpt lat="30.469649118467842" lon="-6.595595233833085"><ele>1288.0</ele><time>2026-03-22T13:38:07.918Z</time></trkpt><trkpt lat="30.46953508629177" lon="-6.595564240741473"><ele>1284.2</ele><time>2026-03-22T13:38:08.918Z</time></trkpt><trkpt lat="30.46941557085497" lon="-6.5954997656356955"><ele>1280.4</ele><time>2026-03-22T13:38:09.918Z</time></trkpt><trkpt lat="30.46933585371834" lon="-6.595400832463725"><ele>1276.6000000000001</ele><time>2026-03-22T13:38:10.918Z</time></trkpt><trkpt lat="30.46927424477118" lon="-6.595303331536928"><ele>1272.8000000000002</ele><time>2026-03-22T13:38:11.918Z</time></trkpt><trkpt lat="30.469227810207272" lon="-6.595217972249283"><ele>1269.0</ele><time>2026-03-22T13:38:12.918Z</time></trkpt><trkpt lat="30.46922058751297" lon="-6.595141327679027"><ele>1268.4</ele><time>2026-03-22T13:38:13.918Z</time></trkpt><trkpt lat="30.469239291416127" lon="-6.595041065243467"><ele>1267.8000000000002</ele><time>2026-03-22T13:38:14.918Z</time></trkpt><trkpt lat="30.4692788739109" lon="-6.594938842126412"><ele>1267.1999999999998</ele><time>2026-03-22T13:38:15.918Z</time></trkpt><trkpt lat="30.469317281713728" lon="-6.594819049016241"><ele>1266.6</ele><time>2026-03-22T13:38:16.918Z</time></trkpt><trkpt lat="30.469314707436183" lon="-6.5947098428885775"><ele>1266.0</ele><time>2026-03-22T13:38:17.918Z</time></trkpt><trkpt lat="30.469269421520462" lon="-6.594635110561656"><ele>1266.0</ele><time>2026-03-22T13:38:18.918Z</time></trkpt><trkpt lat="30.469204896913592" lon="-6.594571086850473"><ele>1266.0</ele><time>2026-03-22T13:38:19.918Z</time></trkpt><trkpt lat="30.46909515268224" lon="-6.594492396791386"><ele>1266.0</ele><time>2026-03-22T13:38:20.918Z</time></trkpt><trkpt lat="30.46896425873342" lon="-6.594383940313765"><ele>1266.0</ele><time>2026-03-22T13:38:21.918Z</time></trkpt><trkpt lat="30.46884801829682" lon="-6.59428276049605"><ele>1263.0</ele><time>2026-03-22T13:38:22.918Z</time></trkpt><trkpt lat="30.468746750511873" lon="-6.594222162815451"><ele>1260.0</ele><time>2026-03-22T13:38:23.918Z</time></trkpt><trkpt lat="30.46867330021408" lon="-6.594160012320341"><ele>1257.0</ele><time>2026-03-22T13:38:24.918Z</time></trkpt><trkpt lat="30.468589708220332" lon="-6.594127175614571"><ele>1254.0</ele><time>2026-03-22T13:38:25.918Z</time></trkpt><trkpt lat="30.46852483478981" lon="-6.594086778526625"><ele>1251.0</ele><time>2026-03-22T13:38:26.917Z</time></trkpt><trkpt lat="30.468465412592398" lon="-6.594035661017578"><ele>1248.0</ele><time>2026-03-22T13:38:27.917Z</time></trkpt><trkpt lat="30.46843261974894" lon="-6.593956208434224"><ele>1248.0</ele><time>2026-03-22T13:38:28.918Z</time></trkpt><trkpt lat="30.468423246032348" lon="-6.593880350119839"><ele>1248.0</ele><time>2026-03-22T13:38:29.917Z</time></trkpt><trkpt lat="30.468453821684854" lon="-6.593750601202964"><ele>1248.0</ele><time>2026-03-22T13:38:31.918Z</time></trkpt><trkpt lat="30.468417683031326" lon="-6.593645638179731"><ele>1248.0</ele><time>2026-03-22T13:38:33.917Z</time></trkpt><trkpt lat="30.46830179659989" lon="-6.593574485781847"><ele>1248.0</ele><time>2026-03-22T13:38:35.917Z</time></trkpt><trkpt lat="30.468227111583882" lon="-6.593557790784709"><ele>1249.1666666666667</ele><time>2026-03-22T13:38:36.917Z</time></trkpt><trkpt lat="30.46816398902031" lon="-6.593553645510823"><ele>1250.3333333333333</ele><time>2026-03-22T13:38:37.917Z</time></trkpt><trkpt lat="30.468086417110932" lon="-6.593533114096788"><ele>1251.5</ele><time>2026-03-22T13:38:38.917Z</time></trkpt><trkpt lat="30.467993402931988" lon="-6.5934327417102665"><ele>1252.6666666666665</ele><time>2026-03-22T13:38:40.917Z</time></trkpt><trkpt lat="30.467956998391543" lon="-6.5933572655760475"><ele>1253.8333333333333</ele><time>2026-03-22T13:38:41.917Z</time></trkpt><trkpt lat="30.467927142977228" lon="-6.593273128461037"><ele>1255.0</ele><time>2026-03-22T13:38:42.917Z</time></trkpt><trkpt lat="30.467907962928425" lon="-6.593186796930203"><ele>1251.6666666666665</ele><time>2026-03-22T13:38:43.917Z</time></trkpt><trkpt lat="30.467903418146104" lon="-6.593096007383669"><ele>1248.3333333333333</ele><time>2026-03-22T13:38:44.917Z</time></trkpt><trkpt lat="30.46788853843615" lon="-6.593012060727506"><ele>1245.0</ele><time>2026-03-22T13:38:45.917Z</time></trkpt><trkpt lat="30.467850237860592" lon="-6.592939579934297"><ele>1241.6666666666667</ele><time>2026-03-22T13:38:46.917Z</time></trkpt><trkpt lat="30.467782875218933" lon="-6.592893012521955"><ele>1238.3333333333335</ele><time>2026-03-22T13:38:47.917Z</time></trkpt><trkpt lat="30.46771351144405" lon="-6.592845113409281"><ele>1235.0</ele><time>2026-03-22T13:38:48.917Z</time></trkpt><trkpt lat="30.467650739252427" lon="-6.592806416279589"><ele>1235.0</ele><time>2026-03-22T13:38:49.917Z</time></trkpt><trkpt lat="30.467563745465053" lon="-6.592732302179631"><ele>1235.0</ele><time>2026-03-22T13:38:51.917Z</time></trkpt><trkpt lat="30.467500737553976" lon="-6.592667847230359"><ele>1235.0</ele><time>2026-03-22T13:38:53.917Z</time></trkpt><trkpt lat="30.46745875971521" lon="-6.592592727917928"><ele>1235.0</ele><time>2026-03-22T13:38:55.917Z</time></trkpt><trkpt lat="30.46743416857791" lon="-6.592512584804665"><ele>1235.0</ele><time>2026-03-22T13:38:57.917Z</time></trkpt><trkpt lat="30.467461584159327" lon="-6.59242875395705"><ele>1235.0</ele><time>2026-03-22T13:38:59.917Z</time></trkpt><trkpt lat="30.467544529059033" lon="-6.592319676309456"><ele>1235.0</ele><time>2026-03-22T13:39:01.917Z</time></trkpt><trkpt lat="30.46760469475426" lon="-6.592205152329062"><ele>1235.0</ele><time>2026-03-22T13:39:03.917Z</time></trkpt><trkpt lat="30.467639084693328" lon="-6.59211274337614"><ele>1235.0</ele><time>2026-03-22T13:39:05.917Z</time></trkpt><trkpt lat="30.46767701464805" lon="-6.591995515848309"><ele>1235.0</ele><time>2026-03-22T13:39:07.917Z</time></trkpt><trkpt lat="30.467686302739544" lon="-6.5918866826741045"><ele>1235.0</ele><time>2026-03-22T13:39:09.917Z</time></trkpt><trkpt lat="30.467611424934823" lon="-6.5917996399968874"><ele>1233.3333333333335</ele><time>2026-03-22T13:39:11.917Z</time></trkpt><trkpt lat="30.467542383866768" lon="-6.591787767138438"><ele>1231.6666666666667</ele><time>2026-03-22T13:39:12.917Z</time></trkpt><trkpt lat="30.467475525411906" lon="-6.5917635051079255"><ele>1230.0</ele><time>2026-03-22T13:39:13.917Z</time></trkpt><trkpt lat="30.46740467491846" lon="-6.5917280727815175"><ele>1228.3333333333333</ele><time>2026-03-22T13:39:14.917Z</time></trkpt><trkpt lat="30.46732713938217" lon="-6.59162267685944"><ele>1226.6666666666665</ele><time>2026-03-22T13:39:16.917Z</time></trkpt><trkpt lat="30.46728410917278" lon="-6.591547205808815"><ele>1225.0</ele><time>2026-03-22T13:39:17.917Z</time></trkpt><trkpt lat="30.467231819779325" lon="-6.591484285188508"><ele>1225.0</ele><time>2026-03-22T13:39:18.917Z</time></trkpt><trkpt lat="30.46719520948573" lon="-6.5914125714649465"><ele>1225.0</ele><time>2026-03-22T13:39:19.917Z</time></trkpt><trkpt lat="30.467135744497817" lon="-6.591308691663796"><ele>1225.0</ele><time>2026-03-22T13:39:21.917Z</time></trkpt><trkpt lat="30.467122281578998" lon="-6.591211675943912"><ele>1225.0</ele><time>2026-03-22T13:39:23.917Z</time></trkpt><trkpt lat="30.46715314314056" lon="-6.5911154901690026"><ele>1225.0</ele><time>2026-03-22T13:39:25.917Z</time></trkpt><trkpt lat="30.467188354031848" lon="-6.5910223956735745"><ele>1225.0</ele><time>2026-03-22T13:39:27.917Z</time></trkpt><trkpt lat="30.467230786513486" lon="-6.590912100102975"><ele>1224.8</ele><time>2026-03-22T13:39:29.917Z</time></trkpt><trkpt lat="30.46727363424026" lon="-6.590805419473828"><ele>1224.6</ele><time>2026-03-22T13:39:31.917Z</time></trkpt><trkpt lat="30.467294920568527" lon="-6.5906840426220485"><ele>1224.4</ele><time>2026-03-22T13:39:33.917Z</time></trkpt><trkpt lat="30.467301959746717" lon="-6.590568648884545"><ele>1224.2</ele><time>2026-03-22T13:39:35.917Z</time></trkpt><trkpt lat="30.46732738007401" lon="-6.590416810915042"><ele>1224.0</ele><time>2026-03-22T13:39:37.917Z</time></trkpt><trkpt lat="30.467351477276367" lon="-6.59031391838635"><ele>1221.0</ele><time>2026-03-22T13:39:38.917Z</time></trkpt><trkpt lat="30.467394923749787" lon="-6.590188266680577"><ele>1218.0</ele><time>2026-03-22T13:39:39.917Z</time></trkpt><trkpt lat="30.467425295967264" lon="-6.590052943577389"><ele>1215.0</ele><time>2026-03-22T13:39:40.917Z</time></trkpt><trkpt lat="30.467407088461705" lon="-6.589956468179179"><ele>1212.0</ele><time>2026-03-22T13:39:41.917Z</time></trkpt><trkpt lat="30.46735687711534" lon="-6.589867662321228"><ele>1209.0</ele><time>2026-03-22T13:39:42.917Z</time></trkpt><trkpt lat="30.467308063651238" lon="-6.58977000210632"><ele>1209.0</ele><time>2026-03-22T13:39:43.917Z</time></trkpt><trkpt lat="30.46726697596011" lon="-6.589674897368762"><ele>1209.0</ele><time>2026-03-22T13:39:44.917Z</time></trkpt><trkpt lat="30.467234420065925" lon="-6.589573784928802"><ele>1209.0</ele><time>2026-03-22T13:39:45.917Z</time></trkpt><trkpt lat="30.46720552003747" lon="-6.589476391410804"><ele>1209.0</ele><time>2026-03-22T13:39:46.917Z</time></trkpt><trkpt lat="30.467196144710417" lon="-6.589395263298812"><ele>1209.0</ele><time>2026-03-22T13:39:47.917Z</time></trkpt><trkpt lat="30.467187151526037" lon="-6.589306369290511"><ele>1209.0</ele><time>2026-03-22T13:39:48.917Z</time></trkpt><trkpt lat="30.46717952709723" lon="-6.589225022769021"><ele>1208.2</ele><time>2026-03-22T13:39:49.917Z</time></trkpt><trkpt lat="30.467174904783132" lon="-6.589075016200719"><ele>1207.4</ele><time>2026-03-22T13:39:51.917Z</time></trkpt><trkpt lat="30.467173470688518" lon="-6.58893861902121"><ele>1206.6</ele><time>2026-03-22T13:39:53.917Z</time></trkpt><trkpt lat="30.467147902438057" lon="-6.588794061114062"><ele>1205.8</ele><time>2026-03-22T13:39:55.917Z</time></trkpt><trkpt lat="30.467111110711777" lon="-6.588730397439643"><ele>1205.0</ele><time>2026-03-22T13:39:56.917Z</time></trkpt><trkpt lat="30.46700035902333" lon="-6.588630952371615"><ele>1199.2</ele><time>2026-03-22T13:39:58.917Z</time></trkpt><trkpt lat="30.46693202905646" lon="-6.588534756899828"><ele>1193.4</ele><time>2026-03-22T13:39:59.917Z</time></trkpt><trkpt lat="30.466844046725704" lon="-6.588439926015301"><ele>1187.6</ele><time>2026-03-22T13:40:00.917Z</time></trkpt><trkpt lat="30.466764703644905" lon="-6.588361442893374"><ele>1181.8</ele><time>2026-03-22T13:40:01.917Z</time></trkpt><trkpt lat="30.46670675868026" lon="-6.588280892065532"><ele>1176.0</ele><time>2026-03-22T13:40:02.917Z</time></trkpt><trkpt lat="30.46666745621264" lon="-6.588206101938417"><ele>1176.0</ele><time>2026-03-22T13:40:03.917Z</time></trkpt><trkpt lat="30.466658376265418" lon="-6.588123451827245"><ele>1176.0</ele><time>2026-03-22T13:40:04.917Z</time></trkpt><trkpt lat="30.466679964659708" lon="-6.588020257243659"><ele>1176.0</ele><time>2026-03-22T13:40:05.917Z</time></trkpt><trkpt lat="30.466715497545486" lon="-6.58791064889882"><ele>1176.0</ele><time>2026-03-22T13:40:06.917Z</time></trkpt><trkpt lat="30.466730965369038" lon="-6.587821120104842"><ele>1176.0</ele><time>2026-03-22T13:40:07.917Z</time></trkpt><trkpt lat="30.46669504229249" lon="-6.5877120739536155"><ele>1176.0</ele><time>2026-03-22T13:40:08.917Z</time></trkpt><trkpt lat="30.466647378006265" lon="-6.587597025780171"><ele>1175.6</ele><time>2026-03-22T13:40:09.917Z</time></trkpt><trkpt lat="30.466589538044822" lon="-6.587485837649891"><ele>1175.1999999999998</ele><time>2026-03-22T13:40:10.917Z</time></trkpt><trkpt lat="30.466547944029575" lon="-6.58739931976012"><ele>1174.8000000000002</ele><time>2026-03-22T13:40:11.917Z</time></trkpt><trkpt lat="30.46651920932148" lon="-6.587330722758136"><ele>1174.4</ele><time>2026-03-22T13:40:12.917Z</time></trkpt><trkpt lat="30.466463827427784" lon="-6.587221329351986"><ele>1174.0</ele><time>2026-03-22T13:40:14.917Z</time></trkpt><trkpt lat="30.46647857386379" lon="-6.58710470725796"><ele>1174.0</ele><time>2026-03-22T13:40:16.917Z</time></trkpt><trkpt lat="30.466511539343063" lon="-6.5870333057203725"><ele>1174.0</ele><time>2026-03-22T13:40:17.917Z</time></trkpt><trkpt lat="30.4665429197245" lon="-6.586957897508255"><ele>1174.0</ele><time>2026-03-22T13:40:18.917Z</time></trkpt><trkpt lat="30.46658148423513" lon="-6.586896062961538"><ele>1174.0</ele><time>2026-03-22T13:40:19.917Z</time></trkpt><trkpt lat="30.466617083459894" lon="-6.586814638201181"><ele>1174.0</ele><time>2026-03-22T13:40:20.917Z</time></trkpt><trkpt lat="30.46664874519184" lon="-6.586719048254492"><ele>1174.0</ele><time>2026-03-22T13:40:21.917Z</time></trkpt><trkpt lat="30.466684562780785" lon="-6.586617427020582"><ele>1175.0</ele><time>2026-03-22T13:40:22.917Z</time></trkpt><trkpt lat="30.466720432068012" lon="-6.586530132923814"><ele>1176.0</ele><time>2026-03-22T13:40:23.917Z</time></trkpt><trkpt lat="30.4667925237712" lon="-6.586389928887817"><ele>1177.0</ele><time>2026-03-22T13:40:24.917Z</time></trkpt><trkpt lat="30.466867843060182" lon="-6.586254194829807"><ele>1178.0</ele><time>2026-03-22T13:40:25.917Z</time></trkpt><trkpt lat="30.466952069397138" lon="-6.586131701217113"><ele>1178.3333333333335</ele><time>2026-03-22T13:40:26.917Z</time></trkpt><trkpt lat="30.467052439380822" lon="-6.585996319595275"><ele>1178.6666666666667</ele><time>2026-03-22T13:40:27.917Z</time></trkpt><trkpt lat="30.467155059679868" lon="-6.585835173483105"><ele>1179.0</ele><time>2026-03-22T13:40:28.917Z</time></trkpt><trkpt lat="30.467235985279622" lon="-6.585690981394424"><ele>1179.0</ele><time>2026-03-22T13:40:29.917Z</time></trkpt><trkpt lat="30.467298393155282" lon="-6.585563870569704"><ele>1179.0</ele><time>2026-03-22T13:40:30.917Z</time></trkpt><trkpt lat="30.46736578595844" lon="-6.5854454122904125"><ele>1179.0</ele><time>2026-03-22T13:40:31.916Z</time></trkpt><trkpt lat="30.46743104686758" lon="-6.585339192246625"><ele>1179.0</ele><time>2026-03-22T13:40:32.917Z</time></trkpt><trkpt lat="30.467498957385978" lon="-6.5852174564450445"><ele>1181.0</ele><time>2026-03-22T13:40:33.917Z</time></trkpt><trkpt lat="30.467556283372733" lon="-6.585121376322909"><ele>1183.0</ele><time>2026-03-22T13:40:34.917Z</time></trkpt><trkpt lat="30.467607784607882" lon="-6.585029817492725"><ele>1185.0</ele><time>2026-03-22T13:40:35.917Z</time></trkpt><trkpt lat="30.467654765847605" lon="-6.584940059703337"><ele>1187.0</ele><time>2026-03-22T13:40:36.917Z</time></trkpt><trkpt lat="30.467722517360226" lon="-6.5848202988652815"><ele>1189.0</ele><time>2026-03-22T13:40:37.917Z</time></trkpt><trkpt lat="30.467784681636573" lon="-6.584718639435971"><ele>1189.0</ele><time>2026-03-22T13:40:38.917Z</time></trkpt><trkpt lat="30.46785808819099" lon="-6.584624484877813"><ele>1189.0</ele><time>2026-03-22T13:40:39.917Z</time></trkpt><trkpt lat="30.467908968663007" lon="-6.584526565878445"><ele>1189.0</ele><time>2026-03-22T13:40:40.917Z</time></trkpt><trkpt lat="30.467961830141824" lon="-6.584416123275124"><ele>1189.0</ele><time>2026-03-22T13:40:41.917Z</time></trkpt><trkpt lat="30.468011986747186" lon="-6.5842826609678875"><ele>1189.0</ele><time>2026-03-22T13:40:42.917Z</time></trkpt><trkpt lat="30.46806604288025" lon="-6.584143409617317"><ele>1188.0</ele><time>2026-03-22T13:40:43.917Z</time></trkpt><trkpt lat="30.468120837517954" lon="-6.583999995061961"><ele>1187.0</ele><time>2026-03-22T13:40:44.917Z</time></trkpt><trkpt lat="30.468181162167898" lon="-6.583876057233656"><ele>1186.0</ele><time>2026-03-22T13:40:45.917Z</time></trkpt><trkpt lat="30.468240367787132" lon="-6.583790385305235"><ele>1185.0</ele><time>2026-03-22T13:40:46.917Z</time></trkpt><trkpt lat="30.468314930399696" lon="-6.583730077457713"><ele>1184.0</ele><time>2026-03-22T13:40:47.917Z</time></trkpt><trkpt lat="30.468403811306302" lon="-6.5836994781406455"><ele>1184.0</ele><time>2026-03-22T13:40:48.917Z</time></trkpt><trkpt lat="30.46849362173802" lon="-6.583685873911145"><ele>1184.0</ele><time>2026-03-22T13:40:49.917Z</time></trkpt><trkpt lat="30.46861518852133" lon="-6.583670003448642"><ele>1184.0</ele><time>2026-03-22T13:40:51.917Z</time></trkpt><trkpt lat="30.468676358168572" lon="-6.583624093238795"><ele>1184.0</ele><time>2026-03-22T13:40:52.917Z</time></trkpt><trkpt lat="30.468727496215752" lon="-6.583547430768809"><ele>1184.0</ele><time>2026-03-22T13:40:53.917Z</time></trkpt><trkpt lat="30.468753875157894" lon="-6.583478186319262"><ele>1184.0</ele><time>2026-03-22T13:40:54.917Z</time></trkpt><trkpt lat="30.468787524429302" lon="-6.583388323682311"><ele>1185.0</ele><time>2026-03-22T13:40:56.916Z</time></trkpt><trkpt lat="30.46876181111578" lon="-6.583267194507847"><ele>1186.0</ele><time>2026-03-22T13:40:58.916Z</time></trkpt><trkpt lat="30.468736004174577" lon="-6.58319575582651"><ele>1187.0</ele><time>2026-03-22T13:40:59.916Z</time></trkpt><trkpt lat="30.46872280220372" lon="-6.583107628732652"><ele>1188.0</ele><time>2026-03-22T13:41:00.916Z</time></trkpt><trkpt lat="30.4687167641812" lon="-6.583034079463375"><ele>1189.0</ele><time>2026-03-22T13:41:01.916Z</time></trkpt><trkpt lat="30.468712940011958" lon="-6.582943516940794"><ele>1190.0</ele><time>2026-03-22T13:41:02.916Z</time></trkpt><trkpt lat="30.468728848083337" lon="-6.582827991279888"><ele>1191.2</ele><time>2026-03-22T13:41:03.916Z</time></trkpt><trkpt lat="30.468748388739286" lon="-6.58270873456949"><ele>1192.4</ele><time>2026-03-22T13:41:04.916Z</time></trkpt><trkpt lat="30.468797814490078" lon="-6.582591291236755"><ele>1193.6</ele><time>2026-03-22T13:41:05.916Z</time></trkpt><trkpt lat="30.468847612037287" lon="-6.582468461870847"><ele>1194.8</ele><time>2026-03-22T13:41:06.916Z</time></trkpt><trkpt lat="30.468916540423994" lon="-6.582414012802086"><ele>1196.0</ele><time>2026-03-22T13:41:07.916Z</time></trkpt><trkpt lat="30.46900525537913" lon="-6.58237172155823"><ele>1192.25</ele><time>2026-03-22T13:41:08.916Z</time></trkpt><trkpt lat="30.469115453965237" lon="-6.582312611390739"><ele>1188.5</ele><time>2026-03-22T13:41:09.916Z</time></trkpt><trkpt lat="30.469221465939995" lon="-6.582222119794858"><ele>1184.75</ele><time>2026-03-22T13:41:10.916Z</time></trkpt><trkpt lat="30.46930563350148" lon="-6.58213405907246"><ele>1181.0</ele><time>2026-03-22T13:41:11.916Z</time></trkpt><trkpt lat="30.469370018007425" lon="-6.582061088317792"><ele>1181.5</ele><time>2026-03-22T13:41:12.916Z</time></trkpt><trkpt lat="30.469415748401" lon="-6.581985075761932"><ele>1182.0</ele><time>2026-03-22T13:41:13.916Z</time></trkpt><trkpt lat="30.469443537705338" lon="-6.581906546490627"><ele>1182.5</ele><time>2026-03-22T13:41:14.916Z</time></trkpt><trkpt lat="30.469463673278785" lon="-6.58182570736205"><ele>1183.0</ele><time>2026-03-22T13:41:15.916Z</time></trkpt><trkpt lat="30.469477650412912" lon="-6.581739009726835"><ele>1183.5</ele><time>2026-03-22T13:41:16.916Z</time></trkpt><trkpt lat="30.469481683715617" lon="-6.581654931393615"><ele>1184.0</ele><time>2026-03-22T13:41:17.916Z</time></trkpt><trkpt lat="30.469478745560288" lon="-6.581565453071146"><ele>1184.0</ele><time>2026-03-22T13:41:18.916Z</time></trkpt><trkpt lat="30.469469750022082" lon="-6.581465486576922"><ele>1184.0</ele><time>2026-03-22T13:41:19.916Z</time></trkpt><trkpt lat="30.46945232984487" lon="-6.58136994629061"><ele>1184.0</ele><time>2026-03-22T13:41:20.916Z</time></trkpt><trkpt lat="30.469422549312426" lon="-6.581280591048542"><ele>1184.0</ele><time>2026-03-22T13:41:21.916Z</time></trkpt><trkpt lat="30.46936902571551" lon="-6.581169800378676"><ele>1184.0</ele><time>2026-03-22T13:41:22.916Z</time></trkpt><trkpt lat="30.469309148772695" lon="-6.581039220745936"><ele>1185.25</ele><time>2026-03-22T13:41:23.916Z</time></trkpt><trkpt lat="30.469263017030325" lon="-6.58091410673831"><ele>1186.5</ele><time>2026-03-22T13:41:24.916Z</time></trkpt><trkpt lat="30.46923244884493" lon="-6.58078069487666"><ele>1187.75</ele><time>2026-03-22T13:41:25.916Z</time></trkpt><trkpt lat="30.46921116344465" lon="-6.580653300815141"><ele>1189.0</ele><time>2026-03-22T13:41:26.916Z</time></trkpt><trkpt lat="30.469190281441925" lon="-6.58053737887233"><ele>1189.0</ele><time>2026-03-22T13:41:27.916Z</time></trkpt><trkpt lat="30.469176076645045" lon="-6.580432573175067"><ele>1189.0</ele><time>2026-03-22T13:41:28.916Z</time></trkpt><trkpt lat="30.469169990076473" lon="-6.580300763649347"><ele>1189.0</ele><time>2026-03-22T13:41:29.916Z</time></trkpt><trkpt lat="30.469142893022962" lon="-6.580166563302146"><ele>1189.0</ele><time>2026-03-22T13:41:30.916Z</time></trkpt><trkpt lat="30.469119073852323" lon="-6.580050285720697"><ele>1189.0</ele><time>2026-03-22T13:41:31.916Z</time></trkpt><trkpt lat="30.469078753669617" lon="-6.579937118702903"><ele>1188.75</ele><time>2026-03-22T13:41:32.916Z</time></trkpt><trkpt lat="30.469027648791574" lon="-6.579812013741832"><ele>1188.5</ele><time>2026-03-22T13:41:33.916Z</time></trkpt><trkpt lat="30.468951105905436" lon="-6.579675060970419"><ele>1188.25</ele><time>2026-03-22T13:41:34.916Z</time></trkpt><trkpt lat="30.46885242884132" lon="-6.579509333244466"><ele>1188.0</ele><time>2026-03-22T13:41:35.916Z</time></trkpt><trkpt lat="30.468757027865824" lon="-6.579345147949563"><ele>1189.75</ele><time>2026-03-22T13:41:36.916Z</time></trkpt><trkpt lat="30.468696877260417" lon="-6.579210424977282"><ele>1191.5</ele><time>2026-03-22T13:41:37.916Z</time></trkpt><trkpt lat="30.46865646338478" lon="-6.579075536556453"><ele>1193.25</ele><time>2026-03-22T13:41:38.916Z</time></trkpt><trkpt lat="30.4686162052788" lon="-6.578958538231922"><ele>1195.0</ele><time>2026-03-22T13:41:39.916Z</time></trkpt><trkpt lat="30.46855822504919" lon="-6.578869161270843"><ele>1195.0</ele><time>2026-03-22T13:41:40.916Z</time></trkpt><trkpt lat="30.468502309411274" lon="-6.578810876264938"><ele>1195.0</ele><time>2026-03-22T13:41:41.916Z</time></trkpt><trkpt lat="30.46835850319569" lon="-6.578808530097963"><ele>1195.0</ele><time>2026-03-22T13:41:43.916Z</time></trkpt><trkpt lat="30.468253081644598" lon="-6.578814280417814"><ele>1195.0</ele><time>2026-03-22T13:41:44.916Z</time></trkpt><trkpt lat="30.468157347956623" lon="-6.578776859327809"><ele>1195.0</ele><time>2026-03-22T13:41:45.916Z</time></trkpt><trkpt lat="30.46810472350706" lon="-6.578699150965106"><ele>1197.25</ele><time>2026-03-22T13:41:46.916Z</time></trkpt><trkpt lat="30.468074606431685" lon="-6.578578200291564"><ele>1199.5</ele><time>2026-03-22T13:41:47.916Z</time></trkpt><trkpt lat="30.468033179220708" lon="-6.578441250667116"><ele>1201.75</ele><time>2026-03-22T13:41:48.916Z</time></trkpt><trkpt lat="30.467961399810676" lon="-6.578329264653068"><ele>1204.0</ele><time>2026-03-22T13:41:49.916Z</time></trkpt><trkpt lat="30.467851908993204" lon="-6.578249651615608"><ele>1204.0</ele><time>2026-03-22T13:41:50.916Z</time></trkpt><trkpt lat="30.467731988331252" lon="-6.5781778993662865"><ele>1204.0</ele><time>2026-03-22T13:41:51.916Z</time></trkpt><trkpt lat="30.467616160922887" lon="-6.578119593289548"><ele>1204.0</ele><time>2026-03-22T13:41:52.916Z</time></trkpt><trkpt lat="30.46752691722016" lon="-6.578070455766996"><ele>1204.0</ele><time>2026-03-22T13:41:53.916Z</time></trkpt><trkpt lat="30.4674563599063" lon="-6.5780237934887955"><ele>1204.0</ele><time>2026-03-22T13:41:54.916Z</time></trkpt><trkpt lat="30.46742183934022" lon="-6.577958745876112"><ele>1204.0</ele><time>2026-03-22T13:41:55.916Z</time></trkpt><trkpt lat="30.467365978089845" lon="-6.577881389369686"><ele>1204.0</ele><time>2026-03-22T13:41:56.916Z</time></trkpt><trkpt lat="30.46732417941975" lon="-6.577799293334182"><ele>1204.0</ele><time>2026-03-22T13:41:57.916Z</time></trkpt><trkpt lat="30.467274452389226" lon="-6.577709279258108"><ele>1204.0</ele><time>2026-03-22T13:41:58.916Z</time></trkpt><trkpt lat="30.46721178485567" lon="-6.577642188776046"><ele>1204.0</ele><time>2026-03-22T13:41:59.916Z</time></trkpt><trkpt lat="30.46713417403651" lon="-6.5775968861531355"><ele>1204.0</ele><time>2026-03-22T13:42:00.916Z</time></trkpt><trkpt lat="30.467067504886046" lon="-6.57754678635157"><ele>1205.2</ele><time>2026-03-22T13:42:01.916Z</time></trkpt><trkpt lat="30.46698319350801" lon="-6.5774681238329675"><ele>1206.4</ele><time>2026-03-22T13:42:02.916Z</time></trkpt><trkpt lat="30.466910070518185" lon="-6.577381229526391"><ele>1207.6</ele><time>2026-03-22T13:42:03.916Z</time></trkpt><trkpt lat="30.46685742473494" lon="-6.577291242715886"><ele>1208.8</ele><time>2026-03-22T13:42:04.916Z</time></trkpt><trkpt lat="30.466828298881293" lon="-6.577182877508122"><ele>1210.0</ele><time>2026-03-22T13:42:05.916Z</time></trkpt><trkpt lat="30.46682311814432" lon="-6.577056419351637"><ele>1211.6666666666665</ele><time>2026-03-22T13:42:06.916Z</time></trkpt><trkpt lat="30.466846023497826" lon="-6.576909084494958"><ele>1213.3333333333333</ele><time>2026-03-22T13:42:07.916Z</time></trkpt><trkpt lat="30.46687624500059" lon="-6.576737226701284"><ele>1215.0</ele><time>2026-03-22T13:42:08.916Z</time></trkpt><trkpt lat="30.466897836931626" lon="-6.576537749681614"><ele>1215.0</ele><time>2026-03-22T13:42:09.916Z</time></trkpt><trkpt lat="30.466900170251307" lon="-6.576336293721132"><ele>1215.0</ele><time>2026-03-22T13:42:10.916Z</time></trkpt><trkpt lat="30.466887727548507" lon="-6.57613038192684"><ele>1215.0</ele><time>2026-03-22T13:42:11.916Z</time></trkpt><trkpt lat="30.466850902735462" lon="-6.575927281658387"><ele>1216.0</ele><time>2026-03-22T13:42:12.916Z</time></trkpt><trkpt lat="30.466814339117832" lon="-6.575709713631359"><ele>1217.0</ele><time>2026-03-22T13:42:13.916Z</time></trkpt><trkpt lat="30.46679262407841" lon="-6.575512301899849"><ele>1218.0</ele><time>2026-03-22T13:42:14.916Z</time></trkpt><trkpt lat="30.46677654328379" lon="-6.575350564865696"><ele>1218.75</ele><time>2026-03-22T13:42:15.916Z</time></trkpt><trkpt lat="30.466772945014203" lon="-6.575192537441981"><ele>1219.5</ele><time>2026-03-22T13:42:16.916Z</time></trkpt><trkpt lat="30.466797128507697" lon="-6.575034107852151"><ele>1220.25</ele><time>2026-03-22T13:42:17.916Z</time></trkpt><trkpt lat="30.466810893492994" lon="-6.5748877787597"><ele>1221.0</ele><time>2026-03-22T13:42:18.916Z</time></trkpt><trkpt lat="30.46682385211046" lon="-6.5747583773655425"><ele>1221.0</ele><time>2026-03-22T13:42:19.916Z</time></trkpt><trkpt lat="30.46685246706496" lon="-6.574638790782775"><ele>1221.0</ele><time>2026-03-22T13:42:20.916Z</time></trkpt><trkpt lat="30.466873860764093" lon="-6.574534106839467"><ele>1221.0</ele><time>2026-03-22T13:42:21.916Z</time></trkpt><trkpt lat="30.466887275276246" lon="-6.574420483960291"><ele>1221.0</ele><time>2026-03-22T13:42:22.916Z</time></trkpt><trkpt lat="30.466895668835885" lon="-6.574300190496006"><ele>1221.0</ele><time>2026-03-22T13:42:23.916Z</time></trkpt><trkpt lat="30.466894780929756" lon="-6.574188271627807"><ele>1221.2</ele><time>2026-03-22T13:42:24.916Z</time></trkpt><trkpt lat="30.46687692838695" lon="-6.574049762834414"><ele>1221.3999999999999</ele><time>2026-03-22T13:42:25.916Z</time></trkpt><trkpt lat="30.466848967885714" lon="-6.573927268488531"><ele>1221.6</ele><time>2026-03-22T13:42:26.916Z</time></trkpt><trkpt lat="30.466835457836456" lon="-6.573805925504384"><ele>1221.8</ele><time>2026-03-22T13:42:27.916Z</time></trkpt><trkpt lat="30.466822845048842" lon="-6.573676086256769"><ele>1222.0</ele><time>2026-03-22T13:42:28.916Z</time></trkpt><trkpt lat="30.466818475075872" lon="-6.573537000952818"><ele>1220.0</ele><time>2026-03-22T13:42:29.916Z</time></trkpt><trkpt lat="30.46679968627749" lon="-6.57339347442707"><ele>1218.0</ele><time>2026-03-22T13:42:30.916Z</time></trkpt><trkpt lat="30.466771100748243" lon="-6.573255376812592"><ele>1216.0</ele><time>2026-03-22T13:42:31.916Z</time></trkpt><trkpt lat="30.466742538715845" lon="-6.5731352340735265"><ele>1214.0</ele><time>2026-03-22T13:42:32.916Z</time></trkpt><trkpt lat="30.466712726415153" lon="-6.573007738113306"><ele>1214.0</ele><time>2026-03-22T13:42:33.916Z</time></trkpt><trkpt lat="30.466701825265517" lon="-6.572883640595979"><ele>1214.0</ele><time>2026-03-22T13:42:34.916Z</time></trkpt><trkpt lat="30.466703564674678" lon="-6.572748783715307"><ele>1214.0</ele><time>2026-03-22T13:42:35.916Z</time></trkpt><trkpt lat="30.466717615706305" lon="-6.572576442387079"><ele>1214.0</ele><time>2026-03-22T13:42:36.916Z</time></trkpt><trkpt lat="30.466707418926518" lon="-6.57239598888243"><ele>1213.5</ele><time>2026-03-22T13:42:37.916Z</time></trkpt><trkpt lat="30.466668024359684" lon="-6.572243990810803"><ele>1213.0</ele><time>2026-03-22T13:42:38.916Z</time></trkpt><trkpt lat="30.46661886210135" lon="-6.572098427762337"><ele>1212.5</ele><time>2026-03-22T13:42:39.916Z</time></trkpt><trkpt lat="30.46655712813505" lon="-6.571905124059277"><ele>1212.0</ele><time>2026-03-22T13:42:40.916Z</time></trkpt><trkpt lat="30.466493758765836" lon="-6.5717230665086"><ele>1212.0</ele><time>2026-03-22T13:42:41.915Z</time></trkpt><trkpt lat="30.466416262605577" lon="-6.571584571422322"><ele>1212.0</ele><time>2026-03-22T13:42:42.915Z</time></trkpt><trkpt lat="30.4663413334433" lon="-6.571471522620723"><ele>1212.0</ele><time>2026-03-22T13:42:43.915Z</time></trkpt><trkpt lat="30.46629817432888" lon="-6.57135593301005"><ele>1212.0</ele><time>2026-03-22T13:42:44.916Z</time></trkpt><trkpt lat="30.466257498938546" lon="-6.571248020176021"><ele>1212.3333333333333</ele><time>2026-03-22T13:42:45.916Z</time></trkpt><trkpt lat="30.46621985857393" lon="-6.571157615765883"><ele>1212.6666666666667</ele><time>2026-03-22T13:42:46.916Z</time></trkpt><trkpt lat="30.466211964200475" lon="-6.571072399797613"><ele>1213.0</ele><time>2026-03-22T13:42:47.916Z</time></trkpt><trkpt lat="30.46623908516329" lon="-6.570987641626842"><ele>1213.3333333333335</ele><time>2026-03-22T13:42:48.916Z</time></trkpt><trkpt lat="30.466289030806404" lon="-6.570895439844241"><ele>1213.6666666666667</ele><time>2026-03-22T13:42:49.916Z</time></trkpt><trkpt lat="30.4663641138156" lon="-6.570818911859466"><ele>1214.0</ele><time>2026-03-22T13:42:50.916Z</time></trkpt><trkpt lat="30.466432491194983" lon="-6.570741207542976"><ele>1214.0</ele><time>2026-03-22T13:42:51.916Z</time></trkpt><trkpt lat="30.466478488491813" lon="-6.570664718625468"><ele>1214.0</ele><time>2026-03-22T13:42:52.916Z</time></trkpt><trkpt lat="30.466502998941056" lon="-6.570563771767569"><ele>1214.0</ele><time>2026-03-22T13:42:53.916Z</time></trkpt><trkpt lat="30.46649959715546" lon="-6.570468362427577"><ele>1214.0</ele><time>2026-03-22T13:42:54.916Z</time></trkpt><trkpt lat="30.466480444882496" lon="-6.5703652875519385"><ele>1214.0</ele><time>2026-03-22T13:42:55.916Z</time></trkpt><trkpt lat="30.466431552305092" lon="-6.570263831673752"><ele>1214.0</ele><time>2026-03-22T13:42:56.916Z</time></trkpt><trkpt lat="30.46636917076508" lon="-6.570170434449745"><ele>1214.0</ele><time>2026-03-22T13:42:57.916Z</time></trkpt><trkpt lat="30.466306742722868" lon="-6.57007628350703"><ele>1214.0</ele><time>2026-03-22T13:42:58.916Z</time></trkpt><trkpt lat="30.466246161001514" lon="-6.569976070917605"><ele>1214.0</ele><time>2026-03-22T13:42:59.916Z</time></trkpt><trkpt lat="30.46618904629909" lon="-6.569866430554099"><ele>1214.0</ele><time>2026-03-22T13:43:00.916Z</time></trkpt><trkpt lat="30.466130522823843" lon="-6.56974627532459"><ele>1214.0</ele><time>2026-03-22T13:43:01.916Z</time></trkpt><trkpt lat="30.46608699422842" lon="-6.5696039507297845"><ele>1216.0</ele><time>2026-03-22T13:43:02.916Z</time></trkpt><trkpt lat="30.46604049787458" lon="-6.569433802100643"><ele>1218.0</ele><time>2026-03-22T13:43:03.916Z</time></trkpt><trkpt lat="30.465984531048555" lon="-6.569262538704474"><ele>1220.0</ele><time>2026-03-22T13:43:04.916Z</time></trkpt><trkpt lat="30.46592602508074" lon="-6.569105793030046"><ele>1220.0</ele><time>2026-03-22T13:43:05.916Z</time></trkpt><trkpt lat="30.46589866173005" lon="-6.568962792597505"><ele>1220.0</ele><time>2026-03-22T13:43:06.916Z</time></trkpt><trkpt lat="30.465885161684778" lon="-6.568819995999105"><ele>1220.0</ele><time>2026-03-22T13:43:07.916Z</time></trkpt><trkpt lat="30.465887552777716" lon="-6.568692054462681"><ele>1220.0</ele><time>2026-03-22T13:43:08.916Z</time></trkpt><trkpt lat="30.46587672367775" lon="-6.568573542158528"><ele>1220.0</ele><time>2026-03-22T13:43:09.916Z</time></trkpt><trkpt lat="30.46583272967119" lon="-6.568500240187979"><ele>1220.0</ele><time>2026-03-22T13:43:10.916Z</time></trkpt><trkpt lat="30.465759921826468" lon="-6.568441623846056"><ele>1220.0</ele><time>2026-03-22T13:43:11.916Z</time></trkpt><trkpt lat="30.465664682331806" lon="-6.56840459969019"><ele>1220.0</ele><time>2026-03-22T13:43:12.916Z</time></trkpt><trkpt lat="30.465557349735608" lon="-6.56834150305346"><ele>1220.0</ele><time>2026-03-22T13:43:13.916Z</time></trkpt><trkpt lat="30.46544498044549" lon="-6.568240492435285"><ele>1220.25</ele><time>2026-03-22T13:43:14.916Z</time></trkpt><trkpt lat="30.46533576242914" lon="-6.568118296039956"><ele>1220.5</ele><time>2026-03-22T13:43:15.916Z</time></trkpt><trkpt lat="30.46525652713459" lon="-6.567990041050922"><ele>1220.75</ele><time>2026-03-22T13:43:16.916Z</time></trkpt><trkpt lat="30.46517915110764" lon="-6.567829942037519"><ele>1221.0</ele><time>2026-03-22T13:43:17.916Z</time></trkpt><trkpt lat="30.46511950326535" lon="-6.567642951396177"><ele>1221.0</ele><time>2026-03-22T13:43:18.916Z</time></trkpt><trkpt lat="30.465082947697788" lon="-6.567463021959498"><ele>1221.0</ele><time>2026-03-22T13:43:19.916Z</time></trkpt><trkpt lat="30.465061843117763" lon="-6.567286420845098"><ele>1221.0</ele><time>2026-03-22T13:43:20.916Z</time></trkpt><trkpt lat="30.46503079134867" lon="-6.56714278260762"><ele>1221.0</ele><time>2026-03-22T13:43:21.916Z</time></trkpt><trkpt lat="30.465004375764963" lon="-6.567009554140828"><ele>1221.8</ele><time>2026-03-22T13:43:22.916Z</time></trkpt><trkpt lat="30.465008561177164" lon="-6.566902955548973"><ele>1222.6</ele><time>2026-03-22T13:43:23.916Z</time></trkpt><trkpt lat="30.465049242217162" lon="-6.566814931506694"><ele>1223.4</ele><time>2026-03-22T13:43:24.916Z</time></trkpt><trkpt lat="30.46510910034068" lon="-6.566732316463169"><ele>1224.2</ele><time>2026-03-22T13:43:25.916Z</time></trkpt><trkpt lat="30.465184839847986" lon="-6.5666621956402755"><ele>1225.0</ele><time>2026-03-22T13:43:26.916Z</time></trkpt><trkpt lat="30.46528233931837" lon="-6.566572239233955"><ele>1225.0</ele><time>2026-03-22T13:43:27.916Z</time></trkpt><trkpt lat="30.465366158660963" lon="-6.566484372494634"><ele>1225.0</ele><time>2026-03-22T13:43:28.916Z</time></trkpt><trkpt lat="30.46545387775506" lon="-6.566386715320035"><ele>1225.0</ele><time>2026-03-22T13:43:29.916Z</time></trkpt><trkpt lat="30.465545436272595" lon="-6.566297152145342"><ele>1225.0</ele><time>2026-03-22T13:43:30.916Z</time></trkpt><trkpt lat="30.46564116384883" lon="-6.566219275059808"><ele>1227.25</ele><time>2026-03-22T13:43:31.916Z</time></trkpt><trkpt lat="30.465750256155165" lon="-6.566137487854695"><ele>1229.5</ele><time>2026-03-22T13:43:32.916Z</time></trkpt><trkpt lat="30.46583553994751" lon="-6.5660395364445705"><ele>1231.75</ele><time>2026-03-22T13:43:33.915Z</time></trkpt><trkpt lat="30.465895893566778" lon="-6.565909141964139"><ele>1234.0</ele><time>2026-03-22T13:43:34.915Z</time></trkpt><trkpt lat="30.46594884590335" lon="-6.565785383327371"><ele>1234.0</ele><time>2026-03-22T13:43:35.915Z</time></trkpt><trkpt lat="30.46602084815715" lon="-6.565658906483967"><ele>1234.0</ele><time>2026-03-22T13:43:36.915Z</time></trkpt><trkpt lat="30.466110554651905" lon="-6.565524095334924"><ele>1234.0</ele><time>2026-03-22T13:43:37.915Z</time></trkpt><trkpt lat="30.466181160394363" lon="-6.5653882684581735"><ele>1234.0</ele><time>2026-03-22T13:43:38.915Z</time></trkpt><trkpt lat="30.46621623476849" lon="-6.565279656973123"><ele>1234.6666666666665</ele><time>2026-03-22T13:43:39.915Z</time></trkpt><trkpt lat="30.466210534844972" lon="-6.565194067759846"><ele>1235.3333333333333</ele><time>2026-03-22T13:43:40.915Z</time></trkpt><trkpt lat="30.46617575534178" lon="-6.565109063739531"><ele>1236.0</ele><time>2026-03-22T13:43:41.915Z</time></trkpt><trkpt lat="30.466153235597144" lon="-6.565029901302322"><ele>1236.6666666666667</ele><time>2026-03-22T13:43:42.915Z</time></trkpt><trkpt lat="30.466162239352474" lon="-6.564939861756162"><ele>1237.3333333333335</ele><time>2026-03-22T13:43:43.915Z</time></trkpt><trkpt lat="30.466164831717872" lon="-6.564845314442272"><ele>1238.0</ele><time>2026-03-22T13:43:44.915Z</time></trkpt><trkpt lat="30.466159776269816" lon="-6.564748154886502"><ele>1238.0</ele><time>2026-03-22T13:43:45.915Z</time></trkpt><trkpt lat="30.46615226042341" lon="-6.5646519976355"><ele>1238.0</ele><time>2026-03-22T13:43:46.915Z</time></trkpt><trkpt lat="30.466131930773354" lon="-6.564552392353976"><ele>1238.0</ele><time>2026-03-22T13:43:47.915Z</time></trkpt><trkpt lat="30.466109978664154" lon="-6.564432004055142"><ele>1238.0</ele><time>2026-03-22T13:43:48.915Z</time></trkpt><trkpt lat="30.46608396872558" lon="-6.564301950297968"><ele>1238.0</ele><time>2026-03-22T13:43:49.915Z</time></trkpt><trkpt lat="30.46604894761394" lon="-6.56417768621803"><ele>1237.0</ele><time>2026-03-22T13:43:50.915Z</time></trkpt><trkpt lat="30.466003339664734" lon="-6.5640412992795625"><ele>1236.0</ele><time>2026-03-22T13:43:51.915Z</time></trkpt><trkpt lat="30.465959950612472" lon="-6.563908526573941"><ele>1235.0</ele><time>2026-03-22T13:43:52.915Z</time></trkpt><trkpt lat="30.465938415379195" lon="-6.563772580202481"><ele>1234.0</ele><time>2026-03-22T13:43:53.915Z</time></trkpt><trkpt lat="30.465923959798353" lon="-6.563630886420009"><ele>1233.0</ele><time>2026-03-22T13:43:54.915Z</time></trkpt><trkpt lat="30.465948042501257" lon="-6.563488520670186"><ele>1232.0</ele><time>2026-03-22T13:43:55.915Z</time></trkpt><trkpt lat="30.465985647343416" lon="-6.563339861982984"><ele>1231.0</ele><time>2026-03-22T13:43:56.915Z</time></trkpt><trkpt lat="30.465990738835643" lon="-6.563176809479045"><ele>1230.0</ele><time>2026-03-22T13:43:57.915Z</time></trkpt><trkpt lat="30.46597359848061" lon="-6.563031180417058"><ele>1230.0</ele><time>2026-03-22T13:43:58.915Z</time></trkpt><trkpt lat="30.46595606632067" lon="-6.562908402217059"><ele>1230.0</ele><time>2026-03-22T13:43:59.915Z</time></trkpt><trkpt lat="30.465945272621987" lon="-6.562808214111363"><ele>1230.0</ele><time>2026-03-22T13:44:00.915Z</time></trkpt><trkpt lat="30.46595436486607" lon="-6.562732467997236"><ele>1230.0</ele><time>2026-03-22T13:44:01.915Z</time></trkpt><trkpt lat="30.46599207837982" lon="-6.562619809363561"><ele>1230.0</ele><time>2026-03-22T13:44:03.915Z</time></trkpt><trkpt lat="30.466008883528826" lon="-6.562486358371052"><ele>1229.6666666666667</ele><time>2026-03-22T13:44:05.915Z</time></trkpt><trkpt lat="30.466003204146176" lon="-6.56239087829383"><ele>1229.3333333333333</ele><time>2026-03-22T13:44:07.915Z</time></trkpt><trkpt lat="30.4659578340581" lon="-6.562323307640244"><ele>1229.0</ele><time>2026-03-22T13:44:10.915Z</time></trkpt><trkpt lat="30.46590971210421" lon="-6.5622690612065915"><ele>1228.6666666666665</ele><time>2026-03-22T13:44:13.915Z</time></trkpt><trkpt lat="30.465882561295082" lon="-6.562170516169405"><ele>1228.3333333333333</ele><time>2026-03-22T13:45:17.915Z</time></trkpt><trkpt lat="30.46584491458886" lon="-6.5620980810115315"><ele>1228.0</ele><time>2026-03-22T13:45:18.915Z</time></trkpt><trkpt lat="30.46579388806687" lon="-6.562016924317061"><ele>1229.5</ele><time>2026-03-22T13:45:19.915Z</time></trkpt><trkpt lat="30.465733072361466" lon="-6.561906760521727"><ele>1231.0</ele><time>2026-03-22T13:45:20.915Z</time></trkpt><trkpt lat="30.46564996712914" lon="-6.561762103938787"><ele>1232.5</ele><time>2026-03-22T13:45:21.915Z</time></trkpt><trkpt lat="30.465554395295115" lon="-6.561595833031844"><ele>1234.0</ele><time>2026-03-22T13:45:22.915Z</time></trkpt><trkpt lat="30.465456229143484" lon="-6.561422256750394"><ele>1233.6666666666665</ele><time>2026-03-22T13:45:23.915Z</time></trkpt><trkpt lat="30.465360061475973" lon="-6.561252933003724"><ele>1233.3333333333333</ele><time>2026-03-22T13:45:24.915Z</time></trkpt><trkpt lat="30.465263464590343" lon="-6.561069665113337"><ele>1233.0</ele><time>2026-03-22T13:45:25.915Z</time></trkpt><trkpt lat="30.465168430144452" lon="-6.560881616045742"><ele>1233.0</ele><time>2026-03-22T13:45:26.915Z</time></trkpt><trkpt lat="30.465076773077588" lon="-6.5606762390787186"><ele>1233.0</ele><time>2026-03-22T13:45:27.915Z</time></trkpt><trkpt lat="30.46499157575674" lon="-6.560460292293673"><ele>1233.0</ele><time>2026-03-22T13:45:28.915Z</time></trkpt><trkpt lat="30.46492140146654" lon="-6.560289591634412"><ele>1235.0</ele><time>2026-03-22T13:45:29.915Z</time></trkpt><trkpt lat="30.46485302534486" lon="-6.560113359940082"><ele>1237.0</ele><time>2026-03-22T13:45:30.915Z</time></trkpt><trkpt lat="30.464787148949558" lon="-6.559958955469358"><ele>1239.0</ele><time>2026-03-22T13:45:31.915Z</time></trkpt><trkpt lat="30.464678373002485" lon="-6.5598361616197325"><ele>1239.0</ele><time>2026-03-22T13:45:32.915Z</time></trkpt><trkpt lat="30.464627061404446" lon="-6.559697424700444"><ele>1239.0</ele><time>2026-03-22T13:45:33.915Z</time></trkpt><trkpt lat="30.464579988942138" lon="-6.559569849865893"><ele>1239.0</ele><time>2026-03-22T13:45:34.915Z</time></trkpt><trkpt lat="30.464537135089326" lon="-6.5594615275566985"><ele>1239.0</ele><time>2026-03-22T13:45:35.915Z</time></trkpt><trkpt lat="30.46451035072291" lon="-6.559350338842745"><ele>1238.75</ele><time>2026-03-22T13:45:36.915Z</time></trkpt><trkpt lat="30.464473804919045" lon="-6.5592572084839675"><ele>1238.5</ele><time>2026-03-22T13:45:37.915Z</time></trkpt><trkpt lat="30.464422685234247" lon="-6.559156307504312"><ele>1238.25</ele><time>2026-03-22T13:45:38.915Z</time></trkpt><trkpt lat="30.4643735481953" lon="-6.5590222657728665"><ele>1238.0</ele><time>2026-03-22T13:45:39.915Z</time></trkpt><trkpt lat="30.464314116711538" lon="-6.558871320992681"><ele>1238.0</ele><time>2026-03-22T13:45:40.915Z</time></trkpt><trkpt lat="30.464251190900285" lon="-6.558723647592027"><ele>1238.0</ele><time>2026-03-22T13:45:41.915Z</time></trkpt><trkpt lat="30.46419062404328" lon="-6.558543338312049"><ele>1238.0</ele><time>2026-03-22T13:45:42.915Z</time></trkpt><trkpt lat="30.464121503122772" lon="-6.558367038085468"><ele>1239.0</ele><time>2026-03-22T13:45:43.915Z</time></trkpt><trkpt lat="30.464053553485332" lon="-6.558184407470751"><ele>1240.0</ele><time>2026-03-22T13:45:44.915Z</time></trkpt><trkpt lat="30.463978597956817" lon="-6.558006171339722"><ele>1241.0</ele><time>2026-03-22T13:45:45.915Z</time></trkpt><trkpt lat="30.46390370567926" lon="-6.557831962390511"><ele>1242.6666666666667</ele><time>2026-03-22T13:45:46.915Z</time></trkpt><trkpt lat="30.463818477612797" lon="-6.557655372437065"><ele>1244.3333333333333</ele><time>2026-03-22T13:45:47.915Z</time></trkpt><trkpt lat="30.463730921604736" lon="-6.5574790889063435"><ele>1246.0</ele><time>2026-03-22T13:45:48.915Z</time></trkpt><trkpt lat="30.463648182779142" lon="-6.557303723525245"><ele>1246.0</ele><time>2026-03-22T13:45:49.915Z</time></trkpt><trkpt lat="30.463564496146056" lon="-6.5571267906602975"><ele>1246.0</ele><time>2026-03-22T13:45:50.915Z</time></trkpt><trkpt lat="30.463487609176305" lon="-6.5569616736353655"><ele>1246.0</ele><time>2026-03-22T13:45:51.915Z</time></trkpt><trkpt lat="30.463420874077073" lon="-6.556781795724609"><ele>1245.6666666666665</ele><time>2026-03-22T13:45:52.915Z</time></trkpt><trkpt lat="30.463357832140066" lon="-6.556566565729369"><ele>1245.3333333333333</ele><time>2026-03-22T13:45:53.915Z</time></trkpt><trkpt lat="30.46331783329623" lon="-6.556322838341695"><ele>1245.0</ele><time>2026-03-22T13:45:54.915Z</time></trkpt><trkpt lat="30.463297138615047" lon="-6.556037532027881"><ele>1244.0</ele><time>2026-03-22T13:45:55.915Z</time></trkpt><trkpt lat="30.463287967442238" lon="-6.555720115618762"><ele>1243.0</ele><time>2026-03-22T13:45:56.915Z</time></trkpt><trkpt lat="30.463291316879623" lon="-6.555414928534432"><ele>1241.5</ele><time>2026-03-22T13:45:57.915Z</time></trkpt><trkpt lat="30.463295546244918" lon="-6.555136912536916"><ele>1240.0</ele><time>2026-03-22T13:45:58.915Z</time></trkpt><trkpt lat="30.46328606517929" lon="-6.554876225908417"><ele>1240.0</ele><time>2026-03-22T13:45:59.915Z</time></trkpt><trkpt lat="30.46325486668424" lon="-6.554636071514769"><ele>1240.0</ele><time>2026-03-22T13:46:00.915Z</time></trkpt><trkpt lat="30.46320972344113" lon="-6.5544234990350185"><ele>1240.0</ele><time>2026-03-22T13:46:01.915Z</time></trkpt><trkpt lat="30.463154406630938" lon="-6.554235738080921"><ele>1239.0</ele><time>2026-03-22T13:46:02.915Z</time></trkpt><trkpt lat="30.463079345923983" lon="-6.554044315616272"><ele>1238.0</ele><time>2026-03-22T13:46:03.915Z</time></trkpt><trkpt lat="30.462986226948228" lon="-6.553875227110239"><ele>1237.0</ele><time>2026-03-22T13:46:04.915Z</time></trkpt><trkpt lat="30.46292033933922" lon="-6.55369368138024"><ele>1236.0</ele><time>2026-03-22T13:46:05.915Z</time></trkpt><trkpt lat="30.462846711868398" lon="-6.553526939987009"><ele>1235.0</ele><time>2026-03-22T13:46:06.915Z</time></trkpt><trkpt lat="30.462748749029082" lon="-6.553377325448506"><ele>1234.0</ele><time>2026-03-22T13:46:07.915Z</time></trkpt><trkpt lat="30.462659030053135" lon="-6.553240960572165"><ele>1234.0</ele><time>2026-03-22T13:46:08.914Z</time></trkpt><trkpt lat="30.462559544789396" lon="-6.553108240891791"><ele>1234.0</ele><time>2026-03-22T13:46:09.914Z</time></trkpt><trkpt lat="30.462444488218985" lon="-6.552970458762711"><ele>1234.0</ele><time>2026-03-22T13:46:10.914Z</time></trkpt><trkpt lat="30.46231618792754" lon="-6.552833165013933"><ele>1233.6666666666665</ele><time>2026-03-22T13:46:11.914Z</time></trkpt><trkpt lat="30.462179221613006" lon="-6.552687252231304"><ele>1233.3333333333333</ele><time>2026-03-22T13:46:12.914Z</time></trkpt><trkpt lat="30.462045376640827" lon="-6.552552387622961"><ele>1233.0</ele><time>2026-03-22T13:46:13.914Z</time></trkpt><trkpt lat="30.461917799654596" lon="-6.5524234879555925"><ele>1232.6666666666667</ele><time>2026-03-22T13:46:14.914Z</time></trkpt><trkpt lat="30.461800518126925" lon="-6.552305214117785"><ele>1232.3333333333335</ele><time>2026-03-22T13:46:15.914Z</time></trkpt><trkpt lat="30.461687554000303" lon="-6.552192607130145"><ele>1232.0</ele><time>2026-03-22T13:46:16.914Z</time></trkpt><trkpt lat="30.46157561145382" lon="-6.552082216076866"><ele>1232.3333333333335</ele><time>2026-03-22T13:46:17.914Z</time></trkpt><trkpt lat="30.461456401876966" lon="-6.551963261582846"><ele>1232.6666666666667</ele><time>2026-03-22T13:46:18.914Z</time></trkpt><trkpt lat="30.461344071295148" lon="-6.55183976831725"><ele>1233.0</ele><time>2026-03-22T13:46:19.914Z</time></trkpt><trkpt lat="30.461234250835556" lon="-6.551713318751891"><ele>1233.3333333333333</ele><time>2026-03-22T13:46:20.914Z</time></trkpt><trkpt lat="30.46112890807258" lon="-6.551574642101292"><ele>1233.6666666666665</ele><time>2026-03-22T13:46:21.914Z</time></trkpt><trkpt lat="30.461036318751574" lon="-6.55143079506814"><ele>1234.0</ele><time>2026-03-22T13:46:22.914Z</time></trkpt><trkpt lat="30.460950073656914" lon="-6.551279418059522"><ele>1232.3333333333333</ele><time>2026-03-22T13:46:23.914Z</time></trkpt><trkpt lat="30.460865912639555" lon="-6.551107213996015"><ele>1230.6666666666667</ele><time>2026-03-22T13:46:24.914Z</time></trkpt><trkpt lat="30.460783259201875" lon="-6.550910830126126"><ele>1229.0</ele><time>2026-03-22T13:46:25.914Z</time></trkpt><trkpt lat="30.460718925718254" lon="-6.550698261735488"><ele>1229.0</ele><time>2026-03-22T13:46:26.914Z</time></trkpt><trkpt lat="30.460657966518298" lon="-6.55050060623114"><ele>1229.0</ele><time>2026-03-22T13:46:27.914Z</time></trkpt><trkpt lat="30.46059361870345" lon="-6.550311054504108"><ele>1229.0</ele><time>2026-03-22T13:46:28.914Z</time></trkpt><trkpt lat="30.460533203564456" lon="-6.550127516169308"><ele>1227.6666666666667</ele><time>2026-03-22T13:46:29.914Z</time></trkpt><trkpt lat="30.460493555149466" lon="-6.54994462109746"><ele>1226.3333333333333</ele><time>2026-03-22T13:46:30.914Z</time></trkpt><trkpt lat="30.460468634022313" lon="-6.549758775881451"><ele>1225.0</ele><time>2026-03-22T13:46:31.914Z</time></trkpt><trkpt lat="30.460456585758013" lon="-6.549596874836448"><ele>1227.0</ele><time>2026-03-22T13:46:32.914Z</time></trkpt><trkpt lat="30.460443777876705" lon="-6.549444904466757"><ele>1229.0</ele><time>2026-03-22T13:46:33.914Z</time></trkpt><trkpt lat="30.46042960304878" lon="-6.549291055043905"><ele>1231.0</ele><time>2026-03-22T13:46:34.914Z</time></trkpt><trkpt lat="30.46040428187068" lon="-6.549118036322363"><ele>1233.0</ele><time>2026-03-22T13:46:35.914Z</time></trkpt><trkpt lat="30.46035221921276" lon="-6.548913477819526"><ele>1229.6666666666667</ele><time>2026-03-22T13:46:36.914Z</time></trkpt><trkpt lat="30.46027872422511" lon="-6.548695082762247"><ele>1226.3333333333335</ele><time>2026-03-22T13:46:37.914Z</time></trkpt><trkpt lat="30.46019871979821" lon="-6.548508751354592"><ele>1223.0</ele><time>2026-03-22T13:46:38.914Z</time></trkpt><trkpt lat="30.460095055328345" lon="-6.548314130668074"><ele>1223.0</ele><time>2026-03-22T13:46:39.914Z</time></trkpt><trkpt lat="30.45997649537851" lon="-6.548126076570125"><ele>1223.0</ele><time>2026-03-22T13:46:40.914Z</time></trkpt><trkpt lat="30.45984828859931" lon="-6.547931664877175"><ele>1223.0</ele><time>2026-03-22T13:46:41.914Z</time></trkpt><trkpt lat="30.45971719799107" lon="-6.547764287419917"><ele>1222.3333333333335</ele><time>2026-03-22T13:46:42.914Z</time></trkpt><trkpt lat="30.45958623618913" lon="-6.5476066533858805"><ele>1221.6666666666667</ele><time>2026-03-22T13:46:43.914Z</time></trkpt><trkpt lat="30.45946075029973" lon="-6.547460153822446"><ele>1221.0</ele><time>2026-03-22T13:46:44.914Z</time></trkpt><trkpt lat="30.45934265227201" lon="-6.547297809165081"><ele>1221.0</ele><time>2026-03-22T13:46:45.914Z</time></trkpt><trkpt lat="30.459239743919586" lon="-6.547140826584411"><ele>1221.0</ele><time>2026-03-22T13:46:46.914Z</time></trkpt><trkpt lat="30.45916370127419" lon="-6.546976072990979"><ele>1221.0</ele><time>2026-03-22T13:46:47.914Z</time></trkpt><trkpt lat="30.45911673811595" lon="-6.546810683270311"><ele>1220.0</ele><time>2026-03-22T13:46:48.914Z</time></trkpt><trkpt lat="30.459108115586698" lon="-6.546637850019984"><ele>1219.0</ele><time>2026-03-22T13:46:49.915Z</time></trkpt><trkpt lat="30.45913538787312" lon="-6.546453513006538"><ele>1218.0</ele><time>2026-03-22T13:46:50.914Z</time></trkpt><trkpt lat="30.45917555377079" lon="-6.546262321590717"><ele>1217.6666666666667</ele><time>2026-03-22T13:46:51.914Z</time></trkpt><trkpt lat="30.459224642212078" lon="-6.546081356502208"><ele>1217.3333333333335</ele><time>2026-03-22T13:46:52.914Z</time></trkpt><trkpt lat="30.459276385273046" lon="-6.545905060062274"><ele>1217.0</ele><time>2026-03-22T13:46:53.914Z</time></trkpt><trkpt lat="30.45932489191618" lon="-6.545725575891105"><ele>1217.0</ele><time>2026-03-22T13:46:54.914Z</time></trkpt><trkpt lat="30.45937452723218" lon="-6.545539448563323"><ele>1217.0</ele><time>2026-03-22T13:46:55.914Z</time></trkpt><trkpt lat="30.459412765999744" lon="-6.545348422794106"><ele>1217.0</ele><time>2026-03-22T13:46:56.914Z</time></trkpt><trkpt lat="30.45943494042121" lon="-6.5451642124203895"><ele>1217.0</ele><time>2026-03-22T13:46:57.914Z</time></trkpt><trkpt lat="30.459454316382782" lon="-6.5449818698973345"><ele>1217.0</ele><time>2026-03-22T13:46:58.914Z</time></trkpt><trkpt lat="30.459470730337323" lon="-6.544813823460983"><ele>1217.0</ele><time>2026-03-22T13:46:59.914Z</time></trkpt><trkpt lat="30.459481938528967" lon="-6.544650121644448"><ele>1217.0</ele><time>2026-03-22T13:47:00.914Z</time></trkpt><trkpt lat="30.459480300665522" lon="-6.544484787413812"><ele>1216.3333333333335</ele><time>2026-03-22T13:47:01.914Z</time></trkpt><trkpt lat="30.459458962859753" lon="-6.544312566503527"><ele>1215.6666666666667</ele><time>2026-03-22T13:47:02.914Z</time></trkpt><trkpt lat="30.459418931631266" lon="-6.544130189561928"><ele>1215.0</ele><time>2026-03-22T13:47:03.914Z</time></trkpt><trkpt lat="30.459358864073963" lon="-6.54393293133416"><ele>1215.0</ele><time>2026-03-22T13:47:04.914Z</time></trkpt><trkpt lat="30.459284576306942" lon="-6.543740616883687"><ele>1215.0</ele><time>2026-03-22T13:47:05.914Z</time></trkpt><trkpt lat="30.459211507802895" lon="-6.54356364643762"><ele>1215.0</ele><time>2026-03-22T13:47:06.914Z</time></trkpt><trkpt lat="30.459133440765115" lon="-6.543385124067253"><ele>1214.0</ele><time>2026-03-22T13:47:07.914Z</time></trkpt><trkpt lat="30.459045227333917" lon="-6.5431876478025535"><ele>1213.0</ele><time>2026-03-22T13:47:08.914Z</time></trkpt><trkpt lat="30.458948960849145" lon="-6.542972143811584"><ele>1212.0</ele><time>2026-03-22T13:47:09.914Z</time></trkpt><trkpt lat="30.458861217488632" lon="-6.542776829613491"><ele>1210.3333333333333</ele><time>2026-03-22T13:47:10.914Z</time></trkpt><trkpt lat="30.458773819757013" lon="-6.542586514733636"><ele>1208.6666666666665</ele><time>2026-03-22T13:47:11.914Z</time></trkpt><trkpt lat="30.458692205260043" lon="-6.542406086813023"><ele>1207.0</ele><time>2026-03-22T13:47:12.914Z</time></trkpt><trkpt lat="30.458605559179574" lon="-6.54222086287801"><ele>1208.3333333333333</ele><time>2026-03-22T13:47:13.914Z</time></trkpt><trkpt lat="30.458519013037243" lon="-6.542037872337076"><ele>1209.6666666666667</ele><time>2026-03-22T13:47:14.914Z</time></trkpt><trkpt lat="30.45843045319484" lon="-6.5418424318339286"><ele>1211.0</ele><time>2026-03-22T13:47:15.914Z</time></trkpt><trkpt lat="30.458343672244226" lon="-6.541642607022229"><ele>1211.0</ele><time>2026-03-22T13:47:16.914Z</time></trkpt><trkpt lat="30.45825718929739" lon="-6.541434215262329"><ele>1211.0</ele><time>2026-03-22T13:47:17.914Z</time></trkpt><trkpt lat="30.458171500582594" lon="-6.541226291829069"><ele>1211.0</ele><time>2026-03-22T13:47:18.914Z</time></trkpt><trkpt lat="30.45808246955279" lon="-6.541014277922941"><ele>1211.3333333333335</ele><time>2026-03-22T13:47:19.914Z</time></trkpt><trkpt lat="30.457992060881324" lon="-6.540801994396713"><ele>1211.6666666666667</ele><time>2026-03-22T13:47:20.914Z</time></trkpt><trkpt lat="30.457904156378188" lon="-6.540596250358415"><ele>1212.0</ele><time>2026-03-22T13:47:21.914Z</time></trkpt><trkpt lat="30.4578168475787" lon="-6.540392838828963"><ele>1211.0</ele><time>2026-03-22T13:47:22.914Z</time></trkpt><trkpt lat="30.45772066593179" lon="-6.540171410494114"><ele>1210.0</ele><time>2026-03-22T13:47:23.914Z</time></trkpt><trkpt lat="30.457621018503122" lon="-6.539937465391312"><ele>1209.0</ele><time>2026-03-22T13:47:24.914Z</time></trkpt><trkpt lat="30.457533149189423" lon="-6.539727239087096"><ele>1210.3333333333333</ele><time>2026-03-22T13:47:25.914Z</time></trkpt><trkpt lat="30.457479986493983" lon="-6.539536159152013"><ele>1211.6666666666665</ele><time>2026-03-22T13:47:26.914Z</time></trkpt><trkpt lat="30.457414557493042" lon="-6.539362061331114"><ele>1213.0</ele><time>2026-03-22T13:47:27.914Z</time></trkpt><trkpt lat="30.457364838114998" lon="-6.53918870767743"><ele>1213.0</ele><time>2026-03-22T13:47:28.914Z</time></trkpt><trkpt lat="30.457331024799913" lon="-6.539003390190901"><ele>1213.0</ele><time>2026-03-22T13:47:29.914Z</time></trkpt><trkpt lat="30.45727901641646" lon="-6.538810509998442"><ele>1213.0</ele><time>2026-03-22T13:47:30.914Z</time></trkpt><trkpt lat="30.457246831934317" lon="-6.538622399357811"><ele>1213.0</ele><time>2026-03-22T13:47:31.914Z</time></trkpt><trkpt lat="30.457215077803646" lon="-6.538428856625461"><ele>1213.0</ele><time>2026-03-22T13:47:32.914Z</time></trkpt><trkpt lat="30.457181991693886" lon="-6.538234983109795"><ele>1213.0</ele><time>2026-03-22T13:47:33.914Z</time></trkpt><trkpt lat="30.457144322999724" lon="-6.538039484474836"><ele>1214.0</ele><time>2026-03-22T13:47:34.914Z</time></trkpt><trkpt lat="30.4571074655431" lon="-6.537848196128125"><ele>1215.0</ele><time>2026-03-22T13:47:35.914Z</time></trkpt><trkpt lat="30.457070060938083" lon="-6.537653676118106"><ele>1216.0</ele><time>2026-03-22T13:47:36.914Z</time></trkpt><trkpt lat="30.457032386818888" lon="-6.537457090928915"><ele>1216.0</ele><time>2026-03-22T13:47:37.914Z</time></trkpt><trkpt lat="30.456987057869338" lon="-6.5372607822624085"><ele>1216.0</ele><time>2026-03-22T13:47:38.914Z</time></trkpt><trkpt lat="30.456941452131243" lon="-6.537073704412403"><ele>1216.0</ele><time>2026-03-22T13:47:39.914Z</time></trkpt><trkpt lat="30.45689359914389" lon="-6.536888794761703"><ele>1215.6666666666665</ele><time>2026-03-22T13:47:40.914Z</time></trkpt><trkpt lat="30.45684315516841" lon="-6.536699645968693"><ele>1215.3333333333333</ele><time>2026-03-22T13:47:41.914Z</time></trkpt><trkpt lat="30.456792997090393" lon="-6.536510841994379"><ele>1215.0</ele><time>2026-03-22T13:47:42.914Z</time></trkpt><trkpt lat="30.456736930975385" lon="-6.536318895539265"><ele>1214.0</ele><time>2026-03-22T13:47:43.914Z</time></trkpt><trkpt lat="30.456681433073648" lon="-6.536131701574909"><ele>1213.0</ele><time>2026-03-22T13:47:44.914Z</time></trkpt><trkpt lat="30.45662592067849" lon="-6.535939977172679"><ele>1212.0</ele><time>2026-03-22T13:47:45.914Z</time></trkpt><trkpt lat="30.456573397347317" lon="-6.535755453178375"><ele>1212.0</ele><time>2026-03-22T13:47:46.914Z</time></trkpt><trkpt lat="30.456519123205233" lon="-6.535573500120393"><ele>1212.0</ele><time>2026-03-22T13:47:47.914Z</time></trkpt><trkpt lat="30.456468294362963" lon="-6.535383633846992"><ele>1212.0</ele><time>2026-03-22T13:47:48.914Z</time></trkpt><trkpt lat="30.456421837925895" lon="-6.535195487218207"><ele>1211.6666666666667</ele><time>2026-03-22T13:47:49.914Z</time></trkpt><trkpt lat="30.45636994159028" lon="-6.535014649700624"><ele>1211.3333333333335</ele><time>2026-03-22T13:47:50.914Z</time></trkpt><trkpt lat="30.45631696242311" lon="-6.534830461083287"><ele>1211.0</ele><time>2026-03-22T13:47:51.914Z</time></trkpt><trkpt lat="30.456265798154867" lon="-6.5346500918874995"><ele>1209.0</ele><time>2026-03-22T13:47:52.914Z</time></trkpt><trkpt lat="30.456215948721407" lon="-6.5344705890134245"><ele>1207.0</ele><time>2026-03-22T13:47:53.914Z</time></trkpt><trkpt lat="30.456166957887845" lon="-6.534294329600613"><ele>1205.0</ele><time>2026-03-22T13:47:54.914Z</time></trkpt><trkpt lat="30.456120868562824" lon="-6.534129291719322"><ele>1205.0</ele><time>2026-03-22T13:47:55.914Z</time></trkpt><trkpt lat="30.456073001046406" lon="-6.5339636818577835"><ele>1205.0</ele><time>2026-03-22T13:47:56.914Z</time></trkpt><trkpt lat="30.456025669412647" lon="-6.533799869486714"><ele>1205.0</ele><time>2026-03-22T13:47:57.914Z</time></trkpt><trkpt lat="30.455976739456307" lon="-6.533632588352978"><ele>1205.25</ele><time>2026-03-22T13:47:58.914Z</time></trkpt><trkpt lat="30.455934799852397" lon="-6.53346933644382"><ele>1205.5</ele><time>2026-03-22T13:47:59.914Z</time></trkpt><trkpt lat="30.455894091603927" lon="-6.533313781333056"><ele>1205.75</ele><time>2026-03-22T13:48:00.914Z</time></trkpt><trkpt lat="30.45585246481239" lon="-6.533152356291678"><ele>1206.0</ele><time>2026-03-22T13:48:01.914Z</time></trkpt><trkpt lat="30.45582400404927" lon="-6.532993321209815"><ele>1206.3333333333333</ele><time>2026-03-22T13:48:02.914Z</time></trkpt><trkpt lat="30.45576805030339" lon="-6.532826749961275"><ele>1206.6666666666665</ele><time>2026-03-22T13:48:03.914Z</time></trkpt><trkpt lat="30.455725164358196" lon="-6.532658336967303"><ele>1207.0</ele><time>2026-03-22T13:48:04.914Z</time></trkpt><trkpt lat="30.455665837995166" lon="-6.532485554775468"><ele>1207.0</ele><time>2026-03-22T13:48:05.914Z</time></trkpt><trkpt lat="30.455590056647726" lon="-6.532319460653111"><ele>1207.0</ele><time>2026-03-22T13:48:06.914Z</time></trkpt><trkpt lat="30.455498415677706" lon="-6.532162024057798"><ele>1207.0</ele><time>2026-03-22T13:48:07.914Z</time></trkpt><trkpt lat="30.455388383807012" lon="-6.532020952013803"><ele>1207.6666666666665</ele><time>2026-03-22T13:48:08.914Z</time></trkpt><trkpt lat="30.455265075801126" lon="-6.531886088302768"><ele>1208.3333333333333</ele><time>2026-03-22T13:48:09.914Z</time></trkpt><trkpt lat="30.45513047530023" lon="-6.531775891413003"><ele>1209.0</ele><time>2026-03-22T13:48:10.914Z</time></trkpt><trkpt lat="30.454976941421034" lon="-6.531692521476117"><ele>1209.0</ele><time>2026-03-22T13:48:11.914Z</time></trkpt><trkpt lat="30.454823617159896" lon="-6.53164708524736"><ele>1209.0</ele><time>2026-03-22T13:48:12.914Z</time></trkpt><trkpt lat="30.454666940935912" lon="-6.531624917824521"><ele>1209.0</ele><time>2026-03-22T13:48:13.914Z</time></trkpt><trkpt lat="30.454503967618475" lon="-6.531618566109536"><ele>1209.3333333333333</ele><time>2026-03-22T13:48:14.914Z</time></trkpt><trkpt lat="30.454348078647598" lon="-6.531622081921395"><ele>1209.6666666666665</ele><time>2026-03-22T13:48:15.914Z</time></trkpt><trkpt lat="30.454185728588854" lon="-6.531626792775456"><ele>1210.0</ele><time>2026-03-22T13:48:16.914Z</time></trkpt><trkpt lat="30.454026569549825" lon="-6.5316341833567"><ele>1210.0</ele><time>2026-03-22T13:48:17.914Z</time></trkpt><trkpt lat="30.453863025974798" lon="-6.531635706828995"><ele>1210.0</ele><time>2026-03-22T13:48:18.914Z</time></trkpt><trkpt lat="30.453700963181127" lon="-6.531617687375961"><ele>1210.0</ele><time>2026-03-22T13:48:19.914Z</time></trkpt><trkpt lat="30.45354577988247" lon="-6.531580851407935"><ele>1210.0</ele><time>2026-03-22T13:48:20.913Z</time></trkpt><trkpt lat="30.45339544244212" lon="-6.531535422426092"><ele>1210.0</ele><time>2026-03-22T13:48:21.913Z</time></trkpt><trkpt lat="30.453244000928198" lon="-6.531482993221963"><ele>1210.0</ele><time>2026-03-22T13:48:22.913Z</time></trkpt><trkpt lat="30.453102359225987" lon="-6.531425835995537"><ele>1210.0</ele><time>2026-03-22T13:48:23.913Z</time></trkpt><trkpt lat="30.45296027806972" lon="-6.531364661831849"><ele>1210.0</ele><time>2026-03-22T13:48:24.913Z</time></trkpt><trkpt lat="30.45282277034306" lon="-6.531300265910054"><ele>1210.0</ele><time>2026-03-22T13:48:25.913Z</time></trkpt><trkpt lat="30.452688662358973" lon="-6.5312371562620015"><ele>1210.0</ele><time>2026-03-22T13:48:26.913Z</time></trkpt><trkpt lat="30.452552683228095" lon="-6.531170266839079"><ele>1210.6666666666665</ele><time>2026-03-22T13:48:27.913Z</time></trkpt><trkpt lat="30.452411536853855" lon="-6.531087580019939"><ele>1211.3333333333333</ele><time>2026-03-22T13:48:28.913Z</time></trkpt><trkpt lat="30.452271950584027" lon="-6.531004358603894"><ele>1212.0</ele><time>2026-03-22T13:48:29.913Z</time></trkpt><trkpt lat="30.45213858200078" lon="-6.530906079120194"><ele>1212.0</ele><time>2026-03-22T13:48:30.913Z</time></trkpt><trkpt lat="30.45201153826599" lon="-6.530788529550481"><ele>1212.0</ele><time>2026-03-22T13:48:31.913Z</time></trkpt><trkpt lat="30.45189579319927" lon="-6.530664470892557"><ele>1212.0</ele><time>2026-03-22T13:48:32.913Z</time></trkpt><trkpt lat="30.45178605178215" lon="-6.53052370079629"><ele>1213.6666666666667</ele><time>2026-03-22T13:48:33.913Z</time></trkpt><trkpt lat="30.45168717236311" lon="-6.530371772509063"><ele>1215.3333333333335</ele><time>2026-03-22T13:48:34.913Z</time></trkpt><trkpt lat="30.451599581686537" lon="-6.5302044850251395"><ele>1217.0</ele><time>2026-03-22T13:48:35.913Z</time></trkpt><trkpt lat="30.451530563682613" lon="-6.530022551392322"><ele>1217.0</ele><time>2026-03-22T13:48:36.913Z</time></trkpt><trkpt lat="30.451470763655323" lon="-6.529834726675326"><ele>1217.0</ele><time>2026-03-22T13:48:37.913Z</time></trkpt><trkpt lat="30.451411448641338" lon="-6.529636190309182"><ele>1217.0</ele><time>2026-03-22T13:48:38.913Z</time></trkpt><trkpt lat="30.451358770807175" lon="-6.529436341500433"><ele>1217.3333333333335</ele><time>2026-03-22T13:48:39.913Z</time></trkpt><trkpt lat="30.45130863087069" lon="-6.529234373305244"><ele>1217.6666666666667</ele><time>2026-03-22T13:48:40.913Z</time></trkpt><trkpt lat="30.45125716039888" lon="-6.5290243351552375"><ele>1218.0</ele><time>2026-03-22T13:48:41.913Z</time></trkpt><trkpt lat="30.451199197179626" lon="-6.528794199845171"><ele>1218.0</ele><time>2026-03-22T13:48:42.913Z</time></trkpt><trkpt lat="30.451138622851012" lon="-6.528554197110327"><ele>1218.0</ele><time>2026-03-22T13:48:43.913Z</time></trkpt><trkpt lat="30.451084914425778" lon="-6.528336444570812"><ele>1218.0</ele><time>2026-03-22T13:48:44.913Z</time></trkpt><trkpt lat="30.451029968887447" lon="-6.528137518714818"><ele>1218.0</ele><time>2026-03-22T13:48:45.913Z</time></trkpt><trkpt lat="30.45098024613798" lon="-6.527948288994327"><ele>1218.0</ele><time>2026-03-22T13:48:46.913Z</time></trkpt><trkpt lat="30.450937310827555" lon="-6.527769517439523"><ele>1218.0</ele><time>2026-03-22T13:48:47.913Z</time></trkpt><trkpt lat="30.450896937522657" lon="-6.527602147969957"><ele>1218.0</ele><time>2026-03-22T13:48:48.913Z</time></trkpt><trkpt lat="30.45085716277495" lon="-6.527437259840396"><ele>1218.0</ele><time>2026-03-22T13:48:49.914Z</time></trkpt><trkpt lat="30.450817604163742" lon="-6.527276576261947"><ele>1218.0</ele><time>2026-03-22T13:48:50.913Z</time></trkpt><trkpt lat="30.450779565156285" lon="-6.52711722321336"><ele>1218.0</ele><time>2026-03-22T13:48:51.913Z</time></trkpt><trkpt lat="30.450740934396393" lon="-6.526954793304332"><ele>1218.0</ele><time>2026-03-22T13:48:52.913Z</time></trkpt><trkpt lat="30.450701560850863" lon="-6.5267884462658365"><ele>1218.0</ele><time>2026-03-22T13:48:53.913Z</time></trkpt><trkpt lat="30.45065697865372" lon="-6.526625828040182"><ele>1218.0</ele><time>2026-03-22T13:48:54.913Z</time></trkpt><trkpt lat="30.45061455993747" lon="-6.526470637184823"><ele>1218.0</ele><time>2026-03-22T13:48:55.913Z</time></trkpt><trkpt lat="30.450573978783112" lon="-6.526320546505794"><ele>1218.75</ele><time>2026-03-22T13:48:56.913Z</time></trkpt><trkpt lat="30.450534875220242" lon="-6.526175593453718"><ele>1219.5</ele><time>2026-03-22T13:48:57.913Z</time></trkpt><trkpt lat="30.450495561020578" lon="-6.526033411834926"><ele>1220.25</ele><time>2026-03-22T13:48:58.914Z</time></trkpt><trkpt lat="30.450462919188467" lon="-6.525912015763559"><ele>1221.0</ele><time>2026-03-22T13:48:59.913Z</time></trkpt><trkpt lat="30.450436768696136" lon="-6.525809779242241"><ele>1221.1666666666667</ele><time>2026-03-22T13:49:00.913Z</time></trkpt><trkpt lat="30.450411545692006" lon="-6.525709236416779"><ele>1221.3333333333333</ele><time>2026-03-22T13:49:01.913Z</time></trkpt><trkpt lat="30.450371419985082" lon="-6.525630026289094"><ele>1221.5</ele><time>2026-03-22T13:49:02.914Z</time></trkpt><trkpt lat="30.45033064571566" lon="-6.525561580554538"><ele>1221.6666666666665</ele><time>2026-03-22T13:49:03.914Z</time></trkpt><trkpt lat="30.450305371280447" lon="-6.525479718307613"><ele>1221.8333333333333</ele><time>2026-03-22T13:49:04.914Z</time></trkpt><trkpt lat="30.450282538039925" lon="-6.525386212776059"><ele>1222.0</ele><time>2026-03-22T13:49:05.914Z</time></trkpt><trkpt lat="30.450260386473023" lon="-6.525297221744926"><ele>1222.0</ele><time>2026-03-22T13:49:06.914Z</time></trkpt><trkpt lat="30.450238106072852" lon="-6.525209547493135"><ele>1222.0</ele><time>2026-03-22T13:49:07.914Z</time></trkpt><trkpt lat="30.450215681677594" lon="-6.525120735006127"><ele>1222.0</ele><time>2026-03-22T13:49:08.914Z</time></trkpt><trkpt lat="30.45019295268272" lon="-6.525028524049172"><ele>1222.0</ele><time>2026-03-22T13:49:09.914Z</time></trkpt><trkpt lat="30.45016887436369" lon="-6.52493083889124"><ele>1222.0</ele><time>2026-03-22T13:49:10.914Z</time></trkpt><trkpt lat="30.450151598922023" lon="-6.524841696793213"><ele>1222.0</ele><time>2026-03-22T13:49:11.913Z</time></trkpt><trkpt lat="30.450132281232857" lon="-6.524741920348568"><ele>1222.0</ele><time>2026-03-22T13:49:12.913Z</time></trkpt><trkpt lat="30.4501121336852" lon="-6.5246212516420865"><ele>1222.0</ele><time>2026-03-22T13:49:13.913Z</time></trkpt><trkpt lat="30.45008057890992" lon="-6.524481827351254"><ele>1222.0</ele><time>2026-03-22T13:49:14.913Z</time></trkpt><trkpt lat="30.45008050255234" lon="-6.524339173699471"><ele>1222.0</ele><time>2026-03-22T13:49:15.913Z</time></trkpt><trkpt lat="30.450080027109593" lon="-6.5241975807337615"><ele>1222.2</ele><time>2026-03-22T13:49:16.913Z</time></trkpt><trkpt lat="30.45007118608167" lon="-6.524070460361259"><ele>1222.4</ele><time>2026-03-22T13:49:17.913Z</time></trkpt><trkpt lat="30.45005792737041" lon="-6.523946665423484"><ele>1222.6</ele><time>2026-03-22T13:49:18.913Z</time></trkpt><trkpt lat="30.45004802620202" lon="-6.5238098895748875"><ele>1222.8</ele><time>2026-03-22T13:49:19.913Z</time></trkpt><trkpt lat="30.450025991384607" lon="-6.5236828623503245"><ele>1223.0</ele><time>2026-03-22T13:49:20.913Z</time></trkpt><trkpt lat="30.450008364724326" lon="-6.523558107923556"><ele>1223.0</ele><time>2026-03-22T13:49:21.913Z</time></trkpt><trkpt lat="30.449992023337423" lon="-6.52341665181352"><ele>1223.0</ele><time>2026-03-22T13:49:22.913Z</time></trkpt><trkpt lat="30.44998047392428" lon="-6.523272207486075"><ele>1223.0</ele><time>2026-03-22T13:49:23.913Z</time></trkpt><trkpt lat="30.44997273904999" lon="-6.523122963640381"><ele>1223.0</ele><time>2026-03-22T13:49:24.913Z</time></trkpt><trkpt lat="30.44996827237453" lon="-6.522959279787655"><ele>1223.0</ele><time>2026-03-22T13:49:25.913Z</time></trkpt><trkpt lat="30.449956734189033" lon="-6.522821789424595"><ele>1223.0</ele><time>2026-03-22T13:49:26.913Z</time></trkpt><trkpt lat="30.449934914549143" lon="-6.5227026025272075"><ele>1223.0</ele><time>2026-03-22T13:49:27.913Z</time></trkpt><trkpt lat="30.449910937935382" lon="-6.52258569248269"><ele>1223.0</ele><time>2026-03-22T13:49:28.913Z</time></trkpt><trkpt lat="30.44987103635173" lon="-6.522473770716032"><ele>1223.0</ele><time>2026-03-22T13:49:29.913Z</time></trkpt><trkpt lat="30.449867605400627" lon="-6.522343673944177"><ele>1223.0</ele><time>2026-03-22T13:49:30.913Z</time></trkpt><trkpt lat="30.449852784930087" lon="-6.522190818719224"><ele>1223.0</ele><time>2026-03-22T13:49:31.913Z</time></trkpt><trkpt lat="30.44983686033592" lon="-6.522027532724785"><ele>1223.0</ele><time>2026-03-22T13:49:32.913Z</time></trkpt><trkpt lat="30.449822411438678" lon="-6.521876281425791"><ele>1223.0</ele><time>2026-03-22T13:49:33.913Z</time></trkpt><trkpt lat="30.449805744165" lon="-6.521748799425823"><ele>1223.4</ele><time>2026-03-22T13:49:34.913Z</time></trkpt><trkpt lat="30.449791160216083" lon="-6.521637251898073"><ele>1223.8</ele><time>2026-03-22T13:49:35.913Z</time></trkpt><trkpt lat="30.449776856716387" lon="-6.52154669434697"><ele>1224.2</ele><time>2026-03-22T13:49:36.913Z</time></trkpt><trkpt lat="30.449753919265767" lon="-6.521412977544112"><ele>1224.6</ele><time>2026-03-22T13:49:38.913Z</time></trkpt><trkpt lat="30.449731956048844" lon="-6.521283940356334"><ele>1225.0</ele><time>2026-03-22T13:49:40.913Z</time></trkpt><trkpt lat="30.44970302839573" lon="-6.5211373549578475"><ele>1225.0</ele><time>2026-03-22T13:49:42.913Z</time></trkpt><trkpt lat="30.449687116872106" lon="-6.521056726348539"><ele>1225.0</ele><time>2026-03-22T13:49:43.913Z</time></trkpt><trkpt lat="30.44967198545937" lon="-6.520980050789866"><ele>1225.0</ele><time>2026-03-22T13:49:44.913Z</time></trkpt><trkpt lat="30.449651911688502" lon="-6.520876405705855"><ele>1225.0</ele><time>2026-03-22T13:49:46.913Z</time></trkpt><trkpt lat="30.44963710509971" lon="-6.520786677541618"><ele>1225.0</ele><time>2026-03-22T13:49:48.913Z</time></trkpt><trkpt lat="30.44960999441836" lon="-6.520658526737175"><ele>1225.0</ele><time>2026-03-22T13:49:50.913Z</time></trkpt><trkpt lat="30.449556316625937" lon="-6.52060035381214"><ele>1225.0</ele><time>2026-03-22T13:49:51.913Z</time></trkpt><trkpt lat="30.449524841985923" lon="-6.5205188816952475"><ele>1225.0</ele><time>2026-03-22T13:49:52.913Z</time></trkpt><trkpt lat="30.44950003204715" lon="-6.520424187402778"><ele>1225.0</ele><time>2026-03-22T13:49:53.913Z</time></trkpt><trkpt lat="30.449466927108492" lon="-6.520335513235693"><ele>1225.0</ele><time>2026-03-22T13:49:54.913Z</time></trkpt><trkpt lat="30.449438617533055" lon="-6.520233928842457"><ele>1225.0</ele><time>2026-03-22T13:49:55.913Z</time></trkpt><trkpt lat="30.4494238098483" lon="-6.520126756348397"><ele>1225.0</ele><time>2026-03-22T13:49:56.913Z</time></trkpt><trkpt lat="30.44941226129819" lon="-6.520011948930136"><ele>1225.6</ele><time>2026-03-22T13:49:57.913Z</time></trkpt><trkpt lat="30.44940303893326" lon="-6.519893547848434"><ele>1226.2</ele><time>2026-03-22T13:49:58.913Z</time></trkpt><trkpt lat="30.449386192791604" lon="-6.519783431997888"><ele>1226.8</ele><time>2026-03-22T13:49:59.913Z</time></trkpt><trkpt lat="30.449361874840395" lon="-6.519691060897316"><ele>1227.4</ele><time>2026-03-22T13:50:00.913Z</time></trkpt><trkpt lat="30.44933881672017" lon="-6.519618318044787"><ele>1228.0</ele><time>2026-03-22T13:50:01.913Z</time></trkpt><trkpt lat="30.44929357532841" lon="-6.519485664348472"><ele>1228.3333333333333</ele><time>2026-03-22T13:50:03.913Z</time></trkpt><trkpt lat="30.449266550469762" lon="-6.5194039827817285"><ele>1228.6666666666665</ele><time>2026-03-22T13:50:04.913Z</time></trkpt><trkpt lat="30.449232461280324" lon="-6.519315769389549"><ele>1229.0</ele><time>2026-03-22T13:50:05.913Z</time></trkpt><trkpt lat="30.449196437283277" lon="-6.519223471471387"><ele>1229.3333333333333</ele><time>2026-03-22T13:50:06.913Z</time></trkpt><trkpt lat="30.449165573604255" lon="-6.519125059469091"><ele>1229.6666666666667</ele><time>2026-03-22T13:50:07.913Z</time></trkpt><trkpt lat="30.449138958127865" lon="-6.519013848363504"><ele>1230.0</ele><time>2026-03-22T13:50:08.913Z</time></trkpt><trkpt lat="30.449115776965428" lon="-6.518909408474883"><ele>1230.0</ele><time>2026-03-22T13:50:09.913Z</time></trkpt><trkpt lat="30.44910475885949" lon="-6.518830878756759"><ele>1230.0</ele><time>2026-03-22T13:50:10.913Z</time></trkpt><trkpt lat="30.449075160830105" lon="-6.518721590021504"><ele>1230.0</ele><time>2026-03-22T13:50:12.913Z</time></trkpt><trkpt lat="30.449012659109147" lon="-6.518673303527111"><ele>1230.0</ele><time>2026-03-22T13:50:14.913Z</time></trkpt><trkpt lat="30.448933810521932" lon="-6.518702675234611"><ele>1230.0</ele><time>2026-03-22T13:50:16.913Z</time></trkpt><trkpt lat="30.44887837152907" lon="-6.518779933812662"><ele>1230.0</ele><time>2026-03-22T13:50:18.913Z</time></trkpt><trkpt lat="30.448836104594548" lon="-6.518834280223052"><ele>1229.3333333333333</ele><time>2026-03-22T13:50:19.913Z</time></trkpt><trkpt lat="30.448731582864248" lon="-6.518898775736986"><ele>1228.6666666666667</ele><time>2026-03-22T13:50:21.913Z</time></trkpt><trkpt lat="30.44867419281205" lon="-6.518939010114485"><ele>1228.0</ele><time>2026-03-22T13:50:22.913Z</time></trkpt><trkpt lat="30.448611002452665" lon="-6.518977413938293"><ele>1227.3333333333335</ele><time>2026-03-22T13:50:23.913Z</time></trkpt><trkpt lat="30.448545704057665" lon="-6.519013860089826"><ele>1226.6666666666667</ele><time>2026-03-22T13:50:24.913Z</time></trkpt><trkpt lat="30.44848066625307" lon="-6.5190552134677135"><ele>1226.0</ele><time>2026-03-22T13:50:25.913Z</time></trkpt><trkpt lat="30.44842212260207" lon="-6.519109705824327"><ele>1226.0</ele><time>2026-03-22T13:50:26.913Z</time></trkpt><trkpt lat="30.448363501384954" lon="-6.519175996119372"><ele>1226.0</ele><time>2026-03-22T13:50:27.913Z</time></trkpt><trkpt lat="30.44829990911848" lon="-6.519257485187506"><ele>1226.0</ele><time>2026-03-22T13:50:28.913Z</time></trkpt><trkpt lat="30.44821600273484" lon="-6.5193604512082794"><ele>1226.0</ele><time>2026-03-22T13:50:29.913Z</time></trkpt><trkpt lat="30.44812535848453" lon="-6.519473059607907"><ele>1226.0</ele><time>2026-03-22T13:50:30.913Z</time></trkpt><trkpt lat="30.448057551542192" lon="-6.519572962806982"><ele>1226.0</ele><time>2026-03-22T13:50:31.913Z</time></trkpt><trkpt lat="30.44799390296413" lon="-6.519624052117932"><ele>1226.0</ele><time>2026-03-22T13:50:32.913Z</time></trkpt><trkpt lat="30.447914179916005" lon="-6.519645072040152"><ele>1226.0</ele><time>2026-03-22T13:50:33.913Z</time></trkpt><trkpt lat="30.447828022445417" lon="-6.519646260337155"><ele>1226.0</ele><time>2026-03-22T13:50:34.913Z</time></trkpt><trkpt lat="30.44773156360067" lon="-6.519646859606378"><ele>1226.0</ele><time>2026-03-22T13:50:35.913Z</time></trkpt><trkpt lat="30.447636769045005" lon="-6.519655827638623"><ele>1226.0</ele><time>2026-03-22T13:50:36.913Z</time></trkpt><trkpt lat="30.4475473640251" lon="-6.5196942439963"><ele>1226.2</ele><time>2026-03-22T13:50:37.913Z</time></trkpt><trkpt lat="30.447472429227588" lon="-6.519762449358329"><ele>1226.3999999999999</ele><time>2026-03-22T13:50:38.913Z</time></trkpt><trkpt lat="30.44740969891988" lon="-6.519844843488162"><ele>1226.6</ele><time>2026-03-22T13:50:39.913Z</time></trkpt><trkpt lat="30.44731816900707" lon="-6.519923174993261"><ele>1226.8</ele><time>2026-03-22T13:50:40.913Z</time></trkpt><trkpt lat="30.447209730720882" lon="-6.519984006711925"><ele>1227.0</ele><time>2026-03-22T13:50:41.913Z</time></trkpt><trkpt lat="30.447104153920712" lon="-6.520051970288762"><ele>1227.0</ele><time>2026-03-22T13:50:42.913Z</time></trkpt><trkpt lat="30.447025126222965" lon="-6.520120570986437"><ele>1227.0</ele><time>2026-03-22T13:50:43.913Z</time></trkpt><trkpt lat="30.44694403377821" lon="-6.520187090723624"><ele>1227.0</ele><time>2026-03-22T13:50:44.913Z</time></trkpt><trkpt lat="30.44687239960097" lon="-6.5202587945624755"><ele>1227.0</ele><time>2026-03-22T13:50:45.913Z</time></trkpt><trkpt lat="30.44679927749864" lon="-6.5203262008886975"><ele>1227.0</ele><time>2026-03-22T13:50:46.913Z</time></trkpt><trkpt lat="30.446723483156816" lon="-6.520395063555857"><ele>1227.0</ele><time>2026-03-22T13:50:47.913Z</time></trkpt><trkpt lat="30.446653954850266" lon="-6.520459702635362"><ele>1227.0</ele><time>2026-03-22T13:50:48.913Z</time></trkpt><trkpt lat="30.44659461022226" lon="-6.5205137967973545"><ele>1227.0</ele><time>2026-03-22T13:50:49.913Z</time></trkpt><trkpt lat="30.446507667990964" lon="-6.520552142286186"><ele>1227.0</ele><time>2026-03-22T13:50:51.913Z</time></trkpt><trkpt lat="30.446442205703885" lon="-6.520441288546848"><ele>1227.0</ele><time>2026-03-22T13:50:53.913Z</time></trkpt><trkpt lat="30.446394596916694" lon="-6.5203584555503316"><ele>1227.0</ele><time>2026-03-22T13:50:54.913Z</time></trkpt><trkpt lat="30.44634483754886" lon="-6.520296715746164"><ele>1227.0</ele><time>2026-03-22T13:50:55.913Z</time></trkpt><trkpt lat="30.446280595709666" lon="-6.520232782696474"><ele>1227.0</ele><time>2026-03-22T13:50:56.912Z</time></trkpt><trkpt lat="30.446211123551954" lon="-6.520152485426577"><ele>1227.0</ele><time>2026-03-22T13:50:57.912Z</time></trkpt><trkpt lat="30.446132486486423" lon="-6.520072470852485"><ele>1227.0</ele><time>2026-03-22T13:50:58.913Z</time></trkpt><trkpt lat="30.446066590354228" lon="-6.519992684228302"><ele>1227.2</ele><time>2026-03-22T13:50:59.912Z</time></trkpt><trkpt lat="30.446017006362997" lon="-6.519926887705227"><ele>1227.4</ele><time>2026-03-22T13:51:00.912Z</time></trkpt><trkpt lat="30.44592376341347" lon="-6.519809969185013"><ele>1227.6</ele><time>2026-03-22T13:51:02.913Z</time></trkpt><trkpt lat="30.445855171766585" lon="-6.519730994256203"><ele>1227.8</ele><time>2026-03-22T13:51:03.913Z</time></trkpt><trkpt lat="30.4457736977735" lon="-6.519621853235485"><ele>1228.0</ele><time>2026-03-22T13:51:04.913Z</time></trkpt><trkpt lat="30.445701779680622" lon="-6.519504844224965"><ele>1228.3333333333333</ele><time>2026-03-22T13:51:05.912Z</time></trkpt><trkpt lat="30.445624074912065" lon="-6.5193699637904245"><ele>1228.6666666666667</ele><time>2026-03-22T13:51:06.912Z</time></trkpt><trkpt lat="30.44552817941843" lon="-6.519212717002605"><ele>1229.0</ele><time>2026-03-22T13:51:07.913Z</time></trkpt><trkpt lat="30.445420565007723" lon="-6.519014565209731"><ele>1229.0</ele><time>2026-03-22T13:51:08.912Z</time></trkpt><trkpt lat="30.44530899679544" lon="-6.518809504735192"><ele>1229.0</ele><time>2026-03-22T13:51:09.912Z</time></trkpt><trkpt lat="30.44518676942727" lon="-6.518647640492454"><ele>1229.0</ele><time>2026-03-22T13:51:10.912Z</time></trkpt><trkpt lat="30.44509588280638" lon="-6.5185145392794865"><ele>1229.25</ele><time>2026-03-22T13:51:11.912Z</time></trkpt><trkpt lat="30.445021576926617" lon="-6.5183801112615045"><ele>1229.5</ele><time>2026-03-22T13:51:12.912Z</time></trkpt><trkpt lat="30.44494401628098" lon="-6.518250495979533"><ele>1229.75</ele><time>2026-03-22T13:51:13.912Z</time></trkpt><trkpt lat="30.44486349763357" lon="-6.518095880404848"><ele>1230.0</ele><time>2026-03-22T13:51:14.912Z</time></trkpt><trkpt lat="30.44476842074082" lon="-6.517925472074447"><ele>1230.3333333333333</ele><time>2026-03-22T13:51:15.912Z</time></trkpt><trkpt lat="30.444638425965387" lon="-6.517746194524885"><ele>1230.6666666666665</ele><time>2026-03-22T13:51:16.912Z</time></trkpt><trkpt lat="30.444532129295926" lon="-6.517592633195352"><ele>1231.0</ele><time>2026-03-22T13:51:17.912Z</time></trkpt><trkpt lat="30.44445407109006" lon="-6.517464307297944"><ele>1231.0</ele><time>2026-03-22T13:51:18.912Z</time></trkpt><trkpt lat="30.44438121711405" lon="-6.517341940323984"><ele>1231.0</ele><time>2026-03-22T13:51:19.912Z</time></trkpt><trkpt lat="30.444314222973407" lon="-6.517221585689059"><ele>1231.0</ele><time>2026-03-22T13:51:20.912Z</time></trkpt><trkpt lat="30.444237671907985" lon="-6.517104096988476"><ele>1231.0</ele><time>2026-03-22T13:51:21.912Z</time></trkpt><trkpt lat="30.44415827639679" lon="-6.516988822928831"><ele>1231.3999999999999</ele><time>2026-03-22T13:51:22.912Z</time></trkpt><trkpt lat="30.444077109642368" lon="-6.516867989142803"><ele>1231.8</ele><time>2026-03-22T13:51:23.912Z</time></trkpt><trkpt lat="30.444006536857366" lon="-6.516759711317258"><ele>1232.1999999999998</ele><time>2026-03-22T13:51:24.912Z</time></trkpt><trkpt lat="30.443945534483273" lon="-6.5166664281828295"><ele>1232.6</ele><time>2026-03-22T13:51:25.912Z</time></trkpt><trkpt lat="30.443889151993694" lon="-6.516579976680624"><ele>1233.0</ele><time>2026-03-22T13:51:26.912Z</time></trkpt><trkpt lat="30.443826086109787" lon="-6.516476950885291"><ele>1233.0</ele><time>2026-03-22T13:51:27.912Z</time></trkpt><trkpt lat="30.443751730952524" lon="-6.516352248597246"><ele>1233.0</ele><time>2026-03-22T13:51:28.912Z</time></trkpt><trkpt lat="30.443661885829147" lon="-6.516217346106225"><ele>1233.0</ele><time>2026-03-22T13:51:29.912Z</time></trkpt><trkpt lat="30.44357782810452" lon="-6.516068836747693"><ele>1233.0</ele><time>2026-03-22T13:51:30.912Z</time></trkpt><trkpt lat="30.443494031698453" lon="-6.5159126395979206"><ele>1233.0</ele><time>2026-03-22T13:51:31.912Z</time></trkpt><trkpt lat="30.443413302731518" lon="-6.515764338430211"><ele>1233.0</ele><time>2026-03-22T13:51:32.912Z</time></trkpt><trkpt lat="30.44333683314378" lon="-6.515633876775657"><ele>1233.0</ele><time>2026-03-22T13:51:33.912Z</time></trkpt><trkpt lat="30.443269409132125" lon="-6.515529443884371"><ele>1233.0</ele><time>2026-03-22T13:51:34.912Z</time></trkpt><trkpt lat="30.443204566841196" lon="-6.515436286373597"><ele>1233.6</ele><time>2026-03-22T13:51:35.912Z</time></trkpt><trkpt lat="30.443146911226957" lon="-6.515342845713967"><ele>1234.1999999999998</ele><time>2026-03-22T13:51:36.912Z</time></trkpt><trkpt lat="30.44308915076931" lon="-6.515256722256776"><ele>1234.8</ele><time>2026-03-22T13:51:37.912Z</time></trkpt><trkpt lat="30.44301947594446" lon="-6.515173832508776"><ele>1235.3999999999999</ele><time>2026-03-22T13:51:38.912Z</time></trkpt><trkpt lat="30.442933409106132" lon="-6.5151138360926115"><ele>1236.0</ele><time>2026-03-22T13:51:39.912Z</time></trkpt><trkpt lat="30.44282825404563" lon="-6.515072044649904"><ele>1236.6</ele><time>2026-03-22T13:51:40.912Z</time></trkpt><trkpt lat="30.442733494945607" lon="-6.515022559585707"><ele>1237.1999999999998</ele><time>2026-03-22T13:51:41.912Z</time></trkpt><trkpt lat="30.44262542551617" lon="-6.514963796179772"><ele>1237.8000000000002</ele><time>2026-03-22T13:51:42.912Z</time></trkpt><trkpt lat="30.44251369271852" lon="-6.514910370928684"><ele>1238.4</ele><time>2026-03-22T13:51:43.912Z</time></trkpt><trkpt lat="30.442419337368783" lon="-6.514858602142946"><ele>1239.0</ele><time>2026-03-22T13:51:44.912Z</time></trkpt><trkpt lat="30.442322467433545" lon="-6.5148072623952515"><ele>1239.0</ele><time>2026-03-22T13:51:45.912Z</time></trkpt><trkpt lat="30.44223758536631" lon="-6.514761989988502"><ele>1239.0</ele><time>2026-03-22T13:51:46.912Z</time></trkpt><trkpt lat="30.442162875122765" lon="-6.514723524851472"><ele>1239.0</ele><time>2026-03-22T13:51:47.912Z</time></trkpt><trkpt lat="30.442097653306107" lon="-6.514698736270583"><ele>1239.0</ele><time>2026-03-22T13:51:48.912Z</time></trkpt><trkpt lat="30.44200234798553" lon="-6.5146812582167035"><ele>1239.0</ele><time>2026-03-22T13:51:49.912Z</time></trkpt><trkpt lat="30.441913776507253" lon="-6.514669399770449"><ele>1239.0</ele><time>2026-03-22T13:51:50.912Z</time></trkpt><trkpt lat="30.441831680482156" lon="-6.514642061734338"><ele>1238.4</ele><time>2026-03-22T13:51:51.912Z</time></trkpt><trkpt lat="30.441759983108152" lon="-6.514612957147059"><ele>1237.8000000000002</ele><time>2026-03-22T13:51:52.912Z</time></trkpt><trkpt lat="30.441687746627107" lon="-6.51459221496145"><ele>1237.1999999999998</ele><time>2026-03-22T13:51:53.912Z</time></trkpt><trkpt lat="30.44160500703889" lon="-6.514562707889747"><ele>1236.6</ele><time>2026-03-22T13:51:54.912Z</time></trkpt><trkpt lat="30.441505421342054" lon="-6.514533371596967"><ele>1236.0</ele><time>2026-03-22T13:51:55.912Z</time></trkpt><trkpt lat="30.441400289406243" lon="-6.514493186297597"><ele>1236.0</ele><time>2026-03-22T13:51:56.912Z</time></trkpt><trkpt lat="30.441313638057853" lon="-6.514450295018935"><ele>1236.0</ele><time>2026-03-22T13:51:57.912Z</time></trkpt><trkpt lat="30.44123116751177" lon="-6.514403376709459"><ele>1236.0</ele><time>2026-03-22T13:51:58.912Z</time></trkpt><trkpt lat="30.44113160491268" lon="-6.514352775677321"><ele>1236.0</ele><time>2026-03-22T13:51:59.912Z</time></trkpt><trkpt lat="30.441020741612316" lon="-6.514281330669691"><ele>1236.0</ele><time>2026-03-22T13:52:00.912Z</time></trkpt><trkpt lat="30.440911078130018" lon="-6.5142074547958675"><ele>1236.25</ele><time>2026-03-22T13:52:01.912Z</time></trkpt><trkpt lat="30.440806031960435" lon="-6.51412894590963"><ele>1236.5</ele><time>2026-03-22T13:52:02.912Z</time></trkpt><trkpt lat="30.44069072852431" lon="-6.51404953969693"><ele>1236.75</ele><time>2026-03-22T13:52:03.912Z</time></trkpt><trkpt lat="30.440596707694375" lon="-6.513976052777895"><ele>1237.0</ele><time>2026-03-22T13:52:04.912Z</time></trkpt><trkpt lat="30.440501505913897" lon="-6.5139211780891815"><ele>1236.75</ele><time>2026-03-22T13:52:05.912Z</time></trkpt><trkpt lat="30.44039390461594" lon="-6.513859472762333"><ele>1236.5</ele><time>2026-03-22T13:52:06.912Z</time></trkpt><trkpt lat="30.44029305261203" lon="-6.513786125754558"><ele>1236.25</ele><time>2026-03-22T13:52:07.912Z</time></trkpt><trkpt lat="30.440182041391683" lon="-6.513709065124332"><ele>1236.0</ele><time>2026-03-22T13:52:08.912Z</time></trkpt><trkpt lat="30.44006498450065" lon="-6.513626166083391"><ele>1236.0</ele><time>2026-03-22T13:52:09.912Z</time></trkpt><trkpt lat="30.439947136332584" lon="-6.513545327033765"><ele>1236.0</ele><time>2026-03-22T13:52:10.912Z</time></trkpt><trkpt lat="30.439835876260464" lon="-6.513462198641659"><ele>1236.0</ele><time>2026-03-22T13:52:11.912Z</time></trkpt><trkpt lat="30.439740822136617" lon="-6.5133557277705885"><ele>1236.0</ele><time>2026-03-22T13:52:12.912Z</time></trkpt><trkpt lat="30.439656432308166" lon="-6.5132161029939954"><ele>1236.0</ele><time>2026-03-22T13:52:13.912Z</time></trkpt><trkpt lat="30.439566327323977" lon="-6.5130755905117415"><ele>1236.0</ele><time>2026-03-22T13:52:14.912Z</time></trkpt><trkpt lat="30.439490903197463" lon="-6.5129461007637355"><ele>1236.0</ele><time>2026-03-22T13:52:15.912Z</time></trkpt><trkpt lat="30.439405034572225" lon="-6.512824369031091"><ele>1236.0</ele><time>2026-03-22T13:52:16.912Z</time></trkpt><trkpt lat="30.439316578755722" lon="-6.512699270814801"><ele>1236.25</ele><time>2026-03-22T13:52:17.912Z</time></trkpt><trkpt lat="30.43922821820097" lon="-6.512566517109766"><ele>1236.5</ele><time>2026-03-22T13:52:18.912Z</time></trkpt><trkpt lat="30.43913930389337" lon="-6.512431952354498"><ele>1236.75</ele><time>2026-03-22T13:52:19.912Z</time></trkpt><trkpt lat="30.439048899542875" lon="-6.512290493332181"><ele>1237.0</ele><time>2026-03-22T13:52:20.912Z</time></trkpt><trkpt lat="30.43896498047154" lon="-6.512147348223447"><ele>1237.0</ele><time>2026-03-22T13:52:21.912Z</time></trkpt><trkpt lat="30.43887427945783" lon="-6.512003497662999"><ele>1237.0</ele><time>2026-03-22T13:52:22.912Z</time></trkpt><trkpt lat="30.43878394968903" lon="-6.51185501112366"><ele>1237.0</ele><time>2026-03-22T13:52:23.912Z</time></trkpt><trkpt lat="30.438692709583528" lon="-6.511714489980505"><ele>1237.0</ele><time>2026-03-22T13:52:24.912Z</time></trkpt><trkpt lat="30.438606762386407" lon="-6.511575018300116"><ele>1237.0</ele><time>2026-03-22T13:52:25.912Z</time></trkpt><trkpt lat="30.438513669224054" lon="-6.5114334334217325"><ele>1237.0</ele><time>2026-03-22T13:52:26.912Z</time></trkpt><trkpt lat="30.438418182668958" lon="-6.511293927285117"><ele>1237.6666666666665</ele><time>2026-03-22T13:52:27.912Z</time></trkpt><trkpt lat="30.43831623805687" lon="-6.511143231417505"><ele>1238.3333333333333</ele><time>2026-03-22T13:52:28.912Z</time></trkpt><trkpt lat="30.43821536008371" lon="-6.510989838949894"><ele>1239.0</ele><time>2026-03-22T13:52:29.912Z</time></trkpt><trkpt lat="30.438122602054353" lon="-6.510856695385599"><ele>1239.0</ele><time>2026-03-22T13:52:30.912Z</time></trkpt><trkpt lat="30.438022534715113" lon="-6.510727271577593"><ele>1239.0</ele><time>2026-03-22T13:52:31.912Z</time></trkpt><trkpt lat="30.437909776843743" lon="-6.510594522945661"><ele>1239.0</ele><time>2026-03-22T13:52:32.912Z</time></trkpt><trkpt lat="30.43778720715202" lon="-6.510456488537135"><ele>1238.75</ele><time>2026-03-22T13:52:33.911Z</time></trkpt><trkpt lat="30.437672623993286" lon="-6.5103299070116885"><ele>1238.5</ele><time>2026-03-22T13:52:34.911Z</time></trkpt><trkpt lat="30.43757770824599" lon="-6.510214262344177"><ele>1238.25</ele><time>2026-03-22T13:52:35.911Z</time></trkpt><trkpt lat="30.43750663316975" lon="-6.510088890908458"><ele>1238.0</ele><time>2026-03-22T13:52:36.911Z</time></trkpt><trkpt lat="30.437451894550176" lon="-6.509947766616341"><ele>1238.0</ele><time>2026-03-22T13:52:37.911Z</time></trkpt><trkpt lat="30.437409709316224" lon="-6.509823938190456"><ele>1238.0</ele><time>2026-03-22T13:52:38.911Z</time></trkpt><trkpt lat="30.43741697741039" lon="-6.509717446167733"><ele>1238.0</ele><time>2026-03-22T13:52:39.911Z</time></trkpt><trkpt lat="30.437463238915992" lon="-6.509605730722265"><ele>1238.0</ele><time>2026-03-22T13:52:40.911Z</time></trkpt><trkpt lat="30.4375286317171" lon="-6.509466253928266"><ele>1238.3333333333335</ele><time>2026-03-22T13:52:41.911Z</time></trkpt><trkpt lat="30.43756864802895" lon="-6.509286111225115"><ele>1238.6666666666667</ele><time>2026-03-22T13:52:42.911Z</time></trkpt><trkpt lat="30.43760542867264" lon="-6.509095991549889"><ele>1239.0</ele><time>2026-03-22T13:52:43.911Z</time></trkpt><trkpt lat="30.437653075435513" lon="-6.5089213099539505"><ele>1239.0</ele><time>2026-03-22T13:52:44.911Z</time></trkpt><trkpt lat="30.43770182264928" lon="-6.5087832483318895"><ele>1239.0</ele><time>2026-03-22T13:52:45.911Z</time></trkpt><trkpt lat="30.437733267925214" lon="-6.50864940996463"><ele>1239.0</ele><time>2026-03-22T13:52:46.911Z</time></trkpt><trkpt lat="30.43773696204101" lon="-6.508530015482233"><ele>1239.0</ele><time>2026-03-22T13:52:47.911Z</time></trkpt><trkpt lat="30.43770737154416" lon="-6.508418146944684"><ele>1239.6666666666667</ele><time>2026-03-22T13:52:48.911Z</time></trkpt><trkpt lat="30.437637339224793" lon="-6.5082858600280655"><ele>1240.3333333333335</ele><time>2026-03-22T13:52:49.911Z</time></trkpt><trkpt lat="30.43754216649374" lon="-6.508158588248328"><ele>1241.0</ele><time>2026-03-22T13:52:50.911Z</time></trkpt><trkpt lat="30.437407972029288" lon="-6.508036184963076"><ele>1241.0</ele><time>2026-03-22T13:52:51.911Z</time></trkpt><trkpt lat="30.437290961278887" lon="-6.507912351810095"><ele>1241.0</ele><time>2026-03-22T13:52:52.911Z</time></trkpt><trkpt lat="30.43716804012825" lon="-6.507827512166281"><ele>1241.0</ele><time>2026-03-22T13:52:53.911Z</time></trkpt><trkpt lat="30.43705610153239" lon="-6.507731960724723"><ele>1241.0</ele><time>2026-03-22T13:52:54.911Z</time></trkpt><trkpt lat="30.436957438760814" lon="-6.507641305121264"><ele>1240.6666666666667</ele><time>2026-03-22T13:52:55.911Z</time></trkpt><trkpt lat="30.43685329668098" lon="-6.5075508228391055"><ele>1240.3333333333333</ele><time>2026-03-22T13:52:56.911Z</time></trkpt><trkpt lat="30.436723314796154" lon="-6.507443122608293"><ele>1240.0</ele><time>2026-03-22T13:52:57.911Z</time></trkpt><trkpt lat="30.436587526993094" lon="-6.507336984230222"><ele>1240.0</ele><time>2026-03-22T13:52:58.911Z</time></trkpt><trkpt lat="30.436460907434004" lon="-6.507237129981859"><ele>1240.0</ele><time>2026-03-22T13:52:59.911Z</time></trkpt><trkpt lat="30.436349975919782" lon="-6.507148518813743"><ele>1240.0</ele><time>2026-03-22T13:53:00.911Z</time></trkpt><trkpt lat="30.436254696539223" lon="-6.507053464763301"><ele>1240.0</ele><time>2026-03-22T13:53:01.912Z</time></trkpt><trkpt lat="30.436162178069853" lon="-6.506958070749719"><ele>1239.0</ele><time>2026-03-22T13:53:02.912Z</time></trkpt><trkpt lat="30.436072908575472" lon="-6.506860256587097"><ele>1238.0</ele><time>2026-03-22T13:53:03.912Z</time></trkpt><trkpt lat="30.43597852084973" lon="-6.506751419267179"><ele>1237.0</ele><time>2026-03-22T13:53:04.912Z</time></trkpt><trkpt lat="30.435872409392193" lon="-6.506651745392101"><ele>1236.0</ele><time>2026-03-22T13:53:05.912Z</time></trkpt><trkpt lat="30.435756342407032" lon="-6.506583587839749"><ele>1236.0</ele><time>2026-03-22T13:53:06.912Z</time></trkpt><trkpt lat="30.43562140827656" lon="-6.5065433980340375"><ele>1236.0</ele><time>2026-03-22T13:53:07.912Z</time></trkpt><trkpt lat="30.435518221296924" lon="-6.506483770883972"><ele>1236.0</ele><time>2026-03-22T13:53:08.912Z</time></trkpt><trkpt lat="30.435442606716684" lon="-6.506363936815069"><ele>1236.0</ele><time>2026-03-22T13:53:09.912Z</time></trkpt><trkpt lat="30.43536698908517" lon="-6.506221556928262"><ele>1237.0</ele><time>2026-03-22T13:53:10.911Z</time></trkpt><trkpt lat="30.435283076979832" lon="-6.50611944621949"><ele>1238.0</ele><time>2026-03-22T13:53:11.911Z</time></trkpt><trkpt lat="30.435205818288903" lon="-6.506045349258187"><ele>1239.0</ele><time>2026-03-22T13:53:12.911Z</time></trkpt><trkpt lat="30.435139592624903" lon="-6.505978765940622"><ele>1240.0</ele><time>2026-03-22T13:53:13.912Z</time></trkpt><trkpt lat="30.435089944528375" lon="-6.505911432558918"><ele>1241.0</ele><time>2026-03-22T13:53:14.912Z</time></trkpt><trkpt lat="30.43502561995256" lon="-6.505852150230878"><ele>1241.0</ele><time>2026-03-22T13:53:15.912Z</time></trkpt><trkpt lat="30.434955711127266" lon="-6.50578477287103"><ele>1241.0</ele><time>2026-03-22T13:53:16.912Z</time></trkpt><trkpt lat="30.434896623421583" lon="-6.50571130117868"><ele>1241.0</ele><time>2026-03-22T13:53:17.912Z</time></trkpt><trkpt lat="30.43484436307401" lon="-6.505618716665752"><ele>1241.0</ele><time>2026-03-22T13:53:18.912Z</time></trkpt><trkpt lat="30.434794252956113" lon="-6.505518123861542"><ele>1241.0</ele><time>2026-03-22T13:53:19.912Z</time></trkpt><trkpt lat="30.43473043147422" lon="-6.505403027535869"><ele>1242.0</ele><time>2026-03-22T13:53:20.912Z</time></trkpt><trkpt lat="30.4346587917551" lon="-6.50528274008446"><ele>1243.0</ele><time>2026-03-22T13:53:21.912Z</time></trkpt><trkpt lat="30.43457706301912" lon="-6.505146636002955"><ele>1244.0</ele><time>2026-03-22T13:53:22.912Z</time></trkpt><trkpt lat="30.43448850703015" lon="-6.504988460410252"><ele>1245.0</ele><time>2026-03-22T13:53:23.912Z</time></trkpt><trkpt lat="30.4343975003081" lon="-6.504820706605159"><ele>1245.0</ele><time>2026-03-22T13:53:24.912Z</time></trkpt><trkpt lat="30.434316763598193" lon="-6.50464254177293"><ele>1245.0</ele><time>2026-03-22T13:53:25.912Z</time></trkpt><trkpt lat="30.4342220038119" lon="-6.504461627454657"><ele>1245.0</ele><time>2026-03-22T13:53:26.912Z</time></trkpt><trkpt lat="30.434134506260452" lon="-6.50428593184906"><ele>1246.3333333333333</ele><time>2026-03-22T13:53:27.912Z</time></trkpt><trkpt lat="30.434068500396343" lon="-6.504099784071625"><ele>1247.6666666666665</ele><time>2026-03-22T13:53:28.912Z</time></trkpt><trkpt lat="30.43400540762266" lon="-6.503865808470382"><ele>1249.0</ele><time>2026-03-22T13:53:29.912Z</time></trkpt><trkpt lat="30.433929686117516" lon="-6.503619456950089"><ele>1250.0</ele><time>2026-03-22T13:53:30.912Z</time></trkpt><trkpt lat="30.433823403115262" lon="-6.50338238623675"><ele>1251.0</ele><time>2026-03-22T13:53:31.912Z</time></trkpt><trkpt lat="30.43371008420085" lon="-6.503164853397942"><ele>1252.0</ele><time>2026-03-22T13:53:32.912Z</time></trkpt><trkpt lat="30.433601166080944" lon="-6.502962397353726"><ele>1253.0</ele><time>2026-03-22T13:53:33.912Z</time></trkpt><trkpt lat="30.43350371265172" lon="-6.502809544449746"><ele>1254.0</ele><time>2026-03-22T13:53:34.912Z</time></trkpt><trkpt lat="30.433415335780122" lon="-6.502677266944648"><ele>1255.0</ele><time>2026-03-22T13:53:35.912Z</time></trkpt><trkpt lat="30.43333082617864" lon="-6.502537619041753"><ele>1256.0</ele><time>2026-03-22T13:53:36.912Z</time></trkpt><trkpt lat="30.4332705702217" lon="-6.502382394756719"><ele>1257.0</ele><time>2026-03-22T13:53:37.912Z</time></trkpt><trkpt lat="30.433211348382912" lon="-6.502211443781144"><ele>1257.0</ele><time>2026-03-22T13:53:38.912Z</time></trkpt><trkpt lat="30.433159620160524" lon="-6.502052507314231"><ele>1257.0</ele><time>2026-03-22T13:53:39.912Z</time></trkpt><trkpt lat="30.43311480499493" lon="-6.50192742607927"><ele>1257.0</ele><time>2026-03-22T13:53:40.912Z</time></trkpt><trkpt lat="30.433041519856253" lon="-6.501845433140527"><ele>1257.0</ele><time>2026-03-22T13:53:41.912Z</time></trkpt><trkpt lat="30.432943216154584" lon="-6.501768403370308"><ele>1257.0</ele><time>2026-03-22T13:53:42.912Z</time></trkpt><trkpt lat="30.432806344427664" lon="-6.501659284061631"><ele>1257.0</ele><time>2026-03-22T13:53:43.912Z</time></trkpt><trkpt lat="30.43267794818325" lon="-6.501526114457843"><ele>1257.0</ele><time>2026-03-22T13:53:44.912Z</time></trkpt><trkpt lat="30.432558291080632" lon="-6.501420959532254"><ele>1257.0</ele><time>2026-03-22T13:53:45.912Z</time></trkpt><trkpt lat="30.43245116021225" lon="-6.501357489535153"><ele>1257.0</ele><time>2026-03-22T13:53:46.912Z</time></trkpt><trkpt lat="30.43235409966126" lon="-6.501308666782197"><ele>1257.0</ele><time>2026-03-22T13:53:47.912Z</time></trkpt><trkpt lat="30.432251176852763" lon="-6.501265714094421"><ele>1257.0</ele><time>2026-03-22T13:53:48.911Z</time></trkpt><trkpt lat="30.43213595150926" lon="-6.501246898426705"><ele>1254.75</ele><time>2026-03-22T13:53:49.911Z</time></trkpt><trkpt lat="30.43202271323957" lon="-6.501227374030896"><ele>1252.5</ele><time>2026-03-22T13:53:50.911Z</time></trkpt><trkpt lat="30.43188196207751" lon="-6.501195079090268"><ele>1250.25</ele><time>2026-03-22T13:53:51.911Z</time></trkpt><trkpt lat="30.431733262270548" lon="-6.501164081219339"><ele>1248.0</ele><time>2026-03-22T13:53:52.911Z</time></trkpt><trkpt lat="30.43159897466836" lon="-6.5011339084878035"><ele>1248.0</ele><time>2026-03-22T13:53:53.911Z</time></trkpt><trkpt lat="30.43147683058349" lon="-6.501110723941066"><ele>1248.0</ele><time>2026-03-22T13:53:54.911Z</time></trkpt><trkpt lat="30.43135713297595" lon="-6.501093757225199"><ele>1248.0</ele><time>2026-03-22T13:53:55.911Z</time></trkpt><trkpt lat="30.431234471649557" lon="-6.50107559692573"><ele>1248.0</ele><time>2026-03-22T13:53:56.911Z</time></trkpt><trkpt lat="30.431112453465907" lon="-6.501055601618163"><ele>1248.0</ele><time>2026-03-22T13:53:57.911Z</time></trkpt><trkpt lat="30.431000751281456" lon="-6.501024251235394"><ele>1248.0</ele><time>2026-03-22T13:53:58.911Z</time></trkpt><trkpt lat="30.430887057623902" lon="-6.500992867742192"><ele>1248.0</ele><time>2026-03-22T13:53:59.911Z</time></trkpt><trkpt lat="30.430791831568886" lon="-6.50095460476414"><ele>1248.0</ele><time>2026-03-22T13:54:00.911Z</time></trkpt><trkpt lat="30.430725063892375" lon="-6.500906988778486"><ele>1248.0</ele><time>2026-03-22T13:54:01.911Z</time></trkpt><trkpt lat="30.430676678653768" lon="-6.500818427886507"><ele>1248.0</ele><time>2026-03-22T13:54:02.911Z</time></trkpt><trkpt lat="30.430658213096912" lon="-6.500703809405161"><ele>1248.0</ele><time>2026-03-22T13:54:03.911Z</time></trkpt><trkpt lat="30.430663866688057" lon="-6.500563072906908"><ele>1248.0</ele><time>2026-03-22T13:54:04.911Z</time></trkpt><trkpt lat="30.430646070351198" lon="-6.500370977814161"><ele>1248.0</ele><time>2026-03-22T13:54:05.911Z</time></trkpt><trkpt lat="30.430592335366384" lon="-6.500184689144113"><ele>1248.25</ele><time>2026-03-22T13:54:06.911Z</time></trkpt><trkpt lat="30.430539893744864" lon="-6.50006241540678"><ele>1248.5</ele><time>2026-03-22T13:54:07.911Z</time></trkpt><trkpt lat="30.4304827269714" lon="-6.499934187142993"><ele>1248.75</ele><time>2026-03-22T13:54:08.911Z</time></trkpt><trkpt lat="30.43042695265447" lon="-6.4997921337384925"><ele>1249.0</ele><time>2026-03-22T13:54:09.911Z</time></trkpt><trkpt lat="30.430366525976552" lon="-6.49965078522876"><ele>1248.6000000000001</ele><time>2026-03-22T13:54:10.911Z</time></trkpt><trkpt lat="30.430329527900604" lon="-6.49953621258108"><ele>1248.2</ele><time>2026-03-22T13:54:11.911Z</time></trkpt><trkpt lat="30.430304838037735" lon="-6.499440190719085"><ele>1247.8000000000002</ele><time>2026-03-22T13:54:12.911Z</time></trkpt><trkpt lat="30.430273213130107" lon="-6.499343512451342"><ele>1247.4</ele><time>2026-03-22T13:54:13.911Z</time></trkpt><trkpt lat="30.43024217828853" lon="-6.499249259775403"><ele>1247.0</ele><time>2026-03-22T13:54:14.911Z</time></trkpt><trkpt lat="30.430188296729526" lon="-6.499131494933868"><ele>1247.0</ele><time>2026-03-22T13:54:15.911Z</time></trkpt><trkpt lat="30.43011891372722" lon="-6.498987113582495"><ele>1247.0</ele><time>2026-03-22T13:54:16.911Z</time></trkpt><trkpt lat="30.430031589706953" lon="-6.498809239893973"><ele>1247.0</ele><time>2026-03-22T13:54:17.911Z</time></trkpt><trkpt lat="30.429942562528897" lon="-6.498637186855759"><ele>1248.0</ele><time>2026-03-22T13:54:18.911Z</time></trkpt><trkpt lat="30.42984600023299" lon="-6.498511638623159"><ele>1249.0</ele><time>2026-03-22T13:54:19.911Z</time></trkpt><trkpt lat="30.42973518202197" lon="-6.498412644599534"><ele>1250.0</ele><time>2026-03-22T13:54:20.911Z</time></trkpt><trkpt lat="30.429602596673348" lon="-6.498291118132419"><ele>1250.0</ele><time>2026-03-22T13:54:21.911Z</time></trkpt><trkpt lat="30.42949583278599" lon="-6.4981601541644105"><ele>1250.0</ele><time>2026-03-22T13:54:22.911Z</time></trkpt><trkpt lat="30.429396177436715" lon="-6.49802711813154"><ele>1250.0</ele><time>2026-03-22T13:54:23.911Z</time></trkpt><trkpt lat="30.42929995896483" lon="-6.497885998465334"><ele>1250.0</ele><time>2026-03-22T13:54:24.911Z</time></trkpt><trkpt lat="30.429195740998434" lon="-6.49772457714065"><ele>1250.0</ele><time>2026-03-22T13:54:25.911Z</time></trkpt><trkpt lat="30.42910058206954" lon="-6.497575077705195"><ele>1250.0</ele><time>2026-03-22T13:54:26.911Z</time></trkpt><trkpt lat="30.429010578807944" lon="-6.497438571073293"><ele>1250.0</ele><time>2026-03-22T13:54:27.911Z</time></trkpt><trkpt lat="30.428925308272763" lon="-6.497314981736363"><ele>1250.0</ele><time>2026-03-22T13:54:28.911Z</time></trkpt><trkpt lat="30.428838616491056" lon="-6.497187484971169"><ele>1250.0</ele><time>2026-03-22T13:54:29.911Z</time></trkpt><trkpt lat="30.42875660228383" lon="-6.497028360343778"><ele>1250.0</ele><time>2026-03-22T13:54:30.911Z</time></trkpt><trkpt lat="30.42866599343732" lon="-6.4968535570626145"><ele>1250.6666666666667</ele><time>2026-03-22T13:54:31.911Z</time></trkpt><trkpt lat="30.42855233703181" lon="-6.496688586895129"><ele>1251.3333333333333</ele><time>2026-03-22T13:54:32.911Z</time></trkpt><trkpt lat="30.428449760574292" lon="-6.496542843225987"><ele>1252.0</ele><time>2026-03-22T13:54:33.911Z</time></trkpt><trkpt lat="30.4283662019371" lon="-6.496407666114053"><ele>1252.0</ele><time>2026-03-22T13:54:34.911Z</time></trkpt><trkpt lat="30.42828493285932" lon="-6.496272700325215"><ele>1252.0</ele><time>2026-03-22T13:54:35.911Z</time></trkpt><trkpt lat="30.428195908021223" lon="-6.496131560669107"><ele>1252.0</ele><time>2026-03-22T13:54:36.911Z</time></trkpt><trkpt lat="30.42810901148436" lon="-6.496004181085548"><ele>1252.0</ele><time>2026-03-22T13:54:37.911Z</time></trkpt><trkpt lat="30.428025166123746" lon="-6.495884893470561"><ele>1251.75</ele><time>2026-03-22T13:54:38.911Z</time></trkpt><trkpt lat="30.42794679788633" lon="-6.495775080887064"><ele>1251.5</ele><time>2026-03-22T13:54:39.911Z</time></trkpt><trkpt lat="30.42786626716854" lon="-6.495674165570309"><ele>1251.25</ele><time>2026-03-22T13:54:40.911Z</time></trkpt><trkpt lat="30.42777723533397" lon="-6.495582008221429"><ele>1251.0</ele><time>2026-03-22T13:54:41.911Z</time></trkpt><trkpt lat="30.427693395638475" lon="-6.495493706043279"><ele>1251.25</ele><time>2026-03-22T13:54:42.911Z</time></trkpt><trkpt lat="30.427614684861723" lon="-6.495413417936637"><ele>1251.5</ele><time>2026-03-22T13:54:43.911Z</time></trkpt><trkpt lat="30.427529996804378" lon="-6.495318128839578"><ele>1251.75</ele><time>2026-03-22T13:54:44.911Z</time></trkpt><trkpt lat="30.427449662418137" lon="-6.495195100363625"><ele>1252.0</ele><time>2026-03-22T13:54:45.911Z</time></trkpt><trkpt lat="30.427372684913323" lon="-6.49503670377708"><ele>1252.0</ele><time>2026-03-22T13:54:46.911Z</time></trkpt><trkpt lat="30.427289949845306" lon="-6.494901094398479"><ele>1252.0</ele><time>2026-03-22T13:54:47.911Z</time></trkpt><trkpt lat="30.42718364158213" lon="-6.494765088401763"><ele>1252.0</ele><time>2026-03-22T13:54:48.911Z</time></trkpt><trkpt lat="30.42705395808824" lon="-6.494631315424764"><ele>1252.6666666666665</ele><time>2026-03-22T13:54:49.911Z</time></trkpt><trkpt lat="30.426916522411613" lon="-6.494511783270582"><ele>1253.3333333333333</ele><time>2026-03-22T13:54:50.911Z</time></trkpt><trkpt lat="30.426800063983347" lon="-6.494404188832103"><ele>1254.0</ele><time>2026-03-22T13:54:51.911Z</time></trkpt><trkpt lat="30.42670832595798" lon="-6.49428872793827"><ele>1254.0</ele><time>2026-03-22T13:54:52.911Z</time></trkpt><trkpt lat="30.426611511605643" lon="-6.494172475059744"><ele>1254.0</ele><time>2026-03-22T13:54:53.911Z</time></trkpt><trkpt lat="30.426499685032436" lon="-6.494059230363765"><ele>1254.0</ele><time>2026-03-22T13:54:54.911Z</time></trkpt><trkpt lat="30.42638551581364" lon="-6.493945182353154"><ele>1254.0</ele><time>2026-03-22T13:54:55.911Z</time></trkpt><trkpt lat="30.426283373545072" lon="-6.493826327504952"><ele>1253.75</ele><time>2026-03-22T13:54:56.911Z</time></trkpt><trkpt lat="30.42619814235647" lon="-6.493703521391482"><ele>1253.5</ele><time>2026-03-22T13:54:57.911Z</time></trkpt><trkpt lat="30.42611221436457" lon="-6.493574381920125"><ele>1253.25</ele><time>2026-03-22T13:54:58.911Z</time></trkpt><trkpt lat="30.42603620994822" lon="-6.493442568009218"><ele>1253.0</ele><time>2026-03-22T13:54:59.911Z</time></trkpt><trkpt lat="30.425946136037442" lon="-6.493315185701881"><ele>1253.0</ele><time>2026-03-22T13:55:00.911Z</time></trkpt><trkpt lat="30.425856463163367" lon="-6.49319597376893"><ele>1253.0</ele><time>2026-03-22T13:55:01.911Z</time></trkpt><trkpt lat="30.425746859536037" lon="-6.4930762971673"><ele>1253.0</ele><time>2026-03-22T13:55:02.911Z</time></trkpt><trkpt lat="30.425654557296607" lon="-6.49297912666359"><ele>1253.0</ele><time>2026-03-22T13:55:03.911Z</time></trkpt><trkpt lat="30.425552211377454" lon="-6.4928706840503985"><ele>1253.75</ele><time>2026-03-22T13:55:04.911Z</time></trkpt><trkpt lat="30.425452458383184" lon="-6.492754013710769"><ele>1254.5</ele><time>2026-03-22T13:55:05.911Z</time></trkpt><trkpt lat="30.42534864179187" lon="-6.492629573477084"><ele>1255.25</ele><time>2026-03-22T13:55:06.911Z</time></trkpt><trkpt lat="30.42524749405764" lon="-6.492509682798465"><ele>1256.0</ele><time>2026-03-22T13:55:07.911Z</time></trkpt><trkpt lat="30.425144265829093" lon="-6.492391999165685"><ele>1256.0</ele><time>2026-03-22T13:55:08.911Z</time></trkpt><trkpt lat="30.425054797910246" lon="-6.492286100843407"><ele>1256.0</ele><time>2026-03-22T13:55:09.911Z</time></trkpt><trkpt lat="30.4249661491055" lon="-6.492176761971104"><ele>1256.0</ele><time>2026-03-22T13:55:10.911Z</time></trkpt><trkpt lat="30.42487522307028" lon="-6.492062833926625"><ele>1256.0</ele><time>2026-03-22T13:55:11.911Z</time></trkpt><trkpt lat="30.424790040335203" lon="-6.491958230375119"><ele>1255.75</ele><time>2026-03-22T13:55:12.911Z</time></trkpt><trkpt lat="30.42470286621632" lon="-6.491867011576319"><ele>1255.5</ele><time>2026-03-22T13:55:13.911Z</time></trkpt><trkpt lat="30.42461912075024" lon="-6.491771009509111"><ele>1255.25</ele><time>2026-03-22T13:55:14.911Z</time></trkpt><trkpt lat="30.42454408251658" lon="-6.4916587108918975"><ele>1255.0</ele><time>2026-03-22T13:55:15.911Z</time></trkpt><trkpt lat="30.424491961806684" lon="-6.491518831755087"><ele>1254.75</ele><time>2026-03-22T13:55:16.911Z</time></trkpt><trkpt lat="30.424458684611206" lon="-6.491355487899249"><ele>1254.5</ele><time>2026-03-22T13:55:17.911Z</time></trkpt><trkpt lat="30.42442682068561" lon="-6.491193512936895"><ele>1254.25</ele><time>2026-03-22T13:55:18.911Z</time></trkpt><trkpt lat="30.42439959394855" lon="-6.4910395819192654"><ele>1254.0</ele><time>2026-03-22T13:55:19.912Z</time></trkpt><trkpt lat="30.42437572207907" lon="-6.490900644401274"><ele>1254.0</ele><time>2026-03-22T13:55:20.911Z</time></trkpt><trkpt lat="30.42435103032521" lon="-6.490774087542759"><ele>1254.0</ele><time>2026-03-22T13:55:21.911Z</time></trkpt><trkpt lat="30.424351195872106" lon="-6.490659088259492"><ele>1254.0</ele><time>2026-03-22T13:55:22.911Z</time></trkpt><trkpt lat="30.424377540792367" lon="-6.490556041556595"><ele>1254.0</ele><time>2026-03-22T13:55:23.911Z</time></trkpt><trkpt lat="30.424415652823644" lon="-6.490467035907799"><ele>1254.0</ele><time>2026-03-22T13:55:24.911Z</time></trkpt><trkpt lat="30.424465807160963" lon="-6.4903807419092585"><ele>1254.0</ele><time>2026-03-22T13:55:25.911Z</time></trkpt><trkpt lat="30.424510408493546" lon="-6.490285416692945"><ele>1254.0</ele><time>2026-03-22T13:55:26.911Z</time></trkpt><trkpt lat="30.42455249313818" lon="-6.490192883692106"><ele>1254.0</ele><time>2026-03-22T13:55:27.911Z</time></trkpt><trkpt lat="30.424576175738036" lon="-6.4901066149566775"><ele>1254.0</ele><time>2026-03-22T13:55:28.911Z</time></trkpt><trkpt lat="30.424579030255014" lon="-6.4900238603184315"><ele>1254.0</ele><time>2026-03-22T13:55:29.911Z</time></trkpt><trkpt lat="30.42454934165507" lon="-6.48989256830177"><ele>1254.0</ele><time>2026-03-22T13:55:31.911Z</time></trkpt><trkpt lat="30.424523327767126" lon="-6.489817417004456"><ele>1254.0</ele><time>2026-03-22T13:55:32.911Z</time></trkpt><trkpt lat="30.42449323056946" lon="-6.489731575177954"><ele>1254.0</ele><time>2026-03-22T13:55:33.911Z</time></trkpt><trkpt lat="30.424462030773068" lon="-6.489641377182873"><ele>1254.0</ele><time>2026-03-22T13:55:34.911Z</time></trkpt><trkpt lat="30.42440108949408" lon="-6.48955048835059"><ele>1254.0</ele><time>2026-03-22T13:55:35.911Z</time></trkpt><trkpt lat="30.424355668073474" lon="-6.489447929038629"><ele>1254.0</ele><time>2026-03-22T13:55:36.911Z</time></trkpt><trkpt lat="30.42433146433567" lon="-6.489325326194584"><ele>1254.25</ele><time>2026-03-22T13:55:37.911Z</time></trkpt><trkpt lat="30.424326527952545" lon="-6.48919168021167"><ele>1254.5</ele><time>2026-03-22T13:55:38.911Z</time></trkpt><trkpt lat="30.424328428668638" lon="-6.4890382198627305"><ele>1254.75</ele><time>2026-03-22T13:55:39.911Z</time></trkpt><trkpt lat="30.424334174889616" lon="-6.4888681969308175"><ele>1255.0</ele><time>2026-03-22T13:55:40.911Z</time></trkpt><trkpt lat="30.42432961748495" lon="-6.488725983178075"><ele>1255.0</ele><time>2026-03-22T13:55:41.911Z</time></trkpt><trkpt lat="30.424330908164922" lon="-6.488605682213133"><ele>1255.0</ele><time>2026-03-22T13:55:42.911Z</time></trkpt><trkpt lat="30.424354551951193" lon="-6.488485949354696"><ele>1255.0</ele><time>2026-03-22T13:55:43.911Z</time></trkpt><trkpt lat="30.424392464341114" lon="-6.488359766417226"><ele>1255.0</ele><time>2026-03-22T13:55:44.911Z</time></trkpt><trkpt lat="30.424431775954677" lon="-6.488238892622872"><ele>1255.0</ele><time>2026-03-22T13:55:45.911Z</time></trkpt><trkpt lat="30.424470559671548" lon="-6.48810609854938"><ele>1255.0</ele><time>2026-03-22T13:55:46.911Z</time></trkpt><trkpt lat="30.424509936189537" lon="-6.487970135598482"><ele>1255.0</ele><time>2026-03-22T13:55:47.911Z</time></trkpt><trkpt lat="30.424544978807027" lon="-6.487836876885821"><ele>1255.0</ele><time>2026-03-22T13:55:48.911Z</time></trkpt><trkpt lat="30.424576057557207" lon="-6.487711422932201"><ele>1255.0</ele><time>2026-03-22T13:55:49.911Z</time></trkpt><trkpt lat="30.42460929536024" lon="-6.48759195307838"><ele>1255.2</ele><time>2026-03-22T13:55:50.911Z</time></trkpt><trkpt lat="30.424642595747745" lon="-6.487473892373046"><ele>1255.4</ele><time>2026-03-22T13:55:51.911Z</time></trkpt><trkpt lat="30.42467888926236" lon="-6.487368400625744"><ele>1255.6</ele><time>2026-03-22T13:55:52.911Z</time></trkpt><trkpt lat="30.42470725729382" lon="-6.487257494276443"><ele>1255.8</ele><time>2026-03-22T13:55:53.911Z</time></trkpt><trkpt lat="30.424734973471875" lon="-6.487144889633339"><ele>1256.0</ele><time>2026-03-22T13:55:54.911Z</time></trkpt><trkpt lat="30.424749088868587" lon="-6.487034653551946"><ele>1256.8333333333335</ele><time>2026-03-22T13:55:55.911Z</time></trkpt><trkpt lat="30.424747085048466" lon="-6.486935368044305"><ele>1257.6666666666667</ele><time>2026-03-22T13:55:56.911Z</time></trkpt><trkpt lat="30.42474269648705" lon="-6.486848410888301"><ele>1258.5</ele><time>2026-03-22T13:55:57.911Z</time></trkpt><trkpt lat="30.424728830828332" lon="-6.48674699657831"><ele>1259.3333333333333</ele><time>2026-03-22T13:55:58.911Z</time></trkpt><trkpt lat="30.424718361738748" lon="-6.4866517606740715"><ele>1260.1666666666665</ele><time>2026-03-22T13:55:59.911Z</time></trkpt><trkpt lat="30.424724538608373" lon="-6.486552342765772"><ele>1261.0</ele><time>2026-03-22T13:56:00.911Z</time></trkpt><trkpt lat="30.424705797666952" lon="-6.486436483277976"><ele>1261.0</ele><time>2026-03-22T13:56:01.911Z</time></trkpt><trkpt lat="30.424669745480422" lon="-6.486313395541636"><ele>1261.0</ele><time>2026-03-22T13:56:02.911Z</time></trkpt><trkpt lat="30.424633583846138" lon="-6.486192230104937"><ele>1261.0</ele><time>2026-03-22T13:56:03.911Z</time></trkpt><trkpt lat="30.424605825278192" lon="-6.486060694519715"><ele>1261.0</ele><time>2026-03-22T13:56:04.911Z</time></trkpt><trkpt lat="30.42459499482348" lon="-6.48590278650607"><ele>1260.0</ele><time>2026-03-22T13:56:05.911Z</time></trkpt><trkpt lat="30.42460250305477" lon="-6.48575501400659"><ele>1259.0</ele><time>2026-03-22T13:56:06.911Z</time></trkpt><trkpt lat="30.424617693124034" lon="-6.485613064559785"><ele>1258.0</ele><time>2026-03-22T13:56:07.911Z</time></trkpt><trkpt lat="30.424587946515732" lon="-6.485486554191431"><ele>1257.0</ele><time>2026-03-22T13:56:08.911Z</time></trkpt><trkpt lat="30.42453420113363" lon="-6.485326246127302"><ele>1257.0</ele><time>2026-03-22T13:56:09.911Z</time></trkpt><trkpt lat="30.424477196605842" lon="-6.485160283345295"><ele>1257.0</ele><time>2026-03-22T13:56:10.911Z</time></trkpt><trkpt lat="30.42446299604701" lon="-6.484979704876165"><ele>1257.0</ele><time>2026-03-22T13:56:11.911Z</time></trkpt><trkpt lat="30.424444758047837" lon="-6.484790097283073"><ele>1257.0</ele><time>2026-03-22T13:56:12.911Z</time></trkpt><trkpt lat="30.424436721774335" lon="-6.48462536986384"><ele>1257.0</ele><time>2026-03-22T13:56:13.911Z</time></trkpt><trkpt lat="30.424424821974895" lon="-6.484473875722164"><ele>1257.0</ele><time>2026-03-22T13:56:14.911Z</time></trkpt><trkpt lat="30.424396018553338" lon="-6.484342164377122"><ele>1257.0</ele><time>2026-03-22T13:56:15.911Z</time></trkpt><trkpt lat="30.424381188225283" lon="-6.484186696499802"><ele>1257.75</ele><time>2026-03-22T13:56:16.911Z</time></trkpt><trkpt lat="30.42438516372404" lon="-6.484043698547924"><ele>1258.5</ele><time>2026-03-22T13:56:17.911Z</time></trkpt><trkpt lat="30.42439977893322" lon="-6.483928147550045"><ele>1259.25</ele><time>2026-03-22T13:56:18.911Z</time></trkpt><trkpt lat="30.424452670673247" lon="-6.483803680441498"><ele>1260.0</ele><time>2026-03-22T13:56:19.911Z</time></trkpt><trkpt lat="30.424518230733423" lon="-6.483698413049159"><ele>1260.0</ele><time>2026-03-22T13:56:20.911Z</time></trkpt><trkpt lat="30.424581968801206" lon="-6.4835900931665575"><ele>1260.0</ele><time>2026-03-22T13:56:21.911Z</time></trkpt><trkpt lat="30.424619166900737" lon="-6.483472726021995"><ele>1260.0</ele><time>2026-03-22T13:56:22.911Z</time></trkpt><trkpt lat="30.42465921056173" lon="-6.4833589809848995"><ele>1260.0</ele><time>2026-03-22T13:56:23.911Z</time></trkpt><trkpt lat="30.42469038019811" lon="-6.483248237005526"><ele>1260.0</ele><time>2026-03-22T13:56:24.911Z</time></trkpt><trkpt lat="30.424716487925565" lon="-6.48313532101217"><ele>1261.4</ele><time>2026-03-22T13:56:25.911Z</time></trkpt><trkpt lat="30.424740887715068" lon="-6.4830185017849455"><ele>1262.8</ele><time>2026-03-22T13:56:26.911Z</time></trkpt><trkpt lat="30.424775948600455" lon="-6.482907174321395"><ele>1264.2</ele><time>2026-03-22T13:56:27.911Z</time></trkpt><trkpt lat="30.42481916890043" lon="-6.482808476883655"><ele>1265.6</ele><time>2026-03-22T13:56:28.911Z</time></trkpt><trkpt lat="30.42488467724223" lon="-6.482719913089825"><ele>1267.0</ele><time>2026-03-22T13:56:29.911Z</time></trkpt><trkpt lat="30.42496296043113" lon="-6.482626398040451"><ele>1267.0</ele><time>2026-03-22T13:56:30.911Z</time></trkpt><trkpt lat="30.42505548153425" lon="-6.482509565026272"><ele>1267.0</ele><time>2026-03-22T13:56:31.911Z</time></trkpt><trkpt lat="30.425186278418487" lon="-6.482376188909973"><ele>1267.0</ele><time>2026-03-22T13:56:32.911Z</time></trkpt><trkpt lat="30.42534116342502" lon="-6.482257760351649"><ele>1267.75</ele><time>2026-03-22T13:56:33.911Z</time></trkpt><trkpt lat="30.42548070017716" lon="-6.482148080840824"><ele>1268.5</ele><time>2026-03-22T13:56:34.911Z</time></trkpt><trkpt lat="30.425605411452175" lon="-6.4820568798957465"><ele>1269.25</ele><time>2026-03-22T13:56:35.911Z</time></trkpt><trkpt lat="30.4257087480044" lon="-6.481976019171342"><ele>1270.0</ele><time>2026-03-22T13:56:36.911Z</time></trkpt><trkpt lat="30.425761100372164" lon="-6.481893669909752"><ele>1270.0</ele><time>2026-03-22T13:56:37.911Z</time></trkpt><trkpt lat="30.425789132696888" lon="-6.481807584080529"><ele>1270.0</ele><time>2026-03-22T13:56:38.911Z</time></trkpt><trkpt lat="30.42579719156942" lon="-6.481709261778027"><ele>1270.0</ele><time>2026-03-22T13:56:39.911Z</time></trkpt><trkpt lat="30.4257847199012" lon="-6.481586073850889"><ele>1270.0</ele><time>2026-03-22T13:56:40.911Z</time></trkpt><trkpt lat="30.425740969144766" lon="-6.481438170585352"><ele>1270.0</ele><time>2026-03-22T13:56:41.911Z</time></trkpt><trkpt lat="30.425665150806132" lon="-6.481283286379788"><ele>1270.5</ele><time>2026-03-22T13:56:42.911Z</time></trkpt><trkpt lat="30.425586304889606" lon="-6.481128509665227"><ele>1271.0</ele><time>2026-03-22T13:56:43.911Z</time></trkpt><trkpt lat="30.425539734224074" lon="-6.481008922723057"><ele>1271.5</ele><time>2026-03-22T13:56:44.911Z</time></trkpt><trkpt lat="30.42552021171062" lon="-6.480888418344764"><ele>1272.0</ele><time>2026-03-22T13:56:45.911Z</time></trkpt><trkpt lat="30.425539631319566" lon="-6.480756652556068"><ele>1272.0</ele><time>2026-03-22T13:56:46.911Z</time></trkpt><trkpt lat="30.42558378502511" lon="-6.48061896145309"><ele>1272.0</ele><time>2026-03-22T13:56:47.912Z</time></trkpt><trkpt lat="30.425621747867762" lon="-6.480507905445216"><ele>1272.0</ele><time>2026-03-22T13:56:48.913Z</time></trkpt><trkpt lat="30.42566542753885" lon="-6.480406402104249"><ele>1272.0</ele><time>2026-03-22T13:56:49.914Z</time></trkpt><trkpt lat="30.425723282748454" lon="-6.48032242310632"><ele>1272.0</ele><time>2026-03-22T13:56:50.915Z</time></trkpt><trkpt lat="30.425797901318624" lon="-6.480270761183847"><ele>1271.8333333333333</ele><time>2026-03-22T13:56:51.915Z</time></trkpt><trkpt lat="30.425873485232483" lon="-6.480242408000671"><ele>1271.6666666666667</ele><time>2026-03-22T13:56:52.916Z</time></trkpt><trkpt lat="30.425936819468497" lon="-6.480214151348997"><ele>1271.5</ele><time>2026-03-22T13:56:53.917Z</time></trkpt><trkpt lat="30.42603433043097" lon="-6.480142616457727"><ele>1271.3333333333335</ele><time>2026-03-22T13:56:55.918Z</time></trkpt><trkpt lat="30.42609188945672" lon="-6.480085988447805"><ele>1271.1666666666667</ele><time>2026-03-22T13:56:57.92Z</time></trkpt><trkpt lat="30.426106583186588" lon="-6.480009044006238"><ele>1271.0</ele><time>2026-03-22T13:57:01.922Z</time></trkpt><trkpt lat="30.42608275215587" lon="-6.47993148288822"><ele>1271.0</ele><time>2026-03-22T13:57:04.923Z</time></trkpt><trkpt lat="30.426020832413172" lon="-6.479874773598395"><ele>1271.0</ele><time>2026-03-22T13:57:07.924Z</time></trkpt><trkpt lat="30.4259464134871" lon="-6.479841004353088"><ele>1271.0</ele><time>2026-03-22T13:57:10.924Z</time></trkpt><trkpt lat="30.425876427474375" lon="-6.479797911027327"><ele>1271.0</ele><time>2026-03-22T13:57:13.925Z</time></trkpt><trkpt lat="30.425815338732317" lon="-6.47975835477715"><ele>1271.0</ele><time>2026-03-22T13:57:16.925Z</time></trkpt><trkpt lat="30.425726061155494" lon="-6.479681307223914"><ele>1271.0</ele><time>2026-03-22T13:59:15.928Z</time></trkpt><trkpt lat="30.425627644983088" lon="-6.479624232618357"><ele>1271.0</ele><time>2026-03-22T13:59:16.928Z</time></trkpt><trkpt lat="30.42551898499186" lon="-6.47955448575368"><ele>1271.0</ele><time>2026-03-22T13:59:17.928Z</time></trkpt><trkpt lat="30.42539811507724" lon="-6.479487351658884"><ele>1271.0</ele><time>2026-03-22T13:59:18.928Z</time></trkpt><trkpt lat="30.425279538988658" lon="-6.479423046777079"><ele>1271.0</ele><time>2026-03-22T13:59:19.928Z</time></trkpt><trkpt lat="30.425154668575484" lon="-6.4793581621159815"><ele>1270.75</ele><time>2026-03-22T13:59:20.927Z</time></trkpt><trkpt lat="30.425030731306936" lon="-6.479293995124552"><ele>1270.5</ele><time>2026-03-22T13:59:21.927Z</time></trkpt><trkpt lat="30.424907675689102" lon="-6.479225836851968"><ele>1270.25</ele><time>2026-03-22T13:59:22.928Z</time></trkpt><trkpt lat="30.42478358857079" lon="-6.4791498229195"><ele>1270.0</ele><time>2026-03-22T13:59:23.928Z</time></trkpt><trkpt lat="30.42465531220416" lon="-6.479073328079945"><ele>1270.3333333333333</ele><time>2026-03-22T13:59:24.928Z</time></trkpt><trkpt lat="30.42450746850867" lon="-6.4789935259665725"><ele>1270.6666666666667</ele><time>2026-03-22T13:59:25.928Z</time></trkpt><trkpt lat="30.424364373024883" lon="-6.478916359331123"><ele>1271.0</ele><time>2026-03-22T13:59:26.928Z</time></trkpt><trkpt lat="30.424241568013414" lon="-6.478845231941643"><ele>1271.0</ele><time>2026-03-22T13:59:27.928Z</time></trkpt><trkpt lat="30.424134393038383" lon="-6.478784780655138"><ele>1271.0</ele><time>2026-03-22T13:59:28.928Z</time></trkpt><trkpt lat="30.42403618849344" lon="-6.478727858056533"><ele>1271.0</ele><time>2026-03-22T13:59:29.928Z</time></trkpt><trkpt lat="30.423942813842647" lon="-6.478678100392826"><ele>1271.0</ele><time>2026-03-22T13:59:30.928Z</time></trkpt><trkpt lat="30.42385261223196" lon="-6.478620920729881"><ele>1271.0</ele><time>2026-03-22T13:59:31.927Z</time></trkpt><trkpt lat="30.423737038491478" lon="-6.478552280393115"><ele>1270.6666666666667</ele><time>2026-03-22T13:59:32.928Z</time></trkpt><trkpt lat="30.42360901509059" lon="-6.47848214608636"><ele>1270.3333333333333</ele><time>2026-03-22T13:59:33.928Z</time></trkpt><trkpt lat="30.423468706432246" lon="-6.478399967230699"><ele>1270.0</ele><time>2026-03-22T13:59:34.928Z</time></trkpt><trkpt lat="30.42331211893106" lon="-6.478310769917087"><ele>1270.0</ele><time>2026-03-22T13:59:35.928Z</time></trkpt><trkpt lat="30.423147682511498" lon="-6.478221077134466"><ele>1270.0</ele><time>2026-03-22T13:59:36.928Z</time></trkpt><trkpt lat="30.422982915705948" lon="-6.4781219933551375"><ele>1270.0</ele><time>2026-03-22T13:59:37.928Z</time></trkpt><trkpt lat="30.422834128819723" lon="-6.4780320101532265"><ele>1269.3333333333333</ele><time>2026-03-22T13:59:38.928Z</time></trkpt><trkpt lat="30.42268869670418" lon="-6.477943138570957"><ele>1268.6666666666667</ele><time>2026-03-22T13:59:39.928Z</time></trkpt><trkpt lat="30.422544189171248" lon="-6.477857481242468"><ele>1268.0</ele><time>2026-03-22T13:59:40.928Z</time></trkpt><trkpt lat="30.422408450561914" lon="-6.477777776549899"><ele>1269.5</ele><time>2026-03-22T13:59:41.928Z</time></trkpt><trkpt lat="30.422276935373585" lon="-6.477707934857543"><ele>1271.0</ele><time>2026-03-22T13:59:42.928Z</time></trkpt><trkpt lat="30.422155901552653" lon="-6.477650535741935"><ele>1272.5</ele><time>2026-03-22T13:59:43.928Z</time></trkpt><trkpt lat="30.422035373741874" lon="-6.477592224989484"><ele>1274.0</ele><time>2026-03-22T13:59:44.928Z</time></trkpt><trkpt lat="30.421906629741834" lon="-6.4775130631326725"><ele>1274.3333333333335</ele><time>2026-03-22T13:59:45.928Z</time></trkpt><trkpt lat="30.421767565248704" lon="-6.4774153628734545"><ele>1274.6666666666667</ele><time>2026-03-22T13:59:46.928Z</time></trkpt><trkpt lat="30.421627711076578" lon="-6.477309538382028"><ele>1275.0</ele><time>2026-03-22T13:59:47.928Z</time></trkpt><trkpt lat="30.42148869444065" lon="-6.477204318528978"><ele>1275.0</ele><time>2026-03-22T13:59:48.928Z</time></trkpt><trkpt lat="30.421348570049094" lon="-6.477101278986172"><ele>1275.0</ele><time>2026-03-22T13:59:49.928Z</time></trkpt><trkpt lat="30.421206379656095" lon="-6.476994561791974"><ele>1275.0</ele><time>2026-03-22T13:59:50.928Z</time></trkpt><trkpt lat="30.42105780948386" lon="-6.476883816487274"><ele>1274.3333333333333</ele><time>2026-03-22T13:59:51.928Z</time></trkpt><trkpt lat="30.420909477206543" lon="-6.476771696081095"><ele>1273.6666666666665</ele><time>2026-03-22T13:59:52.928Z</time></trkpt><trkpt lat="30.420768712233382" lon="-6.47666887771535"><ele>1273.0</ele><time>2026-03-22T13:59:53.928Z</time></trkpt><trkpt lat="30.420623312854453" lon="-6.476566896539663"><ele>1272.0</ele><time>2026-03-22T13:59:54.928Z</time></trkpt><trkpt lat="30.420467751391474" lon="-6.476467273431404"><ele>1271.0</ele><time>2026-03-22T13:59:55.928Z</time></trkpt><trkpt lat="30.420318566033806" lon="-6.476374150755493"><ele>1270.0</ele><time>2026-03-22T13:59:56.928Z</time></trkpt><trkpt lat="30.42018508541775" lon="-6.476279381135998"><ele>1270.75</ele><time>2026-03-22T13:59:57.928Z</time></trkpt><trkpt lat="30.42006054863186" lon="-6.476197255166478"><ele>1271.5</ele><time>2026-03-22T13:59:58.928Z</time></trkpt><trkpt lat="30.41994962716561" lon="-6.476125567416205"><ele>1272.25</ele><time>2026-03-22T13:59:59.927Z</time></trkpt><trkpt lat="30.419844445076222" lon="-6.476051801020617"><ele>1273.0</ele><time>2026-03-22T14:00:00.927Z</time></trkpt><trkpt lat="30.41974614447268" lon="-6.47598897396732"><ele>1272.5</ele><time>2026-03-22T14:00:01.927Z</time></trkpt><trkpt lat="30.419641395069707" lon="-6.475925374354385"><ele>1272.0</ele><time>2026-03-22T14:00:02.927Z</time></trkpt><trkpt lat="30.419537990789117" lon="-6.475867474049119"><ele>1271.5</ele><time>2026-03-22T14:00:03.927Z</time></trkpt><trkpt lat="30.41943013408437" lon="-6.475801005051683"><ele>1271.0</ele><time>2026-03-22T14:00:04.927Z</time></trkpt><trkpt lat="30.41932502545494" lon="-6.475728204824202"><ele>1271.0</ele><time>2026-03-22T14:00:05.927Z</time></trkpt><trkpt lat="30.41922313480142" lon="-6.475661377861491"><ele>1271.0</ele><time>2026-03-22T14:00:06.927Z</time></trkpt><trkpt lat="30.419117569766975" lon="-6.475591474640559"><ele>1271.0</ele><time>2026-03-22T14:00:07.927Z</time></trkpt><trkpt lat="30.41901270880214" lon="-6.475525361482738"><ele>1271.0</ele><time>2026-03-22T14:00:08.927Z</time></trkpt><trkpt lat="30.418906127331848" lon="-6.47545356957818"><ele>1271.25</ele><time>2026-03-22T14:00:09.927Z</time></trkpt><trkpt lat="30.418792887738526" lon="-6.475384073152791"><ele>1271.5</ele><time>2026-03-22T14:00:10.927Z</time></trkpt><trkpt lat="30.418669943573224" lon="-6.475306252273756"><ele>1271.75</ele><time>2026-03-22T14:00:11.927Z</time></trkpt><trkpt lat="30.41854871964035" lon="-6.475223416963307"><ele>1272.0</ele><time>2026-03-22T14:00:12.927Z</time></trkpt><trkpt lat="30.418425021562943" lon="-6.475139864459176"><ele>1272.0</ele><time>2026-03-22T14:00:13.927Z</time></trkpt><trkpt lat="30.418306953429656" lon="-6.475064505185156"><ele>1272.0</ele><time>2026-03-22T14:00:14.927Z</time></trkpt><trkpt lat="30.4181784423328" lon="-6.47498443112512"><ele>1272.0</ele><time>2026-03-22T14:00:15.927Z</time></trkpt><trkpt lat="30.41803863461531" lon="-6.474895698333642"><ele>1272.0</ele><time>2026-03-22T14:00:16.927Z</time></trkpt><trkpt lat="30.417902630758853" lon="-6.474807436246607"><ele>1272.0</ele><time>2026-03-22T14:00:17.927Z</time></trkpt><trkpt lat="30.417770332516746" lon="-6.474720967133683"><ele>1272.0</ele><time>2026-03-22T14:00:18.927Z</time></trkpt><trkpt lat="30.41763187562372" lon="-6.474631241441439"><ele>1272.0</ele><time>2026-03-22T14:00:19.927Z</time></trkpt><trkpt lat="30.417504552218553" lon="-6.474545462880249"><ele>1272.0</ele><time>2026-03-22T14:00:20.927Z</time></trkpt><trkpt lat="30.417379363443768" lon="-6.474470190474396"><ele>1272.0</ele><time>2026-03-22T14:00:21.927Z</time></trkpt><trkpt lat="30.41725628634435" lon="-6.4743932858947195"><ele>1272.0</ele><time>2026-03-22T14:00:22.927Z</time></trkpt><trkpt lat="30.417139944383173" lon="-6.47432087684062"><ele>1272.0</ele><time>2026-03-22T14:00:23.927Z</time></trkpt><trkpt lat="30.417016355924513" lon="-6.474237082289806"><ele>1271.6666666666667</ele><time>2026-03-22T14:00:24.927Z</time></trkpt><trkpt lat="30.4168861605172" lon="-6.474147442038227"><ele>1271.3333333333335</ele><time>2026-03-22T14:00:25.927Z</time></trkpt><trkpt lat="30.416751973792362" lon="-6.474055612085034"><ele>1271.0</ele><time>2026-03-22T14:00:26.927Z</time></trkpt><trkpt lat="30.41662510263699" lon="-6.473968167421223"><ele>1271.0</ele><time>2026-03-22T14:00:27.927Z</time></trkpt><trkpt lat="30.416495391244293" lon="-6.473876713869549"><ele>1271.0</ele><time>2026-03-22T14:00:28.927Z</time></trkpt><trkpt lat="30.416341114679895" lon="-6.473807502806184"><ele>1271.0</ele><time>2026-03-22T14:00:29.927Z</time></trkpt><trkpt lat="30.41619662679056" lon="-6.4737039877957985"><ele>1270.6666666666667</ele><time>2026-03-22T14:00:30.927Z</time></trkpt><trkpt lat="30.416037216303735" lon="-6.473589186377419"><ele>1270.3333333333333</ele><time>2026-03-22T14:00:31.927Z</time></trkpt><trkpt lat="30.415864082523264" lon="-6.473465268360712"><ele>1270.0</ele><time>2026-03-22T14:00:32.927Z</time></trkpt><trkpt lat="30.415672898913733" lon="-6.473322962102547"><ele>1269.5</ele><time>2026-03-22T14:00:33.927Z</time></trkpt><trkpt lat="30.41547202115498" lon="-6.473170979119116"><ele>1269.0</ele><time>2026-03-22T14:00:34.927Z</time></trkpt><trkpt lat="30.415246663007103" lon="-6.473000474715622"><ele>1269.0</ele><time>2026-03-22T14:00:35.927Z</time></trkpt><trkpt lat="30.41500617261621" lon="-6.472818521464145"><ele>1269.0</ele><time>2026-03-22T14:00:36.927Z</time></trkpt><trkpt lat="30.414770245588013" lon="-6.472638744203625"><ele>1270.5</ele><time>2026-03-22T14:00:37.927Z</time></trkpt><trkpt lat="30.414563443091506" lon="-6.4724733367991325"><ele>1272.0</ele><time>2026-03-22T14:00:38.927Z</time></trkpt><trkpt lat="30.414374203208116" lon="-6.472321632096545"><ele>1272.0</ele><time>2026-03-22T14:00:39.927Z</time></trkpt><trkpt lat="30.41418605359125" lon="-6.4721714657239575"><ele>1272.0</ele><time>2026-03-22T14:00:40.927Z</time></trkpt><trkpt lat="30.413995710677163" lon="-6.4720201414040375"><ele>1273.0</ele><time>2026-03-22T14:00:41.927Z</time></trkpt><trkpt lat="30.41380397556447" lon="-6.471871216816858"><ele>1274.0</ele><time>2026-03-22T14:00:42.927Z</time></trkpt><trkpt lat="30.41361526822242" lon="-6.471745123715597"><ele>1275.0</ele><time>2026-03-22T14:00:43.927Z</time></trkpt><trkpt lat="30.413420782632244" lon="-6.471637559270022"><ele>1275.0</ele><time>2026-03-22T14:00:44.927Z</time></trkpt><trkpt lat="30.41321466798897" lon="-6.471536491510053"><ele>1275.0</ele><time>2026-03-22T14:00:45.927Z</time></trkpt><trkpt lat="30.412995691890917" lon="-6.471443515730456"><ele>1275.0</ele><time>2026-03-22T14:00:46.927Z</time></trkpt><trkpt lat="30.412763274102975" lon="-6.4713614816450375"><ele>1275.0</ele><time>2026-03-22T14:00:47.927Z</time></trkpt><trkpt lat="30.412532611094036" lon="-6.471280613001492"><ele>1276.0</ele><time>2026-03-22T14:00:48.927Z</time></trkpt><trkpt lat="30.412307135787994" lon="-6.471201118216119"><ele>1277.0</ele><time>2026-03-22T14:00:49.927Z</time></trkpt><trkpt lat="30.41208932785737" lon="-6.471124043628049"><ele>1277.0</ele><time>2026-03-22T14:00:50.927Z</time></trkpt><trkpt lat="30.41187813028331" lon="-6.471048700267515"><ele>1277.0</ele><time>2026-03-22T14:00:51.927Z</time></trkpt><trkpt lat="30.411677129030988" lon="-6.470975754606674"><ele>1277.0</ele><time>2026-03-22T14:00:52.927Z</time></trkpt><trkpt lat="30.411481118770283" lon="-6.47090457344845"><ele>1277.0</ele><time>2026-03-22T14:00:53.927Z</time></trkpt><trkpt lat="30.41128982311738" lon="-6.4708106849827765"><ele>1277.0</ele><time>2026-03-22T14:00:54.927Z</time></trkpt><trkpt lat="30.411111799911943" lon="-6.470723780403834"><ele>1277.0</ele><time>2026-03-22T14:00:55.927Z</time></trkpt><trkpt lat="30.410936266103505" lon="-6.4706385426030195"><ele>1277.0</ele><time>2026-03-22T14:00:56.927Z</time></trkpt><trkpt lat="30.410765745463696" lon="-6.470546021211145"><ele>1277.0</ele><time>2026-03-22T14:00:57.927Z</time></trkpt><trkpt lat="30.410597635412827" lon="-6.470436697358129"><ele>1277.0</ele><time>2026-03-22T14:00:58.927Z</time></trkpt><trkpt lat="30.410435377566646" lon="-6.470324202400632"><ele>1277.6666666666667</ele><time>2026-03-22T14:00:59.927Z</time></trkpt><trkpt lat="30.41028010884199" lon="-6.470163931726307"><ele>1278.3333333333333</ele><time>2026-03-22T14:01:00.927Z</time></trkpt><trkpt lat="30.41014772054711" lon="-6.469962871726182"><ele>1279.0</ele><time>2026-03-22T14:01:01.927Z</time></trkpt><trkpt lat="30.410027186798246" lon="-6.469751263699072"><ele>1280.3333333333333</ele><time>2026-03-22T14:01:02.927Z</time></trkpt><trkpt lat="30.409914004748646" lon="-6.46955190380091"><ele>1281.6666666666667</ele><time>2026-03-22T14:01:03.927Z</time></trkpt><trkpt lat="30.409799834103087" lon="-6.469351934086648"><ele>1283.0</ele><time>2026-03-22T14:01:04.927Z</time></trkpt><trkpt lat="30.409690971437854" lon="-6.469151978844896"><ele>1282.6666666666667</ele><time>2026-03-22T14:01:05.927Z</time></trkpt><trkpt lat="30.409591756025694" lon="-6.468960383803054"><ele>1282.3333333333333</ele><time>2026-03-22T14:01:06.927Z</time></trkpt><trkpt lat="30.409501352098548" lon="-6.4687840941486945"><ele>1282.0</ele><time>2026-03-22T14:01:07.927Z</time></trkpt><trkpt lat="30.409419340423494" lon="-6.468625754357162"><ele>1282.0</ele><time>2026-03-22T14:01:08.927Z</time></trkpt><trkpt lat="30.409319216671197" lon="-6.468465814948151"><ele>1282.0</ele><time>2026-03-22T14:01:09.927Z</time></trkpt><trkpt lat="30.409209007947403" lon="-6.468310480682343"><ele>1282.0</ele><time>2026-03-22T14:01:10.927Z</time></trkpt><trkpt lat="30.409101334281438" lon="-6.4681874765211615"><ele>1282.0</ele><time>2026-03-22T14:01:11.927Z</time></trkpt><trkpt lat="30.408999202254805" lon="-6.468087679664888"><ele>1282.0</ele><time>2026-03-22T14:01:12.927Z</time></trkpt><trkpt lat="30.408903441208146" lon="-6.468004700759213"><ele>1282.0</ele><time>2026-03-22T14:01:13.927Z</time></trkpt><trkpt lat="30.408812892457583" lon="-6.467933198806302"><ele>1282.0</ele><time>2026-03-22T14:01:14.927Z</time></trkpt><trkpt lat="30.408750501119187" lon="-6.467865471255707"><ele>1282.0</ele><time>2026-03-22T14:01:15.927Z</time></trkpt><trkpt lat="30.40868050467316" lon="-6.467822952458291"><ele>1282.0</ele><time>2026-03-22T14:01:16.927Z</time></trkpt><trkpt lat="30.408623447745015" lon="-6.467782224716098"><ele>1282.0</ele><time>2026-03-22T14:01:17.927Z</time></trkpt><trkpt lat="30.4085454513544" lon="-6.467724456812326"><ele>1282.0</ele><time>2026-03-22T14:01:19.927Z</time></trkpt><trkpt lat="30.408481819100025" lon="-6.467675823702176"><ele>1282.0</ele><time>2026-03-22T14:01:22.927Z</time></trkpt><trkpt lat="30.408406418140462" lon="-6.467688344376951"><ele>1282.0</ele><time>2026-03-22T14:01:26.926Z</time></trkpt><trkpt lat="30.40827577596957" lon="-6.467890608418117"><ele>1282.0</ele><time>2026-03-22T14:01:30.927Z</time></trkpt><trkpt lat="30.40816622365089" lon="-6.467904913577132"><ele>1282.0</ele><time>2026-03-22T14:01:32.926Z</time></trkpt><trkpt lat="30.408093130484502" lon="-6.467882906292041"><ele>1282.0</ele><time>2026-03-22T14:01:33.926Z</time></trkpt><trkpt lat="30.4080038268619" lon="-6.467871732661239"><ele>1282.0</ele><time>2026-03-22T14:01:34.927Z</time></trkpt><trkpt lat="30.407886494007823" lon="-6.467852324284134"><ele>1282.0</ele><time>2026-03-22T14:01:35.927Z</time></trkpt><trkpt lat="30.40774916013121" lon="-6.46781521376399"><ele>1281.6</ele><time>2026-03-22T14:01:36.927Z</time></trkpt><trkpt lat="30.407620703133627" lon="-6.46777617358484"><ele>1281.1999999999998</ele><time>2026-03-22T14:01:37.927Z</time></trkpt><trkpt lat="30.407514320006882" lon="-6.46775682577805"><ele>1280.8</ele><time>2026-03-22T14:01:38.926Z</time></trkpt><trkpt lat="30.407405282760273" lon="-6.467770943296204"><ele>1280.4</ele><time>2026-03-22T14:01:39.926Z</time></trkpt><trkpt lat="30.407318689836494" lon="-6.467781906073059"><ele>1280.0</ele><time>2026-03-22T14:01:40.926Z</time></trkpt><trkpt lat="30.407241727231327" lon="-6.467778711320359"><ele>1280.0</ele><time>2026-03-22T14:01:41.926Z</time></trkpt><trkpt lat="30.407177235496004" lon="-6.4677784981504205"><ele>1280.0</ele><time>2026-03-22T14:01:42.926Z</time></trkpt><trkpt lat="30.407074805595048" lon="-6.467832535486708"><ele>1280.0</ele><time>2026-03-22T14:01:44.926Z</time></trkpt><trkpt lat="30.40701970168863" lon="-6.467904656347948"><ele>1280.0</ele><time>2026-03-22T14:01:45.926Z</time></trkpt><trkpt lat="30.406968457342344" lon="-6.46799449270535"><ele>1280.0</ele><time>2026-03-22T14:01:46.926Z</time></trkpt><trkpt lat="30.40692287361204" lon="-6.468091469473295"><ele>1280.0</ele><time>2026-03-22T14:01:47.926Z</time></trkpt><trkpt lat="30.406881631349513" lon="-6.468168168515432"><ele>1279.6</ele><time>2026-03-22T14:01:48.926Z</time></trkpt><trkpt lat="30.40683728158107" lon="-6.468259755429951"><ele>1279.2</ele><time>2026-03-22T14:01:49.926Z</time></trkpt><trkpt lat="30.406761062321667" lon="-6.468365067733136"><ele>1278.8</ele><time>2026-03-22T14:01:51.926Z</time></trkpt><trkpt lat="30.40666259564089" lon="-6.468426399678146"><ele>1278.4</ele><time>2026-03-22T14:01:53.926Z</time></trkpt><trkpt lat="30.406599994684488" lon="-6.4684575908598925"><ele>1278.0</ele><time>2026-03-22T14:01:54.926Z</time></trkpt><trkpt lat="30.406535658586197" lon="-6.468492642154946"><ele>1278.0</ele><time>2026-03-22T14:01:55.926Z</time></trkpt><trkpt lat="30.406462651010955" lon="-6.468532131654439"><ele>1278.0</ele><time>2026-03-22T14:01:56.926Z</time></trkpt><trkpt lat="30.40638877340513" lon="-6.468584000834796"><ele>1278.0</ele><time>2026-03-22T14:01:57.926Z</time></trkpt><trkpt lat="30.406330813149957" lon="-6.46863806461662"><ele>1278.0</ele><time>2026-03-22T14:01:58.926Z</time></trkpt><trkpt lat="30.406291804022356" lon="-6.46870262390897"><ele>1278.0</ele><time>2026-03-22T14:01:59.926Z</time></trkpt><trkpt lat="30.40625115028642" lon="-6.468777482491814"><ele>1278.0</ele><time>2026-03-22T14:02:00.926Z</time></trkpt><trkpt lat="30.406187441842906" lon="-6.468835949288074"><ele>1278.5</ele><time>2026-03-22T14:02:01.926Z</time></trkpt><trkpt lat="30.406114576322693" lon="-6.4688840589683965"><ele>1279.0</ele><time>2026-03-22T14:02:02.926Z</time></trkpt><trkpt lat="30.4060473274076" lon="-6.468928452133986"><ele>1279.5</ele><time>2026-03-22T14:02:03.926Z</time></trkpt><trkpt lat="30.40598079369718" lon="-6.46897054660118"><ele>1280.0</ele><time>2026-03-22T14:02:04.926Z</time></trkpt><trkpt lat="30.40591797641275" lon="-6.469014690829923"><ele>1280.5</ele><time>2026-03-22T14:02:05.926Z</time></trkpt><trkpt lat="30.405862964350874" lon="-6.469074681988826"><ele>1281.0</ele><time>2026-03-22T14:02:06.926Z</time></trkpt><trkpt lat="30.405811067100917" lon="-6.469139710478216"><ele>1281.0</ele><time>2026-03-22T14:02:07.926Z</time></trkpt><trkpt lat="30.405743837791317" lon="-6.469172701412584"><ele>1281.0</ele><time>2026-03-22T14:02:08.926Z</time></trkpt><trkpt lat="30.405669671876073" lon="-6.469187505757383"><ele>1281.0</ele><time>2026-03-22T14:02:09.926Z</time></trkpt><trkpt lat="30.405575555811925" lon="-6.469240964608476"><ele>1281.0</ele><time>2026-03-22T14:02:11.926Z</time></trkpt><trkpt lat="30.40550498777381" lon="-6.469367021361548"><ele>1281.0</ele><time>2026-03-22T14:02:13.926Z</time></trkpt><trkpt lat="30.405469820187474" lon="-6.469441011295051"><ele>1281.1666666666667</ele><time>2026-03-22T14:02:14.926Z</time></trkpt><trkpt lat="30.405440379238566" lon="-6.469530322056893"><ele>1281.3333333333333</ele><time>2026-03-22T14:02:15.926Z</time></trkpt><trkpt lat="30.405416429399622" lon="-6.469627451324271"><ele>1281.5</ele><time>2026-03-22T14:02:16.926Z</time></trkpt><trkpt lat="30.405384227620043" lon="-6.469723678367191"><ele>1281.6666666666665</ele><time>2026-03-22T14:02:17.926Z</time></trkpt><trkpt lat="30.40533165703943" lon="-6.469805312253221"><ele>1281.8333333333333</ele><time>2026-03-22T14:02:18.926Z</time></trkpt><trkpt lat="30.405261653404896" lon="-6.469878670805556"><ele>1282.0</ele><time>2026-03-22T14:02:19.926Z</time></trkpt><trkpt lat="30.40520044995253" lon="-6.469950986906877"><ele>1282.1999999999998</ele><time>2026-03-22T14:02:20.926Z</time></trkpt><trkpt lat="30.405139175829078" lon="-6.4700318850300444"><ele>1282.4</ele><time>2026-03-22T14:02:21.926Z</time></trkpt><trkpt lat="30.405070810731132" lon="-6.470123328248689"><ele>1282.6</ele><time>2026-03-22T14:02:22.926Z</time></trkpt><trkpt lat="30.40500151137524" lon="-6.47021777981058"><ele>1282.8000000000002</ele><time>2026-03-22T14:02:23.926Z</time></trkpt><trkpt lat="30.404934256425665" lon="-6.47029799991462"><ele>1283.0</ele><time>2026-03-22T14:02:24.926Z</time></trkpt><trkpt lat="30.404865467804697" lon="-6.4703632480232915"><ele>1283.0</ele><time>2026-03-22T14:02:25.926Z</time></trkpt><trkpt lat="30.404793246873325" lon="-6.47042595775974"><ele>1283.0</ele><time>2026-03-22T14:02:26.926Z</time></trkpt><trkpt lat="30.404722649760863" lon="-6.470481011106574"><ele>1283.0</ele><time>2026-03-22T14:02:27.926Z</time></trkpt><trkpt lat="30.404670866768214" lon="-6.470551243823413"><ele>1283.0</ele><time>2026-03-22T14:02:28.926Z</time></trkpt><trkpt lat="30.40463843662826" lon="-6.470625509401312"><ele>1283.0</ele><time>2026-03-22T14:02:29.926Z</time></trkpt><trkpt lat="30.404598056413363" lon="-6.470708566585201"><ele>1283.0</ele><time>2026-03-22T14:02:30.926Z</time></trkpt><trkpt lat="30.404565823394027" lon="-6.4708046923042"><ele>1283.4</ele><time>2026-03-22T14:02:31.926Z</time></trkpt><trkpt lat="30.40454607693247" lon="-6.470931876434876"><ele>1283.8000000000002</ele><time>2026-03-22T14:02:32.926Z</time></trkpt><trkpt lat="30.404519385254634" lon="-6.471058841041051"><ele>1284.2</ele><time>2026-03-22T14:02:33.926Z</time></trkpt><trkpt lat="30.40448637250081" lon="-6.471170008990678"><ele>1284.6</ele><time>2026-03-22T14:02:34.926Z</time></trkpt><trkpt lat="30.404451437985372" lon="-6.471282294737153"><ele>1285.0</ele><time>2026-03-22T14:02:35.926Z</time></trkpt><trkpt lat="30.40441485814415" lon="-6.471394014963266"><ele>1285.6666666666665</ele><time>2026-03-22T14:02:36.926Z</time></trkpt><trkpt lat="30.404384657932866" lon="-6.471508263843978"><ele>1286.3333333333333</ele><time>2026-03-22T14:02:37.926Z</time></trkpt><trkpt lat="30.40435194915639" lon="-6.471588773363343"><ele>1287.0</ele><time>2026-03-22T14:02:38.926Z</time></trkpt><trkpt lat="30.404311796825418" lon="-6.471663739080227"><ele>1287.6666666666667</ele><time>2026-03-22T14:02:39.926Z</time></trkpt><trkpt lat="30.40425897634403" lon="-6.4717480168268136"><ele>1288.3333333333335</ele><time>2026-03-22T14:02:40.926Z</time></trkpt><trkpt lat="30.404202497786354" lon="-6.471836130089522"><ele>1289.0</ele><time>2026-03-22T14:02:41.926Z</time></trkpt><trkpt lat="30.40414285013998" lon="-6.471947122175291"><ele>1289.0</ele><time>2026-03-22T14:02:42.926Z</time></trkpt><trkpt lat="30.40411725618536" lon="-6.472067322764068"><ele>1289.0</ele><time>2026-03-22T14:02:43.926Z</time></trkpt><trkpt lat="30.404087274962517" lon="-6.472187307854281"><ele>1289.0</ele><time>2026-03-22T14:02:44.926Z</time></trkpt><trkpt lat="30.404043539711402" lon="-6.472311525870673"><ele>1289.0</ele><time>2026-03-22T14:02:45.926Z</time></trkpt><trkpt lat="30.40399862126733" lon="-6.472426665404845"><ele>1289.0</ele><time>2026-03-22T14:02:46.926Z</time></trkpt><trkpt lat="30.403943986545467" lon="-6.472548214338064"><ele>1289.0</ele><time>2026-03-22T14:02:47.926Z</time></trkpt><trkpt lat="30.403894038264617" lon="-6.4726822154207"><ele>1289.0</ele><time>2026-03-22T14:02:48.926Z</time></trkpt><trkpt lat="30.403850844613444" lon="-6.472797965752807"><ele>1289.0</ele><time>2026-03-22T14:02:49.926Z</time></trkpt><trkpt lat="30.403804602343453" lon="-6.472921690514431"><ele>1289.0</ele><time>2026-03-22T14:02:50.926Z</time></trkpt><trkpt lat="30.40375363533424" lon="-6.473042591350555"><ele>1290.25</ele><time>2026-03-22T14:02:51.926Z</time></trkpt><trkpt lat="30.40370323457708" lon="-6.473170499632726"><ele>1291.5</ele><time>2026-03-22T14:02:52.926Z</time></trkpt><trkpt lat="30.403653122979318" lon="-6.473289696001755"><ele>1292.75</ele><time>2026-03-22T14:02:53.926Z</time></trkpt><trkpt lat="30.403605125108285" lon="-6.47341899621935"><ele>1294.0</ele><time>2026-03-22T14:02:54.926Z</time></trkpt><trkpt lat="30.403557276496425" lon="-6.4735472209521925"><ele>1294.0</ele><time>2026-03-22T14:02:55.926Z</time></trkpt><trkpt lat="30.40351592696651" lon="-6.473670323797466"><ele>1294.0</ele><time>2026-03-22T14:02:56.926Z</time></trkpt><trkpt lat="30.403487388401434" lon="-6.473789269641032"><ele>1294.0</ele><time>2026-03-22T14:02:57.926Z</time></trkpt><trkpt lat="30.40347353996859" lon="-6.4739166207435455"><ele>1294.0</ele><time>2026-03-22T14:02:58.926Z</time></trkpt><trkpt lat="30.40346229203561" lon="-6.474027593100008"><ele>1294.0</ele><time>2026-03-22T14:02:59.926Z</time></trkpt><trkpt lat="30.403461609028337" lon="-6.474152438229185"><ele>1295.0</ele><time>2026-03-22T14:03:00.926Z</time></trkpt><trkpt lat="30.40347005220524" lon="-6.474274138287378"><ele>1296.0</ele><time>2026-03-22T14:03:01.926Z</time></trkpt><trkpt lat="30.403473112257714" lon="-6.4743644753140215"><ele>1297.0</ele><time>2026-03-22T14:03:02.926Z</time></trkpt><trkpt lat="30.403475138905915" lon="-6.474448202328065"><ele>1298.0</ele><time>2026-03-22T14:03:03.926Z</time></trkpt><trkpt lat="30.40346738054093" lon="-6.474526238391811"><ele>1299.0</ele><time>2026-03-22T14:03:04.926Z</time></trkpt><trkpt lat="30.403462243826848" lon="-6.474619999051222"><ele>1300.0</ele><time>2026-03-22T14:03:05.926Z</time></trkpt><trkpt lat="30.403464416854693" lon="-6.474702587813214"><ele>1300.8333333333333</ele><time>2026-03-22T14:03:06.926Z</time></trkpt><trkpt lat="30.403468693361837" lon="-6.474783864713191"><ele>1301.6666666666665</ele><time>2026-03-22T14:03:07.926Z</time></trkpt><trkpt lat="30.403476397825766" lon="-6.474864460808274"><ele>1302.5</ele><time>2026-03-22T14:03:08.926Z</time></trkpt><trkpt lat="30.403498736280255" lon="-6.474935806204574"><ele>1303.3333333333333</ele><time>2026-03-22T14:03:09.926Z</time></trkpt><trkpt lat="30.403526480382688" lon="-6.47500954030401"><ele>1304.1666666666667</ele><time>2026-03-22T14:03:10.926Z</time></trkpt><trkpt lat="30.403548893395776" lon="-6.475143301558199"><ele>1305.0</ele><time>2026-03-22T14:03:12.926Z</time></trkpt><trkpt lat="30.403527065394634" lon="-6.475224673385101"><ele>1305.0</ele><time>2026-03-22T14:03:13.926Z</time></trkpt><trkpt lat="30.403502505675444" lon="-6.475306353703795"><ele>1305.0</ele><time>2026-03-22T14:03:14.926Z</time></trkpt><trkpt lat="30.40346381466874" lon="-6.475384369495907"><ele>1305.0</ele><time>2026-03-22T14:03:15.926Z</time></trkpt><trkpt lat="30.40341224749823" lon="-6.47544028487253"><ele>1305.0</ele><time>2026-03-22T14:03:16.926Z</time></trkpt><trkpt lat="30.4033250832067" lon="-6.475548834327527"><ele>1305.0</ele><time>2026-03-22T14:03:18.926Z</time></trkpt><trkpt lat="30.403274071037693" lon="-6.475602483743613"><ele>1305.0</ele><time>2026-03-22T14:03:19.926Z</time></trkpt><trkpt lat="30.40315897390507" lon="-6.475626459537595"><ele>1305.1666666666667</ele><time>2026-03-22T14:03:21.926Z</time></trkpt><trkpt lat="30.403081013367245" lon="-6.47569168324996"><ele>1305.3333333333333</ele><time>2026-03-22T14:03:23.926Z</time></trkpt><trkpt lat="30.403052081240425" lon="-6.475756537729682"><ele>1305.5</ele><time>2026-03-22T14:03:24.926Z</time></trkpt><trkpt lat="30.40302570484731" lon="-6.4758409535275145"><ele>1305.6666666666665</ele><time>2026-03-22T14:03:25.926Z</time></trkpt><trkpt lat="30.402997834696123" lon="-6.475927932795442"><ele>1305.8333333333333</ele><time>2026-03-22T14:03:26.926Z</time></trkpt><trkpt lat="30.402968453460673" lon="-6.476009082236781"><ele>1306.0</ele><time>2026-03-22T14:03:27.926Z</time></trkpt><trkpt lat="30.40294991514783" lon="-6.476098468398558"><ele>1306.0000000000002</ele><time>2026-03-22T14:03:28.926Z</time></trkpt><trkpt lat="30.402930484606436" lon="-6.476182464846763"><ele>1306.0</ele><time>2026-03-22T14:03:29.926Z</time></trkpt><trkpt lat="30.402906743121736" lon="-6.4762624422271005"><ele>1306.0</ele><time>2026-03-22T14:03:30.926Z</time></trkpt><trkpt lat="30.402881623571112" lon="-6.476330122830986"><ele>1306.0</ele><time>2026-03-22T14:03:31.926Z</time></trkpt><trkpt lat="30.402860100295342" lon="-6.476400672541243"><ele>1306.0</ele><time>2026-03-22T14:03:32.925Z</time></trkpt><trkpt lat="30.40285619308773" lon="-6.476474915943006"><ele>1306.0000000000002</ele><time>2026-03-22T14:03:33.925Z</time></trkpt><trkpt lat="30.40283095575121" lon="-6.476560890593092"><ele>1306.0</ele><time>2026-03-22T14:03:34.926Z</time></trkpt><trkpt lat="30.402796396193285" lon="-6.476640461994291"><ele>1306.0</ele><time>2026-03-22T14:03:35.926Z</time></trkpt><trkpt lat="30.402749041704414" lon="-6.476714367187116"><ele>1306.0</ele><time>2026-03-22T14:03:36.926Z</time></trkpt><trkpt lat="30.402707155580995" lon="-6.476844655507675"><ele>1306.0</ele><time>2026-03-22T14:03:38.926Z</time></trkpt><trkpt lat="30.402688063485517" lon="-6.476944456731854"><ele>1306.0</ele><time>2026-03-22T14:03:40.927Z</time></trkpt><trkpt lat="30.402623737190684" lon="-6.476976705221543"><ele>1306.0</ele><time>2026-03-22T14:03:44.926Z</time></trkpt><trkpt lat="30.402588238437364" lon="-6.477059931214259"><ele>1306.0</ele><time>2026-03-22T14:03:46.926Z</time></trkpt><trkpt lat="30.40253658394373" lon="-6.477212412548773"><ele>1306.1666666666665</ele><time>2026-03-22T14:03:48.926Z</time></trkpt><trkpt lat="30.40251334728295" lon="-6.4773088622957555"><ele>1306.3333333333333</ele><time>2026-03-22T14:03:49.926Z</time></trkpt><trkpt lat="30.40249056870247" lon="-6.477429938396816"><ele>1306.5</ele><time>2026-03-22T14:03:50.926Z</time></trkpt><trkpt lat="30.40246906133925" lon="-6.477521146766073"><ele>1306.6666666666667</ele><time>2026-03-22T14:03:51.926Z</time></trkpt><trkpt lat="30.4024291264534" lon="-6.4776040902102885"><ele>1306.8333333333335</ele><time>2026-03-22T14:03:52.926Z</time></trkpt><trkpt lat="30.402388153459295" lon="-6.47767417823048"><ele>1307.0</ele><time>2026-03-22T14:03:53.926Z</time></trkpt><trkpt lat="30.4023492894045" lon="-6.477753590247282"><ele>1307.0</ele><time>2026-03-22T14:03:54.926Z</time></trkpt><trkpt lat="30.40231755038203" lon="-6.477831445195718"><ele>1307.0</ele><time>2026-03-22T14:03:55.926Z</time></trkpt><trkpt lat="30.402291673630582" lon="-6.47793042877394"><ele>1307.0</ele><time>2026-03-22T14:03:56.926Z</time></trkpt><trkpt lat="30.402273466925" lon="-6.478045449264923"><ele>1307.0</ele><time>2026-03-22T14:03:57.926Z</time></trkpt><trkpt lat="30.402255097593834" lon="-6.478154535680956"><ele>1307.0</ele><time>2026-03-22T14:03:58.926Z</time></trkpt><trkpt lat="30.402245207817273" lon="-6.478256694089971"><ele>1307.0</ele><time>2026-03-22T14:03:59.926Z</time></trkpt><trkpt lat="30.40221286813074" lon="-6.4783584760584"><ele>1307.5</ele><time>2026-03-22T14:04:00.926Z</time></trkpt><trkpt lat="30.402181175551107" lon="-6.4784481508862894"><ele>1308.0</ele><time>2026-03-22T14:04:01.926Z</time></trkpt><trkpt lat="30.40216494821378" lon="-6.478548552405274"><ele>1308.5</ele><time>2026-03-22T14:04:02.926Z</time></trkpt><trkpt lat="30.402164056813458" lon="-6.478644503359696"><ele>1309.0</ele><time>2026-03-22T14:04:03.926Z</time></trkpt><trkpt lat="30.402155015513653" lon="-6.47872710092658"><ele>1309.5</ele><time>2026-03-22T14:04:04.926Z</time></trkpt><trkpt lat="30.402119810902636" lon="-6.478813233564655"><ele>1310.0</ele><time>2026-03-22T14:04:05.926Z</time></trkpt><trkpt lat="30.402064555920646" lon="-6.478891013521212"><ele>1310.1666666666667</ele><time>2026-03-22T14:04:06.926Z</time></trkpt><trkpt lat="30.402008980117504" lon="-6.478970593639254"><ele>1310.3333333333335</ele><time>2026-03-22T14:04:07.926Z</time></trkpt><trkpt lat="30.40196351476583" lon="-6.479046010297642"><ele>1310.5</ele><time>2026-03-22T14:04:08.926Z</time></trkpt><trkpt lat="30.401915006945824" lon="-6.479130657800673"><ele>1310.6666666666667</ele><time>2026-03-22T14:04:09.926Z</time></trkpt><trkpt lat="30.40186880248367" lon="-6.479220786643327"><ele>1310.8333333333333</ele><time>2026-03-22T14:04:10.926Z</time></trkpt><trkpt lat="30.401828152917965" lon="-6.4793107326448105"><ele>1311.0</ele><time>2026-03-22T14:04:11.926Z</time></trkpt><trkpt lat="30.401798257170977" lon="-6.479394855400866"><ele>1311.0</ele><time>2026-03-22T14:04:12.926Z</time></trkpt><trkpt lat="30.401784276617775" lon="-6.479474811303762"><ele>1311.0</ele><time>2026-03-22T14:04:13.926Z</time></trkpt><trkpt lat="30.401776362760014" lon="-6.479565314892347"><ele>1311.0</ele><time>2026-03-22T14:04:14.926Z</time></trkpt><trkpt lat="30.40176504759896" lon="-6.479659828956338"><ele>1311.0</ele><time>2026-03-22T14:04:15.926Z</time></trkpt><trkpt lat="30.40174078787295" lon="-6.479752954161654"><ele>1311.0</ele><time>2026-03-22T14:04:16.926Z</time></trkpt><trkpt lat="30.401705378623085" lon="-6.479831272261842"><ele>1311.0</ele><time>2026-03-22T14:04:17.926Z</time></trkpt><trkpt lat="30.401663830627882" lon="-6.479907136116652"><ele>1311.3333333333333</ele><time>2026-03-22T14:04:18.926Z</time></trkpt><trkpt lat="30.40163195869987" lon="-6.4799804431353145"><ele>1311.6666666666667</ele><time>2026-03-22T14:04:19.926Z</time></trkpt><trkpt lat="30.401603541462478" lon="-6.4800546169028745"><ele>1312.0</ele><time>2026-03-22T14:04:20.926Z</time></trkpt><trkpt lat="30.40158150190435" lon="-6.480123940799991"><ele>1312.3333333333335</ele><time>2026-03-22T14:04:21.926Z</time></trkpt><trkpt lat="30.401544881397232" lon="-6.480255874807744"><ele>1312.6666666666667</ele><time>2026-03-22T14:04:23.926Z</time></trkpt><trkpt lat="30.40152072803164" lon="-6.480336375713416"><ele>1313.0</ele><time>2026-03-22T14:04:24.926Z</time></trkpt><trkpt lat="30.401513819553234" lon="-6.480502583148344"><ele>1313.6000000000001</ele><time>2026-03-22T14:04:26.926Z</time></trkpt><trkpt lat="30.401497851753597" lon="-6.48062803212014"><ele>1314.2</ele><time>2026-03-22T14:04:27.926Z</time></trkpt><trkpt lat="30.40147520454124" lon="-6.4807590985488615"><ele>1314.8</ele><time>2026-03-22T14:04:28.926Z</time></trkpt><trkpt lat="30.40143365273463" lon="-6.480866555372278"><ele>1315.4</ele><time>2026-03-22T14:04:29.926Z</time></trkpt><trkpt lat="30.401387936778274" lon="-6.480960757645374"><ele>1316.0</ele><time>2026-03-22T14:04:30.926Z</time></trkpt><trkpt lat="30.401296858726248" lon="-6.481023806131366"><ele>1316.0</ele><time>2026-03-22T14:04:32.926Z</time></trkpt><trkpt lat="30.401248946221756" lon="-6.481071150891371"><ele>1316.0</ele><time>2026-03-22T14:04:33.926Z</time></trkpt><trkpt lat="30.401181261671457" lon="-6.481187175447788"><ele>1316.0</ele><time>2026-03-22T14:04:35.926Z</time></trkpt><trkpt lat="30.401152188269474" lon="-6.481265844343151"><ele>1316.0</ele><time>2026-03-22T14:04:36.926Z</time></trkpt><trkpt lat="30.40112393331109" lon="-6.481341671366365"><ele>1316.0</ele><time>2026-03-22T14:04:37.926Z</time></trkpt><trkpt lat="30.40109481296127" lon="-6.481413979872967"><ele>1316.0</ele><time>2026-03-22T14:04:38.926Z</time></trkpt><trkpt lat="30.40106277012495" lon="-6.481489584184106"><ele>1316.2857142857142</ele><time>2026-03-22T14:04:39.926Z</time></trkpt><trkpt lat="30.401025043093263" lon="-6.481560375861543"><ele>1316.5714285714284</ele><time>2026-03-22T14:04:40.926Z</time></trkpt><trkpt lat="30.400986045226187" lon="-6.481631961813537"><ele>1316.857142857143</ele><time>2026-03-22T14:04:41.926Z</time></trkpt><trkpt lat="30.40095282231338" lon="-6.481716323514381"><ele>1317.142857142857</ele><time>2026-03-22T14:04:42.926Z</time></trkpt><trkpt lat="30.400922695630747" lon="-6.481794235981226"><ele>1317.4285714285713</ele><time>2026-03-22T14:04:43.926Z</time></trkpt><trkpt lat="30.40089305089229" lon="-6.481874523739833"><ele>1317.7142857142858</ele><time>2026-03-22T14:04:44.926Z</time></trkpt><trkpt lat="30.40086725106852" lon="-6.481950254085142"><ele>1318.0</ele><time>2026-03-22T14:04:45.926Z</time></trkpt><trkpt lat="30.40084829758205" lon="-6.482040103951923"><ele>1318.3333333333333</ele><time>2026-03-22T14:04:46.926Z</time></trkpt><trkpt lat="30.40081502919522" lon="-6.482122432159679"><ele>1318.6666666666665</ele><time>2026-03-22T14:04:47.926Z</time></trkpt><trkpt lat="30.400783787969857" lon="-6.482216723885358"><ele>1319.0</ele><time>2026-03-22T14:04:48.926Z</time></trkpt><trkpt lat="30.400773030231594" lon="-6.482310331613949"><ele>1319.3333333333333</ele><time>2026-03-22T14:04:49.926Z</time></trkpt><trkpt lat="30.40077080758755" lon="-6.482410034290625"><ele>1319.6666666666667</ele><time>2026-03-22T14:04:50.926Z</time></trkpt><trkpt lat="30.400779813078284" lon="-6.482508256656653"><ele>1320.0</ele><time>2026-03-22T14:04:51.926Z</time></trkpt><trkpt lat="30.400775866634255" lon="-6.482598657184806"><ele>1320.0</ele><time>2026-03-22T14:04:52.926Z</time></trkpt><trkpt lat="30.40074483738009" lon="-6.482672502366252"><ele>1320.0</ele><time>2026-03-22T14:04:53.926Z</time></trkpt><trkpt lat="30.40071197432379" lon="-6.482743218350655"><ele>1320.0</ele><time>2026-03-22T14:04:54.926Z</time></trkpt><trkpt lat="30.400660616303064" lon="-6.482865083668093"><ele>1320.0</ele><time>2026-03-22T14:04:56.926Z</time></trkpt><trkpt lat="30.400638108173222" lon="-6.482934598064264"><ele>1320.0</ele><time>2026-03-22T14:04:57.926Z</time></trkpt><trkpt lat="30.40060414953226" lon="-6.483020291844352"><ele>1320.0</ele><time>2026-03-22T14:04:58.926Z</time></trkpt><trkpt lat="30.400573908413214" lon="-6.483121496480756"><ele>1319.6666666666667</ele><time>2026-03-22T14:04:59.926Z</time></trkpt><trkpt lat="30.400549375126978" lon="-6.483205917472186"><ele>1319.3333333333333</ele><time>2026-03-22T14:05:00.926Z</time></trkpt><trkpt lat="30.400513164205037" lon="-6.483280781608817"><ele>1319.0</ele><time>2026-03-22T14:05:01.926Z</time></trkpt><trkpt lat="30.400482794774028" lon="-6.483360158831776"><ele>1318.6666666666665</ele><time>2026-03-22T14:05:02.926Z</time></trkpt><trkpt lat="30.400459552661367" lon="-6.483453818722389"><ele>1318.3333333333333</ele><time>2026-03-22T14:05:03.926Z</time></trkpt><trkpt lat="30.400439667028603" lon="-6.483547350831455"><ele>1318.0</ele><time>2026-03-22T14:05:04.926Z</time></trkpt><trkpt lat="30.40040566787883" lon="-6.4836393284704865"><ele>1318.6666666666665</ele><time>2026-03-22T14:05:05.926Z</time></trkpt><trkpt lat="30.400358762348688" lon="-6.483730212626304"><ele>1319.3333333333333</ele><time>2026-03-22T14:05:06.926Z</time></trkpt><trkpt lat="30.400321009609208" lon="-6.483796805377066"><ele>1320.0</ele><time>2026-03-22T14:05:07.926Z</time></trkpt><trkpt lat="30.40030333894114" lon="-6.483931774085304"><ele>1320.6666666666667</ele><time>2026-03-22T14:05:09.926Z</time></trkpt><trkpt lat="30.400267402091476" lon="-6.483997911643795"><ele>1321.3333333333335</ele><time>2026-03-22T14:05:10.926Z</time></trkpt><trkpt lat="30.400237530423908" lon="-6.484085308660468"><ele>1322.0</ele><time>2026-03-22T14:05:11.926Z</time></trkpt><trkpt lat="30.40020968924074" lon="-6.48416490981814"><ele>1322.0</ele><time>2026-03-22T14:05:12.926Z</time></trkpt><trkpt lat="30.400172221190406" lon="-6.484240587505778"><ele>1322.0</ele><time>2026-03-22T14:05:13.926Z</time></trkpt><trkpt lat="30.400119279792033" lon="-6.484323065911186"><ele>1322.0</ele><time>2026-03-22T14:05:14.926Z</time></trkpt><trkpt lat="30.400058317565477" lon="-6.484403561419718"><ele>1322.0</ele><time>2026-03-22T14:05:15.926Z</time></trkpt><trkpt lat="30.40000421595702" lon="-6.484475964917955"><ele>1322.0</ele><time>2026-03-22T14:05:16.926Z</time></trkpt><trkpt lat="30.399924175993444" lon="-6.4845687746715"><ele>1322.1666666666667</ele><time>2026-03-22T14:05:18.926Z</time></trkpt><trkpt lat="30.399834168223776" lon="-6.484655947811147"><ele>1322.3333333333335</ele><time>2026-03-22T14:05:20.926Z</time></trkpt><trkpt lat="30.399713580053636" lon="-6.484687859270612"><ele>1322.5</ele><time>2026-03-22T14:05:22.926Z</time></trkpt><trkpt lat="30.399651417435887" lon="-6.4847037582383305"><ele>1322.6666666666667</ele><time>2026-03-22T14:05:23.926Z</time></trkpt><trkpt lat="30.39958545834962" lon="-6.48471232322817"><ele>1322.8333333333333</ele><time>2026-03-22T14:05:24.926Z</time></trkpt><trkpt lat="30.399521770823615" lon="-6.484707332992286"><ele>1323.0</ele><time>2026-03-22T14:05:25.926Z</time></trkpt><trkpt lat="30.399410307254477" lon="-6.484696167355977"><ele>1323.0</ele><time>2026-03-22T14:05:27.926Z</time></trkpt><trkpt lat="30.399341617957827" lon="-6.484692194336527"><ele>1323.0</ele><time>2026-03-22T14:05:30.926Z</time></trkpt><trkpt lat="30.399258092194724" lon="-6.484684775081623"><ele>1323.0</ele><time>2026-03-22T14:05:33.926Z</time></trkpt><trkpt lat="30.399180257719074" lon="-6.484721340563393"><ele>1323.0</ele><time>2026-03-22T14:05:36.926Z</time></trkpt><trkpt lat="30.399071063344394" lon="-6.484679113342411"><ele>1323.0</ele><time>2026-03-22T14:05:39.926Z</time></trkpt><trkpt lat="30.39900758352245" lon="-6.484641061289421"><ele>1323.0</ele><time>2026-03-22T14:05:40.926Z</time></trkpt><trkpt lat="30.398919534749506" lon="-6.484597871705231"><ele>1324.6000000000001</ele><time>2026-03-22T14:05:41.925Z</time></trkpt><trkpt lat="30.39883691810343" lon="-6.484574443628343"><ele>1326.2</ele><time>2026-03-22T14:05:42.925Z</time></trkpt><trkpt lat="30.39875035436543" lon="-6.484498932290331"><ele>1327.8</ele><time>2026-03-22T14:05:44.926Z</time></trkpt><trkpt lat="30.398644681768694" lon="-6.484438769300387"><ele>1329.4</ele><time>2026-03-22T14:05:46.926Z</time></trkpt><trkpt lat="30.398557842117956" lon="-6.48442216256502"><ele>1331.0</ele><time>2026-03-22T14:05:47.926Z</time></trkpt><trkpt lat="30.3984876784034" lon="-6.484411113904644"><ele>1331.0</ele><time>2026-03-22T14:05:48.926Z</time></trkpt><trkpt lat="30.398387458314293" lon="-6.484401868889899"><ele>1331.0</ele><time>2026-03-22T14:05:50.925Z</time></trkpt><trkpt lat="30.39829058763631" lon="-6.484357174056416"><ele>1331.0</ele><time>2026-03-22T14:05:52.925Z</time></trkpt><trkpt lat="30.398213596103293" lon="-6.484347275162111"><ele>1331.0</ele><time>2026-03-22T14:05:54.925Z</time></trkpt><trkpt lat="30.39815756554057" lon="-6.48439185068123"><ele>1331.0</ele><time>2026-03-22T14:06:04.925Z</time></trkpt><trkpt lat="30.398056069191068" lon="-6.484427235626202"><ele>1330.6666666666667</ele><time>2026-03-22T14:06:07.925Z</time></trkpt><trkpt lat="30.397967776212305" lon="-6.484492138481344"><ele>1330.3333333333335</ele><time>2026-03-22T14:06:09.925Z</time></trkpt><trkpt lat="30.397915938750227" lon="-6.484535783392554"><ele>1330.0</ele><time>2026-03-22T14:06:10.925Z</time></trkpt><trkpt lat="30.397862119970828" lon="-6.484585358858355"><ele>1329.6666666666667</ele><time>2026-03-22T14:06:11.925Z</time></trkpt><trkpt lat="30.39781246691662" lon="-6.484645416132163"><ele>1329.3333333333333</ele><time>2026-03-22T14:06:12.925Z</time></trkpt><trkpt lat="30.397754950358433" lon="-6.48470656581923"><ele>1329.0</ele><time>2026-03-22T14:06:13.925Z</time></trkpt><trkpt lat="30.39770311425513" lon="-6.484770781805733"><ele>1329.0</ele><time>2026-03-22T14:06:14.925Z</time></trkpt><trkpt lat="30.397640179123176" lon="-6.484832821039292"><ele>1329.0</ele><time>2026-03-22T14:06:15.925Z</time></trkpt><trkpt lat="30.397573472879102" lon="-6.484902918249983"><ele>1329.0</ele><time>2026-03-22T14:06:16.925Z</time></trkpt><trkpt lat="30.397513502231057" lon="-6.484968267600352"><ele>1329.0</ele><time>2026-03-22T14:06:17.925Z</time></trkpt><trkpt lat="30.39745351668243" lon="-6.4850409827787505"><ele>1329.0</ele><time>2026-03-22T14:06:18.925Z</time></trkpt><trkpt lat="30.39738999688361" lon="-6.485100306706479"><ele>1329.0</ele><time>2026-03-22T14:06:19.925Z</time></trkpt><trkpt lat="30.397314906355927" lon="-6.485161582504277"><ele>1329.0</ele><time>2026-03-22T14:06:20.925Z</time></trkpt><trkpt lat="30.397209940086395" lon="-6.48524772847866"><ele>1329.0</ele><time>2026-03-22T14:06:21.925Z</time></trkpt><trkpt lat="30.397104152976098" lon="-6.485317796727811"><ele>1329.0</ele><time>2026-03-22T14:06:22.925Z</time></trkpt><trkpt lat="30.39700285152819" lon="-6.48535550439019"><ele>1329.0</ele><time>2026-03-22T14:06:23.925Z</time></trkpt><trkpt lat="30.396900395771265" lon="-6.485382325181333"><ele>1328.8333333333333</ele><time>2026-03-22T14:06:24.925Z</time></trkpt><trkpt lat="30.396815522642797" lon="-6.4854097506196"><ele>1328.6666666666667</ele><time>2026-03-22T14:06:25.925Z</time></trkpt><trkpt lat="30.396742435670724" lon="-6.485437860420118"><ele>1328.5</ele><time>2026-03-22T14:06:26.925Z</time></trkpt><trkpt lat="30.39666983814003" lon="-6.4854642161279"><ele>1328.3333333333335</ele><time>2026-03-22T14:06:27.925Z</time></trkpt><trkpt lat="30.3966045006781" lon="-6.48550123570681"><ele>1328.1666666666667</ele><time>2026-03-22T14:06:28.925Z</time></trkpt><trkpt lat="30.39653839387949" lon="-6.4855621338826515"><ele>1328.0</ele><time>2026-03-22T14:06:29.925Z</time></trkpt><trkpt lat="30.39647411314824" lon="-6.485609592169207"><ele>1328.0</ele><time>2026-03-22T14:06:30.925Z</time></trkpt><trkpt lat="30.39639178501229" lon="-6.485626497239086"><ele>1328.0</ele><time>2026-03-22T14:06:31.925Z</time></trkpt><trkpt lat="30.39630999308325" lon="-6.485661476697772"><ele>1328.0</ele><time>2026-03-22T14:06:32.925Z</time></trkpt><trkpt lat="30.396217124652754" lon="-6.485716039051087"><ele>1328.0</ele><time>2026-03-22T14:06:33.925Z</time></trkpt><trkpt lat="30.396115816469937" lon="-6.485780950952683"><ele>1328.0</ele><time>2026-03-22T14:06:34.925Z</time></trkpt><trkpt lat="30.396042694915135" lon="-6.485858655029978"><ele>1327.6000000000001</ele><time>2026-03-22T14:06:35.925Z</time></trkpt><trkpt lat="30.395957355326225" lon="-6.485944502704587"><ele>1327.2</ele><time>2026-03-22T14:06:36.925Z</time></trkpt><trkpt lat="30.395850708046478" lon="-6.486019823534261"><ele>1326.8</ele><time>2026-03-22T14:06:37.925Z</time></trkpt><trkpt lat="30.395748045560822" lon="-6.486064803971134"><ele>1326.4</ele><time>2026-03-22T14:06:38.925Z</time></trkpt><trkpt lat="30.39566037284453" lon="-6.486078143420216"><ele>1326.0</ele><time>2026-03-22T14:06:39.925Z</time></trkpt><trkpt lat="30.395582118180744" lon="-6.486111032652915"><ele>1326.1666666666667</ele><time>2026-03-22T14:06:40.925Z</time></trkpt><trkpt lat="30.39550084497076" lon="-6.48615669285154"><ele>1326.3333333333333</ele><time>2026-03-22T14:06:41.925Z</time></trkpt><trkpt lat="30.39542557766609" lon="-6.486211848411315"><ele>1326.5</ele><time>2026-03-22T14:06:42.925Z</time></trkpt><trkpt lat="30.395341900859595" lon="-6.48627732846131"><ele>1326.6666666666665</ele><time>2026-03-22T14:06:43.925Z</time></trkpt><trkpt lat="30.39526540255793" lon="-6.486329674792594"><ele>1326.8333333333333</ele><time>2026-03-22T14:06:44.925Z</time></trkpt><trkpt lat="30.395215340204256" lon="-6.486386981089572"><ele>1327.0</ele><time>2026-03-22T14:06:45.925Z</time></trkpt><trkpt lat="30.395164731159394" lon="-6.4864383519604445"><ele>1327.0</ele><time>2026-03-22T14:06:46.925Z</time></trkpt><trkpt lat="30.39504712367831" lon="-6.486487674251406"><ele>1327.0</ele><time>2026-03-22T14:06:48.925Z</time></trkpt><trkpt lat="30.394991294012026" lon="-6.486533970266022"><ele>1327.0</ele><time>2026-03-22T14:06:49.925Z</time></trkpt><trkpt lat="30.394927383903887" lon="-6.486588686030961"><ele>1327.0</ele><time>2026-03-22T14:06:50.925Z</time></trkpt><trkpt lat="30.39486679049234" lon="-6.4866387685700335"><ele>1327.0</ele><time>2026-03-22T14:06:51.925Z</time></trkpt><trkpt lat="30.394808374814396" lon="-6.486692156696248"><ele>1327.0</ele><time>2026-03-22T14:06:52.925Z</time></trkpt><trkpt lat="30.39474686317929" lon="-6.4867604071284"><ele>1327.0</ele><time>2026-03-22T14:06:53.925Z</time></trkpt><trkpt lat="30.394687878916898" lon="-6.486840350403656"><ele>1327.0</ele><time>2026-03-22T14:06:54.925Z</time></trkpt><trkpt lat="30.39463217322347" lon="-6.486925154664912"><ele>1327.0</ele><time>2026-03-22T14:06:55.925Z</time></trkpt><trkpt lat="30.394580197979693" lon="-6.487005715753588"><ele>1327.0</ele><time>2026-03-22T14:06:56.925Z</time></trkpt><trkpt lat="30.394520390375693" lon="-6.487080413683319"><ele>1327.0</ele><time>2026-03-22T14:06:57.925Z</time></trkpt><trkpt lat="30.394466560529995" lon="-6.4871557427894"><ele>1327.0</ele><time>2026-03-22T14:06:58.925Z</time></trkpt><trkpt lat="30.394416162554343" lon="-6.487214968363223"><ele>1326.6666666666665</ele><time>2026-03-22T14:06:59.925Z</time></trkpt><trkpt lat="30.394363211878094" lon="-6.487254647962397"><ele>1326.3333333333333</ele><time>2026-03-22T14:07:00.925Z</time></trkpt><trkpt lat="30.39429802952326" lon="-6.4872791802250545"><ele>1326.0</ele><time>2026-03-22T14:07:01.925Z</time></trkpt><trkpt lat="30.394222048748038" lon="-6.487319832965847"><ele>1325.6666666666667</ele><time>2026-03-22T14:07:02.925Z</time></trkpt><trkpt lat="30.394157250840053" lon="-6.48736653783317"><ele>1325.3333333333335</ele><time>2026-03-22T14:07:03.925Z</time></trkpt><trkpt lat="30.394094719040055" lon="-6.487434142929103"><ele>1325.0</ele><time>2026-03-22T14:07:04.925Z</time></trkpt><trkpt lat="30.394029410805157" lon="-6.487500734088204"><ele>1325.0</ele><time>2026-03-22T14:07:05.925Z</time></trkpt><trkpt lat="30.393960513720554" lon="-6.487568628741874"><ele>1325.0</ele><time>2026-03-22T14:07:06.925Z</time></trkpt><trkpt lat="30.39389872710946" lon="-6.487635265707656"><ele>1325.0</ele><time>2026-03-22T14:07:07.925Z</time></trkpt><trkpt lat="30.393848360606007" lon="-6.487708430773371"><ele>1325.0</ele><time>2026-03-22T14:07:08.925Z</time></trkpt><trkpt lat="30.393799239211987" lon="-6.487787766498058"><ele>1325.0</ele><time>2026-03-22T14:07:09.925Z</time></trkpt><trkpt lat="30.39375633918235" lon="-6.4878689855755995"><ele>1325.0</ele><time>2026-03-22T14:07:10.925Z</time></trkpt><trkpt lat="30.39371303281504" lon="-6.48794439026781"><ele>1325.6666666666667</ele><time>2026-03-22T14:07:11.925Z</time></trkpt><trkpt lat="30.393661399450554" lon="-6.488014337383844"><ele>1326.3333333333335</ele><time>2026-03-22T14:07:12.925Z</time></trkpt><trkpt lat="30.393605572969143" lon="-6.488087972675871"><ele>1327.0</ele><time>2026-03-22T14:07:13.925Z</time></trkpt><trkpt lat="30.393565929853192" lon="-6.488179688846184"><ele>1327.6666666666667</ele><time>2026-03-22T14:07:14.925Z</time></trkpt><trkpt lat="30.393536419174684" lon="-6.4882702938924695"><ele>1328.3333333333333</ele><time>2026-03-22T14:07:15.925Z</time></trkpt><trkpt lat="30.393504228094933" lon="-6.488359985713965"><ele>1329.0</ele><time>2026-03-22T14:07:16.925Z</time></trkpt><trkpt lat="30.393462922763877" lon="-6.488481681279157"><ele>1329.0</ele><time>2026-03-22T14:07:17.925Z</time></trkpt><trkpt lat="30.393403463808287" lon="-6.488604304694347"><ele>1329.0</ele><time>2026-03-22T14:07:18.925Z</time></trkpt><trkpt lat="30.393345493190754" lon="-6.4886983208419515"><ele>1329.0</ele><time>2026-03-22T14:07:19.925Z</time></trkpt><trkpt lat="30.393304226758165" lon="-6.488792972493461"><ele>1329.0</ele><time>2026-03-22T14:07:20.925Z</time></trkpt><trkpt lat="30.393282315884992" lon="-6.488888757475836"><ele>1329.0</ele><time>2026-03-22T14:07:21.925Z</time></trkpt><trkpt lat="30.393268516193874" lon="-6.488989064262293"><ele>1329.5</ele><time>2026-03-22T14:07:22.925Z</time></trkpt><trkpt lat="30.393244148926897" lon="-6.4890811617073645"><ele>1330.0</ele><time>2026-03-22T14:07:23.925Z</time></trkpt><trkpt lat="30.39321708015881" lon="-6.48917340654989"><ele>1330.5</ele><time>2026-03-22T14:07:24.925Z</time></trkpt><trkpt lat="30.39320038972278" lon="-6.4892687162284375"><ele>1331.0</ele><time>2026-03-22T14:07:25.925Z</time></trkpt><trkpt lat="30.393179786941335" lon="-6.489367522049877"><ele>1331.5</ele><time>2026-03-22T14:07:26.925Z</time></trkpt><trkpt lat="30.393154495833993" lon="-6.489464312177561"><ele>1332.0</ele><time>2026-03-22T14:07:27.925Z</time></trkpt><trkpt lat="30.393133865138317" lon="-6.489577251270146"><ele>1332.0</ele><time>2026-03-22T14:07:28.925Z</time></trkpt><trkpt lat="30.39311056290498" lon="-6.489691118209558"><ele>1332.0</ele><time>2026-03-22T14:07:29.925Z</time></trkpt><trkpt lat="30.393086273403814" lon="-6.489787850991747"><ele>1332.0</ele><time>2026-03-22T14:07:30.925Z</time></trkpt><trkpt lat="30.393068423714276" lon="-6.489908612397422"><ele>1332.0</ele><time>2026-03-22T14:07:31.925Z</time></trkpt><trkpt lat="30.39305382273305" lon="-6.4900409431353605"><ele>1332.0</ele><time>2026-03-22T14:07:32.925Z</time></trkpt><trkpt lat="30.39303880256103" lon="-6.490190607263709"><ele>1332.0</ele><time>2026-03-22T14:07:33.925Z</time></trkpt><trkpt lat="30.39301438923035" lon="-6.490359366079736"><ele>1332.0</ele><time>2026-03-22T14:07:34.925Z</time></trkpt><trkpt lat="30.39301523761303" lon="-6.490500835273462"><ele>1332.0</ele><time>2026-03-22T14:07:35.925Z</time></trkpt><trkpt lat="30.393004947709795" lon="-6.4906187678073035"><ele>1332.0</ele><time>2026-03-22T14:07:36.925Z</time></trkpt><trkpt lat="30.39298000445713" lon="-6.490732860462538"><ele>1331.8333333333333</ele><time>2026-03-22T14:07:37.925Z</time></trkpt><trkpt lat="30.392967545507602" lon="-6.490839259023536"><ele>1331.6666666666667</ele><time>2026-03-22T14:07:38.925Z</time></trkpt><trkpt lat="30.39293879886174" lon="-6.490934910745676"><ele>1331.5</ele><time>2026-03-22T14:07:39.925Z</time></trkpt><trkpt lat="30.392900219786377" lon="-6.491016325465424"><ele>1331.3333333333335</ele><time>2026-03-22T14:07:40.925Z</time></trkpt><trkpt lat="30.392853519597633" lon="-6.4910725914629355"><ele>1331.1666666666667</ele><time>2026-03-22T14:07:41.925Z</time></trkpt><trkpt lat="30.392813579999572" lon="-6.491143211428816"><ele>1331.0</ele><time>2026-03-22T14:07:42.925Z</time></trkpt><trkpt lat="30.392783517267894" lon="-6.491225097412603"><ele>1331.1666666666667</ele><time>2026-03-22T14:07:43.924Z</time></trkpt><trkpt lat="30.39276615874492" lon="-6.491317286062777"><ele>1331.3333333333335</ele><time>2026-03-22T14:07:44.925Z</time></trkpt><trkpt lat="30.392748255209774" lon="-6.491403572180809"><ele>1331.5</ele><time>2026-03-22T14:07:45.925Z</time></trkpt><trkpt lat="30.392726520396977" lon="-6.491494089437552"><ele>1331.6666666666667</ele><time>2026-03-22T14:07:46.925Z</time></trkpt><trkpt lat="30.392710609121828" lon="-6.491575861769646"><ele>1331.8333333333333</ele><time>2026-03-22T14:07:47.925Z</time></trkpt><trkpt lat="30.39268526238288" lon="-6.4916542887618"><ele>1332.0</ele><time>2026-03-22T14:07:48.925Z</time></trkpt><trkpt lat="30.39263680461118" lon="-6.491798124267481"><ele>1332.0</ele><time>2026-03-22T14:07:50.924Z</time></trkpt><trkpt lat="30.39261237592302" lon="-6.491887034303838"><ele>1332.0</ele><time>2026-03-22T14:07:51.924Z</time></trkpt><trkpt lat="30.392586243522814" lon="-6.491993838562626"><ele>1332.0</ele><time>2026-03-22T14:07:52.925Z</time></trkpt><trkpt lat="30.392575226414568" lon="-6.492115644689245"><ele>1332.0</ele><time>2026-03-22T14:07:53.925Z</time></trkpt><trkpt lat="30.392573027796924" lon="-6.492249339410963"><ele>1332.0</ele><time>2026-03-22T14:07:54.925Z</time></trkpt><trkpt lat="30.392576757122562" lon="-6.492371754023781"><ele>1332.0</ele><time>2026-03-22T14:07:55.924Z</time></trkpt><trkpt lat="30.392585019186225" lon="-6.49249623785339"><ele>1332.0</ele><time>2026-03-22T14:07:56.924Z</time></trkpt><trkpt lat="30.392598615426845" lon="-6.492609692059946"><ele>1332.0</ele><time>2026-03-22T14:07:57.924Z</time></trkpt><trkpt lat="30.392632843885607" lon="-6.492724142244515"><ele>1332.0</ele><time>2026-03-22T14:07:58.924Z</time></trkpt><trkpt lat="30.392668823339818" lon="-6.492834957099273"><ele>1332.0</ele><time>2026-03-22T14:07:59.924Z</time></trkpt><trkpt lat="30.392717936599823" lon="-6.492945130185277"><ele>1331.8333333333333</ele><time>2026-03-22T14:08:00.924Z</time></trkpt><trkpt lat="30.392782248466943" lon="-6.493043167622368"><ele>1331.6666666666667</ele><time>2026-03-22T14:08:01.924Z</time></trkpt><trkpt lat="30.392831769317887" lon="-6.493129332659773"><ele>1331.5</ele><time>2026-03-22T14:08:02.924Z</time></trkpt><trkpt lat="30.39284909560099" lon="-6.4932041325069285"><ele>1331.3333333333335</ele><time>2026-03-22T14:08:03.924Z</time></trkpt><trkpt lat="30.39284749598133" lon="-6.493279496372592"><ele>1331.1666666666667</ele><time>2026-03-22T14:08:04.924Z</time></trkpt><trkpt lat="30.392842152653156" lon="-6.493378932760413"><ele>1331.0</ele><time>2026-03-22T14:08:05.924Z</time></trkpt><trkpt lat="30.3928262083186" lon="-6.493488269045812"><ele>1331.0</ele><time>2026-03-22T14:08:06.924Z</time></trkpt><trkpt lat="30.392786709964852" lon="-6.4936091953546615"><ele>1331.0</ele><time>2026-03-22T14:08:07.924Z</time></trkpt><trkpt lat="30.392754258183917" lon="-6.493721041416866"><ele>1331.0</ele><time>2026-03-22T14:08:08.924Z</time></trkpt><trkpt lat="30.392746135118166" lon="-6.4938123681952815"><ele>1331.0</ele><time>2026-03-22T14:08:09.924Z</time></trkpt><trkpt lat="30.392735644429077" lon="-6.493908936000095"><ele>1331.0</ele><time>2026-03-22T14:08:10.924Z</time></trkpt><trkpt lat="30.39272292929666" lon="-6.494005120911414"><ele>1331.1666666666667</ele><time>2026-03-22T14:08:11.924Z</time></trkpt><trkpt lat="30.39270963599333" lon="-6.494104101871407"><ele>1331.3333333333335</ele><time>2026-03-22T14:08:12.924Z</time></trkpt><trkpt lat="30.392683450660176" lon="-6.494193942509882"><ele>1331.5</ele><time>2026-03-22T14:08:13.924Z</time></trkpt><trkpt lat="30.392646770398763" lon="-6.494260162384702"><ele>1331.6666666666667</ele><time>2026-03-22T14:08:14.924Z</time></trkpt><trkpt lat="30.39262619518825" lon="-6.494346709931856"><ele>1331.8333333333333</ele><time>2026-03-22T14:08:15.924Z</time></trkpt><trkpt lat="30.392610127974994" lon="-6.494432859391773"><ele>1332.0</ele><time>2026-03-22T14:08:16.924Z</time></trkpt><trkpt lat="30.392597970721255" lon="-6.4945326734285995"><ele>1332.3333333333333</ele><time>2026-03-22T14:08:17.924Z</time></trkpt><trkpt lat="30.392572198037662" lon="-6.49463634094556"><ele>1332.6666666666667</ele><time>2026-03-22T14:08:18.924Z</time></trkpt><trkpt lat="30.392522715712882" lon="-6.494728507839344"><ele>1333.0</ele><time>2026-03-22T14:08:19.924Z</time></trkpt><trkpt lat="30.39248185974832" lon="-6.494809450296754"><ele>1333.3333333333335</ele><time>2026-03-22T14:08:20.924Z</time></trkpt><trkpt lat="30.392438246494706" lon="-6.494885318422829"><ele>1333.6666666666667</ele><time>2026-03-22T14:08:21.924Z</time></trkpt><trkpt lat="30.392382990648656" lon="-6.4949751411364"><ele>1334.0</ele><time>2026-03-22T14:08:22.924Z</time></trkpt><trkpt lat="30.392328968080434" lon="-6.4950754922678975"><ele>1334.0</ele><time>2026-03-22T14:08:23.924Z</time></trkpt><trkpt lat="30.39228671938378" lon="-6.495165413257141"><ele>1334.0</ele><time>2026-03-22T14:08:24.924Z</time></trkpt><trkpt lat="30.392250080626727" lon="-6.4952593824935825"><ele>1334.0</ele><time>2026-03-22T14:08:25.924Z</time></trkpt><trkpt lat="30.392213494196263" lon="-6.495352604931428"><ele>1334.0</ele><time>2026-03-22T14:08:26.924Z</time></trkpt><trkpt lat="30.392168130613317" lon="-6.495443378038609"><ele>1334.0</ele><time>2026-03-22T14:08:27.924Z</time></trkpt><trkpt lat="30.392132172548013" lon="-6.4955392515550905"><ele>1334.0</ele><time>2026-03-22T14:08:28.924Z</time></trkpt><trkpt lat="30.392082080444606" lon="-6.495642340089037"><ele>1334.2</ele><time>2026-03-22T14:08:29.924Z</time></trkpt><trkpt lat="30.392017108653675" lon="-6.495772498175997"><ele>1334.4</ele><time>2026-03-22T14:08:30.924Z</time></trkpt><trkpt lat="30.391963798263355" lon="-6.495890895480059"><ele>1334.6</ele><time>2026-03-22T14:08:31.924Z</time></trkpt><trkpt lat="30.39191835888043" lon="-6.495989046735262"><ele>1334.8</ele><time>2026-03-22T14:08:32.924Z</time></trkpt><trkpt lat="30.39188696283841" lon="-6.496062902750307"><ele>1335.0</ele><time>2026-03-22T14:08:33.924Z</time></trkpt><trkpt lat="30.39186814909988" lon="-6.49613732653075"><ele>1335.0</ele><time>2026-03-22T14:08:34.924Z</time></trkpt><trkpt lat="30.39184898254457" lon="-6.496222206878312"><ele>1335.0</ele><time>2026-03-22T14:08:35.924Z</time></trkpt><trkpt lat="30.391827666087966" lon="-6.496307382015161"><ele>1335.0</ele><time>2026-03-22T14:08:36.924Z</time></trkpt><trkpt lat="30.391799434062243" lon="-6.496390572172041"><ele>1335.0</ele><time>2026-03-22T14:08:37.924Z</time></trkpt><trkpt lat="30.39174911583519" lon="-6.496464687551421"><ele>1335.0</ele><time>2026-03-22T14:08:38.924Z</time></trkpt><trkpt lat="30.391704519494507" lon="-6.4965355926574"><ele>1335.0</ele><time>2026-03-22T14:08:39.924Z</time></trkpt><trkpt lat="30.391677927251546" lon="-6.496607522676306"><ele>1335.0</ele><time>2026-03-22T14:08:40.924Z</time></trkpt><trkpt lat="30.39167221820647" lon="-6.496691304086318"><ele>1335.0</ele><time>2026-03-22T14:08:41.924Z</time></trkpt><trkpt lat="30.39168149451839" lon="-6.496779922211389"><ele>1335.0</ele><time>2026-03-22T14:08:42.924Z</time></trkpt><trkpt lat="30.39168402917201" lon="-6.4968767050741345"><ele>1335.0</ele><time>2026-03-22T14:08:43.924Z</time></trkpt><trkpt lat="30.391669677833256" lon="-6.496975392501093"><ele>1335.0</ele><time>2026-03-22T14:08:44.924Z</time></trkpt><trkpt lat="30.391659384361173" lon="-6.49709089526347"><ele>1335.0</ele><time>2026-03-22T14:08:45.924Z</time></trkpt><trkpt lat="30.391640140891926" lon="-6.497199841372561"><ele>1335.0</ele><time>2026-03-22T14:08:46.924Z</time></trkpt><trkpt lat="30.39161864541295" lon="-6.497309969379559"><ele>1335.0</ele><time>2026-03-22T14:08:47.924Z</time></trkpt><trkpt lat="30.39159743050593" lon="-6.4974262836682515"><ele>1335.0</ele><time>2026-03-22T14:08:48.924Z</time></trkpt><trkpt lat="30.39156617948832" lon="-6.4975561735062"><ele>1335.0</ele><time>2026-03-22T14:08:49.924Z</time></trkpt><trkpt lat="30.391528139294227" lon="-6.497699928068429"><ele>1335.0</ele><time>2026-03-22T14:08:50.924Z</time></trkpt><trkpt lat="30.391478145851107" lon="-6.497827443089823"><ele>1335.5</ele><time>2026-03-22T14:08:51.924Z</time></trkpt><trkpt lat="30.39142861249202" lon="-6.497947710481496"><ele>1336.0</ele><time>2026-03-22T14:08:52.924Z</time></trkpt><trkpt lat="30.391364920521085" lon="-6.498054019722748"><ele>1336.5</ele><time>2026-03-22T14:08:53.924Z</time></trkpt><trkpt lat="30.39129920989337" lon="-6.498153598930706"><ele>1337.0</ele><time>2026-03-22T14:08:54.924Z</time></trkpt><trkpt lat="30.391231865274648" lon="-6.498272129649859"><ele>1337.0</ele><time>2026-03-22T14:08:55.924Z</time></trkpt><trkpt lat="30.391174543129516" lon="-6.498403883641358"><ele>1337.0</ele><time>2026-03-22T14:08:56.924Z</time></trkpt><trkpt lat="30.39112415318953" lon="-6.498533948211915"><ele>1337.0</ele><time>2026-03-22T14:08:57.924Z</time></trkpt><trkpt lat="30.391088939019884" lon="-6.498638648189738"><ele>1337.0</ele><time>2026-03-22T14:08:58.924Z</time></trkpt><trkpt lat="30.39105814110257" lon="-6.498725316807401"><ele>1337.0</ele><time>2026-03-22T14:08:59.924Z</time></trkpt><trkpt lat="30.391029354490104" lon="-6.498811770689247"><ele>1337.3333333333335</ele><time>2026-03-22T14:09:00.924Z</time></trkpt><trkpt lat="30.391006075044732" lon="-6.498895695871603"><ele>1337.6666666666667</ele><time>2026-03-22T14:09:01.924Z</time></trkpt><trkpt lat="30.390977001920223" lon="-6.498982857298591"><ele>1338.0</ele><time>2026-03-22T14:09:02.924Z</time></trkpt><trkpt lat="30.390951835309064" lon="-6.499077521293383"><ele>1338.3333333333333</ele><time>2026-03-22T14:09:03.924Z</time></trkpt><trkpt lat="30.39094713491795" lon="-6.499165469055733"><ele>1338.6666666666665</ele><time>2026-03-22T14:09:04.924Z</time></trkpt><trkpt lat="30.390951213455644" lon="-6.49924271813805"><ele>1339.0</ele><time>2026-03-22T14:09:05.924Z</time></trkpt><trkpt lat="30.390966627778635" lon="-6.49932060650178"><ele>1339.0</ele><time>2026-03-22T14:09:06.924Z</time></trkpt><trkpt lat="30.39096848973039" lon="-6.49939750161954"><ele>1339.0</ele><time>2026-03-22T14:09:07.924Z</time></trkpt><trkpt lat="30.390973155189542" lon="-6.49947741889116"><ele>1339.0</ele><time>2026-03-22T14:09:08.924Z</time></trkpt><trkpt lat="30.390965433815133" lon="-6.499563389795822"><ele>1339.0</ele><time>2026-03-22T14:09:09.924Z</time></trkpt><trkpt lat="30.390943768249052" lon="-6.499644421366521"><ele>1339.0</ele><time>2026-03-22T14:09:10.924Z</time></trkpt><trkpt lat="30.39092214937758" lon="-6.499724570593185"><ele>1339.0</ele><time>2026-03-22T14:09:11.924Z</time></trkpt><trkpt lat="30.39090937353024" lon="-6.499816739750815"><ele>1339.0</ele><time>2026-03-22T14:09:12.924Z</time></trkpt><trkpt lat="30.390900628667122" lon="-6.499927588895743"><ele>1339.5</ele><time>2026-03-22T14:09:13.924Z</time></trkpt><trkpt lat="30.390891664572173" lon="-6.500047522684542"><ele>1340.0</ele><time>2026-03-22T14:09:14.924Z</time></trkpt><trkpt lat="30.39087939885545" lon="-6.500188041625367"><ele>1340.5</ele><time>2026-03-22T14:09:15.924Z</time></trkpt><trkpt lat="30.390857794792364" lon="-6.500354066356294"><ele>1341.0</ele><time>2026-03-22T14:09:16.924Z</time></trkpt><trkpt lat="30.390825261240224" lon="-6.5005661539538675"><ele>1342.0</ele><time>2026-03-22T14:09:17.924Z</time></trkpt><trkpt lat="30.390802352519394" lon="-6.500767425659622"><ele>1343.0</ele><time>2026-03-22T14:09:18.924Z</time></trkpt><trkpt lat="30.390793956279797" lon="-6.500941673992413"><ele>1344.0</ele><time>2026-03-22T14:09:19.924Z</time></trkpt><trkpt lat="30.390802182962904" lon="-6.501114809033294"><ele>1344.0</ele><time>2026-03-22T14:09:20.924Z</time></trkpt><trkpt lat="30.39078894090335" lon="-6.501287635452413"><ele>1344.0</ele><time>2026-03-22T14:09:21.924Z</time></trkpt><trkpt lat="30.39075310201868" lon="-6.5014538908844965"><ele>1344.0</ele><time>2026-03-22T14:09:22.924Z</time></trkpt><trkpt lat="30.390729130560644" lon="-6.501611798753976"><ele>1344.0</ele><time>2026-03-22T14:09:23.924Z</time></trkpt><trkpt lat="30.39067611620249" lon="-6.501769927082144"><ele>1344.0</ele><time>2026-03-22T14:09:24.924Z</time></trkpt><trkpt lat="30.39062650923871" lon="-6.501899507760758"><ele>1344.0</ele><time>2026-03-22T14:09:25.924Z</time></trkpt><trkpt lat="30.39059431544868" lon="-6.502014154361095"><ele>1344.0</ele><time>2026-03-22T14:09:26.924Z</time></trkpt><trkpt lat="30.390586876445028" lon="-6.502145840885722"><ele>1344.0</ele><time>2026-03-22T14:09:27.924Z</time></trkpt><trkpt lat="30.390586207841462" lon="-6.502298606522731"><ele>1344.2</ele><time>2026-03-22T14:09:28.924Z</time></trkpt><trkpt lat="30.390591937139618" lon="-6.502436706468087"><ele>1344.4</ele><time>2026-03-22T14:09:29.924Z</time></trkpt><trkpt lat="30.390590451311233" lon="-6.502547109501045"><ele>1344.6</ele><time>2026-03-22T14:09:30.924Z</time></trkpt><trkpt lat="30.39055910077485" lon="-6.502655664392091"><ele>1344.8</ele><time>2026-03-22T14:09:31.924Z</time></trkpt><trkpt lat="30.390537441292786" lon="-6.502749461377573"><ele>1345.0</ele><time>2026-03-22T14:09:32.924Z</time></trkpt><trkpt lat="30.390515793673362" lon="-6.502818684413939"><ele>1345.0</ele><time>2026-03-22T14:09:33.924Z</time></trkpt><trkpt lat="30.39049337500859" lon="-6.502913035532426"><ele>1345.0</ele><time>2026-03-22T14:09:35.924Z</time></trkpt><trkpt lat="30.390492983111752" lon="-6.503030043522619"><ele>1345.0</ele><time>2026-03-22T14:09:37.924Z</time></trkpt><trkpt lat="30.390472323156647" lon="-6.503178430604599"><ele>1345.0</ele><time>2026-03-22T14:09:39.924Z</time></trkpt><trkpt lat="30.390464191017372" lon="-6.503271289711753"><ele>1345.0</ele><time>2026-03-22T14:09:40.924Z</time></trkpt><trkpt lat="30.3904469339906" lon="-6.503385741476075"><ele>1345.0</ele><time>2026-03-22T14:09:41.924Z</time></trkpt><trkpt lat="30.390413167476698" lon="-6.503508069583587"><ele>1345.0</ele><time>2026-03-22T14:09:42.924Z</time></trkpt><trkpt lat="30.390392705781856" lon="-6.503626180989724"><ele>1345.0</ele><time>2026-03-22T14:09:43.924Z</time></trkpt><trkpt lat="30.390371552980643" lon="-6.503731328511527"><ele>1345.0</ele><time>2026-03-22T14:09:44.924Z</time></trkpt><trkpt lat="30.390356228752477" lon="-6.503820116939447"><ele>1345.0</ele><time>2026-03-22T14:09:45.923Z</time></trkpt><trkpt lat="30.39033831203497" lon="-6.5038952219708825"><ele>1345.3333333333333</ele><time>2026-03-22T14:09:46.923Z</time></trkpt><trkpt lat="30.390318409890533" lon="-6.5039757113338466"><ele>1345.6666666666665</ele><time>2026-03-22T14:09:47.923Z</time></trkpt><trkpt lat="30.390294468538272" lon="-6.504066134931179"><ele>1346.0</ele><time>2026-03-22T14:09:48.923Z</time></trkpt><trkpt lat="30.390276088269466" lon="-6.504160111932354"><ele>1346.3333333333333</ele><time>2026-03-22T14:09:49.924Z</time></trkpt><trkpt lat="30.39026665327055" lon="-6.504258047733023"><ele>1346.6666666666667</ele><time>2026-03-22T14:09:50.924Z</time></trkpt><trkpt lat="30.390266677307842" lon="-6.504359815539039"><ele>1347.0</ele><time>2026-03-22T14:09:51.924Z</time></trkpt><trkpt lat="30.39026134029555" lon="-6.504462390713264"><ele>1347.0</ele><time>2026-03-22T14:09:52.924Z</time></trkpt><trkpt lat="30.390253559119657" lon="-6.504566012681252"><ele>1347.0</ele><time>2026-03-22T14:09:53.923Z</time></trkpt><trkpt lat="30.390244152759518" lon="-6.504677175608009"><ele>1347.0</ele><time>2026-03-22T14:09:54.923Z</time></trkpt><trkpt lat="30.390233705896502" lon="-6.50478205906405"><ele>1347.0</ele><time>2026-03-22T14:09:55.924Z</time></trkpt><trkpt lat="30.39022627571323" lon="-6.5048964422747035"><ele>1347.0</ele><time>2026-03-22T14:09:56.924Z</time></trkpt><trkpt lat="30.39023782593733" lon="-6.505021479364093"><ele>1347.3333333333333</ele><time>2026-03-22T14:09:57.924Z</time></trkpt><trkpt lat="30.39026893344774" lon="-6.505180068165833"><ele>1347.6666666666665</ele><time>2026-03-22T14:09:58.924Z</time></trkpt><trkpt lat="30.39030866159241" lon="-6.505370354358213"><ele>1348.0</ele><time>2026-03-22T14:09:59.923Z</time></trkpt><trkpt lat="30.390329878204227" lon="-6.505556635563244"><ele>1348.25</ele><time>2026-03-22T14:10:00.923Z</time></trkpt><trkpt lat="30.390353118071797" lon="-6.5057155664671535"><ele>1348.5</ele><time>2026-03-22T14:10:01.924Z</time></trkpt><trkpt lat="30.39038493098012" lon="-6.505839322172754"><ele>1348.75</ele><time>2026-03-22T14:10:02.924Z</time></trkpt><trkpt lat="30.390431424428964" lon="-6.505949281565076"><ele>1349.0</ele><time>2026-03-22T14:10:03.924Z</time></trkpt><trkpt lat="30.390488229535354" lon="-6.5060804599773565"><ele>1349.5</ele><time>2026-03-22T14:10:04.924Z</time></trkpt><trkpt lat="30.390538970398996" lon="-6.506232575054375"><ele>1350.0</ele><time>2026-03-22T14:10:05.924Z</time></trkpt><trkpt lat="30.390581866630356" lon="-6.506403782765422"><ele>1350.5</ele><time>2026-03-22T14:10:06.924Z</time></trkpt><trkpt lat="30.390620042707276" lon="-6.506544894238828"><ele>1351.0</ele><time>2026-03-22T14:10:07.924Z</time></trkpt><trkpt lat="30.390665987519466" lon="-6.506688847586154"><ele>1351.0</ele><time>2026-03-22T14:10:08.924Z</time></trkpt><trkpt lat="30.390688720843652" lon="-6.5068088974662315"><ele>1351.0</ele><time>2026-03-22T14:10:09.924Z</time></trkpt><trkpt lat="30.390691632498765" lon="-6.506935617436278"><ele>1351.0</ele><time>2026-03-22T14:10:10.924Z</time></trkpt><trkpt lat="30.39070170546183" lon="-6.507060359227828"><ele>1351.0</ele><time>2026-03-22T14:10:11.924Z</time></trkpt><trkpt lat="30.39071648965277" lon="-6.507177821212196"><ele>1351.0</ele><time>2026-03-22T14:10:12.924Z</time></trkpt><trkpt lat="30.390736857868827" lon="-6.507302916504225"><ele>1350.8</ele><time>2026-03-22T14:10:13.924Z</time></trkpt><trkpt lat="30.390760395871208" lon="-6.507420920831564"><ele>1350.6</ele><time>2026-03-22T14:10:14.924Z</time></trkpt><trkpt lat="30.39077981885545" lon="-6.507545942590125"><ele>1350.4</ele><time>2026-03-22T14:10:15.924Z</time></trkpt><trkpt lat="30.390798911124804" lon="-6.50767541091847"><ele>1350.2</ele><time>2026-03-22T14:10:16.924Z</time></trkpt><trkpt lat="30.390826220229666" lon="-6.507803241867131"><ele>1350.0</ele><time>2026-03-22T14:10:17.924Z</time></trkpt><trkpt lat="30.390860944308177" lon="-6.507926118373943"><ele>1350.8</ele><time>2026-03-22T14:10:18.924Z</time></trkpt><trkpt lat="30.39088736369868" lon="-6.508040842184521"><ele>1351.6</ele><time>2026-03-22T14:10:19.924Z</time></trkpt><trkpt lat="30.390920314519008" lon="-6.5081399297406"><ele>1352.4</ele><time>2026-03-22T14:10:20.924Z</time></trkpt><trkpt lat="30.390950692664788" lon="-6.508256184098604"><ele>1353.2</ele><time>2026-03-22T14:10:21.924Z</time></trkpt><trkpt lat="30.39097871793319" lon="-6.508369066213744"><ele>1354.0</ele><time>2026-03-22T14:10:22.924Z</time></trkpt><trkpt lat="30.391005070412472" lon="-6.508491891761876"><ele>1354.0</ele><time>2026-03-22T14:10:23.924Z</time></trkpt><trkpt lat="30.391036433308475" lon="-6.508602885787605"><ele>1354.0</ele><time>2026-03-22T14:10:24.924Z</time></trkpt><trkpt lat="30.391066761689185" lon="-6.508702591317944"><ele>1354.0</ele><time>2026-03-22T14:10:25.924Z</time></trkpt><trkpt lat="30.3910986119202" lon="-6.508793922637015"><ele>1354.0</ele><time>2026-03-22T14:10:26.924Z</time></trkpt><trkpt lat="30.391133220623413" lon="-6.508884445416562"><ele>1354.0</ele><time>2026-03-22T14:10:27.924Z</time></trkpt><trkpt lat="30.391178555054868" lon="-6.508971342581836"><ele>1354.2</ele><time>2026-03-22T14:10:28.924Z</time></trkpt><trkpt lat="30.391214293887796" lon="-6.5090578086360695"><ele>1354.4</ele><time>2026-03-22T14:10:29.924Z</time></trkpt><trkpt lat="30.391252175560886" lon="-6.509172036723248"><ele>1354.6</ele><time>2026-03-22T14:10:30.924Z</time></trkpt><trkpt lat="30.39127787990874" lon="-6.50928780677197"><ele>1354.8</ele><time>2026-03-22T14:10:31.924Z</time></trkpt><trkpt lat="30.391299712508943" lon="-6.509396311440443"><ele>1355.0</ele><time>2026-03-22T14:10:32.924Z</time></trkpt><trkpt lat="30.391331576809844" lon="-6.5095174050812155"><ele>1354.6</ele><time>2026-03-22T14:10:33.924Z</time></trkpt><trkpt lat="30.39137231340823" lon="-6.509636190993507"><ele>1354.2</ele><time>2026-03-22T14:10:34.924Z</time></trkpt><trkpt lat="30.391423515746244" lon="-6.509751641307459"><ele>1353.8000000000002</ele><time>2026-03-22T14:10:35.924Z</time></trkpt><trkpt lat="30.391441808053973" lon="-6.509829679962496"><ele>1353.4</ele><time>2026-03-22T14:10:36.924Z</time></trkpt><trkpt lat="30.3914338146058" lon="-6.509930800503326"><ele>1353.0</ele><time>2026-03-22T14:10:37.924Z</time></trkpt><trkpt lat="30.39139730088468" lon="-6.5100420346644645"><ele>1353.0</ele><time>2026-03-22T14:10:38.924Z</time></trkpt><trkpt lat="30.3913992265122" lon="-6.51019301549214"><ele>1353.0</ele><time>2026-03-22T14:10:39.924Z</time></trkpt><trkpt lat="30.391404017130867" lon="-6.510331678975931"><ele>1353.0</ele><time>2026-03-22T14:10:40.924Z</time></trkpt><trkpt lat="30.391410393282445" lon="-6.510444940026525"><ele>1353.0</ele><time>2026-03-22T14:10:41.924Z</time></trkpt><trkpt lat="30.391417445193014" lon="-6.51054152859146"><ele>1353.0</ele><time>2026-03-22T14:10:42.924Z</time></trkpt><trkpt lat="30.391431206298698" lon="-6.510641747938949"><ele>1352.4</ele><time>2026-03-22T14:10:43.924Z</time></trkpt><trkpt lat="30.391442725113844" lon="-6.5107549699615594"><ele>1351.8000000000002</ele><time>2026-03-22T14:10:44.924Z</time></trkpt><trkpt lat="30.39145275013687" lon="-6.5108739833470635"><ele>1351.2</ele><time>2026-03-22T14:10:45.924Z</time></trkpt><trkpt lat="30.39145396835511" lon="-6.510999286815017"><ele>1350.6</ele><time>2026-03-22T14:10:46.924Z</time></trkpt><trkpt lat="30.391455685350994" lon="-6.5111335246678514"><ele>1350.0</ele><time>2026-03-22T14:10:47.924Z</time></trkpt><trkpt lat="30.391448181303137" lon="-6.5112406029258345"><ele>1349.1666666666667</ele><time>2026-03-22T14:10:48.924Z</time></trkpt><trkpt lat="30.391442833676084" lon="-6.511347863794796"><ele>1348.3333333333333</ele><time>2026-03-22T14:10:49.924Z</time></trkpt><trkpt lat="30.391432987657968" lon="-6.5114491952599485"><ele>1347.5</ele><time>2026-03-22T14:10:50.924Z</time></trkpt><trkpt lat="30.391399773068944" lon="-6.511551813608423"><ele>1346.6666666666665</ele><time>2026-03-22T14:10:51.924Z</time></trkpt><trkpt lat="30.391355724291238" lon="-6.511644003711777"><ele>1345.8333333333333</ele><time>2026-03-22T14:10:52.924Z</time></trkpt><trkpt lat="30.39132142832287" lon="-6.511711092751153"><ele>1345.0</ele><time>2026-03-22T14:10:53.924Z</time></trkpt><trkpt lat="30.391271292605" lon="-6.511784215534867"><ele>1344.4</ele><time>2026-03-22T14:10:55.924Z</time></trkpt><trkpt lat="30.39116377299679" lon="-6.511881927652441"><ele>1343.8</ele><time>2026-03-22T14:10:57.924Z</time></trkpt><trkpt lat="30.391090231907526" lon="-6.511949136903799"><ele>1343.1999999999998</ele><time>2026-03-22T14:10:58.924Z</time></trkpt><trkpt lat="30.39102487208169" lon="-6.512013160431738"><ele>1342.6</ele><time>2026-03-22T14:10:59.924Z</time></trkpt><trkpt lat="30.39098320363269" lon="-6.512116486864783"><ele>1342.0</ele><time>2026-03-22T14:11:00.924Z</time></trkpt><trkpt lat="30.390953661232135" lon="-6.5122374637597815"><ele>1341.8</ele><time>2026-03-22T14:11:01.924Z</time></trkpt><trkpt lat="30.390918349258225" lon="-6.512337778471466"><ele>1341.6</ele><time>2026-03-22T14:11:02.924Z</time></trkpt><trkpt lat="30.390879419216027" lon="-6.5124099680837135"><ele>1341.3999999999999</ele><time>2026-03-22T14:11:03.924Z</time></trkpt><trkpt lat="30.390807896222324" lon="-6.512507589311421"><ele>1341.1999999999998</ele><time>2026-03-22T14:11:05.924Z</time></trkpt><trkpt lat="30.390730971388127" lon="-6.512592086073862"><ele>1341.0</ele><time>2026-03-22T14:11:07.924Z</time></trkpt><trkpt lat="30.390682094327566" lon="-6.5126716545724594"><ele>1341.0</ele><time>2026-03-22T14:11:08.924Z</time></trkpt><trkpt lat="30.390629722728608" lon="-6.512751255478633"><ele>1341.0</ele><time>2026-03-22T14:11:09.924Z</time></trkpt><trkpt lat="30.390572834357965" lon="-6.5128459401836665"><ele>1341.0</ele><time>2026-03-22T14:11:10.924Z</time></trkpt><trkpt lat="30.39051971156494" lon="-6.512947038333973"><ele>1341.0</ele><time>2026-03-22T14:11:11.924Z</time></trkpt><trkpt lat="30.390482863505415" lon="-6.513043293131703"><ele>1341.0</ele><time>2026-03-22T14:11:12.924Z</time></trkpt><trkpt lat="30.390443203953808" lon="-6.513133438130929"><ele>1340.0</ele><time>2026-03-22T14:11:13.924Z</time></trkpt><trkpt lat="30.390386760585535" lon="-6.513205171509898"><ele>1339.0</ele><time>2026-03-22T14:11:14.924Z</time></trkpt><trkpt lat="30.390287953667237" lon="-6.5132589146426945"><ele>1338.0</ele><time>2026-03-22T14:11:15.924Z</time></trkpt><trkpt lat="30.390176519349556" lon="-6.513302360551898"><ele>1337.0</ele><time>2026-03-22T14:11:16.924Z</time></trkpt><trkpt lat="30.39008098867581" lon="-6.513348268772184"><ele>1336.0</ele><time>2026-03-22T14:11:17.924Z</time></trkpt><trkpt lat="30.389993567255857" lon="-6.51341032034432"><ele>1336.0</ele><time>2026-03-22T14:11:18.924Z</time></trkpt><trkpt lat="30.389915739075942" lon="-6.513478402947024"><ele>1336.0</ele><time>2026-03-22T14:11:19.924Z</time></trkpt><trkpt lat="30.389850404658592" lon="-6.5135636066888365"><ele>1336.0</ele><time>2026-03-22T14:11:20.924Z</time></trkpt><trkpt lat="30.389809577043547" lon="-6.513677835090435"><ele>1336.0</ele><time>2026-03-22T14:11:21.924Z</time></trkpt><trkpt lat="30.389786618358123" lon="-6.51380048313649"><ele>1336.0</ele><time>2026-03-22T14:11:22.924Z</time></trkpt><trkpt lat="30.38976826344463" lon="-6.51391543813253"><ele>1335.4</ele><time>2026-03-22T14:11:23.924Z</time></trkpt><trkpt lat="30.389748388426266" lon="-6.514038568026078"><ele>1334.8</ele><time>2026-03-22T14:11:24.923Z</time></trkpt><trkpt lat="30.389726347550315" lon="-6.51412915603022"><ele>1334.2</ele><time>2026-03-22T14:11:25.923Z</time></trkpt><trkpt lat="30.389700732693093" lon="-6.514221728808504"><ele>1333.6000000000001</ele><time>2026-03-22T14:11:26.923Z</time></trkpt><trkpt lat="30.38966789321966" lon="-6.514324891918567"><ele>1333.0</ele><time>2026-03-22T14:11:27.923Z</time></trkpt><trkpt lat="30.38962332735018" lon="-6.514416100728947"><ele>1332.8000000000002</ele><time>2026-03-22T14:11:28.923Z</time></trkpt><trkpt lat="30.389567308374296" lon="-6.514489229153899"><ele>1332.6</ele><time>2026-03-22T14:11:29.923Z</time></trkpt><trkpt lat="30.389486755377483" lon="-6.514560544683643"><ele>1332.4</ele><time>2026-03-22T14:11:30.923Z</time></trkpt><trkpt lat="30.389391739123184" lon="-6.514623132285069"><ele>1332.1999999999998</ele><time>2026-03-22T14:11:31.923Z</time></trkpt><trkpt lat="30.38932263464345" lon="-6.514713653417675"><ele>1332.0</ele><time>2026-03-22T14:11:32.923Z</time></trkpt><trkpt lat="30.389279267635118" lon="-6.51480400192377"><ele>1331.8333333333333</ele><time>2026-03-22T14:11:33.923Z</time></trkpt><trkpt lat="30.38924791032347" lon="-6.51490304197115"><ele>1331.6666666666667</ele><time>2026-03-22T14:11:34.923Z</time></trkpt><trkpt lat="30.38923175792109" lon="-6.514987167248674"><ele>1331.5</ele><time>2026-03-22T14:11:35.923Z</time></trkpt><trkpt lat="30.38923623997342" lon="-6.515076206424557"><ele>1331.3333333333335</ele><time>2026-03-22T14:11:36.923Z</time></trkpt><trkpt lat="30.389254061342584" lon="-6.515165109759203"><ele>1331.1666666666667</ele><time>2026-03-22T14:11:37.923Z</time></trkpt><trkpt lat="30.389279250882076" lon="-6.515257894038209"><ele>1331.0</ele><time>2026-03-22T14:11:38.923Z</time></trkpt><trkpt lat="30.389302733110252" lon="-6.515354341188361"><ele>1331.0</ele><time>2026-03-22T14:11:39.923Z</time></trkpt><trkpt lat="30.389326367429966" lon="-6.515467814220984"><ele>1331.0</ele><time>2026-03-22T14:11:40.923Z</time></trkpt><trkpt lat="30.389344557194402" lon="-6.515577959729814"><ele>1331.0</ele><time>2026-03-22T14:11:41.923Z</time></trkpt><trkpt lat="30.389352113476022" lon="-6.5156828181801005"><ele>1331.0</ele><time>2026-03-22T14:11:42.923Z</time></trkpt><trkpt lat="30.389348063593484" lon="-6.515792830747378"><ele>1331.0</ele><time>2026-03-22T14:11:43.923Z</time></trkpt><trkpt lat="30.389332920956658" lon="-6.515882392951624"><ele>1331.0</ele><time>2026-03-22T14:11:44.923Z</time></trkpt><trkpt lat="30.389297903422555" lon="-6.515966050810567"><ele>1331.0</ele><time>2026-03-22T14:11:45.923Z</time></trkpt><trkpt lat="30.389250379803933" lon="-6.516054205931368"><ele>1331.0</ele><time>2026-03-22T14:11:46.923Z</time></trkpt><trkpt lat="30.389200000407307" lon="-6.516133829292885"><ele>1331.0</ele><time>2026-03-22T14:11:47.923Z</time></trkpt><trkpt lat="30.389157394531836" lon="-6.516220410959547"><ele>1331.0</ele><time>2026-03-22T14:11:48.923Z</time></trkpt><trkpt lat="30.389126186959654" lon="-6.516304410239741"><ele>1331.0</ele><time>2026-03-22T14:11:49.923Z</time></trkpt><trkpt lat="30.389097918339203" lon="-6.516388209686228"><ele>1330.8333333333335</ele><time>2026-03-22T14:11:50.923Z</time></trkpt><trkpt lat="30.38908099477322" lon="-6.516476006308581"><ele>1330.6666666666667</ele><time>2026-03-22T14:11:51.923Z</time></trkpt><trkpt lat="30.38907869298073" lon="-6.516557888214497"><ele>1330.5</ele><time>2026-03-22T14:11:52.923Z</time></trkpt><trkpt lat="30.38909046624087" lon="-6.516703627717628"><ele>1330.3333333333333</ele><time>2026-03-22T14:11:54.923Z</time></trkpt><trkpt lat="30.38910582602052" lon="-6.5167832420169916"><ele>1330.1666666666665</ele><time>2026-03-22T14:11:55.924Z</time></trkpt><trkpt lat="30.389123994193383" lon="-6.516862095671491"><ele>1330.0</ele><time>2026-03-22T14:11:56.924Z</time></trkpt><trkpt lat="30.389150489389547" lon="-6.516959971950164"><ele>1330.0</ele><time>2026-03-22T14:11:57.924Z</time></trkpt><trkpt lat="30.3891778815604" lon="-6.517044111120541"><ele>1330.0</ele><time>2026-03-22T14:11:58.924Z</time></trkpt><trkpt lat="30.38921130471321" lon="-6.517126114845455"><ele>1330.0</ele><time>2026-03-22T14:11:59.923Z</time></trkpt><trkpt lat="30.38924539636838" lon="-6.517213149624408"><ele>1330.0</ele><time>2026-03-22T14:12:00.923Z</time></trkpt><trkpt lat="30.389279411329028" lon="-6.5173011302722825"><ele>1330.0</ele><time>2026-03-22T14:12:01.923Z</time></trkpt><trkpt lat="30.389312008204275" lon="-6.517381152921833"><ele>1330.0</ele><time>2026-03-22T14:12:02.924Z</time></trkpt><trkpt lat="30.3893413412997" lon="-6.517451286444767"><ele>1329.1666666666665</ele><time>2026-03-22T14:12:03.924Z</time></trkpt><trkpt lat="30.389374095926772" lon="-6.517528881188667"><ele>1328.3333333333333</ele><time>2026-03-22T14:12:04.923Z</time></trkpt><trkpt lat="30.38940746865604" lon="-6.51760561251565"><ele>1327.5</ele><time>2026-03-22T14:12:05.923Z</time></trkpt><trkpt lat="30.389440068753863" lon="-6.517683683119375"><ele>1326.6666666666667</ele><time>2026-03-22T14:12:06.923Z</time></trkpt><trkpt lat="30.389477117736437" lon="-6.5177757490977895"><ele>1325.8333333333335</ele><time>2026-03-22T14:12:07.923Z</time></trkpt><trkpt lat="30.38950761602814" lon="-6.517867682377628"><ele>1325.0</ele><time>2026-03-22T14:12:08.923Z</time></trkpt><trkpt lat="30.389535684273255" lon="-6.517953901720003"><ele>1324.6666666666667</ele><time>2026-03-22T14:12:09.923Z</time></trkpt><trkpt lat="30.38955831123767" lon="-6.518037639833773"><ele>1324.3333333333335</ele><time>2026-03-22T14:12:10.923Z</time></trkpt><trkpt lat="30.389578784494745" lon="-6.518176571862788"><ele>1324.0</ele><time>2026-03-22T14:12:12.923Z</time></trkpt><trkpt lat="30.389582708967513" lon="-6.518257960661146"><ele>1323.6666666666667</ele><time>2026-03-22T14:12:13.923Z</time></trkpt><trkpt lat="30.389576221643253" lon="-6.5183475092867615"><ele>1323.3333333333333</ele><time>2026-03-22T14:12:14.923Z</time></trkpt><trkpt lat="30.38957252769993" lon="-6.5184549780480765"><ele>1323.0</ele><time>2026-03-22T14:12:15.923Z</time></trkpt><trkpt lat="30.389569724213242" lon="-6.518577631104575"><ele>1323.0</ele><time>2026-03-22T14:12:16.923Z</time></trkpt><trkpt lat="30.389562460990458" lon="-6.518690698329623"><ele>1323.0</ele><time>2026-03-22T14:12:17.923Z</time></trkpt><trkpt lat="30.38954809467199" lon="-6.518798145511242"><ele>1323.0</ele><time>2026-03-22T14:12:18.923Z</time></trkpt><trkpt lat="30.38952468056018" lon="-6.518898627362567"><ele>1323.0</ele><time>2026-03-22T14:12:19.923Z</time></trkpt><trkpt lat="30.389490718735715" lon="-6.519004005476426"><ele>1323.0</ele><time>2026-03-22T14:12:20.923Z</time></trkpt><trkpt lat="30.389447529226494" lon="-6.519114636788307"><ele>1322.5</ele><time>2026-03-22T14:12:21.923Z</time></trkpt><trkpt lat="30.3893950457209" lon="-6.519236145743344"><ele>1322.0</ele><time>2026-03-22T14:12:22.923Z</time></trkpt><trkpt lat="30.389325260934203" lon="-6.5193682000803355"><ele>1321.5</ele><time>2026-03-22T14:12:23.923Z</time></trkpt><trkpt lat="30.38926468676727" lon="-6.519499278506224"><ele>1321.0</ele><time>2026-03-22T14:12:24.923Z</time></trkpt><trkpt lat="30.389211045404767" lon="-6.519604463729501"><ele>1320.8333333333333</ele><time>2026-03-22T14:12:25.923Z</time></trkpt><trkpt lat="30.389164032201013" lon="-6.519708451040125"><ele>1320.6666666666665</ele><time>2026-03-22T14:12:26.923Z</time></trkpt><trkpt lat="30.389128685179266" lon="-6.519804079082151"><ele>1320.5</ele><time>2026-03-22T14:12:27.923Z</time></trkpt><trkpt lat="30.389112946893697" lon="-6.5198875005218415"><ele>1320.3333333333333</ele><time>2026-03-22T14:12:28.923Z</time></trkpt><trkpt lat="30.389114852393444" lon="-6.519975960259399"><ele>1320.1666666666667</ele><time>2026-03-22T14:12:29.923Z</time></trkpt><trkpt lat="30.389130927615795" lon="-6.520053430728592"><ele>1320.0</ele><time>2026-03-22T14:12:30.923Z</time></trkpt><trkpt lat="30.389155921890534" lon="-6.520133014296154"><ele>1320.0</ele><time>2026-03-22T14:12:31.923Z</time></trkpt><trkpt lat="30.38917703244592" lon="-6.520210064473411"><ele>1320.0</ele><time>2026-03-22T14:12:32.923Z</time></trkpt><trkpt lat="30.389192723243497" lon="-6.520286189181252"><ele>1320.0</ele><time>2026-03-22T14:12:33.923Z</time></trkpt><trkpt lat="30.389213894879532" lon="-6.520364012197834"><ele>1320.0</ele><time>2026-03-22T14:12:34.923Z</time></trkpt><trkpt lat="30.389221048890303" lon="-6.5204555736428995"><ele>1320.0</ele><time>2026-03-22T14:12:35.923Z</time></trkpt><trkpt lat="30.389224380474065" lon="-6.520573792730124"><ele>1320.0</ele><time>2026-03-22T14:12:36.923Z</time></trkpt><trkpt lat="30.389222167880778" lon="-6.520693184074945"><ele>1320.6666666666667</ele><time>2026-03-22T14:12:37.923Z</time></trkpt><trkpt lat="30.38920737505952" lon="-6.520795373344074"><ele>1321.3333333333333</ele><time>2026-03-22T14:12:38.923Z</time></trkpt><trkpt lat="30.389177969559427" lon="-6.520885824351212"><ele>1322.0</ele><time>2026-03-22T14:12:39.923Z</time></trkpt><trkpt lat="30.38913052596747" lon="-6.520954616109177"><ele>1322.6666666666665</ele><time>2026-03-22T14:12:40.923Z</time></trkpt><trkpt lat="30.38908912768965" lon="-6.5210236478641015"><ele>1323.3333333333333</ele><time>2026-03-22T14:12:41.923Z</time></trkpt><trkpt lat="30.38904169282948" lon="-6.521148330375945"><ele>1324.0</ele><time>2026-03-22T14:12:43.923Z</time></trkpt><trkpt lat="30.389029170803823" lon="-6.521221459382669"><ele>1324.0</ele><time>2026-03-22T14:12:44.923Z</time></trkpt><trkpt lat="30.389008695596146" lon="-6.521299621796862"><ele>1324.0</ele><time>2026-03-22T14:12:45.923Z</time></trkpt><trkpt lat="30.38897648260541" lon="-6.521389370266217"><ele>1324.0</ele><time>2026-03-22T14:12:46.923Z</time></trkpt><trkpt lat="30.38893541283415" lon="-6.521473222945528"><ele>1324.0</ele><time>2026-03-22T14:12:47.923Z</time></trkpt><trkpt lat="30.38890262582638" lon="-6.521556076187558"><ele>1324.0</ele><time>2026-03-22T14:12:48.923Z</time></trkpt><trkpt lat="30.38886765839661" lon="-6.521643721873444"><ele>1324.0</ele><time>2026-03-22T14:12:49.923Z</time></trkpt><trkpt lat="30.38883013798952" lon="-6.521728471774035"><ele>1324.0</ele><time>2026-03-22T14:12:50.923Z</time></trkpt><trkpt lat="30.38879101342163" lon="-6.521804390590453"><ele>1324.0</ele><time>2026-03-22T14:12:51.923Z</time></trkpt><trkpt lat="30.388754455755493" lon="-6.5218771062199705"><ele>1324.0</ele><time>2026-03-22T14:12:52.923Z</time></trkpt><trkpt lat="30.38871590567252" lon="-6.521942987877459"><ele>1324.0</ele><time>2026-03-22T14:12:53.923Z</time></trkpt><trkpt lat="30.388612961584876" lon="-6.522031934055092"><ele>1324.0</ele><time>2026-03-22T14:12:55.923Z</time></trkpt><trkpt lat="30.38855085924248" lon="-6.522082696232519"><ele>1324.0</ele><time>2026-03-22T14:12:56.923Z</time></trkpt><trkpt lat="30.388495196171615" lon="-6.522133433519472"><ele>1323.8333333333333</ele><time>2026-03-22T14:12:57.923Z</time></trkpt><trkpt lat="30.38843481194833" lon="-6.522181110314807"><ele>1323.6666666666665</ele><time>2026-03-22T14:12:58.923Z</time></trkpt><trkpt lat="30.388372181138873" lon="-6.5222296348817554"><ele>1323.5</ele><time>2026-03-22T14:12:59.923Z</time></trkpt><trkpt lat="30.388311496064293" lon="-6.52227237377197"><ele>1323.3333333333333</ele><time>2026-03-22T14:13:00.923Z</time></trkpt><trkpt lat="30.388238762395563" lon="-6.52234320450914"><ele>1323.1666666666667</ele><time>2026-03-22T14:13:02.923Z</time></trkpt><trkpt lat="30.38817311179529" lon="-6.5223926680579165"><ele>1323.0</ele><time>2026-03-22T14:13:04.923Z</time></trkpt><trkpt lat="30.38807783781972" lon="-6.522449392407767"><ele>1322.6000000000001</ele><time>2026-03-22T14:13:06.924Z</time></trkpt><trkpt lat="30.38796285519562" lon="-6.522493450201406"><ele>1322.2</ele><time>2026-03-22T14:13:08.924Z</time></trkpt><trkpt lat="30.387863631676325" lon="-6.522549587237756"><ele>1321.8</ele><time>2026-03-22T14:13:10.924Z</time></trkpt><trkpt lat="30.38778111938498" lon="-6.522610125501254"><ele>1321.4</ele><time>2026-03-22T14:13:12.924Z</time></trkpt><trkpt lat="30.387716651864988" lon="-6.522667750327551"><ele>1321.0</ele><time>2026-03-22T14:13:14.925Z</time></trkpt><trkpt lat="30.387614431277022" lon="-6.5226991210251235"><ele>1321.0</ele><time>2026-03-22T14:13:16.925Z</time></trkpt><trkpt lat="30.38755077057299" lon="-6.522691184273519"><ele>1321.0</ele><time>2026-03-22T14:13:17.925Z</time></trkpt><trkpt lat="30.387490357595556" lon="-6.522651346635816"><ele>1321.0</ele><time>2026-03-22T14:13:18.925Z</time></trkpt><trkpt lat="30.38742320225626" lon="-6.522561732188663"><ele>1321.0</ele><time>2026-03-22T14:13:19.925Z</time></trkpt><trkpt lat="30.387337558628474" lon="-6.522474665702478"><ele>1321.0</ele><time>2026-03-22T14:13:20.925Z</time></trkpt><trkpt lat="30.38723249628736" lon="-6.522408791060483"><ele>1320.25</ele><time>2026-03-22T14:13:21.925Z</time></trkpt><trkpt lat="30.387109071535576" lon="-6.522374967499906"><ele>1319.5</ele><time>2026-03-22T14:13:22.925Z</time></trkpt><trkpt lat="30.386981612271548" lon="-6.5223565824226695"><ele>1318.75</ele><time>2026-03-22T14:13:23.925Z</time></trkpt><trkpt lat="30.38686914124965" lon="-6.522372937116367"><ele>1318.0</ele><time>2026-03-22T14:13:24.925Z</time></trkpt><trkpt lat="30.386745474587666" lon="-6.522406976509513"><ele>1318.0</ele><time>2026-03-22T14:13:25.925Z</time></trkpt><trkpt lat="30.386625844370673" lon="-6.5224368692483985"><ele>1318.0</ele><time>2026-03-22T14:13:26.925Z</time></trkpt><trkpt lat="30.386521190509832" lon="-6.522468737051917"><ele>1318.0</ele><time>2026-03-22T14:13:27.925Z</time></trkpt><trkpt lat="30.386443119294178" lon="-6.52252607791828"><ele>1318.0</ele><time>2026-03-22T14:13:28.925Z</time></trkpt><trkpt lat="30.38635760000705" lon="-6.522627528962505"><ele>1318.0</ele><time>2026-03-22T14:13:29.925Z</time></trkpt><trkpt lat="30.386258793144673" lon="-6.52276805234205"><ele>1317.6666666666665</ele><time>2026-03-22T14:13:30.925Z</time></trkpt><trkpt lat="30.386159294599636" lon="-6.522921182762754"><ele>1317.3333333333333</ele><time>2026-03-22T14:13:31.926Z</time></trkpt><trkpt lat="30.386067019424598" lon="-6.52306825641955"><ele>1317.0</ele><time>2026-03-22T14:13:32.926Z</time></trkpt><trkpt lat="30.385990570257533" lon="-6.5232190265837735"><ele>1317.0</ele><time>2026-03-22T14:13:33.926Z</time></trkpt><trkpt lat="30.385924544309354" lon="-6.523355228594672"><ele>1317.0</ele><time>2026-03-22T14:13:34.926Z</time></trkpt><trkpt lat="30.38584910290706" lon="-6.5234404064205975"><ele>1317.0</ele><time>2026-03-22T14:13:35.926Z</time></trkpt><trkpt lat="30.385743500437837" lon="-6.523507472798867"><ele>1317.0</ele><time>2026-03-22T14:13:36.926Z</time></trkpt><trkpt lat="30.38564055103444" lon="-6.52358026508208"><ele>1317.0</ele><time>2026-03-22T14:13:37.926Z</time></trkpt><trkpt lat="30.38554044502694" lon="-6.523649144895267"><ele>1317.0</ele><time>2026-03-22T14:13:38.926Z</time></trkpt><trkpt lat="30.3854441695218" lon="-6.523724579799135"><ele>1317.0</ele><time>2026-03-22T14:13:39.926Z</time></trkpt><trkpt lat="30.38536068898585" lon="-6.523793997388803"><ele>1317.0</ele><time>2026-03-22T14:13:40.926Z</time></trkpt><trkpt lat="30.385291309436642" lon="-6.5238573440774195"><ele>1317.0</ele><time>2026-03-22T14:13:41.926Z</time></trkpt><trkpt lat="30.385232856795948" lon="-6.5239334912859555"><ele>1315.8</ele><time>2026-03-22T14:13:42.926Z</time></trkpt><trkpt lat="30.385178174272436" lon="-6.524028777202575"><ele>1314.6</ele><time>2026-03-22T14:13:43.926Z</time></trkpt><trkpt lat="30.38513984234806" lon="-6.524132565904293"><ele>1313.3999999999999</ele><time>2026-03-22T14:13:44.926Z</time></trkpt><trkpt lat="30.38510710005365" lon="-6.524236673025774"><ele>1312.1999999999998</ele><time>2026-03-22T14:13:45.926Z</time></trkpt><trkpt lat="30.38507382335302" lon="-6.524341332164881"><ele>1311.0</ele><time>2026-03-22T14:13:46.926Z</time></trkpt><trkpt lat="30.3850459443588" lon="-6.524453409328489"><ele>1311.0</ele><time>2026-03-22T14:13:47.926Z</time></trkpt><trkpt lat="30.385008686206586" lon="-6.5245598094506185"><ele>1311.0</ele><time>2026-03-22T14:13:48.926Z</time></trkpt><trkpt lat="30.38496058189092" lon="-6.524666423983353"><ele>1311.0</ele><time>2026-03-22T14:13:49.926Z</time></trkpt><trkpt lat="30.384908402739764" lon="-6.524766588555755"><ele>1311.0</ele><time>2026-03-22T14:13:50.926Z</time></trkpt><trkpt lat="30.384850989118693" lon="-6.524862619461428"><ele>1311.0</ele><time>2026-03-22T14:13:51.926Z</time></trkpt><trkpt lat="30.384792632365457" lon="-6.524955814480613"><ele>1311.1999999999998</ele><time>2026-03-22T14:13:52.926Z</time></trkpt><trkpt lat="30.38474315277351" lon="-6.525041267842146"><ele>1311.3999999999999</ele><time>2026-03-22T14:13:53.926Z</time></trkpt><trkpt lat="30.38470590345017" lon="-6.525136558346235"><ele>1311.6</ele><time>2026-03-22T14:13:54.926Z</time></trkpt><trkpt lat="30.38468850755863" lon="-6.5252430342433225"><ele>1311.8</ele><time>2026-03-22T14:13:55.926Z</time></trkpt><trkpt lat="30.384688060884084" lon="-6.5253518473812155"><ele>1312.0</ele><time>2026-03-22T14:13:56.926Z</time></trkpt><trkpt lat="30.384687843165207" lon="-6.525472118467251"><ele>1312.0</ele><time>2026-03-22T14:13:57.926Z</time></trkpt><trkpt lat="30.384687625745382" lon="-6.525589164469245"><ele>1312.0</ele><time>2026-03-22T14:13:58.926Z</time></trkpt><trkpt lat="30.384683538986096" lon="-6.525708132756653"><ele>1312.0</ele><time>2026-03-22T14:13:59.926Z</time></trkpt><trkpt lat="30.384676780850018" lon="-6.525823274873505"><ele>1312.0</ele><time>2026-03-22T14:14:00.926Z</time></trkpt><trkpt lat="30.384666190435237" lon="-6.525941989806927"><ele>1312.0</ele><time>2026-03-22T14:14:01.926Z</time></trkpt><trkpt lat="30.38463778659459" lon="-6.526053998236621"><ele>1311.5</ele><time>2026-03-22T14:14:02.926Z</time></trkpt><trkpt lat="30.384604306411788" lon="-6.526135897145936"><ele>1311.0</ele><time>2026-03-22T14:14:03.926Z</time></trkpt><trkpt lat="30.38456980952278" lon="-6.526216707366399"><ele>1310.5</ele><time>2026-03-22T14:14:04.926Z</time></trkpt><trkpt lat="30.384529442379108" lon="-6.526293666928337"><ele>1310.0</ele><time>2026-03-22T14:14:05.926Z</time></trkpt><trkpt lat="30.384475708406075" lon="-6.526375315283419"><ele>1309.5</ele><time>2026-03-22T14:14:06.926Z</time></trkpt><trkpt lat="30.384400701004626" lon="-6.526471074297002"><ele>1309.0</ele><time>2026-03-22T14:14:07.926Z</time></trkpt><trkpt lat="30.384338876908668" lon="-6.526564676749031"><ele>1309.0</ele><time>2026-03-22T14:14:08.926Z</time></trkpt><trkpt lat="30.384279940663045" lon="-6.526634577381677"><ele>1309.0</ele><time>2026-03-22T14:14:09.926Z</time></trkpt><trkpt lat="30.384235676104634" lon="-6.5266885524147"><ele>1309.0</ele><time>2026-03-22T14:14:10.926Z</time></trkpt><trkpt lat="30.38419313013129" lon="-6.526757443528292"><ele>1309.0</ele><time>2026-03-22T14:14:11.925Z</time></trkpt><trkpt lat="30.384164969447987" lon="-6.526900970336119"><ele>1309.0</ele><time>2026-03-22T14:14:13.926Z</time></trkpt><trkpt lat="30.384169932338093" lon="-6.526984615576851"><ele>1309.0</ele><time>2026-03-22T14:14:14.925Z</time></trkpt><trkpt lat="30.38416217079716" lon="-6.5270609764439405"><ele>1309.4</ele><time>2026-03-22T14:14:15.925Z</time></trkpt><trkpt lat="30.3841301695133" lon="-6.527142861225069"><ele>1309.8000000000002</ele><time>2026-03-22T14:14:16.925Z</time></trkpt><trkpt lat="30.38407317304726" lon="-6.527234809842388"><ele>1310.1999999999998</ele><time>2026-03-22T14:14:17.925Z</time></trkpt><trkpt lat="30.38401109926961" lon="-6.527330728587054"><ele>1310.6</ele><time>2026-03-22T14:14:18.925Z</time></trkpt><trkpt lat="30.38395427993762" lon="-6.527429872069646"><ele>1311.0</ele><time>2026-03-22T14:14:19.925Z</time></trkpt><trkpt lat="30.383906997607482" lon="-6.527514482313664"><ele>1310.5</ele><time>2026-03-22T14:14:20.925Z</time></trkpt><trkpt lat="30.38384620072762" lon="-6.527585796635395"><ele>1310.0</ele><time>2026-03-22T14:14:21.925Z</time></trkpt><trkpt lat="30.383779144934067" lon="-6.527636954755337"><ele>1309.5</ele><time>2026-03-22T14:14:22.925Z</time></trkpt><trkpt lat="30.383714962954045" lon="-6.527692329024468"><ele>1309.0</ele><time>2026-03-22T14:14:23.925Z</time></trkpt><trkpt lat="30.383648815827748" lon="-6.5277517773587"><ele>1308.5</ele><time>2026-03-22T14:14:24.925Z</time></trkpt><trkpt lat="30.383594821220072" lon="-6.527825767638927"><ele>1308.0</ele><time>2026-03-22T14:14:25.925Z</time></trkpt><trkpt lat="30.383556315481282" lon="-6.527914305128886"><ele>1307.6000000000001</ele><time>2026-03-22T14:14:26.925Z</time></trkpt><trkpt lat="30.383527488996034" lon="-6.528012296710313"><ele>1307.2</ele><time>2026-03-22T14:14:27.925Z</time></trkpt><trkpt lat="30.383494835232653" lon="-6.5281189243922695"><ele>1306.8</ele><time>2026-03-22T14:14:28.925Z</time></trkpt><trkpt lat="30.383457417327893" lon="-6.528217871060172"><ele>1306.4</ele><time>2026-03-22T14:14:29.925Z</time></trkpt><trkpt lat="30.383419341308105" lon="-6.528309585178554"><ele>1306.0</ele><time>2026-03-22T14:14:30.925Z</time></trkpt><trkpt lat="30.38337860521561" lon="-6.528409385066824"><ele>1306.0</ele><time>2026-03-22T14:14:31.925Z</time></trkpt><trkpt lat="30.383336013058884" lon="-6.528492096938175"><ele>1306.0</ele><time>2026-03-22T14:14:32.925Z</time></trkpt><trkpt lat="30.383298680550613" lon="-6.528567934226744"><ele>1306.0</ele><time>2026-03-22T14:14:33.925Z</time></trkpt><trkpt lat="30.383255131890568" lon="-6.528620918003371"><ele>1306.0</ele><time>2026-03-22T14:14:34.925Z</time></trkpt><trkpt lat="30.383137025095465" lon="-6.528674005090053"><ele>1306.0</ele><time>2026-03-22T14:14:36.925Z</time></trkpt><trkpt lat="30.383073737510557" lon="-6.528715380758429"><ele>1306.0</ele><time>2026-03-22T14:14:37.925Z</time></trkpt><trkpt lat="30.383021982468073" lon="-6.5287729049691405"><ele>1305.0</ele><time>2026-03-22T14:14:38.925Z</time></trkpt><trkpt lat="30.382978263117117" lon="-6.5288550459112455"><ele>1304.0</ele><time>2026-03-22T14:14:39.925Z</time></trkpt><trkpt lat="30.382926648107567" lon="-6.5289475555529455"><ele>1303.0</ele><time>2026-03-22T14:14:40.925Z</time></trkpt><trkpt lat="30.382873986714916" lon="-6.529041303372426"><ele>1302.0</ele><time>2026-03-22T14:14:41.925Z</time></trkpt><trkpt lat="30.38282090186622" lon="-6.529137403221877"><ele>1301.0</ele><time>2026-03-22T14:14:42.925Z</time></trkpt><trkpt lat="30.382740374214904" lon="-6.529223099612446"><ele>1301.0</ele><time>2026-03-22T14:14:43.925Z</time></trkpt><trkpt lat="30.382629462633243" lon="-6.5292910754958875"><ele>1301.0</ele><time>2026-03-22T14:14:44.925Z</time></trkpt><trkpt lat="30.382518414890644" lon="-6.529372109096064"><ele>1301.0</ele><time>2026-03-22T14:14:45.925Z</time></trkpt><trkpt lat="30.38241254054866" lon="-6.529463718128076"><ele>1301.0</ele><time>2026-03-22T14:14:46.925Z</time></trkpt><trkpt lat="30.382320902134044" lon="-6.529543226190523"><ele>1300.8333333333335</ele><time>2026-03-22T14:14:47.925Z</time></trkpt><trkpt lat="30.382248311080424" lon="-6.5296079047057"><ele>1300.6666666666667</ele><time>2026-03-22T14:14:48.925Z</time></trkpt><trkpt lat="30.382175279957817" lon="-6.5296690805753155"><ele>1300.5</ele><time>2026-03-22T14:14:49.925Z</time></trkpt><trkpt lat="30.38209556183906" lon="-6.529707331122408"><ele>1300.3333333333333</ele><time>2026-03-22T14:14:50.925Z</time></trkpt><trkpt lat="30.38201409956276" lon="-6.529742170486683"><ele>1300.1666666666665</ele><time>2026-03-22T14:14:51.925Z</time></trkpt><trkpt lat="30.38194053777814" lon="-6.5297683384464"><ele>1300.0</ele><time>2026-03-22T14:14:52.925Z</time></trkpt><trkpt lat="30.381867161672922" lon="-6.529810564558046"><ele>1299.2</ele><time>2026-03-22T14:14:53.925Z</time></trkpt><trkpt lat="30.381791223485124" lon="-6.529863967715644"><ele>1298.4</ele><time>2026-03-22T14:14:54.925Z</time></trkpt><trkpt lat="30.381706113684878" lon="-6.529927665253609"><ele>1297.6</ele><time>2026-03-22T14:14:55.925Z</time></trkpt><trkpt lat="30.38161907781219" lon="-6.529994242195912"><ele>1296.8</ele><time>2026-03-22T14:14:56.925Z</time></trkpt><trkpt lat="30.381548641786555" lon="-6.530081825424087"><ele>1296.0</ele><time>2026-03-22T14:14:57.925Z</time></trkpt><trkpt lat="30.381507992010558" lon="-6.530191709690879"><ele>1296.0</ele><time>2026-03-22T14:14:58.925Z</time></trkpt><trkpt lat="30.381477103978973" lon="-6.530314492394385"><ele>1296.0</ele><time>2026-03-22T14:14:59.925Z</time></trkpt><trkpt lat="30.381432279133747" lon="-6.530437783512339"><ele>1296.0</ele><time>2026-03-22T14:15:00.925Z</time></trkpt><trkpt lat="30.38135439626762" lon="-6.530578763420441"><ele>1296.0</ele><time>2026-03-22T14:15:01.925Z</time></trkpt><trkpt lat="30.381264351907916" lon="-6.53070883566457"><ele>1295.1666666666667</ele><time>2026-03-22T14:15:02.925Z</time></trkpt><trkpt lat="30.38119912725029" lon="-6.530824479474058"><ele>1294.3333333333333</ele><time>2026-03-22T14:15:03.925Z</time></trkpt><trkpt lat="30.381166304410733" lon="-6.530920279385508"><ele>1293.5</ele><time>2026-03-22T14:15:04.925Z</time></trkpt><trkpt lat="30.381135363416995" lon="-6.531000960183267"><ele>1292.6666666666665</ele><time>2026-03-22T14:15:05.925Z</time></trkpt><trkpt lat="30.381098349667926" lon="-6.531069613365631"><ele>1291.8333333333333</ele><time>2026-03-22T14:15:06.925Z</time></trkpt><trkpt lat="30.38105586552412" lon="-6.5311536957901835"><ele>1291.0</ele><time>2026-03-22T14:15:08.925Z</time></trkpt><trkpt lat="30.38102103093806" lon="-6.531224308272798"><ele>1290.8333333333333</ele><time>2026-03-22T14:15:12.925Z</time></trkpt><trkpt lat="30.3809361786415" lon="-6.531248373135558"><ele>1290.6666666666665</ele><time>2026-03-22T14:25:06.923Z</time></trkpt><trkpt lat="30.380883996029635" lon="-6.531342291474875"><ele>1290.5</ele><time>2026-03-22T14:25:37.923Z</time></trkpt><trkpt lat="30.380855512431076" lon="-6.531426605824754"><ele>1290.3333333333333</ele><time>2026-03-22T14:25:38.923Z</time></trkpt><trkpt lat="30.380828920607186" lon="-6.53151682018315"><ele>1290.1666666666667</ele><time>2026-03-22T14:25:39.923Z</time></trkpt><trkpt lat="30.380816067036456" lon="-6.53160653018286"><ele>1290.0</ele><time>2026-03-22T14:25:40.923Z</time></trkpt><trkpt lat="30.380790451360493" lon="-6.531701792865647"><ele>1290.0</ele><time>2026-03-22T14:25:41.923Z</time></trkpt><trkpt lat="30.380771048292914" lon="-6.5317748071117645"><ele>1290.0</ele><time>2026-03-22T14:25:42.923Z</time></trkpt><trkpt lat="30.38072998101255" lon="-6.5318425131800035"><ele>1290.0</ele><time>2026-03-22T14:25:43.923Z</time></trkpt><trkpt lat="30.380678844134437" lon="-6.53190051678881"><ele>1290.0</ele><time>2026-03-22T14:25:44.923Z</time></trkpt><trkpt lat="30.380624356609058" lon="-6.531969589936425"><ele>1290.0</ele><time>2026-03-22T14:25:45.923Z</time></trkpt><trkpt lat="30.380579047576937" lon="-6.532045481993378"><ele>1290.0</ele><time>2026-03-22T14:25:46.923Z</time></trkpt><trkpt lat="30.38055465237396" lon="-6.532143157918561"><ele>1290.0</ele><time>2026-03-22T14:25:47.923Z</time></trkpt><trkpt lat="30.38052541055761" lon="-6.532246410551538"><ele>1290.0</ele><time>2026-03-22T14:25:48.923Z</time></trkpt><trkpt lat="30.380499073523243" lon="-6.532346534715598"><ele>1290.0</ele><time>2026-03-22T14:25:49.923Z</time></trkpt><trkpt lat="30.380465397357295" lon="-6.532455676398718"><ele>1290.0</ele><time>2026-03-22T14:25:50.923Z</time></trkpt><trkpt lat="30.380434482174035" lon="-6.532581202792445"><ele>1290.0</ele><time>2026-03-22T14:25:51.923Z</time></trkpt><trkpt lat="30.38041629051155" lon="-6.532721110141924"><ele>1290.0</ele><time>2026-03-22T14:25:52.923Z</time></trkpt><trkpt lat="30.380398444794352" lon="-6.532859547496891"><ele>1290.0</ele><time>2026-03-22T14:25:53.922Z</time></trkpt><trkpt lat="30.380368071447723" lon="-6.533005619471211"><ele>1290.0</ele><time>2026-03-22T14:25:54.922Z</time></trkpt><trkpt lat="30.380309698023417" lon="-6.53315235201492"><ele>1290.0</ele><time>2026-03-22T14:25:55.922Z</time></trkpt><trkpt lat="30.3802476865989" lon="-6.5333141395047285"><ele>1290.75</ele><time>2026-03-22T14:25:56.922Z</time></trkpt><trkpt lat="30.380191012943914" lon="-6.533453074625818"><ele>1291.5</ele><time>2026-03-22T14:25:57.922Z</time></trkpt><trkpt lat="30.380139379876454" lon="-6.53360162278065"><ele>1292.25</ele><time>2026-03-22T14:25:58.922Z</time></trkpt><trkpt lat="30.380093391970185" lon="-6.533744071418692"><ele>1293.0</ele><time>2026-03-22T14:25:59.922Z</time></trkpt><trkpt lat="30.380042763187664" lon="-6.533919812286835"><ele>1293.3333333333333</ele><time>2026-03-22T14:26:00.922Z</time></trkpt><trkpt lat="30.379983335152136" lon="-6.5341028464623445"><ele>1293.6666666666665</ele><time>2026-03-22T14:26:01.922Z</time></trkpt><trkpt lat="30.3799250196494" lon="-6.534283878871712"><ele>1294.0</ele><time>2026-03-22T14:26:02.922Z</time></trkpt><trkpt lat="30.379877441121177" lon="-6.534450175212159"><ele>1294.0</ele><time>2026-03-22T14:26:03.922Z</time></trkpt><trkpt lat="30.379833944688283" lon="-6.534597972036975"><ele>1294.0</ele><time>2026-03-22T14:26:04.922Z</time></trkpt><trkpt lat="30.379791429388373" lon="-6.534739480152361"><ele>1294.0</ele><time>2026-03-22T14:26:05.922Z</time></trkpt><trkpt lat="30.379740846646705" lon="-6.534875681999132"><ele>1294.0</ele><time>2026-03-22T14:26:06.922Z</time></trkpt><trkpt lat="30.379676242673522" lon="-6.535012702050124"><ele>1293.0</ele><time>2026-03-22T14:26:07.922Z</time></trkpt><trkpt lat="30.379598490090604" lon="-6.535176939565663"><ele>1292.0</ele><time>2026-03-22T14:26:08.922Z</time></trkpt><trkpt lat="30.37951568178763" lon="-6.535341454632115"><ele>1291.0</ele><time>2026-03-22T14:26:09.922Z</time></trkpt><trkpt lat="30.379428407308037" lon="-6.535497700970348"><ele>1290.75</ele><time>2026-03-22T14:26:10.922Z</time></trkpt><trkpt lat="30.379339099309227" lon="-6.535632134218393"><ele>1290.5</ele><time>2026-03-22T14:26:11.922Z</time></trkpt><trkpt lat="30.37924680057766" lon="-6.5357671968921585"><ele>1290.25</ele><time>2026-03-22T14:26:12.922Z</time></trkpt><trkpt lat="30.379159404702634" lon="-6.535908077272476"><ele>1290.0</ele><time>2026-03-22T14:26:13.922Z</time></trkpt><trkpt lat="30.379078140271748" lon="-6.536032369466128"><ele>1290.0</ele><time>2026-03-22T14:26:14.922Z</time></trkpt><trkpt lat="30.378988174377827" lon="-6.536147502854943"><ele>1290.0</ele><time>2026-03-22T14:26:15.922Z</time></trkpt><trkpt lat="30.378885881914787" lon="-6.536251294971042"><ele>1290.0</ele><time>2026-03-22T14:26:16.922Z</time></trkpt><trkpt lat="30.378783167271717" lon="-6.536360109924146"><ele>1290.0</ele><time>2026-03-22T14:26:17.922Z</time></trkpt><trkpt lat="30.37870170022711" lon="-6.5364844698825"><ele>1288.75</ele><time>2026-03-22T14:26:18.922Z</time></trkpt><trkpt lat="30.378633540799605" lon="-6.536614777532495"><ele>1287.5</ele><time>2026-03-22T14:26:19.922Z</time></trkpt><trkpt lat="30.378570661584405" lon="-6.536768484123255"><ele>1286.25</ele><time>2026-03-22T14:26:20.922Z</time></trkpt><trkpt lat="30.378500745892932" lon="-6.536940706635065"><ele>1285.0</ele><time>2026-03-22T14:26:21.922Z</time></trkpt><trkpt lat="30.378439163194212" lon="-6.537124470005382"><ele>1285.0</ele><time>2026-03-22T14:26:22.922Z</time></trkpt><trkpt lat="30.37839648967407" lon="-6.537280587649842"><ele>1285.0</ele><time>2026-03-22T14:26:23.922Z</time></trkpt><trkpt lat="30.378364867146015" lon="-6.537425884622447"><ele>1285.0</ele><time>2026-03-22T14:26:24.922Z</time></trkpt><trkpt lat="30.378334219446927" lon="-6.537565484368485"><ele>1285.0</ele><time>2026-03-22T14:26:25.922Z</time></trkpt><trkpt lat="30.378305867116463" lon="-6.537703414771585"><ele>1285.0</ele><time>2026-03-22T14:26:26.922Z</time></trkpt><trkpt lat="30.378276862500186" lon="-6.537844968045452"><ele>1285.0</ele><time>2026-03-22T14:26:27.922Z</time></trkpt><trkpt lat="30.37826282606368" lon="-6.537974550166195"><ele>1285.0</ele><time>2026-03-22T14:26:28.922Z</time></trkpt><trkpt lat="30.378255067380714" lon="-6.538077357005149"><ele>1285.0</ele><time>2026-03-22T14:26:29.922Z</time></trkpt><trkpt lat="30.378257964560454" lon="-6.538194926186468"><ele>1285.0</ele><time>2026-03-22T14:26:30.922Z</time></trkpt><trkpt lat="30.378267000708135" lon="-6.538335605019856"><ele>1285.0</ele><time>2026-03-22T14:26:31.922Z</time></trkpt><trkpt lat="30.378268258335538" lon="-6.538488002127638"><ele>1285.0</ele><time>2026-03-22T14:26:32.922Z</time></trkpt><trkpt lat="30.3782656760957" lon="-6.538627104135713"><ele>1285.0</ele><time>2026-03-22T14:26:33.922Z</time></trkpt><trkpt lat="30.378264313492238" lon="-6.538746011668879"><ele>1285.0</ele><time>2026-03-22T14:26:34.922Z</time></trkpt><trkpt lat="30.378273881108047" lon="-6.5388684652514035"><ele>1284.75</ele><time>2026-03-22T14:26:35.922Z</time></trkpt><trkpt lat="30.378272941756656" lon="-6.539012073721559"><ele>1284.5</ele><time>2026-03-22T14:26:36.922Z</time></trkpt><trkpt lat="30.378258967131238" lon="-6.53917069038758"><ele>1284.25</ele><time>2026-03-22T14:26:37.923Z</time></trkpt><trkpt lat="30.37824591234238" lon="-6.539342044527139"><ele>1284.0</ele><time>2026-03-22T14:26:38.922Z</time></trkpt><trkpt lat="30.378224515282884" lon="-6.539501744180079"><ele>1283.5</ele><time>2026-03-22T14:26:39.922Z</time></trkpt><trkpt lat="30.37819996667324" lon="-6.539638139245084"><ele>1283.0</ele><time>2026-03-22T14:26:40.922Z</time></trkpt><trkpt lat="30.378182846323483" lon="-6.539780633859604"><ele>1282.5</ele><time>2026-03-22T14:26:41.922Z</time></trkpt><trkpt lat="30.378183783687984" lon="-6.539989654830059"><ele>1282.0</ele><time>2026-03-22T14:26:42.922Z</time></trkpt><trkpt lat="30.378184733075756" lon="-6.540169097865896"><ele>1282.0</ele><time>2026-03-22T14:26:43.922Z</time></trkpt><trkpt lat="30.378185668649948" lon="-6.540332042801761"><ele>1282.0</ele><time>2026-03-22T14:26:44.922Z</time></trkpt><trkpt lat="30.37818546420348" lon="-6.540483774057931"><ele>1282.0</ele><time>2026-03-22T14:26:45.922Z</time></trkpt><trkpt lat="30.378189995677523" lon="-6.540626680424274"><ele>1282.0</ele><time>2026-03-22T14:26:46.922Z</time></trkpt><trkpt lat="30.37816332545023" lon="-6.540776873885373"><ele>1281.3333333333333</ele><time>2026-03-22T14:26:47.922Z</time></trkpt><trkpt lat="30.378124823816343" lon="-6.540930368991787"><ele>1280.6666666666667</ele><time>2026-03-22T14:26:48.922Z</time></trkpt><trkpt lat="30.3780987407138" lon="-6.5411059543327355"><ele>1280.0</ele><time>2026-03-22T14:26:49.922Z</time></trkpt><trkpt lat="30.378082015264102" lon="-6.5413016812444456"><ele>1279.3333333333335</ele><time>2026-03-22T14:26:50.922Z</time></trkpt><trkpt lat="30.3780487246757" lon="-6.541514599019604"><ele>1278.6666666666667</ele><time>2026-03-22T14:26:51.922Z</time></trkpt><trkpt lat="30.37802211146623" lon="-6.541711996680072"><ele>1278.0</ele><time>2026-03-22T14:26:52.922Z</time></trkpt><trkpt lat="30.37799051288229" lon="-6.541878947138787"><ele>1278.5</ele><time>2026-03-22T14:26:53.922Z</time></trkpt><trkpt lat="30.37797443645747" lon="-6.542034549359773"><ele>1279.0</ele><time>2026-03-22T14:26:54.922Z</time></trkpt><trkpt lat="30.377972018381637" lon="-6.542193208803461"><ele>1279.5</ele><time>2026-03-22T14:26:55.922Z</time></trkpt><trkpt lat="30.3779680897158" lon="-6.542360142349228"><ele>1280.0</ele><time>2026-03-22T14:26:56.922Z</time></trkpt><trkpt lat="30.37795706420519" lon="-6.542511194025326"><ele>1280.0</ele><time>2026-03-22T14:26:57.922Z</time></trkpt><trkpt lat="30.377951997813348" lon="-6.542635985823928"><ele>1280.0</ele><time>2026-03-22T14:26:58.922Z</time></trkpt><trkpt lat="30.377974065345" lon="-6.542713860760478"><ele>1280.0</ele><time>2026-03-22T14:26:59.922Z</time></trkpt><trkpt lat="30.378000827699694" lon="-6.542794719324518"><ele>1280.0</ele><time>2026-03-22T14:27:00.922Z</time></trkpt><trkpt lat="30.378035906303875" lon="-6.542883453999991"><ele>1280.0</ele><time>2026-03-22T14:27:01.922Z</time></trkpt><trkpt lat="30.37807966564713" lon="-6.542969743934393"><ele>1280.0</ele><time>2026-03-22T14:27:02.922Z</time></trkpt><trkpt lat="30.37806632938959" lon="-6.543049669732727"><ele>1278.75</ele><time>2026-03-22T14:27:03.922Z</time></trkpt><trkpt lat="30.37801672179848" lon="-6.543140506457062"><ele>1277.5</ele><time>2026-03-22T14:27:04.922Z</time></trkpt><trkpt lat="30.377954421543205" lon="-6.543255483275857"><ele>1276.25</ele><time>2026-03-22T14:27:05.922Z</time></trkpt><trkpt lat="30.37788471046972" lon="-6.54339425530935"><ele>1275.0</ele><time>2026-03-22T14:27:06.922Z</time></trkpt><trkpt lat="30.37780438315536" lon="-6.543538791299152"><ele>1275.0</ele><time>2026-03-22T14:27:07.922Z</time></trkpt><trkpt lat="30.377731799515946" lon="-6.543674327863091"><ele>1275.0</ele><time>2026-03-22T14:27:08.922Z</time></trkpt><trkpt lat="30.377684435295887" lon="-6.543830763827959"><ele>1275.0</ele><time>2026-03-22T14:27:09.922Z</time></trkpt><trkpt lat="30.377656366188074" lon="-6.54401178701899"><ele>1275.0</ele><time>2026-03-22T14:27:10.922Z</time></trkpt><trkpt lat="30.377603030261227" lon="-6.544246654145845"><ele>1275.0</ele><time>2026-03-22T14:27:11.922Z</time></trkpt><trkpt lat="30.377532650162262" lon="-6.544474626773269"><ele>1275.0</ele><time>2026-03-22T14:27:12.922Z</time></trkpt><trkpt lat="30.37747642205566" lon="-6.544685881967112"><ele>1275.0</ele><time>2026-03-22T14:27:13.922Z</time></trkpt><trkpt lat="30.37743144916986" lon="-6.544845470621473"><ele>1275.25</ele><time>2026-03-22T14:27:14.922Z</time></trkpt><trkpt lat="30.377391438181025" lon="-6.54500173600199"><ele>1275.5</ele><time>2026-03-22T14:27:15.922Z</time></trkpt><trkpt lat="30.377373584547293" lon="-6.545168982729054"><ele>1275.75</ele><time>2026-03-22T14:27:16.922Z</time></trkpt><trkpt lat="30.3773685066219" lon="-6.545339469845392"><ele>1276.0</ele><time>2026-03-22T14:27:17.922Z</time></trkpt><trkpt lat="30.37736704645447" lon="-6.545526039080228"><ele>1276.6666666666665</ele><time>2026-03-22T14:27:18.922Z</time></trkpt><trkpt lat="30.37737422170766" lon="-6.54571101830727"><ele>1277.3333333333333</ele><time>2026-03-22T14:27:19.922Z</time></trkpt><trkpt lat="30.377383546585392" lon="-6.545878631076813"><ele>1278.0</ele><time>2026-03-22T14:27:20.922Z</time></trkpt><trkpt lat="30.377386720238988" lon="-6.546051035727102"><ele>1277.0</ele><time>2026-03-22T14:27:21.922Z</time></trkpt><trkpt lat="30.377373847155518" lon="-6.546212050415369"><ele>1276.0</ele><time>2026-03-22T14:27:22.922Z</time></trkpt><trkpt lat="30.377334680025704" lon="-6.546346070453457"><ele>1275.0</ele><time>2026-03-22T14:27:23.922Z</time></trkpt><trkpt lat="30.377280617153342" lon="-6.54647268908092"><ele>1274.0</ele><time>2026-03-22T14:27:24.922Z</time></trkpt><trkpt lat="30.377235899050866" lon="-6.5465998491499375"><ele>1274.0</ele><time>2026-03-22T14:27:25.922Z</time></trkpt><trkpt lat="30.37722089346986" lon="-6.546731279714679"><ele>1274.0</ele><time>2026-03-22T14:27:26.922Z</time></trkpt><trkpt lat="30.377213537037463" lon="-6.546862445956529"><ele>1274.0</ele><time>2026-03-22T14:27:27.922Z</time></trkpt><trkpt lat="30.3772004985495" lon="-6.546994159238502"><ele>1274.0</ele><time>2026-03-22T14:27:28.922Z</time></trkpt><trkpt lat="30.377171080078735" lon="-6.547108419527936"><ele>1274.0</ele><time>2026-03-22T14:27:29.922Z</time></trkpt><trkpt lat="30.377138081234527" lon="-6.547226446324992"><ele>1273.25</ele><time>2026-03-22T14:27:30.922Z</time></trkpt><trkpt lat="30.377112149373605" lon="-6.547346049378557"><ele>1272.5</ele><time>2026-03-22T14:27:31.922Z</time></trkpt><trkpt lat="30.377086993010103" lon="-6.54748112415858"><ele>1271.75</ele><time>2026-03-22T14:27:32.922Z</time></trkpt><trkpt lat="30.377061122275464" lon="-6.547625455111277"><ele>1271.0</ele><time>2026-03-22T14:27:33.922Z</time></trkpt><trkpt lat="30.37703469272615" lon="-6.547783589675162"><ele>1271.25</ele><time>2026-03-22T14:27:34.922Z</time></trkpt><trkpt lat="30.377024225627107" lon="-6.547921837972023"><ele>1271.5</ele><time>2026-03-22T14:27:35.922Z</time></trkpt><trkpt lat="30.37703574109968" lon="-6.548041720341829"><ele>1271.75</ele><time>2026-03-22T14:27:36.922Z</time></trkpt><trkpt lat="30.377042619363003" lon="-6.5481763460550635"><ele>1272.0</ele><time>2026-03-22T14:27:37.922Z</time></trkpt><trkpt lat="30.377023082193524" lon="-6.5483241434062505"><ele>1272.0</ele><time>2026-03-22T14:27:38.922Z</time></trkpt><trkpt lat="30.37701211464717" lon="-6.548497735949531"><ele>1272.0</ele><time>2026-03-22T14:27:39.922Z</time></trkpt><trkpt lat="30.376993512932373" lon="-6.548660613622925"><ele>1272.0</ele><time>2026-03-22T14:27:40.922Z</time></trkpt><trkpt lat="30.376964334229292" lon="-6.548795542423015"><ele>1272.0</ele><time>2026-03-22T14:27:41.922Z</time></trkpt><trkpt lat="30.376934701048175" lon="-6.548907755575181"><ele>1270.5</ele><time>2026-03-22T14:27:42.922Z</time></trkpt><trkpt lat="30.376898202243392" lon="-6.5490136910944"><ele>1269.0</ele><time>2026-03-22T14:27:43.922Z</time></trkpt><trkpt lat="30.376832196933545" lon="-6.5491090423783715"><ele>1267.5</ele><time>2026-03-22T14:27:44.922Z</time></trkpt><trkpt lat="30.376734906327616" lon="-6.549230466430114"><ele>1266.0</ele><time>2026-03-22T14:27:45.922Z</time></trkpt><trkpt lat="30.37661555764964" lon="-6.549347501182972"><ele>1266.0</ele><time>2026-03-22T14:27:46.922Z</time></trkpt><trkpt lat="30.376508648578955" lon="-6.549447308914663"><ele>1266.0</ele><time>2026-03-22T14:27:47.922Z</time></trkpt><trkpt lat="30.376399903116866" lon="-6.549523000877747"><ele>1266.0</ele><time>2026-03-22T14:27:48.922Z</time></trkpt><trkpt lat="30.376286064568003" lon="-6.549594795948775"><ele>1266.0</ele><time>2026-03-22T14:27:49.922Z</time></trkpt><trkpt lat="30.376174752406726" lon="-6.549686809291791"><ele>1265.75</ele><time>2026-03-22T14:27:50.922Z</time></trkpt><trkpt lat="30.376064863124665" lon="-6.549812312943969"><ele>1265.5</ele><time>2026-03-22T14:27:51.922Z</time></trkpt><trkpt lat="30.37595448209554" lon="-6.5499019874729605"><ele>1265.25</ele><time>2026-03-22T14:27:52.922Z</time></trkpt><trkpt lat="30.37584390331759" lon="-6.549990655676211"><ele>1265.0</ele><time>2026-03-22T14:27:53.922Z</time></trkpt><trkpt lat="30.37574168619233" lon="-6.550108072488617"><ele>1265.0</ele><time>2026-03-22T14:27:54.922Z</time></trkpt><trkpt lat="30.375653829181235" lon="-6.550248820239833"><ele>1265.0</ele><time>2026-03-22T14:27:55.922Z</time></trkpt><trkpt lat="30.375572796166527" lon="-6.550396442765662"><ele>1265.0</ele><time>2026-03-22T14:27:56.922Z</time></trkpt><trkpt lat="30.375529346104614" lon="-6.550553825773866"><ele>1265.0</ele><time>2026-03-22T14:27:57.922Z</time></trkpt><trkpt lat="30.375526176380447" lon="-6.550708169531661"><ele>1264.5</ele><time>2026-03-22T14:27:58.922Z</time></trkpt><trkpt lat="30.375538025095565" lon="-6.550853823452585"><ele>1264.0</ele><time>2026-03-22T14:27:59.922Z</time></trkpt><trkpt lat="30.375530308903354" lon="-6.55102436442648"><ele>1263.5</ele><time>2026-03-22T14:28:00.922Z</time></trkpt><trkpt lat="30.375520383629162" lon="-6.551167585883833"><ele>1263.0</ele><time>2026-03-22T14:28:01.922Z</time></trkpt><trkpt lat="30.375501653302607" lon="-6.55130492181727"><ele>1263.0</ele><time>2026-03-22T14:28:02.922Z</time></trkpt><trkpt lat="30.375472932944792" lon="-6.551435233120504"><ele>1263.0</ele><time>2026-03-22T14:28:03.922Z</time></trkpt><trkpt lat="30.37544108845846" lon="-6.551555056286758"><ele>1263.0</ele><time>2026-03-22T14:28:04.922Z</time></trkpt><trkpt lat="30.37540090545348" lon="-6.551664181341781"><ele>1263.0</ele><time>2026-03-22T14:28:05.922Z</time></trkpt><trkpt lat="30.375370797330238" lon="-6.551767048129107"><ele>1263.0</ele><time>2026-03-22T14:28:06.922Z</time></trkpt><trkpt lat="30.375354920636305" lon="-6.551877905857202"><ele>1263.0</ele><time>2026-03-22T14:28:07.922Z</time></trkpt><trkpt lat="30.375367582027398" lon="-6.551996030952426"><ele>1263.0</ele><time>2026-03-22T14:28:08.922Z</time></trkpt><trkpt lat="30.37539396170528" lon="-6.552141581921801"><ele>1263.0</ele><time>2026-03-22T14:28:09.922Z</time></trkpt><trkpt lat="30.37538772831599" lon="-6.552270163748779"><ele>1263.0</ele><time>2026-03-22T14:28:10.922Z</time></trkpt><trkpt lat="30.37536438287939" lon="-6.552401891425094"><ele>1262.0</ele><time>2026-03-22T14:28:11.922Z</time></trkpt><trkpt lat="30.375316063366682" lon="-6.552507165149552"><ele>1261.0</ele><time>2026-03-22T14:28:12.922Z</time></trkpt><trkpt lat="30.375236312239817" lon="-6.552592680576339"><ele>1260.0</ele><time>2026-03-22T14:28:13.922Z</time></trkpt><trkpt lat="30.37516734918223" lon="-6.552722673747087"><ele>1259.0</ele><time>2026-03-22T14:28:14.922Z</time></trkpt><trkpt lat="30.375122433120577" lon="-6.552862764203455"><ele>1260.0</ele><time>2026-03-22T14:28:15.922Z</time></trkpt><trkpt lat="30.375106101346383" lon="-6.553021626780299"><ele>1261.0</ele><time>2026-03-22T14:28:16.922Z</time></trkpt><trkpt lat="30.37508101763908" lon="-6.553184259893419"><ele>1262.0</ele><time>2026-03-22T14:28:17.922Z</time></trkpt><trkpt lat="30.37503568397535" lon="-6.55334924711735"><ele>1263.0</ele><time>2026-03-22T14:28:18.922Z</time></trkpt><trkpt lat="30.374952124562608" lon="-6.55350540691065"><ele>1263.0</ele><time>2026-03-22T14:28:19.921Z</time></trkpt><trkpt lat="30.374875881721934" lon="-6.55367162992503"><ele>1263.0</ele><time>2026-03-22T14:28:20.921Z</time></trkpt><trkpt lat="30.37480568279039" lon="-6.553838301034901"><ele>1263.0</ele><time>2026-03-22T14:28:21.921Z</time></trkpt><trkpt lat="30.374743966116075" lon="-6.554008083774927"><ele>1261.0</ele><time>2026-03-22T14:28:22.921Z</time></trkpt><trkpt lat="30.374686555516238" lon="-6.554186951446928"><ele>1259.0</ele><time>2026-03-22T14:28:23.921Z</time></trkpt><trkpt lat="30.374610672632052" lon="-6.554379028760163"><ele>1257.0</ele><time>2026-03-22T14:28:24.921Z</time></trkpt><trkpt lat="30.374543370627205" lon="-6.554574258671377"><ele>1257.0</ele><time>2026-03-22T14:28:25.921Z</time></trkpt><trkpt lat="30.37449635265611" lon="-6.554762148168166"><ele>1257.0</ele><time>2026-03-22T14:28:26.921Z</time></trkpt><trkpt lat="30.374460567539625" lon="-6.554918357328577"><ele>1257.0</ele><time>2026-03-22T14:28:27.921Z</time></trkpt><trkpt lat="30.374429671492305" lon="-6.5550529587048745"><ele>1257.0</ele><time>2026-03-22T14:28:28.921Z</time></trkpt><trkpt lat="30.374404579638977" lon="-6.555185094067667"><ele>1257.0</ele><time>2026-03-22T14:28:29.921Z</time></trkpt><trkpt lat="30.374383149517865" lon="-6.555311008576395"><ele>1257.0</ele><time>2026-03-22T14:28:30.921Z</time></trkpt><trkpt lat="30.374365191496562" lon="-6.555435149931138"><ele>1257.0</ele><time>2026-03-22T14:28:31.921Z</time></trkpt><trkpt lat="30.37433544434421" lon="-6.555568626224825"><ele>1257.0</ele><time>2026-03-22T14:28:32.921Z</time></trkpt><trkpt lat="30.37430043335359" lon="-6.555693441302103"><ele>1257.25</ele><time>2026-03-22T14:28:33.921Z</time></trkpt><trkpt lat="30.374256753523216" lon="-6.555828048102541"><ele>1257.5</ele><time>2026-03-22T14:28:34.921Z</time></trkpt><trkpt lat="30.37421239051124" lon="-6.555959379201312"><ele>1257.75</ele><time>2026-03-22T14:28:35.921Z</time></trkpt><trkpt lat="30.37416803823683" lon="-6.556106257722931"><ele>1258.0</ele><time>2026-03-22T14:28:36.921Z</time></trkpt><trkpt lat="30.374129998855096" lon="-6.556249490558029"><ele>1260.25</ele><time>2026-03-22T14:28:37.921Z</time></trkpt><trkpt lat="30.374072594301285" lon="-6.556392305253354"><ele>1262.5</ele><time>2026-03-22T14:28:38.921Z</time></trkpt><trkpt lat="30.373999797677648" lon="-6.556538587303696"><ele>1264.75</ele><time>2026-03-22T14:28:39.921Z</time></trkpt><trkpt lat="30.373947208804378" lon="-6.556708368029027"><ele>1267.0</ele><time>2026-03-22T14:28:40.921Z</time></trkpt><trkpt lat="30.373881617075995" lon="-6.556849582921102"><ele>1263.25</ele><time>2026-03-22T14:28:41.921Z</time></trkpt><trkpt lat="30.373822512758533" lon="-6.5569980770182115"><ele>1259.5</ele><time>2026-03-22T14:28:42.921Z</time></trkpt><trkpt lat="30.373740714342834" lon="-6.557129257259415"><ele>1255.75</ele><time>2026-03-22T14:28:43.922Z</time></trkpt><trkpt lat="30.37364990164752" lon="-6.557274190076906"><ele>1252.0</ele><time>2026-03-22T14:28:44.921Z</time></trkpt><trkpt lat="30.373563220478804" lon="-6.557430629009754"><ele>1251.0</ele><time>2026-03-22T14:28:45.921Z</time></trkpt><trkpt lat="30.37348748333349" lon="-6.55757564769653"><ele>1250.0</ele><time>2026-03-22T14:28:46.922Z</time></trkpt><trkpt lat="30.373412668868927" lon="-6.557675822908358"><ele>1249.0</ele><time>2026-03-22T14:28:47.922Z</time></trkpt><trkpt lat="30.373340268909615" lon="-6.557759026351187"><ele>1248.0</ele><time>2026-03-22T14:28:48.923Z</time></trkpt><trkpt lat="30.373231493115593" lon="-6.557839993246663"><ele>1247.6666666666667</ele><time>2026-03-22T14:28:49.924Z</time></trkpt><trkpt lat="30.373119542364854" lon="-6.557947678830486"><ele>1247.3333333333335</ele><time>2026-03-22T14:28:50.924Z</time></trkpt><trkpt lat="30.373018578570104" lon="-6.55810269169025"><ele>1247.0</ele><time>2026-03-22T14:28:51.924Z</time></trkpt><trkpt lat="30.37290310238627" lon="-6.558274001554456"><ele>1247.0</ele><time>2026-03-22T14:28:52.925Z</time></trkpt><trkpt lat="30.372801488449856" lon="-6.558436672670024"><ele>1247.0</ele><time>2026-03-22T14:28:53.926Z</time></trkpt><trkpt lat="30.372694923672306" lon="-6.558588602599293"><ele>1247.0</ele><time>2026-03-22T14:28:54.926Z</time></trkpt><trkpt lat="30.372562213909482" lon="-6.55873075791018"><ele>1247.25</ele><time>2026-03-22T14:28:55.927Z</time></trkpt><trkpt lat="30.37244189600626" lon="-6.558881633693797"><ele>1247.5</ele><time>2026-03-22T14:28:56.927Z</time></trkpt><trkpt lat="30.372353753742157" lon="-6.559004734172941"><ele>1247.75</ele><time>2026-03-22T14:28:57.927Z</time></trkpt><trkpt lat="30.372275208652557" lon="-6.559119132996282"><ele>1248.0</ele><time>2026-03-22T14:28:58.927Z</time></trkpt><trkpt lat="30.37218345615484" lon="-6.559214227111297"><ele>1248.0</ele><time>2026-03-22T14:28:59.928Z</time></trkpt><trkpt lat="30.372086031424452" lon="-6.559316711356703"><ele>1248.0</ele><time>2026-03-22T14:29:00.928Z</time></trkpt><trkpt lat="30.371974543385015" lon="-6.5594188146997885"><ele>1248.0</ele><time>2026-03-22T14:29:01.928Z</time></trkpt><trkpt lat="30.371876467977263" lon="-6.559507606690145"><ele>1248.0</ele><time>2026-03-22T14:29:02.929Z</time></trkpt><trkpt lat="30.371779575982217" lon="-6.559615669944381"><ele>1251.0</ele><time>2026-03-22T14:29:03.929Z</time></trkpt><trkpt lat="30.37167648371474" lon="-6.5597418148991675"><ele>1254.0</ele><time>2026-03-22T14:29:04.929Z</time></trkpt><trkpt lat="30.371562703553256" lon="-6.5598848212867225"><ele>1257.0</ele><time>2026-03-22T14:29:05.929Z</time></trkpt><trkpt lat="30.37144724808556" lon="-6.560013437966183"><ele>1256.0</ele><time>2026-03-22T14:29:06.929Z</time></trkpt><trkpt lat="30.371311069392668" lon="-6.560157101711406"><ele>1255.0</ele><time>2026-03-22T14:29:07.93Z</time></trkpt><trkpt lat="30.371184331511824" lon="-6.5603002205789585"><ele>1254.0</ele><time>2026-03-22T14:29:08.93Z</time></trkpt><trkpt lat="30.37107028570183" lon="-6.560433846568001"><ele>1254.0</ele><time>2026-03-22T14:29:09.93Z</time></trkpt><trkpt lat="30.37095607075493" lon="-6.560559224637749"><ele>1254.0</ele><time>2026-03-22T14:29:10.93Z</time></trkpt><trkpt lat="30.370842511954464" lon="-6.560666874705658"><ele>1254.0</ele><time>2026-03-22T14:29:11.93Z</time></trkpt><trkpt lat="30.37071760868404" lon="-6.560784619199857"><ele>1254.0</ele><time>2026-03-22T14:29:12.93Z</time></trkpt><trkpt lat="30.370576755307123" lon="-6.560902095194511"><ele>1254.0</ele><time>2026-03-22T14:29:13.93Z</time></trkpt><trkpt lat="30.370424969406113" lon="-6.561046286369149"><ele>1254.0</ele><time>2026-03-22T14:29:14.93Z</time></trkpt><trkpt lat="30.370275120953792" lon="-6.56116763420703"><ele>1253.0</ele><time>2026-03-22T14:29:15.931Z</time></trkpt><trkpt lat="30.370129166851424" lon="-6.561246027708304"><ele>1252.0</ele><time>2026-03-22T14:29:16.931Z</time></trkpt><trkpt lat="30.369973044599337" lon="-6.5613266422569465"><ele>1251.0</ele><time>2026-03-22T14:29:17.931Z</time></trkpt><trkpt lat="30.369817730365824" lon="-6.561395483942655"><ele>1249.5</ele><time>2026-03-22T14:29:18.931Z</time></trkpt><trkpt lat="30.36966784100332" lon="-6.561412698395866"><ele>1248.0</ele><time>2026-03-22T14:29:19.931Z</time></trkpt><trkpt lat="30.369536459988435" lon="-6.561431145573705"><ele>1246.5</ele><time>2026-03-22T14:29:20.931Z</time></trkpt><trkpt lat="30.369391595211106" lon="-6.561451935770669"><ele>1245.0</ele><time>2026-03-22T14:29:21.931Z</time></trkpt><trkpt lat="30.36923528246527" lon="-6.5614741143677975"><ele>1245.0</ele><time>2026-03-22T14:29:22.931Z</time></trkpt><trkpt lat="30.36908334210299" lon="-6.561498752200786"><ele>1245.0</ele><time>2026-03-22T14:29:23.931Z</time></trkpt><trkpt lat="30.368931181337533" lon="-6.561523425693258"><ele>1245.0</ele><time>2026-03-22T14:29:24.931Z</time></trkpt><trkpt lat="30.36878855915913" lon="-6.561546413189074"><ele>1244.0</ele><time>2026-03-22T14:29:25.931Z</time></trkpt><trkpt lat="30.368651209764007" lon="-6.561598644864905"><ele>1243.0</ele><time>2026-03-22T14:29:26.931Z</time></trkpt><trkpt lat="30.368518608124223" lon="-6.561644869815647"><ele>1242.0</ele><time>2026-03-22T14:29:27.931Z</time></trkpt><trkpt lat="30.368393787604255" lon="-6.56172551057308"><ele>1241.0</ele><time>2026-03-22T14:29:28.931Z</time></trkpt><trkpt lat="30.368270405878125" lon="-6.561797015819525"><ele>1241.0</ele><time>2026-03-22T14:29:29.931Z</time></trkpt><trkpt lat="30.368151517353212" lon="-6.561865492116468"><ele>1241.0</ele><time>2026-03-22T14:29:30.932Z</time></trkpt><trkpt lat="30.368034830395427" lon="-6.561937189528384"><ele>1241.0</ele><time>2026-03-22T14:29:31.932Z</time></trkpt><trkpt lat="30.367925914629005" lon="-6.5620043680711575"><ele>1241.0</ele><time>2026-03-22T14:29:32.932Z</time></trkpt><trkpt lat="30.36782610075771" lon="-6.562083240570643"><ele>1241.0</ele><time>2026-03-22T14:29:33.932Z</time></trkpt><trkpt lat="30.36770317613484" lon="-6.56213897685889"><ele>1241.0</ele><time>2026-03-22T14:29:34.932Z</time></trkpt><trkpt lat="30.36758602182641" lon="-6.562190522868808"><ele>1241.0</ele><time>2026-03-22T14:29:35.932Z</time></trkpt><trkpt lat="30.367500983429665" lon="-6.562267307101083"><ele>1241.0</ele><time>2026-03-22T14:29:36.932Z</time></trkpt><trkpt lat="30.36742068626967" lon="-6.562324602147222"><ele>1241.0</ele><time>2026-03-22T14:29:37.932Z</time></trkpt><trkpt lat="30.367345559994938" lon="-6.562410816063311"><ele>1241.0</ele><time>2026-03-22T14:29:38.932Z</time></trkpt><trkpt lat="30.367260136211595" lon="-6.562495712508392"><ele>1241.0</ele><time>2026-03-22T14:29:39.932Z</time></trkpt><trkpt lat="30.36718314797573" lon="-6.562584503967057"><ele>1241.0</ele><time>2026-03-22T14:29:40.932Z</time></trkpt><trkpt lat="30.367095945299738" lon="-6.562688037015396"><ele>1240.5</ele><time>2026-03-22T14:29:41.932Z</time></trkpt><trkpt lat="30.367005670734756" lon="-6.562776126097096"><ele>1240.0</ele><time>2026-03-22T14:29:42.932Z</time></trkpt><trkpt lat="30.36695782379404" lon="-6.562891086513375"><ele>1239.5</ele><time>2026-03-22T14:29:43.932Z</time></trkpt><trkpt lat="30.366877373140202" lon="-6.563011793734892"><ele>1239.0</ele><time>2026-03-22T14:29:44.932Z</time></trkpt><trkpt lat="30.366802640671864" lon="-6.563143064867741"><ele>1239.0</ele><time>2026-03-22T14:29:45.932Z</time></trkpt><trkpt lat="30.366708192055025" lon="-6.5632688711809015"><ele>1239.0</ele><time>2026-03-22T14:29:46.932Z</time></trkpt><trkpt lat="30.366620923985277" lon="-6.5634238175070285"><ele>1239.0</ele><time>2026-03-22T14:29:47.932Z</time></trkpt><trkpt lat="30.366532053061164" lon="-6.563573831879217"><ele>1240.25</ele><time>2026-03-22T14:29:48.932Z</time></trkpt><trkpt lat="30.366422312374013" lon="-6.563702575693547"><ele>1241.5</ele><time>2026-03-22T14:29:49.932Z</time></trkpt><trkpt lat="30.366345643698615" lon="-6.563843266962419"><ele>1242.75</ele><time>2026-03-22T14:29:50.932Z</time></trkpt><trkpt lat="30.366262457787517" lon="-6.563953213368947"><ele>1244.0</ele><time>2026-03-22T14:29:51.932Z</time></trkpt><trkpt lat="30.366188706415503" lon="-6.564067100160895"><ele>1242.6000000000001</ele><time>2026-03-22T14:29:52.932Z</time></trkpt><trkpt lat="30.366141651683556" lon="-6.564199682477463"><ele>1241.2</ele><time>2026-03-22T14:29:53.932Z</time></trkpt><trkpt lat="30.36609593046045" lon="-6.56432201783158"><ele>1239.8000000000002</ele><time>2026-03-22T14:29:54.932Z</time></trkpt><trkpt lat="30.36605561962753" lon="-6.564431317785612"><ele>1238.4</ele><time>2026-03-22T14:29:55.932Z</time></trkpt><trkpt lat="30.366024387029668" lon="-6.56454042097664"><ele>1237.0</ele><time>2026-03-22T14:29:56.932Z</time></trkpt><trkpt lat="30.366008608656788" lon="-6.564650394246714"><ele>1237.0</ele><time>2026-03-22T14:29:57.932Z</time></trkpt><trkpt lat="30.365996880096244" lon="-6.56476400212234"><ele>1237.0</ele><time>2026-03-22T14:29:58.932Z</time></trkpt><trkpt lat="30.365960134945393" lon="-6.5648660162576515"><ele>1237.0</ele><time>2026-03-22T14:29:59.932Z</time></trkpt><trkpt lat="30.36589948950863" lon="-6.564980038939546"><ele>1237.0</ele><time>2026-03-22T14:30:00.932Z</time></trkpt><trkpt lat="30.365841096876974" lon="-6.5650960650527"><ele>1237.0</ele><time>2026-03-22T14:30:01.932Z</time></trkpt><trkpt lat="30.36577974877731" lon="-6.565184075340191"><ele>1237.0</ele><time>2026-03-22T14:30:02.932Z</time></trkpt><trkpt lat="30.36569910345325" lon="-6.565236850609395"><ele>1237.0</ele><time>2026-03-22T14:30:03.932Z</time></trkpt><trkpt lat="30.36559441633756" lon="-6.5652572269026175"><ele>1237.0</ele><time>2026-03-22T14:30:04.932Z</time></trkpt><trkpt lat="30.36547052780302" lon="-6.565258604468596"><ele>1237.0</ele><time>2026-03-22T14:30:05.932Z</time></trkpt><trkpt lat="30.36535449520669" lon="-6.565277869632381"><ele>1237.0</ele><time>2026-03-22T14:30:06.932Z</time></trkpt><trkpt lat="30.36524375088055" lon="-6.565308401966431"><ele>1236.5</ele><time>2026-03-22T14:30:07.932Z</time></trkpt><trkpt lat="30.365137927741824" lon="-6.565384484047991"><ele>1236.0</ele><time>2026-03-22T14:30:08.932Z</time></trkpt><trkpt lat="30.365040932138594" lon="-6.565474491003424"><ele>1235.5</ele><time>2026-03-22T14:30:09.932Z</time></trkpt><trkpt lat="30.36495857778543" lon="-6.565554402241479"><ele>1235.0</ele><time>2026-03-22T14:30:10.932Z</time></trkpt><trkpt lat="30.364875344924766" lon="-6.565644167579974"><ele>1235.0</ele><time>2026-03-22T14:30:11.932Z</time></trkpt><trkpt lat="30.36478264551071" lon="-6.565717660362044"><ele>1235.0</ele><time>2026-03-22T14:30:12.932Z</time></trkpt><trkpt lat="30.364692671259338" lon="-6.565793526690663"><ele>1235.0</ele><time>2026-03-22T14:30:13.932Z</time></trkpt><trkpt lat="30.36462248475919" lon="-6.565885988220288"><ele>1235.0</ele><time>2026-03-22T14:30:14.932Z</time></trkpt><trkpt lat="30.36454246726513" lon="-6.5659815146317"><ele>1235.0</ele><time>2026-03-22T14:30:15.932Z</time></trkpt><trkpt lat="30.36445449910749" lon="-6.566068352072309"><ele>1234.75</ele><time>2026-03-22T14:30:16.932Z</time></trkpt><trkpt lat="30.364371010782502" lon="-6.566133075987289"><ele>1234.5</ele><time>2026-03-22T14:30:17.932Z</time></trkpt><trkpt lat="30.364281031767476" lon="-6.566196923167734"><ele>1234.25</ele><time>2026-03-22T14:30:18.932Z</time></trkpt><trkpt lat="30.36417325488303" lon="-6.566273610380854"><ele>1234.0</ele><time>2026-03-22T14:30:19.932Z</time></trkpt><trkpt lat="30.364061474113388" lon="-6.566341591168238"><ele>1234.0</ele><time>2026-03-22T14:30:20.932Z</time></trkpt><trkpt lat="30.363944880580064" lon="-6.566384776479569"><ele>1234.0</ele><time>2026-03-22T14:30:21.932Z</time></trkpt><trkpt lat="30.3638311219815" lon="-6.566438241697979"><ele>1234.0</ele><time>2026-03-22T14:30:22.932Z</time></trkpt><trkpt lat="30.36371850714215" lon="-6.566485819805288"><ele>1234.0</ele><time>2026-03-22T14:30:23.932Z</time></trkpt><trkpt lat="30.363597151029484" lon="-6.566529719757311"><ele>1233.0</ele><time>2026-03-22T14:30:24.932Z</time></trkpt><trkpt lat="30.363462501492407" lon="-6.56658119482392"><ele>1232.0</ele><time>2026-03-22T14:30:25.932Z</time></trkpt><trkpt lat="30.363326180961053" lon="-6.566633867312339"><ele>1231.0</ele><time>2026-03-22T14:30:26.932Z</time></trkpt><trkpt lat="30.363178928143626" lon="-6.566696044982628"><ele>1230.0</ele><time>2026-03-22T14:30:27.932Z</time></trkpt><trkpt lat="30.36304484461178" lon="-6.566751022547803"><ele>1230.25</ele><time>2026-03-22T14:30:28.932Z</time></trkpt><trkpt lat="30.36292190234385" lon="-6.566816219103316"><ele>1230.5</ele><time>2026-03-22T14:30:29.932Z</time></trkpt><trkpt lat="30.362785302775812" lon="-6.566883141827872"><ele>1230.75</ele><time>2026-03-22T14:30:30.932Z</time></trkpt><trkpt lat="30.36264180863664" lon="-6.566939496193574"><ele>1231.0</ele><time>2026-03-22T14:30:31.932Z</time></trkpt><trkpt lat="30.36248146847803" lon="-6.5669753538442865"><ele>1231.0</ele><time>2026-03-22T14:30:32.932Z</time></trkpt><trkpt lat="30.36229421661546" lon="-6.567020541467914"><ele>1231.0</ele><time>2026-03-22T14:30:33.932Z</time></trkpt><trkpt lat="30.36212232423024" lon="-6.5671241266465605"><ele>1231.0</ele><time>2026-03-22T14:30:34.932Z</time></trkpt><trkpt lat="30.361953708881206" lon="-6.567204276962588"><ele>1230.0</ele><time>2026-03-22T14:30:35.932Z</time></trkpt><trkpt lat="30.36182182336334" lon="-6.567247908634326"><ele>1229.0</ele><time>2026-03-22T14:30:36.932Z</time></trkpt><trkpt lat="30.361723761647276" lon="-6.56733490543479"><ele>1228.0</ele><time>2026-03-22T14:30:37.932Z</time></trkpt><trkpt lat="30.361630916204653" lon="-6.5674058841370995"><ele>1227.0</ele><time>2026-03-22T14:30:38.932Z</time></trkpt><trkpt lat="30.361517619174272" lon="-6.567443771357952"><ele>1227.0</ele><time>2026-03-22T14:30:39.932Z</time></trkpt><trkpt lat="30.361430080433866" lon="-6.567540079074874"><ele>1227.0</ele><time>2026-03-22T14:30:40.932Z</time></trkpt><trkpt lat="30.361347319725038" lon="-6.567629815129501"><ele>1227.0</ele><time>2026-03-22T14:30:41.932Z</time></trkpt><trkpt lat="30.36127592595056" lon="-6.567730807113388"><ele>1227.0</ele><time>2026-03-22T14:30:42.932Z</time></trkpt><trkpt lat="30.361205547758168" lon="-6.567850608187731"><ele>1226.25</ele><time>2026-03-22T14:30:43.932Z</time></trkpt><trkpt lat="30.36113675987364" lon="-6.567985631820817"><ele>1225.5</ele><time>2026-03-22T14:30:44.932Z</time></trkpt><trkpt lat="30.36104622350305" lon="-6.568103557447676"><ele>1224.75</ele><time>2026-03-22T14:30:45.932Z</time></trkpt><trkpt lat="30.3609256828051" lon="-6.568206615081268"><ele>1224.0</ele><time>2026-03-22T14:30:46.932Z</time></trkpt><trkpt lat="30.36081093308239" lon="-6.5682979450595305"><ele>1224.0</ele><time>2026-03-22T14:30:47.932Z</time></trkpt><trkpt lat="30.360720943746568" lon="-6.568384447527563"><ele>1224.0</ele><time>2026-03-22T14:30:48.932Z</time></trkpt><trkpt lat="30.360649688627024" lon="-6.568500334792936"><ele>1224.0</ele><time>2026-03-22T14:30:49.932Z</time></trkpt><trkpt lat="30.360606823645693" lon="-6.568629697021567"><ele>1224.0</ele><time>2026-03-22T14:30:50.931Z</time></trkpt><trkpt lat="30.360576710660975" lon="-6.568775953706413"><ele>1223.6666666666667</ele><time>2026-03-22T14:30:51.931Z</time></trkpt><trkpt lat="30.360519217861867" lon="-6.56895445148255"><ele>1223.3333333333335</ele><time>2026-03-22T14:30:52.931Z</time></trkpt><trkpt lat="30.360456164303088" lon="-6.569137597672458"><ele>1223.0</ele><time>2026-03-22T14:30:53.932Z</time></trkpt><trkpt lat="30.36042037282211" lon="-6.569304469859325"><ele>1223.0</ele><time>2026-03-22T14:30:54.932Z</time></trkpt><trkpt lat="30.36039224799677" lon="-6.5694488663951445"><ele>1223.0</ele><time>2026-03-22T14:30:55.932Z</time></trkpt><trkpt lat="30.360360827343275" lon="-6.569598592864437"><ele>1223.0</ele><time>2026-03-22T14:30:56.931Z</time></trkpt><trkpt lat="30.360339392432987" lon="-6.569767317659826"><ele>1223.0</ele><time>2026-03-22T14:30:57.931Z</time></trkpt><trkpt lat="30.36034383528843" lon="-6.569941056930031"><ele>1221.75</ele><time>2026-03-22T14:30:58.931Z</time></trkpt><trkpt lat="30.360346892741866" lon="-6.570094014951924"><ele>1220.5</ele><time>2026-03-22T14:30:59.931Z</time></trkpt><trkpt lat="30.36034106052521" lon="-6.570226735970176"><ele>1219.25</ele><time>2026-03-22T14:31:00.931Z</time></trkpt><trkpt lat="30.360338776102296" lon="-6.570351295392389"><ele>1218.0</ele><time>2026-03-22T14:31:01.932Z</time></trkpt><trkpt lat="30.36034535278403" lon="-6.570469099432927"><ele>1218.0</ele><time>2026-03-22T14:31:02.931Z</time></trkpt><trkpt lat="30.360345212198062" lon="-6.570582866970153"><ele>1218.0</ele><time>2026-03-22T14:31:03.931Z</time></trkpt><trkpt lat="30.360322308857103" lon="-6.570685565146636"><ele>1218.0</ele><time>2026-03-22T14:31:04.931Z</time></trkpt><trkpt lat="30.36027798442247" lon="-6.5707954586853985"><ele>1218.0</ele><time>2026-03-22T14:31:05.931Z</time></trkpt><trkpt lat="30.360223340805078" lon="-6.570899816397198"><ele>1218.0</ele><time>2026-03-22T14:31:06.931Z</time></trkpt><trkpt lat="30.36015558590461" lon="-6.571010384109325"><ele>1218.0</ele><time>2026-03-22T14:31:07.931Z</time></trkpt><trkpt lat="30.360086354869807" lon="-6.571098964255395"><ele>1218.0</ele><time>2026-03-22T14:31:08.931Z</time></trkpt><trkpt lat="30.36001760454926" lon="-6.571184050933518"><ele>1218.0</ele><time>2026-03-22T14:31:09.931Z</time></trkpt><trkpt lat="30.359957579507086" lon="-6.571285309974635"><ele>1218.0</ele><time>2026-03-22T14:31:10.931Z</time></trkpt><trkpt lat="30.359897117686433" lon="-6.571415459665165"><ele>1218.0</ele><time>2026-03-22T14:31:11.931Z</time></trkpt><trkpt lat="30.359828331565378" lon="-6.571558778702153"><ele>1217.6666666666667</ele><time>2026-03-22T14:31:12.931Z</time></trkpt><trkpt lat="30.359765756768727" lon="-6.571725640270021"><ele>1217.3333333333335</ele><time>2026-03-22T14:31:13.931Z</time></trkpt><trkpt lat="30.359707746936472" lon="-6.571908396452695"><ele>1217.0</ele><time>2026-03-22T14:31:14.931Z</time></trkpt><trkpt lat="30.359650580588685" lon="-6.572088465078164"><ele>1217.0</ele><time>2026-03-22T14:31:15.931Z</time></trkpt><trkpt lat="30.359651618047135" lon="-6.572271143188543"><ele>1217.0</ele><time>2026-03-22T14:31:16.931Z</time></trkpt><trkpt lat="30.35961211730253" lon="-6.572422185749485"><ele>1217.0</ele><time>2026-03-22T14:31:17.931Z</time></trkpt><trkpt lat="30.359568763441832" lon="-6.572587962007914"><ele>1217.0</ele><time>2026-03-22T14:31:18.931Z</time></trkpt><trkpt lat="30.359503612403614" lon="-6.572735959349427"><ele>1217.0</ele><time>2026-03-22T14:31:19.931Z</time></trkpt><trkpt lat="30.359442511002197" lon="-6.572838150540747"><ele>1217.0</ele><time>2026-03-22T14:31:20.931Z</time></trkpt><trkpt lat="30.359398504715454" lon="-6.572927169931014"><ele>1217.0</ele><time>2026-03-22T14:31:21.931Z</time></trkpt><trkpt lat="30.35933065671533" lon="-6.572999621147675"><ele>1217.0</ele><time>2026-03-22T14:31:22.931Z</time></trkpt><trkpt lat="30.359247548330874" lon="-6.573104980883431"><ele>1217.0</ele><time>2026-03-22T14:31:23.931Z</time></trkpt><trkpt lat="30.35916345635354" lon="-6.573217479866062"><ele>1216.75</ele><time>2026-03-22T14:31:24.931Z</time></trkpt><trkpt lat="30.359151016787084" lon="-6.573334894058038"><ele>1216.5</ele><time>2026-03-22T14:31:25.931Z</time></trkpt><trkpt lat="30.35911099984096" lon="-6.573450480095841"><ele>1216.25</ele><time>2026-03-22T14:31:26.931Z</time></trkpt><trkpt lat="30.3590511470333" lon="-6.573567128313433"><ele>1216.0</ele><time>2026-03-22T14:31:27.931Z</time></trkpt><trkpt lat="30.358976892813136" lon="-6.573712862575243"><ele>1215.75</ele><time>2026-03-22T14:31:28.931Z</time></trkpt><trkpt lat="30.358892686173164" lon="-6.573874822986861"><ele>1215.5</ele><time>2026-03-22T14:31:29.931Z</time></trkpt><trkpt lat="30.35880814997172" lon="-6.574015511008872"><ele>1215.25</ele><time>2026-03-22T14:31:30.931Z</time></trkpt><trkpt lat="30.358729064243505" lon="-6.574145102606504"><ele>1215.0</ele><time>2026-03-22T14:31:31.931Z</time></trkpt><trkpt lat="30.358658452599975" lon="-6.574261417097164"><ele>1215.0</ele><time>2026-03-22T14:31:32.931Z</time></trkpt><trkpt lat="30.358577515745157" lon="-6.574375351165873"><ele>1215.0</ele><time>2026-03-22T14:31:33.931Z</time></trkpt><trkpt lat="30.35853741691404" lon="-6.574515101006947"><ele>1215.0</ele><time>2026-03-22T14:31:34.931Z</time></trkpt><trkpt lat="30.358494686913396" lon="-6.5746150529861"><ele>1215.0</ele><time>2026-03-22T14:31:35.931Z</time></trkpt><trkpt lat="30.358480095611032" lon="-6.574718191854308"><ele>1215.0</ele><time>2026-03-22T14:31:36.931Z</time></trkpt><trkpt lat="30.35846472443169" lon="-6.574810363899959"><ele>1214.5</ele><time>2026-03-22T14:31:37.931Z</time></trkpt><trkpt lat="30.358357923944023" lon="-6.574894502329966"><ele>1214.0</ele><time>2026-03-22T14:31:39.931Z</time></trkpt><trkpt lat="30.358270250011596" lon="-6.574917516178234"><ele>1213.5</ele><time>2026-03-22T14:31:40.931Z</time></trkpt><trkpt lat="30.358147547656372" lon="-6.57497237547139"><ele>1213.0</ele><time>2026-03-22T14:31:41.931Z</time></trkpt><trkpt lat="30.358045836350186" lon="-6.57506727008058"><ele>1212.5</ele><time>2026-03-22T14:31:42.931Z</time></trkpt><trkpt lat="30.357947401805497" lon="-6.575190212853768"><ele>1212.0</ele><time>2026-03-22T14:31:43.931Z</time></trkpt><trkpt lat="30.35785069929232" lon="-6.575302951816956"><ele>1211.5</ele><time>2026-03-22T14:31:44.931Z</time></trkpt><trkpt lat="30.357766757069875" lon="-6.575385789837739"><ele>1211.0</ele><time>2026-03-22T14:31:45.931Z</time></trkpt><trkpt lat="30.357700963495876" lon="-6.575468646215296"><ele>1211.0</ele><time>2026-03-22T14:31:46.931Z</time></trkpt><trkpt lat="30.357629643739486" lon="-6.5755610061832535"><ele>1211.0</ele><time>2026-03-22T14:31:47.931Z</time></trkpt><trkpt lat="30.35755507907466" lon="-6.575648648645749"><ele>1211.0</ele><time>2026-03-22T14:31:48.931Z</time></trkpt><trkpt lat="30.357477437357865" lon="-6.575723511475122"><ele>1211.0</ele><time>2026-03-22T14:31:49.931Z</time></trkpt><trkpt lat="30.357398785983296" lon="-6.575794214068825"><ele>1211.0</ele><time>2026-03-22T14:31:50.931Z</time></trkpt><trkpt lat="30.357333694014475" lon="-6.575874367994983"><ele>1211.0</ele><time>2026-03-22T14:31:51.931Z</time></trkpt><trkpt lat="30.357264091972617" lon="-6.575947821581942"><ele>1211.0</ele><time>2026-03-22T14:31:52.931Z</time></trkpt><trkpt lat="30.357189072558405" lon="-6.576040874672116"><ele>1211.0</ele><time>2026-03-22T14:31:53.931Z</time></trkpt><trkpt lat="30.357114195610684" lon="-6.57612330674539"><ele>1211.0</ele><time>2026-03-22T14:31:54.931Z</time></trkpt><trkpt lat="30.35704178473039" lon="-6.576193048279582"><ele>1211.0</ele><time>2026-03-22T14:31:55.931Z</time></trkpt><trkpt lat="30.35695818514018" lon="-6.576271215845892"><ele>1211.25</ele><time>2026-03-22T14:31:56.931Z</time></trkpt><trkpt lat="30.35686889716516" lon="-6.576359162819576"><ele>1211.5</ele><time>2026-03-22T14:31:57.931Z</time></trkpt><trkpt lat="30.35676893406972" lon="-6.576436582979959"><ele>1211.75</ele><time>2026-03-22T14:31:58.931Z</time></trkpt><trkpt lat="30.356678054299927" lon="-6.576511205762931"><ele>1212.0</ele><time>2026-03-22T14:31:59.931Z</time></trkpt><trkpt lat="30.356575733208334" lon="-6.576588331825699"><ele>1212.0</ele><time>2026-03-22T14:32:00.931Z</time></trkpt><trkpt lat="30.35646325190384" lon="-6.5766799992958545"><ele>1212.0</ele><time>2026-03-22T14:32:01.931Z</time></trkpt><trkpt lat="30.35636482410007" lon="-6.576790117784551"><ele>1212.0</ele><time>2026-03-22T14:32:02.931Z</time></trkpt><trkpt lat="30.35626256414024" lon="-6.576904706350299"><ele>1212.0</ele><time>2026-03-22T14:32:03.931Z</time></trkpt><trkpt lat="30.356186879494476" lon="-6.577002451489213"><ele>1211.0</ele><time>2026-03-22T14:32:04.931Z</time></trkpt><trkpt lat="30.356094634649175" lon="-6.5771193250624505"><ele>1210.0</ele><time>2026-03-22T14:32:05.931Z</time></trkpt><trkpt lat="30.35600407908553" lon="-6.577226730698256"><ele>1209.0</ele><time>2026-03-22T14:32:06.931Z</time></trkpt><trkpt lat="30.355916003569725" lon="-6.577316230366756"><ele>1208.0</ele><time>2026-03-22T14:32:07.931Z</time></trkpt><trkpt lat="30.35583159018202" lon="-6.577416443753616"><ele>1208.0</ele><time>2026-03-22T14:32:08.931Z</time></trkpt><trkpt lat="30.355752895114392" lon="-6.577528735978034"><ele>1208.0</ele><time>2026-03-22T14:32:09.931Z</time></trkpt><trkpt lat="30.35567090543299" lon="-6.577686555176986"><ele>1208.0</ele><time>2026-03-22T14:32:10.931Z</time></trkpt><trkpt lat="30.355582646644546" lon="-6.5778478768120126"><ele>1208.0</ele><time>2026-03-22T14:32:11.931Z</time></trkpt><trkpt lat="30.355520393371368" lon="-6.577994792097692"><ele>1209.6</ele><time>2026-03-22T14:32:12.931Z</time></trkpt><trkpt lat="30.355492402163215" lon="-6.578121427124534"><ele>1211.1999999999998</ele><time>2026-03-22T14:32:13.931Z</time></trkpt><trkpt lat="30.355469902852814" lon="-6.578236482324759"><ele>1212.8</ele><time>2026-03-22T14:32:14.931Z</time></trkpt><trkpt lat="30.35544401916071" lon="-6.57835708100057"><ele>1214.3999999999999</ele><time>2026-03-22T14:32:15.931Z</time></trkpt><trkpt lat="30.355398787731893" lon="-6.578442581523725"><ele>1216.0</ele><time>2026-03-22T14:32:16.931Z</time></trkpt><trkpt lat="30.3553408229115" lon="-6.578549947628285"><ele>1216.0</ele><time>2026-03-22T14:32:17.931Z</time></trkpt><trkpt lat="30.355290292610135" lon="-6.5786449984822974"><ele>1216.0</ele><time>2026-03-22T14:32:18.931Z</time></trkpt><trkpt lat="30.35523777354964" lon="-6.5787456253582475"><ele>1216.0</ele><time>2026-03-22T14:32:19.931Z</time></trkpt><trkpt lat="30.355182383515803" lon="-6.578855028294007"><ele>1216.0</ele><time>2026-03-22T14:32:20.931Z</time></trkpt><trkpt lat="30.35512518400295" lon="-6.578963782644638"><ele>1216.0</ele><time>2026-03-22T14:32:21.931Z</time></trkpt><trkpt lat="30.35506750850332" lon="-6.57906703678611"><ele>1214.0</ele><time>2026-03-22T14:32:22.931Z</time></trkpt><trkpt lat="30.355019144911324" lon="-6.579187152633082"><ele>1212.0</ele><time>2026-03-22T14:32:23.931Z</time></trkpt><trkpt lat="30.3549688480498" lon="-6.579300674035384"><ele>1210.0</ele><time>2026-03-22T14:32:24.931Z</time></trkpt><trkpt lat="30.354907021511938" lon="-6.579410365482198"><ele>1208.0</ele><time>2026-03-22T14:32:25.931Z</time></trkpt><trkpt lat="30.35483188483156" lon="-6.579505044056459"><ele>1206.0</ele><time>2026-03-22T14:32:26.931Z</time></trkpt><trkpt lat="30.354755919551053" lon="-6.579581787048218"><ele>1206.2</ele><time>2026-03-22T14:32:27.931Z</time></trkpt><trkpt lat="30.354688076887257" lon="-6.579659446405889"><ele>1206.3999999999999</ele><time>2026-03-22T14:32:28.931Z</time></trkpt><trkpt lat="30.354629200091868" lon="-6.579741026693508"><ele>1206.6</ele><time>2026-03-22T14:32:29.931Z</time></trkpt><trkpt lat="30.354561168478043" lon="-6.5798168438106375"><ele>1206.8</ele><time>2026-03-22T14:32:30.931Z</time></trkpt><trkpt lat="30.354488094579906" lon="-6.57989500459356"><ele>1207.0</ele><time>2026-03-22T14:32:31.931Z</time></trkpt><trkpt lat="30.354409173583395" lon="-6.5799828778842055"><ele>1207.0</ele><time>2026-03-22T14:32:32.931Z</time></trkpt><trkpt lat="30.354329154741205" lon="-6.580052688190884"><ele>1207.0</ele><time>2026-03-22T14:32:33.931Z</time></trkpt><trkpt lat="30.354246444290066" lon="-6.580130668718182"><ele>1207.0</ele><time>2026-03-22T14:32:34.931Z</time></trkpt><trkpt lat="30.354168280641638" lon="-6.580172850317048"><ele>1207.0</ele><time>2026-03-22T14:32:35.931Z</time></trkpt><trkpt lat="30.354074590930793" lon="-6.580241445515659"><ele>1207.0</ele><time>2026-03-22T14:32:36.931Z</time></trkpt><trkpt lat="30.353974608501442" lon="-6.580298132503798"><ele>1205.0</ele><time>2026-03-22T14:32:37.931Z</time></trkpt><trkpt lat="30.3538640003073" lon="-6.580366756313417"><ele>1203.0</ele><time>2026-03-22T14:32:38.931Z</time></trkpt><trkpt lat="30.353733343859027" lon="-6.580431525437741"><ele>1201.0</ele><time>2026-03-22T14:32:39.931Z</time></trkpt><trkpt lat="30.35358309225362" lon="-6.580506755400401"><ele>1199.0</ele><time>2026-03-22T14:32:40.931Z</time></trkpt><trkpt lat="30.353432722181108" lon="-6.580587827982731"><ele>1199.0</ele><time>2026-03-22T14:32:41.931Z</time></trkpt><trkpt lat="30.353307875892998" lon="-6.5806670529650635"><ele>1199.0</ele><time>2026-03-22T14:32:42.931Z</time></trkpt><trkpt lat="30.353170400526334" lon="-6.580721385062668"><ele>1199.0</ele><time>2026-03-22T14:32:43.931Z</time></trkpt><trkpt lat="30.353043179609024" lon="-6.580781687905926"><ele>1199.0</ele><time>2026-03-22T14:32:44.931Z</time></trkpt><trkpt lat="30.352916733387264" lon="-6.580820317447875"><ele>1198.75</ele><time>2026-03-22T14:32:45.931Z</time></trkpt><trkpt lat="30.35280083152352" lon="-6.580857281663764"><ele>1198.5</ele><time>2026-03-22T14:32:46.931Z</time></trkpt><trkpt lat="30.35269743842434" lon="-6.580907146142045"><ele>1198.25</ele><time>2026-03-22T14:32:47.931Z</time></trkpt><trkpt lat="30.35258566498341" lon="-6.580947110567285"><ele>1198.0</ele><time>2026-03-22T14:32:48.931Z</time></trkpt><trkpt lat="30.35248313206615" lon="-6.580990254399214"><ele>1198.0</ele><time>2026-03-22T14:32:49.931Z</time></trkpt><trkpt lat="30.35239849046711" lon="-6.5810558738643286"><ele>1198.0</ele><time>2026-03-22T14:32:50.931Z</time></trkpt><trkpt lat="30.35229639966325" lon="-6.58108708366199"><ele>1198.0</ele><time>2026-03-22T14:32:51.931Z</time></trkpt><trkpt lat="30.352207451063673" lon="-6.581122755006634"><ele>1198.0</ele><time>2026-03-22T14:32:52.931Z</time></trkpt><trkpt lat="30.352118772989137" lon="-6.5811583178909965"><ele>1198.0</ele><time>2026-03-22T14:32:53.931Z</time></trkpt><trkpt lat="30.352012742853738" lon="-6.581199698849721"><ele>1198.25</ele><time>2026-03-22T14:32:54.931Z</time></trkpt><trkpt lat="30.351905706498243" lon="-6.5812775218741475"><ele>1198.5</ele><time>2026-03-22T14:32:55.931Z</time></trkpt><trkpt lat="30.351774628323493" lon="-6.581328753589619"><ele>1198.75</ele><time>2026-03-22T14:32:56.93Z</time></trkpt><trkpt lat="30.35165049841185" lon="-6.581363985567445"><ele>1199.0</ele><time>2026-03-22T14:32:57.93Z</time></trkpt><trkpt lat="30.351518349782392" lon="-6.581383727477249"><ele>1199.0</ele><time>2026-03-22T14:32:58.931Z</time></trkpt><trkpt lat="30.3513872784893" lon="-6.581424664392232"><ele>1199.0</ele><time>2026-03-22T14:32:59.931Z</time></trkpt><trkpt lat="30.351254546052022" lon="-6.581486150199282"><ele>1199.0</ele><time>2026-03-22T14:33:00.931Z</time></trkpt><trkpt lat="30.351131683658355" lon="-6.581567911887676"><ele>1199.0</ele><time>2026-03-22T14:33:01.931Z</time></trkpt><trkpt lat="30.351006689632772" lon="-6.581682867009055"><ele>1198.3333333333335</ele><time>2026-03-22T14:33:02.93Z</time></trkpt><trkpt lat="30.35088543265619" lon="-6.581819394426471"><ele>1197.6666666666667</ele><time>2026-03-22T14:33:03.93Z</time></trkpt><trkpt lat="30.35076806607195" lon="-6.581953202689337"><ele>1197.0</ele><time>2026-03-22T14:33:04.931Z</time></trkpt><trkpt lat="30.350661308562206" lon="-6.582082943287152"><ele>1197.0</ele><time>2026-03-22T14:33:05.931Z</time></trkpt><trkpt lat="30.35056207493236" lon="-6.5822028676832165"><ele>1197.0</ele><time>2026-03-22T14:33:06.931Z</time></trkpt><trkpt lat="30.35046775534457" lon="-6.582329798454622"><ele>1197.0</ele><time>2026-03-22T14:33:07.931Z</time></trkpt><trkpt lat="30.350381644551252" lon="-6.582442872725667"><ele>1197.0</ele><time>2026-03-22T14:33:08.931Z</time></trkpt><trkpt lat="30.350301879716206" lon="-6.582556926031155"><ele>1196.25</ele><time>2026-03-22T14:33:09.931Z</time></trkpt><trkpt lat="30.350228822607946" lon="-6.582663924061075"><ele>1195.5</ele><time>2026-03-22T14:33:10.931Z</time></trkpt><trkpt lat="30.350159119337142" lon="-6.582762900002015"><ele>1194.75</ele><time>2026-03-22T14:33:11.931Z</time></trkpt><trkpt lat="30.35009465584894" lon="-6.582862674335848"><ele>1194.0</ele><time>2026-03-22T14:33:12.931Z</time></trkpt><trkpt lat="30.350025117084275" lon="-6.582969515085328"><ele>1194.0</ele><time>2026-03-22T14:33:13.931Z</time></trkpt><trkpt lat="30.34994691013982" lon="-6.583080112498584"><ele>1194.0</ele><time>2026-03-22T14:33:14.931Z</time></trkpt><trkpt lat="30.34984439575103" lon="-6.583203441453668"><ele>1194.0</ele><time>2026-03-22T14:33:15.931Z</time></trkpt><trkpt lat="30.34972787764097" lon="-6.583357135098106"><ele>1194.0</ele><time>2026-03-22T14:33:16.931Z</time></trkpt><trkpt lat="30.34959712539965" lon="-6.583515462806096"><ele>1193.5</ele><time>2026-03-22T14:33:17.931Z</time></trkpt><trkpt lat="30.349480977472503" lon="-6.5836648210209"><ele>1193.0</ele><time>2026-03-22T14:33:18.931Z</time></trkpt><trkpt lat="30.34937594683528" lon="-6.583781366521758"><ele>1192.5</ele><time>2026-03-22T14:33:19.931Z</time></trkpt><trkpt lat="30.34929935309315" lon="-6.583898306572931"><ele>1192.0</ele><time>2026-03-22T14:33:20.931Z</time></trkpt><trkpt lat="30.34920579075751" lon="-6.584014772884865"><ele>1192.0</ele><time>2026-03-22T14:33:21.931Z</time></trkpt><trkpt lat="30.349085763291747" lon="-6.584155613461221"><ele>1192.0</ele><time>2026-03-22T14:33:22.931Z</time></trkpt><trkpt lat="30.34894647379065" lon="-6.584315580611084"><ele>1192.0</ele><time>2026-03-22T14:33:23.931Z</time></trkpt><trkpt lat="30.348796193148804" lon="-6.584492528439454"><ele>1191.6666666666665</ele><time>2026-03-22T14:33:24.931Z</time></trkpt><trkpt lat="30.348654205860527" lon="-6.584661920159756"><ele>1191.3333333333333</ele><time>2026-03-22T14:33:25.931Z</time></trkpt><trkpt lat="30.348525936707446" lon="-6.584800109872146"><ele>1191.0</ele><time>2026-03-22T14:33:26.931Z</time></trkpt><trkpt lat="30.34840357989061" lon="-6.58493360283583"><ele>1191.0</ele><time>2026-03-22T14:33:27.931Z</time></trkpt><trkpt lat="30.348238019155946" lon="-6.585035134027283"><ele>1191.0</ele><time>2026-03-22T14:33:28.931Z</time></trkpt><trkpt lat="30.348094700495384" lon="-6.585162562593546"><ele>1191.0</ele><time>2026-03-22T14:33:29.931Z</time></trkpt><trkpt lat="30.347944087386335" lon="-6.585284203913498"><ele>1190.3333333333333</ele><time>2026-03-22T14:33:30.931Z</time></trkpt><trkpt lat="30.347776543634133" lon="-6.585414343713137"><ele>1189.6666666666665</ele><time>2026-03-22T14:33:31.931Z</time></trkpt><trkpt lat="30.34761366544912" lon="-6.58557089175841"><ele>1189.0</ele><time>2026-03-22T14:33:32.931Z</time></trkpt><trkpt lat="30.347470230336036" lon="-6.585710401557747"><ele>1189.0</ele><time>2026-03-22T14:33:33.931Z</time></trkpt><trkpt lat="30.34735308205478" lon="-6.585824951718033"><ele>1189.0</ele><time>2026-03-22T14:33:34.931Z</time></trkpt><trkpt lat="30.347247454359177" lon="-6.5859099393602865"><ele>1189.0</ele><time>2026-03-22T14:33:35.931Z</time></trkpt><trkpt lat="30.347136854267752" lon="-6.585968827637981"><ele>1189.0</ele><time>2026-03-22T14:33:36.931Z</time></trkpt><trkpt lat="30.347015007075626" lon="-6.585992292554307"><ele>1189.0</ele><time>2026-03-22T14:33:37.931Z</time></trkpt><trkpt lat="30.34687707304764" lon="-6.586020933801175"><ele>1189.0</ele><time>2026-03-22T14:33:38.931Z</time></trkpt><trkpt lat="30.34674270828705" lon="-6.5861012756832045"><ele>1189.0</ele><time>2026-03-22T14:33:39.931Z</time></trkpt><trkpt lat="30.346628945543323" lon="-6.586182230640043"><ele>1189.0</ele><time>2026-03-22T14:33:40.931Z</time></trkpt><trkpt lat="30.346550581624413" lon="-6.586257599570287"><ele>1189.0</ele><time>2026-03-22T14:33:41.931Z</time></trkpt><trkpt lat="30.346489163172073" lon="-6.586330690155098"><ele>1189.0</ele><time>2026-03-22T14:33:42.931Z</time></trkpt><trkpt lat="30.34642704434442" lon="-6.586401769723833"><ele>1189.0</ele><time>2026-03-22T14:33:43.931Z</time></trkpt><trkpt lat="30.346358852933175" lon="-6.586482045560324"><ele>1189.0</ele><time>2026-03-22T14:33:44.931Z</time></trkpt><trkpt lat="30.346305959261205" lon="-6.586569881018185"><ele>1189.0</ele><time>2026-03-22T14:33:45.931Z</time></trkpt><trkpt lat="30.346263081367738" lon="-6.586675023368035"><ele>1188.2</ele><time>2026-03-22T14:33:46.931Z</time></trkpt><trkpt lat="30.346210408731647" lon="-6.586773176489201"><ele>1187.4</ele><time>2026-03-22T14:33:47.931Z</time></trkpt><trkpt lat="30.346135057445217" lon="-6.586851725674063"><ele>1186.6</ele><time>2026-03-22T14:33:48.931Z</time></trkpt><trkpt lat="30.34605112436777" lon="-6.586912951281731"><ele>1185.8</ele><time>2026-03-22T14:33:49.931Z</time></trkpt><trkpt lat="30.345948119752087" lon="-6.586982725862534"><ele>1185.0</ele><time>2026-03-22T14:33:50.931Z</time></trkpt><trkpt lat="30.34582886765741" lon="-6.587058265687811"><ele>1185.75</ele><time>2026-03-22T14:33:51.931Z</time></trkpt><trkpt lat="30.345713829605543" lon="-6.58714600277765"><ele>1186.5</ele><time>2026-03-22T14:33:52.931Z</time></trkpt><trkpt lat="30.345604967262382" lon="-6.587243220021293"><ele>1187.25</ele><time>2026-03-22T14:33:53.931Z</time></trkpt><trkpt lat="30.34548891891587" lon="-6.587337863500017"><ele>1188.0</ele><time>2026-03-22T14:33:54.931Z</time></trkpt><trkpt lat="30.345378760808426" lon="-6.587417707028537"><ele>1188.0</ele><time>2026-03-22T14:33:55.931Z</time></trkpt><trkpt lat="30.345267928461578" lon="-6.587498587026826"><ele>1188.0</ele><time>2026-03-22T14:33:56.931Z</time></trkpt><trkpt lat="30.34515691228088" lon="-6.587571324012547"><ele>1188.0</ele><time>2026-03-22T14:33:57.931Z</time></trkpt><trkpt lat="30.34505442193555" lon="-6.5876411475023815"><ele>1188.0</ele><time>2026-03-22T14:33:58.931Z</time></trkpt><trkpt lat="30.344964645210535" lon="-6.587713205138783"><ele>1188.0</ele><time>2026-03-22T14:33:59.931Z</time></trkpt><trkpt lat="30.344877205645474" lon="-6.587801459397982"><ele>1188.0</ele><time>2026-03-22T14:34:00.931Z</time></trkpt><trkpt lat="30.34477595357468" lon="-6.58791272368299"><ele>1188.0</ele><time>2026-03-22T14:34:01.931Z</time></trkpt><trkpt lat="30.344673172312913" lon="-6.5880424263523985"><ele>1188.0</ele><time>2026-03-22T14:34:02.931Z</time></trkpt><trkpt lat="30.34457183579828" lon="-6.588189582801423"><ele>1189.3333333333333</ele><time>2026-03-22T14:34:03.931Z</time></trkpt><trkpt lat="30.3444506379105" lon="-6.588346094305812"><ele>1190.6666666666665</ele><time>2026-03-22T14:34:04.931Z</time></trkpt><trkpt lat="30.344305636564886" lon="-6.588482685274719"><ele>1192.0</ele><time>2026-03-22T14:34:05.931Z</time></trkpt><trkpt lat="30.34415490953228" lon="-6.588599726014843"><ele>1191.0</ele><time>2026-03-22T14:34:06.931Z</time></trkpt><trkpt lat="30.344024342717965" lon="-6.5887315267982505"><ele>1190.0</ele><time>2026-03-22T14:34:07.931Z</time></trkpt><trkpt lat="30.343903920369197" lon="-6.588873846528615"><ele>1189.0</ele><time>2026-03-22T14:34:08.931Z</time></trkpt><trkpt lat="30.34380519609863" lon="-6.588994442054005"><ele>1189.0</ele><time>2026-03-22T14:34:09.931Z</time></trkpt><trkpt lat="30.34371561730191" lon="-6.589074542738147"><ele>1189.0</ele><time>2026-03-22T14:34:10.931Z</time></trkpt><trkpt lat="30.343623976374186" lon="-6.589143679349345"><ele>1189.0</ele><time>2026-03-22T14:34:11.931Z</time></trkpt><trkpt lat="30.34352677184734" lon="-6.589206087736959"><ele>1189.0</ele><time>2026-03-22T14:34:12.931Z</time></trkpt><trkpt lat="30.343431029063087" lon="-6.589275624554091"><ele>1189.0</ele><time>2026-03-22T14:34:13.931Z</time></trkpt><trkpt lat="30.343350666862527" lon="-6.58937674578521"><ele>1189.0</ele><time>2026-03-22T14:34:14.931Z</time></trkpt><trkpt lat="30.343259253725975" lon="-6.589487203726333"><ele>1189.0</ele><time>2026-03-22T14:34:15.931Z</time></trkpt><trkpt lat="30.34315374187849" lon="-6.589585826967238"><ele>1189.0</ele><time>2026-03-22T14:34:16.931Z</time></trkpt><trkpt lat="30.343015227411527" lon="-6.589681064830336"><ele>1189.0</ele><time>2026-03-22T14:34:17.931Z</time></trkpt><trkpt lat="30.342867055822662" lon="-6.589768281999847"><ele>1188.5</ele><time>2026-03-22T14:34:18.931Z</time></trkpt><trkpt lat="30.34273694840198" lon="-6.589851442554827"><ele>1188.0</ele><time>2026-03-22T14:34:19.931Z</time></trkpt><trkpt lat="30.34263962537708" lon="-6.589921035668359"><ele>1187.5</ele><time>2026-03-22T14:34:20.931Z</time></trkpt><trkpt lat="30.342537624581645" lon="-6.589960433333109"><ele>1187.0</ele><time>2026-03-22T14:34:21.931Z</time></trkpt><trkpt lat="30.34243169991024" lon="-6.590002453771978"><ele>1187.0</ele><time>2026-03-22T14:34:22.931Z</time></trkpt><trkpt lat="30.34232480945846" lon="-6.590045776641589"><ele>1187.0</ele><time>2026-03-22T14:34:23.931Z</time></trkpt><trkpt lat="30.342207406178105" lon="-6.590088547966911"><ele>1187.0</ele><time>2026-03-22T14:34:24.931Z</time></trkpt><trkpt lat="30.342092893594035" lon="-6.590130547013747"><ele>1187.0</ele><time>2026-03-22T14:34:25.931Z</time></trkpt><trkpt lat="30.341970986907008" lon="-6.590177149716129"><ele>1185.3333333333335</ele><time>2026-03-22T14:34:26.931Z</time></trkpt><trkpt lat="30.34182532931222" lon="-6.590235737194445"><ele>1183.6666666666667</ele><time>2026-03-22T14:34:27.931Z</time></trkpt><trkpt lat="30.341657192910535" lon="-6.590296579725863"><ele>1182.0</ele><time>2026-03-22T14:34:28.931Z</time></trkpt><trkpt lat="30.34149547049229" lon="-6.590358430561868"><ele>1180.75</ele><time>2026-03-22T14:34:29.931Z</time></trkpt><trkpt lat="30.341356634428557" lon="-6.590430900526744"><ele>1179.5</ele><time>2026-03-22T14:34:30.931Z</time></trkpt><trkpt lat="30.341229441438188" lon="-6.590481679560577"><ele>1178.25</ele><time>2026-03-22T14:34:31.931Z</time></trkpt><trkpt lat="30.341110852691724" lon="-6.590507874781348"><ele>1177.0</ele><time>2026-03-22T14:34:32.931Z</time></trkpt><trkpt lat="30.34100246151185" lon="-6.5905202877634785"><ele>1177.0</ele><time>2026-03-22T14:34:33.931Z</time></trkpt><trkpt lat="30.340913283141894" lon="-6.5905310959357895"><ele>1177.0</ele><time>2026-03-22T14:34:34.931Z</time></trkpt><trkpt lat="30.340831749681865" lon="-6.590566222335949"><ele>1177.0</ele><time>2026-03-22T14:34:35.931Z</time></trkpt><trkpt lat="30.34076501440725" lon="-6.590625260062585"><ele>1177.0</ele><time>2026-03-22T14:34:36.931Z</time></trkpt><trkpt lat="30.340705175249838" lon="-6.590703457431166"><ele>1177.0</ele><time>2026-03-22T14:34:37.931Z</time></trkpt><trkpt lat="30.34065052559034" lon="-6.590761922791226"><ele>1177.0</ele><time>2026-03-22T14:34:38.931Z</time></trkpt><trkpt lat="30.340592570213555" lon="-6.590790638998397"><ele>1177.2</ele><time>2026-03-22T14:34:39.931Z</time></trkpt><trkpt lat="30.340520580273523" lon="-6.590779767625742"><ele>1177.4</ele><time>2026-03-22T14:34:40.931Z</time></trkpt><trkpt lat="30.340418935187024" lon="-6.5907803136504315"><ele>1177.6</ele><time>2026-03-22T14:34:41.931Z</time></trkpt><trkpt lat="30.34030243563464" lon="-6.590819779884733"><ele>1177.8</ele><time>2026-03-22T14:34:42.931Z</time></trkpt><trkpt lat="30.340181989013928" lon="-6.590873077412945"><ele>1178.0</ele><time>2026-03-22T14:34:43.931Z</time></trkpt><trkpt lat="30.34004981994528" lon="-6.590933695798172"><ele>1178.0</ele><time>2026-03-22T14:34:44.931Z</time></trkpt><trkpt lat="30.33992067134479" lon="-6.59098564719141"><ele>1178.0</ele><time>2026-03-22T14:34:45.931Z</time></trkpt><trkpt lat="30.33979727721656" lon="-6.59103496836517"><ele>1178.0</ele><time>2026-03-22T14:34:46.931Z</time></trkpt><trkpt lat="30.339676659588672" lon="-6.591092906778906"><ele>1178.0</ele><time>2026-03-22T14:34:47.931Z</time></trkpt><trkpt lat="30.3395616239929" lon="-6.591152399170462"><ele>1179.75</ele><time>2026-03-22T14:34:48.931Z</time></trkpt><trkpt lat="30.339442278696872" lon="-6.5912221560930355"><ele>1181.5</ele><time>2026-03-22T14:34:49.931Z</time></trkpt><trkpt lat="30.339323029565065" lon="-6.591299264988619"><ele>1183.25</ele><time>2026-03-22T14:34:50.931Z</time></trkpt><trkpt lat="30.339202658487004" lon="-6.5913637869339015"><ele>1185.0</ele><time>2026-03-22T14:34:51.931Z</time></trkpt><trkpt lat="30.339076824547345" lon="-6.5914500057626935"><ele>1185.0</ele><time>2026-03-22T14:34:52.931Z</time></trkpt><trkpt lat="30.33895730171432" lon="-6.5915454095704105"><ele>1185.0</ele><time>2026-03-22T14:34:53.931Z</time></trkpt><trkpt lat="30.338837309343074" lon="-6.591648163735924"><ele>1185.0</ele><time>2026-03-22T14:34:54.931Z</time></trkpt><trkpt lat="30.338714856921218" lon="-6.591745590616058"><ele>1185.0</ele><time>2026-03-22T14:34:55.931Z</time></trkpt><trkpt lat="30.33859967074812" lon="-6.59183852562939"><ele>1186.75</ele><time>2026-03-22T14:34:56.931Z</time></trkpt><trkpt lat="30.33848844041627" lon="-6.591935697675674"><ele>1188.5</ele><time>2026-03-22T14:34:57.931Z</time></trkpt><trkpt lat="30.338384063122305" lon="-6.592038445632811"><ele>1190.25</ele><time>2026-03-22T14:34:58.931Z</time></trkpt><trkpt lat="30.338260462177182" lon="-6.592097178841855"><ele>1192.0</ele><time>2026-03-22T14:34:59.931Z</time></trkpt><trkpt lat="30.338151039295358" lon="-6.592184691025541"><ele>1192.0</ele><time>2026-03-22T14:35:00.931Z</time></trkpt><trkpt lat="30.338052150898584" lon="-6.592290405650284"><ele>1192.0</ele><time>2026-03-22T14:35:01.93Z</time></trkpt><trkpt lat="30.33793793493225" lon="-6.592357909654896"><ele>1192.0</ele><time>2026-03-22T14:35:02.93Z</time></trkpt><trkpt lat="30.337820992929625" lon="-6.592440271560446"><ele>1192.0</ele><time>2026-03-22T14:35:03.93Z</time></trkpt><trkpt lat="30.337697466366564" lon="-6.592536141722168"><ele>1193.3333333333333</ele><time>2026-03-22T14:35:04.93Z</time></trkpt><trkpt lat="30.337563299259145" lon="-6.592632449666173"><ele>1194.6666666666667</ele><time>2026-03-22T14:35:05.93Z</time></trkpt><trkpt lat="30.337422829511038" lon="-6.592731936105205"><ele>1196.0</ele><time>2026-03-22T14:35:06.93Z</time></trkpt><trkpt lat="30.337289382413957" lon="-6.592842826860425"><ele>1190.6666666666667</ele><time>2026-03-22T14:35:07.93Z</time></trkpt><trkpt lat="30.33715369141857" lon="-6.592931398945175"><ele>1185.3333333333333</ele><time>2026-03-22T14:35:08.931Z</time></trkpt><trkpt lat="30.33702389151158" lon="-6.593018224230155"><ele>1180.0</ele><time>2026-03-22T14:35:09.931Z</time></trkpt><trkpt lat="30.336893887419233" lon="-6.59310646906734"><ele>1180.0</ele><time>2026-03-22T14:35:10.93Z</time></trkpt><trkpt lat="30.336774588199056" lon="-6.593194671226227"><ele>1180.0</ele><time>2026-03-22T14:35:11.931Z</time></trkpt><trkpt lat="30.33666179020266" lon="-6.593293242401287"><ele>1180.0</ele><time>2026-03-22T14:35:12.931Z</time></trkpt><trkpt lat="30.3365600794133" lon="-6.593391840239821"><ele>1180.0</ele><time>2026-03-22T14:35:13.931Z</time></trkpt><trkpt lat="30.336468314313596" lon="-6.593493973714564"><ele>1178.5</ele><time>2026-03-22T14:35:14.93Z</time></trkpt><trkpt lat="30.33638085984842" lon="-6.593593287963824"><ele>1177.0</ele><time>2026-03-22T14:35:15.93Z</time></trkpt><trkpt lat="30.336292516554717" lon="-6.59369481130869"><ele>1175.5</ele><time>2026-03-22T14:35:16.93Z</time></trkpt><trkpt lat="30.336203179024277" lon="-6.593785128033932"><ele>1174.0</ele><time>2026-03-22T14:35:17.93Z</time></trkpt><trkpt lat="30.336124142668606" lon="-6.593895481905609"><ele>1174.0</ele><time>2026-03-22T14:35:18.93Z</time></trkpt><trkpt lat="30.336030255150355" lon="-6.594004983578564"><ele>1174.0</ele><time>2026-03-22T14:35:19.93Z</time></trkpt><trkpt lat="30.335908301000238" lon="-6.594097848508983"><ele>1174.0</ele><time>2026-03-22T14:35:20.93Z</time></trkpt><trkpt lat="30.33580448160381" lon="-6.594203838866125"><ele>1174.0</ele><time>2026-03-22T14:35:21.93Z</time></trkpt><trkpt lat="30.335703623933682" lon="-6.594297824021207"><ele>1174.0</ele><time>2026-03-22T14:35:22.93Z</time></trkpt><trkpt lat="30.335588189773787" lon="-6.594362605160682"><ele>1174.0</ele><time>2026-03-22T14:35:23.93Z</time></trkpt><trkpt lat="30.33545947700074" lon="-6.594411440420702"><ele>1174.0</ele><time>2026-03-22T14:35:24.93Z</time></trkpt><trkpt lat="30.335301016551774" lon="-6.594420518657039"><ele>1174.0</ele><time>2026-03-22T14:35:25.93Z</time></trkpt><trkpt lat="30.335110584085072" lon="-6.594436561282618"><ele>1171.6666666666665</ele><time>2026-03-22T14:35:26.93Z</time></trkpt><trkpt lat="30.334911515788217" lon="-6.594441258541226"><ele>1169.3333333333333</ele><time>2026-03-22T14:35:27.93Z</time></trkpt><trkpt lat="30.334727803862297" lon="-6.5944489390789025"><ele>1167.0</ele><time>2026-03-22T14:35:28.93Z</time></trkpt><trkpt lat="30.334593766478402" lon="-6.5944553237099175"><ele>1167.75</ele><time>2026-03-22T14:35:29.93Z</time></trkpt><trkpt lat="30.33446381531975" lon="-6.594463878002065"><ele>1168.5</ele><time>2026-03-22T14:35:30.93Z</time></trkpt><trkpt lat="30.334341180895333" lon="-6.594474827494437"><ele>1169.25</ele><time>2026-03-22T14:35:31.93Z</time></trkpt><trkpt lat="30.334216280644835" lon="-6.594490796286985"><ele>1170.0</ele><time>2026-03-22T14:35:32.93Z</time></trkpt><trkpt lat="30.334082993552126" lon="-6.594512575571183"><ele>1170.0</ele><time>2026-03-22T14:35:33.93Z</time></trkpt><trkpt lat="30.333941645640888" lon="-6.594535981818071"><ele>1170.0</ele><time>2026-03-22T14:35:34.93Z</time></trkpt><trkpt lat="30.333774135137038" lon="-6.5945578157502815"><ele>1170.0</ele><time>2026-03-22T14:35:35.93Z</time></trkpt><trkpt lat="30.333596454255737" lon="-6.594583671849427"><ele>1167.6666666666667</ele><time>2026-03-22T14:35:36.93Z</time></trkpt><trkpt lat="30.333401598154907" lon="-6.594600967793024"><ele>1165.3333333333335</ele><time>2026-03-22T14:35:37.93Z</time></trkpt><trkpt lat="30.33320671951139" lon="-6.594651147175168"><ele>1163.0</ele><time>2026-03-22T14:35:38.93Z</time></trkpt><trkpt lat="30.333050912377143" lon="-6.594677103701607"><ele>1162.0</ele><time>2026-03-22T14:35:39.93Z</time></trkpt><trkpt lat="30.33289659666668" lon="-6.594692445551943"><ele>1161.0</ele><time>2026-03-22T14:35:40.93Z</time></trkpt><trkpt lat="30.332737660587842" lon="-6.594705838666711"><ele>1160.0</ele><time>2026-03-22T14:35:41.93Z</time></trkpt><trkpt lat="30.332593597521797" lon="-6.594724273953212"><ele>1160.0</ele><time>2026-03-22T14:35:42.93Z</time></trkpt><trkpt lat="30.332464651819116" lon="-6.594730920249766"><ele>1160.0</ele><time>2026-03-22T14:35:43.93Z</time></trkpt><trkpt lat="30.332355541448376" lon="-6.594743355356859"><ele>1160.0</ele><time>2026-03-22T14:35:44.93Z</time></trkpt><trkpt lat="30.332264327314785" lon="-6.59475791565699"><ele>1160.0</ele><time>2026-03-22T14:35:45.93Z</time></trkpt><trkpt lat="30.332173996340835" lon="-6.594781364753119"><ele>1160.0</ele><time>2026-03-22T14:35:46.93Z</time></trkpt><trkpt lat="30.332089787277763" lon="-6.5947915428637796"><ele>1159.6666666666667</ele><time>2026-03-22T14:35:47.93Z</time></trkpt><trkpt lat="30.332010212353573" lon="-6.594791466425653"><ele>1159.3333333333335</ele><time>2026-03-22T14:35:48.93Z</time></trkpt><trkpt lat="30.331934329205588" lon="-6.594777086691788"><ele>1159.0</ele><time>2026-03-22T14:35:49.93Z</time></trkpt><trkpt lat="30.331852668726906" lon="-6.594743951956552"><ele>1158.6666666666667</ele><time>2026-03-22T14:35:50.93Z</time></trkpt><trkpt lat="30.331786554569298" lon="-6.594680249850797"><ele>1158.3333333333333</ele><time>2026-03-22T14:35:51.93Z</time></trkpt><trkpt lat="30.331733626283484" lon="-6.594598907240908"><ele>1158.0</ele><time>2026-03-22T14:35:52.93Z</time></trkpt><trkpt lat="30.331679637251845" lon="-6.594538207103362"><ele>1158.0</ele><time>2026-03-22T14:35:53.93Z</time></trkpt><trkpt lat="30.33157764781821" lon="-6.594555354072945"><ele>1158.0</ele><time>2026-03-22T14:35:55.93Z</time></trkpt><trkpt lat="30.331494574032533" lon="-6.5945922673161"><ele>1158.0</ele><time>2026-03-22T14:35:56.93Z</time></trkpt><trkpt lat="30.331392866643128" lon="-6.59461250127563"><ele>1158.0</ele><time>2026-03-22T14:35:57.93Z</time></trkpt><trkpt lat="30.331284681136736" lon="-6.594611918687443"><ele>1158.0</ele><time>2026-03-22T14:35:58.93Z</time></trkpt><trkpt lat="30.331171672444743" lon="-6.594587058699542"><ele>1158.25</ele><time>2026-03-22T14:35:59.93Z</time></trkpt><trkpt lat="30.33105618925621" lon="-6.594548478340344"><ele>1158.5</ele><time>2026-03-22T14:36:00.93Z</time></trkpt><trkpt lat="30.33092570406434" lon="-6.594518845449607"><ele>1158.75</ele><time>2026-03-22T14:36:01.93Z</time></trkpt><trkpt lat="30.33080518645426" lon="-6.594496670189473"><ele>1159.0</ele><time>2026-03-22T14:36:02.93Z</time></trkpt><trkpt lat="30.330686530928766" lon="-6.594478750793852"><ele>1159.6000000000001</ele><time>2026-03-22T14:36:03.93Z</time></trkpt><trkpt lat="30.330560510254468" lon="-6.5944558557829085"><ele>1160.2</ele><time>2026-03-22T14:36:04.93Z</time></trkpt><trkpt lat="30.330444101838292" lon="-6.594454593034099"><ele>1160.8000000000002</ele><time>2026-03-22T14:36:05.93Z</time></trkpt><trkpt lat="30.33034582397282" lon="-6.594470638532871"><ele>1161.4</ele><time>2026-03-22T14:36:06.93Z</time></trkpt><trkpt lat="30.330249774496796" lon="-6.594515851098996"><ele>1162.0</ele><time>2026-03-22T14:36:07.93Z</time></trkpt><trkpt lat="30.33016340167779" lon="-6.594571063172324"><ele>1162.0</ele><time>2026-03-22T14:36:08.93Z</time></trkpt><trkpt lat="30.330085964289875" lon="-6.594648798090574"><ele>1162.0</ele><time>2026-03-22T14:36:09.93Z</time></trkpt><trkpt lat="30.330003247364495" lon="-6.594744352246028"><ele>1162.0</ele><time>2026-03-22T14:36:10.93Z</time></trkpt><trkpt lat="30.32992002569661" lon="-6.594844544847241"><ele>1162.0</ele><time>2026-03-22T14:36:11.93Z</time></trkpt><trkpt lat="30.329826247838422" lon="-6.594952843470259"><ele>1162.0</ele><time>2026-03-22T14:36:12.93Z</time></trkpt><trkpt lat="30.329726942906237" lon="-6.595063585654994"><ele>1162.0</ele><time>2026-03-22T14:36:13.93Z</time></trkpt><trkpt lat="30.32962672275731" lon="-6.595170572940544"><ele>1162.0</ele><time>2026-03-22T14:36:14.93Z</time></trkpt><trkpt lat="30.329529670173983" lon="-6.59528874266525"><ele>1162.0</ele><time>2026-03-22T14:36:15.93Z</time></trkpt><trkpt lat="30.32944665248057" lon="-6.595424190822575"><ele>1163.25</ele><time>2026-03-22T14:36:16.93Z</time></trkpt><trkpt lat="30.329376252923527" lon="-6.5955610661141995"><ele>1164.5</ele><time>2026-03-22T14:36:17.93Z</time></trkpt><trkpt lat="30.329313579367465" lon="-6.595695847614557"><ele>1165.75</ele><time>2026-03-22T14:36:18.93Z</time></trkpt><trkpt lat="30.32926539116164" lon="-6.595819804538885"><ele>1167.0</ele><time>2026-03-22T14:36:19.93Z</time></trkpt><trkpt lat="30.32922414794975" lon="-6.595947203386243"><ele>1167.0</ele><time>2026-03-22T14:36:20.93Z</time></trkpt><trkpt lat="30.32918635020801" lon="-6.5960799400609735"><ele>1167.0</ele><time>2026-03-22T14:36:21.93Z</time></trkpt><trkpt lat="30.329137649968338" lon="-6.596211462475612"><ele>1167.0</ele><time>2026-03-22T14:36:22.93Z</time></trkpt><trkpt lat="30.329093756133606" lon="-6.596351998460623"><ele>1167.0</ele><time>2026-03-22T14:36:23.93Z</time></trkpt><trkpt lat="30.329061462089157" lon="-6.596492637713208"><ele>1166.0</ele><time>2026-03-22T14:36:24.93Z</time></trkpt><trkpt lat="30.32904619613944" lon="-6.5966199136643064"><ele>1165.0</ele><time>2026-03-22T14:36:25.93Z</time></trkpt><trkpt lat="30.329030994370743" lon="-6.596743626796551"><ele>1164.0</ele><time>2026-03-22T14:36:26.93Z</time></trkpt><trkpt lat="30.32901628808384" lon="-6.596859626839636"><ele>1163.0</ele><time>2026-03-22T14:36:27.93Z</time></trkpt><trkpt lat="30.329001996423194" lon="-6.596978248836085"><ele>1162.0</ele><time>2026-03-22T14:36:28.93Z</time></trkpt><trkpt lat="30.328977720128623" lon="-6.597109957902952"><ele>1160.5</ele><time>2026-03-22T14:36:29.93Z</time></trkpt><trkpt lat="30.328952199288736" lon="-6.597234269070095"><ele>1159.0</ele><time>2026-03-22T14:36:30.93Z</time></trkpt><trkpt lat="30.32893369997335" lon="-6.597370282175127"><ele>1157.5</ele><time>2026-03-22T14:36:31.93Z</time></trkpt><trkpt lat="30.328916014272355" lon="-6.597505218292866"><ele>1156.0</ele><time>2026-03-22T14:36:32.93Z</time></trkpt><trkpt lat="30.328902817908883" lon="-6.597636253597101"><ele>1159.5</ele><time>2026-03-22T14:36:33.93Z</time></trkpt><trkpt lat="30.328889884591444" lon="-6.597766751529832"><ele>1163.0</ele><time>2026-03-22T14:36:34.93Z</time></trkpt><trkpt lat="30.328875909544973" lon="-6.5979031375978705"><ele>1166.5</ele><time>2026-03-22T14:36:35.93Z</time></trkpt><trkpt lat="30.328858743218223" lon="-6.59806767386812"><ele>1170.0</ele><time>2026-03-22T14:36:36.93Z</time></trkpt><trkpt lat="30.328842907554204" lon="-6.59825394304219"><ele>1170.0</ele><time>2026-03-22T14:36:37.93Z</time></trkpt><trkpt lat="30.32882471327464" lon="-6.598473984001423"><ele>1170.0</ele><time>2026-03-22T14:36:38.93Z</time></trkpt><trkpt lat="30.328797878379955" lon="-6.5987125259946335"><ele>1170.0</ele><time>2026-03-22T14:36:39.93Z</time></trkpt><trkpt lat="30.32877344762881" lon="-6.598910934793"><ele>1168.0</ele><time>2026-03-22T14:36:40.93Z</time></trkpt><trkpt lat="30.32874425673161" lon="-6.599080245808607"><ele>1166.0</ele><time>2026-03-22T14:36:41.93Z</time></trkpt><trkpt lat="30.328716477597" lon="-6.599236458735623"><ele>1164.0</ele><time>2026-03-22T14:36:42.93Z</time></trkpt><trkpt lat="30.32868824242692" lon="-6.599384301545945"><ele>1162.0</ele><time>2026-03-22T14:36:43.93Z</time></trkpt><trkpt lat="30.328656349779376" lon="-6.599536516802687"><ele>1159.5</ele><time>2026-03-22T14:36:44.93Z</time></trkpt><trkpt lat="30.32862059059571" lon="-6.599681597953656"><ele>1157.0</ele><time>2026-03-22T14:36:45.93Z</time></trkpt><trkpt lat="30.328585889988897" lon="-6.599817488401592"><ele>1154.5</ele><time>2026-03-22T14:36:46.93Z</time></trkpt><trkpt lat="30.328550707645697" lon="-6.599944964980503"><ele>1152.0</ele><time>2026-03-22T14:36:47.93Z</time></trkpt><trkpt lat="30.328517994926674" lon="-6.60006886015122"><ele>1152.0</ele><time>2026-03-22T14:36:48.93Z</time></trkpt><trkpt lat="30.328485838823003" lon="-6.600185770089095"><ele>1152.0</ele><time>2026-03-22T14:36:49.93Z</time></trkpt><trkpt lat="30.328456994995296" lon="-6.600310887123768"><ele>1152.0</ele><time>2026-03-22T14:36:50.93Z</time></trkpt><trkpt lat="30.32842782994844" lon="-6.60042860524455"><ele>1152.0</ele><time>2026-03-22T14:36:51.93Z</time></trkpt><trkpt lat="30.3283968371438" lon="-6.600523933632409"><ele>1152.0</ele><time>2026-03-22T14:36:52.93Z</time></trkpt><trkpt lat="30.328365768438996" lon="-6.600618953845512"><ele>1151.5</ele><time>2026-03-22T14:36:53.93Z</time></trkpt><trkpt lat="30.328333935028486" lon="-6.600697804296666"><ele>1151.0</ele><time>2026-03-22T14:36:54.93Z</time></trkpt><trkpt lat="30.328302286183664" lon="-6.6007762193754855"><ele>1150.5</ele><time>2026-03-22T14:36:55.93Z</time></trkpt><trkpt lat="30.328288397989773" lon="-6.600858021151408"><ele>1150.0</ele><time>2026-03-22T14:36:56.93Z</time></trkpt><trkpt lat="30.328273082313626" lon="-6.600934240370242"><ele>1149.5</ele><time>2026-03-22T14:36:57.93Z</time></trkpt><trkpt lat="30.328256386927826" lon="-6.601019632319814"><ele>1149.0</ele><time>2026-03-22T14:36:58.93Z</time></trkpt><trkpt lat="30.328221865750056" lon="-6.601154430254317"><ele>1149.0</ele><time>2026-03-22T14:37:00.93Z</time></trkpt><trkpt lat="30.3281830776007" lon="-6.601255324892912"><ele>1149.0</ele><time>2026-03-22T14:37:02.93Z</time></trkpt><trkpt lat="30.328150393243547" lon="-6.601355532465999"><ele>1149.0</ele><time>2026-03-22T14:37:04.93Z</time></trkpt><trkpt lat="30.328116400219027" lon="-6.601444103650239"><ele>1149.0</ele><time>2026-03-22T14:37:06.93Z</time></trkpt><trkpt lat="30.328082070253302" lon="-6.601524185470397"><ele>1149.0</ele><time>2026-03-22T14:37:08.93Z</time></trkpt><trkpt lat="30.328056574637607" lon="-6.601594101558443"><ele>1149.0</ele><time>2026-03-22T14:37:10.93Z</time></trkpt><trkpt lat="30.32799608675866" lon="-6.601662603860379"><ele>1149.0</ele><time>2026-03-22T14:38:56.93Z</time></trkpt><trkpt lat="30.327956640758057" lon="-6.601780256669234"><ele>1149.0</ele><time>2026-03-22T14:38:58.93Z</time></trkpt><trkpt lat="30.32789714772732" lon="-6.60192296839455"><ele>1149.0</ele><time>2026-03-22T14:39:00.93Z</time></trkpt><trkpt lat="30.327867183603125" lon="-6.602003599579868"><ele>1149.0</ele><time>2026-03-22T14:39:01.93Z</time></trkpt><trkpt lat="30.32783764196715" lon="-6.6020873721802085"><ele>1149.0</ele><time>2026-03-22T14:39:02.93Z</time></trkpt><trkpt lat="30.32780365395899" lon="-6.602185447674395"><ele>1148.0</ele><time>2026-03-22T14:39:03.93Z</time></trkpt><trkpt lat="30.32776857628411" lon="-6.6022822035228605"><ele>1147.0</ele><time>2026-03-22T14:39:04.93Z</time></trkpt><trkpt lat="30.327721407645164" lon="-6.602402007847631"><ele>1146.0</ele><time>2026-03-22T14:39:05.93Z</time></trkpt><trkpt lat="30.32766186495202" lon="-6.602546464487665"><ele>1145.0</ele><time>2026-03-22T14:39:06.93Z</time></trkpt><trkpt lat="30.32759729085579" lon="-6.6026947486949545"><ele>1144.75</ele><time>2026-03-22T14:39:07.93Z</time></trkpt><trkpt lat="30.32753685015548" lon="-6.602844489293123"><ele>1144.5</ele><time>2026-03-22T14:39:08.93Z</time></trkpt><trkpt lat="30.327480446159154" lon="-6.6029951901259745"><ele>1144.25</ele><time>2026-03-22T14:39:09.93Z</time></trkpt><trkpt lat="30.32742620114474" lon="-6.603139286901505"><ele>1144.0</ele><time>2026-03-22T14:39:10.93Z</time></trkpt><trkpt lat="30.32737644160583" lon="-6.603274918218608"><ele>1144.0</ele><time>2026-03-22T14:39:11.93Z</time></trkpt><trkpt lat="30.327334371083026" lon="-6.603395690310814"><ele>1144.0</ele><time>2026-03-22T14:39:12.93Z</time></trkpt><trkpt lat="30.327288901673477" lon="-6.603514147588301"><ele>1144.0</ele><time>2026-03-22T14:39:13.93Z</time></trkpt><trkpt lat="30.327230219257494" lon="-6.603668259249585"><ele>1144.0</ele><time>2026-03-22T14:39:14.929Z</time></trkpt><trkpt lat="30.327179735343346" lon="-6.603803628148082"><ele>1143.5</ele><time>2026-03-22T14:39:15.929Z</time></trkpt><trkpt lat="30.32713643366521" lon="-6.6039328309889855"><ele>1143.0</ele><time>2026-03-22T14:39:16.93Z</time></trkpt><trkpt lat="30.327088131545676" lon="-6.6040628287242304"><ele>1142.5</ele><time>2026-03-22T14:39:17.929Z</time></trkpt><trkpt lat="30.327041061345565" lon="-6.604214865678112"><ele>1142.0</ele><time>2026-03-22T14:39:18.929Z</time></trkpt><trkpt lat="30.32696943444967" lon="-6.6043653166185425"><ele>1141.75</ele><time>2026-03-22T14:39:19.93Z</time></trkpt><trkpt lat="30.326919370749334" lon="-6.6045440789498056"><ele>1141.5</ele><time>2026-03-22T14:39:20.929Z</time></trkpt><trkpt lat="30.32685592721459" lon="-6.604706572139098"><ele>1141.25</ele><time>2026-03-22T14:39:21.929Z</time></trkpt><trkpt lat="30.326801844988832" lon="-6.604844304842336"><ele>1141.0</ele><time>2026-03-22T14:39:22.93Z</time></trkpt><trkpt lat="30.32675814171704" lon="-6.604979899790765"><ele>1141.0</ele><time>2026-03-22T14:39:23.93Z</time></trkpt><trkpt lat="30.326713508559653" lon="-6.6051021749120045"><ele>1141.0</ele><time>2026-03-22T14:39:24.93Z</time></trkpt><trkpt lat="30.326669500936738" lon="-6.605208826282382"><ele>1141.0</ele><time>2026-03-22T14:39:25.93Z</time></trkpt><trkpt lat="30.326622400999007" lon="-6.605316549246868"><ele>1141.0</ele><time>2026-03-22T14:39:26.929Z</time></trkpt><trkpt lat="30.326575964481474" lon="-6.605433463561423"><ele>1141.0</ele><time>2026-03-22T14:39:27.929Z</time></trkpt><trkpt lat="30.326536169240267" lon="-6.6055452101575005"><ele>1140.75</ele><time>2026-03-22T14:39:28.929Z</time></trkpt><trkpt lat="30.326486785296527" lon="-6.605644511601836"><ele>1140.5</ele><time>2026-03-22T14:39:29.929Z</time></trkpt><trkpt lat="30.3264554586551" lon="-6.605753429559939"><ele>1140.25</ele><time>2026-03-22T14:39:30.929Z</time></trkpt><trkpt lat="30.326409856035255" lon="-6.605882729786218"><ele>1140.0</ele><time>2026-03-22T14:39:31.929Z</time></trkpt><trkpt lat="30.326356574347972" lon="-6.606033287212861"><ele>1139.8</ele><time>2026-03-22T14:39:32.929Z</time></trkpt><trkpt lat="30.326297345679368" lon="-6.606175939743127"><ele>1139.6</ele><time>2026-03-22T14:39:33.929Z</time></trkpt><trkpt lat="30.326256590001105" lon="-6.606274099735532"><ele>1139.4</ele><time>2026-03-22T14:39:34.929Z</time></trkpt><trkpt lat="30.326211231184942" lon="-6.606346851803062"><ele>1139.2</ele><time>2026-03-22T14:39:35.929Z</time></trkpt><trkpt lat="30.326203236578603" lon="-6.606468619237777"><ele>1139.0</ele><time>2026-03-22T14:39:36.929Z</time></trkpt><trkpt lat="30.32618634590252" lon="-6.606593022055409"><ele>1139.0</ele><time>2026-03-22T14:39:37.929Z</time></trkpt><trkpt lat="30.326157277422226" lon="-6.606674862112595"><ele>1139.0</ele><time>2026-03-22T14:39:38.929Z</time></trkpt><trkpt lat="30.32612749454247" lon="-6.606782450837742"><ele>1139.0</ele><time>2026-03-22T14:39:39.929Z</time></trkpt><trkpt lat="30.326063364860175" lon="-6.606904529544601"><ele>1139.0</ele><time>2026-03-22T14:39:40.929Z</time></trkpt><trkpt lat="30.325991896394253" lon="-6.607057581355172"><ele>1139.0</ele><time>2026-03-22T14:39:41.929Z</time></trkpt><trkpt lat="30.325928612637547" lon="-6.607241086112842"><ele>1138.5</ele><time>2026-03-22T14:39:42.929Z</time></trkpt><trkpt lat="30.3258745500953" lon="-6.607381445245235"><ele>1138.0</ele><time>2026-03-22T14:39:43.929Z</time></trkpt><trkpt lat="30.32582628372694" lon="-6.607500789801294"><ele>1137.5</ele><time>2026-03-22T14:39:44.929Z</time></trkpt><trkpt lat="30.325784491833552" lon="-6.6076074845927115"><ele>1137.0</ele><time>2026-03-22T14:39:45.929Z</time></trkpt><trkpt lat="30.325731824994023" lon="-6.607729114032939"><ele>1137.0</ele><time>2026-03-22T14:39:46.929Z</time></trkpt><trkpt lat="30.32567796674382" lon="-6.607855418451508"><ele>1137.0</ele><time>2026-03-22T14:39:47.929Z</time></trkpt><trkpt lat="30.325617027194397" lon="-6.6079783893244946"><ele>1137.0</ele><time>2026-03-22T14:39:48.929Z</time></trkpt><trkpt lat="30.325546953005706" lon="-6.608105156108862"><ele>1137.0</ele><time>2026-03-22T14:39:49.929Z</time></trkpt><trkpt lat="30.3254596245854" lon="-6.608218623178437"><ele>1136.75</ele><time>2026-03-22T14:39:50.929Z</time></trkpt><trkpt lat="30.325373088889215" lon="-6.608321048188112"><ele>1136.5</ele><time>2026-03-22T14:39:51.929Z</time></trkpt><trkpt lat="30.325284968244823" lon="-6.60841178310302"><ele>1136.25</ele><time>2026-03-22T14:39:52.929Z</time></trkpt><trkpt lat="30.325181091504064" lon="-6.608504309641567"><ele>1136.0</ele><time>2026-03-22T14:39:53.929Z</time></trkpt><trkpt lat="30.325059197312143" lon="-6.608596313940651"><ele>1136.25</ele><time>2026-03-22T14:39:54.929Z</time></trkpt><trkpt lat="30.324948948386687" lon="-6.608690199307805"><ele>1136.5</ele><time>2026-03-22T14:39:55.929Z</time></trkpt><trkpt lat="30.3248342722754" lon="-6.608764967435181"><ele>1136.75</ele><time>2026-03-22T14:39:56.929Z</time></trkpt><trkpt lat="30.32470526019948" lon="-6.608828016274784"><ele>1137.0</ele><time>2026-03-22T14:39:57.929Z</time></trkpt><trkpt lat="30.32457292205465" lon="-6.608893841786126"><ele>1136.25</ele><time>2026-03-22T14:39:58.929Z</time></trkpt><trkpt lat="30.3244461553531" lon="-6.608941306007593"><ele>1135.5</ele><time>2026-03-22T14:39:59.929Z</time></trkpt><trkpt lat="30.324327223501854" lon="-6.609004132865264"><ele>1134.75</ele><time>2026-03-22T14:40:00.929Z</time></trkpt><trkpt lat="30.324207026462204" lon="-6.609068631400837"><ele>1134.0</ele><time>2026-03-22T14:40:01.929Z</time></trkpt><trkpt lat="30.324080374926105" lon="-6.609117654371107"><ele>1134.0</ele><time>2026-03-22T14:40:02.929Z</time></trkpt><trkpt lat="30.32394801911627" lon="-6.60916302866962"><ele>1134.0</ele><time>2026-03-22T14:40:03.929Z</time></trkpt><trkpt lat="30.32379601552963" lon="-6.6092039020341575"><ele>1134.0</ele><time>2026-03-22T14:40:04.929Z</time></trkpt><trkpt lat="30.323626829669607" lon="-6.6092422398064965"><ele>1133.0</ele><time>2026-03-22T14:40:05.929Z</time></trkpt><trkpt lat="30.32343268771529" lon="-6.609256123175396"><ele>1132.0</ele><time>2026-03-22T14:40:06.929Z</time></trkpt><trkpt lat="30.32320559365895" lon="-6.609260845070952"><ele>1131.0</ele><time>2026-03-22T14:40:07.929Z</time></trkpt><trkpt lat="30.323003286586513" lon="-6.609265657685265"><ele>1130.3333333333333</ele><time>2026-03-22T14:40:08.929Z</time></trkpt><trkpt lat="30.32283811811457" lon="-6.6092531195241335"><ele>1129.6666666666665</ele><time>2026-03-22T14:40:09.929Z</time></trkpt><trkpt lat="30.322682178826845" lon="-6.609250411103945"><ele>1129.0</ele><time>2026-03-22T14:40:10.929Z</time></trkpt><trkpt lat="30.32255306997134" lon="-6.609262238190144"><ele>1129.0</ele><time>2026-03-22T14:40:11.929Z</time></trkpt><trkpt lat="30.322439203428903" lon="-6.609256791024349"><ele>1129.0</ele><time>2026-03-22T14:40:12.929Z</time></trkpt><trkpt lat="30.322328165183293" lon="-6.609250918747472"><ele>1129.0</ele><time>2026-03-22T14:40:13.929Z</time></trkpt><trkpt lat="30.32223145275418" lon="-6.609261111053981"><ele>1129.0</ele><time>2026-03-22T14:40:14.929Z</time></trkpt><trkpt lat="30.322128576198615" lon="-6.609275068746025"><ele>1129.0</ele><time>2026-03-22T14:40:15.929Z</time></trkpt><trkpt lat="30.322013232523922" lon="-6.609290174701155"><ele>1128.8</ele><time>2026-03-22T14:40:16.929Z</time></trkpt><trkpt lat="30.321904089322345" lon="-6.6093044686244875"><ele>1128.6000000000001</ele><time>2026-03-22T14:40:17.929Z</time></trkpt><trkpt lat="30.321801634295362" lon="-6.6093034594041375"><ele>1128.4</ele><time>2026-03-22T14:40:18.929Z</time></trkpt><trkpt lat="30.321698867235103" lon="-6.609322382009643"><ele>1128.2</ele><time>2026-03-22T14:40:19.929Z</time></trkpt><trkpt lat="30.3215924990936" lon="-6.609350231870016"><ele>1128.0</ele><time>2026-03-22T14:40:20.929Z</time></trkpt><trkpt lat="30.32148381776699" lon="-6.609375777439591"><ele>1127.5</ele><time>2026-03-22T14:40:21.929Z</time></trkpt><trkpt lat="30.32137363848101" lon="-6.609399527642896"><ele>1127.0</ele><time>2026-03-22T14:40:22.929Z</time></trkpt><trkpt lat="30.321264711463762" lon="-6.60943377470695"><ele>1126.5</ele><time>2026-03-22T14:40:23.929Z</time></trkpt><trkpt lat="30.32115277946401" lon="-6.609477723792763"><ele>1126.0</ele><time>2026-03-22T14:40:24.929Z</time></trkpt><trkpt lat="30.321039791186656" lon="-6.609517482473831"><ele>1126.0</ele><time>2026-03-22T14:40:25.929Z</time></trkpt><trkpt lat="30.32092595000158" lon="-6.609558054315341"><ele>1126.0</ele><time>2026-03-22T14:40:26.929Z</time></trkpt><trkpt lat="30.32081506153902" lon="-6.609586910856303"><ele>1126.0</ele><time>2026-03-22T14:40:27.929Z</time></trkpt><trkpt lat="30.3207025705258" lon="-6.609618638969279"><ele>1126.0</ele><time>2026-03-22T14:40:28.929Z</time></trkpt><trkpt lat="30.320588863543673" lon="-6.609646705833534"><ele>1126.5</ele><time>2026-03-22T14:40:29.929Z</time></trkpt><trkpt lat="30.32046581913475" lon="-6.609692715881086"><ele>1127.0</ele><time>2026-03-22T14:40:30.929Z</time></trkpt><trkpt lat="30.32035234272066" lon="-6.609755873129786"><ele>1127.5</ele><time>2026-03-22T14:40:31.929Z</time></trkpt><trkpt lat="30.32023558184763" lon="-6.609815242641633"><ele>1128.0</ele><time>2026-03-22T14:40:32.929Z</time></trkpt><trkpt lat="30.32012161143731" lon="-6.609852908477986"><ele>1128.0</ele><time>2026-03-22T14:40:33.929Z</time></trkpt><trkpt lat="30.320013918662358" lon="-6.609880089978453"><ele>1128.0</ele><time>2026-03-22T14:40:34.929Z</time></trkpt><trkpt lat="30.319908478031596" lon="-6.609897854688194"><ele>1128.0</ele><time>2026-03-22T14:40:35.929Z</time></trkpt><trkpt lat="30.31980254584901" lon="-6.609934435204293"><ele>1128.0</ele><time>2026-03-22T14:40:36.929Z</time></trkpt><trkpt lat="30.31969277357521" lon="-6.60998525111944"><ele>1128.0</ele><time>2026-03-22T14:40:37.929Z</time></trkpt><trkpt lat="30.319586494987327" lon="-6.61003756554576"><ele>1128.5</ele><time>2026-03-22T14:40:38.929Z</time></trkpt><trkpt lat="30.3194844859757" lon="-6.6100759469929296"><ele>1129.0</ele><time>2026-03-22T14:40:39.929Z</time></trkpt><trkpt lat="30.319379769106767" lon="-6.6100991845077415"><ele>1129.5</ele><time>2026-03-22T14:40:40.929Z</time></trkpt><trkpt lat="30.31927532734658" lon="-6.610157132831032"><ele>1130.0</ele><time>2026-03-22T14:40:41.929Z</time></trkpt><trkpt lat="30.319157195007143" lon="-6.610215301835836"><ele>1130.0</ele><time>2026-03-22T14:40:42.929Z</time></trkpt><trkpt lat="30.31905834109767" lon="-6.610271438503935"><ele>1130.0</ele><time>2026-03-22T14:40:43.929Z</time></trkpt><trkpt lat="30.318945297755732" lon="-6.610338752142412"><ele>1130.0</ele><time>2026-03-22T14:40:44.929Z</time></trkpt><trkpt lat="30.318743739429856" lon="-6.610177759786695"><ele>1129.6</ele><time>2026-03-22T14:40:45.929Z</time></trkpt><trkpt lat="30.318635269981346" lon="-6.610180450647312"><ele>1129.2</ele><time>2026-03-22T14:40:46.929Z</time></trkpt><trkpt lat="30.31854765706315" lon="-6.610202233542186"><ele>1128.8</ele><time>2026-03-22T14:40:47.929Z</time></trkpt><trkpt lat="30.318476759247556" lon="-6.610249466096376"><ele>1128.4</ele><time>2026-03-22T14:40:48.929Z</time></trkpt><trkpt lat="30.318393868939445" lon="-6.610318131320688"><ele>1128.0</ele><time>2026-03-22T14:40:49.929Z</time></trkpt><trkpt lat="30.31831433496328" lon="-6.610395210493568"><ele>1128.0</ele><time>2026-03-22T14:40:50.929Z</time></trkpt><trkpt lat="30.318225179073078" lon="-6.610477003080704"><ele>1128.0</ele><time>2026-03-22T14:40:51.929Z</time></trkpt><trkpt lat="30.31813592022981" lon="-6.610555976431039"><ele>1128.0</ele><time>2026-03-22T14:40:52.929Z</time></trkpt><trkpt lat="30.318046004299976" lon="-6.610638261079469"><ele>1128.0</ele><time>2026-03-22T14:40:53.929Z</time></trkpt><trkpt lat="30.31795471976947" lon="-6.610717421396855"><ele>1129.0</ele><time>2026-03-22T14:40:54.929Z</time></trkpt><trkpt lat="30.317853339726675" lon="-6.610804268404299"><ele>1130.0</ele><time>2026-03-22T14:40:55.929Z</time></trkpt><trkpt lat="30.317750400989105" lon="-6.610896988181001"><ele>1131.0</ele><time>2026-03-22T14:40:56.929Z</time></trkpt><trkpt lat="30.317641474857165" lon="-6.61099711798176"><ele>1132.0</ele><time>2026-03-22T14:40:57.929Z</time></trkpt><trkpt lat="30.317514147678793" lon="-6.611113291534687"><ele>1131.6666666666665</ele><time>2026-03-22T14:40:58.929Z</time></trkpt><trkpt lat="30.3173758271219" lon="-6.611228929776064"><ele>1131.3333333333333</ele><time>2026-03-22T14:40:59.929Z</time></trkpt><trkpt lat="30.317229483912936" lon="-6.611348479154418"><ele>1131.0</ele><time>2026-03-22T14:41:00.929Z</time></trkpt><trkpt lat="30.317082167616242" lon="-6.611471325557073"><ele>1131.0</ele><time>2026-03-22T14:41:01.929Z</time></trkpt><trkpt lat="30.31693609406075" lon="-6.611600733567722"><ele>1131.0</ele><time>2026-03-22T14:41:02.929Z</time></trkpt><trkpt lat="30.31679972570811" lon="-6.611725403794761"><ele>1131.0</ele><time>2026-03-22T14:41:03.929Z</time></trkpt><trkpt lat="30.31666508266431" lon="-6.611851988482906"><ele>1131.0</ele><time>2026-03-22T14:41:04.929Z</time></trkpt><trkpt lat="30.31651020000213" lon="-6.611932547990811"><ele>1131.0</ele><time>2026-03-22T14:41:05.929Z</time></trkpt><trkpt lat="30.316370894425962" lon="-6.612049325988468"><ele>1131.0</ele><time>2026-03-22T14:41:06.929Z</time></trkpt><trkpt lat="30.316240690757862" lon="-6.612167723486572"><ele>1129.3333333333333</ele><time>2026-03-22T14:41:07.929Z</time></trkpt><trkpt lat="30.31610895638793" lon="-6.61228768521338"><ele>1127.6666666666665</ele><time>2026-03-22T14:41:08.929Z</time></trkpt><trkpt lat="30.315986212902693" lon="-6.612422986753745"><ele>1126.0</ele><time>2026-03-22T14:41:09.929Z</time></trkpt><trkpt lat="30.31584156988929" lon="-6.612526318674662"><ele>1126.0</ele><time>2026-03-22T14:41:10.929Z</time></trkpt><trkpt lat="30.315700355968833" lon="-6.612645245967698"><ele>1126.0</ele><time>2026-03-22T14:41:11.929Z</time></trkpt><trkpt lat="30.315563172030217" lon="-6.6127602695292875"><ele>1126.0</ele><time>2026-03-22T14:41:12.929Z</time></trkpt><trkpt lat="30.315425008262444" lon="-6.612877027649692"><ele>1124.6666666666665</ele><time>2026-03-22T14:41:13.929Z</time></trkpt><trkpt lat="30.315283333331973" lon="-6.612996593144518"><ele>1123.3333333333333</ele><time>2026-03-22T14:41:14.929Z</time></trkpt><trkpt lat="30.315144068399324" lon="-6.613112889222373"><ele>1122.0</ele><time>2026-03-22T14:41:15.929Z</time></trkpt><trkpt lat="30.31500960282562" lon="-6.613232958581169"><ele>1122.0</ele><time>2026-03-22T14:41:16.929Z</time></trkpt><trkpt lat="30.31487886732499" lon="-6.613349579085241"><ele>1122.0</ele><time>2026-03-22T14:41:17.929Z</time></trkpt><trkpt lat="30.314750106770727" lon="-6.613464220281546"><ele>1122.0</ele><time>2026-03-22T14:41:18.929Z</time></trkpt><trkpt lat="30.314621971251476" lon="-6.613578304990609"><ele>1121.3333333333333</ele><time>2026-03-22T14:41:19.929Z</time></trkpt><trkpt lat="30.314493218915015" lon="-6.613692938869253"><ele>1120.6666666666665</ele><time>2026-03-22T14:41:20.93Z</time></trkpt><trkpt lat="30.314362912132715" lon="-6.613811261867776"><ele>1120.0</ele><time>2026-03-22T14:41:21.93Z</time></trkpt><trkpt lat="30.31423426503937" lon="-6.613926971149412"><ele>1120.0</ele><time>2026-03-22T14:41:22.93Z</time></trkpt><trkpt lat="30.31410427991734" lon="-6.614043883903967"><ele>1120.0</ele><time>2026-03-22T14:41:23.93Z</time></trkpt><trkpt lat="30.313985816472" lon="-6.61417066829854"><ele>1120.0</ele><time>2026-03-22T14:41:24.93Z</time></trkpt><trkpt lat="30.31385442603541" lon="-6.614284392177615"><ele>1119.3333333333333</ele><time>2026-03-22T14:41:25.93Z</time></trkpt><trkpt lat="30.313720170453717" lon="-6.61439490786049"><ele>1118.6666666666667</ele><time>2026-03-22T14:41:26.929Z</time></trkpt><trkpt lat="30.313587359212026" lon="-6.614512936316695"><ele>1118.0</ele><time>2026-03-22T14:41:27.929Z</time></trkpt><trkpt lat="30.313454744542074" lon="-6.614630742428858"><ele>1118.0</ele><time>2026-03-22T14:41:28.93Z</time></trkpt><trkpt lat="30.313322681361022" lon="-6.614757935922188"><ele>1118.0</ele><time>2026-03-22T14:41:29.929Z</time></trkpt><trkpt lat="30.3131898604797" lon="-6.614872945971034"><ele>1118.0</ele><time>2026-03-22T14:41:30.929Z</time></trkpt><trkpt lat="30.31304491112806" lon="-6.614993526252647"><ele>1117.6666666666667</ele><time>2026-03-22T14:41:31.93Z</time></trkpt><trkpt lat="30.31289534164837" lon="-6.6151188863558845"><ele>1117.3333333333333</ele><time>2026-03-22T14:41:32.929Z</time></trkpt><trkpt lat="30.312753064413013" lon="-6.615241175906497"><ele>1117.0</ele><time>2026-03-22T14:41:33.929Z</time></trkpt><trkpt lat="30.312614071796144" lon="-6.615363359256621"><ele>1117.0</ele><time>2026-03-22T14:41:34.929Z</time></trkpt><trkpt lat="30.312479608771955" lon="-6.615488660168098"><ele>1117.0</ele><time>2026-03-22T14:41:35.929Z</time></trkpt><trkpt lat="30.312348205649776" lon="-6.6156086753837045"><ele>1117.0</ele><time>2026-03-22T14:41:36.929Z</time></trkpt><trkpt lat="30.31221949026982" lon="-6.615737054779401"><ele>1117.3333333333333</ele><time>2026-03-22T14:41:37.929Z</time></trkpt><trkpt lat="30.312093695777655" lon="-6.6158736359453565"><ele>1117.6666666666667</ele><time>2026-03-22T14:41:38.929Z</time></trkpt><trkpt lat="30.311974040274656" lon="-6.616019338744323"><ele>1118.0</ele><time>2026-03-22T14:41:39.929Z</time></trkpt><trkpt lat="30.311860282139122" lon="-6.616175170833872"><ele>1116.0</ele><time>2026-03-22T14:41:40.929Z</time></trkpt><trkpt lat="30.311747070893613" lon="-6.616337683824284"><ele>1114.0</ele><time>2026-03-22T14:41:41.929Z</time></trkpt><trkpt lat="30.311632528502315" lon="-6.616501681055476"><ele>1112.0</ele><time>2026-03-22T14:41:42.929Z</time></trkpt><trkpt lat="30.311515336833168" lon="-6.616670296842452"><ele>1111.6666666666667</ele><time>2026-03-22T14:41:43.929Z</time></trkpt><trkpt lat="30.311402200943242" lon="-6.616840951488126"><ele>1111.3333333333333</ele><time>2026-03-22T14:41:44.929Z</time></trkpt><trkpt lat="30.311287148562204" lon="-6.617002074276803"><ele>1111.0</ele><time>2026-03-22T14:41:45.929Z</time></trkpt><trkpt lat="30.311171728046673" lon="-6.617158101585094"><ele>1111.0</ele><time>2026-03-22T14:41:46.929Z</time></trkpt><trkpt lat="30.31106413757089" lon="-6.617319021916527"><ele>1111.0</ele><time>2026-03-22T14:41:47.929Z</time></trkpt><trkpt lat="30.310953073437" lon="-6.617474069911471"><ele>1111.0</ele><time>2026-03-22T14:41:48.929Z</time></trkpt><trkpt lat="30.310842520676083" lon="-6.6176280175070055"><ele>1111.0</ele><time>2026-03-22T14:41:49.929Z</time></trkpt><trkpt lat="30.310735530531588" lon="-6.61778229812683"><ele>1111.0</ele><time>2026-03-22T14:41:50.929Z</time></trkpt><trkpt lat="30.310633900937137" lon="-6.61794010866921"><ele>1111.0</ele><time>2026-03-22T14:41:51.929Z</time></trkpt><trkpt lat="30.310529347324202" lon="-6.618096611217308"><ele>1111.0</ele><time>2026-03-22T14:41:52.929Z</time></trkpt><trkpt lat="30.310461707536795" lon="-6.618283870251612"><ele>1111.0</ele><time>2026-03-22T14:41:53.929Z</time></trkpt><trkpt lat="30.310389813928335" lon="-6.618468983710133"><ele>1111.0</ele><time>2026-03-22T14:41:54.929Z</time></trkpt><trkpt lat="30.310306563937182" lon="-6.618643906284751"><ele>1108.3333333333333</ele><time>2026-03-22T14:41:55.929Z</time></trkpt><trkpt lat="30.310239346879403" lon="-6.618825217922193"><ele>1105.6666666666667</ele><time>2026-03-22T14:41:56.929Z</time></trkpt><trkpt lat="30.31018929194337" lon="-6.619011996865327"><ele>1103.0</ele><time>2026-03-22T14:41:57.929Z</time></trkpt><trkpt lat="30.31012370219628" lon="-6.619191146070601"><ele>1103.0</ele><time>2026-03-22T14:41:58.929Z</time></trkpt><trkpt lat="30.310042863824847" lon="-6.619360255059121"><ele>1103.0</ele><time>2026-03-22T14:41:59.929Z</time></trkpt><trkpt lat="30.309975970033722" lon="-6.619526209435273"><ele>1103.0</ele><time>2026-03-22T14:42:00.929Z</time></trkpt><trkpt lat="30.309914904010835" lon="-6.619677705895822"><ele>1102.25</ele><time>2026-03-22T14:42:01.929Z</time></trkpt><trkpt lat="30.309862890545148" lon="-6.6198260353479155"><ele>1101.5</ele><time>2026-03-22T14:42:02.929Z</time></trkpt><trkpt lat="30.30981667478819" lon="-6.619981545647702"><ele>1100.75</ele><time>2026-03-22T14:42:03.929Z</time></trkpt><trkpt lat="30.309785078992597" lon="-6.620129569536135"><ele>1100.0</ele><time>2026-03-22T14:42:04.929Z</time></trkpt><trkpt lat="30.30978275050692" lon="-6.620265707746013"><ele>1100.2</ele><time>2026-03-22T14:42:05.929Z</time></trkpt><trkpt lat="30.309750766523646" lon="-6.620393804926284"><ele>1100.4</ele><time>2026-03-22T14:42:06.929Z</time></trkpt><trkpt lat="30.30976819198166" lon="-6.620509155210879"><ele>1100.6</ele><time>2026-03-22T14:42:07.929Z</time></trkpt><trkpt lat="30.309766047118508" lon="-6.620612228513998"><ele>1100.8</ele><time>2026-03-22T14:42:08.929Z</time></trkpt><trkpt lat="30.30978252240874" lon="-6.620703383488267"><ele>1101.0</ele><time>2026-03-22T14:42:09.929Z</time></trkpt><trkpt lat="30.309798560986728" lon="-6.620790450054878"><ele>1101.0</ele><time>2026-03-22T14:42:10.929Z</time></trkpt><trkpt lat="30.309814114151425" lon="-6.620874881145297"><ele>1101.0</ele><time>2026-03-22T14:42:11.929Z</time></trkpt><trkpt lat="30.309874561536798" lon="-6.62099794138917"><ele>1101.0</ele><time>2026-03-22T14:42:13.929Z</time></trkpt><trkpt lat="30.30991318667052" lon="-6.621060714129144"><ele>1101.0</ele><time>2026-03-22T14:42:14.929Z</time></trkpt><trkpt lat="30.30996345772587" lon="-6.621151885615442"><ele>1101.0</ele><time>2026-03-22T14:42:15.929Z</time></trkpt><trkpt lat="30.310021034186608" lon="-6.621260535270841"><ele>1101.3333333333333</ele><time>2026-03-22T14:42:16.929Z</time></trkpt><trkpt lat="30.31011042151159" lon="-6.62138482627411"><ele>1101.6666666666665</ele><time>2026-03-22T14:42:17.929Z</time></trkpt><trkpt lat="30.31020442700352" lon="-6.621531782909859"><ele>1102.0</ele><time>2026-03-22T14:42:18.929Z</time></trkpt><trkpt lat="30.31029934808316" lon="-6.621690931154215"><ele>1102.0</ele><time>2026-03-22T14:42:19.929Z</time></trkpt><trkpt lat="30.31037239510663" lon="-6.621831942066768"><ele>1102.0</ele><time>2026-03-22T14:42:20.929Z</time></trkpt><trkpt lat="30.31042301220578" lon="-6.621977879676045"><ele>1102.0</ele><time>2026-03-22T14:42:21.929Z</time></trkpt><trkpt lat="30.3104485464371" lon="-6.622125043729939"><ele>1102.0</ele><time>2026-03-22T14:42:22.929Z</time></trkpt><trkpt lat="30.31043278419082" lon="-6.62227798551123"><ele>1101.6666666666665</ele><time>2026-03-22T14:42:23.929Z</time></trkpt><trkpt lat="30.310406166660762" lon="-6.622435593377079"><ele>1101.3333333333333</ele><time>2026-03-22T14:42:24.929Z</time></trkpt><trkpt lat="30.310361367488213" lon="-6.622609004195325"><ele>1101.0</ele><time>2026-03-22T14:42:25.929Z</time></trkpt><trkpt lat="30.310310764011856" lon="-6.622802112185252"><ele>1102.0</ele><time>2026-03-22T14:42:26.929Z</time></trkpt><trkpt lat="30.310269224107362" lon="-6.623017992048181"><ele>1103.0</ele><time>2026-03-22T14:42:27.929Z</time></trkpt><trkpt lat="30.310242966379334" lon="-6.62320778252691"><ele>1104.0</ele><time>2026-03-22T14:42:28.929Z</time></trkpt><trkpt lat="30.310242793572996" lon="-6.623415518950448"><ele>1104.0</ele><time>2026-03-22T14:42:29.929Z</time></trkpt><trkpt lat="30.310240870187474" lon="-6.623616732760895"><ele>1104.0</ele><time>2026-03-22T14:42:30.929Z</time></trkpt><trkpt lat="30.310244833211662" lon="-6.623823804560204"><ele>1104.0</ele><time>2026-03-22T14:42:31.929Z</time></trkpt><trkpt lat="30.31025366010236" lon="-6.624035865580647"><ele>1104.0</ele><time>2026-03-22T14:42:32.929Z</time></trkpt><trkpt lat="30.31026061691731" lon="-6.624236783162586"><ele>1104.0</ele><time>2026-03-22T14:42:33.929Z</time></trkpt><trkpt lat="30.31026577416059" lon="-6.624444312375904"><ele>1104.0</ele><time>2026-03-22T14:42:34.929Z</time></trkpt><trkpt lat="30.31027726352467" lon="-6.624637117709477"><ele>1104.0</ele><time>2026-03-22T14:42:35.929Z</time></trkpt><trkpt lat="30.31027646153151" lon="-6.624833057928532"><ele>1104.0</ele><time>2026-03-22T14:42:36.929Z</time></trkpt><trkpt lat="30.310270136126675" lon="-6.625023493245794"><ele>1104.0</ele><time>2026-03-22T14:42:37.929Z</time></trkpt><trkpt lat="30.31026017706905" lon="-6.6252110789244245"><ele>1104.0</ele><time>2026-03-22T14:42:38.929Z</time></trkpt><trkpt lat="30.31024485148323" lon="-6.625399980702061"><ele>1104.0</ele><time>2026-03-22T14:42:39.929Z</time></trkpt><trkpt lat="30.310225467647854" lon="-6.625590124118121"><ele>1104.0</ele><time>2026-03-22T14:42:40.929Z</time></trkpt><trkpt lat="30.310201705193624" lon="-6.625786201690143"><ele>1104.0</ele><time>2026-03-22T14:42:41.929Z</time></trkpt><trkpt lat="30.310156913122682" lon="-6.62597593759049"><ele>1104.0</ele><time>2026-03-22T14:42:42.929Z</time></trkpt><trkpt lat="30.31014346842581" lon="-6.626173252765149"><ele>1104.0</ele><time>2026-03-22T14:42:43.929Z</time></trkpt><trkpt lat="30.310110207881536" lon="-6.626364157284129"><ele>1104.3333333333333</ele><time>2026-03-22T14:42:44.929Z</time></trkpt><trkpt lat="30.31008132328646" lon="-6.626567422185232"><ele>1104.6666666666665</ele><time>2026-03-22T14:42:45.929Z</time></trkpt><trkpt lat="30.310031945771737" lon="-6.6267664766837715"><ele>1105.0</ele><time>2026-03-22T14:42:46.929Z</time></trkpt><trkpt lat="30.310002514818407" lon="-6.6269634113589"><ele>1104.3333333333333</ele><time>2026-03-22T14:42:47.929Z</time></trkpt><trkpt lat="30.309991305557862" lon="-6.6271641835755535"><ele>1103.6666666666667</ele><time>2026-03-22T14:42:48.929Z</time></trkpt><trkpt lat="30.30996204873913" lon="-6.627363301055576"><ele>1103.0</ele><time>2026-03-22T14:42:49.929Z</time></trkpt><trkpt lat="30.30993069650299" lon="-6.627559018482428"><ele>1103.0</ele><time>2026-03-22T14:42:50.929Z</time></trkpt><trkpt lat="30.309900858290323" lon="-6.627754937289773"><ele>1103.0</ele><time>2026-03-22T14:42:51.929Z</time></trkpt><trkpt lat="30.309852832078096" lon="-6.627945452041716"><ele>1103.0</ele><time>2026-03-22T14:42:52.929Z</time></trkpt><trkpt lat="30.30981116146482" lon="-6.628138122107105"><ele>1101.3333333333335</ele><time>2026-03-22T14:42:53.929Z</time></trkpt><trkpt lat="30.30976211834939" lon="-6.628332620379103"><ele>1099.6666666666667</ele><time>2026-03-22T14:42:54.929Z</time></trkpt><trkpt lat="30.30971221466042" lon="-6.628526965703624"><ele>1098.0</ele><time>2026-03-22T14:42:55.929Z</time></trkpt><trkpt lat="30.309658536382333" lon="-6.628736407746585"><ele>1098.0</ele><time>2026-03-22T14:42:56.929Z</time></trkpt><trkpt lat="30.30960471404248" lon="-6.62894827015803"><ele>1098.0</ele><time>2026-03-22T14:42:57.929Z</time></trkpt><trkpt lat="30.309550872785483" lon="-6.629162845555905"><ele>1098.0</ele><time>2026-03-22T14:42:58.929Z</time></trkpt><trkpt lat="30.30949934750271" lon="-6.629371700028466"><ele>1098.3333333333333</ele><time>2026-03-22T14:42:59.929Z</time></trkpt><trkpt lat="30.30945275134437" lon="-6.629579207084614"><ele>1098.6666666666665</ele><time>2026-03-22T14:43:00.929Z</time></trkpt><trkpt lat="30.30940965928904" lon="-6.629783179758671"><ele>1099.0</ele><time>2026-03-22T14:43:01.929Z</time></trkpt><trkpt lat="30.309381837577448" lon="-6.62999176772808"><ele>1099.0</ele><time>2026-03-22T14:43:02.929Z</time></trkpt><trkpt lat="30.309362023572707" lon="-6.63019697604146"><ele>1099.0</ele><time>2026-03-22T14:43:03.929Z</time></trkpt><trkpt lat="30.309346944536163" lon="-6.630404522263985"><ele>1099.0</ele><time>2026-03-22T14:43:04.929Z</time></trkpt><trkpt lat="30.309332274174942" lon="-6.630609040976453"><ele>1098.3333333333333</ele><time>2026-03-22T14:43:05.929Z</time></trkpt><trkpt lat="30.309319747110802" lon="-6.630806912056997"><ele>1097.6666666666667</ele><time>2026-03-22T14:43:06.929Z</time></trkpt><trkpt lat="30.309315582033644" lon="-6.630999284734125"><ele>1097.0</ele><time>2026-03-22T14:43:07.929Z</time></trkpt><trkpt lat="30.309333449500816" lon="-6.631172213675576"><ele>1095.5</ele><time>2026-03-22T14:43:08.929Z</time></trkpt><trkpt lat="30.30935084499185" lon="-6.631336334970035"><ele>1094.0</ele><time>2026-03-22T14:43:09.929Z</time></trkpt><trkpt lat="30.30936689916565" lon="-6.631490118872428"><ele>1092.5</ele><time>2026-03-22T14:43:10.929Z</time></trkpt><trkpt lat="30.30938146381907" lon="-6.63163208638847"><ele>1091.0</ele><time>2026-03-22T14:43:11.929Z</time></trkpt><trkpt lat="30.309394026790894" lon="-6.63175241645399"><ele>1091.0</ele><time>2026-03-22T14:43:12.929Z</time></trkpt><trkpt lat="30.30940439882739" lon="-6.631850271205575"><ele>1091.0</ele><time>2026-03-22T14:43:13.929Z</time></trkpt><trkpt lat="30.30941267723143" lon="-6.631928373574638"><ele>1091.0</ele><time>2026-03-22T14:43:14.929Z</time></trkpt><trkpt lat="30.30942532848849" lon="-6.632038534232025"><ele>1091.0</ele><time>2026-03-22T14:43:16.929Z</time></trkpt><trkpt lat="30.309290937140393" lon="-6.631999691323567"><ele>1091.0</ele><time>2026-03-22T14:43:20.929Z</time></trkpt><trkpt lat="30.30919465380083" lon="-6.631999127256212"><ele>1091.0</ele><time>2026-03-22T14:43:22.929Z</time></trkpt><trkpt lat="30.309078240666295" lon="-6.631977443643706"><ele>1091.0</ele><time>2026-03-22T14:43:24.929Z</time></trkpt><trkpt lat="30.308964974623596" lon="-6.631970632820766"><ele>1091.0</ele><time>2026-03-22T14:43:26.929Z</time></trkpt><trkpt lat="30.308868759973823" lon="-6.631936815635581"><ele>1091.0</ele><time>2026-03-22T14:43:28.929Z</time></trkpt><trkpt lat="30.308843725018612" lon="-6.631856623701376"><ele>1091.0</ele><time>2026-03-22T14:43:29.929Z</time></trkpt><trkpt lat="30.308778442339737" lon="-6.63178252312405"><ele>1090.0</ele><time>2026-03-22T14:43:31.929Z</time></trkpt><trkpt lat="30.308724899587972" lon="-6.631670437230855"><ele>1089.0</ele><time>2026-03-22T14:43:33.929Z</time></trkpt><trkpt lat="30.308686795923414" lon="-6.631563112756133"><ele>1088.0</ele><time>2026-03-22T14:43:35.929Z</time></trkpt><trkpt lat="30.308625867223054" lon="-6.631427446777519"><ele>1087.0</ele><time>2026-03-22T14:43:37.929Z</time></trkpt><trkpt lat="30.30858436403292" lon="-6.631341191010898"><ele>1086.0</ele><time>2026-03-22T14:43:38.929Z</time></trkpt><trkpt lat="30.308538495190813" lon="-6.631273647102548"><ele>1086.0</ele><time>2026-03-22T14:43:39.929Z</time></trkpt><trkpt lat="30.30847982895749" lon="-6.631231512513741"><ele>1086.0</ele><time>2026-03-22T14:43:40.929Z</time></trkpt><trkpt lat="30.308404579659715" lon="-6.631219532299733"><ele>1086.0</ele><time>2026-03-22T14:43:41.929Z</time></trkpt><trkpt lat="30.30830483387204" lon="-6.63121391204062"><ele>1086.0</ele><time>2026-03-22T14:43:42.929Z</time></trkpt><trkpt lat="30.30818710807818" lon="-6.631200084410982"><ele>1086.0</ele><time>2026-03-22T14:43:43.929Z</time></trkpt><trkpt lat="30.308075358056083" lon="-6.631181017257863"><ele>1086.0</ele><time>2026-03-22T14:43:44.929Z</time></trkpt><trkpt lat="30.30797678216285" lon="-6.631150743515512"><ele>1086.0</ele><time>2026-03-22T14:43:45.929Z</time></trkpt><trkpt lat="30.30790488417942" lon="-6.631120814392936"><ele>1086.0</ele><time>2026-03-22T14:43:46.929Z</time></trkpt><trkpt lat="30.307832830745923" lon="-6.631067979281845"><ele>1086.0</ele><time>2026-03-22T14:43:48.929Z</time></trkpt><trkpt lat="30.307808143365392" lon="-6.630988937430198"><ele>1086.0</ele><time>2026-03-22T14:43:52.929Z</time></trkpt><trkpt lat="30.307771248486578" lon="-6.630860759727949"><ele>1086.1666666666667</ele><time>2026-03-22T14:45:16.924Z</time></trkpt><trkpt lat="30.307739571146563" lon="-6.630792444812139"><ele>1086.3333333333333</ele><time>2026-03-22T14:45:17.924Z</time></trkpt><trkpt lat="30.307669621712684" lon="-6.630743102374619"><ele>1086.5</ele><time>2026-03-22T14:45:18.924Z</time></trkpt><trkpt lat="30.30764678738575" lon="-6.6306724339366445"><ele>1086.6666666666665</ele><time>2026-03-22T14:45:19.924Z</time></trkpt><trkpt lat="30.307611896160132" lon="-6.630561003099699"><ele>1086.8333333333333</ele><time>2026-03-22T14:45:21.924Z</time></trkpt><trkpt lat="30.30753763992182" lon="-6.630453631371994"><ele>1087.0</ele><time>2026-03-22T14:45:23.924Z</time></trkpt><trkpt lat="30.30747109889417" lon="-6.6303285452785055"><ele>1087.2</ele><time>2026-03-22T14:45:25.924Z</time></trkpt><trkpt lat="30.307418300944367" lon="-6.6302483941331305"><ele>1087.4</ele><time>2026-03-22T14:45:26.924Z</time></trkpt><trkpt lat="30.3073650370721" lon="-6.630147565175495"><ele>1087.6</ele><time>2026-03-22T14:45:27.924Z</time></trkpt><trkpt lat="30.307312482223455" lon="-6.630045260026283"><ele>1087.8</ele><time>2026-03-22T14:45:28.924Z</time></trkpt><trkpt lat="30.307268536345546" lon="-6.629975269929658"><ele>1088.0</ele><time>2026-03-22T14:45:29.924Z</time></trkpt><trkpt lat="30.30717959636467" lon="-6.629903021833323"><ele>1088.4</ele><time>2026-03-22T14:45:31.924Z</time></trkpt><trkpt lat="30.30705792513686" lon="-6.629896469224384"><ele>1088.8</ele><time>2026-03-22T14:45:33.924Z</time></trkpt><trkpt lat="30.306995629204998" lon="-6.629937443313994"><ele>1089.2</ele><time>2026-03-22T14:45:34.924Z</time></trkpt><trkpt lat="30.306937192886238" lon="-6.630009700199087"><ele>1089.6</ele><time>2026-03-22T14:45:35.924Z</time></trkpt><trkpt lat="30.306860303536126" lon="-6.630060849397716"><ele>1090.0</ele><time>2026-03-22T14:45:36.923Z</time></trkpt><trkpt lat="30.306763447839693" lon="-6.630079277128023"><ele>1090.0</ele><time>2026-03-22T14:45:37.924Z</time></trkpt><trkpt lat="30.306653773121397" lon="-6.630126418766631"><ele>1090.0</ele><time>2026-03-22T14:45:38.923Z</time></trkpt><trkpt lat="30.30657008954497" lon="-6.630167985827665"><ele>1090.0</ele><time>2026-03-22T14:45:39.923Z</time></trkpt><trkpt lat="30.306484376478277" lon="-6.630221693484501"><ele>1090.0</ele><time>2026-03-22T14:45:40.924Z</time></trkpt><trkpt lat="30.3064113780313" lon="-6.63029201078479"><ele>1090.0</ele><time>2026-03-22T14:45:41.923Z</time></trkpt><trkpt lat="30.306338374291368" lon="-6.630346057564561"><ele>1089.6</ele><time>2026-03-22T14:45:42.923Z</time></trkpt><trkpt lat="30.30625794199799" lon="-6.630381345731776"><ele>1089.2</ele><time>2026-03-22T14:45:43.924Z</time></trkpt><trkpt lat="30.306162226866192" lon="-6.630391196214708"><ele>1088.8</ele><time>2026-03-22T14:45:44.924Z</time></trkpt><trkpt lat="30.306066260917344" lon="-6.630407337314974"><ele>1088.4</ele><time>2026-03-22T14:45:45.924Z</time></trkpt><trkpt lat="30.305975743412123" lon="-6.63043850766396"><ele>1088.0</ele><time>2026-03-22T14:45:46.924Z</time></trkpt><trkpt lat="30.305902271355862" lon="-6.630475692506131"><ele>1088.0</ele><time>2026-03-22T14:45:47.924Z</time></trkpt><trkpt lat="30.30582570301967" lon="-6.630502086235796"><ele>1088.0</ele><time>2026-03-22T14:45:48.924Z</time></trkpt><trkpt lat="30.3057450781172" lon="-6.630534180888998"><ele>1088.0</ele><time>2026-03-22T14:45:49.924Z</time></trkpt><trkpt lat="30.305666988059606" lon="-6.630598402623721"><ele>1088.0</ele><time>2026-03-22T14:45:50.924Z</time></trkpt><trkpt lat="30.30561017931576" lon="-6.6306795774660365"><ele>1088.0</ele><time>2026-03-22T14:45:51.924Z</time></trkpt><trkpt lat="30.305550692347524" lon="-6.630763802188425"><ele>1088.0</ele><time>2026-03-22T14:45:52.924Z</time></trkpt><trkpt lat="30.305486222513785" lon="-6.630824175251952"><ele>1088.1666666666667</ele><time>2026-03-22T14:45:53.924Z</time></trkpt><trkpt lat="30.305429531594182" lon="-6.63086764305947"><ele>1088.3333333333335</ele><time>2026-03-22T14:45:54.924Z</time></trkpt><trkpt lat="30.305380669217353" lon="-6.630924421082786"><ele>1088.5</ele><time>2026-03-22T14:45:55.924Z</time></trkpt><trkpt lat="30.30534758668818" lon="-6.630988563278445"><ele>1088.6666666666667</ele><time>2026-03-22T14:45:56.924Z</time></trkpt><trkpt lat="30.305375394848248" lon="-6.631103805124007"><ele>1088.8333333333333</ele><time>2026-03-22T14:45:58.924Z</time></trkpt><trkpt lat="30.30548001865249" lon="-6.631211965954063"><ele>1089.0</ele><time>2026-03-22T14:46:00.924Z</time></trkpt><trkpt lat="30.305544490433324" lon="-6.631269156969151"><ele>1088.6666666666667</ele><time>2026-03-22T14:46:01.924Z</time></trkpt><trkpt lat="30.30559125526808" lon="-6.631329641583507"><ele>1088.3333333333333</ele><time>2026-03-22T14:46:02.924Z</time></trkpt><trkpt lat="30.305612457412845" lon="-6.631408702303134"><ele>1088.0</ele><time>2026-03-22T14:46:03.924Z</time></trkpt><trkpt lat="30.30561157878034" lon="-6.631505448647061"><ele>1087.6666666666665</ele><time>2026-03-22T14:46:04.924Z</time></trkpt><trkpt lat="30.30559672173339" lon="-6.631612383078023"><ele>1087.3333333333333</ele><time>2026-03-22T14:46:05.924Z</time></trkpt><trkpt lat="30.305590268351313" lon="-6.631721458119971"><ele>1087.0</ele><time>2026-03-22T14:46:06.924Z</time></trkpt><trkpt lat="30.305585516284992" lon="-6.631827671466284"><ele>1087.0</ele><time>2026-03-22T14:46:07.924Z</time></trkpt><trkpt lat="30.30555897795141" lon="-6.63192432609814"><ele>1087.0</ele><time>2026-03-22T14:46:08.924Z</time></trkpt><trkpt lat="30.305522551292324" lon="-6.632019941604429"><ele>1087.0</ele><time>2026-03-22T14:46:09.924Z</time></trkpt><trkpt lat="30.30546059188512" lon="-6.632113446845192"><ele>1087.0</ele><time>2026-03-22T14:46:10.924Z</time></trkpt><trkpt lat="30.305390649602575" lon="-6.632211340500966"><ele>1087.0</ele><time>2026-03-22T14:46:11.924Z</time></trkpt><trkpt lat="30.305319475624383" lon="-6.632318766534204"><ele>1087.0</ele><time>2026-03-22T14:46:12.924Z</time></trkpt><trkpt lat="30.305241098685375" lon="-6.632435060644354"><ele>1087.0</ele><time>2026-03-22T14:46:13.924Z</time></trkpt><trkpt lat="30.30515406957987" lon="-6.6325560410840465"><ele>1087.0</ele><time>2026-03-22T14:46:14.924Z</time></trkpt><trkpt lat="30.305063143254515" lon="-6.632693593127377"><ele>1087.0</ele><time>2026-03-22T14:46:15.924Z</time></trkpt><trkpt lat="30.304971786959555" lon="-6.632815400813307"><ele>1086.25</ele><time>2026-03-22T14:46:16.924Z</time></trkpt><trkpt lat="30.30489419415617" lon="-6.632942505512477"><ele>1085.5</ele><time>2026-03-22T14:46:17.924Z</time></trkpt><trkpt lat="30.30481666256417" lon="-6.633063403229347"><ele>1084.75</ele><time>2026-03-22T14:46:18.924Z</time></trkpt><trkpt lat="30.304742044375082" lon="-6.633159463367256"><ele>1084.0</ele><time>2026-03-22T14:46:19.924Z</time></trkpt><trkpt lat="30.304670648778963" lon="-6.633257569744004"><ele>1084.0</ele><time>2026-03-22T14:46:20.924Z</time></trkpt><trkpt lat="30.30460034963029" lon="-6.633358493728115"><ele>1084.0</ele><time>2026-03-22T14:46:21.924Z</time></trkpt><trkpt lat="30.304537564705274" lon="-6.633451961265242"><ele>1084.0</ele><time>2026-03-22T14:46:22.924Z</time></trkpt><trkpt lat="30.304483810180017" lon="-6.633538462364418"><ele>1084.0</ele><time>2026-03-22T14:46:23.924Z</time></trkpt><trkpt lat="30.304420604912334" lon="-6.633608119235558"><ele>1084.0</ele><time>2026-03-22T14:46:24.924Z</time></trkpt><trkpt lat="30.30436453178702" lon="-6.63369196577513"><ele>1083.6000000000001</ele><time>2026-03-22T14:46:25.924Z</time></trkpt><trkpt lat="30.304306261929952" lon="-6.633774934000949"><ele>1083.2</ele><time>2026-03-22T14:46:26.924Z</time></trkpt><trkpt lat="30.304244041449138" lon="-6.633863413589684"><ele>1082.8000000000002</ele><time>2026-03-22T14:46:27.924Z</time></trkpt><trkpt lat="30.304182104269067" lon="-6.633952153135947"><ele>1082.4</ele><time>2026-03-22T14:46:28.924Z</time></trkpt><trkpt lat="30.30411210868335" lon="-6.63404777879434"><ele>1082.0</ele><time>2026-03-22T14:46:29.924Z</time></trkpt><trkpt lat="30.304042347245392" lon="-6.634143550167604"><ele>1082.0</ele><time>2026-03-22T14:46:30.924Z</time></trkpt><trkpt lat="30.303973876485507" lon="-6.634247007722426"><ele>1082.0</ele><time>2026-03-22T14:46:31.924Z</time></trkpt><trkpt lat="30.30389873485591" lon="-6.634345756717438"><ele>1082.0</ele><time>2026-03-22T14:46:32.924Z</time></trkpt><trkpt lat="30.303822781648904" lon="-6.634433960927215"><ele>1082.0</ele><time>2026-03-22T14:46:33.924Z</time></trkpt><trkpt lat="30.303760765674635" lon="-6.63452898812699"><ele>1082.0</ele><time>2026-03-22T14:46:34.924Z</time></trkpt><trkpt lat="30.303692012892025" lon="-6.634628390489374"><ele>1082.0</ele><time>2026-03-22T14:46:35.924Z</time></trkpt><trkpt lat="30.30361611524246" lon="-6.6347295800340795"><ele>1082.0</ele><time>2026-03-22T14:46:36.924Z</time></trkpt><trkpt lat="30.30355066640785" lon="-6.634831963167904"><ele>1082.0</ele><time>2026-03-22T14:46:37.924Z</time></trkpt><trkpt lat="30.303491242852445" lon="-6.634951015112934"><ele>1082.0</ele><time>2026-03-22T14:46:38.924Z</time></trkpt><trkpt lat="30.30343577627562" lon="-6.635059329893544"><ele>1082.0</ele><time>2026-03-22T14:46:39.924Z</time></trkpt><trkpt lat="30.303365500407775" lon="-6.635176337470152"><ele>1082.0</ele><time>2026-03-22T14:46:40.924Z</time></trkpt><trkpt lat="30.303283253953502" lon="-6.635288063606641"><ele>1082.0</ele><time>2026-03-22T14:46:41.924Z</time></trkpt><trkpt lat="30.303194987176663" lon="-6.6354132574362295"><ele>1082.0</ele><time>2026-03-22T14:46:42.924Z</time></trkpt><trkpt lat="30.30310237617342" lon="-6.6355450016276665"><ele>1082.0</ele><time>2026-03-22T14:46:43.924Z</time></trkpt><trkpt lat="30.30300124785681" lon="-6.635689314988845"><ele>1082.0</ele><time>2026-03-22T14:46:44.924Z</time></trkpt><trkpt lat="30.302907421476124" lon="-6.635816160975616"><ele>1082.0</ele><time>2026-03-22T14:46:45.924Z</time></trkpt><trkpt lat="30.302831062631682" lon="-6.635924415165869"><ele>1082.0</ele><time>2026-03-22T14:46:46.924Z</time></trkpt><trkpt lat="30.30276250787184" lon="-6.6360381429241135"><ele>1081.75</ele><time>2026-03-22T14:46:47.924Z</time></trkpt><trkpt lat="30.302701094498687" lon="-6.636159949781046"><ele>1081.5</ele><time>2026-03-22T14:46:48.924Z</time></trkpt><trkpt lat="30.30264887746183" lon="-6.636282911602349"><ele>1081.25</ele><time>2026-03-22T14:46:49.924Z</time></trkpt><trkpt lat="30.30259105686996" lon="-6.636389544364886"><ele>1081.0</ele><time>2026-03-22T14:46:50.924Z</time></trkpt><trkpt lat="30.30252615669512" lon="-6.636505411832221"><ele>1081.0</ele><time>2026-03-22T14:46:51.924Z</time></trkpt><trkpt lat="30.302487781451184" lon="-6.63663908441637"><ele>1081.0</ele><time>2026-03-22T14:46:52.924Z</time></trkpt><trkpt lat="30.302451723800033" lon="-6.6367798943321565"><ele>1081.0</ele><time>2026-03-22T14:46:53.924Z</time></trkpt><trkpt lat="30.302409263199284" lon="-6.63693734295592"><ele>1081.0</ele><time>2026-03-22T14:46:54.924Z</time></trkpt><trkpt lat="30.302351858346196" lon="-6.637089867364892"><ele>1080.5</ele><time>2026-03-22T14:46:55.924Z</time></trkpt><trkpt lat="30.30230201440583" lon="-6.637236135243902"><ele>1080.0</ele><time>2026-03-22T14:46:56.924Z</time></trkpt><trkpt lat="30.30224802513694" lon="-6.63735594643312"><ele>1079.5</ele><time>2026-03-22T14:46:57.924Z</time></trkpt><trkpt lat="30.302204401261015" lon="-6.637480308532055"><ele>1079.0</ele><time>2026-03-22T14:46:58.924Z</time></trkpt><trkpt lat="30.302162277926733" lon="-6.637617177015623"><ele>1079.0</ele><time>2026-03-22T14:46:59.924Z</time></trkpt><trkpt lat="30.302121245799622" lon="-6.637740755424039"><ele>1079.0</ele><time>2026-03-22T14:47:00.924Z</time></trkpt><trkpt lat="30.302084791125644" lon="-6.637852764146271"><ele>1079.0</ele><time>2026-03-22T14:47:01.924Z</time></trkpt><trkpt lat="30.302051291892205" lon="-6.637948770538827"><ele>1079.0</ele><time>2026-03-22T14:47:02.924Z</time></trkpt><trkpt lat="30.302021857225228" lon="-6.638039281022686"><ele>1079.0</ele><time>2026-03-22T14:47:03.924Z</time></trkpt><trkpt lat="30.301995949180338" lon="-6.638120241614726"><ele>1078.5</ele><time>2026-03-22T14:47:04.924Z</time></trkpt><trkpt lat="30.301961213734543" lon="-6.638205879228854"><ele>1078.0</ele><time>2026-03-22T14:47:05.924Z</time></trkpt><trkpt lat="30.30192776185056" lon="-6.638293540453141"><ele>1077.5</ele><time>2026-03-22T14:47:06.924Z</time></trkpt><trkpt lat="30.301880551055774" lon="-6.6383905835944415"><ele>1077.0</ele><time>2026-03-22T14:47:07.924Z</time></trkpt><trkpt lat="30.30184342375595" lon="-6.6384811597318505"><ele>1076.5</ele><time>2026-03-22T14:47:08.924Z</time></trkpt><trkpt lat="30.301803074106004" lon="-6.638573140778054"><ele>1076.0</ele><time>2026-03-22T14:47:09.924Z</time></trkpt><trkpt lat="30.3017693934083" lon="-6.638662237669138"><ele>1075.8</ele><time>2026-03-22T14:47:10.924Z</time></trkpt><trkpt lat="30.301725013320613" lon="-6.63875712422207"><ele>1075.6</ele><time>2026-03-22T14:47:11.923Z</time></trkpt><trkpt lat="30.301682196393013" lon="-6.638889221491132"><ele>1075.4</ele><time>2026-03-22T14:47:12.923Z</time></trkpt><trkpt lat="30.301630027449985" lon="-6.639011058202975"><ele>1075.2</ele><time>2026-03-22T14:47:13.923Z</time></trkpt><trkpt lat="30.301575537061034" lon="-6.639126162444352"><ele>1075.0</ele><time>2026-03-22T14:47:14.923Z</time></trkpt><trkpt lat="30.301542537952972" lon="-6.639254164014703"><ele>1075.0</ele><time>2026-03-22T14:47:15.923Z</time></trkpt><trkpt lat="30.30151957182762" lon="-6.639377825062945"><ele>1075.0</ele><time>2026-03-22T14:47:16.923Z</time></trkpt><trkpt lat="30.30149657929753" lon="-6.639520608208674"><ele>1075.0</ele><time>2026-03-22T14:47:17.923Z</time></trkpt><trkpt lat="30.30147376769825" lon="-6.6396608459758655"><ele>1075.0</ele><time>2026-03-22T14:47:18.923Z</time></trkpt><trkpt lat="30.301456937233137" lon="-6.639794821586758"><ele>1074.6</ele><time>2026-03-22T14:47:19.923Z</time></trkpt><trkpt lat="30.30144977255491" lon="-6.6399294233322"><ele>1074.2</ele><time>2026-03-22T14:47:20.923Z</time></trkpt><trkpt lat="30.301442793211635" lon="-6.640054562597871"><ele>1073.8</ele><time>2026-03-22T14:47:21.923Z</time></trkpt><trkpt lat="30.301444051607778" lon="-6.640171617855655"><ele>1073.4</ele><time>2026-03-22T14:47:22.923Z</time></trkpt><trkpt lat="30.30143349010883" lon="-6.640296292382081"><ele>1073.0</ele><time>2026-03-22T14:47:23.923Z</time></trkpt><trkpt lat="30.301410730557482" lon="-6.640402611816825"><ele>1073.8</ele><time>2026-03-22T14:47:24.923Z</time></trkpt><trkpt lat="30.301384509455627" lon="-6.640503233948797"><ele>1074.6</ele><time>2026-03-22T14:47:25.923Z</time></trkpt><trkpt lat="30.30136385253891" lon="-6.640599068210383"><ele>1075.4</ele><time>2026-03-22T14:47:26.923Z</time></trkpt><trkpt lat="30.301334447233526" lon="-6.64068348171295"><ele>1076.2</ele><time>2026-03-22T14:47:27.923Z</time></trkpt><trkpt lat="30.30130752640103" lon="-6.640788722669919"><ele>1077.0</ele><time>2026-03-22T14:47:28.923Z</time></trkpt><trkpt lat="30.301263324606015" lon="-6.640897686864551"><ele>1077.0</ele><time>2026-03-22T14:47:29.923Z</time></trkpt><trkpt lat="30.301217342926765" lon="-6.641019158294785"><ele>1077.0</ele><time>2026-03-22T14:47:30.923Z</time></trkpt><trkpt lat="30.301174702694205" lon="-6.641140940440367"><ele>1077.0</ele><time>2026-03-22T14:47:31.923Z</time></trkpt><trkpt lat="30.30112058466145" lon="-6.641255117835541"><ele>1077.0</ele><time>2026-03-22T14:47:32.923Z</time></trkpt><trkpt lat="30.301081014529515" lon="-6.641358021932916"><ele>1077.0</ele><time>2026-03-22T14:47:33.923Z</time></trkpt><trkpt lat="30.30103771452477" lon="-6.641466505081144"><ele>1076.8</ele><time>2026-03-22T14:47:34.923Z</time></trkpt><trkpt lat="30.300995278546846" lon="-6.641564071799849"><ele>1076.6</ele><time>2026-03-22T14:47:35.923Z</time></trkpt><trkpt lat="30.300955382463496" lon="-6.641664326957218"><ele>1076.3999999999999</ele><time>2026-03-22T14:47:36.923Z</time></trkpt><trkpt lat="30.300917707262126" lon="-6.641754494763127"><ele>1076.2</ele><time>2026-03-22T14:47:37.923Z</time></trkpt><trkpt lat="30.30087513573343" lon="-6.641871103565385"><ele>1076.0</ele><time>2026-03-22T14:47:38.923Z</time></trkpt><trkpt lat="30.300828804360883" lon="-6.64200381281021"><ele>1075.0</ele><time>2026-03-22T14:47:39.923Z</time></trkpt><trkpt lat="30.300792407701636" lon="-6.642139550307895"><ele>1074.0</ele><time>2026-03-22T14:47:40.923Z</time></trkpt><trkpt lat="30.30074889894616" lon="-6.642314977906316"><ele>1073.0</ele><time>2026-03-22T14:47:41.923Z</time></trkpt><trkpt lat="30.300696364543285" lon="-6.642494475405453"><ele>1072.0</ele><time>2026-03-22T14:47:42.923Z</time></trkpt><trkpt lat="30.30065634213059" lon="-6.642646018559959"><ele>1072.0</ele><time>2026-03-22T14:47:43.923Z</time></trkpt><trkpt lat="30.3006254787304" lon="-6.642775088356487"><ele>1072.0</ele><time>2026-03-22T14:47:44.924Z</time></trkpt><trkpt lat="30.30058762367319" lon="-6.6428761319200085"><ele>1072.0</ele><time>2026-03-22T14:47:45.924Z</time></trkpt><trkpt lat="30.300533460262876" lon="-6.64295652207877"><ele>1072.0</ele><time>2026-03-22T14:47:46.924Z</time></trkpt><trkpt lat="30.30046611332681" lon="-6.643033759842918"><ele>1072.0</ele><time>2026-03-22T14:47:47.923Z</time></trkpt><trkpt lat="30.300428460739976" lon="-6.6431311268361135"><ele>1071.75</ele><time>2026-03-22T14:47:48.923Z</time></trkpt><trkpt lat="30.30041253624651" lon="-6.643259286697003"><ele>1071.5</ele><time>2026-03-22T14:47:49.923Z</time></trkpt><trkpt lat="30.30041473716915" lon="-6.6433994663283125"><ele>1071.25</ele><time>2026-03-22T14:47:50.923Z</time></trkpt><trkpt lat="30.300398464866056" lon="-6.643541097091691"><ele>1071.0</ele><time>2026-03-22T14:47:51.923Z</time></trkpt><trkpt lat="30.300370300547637" lon="-6.643694761331545"><ele>1070.25</ele><time>2026-03-22T14:47:52.923Z</time></trkpt><trkpt lat="30.300356192076062" lon="-6.643845660182602"><ele>1069.5</ele><time>2026-03-22T14:47:53.923Z</time></trkpt><trkpt lat="30.30032250528563" lon="-6.643992257154457"><ele>1068.75</ele><time>2026-03-22T14:47:54.923Z</time></trkpt><trkpt lat="30.300262420813702" lon="-6.6441707332613555"><ele>1068.0</ele><time>2026-03-22T14:47:55.923Z</time></trkpt><trkpt lat="30.300175411569878" lon="-6.6443420290997075"><ele>1068.25</ele><time>2026-03-22T14:47:56.923Z</time></trkpt><trkpt lat="30.300082734644086" lon="-6.644496936733531"><ele>1068.5</ele><time>2026-03-22T14:47:57.923Z</time></trkpt><trkpt lat="30.300012960491223" lon="-6.6446241115501525"><ele>1068.75</ele><time>2026-03-22T14:47:58.923Z</time></trkpt><trkpt lat="30.29996687945227" lon="-6.644758500631155"><ele>1069.0</ele><time>2026-03-22T14:47:59.923Z</time></trkpt><trkpt lat="30.299941583860218" lon="-6.644897225874861"><ele>1069.0</ele><time>2026-03-22T14:48:00.923Z</time></trkpt><trkpt lat="30.299917711820243" lon="-6.645034837726812"><ele>1069.0</ele><time>2026-03-22T14:48:01.923Z</time></trkpt><trkpt lat="30.29986770240898" lon="-6.645181451741664"><ele>1069.0</ele><time>2026-03-22T14:48:02.923Z</time></trkpt><trkpt lat="30.299792736229666" lon="-6.645326992717551"><ele>1069.0</ele><time>2026-03-22T14:48:03.923Z</time></trkpt><trkpt lat="30.299739312749466" lon="-6.645451881849349"><ele>1070.25</ele><time>2026-03-22T14:48:04.923Z</time></trkpt><trkpt lat="30.299707132697154" lon="-6.64556911635469"><ele>1071.5</ele><time>2026-03-22T14:48:05.923Z</time></trkpt><trkpt lat="30.299668278197345" lon="-6.6456865119482"><ele>1072.75</ele><time>2026-03-22T14:48:06.923Z</time></trkpt><trkpt lat="30.29960873780976" lon="-6.645809391721764"><ele>1074.0</ele><time>2026-03-22T14:48:07.923Z</time></trkpt><trkpt lat="30.299544572153202" lon="-6.6459481086449825"><ele>1074.0</ele><time>2026-03-22T14:48:08.922Z</time></trkpt><trkpt lat="30.299488394722303" lon="-6.646084667503912"><ele>1074.0</ele><time>2026-03-22T14:48:09.922Z</time></trkpt><trkpt lat="30.299434243323724" lon="-6.6462141816537414"><ele>1074.0</ele><time>2026-03-22T14:48:10.922Z</time></trkpt><trkpt lat="30.29937923444722" lon="-6.646338820964887"><ele>1074.0</ele><time>2026-03-22T14:48:11.922Z</time></trkpt><trkpt lat="30.299322199830545" lon="-6.646467820336392"><ele>1073.75</ele><time>2026-03-22T14:48:12.922Z</time></trkpt><trkpt lat="30.29925848678906" lon="-6.646597465822164"><ele>1073.5</ele><time>2026-03-22T14:48:13.922Z</time></trkpt><trkpt lat="30.29919617406897" lon="-6.646735288339301"><ele>1073.25</ele><time>2026-03-22T14:48:14.922Z</time></trkpt><trkpt lat="30.299131794220166" lon="-6.646865149160656"><ele>1073.0</ele><time>2026-03-22T14:48:15.922Z</time></trkpt><trkpt lat="30.29906288232747" lon="-6.64699950252625"><ele>1072.5</ele><time>2026-03-22T14:48:16.922Z</time></trkpt><trkpt lat="30.298994394096745" lon="-6.647133154435354"><ele>1072.0</ele><time>2026-03-22T14:48:17.922Z</time></trkpt><trkpt lat="30.29892811762265" lon="-6.647262283308667"><ele>1071.5</ele><time>2026-03-22T14:48:18.922Z</time></trkpt><trkpt lat="30.29885976693249" lon="-6.64738591922091"><ele>1071.0</ele><time>2026-03-22T14:48:19.922Z</time></trkpt><trkpt lat="30.298790695196015" lon="-6.647491940522109"><ele>1071.0</ele><time>2026-03-22T14:48:20.922Z</time></trkpt><trkpt lat="30.298719034680637" lon="-6.647578766315523"><ele>1071.0</ele><time>2026-03-22T14:48:21.922Z</time></trkpt><trkpt lat="30.2986486593408" lon="-6.64766714004859"><ele>1071.0</ele><time>2026-03-22T14:48:22.922Z</time></trkpt><trkpt lat="30.298580570973616" lon="-6.647747285549415"><ele>1071.0</ele><time>2026-03-22T14:48:23.922Z</time></trkpt><trkpt lat="30.298518802176613" lon="-6.647821934467955"><ele>1071.0</ele><time>2026-03-22T14:48:24.922Z</time></trkpt><trkpt lat="30.29846874963075" lon="-6.647894642759398"><ele>1070.8</ele><time>2026-03-22T14:48:25.922Z</time></trkpt><trkpt lat="30.29841719432465" lon="-6.647964448471898"><ele>1070.6</ele><time>2026-03-22T14:48:26.922Z</time></trkpt><trkpt lat="30.29835605335757" lon="-6.648033889895709"><ele>1070.4</ele><time>2026-03-22T14:48:27.922Z</time></trkpt><trkpt lat="30.298287738239864" lon="-6.648108011397301"><ele>1070.2</ele><time>2026-03-22T14:48:28.922Z</time></trkpt><trkpt lat="30.298195593706616" lon="-6.648182875350631"><ele>1070.0</ele><time>2026-03-22T14:48:29.922Z</time></trkpt><trkpt lat="30.298101669440975" lon="-6.648252350446224"><ele>1069.6</ele><time>2026-03-22T14:48:30.922Z</time></trkpt><trkpt lat="30.298004910509068" lon="-6.648329045983126"><ele>1069.2</ele><time>2026-03-22T14:48:31.922Z</time></trkpt><trkpt lat="30.297914170372106" lon="-6.648411265935688"><ele>1068.8</ele><time>2026-03-22T14:48:32.922Z</time></trkpt><trkpt lat="30.29784045986255" lon="-6.648489263702709"><ele>1068.4</ele><time>2026-03-22T14:48:33.922Z</time></trkpt><trkpt lat="30.297773221607528" lon="-6.648569812712516"><ele>1068.0</ele><time>2026-03-22T14:48:34.922Z</time></trkpt><trkpt lat="30.297700114837625" lon="-6.648652612652128"><ele>1069.0</ele><time>2026-03-22T14:48:35.922Z</time></trkpt><trkpt lat="30.297631655364125" lon="-6.648739931123987"><ele>1070.0</ele><time>2026-03-22T14:48:36.922Z</time></trkpt><trkpt lat="30.297575924665033" lon="-6.648831436848251"><ele>1071.0</ele><time>2026-03-22T14:48:37.922Z</time></trkpt><trkpt lat="30.297524762136394" lon="-6.648951552193098"><ele>1072.0</ele><time>2026-03-22T14:48:38.922Z</time></trkpt><trkpt lat="30.297468891747656" lon="-6.6490767190424105"><ele>1073.0</ele><time>2026-03-22T14:48:39.922Z</time></trkpt><trkpt lat="30.297421849928874" lon="-6.64918312514632"><ele>1073.0</ele><time>2026-03-22T14:48:40.922Z</time></trkpt><trkpt lat="30.297383685549555" lon="-6.649306193197947"><ele>1073.0</ele><time>2026-03-22T14:48:41.922Z</time></trkpt><trkpt lat="30.297340032329487" lon="-6.649444473166373"><ele>1073.0</ele><time>2026-03-22T14:48:42.922Z</time></trkpt><trkpt lat="30.297304915031592" lon="-6.649603340189101"><ele>1073.0</ele><time>2026-03-22T14:48:43.922Z</time></trkpt><trkpt lat="30.297284026142357" lon="-6.649754262108022"><ele>1074.0</ele><time>2026-03-22T14:48:44.922Z</time></trkpt><trkpt lat="30.2972752579522" lon="-6.649876744805828"><ele>1075.0</ele><time>2026-03-22T14:48:45.922Z</time></trkpt><trkpt lat="30.29726642579223" lon="-6.64999496845224"><ele>1076.0</ele><time>2026-03-22T14:48:46.922Z</time></trkpt><trkpt lat="30.297243920738786" lon="-6.650118014582835"><ele>1077.0</ele><time>2026-03-22T14:48:47.922Z</time></trkpt><trkpt lat="30.297224070227163" lon="-6.650249661240569"><ele>1078.0</ele><time>2026-03-22T14:48:48.922Z</time></trkpt><trkpt lat="30.297211839656228" lon="-6.650374180743613"><ele>1076.5</ele><time>2026-03-22T14:48:49.922Z</time></trkpt><trkpt lat="30.29720872949097" lon="-6.6504654610177045"><ele>1075.0</ele><time>2026-03-22T14:48:50.922Z</time></trkpt><trkpt lat="30.29720277925751" lon="-6.650564019769928"><ele>1073.5</ele><time>2026-03-22T14:48:51.922Z</time></trkpt><trkpt lat="30.297207570111485" lon="-6.650677469101797"><ele>1072.0</ele><time>2026-03-22T14:48:52.922Z</time></trkpt><trkpt lat="30.29721808676421" lon="-6.6507694240838715"><ele>1070.5</ele><time>2026-03-22T14:48:53.922Z</time></trkpt><trkpt lat="30.297248558497184" lon="-6.650855873862697"><ele>1069.0</ele><time>2026-03-22T14:48:54.922Z</time></trkpt><trkpt lat="30.297302708374332" lon="-6.650937893162797"><ele>1069.0</ele><time>2026-03-22T14:48:55.922Z</time></trkpt><trkpt lat="30.29738317544446" lon="-6.651011966658472"><ele>1069.0</ele><time>2026-03-22T14:48:56.922Z</time></trkpt><trkpt lat="30.29746714956857" lon="-6.651079572061413"><ele>1069.0</ele><time>2026-03-22T14:48:57.922Z</time></trkpt><trkpt lat="30.297551567720443" lon="-6.6511402174174235"><ele>1069.0</ele><time>2026-03-22T14:48:58.922Z</time></trkpt><trkpt lat="30.29761648319331" lon="-6.651211166160423"><ele>1069.0</ele><time>2026-03-22T14:48:59.922Z</time></trkpt><trkpt lat="30.29766739573447" lon="-6.651290186854969"><ele>1067.4</ele><time>2026-03-22T14:49:00.922Z</time></trkpt><trkpt lat="30.297680615100763" lon="-6.651411113400302"><ele>1065.8000000000002</ele><time>2026-03-22T14:49:01.922Z</time></trkpt><trkpt lat="30.297682342245487" lon="-6.651531908078326"><ele>1064.1999999999998</ele><time>2026-03-22T14:49:02.922Z</time></trkpt><trkpt lat="30.297661554835518" lon="-6.651628041398639"><ele>1062.6</ele><time>2026-03-22T14:49:03.922Z</time></trkpt><trkpt lat="30.297618577584334" lon="-6.651725041798459"><ele>1061.0</ele><time>2026-03-22T14:49:04.922Z</time></trkpt><trkpt lat="30.29756882599966" lon="-6.651804741524498"><ele>1061.0</ele><time>2026-03-22T14:49:05.922Z</time></trkpt><trkpt lat="30.297536660491026" lon="-6.651894695278221"><ele>1061.0</ele><time>2026-03-22T14:49:06.922Z</time></trkpt><trkpt lat="30.297520817632737" lon="-6.652006838882311"><ele>1061.0</ele><time>2026-03-22T14:49:07.922Z</time></trkpt><trkpt lat="30.297490502351618" lon="-6.652117307043052"><ele>1061.0</ele><time>2026-03-22T14:49:08.922Z</time></trkpt><trkpt lat="30.297472129182456" lon="-6.652213977572868"><ele>1061.0</ele><time>2026-03-22T14:49:09.922Z</time></trkpt><trkpt lat="30.29744300679903" lon="-6.652301309845322"><ele>1061.0</ele><time>2026-03-22T14:49:10.922Z</time></trkpt><trkpt lat="30.297406769413264" lon="-6.652382491625364"><ele>1061.1666666666667</ele><time>2026-03-22T14:49:11.922Z</time></trkpt><trkpt lat="30.29738426257495" lon="-6.652478887058987"><ele>1061.3333333333335</ele><time>2026-03-22T14:49:12.922Z</time></trkpt><trkpt lat="30.29736431301258" lon="-6.652566180395288"><ele>1061.5</ele><time>2026-03-22T14:49:13.922Z</time></trkpt><trkpt lat="30.297335630126877" lon="-6.652650236478211"><ele>1061.6666666666667</ele><time>2026-03-22T14:49:14.922Z</time></trkpt><trkpt lat="30.297297235887303" lon="-6.652734706326181"><ele>1061.8333333333333</ele><time>2026-03-22T14:49:15.922Z</time></trkpt><trkpt lat="30.297253780696206" lon="-6.652817356710544"><ele>1062.0</ele><time>2026-03-22T14:49:16.922Z</time></trkpt><trkpt lat="30.297217736244683" lon="-6.652897199316814"><ele>1060.8333333333333</ele><time>2026-03-22T14:49:17.922Z</time></trkpt><trkpt lat="30.297182542546008" lon="-6.652971995147104"><ele>1059.6666666666667</ele><time>2026-03-22T14:49:18.922Z</time></trkpt><trkpt lat="30.297156795239015" lon="-6.6530452521629275"><ele>1058.5</ele><time>2026-03-22T14:49:19.922Z</time></trkpt><trkpt lat="30.297126624536016" lon="-6.6531177376196675"><ele>1057.3333333333335</ele><time>2026-03-22T14:49:20.922Z</time></trkpt><trkpt lat="30.29708991829635" lon="-6.653177549918144"><ele>1056.1666666666667</ele><time>2026-03-22T14:49:21.922Z</time></trkpt><trkpt lat="30.297027042397218" lon="-6.653255063357336"><ele>1055.0</ele><time>2026-03-22T14:49:23.922Z</time></trkpt><trkpt lat="30.29693676889918" lon="-6.653342238560314"><ele>1055.0</ele><time>2026-03-22T14:49:25.922Z</time></trkpt><trkpt lat="30.29684763259954" lon="-6.6534310569810255"><ele>1055.0</ele><time>2026-03-22T14:49:27.922Z</time></trkpt><trkpt lat="30.296805340042845" lon="-6.653486276823066"><ele>1055.0</ele><time>2026-03-22T14:49:28.922Z</time></trkpt><trkpt lat="30.29676953024575" lon="-6.653547201272042"><ele>1055.0</ele><time>2026-03-22T14:49:29.922Z</time></trkpt><trkpt lat="30.296733080010238" lon="-6.653617574619615"><ele>1055.0</ele><time>2026-03-22T14:49:30.922Z</time></trkpt><trkpt lat="30.296707736004894" lon="-6.653690886707953"><ele>1055.0</ele><time>2026-03-22T14:49:31.922Z</time></trkpt><trkpt lat="30.296684504679988" lon="-6.653764768309477"><ele>1054.4</ele><time>2026-03-22T14:49:32.922Z</time></trkpt><trkpt lat="30.296667077634687" lon="-6.65384034768923"><ele>1053.8</ele><time>2026-03-22T14:49:33.922Z</time></trkpt><trkpt lat="30.29663955596456" lon="-6.653911918423624"><ele>1053.2</ele><time>2026-03-22T14:49:34.922Z</time></trkpt><trkpt lat="30.29656112098043" lon="-6.654031384475993"><ele>1052.6</ele><time>2026-03-22T14:49:36.922Z</time></trkpt><trkpt lat="30.296507784171478" lon="-6.6541180649983005"><ele>1052.0</ele><time>2026-03-22T14:49:37.922Z</time></trkpt><trkpt lat="30.29646231690486" lon="-6.654220351740683"><ele>1051.1666666666667</ele><time>2026-03-22T14:49:38.922Z</time></trkpt><trkpt lat="30.29641170992708" lon="-6.654296860125014"><ele>1050.3333333333335</ele><time>2026-03-22T14:49:39.922Z</time></trkpt><trkpt lat="30.29636735446559" lon="-6.654374133972615"><ele>1049.5</ele><time>2026-03-22T14:49:40.922Z</time></trkpt><trkpt lat="30.296327923188116" lon="-6.654444513943197"><ele>1048.6666666666667</ele><time>2026-03-22T14:49:41.922Z</time></trkpt><trkpt lat="30.296299203703853" lon="-6.654511984701896"><ele>1047.8333333333333</ele><time>2026-03-22T14:49:42.922Z</time></trkpt><trkpt lat="30.296238504472257" lon="-6.654629469462945"><ele>1047.0</ele><time>2026-03-22T14:49:44.923Z</time></trkpt><trkpt lat="30.296151354295155" lon="-6.654731015441864"><ele>1046.25</ele><time>2026-03-22T14:49:46.923Z</time></trkpt><trkpt lat="30.296071699585536" lon="-6.654837982924094"><ele>1045.5</ele><time>2026-03-22T14:49:48.923Z</time></trkpt><trkpt lat="30.295999057004973" lon="-6.654932497819896"><ele>1044.75</ele><time>2026-03-22T14:49:50.923Z</time></trkpt><trkpt lat="30.29593823733344" lon="-6.655089877466399"><ele>1044.0</ele><time>2026-03-22T14:49:52.923Z</time></trkpt><trkpt lat="30.295900978991494" lon="-6.65520024406192"><ele>1044.1666666666667</ele><time>2026-03-22T14:49:53.922Z</time></trkpt><trkpt lat="30.295864342859087" lon="-6.655291589962414"><ele>1044.3333333333333</ele><time>2026-03-22T14:49:54.922Z</time></trkpt><trkpt lat="30.295834140027825" lon="-6.655363483703871"><ele>1044.5</ele><time>2026-03-22T14:49:55.923Z</time></trkpt><trkpt lat="30.295791338080942" lon="-6.6554453691498825"><ele>1044.6666666666665</ele><time>2026-03-22T14:49:56.922Z</time></trkpt><trkpt lat="30.295733623437282" lon="-6.65552282698252"><ele>1044.8333333333333</ele><time>2026-03-22T14:49:57.922Z</time></trkpt><trkpt lat="30.295667938169025" lon="-6.65560638943802"><ele>1045.0</ele><time>2026-03-22T14:49:58.922Z</time></trkpt><trkpt lat="30.29560511465925" lon="-6.655705133775138"><ele>1043.5</ele><time>2026-03-22T14:49:59.922Z</time></trkpt><trkpt lat="30.29555395407448" lon="-6.655813242768571"><ele>1042.0</ele><time>2026-03-22T14:50:00.922Z</time></trkpt><trkpt lat="30.29551846497939" lon="-6.655904861724699"><ele>1040.5</ele><time>2026-03-22T14:50:01.922Z</time></trkpt><trkpt lat="30.295488771356634" lon="-6.655992056569133"><ele>1039.0</ele><time>2026-03-22T14:50:02.922Z</time></trkpt><trkpt lat="30.29547933506128" lon="-6.656073572309304"><ele>1037.5</ele><time>2026-03-22T14:50:03.922Z</time></trkpt><trkpt lat="30.295466660317473" lon="-6.656164514443876"><ele>1036.0</ele><time>2026-03-22T14:50:04.922Z</time></trkpt><trkpt lat="30.29545687452605" lon="-6.656261437064198"><ele>1035.6666666666665</ele><time>2026-03-22T14:50:05.922Z</time></trkpt><trkpt lat="30.29544812588227" lon="-6.6563582576865405"><ele>1035.3333333333333</ele><time>2026-03-22T14:50:06.922Z</time></trkpt><trkpt lat="30.295445204181537" lon="-6.656459574501492"><ele>1035.0</ele><time>2026-03-22T14:50:07.922Z</time></trkpt><trkpt lat="30.295435384367106" lon="-6.656560125194657"><ele>1034.6666666666667</ele><time>2026-03-22T14:50:08.922Z</time></trkpt><trkpt lat="30.29543440500321" lon="-6.656662736470927"><ele>1034.3333333333335</ele><time>2026-03-22T14:50:09.922Z</time></trkpt><trkpt lat="30.295435832208515" lon="-6.65675213916192"><ele>1034.0</ele><time>2026-03-22T14:50:10.922Z</time></trkpt><trkpt lat="30.295439284023537" lon="-6.656844247526628"><ele>1034.0</ele><time>2026-03-22T14:50:11.922Z</time></trkpt><trkpt lat="30.295443213598972" lon="-6.656933089828959"><ele>1034.0</ele><time>2026-03-22T14:50:12.922Z</time></trkpt><trkpt lat="30.29544444675337" lon="-6.657009930370328"><ele>1034.0</ele><time>2026-03-22T14:50:13.922Z</time></trkpt><trkpt lat="30.29543192613139" lon="-6.657084360345787"><ele>1034.0</ele><time>2026-03-22T14:50:14.922Z</time></trkpt><trkpt lat="30.295386297568427" lon="-6.657202889560139"><ele>1034.0</ele><time>2026-03-22T14:50:16.922Z</time></trkpt><trkpt lat="30.29529258795512" lon="-6.657317070658642"><ele>1033.6666666666667</ele><time>2026-03-22T14:50:18.922Z</time></trkpt><trkpt lat="30.295260369198395" lon="-6.6574026647645885"><ele>1033.3333333333335</ele><time>2026-03-22T14:50:19.922Z</time></trkpt><trkpt lat="30.295257463592897" lon="-6.657483504968717"><ele>1033.0</ele><time>2026-03-22T14:50:20.922Z</time></trkpt><trkpt lat="30.29527526667293" lon="-6.657558890039409"><ele>1032.6666666666667</ele><time>2026-03-22T14:50:21.922Z</time></trkpt><trkpt lat="30.295320316294404" lon="-6.657685402972712"><ele>1032.3333333333333</ele><time>2026-03-22T14:50:23.922Z</time></trkpt><trkpt lat="30.29534006551067" lon="-6.657763412664307"><ele>1032.0</ele><time>2026-03-22T14:50:24.922Z</time></trkpt><trkpt lat="30.295336817161466" lon="-6.657910511797778"><ele>1031.2</ele><time>2026-03-22T14:50:26.922Z</time></trkpt><trkpt lat="30.295327728337117" lon="-6.65804035781071"><ele>1030.4</ele><time>2026-03-22T14:50:28.922Z</time></trkpt><trkpt lat="30.29531771356603" lon="-6.658187364160423"><ele>1029.6</ele><time>2026-03-22T14:50:30.922Z</time></trkpt><trkpt lat="30.295291034549606" lon="-6.658270418850943"><ele>1028.8</ele><time>2026-03-22T14:50:31.922Z</time></trkpt><trkpt lat="30.295266336444158" lon="-6.658363365025344"><ele>1028.0</ele><time>2026-03-22T14:50:32.922Z</time></trkpt><trkpt lat="30.295239542942028" lon="-6.658455938902084"><ele>1028.0</ele><time>2026-03-22T14:50:33.922Z</time></trkpt><trkpt lat="30.295210897634675" lon="-6.658570810167141"><ele>1028.0</ele><time>2026-03-22T14:50:34.922Z</time></trkpt><trkpt lat="30.295193993351923" lon="-6.658689854722642"><ele>1028.0</ele><time>2026-03-22T14:50:35.922Z</time></trkpt><trkpt lat="30.29517665860367" lon="-6.658769456957849"><ele>1028.0</ele><time>2026-03-22T14:50:36.922Z</time></trkpt><trkpt lat="30.295147556442547" lon="-6.658896558663292"><ele>1028.0</ele><time>2026-03-22T14:50:38.922Z</time></trkpt><trkpt lat="30.29510998927802" lon="-6.659031038499254"><ele>1027.8333333333335</ele><time>2026-03-22T14:50:40.922Z</time></trkpt><trkpt lat="30.295060356901693" lon="-6.659093704302416"><ele>1027.6666666666667</ele><time>2026-03-22T14:50:41.922Z</time></trkpt><trkpt lat="30.29498348938333" lon="-6.659182197102909"><ele>1027.5</ele><time>2026-03-22T14:50:42.922Z</time></trkpt><trkpt lat="30.294931642710605" lon="-6.659248124580777"><ele>1027.3333333333333</ele><time>2026-03-22T14:50:43.922Z</time></trkpt><trkpt lat="30.294839369530713" lon="-6.659329189102861"><ele>1027.1666666666665</ele><time>2026-03-22T14:50:45.922Z</time></trkpt><trkpt lat="30.294795183787514" lon="-6.659383024166969"><ele>1027.0</ele><time>2026-03-22T14:50:46.922Z</time></trkpt><trkpt lat="30.294747019564223" lon="-6.659457465835859"><ele>1027.0</ele><time>2026-03-22T14:50:47.922Z</time></trkpt><trkpt lat="30.294705321676716" lon="-6.659583297680702"><ele>1027.0</ele><time>2026-03-22T14:50:49.922Z</time></trkpt><trkpt lat="30.294667945887312" lon="-6.659722030157956"><ele>1027.0</ele><time>2026-03-22T14:50:51.922Z</time></trkpt><trkpt lat="30.29464912369697" lon="-6.659801919959967"><ele>1027.0</ele><time>2026-03-22T14:50:52.922Z</time></trkpt><trkpt lat="30.294642875943747" lon="-6.659879705206482"><ele>1027.0</ele><time>2026-03-22T14:50:53.922Z</time></trkpt><trkpt lat="30.29463826652496" lon="-6.659957684076843"><ele>1027.0</ele><time>2026-03-22T14:50:54.922Z</time></trkpt><trkpt lat="30.29463486547802" lon="-6.660037534020747"><ele>1027.0</ele><time>2026-03-22T14:50:55.922Z</time></trkpt><trkpt lat="30.294624392492516" lon="-6.6601114349672725"><ele>1027.0</ele><time>2026-03-22T14:50:56.922Z</time></trkpt><trkpt lat="30.294597757162634" lon="-6.660178409852575"><ele>1027.0</ele><time>2026-03-22T14:50:57.922Z</time></trkpt><trkpt lat="30.294557961978185" lon="-6.660294953803833"><ele>1027.0</ele><time>2026-03-22T14:50:59.922Z</time></trkpt><trkpt lat="30.29454924086033" lon="-6.660395261291998"><ele>1027.0</ele><time>2026-03-22T14:51:01.922Z</time></trkpt><trkpt lat="30.294534706042576" lon="-6.660514964126127"><ele>1027.0</ele><time>2026-03-22T14:51:03.922Z</time></trkpt><trkpt lat="30.29454626409404" lon="-6.6606262328536525"><ele>1026.8333333333333</ele><time>2026-03-22T14:51:05.922Z</time></trkpt><trkpt lat="30.294560717353825" lon="-6.66074202433684"><ele>1026.6666666666665</ele><time>2026-03-22T14:51:07.922Z</time></trkpt><trkpt lat="30.294602236585753" lon="-6.660872448100935"><ele>1026.5</ele><time>2026-03-22T14:51:09.922Z</time></trkpt><trkpt lat="30.294634988871493" lon="-6.660939264580212"><ele>1026.3333333333333</ele><time>2026-03-22T14:51:10.922Z</time></trkpt><trkpt lat="30.294661849133135" lon="-6.66100886570768"><ele>1026.1666666666667</ele><time>2026-03-22T14:51:11.922Z</time></trkpt><trkpt lat="30.294674889545945" lon="-6.6610852300456065"><ele>1026.0</ele><time>2026-03-22T14:51:12.922Z</time></trkpt><trkpt lat="30.294695941938024" lon="-6.661210879616881"><ele>1025.3999999999999</ele><time>2026-03-22T14:51:14.922Z</time></trkpt><trkpt lat="30.29470972990826" lon="-6.661355005838006"><ele>1024.8</ele><time>2026-03-22T14:51:16.922Z</time></trkpt><trkpt lat="30.29473602652076" lon="-6.661444757705084"><ele>1024.1999999999998</ele><time>2026-03-22T14:51:17.922Z</time></trkpt><trkpt lat="30.29477200963236" lon="-6.661525634907674"><ele>1023.5999999999999</ele><time>2026-03-22T14:51:18.922Z</time></trkpt><trkpt lat="30.294805460655933" lon="-6.661614163513191"><ele>1023.0</ele><time>2026-03-22T14:51:19.922Z</time></trkpt><trkpt lat="30.294841421546536" lon="-6.66172008041107"><ele>1021.5999999999999</ele><time>2026-03-22T14:51:20.922Z</time></trkpt><trkpt lat="30.294879862743564" lon="-6.661854306237627"><ele>1020.1999999999999</ele><time>2026-03-22T14:51:21.922Z</time></trkpt><trkpt lat="30.2949160113923" lon="-6.6619661389628275"><ele>1018.8</ele><time>2026-03-22T14:51:22.922Z</time></trkpt><trkpt lat="30.294953683931922" lon="-6.662077069419632"><ele>1017.4</ele><time>2026-03-22T14:51:23.922Z</time></trkpt><trkpt lat="30.294983283871776" lon="-6.662179544582268"><ele>1016.0</ele><time>2026-03-22T14:51:24.922Z</time></trkpt><trkpt lat="30.29500363955524" lon="-6.662290757679324"><ele>1015.5999999999999</ele><time>2026-03-22T14:51:25.922Z</time></trkpt><trkpt lat="30.295018674184465" lon="-6.662428340793352"><ele>1015.1999999999999</ele><time>2026-03-22T14:51:26.922Z</time></trkpt><trkpt lat="30.29503275664726" lon="-6.662566372766443"><ele>1014.8000000000001</ele><time>2026-03-22T14:51:27.922Z</time></trkpt><trkpt lat="30.295051520860266" lon="-6.662690418439702"><ele>1014.4000000000001</ele><time>2026-03-22T14:51:28.922Z</time></trkpt><trkpt lat="30.295056568242313" lon="-6.662791393949467"><ele>1014.0</ele><time>2026-03-22T14:51:29.922Z</time></trkpt><trkpt lat="30.295056032336003" lon="-6.662870575332883"><ele>1014.0</ele><time>2026-03-22T14:51:30.922Z</time></trkpt><trkpt lat="30.295046337264658" lon="-6.662957717037321"><ele>1014.0000000000001</ele><time>2026-03-22T14:51:31.922Z</time></trkpt><trkpt lat="30.29503273454209" lon="-6.663058389725139"><ele>1014.0000000000001</ele><time>2026-03-22T14:51:32.922Z</time></trkpt><trkpt lat="30.29503086637199" lon="-6.6631807477934775"><ele>1014.0</ele><time>2026-03-22T14:51:33.922Z</time></trkpt><trkpt lat="30.29502833856536" lon="-6.663290478149435"><ele>1014.0</ele><time>2026-03-22T14:51:34.922Z</time></trkpt><trkpt lat="30.2950223109083" lon="-6.663414762260965"><ele>1014.0</ele><time>2026-03-22T14:51:35.922Z</time></trkpt><trkpt lat="30.295018220344975" lon="-6.663530830443562"><ele>1014.0</ele><time>2026-03-22T14:51:36.922Z</time></trkpt><trkpt lat="30.295011007741792" lon="-6.663651943434089"><ele>1014.0</ele><time>2026-03-22T14:51:37.922Z</time></trkpt><trkpt lat="30.2949965389994" lon="-6.663752779459805"><ele>1014.0</ele><time>2026-03-22T14:51:38.922Z</time></trkpt><trkpt lat="30.294999073165226" lon="-6.663843686795466"><ele>1014.0</ele><time>2026-03-22T14:51:39.922Z</time></trkpt><trkpt lat="30.294999327352954" lon="-6.663918472548404"><ele>1014.0</ele><time>2026-03-22T14:51:40.922Z</time></trkpt><trkpt lat="30.294991962832558" lon="-6.663994184998529"><ele>1013.0</ele><time>2026-03-22T14:51:41.922Z</time></trkpt><trkpt lat="30.294981009170396" lon="-6.664069755052103"><ele>1012.0000000000001</ele><time>2026-03-22T14:51:42.922Z</time></trkpt><trkpt lat="30.294962656222953" lon="-6.664209250933268"><ele>1011.0000000000001</ele><time>2026-03-22T14:51:44.922Z</time></trkpt><trkpt lat="30.29493214642815" lon="-6.664350826144402"><ele>1010.0</ele><time>2026-03-22T14:51:46.922Z</time></trkpt><trkpt lat="30.29488333628069" lon="-6.664477022749595"><ele>1009.0</ele><time>2026-03-22T14:51:48.922Z</time></trkpt><trkpt lat="30.294836676105877" lon="-6.6646091425437355"><ele>1008.4999999999999</ele><time>2026-03-22T14:51:50.922Z</time></trkpt><trkpt lat="30.29482010985204" lon="-6.664691655337046"><ele>1008.0</ele><time>2026-03-22T14:51:51.922Z</time></trkpt><trkpt lat="30.294810106224553" lon="-6.664771277365702"><ele>1007.5</ele><time>2026-03-22T14:51:52.922Z</time></trkpt><trkpt lat="30.29479113427586" lon="-6.664847723099611"><ele>1007.0</ele><time>2026-03-22T14:51:53.923Z</time></trkpt><trkpt lat="30.294763395968545" lon="-6.6649830892880955"><ele>1006.4999999999999</ele><time>2026-03-22T14:51:55.922Z</time></trkpt><trkpt lat="30.29473958096376" lon="-6.6650550499075685"><ele>1006.0</ele><time>2026-03-22T14:51:56.922Z</time></trkpt><trkpt lat="30.294694544391643" lon="-6.665124761604267"><ele>1005.8571428571429</ele><time>2026-03-22T14:51:57.922Z</time></trkpt><trkpt lat="30.294645045297173" lon="-6.665185814906802"><ele>1005.7142857142858</ele><time>2026-03-22T14:51:58.922Z</time></trkpt><trkpt lat="30.294578006762105" lon="-6.665230677382562"><ele>1005.5714285714287</ele><time>2026-03-22T14:51:59.922Z</time></trkpt><trkpt lat="30.294521608481006" lon="-6.665286545704225"><ele>1005.4285714285716</ele><time>2026-03-22T14:52:00.922Z</time></trkpt><trkpt lat="30.29447558201994" lon="-6.665356798026111"><ele>1005.2857142857143</ele><time>2026-03-22T14:52:01.922Z</time></trkpt><trkpt lat="30.294442492862327" lon="-6.6654350655250125"><ele>1005.1428571428573</ele><time>2026-03-22T14:52:02.922Z</time></trkpt><trkpt lat="30.294422968367133" lon="-6.665511847249436"><ele>1005.0000000000001</ele><time>2026-03-22T14:52:03.922Z</time></trkpt><trkpt lat="30.294400936012593" lon="-6.665594511825336"><ele>1005.0</ele><time>2026-03-22T14:52:04.922Z</time></trkpt><trkpt lat="30.294368548478168" lon="-6.665686926924564"><ele>1005.0</ele><time>2026-03-22T14:52:05.922Z</time></trkpt><trkpt lat="30.29433347911005" lon="-6.665776377805627"><ele>1005.0</ele><time>2026-03-22T14:52:06.922Z</time></trkpt><trkpt lat="30.29429420333545" lon="-6.665871082782525"><ele>1005.0</ele><time>2026-03-22T14:52:07.922Z</time></trkpt><trkpt lat="30.29425079956899" lon="-6.665966532959025"><ele>1005.0</ele><time>2026-03-22T14:52:08.922Z</time></trkpt><trkpt lat="30.29418767046682" lon="-6.666074273089944"><ele>1005.25</ele><time>2026-03-22T14:52:09.922Z</time></trkpt><trkpt lat="30.294115449785874" lon="-6.6661831257517115"><ele>1005.5</ele><time>2026-03-22T14:52:10.922Z</time></trkpt><trkpt lat="30.294030419121786" lon="-6.666280653131208"><ele>1005.75</ele><time>2026-03-22T14:52:11.922Z</time></trkpt><trkpt lat="30.293961566614914" lon="-6.666392837550511"><ele>1006.0</ele><time>2026-03-22T14:52:12.922Z</time></trkpt><trkpt lat="30.293896895679023" lon="-6.666501350418707"><ele>1006.0</ele><time>2026-03-22T14:52:13.922Z</time></trkpt><trkpt lat="30.293849137349685" lon="-6.666608074584742"><ele>1005.9999999999999</ele><time>2026-03-22T14:52:14.922Z</time></trkpt><trkpt lat="30.293815747352703" lon="-6.666706180820847"><ele>1005.9999999999999</ele><time>2026-03-22T14:52:15.922Z</time></trkpt><trkpt lat="30.29376625220618" lon="-6.666806595366768"><ele>1006.0</ele><time>2026-03-22T14:52:16.922Z</time></trkpt><trkpt lat="30.293714014247048" lon="-6.666903555299801"><ele>1006.0</ele><time>2026-03-22T14:52:17.922Z</time></trkpt><trkpt lat="30.2936625319863" lon="-6.6669918340558025"><ele>1004.4999999999999</ele><time>2026-03-22T14:52:18.922Z</time></trkpt><trkpt lat="30.293615444613568" lon="-6.667073061108886"><ele>1003.0</ele><time>2026-03-22T14:52:19.922Z</time></trkpt><trkpt lat="30.293556321160658" lon="-6.667145355691721"><ele>1001.5</ele><time>2026-03-22T14:52:20.922Z</time></trkpt><trkpt lat="30.293493032771696" lon="-6.6671949063556255"><ele>1000.0</ele><time>2026-03-22T14:52:21.922Z</time></trkpt><trkpt lat="30.29343093935342" lon="-6.667223435105256"><ele>998.4999999999999</ele><time>2026-03-22T14:52:23.922Z</time></trkpt><trkpt lat="30.293384120403587" lon="-6.667311326690904"><ele>997.0</ele><time>2026-03-22T14:52:27.922Z</time></trkpt><trkpt lat="30.293365740137105" lon="-6.667440942195011"><ele>997.0</ele><time>2026-03-22T14:52:29.922Z</time></trkpt><trkpt lat="30.29332110721293" lon="-6.667565232023844"><ele>997.0</ele><time>2026-03-22T14:52:31.922Z</time></trkpt><trkpt lat="30.29326858615637" lon="-6.667693316157155"><ele>997.0</ele><time>2026-03-22T14:52:33.922Z</time></trkpt><trkpt lat="30.293236984570733" lon="-6.667762453357152"><ele>997.0</ele><time>2026-03-22T14:52:34.922Z</time></trkpt><trkpt lat="30.29320057415863" lon="-6.667842136587282"><ele>997.0</ele><time>2026-03-22T14:52:35.922Z</time></trkpt><trkpt lat="30.29316080425529" lon="-6.667913250203163"><ele>996.8</ele><time>2026-03-22T14:52:36.922Z</time></trkpt><trkpt lat="30.29313453809031" lon="-6.667983725339166"><ele>996.6</ele><time>2026-03-22T14:52:37.922Z</time></trkpt><trkpt lat="30.29310810687405" lon="-6.668083620488243"><ele>996.3999999999999</ele><time>2026-03-22T14:52:38.922Z</time></trkpt><trkpt lat="30.293055400877556" lon="-6.668212284687941"><ele>996.1999999999999</ele><time>2026-03-22T14:52:39.922Z</time></trkpt><trkpt lat="30.293014325263897" lon="-6.668345671744654"><ele>996.0</ele><time>2026-03-22T14:52:40.922Z</time></trkpt><trkpt lat="30.29298441169006" lon="-6.668456935555586"><ele>995.5</ele><time>2026-03-22T14:52:41.922Z</time></trkpt><trkpt lat="30.29294998248019" lon="-6.668540251177027"><ele>995.0</ele><time>2026-03-22T14:52:42.922Z</time></trkpt><trkpt lat="30.2929161484866" lon="-6.668617462256861"><ele>994.5</ele><time>2026-03-22T14:52:43.922Z</time></trkpt><trkpt lat="30.292888861254227" lon="-6.66869675544961"><ele>994.0</ele><time>2026-03-22T14:52:44.922Z</time></trkpt><trkpt lat="30.292874401782" lon="-6.668775845831605"><ele>993.5</ele><time>2026-03-22T14:52:45.922Z</time></trkpt><trkpt lat="30.2928592378879" lon="-6.668848944198476"><ele>993.0</ele><time>2026-03-22T14:52:46.922Z</time></trkpt><trkpt lat="30.292793906426915" lon="-6.668981118314056"><ele>992.6666666666666</ele><time>2026-03-22T14:52:48.922Z</time></trkpt><trkpt lat="30.292769836637632" lon="-6.66905735499596"><ele>992.3333333333333</ele><time>2026-03-22T14:52:49.922Z</time></trkpt><trkpt lat="30.292736343214905" lon="-6.669184499501714"><ele>992.0</ele><time>2026-03-22T14:52:51.922Z</time></trkpt><trkpt lat="30.29267554441126" lon="-6.66923366737602"><ele>991.6666666666666</ele><time>2026-03-22T14:52:53.922Z</time></trkpt><trkpt lat="30.292607564923056" lon="-6.669228177174035"><ele>991.3333333333333</ele><time>2026-03-22T14:52:55.922Z</time></trkpt><trkpt lat="30.2925025144624" lon="-6.669284593728595"><ele>991.0</ele><time>2026-03-22T14:52:57.922Z</time></trkpt><trkpt lat="30.292438586198024" lon="-6.6693262720336355"><ele>990.9999999999999</ele><time>2026-03-22T14:52:58.922Z</time></trkpt><trkpt lat="30.292336248894337" lon="-6.669390725296459"><ele>991.0</ele><time>2026-03-22T14:53:00.922Z</time></trkpt><trkpt lat="30.292273685951276" lon="-6.669414716191855"><ele>991.0</ele><time>2026-03-22T14:53:01.922Z</time></trkpt><trkpt lat="30.29220716182487" lon="-6.669439492706406"><ele>991.0</ele><time>2026-03-22T14:53:02.922Z</time></trkpt><trkpt lat="30.292130015261304" lon="-6.6694773095609605"><ele>990.9999999999999</ele><time>2026-03-22T14:53:03.922Z</time></trkpt><trkpt lat="30.29203650556586" lon="-6.669519924416303"><ele>991.0</ele><time>2026-03-22T14:53:04.922Z</time></trkpt><trkpt lat="30.291943799782302" lon="-6.66956057071414"><ele>990.3333333333333</ele><time>2026-03-22T14:53:05.922Z</time></trkpt><trkpt lat="30.29185896505907" lon="-6.66959978406369"><ele>989.6666666666666</ele><time>2026-03-22T14:53:06.922Z</time></trkpt><trkpt lat="30.291775256643234" lon="-6.669636472210284"><ele>989.0</ele><time>2026-03-22T14:53:07.922Z</time></trkpt><trkpt lat="30.291702307108093" lon="-6.669663661104135"><ele>988.3333333333333</ele><time>2026-03-22T14:53:08.922Z</time></trkpt><trkpt lat="30.29162478550413" lon="-6.669690785189128"><ele>987.6666666666666</ele><time>2026-03-22T14:53:09.922Z</time></trkpt><trkpt lat="30.29156672247768" lon="-6.669722370867084"><ele>987.0</ele><time>2026-03-22T14:53:10.922Z</time></trkpt><trkpt lat="30.29149757763733" lon="-6.669765393237246"><ele>987.0</ele><time>2026-03-22T14:53:11.922Z</time></trkpt><trkpt lat="30.291439838979024" lon="-6.669818724139875"><ele>987.0</ele><time>2026-03-22T14:53:12.922Z</time></trkpt><trkpt lat="30.29138399476319" lon="-6.669877105583466"><ele>987.0</ele><time>2026-03-22T14:53:13.922Z</time></trkpt><trkpt lat="30.29134682710087" lon="-6.669948819709236"><ele>987.0</ele><time>2026-03-22T14:53:14.922Z</time></trkpt><trkpt lat="30.291317739749307" lon="-6.670024398824064"><ele>987.0</ele><time>2026-03-22T14:53:15.922Z</time></trkpt><trkpt lat="30.291308476403948" lon="-6.670104043950749"><ele>987.0</ele><time>2026-03-22T14:53:16.922Z</time></trkpt><trkpt lat="30.291302836268528" lon="-6.670180139250875"><ele>987.0</ele><time>2026-03-22T14:53:17.922Z</time></trkpt><trkpt lat="30.29127724864587" lon="-6.670301433326683"><ele>987.2</ele><time>2026-03-22T14:53:19.922Z</time></trkpt><trkpt lat="30.2912608547383" lon="-6.670398645026381"><ele>987.4000000000001</ele><time>2026-03-22T14:53:21.922Z</time></trkpt><trkpt lat="30.29129251249785" lon="-6.670464242253819"><ele>987.5999999999999</ele><time>2026-03-22T14:53:23.922Z</time></trkpt><trkpt lat="30.291300580761128" lon="-6.670569376571489"><ele>987.8</ele><time>2026-03-22T14:53:25.922Z</time></trkpt><trkpt lat="30.291266751256344" lon="-6.670682162670371"><ele>988.0</ele><time>2026-03-22T14:53:27.922Z</time></trkpt><trkpt lat="30.29125226508244" lon="-6.6708137268001355"><ele>987.9999999999999</ele><time>2026-03-22T14:53:29.922Z</time></trkpt><trkpt lat="30.291241655074398" lon="-6.67092512795228"><ele>988.0</ele><time>2026-03-22T14:53:31.922Z</time></trkpt><trkpt lat="30.29122326850457" lon="-6.670996647621944"><ele>988.0</ele><time>2026-03-22T14:53:33.922Z</time></trkpt><trkpt lat="30.291187486061386" lon="-6.671119038318891"><ele>988.0</ele><time>2026-03-22T14:53:35.922Z</time></trkpt><trkpt lat="30.291200871175942" lon="-6.671197348391614"><ele>987.9999999999999</ele><time>2026-03-22T14:53:36.922Z</time></trkpt><trkpt lat="30.291218250487674" lon="-6.671301160383408"><ele>988.0</ele><time>2026-03-22T14:53:37.922Z</time></trkpt><trkpt lat="30.29121856098048" lon="-6.671413414014861"><ele>987.5999999999999</ele><time>2026-03-22T14:53:38.922Z</time></trkpt><trkpt lat="30.291219327625882" lon="-6.671531030253346"><ele>987.1999999999999</ele><time>2026-03-22T14:53:39.922Z</time></trkpt><trkpt lat="30.291211123188788" lon="-6.671640883417536"><ele>986.8</ele><time>2026-03-22T14:53:40.922Z</time></trkpt><trkpt lat="30.291187467136023" lon="-6.671719901267278"><ele>986.4</ele><time>2026-03-22T14:53:41.922Z</time></trkpt><trkpt lat="30.291152682098733" lon="-6.671807920638673"><ele>986.0</ele><time>2026-03-22T14:53:42.922Z</time></trkpt><trkpt lat="30.291110566376524" lon="-6.671912904300693"><ele>985.4</ele><time>2026-03-22T14:53:43.922Z</time></trkpt><trkpt lat="30.291081746134115" lon="-6.672018366984855"><ele>984.8</ele><time>2026-03-22T14:53:44.922Z</time></trkpt><trkpt lat="30.29105338125771" lon="-6.672128741854315"><ele>984.1999999999999</ele><time>2026-03-22T14:53:45.922Z</time></trkpt><trkpt lat="30.29100479124744" lon="-6.672245854460177"><ele>983.5999999999999</ele><time>2026-03-22T14:53:46.922Z</time></trkpt><trkpt lat="30.29095414639254" lon="-6.672355093797545"><ele>983.0</ele><time>2026-03-22T14:53:47.922Z</time></trkpt><trkpt lat="30.290912259323342" lon="-6.67246114211342"><ele>983.0</ele><time>2026-03-22T14:53:48.922Z</time></trkpt><trkpt lat="30.290859690278573" lon="-6.672573464507589"><ele>983.0</ele><time>2026-03-22T14:53:49.922Z</time></trkpt><trkpt lat="30.29080615373957" lon="-6.672685116962994"><ele>983.0</ele><time>2026-03-22T14:53:50.922Z</time></trkpt><trkpt lat="30.290762335520895" lon="-6.672792352162234"><ele>983.0</ele><time>2026-03-22T14:53:51.922Z</time></trkpt><trkpt lat="30.29071930549543" lon="-6.672897902840664"><ele>983.0</ele><time>2026-03-22T14:53:52.922Z</time></trkpt><trkpt lat="30.290683837836742" lon="-6.673007409117371"><ele>983.5999999999999</ele><time>2026-03-22T14:53:53.922Z</time></trkpt><trkpt lat="30.29063603400006" lon="-6.673096334738308"><ele>984.1999999999999</ele><time>2026-03-22T14:53:54.922Z</time></trkpt><trkpt lat="30.290574845337687" lon="-6.673197054162898"><ele>984.8</ele><time>2026-03-22T14:53:55.922Z</time></trkpt><trkpt lat="30.29052754364126" lon="-6.673307086693221"><ele>985.4</ele><time>2026-03-22T14:53:56.922Z</time></trkpt><trkpt lat="30.290489629939884" lon="-6.673407578925215"><ele>986.0</ele><time>2026-03-22T14:53:57.922Z</time></trkpt><trkpt lat="30.290455896010126" lon="-6.673519093839516"><ele>984.4</ele><time>2026-03-22T14:53:58.922Z</time></trkpt><trkpt lat="30.290437671906684" lon="-6.67363196089563"><ele>982.8</ele><time>2026-03-22T14:53:59.921Z</time></trkpt><trkpt lat="30.290411605608305" lon="-6.673738361652088"><ele>981.1999999999999</ele><time>2026-03-22T14:54:00.921Z</time></trkpt><trkpt lat="30.290382526606997" lon="-6.673838570016774"><ele>979.5999999999999</ele><time>2026-03-22T14:54:01.922Z</time></trkpt><trkpt lat="30.29035058701932" lon="-6.673924924085008"><ele>978.0</ele><time>2026-03-22T14:54:02.921Z</time></trkpt><trkpt lat="30.29032882501327" lon="-6.6740246104792496"><ele>978.0</ele><time>2026-03-22T14:54:03.921Z</time></trkpt><trkpt lat="30.29032270879202" lon="-6.674110444260208"><ele>978.0</ele><time>2026-03-22T14:54:04.922Z</time></trkpt><trkpt lat="30.290325247957327" lon="-6.674215109167602"><ele>978.0</ele><time>2026-03-22T14:54:05.921Z</time></trkpt><trkpt lat="30.290330635560466" lon="-6.674317411289966"><ele>978.0</ele><time>2026-03-22T14:54:06.921Z</time></trkpt><trkpt lat="30.29031952514783" lon="-6.674411053793393"><ele>978.0</ele><time>2026-03-22T14:54:07.922Z</time></trkpt><trkpt lat="30.2903009623711" lon="-6.674484851058814"><ele>978.0</ele><time>2026-03-22T14:54:08.921Z</time></trkpt><trkpt lat="30.29026951693619" lon="-6.67454854043274"><ele>977.1666666666666</ele><time>2026-03-22T14:54:09.921Z</time></trkpt><trkpt lat="30.29024544334679" lon="-6.6746295474906585"><ele>976.3333333333333</ele><time>2026-03-22T14:54:10.921Z</time></trkpt><trkpt lat="30.290242400658475" lon="-6.674721044454336"><ele>975.5</ele><time>2026-03-22T14:54:11.921Z</time></trkpt><trkpt lat="30.290221092935326" lon="-6.6748011265503076"><ele>974.6666666666666</ele><time>2026-03-22T14:54:12.921Z</time></trkpt><trkpt lat="30.29015441635684" lon="-6.674879465393143"><ele>973.8333333333333</ele><time>2026-03-22T14:54:13.921Z</time></trkpt><trkpt lat="30.290093636786708" lon="-6.674949801608669"><ele>973.0</ele><time>2026-03-22T14:54:14.921Z</time></trkpt><trkpt lat="30.290054693404198" lon="-6.67503924441711"><ele>973.0</ele><time>2026-03-22T14:54:15.921Z</time></trkpt><trkpt lat="30.290016621645428" lon="-6.675137648847954"><ele>973.0</ele><time>2026-03-22T14:54:16.921Z</time></trkpt><trkpt lat="30.289977663815403" lon="-6.675228343288869"><ele>973.0</ele><time>2026-03-22T14:54:17.921Z</time></trkpt><trkpt lat="30.289940536505146" lon="-6.675331654293011"><ele>973.0</ele><time>2026-03-22T14:54:18.921Z</time></trkpt><trkpt lat="30.289888758816573" lon="-6.675438712926972"><ele>973.0</ele><time>2026-03-22T14:54:19.921Z</time></trkpt><trkpt lat="30.28984473534883" lon="-6.675518955483188"><ele>972.8333333333333</ele><time>2026-03-22T14:54:20.921Z</time></trkpt><trkpt lat="30.289802268820683" lon="-6.67559384638289"><ele>972.6666666666666</ele><time>2026-03-22T14:54:21.921Z</time></trkpt><trkpt lat="30.289763031599666" lon="-6.67567791259321"><ele>972.5</ele><time>2026-03-22T14:54:22.921Z</time></trkpt><trkpt lat="30.289737196565717" lon="-6.675764001127737"><ele>972.3333333333333</ele><time>2026-03-22T14:54:23.921Z</time></trkpt><trkpt lat="30.289712887652772" lon="-6.675841737282673"><ele>972.1666666666666</ele><time>2026-03-22T14:54:24.921Z</time></trkpt><trkpt lat="30.289669783547907" lon="-6.675929948361651"><ele>972.0</ele><time>2026-03-22T14:54:25.921Z</time></trkpt><trkpt lat="30.289623394206654" lon="-6.676014054419304"><ele>971.5</ele><time>2026-03-22T14:54:26.921Z</time></trkpt><trkpt lat="30.289589265416414" lon="-6.676092519248991"><ele>971.0</ele><time>2026-03-22T14:54:27.921Z</time></trkpt><trkpt lat="30.289571941816835" lon="-6.67618396699369"><ele>970.5</ele><time>2026-03-22T14:54:28.921Z</time></trkpt><trkpt lat="30.289564506538362" lon="-6.676283803116195"><ele>970.0</ele><time>2026-03-22T14:54:29.921Z</time></trkpt><trkpt lat="30.289564126018544" lon="-6.6763745804036585"><ele>969.5</ele><time>2026-03-22T14:54:30.921Z</time></trkpt><trkpt lat="30.289556131428398" lon="-6.676497170502055"><ele>969.0</ele><time>2026-03-22T14:54:32.921Z</time></trkpt><trkpt lat="30.28954670873185" lon="-6.676636117483646"><ele>969.0</ele><time>2026-03-22T14:54:34.921Z</time></trkpt><trkpt lat="30.289555903264205" lon="-6.676767639690828"><ele>969.0000000000001</ele><time>2026-03-22T14:54:36.921Z</time></trkpt><trkpt lat="30.289563982259477" lon="-6.6769003327730845"><ele>969.0000000000001</ele><time>2026-03-22T14:54:38.921Z</time></trkpt><trkpt lat="30.289519951538445" lon="-6.677004578928456"><ele>969.0</ele><time>2026-03-22T14:54:40.921Z</time></trkpt><trkpt lat="30.289425685362396" lon="-6.67706845956703"><ele>969.0</ele><time>2026-03-22T14:54:42.921Z</time></trkpt><trkpt lat="30.28940216569856" lon="-6.677156014604051"><ele>968.6666666666666</ele><time>2026-03-22T14:54:43.921Z</time></trkpt><trkpt lat="30.28939552673706" lon="-6.677240557099917"><ele>968.3333333333333</ele><time>2026-03-22T14:54:44.921Z</time></trkpt><trkpt lat="30.289398260023702" lon="-6.677336419805524"><ele>968.0</ele><time>2026-03-22T14:54:45.921Z</time></trkpt><trkpt lat="30.289396934350208" lon="-6.677421516172812"><ele>967.6666666666666</ele><time>2026-03-22T14:54:46.921Z</time></trkpt><trkpt lat="30.289369120764093" lon="-6.677508997211689"><ele>967.3333333333333</ele><time>2026-03-22T14:54:47.921Z</time></trkpt><trkpt lat="30.28931398434467" lon="-6.6775756708782135"><ele>967.0</ele><time>2026-03-22T14:54:48.921Z</time></trkpt><trkpt lat="30.28926007706726" lon="-6.6776447585391105"><ele>966.9999999999999</ele><time>2026-03-22T14:54:49.921Z</time></trkpt><trkpt lat="30.289182798551344" lon="-6.677762858628429"><ele>967.0</ele><time>2026-03-22T14:54:51.921Z</time></trkpt><trkpt lat="30.289146510020544" lon="-6.677831116882889"><ele>967.0</ele><time>2026-03-22T14:54:52.921Z</time></trkpt><trkpt lat="30.28910887163241" lon="-6.677900147448315"><ele>967.0</ele><time>2026-03-22T14:54:53.921Z</time></trkpt><trkpt lat="30.2890705721256" lon="-6.677971838680485"><ele>966.9999999999999</ele><time>2026-03-22T14:54:54.921Z</time></trkpt><trkpt lat="30.289032924465083" lon="-6.6780469379449166"><ele>967.0</ele><time>2026-03-22T14:54:55.921Z</time></trkpt><trkpt lat="30.288990843689056" lon="-6.678122403305204"><ele>966.6</ele><time>2026-03-22T14:54:56.921Z</time></trkpt><trkpt lat="30.288935494829044" lon="-6.67819512416793"><ele>966.2</ele><time>2026-03-22T14:54:57.921Z</time></trkpt><trkpt lat="30.288858777240915" lon="-6.678249230409999"><ele>965.8</ele><time>2026-03-22T14:54:58.921Z</time></trkpt><trkpt lat="30.288791729640614" lon="-6.6783138330100416"><ele>965.4</ele><time>2026-03-22T14:54:59.921Z</time></trkpt><trkpt lat="30.2887294803435" lon="-6.678385805055676"><ele>965.0</ele><time>2026-03-22T14:55:00.921Z</time></trkpt><trkpt lat="30.288653034203136" lon="-6.6785000295123895"><ele>964.8333333333334</ele><time>2026-03-22T14:55:01.921Z</time></trkpt><trkpt lat="30.288587838390185" lon="-6.678612578892536"><ele>964.6666666666667</ele><time>2026-03-22T14:55:02.921Z</time></trkpt><trkpt lat="30.288532706656525" lon="-6.678687520293613"><ele>964.5</ele><time>2026-03-22T14:55:03.921Z</time></trkpt><trkpt lat="30.288482879163677" lon="-6.678773565826894"><ele>964.3333333333333</ele><time>2026-03-22T14:55:04.921Z</time></trkpt><trkpt lat="30.288437138863113" lon="-6.67882678269865"><ele>964.1666666666666</ele><time>2026-03-22T14:55:05.921Z</time></trkpt><trkpt lat="30.28836640132773" lon="-6.678883003408294"><ele>964.0</ele><time>2026-03-22T14:55:07.921Z</time></trkpt><trkpt lat="30.288267041047003" lon="-6.678979411305025"><ele>963.9999999999999</ele><time>2026-03-22T14:55:09.921Z</time></trkpt><trkpt lat="30.288227951692352" lon="-6.679055524001883"><ele>964.0</ele><time>2026-03-22T14:55:10.921Z</time></trkpt><trkpt lat="30.288177727314924" lon="-6.679131546108658"><ele>964.0</ele><time>2026-03-22T14:55:11.921Z</time></trkpt><trkpt lat="30.288124760041534" lon="-6.679217062410874"><ele>964.0</ele><time>2026-03-22T14:55:12.921Z</time></trkpt><trkpt lat="30.288086953835762" lon="-6.679307391154606"><ele>963.9999999999999</ele><time>2026-03-22T14:55:13.921Z</time></trkpt><trkpt lat="30.288065664183314" lon="-6.679401910219978"><ele>964.0</ele><time>2026-03-22T14:55:14.921Z</time></trkpt><trkpt lat="30.28804526452037" lon="-6.679517890642105"><ele>963.0</ele><time>2026-03-22T14:55:15.921Z</time></trkpt><trkpt lat="30.287997817353144" lon="-6.679628955214658"><ele>962.0000000000001</ele><time>2026-03-22T14:55:16.921Z</time></trkpt><trkpt lat="30.28794845366457" lon="-6.679733637288836"><ele>961.0000000000001</ele><time>2026-03-22T14:55:17.921Z</time></trkpt><trkpt lat="30.28791180738368" lon="-6.679816609058291"><ele>960.0</ele><time>2026-03-22T14:55:18.921Z</time></trkpt><trkpt lat="30.287858398613455" lon="-6.679938921280914"><ele>959.0</ele><time>2026-03-22T14:55:20.921Z</time></trkpt><trkpt lat="30.28782123075623" lon="-6.68000764397282"><ele>959.0000000000001</ele><time>2026-03-22T14:55:21.921Z</time></trkpt><trkpt lat="30.287777881629474" lon="-6.680063609074204"><ele>959.0</ele><time>2026-03-22T14:55:22.921Z</time></trkpt><trkpt lat="30.287719835085916" lon="-6.680114746814859"><ele>959.0</ele><time>2026-03-22T14:55:23.921Z</time></trkpt><trkpt lat="30.287660497537203" lon="-6.680170523882532"><ele>959.0</ele><time>2026-03-22T14:55:24.921Z</time></trkpt><trkpt lat="30.287618288237102" lon="-6.680229120380863"><ele>959.0000000000001</ele><time>2026-03-22T14:55:25.921Z</time></trkpt><trkpt lat="30.28756339926135" lon="-6.680338541377065"><ele>959.0</ele><time>2026-03-22T14:55:27.921Z</time></trkpt><trkpt lat="30.287526641328178" lon="-6.680431526477925"><ele>958.6</ele><time>2026-03-22T14:55:29.921Z</time></trkpt><trkpt lat="30.2874619195392" lon="-6.680516567059166"><ele>958.2</ele><time>2026-03-22T14:55:31.921Z</time></trkpt><trkpt lat="30.287416745219826" lon="-6.680644031232626"><ele>957.8000000000001</ele><time>2026-03-22T14:55:33.921Z</time></trkpt><trkpt lat="30.287393604420057" lon="-6.68071897044456"><ele>957.4000000000001</ele><time>2026-03-22T14:55:34.921Z</time></trkpt><trkpt lat="30.287323977371337" lon="-6.680844993672588"><ele>957.0</ele><time>2026-03-22T14:55:36.921Z</time></trkpt><trkpt lat="30.287283368286822" lon="-6.680916966521694"><ele>957.5</ele><time>2026-03-22T14:55:37.921Z</time></trkpt><trkpt lat="30.287244057495133" lon="-6.681002590767894"><ele>958.0</ele><time>2026-03-22T14:55:38.921Z</time></trkpt><trkpt lat="30.287204990647332" lon="-6.681089288324376"><ele>958.5</ele><time>2026-03-22T14:55:39.921Z</time></trkpt><trkpt lat="30.28715453185981" lon="-6.681170944628404"><ele>959.0</ele><time>2026-03-22T14:55:40.921Z</time></trkpt><trkpt lat="30.287104477580563" lon="-6.681244794262501"><ele>959.5</ele><time>2026-03-22T14:55:41.921Z</time></trkpt><trkpt lat="30.287048381307724" lon="-6.68132225716122"><ele>960.0</ele><time>2026-03-22T14:55:42.921Z</time></trkpt><trkpt lat="30.286988802196593" lon="-6.6813946676888225"><ele>958.4</ele><time>2026-03-22T14:55:43.921Z</time></trkpt><trkpt lat="30.286917471769343" lon="-6.681464742862314"><ele>956.8</ele><time>2026-03-22T14:55:44.921Z</time></trkpt><trkpt lat="30.28684296128907" lon="-6.681529028111669"><ele>955.2</ele><time>2026-03-22T14:55:45.921Z</time></trkpt><trkpt lat="30.286769576472192" lon="-6.681601287454407"><ele>953.6</ele><time>2026-03-22T14:55:46.921Z</time></trkpt><trkpt lat="30.286703983871867" lon="-6.681670641268168"><ele>952.0</ele><time>2026-03-22T14:55:47.921Z</time></trkpt><trkpt lat="30.28664117827591" lon="-6.681742537086203"><ele>952.0</ele><time>2026-03-22T14:55:48.921Z</time></trkpt><trkpt lat="30.286573593795023" lon="-6.6818176437122405"><ele>952.0</ele><time>2026-03-22T14:55:49.921Z</time></trkpt><trkpt lat="30.28651470018471" lon="-6.681901464744863"><ele>952.0</ele><time>2026-03-22T14:55:50.921Z</time></trkpt><trkpt lat="30.286468523470056" lon="-6.681984357505948"><ele>952.0</ele><time>2026-03-22T14:55:51.921Z</time></trkpt><trkpt lat="30.286413740549296" lon="-6.68207152377724"><ele>952.0</ele><time>2026-03-22T14:55:52.921Z</time></trkpt><trkpt lat="30.286353342380604" lon="-6.682149930374216"><ele>952.6</ele><time>2026-03-22T14:55:53.921Z</time></trkpt><trkpt lat="30.286292198177676" lon="-6.682222066584694"><ele>953.2</ele><time>2026-03-22T14:55:54.921Z</time></trkpt><trkpt lat="30.286224602622276" lon="-6.682302249794768"><ele>953.8</ele><time>2026-03-22T14:55:55.921Z</time></trkpt><trkpt lat="30.28616089361571" lon="-6.682374217956278"><ele>954.4</ele><time>2026-03-22T14:55:56.921Z</time></trkpt><trkpt lat="30.286108230618822" lon="-6.682438732046522"><ele>955.0</ele><time>2026-03-22T14:55:57.921Z</time></trkpt><trkpt lat="30.28605194211376" lon="-6.682541960907137"><ele>954.9999999999999</ele><time>2026-03-22T14:55:59.921Z</time></trkpt><trkpt lat="30.286022442893984" lon="-6.682616637479807"><ele>955.0</ele><time>2026-03-22T14:56:01.921Z</time></trkpt><trkpt lat="30.285975502657337" lon="-6.682710602117407"><ele>955.0</ele><time>2026-03-22T14:56:03.921Z</time></trkpt><trkpt lat="30.285887258283527" lon="-6.682780530352644"><ele>955.0</ele><time>2026-03-22T14:56:05.922Z</time></trkpt><trkpt lat="30.28581411962285" lon="-6.682814214348085"><ele>954.9999999999999</ele><time>2026-03-22T14:56:06.922Z</time></trkpt><trkpt lat="30.285750547030776" lon="-6.682843501377576"><ele>955.0</ele><time>2026-03-22T14:56:07.922Z</time></trkpt><trkpt lat="30.28569066694395" lon="-6.682873015281961"><ele>954.3333333333333</ele><time>2026-03-22T14:56:08.922Z</time></trkpt><trkpt lat="30.28558764650978" lon="-6.682933917079165"><ele>953.6666666666666</ele><time>2026-03-22T14:56:10.921Z</time></trkpt><trkpt lat="30.285540556981825" lon="-6.6829878645356064"><ele>953.0</ele><time>2026-03-22T14:56:11.921Z</time></trkpt><trkpt lat="30.285484060833156" lon="-6.6830390798513255"><ele>952.3333333333333</ele><time>2026-03-22T14:56:12.921Z</time></trkpt><trkpt lat="30.285433310759085" lon="-6.6830968529864005"><ele>951.6666666666666</ele><time>2026-03-22T14:56:13.921Z</time></trkpt><trkpt lat="30.285388849281603" lon="-6.683159532732609"><ele>951.0</ele><time>2026-03-22T14:56:14.921Z</time></trkpt><trkpt lat="30.285345476941433" lon="-6.683244187067006"><ele>951.0</ele><time>2026-03-22T14:56:15.921Z</time></trkpt><trkpt lat="30.285302416617775" lon="-6.683317460368954"><ele>951.0</ele><time>2026-03-22T14:56:16.921Z</time></trkpt><trkpt lat="30.285252213432766" lon="-6.6833739754590225"><ele>951.0</ele><time>2026-03-22T14:56:17.921Z</time></trkpt><trkpt lat="30.28520090932517" lon="-6.683422244593861"><ele>951.0</ele><time>2026-03-22T14:56:18.921Z</time></trkpt><trkpt lat="30.28513422158325" lon="-6.6834633661714555"><ele>951.0</ele><time>2026-03-22T14:56:19.921Z</time></trkpt><trkpt lat="30.285052788505343" lon="-6.683519053403315"><ele>951.0</ele><time>2026-03-22T14:56:20.921Z</time></trkpt><trkpt lat="30.284973482413832" lon="-6.683588523739719"><ele>950.0</ele><time>2026-03-22T14:56:21.921Z</time></trkpt><trkpt lat="30.284894298766694" lon="-6.683676820274149"><ele>948.9999999999999</ele><time>2026-03-22T14:56:22.921Z</time></trkpt><trkpt lat="30.28481571898109" lon="-6.683773444288384"><ele>947.9999999999999</ele><time>2026-03-22T14:56:23.921Z</time></trkpt><trkpt lat="30.284743409307225" lon="-6.683858177192963"><ele>947.0</ele><time>2026-03-22T14:56:24.921Z</time></trkpt><trkpt lat="30.28468722088001" lon="-6.683934404891391"><ele>946.0</ele><time>2026-03-22T14:56:25.921Z</time></trkpt><trkpt lat="30.28462890178778" lon="-6.68401120125574"><ele>945.9999999999999</ele><time>2026-03-22T14:56:26.921Z</time></trkpt><trkpt lat="30.284564812156336" lon="-6.684085230065918"><ele>946.0</ele><time>2026-03-22T14:56:27.921Z</time></trkpt><trkpt lat="30.284504810234477" lon="-6.684146371924943"><ele>946.0</ele><time>2026-03-22T14:56:28.921Z</time></trkpt><trkpt lat="30.28444050217552" lon="-6.684226751938727"><ele>946.0</ele><time>2026-03-22T14:56:29.921Z</time></trkpt><trkpt lat="30.284382889655035" lon="-6.684300948106867"><ele>945.9999999999999</ele><time>2026-03-22T14:56:30.921Z</time></trkpt><trkpt lat="30.284315147228654" lon="-6.684372587308651"><ele>946.0</ele><time>2026-03-22T14:56:31.921Z</time></trkpt><trkpt lat="30.284238349496288" lon="-6.684420498170329"><ele>945.1999999999999</ele><time>2026-03-22T14:56:32.921Z</time></trkpt><trkpt lat="30.284157631437637" lon="-6.6844582756109"><ele>944.3999999999999</ele><time>2026-03-22T14:56:33.921Z</time></trkpt><trkpt lat="30.28407838113437" lon="-6.6844814454167"><ele>943.6</ele><time>2026-03-22T14:56:34.921Z</time></trkpt><trkpt lat="30.284003133177922" lon="-6.684522319011654"><ele>942.8</ele><time>2026-03-22T14:56:35.921Z</time></trkpt><trkpt lat="30.283913373871563" lon="-6.684601108385884"><ele>942.0</ele><time>2026-03-22T14:56:36.921Z</time></trkpt><trkpt lat="30.28382319085896" lon="-6.684697104647"><ele>942.0</ele><time>2026-03-22T14:56:37.921Z</time></trkpt><trkpt lat="30.2837240039427" lon="-6.684784053725133"><ele>942.0</ele><time>2026-03-22T14:56:38.921Z</time></trkpt><trkpt lat="30.283644488897863" lon="-6.684857824020992"><ele>942.0</ele><time>2026-03-22T14:56:39.921Z</time></trkpt><trkpt lat="30.283572867564985" lon="-6.684939271814063"><ele>942.0</ele><time>2026-03-22T14:56:40.921Z</time></trkpt><trkpt lat="30.283502202317944" lon="-6.685020897572119"><ele>942.0</ele><time>2026-03-22T14:56:41.921Z</time></trkpt><trkpt lat="30.28343802906625" lon="-6.6850997286224505"><ele>942.0</ele><time>2026-03-22T14:56:42.921Z</time></trkpt><trkpt lat="30.283375970760865" lon="-6.685194940905672"><ele>942.0</ele><time>2026-03-22T14:56:43.921Z</time></trkpt><trkpt lat="30.283310269756768" lon="-6.685276621158436"><ele>942.0</ele><time>2026-03-22T14:56:44.921Z</time></trkpt><trkpt lat="30.283240355148408" lon="-6.685353941007141"><ele>942.0</ele><time>2026-03-22T14:56:45.921Z</time></trkpt><trkpt lat="30.283169340016382" lon="-6.685430236170275"><ele>942.0</ele><time>2026-03-22T14:56:46.921Z</time></trkpt><trkpt lat="30.283098796999706" lon="-6.6855177620018535"><ele>943.4000000000001</ele><time>2026-03-22T14:56:47.921Z</time></trkpt><trkpt lat="30.28304038139379" lon="-6.685598303146978"><ele>944.8000000000001</ele><time>2026-03-22T14:56:48.921Z</time></trkpt><trkpt lat="30.28299990619483" lon="-6.68570214875956"><ele>946.2</ele><time>2026-03-22T14:56:49.921Z</time></trkpt><trkpt lat="30.28296854140324" lon="-6.685818434503306"><ele>947.6</ele><time>2026-03-22T14:56:50.921Z</time></trkpt><trkpt lat="30.282929186617" lon="-6.685916681127078"><ele>949.0</ele><time>2026-03-22T14:56:51.921Z</time></trkpt><trkpt lat="30.28287878345917" lon="-6.686011580897371"><ele>946.4000000000001</ele><time>2026-03-22T14:56:52.921Z</time></trkpt><trkpt lat="30.28282435577797" lon="-6.686096146735611"><ele>943.8000000000001</ele><time>2026-03-22T14:56:53.921Z</time></trkpt><trkpt lat="30.2827774729999" lon="-6.686191091920669"><ele>941.1999999999999</ele><time>2026-03-22T14:56:54.921Z</time></trkpt><trkpt lat="30.28273714998573" lon="-6.686304295494845"><ele>938.5999999999999</ele><time>2026-03-22T14:56:55.921Z</time></trkpt><trkpt lat="30.28271089243505" lon="-6.686400528208534"><ele>936.0</ele><time>2026-03-22T14:56:56.921Z</time></trkpt><trkpt lat="30.282680287615822" lon="-6.686498905938113"><ele>936.0</ele><time>2026-03-22T14:56:57.921Z</time></trkpt><trkpt lat="30.28265638100227" lon="-6.686586429009561"><ele>936.0</ele><time>2026-03-22T14:56:58.921Z</time></trkpt><trkpt lat="30.282618396163603" lon="-6.68666782953417"><ele>936.0</ele><time>2026-03-22T14:56:59.921Z</time></trkpt><trkpt lat="30.282584808128647" lon="-6.686751574660971"><ele>936.0</ele><time>2026-03-22T14:57:00.921Z</time></trkpt><trkpt lat="30.28254693175272" lon="-6.686836422063077"><ele>936.0</ele><time>2026-03-22T14:57:01.921Z</time></trkpt><trkpt lat="30.282504727629185" lon="-6.686925969161267"><ele>936.0</ele><time>2026-03-22T14:57:02.921Z</time></trkpt><trkpt lat="30.28246281602998" lon="-6.68701107497065"><ele>936.4</ele><time>2026-03-22T14:57:03.921Z</time></trkpt><trkpt lat="30.28242031729009" lon="-6.68711397730768"><ele>936.8</ele><time>2026-03-22T14:57:04.921Z</time></trkpt><trkpt lat="30.282384215444228" lon="-6.687211888197991"><ele>937.1999999999999</ele><time>2026-03-22T14:57:05.921Z</time></trkpt><trkpt lat="30.282351031702557" lon="-6.687309148948482"><ele>937.5999999999999</ele><time>2026-03-22T14:57:06.921Z</time></trkpt><trkpt lat="30.28231732560573" lon="-6.687407274192963"><ele>938.0</ele><time>2026-03-22T14:57:07.921Z</time></trkpt><trkpt lat="30.2822639859384" lon="-6.687496704048886"><ele>938.0000000000001</ele><time>2026-03-22T14:57:08.921Z</time></trkpt><trkpt lat="30.28221200625584" lon="-6.687584466462074"><ele>938.0</ele><time>2026-03-22T14:57:09.921Z</time></trkpt><trkpt lat="30.282175675308697" lon="-6.6876699934380985"><ele>938.0</ele><time>2026-03-22T14:57:10.921Z</time></trkpt><trkpt lat="30.28212997036591" lon="-6.687744823834446"><ele>938.0</ele><time>2026-03-22T14:57:11.921Z</time></trkpt><trkpt lat="30.28208359821972" lon="-6.687821987146476"><ele>938.0000000000001</ele><time>2026-03-22T14:57:12.921Z</time></trkpt><trkpt lat="30.282037143584628" lon="-6.687890526930777"><ele>938.0</ele><time>2026-03-22T14:57:13.921Z</time></trkpt><trkpt lat="30.28199218929368" lon="-6.687961947312107"><ele>936.8333333333334</ele><time>2026-03-22T14:57:14.921Z</time></trkpt><trkpt lat="30.281935641015217" lon="-6.688027514644802"><ele>935.6666666666667</ele><time>2026-03-22T14:57:15.921Z</time></trkpt><trkpt lat="30.281883424917005" lon="-6.688073698688371"><ele>934.5</ele><time>2026-03-22T14:57:16.921Z</time></trkpt><trkpt lat="30.281785280223442" lon="-6.688146865191505"><ele>933.3333333333333</ele><time>2026-03-22T14:57:18.921Z</time></trkpt><trkpt lat="30.281726872754668" lon="-6.6882045045127"><ele>932.1666666666666</ele><time>2026-03-22T14:57:19.921Z</time></trkpt><trkpt lat="30.281668534297594" lon="-6.688266027565672"><ele>931.0</ele><time>2026-03-22T14:57:20.921Z</time></trkpt><trkpt lat="30.281621353144185" lon="-6.688342820241014"><ele>930.9999999999999</ele><time>2026-03-22T14:57:21.921Z</time></trkpt><trkpt lat="30.28157959170582" lon="-6.688427965580512"><ele>931.0</ele><time>2026-03-22T14:57:22.921Z</time></trkpt><trkpt lat="30.281547750401373" lon="-6.688506032262798"><ele>931.0</ele><time>2026-03-22T14:57:23.921Z</time></trkpt><trkpt lat="30.281528297357642" lon="-6.688585437310087"><ele>931.0</ele><time>2026-03-22T14:57:24.921Z</time></trkpt><trkpt lat="30.281466155227392" lon="-6.688697554729103"><ele>930.9999999999999</ele><time>2026-03-22T14:57:26.921Z</time></trkpt><trkpt lat="30.281420140479767" lon="-6.688769486969598"><ele>931.0</ele><time>2026-03-22T14:57:27.921Z</time></trkpt><trkpt lat="30.281372637213174" lon="-6.688835167487647"><ele>930.3333333333333</ele><time>2026-03-22T14:57:28.921Z</time></trkpt><trkpt lat="30.281313544773987" lon="-6.688891204265533"><ele>929.6666666666666</ele><time>2026-03-22T14:57:29.921Z</time></trkpt><trkpt lat="30.28120596031464" lon="-6.688977134056395"><ele>929.0</ele><time>2026-03-22T14:57:31.921Z</time></trkpt><trkpt lat="30.28113983030522" lon="-6.689019836131045"><ele>928.3333333333333</ele><time>2026-03-22T14:57:32.921Z</time></trkpt><trkpt lat="30.281081271041234" lon="-6.689073943162846"><ele>927.6666666666666</ele><time>2026-03-22T14:57:33.921Z</time></trkpt><trkpt lat="30.28102506342124" lon="-6.689148515724809"><ele>927.0</ele><time>2026-03-22T14:57:34.921Z</time></trkpt><trkpt lat="30.280984290407552" lon="-6.689205758040911"><ele>927.0</ele><time>2026-03-22T14:57:35.921Z</time></trkpt><trkpt lat="30.280887429556977" lon="-6.6892876501351015"><ele>927.0</ele><time>2026-03-22T14:57:37.921Z</time></trkpt><trkpt lat="30.280794359359852" lon="-6.6894003283833054"><ele>927.0</ele><time>2026-03-22T14:57:39.921Z</time></trkpt><trkpt lat="30.280748057567656" lon="-6.689490097546214"><ele>927.0</ele><time>2026-03-22T14:57:40.921Z</time></trkpt><trkpt lat="30.280690857511814" lon="-6.689565238178251"><ele>927.0</ele><time>2026-03-22T14:57:41.921Z</time></trkpt><trkpt lat="30.280629565754275" lon="-6.689621654880608"><ele>926.1666666666666</ele><time>2026-03-22T14:57:42.921Z</time></trkpt><trkpt lat="30.280577176398854" lon="-6.689682752136742"><ele>925.3333333333333</ele><time>2026-03-22T14:57:43.921Z</time></trkpt><trkpt lat="30.280516301858935" lon="-6.689799222286412"><ele>924.5</ele><time>2026-03-22T14:57:45.921Z</time></trkpt><trkpt lat="30.280474391143848" lon="-6.689863868329525"><ele>923.6666666666666</ele><time>2026-03-22T14:57:46.921Z</time></trkpt><trkpt lat="30.28041500310489" lon="-6.689921450772309"><ele>922.8333333333333</ele><time>2026-03-22T14:57:47.921Z</time></trkpt><trkpt lat="30.280353688976483" lon="-6.689977677216204"><ele>922.0</ele><time>2026-03-22T14:57:48.921Z</time></trkpt><trkpt lat="30.28028984512284" lon="-6.6900513726662645"><ele>921.9999999999999</ele><time>2026-03-22T14:57:49.921Z</time></trkpt><trkpt lat="30.280228632190298" lon="-6.690136565454868"><ele>922.0</ele><time>2026-03-22T14:57:50.921Z</time></trkpt><trkpt lat="30.28018257260529" lon="-6.690229805594034"><ele>922.0</ele><time>2026-03-22T14:57:51.921Z</time></trkpt><trkpt lat="30.280154250539752" lon="-6.69032292019019"><ele>922.0</ele><time>2026-03-22T14:57:52.921Z</time></trkpt><trkpt lat="30.28011576365914" lon="-6.690407738600211"><ele>921.9999999999999</ele><time>2026-03-22T14:57:53.921Z</time></trkpt><trkpt lat="30.280064926147617" lon="-6.690465728553695"><ele>922.0</ele><time>2026-03-22T14:57:54.921Z</time></trkpt><trkpt lat="30.280009989650495" lon="-6.690505408220561"><ele>921.6</ele><time>2026-03-22T14:57:55.921Z</time></trkpt><trkpt lat="30.279914101043357" lon="-6.690562434543511"><ele>921.2</ele><time>2026-03-22T14:57:57.921Z</time></trkpt><trkpt lat="30.279845275146222" lon="-6.690651830893839"><ele>920.8</ele><time>2026-03-22T14:57:59.921Z</time></trkpt><trkpt lat="30.279787933123565" lon="-6.69076773935137"><ele>920.4</ele><time>2026-03-22T14:58:01.921Z</time></trkpt><trkpt lat="30.27975642504132" lon="-6.69084884780164"><ele>920.0</ele><time>2026-03-22T14:58:04.921Z</time></trkpt><trkpt lat="30.2797181274825" lon="-6.690916018021049"><ele>919.4</ele><time>2026-03-22T14:59:50.92Z</time></trkpt><trkpt lat="30.2796872866404" lon="-6.691060713634992"><ele>918.8</ele><time>2026-03-22T14:59:52.92Z</time></trkpt><trkpt lat="30.27965459259346" lon="-6.691169516931072"><ele>918.2</ele><time>2026-03-22T14:59:53.92Z</time></trkpt><trkpt lat="30.279605613498838" lon="-6.6912734579042805"><ele>917.6</ele><time>2026-03-22T14:59:54.92Z</time></trkpt><trkpt lat="30.27956626698304" lon="-6.691377377588478"><ele>917.0</ele><time>2026-03-22T14:59:55.92Z</time></trkpt><trkpt lat="30.279552582394704" lon="-6.691468438626482"><ele>916.5000000000001</ele><time>2026-03-22T14:59:56.92Z</time></trkpt><trkpt lat="30.279560848889265" lon="-6.691558828479832"><ele>916.0</ele><time>2026-03-22T14:59:57.92Z</time></trkpt><trkpt lat="30.279567860703526" lon="-6.691656677662332"><ele>915.5</ele><time>2026-03-22T14:59:58.92Z</time></trkpt><trkpt lat="30.279550013766702" lon="-6.691747469516663"><ele>915.0</ele><time>2026-03-22T14:59:59.92Z</time></trkpt><trkpt lat="30.279496382199785" lon="-6.691844985959653"><ele>914.5000000000001</ele><time>2026-03-22T15:00:00.92Z</time></trkpt><trkpt lat="30.279441933050617" lon="-6.691945908862461"><ele>914.0</ele><time>2026-03-22T15:00:01.92Z</time></trkpt><trkpt lat="30.279381983178517" lon="-6.69203625058782"><ele>913.8000000000001</ele><time>2026-03-22T15:00:02.92Z</time></trkpt><trkpt lat="30.279278965144872" lon="-6.692105171127883"><ele>913.6000000000001</ele><time>2026-03-22T15:00:03.92Z</time></trkpt><trkpt lat="30.27917745328861" lon="-6.692150652894164"><ele>913.4</ele><time>2026-03-22T15:00:04.919Z</time></trkpt><trkpt lat="30.27909749213034" lon="-6.692192940260492"><ele>913.2</ele><time>2026-03-22T15:00:05.919Z</time></trkpt><trkpt lat="30.27901637833597" lon="-6.692247757707262"><ele>913.0</ele><time>2026-03-22T15:00:06.919Z</time></trkpt><trkpt lat="30.278940379963853" lon="-6.6923208989676715"><ele>913.0</ele><time>2026-03-22T15:00:07.919Z</time></trkpt><trkpt lat="30.278869345715123" lon="-6.692384628163874"><ele>913.0</ele><time>2026-03-22T15:00:08.919Z</time></trkpt><trkpt lat="30.278800761251322" lon="-6.69245469870214"><ele>913.0</ele><time>2026-03-22T15:00:09.919Z</time></trkpt><trkpt lat="30.278749530825444" lon="-6.69254859506904"><ele>913.0</ele><time>2026-03-22T15:00:10.919Z</time></trkpt><trkpt lat="30.278691406328424" lon="-6.6926538515804195"><ele>913.0</ele><time>2026-03-22T15:00:11.919Z</time></trkpt><trkpt lat="30.278630087267462" lon="-6.6927391248534525"><ele>912.8333333333333</ele><time>2026-03-22T15:00:12.919Z</time></trkpt><trkpt lat="30.27856664496967" lon="-6.692799997154711"><ele>912.6666666666666</ele><time>2026-03-22T15:00:13.919Z</time></trkpt><trkpt lat="30.278509822200935" lon="-6.692871877745281"><ele>912.5</ele><time>2026-03-22T15:00:14.919Z</time></trkpt><trkpt lat="30.27845549615378" lon="-6.692942544664562"><ele>912.3333333333333</ele><time>2026-03-22T15:00:15.919Z</time></trkpt><trkpt lat="30.278401155045845" lon="-6.693014722846949"><ele>912.1666666666666</ele><time>2026-03-22T15:00:16.919Z</time></trkpt><trkpt lat="30.278325655218016" lon="-6.693090315944608"><ele>912.0</ele><time>2026-03-22T15:00:17.919Z</time></trkpt><trkpt lat="30.278241277916" lon="-6.693160145947611"><ele>912.0</ele><time>2026-03-22T15:00:18.919Z</time></trkpt><trkpt lat="30.278176826550503" lon="-6.693243129940452"><ele>912.0</ele><time>2026-03-22T15:00:19.919Z</time></trkpt><trkpt lat="30.27812960640952" lon="-6.693315044651228"><ele>912.0</ele><time>2026-03-22T15:00:20.918Z</time></trkpt><trkpt lat="30.278069039158115" lon="-6.69338701940751"><ele>912.0</ele><time>2026-03-22T15:00:21.918Z</time></trkpt><trkpt lat="30.278003476974284" lon="-6.693450647910927"><ele>912.0</ele><time>2026-03-22T15:00:22.919Z</time></trkpt><trkpt lat="30.277942294206206" lon="-6.693530008420402"><ele>912.0</ele><time>2026-03-22T15:00:23.918Z</time></trkpt><trkpt lat="30.277884612672143" lon="-6.693613887346128"><ele>911.2</ele><time>2026-03-22T15:00:24.918Z</time></trkpt><trkpt lat="30.277820630782273" lon="-6.693702656647604"><ele>910.4000000000001</ele><time>2026-03-22T15:00:25.918Z</time></trkpt><trkpt lat="30.27775002339134" lon="-6.693787072975864"><ele>909.5999999999999</ele><time>2026-03-22T15:00:26.918Z</time></trkpt><trkpt lat="30.277687533161505" lon="-6.693872811085545"><ele>908.8</ele><time>2026-03-22T15:00:27.918Z</time></trkpt><trkpt lat="30.277622518399223" lon="-6.6939502772692565"><ele>908.0</ele><time>2026-03-22T15:00:28.918Z</time></trkpt><trkpt lat="30.277564658227316" lon="-6.6940369798605195"><ele>908.0</ele><time>2026-03-22T15:00:29.918Z</time></trkpt><trkpt lat="30.2775182692612" lon="-6.6941314452956195"><ele>908.0</ele><time>2026-03-22T15:00:30.918Z</time></trkpt><trkpt lat="30.277467454821313" lon="-6.694231013279184"><ele>908.0</ele><time>2026-03-22T15:00:31.918Z</time></trkpt><trkpt lat="30.27740983598807" lon="-6.694320860485524"><ele>908.0</ele><time>2026-03-22T15:00:32.918Z</time></trkpt><trkpt lat="30.277333288041085" lon="-6.6944005827186945"><ele>908.0</ele><time>2026-03-22T15:00:33.918Z</time></trkpt><trkpt lat="30.277249206247312" lon="-6.694468302686787"><ele>906.8</ele><time>2026-03-22T15:00:34.918Z</time></trkpt><trkpt lat="30.27718063333264" lon="-6.694543771808011"><ele>905.5999999999999</ele><time>2026-03-22T15:00:35.918Z</time></trkpt><trkpt lat="30.27712201375768" lon="-6.694620908257742"><ele>904.4000000000001</ele><time>2026-03-22T15:00:36.918Z</time></trkpt><trkpt lat="30.27707542525091" lon="-6.694706821898381"><ele>903.2</ele><time>2026-03-22T15:00:37.918Z</time></trkpt><trkpt lat="30.277039625598352" lon="-6.694796360728685"><ele>902.0</ele><time>2026-03-22T15:00:38.918Z</time></trkpt><trkpt lat="30.277013872392754" lon="-6.6949074228526095"><ele>902.0</ele><time>2026-03-22T15:00:39.918Z</time></trkpt><trkpt lat="30.276999173302162" lon="-6.695012536361878"><ele>902.0</ele><time>2026-03-22T15:00:40.918Z</time></trkpt><trkpt lat="30.276984084510183" lon="-6.695108625931813"><ele>902.0</ele><time>2026-03-22T15:00:41.918Z</time></trkpt><trkpt lat="30.27695375859755" lon="-6.695199302439539"><ele>902.0</ele><time>2026-03-22T15:00:42.918Z</time></trkpt><trkpt lat="30.276899598273342" lon="-6.6952828261277775"><ele>902.0</ele><time>2026-03-22T15:00:43.918Z</time></trkpt><trkpt lat="30.27682372512157" lon="-6.6953739936489844"><ele>902.2</ele><time>2026-03-22T15:00:44.918Z</time></trkpt><trkpt lat="30.276743692411095" lon="-6.695468698042198"><ele>902.4000000000001</ele><time>2026-03-22T15:00:45.918Z</time></trkpt><trkpt lat="30.276662075293583" lon="-6.695549283096671"><ele>902.5999999999999</ele><time>2026-03-22T15:00:46.918Z</time></trkpt><trkpt lat="30.276585843067874" lon="-6.69563248573665"><ele>902.8</ele><time>2026-03-22T15:00:47.918Z</time></trkpt><trkpt lat="30.276516029567176" lon="-6.6957178262149055"><ele>903.0</ele><time>2026-03-22T15:00:48.918Z</time></trkpt><trkpt lat="30.276464263757045" lon="-6.695814881557292"><ele>902.4</ele><time>2026-03-22T15:00:49.918Z</time></trkpt><trkpt lat="30.276413828264523" lon="-6.695910563033965"><ele>901.8</ele><time>2026-03-22T15:00:50.918Z</time></trkpt><trkpt lat="30.276363924318293" lon="-6.696008821447496"><ele>901.2</ele><time>2026-03-22T15:00:51.918Z</time></trkpt><trkpt lat="30.276324146136297" lon="-6.696107852804904"><ele>900.6</ele><time>2026-03-22T15:00:52.918Z</time></trkpt><trkpt lat="30.276269615965198" lon="-6.696199167490559"><ele>900.0</ele><time>2026-03-22T15:00:53.918Z</time></trkpt><trkpt lat="30.276213173176036" lon="-6.6962929313609525"><ele>899.8</ele><time>2026-03-22T15:00:54.918Z</time></trkpt><trkpt lat="30.27615108655628" lon="-6.696377467381073"><ele>899.6</ele><time>2026-03-22T15:00:55.918Z</time></trkpt><trkpt lat="30.276088053257162" lon="-6.6964658921823705"><ele>899.4000000000001</ele><time>2026-03-22T15:00:56.918Z</time></trkpt><trkpt lat="30.276010955780485" lon="-6.696552181172867"><ele>899.2</ele><time>2026-03-22T15:00:57.918Z</time></trkpt><trkpt lat="30.275941168138438" lon="-6.69663988691039"><ele>899.0</ele><time>2026-03-22T15:00:58.918Z</time></trkpt><trkpt lat="30.275878295437472" lon="-6.696725219922845"><ele>899.0</ele><time>2026-03-22T15:00:59.917Z</time></trkpt><trkpt lat="30.275814535048138" lon="-6.6968111416656555"><ele>899.0000000000001</ele><time>2026-03-22T15:01:00.917Z</time></trkpt><trkpt lat="30.275748756118194" lon="-6.696892796557054"><ele>899.0000000000001</ele><time>2026-03-22T15:01:01.917Z</time></trkpt><trkpt lat="30.27566966566536" lon="-6.696971777198452"><ele>899.0</ele><time>2026-03-22T15:01:02.917Z</time></trkpt><trkpt lat="30.27559379911931" lon="-6.697050255167094"><ele>899.0</ele><time>2026-03-22T15:01:03.917Z</time></trkpt><trkpt lat="30.275519661679596" lon="-6.697131898022928"><ele>898.0</ele><time>2026-03-22T15:01:04.917Z</time></trkpt><trkpt lat="30.275439686745404" lon="-6.697216047753625"><ele>897.0</ele><time>2026-03-22T15:01:05.917Z</time></trkpt><trkpt lat="30.27535669461558" lon="-6.697306694887299"><ele>896.0</ele><time>2026-03-22T15:01:06.917Z</time></trkpt><trkpt lat="30.275273309635125" lon="-6.697403508549388"><ele>895.0</ele><time>2026-03-22T15:01:07.917Z</time></trkpt><trkpt lat="30.275197146250285" lon="-6.697501716749888"><ele>895.0</ele><time>2026-03-22T15:01:08.917Z</time></trkpt><trkpt lat="30.275123250912035" lon="-6.697612356657248"><ele>895.0</ele><time>2026-03-22T15:01:09.917Z</time></trkpt><trkpt lat="30.27505262963833" lon="-6.697716592433704"><ele>895.0</ele><time>2026-03-22T15:01:10.917Z</time></trkpt><trkpt lat="30.274974612678808" lon="-6.697811835936342"><ele>895.0</ele><time>2026-03-22T15:01:11.917Z</time></trkpt><trkpt lat="30.27489132818633" lon="-6.697901226081827"><ele>894.6</ele><time>2026-03-22T15:01:12.917Z</time></trkpt><trkpt lat="30.27480359646163" lon="-6.697989257306226"><ele>894.2</ele><time>2026-03-22T15:01:13.917Z</time></trkpt><trkpt lat="30.274726610153316" lon="-6.69807490113771"><ele>893.8</ele><time>2026-03-22T15:01:14.917Z</time></trkpt><trkpt lat="30.274650162293835" lon="-6.69816479215568"><ele>893.4</ele><time>2026-03-22T15:01:15.917Z</time></trkpt><trkpt lat="30.274569453646148" lon="-6.698254638359201"><ele>893.0</ele><time>2026-03-22T15:01:16.917Z</time></trkpt><trkpt lat="30.274482933216962" lon="-6.69834358595845"><ele>892.75</ele><time>2026-03-22T15:01:17.917Z</time></trkpt><trkpt lat="30.274397692257473" lon="-6.69843237193072"><ele>892.5</ele><time>2026-03-22T15:01:18.917Z</time></trkpt><trkpt lat="30.274305412499597" lon="-6.698526965962697"><ele>892.25</ele><time>2026-03-22T15:01:19.917Z</time></trkpt><trkpt lat="30.27421379651927" lon="-6.698622254117995"><ele>892.0</ele><time>2026-03-22T15:01:20.917Z</time></trkpt><trkpt lat="30.27412896798559" lon="-6.698724543162695"><ele>891.25</ele><time>2026-03-22T15:01:21.917Z</time></trkpt><trkpt lat="30.27404551929971" lon="-6.6988133622142145"><ele>890.5</ele><time>2026-03-22T15:01:22.917Z</time></trkpt><trkpt lat="30.273957221252523" lon="-6.69890380820404"><ele>889.75</ele><time>2026-03-22T15:01:23.917Z</time></trkpt><trkpt lat="30.27386878186134" lon="-6.6989973808924885"><ele>889.0</ele><time>2026-03-22T15:01:24.917Z</time></trkpt><trkpt lat="30.273778221357823" lon="-6.69909385537499"><ele>888.5</ele><time>2026-03-22T15:01:25.917Z</time></trkpt><trkpt lat="30.273690086522663" lon="-6.699199511845572"><ele>888.0</ele><time>2026-03-22T15:01:26.917Z</time></trkpt><trkpt lat="30.273601638667788" lon="-6.69931174809803"><ele>887.5</ele><time>2026-03-22T15:01:27.917Z</time></trkpt><trkpt lat="30.273515933568564" lon="-6.699434051130689"><ele>887.0</ele><time>2026-03-22T15:01:28.917Z</time></trkpt><trkpt lat="30.27343140381813" lon="-6.699553070696183"><ele>886.75</ele><time>2026-03-22T15:01:29.917Z</time></trkpt><trkpt lat="30.273343123798703" lon="-6.699659391858812"><ele>886.5</ele><time>2026-03-22T15:01:30.917Z</time></trkpt><trkpt lat="30.273249078727172" lon="-6.699764963191891"><ele>886.25</ele><time>2026-03-22T15:01:31.917Z</time></trkpt><trkpt lat="30.27315870869943" lon="-6.699865696017967"><ele>886.0</ele><time>2026-03-22T15:01:32.917Z</time></trkpt><trkpt lat="30.273063670651453" lon="-6.6999741416591325"><ele>885.5</ele><time>2026-03-22T15:01:33.917Z</time></trkpt><trkpt lat="30.272966675147302" lon="-6.700080211466261"><ele>885.0</ele><time>2026-03-22T15:01:34.917Z</time></trkpt><trkpt lat="30.27287666057651" lon="-6.700181824079886"><ele>884.5</ele><time>2026-03-22T15:01:35.917Z</time></trkpt><trkpt lat="30.27279694472171" lon="-6.700285311970872"><ele>884.0</ele><time>2026-03-22T15:01:36.917Z</time></trkpt><trkpt lat="30.272717599815493" lon="-6.7003898202474454"><ele>883.75</ele><time>2026-03-22T15:01:37.917Z</time></trkpt><trkpt lat="30.272634559668514" lon="-6.700493216580195"><ele>883.5</ele><time>2026-03-22T15:01:38.917Z</time></trkpt><trkpt lat="30.272553867036184" lon="-6.700599341573346"><ele>883.25</ele><time>2026-03-22T15:01:39.917Z</time></trkpt><trkpt lat="30.272468659929462" lon="-6.700704260521741"><ele>883.0</ele><time>2026-03-22T15:01:40.917Z</time></trkpt><trkpt lat="30.272387324722335" lon="-6.700805662736072"><ele>883.0</ele><time>2026-03-22T15:01:41.917Z</time></trkpt><trkpt lat="30.27231025011305" lon="-6.70090803589996"><ele>883.0</ele><time>2026-03-22T15:01:42.917Z</time></trkpt><trkpt lat="30.27223985695694" lon="-6.701011353792409"><ele>883.0</ele><time>2026-03-22T15:01:43.917Z</time></trkpt><trkpt lat="30.27217326547496" lon="-6.701108491451432"><ele>883.0</ele><time>2026-03-22T15:01:44.917Z</time></trkpt><trkpt lat="30.272104207930028" lon="-6.701204664042521"><ele>883.0</ele><time>2026-03-22T15:01:45.917Z</time></trkpt><trkpt lat="30.27203548920382" lon="-6.701298645747616"><ele>882.2</ele><time>2026-03-22T15:01:46.917Z</time></trkpt><trkpt lat="30.27196531486477" lon="-6.701395891535694"><ele>881.4</ele><time>2026-03-22T15:01:47.917Z</time></trkpt><trkpt lat="30.271892302359642" lon="-6.701493492779498"><ele>880.6000000000001</ele><time>2026-03-22T15:01:48.917Z</time></trkpt><trkpt lat="30.271820672192753" lon="-6.701595297776386"><ele>879.8000000000001</ele><time>2026-03-22T15:01:49.917Z</time></trkpt><trkpt lat="30.271747247842452" lon="-6.701692191613462"><ele>879.0</ele><time>2026-03-22T15:01:50.917Z</time></trkpt><trkpt lat="30.271678531007733" lon="-6.70180515864114"><ele>878.4000000000001</ele><time>2026-03-22T15:01:51.917Z</time></trkpt><trkpt lat="30.271610569889344" lon="-6.701916847068197"><ele>877.8000000000001</ele><time>2026-03-22T15:01:52.917Z</time></trkpt><trkpt lat="30.27153539203659" lon="-6.702032917844934"><ele>877.1999999999999</ele><time>2026-03-22T15:01:53.917Z</time></trkpt><trkpt lat="30.271473882559782" lon="-6.702127533249311"><ele>876.5999999999999</ele><time>2026-03-22T15:01:54.917Z</time></trkpt><trkpt lat="30.271405658251144" lon="-6.7022173137041845"><ele>876.0</ele><time>2026-03-22T15:01:55.917Z</time></trkpt><trkpt lat="30.27133527495607" lon="-6.702308100272848"><ele>875.5999999999999</ele><time>2026-03-22T15:01:56.917Z</time></trkpt><trkpt lat="30.271265805301436" lon="-6.702401967911966"><ele>875.1999999999999</ele><time>2026-03-22T15:01:57.917Z</time></trkpt><trkpt lat="30.271195327113464" lon="-6.702502360116809"><ele>874.8000000000001</ele><time>2026-03-22T15:01:58.917Z</time></trkpt><trkpt lat="30.271124852152866" lon="-6.702597299053283"><ele>874.4000000000001</ele><time>2026-03-22T15:01:59.917Z</time></trkpt><trkpt lat="30.271051637903824" lon="-6.702697119884415"><ele>874.0</ele><time>2026-03-22T15:02:00.917Z</time></trkpt><trkpt lat="30.270974927052695" lon="-6.702795183172611"><ele>874.0</ele><time>2026-03-22T15:02:01.917Z</time></trkpt><trkpt lat="30.270909926714435" lon="-6.7028952037496055"><ele>874.0000000000001</ele><time>2026-03-22T15:02:02.917Z</time></trkpt><trkpt lat="30.270844459985472" lon="-6.702993095687741"><ele>874.0000000000001</ele><time>2026-03-22T15:02:03.917Z</time></trkpt><trkpt lat="30.270789543106876" lon="-6.703099524437106"><ele>874.0</ele><time>2026-03-22T15:02:04.917Z</time></trkpt><trkpt lat="30.2707303030509" lon="-6.703218213065972"><ele>874.0</ele><time>2026-03-22T15:02:05.917Z</time></trkpt><trkpt lat="30.270665569260068" lon="-6.703332506377909"><ele>874.0</ele><time>2026-03-22T15:02:06.917Z</time></trkpt><trkpt lat="30.27061098365348" lon="-6.703445325789442"><ele>874.0000000000001</ele><time>2026-03-22T15:02:07.917Z</time></trkpt><trkpt lat="30.270557085922068" lon="-6.703546971944881"><ele>874.0000000000001</ele><time>2026-03-22T15:02:08.917Z</time></trkpt><trkpt lat="30.270492753624307" lon="-6.703646674066119"><ele>874.0</ele><time>2026-03-22T15:02:09.917Z</time></trkpt><trkpt lat="30.270424511228285" lon="-6.703745663515362"><ele>874.0</ele><time>2026-03-22T15:02:10.917Z</time></trkpt><trkpt lat="30.270356002061906" lon="-6.703846844310833"><ele>873.0</ele><time>2026-03-22T15:02:11.917Z</time></trkpt><trkpt lat="30.270285139462032" lon="-6.703947164675874"><ele>872.0000000000001</ele><time>2026-03-22T15:02:12.917Z</time></trkpt><trkpt lat="30.270217995387142" lon="-6.704039461783528"><ele>871.0000000000001</ele><time>2026-03-22T15:02:13.917Z</time></trkpt><trkpt lat="30.27015366406649" lon="-6.7041335272079525"><ele>870.0</ele><time>2026-03-22T15:02:14.917Z</time></trkpt><trkpt lat="30.270081847982652" lon="-6.70423660074063"><ele>869.0</ele><time>2026-03-22T15:02:15.917Z</time></trkpt><trkpt lat="30.270027166722347" lon="-6.7043485172268475"><ele>869.0</ele><time>2026-03-22T15:02:16.917Z</time></trkpt><trkpt lat="30.269984042046023" lon="-6.704456583438059"><ele>869.0000000000001</ele><time>2026-03-22T15:02:17.917Z</time></trkpt><trkpt lat="30.269944317580148" lon="-6.704562933931759"><ele>869.0000000000001</ele><time>2026-03-22T15:02:18.917Z</time></trkpt><trkpt lat="30.269908671866038" lon="-6.704675691709015"><ele>869.0</ele><time>2026-03-22T15:02:19.917Z</time></trkpt><trkpt lat="30.269879799431273" lon="-6.7047953681229355"><ele>869.0</ele><time>2026-03-22T15:02:20.917Z</time></trkpt><trkpt lat="30.2698602004354" lon="-6.704936589369582"><ele>869.0</ele><time>2026-03-22T15:02:21.917Z</time></trkpt><trkpt lat="30.269830798382266" lon="-6.705109830543267"><ele>869.0</ele><time>2026-03-22T15:02:22.917Z</time></trkpt><trkpt lat="30.269784961091958" lon="-6.705290524639294"><ele>869.0</ele><time>2026-03-22T15:02:23.917Z</time></trkpt><trkpt lat="30.269730113752253" lon="-6.705442155571014"><ele>867.75</ele><time>2026-03-22T15:02:24.917Z</time></trkpt><trkpt lat="30.26969727466456" lon="-6.705571540853076"><ele>866.5</ele><time>2026-03-22T15:02:25.917Z</time></trkpt><trkpt lat="30.269652580785905" lon="-6.7057140613885275"><ele>865.25</ele><time>2026-03-22T15:02:26.917Z</time></trkpt><trkpt lat="30.269590627161538" lon="-6.705870811718667"><ele>864.0</ele><time>2026-03-22T15:02:27.917Z</time></trkpt><trkpt lat="30.269544801317195" lon="-6.706023320964994"><ele>863.75</ele><time>2026-03-22T15:02:28.917Z</time></trkpt><trkpt lat="30.269506459184438" lon="-6.70615318140939"><ele>863.5</ele><time>2026-03-22T15:02:29.917Z</time></trkpt><trkpt lat="30.269470711820063" lon="-6.706281447587321"><ele>863.25</ele><time>2026-03-22T15:02:30.917Z</time></trkpt><trkpt lat="30.269433484137753" lon="-6.706420765955065"><ele>863.0</ele><time>2026-03-22T15:02:31.917Z</time></trkpt><trkpt lat="30.26938827084401" lon="-6.706585231245205"><ele>863.0</ele><time>2026-03-22T15:02:32.917Z</time></trkpt><trkpt lat="30.269343870222514" lon="-6.706739603575968"><ele>863.0</ele><time>2026-03-22T15:02:33.917Z</time></trkpt><trkpt lat="30.269299895856566" lon="-6.706889415876376"><ele>863.0</ele><time>2026-03-22T15:02:34.917Z</time></trkpt><trkpt lat="30.269252081925274" lon="-6.707018011126505"><ele>863.0</ele><time>2026-03-22T15:02:35.917Z</time></trkpt><trkpt lat="30.269201592593127" lon="-6.707131764619862"><ele>862.6666666666667</ele><time>2026-03-22T15:02:36.917Z</time></trkpt><trkpt lat="30.269153688484575" lon="-6.70724174861018"><ele>862.3333333333334</ele><time>2026-03-22T15:02:37.917Z</time></trkpt><trkpt lat="30.269108734708816" lon="-6.707336309474456"><ele>862.0</ele><time>2026-03-22T15:02:38.917Z</time></trkpt><trkpt lat="30.26906803608542" lon="-6.707416813385672"><ele>861.6666666666667</ele><time>2026-03-22T15:02:39.917Z</time></trkpt><trkpt lat="30.26904183151243" lon="-6.707507096019307"><ele>861.3333333333334</ele><time>2026-03-22T15:02:40.917Z</time></trkpt><trkpt lat="30.269022527812243" lon="-6.707593297042545"><ele>861.0</ele><time>2026-03-22T15:02:41.917Z</time></trkpt><trkpt lat="30.269011518298523" lon="-6.707668600679253"><ele>861.0</ele><time>2026-03-22T15:02:42.917Z</time></trkpt><trkpt lat="30.269002755395384" lon="-6.707773702840323"><ele>861.0</ele><time>2026-03-22T15:02:44.917Z</time></trkpt><trkpt lat="30.269025619205582" lon="-6.707847222405339"><ele>861.0</ele><time>2026-03-22T15:02:46.917Z</time></trkpt><trkpt lat="30.269066376083952" lon="-6.707926684449896"><ele>861.0</ele><time>2026-03-22T15:02:48.917Z</time></trkpt><trkpt lat="30.269061392385606" lon="-6.708001750781644"><ele>861.0</ele><time>2026-03-22T15:02:50.917Z</time></trkpt><trkpt lat="30.269021643835845" lon="-6.7080736162040955"><ele>861.0</ele><time>2026-03-22T15:02:51.917Z</time></trkpt><trkpt lat="30.268971112819308" lon="-6.708192491844518"><ele>860.75</ele><time>2026-03-22T15:02:52.917Z</time></trkpt><trkpt lat="30.26890298768817" lon="-6.708332967787705"><ele>860.5</ele><time>2026-03-22T15:02:53.917Z</time></trkpt><trkpt lat="30.26883540573581" lon="-6.7084621445531765"><ele>860.25</ele><time>2026-03-22T15:02:54.917Z</time></trkpt><trkpt lat="30.26877815418711" lon="-6.708565190399199"><ele>860.0</ele><time>2026-03-22T15:02:55.917Z</time></trkpt><trkpt lat="30.26873840754533" lon="-6.70866801170524"><ele>859.4</ele><time>2026-03-22T15:02:56.917Z</time></trkpt><trkpt lat="30.268707625693942" lon="-6.708794825120397"><ele>858.8</ele><time>2026-03-22T15:02:57.917Z</time></trkpt><trkpt lat="30.268686324614468" lon="-6.708922812596589"><ele>858.2</ele><time>2026-03-22T15:02:58.917Z</time></trkpt><trkpt lat="30.26865857744038" lon="-6.709046397036164"><ele>857.6</ele><time>2026-03-22T15:02:59.917Z</time></trkpt><trkpt lat="30.268638142573703" lon="-6.709164488962816"><ele>857.0</ele><time>2026-03-22T15:03:00.917Z</time></trkpt><trkpt lat="30.268617887806965" lon="-6.709287083758096"><ele>856.5</ele><time>2026-03-22T15:03:01.917Z</time></trkpt><trkpt lat="30.268593427453236" lon="-6.7094206791573585"><ele>856.0</ele><time>2026-03-22T15:03:02.917Z</time></trkpt><trkpt lat="30.26856581068934" lon="-6.709564669296664"><ele>855.5</ele><time>2026-03-22T15:03:03.917Z</time></trkpt><trkpt lat="30.268539128097228" lon="-6.709708291034922"><ele>855.0</ele><time>2026-03-22T15:03:04.917Z</time></trkpt><trkpt lat="30.26850943366963" lon="-6.709865275583829"><ele>855.0</ele><time>2026-03-22T15:03:05.917Z</time></trkpt><trkpt lat="30.268483766111714" lon="-6.71004906981959"><ele>855.0</ele><time>2026-03-22T15:03:06.917Z</time></trkpt><trkpt lat="30.268443247031495" lon="-6.710251769628362"><ele>855.0</ele><time>2026-03-22T15:03:07.917Z</time></trkpt><trkpt lat="30.268400229158868" lon="-6.710439655455535"><ele>854.75</ele><time>2026-03-22T15:03:08.917Z</time></trkpt><trkpt lat="30.268371378959912" lon="-6.710589463711635"><ele>854.5</ele><time>2026-03-22T15:03:09.917Z</time></trkpt><trkpt lat="30.268346525944683" lon="-6.710735774109674"><ele>854.25</ele><time>2026-03-22T15:03:10.917Z</time></trkpt><trkpt lat="30.268305991303638" lon="-6.7108739880893635"><ele>854.0</ele><time>2026-03-22T15:03:11.917Z</time></trkpt><trkpt lat="30.268274101070872" lon="-6.711031700143963"><ele>853.5</ele><time>2026-03-22T15:03:12.917Z</time></trkpt><trkpt lat="30.26824134303287" lon="-6.711197987210401"><ele>853.0</ele><time>2026-03-22T15:03:13.917Z</time></trkpt><trkpt lat="30.26820347259626" lon="-6.71137072832431"><ele>852.5</ele><time>2026-03-22T15:03:14.917Z</time></trkpt><trkpt lat="30.2681503016932" lon="-6.711529771544475"><ele>852.0</ele><time>2026-03-22T15:03:15.917Z</time></trkpt><trkpt lat="30.268094095847214" lon="-6.711680204490384"><ele>851.75</ele><time>2026-03-22T15:03:16.917Z</time></trkpt><trkpt lat="30.268049327337256" lon="-6.711808786874383"><ele>851.5</ele><time>2026-03-22T15:03:17.917Z</time></trkpt><trkpt lat="30.268010443062412" lon="-6.711942471453677"><ele>851.25</ele><time>2026-03-22T15:03:18.917Z</time></trkpt><trkpt lat="30.267974763335896" lon="-6.712065614884213"><ele>851.0</ele><time>2026-03-22T15:03:19.917Z</time></trkpt><trkpt lat="30.267937670069877" lon="-6.712186831969845"><ele>851.0</ele><time>2026-03-22T15:03:20.917Z</time></trkpt><trkpt lat="30.2678938449279" lon="-6.712298683759136"><ele>851.0</ele><time>2026-03-22T15:03:21.917Z</time></trkpt><trkpt lat="30.267851430620496" lon="-6.7124173903167"><ele>851.0</ele><time>2026-03-22T15:03:22.917Z</time></trkpt><trkpt lat="30.267695264488125" lon="-6.712473328062242"><ele>851.0</ele><time>2026-03-22T15:03:23.917Z</time></trkpt><trkpt lat="30.267648937370446" lon="-6.712587070022474"><ele>851.0</ele><time>2026-03-22T15:03:24.917Z</time></trkpt><trkpt lat="30.267603527964173" lon="-6.712698652517312"><ele>851.0</ele><time>2026-03-22T15:03:25.917Z</time></trkpt><trkpt lat="30.267554657360172" lon="-6.712818895292788"><ele>851.0</ele><time>2026-03-22T15:03:26.917Z</time></trkpt><trkpt lat="30.267502004766687" lon="-6.712948443403246"><ele>851.0</ele><time>2026-03-22T15:03:27.917Z</time></trkpt><trkpt lat="30.267451968470898" lon="-6.713071554292434"><ele>850.5</ele><time>2026-03-22T15:03:28.917Z</time></trkpt><trkpt lat="30.2674070609226" lon="-6.713182046248282"><ele>850.0</ele><time>2026-03-22T15:03:29.917Z</time></trkpt><trkpt lat="30.267359274343416" lon="-6.713299621863427"><ele>849.5</ele><time>2026-03-22T15:03:30.917Z</time></trkpt><trkpt lat="30.267304304581437" lon="-6.713434596976013"><ele>849.0</ele><time>2026-03-22T15:03:31.917Z</time></trkpt><trkpt lat="30.26724073682101" lon="-6.713590555311442"><ele>847.75</ele><time>2026-03-22T15:03:32.917Z</time></trkpt><trkpt lat="30.267185752179866" lon="-6.713725455664423"><ele>846.5</ele><time>2026-03-22T15:03:33.917Z</time></trkpt><trkpt lat="30.267135900026563" lon="-6.713847763878355"><ele>845.25</ele><time>2026-03-22T15:03:34.917Z</time></trkpt><trkpt lat="30.26708546764958" lon="-6.713971332631621"><ele>844.0</ele><time>2026-03-22T15:03:35.917Z</time></trkpt><trkpt lat="30.267039218969973" lon="-6.71408448503631"><ele>844.0</ele><time>2026-03-22T15:03:36.917Z</time></trkpt><trkpt lat="30.26698850872204" lon="-6.714208553146739"><ele>844.0</ele><time>2026-03-22T15:03:37.917Z</time></trkpt><trkpt lat="30.266941229164846" lon="-6.714339171702057"><ele>844.0</ele><time>2026-03-22T15:03:38.917Z</time></trkpt><trkpt lat="30.266874536847606" lon="-6.714479598720088"><ele>844.0</ele><time>2026-03-22T15:03:39.917Z</time></trkpt><trkpt lat="30.266820295766415" lon="-6.714614540823237"><ele>844.0</ele><time>2026-03-22T15:03:40.917Z</time></trkpt><trkpt lat="30.266776816824787" lon="-6.714744514621872"><ele>844.0</ele><time>2026-03-22T15:03:41.917Z</time></trkpt><trkpt lat="30.266755637525577" lon="-6.714889440960149"><ele>844.0</ele><time>2026-03-22T15:03:42.917Z</time></trkpt><trkpt lat="30.26672675201579" lon="-6.715029310111293"><ele>844.0</ele><time>2026-03-22T15:03:43.917Z</time></trkpt><trkpt lat="30.266697350495868" lon="-6.71517167786784"><ele>843.25</ele><time>2026-03-22T15:03:44.917Z</time></trkpt><trkpt lat="30.26666853117749" lon="-6.7153112265058486"><ele>842.5</ele><time>2026-03-22T15:03:45.917Z</time></trkpt><trkpt lat="30.266640135271633" lon="-6.71544872488566"><ele>841.75</ele><time>2026-03-22T15:03:46.917Z</time></trkpt><trkpt lat="30.266609999280778" lon="-6.715594649078213"><ele>841.0</ele><time>2026-03-22T15:03:47.917Z</time></trkpt><trkpt lat="30.266580206328015" lon="-6.715729826193856"><ele>841.0</ele><time>2026-03-22T15:03:48.917Z</time></trkpt><trkpt lat="30.266561811798354" lon="-6.715847431959816"><ele>841.0</ele><time>2026-03-22T15:03:49.917Z</time></trkpt><trkpt lat="30.26654750125076" lon="-6.715963771051483"><ele>841.0</ele><time>2026-03-22T15:03:50.917Z</time></trkpt><trkpt lat="30.26650960173722" lon="-6.716071564933739"><ele>841.0</ele><time>2026-03-22T15:03:51.917Z</time></trkpt><trkpt lat="30.266484500267406" lon="-6.716190312668761"><ele>841.0</ele><time>2026-03-22T15:03:52.917Z</time></trkpt><trkpt lat="30.266451794286976" lon="-6.716302497631002"><ele>840.5999999999999</ele><time>2026-03-22T15:03:53.917Z</time></trkpt><trkpt lat="30.26643134153001" lon="-6.716406906006175"><ele>840.2</ele><time>2026-03-22T15:03:54.917Z</time></trkpt><trkpt lat="30.266410515605074" lon="-6.716511765194076"><ele>839.8</ele><time>2026-03-22T15:03:55.917Z</time></trkpt><trkpt lat="30.26638693822984" lon="-6.716621342096315"><ele>839.4000000000001</ele><time>2026-03-22T15:03:56.917Z</time></trkpt><trkpt lat="30.266363246727586" lon="-6.716734594939589"><ele>839.0</ele><time>2026-03-22T15:03:57.917Z</time></trkpt><trkpt lat="30.266341496176274" lon="-6.716845860757034"><ele>838.8000000000001</ele><time>2026-03-22T15:03:58.917Z</time></trkpt><trkpt lat="30.266320347253473" lon="-6.7169564965308215"><ele>838.6</ele><time>2026-03-22T15:03:59.917Z</time></trkpt><trkpt lat="30.266297582582833" lon="-6.717071294833498"><ele>838.4</ele><time>2026-03-22T15:04:00.917Z</time></trkpt><trkpt lat="30.26627687534547" lon="-6.717176401229787"><ele>838.2</ele><time>2026-03-22T15:04:01.917Z</time></trkpt><trkpt lat="30.266255109090114" lon="-6.717275610333024"><ele>838.0</ele><time>2026-03-22T15:04:02.917Z</time></trkpt><trkpt lat="30.26623410724009" lon="-6.71735828370531"><ele>838.0</ele><time>2026-03-22T15:04:03.917Z</time></trkpt><trkpt lat="30.266217035921276" lon="-6.717444140542025"><ele>838.0</ele><time>2026-03-22T15:04:04.917Z</time></trkpt><trkpt lat="30.26619453756964" lon="-6.717543748448485"><ele>838.0</ele><time>2026-03-22T15:04:05.917Z</time></trkpt><trkpt lat="30.26618461994683" lon="-6.717655392158484"><ele>838.0</ele><time>2026-03-22T15:04:06.917Z</time></trkpt><trkpt lat="30.26615956832964" lon="-6.7177770457120864"><ele>838.0</ele><time>2026-03-22T15:04:07.917Z</time></trkpt><trkpt lat="30.266119316798452" lon="-6.7178897937216195"><ele>837.8</ele><time>2026-03-22T15:04:08.917Z</time></trkpt><trkpt lat="30.266116772742567" lon="-6.717983809087465"><ele>837.5999999999999</ele><time>2026-03-22T15:04:09.917Z</time></trkpt><trkpt lat="30.266098098460287" lon="-6.718073860067947"><ele>837.4000000000001</ele><time>2026-03-22T15:04:10.917Z</time></trkpt><trkpt lat="30.266076294792402" lon="-6.718179001589088"><ele>837.2</ele><time>2026-03-22T15:04:11.917Z</time></trkpt><trkpt lat="30.266051732476953" lon="-6.7182974458244775"><ele>837.0</ele><time>2026-03-22T15:04:12.917Z</time></trkpt><trkpt lat="30.266026624039885" lon="-6.718418523568178"><ele>837.0</ele><time>2026-03-22T15:04:13.917Z</time></trkpt><trkpt lat="30.266002602915073" lon="-6.718534358076593"><ele>837.0</ele><time>2026-03-22T15:04:14.917Z</time></trkpt><trkpt lat="30.26597607015574" lon="-6.718662304192275"><ele>837.0</ele><time>2026-03-22T15:04:15.917Z</time></trkpt><trkpt lat="30.265949983050213" lon="-6.718788101231681"><ele>837.0</ele><time>2026-03-22T15:04:16.917Z</time></trkpt><trkpt lat="30.265919005142436" lon="-6.718937482722501"><ele>837.0</ele><time>2026-03-22T15:04:17.917Z</time></trkpt><trkpt lat="30.265879419243305" lon="-6.719080518638489"><ele>837.0</ele><time>2026-03-22T15:04:18.917Z</time></trkpt><trkpt lat="30.265850984950767" lon="-6.7192212667809725"><ele>837.0</ele><time>2026-03-22T15:04:19.917Z</time></trkpt><trkpt lat="30.265819558037652" lon="-6.719358224171874"><ele>837.0</ele><time>2026-03-22T15:04:20.917Z</time></trkpt><trkpt lat="30.265790715451846" lon="-6.719497368569864"><ele>836.5</ele><time>2026-03-22T15:04:21.917Z</time></trkpt><trkpt lat="30.26576153125233" lon="-6.719633758969756"><ele>836.0</ele><time>2026-03-22T15:04:22.917Z</time></trkpt><trkpt lat="30.26574630658549" lon="-6.719772494644154"><ele>835.5</ele><time>2026-03-22T15:04:23.917Z</time></trkpt><trkpt lat="30.265719690507023" lon="-6.719901476722079"><ele>835.0</ele><time>2026-03-22T15:04:24.917Z</time></trkpt><trkpt lat="30.265694102610638" lon="-6.72002547621094"><ele>835.0</ele><time>2026-03-22T15:04:25.917Z</time></trkpt><trkpt lat="30.26566958013129" lon="-6.72014431263083"><ele>835.0</ele><time>2026-03-22T15:04:26.916Z</time></trkpt><trkpt lat="30.265643063198475" lon="-6.720272814234841"><ele>835.0</ele><time>2026-03-22T15:04:27.916Z</time></trkpt><trkpt lat="30.265612437904267" lon="-6.72042122504073"><ele>835.0</ele><time>2026-03-22T15:04:28.917Z</time></trkpt><trkpt lat="30.26558337349516" lon="-6.720562071768302"><ele>834.5</ele><time>2026-03-22T15:04:29.916Z</time></trkpt><trkpt lat="30.26555427925164" lon="-6.72070306308548"><ele>834.0</ele><time>2026-03-22T15:04:30.916Z</time></trkpt><trkpt lat="30.265526721580738" lon="-6.720836608139097"><ele>833.5</ele><time>2026-03-22T15:04:31.917Z</time></trkpt><trkpt lat="30.265499337783517" lon="-6.720969310561263"><ele>833.0</ele><time>2026-03-22T15:04:32.916Z</time></trkpt><trkpt lat="30.265468263040535" lon="-6.721119899404832"><ele>832.75</ele><time>2026-03-22T15:04:33.916Z</time></trkpt><trkpt lat="30.26543444599997" lon="-6.721283777476721"><ele>832.5</ele><time>2026-03-22T15:04:34.917Z</time></trkpt><trkpt lat="30.265399796801844" lon="-6.721451688207604"><ele>832.25</ele><time>2026-03-22T15:04:35.916Z</time></trkpt><trkpt lat="30.265367058746886" lon="-6.721610575046492"><ele>832.0</ele><time>2026-03-22T15:04:36.916Z</time></trkpt><trkpt lat="30.265336401639104" lon="-6.721759769155205"><ele>832.0</ele><time>2026-03-22T15:04:37.917Z</time></trkpt><trkpt lat="30.265293080535177" lon="-6.7219025732839395"><ele>832.0</ele><time>2026-03-22T15:04:38.917Z</time></trkpt><trkpt lat="30.265271566297365" lon="-6.722037901328273"><ele>832.0</ele><time>2026-03-22T15:04:39.917Z</time></trkpt><trkpt lat="30.265242423780805" lon="-6.72216040649592"><ele>832.0</ele><time>2026-03-22T15:04:40.917Z</time></trkpt><trkpt lat="30.26521669804547" lon="-6.72227910749887"><ele>832.0</ele><time>2026-03-22T15:04:41.917Z</time></trkpt><trkpt lat="30.265192576698922" lon="-6.722391906343588"><ele>832.0</ele><time>2026-03-22T15:04:42.917Z</time></trkpt><trkpt lat="30.265179596613148" lon="-6.722516463135091"><ele>832.0</ele><time>2026-03-22T15:04:43.917Z</time></trkpt><trkpt lat="30.265152778563596" lon="-6.722645760600609"><ele>832.0</ele><time>2026-03-22T15:04:44.917Z</time></trkpt><trkpt lat="30.265110327228975" lon="-6.722767980968414"><ele>832.0</ele><time>2026-03-22T15:04:45.917Z</time></trkpt><trkpt lat="30.265105587442815" lon="-6.722874595307259"><ele>831.6</ele><time>2026-03-22T15:04:46.917Z</time></trkpt><trkpt lat="30.265082935071298" lon="-6.7229849915211375"><ele>831.2</ele><time>2026-03-22T15:04:47.917Z</time></trkpt><trkpt lat="30.265062246621323" lon="-6.723085816736725"><ele>830.8</ele><time>2026-03-22T15:04:48.917Z</time></trkpt><trkpt lat="30.26498635710651" lon="-6.723148293864068"><ele>830.4</ele><time>2026-03-22T15:04:49.917Z</time></trkpt><trkpt lat="30.264933409097857" lon="-6.723232864995023"><ele>830.0</ele><time>2026-03-22T15:04:50.917Z</time></trkpt><trkpt lat="30.2648715080189" lon="-6.723331736404455"><ele>830.0</ele><time>2026-03-22T15:04:51.917Z</time></trkpt><trkpt lat="30.26478782839193" lon="-6.723483487748468"><ele>830.0</ele><time>2026-03-22T15:04:53.917Z</time></trkpt><trkpt lat="30.2647213701965" lon="-6.723568177760934"><ele>830.0</ele><time>2026-03-22T15:04:54.916Z</time></trkpt><trkpt lat="30.26466380829549" lon="-6.723673591459693"><ele>830.0</ele><time>2026-03-22T15:04:55.916Z</time></trkpt><trkpt lat="30.264612409090415" lon="-6.72380021419978"><ele>829.25</ele><time>2026-03-22T15:04:56.916Z</time></trkpt><trkpt lat="30.264541902712157" lon="-6.723927559951407"><ele>828.5</ele><time>2026-03-22T15:04:57.916Z</time></trkpt><trkpt lat="30.26445746831441" lon="-6.724044472675583"><ele>827.75</ele><time>2026-03-22T15:04:58.916Z</time></trkpt><trkpt lat="30.264432061736773" lon="-6.724177775389418"><ele>827.0</ele><time>2026-03-22T15:04:59.916Z</time></trkpt><trkpt lat="30.264383114847494" lon="-6.724277673208702"><ele>827.0000000000001</ele><time>2026-03-22T15:05:00.916Z</time></trkpt><trkpt lat="30.26435907749799" lon="-6.7243746118304495"><ele>827.0</ele><time>2026-03-22T15:05:01.916Z</time></trkpt><trkpt lat="30.264330230240205" lon="-6.7244587040332915"><ele>827.0</ele><time>2026-03-22T15:05:02.916Z</time></trkpt><trkpt lat="30.264298592986247" lon="-6.724557653205792"><ele>827.0</ele><time>2026-03-22T15:05:03.916Z</time></trkpt><trkpt lat="30.26425729422876" lon="-6.724630534670056"><ele>827.0000000000001</ele><time>2026-03-22T15:05:04.916Z</time></trkpt><trkpt lat="30.264227657814644" lon="-6.72472079846571"><ele>827.0</ele><time>2026-03-22T15:05:05.916Z</time></trkpt><trkpt lat="30.26419916885937" lon="-6.724806586530144"><ele>827.0</ele><time>2026-03-22T15:05:06.916Z</time></trkpt><trkpt lat="30.264171209149158" lon="-6.7248899076345765"><ele>827.0</ele><time>2026-03-22T15:05:07.916Z</time></trkpt><trkpt lat="30.26414707174724" lon="-6.724986767166838"><ele>827.0</ele><time>2026-03-22T15:05:08.916Z</time></trkpt><trkpt lat="30.264088831444084" lon="-6.72508403761388"><ele>827.0</ele><time>2026-03-22T15:05:09.916Z</time></trkpt><trkpt lat="30.26404464715061" lon="-6.725189763277206"><ele>827.0</ele><time>2026-03-22T15:05:10.916Z</time></trkpt><trkpt lat="30.264004019117824" lon="-6.725303067938633"><ele>827.0</ele><time>2026-03-22T15:05:11.916Z</time></trkpt><trkpt lat="30.263962627081295" lon="-6.725420186778325"><ele>827.0</ele><time>2026-03-22T15:05:12.916Z</time></trkpt><trkpt lat="30.26390779993071" lon="-6.725539223302965"><ele>827.0</ele><time>2026-03-22T15:05:13.916Z</time></trkpt><trkpt lat="30.2638446799227" lon="-6.725653941892752"><ele>827.0</ele><time>2026-03-22T15:05:14.916Z</time></trkpt><trkpt lat="30.263775256958507" lon="-6.72577183131825"><ele>826.75</ele><time>2026-03-22T15:05:15.916Z</time></trkpt><trkpt lat="30.263714076867146" lon="-6.725889612950962"><ele>826.5</ele><time>2026-03-22T15:05:16.916Z</time></trkpt><trkpt lat="30.263655943900364" lon="-6.726005913082922"><ele>826.25</ele><time>2026-03-22T15:05:17.916Z</time></trkpt><trkpt lat="30.263593734777338" lon="-6.7261105605746705"><ele>826.0</ele><time>2026-03-22T15:05:18.916Z</time></trkpt><trkpt lat="30.263524321459265" lon="-6.72621894775478"><ele>825.5999999999999</ele><time>2026-03-22T15:05:19.916Z</time></trkpt><trkpt lat="30.263465340675648" lon="-6.7263331610655595"><ele>825.2</ele><time>2026-03-22T15:05:20.916Z</time></trkpt><trkpt lat="30.263417037994568" lon="-6.726449200094448"><ele>824.8</ele><time>2026-03-22T15:05:21.916Z</time></trkpt><trkpt lat="30.263374430758827" lon="-6.726562221119597"><ele>824.4000000000001</ele><time>2026-03-22T15:05:22.916Z</time></trkpt><trkpt lat="30.2633316371756" lon="-6.7266738321445665"><ele>824.0</ele><time>2026-03-22T15:05:23.916Z</time></trkpt><trkpt lat="30.26328494854208" lon="-6.726786736409483"><ele>824.0</ele><time>2026-03-22T15:05:24.916Z</time></trkpt><trkpt lat="30.26323110028116" lon="-6.726902370623654"><ele>824.0</ele><time>2026-03-22T15:05:25.916Z</time></trkpt><trkpt lat="30.26318297401477" lon="-6.727027081313055"><ele>824.0</ele><time>2026-03-22T15:05:26.916Z</time></trkpt><trkpt lat="30.26313914777784" lon="-6.72714513931498"><ele>824.0</ele><time>2026-03-22T15:05:27.916Z</time></trkpt><trkpt lat="30.2631058499237" lon="-6.727256832676036"><ele>824.0</ele><time>2026-03-22T15:05:28.916Z</time></trkpt><trkpt lat="30.263071701482023" lon="-6.7273581223184475"><ele>823.8000000000001</ele><time>2026-03-22T15:05:29.916Z</time></trkpt><trkpt lat="30.2630482325801" lon="-6.727474218008088"><ele>823.6</ele><time>2026-03-22T15:05:30.916Z</time></trkpt><trkpt lat="30.263031220576448" lon="-6.727586423246298"><ele>823.4</ele><time>2026-03-22T15:05:31.916Z</time></trkpt><trkpt lat="30.26299893780354" lon="-6.727687208982103"><ele>823.2</ele><time>2026-03-22T15:05:32.916Z</time></trkpt><trkpt lat="30.262969343219837" lon="-6.7277907768031975"><ele>823.0</ele><time>2026-03-22T15:05:33.916Z</time></trkpt><trkpt lat="30.262930018429643" lon="-6.727888875222556"><ele>823.0</ele><time>2026-03-22T15:05:34.916Z</time></trkpt><trkpt lat="30.26289045458169" lon="-6.727986540597419"><ele>823.0</ele><time>2026-03-22T15:05:35.916Z</time></trkpt><trkpt lat="30.26281617827339" lon="-6.728069645109108"><ele>823.0</ele><time>2026-03-22T15:05:36.916Z</time></trkpt><trkpt lat="30.262725534452024" lon="-6.728167478386093"><ele>823.0</ele><time>2026-03-22T15:05:37.916Z</time></trkpt><trkpt lat="30.262641051012814" lon="-6.728289366812037"><ele>823.0</ele><time>2026-03-22T15:05:38.916Z</time></trkpt><trkpt lat="30.262566487911574" lon="-6.728443229398014"><ele>823.0</ele><time>2026-03-22T15:05:39.916Z</time></trkpt><trkpt lat="30.262499509772972" lon="-6.7286077825115305"><ele>823.0</ele><time>2026-03-22T15:05:40.916Z</time></trkpt><trkpt lat="30.26244187886724" lon="-6.7287475579520075"><ele>823.0</ele><time>2026-03-22T15:05:41.916Z</time></trkpt><trkpt lat="30.26239898287981" lon="-6.728882162835502"><ele>822.8</ele><time>2026-03-22T15:05:42.916Z</time></trkpt><trkpt lat="30.262362614884655" lon="-6.729005437358613"><ele>822.5999999999999</ele><time>2026-03-22T15:05:43.916Z</time></trkpt><trkpt lat="30.26234523035886" lon="-6.72910947623932"><ele>822.4000000000001</ele><time>2026-03-22T15:05:44.916Z</time></trkpt><trkpt lat="30.26235392468472" lon="-6.729235153629287"><ele>822.2</ele><time>2026-03-22T15:05:45.916Z</time></trkpt><trkpt lat="30.262371131220977" lon="-6.729367448083905"><ele>822.0</ele><time>2026-03-22T15:05:46.916Z</time></trkpt><trkpt lat="30.262389602694878" lon="-6.729497997847327"><ele>821.8</ele><time>2026-03-22T15:05:47.916Z</time></trkpt><trkpt lat="30.26238718719484" lon="-6.729627809164977"><ele>821.6</ele><time>2026-03-22T15:05:48.916Z</time></trkpt><trkpt lat="30.26237506074428" lon="-6.729727739505839"><ele>821.4</ele><time>2026-03-22T15:05:49.916Z</time></trkpt><trkpt lat="30.26235061058608" lon="-6.729836913971269"><ele>821.1999999999999</ele><time>2026-03-22T15:05:50.916Z</time></trkpt><trkpt lat="30.26232539337278" lon="-6.72995225841728"><ele>821.0</ele><time>2026-03-22T15:05:51.916Z</time></trkpt><trkpt lat="30.26232366961786" lon="-6.730075239182277"><ele>821.0</ele><time>2026-03-22T15:05:52.916Z</time></trkpt><trkpt lat="30.262305736461627" lon="-6.730202339724126"><ele>821.0</ele><time>2026-03-22T15:05:53.916Z</time></trkpt><trkpt lat="30.26227971527863" lon="-6.730340240100323"><ele>821.0</ele><time>2026-03-22T15:05:54.916Z</time></trkpt><trkpt lat="30.262261019283816" lon="-6.7304617740715935"><ele>821.0</ele><time>2026-03-22T15:05:55.916Z</time></trkpt><trkpt lat="30.262241672836186" lon="-6.730590900234518"><ele>821.0</ele><time>2026-03-22T15:05:56.916Z</time></trkpt><trkpt lat="30.262217346546414" lon="-6.730730244015058"><ele>821.0</ele><time>2026-03-22T15:05:57.916Z</time></trkpt><trkpt lat="30.262212004937034" lon="-6.730872512912556"><ele>821.0</ele><time>2026-03-22T15:05:58.916Z</time></trkpt><trkpt lat="30.262194073110752" lon="-6.731000778199635"><ele>821.0</ele><time>2026-03-22T15:05:59.916Z</time></trkpt><trkpt lat="30.26217827320928" lon="-6.731113793991864"><ele>820.5000000000001</ele><time>2026-03-22T15:06:00.916Z</time></trkpt><trkpt lat="30.262162682632987" lon="-6.731205871169047"><ele>820.0</ele><time>2026-03-22T15:06:01.916Z</time></trkpt><trkpt lat="30.262154463245288" lon="-6.731284104461421"><ele>819.5</ele><time>2026-03-22T15:06:02.916Z</time></trkpt><trkpt lat="30.262063977443763" lon="-6.731402071950013"><ele>819.0</ele><time>2026-03-22T15:06:04.916Z</time></trkpt><trkpt lat="30.26202776168985" lon="-6.731487183581281"><ele>818.5000000000001</ele><time>2026-03-22T15:06:05.916Z</time></trkpt><trkpt lat="30.26199305123544" lon="-6.731568757600585"><ele>818.0</ele><time>2026-03-22T15:06:06.916Z</time></trkpt><trkpt lat="30.261957989116507" lon="-6.7316511580232925"><ele>818.0000000000001</ele><time>2026-03-22T15:06:07.916Z</time></trkpt><trkpt lat="30.26190291794036" lon="-6.7317805823137915"><ele>818.0</ele><time>2026-03-22T15:06:09.916Z</time></trkpt><trkpt lat="30.261874636545528" lon="-6.73184704717812"><ele>818.0</ele><time>2026-03-22T15:06:10.916Z</time></trkpt><trkpt lat="30.261840730569446" lon="-6.731926730549891"><ele>818.0</ele><time>2026-03-22T15:06:11.916Z</time></trkpt><trkpt lat="30.261801269549387" lon="-6.732019690517266"><ele>818.0000000000001</ele><time>2026-03-22T15:06:12.916Z</time></trkpt><trkpt lat="30.26175962401734" lon="-6.732118060998787"><ele>818.0</ele><time>2026-03-22T15:06:13.916Z</time></trkpt><trkpt lat="30.261722556976146" lon="-6.732229404696072"><ele>817.75</ele><time>2026-03-22T15:06:14.916Z</time></trkpt><trkpt lat="30.26169357364476" lon="-6.732341835628568"><ele>817.5</ele><time>2026-03-22T15:06:15.916Z</time></trkpt><trkpt lat="30.26165455588927" lon="-6.732455271413902"><ele>817.25</ele><time>2026-03-22T15:06:16.916Z</time></trkpt><trkpt lat="30.261621663733106" lon="-6.732596959460314"><ele>817.0</ele><time>2026-03-22T15:06:17.916Z</time></trkpt><trkpt lat="30.26157506306488" lon="-6.732760811959924"><ele>817.0</ele><time>2026-03-22T15:06:18.916Z</time></trkpt><trkpt lat="30.26153676199972" lon="-6.73294598945865"><ele>817.0</ele><time>2026-03-22T15:06:19.916Z</time></trkpt><trkpt lat="30.26146213746496" lon="-6.733099621423096"><ele>817.0</ele><time>2026-03-22T15:06:20.916Z</time></trkpt><trkpt lat="30.261388068966333" lon="-6.733239101052545"><ele>816.5</ele><time>2026-03-22T15:06:21.916Z</time></trkpt><trkpt lat="30.26132048852381" lon="-6.733366362931521"><ele>816.0</ele><time>2026-03-22T15:06:22.916Z</time></trkpt><trkpt lat="30.261259331337765" lon="-6.733481529085792"><ele>815.5</ele><time>2026-03-22T15:06:23.916Z</time></trkpt><trkpt lat="30.26118400893564" lon="-6.733588247476615"><ele>815.0</ele><time>2026-03-22T15:06:24.916Z</time></trkpt><trkpt lat="30.26114251334556" lon="-6.733691757769532"><ele>815.0000000000001</ele><time>2026-03-22T15:06:25.916Z</time></trkpt><trkpt lat="30.26109009917836" lon="-6.733781031653186"><ele>815.0</ele><time>2026-03-22T15:06:26.916Z</time></trkpt><trkpt lat="30.26104504389545" lon="-6.733857771583338"><ele>815.0</ele><time>2026-03-22T15:06:27.916Z</time></trkpt><trkpt lat="30.260986686555082" lon="-6.733924343237521"><ele>815.0</ele><time>2026-03-22T15:06:28.916Z</time></trkpt><trkpt lat="30.260948831012453" lon="-6.734002834023693"><ele>815.0000000000001</ele><time>2026-03-22T15:06:29.916Z</time></trkpt><trkpt lat="30.260911253708485" lon="-6.734074058303637"><ele>815.0</ele><time>2026-03-22T15:06:30.916Z</time></trkpt><trkpt lat="30.26084239752051" lon="-6.734187998747541"><ele>815.0</ele><time>2026-03-22T15:06:32.916Z</time></trkpt><trkpt lat="30.26080056933849" lon="-6.734295735712626"><ele>815.0</ele><time>2026-03-22T15:06:34.916Z</time></trkpt><trkpt lat="30.26082520874804" lon="-6.734428313165122"><ele>815.0</ele><time>2026-03-22T15:06:36.916Z</time></trkpt><trkpt lat="30.260859260023615" lon="-6.734521633714855"><ele>815.0</ele><time>2026-03-22T15:06:37.916Z</time></trkpt><trkpt lat="30.260893452573345" lon="-6.734625080526878"><ele>815.0</ele><time>2026-03-22T15:06:38.916Z</time></trkpt><trkpt lat="30.26093441633006" lon="-6.7347258318753545"><ele>815.4</ele><time>2026-03-22T15:06:39.916Z</time></trkpt><trkpt lat="30.26097810981785" lon="-6.734818055636789"><ele>815.8</ele><time>2026-03-22T15:06:40.916Z</time></trkpt><trkpt lat="30.26102584195098" lon="-6.734894112082946"><ele>816.2</ele><time>2026-03-22T15:06:41.915Z</time></trkpt><trkpt lat="30.26113206297963" lon="-6.734979135745906"><ele>816.6</ele><time>2026-03-22T15:06:43.916Z</time></trkpt><trkpt lat="30.261188626166184" lon="-6.735015330453734"><ele>817.0</ele><time>2026-03-22T15:06:44.916Z</time></trkpt><trkpt lat="30.261287688100964" lon="-6.735073788830305"><ele>817.0</ele><time>2026-03-22T15:06:46.916Z</time></trkpt><trkpt lat="30.261372280286352" lon="-6.735126275545324"><ele>817.0</ele><time>2026-03-22T15:06:48.916Z</time></trkpt><trkpt lat="30.261432057653497" lon="-6.735164962561559"><ele>817.0</ele><time>2026-03-22T15:06:50.916Z</time></trkpt><trkpt lat="30.261506294207436" lon="-6.7352331271972306"><ele>817.0</ele><time>2026-03-22T15:06:52.916Z</time></trkpt><trkpt lat="30.261594659110308" lon="-6.7352864484891946"><ele>817.0</ele><time>2026-03-22T15:06:54.916Z</time></trkpt><trkpt lat="30.261679988534905" lon="-6.735345490949384"><ele>817.4000000000001</ele><time>2026-03-22T15:06:56.916Z</time></trkpt><trkpt lat="30.261763232975387" lon="-6.735426102129793"><ele>817.8000000000001</ele><time>2026-03-22T15:06:58.916Z</time></trkpt><trkpt lat="30.261817331670592" lon="-6.7355272181667"><ele>818.2</ele><time>2026-03-22T15:07:00.916Z</time></trkpt><trkpt lat="30.26179913072464" lon="-6.7356415826880935"><ele>818.6</ele><time>2026-03-22T15:07:02.916Z</time></trkpt><trkpt lat="30.261781351707775" lon="-6.735731253081963"><ele>819.0</ele><time>2026-03-22T15:07:04.916Z</time></trkpt><trkpt lat="30.261762452167343" lon="-6.73585299221436"><ele>819.0</ele><time>2026-03-22T15:07:06.916Z</time></trkpt><trkpt lat="30.261733388318827" lon="-6.735979429068866"><ele>819.0</ele><time>2026-03-22T15:07:08.916Z</time></trkpt><trkpt lat="30.261687244358626" lon="-6.736098662834887"><ele>819.0</ele><time>2026-03-22T15:07:10.916Z</time></trkpt><trkpt lat="30.26164664757998" lon="-6.7362443764427455"><ele>819.0</ele><time>2026-03-22T15:07:12.916Z</time></trkpt><trkpt lat="30.26162513485929" lon="-6.736330662126582"><ele>819.0</ele><time>2026-03-22T15:07:13.916Z</time></trkpt><trkpt lat="30.26160551401465" lon="-6.736409304883757"><ele>818.8571428571429</ele><time>2026-03-22T15:07:14.916Z</time></trkpt><trkpt lat="30.261595286969015" lon="-6.736494730111248"><ele>818.7142857142858</ele><time>2026-03-22T15:07:15.916Z</time></trkpt><trkpt lat="30.261567241932187" lon="-6.736562990565641"><ele>818.5714285714286</ele><time>2026-03-22T15:07:16.916Z</time></trkpt><trkpt lat="30.261546917817117" lon="-6.73664786696338"><ele>818.4285714285714</ele><time>2026-03-22T15:07:17.916Z</time></trkpt><trkpt lat="30.26153171011404" lon="-6.736720467980607"><ele>818.2857142857143</ele><time>2026-03-22T15:07:18.916Z</time></trkpt><trkpt lat="30.26150599759893" lon="-6.736795614241069"><ele>818.1428571428571</ele><time>2026-03-22T15:07:19.916Z</time></trkpt><trkpt lat="30.261480739850263" lon="-6.7368792325381035"><ele>818.0</ele><time>2026-03-22T15:07:20.916Z</time></trkpt><trkpt lat="30.26146389036318" lon="-6.736967478625613"><ele>817.6666666666667</ele><time>2026-03-22T15:07:21.916Z</time></trkpt><trkpt lat="30.261443690615256" lon="-6.737046545983779"><ele>817.3333333333334</ele><time>2026-03-22T15:07:22.916Z</time></trkpt><trkpt lat="30.261410947788328" lon="-6.737183503924282"><ele>817.0</ele><time>2026-03-22T15:07:24.916Z</time></trkpt><trkpt lat="30.261389977811085" lon="-6.737266397437974"><ele>816.6666666666667</ele><time>2026-03-22T15:07:25.916Z</time></trkpt><trkpt lat="30.26136972212718" lon="-6.73733872462732"><ele>816.3333333333334</ele><time>2026-03-22T15:07:26.916Z</time></trkpt><trkpt lat="30.261329604711403" lon="-6.737455920442797"><ele>816.0</ele><time>2026-03-22T15:07:28.916Z</time></trkpt><trkpt lat="30.26130463563343" lon="-6.737550200111901"><ele>816.0</ele><time>2026-03-22T15:07:31.916Z</time></trkpt><trkpt lat="30.26125890255172" lon="-6.737658356231945"><ele>816.0</ele><time>2026-03-22T15:07:33.916Z</time></trkpt><trkpt lat="30.261281807662737" lon="-6.737736180641417"><ele>816.0</ele><time>2026-03-22T15:07:35.916Z</time></trkpt><trkpt lat="30.261206758887788" lon="-6.737760742786233"><ele>816.0</ele><time>2026-03-22T15:07:36.916Z</time></trkpt><trkpt lat="30.261167072156" lon="-6.73782691585469"><ele>816.0</ele><time>2026-03-22T15:08:06.915Z</time></trkpt><trkpt lat="30.261235673361355" lon="-6.737881994038734"><ele>816.0</ele><time>2026-03-22T15:09:59.915Z</time></trkpt><trkpt lat="30.261183708065715" lon="-6.737928291033652"><ele>816.3333333333334</ele><time>2026-03-22T15:10:14.914Z</time></trkpt><trkpt lat="30.261154820320442" lon="-6.738009448922985"><ele>816.6666666666667</ele><time>2026-03-22T15:10:16.914Z</time></trkpt><trkpt lat="30.261109371777113" lon="-6.738077514030572"><ele>817.0</ele><time>2026-03-22T15:10:18.914Z</time></trkpt><trkpt lat="30.261043581003943" lon="-6.738131968308336"><ele>817.3333333333334</ele><time>2026-03-22T15:10:20.914Z</time></trkpt><trkpt lat="30.26097298529677" lon="-6.73820665474162"><ele>817.6666666666667</ele><time>2026-03-22T15:10:22.914Z</time></trkpt><trkpt lat="30.26093232158305" lon="-6.738287136985816"><ele>818.0</ele><time>2026-03-22T15:10:24.914Z</time></trkpt><trkpt lat="30.260903026215026" lon="-6.738394314068428"><ele>818.0</ele><time>2026-03-22T15:10:27.914Z</time></trkpt><trkpt lat="30.260845915232828" lon="-6.738526138347455"><ele>818.0</ele><time>2026-03-22T15:10:29.914Z</time></trkpt><trkpt lat="30.260820932731228" lon="-6.738612444067127"><ele>818.0</ele><time>2026-03-22T15:10:30.914Z</time></trkpt><trkpt lat="30.26080484631919" lon="-6.738691077599144"><ele>818.0</ele><time>2026-03-22T15:10:31.914Z</time></trkpt><trkpt lat="30.260788233280923" lon="-6.738766607684635"><ele>818.0</ele><time>2026-03-22T15:10:32.914Z</time></trkpt><trkpt lat="30.260744135098403" lon="-6.738903841760553"><ele>818.2</ele><time>2026-03-22T15:10:34.914Z</time></trkpt><trkpt lat="30.26069321512249" lon="-6.739012075814672"><ele>818.4</ele><time>2026-03-22T15:10:36.914Z</time></trkpt><trkpt lat="30.260674192814374" lon="-6.739132478338819"><ele>818.6</ele><time>2026-03-22T15:10:38.914Z</time></trkpt><trkpt lat="30.260659169315744" lon="-6.73925046513639"><ele>818.8000000000001</ele><time>2026-03-22T15:10:40.914Z</time></trkpt><trkpt lat="30.260627716611225" lon="-6.739323805418846"><ele>819.0</ele><time>2026-03-22T15:10:41.914Z</time></trkpt><trkpt lat="30.26058758311999" lon="-6.739466998109169"><ele>819.0</ele><time>2026-03-22T15:10:43.914Z</time></trkpt><trkpt lat="30.26056962205699" lon="-6.739546348465918"><ele>819.0</ele><time>2026-03-22T15:10:44.914Z</time></trkpt><trkpt lat="30.260538687497093" lon="-6.739676635836744"><ele>819.0</ele><time>2026-03-22T15:10:46.915Z</time></trkpt><trkpt lat="30.260548042882483" lon="-6.739777031997786"><ele>819.0</ele><time>2026-03-22T15:10:48.915Z</time></trkpt><trkpt lat="30.26051382502183" lon="-6.739918332511713"><ele>819.0</ele><time>2026-03-22T15:10:50.914Z</time></trkpt><trkpt lat="30.260495597220714" lon="-6.739993117483206"><ele>819.0</ele><time>2026-03-22T15:10:51.914Z</time></trkpt><trkpt lat="30.260483920349387" lon="-6.740065270750796"><ele>819.0</ele><time>2026-03-22T15:10:52.915Z</time></trkpt><trkpt lat="30.260483387260283" lon="-6.740203137655293"><ele>819.0</ele><time>2026-03-22T15:10:54.915Z</time></trkpt><trkpt lat="30.260491181832027" lon="-6.740277684138914"><ele>819.0</ele><time>2026-03-22T15:10:55.915Z</time></trkpt><trkpt lat="30.260517387966278" lon="-6.740417489310312"><ele>819.0</ele><time>2026-03-22T15:10:57.914Z</time></trkpt><trkpt lat="30.26052503851086" lon="-6.74050297347371"><ele>819.0</ele><time>2026-03-22T15:10:58.914Z</time></trkpt><trkpt lat="30.260527501907518" lon="-6.74063436442637"><ele>818.8333333333334</ele><time>2026-03-22T15:11:00.914Z</time></trkpt><trkpt lat="30.260544015192718" lon="-6.74074059276476"><ele>818.6666666666667</ele><time>2026-03-22T15:11:01.914Z</time></trkpt><trkpt lat="30.260542098005384" lon="-6.740848882143487"><ele>818.5</ele><time>2026-03-22T15:11:02.914Z</time></trkpt><trkpt lat="30.260515162853665" lon="-6.740948921200372"><ele>818.3333333333334</ele><time>2026-03-22T15:11:03.914Z</time></trkpt><trkpt lat="30.260448316749333" lon="-6.740982199779973"><ele>818.1666666666667</ele><time>2026-03-22T15:11:04.914Z</time></trkpt><trkpt lat="30.260388029348327" lon="-6.7409550456414005"><ele>818.0</ele><time>2026-03-22T15:11:05.914Z</time></trkpt><trkpt lat="30.260293650224693" lon="-6.740910403598612"><ele>818.0</ele><time>2026-03-22T15:11:06.914Z</time></trkpt><trkpt lat="30.260176368204142" lon="-6.74085528488071"><ele>818.0</ele><time>2026-03-22T15:11:07.914Z</time></trkpt><trkpt lat="30.260024047139186" lon="-6.740854095750384"><ele>818.0</ele><time>2026-03-22T15:11:08.914Z</time></trkpt><trkpt lat="30.259874674565566" lon="-6.740883106489748"><ele>818.0</ele><time>2026-03-22T15:11:09.914Z</time></trkpt><trkpt lat="30.25976119256719" lon="-6.7409003514176815"><ele>817.75</ele><time>2026-03-22T15:11:10.914Z</time></trkpt><trkpt lat="30.25966074370532" lon="-6.740864938024099"><ele>817.5</ele><time>2026-03-22T15:11:11.914Z</time></trkpt><trkpt lat="30.259553176734652" lon="-6.74078253861987"><ele>817.25</ele><time>2026-03-22T15:11:12.914Z</time></trkpt><trkpt lat="30.25945837473249" lon="-6.740718011976885"><ele>817.0</ele><time>2026-03-22T15:11:13.914Z</time></trkpt><trkpt lat="30.25935037146097" lon="-6.740684681061881"><ele>817.0</ele><time>2026-03-22T15:11:14.914Z</time></trkpt><trkpt lat="30.259229063823966" lon="-6.740676577964985"><ele>817.0</ele><time>2026-03-22T15:11:15.914Z</time></trkpt><trkpt lat="30.259117319661534" lon="-6.740641337274198"><ele>817.0</ele><time>2026-03-22T15:11:16.914Z</time></trkpt><trkpt lat="30.25903400045099" lon="-6.740598239917188"><ele>817.0</ele><time>2026-03-22T15:11:17.914Z</time></trkpt><trkpt lat="30.258956207779253" lon="-6.740526520109152"><ele>817.0</ele><time>2026-03-22T15:11:18.914Z</time></trkpt><trkpt lat="30.2588750762254" lon="-6.740473811133288"><ele>816.5</ele><time>2026-03-22T15:11:19.914Z</time></trkpt><trkpt lat="30.258801231536314" lon="-6.7404323280018605"><ele>816.0</ele><time>2026-03-22T15:11:20.914Z</time></trkpt><trkpt lat="30.258690975603425" lon="-6.740379441878749"><ele>815.5</ele><time>2026-03-22T15:11:22.914Z</time></trkpt><trkpt lat="30.258569287929145" lon="-6.740386258467859"><ele>815.0</ele><time>2026-03-22T15:11:24.914Z</time></trkpt><trkpt lat="30.25848632023446" lon="-6.740505186297469"><ele>815.0</ele><time>2026-03-22T15:11:26.914Z</time></trkpt><trkpt lat="30.25847539547505" lon="-6.740607478972505"><ele>815.0</ele><time>2026-03-22T15:11:27.914Z</time></trkpt><trkpt lat="30.258504919970502" lon="-6.740740221649698"><ele>815.0</ele><time>2026-03-22T15:11:28.914Z</time></trkpt><trkpt lat="30.258518006859088" lon="-6.740845773861566"><ele>815.0</ele><time>2026-03-22T15:11:29.914Z</time></trkpt><trkpt lat="30.25848959969835" lon="-6.7409626480763905"><ele>815.0</ele><time>2026-03-22T15:11:30.914Z</time></trkpt><trkpt lat="30.25844246416853" lon="-6.741110832251285"><ele>815.0</ele><time>2026-03-22T15:11:31.914Z</time></trkpt><trkpt lat="30.258408491549062" lon="-6.741300615926916"><ele>815.0</ele><time>2026-03-22T15:11:32.914Z</time></trkpt><trkpt lat="30.258376925202377" lon="-6.741478011744657"><ele>815.0</ele><time>2026-03-22T15:11:33.914Z</time></trkpt><trkpt lat="30.258337463929053" lon="-6.74163134568705"><ele>815.0</ele><time>2026-03-22T15:11:34.914Z</time></trkpt><trkpt lat="30.258289872969467" lon="-6.741763606130419"><ele>815.0</ele><time>2026-03-22T15:11:35.914Z</time></trkpt><trkpt lat="30.258242455229396" lon="-6.741872900732845"><ele>815.0</ele><time>2026-03-22T15:11:36.914Z</time></trkpt><trkpt lat="30.25820024099284" lon="-6.741956993745567"><ele>815.0</ele><time>2026-03-22T15:11:37.914Z</time></trkpt><trkpt lat="30.258156129107036" lon="-6.74203413096299"><ele>815.0</ele><time>2026-03-22T15:11:38.914Z</time></trkpt><trkpt lat="30.258109717289937" lon="-6.742095331724654"><ele>814.8</ele><time>2026-03-22T15:11:39.914Z</time></trkpt><trkpt lat="30.25804786053211" lon="-6.742124427464302"><ele>814.6</ele><time>2026-03-22T15:11:40.914Z</time></trkpt><trkpt lat="30.257960607537303" lon="-6.742143133206222"><ele>814.4000000000001</ele><time>2026-03-22T15:11:41.914Z</time></trkpt><trkpt lat="30.257860368260058" lon="-6.742187834872201"><ele>814.2</ele><time>2026-03-22T15:11:42.914Z</time></trkpt><trkpt lat="30.25776687816588" lon="-6.7422567078628575"><ele>814.0</ele><time>2026-03-22T15:11:43.914Z</time></trkpt><trkpt lat="30.2577008662465" lon="-6.742317051974344"><ele>813.9999999999999</ele><time>2026-03-22T15:11:44.914Z</time></trkpt><trkpt lat="30.25764117142243" lon="-6.742384073517422"><ele>814.0</ele><time>2026-03-22T15:11:45.914Z</time></trkpt><trkpt lat="30.25758328347493" lon="-6.742446077340857"><ele>814.0</ele><time>2026-03-22T15:11:46.914Z</time></trkpt><trkpt lat="30.25752961731976" lon="-6.742518953761404"><ele>814.0</ele><time>2026-03-22T15:11:47.914Z</time></trkpt><trkpt lat="30.257472136889486" lon="-6.742619116215567"><ele>813.9999999999999</ele><time>2026-03-22T15:11:48.914Z</time></trkpt><trkpt lat="30.25741419900374" lon="-6.742692339846122"><ele>814.0</ele><time>2026-03-22T15:11:49.914Z</time></trkpt><trkpt lat="30.257345828045953" lon="-6.742742623065587"><ele>814.2</ele><time>2026-03-22T15:11:50.914Z</time></trkpt><trkpt lat="30.257234154939034" lon="-6.742742785900678"><ele>814.4000000000001</ele><time>2026-03-22T15:11:52.914Z</time></trkpt><trkpt lat="30.25710880010371" lon="-6.7427291979531665"><ele>814.6</ele><time>2026-03-22T15:11:54.914Z</time></trkpt><trkpt lat="30.257018940815723" lon="-6.742733430461053"><ele>814.8</ele><time>2026-03-22T15:11:55.914Z</time></trkpt><trkpt lat="30.256923334639495" lon="-6.742744898188383"><ele>815.0</ele><time>2026-03-22T15:11:56.914Z</time></trkpt><trkpt lat="30.256825599634062" lon="-6.742770281603649"><ele>815.0</ele><time>2026-03-22T15:11:57.914Z</time></trkpt><trkpt lat="30.25673167583476" lon="-6.74280323542046"><ele>815.0</ele><time>2026-03-22T15:11:58.914Z</time></trkpt><trkpt lat="30.256639260201336" lon="-6.742839858690338"><ele>815.0</ele><time>2026-03-22T15:11:59.914Z</time></trkpt><trkpt lat="30.256547629883435" lon="-6.742898485468034"><ele>815.0</ele><time>2026-03-22T15:12:00.914Z</time></trkpt><trkpt lat="30.256458327290442" lon="-6.742974191195086"><ele>815.0</ele><time>2026-03-22T15:12:01.914Z</time></trkpt><trkpt lat="30.25636549085429" lon="-6.743047479348153"><ele>815.0</ele><time>2026-03-22T15:12:02.914Z</time></trkpt><trkpt lat="30.25627451685129" lon="-6.743129232893734"><ele>815.0</ele><time>2026-03-22T15:12:03.914Z</time></trkpt><trkpt lat="30.256183723463888" lon="-6.743212422086951"><ele>815.0</ele><time>2026-03-22T15:12:04.914Z</time></trkpt><trkpt lat="30.25609255827953" lon="-6.743299232742845"><ele>815.0</ele><time>2026-03-22T15:12:05.914Z</time></trkpt><trkpt lat="30.25599822572857" lon="-6.74338278138273"><ele>815.0</ele><time>2026-03-22T15:12:06.914Z</time></trkpt><trkpt lat="30.25589239380021" lon="-6.743468131655563"><ele>815.0</ele><time>2026-03-22T15:12:07.914Z</time></trkpt><trkpt lat="30.255767725189532" lon="-6.743559325856885"><ele>815.0</ele><time>2026-03-22T15:12:08.914Z</time></trkpt><trkpt lat="30.255652509357954" lon="-6.743652316778118"><ele>815.0</ele><time>2026-03-22T15:12:09.914Z</time></trkpt><trkpt lat="30.25555158295029" lon="-6.7437397633832"><ele>814.75</ele><time>2026-03-22T15:12:10.914Z</time></trkpt><trkpt lat="30.255450994640018" lon="-6.74382978915212"><ele>814.5</ele><time>2026-03-22T15:12:11.914Z</time></trkpt><trkpt lat="30.25534968342176" lon="-6.743910545510019"><ele>814.25</ele><time>2026-03-22T15:12:12.914Z</time></trkpt><trkpt lat="30.255252993227614" lon="-6.743993398189513"><ele>814.0</ele><time>2026-03-22T15:12:13.914Z</time></trkpt><trkpt lat="30.255153438353837" lon="-6.744076303223753"><ele>814.0</ele><time>2026-03-22T15:12:14.914Z</time></trkpt><trkpt lat="30.2550568291979" lon="-6.74415712606786"><ele>814.0</ele><time>2026-03-22T15:12:15.914Z</time></trkpt><trkpt lat="30.25496226998196" lon="-6.744243932857876"><ele>814.0</ele><time>2026-03-22T15:12:16.914Z</time></trkpt><trkpt lat="30.254861725124954" lon="-6.744332196357434"><ele>814.0</ele><time>2026-03-22T15:12:17.914Z</time></trkpt><trkpt lat="30.254759564246555" lon="-6.744412956716216"><ele>813.75</ele><time>2026-03-22T15:12:18.914Z</time></trkpt><trkpt lat="30.254663242161854" lon="-6.7444924644430015"><ele>813.5</ele><time>2026-03-22T15:12:19.914Z</time></trkpt><trkpt lat="30.254565166062807" lon="-6.744570759709739"><ele>813.25</ele><time>2026-03-22T15:12:20.914Z</time></trkpt><trkpt lat="30.254461998967514" lon="-6.744651859076994"><ele>813.0</ele><time>2026-03-22T15:12:21.914Z</time></trkpt><trkpt lat="30.25436549543145" lon="-6.744720315041794"><ele>813.0</ele><time>2026-03-22T15:12:22.914Z</time></trkpt><trkpt lat="30.254273617994823" lon="-6.744795454040246"><ele>813.0</ele><time>2026-03-22T15:12:23.914Z</time></trkpt><trkpt lat="30.254176449993405" lon="-6.744869371897094"><ele>813.0</ele><time>2026-03-22T15:12:24.914Z</time></trkpt><trkpt lat="30.254092266110515" lon="-6.744933360000189"><ele>813.0</ele><time>2026-03-22T15:12:25.914Z</time></trkpt><trkpt lat="30.254001756349556" lon="-6.745005401797245"><ele>813.0</ele><time>2026-03-22T15:12:26.914Z</time></trkpt><trkpt lat="30.253914592309663" lon="-6.745077145278008"><ele>812.75</ele><time>2026-03-22T15:12:27.914Z</time></trkpt><trkpt lat="30.253819971713504" lon="-6.745148853954136"><ele>812.5</ele><time>2026-03-22T15:12:28.914Z</time></trkpt><trkpt lat="30.253724886448286" lon="-6.745225808272309"><ele>812.25</ele><time>2026-03-22T15:12:29.914Z</time></trkpt><trkpt lat="30.253630551681105" lon="-6.7452997034140685"><ele>812.0</ele><time>2026-03-22T15:12:30.914Z</time></trkpt><trkpt lat="30.25352954524538" lon="-6.745374210075904"><ele>811.75</ele><time>2026-03-22T15:12:31.914Z</time></trkpt><trkpt lat="30.25343156457469" lon="-6.745441665987843"><ele>811.5</ele><time>2026-03-22T15:12:32.914Z</time></trkpt><trkpt lat="30.253332198469298" lon="-6.745517442900516"><ele>811.25</ele><time>2026-03-22T15:12:33.914Z</time></trkpt><trkpt lat="30.253235902665068" lon="-6.745589496675905"><ele>811.0</ele><time>2026-03-22T15:12:34.914Z</time></trkpt><trkpt lat="30.253141897752535" lon="-6.745670917568559"><ele>811.0</ele><time>2026-03-22T15:12:35.914Z</time></trkpt><trkpt lat="30.253034609993723" lon="-6.745745774244168"><ele>811.0</ele><time>2026-03-22T15:12:36.914Z</time></trkpt><trkpt lat="30.25292378868461" lon="-6.745807684337795"><ele>811.0</ele><time>2026-03-22T15:12:37.914Z</time></trkpt><trkpt lat="30.252808051638954" lon="-6.745866103444604"><ele>811.0</ele><time>2026-03-22T15:12:38.914Z</time></trkpt><trkpt lat="30.252701097833054" lon="-6.745925085894407"><ele>811.0</ele><time>2026-03-22T15:12:39.914Z</time></trkpt><trkpt lat="30.252598963042054" lon="-6.745983676442074"><ele>811.0</ele><time>2026-03-22T15:12:40.914Z</time></trkpt><trkpt lat="30.25249134448372" lon="-6.746041615187009"><ele>811.0</ele><time>2026-03-22T15:12:41.914Z</time></trkpt><trkpt lat="30.252388666545006" lon="-6.746106330586444"><ele>811.0</ele><time>2026-03-22T15:12:42.914Z</time></trkpt><trkpt lat="30.252273499929476" lon="-6.74617783531929"><ele>810.75</ele><time>2026-03-22T15:12:43.914Z</time></trkpt><trkpt lat="30.252157014507418" lon="-6.746244807953667"><ele>810.5</ele><time>2026-03-22T15:12:44.914Z</time></trkpt><trkpt lat="30.252043691720736" lon="-6.746310887790174"><ele>810.25</ele><time>2026-03-22T15:12:45.914Z</time></trkpt><trkpt lat="30.251928277750515" lon="-6.746373755101103"><ele>810.0</ele><time>2026-03-22T15:12:46.914Z</time></trkpt><trkpt lat="30.25181760718162" lon="-6.746437110419512"><ele>810.0</ele><time>2026-03-22T15:12:47.914Z</time></trkpt><trkpt lat="30.251711674918422" lon="-6.746501322666109"><ele>810.0</ele><time>2026-03-22T15:12:48.914Z</time></trkpt><trkpt lat="30.25160482488739" lon="-6.74656225325328"><ele>810.0</ele><time>2026-03-22T15:12:49.914Z</time></trkpt><trkpt lat="30.25150157777662" lon="-6.746622639284763"><ele>810.0</ele><time>2026-03-22T15:12:50.914Z</time></trkpt><trkpt lat="30.251395108379757" lon="-6.746683129664008"><ele>809.75</ele><time>2026-03-22T15:12:51.914Z</time></trkpt><trkpt lat="30.251287405971762" lon="-6.746738699670283"><ele>809.5</ele><time>2026-03-22T15:12:52.914Z</time></trkpt><trkpt lat="30.25117890761689" lon="-6.746790163621438"><ele>809.25</ele><time>2026-03-22T15:12:53.914Z</time></trkpt><trkpt lat="30.25107139803096" lon="-6.746848642466733"><ele>809.0</ele><time>2026-03-22T15:12:54.914Z</time></trkpt><trkpt lat="30.25095887119042" lon="-6.7469106172905"><ele>809.0</ele><time>2026-03-22T15:12:55.914Z</time></trkpt><trkpt lat="30.25083652887099" lon="-6.746980542213315"><ele>809.0</ele><time>2026-03-22T15:12:56.914Z</time></trkpt><trkpt lat="30.250721714755052" lon="-6.747041453318079"><ele>809.0</ele><time>2026-03-22T15:12:57.914Z</time></trkpt><trkpt lat="30.250612691677215" lon="-6.747102252726984"><ele>809.0</ele><time>2026-03-22T15:12:58.915Z</time></trkpt><trkpt lat="30.25049692080291" lon="-6.7471679584913895"><ele>809.0</ele><time>2026-03-22T15:12:59.914Z</time></trkpt><trkpt lat="30.250365320422105" lon="-6.747240069998116"><ele>809.0</ele><time>2026-03-22T15:13:00.914Z</time></trkpt><trkpt lat="30.25024756618679" lon="-6.747309511235676"><ele>809.0</ele><time>2026-03-22T15:13:01.915Z</time></trkpt><trkpt lat="30.250136731758065" lon="-6.74736288093948"><ele>809.0</ele><time>2026-03-22T15:13:02.914Z</time></trkpt><trkpt lat="30.250013558202124" lon="-6.747405655918513"><ele>809.0</ele><time>2026-03-22T15:13:03.914Z</time></trkpt><trkpt lat="30.24987703194291" lon="-6.747455342980098"><ele>809.0</ele><time>2026-03-22T15:13:04.914Z</time></trkpt><trkpt lat="30.249740520707714" lon="-6.747511925365892"><ele>809.0</ele><time>2026-03-22T15:13:05.914Z</time></trkpt><trkpt lat="30.249612412593837" lon="-6.74756935277111"><ele>809.0</ele><time>2026-03-22T15:13:06.914Z</time></trkpt><trkpt lat="30.2494947830738" lon="-6.747626128417188"><ele>809.0</ele><time>2026-03-22T15:13:07.914Z</time></trkpt><trkpt lat="30.249379671177163" lon="-6.74768219356879"><ele>809.0</ele><time>2026-03-22T15:13:08.914Z</time></trkpt><trkpt lat="30.249265799386876" lon="-6.747741715711675"><ele>809.0</ele><time>2026-03-22T15:13:09.914Z</time></trkpt><trkpt lat="30.249146708267176" lon="-6.747806400962672"><ele>809.0</ele><time>2026-03-22T15:13:10.914Z</time></trkpt><trkpt lat="30.249026121713758" lon="-6.747879447104994"><ele>808.5</ele><time>2026-03-22T15:13:11.914Z</time></trkpt><trkpt lat="30.248907801678143" lon="-6.747951929928609"><ele>808.0</ele><time>2026-03-22T15:13:12.914Z</time></trkpt><trkpt lat="30.248791724489784" lon="-6.7480269362092535"><ele>807.5</ele><time>2026-03-22T15:13:13.914Z</time></trkpt><trkpt lat="30.24867235762639" lon="-6.74810695402895"><ele>807.0</ele><time>2026-03-22T15:13:14.914Z</time></trkpt><trkpt lat="30.248535139627702" lon="-6.748191008556983"><ele>807.0</ele><time>2026-03-22T15:13:15.914Z</time></trkpt><trkpt lat="30.248385980292284" lon="-6.748270121066874"><ele>807.0</ele><time>2026-03-22T15:13:16.914Z</time></trkpt><trkpt lat="30.248254193922413" lon="-6.748338180660661"><ele>807.0</ele><time>2026-03-22T15:13:17.914Z</time></trkpt><trkpt lat="30.248129605750233" lon="-6.748400635082349"><ele>807.0</ele><time>2026-03-22T15:13:18.914Z</time></trkpt><trkpt lat="30.248009434122093" lon="-6.748463235612738"><ele>807.25</ele><time>2026-03-22T15:13:19.914Z</time></trkpt><trkpt lat="30.24789116359331" lon="-6.748527299796441"><ele>807.5</ele><time>2026-03-22T15:13:20.914Z</time></trkpt><trkpt lat="30.247767066528343" lon="-6.748596970891342"><ele>807.75</ele><time>2026-03-22T15:13:21.914Z</time></trkpt><trkpt lat="30.247645025085927" lon="-6.748663098924342"><ele>808.0</ele><time>2026-03-22T15:13:22.914Z</time></trkpt><trkpt lat="30.24753030774895" lon="-6.748728261334976"><ele>807.5</ele><time>2026-03-22T15:13:23.914Z</time></trkpt><trkpt lat="30.247414629493885" lon="-6.74879997069774"><ele>807.0</ele><time>2026-03-22T15:13:24.914Z</time></trkpt><trkpt lat="30.24730217607769" lon="-6.748877705576158"><ele>806.5</ele><time>2026-03-22T15:13:25.914Z</time></trkpt><trkpt lat="30.247190866560402" lon="-6.748952446111698"><ele>806.0</ele><time>2026-03-22T15:13:26.914Z</time></trkpt><trkpt lat="30.247073002343903" lon="-6.749018699553755"><ele>806.0</ele><time>2026-03-22T15:13:27.913Z</time></trkpt><trkpt lat="30.246946863038104" lon="-6.749082369851092"><ele>806.0</ele><time>2026-03-22T15:13:28.913Z</time></trkpt><trkpt lat="30.246811129072398" lon="-6.749146362276731"><ele>806.0</ele><time>2026-03-22T15:13:29.913Z</time></trkpt><trkpt lat="30.246681423742853" lon="-6.749217540376669"><ele>806.0</ele><time>2026-03-22T15:13:30.913Z</time></trkpt><trkpt lat="30.246565543989263" lon="-6.749285885881459"><ele>805.75</ele><time>2026-03-22T15:13:31.913Z</time></trkpt><trkpt lat="30.246455470510075" lon="-6.749352697916918"><ele>805.5</ele><time>2026-03-22T15:13:32.913Z</time></trkpt><trkpt lat="30.246348019170902" lon="-6.749419607270524"><ele>805.25</ele><time>2026-03-22T15:13:33.913Z</time></trkpt><trkpt lat="30.246225692213972" lon="-6.749492366245065"><ele>805.0</ele><time>2026-03-22T15:13:34.913Z</time></trkpt><trkpt lat="30.246098160638752" lon="-6.749553289358136"><ele>804.75</ele><time>2026-03-22T15:13:35.913Z</time></trkpt><trkpt lat="30.245970958426156" lon="-6.74960956713507"><ele>804.5</ele><time>2026-03-22T15:13:36.913Z</time></trkpt><trkpt lat="30.245850098520616" lon="-6.749661674827563"><ele>804.25</ele><time>2026-03-22T15:13:37.913Z</time></trkpt><trkpt lat="30.245737169986153" lon="-6.749713721541416"><ele>804.0</ele><time>2026-03-22T15:13:38.913Z</time></trkpt><trkpt lat="30.245635655080445" lon="-6.749772243057551"><ele>804.0</ele><time>2026-03-22T15:13:39.913Z</time></trkpt><trkpt lat="30.245547846307506" lon="-6.749841872618132"><ele>804.0</ele><time>2026-03-22T15:13:40.913Z</time></trkpt><trkpt lat="30.245476630899326" lon="-6.749903735592586"><ele>804.0</ele><time>2026-03-22T15:13:41.913Z</time></trkpt><trkpt lat="30.245423736514102" lon="-6.749950724144904"><ele>804.0</ele><time>2026-03-22T15:13:42.913Z</time></trkpt><trkpt lat="30.245356938501857" lon="-6.749988226014669"><ele>804.0</ele><time>2026-03-22T15:13:43.913Z</time></trkpt><trkpt lat="30.245289457233685" lon="-6.75001419413241"><ele>804.0</ele><time>2026-03-22T15:13:44.913Z</time></trkpt><trkpt lat="30.24521719791329" lon="-6.750020231099673"><ele>804.0</ele><time>2026-03-22T15:13:45.913Z</time></trkpt><trkpt lat="30.245142313482045" lon="-6.750032006887475"><ele>804.0</ele><time>2026-03-22T15:13:46.913Z</time></trkpt><trkpt lat="30.245061857794198" lon="-6.750061190922772"><ele>804.0</ele><time>2026-03-22T15:13:47.913Z</time></trkpt><trkpt lat="30.244986391340362" lon="-6.75011071038341"><ele>804.0</ele><time>2026-03-22T15:13:48.913Z</time></trkpt><trkpt lat="30.24491283980032" lon="-6.7501677523146295"><ele>804.0</ele><time>2026-03-22T15:13:49.913Z</time></trkpt><trkpt lat="30.24484701177233" lon="-6.7502305971762535"><ele>804.0</ele><time>2026-03-22T15:13:50.913Z</time></trkpt><trkpt lat="30.24477751891131" lon="-6.750286756660815"><ele>803.2</ele><time>2026-03-22T15:13:51.913Z</time></trkpt><trkpt lat="30.24469815250008" lon="-6.750348262863302"><ele>802.4000000000001</ele><time>2026-03-22T15:13:52.913Z</time></trkpt><trkpt lat="30.244630163760274" lon="-6.750415707538353"><ele>801.6</ele><time>2026-03-22T15:13:53.913Z</time></trkpt><trkpt lat="30.244547540762337" lon="-6.750483268489833"><ele>800.8</ele><time>2026-03-22T15:13:54.913Z</time></trkpt><trkpt lat="30.24445687806547" lon="-6.750558998502879"><ele>800.0</ele><time>2026-03-22T15:13:55.913Z</time></trkpt><trkpt lat="30.244354113532157" lon="-6.750645783776746"><ele>800.0</ele><time>2026-03-22T15:13:56.913Z</time></trkpt><trkpt lat="30.244231721385344" lon="-6.750765502364344"><ele>800.0</ele><time>2026-03-22T15:13:57.913Z</time></trkpt><trkpt lat="30.244108303016272" lon="-6.7508879543813975"><ele>800.0</ele><time>2026-03-22T15:13:58.913Z</time></trkpt><trkpt lat="30.244008119435282" lon="-6.750968803198541"><ele>800.0</ele><time>2026-03-22T15:13:59.913Z</time></trkpt><trkpt lat="30.24389559200478" lon="-6.751041628534561"><ele>800.5</ele><time>2026-03-22T15:14:00.913Z</time></trkpt><trkpt lat="30.2437850189189" lon="-6.751092889983751"><ele>801.0</ele><time>2026-03-22T15:14:01.913Z</time></trkpt><trkpt lat="30.2436670651077" lon="-6.751142396579486"><ele>801.5</ele><time>2026-03-22T15:14:02.913Z</time></trkpt><trkpt lat="30.24355471380928" lon="-6.751219909163521"><ele>802.0</ele><time>2026-03-22T15:14:03.913Z</time></trkpt><trkpt lat="30.24346099809072" lon="-6.751292430630135"><ele>802.0</ele><time>2026-03-22T15:14:04.913Z</time></trkpt><trkpt lat="30.243365951850205" lon="-6.751368453443005"><ele>802.0</ele><time>2026-03-22T15:14:05.913Z</time></trkpt><trkpt lat="30.24326535234683" lon="-6.751430314347514"><ele>802.0</ele><time>2026-03-22T15:14:06.913Z</time></trkpt><trkpt lat="30.243163771214466" lon="-6.7514829152155915"><ele>802.0</ele><time>2026-03-22T15:14:07.913Z</time></trkpt><trkpt lat="30.24307050315133" lon="-6.751543620883104"><ele>802.0</ele><time>2026-03-22T15:14:08.913Z</time></trkpt><trkpt lat="30.24298125506803" lon="-6.7516043658504685"><ele>801.6</ele><time>2026-03-22T15:14:09.913Z</time></trkpt><trkpt lat="30.242893269751413" lon="-6.7516684196742185"><ele>801.2</ele><time>2026-03-22T15:14:10.913Z</time></trkpt><trkpt lat="30.242802986956207" lon="-6.751741470426599"><ele>800.8</ele><time>2026-03-22T15:14:11.913Z</time></trkpt><trkpt lat="30.242711515826866" lon="-6.751814793461333"><ele>800.4</ele><time>2026-03-22T15:14:12.913Z</time></trkpt><trkpt lat="30.242611653829826" lon="-6.751888190890571"><ele>800.0</ele><time>2026-03-22T15:14:13.913Z</time></trkpt><trkpt lat="30.242515409600983" lon="-6.751956420923669"><ele>800.0</ele><time>2026-03-22T15:14:14.913Z</time></trkpt><trkpt lat="30.24242024802959" lon="-6.752020597854433"><ele>800.0</ele><time>2026-03-22T15:14:15.913Z</time></trkpt><trkpt lat="30.242311761628528" lon="-6.752084510291463"><ele>800.0</ele><time>2026-03-22T15:14:16.913Z</time></trkpt><trkpt lat="30.24219108641557" lon="-6.752155133301116"><ele>800.0</ele><time>2026-03-22T15:14:17.913Z</time></trkpt><trkpt lat="30.24208934399884" lon="-6.752214587370766"><ele>800.0</ele><time>2026-03-22T15:14:18.913Z</time></trkpt><trkpt lat="30.242003602045727" lon="-6.75225966515663"><ele>800.0</ele><time>2026-03-22T15:14:19.913Z</time></trkpt><trkpt lat="30.241920044145175" lon="-6.752302360649471"><ele>800.0</ele><time>2026-03-22T15:14:20.913Z</time></trkpt><trkpt lat="30.241828336711453" lon="-6.752354565106788"><ele>800.0</ele><time>2026-03-22T15:14:21.913Z</time></trkpt><trkpt lat="30.241743335337734" lon="-6.752411585804262"><ele>800.0</ele><time>2026-03-22T15:14:22.913Z</time></trkpt><trkpt lat="30.241662429088265" lon="-6.7524597564125575"><ele>800.0</ele><time>2026-03-22T15:14:23.913Z</time></trkpt><trkpt lat="30.241570989634756" lon="-6.752500575339077"><ele>800.0</ele><time>2026-03-22T15:14:24.913Z</time></trkpt><trkpt lat="30.24146935757256" lon="-6.752529875907012"><ele>800.0</ele><time>2026-03-22T15:14:25.913Z</time></trkpt><trkpt lat="30.24136443226744" lon="-6.752545012571334"><ele>800.0</ele><time>2026-03-22T15:14:26.913Z</time></trkpt><trkpt lat="30.24124861338086" lon="-6.752550768252441"><ele>800.0</ele><time>2026-03-22T15:14:27.913Z</time></trkpt><trkpt lat="30.241125978142573" lon="-6.752565500673316"><ele>800.0</ele><time>2026-03-22T15:14:28.913Z</time></trkpt><trkpt lat="30.24100478271208" lon="-6.752583808841677"><ele>800.0</ele><time>2026-03-22T15:14:29.913Z</time></trkpt><trkpt lat="30.240881320910173" lon="-6.752610006088266"><ele>800.0</ele><time>2026-03-22T15:14:30.913Z</time></trkpt><trkpt lat="30.240762860282786" lon="-6.75264321340887"><ele>800.0</ele><time>2026-03-22T15:14:31.913Z</time></trkpt><trkpt lat="30.240642461213298" lon="-6.752680379586796"><ele>799.75</ele><time>2026-03-22T15:14:32.913Z</time></trkpt><trkpt lat="30.240515996794045" lon="-6.7527091610628664"><ele>799.5</ele><time>2026-03-22T15:14:33.913Z</time></trkpt><trkpt lat="30.240387513703084" lon="-6.752739691655833"><ele>799.25</ele><time>2026-03-22T15:14:34.913Z</time></trkpt><trkpt lat="30.24025026284927" lon="-6.752770058522243"><ele>799.0</ele><time>2026-03-22T15:14:35.913Z</time></trkpt><trkpt lat="30.240102677107974" lon="-6.75280025932379"><ele>799.0</ele><time>2026-03-22T15:14:36.913Z</time></trkpt><trkpt lat="30.239964539093197" lon="-6.7528432346441685"><ele>799.0</ele><time>2026-03-22T15:14:37.913Z</time></trkpt><trkpt lat="30.23981342619234" lon="-6.7528846149578"><ele>799.0</ele><time>2026-03-22T15:14:38.913Z</time></trkpt><trkpt lat="30.2396607065962" lon="-6.752928968402869"><ele>798.75</ele><time>2026-03-22T15:14:39.913Z</time></trkpt><trkpt lat="30.239519109658747" lon="-6.752962935405749"><ele>798.5</ele><time>2026-03-22T15:14:40.913Z</time></trkpt><trkpt lat="30.23939787920735" lon="-6.752994028188278"><ele>798.25</ele><time>2026-03-22T15:14:41.913Z</time></trkpt><trkpt lat="30.23928046921024" lon="-6.753042505727112"><ele>798.0</ele><time>2026-03-22T15:14:42.913Z</time></trkpt><trkpt lat="30.239165506960024" lon="-6.753095417811808"><ele>798.0</ele><time>2026-03-22T15:14:43.913Z</time></trkpt><trkpt lat="30.239055423394955" lon="-6.753169697400424"><ele>798.0</ele><time>2026-03-22T15:14:44.913Z</time></trkpt><trkpt lat="30.238948212313414" lon="-6.753223854189904"><ele>798.0</ele><time>2026-03-22T15:14:45.913Z</time></trkpt><trkpt lat="30.238843128682387" lon="-6.753274937113661"><ele>798.0</ele><time>2026-03-22T15:14:46.913Z</time></trkpt><trkpt lat="30.238732126215663" lon="-6.7533311068694735"><ele>798.0</ele><time>2026-03-22T15:14:47.913Z</time></trkpt><trkpt lat="30.238612673535364" lon="-6.753394555202352"><ele>798.0</ele><time>2026-03-22T15:14:48.913Z</time></trkpt><trkpt lat="30.238485661689115" lon="-6.753457499516194"><ele>798.0</ele><time>2026-03-22T15:14:49.913Z</time></trkpt><trkpt lat="30.23835600090482" lon="-6.753521754889522"><ele>798.0</ele><time>2026-03-22T15:14:50.913Z</time></trkpt><trkpt lat="30.238238785628788" lon="-6.7535838485191215"><ele>798.0</ele><time>2026-03-22T15:14:51.913Z</time></trkpt><trkpt lat="30.238116342332695" lon="-6.753658952666796"><ele>798.0</ele><time>2026-03-22T15:14:52.913Z</time></trkpt><trkpt lat="30.23799652397765" lon="-6.753722627565397"><ele>798.0</ele><time>2026-03-22T15:14:53.913Z</time></trkpt><trkpt lat="30.237881708797197" lon="-6.75379513841467"><ele>798.0</ele><time>2026-03-22T15:14:54.913Z</time></trkpt><trkpt lat="30.23776708510711" lon="-6.753875006152593"><ele>798.0</ele><time>2026-03-22T15:14:55.913Z</time></trkpt><trkpt lat="30.237651407400843" lon="-6.7539483108947875"><ele>798.0</ele><time>2026-03-22T15:14:56.914Z</time></trkpt><trkpt lat="30.237540609179337" lon="-6.754026014816595"><ele>798.0</ele><time>2026-03-22T15:14:57.914Z</time></trkpt><trkpt lat="30.237425543678132" lon="-6.754099305171596"><ele>798.0</ele><time>2026-03-22T15:14:58.913Z</time></trkpt><trkpt lat="30.237313168506297" lon="-6.754171365329537"><ele>797.75</ele><time>2026-03-22T15:14:59.914Z</time></trkpt><trkpt lat="30.237202678534448" lon="-6.75424114004788"><ele>797.5</ele><time>2026-03-22T15:15:00.914Z</time></trkpt><trkpt lat="30.23709149272188" lon="-6.754316051862221"><ele>797.25</ele><time>2026-03-22T15:15:01.913Z</time></trkpt><trkpt lat="30.236974618964542" lon="-6.754378938421659"><ele>797.0</ele><time>2026-03-22T15:15:02.914Z</time></trkpt><trkpt lat="30.23686357004386" lon="-6.754453492944103"><ele>797.5</ele><time>2026-03-22T15:15:03.914Z</time></trkpt><trkpt lat="30.23675076981505" lon="-6.754523017698853"><ele>798.0</ele><time>2026-03-22T15:15:04.913Z</time></trkpt><trkpt lat="30.236646909737583" lon="-6.754605142378192"><ele>798.5</ele><time>2026-03-22T15:15:05.914Z</time></trkpt><trkpt lat="30.236546119551754" lon="-6.754687521482771"><ele>799.0</ele><time>2026-03-22T15:15:06.914Z</time></trkpt><trkpt lat="30.236422963338164" lon="-6.754761221199991"><ele>798.0</ele><time>2026-03-22T15:15:07.914Z</time></trkpt><trkpt lat="30.23628666381396" lon="-6.754815272461177"><ele>797.0</ele><time>2026-03-22T15:15:08.914Z</time></trkpt><trkpt lat="30.236144225915112" lon="-6.754856115440961"><ele>796.0</ele><time>2026-03-22T15:15:09.914Z</time></trkpt><trkpt lat="30.23601772070567" lon="-6.754917014592541"><ele>795.0</ele><time>2026-03-22T15:15:10.914Z</time></trkpt><trkpt lat="30.23588416178301" lon="-6.75498172428328"><ele>795.0</ele><time>2026-03-22T15:15:11.914Z</time></trkpt><trkpt lat="30.235749913079502" lon="-6.755055030921935"><ele>795.0</ele><time>2026-03-22T15:15:12.914Z</time></trkpt><trkpt lat="30.235594644563296" lon="-6.755113181030006"><ele>795.0</ele><time>2026-03-22T15:15:13.914Z</time></trkpt><trkpt lat="30.235461859355915" lon="-6.75516814163862"><ele>795.75</ele><time>2026-03-22T15:15:14.914Z</time></trkpt><trkpt lat="30.23535267797843" lon="-6.755223244424839"><ele>796.5</ele><time>2026-03-22T15:15:15.914Z</time></trkpt><trkpt lat="30.23523307355319" lon="-6.75528595151228"><ele>797.25</ele><time>2026-03-22T15:15:16.914Z</time></trkpt><trkpt lat="30.2351071491112" lon="-6.755356228051607"><ele>798.0</ele><time>2026-03-22T15:15:17.914Z</time></trkpt><trkpt lat="30.234970747686262" lon="-6.755417136057919"><ele>798.0</ele><time>2026-03-22T15:15:18.914Z</time></trkpt><trkpt lat="30.23483035295106" lon="-6.755475011980417"><ele>798.0</ele><time>2026-03-22T15:15:19.914Z</time></trkpt><trkpt lat="30.23470968113779" lon="-6.7555145048274845"><ele>798.0</ele><time>2026-03-22T15:15:20.914Z</time></trkpt><trkpt lat="30.23460167857162" lon="-6.755550286278337"><ele>798.0</ele><time>2026-03-22T15:15:21.914Z</time></trkpt><trkpt lat="30.234489704532603" lon="-6.755588479707444"><ele>797.0</ele><time>2026-03-22T15:15:22.914Z</time></trkpt><trkpt lat="30.234376188515494" lon="-6.755631682663336"><ele>796.0</ele><time>2026-03-22T15:15:23.914Z</time></trkpt><trkpt lat="30.234267248382974" lon="-6.755670499127453"><ele>795.0</ele><time>2026-03-22T15:15:24.914Z</time></trkpt><trkpt lat="30.234137492192822" lon="-6.75571172214628"><ele>794.0</ele><time>2026-03-22T15:15:25.914Z</time></trkpt><trkpt lat="30.23397671518341" lon="-6.755751941100539"><ele>793.6666666666667</ele><time>2026-03-22T15:15:26.914Z</time></trkpt><trkpt lat="30.233787356990746" lon="-6.755779768193554"><ele>793.3333333333333</ele><time>2026-03-22T15:15:27.914Z</time></trkpt><trkpt lat="30.233604929757707" lon="-6.755797294318228"><ele>793.0</ele><time>2026-03-22T15:15:28.914Z</time></trkpt><trkpt lat="30.233439621478368" lon="-6.755810299911272"><ele>793.0</ele><time>2026-03-22T15:15:29.914Z</time></trkpt><trkpt lat="30.233295311694647" lon="-6.755820847922973"><ele>793.0</ele><time>2026-03-22T15:15:30.914Z</time></trkpt><trkpt lat="30.233159634650438" lon="-6.755832325889255"><ele>793.0</ele><time>2026-03-22T15:15:31.914Z</time></trkpt><trkpt lat="30.23301880764626" lon="-6.755852494579194"><ele>793.0</ele><time>2026-03-22T15:15:32.914Z</time></trkpt><trkpt lat="30.2328690875155" lon="-6.755876171691174"><ele>792.6666666666666</ele><time>2026-03-22T15:15:33.914Z</time></trkpt><trkpt lat="30.232716281983542" lon="-6.755901995314985"><ele>792.3333333333333</ele><time>2026-03-22T15:15:34.914Z</time></trkpt><trkpt lat="30.232558792696352" lon="-6.755926813516654"><ele>792.0</ele><time>2026-03-22T15:15:35.914Z</time></trkpt><trkpt lat="30.23240809028575" lon="-6.755940167066332"><ele>791.5</ele><time>2026-03-22T15:15:36.913Z</time></trkpt><trkpt lat="30.23226398103912" lon="-6.7559561554217336"><ele>791.0</ele><time>2026-03-22T15:15:37.913Z</time></trkpt><trkpt lat="30.232125933494277" lon="-6.755982725581223"><ele>790.5</ele><time>2026-03-22T15:15:38.913Z</time></trkpt><trkpt lat="30.231995710447492" lon="-6.756023482642814"><ele>790.0</ele><time>2026-03-22T15:15:39.913Z</time></trkpt><trkpt lat="30.231858015043212" lon="-6.7560697672806125"><ele>790.0</ele><time>2026-03-22T15:15:40.913Z</time></trkpt><trkpt lat="30.23169907457969" lon="-6.75611810335195"><ele>790.0</ele><time>2026-03-22T15:15:41.913Z</time></trkpt><trkpt lat="30.23152027168038" lon="-6.756160776519062"><ele>790.0</ele><time>2026-03-22T15:15:42.913Z</time></trkpt><trkpt lat="30.231360470846923" lon="-6.756200119234224"><ele>790.0</ele><time>2026-03-22T15:15:43.913Z</time></trkpt><trkpt lat="30.231201197074896" lon="-6.756245292617034"><ele>790.0</ele><time>2026-03-22T15:15:44.913Z</time></trkpt><trkpt lat="30.231032109726407" lon="-6.756297930030897"><ele>790.0</ele><time>2026-03-22T15:15:45.913Z</time></trkpt><trkpt lat="30.230876386284777" lon="-6.756347721356464"><ele>790.0</ele><time>2026-03-22T15:15:46.913Z</time></trkpt><trkpt lat="30.23073784382941" lon="-6.75638895189424"><ele>790.0</ele><time>2026-03-22T15:15:47.913Z</time></trkpt><trkpt lat="30.230601816627413" lon="-6.7564311475524645"><ele>790.0</ele><time>2026-03-22T15:15:48.913Z</time></trkpt><trkpt lat="30.230450119522757" lon="-6.756478194924219"><ele>790.0</ele><time>2026-03-22T15:15:49.913Z</time></trkpt><trkpt lat="30.230310802638158" lon="-6.756517331975076"><ele>789.6666666666666</ele><time>2026-03-22T15:15:50.913Z</time></trkpt><trkpt lat="30.230167661205748" lon="-6.756576673205796"><ele>789.3333333333333</ele><time>2026-03-22T15:15:51.913Z</time></trkpt><trkpt lat="30.23000524328449" lon="-6.756658848951946"><ele>789.0</ele><time>2026-03-22T15:15:52.913Z</time></trkpt><trkpt lat="30.229871160354566" lon="-6.756750450935687"><ele>788.6666666666667</ele><time>2026-03-22T15:15:53.913Z</time></trkpt><trkpt lat="30.22975571417813" lon="-6.7568513646931825"><ele>788.3333333333334</ele><time>2026-03-22T15:15:54.913Z</time></trkpt><trkpt lat="30.229637372028616" lon="-6.75695922795195"><ele>788.0</ele><time>2026-03-22T15:15:55.913Z</time></trkpt><trkpt lat="30.22950325252367" lon="-6.757062119316588"><ele>788.0</ele><time>2026-03-22T15:15:56.913Z</time></trkpt><trkpt lat="30.22936620147472" lon="-6.757157230770039"><ele>788.0</ele><time>2026-03-22T15:15:57.913Z</time></trkpt><trkpt lat="30.229227110790028" lon="-6.757240702292744"><ele>788.0</ele><time>2026-03-22T15:15:58.913Z</time></trkpt><trkpt lat="30.2290857758419" lon="-6.757308320520601"><ele>788.0</ele><time>2026-03-22T15:15:59.913Z</time></trkpt><trkpt lat="30.22895535205813" lon="-6.757380071332704"><ele>788.0</ele><time>2026-03-22T15:16:00.913Z</time></trkpt><trkpt lat="30.228842290944005" lon="-6.757457303281181"><ele>788.0</ele><time>2026-03-22T15:16:01.913Z</time></trkpt><trkpt lat="30.228736846582574" lon="-6.757545720352902"><ele>788.0</ele><time>2026-03-22T15:16:02.913Z</time></trkpt><trkpt lat="30.228626130009722" lon="-6.757637016533211"><ele>788.0</ele><time>2026-03-22T15:16:03.913Z</time></trkpt><trkpt lat="30.228499762372643" lon="-6.757705848762284"><ele>788.0</ele><time>2026-03-22T15:16:04.913Z</time></trkpt><trkpt lat="30.22835484533904" lon="-6.757785468773706"><ele>788.0</ele><time>2026-03-22T15:16:05.913Z</time></trkpt><trkpt lat="30.228211096176196" lon="-6.757851348585816"><ele>787.25</ele><time>2026-03-22T15:16:06.913Z</time></trkpt><trkpt lat="30.22806586546792" lon="-6.757918863312004"><ele>786.5</ele><time>2026-03-22T15:16:07.913Z</time></trkpt><trkpt lat="30.227936365310544" lon="-6.757986177921518"><ele>785.75</ele><time>2026-03-22T15:16:08.913Z</time></trkpt><trkpt lat="30.227813572134487" lon="-6.75805360424324"><ele>785.0</ele><time>2026-03-22T15:16:09.913Z</time></trkpt><trkpt lat="30.22769959914349" lon="-6.758121233622357"><ele>785.0</ele><time>2026-03-22T15:16:10.913Z</time></trkpt><trkpt lat="30.227573859962767" lon="-6.758178863149142"><ele>785.0</ele><time>2026-03-22T15:16:11.913Z</time></trkpt><trkpt lat="30.227448587217058" lon="-6.758238727747111"><ele>785.0</ele><time>2026-03-22T15:16:12.913Z</time></trkpt><trkpt lat="30.22733538930856" lon="-6.7582989834152185"><ele>785.0</ele><time>2026-03-22T15:16:13.913Z</time></trkpt><trkpt lat="30.22722768315042" lon="-6.758359956477837"><ele>785.0</ele><time>2026-03-22T15:16:14.913Z</time></trkpt><trkpt lat="30.22712275328257" lon="-6.758429408301208"><ele>785.0</ele><time>2026-03-22T15:16:15.913Z</time></trkpt><trkpt lat="30.22700431257274" lon="-6.75847799216167"><ele>785.0</ele><time>2026-03-22T15:16:16.913Z</time></trkpt><trkpt lat="30.226880747322703" lon="-6.758532422685645"><ele>785.0</ele><time>2026-03-22T15:16:17.913Z</time></trkpt><trkpt lat="30.22676608794837" lon="-6.758591247888331"><ele>785.0</ele><time>2026-03-22T15:16:18.913Z</time></trkpt><trkpt lat="30.226650682107483" lon="-6.758639884024142"><ele>785.0</ele><time>2026-03-22T15:16:19.913Z</time></trkpt><trkpt lat="30.22651157282595" lon="-6.758698095975982"><ele>785.0</ele><time>2026-03-22T15:16:20.913Z</time></trkpt><trkpt lat="30.226373164398755" lon="-6.758763086160839"><ele>785.0</ele><time>2026-03-22T15:16:21.913Z</time></trkpt><trkpt lat="30.226241146210683" lon="-6.758829905273878"><ele>784.8</ele><time>2026-03-22T15:16:22.913Z</time></trkpt><trkpt lat="30.22612416520483" lon="-6.7588944196448315"><ele>784.6</ele><time>2026-03-22T15:16:23.913Z</time></trkpt><trkpt lat="30.226018868549055" lon="-6.758944798135633"><ele>784.4000000000001</ele><time>2026-03-22T15:16:24.913Z</time></trkpt><trkpt lat="30.22592481828181" lon="-6.7589919601802455"><ele>784.2</ele><time>2026-03-22T15:16:25.913Z</time></trkpt><trkpt lat="30.22584168210407" lon="-6.75904758933666"><ele>784.0</ele><time>2026-03-22T15:16:26.913Z</time></trkpt><trkpt lat="30.225768787957296" lon="-6.759094669581597"><ele>783.9999999999999</ele><time>2026-03-22T15:16:27.913Z</time></trkpt><trkpt lat="30.22569413750419" lon="-6.759118113172904"><ele>784.0</ele><time>2026-03-22T15:16:28.913Z</time></trkpt><trkpt lat="30.225619953005776" lon="-6.759138944378451"><ele>784.0</ele><time>2026-03-22T15:16:29.913Z</time></trkpt><trkpt lat="30.225554745445894" lon="-6.7591735025549875"><ele>784.0</ele><time>2026-03-22T15:16:30.913Z</time></trkpt><trkpt lat="30.225496521972342" lon="-6.759231740731686"><ele>783.9999999999999</ele><time>2026-03-22T15:16:31.913Z</time></trkpt><trkpt lat="30.225436392943646" lon="-6.759288439118195"><ele>784.0</ele><time>2026-03-22T15:16:32.913Z</time></trkpt><trkpt lat="30.225361443006676" lon="-6.759343656422111"><ele>784.4000000000001</ele><time>2026-03-22T15:16:33.913Z</time></trkpt><trkpt lat="30.225256932252112" lon="-6.759368680983265"><ele>784.8</ele><time>2026-03-22T15:16:34.913Z</time></trkpt><trkpt lat="30.225157822148798" lon="-6.7593864742221275"><ele>785.2</ele><time>2026-03-22T15:16:35.913Z</time></trkpt><trkpt lat="30.22504616414166" lon="-6.759393235243435"><ele>785.5999999999999</ele><time>2026-03-22T15:16:36.913Z</time></trkpt><trkpt lat="30.224940656469624" lon="-6.759405940279687"><ele>786.0</ele><time>2026-03-22T15:16:37.913Z</time></trkpt><trkpt lat="30.22482766980177" lon="-6.759437569286139"><ele>786.0</ele><time>2026-03-22T15:16:38.913Z</time></trkpt><trkpt lat="30.22471489198996" lon="-6.759467474755259"><ele>786.0</ele><time>2026-03-22T15:16:39.913Z</time></trkpt><trkpt lat="30.224606005693623" lon="-6.7595114573052175"><ele>786.0</ele><time>2026-03-22T15:16:40.913Z</time></trkpt><trkpt lat="30.224488865264973" lon="-6.759547147127559"><ele>786.0</ele><time>2026-03-22T15:16:41.913Z</time></trkpt><trkpt lat="30.224363092283923" lon="-6.759562738232881"><ele>786.0</ele><time>2026-03-22T15:16:42.913Z</time></trkpt><trkpt lat="30.224228548586204" lon="-6.75958409559812"><ele>786.0</ele><time>2026-03-22T15:16:43.913Z</time></trkpt><trkpt lat="30.224103961508675" lon="-6.75959597072188"><ele>786.0</ele><time>2026-03-22T15:16:44.913Z</time></trkpt><trkpt lat="30.22397867430356" lon="-6.759612247922028"><ele>786.0</ele><time>2026-03-22T15:16:45.913Z</time></trkpt><trkpt lat="30.223849944463353" lon="-6.759622797807826"><ele>786.0</ele><time>2026-03-22T15:16:46.913Z</time></trkpt><trkpt lat="30.223706133875496" lon="-6.7596246711910295"><ele>786.0</ele><time>2026-03-22T15:16:47.913Z</time></trkpt><trkpt lat="30.223567794234143" lon="-6.759619188331738"><ele>786.0</ele><time>2026-03-22T15:16:48.913Z</time></trkpt><trkpt lat="30.223425489077133" lon="-6.759618391529318"><ele>786.0</ele><time>2026-03-22T15:16:49.913Z</time></trkpt><trkpt lat="30.223274247264563" lon="-6.759618259228764"><ele>785.6666666666667</ele><time>2026-03-22T15:16:50.913Z</time></trkpt><trkpt lat="30.22312085700439" lon="-6.759618500211883"><ele>785.3333333333334</ele><time>2026-03-22T15:16:51.913Z</time></trkpt><trkpt lat="30.22297043589419" lon="-6.759625193545463"><ele>785.0</ele><time>2026-03-22T15:16:52.913Z</time></trkpt><trkpt lat="30.222814874712792" lon="-6.759643217857504"><ele>785.0</ele><time>2026-03-22T15:16:53.913Z</time></trkpt><trkpt lat="30.222653828355554" lon="-6.759654186808549"><ele>785.0</ele><time>2026-03-22T15:16:54.913Z</time></trkpt><trkpt lat="30.222497372322636" lon="-6.759662650930302"><ele>785.0</ele><time>2026-03-22T15:16:55.913Z</time></trkpt><trkpt lat="30.22234926468939" lon="-6.759675198455753"><ele>784.0</ele><time>2026-03-22T15:16:56.913Z</time></trkpt><trkpt lat="30.222201881997638" lon="-6.759679662501833"><ele>783.0</ele><time>2026-03-22T15:16:57.913Z</time></trkpt><trkpt lat="30.222051438130887" lon="-6.759681904486888"><ele>782.0</ele><time>2026-03-22T15:16:58.913Z</time></trkpt><trkpt lat="30.221897076081913" lon="-6.7596760636130355"><ele>782.0</ele><time>2026-03-22T15:16:59.913Z</time></trkpt><trkpt lat="30.22174773406761" lon="-6.759668872807923"><ele>782.0</ele><time>2026-03-22T15:17:00.913Z</time></trkpt><trkpt lat="30.221598901239798" lon="-6.759662763779668"><ele>782.0</ele><time>2026-03-22T15:17:01.913Z</time></trkpt><trkpt lat="30.221451679522247" lon="-6.759645345444611"><ele>782.0</ele><time>2026-03-22T15:17:02.912Z</time></trkpt><trkpt lat="30.221300337786293" lon="-6.759620980498401"><ele>781.6666666666667</ele><time>2026-03-22T15:17:03.912Z</time></trkpt><trkpt lat="30.22114763968752" lon="-6.759593116454984"><ele>781.3333333333333</ele><time>2026-03-22T15:17:04.913Z</time></trkpt><trkpt lat="30.22099297022659" lon="-6.759567153634867"><ele>781.0</ele><time>2026-03-22T15:17:05.912Z</time></trkpt><trkpt lat="30.22084178073195" lon="-6.759543153307223"><ele>781.0</ele><time>2026-03-22T15:17:06.912Z</time></trkpt><trkpt lat="30.220687915605886" lon="-6.759517798644456"><ele>781.0</ele><time>2026-03-22T15:17:07.913Z</time></trkpt><trkpt lat="30.22053460599795" lon="-6.759495469658567"><ele>781.0</ele><time>2026-03-22T15:17:08.912Z</time></trkpt><trkpt lat="30.22037553900865" lon="-6.759471789227652"><ele>780.0</ele><time>2026-03-22T15:17:09.912Z</time></trkpt><trkpt lat="30.220219980898555" lon="-6.759456439806512"><ele>779.0</ele><time>2026-03-22T15:17:10.913Z</time></trkpt><trkpt lat="30.22006821942018" lon="-6.759446943658681"><ele>778.0</ele><time>2026-03-22T15:17:11.913Z</time></trkpt><trkpt lat="30.219924331557756" lon="-6.759445404683038"><ele>777.75</ele><time>2026-03-22T15:17:12.913Z</time></trkpt><trkpt lat="30.219777299491255" lon="-6.759454309190756"><ele>777.5</ele><time>2026-03-22T15:17:13.913Z</time></trkpt><trkpt lat="30.219635178645643" lon="-6.759473107864687"><ele>777.25</ele><time>2026-03-22T15:17:14.913Z</time></trkpt><trkpt lat="30.2194904957383" lon="-6.759500835926092"><ele>777.0</ele><time>2026-03-22T15:17:15.913Z</time></trkpt><trkpt lat="30.2193454160911" lon="-6.759509100788428"><ele>777.0</ele><time>2026-03-22T15:17:16.913Z</time></trkpt><trkpt lat="30.219210139524186" lon="-6.759501757238339"><ele>777.0</ele><time>2026-03-22T15:17:17.913Z</time></trkpt><trkpt lat="30.21908098252815" lon="-6.759509227751872"><ele>777.0</ele><time>2026-03-22T15:17:18.913Z</time></trkpt><trkpt lat="30.21895091781346" lon="-6.759519068708705"><ele>777.0</ele><time>2026-03-22T15:17:19.913Z</time></trkpt><trkpt lat="30.21882018052824" lon="-6.759523535568139"><ele>776.75</ele><time>2026-03-22T15:17:20.913Z</time></trkpt><trkpt lat="30.218684892330376" lon="-6.7595389480121435"><ele>776.5</ele><time>2026-03-22T15:17:21.913Z</time></trkpt><trkpt lat="30.218559116209892" lon="-6.759557760513751"><ele>776.25</ele><time>2026-03-22T15:17:22.913Z</time></trkpt><trkpt lat="30.218436477475347" lon="-6.759585680686676"><ele>776.0</ele><time>2026-03-22T15:17:23.913Z</time></trkpt><trkpt lat="30.21830961758321" lon="-6.759615501181369"><ele>776.0</ele><time>2026-03-22T15:17:24.913Z</time></trkpt><trkpt lat="30.218172520503728" lon="-6.759642350193542"><ele>776.0</ele><time>2026-03-22T15:17:25.913Z</time></trkpt><trkpt lat="30.218038170470283" lon="-6.759675496039731"><ele>776.0</ele><time>2026-03-22T15:17:26.913Z</time></trkpt><trkpt lat="30.217893436109968" lon="-6.759710846130231"><ele>776.0</ele><time>2026-03-22T15:17:27.913Z</time></trkpt><trkpt lat="30.21775898570605" lon="-6.759751302522228"><ele>776.0</ele><time>2026-03-22T15:17:28.913Z</time></trkpt><trkpt lat="30.21762572280923" lon="-6.7597778726736655"><ele>776.0</ele><time>2026-03-22T15:17:29.913Z</time></trkpt><trkpt lat="30.217480752151985" lon="-6.759799723154313"><ele>776.0</ele><time>2026-03-22T15:17:30.913Z</time></trkpt><trkpt lat="30.217329608651646" lon="-6.759819883706138"><ele>776.0</ele><time>2026-03-22T15:17:31.913Z</time></trkpt><trkpt lat="30.217185406306115" lon="-6.759845943722053"><ele>775.5</ele><time>2026-03-22T15:17:32.913Z</time></trkpt><trkpt lat="30.217049779060567" lon="-6.759881149779197"><ele>775.0</ele><time>2026-03-22T15:17:33.913Z</time></trkpt><trkpt lat="30.216916533057258" lon="-6.759929660422363"><ele>774.5</ele><time>2026-03-22T15:17:34.913Z</time></trkpt><trkpt lat="30.216781964966007" lon="-6.759975066671937"><ele>774.0</ele><time>2026-03-22T15:17:35.913Z</time></trkpt><trkpt lat="30.216636081158683" lon="-6.76002987220193"><ele>774.0</ele><time>2026-03-22T15:17:36.913Z</time></trkpt><trkpt lat="30.216515606641458" lon="-6.760064925190974"><ele>774.0</ele><time>2026-03-22T15:17:37.913Z</time></trkpt><trkpt lat="30.21639832556267" lon="-6.760110788597568"><ele>774.0</ele><time>2026-03-22T15:17:38.913Z</time></trkpt><trkpt lat="30.216290367024392" lon="-6.760155809307091"><ele>774.0</ele><time>2026-03-22T15:17:39.913Z</time></trkpt><trkpt lat="30.216164975984935" lon="-6.760178842456507"><ele>774.5</ele><time>2026-03-22T15:17:40.913Z</time></trkpt><trkpt lat="30.216040681405634" lon="-6.7602114373848226"><ele>775.0</ele><time>2026-03-22T15:17:41.913Z</time></trkpt><trkpt lat="30.21592197686752" lon="-6.76026144579795"><ele>775.5</ele><time>2026-03-22T15:17:42.913Z</time></trkpt><trkpt lat="30.215788965606517" lon="-6.760302183571064"><ele>776.0</ele><time>2026-03-22T15:17:43.913Z</time></trkpt><trkpt lat="30.2156586594573" lon="-6.760351488303392"><ele>776.0</ele><time>2026-03-22T15:17:44.913Z</time></trkpt><trkpt lat="30.21553556037341" lon="-6.760406355908318"><ele>776.0</ele><time>2026-03-22T15:17:45.913Z</time></trkpt><trkpt lat="30.215404790163944" lon="-6.760453922217718"><ele>776.0</ele><time>2026-03-22T15:17:46.913Z</time></trkpt><trkpt lat="30.215272909759822" lon="-6.760493838968835"><ele>776.0</ele><time>2026-03-22T15:17:47.913Z</time></trkpt><trkpt lat="30.215152874849778" lon="-6.760524884288986"><ele>776.0</ele><time>2026-03-22T15:17:48.913Z</time></trkpt><trkpt lat="30.215021354655278" lon="-6.760556529489914"><ele>776.0</ele><time>2026-03-22T15:17:49.913Z</time></trkpt><trkpt lat="30.214890717987913" lon="-6.760581002215883"><ele>776.0</ele><time>2026-03-22T15:17:50.913Z</time></trkpt><trkpt lat="30.214765426303295" lon="-6.760605294663897"><ele>776.0</ele><time>2026-03-22T15:17:51.913Z</time></trkpt><trkpt lat="30.214634669310175" lon="-6.760621187175274"><ele>775.75</ele><time>2026-03-22T15:17:52.913Z</time></trkpt><trkpt lat="30.214506463392254" lon="-6.760633267775831"><ele>775.5</ele><time>2026-03-22T15:17:53.913Z</time></trkpt><trkpt lat="30.214376919423525" lon="-6.760664349542669"><ele>775.25</ele><time>2026-03-22T15:17:54.913Z</time></trkpt><trkpt lat="30.214241854683387" lon="-6.760695822912885"><ele>775.0</ele><time>2026-03-22T15:17:55.913Z</time></trkpt><trkpt lat="30.214112600082267" lon="-6.7607433797884084"><ele>774.75</ele><time>2026-03-22T15:17:56.913Z</time></trkpt><trkpt lat="30.213972446334832" lon="-6.76078839160719"><ele>774.5</ele><time>2026-03-22T15:17:57.913Z</time></trkpt><trkpt lat="30.21382978160367" lon="-6.760826362417064"><ele>774.25</ele><time>2026-03-22T15:17:58.913Z</time></trkpt><trkpt lat="30.213686887249153" lon="-6.7608607232538365"><ele>774.0</ele><time>2026-03-22T15:17:59.913Z</time></trkpt><trkpt lat="30.213542272631265" lon="-6.760897032365917"><ele>774.0</ele><time>2026-03-22T15:18:00.913Z</time></trkpt><trkpt lat="30.21340302514638" lon="-6.760934937471112"><ele>774.0</ele><time>2026-03-22T15:18:01.913Z</time></trkpt><trkpt lat="30.213263166039685" lon="-6.760969022917927"><ele>774.0</ele><time>2026-03-22T15:18:02.913Z</time></trkpt><trkpt lat="30.213116129286416" lon="-6.7609985497956435"><ele>774.0</ele><time>2026-03-22T15:18:03.913Z</time></trkpt><trkpt lat="30.212957757813363" lon="-6.761031614705146"><ele>773.3333333333333</ele><time>2026-03-22T15:18:04.913Z</time></trkpt><trkpt lat="30.212776687930663" lon="-6.761068502658346"><ele>772.6666666666666</ele><time>2026-03-22T15:18:05.913Z</time></trkpt><trkpt lat="30.212569100090775" lon="-6.761111661697184"><ele>772.0</ele><time>2026-03-22T15:18:06.913Z</time></trkpt><trkpt lat="30.212347208382216" lon="-6.761152767821151"><ele>771.6666666666666</ele><time>2026-03-22T15:18:07.913Z</time></trkpt><trkpt lat="30.212120219999402" lon="-6.761188714517798"><ele>771.3333333333333</ele><time>2026-03-22T15:18:08.913Z</time></trkpt><trkpt lat="30.211927435281982" lon="-6.761208226152311"><ele>771.0</ele><time>2026-03-22T15:18:09.913Z</time></trkpt><trkpt lat="30.211767687196637" lon="-6.7612191060372036"><ele>771.0</ele><time>2026-03-22T15:18:10.913Z</time></trkpt><trkpt lat="30.211624894528747" lon="-6.761233573237729"><ele>771.0</ele><time>2026-03-22T15:18:11.913Z</time></trkpt><trkpt lat="30.211480455360075" lon="-6.761244499104062"><ele>771.0</ele><time>2026-03-22T15:18:12.913Z</time></trkpt><trkpt lat="30.21135197402763" lon="-6.761257604632725"><ele>771.0</ele><time>2026-03-22T15:18:13.913Z</time></trkpt><trkpt lat="30.21122981696803" lon="-6.76126733162073"><ele>771.0</ele><time>2026-03-22T15:18:14.913Z</time></trkpt><trkpt lat="30.21111925651032" lon="-6.761287812215594"><ele>771.0</ele><time>2026-03-22T15:18:15.913Z</time></trkpt><trkpt lat="30.21100013254858" lon="-6.761317962470503"><ele>771.0</ele><time>2026-03-22T15:18:16.913Z</time></trkpt><trkpt lat="30.21087183848295" lon="-6.761339097897499"><ele>771.0</ele><time>2026-03-22T15:18:17.913Z</time></trkpt><trkpt lat="30.210740078659562" lon="-6.761363941141768"><ele>771.3333333333333</ele><time>2026-03-22T15:18:18.913Z</time></trkpt><trkpt lat="30.210582043498185" lon="-6.7613958659289075"><ele>771.6666666666666</ele><time>2026-03-22T15:18:19.913Z</time></trkpt><trkpt lat="30.210423893103243" lon="-6.761414175521218"><ele>772.0</ele><time>2026-03-22T15:18:20.913Z</time></trkpt><trkpt lat="30.210277448220836" lon="-6.761442816120473"><ele>772.0</ele><time>2026-03-22T15:18:21.913Z</time></trkpt><trkpt lat="30.21014374451328" lon="-6.761487707424097"><ele>772.0</ele><time>2026-03-22T15:18:22.913Z</time></trkpt><trkpt lat="30.2099956731449" lon="-6.761564525751824"><ele>772.0</ele><time>2026-03-22T15:18:23.913Z</time></trkpt><trkpt lat="30.209853355393374" lon="-6.761641045379056"><ele>771.5</ele><time>2026-03-22T15:18:24.913Z</time></trkpt><trkpt lat="30.209723099912" lon="-6.761689894605741"><ele>771.0</ele><time>2026-03-22T15:18:25.913Z</time></trkpt><trkpt lat="30.20958495972023" lon="-6.761723059452888"><ele>770.5</ele><time>2026-03-22T15:18:26.913Z</time></trkpt><trkpt lat="30.209437880868727" lon="-6.761746013106105"><ele>770.0</ele><time>2026-03-22T15:18:27.913Z</time></trkpt><trkpt lat="30.20929638851964" lon="-6.761783336935602"><ele>770.0</ele><time>2026-03-22T15:18:28.913Z</time></trkpt><trkpt lat="30.209167913040368" lon="-6.761817411266653"><ele>770.0</ele><time>2026-03-22T15:18:29.913Z</time></trkpt><trkpt lat="30.2090427974968" lon="-6.761855482794704"><ele>770.0</ele><time>2026-03-22T15:18:30.913Z</time></trkpt><trkpt lat="30.208926414156775" lon="-6.761896208233334"><ele>770.0</ele><time>2026-03-22T15:18:31.913Z</time></trkpt><trkpt lat="30.208818391346412" lon="-6.761951148508026"><ele>770.0</ele><time>2026-03-22T15:18:32.913Z</time></trkpt><trkpt lat="30.20873024541264" lon="-6.762013314836977"><ele>770.0</ele><time>2026-03-22T15:18:33.913Z</time></trkpt><trkpt lat="30.208643496117965" lon="-6.762092805052116"><ele>770.0</ele><time>2026-03-22T15:18:34.913Z</time></trkpt><trkpt lat="30.20854873823398" lon="-6.762186322295086"><ele>770.0</ele><time>2026-03-22T15:18:35.913Z</time></trkpt><trkpt lat="30.20844636127427" lon="-6.762270982870001"><ele>770.0</ele><time>2026-03-22T15:18:36.913Z</time></trkpt><trkpt lat="30.20835108184495" lon="-6.762334610812136"><ele>770.0</ele><time>2026-03-22T15:18:37.913Z</time></trkpt><trkpt lat="30.20824902421892" lon="-6.762402432573803"><ele>770.0</ele><time>2026-03-22T15:18:38.913Z</time></trkpt><trkpt lat="30.208145644054078" lon="-6.762477329785015"><ele>770.0</ele><time>2026-03-22T15:18:39.913Z</time></trkpt><trkpt lat="30.208046374245832" lon="-6.762554355124348"><ele>769.0</ele><time>2026-03-22T15:18:40.913Z</time></trkpt><trkpt lat="30.207949993038245" lon="-6.76263270691433"><ele>768.0</ele><time>2026-03-22T15:18:41.913Z</time></trkpt><trkpt lat="30.20785676187573" lon="-6.762714303166727"><ele>767.0</ele><time>2026-03-22T15:18:42.913Z</time></trkpt><trkpt lat="30.207764382776045" lon="-6.76278833713678"><ele>766.0</ele><time>2026-03-22T15:18:43.913Z</time></trkpt><trkpt lat="30.20766944298602" lon="-6.762850220620514"><ele>766.0</ele><time>2026-03-22T15:18:44.913Z</time></trkpt><trkpt lat="30.207570716738722" lon="-6.762927384699312"><ele>766.0</ele><time>2026-03-22T15:18:45.913Z</time></trkpt><trkpt lat="30.207475693338147" lon="-6.763004668453831"><ele>766.0</ele><time>2026-03-22T15:18:46.913Z</time></trkpt><trkpt lat="30.20738002490307" lon="-6.7630909444395515"><ele>766.0</ele><time>2026-03-22T15:18:47.913Z</time></trkpt><trkpt lat="30.207277131648024" lon="-6.763182771426299"><ele>765.75</ele><time>2026-03-22T15:18:48.913Z</time></trkpt><trkpt lat="30.2071721963767" lon="-6.7632700296153825"><ele>765.5</ele><time>2026-03-22T15:18:49.913Z</time></trkpt><trkpt lat="30.207057692005897" lon="-6.763344556247765"><ele>765.25</ele><time>2026-03-22T15:18:50.913Z</time></trkpt><trkpt lat="30.206948220080417" lon="-6.763424543353263"><ele>765.0</ele><time>2026-03-22T15:18:51.913Z</time></trkpt><trkpt lat="30.206829071944686" lon="-6.7634960631519405"><ele>765.0</ele><time>2026-03-22T15:18:52.913Z</time></trkpt><trkpt lat="30.20671610139604" lon="-6.763565577543603"><ele>765.0</ele><time>2026-03-22T15:18:53.913Z</time></trkpt><trkpt lat="30.206619801039402" lon="-6.763640629939518"><ele>765.0</ele><time>2026-03-22T15:18:54.912Z</time></trkpt><trkpt lat="30.206546796668068" lon="-6.76372014030322"><ele>765.0</ele><time>2026-03-22T15:18:55.912Z</time></trkpt><trkpt lat="30.206481246588698" lon="-6.763802330893899"><ele>765.0</ele><time>2026-03-22T15:18:56.912Z</time></trkpt><trkpt lat="30.206431660446142" lon="-6.763895428864988"><ele>764.75</ele><time>2026-03-22T15:18:57.912Z</time></trkpt><trkpt lat="30.20638040135269" lon="-6.764011831410486"><ele>764.5</ele><time>2026-03-22T15:18:58.912Z</time></trkpt><trkpt lat="30.206319954861517" lon="-6.764154754840544"><ele>764.25</ele><time>2026-03-22T15:18:59.912Z</time></trkpt><trkpt lat="30.206249176166732" lon="-6.764307514959277"><ele>764.0</ele><time>2026-03-22T15:19:00.912Z</time></trkpt><trkpt lat="30.206194328672357" lon="-6.76444971711755"><ele>764.0</ele><time>2026-03-22T15:19:01.912Z</time></trkpt><trkpt lat="30.206152068544736" lon="-6.76457304184587"><ele>764.0</ele><time>2026-03-22T15:19:02.912Z</time></trkpt><trkpt lat="30.206122669821884" lon="-6.764681554537828"><ele>764.0</ele><time>2026-03-22T15:19:03.912Z</time></trkpt><trkpt lat="30.206096479487133" lon="-6.764783003734996"><ele>764.0</ele><time>2026-03-22T15:19:04.912Z</time></trkpt><trkpt lat="30.206083154254635" lon="-6.764877320877669"><ele>764.0</ele><time>2026-03-22T15:19:05.912Z</time></trkpt><trkpt lat="30.206069282695825" lon="-6.764961905525788"><ele>764.0</ele><time>2026-03-22T15:19:06.912Z</time></trkpt><trkpt lat="30.206066203398546" lon="-6.765037852207595"><ele>764.0</ele><time>2026-03-22T15:19:07.912Z</time></trkpt><trkpt lat="30.20613083028393" lon="-6.765088716563288"><ele>764.0</ele><time>2026-03-22T15:19:55.912Z</time></trkpt><trkpt lat="30.206161421133277" lon="-6.765154029212727"><ele>764.0</ele><time>2026-03-22T15:20:02.912Z</time></trkpt><trkpt lat="30.206105394720126" lon="-6.765187577950585"><ele>764.0</ele><time>2026-03-22T15:20:04.912Z</time></trkpt><trkpt lat="30.206055892782658" lon="-6.76525054899435"><ele>764.0</ele><time>2026-03-22T15:20:08.912Z</time></trkpt><trkpt lat="30.206075741057305" lon="-6.765343425802477"><ele>764.0</ele><time>2026-03-22T15:20:10.912Z</time></trkpt><trkpt lat="30.206089248918843" lon="-6.765427579747302"><ele>764.0</ele><time>2026-03-22T15:20:12.912Z</time></trkpt><trkpt lat="30.2061182177672" lon="-6.765536955673888"><ele>764.0</ele><time>2026-03-22T15:20:14.912Z</time></trkpt><trkpt lat="30.206135451269223" lon="-6.765656379547037"><ele>764.0</ele><time>2026-03-22T15:20:16.912Z</time></trkpt><trkpt lat="30.20615623940653" lon="-6.765789871315728"><ele>764.0</ele><time>2026-03-22T15:20:18.912Z</time></trkpt><trkpt lat="30.20617459645832" lon="-6.765910695270215"><ele>764.0</ele><time>2026-03-22T15:20:20.912Z</time></trkpt><trkpt lat="30.206185650447363" lon="-6.765991879009876"><ele>763.3333333333333</ele><time>2026-03-22T15:20:21.912Z</time></trkpt><trkpt lat="30.20619489757534" lon="-6.766097612350803"><ele>762.6666666666666</ele><time>2026-03-22T15:20:22.912Z</time></trkpt><trkpt lat="30.206192221095645" lon="-6.766209827987176"><ele>762.0</ele><time>2026-03-22T15:20:23.912Z</time></trkpt><trkpt lat="30.206184324884504" lon="-6.76630376748855"><ele>761.3333333333334</ele><time>2026-03-22T15:20:24.912Z</time></trkpt><trkpt lat="30.206176402255682" lon="-6.766395689410755"><ele>760.6666666666667</ele><time>2026-03-22T15:20:25.912Z</time></trkpt><trkpt lat="30.206163577640794" lon="-6.766473051775948"><ele>760.0</ele><time>2026-03-22T15:20:26.912Z</time></trkpt><trkpt lat="30.20611447226912" lon="-6.7666127939108485"><ele>760.0</ele><time>2026-03-22T15:20:28.912Z</time></trkpt><trkpt lat="30.20605794473976" lon="-6.766714764987859"><ele>760.0</ele><time>2026-03-22T15:20:30.912Z</time></trkpt><trkpt lat="30.206034742970644" lon="-6.766641466018964"><ele>760.0</ele><time>2026-03-22T15:23:22.911Z</time></trkpt><trkpt lat="30.206093979877117" lon="-6.766683085677016"><ele>760.0</ele><time>2026-03-22T15:24:25.909Z</time></trkpt><trkpt lat="30.206040394833042" lon="-6.766726430167761"><ele>760.0</ele><time>2026-03-22T15:25:03.909Z</time></trkpt><trkpt lat="30.205966430489756" lon="-6.7667388943578635"><ele>760.0</ele><time>2026-03-22T15:30:25.907Z</time></trkpt><trkpt lat="30.205953116174538" lon="-6.766841571095091"><ele>760.0</ele><time>2026-03-22T15:30:28.907Z</time></trkpt><trkpt lat="30.205981605523142" lon="-6.766950182441494"><ele>760.0</ele><time>2026-03-22T15:30:30.907Z</time></trkpt><trkpt lat="30.205988565625002" lon="-6.767039720326631"><ele>760.0</ele><time>2026-03-22T15:30:31.907Z</time></trkpt><trkpt lat="30.205966000873953" lon="-6.767159293306951"><ele>760.0</ele><time>2026-03-22T15:30:32.907Z</time></trkpt><trkpt lat="30.20595328683679" lon="-6.7672865602145675"><ele>760.0</ele><time>2026-03-22T15:30:33.907Z</time></trkpt><trkpt lat="30.205968630369604" lon="-6.767431520883463"><ele>760.0</ele><time>2026-03-22T15:30:34.907Z</time></trkpt><trkpt lat="30.20594750214055" lon="-6.7675743743755525"><ele>760.0</ele><time>2026-03-22T15:30:35.907Z</time></trkpt><trkpt lat="30.205925593862425" lon="-6.767713158991141"><ele>760.0</ele><time>2026-03-22T15:30:36.907Z</time></trkpt><trkpt lat="30.20591417426049" lon="-6.767845418237501"><ele>760.0</ele><time>2026-03-22T15:30:37.907Z</time></trkpt><trkpt lat="30.205906913413614" lon="-6.7679836612366335"><ele>760.25</ele><time>2026-03-22T15:30:38.907Z</time></trkpt><trkpt lat="30.20590413124717" lon="-6.768133151226455"><ele>760.5</ele><time>2026-03-22T15:30:39.907Z</time></trkpt><trkpt lat="30.205896452048705" lon="-6.768278452669383"><ele>760.75</ele><time>2026-03-22T15:30:40.907Z</time></trkpt><trkpt lat="30.20588757230056" lon="-6.768425675625661"><ele>761.0</ele><time>2026-03-22T15:30:41.907Z</time></trkpt><trkpt lat="30.205882941556826" lon="-6.7685991591251415"><ele>760.5</ele><time>2026-03-22T15:30:42.907Z</time></trkpt><trkpt lat="30.205885383237277" lon="-6.768774134353874"><ele>760.0</ele><time>2026-03-22T15:30:43.907Z</time></trkpt><trkpt lat="30.205884992929217" lon="-6.7689347733907415"><ele>759.5</ele><time>2026-03-22T15:30:44.907Z</time></trkpt><trkpt lat="30.20586556238912" lon="-6.769112202884965"><ele>759.0</ele><time>2026-03-22T15:30:45.907Z</time></trkpt><trkpt lat="30.20583459864476" lon="-6.769297656474559"><ele>758.3333333333334</ele><time>2026-03-22T15:30:46.907Z</time></trkpt><trkpt lat="30.20581547513016" lon="-6.769481438754461"><ele>757.6666666666667</ele><time>2026-03-22T15:30:47.907Z</time></trkpt><trkpt lat="30.205816585822358" lon="-6.76968171615955"><ele>757.0</ele><time>2026-03-22T15:30:48.907Z</time></trkpt><trkpt lat="30.205827579966485" lon="-6.769888950507916"><ele>757.0</ele><time>2026-03-22T15:30:49.907Z</time></trkpt><trkpt lat="30.205842894957893" lon="-6.770105505521172"><ele>757.0</ele><time>2026-03-22T15:30:50.907Z</time></trkpt><trkpt lat="30.20585076913825" lon="-6.7703179542481475"><ele>757.0</ele><time>2026-03-22T15:30:51.907Z</time></trkpt><trkpt lat="30.20585575541762" lon="-6.770537999262645"><ele>757.3333333333334</ele><time>2026-03-22T15:30:52.907Z</time></trkpt><trkpt lat="30.20585435274912" lon="-6.770724654655161"><ele>757.6666666666666</ele><time>2026-03-22T15:30:53.907Z</time></trkpt><trkpt lat="30.205845253865085" lon="-6.770905823051144"><ele>758.0</ele><time>2026-03-22T15:30:54.907Z</time></trkpt><trkpt lat="30.205838333844408" lon="-6.771086362958139"><ele>758.0</ele><time>2026-03-22T15:30:55.907Z</time></trkpt><trkpt lat="30.205838106059876" lon="-6.771259242348576"><ele>758.0</ele><time>2026-03-22T15:30:56.907Z</time></trkpt><trkpt lat="30.205834859194514" lon="-6.771407686128823"><ele>758.0</ele><time>2026-03-22T15:30:57.907Z</time></trkpt><trkpt lat="30.205840640898973" lon="-6.771542389171315"><ele>758.0</ele><time>2026-03-22T15:30:58.907Z</time></trkpt><trkpt lat="30.205847877595442" lon="-6.771681216766869"><ele>758.0</ele><time>2026-03-22T15:30:59.907Z</time></trkpt><trkpt lat="30.20586981686318" lon="-6.771827515635792"><ele>758.0</ele><time>2026-03-22T15:31:00.907Z</time></trkpt><trkpt lat="30.205884669622666" lon="-6.771969443714713"><ele>758.0</ele><time>2026-03-22T15:31:01.907Z</time></trkpt><trkpt lat="30.20587947739316" lon="-6.772108878126211"><ele>758.0</ele><time>2026-03-22T15:31:02.907Z</time></trkpt><trkpt lat="30.205877205289454" lon="-6.77226963783603"><ele>757.75</ele><time>2026-03-22T15:31:03.907Z</time></trkpt><trkpt lat="30.205877293104848" lon="-6.772428117731151"><ele>757.5</ele><time>2026-03-22T15:31:04.907Z</time></trkpt><trkpt lat="30.20587937363454" lon="-6.772577223404417"><ele>757.25</ele><time>2026-03-22T15:31:05.907Z</time></trkpt><trkpt lat="30.20587312091859" lon="-6.772728890299433"><ele>757.0</ele><time>2026-03-22T15:31:06.907Z</time></trkpt><trkpt lat="30.20588042392323" lon="-6.772884459299401"><ele>756.5</ele><time>2026-03-22T15:31:07.907Z</time></trkpt><trkpt lat="30.205900001601098" lon="-6.773036137232838"><ele>756.0</ele><time>2026-03-22T15:31:08.907Z</time></trkpt><trkpt lat="30.205916796391968" lon="-6.773182788559925"><ele>755.5</ele><time>2026-03-22T15:31:09.907Z</time></trkpt><trkpt lat="30.20592394538345" lon="-6.773326740837389"><ele>755.0</ele><time>2026-03-22T15:31:10.907Z</time></trkpt><trkpt lat="30.205909909393995" lon="-6.773473181599229"><ele>754.8</ele><time>2026-03-22T15:31:11.907Z</time></trkpt><trkpt lat="30.205901522983172" lon="-6.773614861516264"><ele>754.6</ele><time>2026-03-22T15:31:12.907Z</time></trkpt><trkpt lat="30.205900889637828" lon="-6.773751803205663"><ele>754.4000000000001</ele><time>2026-03-22T15:31:13.907Z</time></trkpt><trkpt lat="30.205903408207178" lon="-6.773870159561108"><ele>754.2</ele><time>2026-03-22T15:31:14.907Z</time></trkpt><trkpt lat="30.205910398867836" lon="-6.773988591477708"><ele>754.0</ele><time>2026-03-22T15:31:15.907Z</time></trkpt><trkpt lat="30.20591717020311" lon="-6.774118785420711"><ele>754.0</ele><time>2026-03-22T15:31:16.907Z</time></trkpt><trkpt lat="30.205916534804302" lon="-6.774257080518547"><ele>754.0</ele><time>2026-03-22T15:31:17.907Z</time></trkpt><trkpt lat="30.205917588269926" lon="-6.774386462292573"><ele>754.0</ele><time>2026-03-22T15:31:18.907Z</time></trkpt><trkpt lat="30.205908769242633" lon="-6.774538981181309"><ele>754.0</ele><time>2026-03-22T15:31:19.907Z</time></trkpt><trkpt lat="30.20590141747757" lon="-6.77469691894739"><ele>754.25</ele><time>2026-03-22T15:31:20.907Z</time></trkpt><trkpt lat="30.205898330675673" lon="-6.774852244384064"><ele>754.5</ele><time>2026-03-22T15:31:21.907Z</time></trkpt><trkpt lat="30.20590037208039" lon="-6.775007092295925"><ele>754.75</ele><time>2026-03-22T15:31:22.907Z</time></trkpt><trkpt lat="30.2059023643635" lon="-6.775164963773805"><ele>755.0</ele><time>2026-03-22T15:31:23.907Z</time></trkpt><trkpt lat="30.205904748685033" lon="-6.775325988410116"><ele>755.0</ele><time>2026-03-22T15:31:24.907Z</time></trkpt><trkpt lat="30.205910979598592" lon="-6.775485318457453"><ele>755.0</ele><time>2026-03-22T15:31:25.907Z</time></trkpt><trkpt lat="30.205913095030333" lon="-6.775634483420585"><ele>755.0</ele><time>2026-03-22T15:31:26.907Z</time></trkpt><trkpt lat="30.20592451657874" lon="-6.775787116777132"><ele>755.0</ele><time>2026-03-22T15:31:27.907Z</time></trkpt><trkpt lat="30.2059380186527" lon="-6.7759498136085385"><ele>754.5</ele><time>2026-03-22T15:31:28.907Z</time></trkpt><trkpt lat="30.2059426318552" lon="-6.77610882208232"><ele>754.0</ele><time>2026-03-22T15:31:29.907Z</time></trkpt><trkpt lat="30.20595146588195" lon="-6.776266489541554"><ele>753.5</ele><time>2026-03-22T15:31:30.907Z</time></trkpt><trkpt lat="30.205954918334808" lon="-6.776421116852753"><ele>753.0</ele><time>2026-03-22T15:31:31.907Z</time></trkpt><trkpt lat="30.205959097117166" lon="-6.776570762157904"><ele>753.0</ele><time>2026-03-22T15:31:32.907Z</time></trkpt><trkpt lat="30.205978688601512" lon="-6.7767192925254385"><ele>753.0</ele><time>2026-03-22T15:31:33.907Z</time></trkpt><trkpt lat="30.205998457725418" lon="-6.776857249589341"><ele>753.0</ele><time>2026-03-22T15:31:34.907Z</time></trkpt><trkpt lat="30.206026215481565" lon="-6.777004989656091"><ele>753.0</ele><time>2026-03-22T15:31:35.907Z</time></trkpt><trkpt lat="30.206041332225784" lon="-6.777148891324878"><ele>752.75</ele><time>2026-03-22T15:31:36.907Z</time></trkpt><trkpt lat="30.20604975857115" lon="-6.777300552974976"><ele>752.5</ele><time>2026-03-22T15:31:37.907Z</time></trkpt><trkpt lat="30.20606403666864" lon="-6.777456238804743"><ele>752.25</ele><time>2026-03-22T15:31:38.907Z</time></trkpt><trkpt lat="30.206079907829224" lon="-6.777609580605403"><ele>752.0</ele><time>2026-03-22T15:31:39.907Z</time></trkpt><trkpt lat="30.20609053245745" lon="-6.777763260172403"><ele>751.75</ele><time>2026-03-22T15:31:40.907Z</time></trkpt><trkpt lat="30.206095215407412" lon="-6.77791700762698"><ele>751.5</ele><time>2026-03-22T15:31:41.907Z</time></trkpt><trkpt lat="30.20609149797343" lon="-6.778065893010124"><ele>751.25</ele><time>2026-03-22T15:31:42.907Z</time></trkpt><trkpt lat="30.20609426941306" lon="-6.778206153180235"><ele>751.0</ele><time>2026-03-22T15:31:43.907Z</time></trkpt><trkpt lat="30.20611477708153" lon="-6.77833881241767"><ele>751.0</ele><time>2026-03-22T15:31:44.907Z</time></trkpt><trkpt lat="30.206150616931176" lon="-6.778477096933667"><ele>751.0</ele><time>2026-03-22T15:31:45.907Z</time></trkpt><trkpt lat="30.206177044709566" lon="-6.778608599196042"><ele>751.0</ele><time>2026-03-22T15:31:46.907Z</time></trkpt><trkpt lat="30.20619408872939" lon="-6.77873515815029"><ele>751.0</ele><time>2026-03-22T15:31:47.906Z</time></trkpt><trkpt lat="30.20619625331089" lon="-6.778868778508236"><ele>750.75</ele><time>2026-03-22T15:31:48.906Z</time></trkpt><trkpt lat="30.2061871487628" lon="-6.779007026742891"><ele>750.5</ele><time>2026-03-22T15:31:49.907Z</time></trkpt><trkpt lat="30.206184352375395" lon="-6.779146287134819"><ele>750.25</ele><time>2026-03-22T15:31:50.907Z</time></trkpt><trkpt lat="30.206193272983697" lon="-6.779284267182329"><ele>750.0</ele><time>2026-03-22T15:31:51.907Z</time></trkpt><trkpt lat="30.20621521313876" lon="-6.779417731634118"><ele>750.0</ele><time>2026-03-22T15:31:52.907Z</time></trkpt><trkpt lat="30.206235769712197" lon="-6.779557968884413"><ele>750.0</ele><time>2026-03-22T15:31:53.907Z</time></trkpt><trkpt lat="30.206254640308746" lon="-6.779700649347879"><ele>750.0</ele><time>2026-03-22T15:31:54.907Z</time></trkpt><trkpt lat="30.206267518308376" lon="-6.77983285637434"><ele>750.0</ele><time>2026-03-22T15:31:55.907Z</time></trkpt><trkpt lat="30.20627208905289" lon="-6.77996321485022"><ele>750.0</ele><time>2026-03-22T15:31:56.906Z</time></trkpt><trkpt lat="30.206282536141437" lon="-6.78010266923573"><ele>750.0</ele><time>2026-03-22T15:31:57.906Z</time></trkpt><trkpt lat="30.206306218813317" lon="-6.78023534528651"><ele>750.0</ele><time>2026-03-22T15:31:58.906Z</time></trkpt><trkpt lat="30.206331995423874" lon="-6.780359175349704"><ele>750.0</ele><time>2026-03-22T15:31:59.906Z</time></trkpt><trkpt lat="30.20634637533266" lon="-6.780481287614117"><ele>749.75</ele><time>2026-03-22T15:32:00.906Z</time></trkpt><trkpt lat="30.20635196899091" lon="-6.780611587997708"><ele>749.5</ele><time>2026-03-22T15:32:01.906Z</time></trkpt><trkpt lat="30.20634677445386" lon="-6.780753915899096"><ele>749.25</ele><time>2026-03-22T15:32:02.906Z</time></trkpt><trkpt lat="30.206334867192833" lon="-6.78090308607377"><ele>749.0</ele><time>2026-03-22T15:32:03.906Z</time></trkpt><trkpt lat="30.20632085466987" lon="-6.781053661079734"><ele>749.0</ele><time>2026-03-22T15:32:04.905Z</time></trkpt><trkpt lat="30.206320341723448" lon="-6.781205040286625"><ele>749.0</ele><time>2026-03-22T15:32:05.905Z</time></trkpt><trkpt lat="30.206318074585322" lon="-6.781350862301697"><ele>749.0</ele><time>2026-03-22T15:32:06.905Z</time></trkpt><trkpt lat="30.206319977878316" lon="-6.781501649603256"><ele>749.0</ele><time>2026-03-22T15:32:07.905Z</time></trkpt><trkpt lat="30.206316316064854" lon="-6.781649266480455"><ele>749.0</ele><time>2026-03-22T15:32:08.905Z</time></trkpt><trkpt lat="30.206299948041078" lon="-6.7817899013457685"><ele>749.0</ele><time>2026-03-22T15:32:09.904Z</time></trkpt><trkpt lat="30.20626967904288" lon="-6.781938535776085"><ele>749.0</ele><time>2026-03-22T15:32:10.904Z</time></trkpt><trkpt lat="30.206234262672943" lon="-6.782084804199045"><ele>749.0</ele><time>2026-03-22T15:32:11.904Z</time></trkpt><trkpt lat="30.206192244796718" lon="-6.782235578172417"><ele>748.5</ele><time>2026-03-22T15:32:12.904Z</time></trkpt><trkpt lat="30.206148527030553" lon="-6.782388803577567"><ele>748.0</ele><time>2026-03-22T15:32:13.904Z</time></trkpt><trkpt lat="30.206108340363958" lon="-6.782544898870228"><ele>747.5</ele><time>2026-03-22T15:32:14.904Z</time></trkpt><trkpt lat="30.206071012691446" lon="-6.782701018711408"><ele>747.0</ele><time>2026-03-22T15:32:15.904Z</time></trkpt><trkpt lat="30.2060428738151" lon="-6.782853200197675"><ele>747.0</ele><time>2026-03-22T15:32:16.904Z</time></trkpt><trkpt lat="30.20602833470763" lon="-6.7830064816339455"><ele>747.0</ele><time>2026-03-22T15:32:17.903Z</time></trkpt><trkpt lat="30.20602600207188" lon="-6.7831627616906225"><ele>747.0</ele><time>2026-03-22T15:32:18.903Z</time></trkpt><trkpt lat="30.206026196865064" lon="-6.783332105467584"><ele>747.0</ele><time>2026-03-22T15:32:19.903Z</time></trkpt><trkpt lat="30.206030544457096" lon="-6.783484976597496"><ele>747.0</ele><time>2026-03-22T15:32:20.903Z</time></trkpt><trkpt lat="30.20603648076103" lon="-6.783651543078719"><ele>747.0</ele><time>2026-03-22T15:32:21.903Z</time></trkpt><trkpt lat="30.206041595418053" lon="-6.7838126687935265"><ele>747.0</ele><time>2026-03-22T15:32:22.903Z</time></trkpt><trkpt lat="30.206041847536273" lon="-6.7839760608936945"><ele>747.0</ele><time>2026-03-22T15:32:23.903Z</time></trkpt><trkpt lat="30.206038578743684" lon="-6.784135559300941"><ele>747.0</ele><time>2026-03-22T15:32:24.903Z</time></trkpt><trkpt lat="30.206033097105806" lon="-6.784288687044769"><ele>747.0</ele><time>2026-03-22T15:32:25.903Z</time></trkpt><trkpt lat="30.206033239185707" lon="-6.784441871963089"><ele>747.0</ele><time>2026-03-22T15:32:26.903Z</time></trkpt><trkpt lat="30.206041643219393" lon="-6.784592536849505"><ele>747.0</ele><time>2026-03-22T15:32:27.903Z</time></trkpt><trkpt lat="30.20605877489555" lon="-6.784745786431727"><ele>746.75</ele><time>2026-03-22T15:32:28.903Z</time></trkpt><trkpt lat="30.20607367729292" lon="-6.784879159601765"><ele>746.5</ele><time>2026-03-22T15:32:29.903Z</time></trkpt><trkpt lat="30.20609407349345" lon="-6.7850276049519325"><ele>746.25</ele><time>2026-03-22T15:32:30.903Z</time></trkpt><trkpt lat="30.206108719064844" lon="-6.7851890574297355"><ele>746.0</ele><time>2026-03-22T15:32:31.903Z</time></trkpt><trkpt lat="30.206110796009696" lon="-6.78535414890067"><ele>745.75</ele><time>2026-03-22T15:32:32.903Z</time></trkpt><trkpt lat="30.206103688173062" lon="-6.785518741889002"><ele>745.5</ele><time>2026-03-22T15:32:33.902Z</time></trkpt><trkpt lat="30.206095273913416" lon="-6.785691600427216"><ele>745.25</ele><time>2026-03-22T15:32:34.902Z</time></trkpt><trkpt lat="30.2060824666068" lon="-6.785853439985307"><ele>745.0</ele><time>2026-03-22T15:32:35.902Z</time></trkpt><trkpt lat="30.206072447213295" lon="-6.786014003748426"><ele>744.75</ele><time>2026-03-22T15:32:36.902Z</time></trkpt><trkpt lat="30.206063592372328" lon="-6.786173624696012"><ele>744.5</ele><time>2026-03-22T15:32:37.902Z</time></trkpt><trkpt lat="30.206052784677752" lon="-6.786327127012897"><ele>744.25</ele><time>2026-03-22T15:32:38.902Z</time></trkpt><trkpt lat="30.20603578783192" lon="-6.786479906192975"><ele>744.0</ele><time>2026-03-22T15:32:39.902Z</time></trkpt><trkpt lat="30.20600121005294" lon="-6.7866358312996065"><ele>744.0</ele><time>2026-03-22T15:32:40.902Z</time></trkpt><trkpt lat="30.20596938371335" lon="-6.786793984684509"><ele>744.0</ele><time>2026-03-22T15:32:41.902Z</time></trkpt><trkpt lat="30.205937728385273" lon="-6.78694811619063"><ele>744.0</ele><time>2026-03-22T15:32:42.902Z</time></trkpt><trkpt lat="30.205902543361194" lon="-6.787092396021261"><ele>744.0</ele><time>2026-03-22T15:32:43.902Z</time></trkpt><trkpt lat="30.20586403554963" lon="-6.78723515390522"><ele>744.0</ele><time>2026-03-22T15:32:44.902Z</time></trkpt><trkpt lat="30.205822948612102" lon="-6.787373801824601"><ele>744.0</ele><time>2026-03-22T15:32:45.902Z</time></trkpt><trkpt lat="30.20578854820247" lon="-6.787504236996679"><ele>744.0</ele><time>2026-03-22T15:32:46.902Z</time></trkpt><trkpt lat="30.205755341227267" lon="-6.787619141490087"><ele>744.0</ele><time>2026-03-22T15:32:47.902Z</time></trkpt><trkpt lat="30.205717645953825" lon="-6.787744200896267"><ele>743.25</ele><time>2026-03-22T15:32:48.902Z</time></trkpt><trkpt lat="30.205693341970722" lon="-6.787870502692203"><ele>742.5</ele><time>2026-03-22T15:32:49.902Z</time></trkpt><trkpt lat="30.20569036611539" lon="-6.7880048492591"><ele>741.75</ele><time>2026-03-22T15:32:50.902Z</time></trkpt><trkpt lat="30.20571039065377" lon="-6.788140594568007"><ele>741.0</ele><time>2026-03-22T15:32:51.902Z</time></trkpt><trkpt lat="30.205746875520372" lon="-6.788280081706462"><ele>741.0</ele><time>2026-03-22T15:32:52.902Z</time></trkpt><trkpt lat="30.205763106535535" lon="-6.788441753262539"><ele>741.0</ele><time>2026-03-22T15:32:53.902Z</time></trkpt><trkpt lat="30.205773526272264" lon="-6.788599151261363"><ele>741.0</ele><time>2026-03-22T15:32:54.902Z</time></trkpt><trkpt lat="30.205783692013206" lon="-6.788745482216853"><ele>741.0</ele><time>2026-03-22T15:32:55.902Z</time></trkpt><trkpt lat="30.20578857370042" lon="-6.788893856276002"><ele>741.25</ele><time>2026-03-22T15:32:56.902Z</time></trkpt><trkpt lat="30.20580478747162" lon="-6.7890406348098224"><ele>741.5</ele><time>2026-03-22T15:32:57.902Z</time></trkpt><trkpt lat="30.205828577743212" lon="-6.7891921118280605"><ele>741.75</ele><time>2026-03-22T15:32:58.902Z</time></trkpt><trkpt lat="30.20583957399389" lon="-6.789360579900752"><ele>742.0</ele><time>2026-03-22T15:32:59.902Z</time></trkpt><trkpt lat="30.205843042824544" lon="-6.789572516550106"><ele>742.0</ele><time>2026-03-22T15:33:00.902Z</time></trkpt><trkpt lat="30.205842406578867" lon="-6.789784958599895"><ele>742.0</ele><time>2026-03-22T15:33:01.902Z</time></trkpt><trkpt lat="30.205838637533372" lon="-6.789973604426629"><ele>742.0</ele><time>2026-03-22T15:33:02.902Z</time></trkpt><trkpt lat="30.20583146942147" lon="-6.790130210420293"><ele>741.5</ele><time>2026-03-22T15:33:03.902Z</time></trkpt><trkpt lat="30.20582733195516" lon="-6.790291026058931"><ele>741.0</ele><time>2026-03-22T15:33:04.902Z</time></trkpt><trkpt lat="30.205820075955202" lon="-6.790444353944319"><ele>740.5</ele><time>2026-03-22T15:33:05.902Z</time></trkpt><trkpt lat="30.205824086875737" lon="-6.7906076743843995"><ele>740.0</ele><time>2026-03-22T15:33:06.902Z</time></trkpt><trkpt lat="30.205827947545288" lon="-6.790761376153215"><ele>740.0</ele><time>2026-03-22T15:33:07.902Z</time></trkpt><trkpt lat="30.205830155241994" lon="-6.790908872591397"><ele>740.0</ele><time>2026-03-22T15:33:08.902Z</time></trkpt><trkpt lat="30.205848348598447" lon="-6.791058609340506"><ele>740.0</ele><time>2026-03-22T15:33:09.902Z</time></trkpt><trkpt lat="30.205868973258912" lon="-6.791194252320239"><ele>740.0</ele><time>2026-03-22T15:33:10.902Z</time></trkpt><trkpt lat="30.20589776369885" lon="-6.791346964515973"><ele>740.25</ele><time>2026-03-22T15:33:11.902Z</time></trkpt><trkpt lat="30.205939585788126" lon="-6.791500856306188"><ele>740.5</ele><time>2026-03-22T15:33:12.902Z</time></trkpt><trkpt lat="30.205988587626166" lon="-6.791661525462449"><ele>740.75</ele><time>2026-03-22T15:33:13.902Z</time></trkpt><trkpt lat="30.206043945479546" lon="-6.7918142670742805"><ele>741.0</ele><time>2026-03-22T15:33:14.902Z</time></trkpt><trkpt lat="30.206092844306404" lon="-6.791959950959122"><ele>740.25</ele><time>2026-03-22T15:33:15.902Z</time></trkpt><trkpt lat="30.20614256691028" lon="-6.7921062349578705"><ele>739.5</ele><time>2026-03-22T15:33:16.902Z</time></trkpt><trkpt lat="30.206187624843583" lon="-6.792248448696963"><ele>738.75</ele><time>2026-03-22T15:33:17.902Z</time></trkpt><trkpt lat="30.2062150382107" lon="-6.7923809845783"><ele>738.0</ele><time>2026-03-22T15:33:18.902Z</time></trkpt><trkpt lat="30.20622657368447" lon="-6.792505660263633"><ele>738.0</ele><time>2026-03-22T15:33:19.902Z</time></trkpt><trkpt lat="30.20621898652339" lon="-6.792623599951867"><ele>738.0</ele><time>2026-03-22T15:33:20.902Z</time></trkpt><trkpt lat="30.206197578468373" lon="-6.792751037193375"><ele>738.0</ele><time>2026-03-22T15:33:21.902Z</time></trkpt><trkpt lat="30.206158896756822" lon="-6.7928844250655755"><ele>738.0</ele><time>2026-03-22T15:33:22.902Z</time></trkpt><trkpt lat="30.206113622793545" lon="-6.793025179079682"><ele>738.0</ele><time>2026-03-22T15:33:23.902Z</time></trkpt><trkpt lat="30.206064784669316" lon="-6.793173481337037"><ele>738.0</ele><time>2026-03-22T15:33:24.902Z</time></trkpt><trkpt lat="30.20601666745802" lon="-6.793329502978226"><ele>738.0</ele><time>2026-03-22T15:33:25.902Z</time></trkpt><trkpt lat="30.205973829770507" lon="-6.7934801724307174"><ele>738.0</ele><time>2026-03-22T15:33:26.902Z</time></trkpt><trkpt lat="30.205934300222378" lon="-6.793628685800255"><ele>737.75</ele><time>2026-03-22T15:33:27.902Z</time></trkpt><trkpt lat="30.205889757248077" lon="-6.793793798623822"><ele>737.5</ele><time>2026-03-22T15:33:28.902Z</time></trkpt><trkpt lat="30.205840200939715" lon="-6.79395556701427"><ele>737.25</ele><time>2026-03-22T15:33:29.902Z</time></trkpt><trkpt lat="30.20578694864962" lon="-6.794105555201087"><ele>737.0</ele><time>2026-03-22T15:33:30.902Z</time></trkpt><trkpt lat="30.205734975273824" lon="-6.794239452144243"><ele>736.8</ele><time>2026-03-22T15:33:31.902Z</time></trkpt><trkpt lat="30.205683026297717" lon="-6.794345838028243"><ele>736.6</ele><time>2026-03-22T15:33:32.902Z</time></trkpt><trkpt lat="30.20561025068988" lon="-6.794434170298061"><ele>736.4</ele><time>2026-03-22T15:33:33.902Z</time></trkpt><trkpt lat="30.205532172225734" lon="-6.794504060749066"><ele>736.1999999999999</ele><time>2026-03-22T15:33:34.902Z</time></trkpt><trkpt lat="30.20545830188559" lon="-6.794568726212545"><ele>736.0</ele><time>2026-03-22T15:33:35.902Z</time></trkpt><trkpt lat="30.205394512830082" lon="-6.794632610985516"><ele>736.0</ele><time>2026-03-22T15:33:36.902Z</time></trkpt><trkpt lat="30.20534250503194" lon="-6.794712896317753"><ele>736.0</ele><time>2026-03-22T15:33:37.902Z</time></trkpt><trkpt lat="30.205286247847276" lon="-6.794812267638799"><ele>736.0</ele><time>2026-03-22T15:33:38.902Z</time></trkpt><trkpt lat="30.205219067542686" lon="-6.794906186738262"><ele>736.0</ele><time>2026-03-22T15:33:39.902Z</time></trkpt><trkpt lat="30.205157551412423" lon="-6.794985047475879"><ele>736.0</ele><time>2026-03-22T15:33:40.902Z</time></trkpt><trkpt lat="30.20509840873179" lon="-6.795043618269622"><ele>736.0</ele><time>2026-03-22T15:33:41.902Z</time></trkpt><trkpt lat="30.205036372493122" lon="-6.795115283184333"><ele>736.0</ele><time>2026-03-22T15:33:42.902Z</time></trkpt><trkpt lat="30.20497613959256" lon="-6.795193498517755"><ele>736.0</ele><time>2026-03-22T15:33:43.902Z</time></trkpt><trkpt lat="30.204928005054136" lon="-6.7952957666852045"><ele>736.0</ele><time>2026-03-22T15:33:44.902Z</time></trkpt><trkpt lat="30.20487581945981" lon="-6.795384859780426"><ele>736.0</ele><time>2026-03-22T15:33:45.902Z</time></trkpt><trkpt lat="30.204809861820966" lon="-6.795482047013787"><ele>736.0</ele><time>2026-03-22T15:33:46.902Z</time></trkpt><trkpt lat="30.20476105379488" lon="-6.795606314715693"><ele>736.0</ele><time>2026-03-22T15:33:47.902Z</time></trkpt><trkpt lat="30.20471389012039" lon="-6.795706772102773"><ele>736.0</ele><time>2026-03-22T15:33:48.902Z</time></trkpt><trkpt lat="30.204652354843642" lon="-6.795795829232423"><ele>736.0</ele><time>2026-03-22T15:33:49.902Z</time></trkpt><trkpt lat="30.204573311993645" lon="-6.795881704126817"><ele>736.0</ele><time>2026-03-22T15:33:50.902Z</time></trkpt><trkpt lat="30.204493907908848" lon="-6.795982210315827"><ele>735.75</ele><time>2026-03-22T15:33:51.902Z</time></trkpt><trkpt lat="30.20441825782585" lon="-6.796094647215304"><ele>735.5</ele><time>2026-03-22T15:33:52.902Z</time></trkpt><trkpt lat="30.204351778789324" lon="-6.796217884590497"><ele>735.25</ele><time>2026-03-22T15:33:53.902Z</time></trkpt><trkpt lat="30.204295263337546" lon="-6.796355801839031"><ele>735.0</ele><time>2026-03-22T15:33:54.902Z</time></trkpt><trkpt lat="30.20424704936781" lon="-6.796473326978857"><ele>735.0</ele><time>2026-03-22T15:33:55.902Z</time></trkpt><trkpt lat="30.204196218824602" lon="-6.796573844913621"><ele>735.0</ele><time>2026-03-22T15:33:56.902Z</time></trkpt><trkpt lat="30.204137731037875" lon="-6.796660150374945"><ele>735.0</ele><time>2026-03-22T15:33:57.902Z</time></trkpt><trkpt lat="30.204055066978672" lon="-6.796740051925634"><ele>735.0</ele><time>2026-03-22T15:33:58.902Z</time></trkpt><trkpt lat="30.203971032242897" lon="-6.796803016366541"><ele>735.0</ele><time>2026-03-22T15:33:59.902Z</time></trkpt><trkpt lat="30.20389374021963" lon="-6.796869416495535"><ele>735.25</ele><time>2026-03-22T15:34:00.902Z</time></trkpt><trkpt lat="30.20381578818785" lon="-6.796967567842594"><ele>735.5</ele><time>2026-03-22T15:34:01.902Z</time></trkpt><trkpt lat="30.203726983818328" lon="-6.797068397415833"><ele>735.75</ele><time>2026-03-22T15:34:02.902Z</time></trkpt><trkpt lat="30.203625894032612" lon="-6.797171474407236"><ele>736.0</ele><time>2026-03-22T15:34:03.902Z</time></trkpt><trkpt lat="30.203512684418314" lon="-6.797272340283777"><ele>736.0</ele><time>2026-03-22T15:34:04.902Z</time></trkpt><trkpt lat="30.203401471101028" lon="-6.797381492922799"><ele>736.0</ele><time>2026-03-22T15:34:05.902Z</time></trkpt><trkpt lat="30.203292370751196" lon="-6.797497844824916"><ele>736.0</ele><time>2026-03-22T15:34:06.902Z</time></trkpt><trkpt lat="30.20318455605702" lon="-6.797605791927147"><ele>736.0</ele><time>2026-03-22T15:34:07.902Z</time></trkpt><trkpt lat="30.203079865778093" lon="-6.797709303776849"><ele>735.0</ele><time>2026-03-22T15:34:08.902Z</time></trkpt><trkpt lat="30.202981100071824" lon="-6.797818802399937"><ele>734.0</ele><time>2026-03-22T15:34:09.902Z</time></trkpt><trkpt lat="30.2028705706912" lon="-6.797931858515135"><ele>733.0</ele><time>2026-03-22T15:34:10.902Z</time></trkpt><trkpt lat="30.20273352297591" lon="-6.798055979344871"><ele>733.0</ele><time>2026-03-22T15:34:11.902Z</time></trkpt><trkpt lat="30.20260626230117" lon="-6.798192873936973"><ele>733.0</ele><time>2026-03-22T15:34:12.902Z</time></trkpt><trkpt lat="30.20250058202242" lon="-6.798314694737455"><ele>733.0</ele><time>2026-03-22T15:34:13.902Z</time></trkpt><trkpt lat="30.202389378481705" lon="-6.798419517823157"><ele>732.75</ele><time>2026-03-22T15:34:14.902Z</time></trkpt><trkpt lat="30.202259369992003" lon="-6.798529760934321"><ele>732.5</ele><time>2026-03-22T15:34:15.902Z</time></trkpt><trkpt lat="30.20215346679484" lon="-6.7986456212720165"><ele>732.25</ele><time>2026-03-22T15:34:16.902Z</time></trkpt><trkpt lat="30.202056394993683" lon="-6.7987610977843325"><ele>732.0</ele><time>2026-03-22T15:34:17.902Z</time></trkpt><trkpt lat="30.201995641326388" lon="-6.798849566520388"><ele>732.0</ele><time>2026-03-22T15:34:18.902Z</time></trkpt><trkpt lat="30.201913820781463" lon="-6.798935013296408"><ele>732.0</ele><time>2026-03-22T15:34:19.902Z</time></trkpt><trkpt lat="30.201810975846417" lon="-6.79901621202393"><ele>732.0</ele><time>2026-03-22T15:34:20.902Z</time></trkpt><trkpt lat="30.201692641528403" lon="-6.799128143248476"><ele>732.0</ele><time>2026-03-22T15:34:21.902Z</time></trkpt><trkpt lat="30.201602434324954" lon="-6.799259410012665"><ele>732.0</ele><time>2026-03-22T15:34:22.902Z</time></trkpt><trkpt lat="30.20153498064282" lon="-6.799398723232051"><ele>732.0</ele><time>2026-03-22T15:34:23.902Z</time></trkpt><trkpt lat="30.201461927408207" lon="-6.79952573742183"><ele>732.0</ele><time>2026-03-22T15:34:24.902Z</time></trkpt><trkpt lat="30.201363940865644" lon="-6.799646830583373"><ele>732.0</ele><time>2026-03-22T15:34:25.902Z</time></trkpt><trkpt lat="30.201258473634052" lon="-6.799765716942032"><ele>732.25</ele><time>2026-03-22T15:34:26.902Z</time></trkpt><trkpt lat="30.201164171320002" lon="-6.799890374021901"><ele>732.5</ele><time>2026-03-22T15:34:27.902Z</time></trkpt><trkpt lat="30.201076772753357" lon="-6.800003239973546"><ele>732.75</ele><time>2026-03-22T15:34:28.902Z</time></trkpt><trkpt lat="30.200989823760295" lon="-6.800112194035829"><ele>733.0</ele><time>2026-03-22T15:34:29.902Z</time></trkpt><trkpt lat="30.20090064077127" lon="-6.800231475177054"><ele>732.5999999999999</ele><time>2026-03-22T15:34:30.902Z</time></trkpt><trkpt lat="30.200808018083883" lon="-6.800345552136138"><ele>732.1999999999999</ele><time>2026-03-22T15:34:31.902Z</time></trkpt><trkpt lat="30.200728127254433" lon="-6.800449866037798"><ele>731.8</ele><time>2026-03-22T15:34:32.902Z</time></trkpt><trkpt lat="30.2006629516918" lon="-6.800538399230311"><ele>731.4</ele><time>2026-03-22T15:34:33.902Z</time></trkpt><trkpt lat="30.2005916669871" lon="-6.800602573877432"><ele>731.0</ele><time>2026-03-22T15:34:34.902Z</time></trkpt><trkpt lat="30.20051667784683" lon="-6.800658412560457"><ele>731.0</ele><time>2026-03-22T15:34:35.902Z</time></trkpt><trkpt lat="30.200442346597132" lon="-6.800715717932291"><ele>731.0</ele><time>2026-03-22T15:34:36.902Z</time></trkpt><trkpt lat="30.200379454797577" lon="-6.8008208388852545"><ele>731.0</ele><time>2026-03-22T15:34:37.902Z</time></trkpt><trkpt lat="30.200324237698126" lon="-6.800923542771415"><ele>731.0</ele><time>2026-03-22T15:34:38.902Z</time></trkpt><trkpt lat="30.200264142682244" lon="-6.801000188988034"><ele>731.0</ele><time>2026-03-22T15:34:39.902Z</time></trkpt><trkpt lat="30.200192255933327" lon="-6.801075119806279"><ele>730.75</ele><time>2026-03-22T15:34:40.902Z</time></trkpt><trkpt lat="30.200108548574285" lon="-6.801174914693525"><ele>730.5</ele><time>2026-03-22T15:34:41.902Z</time></trkpt><trkpt lat="30.200031661633698" lon="-6.801271369187973"><ele>730.25</ele><time>2026-03-22T15:34:42.902Z</time></trkpt><trkpt lat="30.199940251454432" lon="-6.801369579893437"><ele>730.0</ele><time>2026-03-22T15:34:43.902Z</time></trkpt><trkpt lat="30.1998422624593" lon="-6.8014815961877195"><ele>730.0</ele><time>2026-03-22T15:34:44.902Z</time></trkpt><trkpt lat="30.1997524367195" lon="-6.80162833953149"><ele>730.0</ele><time>2026-03-22T15:34:45.902Z</time></trkpt><trkpt lat="30.19964730525484" lon="-6.8017906365920044"><ele>730.0</ele><time>2026-03-22T15:34:46.902Z</time></trkpt><trkpt lat="30.199554243780092" lon="-6.8019245060399784"><ele>730.0</ele><time>2026-03-22T15:34:47.902Z</time></trkpt><trkpt lat="30.19947233834088" lon="-6.802029666398007"><ele>730.0</ele><time>2026-03-22T15:34:48.902Z</time></trkpt><trkpt lat="30.19939278772479" lon="-6.802144710517533"><ele>730.0</ele><time>2026-03-22T15:34:49.902Z</time></trkpt><trkpt lat="30.199320463629252" lon="-6.802266705836588"><ele>730.0</ele><time>2026-03-22T15:34:50.902Z</time></trkpt><trkpt lat="30.199241244880547" lon="-6.802392825911256"><ele>730.0</ele><time>2026-03-22T15:34:51.902Z</time></trkpt><trkpt lat="30.199157298771148" lon="-6.802518141498012"><ele>730.0</ele><time>2026-03-22T15:34:52.902Z</time></trkpt><trkpt lat="30.19907551949937" lon="-6.8026251010378305"><ele>730.0</ele><time>2026-03-22T15:34:53.902Z</time></trkpt><trkpt lat="30.198992804387252" lon="-6.80272773515528"><ele>730.0</ele><time>2026-03-22T15:34:54.902Z</time></trkpt><trkpt lat="30.19890633268627" lon="-6.802817736419377"><ele>730.2</ele><time>2026-03-22T15:34:55.902Z</time></trkpt><trkpt lat="30.198814410211774" lon="-6.802891049088915"><ele>730.4</ele><time>2026-03-22T15:34:56.902Z</time></trkpt><trkpt lat="30.198742220341014" lon="-6.802978836069748"><ele>730.5999999999999</ele><time>2026-03-22T15:34:57.902Z</time></trkpt><trkpt lat="30.198671277589096" lon="-6.803066084784841"><ele>730.8</ele><time>2026-03-22T15:34:58.902Z</time></trkpt><trkpt lat="30.198603895653303" lon="-6.803157727885709"><ele>731.0</ele><time>2026-03-22T15:34:59.902Z</time></trkpt><trkpt lat="30.198522422369788" lon="-6.8032529465451965"><ele>731.0</ele><time>2026-03-22T15:35:00.902Z</time></trkpt><trkpt lat="30.198437568486035" lon="-6.803343931262513"><ele>731.0</ele><time>2026-03-22T15:35:01.902Z</time></trkpt><trkpt lat="30.198353523826523" lon="-6.8034357579119265"><ele>731.0</ele><time>2026-03-22T15:35:02.902Z</time></trkpt><trkpt lat="30.198266451405214" lon="-6.803539654389835"><ele>731.0</ele><time>2026-03-22T15:35:03.902Z</time></trkpt><trkpt lat="30.198188506997397" lon="-6.803633559931352"><ele>731.5</ele><time>2026-03-22T15:35:04.902Z</time></trkpt><trkpt lat="30.19811493266012" lon="-6.803737835045621"><ele>732.0</ele><time>2026-03-22T15:35:05.902Z</time></trkpt><trkpt lat="30.198028908133306" lon="-6.803837015830934"><ele>732.5</ele><time>2026-03-22T15:35:06.902Z</time></trkpt><trkpt lat="30.197936200280505" lon="-6.803935568221257"><ele>733.0</ele><time>2026-03-22T15:35:07.902Z</time></trkpt><trkpt lat="30.197823282410912" lon="-6.804043123885351"><ele>733.0</ele><time>2026-03-22T15:35:08.902Z</time></trkpt><trkpt lat="30.19770144705311" lon="-6.804165829374793"><ele>733.0</ele><time>2026-03-22T15:35:09.902Z</time></trkpt><trkpt lat="30.197597309040496" lon="-6.804273925161607"><ele>733.0</ele><time>2026-03-22T15:35:10.902Z</time></trkpt><trkpt lat="30.19749570539641" lon="-6.8043915630340415"><ele>733.0</ele><time>2026-03-22T15:35:11.902Z</time></trkpt><trkpt lat="30.197389987842694" lon="-6.804502513574032"><ele>732.25</ele><time>2026-03-22T15:35:12.902Z</time></trkpt><trkpt lat="30.19728632522789" lon="-6.8046086020324426"><ele>731.5</ele><time>2026-03-22T15:35:13.902Z</time></trkpt><trkpt lat="30.19718326474447" lon="-6.804716760354828"><ele>730.75</ele><time>2026-03-22T15:35:14.902Z</time></trkpt><trkpt lat="30.19708422800482" lon="-6.804830930583881"><ele>730.0</ele><time>2026-03-22T15:35:15.902Z</time></trkpt><trkpt lat="30.196982048658803" lon="-6.80495180817987"><ele>730.0</ele><time>2026-03-22T15:35:16.902Z</time></trkpt><trkpt lat="30.19687812059201" lon="-6.805054056406662"><ele>730.0</ele><time>2026-03-22T15:35:17.902Z</time></trkpt><trkpt lat="30.19677508198285" lon="-6.805160459541099"><ele>730.0</ele><time>2026-03-22T15:35:18.902Z</time></trkpt><trkpt lat="30.196685540942823" lon="-6.805265077984413"><ele>730.0</ele><time>2026-03-22T15:35:19.902Z</time></trkpt><trkpt lat="30.196605213898177" lon="-6.80538291312248"><ele>729.5</ele><time>2026-03-22T15:35:20.902Z</time></trkpt><trkpt lat="30.196511327724632" lon="-6.805496254324893"><ele>729.0</ele><time>2026-03-22T15:35:21.902Z</time></trkpt><trkpt lat="30.196418127441525" lon="-6.805599193434212"><ele>728.5</ele><time>2026-03-22T15:35:22.902Z</time></trkpt><trkpt lat="30.196319206727797" lon="-6.805709713583258"><ele>728.0</ele><time>2026-03-22T15:35:23.902Z</time></trkpt><trkpt lat="30.196221507852968" lon="-6.805824875061735"><ele>728.0</ele><time>2026-03-22T15:35:24.902Z</time></trkpt><trkpt lat="30.196131314664722" lon="-6.805947424673981"><ele>728.0</ele><time>2026-03-22T15:35:25.902Z</time></trkpt><trkpt lat="30.196036682563662" lon="-6.806069961618829"><ele>728.0</ele><time>2026-03-22T15:35:26.902Z</time></trkpt><trkpt lat="30.19592480010206" lon="-6.8061899980474845"><ele>728.0</ele><time>2026-03-22T15:35:27.902Z</time></trkpt><trkpt lat="30.195803055279374" lon="-6.806315257892872"><ele>727.6666666666666</ele><time>2026-03-22T15:35:28.902Z</time></trkpt><trkpt lat="30.195692049825652" lon="-6.806432948207245"><ele>727.3333333333334</ele><time>2026-03-22T15:35:29.902Z</time></trkpt><trkpt lat="30.195581221419868" lon="-6.806564250155479"><ele>727.0</ele><time>2026-03-22T15:35:30.902Z</time></trkpt><trkpt lat="30.195462058937853" lon="-6.806711383080085"><ele>726.0</ele><time>2026-03-22T15:35:31.902Z</time></trkpt><trkpt lat="30.19535645198116" lon="-6.8068480233141155"><ele>725.0</ele><time>2026-03-22T15:35:32.902Z</time></trkpt><trkpt lat="30.195238214188887" lon="-6.806977027130957"><ele>724.0</ele><time>2026-03-22T15:35:33.902Z</time></trkpt><trkpt lat="30.195107977181287" lon="-6.807096127419829"><ele>724.0</ele><time>2026-03-22T15:35:34.902Z</time></trkpt><trkpt lat="30.195000926898942" lon="-6.80721177759982"><ele>724.0</ele><time>2026-03-22T15:35:35.902Z</time></trkpt><trkpt lat="30.194908358418765" lon="-6.807329275431543"><ele>724.0</ele><time>2026-03-22T15:35:36.902Z</time></trkpt><trkpt lat="30.19481194581447" lon="-6.807441822120045"><ele>724.0</ele><time>2026-03-22T15:35:37.902Z</time></trkpt><trkpt lat="30.194709202930113" lon="-6.807553614775581"><ele>724.75</ele><time>2026-03-22T15:35:38.902Z</time></trkpt><trkpt lat="30.194614390573488" lon="-6.807674019135205"><ele>725.5</ele><time>2026-03-22T15:35:39.902Z</time></trkpt><trkpt lat="30.19451158408669" lon="-6.807788511106643"><ele>726.25</ele><time>2026-03-22T15:35:40.902Z</time></trkpt><trkpt lat="30.194414669766882" lon="-6.807896150877258"><ele>727.0</ele><time>2026-03-22T15:35:41.902Z</time></trkpt><trkpt lat="30.19431411101983" lon="-6.808002791100637"><ele>727.0</ele><time>2026-03-22T15:35:42.902Z</time></trkpt><trkpt lat="30.19421360416975" lon="-6.808115500770124"><ele>727.0</ele><time>2026-03-22T15:35:43.902Z</time></trkpt><trkpt lat="30.194118221306706" lon="-6.808227591769561"><ele>727.0</ele><time>2026-03-22T15:35:44.902Z</time></trkpt><trkpt lat="30.194019987545243" lon="-6.808346337379383"><ele>727.0</ele><time>2026-03-22T15:35:45.902Z</time></trkpt><trkpt lat="30.193914579506757" lon="-6.808464246575721"><ele>726.5</ele><time>2026-03-22T15:35:46.902Z</time></trkpt><trkpt lat="30.193811878717323" lon="-6.808581885636973"><ele>726.0</ele><time>2026-03-22T15:35:47.902Z</time></trkpt><trkpt lat="30.193714890486866" lon="-6.8087004461211285"><ele>725.5</ele><time>2026-03-22T15:35:48.902Z</time></trkpt><trkpt lat="30.19361864100766" lon="-6.808814565344516"><ele>725.0</ele><time>2026-03-22T15:35:49.902Z</time></trkpt><trkpt lat="30.19352108826765" lon="-6.808921309775845"><ele>725.0</ele><time>2026-03-22T15:35:50.902Z</time></trkpt><trkpt lat="30.193422869014615" lon="-6.8090351324801786"><ele>725.0</ele><time>2026-03-22T15:35:51.902Z</time></trkpt><trkpt lat="30.193339173212106" lon="-6.809129962222758"><ele>725.0</ele><time>2026-03-22T15:35:52.902Z</time></trkpt><trkpt lat="30.1932067589095" lon="-6.8091667931943025"><ele>725.0</ele><time>2026-03-22T15:35:53.902Z</time></trkpt><trkpt lat="30.193126093305853" lon="-6.809246591513045"><ele>724.25</ele><time>2026-03-22T15:35:54.902Z</time></trkpt><trkpt lat="30.19303860781482" lon="-6.8093278029706505"><ele>723.5</ele><time>2026-03-22T15:35:55.902Z</time></trkpt><trkpt lat="30.192943200801444" lon="-6.809416367853495"><ele>722.75</ele><time>2026-03-22T15:35:56.901Z</time></trkpt><trkpt lat="30.192848716982102" lon="-6.809508456487168"><ele>722.0</ele><time>2026-03-22T15:35:57.901Z</time></trkpt><trkpt lat="30.192776412709136" lon="-6.809593327718948"><ele>722.0</ele><time>2026-03-22T15:35:58.902Z</time></trkpt><trkpt lat="30.19270684114332" lon="-6.809674967558896"><ele>722.0</ele><time>2026-03-22T15:35:59.901Z</time></trkpt><trkpt lat="30.192633282639253" lon="-6.809762671936383"><ele>722.0</ele><time>2026-03-22T15:36:00.901Z</time></trkpt><trkpt lat="30.192556811419763" lon="-6.809852837211537"><ele>722.0</ele><time>2026-03-22T15:36:01.901Z</time></trkpt><trkpt lat="30.19247366121067" lon="-6.80995083084238"><ele>722.0</ele><time>2026-03-22T15:36:02.901Z</time></trkpt><trkpt lat="30.192386074563053" lon="-6.810053768254377"><ele>721.75</ele><time>2026-03-22T15:36:03.901Z</time></trkpt><trkpt lat="30.192297816582496" lon="-6.810157361065437"><ele>721.5</ele><time>2026-03-22T15:36:04.902Z</time></trkpt><trkpt lat="30.192217581427" lon="-6.81025153708171"><ele>721.25</ele><time>2026-03-22T15:36:05.901Z</time></trkpt><trkpt lat="30.192140300238595" lon="-6.810342245877725"><ele>721.0</ele><time>2026-03-22T15:36:06.901Z</time></trkpt><trkpt lat="30.192065376488973" lon="-6.810430163750115"><ele>721.4</ele><time>2026-03-22T15:36:07.902Z</time></trkpt><trkpt lat="30.191997155426133" lon="-6.8105102112625575"><ele>721.8</ele><time>2026-03-22T15:36:08.901Z</time></trkpt><trkpt lat="30.191936760075674" lon="-6.810581076433629"><ele>722.1999999999999</ele><time>2026-03-22T15:36:09.901Z</time></trkpt><trkpt lat="30.191881773022946" lon="-6.810645595753905"><ele>722.5999999999999</ele><time>2026-03-22T15:36:10.901Z</time></trkpt><trkpt lat="30.19180689761412" lon="-6.810765721897375"><ele>723.0</ele><time>2026-03-22T15:36:12.901Z</time></trkpt><trkpt lat="30.191816386419383" lon="-6.810854621431799"><ele>723.0</ele><time>2026-03-22T15:36:13.901Z</time></trkpt><trkpt lat="30.191820449928898" lon="-6.810972707312681"><ele>723.0</ele><time>2026-03-22T15:36:14.901Z</time></trkpt><trkpt lat="30.191852130765973" lon="-6.811102926103271"><ele>723.0</ele><time>2026-03-22T15:36:15.901Z</time></trkpt><trkpt lat="30.191871269130992" lon="-6.811254534258732"><ele>723.0</ele><time>2026-03-22T15:36:16.901Z</time></trkpt><trkpt lat="30.191893737783335" lon="-6.811417494076956"><ele>722.25</ele><time>2026-03-22T15:36:17.901Z</time></trkpt><trkpt lat="30.191943707457373" lon="-6.8115782857958145"><ele>721.5</ele><time>2026-03-22T15:36:18.901Z</time></trkpt><trkpt lat="30.191977027758256" lon="-6.811714303845365"><ele>720.75</ele><time>2026-03-22T15:36:19.901Z</time></trkpt><trkpt lat="30.19201314463849" lon="-6.811862413284936"><ele>720.0</ele><time>2026-03-22T15:36:20.901Z</time></trkpt><trkpt lat="30.192054259674066" lon="-6.812031402079395"><ele>720.0</ele><time>2026-03-22T15:36:21.901Z</time></trkpt><trkpt lat="30.19207720783478" lon="-6.812194030547335"><ele>720.0</ele><time>2026-03-22T15:36:22.901Z</time></trkpt><trkpt lat="30.192115746149607" lon="-6.812340629968207"><ele>720.0</ele><time>2026-03-22T15:36:23.901Z</time></trkpt><trkpt lat="30.192150941411263" lon="-6.812493169327131"><ele>720.0</ele><time>2026-03-22T15:36:24.901Z</time></trkpt><trkpt lat="30.192190867813768" lon="-6.812650407047811"><ele>719.75</ele><time>2026-03-22T15:36:25.901Z</time></trkpt><trkpt lat="30.1922395111278" lon="-6.812791787127692"><ele>719.5</ele><time>2026-03-22T15:36:26.901Z</time></trkpt><trkpt lat="30.192271031554174" lon="-6.812921441734624"><ele>719.25</ele><time>2026-03-22T15:36:27.901Z</time></trkpt><trkpt lat="30.19229468985958" lon="-6.813064590509913"><ele>719.0</ele><time>2026-03-22T15:36:28.901Z</time></trkpt><trkpt lat="30.19232154540806" lon="-6.813197929095365"><ele>719.0</ele><time>2026-03-22T15:36:29.901Z</time></trkpt><trkpt lat="30.19236111627556" lon="-6.813345689992"><ele>719.0</ele><time>2026-03-22T15:36:30.901Z</time></trkpt><trkpt lat="30.192402230759456" lon="-6.81346160048846"><ele>719.0</ele><time>2026-03-22T15:36:31.901Z</time></trkpt><trkpt lat="30.192382743025146" lon="-6.813578504073602"><ele>719.0</ele><time>2026-03-22T15:36:32.901Z</time></trkpt><trkpt lat="30.192354403331265" lon="-6.813681334606071"><ele>719.0</ele><time>2026-03-22T15:36:33.901Z</time></trkpt><trkpt lat="30.19230528231056" lon="-6.813773414049806"><ele>719.0</ele><time>2026-03-22T15:36:34.901Z</time></trkpt><trkpt lat="30.192229355968593" lon="-6.813869968414172"><ele>719.0</ele><time>2026-03-22T15:36:35.901Z</time></trkpt><trkpt lat="30.192160753889766" lon="-6.813957375199657"><ele>719.0</ele><time>2026-03-22T15:36:36.901Z</time></trkpt><trkpt lat="30.192070455638493" lon="-6.814047987992173"><ele>719.0</ele><time>2026-03-22T15:36:38.901Z</time></trkpt><trkpt lat="30.191954153666924" lon="-6.814049007329823"><ele>719.0</ele><time>2026-03-22T15:36:40.901Z</time></trkpt><trkpt lat="30.191835950535314" lon="-6.8140323277184285"><ele>719.0</ele><time>2026-03-22T15:36:42.901Z</time></trkpt><trkpt lat="30.19174654670912" lon="-6.81402650695816"><ele>719.0</ele><time>2026-03-22T15:36:44.901Z</time></trkpt><trkpt lat="30.191680673413085" lon="-6.814019800373432"><ele>719.0</ele><time>2026-03-22T15:36:47.901Z</time></trkpt><trkpt lat="30.19157345404291" lon="-6.81402610188654"><ele>719.0</ele><time>2026-03-22T15:36:50.901Z</time></trkpt><trkpt lat="30.191504309728902" lon="-6.8140220987679685"><ele>719.0</ele><time>2026-03-22T15:36:51.901Z</time></trkpt><trkpt lat="30.191431239989168" lon="-6.814017406760524"><ele>719.0</ele><time>2026-03-22T15:36:52.901Z</time></trkpt><trkpt lat="30.191353981195693" lon="-6.8140101871649765"><ele>719.0</ele><time>2026-03-22T15:36:53.901Z</time></trkpt><trkpt lat="30.191273424214007" lon="-6.814004306238738"><ele>719.0</ele><time>2026-03-22T15:36:54.901Z</time></trkpt><trkpt lat="30.191181894856513" lon="-6.813995616207448"><ele>719.0</ele><time>2026-03-22T15:36:55.901Z</time></trkpt><trkpt lat="30.19107033792648" lon="-6.8139959942130535"><ele>719.0</ele><time>2026-03-22T15:36:56.901Z</time></trkpt><trkpt lat="30.190960982796735" lon="-6.813999975563481"><ele>719.0</ele><time>2026-03-22T15:36:57.901Z</time></trkpt><trkpt lat="30.190852822725347" lon="-6.81400008100113"><ele>719.0</ele><time>2026-03-22T15:36:58.901Z</time></trkpt><trkpt lat="30.190756944602157" lon="-6.813995837789471"><ele>719.0</ele><time>2026-03-22T15:36:59.901Z</time></trkpt><trkpt lat="30.190649743787947" lon="-6.813990710581458"><ele>719.0</ele><time>2026-03-22T15:37:00.901Z</time></trkpt><trkpt lat="30.19054486110634" lon="-6.813991784675396"><ele>719.0</ele><time>2026-03-22T15:37:01.901Z</time></trkpt><trkpt lat="30.190433715256926" lon="-6.813992872479173"><ele>718.5</ele><time>2026-03-22T15:37:02.901Z</time></trkpt><trkpt lat="30.190313392398245" lon="-6.8139918192764"><ele>718.0</ele><time>2026-03-22T15:37:03.901Z</time></trkpt><trkpt lat="30.190192636140047" lon="-6.8139933636390655"><ele>717.5</ele><time>2026-03-22T15:37:04.901Z</time></trkpt><trkpt lat="30.19007854740273" lon="-6.813997455673583"><ele>717.0</ele><time>2026-03-22T15:37:05.901Z</time></trkpt><trkpt lat="30.189959932871236" lon="-6.813978099927437"><ele>717.0</ele><time>2026-03-22T15:37:06.901Z</time></trkpt><trkpt lat="30.189841365239314" lon="-6.81397116723655"><ele>717.0</ele><time>2026-03-22T15:37:07.901Z</time></trkpt><trkpt lat="30.18973809777637" lon="-6.813977926069872"><ele>717.0</ele><time>2026-03-22T15:37:08.901Z</time></trkpt><trkpt lat="30.189642889047292" lon="-6.813977050756738"><ele>717.0</ele><time>2026-03-22T15:37:09.901Z</time></trkpt><trkpt lat="30.189549413301982" lon="-6.813976986777899"><ele>717.0</ele><time>2026-03-22T15:37:10.901Z</time></trkpt><trkpt lat="30.189456446514203" lon="-6.81399018801949"><ele>717.0</ele><time>2026-03-22T15:37:11.901Z</time></trkpt><trkpt lat="30.189356647709513" lon="-6.814020249779347"><ele>717.0</ele><time>2026-03-22T15:37:12.901Z</time></trkpt><trkpt lat="30.189269395593318" lon="-6.814041141759936"><ele>717.0</ele><time>2026-03-22T15:37:13.901Z</time></trkpt><trkpt lat="30.1891903205476" lon="-6.814047036254159"><ele>717.0</ele><time>2026-03-22T15:37:14.901Z</time></trkpt><trkpt lat="30.189075682048717" lon="-6.813982925189461"><ele>717.0</ele><time>2026-03-22T15:37:16.901Z</time></trkpt><trkpt lat="30.189003595173418" lon="-6.813926321511287"><ele>717.2</ele><time>2026-03-22T15:37:17.901Z</time></trkpt><trkpt lat="30.18893679201367" lon="-6.8138961466076635"><ele>717.4000000000001</ele><time>2026-03-22T15:37:18.901Z</time></trkpt><trkpt lat="30.188839047969292" lon="-6.813892914485192"><ele>717.5999999999999</ele><time>2026-03-22T15:37:19.901Z</time></trkpt><trkpt lat="30.188739477762685" lon="-6.813912953667876"><ele>717.8</ele><time>2026-03-22T15:37:20.901Z</time></trkpt><trkpt lat="30.18864252035127" lon="-6.813913481273636"><ele>718.0</ele><time>2026-03-22T15:37:21.901Z</time></trkpt><trkpt lat="30.188538622898747" lon="-6.813908548853638"><ele>718.0</ele><time>2026-03-22T15:37:22.901Z</time></trkpt><trkpt lat="30.188408654896495" lon="-6.813902396153547"><ele>718.0</ele><time>2026-03-22T15:37:23.901Z</time></trkpt><trkpt lat="30.188288545042234" lon="-6.813876042433067"><ele>718.0</ele><time>2026-03-22T15:37:24.901Z</time></trkpt><trkpt lat="30.18818408990171" lon="-6.8138803810442266"><ele>718.0</ele><time>2026-03-22T15:37:25.901Z</time></trkpt><trkpt lat="30.188085071453163" lon="-6.813885063706402"><ele>718.0</ele><time>2026-03-22T15:37:26.901Z</time></trkpt><trkpt lat="30.187997989709718" lon="-6.813884983809879"><ele>718.0</ele><time>2026-03-22T15:37:27.901Z</time></trkpt><trkpt lat="30.187928767106495" lon="-6.81387023927071"><ele>718.0</ele><time>2026-03-22T15:37:28.901Z</time></trkpt><trkpt lat="30.187857323549544" lon="-6.8137430325955926"><ele>718.0</ele><time>2026-03-22T15:37:30.901Z</time></trkpt><trkpt lat="30.187872900553284" lon="-6.813600143792189"><ele>718.0</ele><time>2026-03-22T15:37:32.901Z</time></trkpt><trkpt lat="30.187871376546074" lon="-6.813487773160685"><ele>718.0</ele><time>2026-03-22T15:37:34.901Z</time></trkpt><trkpt lat="30.187856440995912" lon="-6.813380950371897"><ele>718.0</ele><time>2026-03-22T15:37:36.901Z</time></trkpt><trkpt lat="30.18783302155365" lon="-6.813226037068464"><ele>718.0</ele><time>2026-03-22T15:37:38.901Z</time></trkpt><trkpt lat="30.187824444679027" lon="-6.813124398156422"><ele>718.0</ele><time>2026-03-22T15:37:39.901Z</time></trkpt><trkpt lat="30.187807206127804" lon="-6.813024831887808"><ele>718.0</ele><time>2026-03-22T15:37:40.901Z</time></trkpt><trkpt lat="30.18779150809881" lon="-6.81291813242482"><ele>718.0</ele><time>2026-03-22T15:37:41.901Z</time></trkpt><trkpt lat="30.187776266747488" lon="-6.812820017848656"><ele>718.0</ele><time>2026-03-22T15:37:42.901Z</time></trkpt><trkpt lat="30.187763372969624" lon="-6.812725138479843"><ele>718.0</ele><time>2026-03-22T15:37:43.901Z</time></trkpt><trkpt lat="30.187753449971282" lon="-6.812616514825419"><ele>718.0</ele><time>2026-03-22T15:37:44.901Z</time></trkpt><trkpt lat="30.187739227735776" lon="-6.812497700794608"><ele>718.0</ele><time>2026-03-22T15:37:45.901Z</time></trkpt><trkpt lat="30.187725261985538" lon="-6.812363201477086"><ele>719.0</ele><time>2026-03-22T15:37:46.901Z</time></trkpt><trkpt lat="30.1877102014006" lon="-6.81220512981227"><ele>720.0</ele><time>2026-03-22T15:37:47.901Z</time></trkpt><trkpt lat="30.187694659366297" lon="-6.812029299840975"><ele>721.0</ele><time>2026-03-22T15:37:48.901Z</time></trkpt><trkpt lat="30.187671390015467" lon="-6.811835010978287"><ele>720.75</ele><time>2026-03-22T15:37:49.901Z</time></trkpt><trkpt lat="30.187650878924913" lon="-6.811653382544829"><ele>720.5</ele><time>2026-03-22T15:37:50.901Z</time></trkpt><trkpt lat="30.187633824359047" lon="-6.811505647595194"><ele>720.25</ele><time>2026-03-22T15:37:51.901Z</time></trkpt><trkpt lat="30.187616876826343" lon="-6.811374996864615"><ele>720.0</ele><time>2026-03-22T15:37:52.901Z</time></trkpt><trkpt lat="30.187609938837532" lon="-6.811250304969506"><ele>720.0</ele><time>2026-03-22T15:37:53.901Z</time></trkpt><trkpt lat="30.187602934628043" lon="-6.811155509677911"><ele>720.0</ele><time>2026-03-22T15:37:54.901Z</time></trkpt><trkpt lat="30.18757403234476" lon="-6.811069583895381"><ele>720.0</ele><time>2026-03-22T15:37:55.901Z</time></trkpt><trkpt lat="30.187527574350902" lon="-6.811014159401427"><ele>720.0</ele><time>2026-03-22T15:37:56.901Z</time></trkpt><trkpt lat="30.187448374969858" lon="-6.810991282386494"><ele>720.0</ele><time>2026-03-22T15:37:57.901Z</time></trkpt><trkpt lat="30.187363849405354" lon="-6.811007353917561"><ele>720.0</ele><time>2026-03-22T15:37:58.901Z</time></trkpt><trkpt lat="30.18725498925691" lon="-6.81105249042076"><ele>719.75</ele><time>2026-03-22T15:37:59.901Z</time></trkpt><trkpt lat="30.18709910146095" lon="-6.811092742128313"><ele>719.5</ele><time>2026-03-22T15:38:00.901Z</time></trkpt><trkpt lat="30.18695368025465" lon="-6.81110722347245"><ele>719.25</ele><time>2026-03-22T15:38:01.901Z</time></trkpt><trkpt lat="30.18682171561608" lon="-6.811115527963781"><ele>719.0</ele><time>2026-03-22T15:38:02.9Z</time></trkpt><trkpt lat="30.18669966180294" lon="-6.811134799902585"><ele>719.0</ele><time>2026-03-22T15:38:03.9Z</time></trkpt><trkpt lat="30.186566992825743" lon="-6.811155423715546"><ele>719.0</ele><time>2026-03-22T15:38:04.901Z</time></trkpt><trkpt lat="30.18642420188276" lon="-6.81117564386213"><ele>719.0</ele><time>2026-03-22T15:38:05.901Z</time></trkpt><trkpt lat="30.186267564511233" lon="-6.811196936164422"><ele>719.0</ele><time>2026-03-22T15:38:06.901Z</time></trkpt><trkpt lat="30.186104024175442" lon="-6.811216158893235"><ele>719.0</ele><time>2026-03-22T15:38:07.901Z</time></trkpt><trkpt lat="30.185943722042673" lon="-6.811234294658135"><ele>719.0</ele><time>2026-03-22T15:38:08.901Z</time></trkpt><trkpt lat="30.185810056126005" lon="-6.811235432011689"><ele>719.0</ele><time>2026-03-22T15:38:09.901Z</time></trkpt><trkpt lat="30.185686206803535" lon="-6.811249000915345"><ele>719.0</ele><time>2026-03-22T15:38:10.9Z</time></trkpt><trkpt lat="30.18555679430694" lon="-6.8112692413515745"><ele>719.25</ele><time>2026-03-22T15:38:11.9Z</time></trkpt><trkpt lat="30.185422864076067" lon="-6.811273720560273"><ele>719.5</ele><time>2026-03-22T15:38:12.9Z</time></trkpt><trkpt lat="30.185294128088294" lon="-6.811257789547249"><ele>719.75</ele><time>2026-03-22T15:38:13.901Z</time></trkpt><trkpt lat="30.18516476986062" lon="-6.811236050250963"><ele>720.0</ele><time>2026-03-22T15:38:14.901Z</time></trkpt><trkpt lat="30.185034543073222" lon="-6.8112190871671485"><ele>720.0</ele><time>2026-03-22T15:38:15.901Z</time></trkpt><trkpt lat="30.184903934608094" lon="-6.811199920735314"><ele>720.0</ele><time>2026-03-22T15:38:16.901Z</time></trkpt><trkpt lat="30.184769748725188" lon="-6.8111896209961955"><ele>720.0</ele><time>2026-03-22T15:38:17.901Z</time></trkpt><trkpt lat="30.184639132729778" lon="-6.811186036648514"><ele>720.0</ele><time>2026-03-22T15:38:18.901Z</time></trkpt><trkpt lat="30.184508131376628" lon="-6.811189350392298"><ele>719.5</ele><time>2026-03-22T15:38:19.901Z</time></trkpt><trkpt lat="30.184386353340678" lon="-6.811194440956131"><ele>719.0</ele><time>2026-03-22T15:38:20.901Z</time></trkpt><trkpt lat="30.18426314713963" lon="-6.811199355128623"><ele>718.5</ele><time>2026-03-22T15:38:21.901Z</time></trkpt><trkpt lat="30.184139156241084" lon="-6.811191498046423"><ele>718.0</ele><time>2026-03-22T15:38:22.901Z</time></trkpt><trkpt lat="30.1840149845745" lon="-6.811189670774538"><ele>717.0</ele><time>2026-03-22T15:38:23.901Z</time></trkpt><trkpt lat="30.183883955286205" lon="-6.811178235009681"><ele>716.0</ele><time>2026-03-22T15:38:24.901Z</time></trkpt><trkpt lat="30.18375187541069" lon="-6.8111723753037845"><ele>715.0</ele><time>2026-03-22T15:38:25.901Z</time></trkpt><trkpt lat="30.18362116242113" lon="-6.811176048493884"><ele>714.0</ele><time>2026-03-22T15:38:26.901Z</time></trkpt><trkpt lat="30.18349846488927" lon="-6.811181422306789"><ele>714.0</ele><time>2026-03-22T15:38:27.901Z</time></trkpt><trkpt lat="30.183371926016136" lon="-6.811181963897472"><ele>714.0</ele><time>2026-03-22T15:38:28.901Z</time></trkpt><trkpt lat="30.183256830752217" lon="-6.811170850299414"><ele>714.0</ele><time>2026-03-22T15:38:29.901Z</time></trkpt><trkpt lat="30.18312735711539" lon="-6.811145762575838"><ele>714.0</ele><time>2026-03-22T15:38:30.901Z</time></trkpt><trkpt lat="30.182973005116278" lon="-6.811112814903731"><ele>713.6666666666666</ele><time>2026-03-22T15:38:31.901Z</time></trkpt><trkpt lat="30.182804138698582" lon="-6.811065699400612"><ele>713.3333333333333</ele><time>2026-03-22T15:38:32.901Z</time></trkpt><trkpt lat="30.182641448453374" lon="-6.811026025865334"><ele>713.0</ele><time>2026-03-22T15:38:33.901Z</time></trkpt><trkpt lat="30.18250404666512" lon="-6.810978206727437"><ele>713.25</ele><time>2026-03-22T15:38:34.901Z</time></trkpt><trkpt lat="30.18238030202695" lon="-6.810944453070031"><ele>713.5</ele><time>2026-03-22T15:38:35.901Z</time></trkpt><trkpt lat="30.18225501700545" lon="-6.810922607721056"><ele>713.75</ele><time>2026-03-22T15:38:36.901Z</time></trkpt><trkpt lat="30.182105007279898" lon="-6.810921179264233"><ele>714.0</ele><time>2026-03-22T15:38:37.901Z</time></trkpt><trkpt lat="30.181920033430245" lon="-6.810919242604602"><ele>714.0</ele><time>2026-03-22T15:38:38.901Z</time></trkpt><trkpt lat="30.181731177055937" lon="-6.810906709652151"><ele>714.0</ele><time>2026-03-22T15:38:39.901Z</time></trkpt><trkpt lat="30.18153567405422" lon="-6.810886711041064"><ele>714.0</ele><time>2026-03-22T15:38:40.901Z</time></trkpt><trkpt lat="30.181371007498903" lon="-6.81087337154394"><ele>714.0</ele><time>2026-03-22T15:38:41.901Z</time></trkpt><trkpt lat="30.181217545174803" lon="-6.810843318209585"><ele>714.0</ele><time>2026-03-22T15:38:42.901Z</time></trkpt><trkpt lat="30.181063003169566" lon="-6.810808804518738"><ele>714.0</ele><time>2026-03-22T15:38:43.901Z</time></trkpt><trkpt lat="30.180893115334896" lon="-6.810776352813307"><ele>714.0</ele><time>2026-03-22T15:38:44.901Z</time></trkpt><trkpt lat="30.180738829476294" lon="-6.810756231961789"><ele>714.0</ele><time>2026-03-22T15:38:45.901Z</time></trkpt><trkpt lat="30.180612942924895" lon="-6.810745050430782"><ele>714.0</ele><time>2026-03-22T15:38:46.901Z</time></trkpt><trkpt lat="30.18051847364184" lon="-6.810762479977982"><ele>714.0</ele><time>2026-03-22T15:38:47.901Z</time></trkpt><trkpt lat="30.180427205575988" lon="-6.810802522860503"><ele>714.1666666666666</ele><time>2026-03-22T15:38:48.901Z</time></trkpt><trkpt lat="30.18032661792524" lon="-6.810811517485254"><ele>714.3333333333334</ele><time>2026-03-22T15:38:49.901Z</time></trkpt><trkpt lat="30.180230312101187" lon="-6.810766365171692"><ele>714.5</ele><time>2026-03-22T15:38:50.901Z</time></trkpt><trkpt lat="30.180157146659436" lon="-6.810702130973525"><ele>714.6666666666667</ele><time>2026-03-22T15:38:51.901Z</time></trkpt><trkpt lat="30.18011573664074" lon="-6.810638558531321"><ele>714.8333333333334</ele><time>2026-03-22T15:38:52.901Z</time></trkpt><trkpt lat="30.180101227082346" lon="-6.810547820137256"><ele>715.0</ele><time>2026-03-22T15:38:53.901Z</time></trkpt><trkpt lat="30.18010925227624" lon="-6.81044205946806"><ele>715.0</ele><time>2026-03-22T15:38:54.901Z</time></trkpt><trkpt lat="30.180122500641577" lon="-6.810349598284532"><ele>715.0</ele><time>2026-03-22T15:38:55.901Z</time></trkpt><trkpt lat="30.180123298608045" lon="-6.810260569518001"><ele>715.0</ele><time>2026-03-22T15:38:56.901Z</time></trkpt><trkpt lat="30.180098016115267" lon="-6.810129760478348"><ele>715.0</ele><time>2026-03-22T15:38:58.901Z</time></trkpt><trkpt lat="30.18008390544706" lon="-6.810048750446927"><ele>715.0</ele><time>2026-03-22T15:38:59.9Z</time></trkpt><trkpt lat="30.180066399246783" lon="-6.809964494330003"><ele>715.0</ele><time>2026-03-22T15:39:00.9Z</time></trkpt><trkpt lat="30.180051694899035" lon="-6.809877497110257"><ele>715.4</ele><time>2026-03-22T15:39:01.9Z</time></trkpt><trkpt lat="30.180042035943046" lon="-6.809784717732307"><ele>715.8</ele><time>2026-03-22T15:39:02.9Z</time></trkpt><trkpt lat="30.18002998399144" lon="-6.809687414484784"><ele>716.2</ele><time>2026-03-22T15:39:03.9Z</time></trkpt><trkpt lat="30.18001353118483" lon="-6.809584968888675"><ele>716.6</ele><time>2026-03-22T15:39:04.9Z</time></trkpt><trkpt lat="30.179992735982776" lon="-6.809477962288814"><ele>717.0</ele><time>2026-03-22T15:39:05.9Z</time></trkpt><trkpt lat="30.17997027042821" lon="-6.809363724202301"><ele>717.0</ele><time>2026-03-22T15:39:06.9Z</time></trkpt><trkpt lat="30.179963564232157" lon="-6.8092569237396345"><ele>717.0</ele><time>2026-03-22T15:39:07.9Z</time></trkpt><trkpt lat="30.17996078779382" lon="-6.809143723418552"><ele>717.0</ele><time>2026-03-22T15:39:08.9Z</time></trkpt><trkpt lat="30.179968015975234" lon="-6.809035984600262"><ele>717.0</ele><time>2026-03-22T15:39:09.9Z</time></trkpt><trkpt lat="30.179963430860717" lon="-6.808942319362954"><ele>717.0</ele><time>2026-03-22T15:39:10.9Z</time></trkpt><trkpt lat="30.17995711597347" lon="-6.8088439200963355"><ele>717.0</ele><time>2026-03-22T15:39:11.9Z</time></trkpt><trkpt lat="30.179956871414266" lon="-6.808749338969208"><ele>717.0</ele><time>2026-03-22T15:39:12.9Z</time></trkpt><trkpt lat="30.17995191837981" lon="-6.808666135445528"><ele>717.0</ele><time>2026-03-22T15:39:13.9Z</time></trkpt><trkpt lat="30.179939929719197" lon="-6.808573323647924"><ele>717.0</ele><time>2026-03-22T15:39:14.9Z</time></trkpt><trkpt lat="30.179913415835177" lon="-6.808499746064395"><ele>717.0</ele><time>2026-03-22T15:39:15.9Z</time></trkpt><trkpt lat="30.179879529003077" lon="-6.808419883682673"><ele>717.0</ele><time>2026-03-22T15:39:16.9Z</time></trkpt><trkpt lat="30.179844744348486" lon="-6.808339796934693"><ele>716.6666666666666</ele><time>2026-03-22T15:39:17.9Z</time></trkpt><trkpt lat="30.179826855267603" lon="-6.808260428676562"><ele>716.3333333333334</ele><time>2026-03-22T15:39:18.9Z</time></trkpt><trkpt lat="30.17978073299332" lon="-6.808189475292547"><ele>716.0</ele><time>2026-03-22T15:39:19.9Z</time></trkpt><trkpt lat="30.179713490594054" lon="-6.808123554583754"><ele>715.6666666666667</ele><time>2026-03-22T15:39:20.9Z</time></trkpt><trkpt lat="30.179644983537482" lon="-6.808074591119032"><ele>715.3333333333334</ele><time>2026-03-22T15:39:21.9Z</time></trkpt><trkpt lat="30.179558711797387" lon="-6.808034787148886"><ele>715.0</ele><time>2026-03-22T15:39:22.9Z</time></trkpt><trkpt lat="30.179453125681928" lon="-6.808003475314205"><ele>715.0</ele><time>2026-03-22T15:39:23.9Z</time></trkpt><trkpt lat="30.179352821735915" lon="-6.807982107929992"><ele>715.0</ele><time>2026-03-22T15:39:24.9Z</time></trkpt><trkpt lat="30.17925579660226" lon="-6.807965896357483"><ele>715.0</ele><time>2026-03-22T15:39:25.9Z</time></trkpt><trkpt lat="30.179149737495568" lon="-6.807933107300919"><ele>715.0</ele><time>2026-03-22T15:39:26.9Z</time></trkpt><trkpt lat="30.179045013176392" lon="-6.807900943990569"><ele>715.0</ele><time>2026-03-22T15:39:27.9Z</time></trkpt><trkpt lat="30.17894476103969" lon="-6.80785406722821"><ele>715.4</ele><time>2026-03-22T15:39:28.9Z</time></trkpt><trkpt lat="30.17883299173965" lon="-6.807781117382849"><ele>715.8</ele><time>2026-03-22T15:39:29.9Z</time></trkpt><trkpt lat="30.178727290646126" lon="-6.807722031837269"><ele>716.2</ele><time>2026-03-22T15:39:30.9Z</time></trkpt><trkpt lat="30.178621912947197" lon="-6.807688203204837"><ele>716.6</ele><time>2026-03-22T15:39:31.9Z</time></trkpt><trkpt lat="30.17853274645854" lon="-6.807673081310683"><ele>717.0</ele><time>2026-03-22T15:39:32.9Z</time></trkpt><trkpt lat="30.17843944700485" lon="-6.807655153155752"><ele>717.0</ele><time>2026-03-22T15:39:33.9Z</time></trkpt><trkpt lat="30.178346845381466" lon="-6.80763086865484"><ele>717.0</ele><time>2026-03-22T15:39:34.9Z</time></trkpt><trkpt lat="30.17825690925507" lon="-6.80759599138883"><ele>717.0</ele><time>2026-03-22T15:39:35.9Z</time></trkpt><trkpt lat="30.178180835814953" lon="-6.807539933473181"><ele>717.0</ele><time>2026-03-22T15:39:36.9Z</time></trkpt><trkpt lat="30.178102130095578" lon="-6.8074664754147145"><ele>717.0</ele><time>2026-03-22T15:39:37.9Z</time></trkpt><trkpt lat="30.178024936808587" lon="-6.807389125467233"><ele>717.6</ele><time>2026-03-22T15:39:38.9Z</time></trkpt><trkpt lat="30.177947258152322" lon="-6.8073139853567115"><ele>718.2</ele><time>2026-03-22T15:39:39.9Z</time></trkpt><trkpt lat="30.177869066428062" lon="-6.807242794425778"><ele>718.8</ele><time>2026-03-22T15:39:40.9Z</time></trkpt><trkpt lat="30.177797729694277" lon="-6.807161038408314"><ele>719.4</ele><time>2026-03-22T15:39:41.9Z</time></trkpt><trkpt lat="30.17774017988849" lon="-6.807067994272583"><ele>720.0</ele><time>2026-03-22T15:39:42.9Z</time></trkpt><trkpt lat="30.177688736394472" lon="-6.806977632293917"><ele>720.0</ele><time>2026-03-22T15:39:43.9Z</time></trkpt><trkpt lat="30.177646396907683" lon="-6.806894999214637"><ele>720.0</ele><time>2026-03-22T15:39:44.9Z</time></trkpt><trkpt lat="30.177620113389054" lon="-6.806799360513159"><ele>720.0</ele><time>2026-03-22T15:39:45.9Z</time></trkpt><trkpt lat="30.1776256108036" lon="-6.806692672643819"><ele>720.0</ele><time>2026-03-22T15:39:46.9Z</time></trkpt><trkpt lat="30.177639999901505" lon="-6.80657343520255"><ele>720.0</ele><time>2026-03-22T15:39:47.9Z</time></trkpt><trkpt lat="30.177675432862117" lon="-6.806470306766729"><ele>720.0</ele><time>2026-03-22T15:39:48.9Z</time></trkpt><trkpt lat="30.17773155749566" lon="-6.806391274060691"><ele>720.0</ele><time>2026-03-22T15:39:49.9Z</time></trkpt><trkpt lat="30.177792669038485" lon="-6.806332022322385"><ele>720.0</ele><time>2026-03-22T15:39:50.9Z</time></trkpt><trkpt lat="30.177863220183582" lon="-6.806284344150792"><ele>720.0</ele><time>2026-03-22T15:39:51.9Z</time></trkpt><trkpt lat="30.177947395466276" lon="-6.806202169803538"><ele>720.0</ele><time>2026-03-22T15:39:52.9Z</time></trkpt><trkpt lat="30.17795604460786" lon="-6.806088575567833"><ele>720.0</ele><time>2026-03-22T15:39:53.9Z</time></trkpt><trkpt lat="30.177941767179025" lon="-6.805960753152457"><ele>720.0</ele><time>2026-03-22T15:39:54.9Z</time></trkpt><trkpt lat="30.177907684962133" lon="-6.805838896088605"><ele>720.0</ele><time>2026-03-22T15:39:55.9Z</time></trkpt><trkpt lat="30.177850122863635" lon="-6.805709129018517"><ele>720.0</ele><time>2026-03-22T15:39:56.9Z</time></trkpt><trkpt lat="30.177771646446903" lon="-6.80555657229399"><ele>720.0</ele><time>2026-03-22T15:39:57.9Z</time></trkpt><trkpt lat="30.177714742656153" lon="-6.805391616250388"><ele>720.0</ele><time>2026-03-22T15:39:58.9Z</time></trkpt><trkpt lat="30.177667870833083" lon="-6.805228112321039"><ele>720.0</ele><time>2026-03-22T15:39:59.9Z</time></trkpt><trkpt lat="30.177628830502815" lon="-6.805078599520921"><ele>720.0</ele><time>2026-03-22T15:40:00.9Z</time></trkpt><trkpt lat="30.177584684196624" lon="-6.804933274954006"><ele>720.0</ele><time>2026-03-22T15:40:01.9Z</time></trkpt><trkpt lat="30.17753609863121" lon="-6.804794408657501"><ele>720.0</ele><time>2026-03-22T15:40:02.9Z</time></trkpt><trkpt lat="30.177463994789694" lon="-6.804658404538298"><ele>720.0</ele><time>2026-03-22T15:40:03.9Z</time></trkpt><trkpt lat="30.17736165494552" lon="-6.804531946509695"><ele>720.0</ele><time>2026-03-22T15:40:04.9Z</time></trkpt><trkpt lat="30.17723994033601" lon="-6.804407820942913"><ele>719.6666666666666</ele><time>2026-03-22T15:40:05.9Z</time></trkpt><trkpt lat="30.177112999407846" lon="-6.804252067874497"><ele>719.3333333333333</ele><time>2026-03-22T15:40:06.9Z</time></trkpt><trkpt lat="30.17700083221324" lon="-6.804092628096066"><ele>719.0</ele><time>2026-03-22T15:40:07.9Z</time></trkpt><trkpt lat="30.176904024882393" lon="-6.80394370966818"><ele>719.0</ele><time>2026-03-22T15:40:08.9Z</time></trkpt><trkpt lat="30.17679681864799" lon="-6.803800848610378"><ele>719.0</ele><time>2026-03-22T15:40:09.9Z</time></trkpt><trkpt lat="30.176697261185833" lon="-6.803652234953912"><ele>719.0</ele><time>2026-03-22T15:40:10.9Z</time></trkpt><trkpt lat="30.17659222043032" lon="-6.803510644740315"><ele>720.3333333333333</ele><time>2026-03-22T15:40:11.9Z</time></trkpt><trkpt lat="30.176473014574672" lon="-6.803383896745945"><ele>721.6666666666666</ele><time>2026-03-22T15:40:12.9Z</time></trkpt><trkpt lat="30.176349465188082" lon="-6.803264269269274"><ele>723.0</ele><time>2026-03-22T15:40:13.9Z</time></trkpt><trkpt lat="30.176252659748087" lon="-6.803144995683605"><ele>723.0</ele><time>2026-03-22T15:40:14.9Z</time></trkpt><trkpt lat="30.176148519148764" lon="-6.803038352068389"><ele>723.0</ele><time>2026-03-22T15:40:15.9Z</time></trkpt><trkpt lat="30.17604912844619" lon="-6.802938119122609"><ele>723.0</ele><time>2026-03-22T15:40:16.9Z</time></trkpt><trkpt lat="30.175929070856483" lon="-6.802873065075655"><ele>723.0</ele><time>2026-03-22T15:40:17.9Z</time></trkpt><trkpt lat="30.175819964063322" lon="-6.8027949395863425"><ele>723.3333333333334</ele><time>2026-03-22T15:40:18.9Z</time></trkpt><trkpt lat="30.175683951215998" lon="-6.802704361287291"><ele>723.6666666666667</ele><time>2026-03-22T15:40:19.9Z</time></trkpt><trkpt lat="30.175553378999513" lon="-6.802597918495416"><ele>724.0</ele><time>2026-03-22T15:40:20.9Z</time></trkpt><trkpt lat="30.175416324257842" lon="-6.8025253735609175"><ele>724.0</ele><time>2026-03-22T15:40:21.9Z</time></trkpt><trkpt lat="30.175300946749303" lon="-6.802444415756528"><ele>724.0</ele><time>2026-03-22T15:40:22.9Z</time></trkpt><trkpt lat="30.17517924509575" lon="-6.80239025276616"><ele>724.0</ele><time>2026-03-22T15:40:23.9Z</time></trkpt><trkpt lat="30.175074221298924" lon="-6.802333750125278"><ele>724.0</ele><time>2026-03-22T15:40:24.9Z</time></trkpt><trkpt lat="30.174961467857194" lon="-6.802308797278174"><ele>724.0</ele><time>2026-03-22T15:40:25.9Z</time></trkpt><trkpt lat="30.174832561518823" lon="-6.802285969627288"><ele>724.0</ele><time>2026-03-22T15:40:26.9Z</time></trkpt><trkpt lat="30.174697169184707" lon="-6.802273413595267"><ele>724.0</ele><time>2026-03-22T15:40:27.9Z</time></trkpt><trkpt lat="30.174541617024087" lon="-6.80225898797688"><ele>724.0</ele><time>2026-03-22T15:40:28.9Z</time></trkpt><trkpt lat="30.17439828839778" lon="-6.802245695950147"><ele>724.0</ele><time>2026-03-22T15:40:29.9Z</time></trkpt><trkpt lat="30.17427063539818" lon="-6.802250882342709"><ele>724.0</ele><time>2026-03-22T15:40:30.9Z</time></trkpt><trkpt lat="30.174161036837912" lon="-6.802234480959042"><ele>724.0</ele><time>2026-03-22T15:40:31.9Z</time></trkpt><trkpt lat="30.174061255114704" lon="-6.802232725315489"><ele>724.0</ele><time>2026-03-22T15:40:32.9Z</time></trkpt><trkpt lat="30.173955005893" lon="-6.802213226187861"><ele>724.0</ele><time>2026-03-22T15:40:33.9Z</time></trkpt><trkpt lat="30.173861750033915" lon="-6.802255514308808"><ele>724.0</ele><time>2026-03-22T15:40:34.9Z</time></trkpt><trkpt lat="30.17376893567261" lon="-6.802329017024593"><ele>724.0</ele><time>2026-03-22T15:40:35.9Z</time></trkpt><trkpt lat="30.173702858956474" lon="-6.802390153411978"><ele>724.0</ele><time>2026-03-22T15:40:36.9Z</time></trkpt><trkpt lat="30.17367973071508" lon="-6.802566873411676"><ele>724.0</ele><time>2026-03-22T15:40:37.9Z</time></trkpt><trkpt lat="30.173664069112206" lon="-6.802687105793645"><ele>724.0</ele><time>2026-03-22T15:40:38.9Z</time></trkpt><trkpt lat="30.17364828793746" lon="-6.802808255517678"><ele>724.0</ele><time>2026-03-22T15:40:39.9Z</time></trkpt><trkpt lat="30.17355884250511" lon="-6.80282973034003"><ele>724.0</ele><time>2026-03-22T15:40:40.9Z</time></trkpt><trkpt lat="30.173678706444033" lon="-6.803040812044884"><ele>724.0</ele><time>2026-03-22T15:40:41.9Z</time></trkpt><trkpt lat="30.17361235196261" lon="-6.803110562693117"><ele>724.0</ele><time>2026-03-22T15:40:42.9Z</time></trkpt><trkpt lat="30.173511295665058" lon="-6.803156033842283"><ele>724.0</ele><time>2026-03-22T15:40:43.9Z</time></trkpt><trkpt lat="30.17334165919597" lon="-6.8031890830744555"><ele>724.0</ele><time>2026-03-22T15:40:44.9Z</time></trkpt><trkpt lat="30.173228307443203" lon="-6.803333022536565"><ele>724.0</ele><time>2026-03-22T15:40:45.9Z</time></trkpt><trkpt lat="30.17312339084055" lon="-6.8034662505504615"><ele>724.6666666666667</ele><time>2026-03-22T15:40:46.9Z</time></trkpt><trkpt lat="30.173067145161706" lon="-6.803629262524783"><ele>725.3333333333334</ele><time>2026-03-22T15:40:47.9Z</time></trkpt><trkpt lat="30.172973240971324" lon="-6.803767209713667"><ele>726.0</ele><time>2026-03-22T15:40:48.9Z</time></trkpt><trkpt lat="30.172892466052037" lon="-6.803916612656673"><ele>726.0</ele><time>2026-03-22T15:40:49.9Z</time></trkpt><trkpt lat="30.172804366557134" lon="-6.804067901999718"><ele>726.0</ele><time>2026-03-22T15:40:50.9Z</time></trkpt><trkpt lat="30.172713180306182" lon="-6.804210849099992"><ele>726.0</ele><time>2026-03-22T15:40:51.9Z</time></trkpt><trkpt lat="30.172624853823237" lon="-6.804348373652858"><ele>726.25</ele><time>2026-03-22T15:40:52.9Z</time></trkpt><trkpt lat="30.17254551481818" lon="-6.804484034345958"><ele>726.5</ele><time>2026-03-22T15:40:53.9Z</time></trkpt><trkpt lat="30.172460295253085" lon="-6.804623408167136"><ele>726.75</ele><time>2026-03-22T15:40:54.9Z</time></trkpt><trkpt lat="30.172375448965624" lon="-6.80475578204355"><ele>727.0</ele><time>2026-03-22T15:40:55.9Z</time></trkpt><trkpt lat="30.172293195637973" lon="-6.804891830685105"><ele>727.3333333333334</ele><time>2026-03-22T15:40:56.9Z</time></trkpt><trkpt lat="30.17221087192825" lon="-6.805036267223419"><ele>727.6666666666666</ele><time>2026-03-22T15:40:57.9Z</time></trkpt><trkpt lat="30.172105842081848" lon="-6.805206902376415"><ele>728.0</ele><time>2026-03-22T15:40:58.9Z</time></trkpt><trkpt lat="30.17201587286048" lon="-6.805345017218319"><ele>728.0</ele><time>2026-03-22T15:40:59.9Z</time></trkpt><trkpt lat="30.17183949963758" lon="-6.805397810770494"><ele>728.0</ele><time>2026-03-22T15:41:00.9Z</time></trkpt><trkpt lat="30.1717640662447" lon="-6.805513639784466"><ele>728.0</ele><time>2026-03-22T15:41:01.9Z</time></trkpt><trkpt lat="30.171689511355016" lon="-6.805628262606783"><ele>728.0</ele><time>2026-03-22T15:41:02.9Z</time></trkpt><trkpt lat="30.17161407770474" lon="-6.805744236349238"><ele>728.0</ele><time>2026-03-22T15:41:03.9Z</time></trkpt><trkpt lat="30.171615773397885" lon="-6.805925404856317"><ele>728.0</ele><time>2026-03-22T15:41:04.9Z</time></trkpt><trkpt lat="30.17154458203321" lon="-6.8060427789893945"><ele>728.0</ele><time>2026-03-22T15:41:05.9Z</time></trkpt><trkpt lat="30.17146361347729" lon="-6.806162164164936"><ele>728.0</ele><time>2026-03-22T15:41:06.9Z</time></trkpt><trkpt lat="30.171388269521206" lon="-6.806273544216368"><ele>728.5999999999999</ele><time>2026-03-22T15:41:07.9Z</time></trkpt><trkpt lat="30.17131802462177" lon="-6.806381081203126"><ele>729.1999999999999</ele><time>2026-03-22T15:41:08.899Z</time></trkpt><trkpt lat="30.171250784477223" lon="-6.806466287943258"><ele>729.8</ele><time>2026-03-22T15:41:09.899Z</time></trkpt><trkpt lat="30.17119736418196" lon="-6.806562011555023"><ele>730.4</ele><time>2026-03-22T15:41:10.899Z</time></trkpt><trkpt lat="30.171163796721473" lon="-6.806681738163672"><ele>731.0</ele><time>2026-03-22T15:41:11.899Z</time></trkpt><trkpt lat="30.171138756420376" lon="-6.806841014616917"><ele>732.0</ele><time>2026-03-22T15:41:12.899Z</time></trkpt><trkpt lat="30.17112129929823" lon="-6.807002346358466"><ele>733.0</ele><time>2026-03-22T15:41:13.899Z</time></trkpt><trkpt lat="30.17110791352784" lon="-6.80714724902219"><ele>734.0</ele><time>2026-03-22T15:41:14.899Z</time></trkpt><trkpt lat="30.171078749407044" lon="-6.80728008512934"><ele>735.0</ele><time>2026-03-22T15:41:15.899Z</time></trkpt><trkpt lat="30.171037578095014" lon="-6.807415167097706"><ele>735.0</ele><time>2026-03-22T15:41:16.899Z</time></trkpt><trkpt lat="30.170988559106604" lon="-6.807554386672549"><ele>735.0</ele><time>2026-03-22T15:41:17.899Z</time></trkpt><trkpt lat="30.170945976180146" lon="-6.807686725094624"><ele>735.0</ele><time>2026-03-22T15:41:18.899Z</time></trkpt><trkpt lat="30.170903925128826" lon="-6.807813714028304"><ele>735.0</ele><time>2026-03-22T15:41:19.899Z</time></trkpt><trkpt lat="30.17084856216033" lon="-6.807928411312292"><ele>736.75</ele><time>2026-03-22T15:41:20.899Z</time></trkpt><trkpt lat="30.170771686352648" lon="-6.8080285109129175"><ele>738.5</ele><time>2026-03-22T15:41:21.899Z</time></trkpt><trkpt lat="30.170683757904456" lon="-6.808124879456436"><ele>740.25</ele><time>2026-03-22T15:41:22.899Z</time></trkpt><trkpt lat="30.170598115934855" lon="-6.808211434807464"><ele>742.0</ele><time>2026-03-22T15:41:23.899Z</time></trkpt><trkpt lat="30.170525653175595" lon="-6.808321079205068"><ele>742.4000000000001</ele><time>2026-03-22T15:41:24.899Z</time></trkpt><trkpt lat="30.170456169801053" lon="-6.8084167355398035"><ele>742.8000000000001</ele><time>2026-03-22T15:41:25.899Z</time></trkpt><trkpt lat="30.170382085616044" lon="-6.808503062818813"><ele>743.2</ele><time>2026-03-22T15:41:26.899Z</time></trkpt><trkpt lat="30.170320826126527" lon="-6.808583334582937"><ele>743.6</ele><time>2026-03-22T15:41:27.899Z</time></trkpt><trkpt lat="30.170267452317947" lon="-6.808649845243712"><ele>744.0</ele><time>2026-03-22T15:41:28.899Z</time></trkpt><trkpt lat="30.170198502565878" lon="-6.808699762371111"><ele>745.1666666666666</ele><time>2026-03-22T15:41:29.899Z</time></trkpt><trkpt lat="30.17012432518493" lon="-6.808728228771865"><ele>746.3333333333334</ele><time>2026-03-22T15:41:30.899Z</time></trkpt><trkpt lat="30.17004314700191" lon="-6.808753845868791"><ele>747.5</ele><time>2026-03-22T15:41:31.899Z</time></trkpt><trkpt lat="30.169969203003163" lon="-6.808798400116633"><ele>748.6666666666667</ele><time>2026-03-22T15:41:32.899Z</time></trkpt><trkpt lat="30.16991700155441" lon="-6.808872862718167"><ele>749.8333333333334</ele><time>2026-03-22T15:41:33.899Z</time></trkpt><trkpt lat="30.169894555198187" lon="-6.8089551676520506"><ele>751.0</ele><time>2026-03-22T15:41:34.899Z</time></trkpt><trkpt lat="30.169896237613326" lon="-6.8090601576145735"><ele>751.0</ele><time>2026-03-22T15:41:35.899Z</time></trkpt><trkpt lat="30.169901501777545" lon="-6.809174490766684"><ele>751.0</ele><time>2026-03-22T15:41:36.899Z</time></trkpt><trkpt lat="30.16990254755642" lon="-6.809293109422564"><ele>751.0</ele><time>2026-03-22T15:41:37.899Z</time></trkpt><trkpt lat="30.169908541850006" lon="-6.809399548186045"><ele>751.0</ele><time>2026-03-22T15:41:38.899Z</time></trkpt><trkpt lat="30.16990815307821" lon="-6.809500154603394"><ele>751.0</ele><time>2026-03-22T15:41:39.899Z</time></trkpt><trkpt lat="30.16990909609442" lon="-6.809601820479922"><ele>752.4</ele><time>2026-03-22T15:41:40.899Z</time></trkpt><trkpt lat="30.169906524465652" lon="-6.809709734032895"><ele>753.8</ele><time>2026-03-22T15:41:41.899Z</time></trkpt><trkpt lat="30.169900240402942" lon="-6.809825610450743"><ele>755.1999999999999</ele><time>2026-03-22T15:41:42.899Z</time></trkpt><trkpt lat="30.16989516948762" lon="-6.809928443743967"><ele>756.5999999999999</ele><time>2026-03-22T15:41:43.899Z</time></trkpt><trkpt lat="30.169905512308095" lon="-6.810029118354101"><ele>758.0</ele><time>2026-03-22T15:41:44.899Z</time></trkpt><trkpt lat="30.16991986851458" lon="-6.810121669495598"><ele>759.6666666666666</ele><time>2026-03-22T15:41:45.899Z</time></trkpt><trkpt lat="30.169937656375375" lon="-6.810230623673075"><ele>761.3333333333333</ele><time>2026-03-22T15:41:46.899Z</time></trkpt><trkpt lat="30.169956329314704" lon="-6.81033645180996"><ele>763.0</ele><time>2026-03-22T15:41:47.899Z</time></trkpt><trkpt lat="30.169968375444842" lon="-6.81043473674467"><ele>764.6666666666666</ele><time>2026-03-22T15:41:48.899Z</time></trkpt><trkpt lat="30.16997662757391" lon="-6.810514724067518"><ele>766.3333333333334</ele><time>2026-03-22T15:41:49.899Z</time></trkpt><trkpt lat="30.16998547248502" lon="-6.810607325550332"><ele>768.0</ele><time>2026-03-22T15:41:50.899Z</time></trkpt><trkpt lat="30.16998337990735" lon="-6.8107050055497185"><ele>768.0</ele><time>2026-03-22T15:41:51.899Z</time></trkpt><trkpt lat="30.169966750121507" lon="-6.810800048406057"><ele>768.0</ele><time>2026-03-22T15:41:52.899Z</time></trkpt><trkpt lat="30.169947620008973" lon="-6.81087621767221"><ele>768.0</ele><time>2026-03-22T15:41:53.899Z</time></trkpt><trkpt lat="30.169866296970035" lon="-6.81097330066438"><ele>768.0</ele><time>2026-03-22T15:41:55.899Z</time></trkpt><trkpt lat="30.16978163973571" lon="-6.810997148984205"><ele>768.0</ele><time>2026-03-22T15:41:57.899Z</time></trkpt><trkpt lat="30.169733089546494" lon="-6.810946237056435"><ele>768.0</ele><time>2026-03-22T15:41:58.899Z</time></trkpt><trkpt lat="30.169662565102044" lon="-6.810835520311852"><ele>770.4</ele><time>2026-03-22T15:41:59.899Z</time></trkpt><trkpt lat="30.16957427169981" lon="-6.810717444941636"><ele>772.8</ele><time>2026-03-22T15:42:00.899Z</time></trkpt><trkpt lat="30.169497804028577" lon="-6.810609990059529"><ele>775.2</ele><time>2026-03-22T15:42:01.899Z</time></trkpt><trkpt lat="30.16943507252858" lon="-6.81052857529007"><ele>777.6</ele><time>2026-03-22T15:42:02.899Z</time></trkpt><trkpt lat="30.169378793844135" lon="-6.810466003494716"><ele>780.0</ele><time>2026-03-22T15:42:03.899Z</time></trkpt><trkpt lat="30.169313301872304" lon="-6.8103950262277015"><ele>780.0</ele><time>2026-03-22T15:42:04.899Z</time></trkpt><trkpt lat="30.169240706333852" lon="-6.81031871617729"><ele>780.0</ele><time>2026-03-22T15:42:05.899Z</time></trkpt><trkpt lat="30.16917083412139" lon="-6.810258719888914"><ele>780.0</ele><time>2026-03-22T15:42:06.899Z</time></trkpt><trkpt lat="30.16912166759886" lon="-6.810205249995164"><ele>780.0</ele><time>2026-03-22T15:42:07.899Z</time></trkpt><trkpt lat="30.169032128055953" lon="-6.810097275870228"><ele>780.0</ele><time>2026-03-22T15:42:09.899Z</time></trkpt><trkpt lat="30.16895019491051" lon="-6.810014288868"><ele>778.6</ele><time>2026-03-22T15:42:11.899Z</time></trkpt><trkpt lat="30.16882509356784" lon="-6.809957758350307"><ele>777.2</ele><time>2026-03-22T15:42:13.9Z</time></trkpt><trkpt lat="30.168742169059286" lon="-6.809940474714451"><ele>775.8</ele><time>2026-03-22T15:42:14.899Z</time></trkpt><trkpt lat="30.168648736749866" lon="-6.809940699132428"><ele>774.4</ele><time>2026-03-22T15:42:15.899Z</time></trkpt><trkpt lat="30.168540429678508" lon="-6.809981712037166"><ele>773.0</ele><time>2026-03-22T15:42:16.9Z</time></trkpt><trkpt lat="30.168440126551264" lon="-6.810022863711366"><ele>773.0</ele><time>2026-03-22T15:42:17.899Z</time></trkpt><trkpt lat="30.16834910222696" lon="-6.810120380629808"><ele>773.0</ele><time>2026-03-22T15:42:18.899Z</time></trkpt><trkpt lat="30.168224675550164" lon="-6.81022343132288"><ele>773.0</ele><time>2026-03-22T15:42:19.9Z</time></trkpt><trkpt lat="30.168113363977824" lon="-6.810314961425615"><ele>773.0</ele><time>2026-03-22T15:42:20.899Z</time></trkpt><trkpt lat="30.167978449255404" lon="-6.810332757224674"><ele>777.0</ele><time>2026-03-22T15:42:21.899Z</time></trkpt><trkpt lat="30.167808193450906" lon="-6.810377843272844"><ele>781.0</ele><time>2026-03-22T15:42:22.899Z</time></trkpt><trkpt lat="30.167628373503607" lon="-6.8104980452562005"><ele>785.0</ele><time>2026-03-22T15:42:23.9Z</time></trkpt><trkpt lat="30.167427475692808" lon="-6.8106213215680445"><ele>782.3333333333334</ele><time>2026-03-22T15:42:24.9Z</time></trkpt><trkpt lat="30.167224776625172" lon="-6.810716720623601"><ele>779.6666666666667</ele><time>2026-03-22T15:42:25.899Z</time></trkpt><trkpt lat="30.167059479238944" lon="-6.810785157279682"><ele>777.0</ele><time>2026-03-22T15:42:26.899Z</time></trkpt><trkpt lat="30.16693330709693" lon="-6.810851782693928"><ele>777.0</ele><time>2026-03-22T15:42:27.899Z</time></trkpt><trkpt lat="30.16680902655998" lon="-6.810913632957278"><ele>777.0</ele><time>2026-03-22T15:42:28.899Z</time></trkpt><trkpt lat="30.166668704137766" lon="-6.810968342928606"><ele>777.0</ele><time>2026-03-22T15:42:29.899Z</time></trkpt><trkpt lat="30.166516066471885" lon="-6.811064086068362"><ele>779.3333333333333</ele><time>2026-03-22T15:42:30.899Z</time></trkpt><trkpt lat="30.166334378745454" lon="-6.8111659471134205"><ele>781.6666666666666</ele><time>2026-03-22T15:42:31.899Z</time></trkpt><trkpt lat="30.16616077463045" lon="-6.811272569660129"><ele>784.0</ele><time>2026-03-22T15:42:32.899Z</time></trkpt><trkpt lat="30.166014241252505" lon="-6.811366142328561"><ele>784.0</ele><time>2026-03-22T15:42:33.899Z</time></trkpt><trkpt lat="30.165903886891975" lon="-6.811463767969634"><ele>784.0</ele><time>2026-03-22T15:42:34.899Z</time></trkpt><trkpt lat="30.165800558284204" lon="-6.811572915411375"><ele>784.0</ele><time>2026-03-22T15:42:35.899Z</time></trkpt><trkpt lat="30.165688594274993" lon="-6.811701845318586"><ele>784.0</ele><time>2026-03-22T15:42:36.899Z</time></trkpt><trkpt lat="30.16557205689494" lon="-6.811806498267254"><ele>784.0</ele><time>2026-03-22T15:42:37.899Z</time></trkpt><trkpt lat="30.165471551795214" lon="-6.8119103358625885"><ele>784.0</ele><time>2026-03-22T15:42:38.899Z</time></trkpt><trkpt lat="30.165387761627013" lon="-6.81200989844177"><ele>784.0</ele><time>2026-03-22T15:42:39.899Z</time></trkpt><trkpt lat="30.165311461247402" lon="-6.812095084895882"><ele>784.0</ele><time>2026-03-22T15:42:40.899Z</time></trkpt><trkpt lat="30.165235651773536" lon="-6.812162993156433"><ele>783.9999999999999</ele><time>2026-03-22T15:42:41.899Z</time></trkpt><trkpt lat="30.16515921503464" lon="-6.812247121397463"><ele>784.0</ele><time>2026-03-22T15:42:42.899Z</time></trkpt><trkpt lat="30.16508574399553" lon="-6.812317083413615"><ele>784.0</ele><time>2026-03-22T15:42:43.899Z</time></trkpt><trkpt lat="30.165030350490763" lon="-6.812377820232707"><ele>784.0</ele><time>2026-03-22T15:42:44.899Z</time></trkpt><trkpt lat="30.165000915206473" lon="-6.812448967931231"><ele>783.9999999999999</ele><time>2026-03-22T15:42:45.899Z</time></trkpt><trkpt lat="30.164991255370516" lon="-6.812536969577199"><ele>784.0</ele><time>2026-03-22T15:42:46.899Z</time></trkpt><trkpt lat="30.164999840133415" lon="-6.8126225908929845"><ele>783.6666666666666</ele><time>2026-03-22T15:42:47.899Z</time></trkpt><trkpt lat="30.16501934481615" lon="-6.812693188056138"><ele>783.3333333333333</ele><time>2026-03-22T15:42:48.899Z</time></trkpt><trkpt lat="30.165070400983364" lon="-6.81275429044393"><ele>783.0</ele><time>2026-03-22T15:42:49.899Z</time></trkpt><trkpt lat="30.1651384978237" lon="-6.812791861197391"><ele>782.6666666666667</ele><time>2026-03-22T15:42:50.899Z</time></trkpt><trkpt lat="30.16523425896095" lon="-6.812816213815312"><ele>782.3333333333334</ele><time>2026-03-22T15:42:51.899Z</time></trkpt><trkpt lat="30.165341367719755" lon="-6.812873994891811"><ele>782.0</ele><time>2026-03-22T15:42:52.899Z</time></trkpt><trkpt lat="30.165438814032402" lon="-6.8129427802821345"><ele>782.0</ele><time>2026-03-22T15:42:53.899Z</time></trkpt><trkpt lat="30.16555616148476" lon="-6.8129598373916735"><ele>782.0</ele><time>2026-03-22T15:42:54.899Z</time></trkpt><trkpt lat="30.16563655524569" lon="-6.813038594458746"><ele>782.0</ele><time>2026-03-22T15:42:55.899Z</time></trkpt><trkpt lat="30.165742186028602" lon="-6.813065227813303"><ele>782.0</ele><time>2026-03-22T15:42:56.899Z</time></trkpt><trkpt lat="30.16584983528676" lon="-6.813081115435216"><ele>782.0</ele><time>2026-03-22T15:42:57.899Z</time></trkpt><trkpt lat="30.165953591197717" lon="-6.813101468380916"><ele>780.0</ele><time>2026-03-22T15:42:58.899Z</time></trkpt><trkpt lat="30.1660697396054" lon="-6.813138685241639"><ele>778.0</ele><time>2026-03-22T15:42:59.899Z</time></trkpt><trkpt lat="30.16617435677274" lon="-6.813184694168938"><ele>776.0</ele><time>2026-03-22T15:43:00.899Z</time></trkpt><trkpt lat="30.166284754083787" lon="-6.813238112542143"><ele>774.0</ele><time>2026-03-22T15:43:01.899Z</time></trkpt><trkpt lat="30.166393962976883" lon="-6.8133195047702575"><ele>774.0</ele><time>2026-03-22T15:43:02.899Z</time></trkpt><trkpt lat="30.16650338928437" lon="-6.813401019584945"><ele>774.0</ele><time>2026-03-22T15:43:03.899Z</time></trkpt><trkpt lat="30.166614926029037" lon="-6.813479602162066"><ele>774.0</ele><time>2026-03-22T15:43:04.899Z</time></trkpt><trkpt lat="30.16670557330325" lon="-6.813545921865806"><ele>774.0</ele><time>2026-03-22T15:43:05.899Z</time></trkpt><trkpt lat="30.166782048569225" lon="-6.813609995909837"><ele>771.2</ele><time>2026-03-22T15:43:06.899Z</time></trkpt><trkpt lat="30.16686828402766" lon="-6.813670517030491"><ele>768.4000000000001</ele><time>2026-03-22T15:43:07.899Z</time></trkpt><trkpt lat="30.16694783350506" lon="-6.813720065097114"><ele>765.6</ele><time>2026-03-22T15:43:08.899Z</time></trkpt><trkpt lat="30.1670441884163" lon="-6.813770710591479"><ele>762.8</ele><time>2026-03-22T15:43:09.899Z</time></trkpt><trkpt lat="30.167136572512163" lon="-6.813829760865472"><ele>760.0</ele><time>2026-03-22T15:43:10.899Z</time></trkpt><trkpt lat="30.16721664331079" lon="-6.813881656282329"><ele>760.0</ele><time>2026-03-22T15:43:11.899Z</time></trkpt><trkpt lat="30.167287096026694" lon="-6.813940606311857"><ele>760.0</ele><time>2026-03-22T15:43:12.899Z</time></trkpt><trkpt lat="30.167356432900295" lon="-6.814008096021972"><ele>760.0</ele><time>2026-03-22T15:43:13.899Z</time></trkpt><trkpt lat="30.167423934405047" lon="-6.814073043986906"><ele>760.0</ele><time>2026-03-22T15:43:14.899Z</time></trkpt><trkpt lat="30.16748553127489" lon="-6.814134394052113"><ele>760.0</ele><time>2026-03-22T15:43:15.899Z</time></trkpt><trkpt lat="30.16754148384782" lon="-6.81417968621126"><ele>760.0</ele><time>2026-03-22T15:43:16.899Z</time></trkpt><trkpt lat="30.167623809465137" lon="-6.814210867964136"><ele>762.0</ele><time>2026-03-22T15:43:17.899Z</time></trkpt><trkpt lat="30.16770013825098" lon="-6.814228101643704"><ele>764.0</ele><time>2026-03-22T15:43:18.899Z</time></trkpt><trkpt lat="30.167770350061936" lon="-6.814286137951254"><ele>766.0</ele><time>2026-03-22T15:43:19.899Z</time></trkpt><trkpt lat="30.167824446755578" lon="-6.8143716992851955"><ele>768.0</ele><time>2026-03-22T15:43:20.899Z</time></trkpt><trkpt lat="30.16787319353653" lon="-6.814447542255657"><ele>769.9999999999999</ele><time>2026-03-22T15:43:21.899Z</time></trkpt><trkpt lat="30.167920178805595" lon="-6.814523129246774"><ele>772.0</ele><time>2026-03-22T15:43:22.899Z</time></trkpt><trkpt lat="30.16797744805665" lon="-6.814595731041166"><ele>772.0</ele><time>2026-03-22T15:43:23.899Z</time></trkpt><trkpt lat="30.16798191349047" lon="-6.8147347029212595"><ele>772.0</ele><time>2026-03-22T15:43:25.899Z</time></trkpt><trkpt lat="30.16793190403045" lon="-6.814814951388483"><ele>772.0</ele><time>2026-03-22T15:43:26.899Z</time></trkpt><trkpt lat="30.167844805794697" lon="-6.8148774618381225"><ele>772.0</ele><time>2026-03-22T15:43:27.899Z</time></trkpt><trkpt lat="30.16773989606471" lon="-6.814913488637109"><ele>772.0</ele><time>2026-03-22T15:43:28.899Z</time></trkpt><trkpt lat="30.167637573516075" lon="-6.815007435978638"><ele>772.0</ele><time>2026-03-22T15:43:29.898Z</time></trkpt><trkpt lat="30.16755258409089" lon="-6.815075534390503"><ele>772.0</ele><time>2026-03-22T15:43:30.898Z</time></trkpt><trkpt lat="30.167447192162193" lon="-6.815147245302177"><ele>772.0</ele><time>2026-03-22T15:43:31.898Z</time></trkpt><trkpt lat="30.16734105741454" lon="-6.815195803595908"><ele>772.0</ele><time>2026-03-22T15:43:32.898Z</time></trkpt><trkpt lat="30.167244223993126" lon="-6.815235374497799"><ele>772.0</ele><time>2026-03-22T15:43:33.898Z</time></trkpt><trkpt lat="30.167151733774297" lon="-6.815271797108173"><ele>770.2</ele><time>2026-03-22T15:43:34.898Z</time></trkpt><trkpt lat="30.167065528389358" lon="-6.815321288997507"><ele>768.4000000000001</ele><time>2026-03-22T15:43:35.898Z</time></trkpt><trkpt lat="30.166997475381606" lon="-6.8154073639565125"><ele>766.5999999999999</ele><time>2026-03-22T15:43:36.898Z</time></trkpt><trkpt lat="30.16693200249711" lon="-6.815503815837703"><ele>764.8</ele><time>2026-03-22T15:43:37.898Z</time></trkpt><trkpt lat="30.166847697603572" lon="-6.815596114660062"><ele>763.0</ele><time>2026-03-22T15:43:38.898Z</time></trkpt><trkpt lat="30.166734665779895" lon="-6.8156966835569275"><ele>763.0</ele><time>2026-03-22T15:43:39.898Z</time></trkpt><trkpt lat="30.16662181781458" lon="-6.815809529609776"><ele>763.0</ele><time>2026-03-22T15:43:40.898Z</time></trkpt><trkpt lat="30.166509772756292" lon="-6.815945754699093"><ele>763.0</ele><time>2026-03-22T15:43:41.898Z</time></trkpt><trkpt lat="30.16641141498139" lon="-6.816060609924489"><ele>760.0</ele><time>2026-03-22T15:43:42.898Z</time></trkpt><trkpt lat="30.166311194549618" lon="-6.816184208779159"><ele>757.0</ele><time>2026-03-22T15:43:43.898Z</time></trkpt><trkpt lat="30.166202211381325" lon="-6.816314028867499"><ele>754.0</ele><time>2026-03-22T15:43:44.898Z</time></trkpt><trkpt lat="30.166092211220082" lon="-6.81642588011013"><ele>751.0</ele><time>2026-03-22T15:43:45.898Z</time></trkpt><trkpt lat="30.165997249613028" lon="-6.816527084176494"><ele>751.0</ele><time>2026-03-22T15:43:46.898Z</time></trkpt><trkpt lat="30.1659063319699" lon="-6.816621619716047"><ele>751.0</ele><time>2026-03-22T15:43:47.898Z</time></trkpt><trkpt lat="30.165829184882966" lon="-6.816722442590313"><ele>751.0</ele><time>2026-03-22T15:43:48.898Z</time></trkpt><trkpt lat="30.165749795195023" lon="-6.816833737891444"><ele>751.0</ele><time>2026-03-22T15:43:49.898Z</time></trkpt><trkpt lat="30.165660032014237" lon="-6.816929579293067"><ele>750.0</ele><time>2026-03-22T15:43:50.898Z</time></trkpt><trkpt lat="30.16554156024449" lon="-6.816994874158563"><ele>749.0</ele><time>2026-03-22T15:43:51.898Z</time></trkpt><trkpt lat="30.165409104766226" lon="-6.817034923054907"><ele>748.0</ele><time>2026-03-22T15:43:52.898Z</time></trkpt><trkpt lat="30.165263292703848" lon="-6.8170476368228465"><ele>747.0</ele><time>2026-03-22T15:43:53.898Z</time></trkpt><trkpt lat="30.16510668089856" lon="-6.817041798454016"><ele>747.0</ele><time>2026-03-22T15:43:54.898Z</time></trkpt><trkpt lat="30.164960429019157" lon="-6.817037417203297"><ele>747.0</ele><time>2026-03-22T15:43:55.898Z</time></trkpt><trkpt lat="30.164840345440155" lon="-6.817041417577778"><ele>747.0</ele><time>2026-03-22T15:43:56.898Z</time></trkpt><trkpt lat="30.164727191712426" lon="-6.817046539938551"><ele>747.0</ele><time>2026-03-22T15:43:57.898Z</time></trkpt><trkpt lat="30.164607948383818" lon="-6.817051124070895"><ele>744.2</ele><time>2026-03-22T15:43:58.898Z</time></trkpt><trkpt lat="30.164507557270433" lon="-6.817058308962951"><ele>741.4000000000001</ele><time>2026-03-22T15:43:59.898Z</time></trkpt><trkpt lat="30.164398515796016" lon="-6.8170788260974575"><ele>738.5999999999999</ele><time>2026-03-22T15:44:00.898Z</time></trkpt><trkpt lat="30.164293190827852" lon="-6.817117162503327"><ele>735.8</ele><time>2026-03-22T15:44:01.898Z</time></trkpt><trkpt lat="30.164198401811607" lon="-6.81717801860385"><ele>733.0</ele><time>2026-03-22T15:44:02.898Z</time></trkpt><trkpt lat="30.1640947394296" lon="-6.817240188382292"><ele>732.0</ele><time>2026-03-22T15:44:03.898Z</time></trkpt><trkpt lat="30.163985670910847" lon="-6.817308821014164"><ele>731.0</ele><time>2026-03-22T15:44:04.898Z</time></trkpt><trkpt lat="30.16389673409925" lon="-6.8173861234954485"><ele>730.0</ele><time>2026-03-22T15:44:05.898Z</time></trkpt><trkpt lat="30.163822491552644" lon="-6.817477029338047"><ele>729.0</ele><time>2026-03-22T15:44:06.898Z</time></trkpt><trkpt lat="30.16374954274325" lon="-6.817559654611092"><ele>728.0</ele><time>2026-03-22T15:44:07.898Z</time></trkpt><trkpt lat="30.163672203318374" lon="-6.817646689576479"><ele>728.5</ele><time>2026-03-22T15:44:08.898Z</time></trkpt><trkpt lat="30.163581950546035" lon="-6.8177286905474475"><ele>729.0</ele><time>2026-03-22T15:44:09.898Z</time></trkpt><trkpt lat="30.163494561855863" lon="-6.817805495205323"><ele>729.5</ele><time>2026-03-22T15:44:10.898Z</time></trkpt><trkpt lat="30.16340279785284" lon="-6.817863398726762"><ele>730.0</ele><time>2026-03-22T15:44:11.898Z</time></trkpt><trkpt lat="30.163260382162267" lon="-6.817837721118183"><ele>728.25</ele><time>2026-03-22T15:44:12.898Z</time></trkpt><trkpt lat="30.163150931387683" lon="-6.8178967749577515"><ele>726.5</ele><time>2026-03-22T15:44:13.898Z</time></trkpt><trkpt lat="30.163043650768312" lon="-6.817953834046149"><ele>724.75</ele><time>2026-03-22T15:44:14.898Z</time></trkpt><trkpt lat="30.162941249720404" lon="-6.817989438360443"><ele>723.0</ele><time>2026-03-22T15:44:15.898Z</time></trkpt><trkpt lat="30.162831667219574" lon="-6.818010605918402"><ele>723.0</ele><time>2026-03-22T15:44:16.898Z</time></trkpt><trkpt lat="30.16271963967986" lon="-6.8180328425941745"><ele>723.0</ele><time>2026-03-22T15:44:17.898Z</time></trkpt><trkpt lat="30.162617357332227" lon="-6.818053223022025"><ele>723.0</ele><time>2026-03-22T15:44:18.898Z</time></trkpt><trkpt lat="30.16251855534129" lon="-6.818106090394009"><ele>723.0</ele><time>2026-03-22T15:44:19.899Z</time></trkpt><trkpt lat="30.16242475608157" lon="-6.818156919697807"><ele>723.0</ele><time>2026-03-22T15:44:20.898Z</time></trkpt><trkpt lat="30.162335256148953" lon="-6.818205337701009"><ele>723.2</ele><time>2026-03-22T15:44:21.898Z</time></trkpt><trkpt lat="30.16224395886634" lon="-6.818254727986721"><ele>723.4</ele><time>2026-03-22T15:44:22.898Z</time></trkpt><trkpt lat="30.16214914779045" lon="-6.818305806588302"><ele>723.6</ele><time>2026-03-22T15:44:23.899Z</time></trkpt><trkpt lat="30.162037330829385" lon="-6.818365729245046"><ele>723.8000000000001</ele><time>2026-03-22T15:44:24.899Z</time></trkpt><trkpt lat="30.16192820193677" lon="-6.818409826768062"><ele>724.0</ele><time>2026-03-22T15:44:25.899Z</time></trkpt><trkpt lat="30.161849864180596" lon="-6.818517377195569"><ele>722.75</ele><time>2026-03-22T15:44:26.898Z</time></trkpt><trkpt lat="30.161751513114286" lon="-6.818598524201348"><ele>721.5</ele><time>2026-03-22T15:44:27.898Z</time></trkpt><trkpt lat="30.161671550646123" lon="-6.818710925494849"><ele>720.25</ele><time>2026-03-22T15:44:28.898Z</time></trkpt><trkpt lat="30.16158233606339" lon="-6.818797513315285"><ele>719.0</ele><time>2026-03-22T15:44:29.898Z</time></trkpt><trkpt lat="30.161475789763983" lon="-6.8188772707663485"><ele>719.0</ele><time>2026-03-22T15:44:30.898Z</time></trkpt><trkpt lat="30.16136092673866" lon="-6.81894762257858"><ele>719.0</ele><time>2026-03-22T15:44:31.898Z</time></trkpt><trkpt lat="30.161253762809462" lon="-6.81901732615292"><ele>719.0</ele><time>2026-03-22T15:44:32.898Z</time></trkpt><trkpt lat="30.16114363655618" lon="-6.8191052505876275"><ele>719.0</ele><time>2026-03-22T15:44:33.898Z</time></trkpt><trkpt lat="30.16103891590128" lon="-6.819193790330919"><ele>719.0</ele><time>2026-03-22T15:44:34.898Z</time></trkpt><trkpt lat="30.160953910259384" lon="-6.819293706131428"><ele>719.0</ele><time>2026-03-22T15:44:35.898Z</time></trkpt><trkpt lat="30.160879895747275" lon="-6.819405571877902"><ele>719.0</ele><time>2026-03-22T15:44:36.898Z</time></trkpt><trkpt lat="30.16080592173664" lon="-6.8195244613878705"><ele>719.0</ele><time>2026-03-22T15:44:37.898Z</time></trkpt><trkpt lat="30.16074505593994" lon="-6.819649132577505"><ele>717.75</ele><time>2026-03-22T15:44:38.898Z</time></trkpt><trkpt lat="30.160684018885743" lon="-6.819773156583298"><ele>716.5</ele><time>2026-03-22T15:44:39.898Z</time></trkpt><trkpt lat="30.160597764243036" lon="-6.819898634149959"><ele>715.25</ele><time>2026-03-22T15:44:40.898Z</time></trkpt><trkpt lat="30.160491719865483" lon="-6.820000180812874"><ele>714.0</ele><time>2026-03-22T15:44:41.898Z</time></trkpt><trkpt lat="30.160368313672702" lon="-6.820080478255525"><ele>714.0</ele><time>2026-03-22T15:44:42.898Z</time></trkpt><trkpt lat="30.16023571694721" lon="-6.8201413915328075"><ele>714.0</ele><time>2026-03-22T15:44:43.898Z</time></trkpt><trkpt lat="30.160110789348867" lon="-6.820206343586726"><ele>714.0</ele><time>2026-03-22T15:44:44.898Z</time></trkpt><trkpt lat="30.16000837156189" lon="-6.820274066389456"><ele>714.0</ele><time>2026-03-22T15:44:45.898Z</time></trkpt><trkpt lat="30.159911390508547" lon="-6.820359948598927"><ele>712.25</ele><time>2026-03-22T15:44:46.898Z</time></trkpt><trkpt lat="30.159811805553698" lon="-6.820454223080992"><ele>710.5</ele><time>2026-03-22T15:44:47.898Z</time></trkpt><trkpt lat="30.159714550845965" lon="-6.82056699974973"><ele>708.75</ele><time>2026-03-22T15:44:48.898Z</time></trkpt><trkpt lat="30.15961706327987" lon="-6.820685414437264"><ele>707.0</ele><time>2026-03-22T15:44:49.898Z</time></trkpt><trkpt lat="30.159516411771918" lon="-6.820795639591994"><ele>707.0</ele><time>2026-03-22T15:44:50.898Z</time></trkpt><trkpt lat="30.159409612580536" lon="-6.820900395904169"><ele>707.0</ele><time>2026-03-22T15:44:51.898Z</time></trkpt><trkpt lat="30.15931011395897" lon="-6.821006896488622"><ele>707.0</ele><time>2026-03-22T15:44:52.898Z</time></trkpt><trkpt lat="30.159207497275304" lon="-6.82110711837099"><ele>707.0</ele><time>2026-03-22T15:44:53.898Z</time></trkpt><trkpt lat="30.159095318130042" lon="-6.821173823586383"><ele>706.6</ele><time>2026-03-22T15:44:54.898Z</time></trkpt><trkpt lat="30.158997556367947" lon="-6.821235308881262"><ele>706.2</ele><time>2026-03-22T15:44:55.898Z</time></trkpt><trkpt lat="30.158915522231123" lon="-6.821306221605905"><ele>705.8</ele><time>2026-03-22T15:44:56.898Z</time></trkpt><trkpt lat="30.15884041421548" lon="-6.821377519634573"><ele>705.4</ele><time>2026-03-22T15:44:57.898Z</time></trkpt><trkpt lat="30.15875362647203" lon="-6.821435798824518"><ele>705.0</ele><time>2026-03-22T15:44:58.898Z</time></trkpt><trkpt lat="30.158664883733" lon="-6.82146478156505"><ele>705.0</ele><time>2026-03-22T15:44:59.898Z</time></trkpt><trkpt lat="30.158577470512288" lon="-6.821457325647381"><ele>705.0</ele><time>2026-03-22T15:45:00.898Z</time></trkpt><trkpt lat="30.158496230734517" lon="-6.821429021342306"><ele>705.0</ele><time>2026-03-22T15:45:01.898Z</time></trkpt><trkpt lat="30.15842015343049" lon="-6.821414765669979"><ele>705.0</ele><time>2026-03-22T15:45:02.898Z</time></trkpt><trkpt lat="30.15834768178772" lon="-6.821403158574498"><ele>705.0</ele><time>2026-03-22T15:45:03.898Z</time></trkpt><trkpt lat="30.158279766993097" lon="-6.821386269221884"><ele>705.0</ele><time>2026-03-22T15:45:04.898Z</time></trkpt><trkpt lat="30.158169717884366" lon="-6.821356368054993"><ele>704.6666666666666</ele><time>2026-03-22T15:45:06.898Z</time></trkpt><trkpt lat="30.158079761110557" lon="-6.8213660097493225"><ele>704.3333333333334</ele><time>2026-03-22T15:45:08.898Z</time></trkpt><trkpt lat="30.15800262626097" lon="-6.821379800281295"><ele>704.0</ele><time>2026-03-22T15:45:10.898Z</time></trkpt><trkpt lat="30.15793232824864" lon="-6.8214433989598"><ele>703.6666666666667</ele><time>2026-03-22T15:45:13.898Z</time></trkpt><trkpt lat="30.157878775768655" lon="-6.821497511293766"><ele>703.3333333333334</ele><time>2026-03-22T15:45:15.898Z</time></trkpt><trkpt lat="30.157847957584508" lon="-6.821561071229919"><ele>703.0</ele><time>2026-03-22T15:45:18.898Z</time></trkpt><trkpt lat="30.15780042740291" lon="-6.821640684435734"><ele>703.0</ele><time>2026-03-22T15:45:22.898Z</time></trkpt><trkpt lat="30.1576625593738" lon="-6.821783557342682"><ele>703.0</ele><time>2026-03-22T15:46:09.897Z</time></trkpt><trkpt lat="30.157596915432652" lon="-6.821860500493707"><ele>703.0</ele><time>2026-03-22T15:46:11.897Z</time></trkpt><trkpt lat="30.157514889467667" lon="-6.821968656679167"><ele>703.0</ele><time>2026-03-22T15:46:13.897Z</time></trkpt><trkpt lat="30.15748398198724" lon="-6.822043665588354"><ele>703.0</ele><time>2026-03-22T15:46:14.897Z</time></trkpt><trkpt lat="30.157457930724117" lon="-6.822138744666591"><ele>703.0</ele><time>2026-03-22T15:46:15.897Z</time></trkpt><trkpt lat="30.157435973126994" lon="-6.822231536568486"><ele>703.0</ele><time>2026-03-22T15:46:16.897Z</time></trkpt><trkpt lat="30.157411589699084" lon="-6.822319370841642"><ele>703.0</ele><time>2026-03-22T15:46:17.897Z</time></trkpt><trkpt lat="30.157389127277607" lon="-6.822403285704889"><ele>703.0</ele><time>2026-03-22T15:46:18.897Z</time></trkpt><trkpt lat="30.15736982305042" lon="-6.82248439347834"><ele>703.0</ele><time>2026-03-22T15:46:19.897Z</time></trkpt><trkpt lat="30.15736870257095" lon="-6.822616758449818"><ele>702.5999999999999</ele><time>2026-03-22T15:46:21.897Z</time></trkpt><trkpt lat="30.15729983701392" lon="-6.822737036085379"><ele>702.1999999999999</ele><time>2026-03-22T15:46:23.897Z</time></trkpt><trkpt lat="30.15724448735504" lon="-6.822795238548894"><ele>701.8</ele><time>2026-03-22T15:46:24.897Z</time></trkpt><trkpt lat="30.15714183438272" lon="-6.822849941177266"><ele>701.4</ele><time>2026-03-22T15:46:26.898Z</time></trkpt><trkpt lat="30.157058298220043" lon="-6.8228645865520585"><ele>701.0</ele><time>2026-03-22T15:46:28.898Z</time></trkpt><trkpt lat="30.156933733990723" lon="-6.822857425473786"><ele>701.0</ele><time>2026-03-22T15:46:30.897Z</time></trkpt><trkpt lat="30.15685494195855" lon="-6.8228719217849765"><ele>701.0</ele><time>2026-03-22T15:46:31.898Z</time></trkpt><trkpt lat="30.156781701970996" lon="-6.8229014839925055"><ele>701.0</ele><time>2026-03-22T15:46:32.898Z</time></trkpt><trkpt lat="30.156702596868975" lon="-6.822935452402666"><ele>701.0</ele><time>2026-03-22T15:46:33.898Z</time></trkpt><trkpt lat="30.15661488093551" lon="-6.822979196659603"><ele>701.0</ele><time>2026-03-22T15:46:34.898Z</time></trkpt><trkpt lat="30.156523098317063" lon="-6.823028473428057"><ele>701.0</ele><time>2026-03-22T15:46:35.897Z</time></trkpt><trkpt lat="30.15644164860252" lon="-6.823071506132517"><ele>700.6666666666666</ele><time>2026-03-22T15:46:36.897Z</time></trkpt><trkpt lat="30.156366623350667" lon="-6.823118214783519"><ele>700.3333333333333</ele><time>2026-03-22T15:46:37.898Z</time></trkpt><trkpt lat="30.15630008488795" lon="-6.823157853742622"><ele>700.0</ele><time>2026-03-22T15:46:38.898Z</time></trkpt><trkpt lat="30.15622877236007" lon="-6.823197711371795"><ele>699.6666666666666</ele><time>2026-03-22T15:46:39.898Z</time></trkpt><trkpt lat="30.156144091980327" lon="-6.8232361983836185"><ele>699.3333333333334</ele><time>2026-03-22T15:46:40.898Z</time></trkpt><trkpt lat="30.156054356692213" lon="-6.823262627498424"><ele>699.0</ele><time>2026-03-22T15:46:41.898Z</time></trkpt><trkpt lat="30.15596609236818" lon="-6.823289275606177"><ele>699.0</ele><time>2026-03-22T15:46:42.898Z</time></trkpt><trkpt lat="30.15586316979426" lon="-6.823328984085925"><ele>699.0</ele><time>2026-03-22T15:46:43.898Z</time></trkpt><trkpt lat="30.155743032392888" lon="-6.8233848570924405"><ele>699.0</ele><time>2026-03-22T15:46:44.898Z</time></trkpt><trkpt lat="30.15562888004748" lon="-6.823431863710405"><ele>699.0</ele><time>2026-03-22T15:46:45.898Z</time></trkpt><trkpt lat="30.15551676085686" lon="-6.823501457461697"><ele>698.25</ele><time>2026-03-22T15:46:46.898Z</time></trkpt><trkpt lat="30.15540764237478" lon="-6.823606794879146"><ele>697.5</ele><time>2026-03-22T15:46:47.898Z</time></trkpt><trkpt lat="30.155284500465925" lon="-6.823726226331619"><ele>696.75</ele><time>2026-03-22T15:46:48.898Z</time></trkpt><trkpt lat="30.15518570154613" lon="-6.823822914148614"><ele>696.0</ele><time>2026-03-22T15:46:49.898Z</time></trkpt><trkpt lat="30.155093073118287" lon="-6.823914718006677"><ele>696.0</ele><time>2026-03-22T15:46:50.898Z</time></trkpt><trkpt lat="30.155005210470982" lon="-6.824000768533288"><ele>696.0</ele><time>2026-03-22T15:46:51.898Z</time></trkpt><trkpt lat="30.154919853336846" lon="-6.824087304501338"><ele>696.0</ele><time>2026-03-22T15:46:52.898Z</time></trkpt><trkpt lat="30.154843610557588" lon="-6.824173655945483"><ele>696.0</ele><time>2026-03-22T15:46:53.898Z</time></trkpt><trkpt lat="30.154752618969656" lon="-6.824271361849458"><ele>696.0</ele><time>2026-03-22T15:46:54.898Z</time></trkpt><trkpt lat="30.15467708604657" lon="-6.824356815308773"><ele>696.0</ele><time>2026-03-22T15:46:55.898Z</time></trkpt><trkpt lat="30.15460100314869" lon="-6.8244453541234735"><ele>696.0</ele><time>2026-03-22T15:46:56.898Z</time></trkpt><trkpt lat="30.154521779478983" lon="-6.824535707437548"><ele>696.0</ele><time>2026-03-22T15:46:57.898Z</time></trkpt><trkpt lat="30.15444784445603" lon="-6.8246257482195745"><ele>696.0</ele><time>2026-03-22T15:46:58.898Z</time></trkpt><trkpt lat="30.15437101627698" lon="-6.824720758496841"><ele>696.0</ele><time>2026-03-22T15:46:59.898Z</time></trkpt><trkpt lat="30.154302231094302" lon="-6.82480635974732"><ele>696.0</ele><time>2026-03-22T15:47:00.898Z</time></trkpt><trkpt lat="30.154232657788718" lon="-6.824888196809524"><ele>696.0</ele><time>2026-03-22T15:47:01.898Z</time></trkpt><trkpt lat="30.15416618551921" lon="-6.824969547791863"><ele>696.0</ele><time>2026-03-22T15:47:02.898Z</time></trkpt><trkpt lat="30.154107236787457" lon="-6.825051123403764"><ele>696.0</ele><time>2026-03-22T15:47:03.898Z</time></trkpt><trkpt lat="30.154056131315055" lon="-6.825122484989726"><ele>695.4</ele><time>2026-03-22T15:47:04.898Z</time></trkpt><trkpt lat="30.15400757232025" lon="-6.825213039006917"><ele>694.8</ele><time>2026-03-22T15:47:05.898Z</time></trkpt><trkpt lat="30.153945521245987" lon="-6.825305284425252"><ele>694.1999999999999</ele><time>2026-03-22T15:47:06.898Z</time></trkpt><trkpt lat="30.15388378121992" lon="-6.8253946288738145"><ele>693.5999999999999</ele><time>2026-03-22T15:47:07.898Z</time></trkpt><trkpt lat="30.15381652205512" lon="-6.825482893104603"><ele>693.0</ele><time>2026-03-22T15:47:08.898Z</time></trkpt><trkpt lat="30.15375405950735" lon="-6.825573093330617"><ele>693.0</ele><time>2026-03-22T15:47:09.898Z</time></trkpt><trkpt lat="30.153686493220462" lon="-6.82566617462979"><ele>693.0</ele><time>2026-03-22T15:47:10.898Z</time></trkpt><trkpt lat="30.15362062479135" lon="-6.825764673044839"><ele>693.0</ele><time>2026-03-22T15:47:11.898Z</time></trkpt><trkpt lat="30.153545810415395" lon="-6.825865391772899"><ele>693.0</ele><time>2026-03-22T15:47:12.898Z</time></trkpt><trkpt lat="30.153461987972893" lon="-6.825974509914822"><ele>692.5</ele><time>2026-03-22T15:47:13.898Z</time></trkpt><trkpt lat="30.15336235568449" lon="-6.826082567384582"><ele>692.0</ele><time>2026-03-22T15:47:14.898Z</time></trkpt><trkpt lat="30.15326224143298" lon="-6.826178584482627"><ele>691.5</ele><time>2026-03-22T15:47:15.898Z</time></trkpt><trkpt lat="30.15314303929869" lon="-6.8262779586999285"><ele>691.0</ele><time>2026-03-22T15:47:16.898Z</time></trkpt><trkpt lat="30.152994478344567" lon="-6.826362540388698"><ele>690.75</ele><time>2026-03-22T15:47:17.898Z</time></trkpt><trkpt lat="30.15286067564884" lon="-6.826427298693212"><ele>690.5</ele><time>2026-03-22T15:47:18.898Z</time></trkpt><trkpt lat="30.15275390909837" lon="-6.8264720753717425"><ele>690.25</ele><time>2026-03-22T15:47:19.898Z</time></trkpt><trkpt lat="30.15266511681685" lon="-6.826523629574925"><ele>690.0</ele><time>2026-03-22T15:47:20.898Z</time></trkpt><trkpt lat="30.15256072671053" lon="-6.826581352305761"><ele>690.0</ele><time>2026-03-22T15:47:21.898Z</time></trkpt><trkpt lat="30.152458093367517" lon="-6.826655659490832"><ele>690.0</ele><time>2026-03-22T15:47:22.898Z</time></trkpt><trkpt lat="30.15236783545525" lon="-6.8267159026803315"><ele>690.0</ele><time>2026-03-22T15:47:23.898Z</time></trkpt><trkpt lat="30.152274367577206" lon="-6.826777528174776"><ele>690.0</ele><time>2026-03-22T15:47:24.898Z</time></trkpt><trkpt lat="30.152196895050803" lon="-6.826847659686124"><ele>690.0</ele><time>2026-03-22T15:47:25.898Z</time></trkpt><trkpt lat="30.152118554594985" lon="-6.8269351690870534"><ele>690.25</ele><time>2026-03-22T15:47:26.898Z</time></trkpt><trkpt lat="30.152026858545156" lon="-6.827040998694824"><ele>690.5</ele><time>2026-03-22T15:47:27.898Z</time></trkpt><trkpt lat="30.15194775477243" lon="-6.827145844052328"><ele>690.75</ele><time>2026-03-22T15:47:28.898Z</time></trkpt><trkpt lat="30.15187657758913" lon="-6.827229522562267"><ele>691.0</ele><time>2026-03-22T15:47:29.898Z</time></trkpt><trkpt lat="30.15179349844785" lon="-6.827308585164236"><ele>691.0</ele><time>2026-03-22T15:47:30.898Z</time></trkpt><trkpt lat="30.151707345011598" lon="-6.827397382687828"><ele>691.0</ele><time>2026-03-22T15:47:31.898Z</time></trkpt><trkpt lat="30.151605159263443" lon="-6.827494505916948"><ele>691.0</ele><time>2026-03-22T15:47:32.898Z</time></trkpt><trkpt lat="30.151484703322026" lon="-6.827581170186116"><ele>691.0</ele><time>2026-03-22T15:47:33.898Z</time></trkpt><trkpt lat="30.151359842539723" lon="-6.82766102586028"><ele>691.0</ele><time>2026-03-22T15:47:34.898Z</time></trkpt><trkpt lat="30.15125006522611" lon="-6.827722821194866"><ele>691.0</ele><time>2026-03-22T15:47:35.898Z</time></trkpt><trkpt lat="30.151155408571135" lon="-6.827770987259908"><ele>691.0</ele><time>2026-03-22T15:47:36.898Z</time></trkpt><trkpt lat="30.15106854715848" lon="-6.827831197202928"><ele>691.0</ele><time>2026-03-22T15:47:37.898Z</time></trkpt><trkpt lat="30.1509851234671" lon="-6.827935229666801"><ele>691.0</ele><time>2026-03-22T15:47:38.898Z</time></trkpt><trkpt lat="30.150909052391025" lon="-6.8280472258786995"><ele>691.0</ele><time>2026-03-22T15:47:39.898Z</time></trkpt><trkpt lat="30.150839107279076" lon="-6.828150043676465"><ele>691.0</ele><time>2026-03-22T15:47:40.898Z</time></trkpt><trkpt lat="30.150765363024426" lon="-6.828255558120855"><ele>691.0</ele><time>2026-03-22T15:47:41.898Z</time></trkpt><trkpt lat="30.150699470394088" lon="-6.828363116706638"><ele>691.0</ele><time>2026-03-22T15:47:42.898Z</time></trkpt><trkpt lat="30.150627577850017" lon="-6.828464682646263"><ele>691.0</ele><time>2026-03-22T15:47:43.898Z</time></trkpt><trkpt lat="30.15056527888402" lon="-6.828558522739241"><ele>691.0</ele><time>2026-03-22T15:47:44.898Z</time></trkpt><trkpt lat="30.150506776791" lon="-6.8286503705546675"><ele>691.0</ele><time>2026-03-22T15:47:45.898Z</time></trkpt><trkpt lat="30.150417066354457" lon="-6.828747327916157"><ele>691.0</ele><time>2026-03-22T15:47:46.898Z</time></trkpt><trkpt lat="30.15030326884542" lon="-6.8288265693602765"><ele>691.0</ele><time>2026-03-22T15:47:47.898Z</time></trkpt><trkpt lat="30.15020887865689" lon="-6.828901922693749"><ele>691.0</ele><time>2026-03-22T15:47:48.898Z</time></trkpt><trkpt lat="30.150130947469105" lon="-6.8289502036173095"><ele>691.0</ele><time>2026-03-22T15:47:49.898Z</time></trkpt><trkpt lat="30.150043669206173" lon="-6.829001102401913"><ele>691.0</ele><time>2026-03-22T15:47:50.898Z</time></trkpt><trkpt lat="30.149978213336645" lon="-6.829061534582455"><ele>691.0</ele><time>2026-03-22T15:47:51.898Z</time></trkpt><trkpt lat="30.14990176123864" lon="-6.829124332998503"><ele>691.0</ele><time>2026-03-22T15:47:52.898Z</time></trkpt><trkpt lat="30.149838208348314" lon="-6.829164673518269"><ele>691.0</ele><time>2026-03-22T15:47:53.898Z</time></trkpt><trkpt lat="30.149784773815583" lon="-6.829236066583956"><ele>691.0</ele><time>2026-03-22T15:47:54.898Z</time></trkpt><trkpt lat="30.1497423981836" lon="-6.829313397638633"><ele>691.0</ele><time>2026-03-22T15:47:55.898Z</time></trkpt><trkpt lat="30.149704120489382" lon="-6.829423805380168"><ele>691.0</ele><time>2026-03-22T15:47:56.898Z</time></trkpt><trkpt lat="30.149677584810913" lon="-6.829518435997358"><ele>691.0</ele><time>2026-03-22T15:47:57.898Z</time></trkpt><trkpt lat="30.149646125550678" lon="-6.829593679214324"><ele>691.0</ele><time>2026-03-22T15:47:58.898Z</time></trkpt><trkpt lat="30.149595992186867" lon="-6.829662967757447"><ele>691.0</ele><time>2026-03-22T15:47:59.898Z</time></trkpt><trkpt lat="30.149537942835313" lon="-6.829745830468773"><ele>691.0</ele><time>2026-03-22T15:48:00.899Z</time></trkpt><trkpt lat="30.1494867286239" lon="-6.82985722773897"><ele>691.0</ele><time>2026-03-22T15:48:01.899Z</time></trkpt><trkpt lat="30.149440627083834" lon="-6.829969944850539"><ele>691.0</ele><time>2026-03-22T15:48:02.899Z</time></trkpt><trkpt lat="30.149394047593837" lon="-6.830054157567514"><ele>691.0</ele><time>2026-03-22T15:48:03.9Z</time></trkpt><trkpt lat="30.14934585908997" lon="-6.830112325253147"><ele>691.0</ele><time>2026-03-22T15:48:04.9Z</time></trkpt><trkpt lat="30.149286838037945" lon="-6.8302057097296265"><ele>691.0</ele><time>2026-03-22T15:48:06.9Z</time></trkpt><trkpt lat="30.149283100747425" lon="-6.830335115894337"><ele>691.0</ele><time>2026-03-22T15:48:08.901Z</time></trkpt><trkpt lat="30.14928747960895" lon="-6.830417167265399"><ele>691.0</ele><time>2026-03-22T15:48:09.901Z</time></trkpt><trkpt lat="30.14925920736046" lon="-6.83054574580985"><ele>690.6666666666667</ele><time>2026-03-22T15:48:11.901Z</time></trkpt><trkpt lat="30.149227312297842" lon="-6.830630236442598"><ele>690.3333333333334</ele><time>2026-03-22T15:48:12.902Z</time></trkpt><trkpt lat="30.149200296724672" lon="-6.830712249265676"><ele>690.0</ele><time>2026-03-22T15:48:13.902Z</time></trkpt><trkpt lat="30.14916892983324" lon="-6.830782770013159"><ele>689.6666666666666</ele><time>2026-03-22T15:48:14.902Z</time></trkpt><trkpt lat="30.149144044539597" lon="-6.830851585947691"><ele>689.3333333333333</ele><time>2026-03-22T15:48:15.902Z</time></trkpt><trkpt lat="30.14908555147444" lon="-6.830928928838906"><ele>689.0</ele><time>2026-03-22T15:48:17.902Z</time></trkpt><trkpt lat="30.14904081630393" lon="-6.830995590787341"><ele>689.0</ele><time>2026-03-22T15:48:19.903Z</time></trkpt><trkpt lat="30.149027075573418" lon="-6.831122005828926"><ele>689.0</ele><time>2026-03-22T15:48:21.903Z</time></trkpt><trkpt lat="30.149034200091435" lon="-6.831232811602008"><ele>689.0</ele><time>2026-03-22T15:48:23.903Z</time></trkpt><trkpt lat="30.149031710777823" lon="-6.831306462428383"><ele>689.0</ele><time>2026-03-22T15:48:24.903Z</time></trkpt><trkpt lat="30.14902426775652" lon="-6.831399585458789"><ele>689.0</ele><time>2026-03-22T15:48:25.903Z</time></trkpt><trkpt lat="30.149022322072664" lon="-6.8314939564528965"><ele>689.0</ele><time>2026-03-22T15:48:26.903Z</time></trkpt><trkpt lat="30.14901814326846" lon="-6.831593115330983"><ele>689.0</ele><time>2026-03-22T15:48:27.903Z</time></trkpt><trkpt lat="30.14900924782655" lon="-6.831696227684191"><ele>689.0</ele><time>2026-03-22T15:48:28.903Z</time></trkpt><trkpt lat="30.1490000905769" lon="-6.83179833491629"><ele>689.0</ele><time>2026-03-22T15:48:29.903Z</time></trkpt><trkpt lat="30.148995015373544" lon="-6.8319111019201095"><ele>689.0</ele><time>2026-03-22T15:48:30.903Z</time></trkpt><trkpt lat="30.148988242426356" lon="-6.832028067832299"><ele>689.0</ele><time>2026-03-22T15:48:31.903Z</time></trkpt><trkpt lat="30.148990685707492" lon="-6.832158085770459"><ele>689.0</ele><time>2026-03-22T15:48:32.903Z</time></trkpt><trkpt lat="30.148984767352033" lon="-6.8322821629683474"><ele>689.0</ele><time>2026-03-22T15:48:33.903Z</time></trkpt><trkpt lat="30.148979738481774" lon="-6.832406529175186"><ele>689.0</ele><time>2026-03-22T15:48:34.903Z</time></trkpt><trkpt lat="30.148974443392287" lon="-6.832515837290464"><ele>689.0</ele><time>2026-03-22T15:48:35.903Z</time></trkpt><trkpt lat="30.148964226137064" lon="-6.832614421094474"><ele>689.0</ele><time>2026-03-22T15:48:36.903Z</time></trkpt><trkpt lat="30.148958953604453" lon="-6.8327010290254275"><ele>688.6</ele><time>2026-03-22T15:48:37.903Z</time></trkpt><trkpt lat="30.148953876520995" lon="-6.832777779159801"><ele>688.2</ele><time>2026-03-22T15:48:38.903Z</time></trkpt><trkpt lat="30.148948579442596" lon="-6.83285124710326"><ele>687.8000000000001</ele><time>2026-03-22T15:48:39.903Z</time></trkpt><trkpt lat="30.148941596300297" lon="-6.832982067081704"><ele>687.4000000000001</ele><time>2026-03-22T15:48:41.904Z</time></trkpt><trkpt lat="30.148942011553654" lon="-6.833093061118394"><ele>687.0</ele><time>2026-03-22T15:48:43.903Z</time></trkpt><trkpt lat="30.148940890608504" lon="-6.833244436152112"><ele>687.0</ele><time>2026-03-22T15:48:45.903Z</time></trkpt><trkpt lat="30.148935721697082" lon="-6.833346408991716"><ele>687.0</ele><time>2026-03-22T15:48:46.903Z</time></trkpt><trkpt lat="30.148929073081845" lon="-6.833447385576257"><ele>687.0</ele><time>2026-03-22T15:48:47.903Z</time></trkpt><trkpt lat="30.1489293882048" lon="-6.833536580898123"><ele>687.0</ele><time>2026-03-22T15:48:48.903Z</time></trkpt><trkpt lat="30.148926805833288" lon="-6.833625546500459"><ele>687.0</ele><time>2026-03-22T15:48:49.903Z</time></trkpt><trkpt lat="30.14892024985661" lon="-6.833724238412943"><ele>687.0</ele><time>2026-03-22T15:48:50.903Z</time></trkpt><trkpt lat="30.148915472387905" lon="-6.8338359815501635"><ele>686.8</ele><time>2026-03-22T15:48:51.903Z</time></trkpt><trkpt lat="30.148909713721707" lon="-6.833952229658879"><ele>686.6</ele><time>2026-03-22T15:48:52.903Z</time></trkpt><trkpt lat="30.148897481614604" lon="-6.834062405234193"><ele>686.4</ele><time>2026-03-22T15:48:53.903Z</time></trkpt><trkpt lat="30.148888499726016" lon="-6.834177204027866"><ele>686.1999999999999</ele><time>2026-03-22T15:48:54.903Z</time></trkpt><trkpt lat="30.14889045405546" lon="-6.834307849689734"><ele>686.0</ele><time>2026-03-22T15:48:55.903Z</time></trkpt><trkpt lat="30.148894443041616" lon="-6.834462076235588"><ele>686.0</ele><time>2026-03-22T15:48:56.903Z</time></trkpt><trkpt lat="30.14889127506811" lon="-6.834613447208553"><ele>686.0</ele><time>2026-03-22T15:48:57.903Z</time></trkpt><trkpt lat="30.148884738397552" lon="-6.834778228393545"><ele>686.0</ele><time>2026-03-22T15:48:58.903Z</time></trkpt><trkpt lat="30.14887338580257" lon="-6.834946008439144"><ele>686.0</ele><time>2026-03-22T15:48:59.903Z</time></trkpt><trkpt lat="30.148861495957156" lon="-6.835117414471878"><ele>686.25</ele><time>2026-03-22T15:49:00.903Z</time></trkpt><trkpt lat="30.148848360928692" lon="-6.835280959178676"><ele>686.5</ele><time>2026-03-22T15:49:01.903Z</time></trkpt><trkpt lat="30.14884752177868" lon="-6.835436961874399"><ele>686.75</ele><time>2026-03-22T15:49:02.903Z</time></trkpt><trkpt lat="30.14884633308369" lon="-6.835575626913888"><ele>687.0</ele><time>2026-03-22T15:49:03.903Z</time></trkpt><trkpt lat="30.148844604194156" lon="-6.835704657726452"><ele>687.0</ele><time>2026-03-22T15:49:04.903Z</time></trkpt><trkpt lat="30.14884071298322" lon="-6.835822868457749"><ele>687.0</ele><time>2026-03-22T15:49:05.903Z</time></trkpt><trkpt lat="30.148833575214777" lon="-6.835940101929913"><ele>687.0</ele><time>2026-03-22T15:49:06.903Z</time></trkpt><trkpt lat="30.148829264493752" lon="-6.83604396765021"><ele>687.0</ele><time>2026-03-22T15:49:07.903Z</time></trkpt><trkpt lat="30.148821829562376" lon="-6.836156215424932"><ele>687.0</ele><time>2026-03-22T15:49:08.903Z</time></trkpt><trkpt lat="30.14881456020668" lon="-6.836271219593031"><ele>687.0</ele><time>2026-03-22T15:49:09.903Z</time></trkpt><trkpt lat="30.148809448876886" lon="-6.836386941470238"><ele>687.0</ele><time>2026-03-22T15:49:10.903Z</time></trkpt><trkpt lat="30.14880689783204" lon="-6.836490298643073"><ele>687.0</ele><time>2026-03-22T15:49:11.903Z</time></trkpt><trkpt lat="30.14880120184062" lon="-6.836601906774087"><ele>687.0</ele><time>2026-03-22T15:49:12.903Z</time></trkpt><trkpt lat="30.148795951645614" lon="-6.836715881993111"><ele>687.0</ele><time>2026-03-22T15:49:13.903Z</time></trkpt><trkpt lat="30.148789502261685" lon="-6.836825553510521"><ele>687.2</ele><time>2026-03-22T15:49:14.903Z</time></trkpt><trkpt lat="30.148784526408964" lon="-6.836928536161228"><ele>687.4000000000001</ele><time>2026-03-22T15:49:15.903Z</time></trkpt><trkpt lat="30.148775114847965" lon="-6.837035232962924"><ele>687.5999999999999</ele><time>2026-03-22T15:49:16.903Z</time></trkpt><trkpt lat="30.148767511846817" lon="-6.83714481517095"><ele>687.8</ele><time>2026-03-22T15:49:17.903Z</time></trkpt><trkpt lat="30.148759995159466" lon="-6.837258367208354"><ele>688.0</ele><time>2026-03-22T15:49:18.903Z</time></trkpt><trkpt lat="30.148750009363706" lon="-6.837373607806284"><ele>688.0</ele><time>2026-03-22T15:49:19.903Z</time></trkpt><trkpt lat="30.14874251632303" lon="-6.837483900195789"><ele>688.0</ele><time>2026-03-22T15:49:20.903Z</time></trkpt><trkpt lat="30.148730275648933" lon="-6.837596718391456"><ele>688.0</ele><time>2026-03-22T15:49:21.903Z</time></trkpt><trkpt lat="30.148721084537122" lon="-6.837719834408425"><ele>688.0</ele><time>2026-03-22T15:49:22.903Z</time></trkpt><trkpt lat="30.14870835068609" lon="-6.837841953275369"><ele>688.0</ele><time>2026-03-22T15:49:23.903Z</time></trkpt><trkpt lat="30.14869656860853" lon="-6.837981021610969"><ele>688.5</ele><time>2026-03-22T15:49:24.903Z</time></trkpt><trkpt lat="30.14867933841344" lon="-6.838139527111236"><ele>689.0</ele><time>2026-03-22T15:49:25.903Z</time></trkpt><trkpt lat="30.1486553309666" lon="-6.838287600529215"><ele>689.5</ele><time>2026-03-22T15:49:26.903Z</time></trkpt><trkpt lat="30.148625801178138" lon="-6.838433352469305"><ele>690.0</ele><time>2026-03-22T15:49:27.903Z</time></trkpt><trkpt lat="30.148594063636363" lon="-6.838573101945101"><ele>690.25</ele><time>2026-03-22T15:49:28.903Z</time></trkpt><trkpt lat="30.148553459103606" lon="-6.838698194911324"><ele>690.5</ele><time>2026-03-22T15:49:29.903Z</time></trkpt><trkpt lat="30.148507711593815" lon="-6.838829329019389"><ele>690.75</ele><time>2026-03-22T15:49:30.903Z</time></trkpt><trkpt lat="30.148460176586614" lon="-6.83896232976497"><ele>691.0</ele><time>2026-03-22T15:49:31.903Z</time></trkpt><trkpt lat="30.148405380405656" lon="-6.839096501031371"><ele>691.0</ele><time>2026-03-22T15:49:32.903Z</time></trkpt><trkpt lat="30.148346022898803" lon="-6.839232721471966"><ele>691.0</ele><time>2026-03-22T15:49:33.903Z</time></trkpt><trkpt lat="30.148282486434358" lon="-6.839361819277231"><ele>691.0</ele><time>2026-03-22T15:49:34.903Z</time></trkpt><trkpt lat="30.14821273038" lon="-6.839495387791018"><ele>691.0</ele><time>2026-03-22T15:49:35.903Z</time></trkpt><trkpt lat="30.148144591188142" lon="-6.839617572875176"><ele>689.3333333333334</ele><time>2026-03-22T15:49:36.903Z</time></trkpt><trkpt lat="30.148069436162885" lon="-6.839762008666002"><ele>687.6666666666666</ele><time>2026-03-22T15:49:37.903Z</time></trkpt><trkpt lat="30.147982248735055" lon="-6.839904886609507"><ele>686.0</ele><time>2026-03-22T15:49:38.903Z</time></trkpt><trkpt lat="30.14788935305615" lon="-6.840059892709696"><ele>685.6666666666666</ele><time>2026-03-22T15:49:39.903Z</time></trkpt><trkpt lat="30.14779576973326" lon="-6.840223324572781"><ele>685.3333333333334</ele><time>2026-03-22T15:49:40.903Z</time></trkpt><trkpt lat="30.147704039044534" lon="-6.840388108418088"><ele>685.0</ele><time>2026-03-22T15:49:41.903Z</time></trkpt><trkpt lat="30.147617491720165" lon="-6.840552043119384"><ele>685.0</ele><time>2026-03-22T15:49:42.903Z</time></trkpt><trkpt lat="30.147529045294604" lon="-6.840708501248568"><ele>685.0</ele><time>2026-03-22T15:49:43.903Z</time></trkpt><trkpt lat="30.14743595006616" lon="-6.840862336838854"><ele>685.0</ele><time>2026-03-22T15:49:44.903Z</time></trkpt><trkpt lat="30.147342585453423" lon="-6.8410223426000565"><ele>684.3333333333334</ele><time>2026-03-22T15:49:45.903Z</time></trkpt><trkpt lat="30.147243968020387" lon="-6.841187123322401"><ele>683.6666666666666</ele><time>2026-03-22T15:49:46.903Z</time></trkpt><trkpt lat="30.147146261578673" lon="-6.841349507801071"><ele>683.0</ele><time>2026-03-22T15:49:47.903Z</time></trkpt><trkpt lat="30.147051592528815" lon="-6.841508030445538"><ele>683.0</ele><time>2026-03-22T15:49:48.903Z</time></trkpt><trkpt lat="30.14695559002381" lon="-6.8416776771288665"><ele>683.0</ele><time>2026-03-22T15:49:49.903Z</time></trkpt><trkpt lat="30.14686820086801" lon="-6.841832364117408"><ele>683.0</ele><time>2026-03-22T15:49:50.903Z</time></trkpt><trkpt lat="30.14678262382224" lon="-6.841991184733779"><ele>683.6666666666666</ele><time>2026-03-22T15:49:51.903Z</time></trkpt><trkpt lat="30.146690270835986" lon="-6.842150519561365"><ele>684.3333333333334</ele><time>2026-03-22T15:49:52.903Z</time></trkpt><trkpt lat="30.146596805234314" lon="-6.842310034033234"><ele>685.0</ele><time>2026-03-22T15:49:53.903Z</time></trkpt><trkpt lat="30.146505501505757" lon="-6.842467442078186"><ele>683.3333333333334</ele><time>2026-03-22T15:49:54.903Z</time></trkpt><trkpt lat="30.146417261301668" lon="-6.842620230705858"><ele>681.6666666666666</ele><time>2026-03-22T15:49:55.903Z</time></trkpt><trkpt lat="30.146333931033624" lon="-6.842767760370041"><ele>680.0</ele><time>2026-03-22T15:49:56.903Z</time></trkpt><trkpt lat="30.146245454687058" lon="-6.842915285156803"><ele>680.0</ele><time>2026-03-22T15:49:57.903Z</time></trkpt><trkpt lat="30.146153548936205" lon="-6.843068596238859"><ele>680.0</ele><time>2026-03-22T15:49:58.903Z</time></trkpt><trkpt lat="30.14606184989235" lon="-6.843227307630993"><ele>680.0</ele><time>2026-03-22T15:49:59.903Z</time></trkpt><trkpt lat="30.145971415760492" lon="-6.843383412914709"><ele>680.0</ele><time>2026-03-22T15:50:00.903Z</time></trkpt><trkpt lat="30.145878658684502" lon="-6.843545248727091"><ele>680.0</ele><time>2026-03-22T15:50:01.903Z</time></trkpt><trkpt lat="30.14578798377998" lon="-6.843704626046501"><ele>680.0</ele><time>2026-03-22T15:50:02.903Z</time></trkpt><trkpt lat="30.1456997346392" lon="-6.843858733770796"><ele>680.0</ele><time>2026-03-22T15:50:03.903Z</time></trkpt><trkpt lat="30.145616144874253" lon="-6.84400292743372"><ele>680.0</ele><time>2026-03-22T15:50:04.903Z</time></trkpt><trkpt lat="30.145535167332792" lon="-6.844146654422163"><ele>680.0</ele><time>2026-03-22T15:50:05.903Z</time></trkpt><trkpt lat="30.145453898416363" lon="-6.8442883388791"><ele>680.0</ele><time>2026-03-22T15:50:06.903Z</time></trkpt><trkpt lat="30.145372812070732" lon="-6.844431276200011"><ele>680.5</ele><time>2026-03-22T15:50:07.903Z</time></trkpt><trkpt lat="30.145291722546016" lon="-6.844571344196202"><ele>681.0</ele><time>2026-03-22T15:50:08.903Z</time></trkpt><trkpt lat="30.14521328548859" lon="-6.844711123357237"><ele>681.5</ele><time>2026-03-22T15:50:09.903Z</time></trkpt><trkpt lat="30.145133922393317" lon="-6.844848591697324"><ele>682.0</ele><time>2026-03-22T15:50:10.903Z</time></trkpt><trkpt lat="30.14505546993431" lon="-6.844980615765126"><ele>682.0</ele><time>2026-03-22T15:50:11.903Z</time></trkpt><trkpt lat="30.14497620159883" lon="-6.845114386313411"><ele>682.0</ele><time>2026-03-22T15:50:12.903Z</time></trkpt><trkpt lat="30.1448945558099" lon="-6.845253800159736"><ele>682.0</ele><time>2026-03-22T15:50:13.903Z</time></trkpt><trkpt lat="30.14481208629933" lon="-6.845393846161221"><ele>682.0</ele><time>2026-03-22T15:50:14.903Z</time></trkpt><trkpt lat="30.14473525920159" lon="-6.845529067681626"><ele>681.4000000000001</ele><time>2026-03-22T15:50:15.903Z</time></trkpt><trkpt lat="30.144664844628046" lon="-6.8456573426113785"><ele>680.8000000000001</ele><time>2026-03-22T15:50:16.903Z</time></trkpt><trkpt lat="30.14460108668053" lon="-6.845769886818603"><ele>680.2</ele><time>2026-03-22T15:50:17.903Z</time></trkpt><trkpt lat="30.144541768072404" lon="-6.84586811314025"><ele>679.6</ele><time>2026-03-22T15:50:18.903Z</time></trkpt><trkpt lat="30.1444906323267" lon="-6.845962759745431"><ele>679.0</ele><time>2026-03-22T15:50:19.903Z</time></trkpt><trkpt lat="30.14443792443697" lon="-6.84605763843121"><ele>679.0</ele><time>2026-03-22T15:50:20.903Z</time></trkpt><trkpt lat="30.144375377906876" lon="-6.846165766407534"><ele>679.0</ele><time>2026-03-22T15:50:21.903Z</time></trkpt><trkpt lat="30.144315750597958" lon="-6.846280300362539"><ele>679.0</ele><time>2026-03-22T15:50:22.903Z</time></trkpt><trkpt lat="30.14425928461896" lon="-6.846392840699886"><ele>679.0</ele><time>2026-03-22T15:50:23.903Z</time></trkpt><trkpt lat="30.14419287991417" lon="-6.846505005217307"><ele>679.0</ele><time>2026-03-22T15:50:24.903Z</time></trkpt><trkpt lat="30.144128222477008" lon="-6.846607120658747"><ele>679.0</ele><time>2026-03-22T15:50:25.903Z</time></trkpt><trkpt lat="30.144078966371115" lon="-6.846694807378121"><ele>679.0</ele><time>2026-03-22T15:50:26.903Z</time></trkpt><trkpt lat="30.144039309801023" lon="-6.846764245782953"><ele>679.0</ele><time>2026-03-22T15:50:27.903Z</time></trkpt><trkpt lat="30.143979987603547" lon="-6.8468656238984895"><ele>679.0</ele><time>2026-03-22T15:50:29.903Z</time></trkpt><trkpt lat="30.143944801691656" lon="-6.846936340566941"><ele>679.0</ele><time>2026-03-22T15:50:33.903Z</time></trkpt><trkpt lat="30.143997581988422" lon="-6.847079060790565"><ele>679.0</ele><time>2026-03-22T15:50:41.903Z</time></trkpt><trkpt lat="30.144041958342545" lon="-6.847192884728176"><ele>679.0</ele><time>2026-03-22T15:50:42.903Z</time></trkpt><trkpt lat="30.144086819548104" lon="-6.847313517552814"><ele>679.0</ele><time>2026-03-22T15:50:43.903Z</time></trkpt><trkpt lat="30.14412715349244" lon="-6.8474154067183886"><ele>679.0</ele><time>2026-03-22T15:50:44.903Z</time></trkpt><trkpt lat="30.14418290030114" lon="-6.847520425809708"><ele>679.0</ele><time>2026-03-22T15:50:46.904Z</time></trkpt><trkpt lat="30.144122845692603" lon="-6.8475482819926"><ele>679.7142857142857</ele><time>2026-03-22T15:50:52.903Z</time></trkpt><trkpt lat="30.144096473290947" lon="-6.8476237729322165"><ele>680.4285714285714</ele><time>2026-03-22T15:51:01.903Z</time></trkpt><trkpt lat="30.144106118380858" lon="-6.8475486134851655"><ele>681.1428571428571</ele><time>2026-03-22T15:51:12.903Z</time></trkpt><trkpt lat="30.144175885239047" lon="-6.847496660148303"><ele>681.8571428571429</ele><time>2026-03-22T15:51:13.903Z</time></trkpt><trkpt lat="30.14422756220095" lon="-6.847443765294527"><ele>682.5714285714286</ele><time>2026-03-22T15:51:14.903Z</time></trkpt><trkpt lat="30.144175114149117" lon="-6.847392010287339"><ele>683.2857142857142</ele><time>2026-03-22T15:51:31.903Z</time></trkpt><trkpt lat="30.144113132106405" lon="-6.847363141156073"><ele>684.0</ele><time>2026-03-22T15:52:13.903Z</time></trkpt><trkpt lat="30.144132459407224" lon="-6.847436306773549"><ele>683.9999999999999</ele><time>2026-03-22T15:53:11.903Z</time></trkpt><trkpt lat="30.144191715417936" lon="-6.8474674860348355"><ele>684.0</ele><time>2026-03-22T15:53:19.903Z</time></trkpt><trkpt lat="30.1442570509148" lon="-6.847458019300529"><ele>684.0</ele><time>2026-03-22T15:54:23.903Z</time></trkpt><trkpt lat="30.144226909638196" lon="-6.847537570647321"><ele>684.0</ele><time>2026-03-22T15:54:26.903Z</time></trkpt><trkpt lat="30.14416912789105" lon="-6.847568109456412"><ele>684.0</ele><time>2026-03-22T15:54:28.903Z</time></trkpt><trkpt lat="30.144110096541837" lon="-6.847596707963395"><ele>683.9999999999999</ele><time>2026-03-22T15:54:30.903Z</time></trkpt><trkpt lat="30.14406872723529" lon="-6.847670401329997"><ele>684.0</ele><time>2026-03-22T15:54:33.903Z</time></trkpt><trkpt lat="30.14402850282088" lon="-6.847740862590926"><ele>683.6666666666666</ele><time>2026-03-22T15:54:35.903Z</time></trkpt><trkpt lat="30.143944319490636" lon="-6.84785239513782"><ele>683.3333333333334</ele><time>2026-03-22T15:54:37.903Z</time></trkpt><trkpt lat="30.143894353492502" lon="-6.847938231629588"><ele>683.0</ele><time>2026-03-22T15:54:38.903Z</time></trkpt><trkpt lat="30.14385186470872" lon="-6.848008068456476"><ele>682.6666666666667</ele><time>2026-03-22T15:54:39.903Z</time></trkpt><trkpt lat="30.143792053041427" lon="-6.84807278302613"><ele>682.3333333333334</ele><time>2026-03-22T15:54:42.903Z</time></trkpt><trkpt lat="30.143746642280156" lon="-6.848127526473321"><ele>682.0</ele><time>2026-03-22T15:54:49.902Z</time></trkpt><trkpt lat="30.143668833884718" lon="-6.848222745372633"><ele>682.0</ele><time>2026-03-22T15:54:52.902Z</time></trkpt><trkpt lat="30.143607076985933" lon="-6.848336342095126"><ele>682.0</ele><time>2026-03-22T15:54:54.902Z</time></trkpt><trkpt lat="30.14356110536976" lon="-6.84840112359136"><ele>682.0</ele><time>2026-03-22T15:54:55.902Z</time></trkpt><trkpt lat="30.143506570926355" lon="-6.848464886307552"><ele>682.0</ele><time>2026-03-22T15:54:56.902Z</time></trkpt><trkpt lat="30.143437473820708" lon="-6.8485108304580375"><ele>682.0</ele><time>2026-03-22T15:54:58.901Z</time></trkpt><trkpt lat="30.143395540427274" lon="-6.848446550947804"><ele>682.0</ele><time>2026-03-22T15:55:00.902Z</time></trkpt><trkpt lat="30.143426198713822" lon="-6.848382182363037"><ele>682.0</ele><time>2026-03-22T15:55:02.902Z</time></trkpt><trkpt lat="30.143480875813648" lon="-6.848420305423213"><ele>682.0</ele><time>2026-03-22T15:55:05.901Z</time></trkpt><trkpt lat="30.14344342517747" lon="-6.84848069515891"><ele>682.0</ele><time>2026-03-22T15:55:09.901Z</time></trkpt><trkpt lat="30.143391512219253" lon="-6.84840029889892"><ele>682.0</ele><time>2026-03-22T15:55:12.901Z</time></trkpt><trkpt lat="30.143477264904828" lon="-6.848352700274564"><ele>682.0</ele><time>2026-03-22T15:55:14.901Z</time></trkpt><trkpt lat="30.14353499126798" lon="-6.848393336291329"><ele>682.0</ele><time>2026-03-22T15:55:16.901Z</time></trkpt><trkpt lat="30.143520826065355" lon="-6.8484752631568435"><ele>682.2</ele><time>2026-03-22T15:55:19.901Z</time></trkpt><trkpt lat="30.143489404407593" lon="-6.848581086894005"><ele>682.4000000000001</ele><time>2026-03-22T15:55:21.901Z</time></trkpt><trkpt lat="30.1434559619662" lon="-6.848686864090293"><ele>682.5999999999999</ele><time>2026-03-22T15:55:22.901Z</time></trkpt><trkpt lat="30.143409730967406" lon="-6.848792152412628"><ele>682.8</ele><time>2026-03-22T15:55:23.901Z</time></trkpt><trkpt lat="30.143339476854507" lon="-6.848861600911113"><ele>683.0</ele><time>2026-03-22T15:55:24.901Z</time></trkpt><trkpt lat="30.143284308301823" lon="-6.848907769485611"><ele>683.0</ele><time>2026-03-22T15:55:25.901Z</time></trkpt><trkpt lat="30.143251914065335" lon="-6.848977921926196"><ele>683.0</ele><time>2026-03-22T15:55:26.901Z</time></trkpt><trkpt lat="30.143235191426932" lon="-6.849080372525961"><ele>683.0</ele><time>2026-03-22T15:55:27.901Z</time></trkpt><trkpt lat="30.14325649621155" lon="-6.849185331499106"><ele>683.0</ele><time>2026-03-22T15:55:28.901Z</time></trkpt><trkpt lat="30.143265912595638" lon="-6.849283931467435"><ele>683.0</ele><time>2026-03-22T15:55:29.901Z</time></trkpt><trkpt lat="30.143278520860704" lon="-6.849386745566175"><ele>683.0</ele><time>2026-03-22T15:55:30.901Z</time></trkpt><trkpt lat="30.143319618154212" lon="-6.849471032980346"><ele>683.4</ele><time>2026-03-22T15:55:31.901Z</time></trkpt><trkpt lat="30.143383349001027" lon="-6.849571215530663"><ele>683.8</ele><time>2026-03-22T15:55:32.901Z</time></trkpt><trkpt lat="30.143417896164202" lon="-6.849706726031353"><ele>684.2</ele><time>2026-03-22T15:55:33.901Z</time></trkpt><trkpt lat="30.143420632704238" lon="-6.8498357167809205"><ele>684.6</ele><time>2026-03-22T15:55:34.901Z</time></trkpt><trkpt lat="30.143387550949075" lon="-6.849928366474249"><ele>685.0</ele><time>2026-03-22T15:55:35.901Z</time></trkpt><trkpt lat="30.14330447395968" lon="-6.849991940492943"><ele>684.8</ele><time>2026-03-22T15:55:36.901Z</time></trkpt><trkpt lat="30.143189712838957" lon="-6.850028958810287"><ele>684.6</ele><time>2026-03-22T15:55:37.901Z</time></trkpt><trkpt lat="30.14311848686154" lon="-6.850080909884006"><ele>684.4000000000001</ele><time>2026-03-22T15:55:38.901Z</time></trkpt><trkpt lat="30.14307798197087" lon="-6.850150812901463"><ele>684.2</ele><time>2026-03-22T15:55:39.901Z</time></trkpt><trkpt lat="30.14301849182494" lon="-6.850253044424619"><ele>684.0</ele><time>2026-03-22T15:55:40.901Z</time></trkpt><trkpt lat="30.142970998611556" lon="-6.850341986843105"><ele>684.0</ele><time>2026-03-22T15:55:41.901Z</time></trkpt><trkpt lat="30.14294260300252" lon="-6.8504167934677636"><ele>684.0</ele><time>2026-03-22T15:55:42.901Z</time></trkpt><trkpt lat="30.14292689348042" lon="-6.850537526860361"><ele>684.0</ele><time>2026-03-22T15:55:44.901Z</time></trkpt><trkpt lat="30.142918665455873" lon="-6.850627841342932"><ele>684.0</ele><time>2026-03-22T15:55:45.901Z</time></trkpt><trkpt lat="30.142880832239907" lon="-6.850726658582681"><ele>684.0</ele><time>2026-03-22T15:55:46.901Z</time></trkpt><trkpt lat="30.14282919039082" lon="-6.850812834802388"><ele>684.0</ele><time>2026-03-22T15:55:47.901Z</time></trkpt><trkpt lat="30.142800249143043" lon="-6.850882681779984"><ele>684.5</ele><time>2026-03-22T15:55:48.901Z</time></trkpt><trkpt lat="30.14277288530055" lon="-6.850974186851311"><ele>685.0</ele><time>2026-03-22T15:55:49.901Z</time></trkpt><trkpt lat="30.14272348370438" lon="-6.8510473404547705"><ele>685.5</ele><time>2026-03-22T15:55:50.901Z</time></trkpt><trkpt lat="30.142660281624394" lon="-6.8511268387317426"><ele>686.0</ele><time>2026-03-22T15:55:51.901Z</time></trkpt><trkpt lat="30.14262159430212" lon="-6.851233603585723"><ele>686.5</ele><time>2026-03-22T15:55:52.901Z</time></trkpt><trkpt lat="30.142605147742174" lon="-6.85131297465988"><ele>687.0</ele><time>2026-03-22T15:55:53.901Z</time></trkpt><trkpt lat="30.142593756918046" lon="-6.851390459934476"><ele>687.0</ele><time>2026-03-22T15:55:54.901Z</time></trkpt><trkpt lat="30.142577293736725" lon="-6.851473723923948"><ele>687.0</ele><time>2026-03-22T15:55:55.901Z</time></trkpt><trkpt lat="30.142522030053094" lon="-6.851572797786951"><ele>687.0</ele><time>2026-03-22T15:55:56.901Z</time></trkpt><trkpt lat="30.142477784667044" lon="-6.85165530645148"><ele>687.0</ele><time>2026-03-22T15:55:57.901Z</time></trkpt><trkpt lat="30.14244124113814" lon="-6.8517544479884185"><ele>687.0</ele><time>2026-03-22T15:55:58.901Z</time></trkpt><trkpt lat="30.142378631440376" lon="-6.851830079698275"><ele>687.0</ele><time>2026-03-22T15:55:59.901Z</time></trkpt><trkpt lat="30.1423231727216" lon="-6.8518854827560585"><ele>686.8</ele><time>2026-03-22T15:56:00.901Z</time></trkpt><trkpt lat="30.142260829270697" lon="-6.85195304739763"><ele>686.6</ele><time>2026-03-22T15:56:01.901Z</time></trkpt><trkpt lat="30.142172056908464" lon="-6.852039023266454"><ele>686.4</ele><time>2026-03-22T15:56:02.901Z</time></trkpt><trkpt lat="30.14209688671941" lon="-6.8521219705692555"><ele>686.1999999999999</ele><time>2026-03-22T15:56:03.901Z</time></trkpt><trkpt lat="30.14202480262174" lon="-6.852216774119686"><ele>686.0</ele><time>2026-03-22T15:56:04.901Z</time></trkpt><trkpt lat="30.141962226425232" lon="-6.852307522854406"><ele>686.0</ele><time>2026-03-22T15:56:05.901Z</time></trkpt><trkpt lat="30.141896422546623" lon="-6.852402819540847"><ele>686.0</ele><time>2026-03-22T15:56:06.901Z</time></trkpt><trkpt lat="30.141827422110506" lon="-6.852496251519051"><ele>686.0</ele><time>2026-03-22T15:56:07.901Z</time></trkpt><trkpt lat="30.14174458376026" lon="-6.852608233707759"><ele>686.0</ele><time>2026-03-22T15:56:08.901Z</time></trkpt><trkpt lat="30.141663838847126" lon="-6.852711548784766"><ele>686.0</ele><time>2026-03-22T15:56:09.901Z</time></trkpt><trkpt lat="30.141588807247402" lon="-6.852809178527586"><ele>686.0</ele><time>2026-03-22T15:56:10.901Z</time></trkpt><trkpt lat="30.14151265946914" lon="-6.852906596975271"><ele>686.0</ele><time>2026-03-22T15:56:11.901Z</time></trkpt><trkpt lat="30.14145133421929" lon="-6.852991332002185"><ele>686.0</ele><time>2026-03-22T15:56:12.901Z</time></trkpt><trkpt lat="30.141398650023593" lon="-6.853083323427594"><ele>686.0</ele><time>2026-03-22T15:56:13.901Z</time></trkpt><trkpt lat="30.141374257829103" lon="-6.85315391693279"><ele>685.8</ele><time>2026-03-22T15:56:14.901Z</time></trkpt><trkpt lat="30.14135301237265" lon="-6.853236976693125"><ele>685.5999999999999</ele><time>2026-03-22T15:56:16.901Z</time></trkpt><trkpt lat="30.141333173291244" lon="-6.853333220472761"><ele>685.4</ele><time>2026-03-22T15:56:20.901Z</time></trkpt><trkpt lat="30.141298185809347" lon="-6.853463240989371"><ele>685.2</ele><time>2026-03-22T15:56:22.901Z</time></trkpt><trkpt lat="30.141235611228154" lon="-6.853566707345541"><ele>685.0</ele><time>2026-03-22T15:56:24.901Z</time></trkpt><trkpt lat="30.14118041336234" lon="-6.853609545367861"><ele>685.0</ele><time>2026-03-22T15:56:26.901Z</time></trkpt><trkpt lat="30.14116251665807" lon="-6.853717923025327"><ele>685.0</ele><time>2026-03-22T15:56:29.901Z</time></trkpt><trkpt lat="30.14120083360907" lon="-6.853806943807808"><ele>685.0</ele><time>2026-03-22T15:56:30.901Z</time></trkpt><trkpt lat="30.141235630370797" lon="-6.853891150032732"><ele>685.0</ele><time>2026-03-22T15:56:31.901Z</time></trkpt><trkpt lat="30.141261620711628" lon="-6.85397204947944"><ele>685.0</ele><time>2026-03-22T15:56:32.901Z</time></trkpt><trkpt lat="30.141273071428092" lon="-6.854059611823227"><ele>685.0</ele><time>2026-03-22T15:56:33.901Z</time></trkpt><trkpt lat="30.14127357541675" lon="-6.854137535597366"><ele>685.0</ele><time>2026-03-22T15:56:34.901Z</time></trkpt><trkpt lat="30.14132312895282" lon="-6.854245170651685"><ele>685.0</ele><time>2026-03-22T15:56:36.901Z</time></trkpt><trkpt lat="30.141356833201208" lon="-6.854350167506165"><ele>685.0</ele><time>2026-03-22T15:56:38.901Z</time></trkpt><trkpt lat="30.141310916326955" lon="-6.8545021816913225"><ele>685.0</ele><time>2026-03-22T15:56:40.901Z</time></trkpt><trkpt lat="30.141223783471272" lon="-6.854572326959807"><ele>685.0</ele><time>2026-03-22T15:56:41.901Z</time></trkpt><trkpt lat="30.141125336447125" lon="-6.8546120557289045"><ele>684.6</ele><time>2026-03-22T15:56:42.901Z</time></trkpt><trkpt lat="30.14103300141677" lon="-6.854711567126331"><ele>684.2</ele><time>2026-03-22T15:56:44.901Z</time></trkpt><trkpt lat="30.140952644593604" lon="-6.854817470823345"><ele>683.8</ele><time>2026-03-22T15:56:46.901Z</time></trkpt><trkpt lat="30.140909069315853" lon="-6.854875470076044"><ele>683.4</ele><time>2026-03-22T15:56:47.901Z</time></trkpt><trkpt lat="30.14083479218157" lon="-6.854974753543876"><ele>683.0</ele><time>2026-03-22T15:56:49.901Z</time></trkpt><trkpt lat="30.140772693339464" lon="-6.855038643992767"><ele>682.8</ele><time>2026-03-22T15:56:51.901Z</time></trkpt><trkpt lat="30.140693778201875" lon="-6.855065005351587"><ele>682.5999999999999</ele><time>2026-03-22T15:56:54.901Z</time></trkpt><trkpt lat="30.140603540995762" lon="-6.855122291674562"><ele>682.4000000000001</ele><time>2026-03-22T15:56:56.901Z</time></trkpt><trkpt lat="30.140533972285073" lon="-6.855169349989511"><ele>682.2</ele><time>2026-03-22T15:56:58.901Z</time></trkpt><trkpt lat="30.140429444693826" lon="-6.855255497216806"><ele>682.0</ele><time>2026-03-22T15:57:00.901Z</time></trkpt><trkpt lat="30.140349356683846" lon="-6.855307976411835"><ele>681.8333333333334</ele><time>2026-03-22T15:57:01.902Z</time></trkpt><trkpt lat="30.1402659832635" lon="-6.855320299011768"><ele>681.6666666666667</ele><time>2026-03-22T15:57:02.901Z</time></trkpt><trkpt lat="30.140196128515743" lon="-6.855334784083044"><ele>681.5</ele><time>2026-03-22T15:57:03.901Z</time></trkpt><trkpt lat="30.14012849640974" lon="-6.855373651458434"><ele>681.3333333333334</ele><time>2026-03-22T15:57:04.901Z</time></trkpt><trkpt lat="30.140049662615656" lon="-6.855428237669172"><ele>681.1666666666666</ele><time>2026-03-22T15:57:05.901Z</time></trkpt><trkpt lat="30.139952514925707" lon="-6.855457777932894"><ele>681.0</ele><time>2026-03-22T15:57:06.901Z</time></trkpt><trkpt lat="30.139873581734395" lon="-6.855491486977004"><ele>680.6666666666666</ele><time>2026-03-22T15:57:07.902Z</time></trkpt><trkpt lat="30.139815208371918" lon="-6.855529650327016"><ele>680.3333333333334</ele><time>2026-03-22T15:57:08.902Z</time></trkpt><trkpt lat="30.139761230114555" lon="-6.855585234108295"><ele>680.0</ele><time>2026-03-22T15:57:09.902Z</time></trkpt><trkpt lat="30.13972969953137" lon="-6.855660091117632"><ele>679.6666666666667</ele><time>2026-03-22T15:57:10.902Z</time></trkpt><trkpt lat="30.139745110653607" lon="-6.855752340315735"><ele>679.3333333333334</ele><time>2026-03-22T15:57:11.902Z</time></trkpt><trkpt lat="30.13975792951977" lon="-6.855845501367764"><ele>679.0</ele><time>2026-03-22T15:57:12.902Z</time></trkpt><trkpt lat="30.139725230834216" lon="-6.855973813368867"><ele>679.0</ele><time>2026-03-22T15:57:14.902Z</time></trkpt><trkpt lat="30.139616408125192" lon="-6.85609422940024"><ele>679.0</ele><time>2026-03-22T15:57:16.902Z</time></trkpt><trkpt lat="30.13955301523804" lon="-6.85617080217737"><ele>679.0</ele><time>2026-03-22T15:57:17.902Z</time></trkpt><trkpt lat="30.13948070493311" lon="-6.856216190543524"><ele>679.0</ele><time>2026-03-22T15:57:18.902Z</time></trkpt><trkpt lat="30.139369127978256" lon="-6.856234969104476"><ele>679.0</ele><time>2026-03-22T15:57:19.902Z</time></trkpt><trkpt lat="30.139255683524656" lon="-6.8562616565554375"><ele>679.0</ele><time>2026-03-22T15:57:20.902Z</time></trkpt><trkpt lat="30.139121386914134" lon="-6.856298765932201"><ele>679.0</ele><time>2026-03-22T15:57:21.902Z</time></trkpt><trkpt lat="30.139018965133808" lon="-6.856304636976957"><ele>679.0</ele><time>2026-03-22T15:57:22.901Z</time></trkpt><trkpt lat="30.138952078152894" lon="-6.856299943067875"><ele>679.0</ele><time>2026-03-22T15:57:23.901Z</time></trkpt><trkpt lat="30.13885009706426" lon="-6.8562873665541755"><ele>679.0</ele><time>2026-03-22T15:57:25.901Z</time></trkpt><trkpt lat="30.138756138119895" lon="-6.856259244517876"><ele>678.6</ele><time>2026-03-22T15:57:27.901Z</time></trkpt><trkpt lat="30.138677206671353" lon="-6.856294202091205"><ele>678.2</ele><time>2026-03-22T15:57:29.901Z</time></trkpt><trkpt lat="30.138602179853766" lon="-6.856410526208234"><ele>677.8000000000001</ele><time>2026-03-22T15:57:31.901Z</time></trkpt><trkpt lat="30.138502701097536" lon="-6.856511441769739"><ele>677.4000000000001</ele><time>2026-03-22T15:57:33.901Z</time></trkpt><trkpt lat="30.13845516901579" lon="-6.85656003738341"><ele>677.0</ele><time>2026-03-22T15:57:34.901Z</time></trkpt><trkpt lat="30.13841343007667" lon="-6.8566164406279615"><ele>677.0</ele><time>2026-03-22T15:57:35.901Z</time></trkpt><trkpt lat="30.138380643747965" lon="-6.856686429564549"><ele>677.0</ele><time>2026-03-22T15:57:36.901Z</time></trkpt><trkpt lat="30.138341839047246" lon="-6.856770582899054"><ele>677.0</ele><time>2026-03-22T15:57:37.901Z</time></trkpt><trkpt lat="30.13829307840326" lon="-6.8568555687067825"><ele>677.0</ele><time>2026-03-22T15:57:38.901Z</time></trkpt><trkpt lat="30.13824818337199" lon="-6.8569553376541625"><ele>677.0</ele><time>2026-03-22T15:57:39.901Z</time></trkpt><trkpt lat="30.13820963733982" lon="-6.857078802470683"><ele>677.2</ele><time>2026-03-22T15:57:40.901Z</time></trkpt><trkpt lat="30.138156822460655" lon="-6.857208777848537"><ele>677.4000000000001</ele><time>2026-03-22T15:57:41.901Z</time></trkpt><trkpt lat="30.138070084778732" lon="-6.857308098598515"><ele>677.5999999999999</ele><time>2026-03-22T15:57:42.901Z</time></trkpt><trkpt lat="30.13799462618658" lon="-6.857342842357319"><ele>677.8</ele><time>2026-03-22T15:57:43.901Z</time></trkpt><trkpt lat="30.137938284032295" lon="-6.857387813550741"><ele>678.0</ele><time>2026-03-22T15:57:44.901Z</time></trkpt><trkpt lat="30.137876162652027" lon="-6.857472061077232"><ele>678.0</ele><time>2026-03-22T15:57:45.901Z</time></trkpt><trkpt lat="30.137818144832046" lon="-6.857581152330752"><ele>678.0</ele><time>2026-03-22T15:57:46.901Z</time></trkpt><trkpt lat="30.13775756501423" lon="-6.857696170885537"><ele>678.0</ele><time>2026-03-22T15:57:47.901Z</time></trkpt><trkpt lat="30.137692001758865" lon="-6.857812215480736"><ele>678.0</ele><time>2026-03-22T15:57:48.901Z</time></trkpt><trkpt lat="30.137625893934008" lon="-6.857922920508394"><ele>678.5999999999999</ele><time>2026-03-22T15:57:49.901Z</time></trkpt><trkpt lat="30.137560235085314" lon="-6.858033713251977"><ele>679.1999999999999</ele><time>2026-03-22T15:57:50.901Z</time></trkpt><trkpt lat="30.137499478610287" lon="-6.858139915179176"><ele>679.8</ele><time>2026-03-22T15:57:51.901Z</time></trkpt><trkpt lat="30.137437285513045" lon="-6.858241751317298"><ele>680.4</ele><time>2026-03-22T15:57:52.901Z</time></trkpt><trkpt lat="30.137382833292975" lon="-6.8583368386194286"><ele>681.0</ele><time>2026-03-22T15:57:53.901Z</time></trkpt><trkpt lat="30.137322733970628" lon="-6.858423902823877"><ele>680.4</ele><time>2026-03-22T15:57:54.901Z</time></trkpt><trkpt lat="30.13726777539849" lon="-6.858518478339002"><ele>679.8</ele><time>2026-03-22T15:57:55.901Z</time></trkpt><trkpt lat="30.137214764816648" lon="-6.858617893917272"><ele>679.1999999999999</ele><time>2026-03-22T15:57:56.901Z</time></trkpt><trkpt lat="30.13716322191887" lon="-6.8587182045717805"><ele>678.5999999999999</ele><time>2026-03-22T15:57:57.901Z</time></trkpt><trkpt lat="30.13711136499215" lon="-6.85881978992269"><ele>678.0</ele><time>2026-03-22T15:57:58.901Z</time></trkpt><trkpt lat="30.137050431387344" lon="-6.858907416304259"><ele>678.0</ele><time>2026-03-22T15:57:59.901Z</time></trkpt><trkpt lat="30.136990459966814" lon="-6.859008026249365"><ele>678.0</ele><time>2026-03-22T15:58:00.901Z</time></trkpt><trkpt lat="30.136933815351075" lon="-6.8591015824462325"><ele>678.0</ele><time>2026-03-22T15:58:01.901Z</time></trkpt><trkpt lat="30.13687970223413" lon="-6.859192567443927"><ele>678.0</ele><time>2026-03-22T15:58:02.901Z</time></trkpt><trkpt lat="30.136827881887115" lon="-6.859289462836114"><ele>678.0</ele><time>2026-03-22T15:58:03.901Z</time></trkpt><trkpt lat="30.136774765623777" lon="-6.8593810679296165"><ele>678.3333333333334</ele><time>2026-03-22T15:58:04.901Z</time></trkpt><trkpt lat="30.136719075155106" lon="-6.859480163833911"><ele>678.6666666666666</ele><time>2026-03-22T15:58:05.901Z</time></trkpt><trkpt lat="30.136662971071527" lon="-6.859570500329931"><ele>679.0</ele><time>2026-03-22T15:58:06.901Z</time></trkpt><trkpt lat="30.136613711984175" lon="-6.8596590531987784"><ele>679.3333333333333</ele><time>2026-03-22T15:58:07.901Z</time></trkpt><trkpt lat="30.136578112100565" lon="-6.85974207255105"><ele>679.6666666666666</ele><time>2026-03-22T15:58:08.901Z</time></trkpt><trkpt lat="30.136564045521897" lon="-6.859824258007636"><ele>680.0</ele><time>2026-03-22T15:58:09.901Z</time></trkpt><trkpt lat="30.136570244028302" lon="-6.859920348486926"><ele>680.0</ele><time>2026-03-22T15:58:10.901Z</time></trkpt><trkpt lat="30.13658933890759" lon="-6.860020529732519"><ele>680.0</ele><time>2026-03-22T15:58:11.901Z</time></trkpt><trkpt lat="30.1366277827113" lon="-6.860116948927593"><ele>680.0</ele><time>2026-03-22T15:58:12.901Z</time></trkpt><trkpt lat="30.13667746234178" lon="-6.860202862713064"><ele>680.0</ele><time>2026-03-22T15:58:13.901Z</time></trkpt><trkpt lat="30.136711845744475" lon="-6.860279019352042"><ele>680.0</ele><time>2026-03-22T15:58:14.901Z</time></trkpt><trkpt lat="30.13675067260502" lon="-6.860348198928934"><ele>680.0</ele><time>2026-03-22T15:58:15.901Z</time></trkpt><trkpt lat="30.136815164538632" lon="-6.8604547249956855"><ele>680.6666666666666</ele><time>2026-03-22T15:58:17.901Z</time></trkpt><trkpt lat="30.13684968991657" lon="-6.8605550544802165"><ele>681.3333333333333</ele><time>2026-03-22T15:58:19.901Z</time></trkpt><trkpt lat="30.136873718283937" lon="-6.860653440017575"><ele>682.0</ele><time>2026-03-22T15:58:21.901Z</time></trkpt><trkpt lat="30.13687411358052" lon="-6.860732487058313"><ele>682.6666666666666</ele><time>2026-03-22T15:58:23.901Z</time></trkpt><trkpt lat="30.136847035280116" lon="-6.860801836364355"><ele>683.3333333333334</ele><time>2026-03-22T16:00:06.9Z</time></trkpt><trkpt lat="30.13681483045656" lon="-6.860868177754302"><ele>684.0</ele><time>2026-03-22T16:00:29.9Z</time></trkpt><trkpt lat="30.13670129259246" lon="-6.860848866994965"><ele>684.0</ele><time>2026-03-22T16:02:34.9Z</time></trkpt><trkpt lat="30.13659339380762" lon="-6.8608271428608285"><ele>684.0</ele><time>2026-03-22T16:02:36.9Z</time></trkpt><trkpt lat="30.136526941620367" lon="-6.86081799588171"><ele>684.0</ele><time>2026-03-22T16:02:37.9Z</time></trkpt><trkpt lat="30.136460735945015" lon="-6.860803975956137"><ele>684.0</ele><time>2026-03-22T16:02:38.9Z</time></trkpt><trkpt lat="30.13639331893731" lon="-6.860794322433572"><ele>684.0</ele><time>2026-03-22T16:02:39.9Z</time></trkpt><trkpt lat="30.136321867627927" lon="-6.8607906907437535"><ele>684.0</ele><time>2026-03-22T16:02:40.9Z</time></trkpt><trkpt lat="30.13620592212391" lon="-6.8607865458913055"><ele>683.6666666666666</ele><time>2026-03-22T16:02:42.9Z</time></trkpt><trkpt lat="30.136109775281955" lon="-6.860797420091626"><ele>683.3333333333334</ele><time>2026-03-22T16:02:44.9Z</time></trkpt><trkpt lat="30.135992484668634" lon="-6.860821524795533"><ele>683.0</ele><time>2026-03-22T16:02:46.9Z</time></trkpt><trkpt lat="30.135936998094216" lon="-6.860857656303248"><ele>682.6666666666667</ele><time>2026-03-22T16:02:47.9Z</time></trkpt><trkpt lat="30.135893729838394" lon="-6.860920262917734"><ele>682.3333333333334</ele><time>2026-03-22T16:02:48.9Z</time></trkpt><trkpt lat="30.135849854576044" lon="-6.860996419046258"><ele>682.0</ele><time>2026-03-22T16:02:49.9Z</time></trkpt><trkpt lat="30.135805457702126" lon="-6.861080269331331"><ele>682.0</ele><time>2026-03-22T16:02:50.9Z</time></trkpt><trkpt lat="30.135760028937423" lon="-6.861172959101175"><ele>682.0</ele><time>2026-03-22T16:02:51.9Z</time></trkpt><trkpt lat="30.135714772105903" lon="-6.861260187800711"><ele>682.0</ele><time>2026-03-22T16:02:52.9Z</time></trkpt><trkpt lat="30.135653464810755" lon="-6.861366751268215"><ele>682.0</ele><time>2026-03-22T16:02:53.9Z</time></trkpt><trkpt lat="30.135593790178334" lon="-6.861473890416032"><ele>682.0</ele><time>2026-03-22T16:02:54.9Z</time></trkpt><trkpt lat="30.13552047909487" lon="-6.861601212064172"><ele>680.6666666666667</ele><time>2026-03-22T16:02:55.9Z</time></trkpt><trkpt lat="30.135419680226416" lon="-6.861747530448322"><ele>679.3333333333334</ele><time>2026-03-22T16:02:56.9Z</time></trkpt><trkpt lat="30.13530976558212" lon="-6.861919307745937"><ele>678.0</ele><time>2026-03-22T16:02:57.9Z</time></trkpt><trkpt lat="30.135203876699464" lon="-6.862099966692891"><ele>678.0</ele><time>2026-03-22T16:02:58.9Z</time></trkpt><trkpt lat="30.135112549730042" lon="-6.862263105103809"><ele>678.0</ele><time>2026-03-22T16:02:59.9Z</time></trkpt><trkpt lat="30.135020976420375" lon="-6.862422318027142"><ele>678.0</ele><time>2026-03-22T16:03:00.9Z</time></trkpt><trkpt lat="30.134932680662487" lon="-6.862578267565477"><ele>678.3333333333334</ele><time>2026-03-22T16:03:01.9Z</time></trkpt><trkpt lat="30.134844820236005" lon="-6.862729028495505"><ele>678.6666666666667</ele><time>2026-03-22T16:03:02.9Z</time></trkpt><trkpt lat="30.13475592991824" lon="-6.86287693227337"><ele>679.0</ele><time>2026-03-22T16:03:03.9Z</time></trkpt><trkpt lat="30.13467730253776" lon="-6.863019439866646"><ele>679.0</ele><time>2026-03-22T16:03:04.9Z</time></trkpt><trkpt lat="30.134595158351814" lon="-6.863163606847042"><ele>679.0</ele><time>2026-03-22T16:03:05.9Z</time></trkpt><trkpt lat="30.134509137715472" lon="-6.863313399682754"><ele>679.0</ele><time>2026-03-22T16:03:06.9Z</time></trkpt><trkpt lat="30.134430857601316" lon="-6.863451144551782"><ele>679.0</ele><time>2026-03-22T16:03:07.9Z</time></trkpt><trkpt lat="30.13434688649309" lon="-6.863591768817754"><ele>680.3333333333334</ele><time>2026-03-22T16:03:08.9Z</time></trkpt><trkpt lat="30.13426222486887" lon="-6.863730131602859"><ele>681.6666666666666</ele><time>2026-03-22T16:03:09.9Z</time></trkpt><trkpt lat="30.13417294826744" lon="-6.863871865992244"><ele>683.0</ele><time>2026-03-22T16:03:10.9Z</time></trkpt><trkpt lat="30.134081817105038" lon="-6.864025323358143"><ele>682.3333333333333</ele><time>2026-03-22T16:03:11.9Z</time></trkpt><trkpt lat="30.133975343096242" lon="-6.8641872650303375"><ele>681.6666666666666</ele><time>2026-03-22T16:03:12.9Z</time></trkpt><trkpt lat="30.13385152181677" lon="-6.864348600005733"><ele>681.0</ele><time>2026-03-22T16:03:13.899Z</time></trkpt><trkpt lat="30.133712562629366" lon="-6.864501491779752"><ele>681.0</ele><time>2026-03-22T16:03:14.899Z</time></trkpt><trkpt lat="30.133558401500316" lon="-6.864638558502677"><ele>681.0</ele><time>2026-03-22T16:03:15.899Z</time></trkpt><trkpt lat="30.133395687352824" lon="-6.8647601933382925"><ele>681.0</ele><time>2026-03-22T16:03:16.9Z</time></trkpt><trkpt lat="30.133242587431674" lon="-6.8648859933711766"><ele>683.3333333333334</ele><time>2026-03-22T16:03:17.9Z</time></trkpt><trkpt lat="30.133088715911974" lon="-6.865015416189552"><ele>685.6666666666667</ele><time>2026-03-22T16:03:18.9Z</time></trkpt><trkpt lat="30.132934476452494" lon="-6.865134648527017"><ele>688.0</ele><time>2026-03-22T16:03:19.899Z</time></trkpt><trkpt lat="30.132775319719904" lon="-6.865254022785991"><ele>688.0</ele><time>2026-03-22T16:03:20.9Z</time></trkpt><trkpt lat="30.13261293538946" lon="-6.865378827512406"><ele>688.0</ele><time>2026-03-22T16:03:21.9Z</time></trkpt><trkpt lat="30.132438570383915" lon="-6.865498163463287"><ele>688.0</ele><time>2026-03-22T16:03:22.9Z</time></trkpt><trkpt lat="30.132242835929553" lon="-6.8656237230159824"><ele>688.0</ele><time>2026-03-22T16:03:23.9Z</time></trkpt><trkpt lat="30.132057298365826" lon="-6.865753735579141"><ele>688.0</ele><time>2026-03-22T16:03:24.9Z</time></trkpt><trkpt lat="30.13186415065719" lon="-6.865881519221164"><ele>688.0</ele><time>2026-03-22T16:03:25.899Z</time></trkpt><trkpt lat="30.13167493859774" lon="-6.866010143111803"><ele>683.6666666666667</ele><time>2026-03-22T16:03:26.9Z</time></trkpt><trkpt lat="30.13149189851547" lon="-6.866127660542987"><ele>679.3333333333334</ele><time>2026-03-22T16:03:27.9Z</time></trkpt><trkpt lat="30.131325084915638" lon="-6.8662316984336"><ele>675.0</ele><time>2026-03-22T16:03:28.9Z</time></trkpt><trkpt lat="30.131164805000182" lon="-6.866340376565705"><ele>675.0</ele><time>2026-03-22T16:03:29.9Z</time></trkpt><trkpt lat="30.131001020288114" lon="-6.866452863574759"><ele>675.0</ele><time>2026-03-22T16:03:30.9Z</time></trkpt><trkpt lat="30.130846551633237" lon="-6.866558464514143"><ele>675.0</ele><time>2026-03-22T16:03:31.9Z</time></trkpt><trkpt lat="30.13069710152479" lon="-6.866660160189449"><ele>675.0</ele><time>2026-03-22T16:03:32.9Z</time></trkpt><trkpt lat="30.130550133059682" lon="-6.866761446616935"><ele>675.0</ele><time>2026-03-22T16:03:33.9Z</time></trkpt><trkpt lat="30.130400022783853" lon="-6.866861679181406"><ele>675.0</ele><time>2026-03-22T16:03:34.9Z</time></trkpt><trkpt lat="30.130232028987585" lon="-6.866980716802352"><ele>675.0</ele><time>2026-03-22T16:03:35.9Z</time></trkpt><trkpt lat="30.13006152652307" lon="-6.867095028133542"><ele>675.0</ele><time>2026-03-22T16:03:36.9Z</time></trkpt><trkpt lat="30.129909445231505" lon="-6.867193322910637"><ele>675.0</ele><time>2026-03-22T16:03:37.9Z</time></trkpt><trkpt lat="30.129773568228043" lon="-6.86727850548119"><ele>673.25</ele><time>2026-03-22T16:03:38.9Z</time></trkpt><trkpt lat="30.129643969213674" lon="-6.867353139871975"><ele>671.5</ele><time>2026-03-22T16:03:39.9Z</time></trkpt><trkpt lat="30.129504903797574" lon="-6.867429926396909"><ele>669.75</ele><time>2026-03-22T16:03:40.9Z</time></trkpt><trkpt lat="30.129380268616263" lon="-6.867494634815812"><ele>668.0</ele><time>2026-03-22T16:03:41.9Z</time></trkpt><trkpt lat="30.12928091601988" lon="-6.867547038417929"><ele>668.0</ele><time>2026-03-22T16:03:42.9Z</time></trkpt><trkpt lat="30.129205185809163" lon="-6.867591178072073"><ele>668.0</ele><time>2026-03-22T16:03:43.9Z</time></trkpt><trkpt lat="30.129138550702667" lon="-6.8676266391758825"><ele>668.0</ele><time>2026-03-22T16:03:44.9Z</time></trkpt><trkpt lat="30.129032338956343" lon="-6.867680740760255"><ele>668.0</ele><time>2026-03-22T16:03:46.9Z</time></trkpt><trkpt lat="30.128934119070394" lon="-6.8677390760409445"><ele>668.0</ele><time>2026-03-22T16:03:48.9Z</time></trkpt><trkpt lat="30.128859076147027" lon="-6.8677744159724545"><ele>668.3333333333333</ele><time>2026-03-22T16:03:50.9Z</time></trkpt><trkpt lat="30.128785030815163" lon="-6.867776097250341"><ele>668.6666666666666</ele><time>2026-03-22T16:03:53.9Z</time></trkpt><trkpt lat="30.12872955463477" lon="-6.867678269366603"><ele>669.0</ele><time>2026-03-22T16:03:56.9Z</time></trkpt><trkpt lat="30.128674483012617" lon="-6.867623508490302"><ele>669.3333333333334</ele><time>2026-03-22T16:04:00.9Z</time></trkpt><trkpt lat="30.12866267224622" lon="-6.867538756419693"><ele>669.6666666666667</ele><time>2026-03-22T16:04:04.904Z</time></trkpt><trkpt lat="30.12859336119829" lon="-6.867521401089387"><ele>670.0</ele><time>2026-03-22T16:04:07.906Z</time></trkpt><trkpt lat="30.12853778175159" lon="-6.867557653836701"><ele>671.0</ele><time>2026-03-22T16:04:12.908Z</time></trkpt><trkpt lat="30.128459333832314" lon="-6.867577607858687"><ele>671.0</ele><time>2026-03-22T16:08:42.915Z</time></trkpt></trkseg><trkseg><trkpt lat="30.12868146962385" lon="-6.867495979485694"><ele>671.0</ele><time>2026-03-23T06:56:26.001Z</time></trkpt><trkpt lat="30.12865013629336" lon="-6.867574492854248"><ele>671.0</ele><time>2026-03-23T07:01:22.002Z</time></trkpt><trkpt lat="30.128714029070014" lon="-6.867647348951758"><ele>671.0</ele><time>2026-03-23T07:01:25.002Z</time></trkpt><trkpt lat="30.12877911456051" lon="-6.867710193419561"><ele>671.0</ele><time>2026-03-23T07:01:49.002Z</time></trkpt><trkpt lat="30.128869562682574" lon="-6.8676778973841826"><ele>671.0</ele><time>2026-03-23T07:01:51.002Z</time></trkpt><trkpt lat="30.128939925170865" lon="-6.867617492265723"><ele>671.0</ele><time>2026-03-23T07:01:52.002Z</time></trkpt><trkpt lat="30.12901591265285" lon="-6.867572658506318"><ele>670.4</ele><time>2026-03-23T07:01:53.002Z</time></trkpt><trkpt lat="30.129100906832306" lon="-6.867528295857011"><ele>669.8</ele><time>2026-03-23T07:01:54.002Z</time></trkpt><trkpt lat="30.12919644281262" lon="-6.86748065167569"><ele>669.1999999999999</ele><time>2026-03-23T07:01:55.002Z</time></trkpt><trkpt lat="30.12929109650475" lon="-6.867437482990774"><ele>668.5999999999999</ele><time>2026-03-23T07:01:56.002Z</time></trkpt><trkpt lat="30.129390786026324" lon="-6.867390792318255"><ele>668.0</ele><time>2026-03-23T07:01:57.002Z</time></trkpt><trkpt lat="30.129487874871273" lon="-6.86733787733239"><ele>668.0</ele><time>2026-03-23T07:01:58.002Z</time></trkpt><trkpt lat="30.129585510551795" lon="-6.867261804925571"><ele>668.0</ele><time>2026-03-23T07:01:59.002Z</time></trkpt><trkpt lat="30.12968042649787" lon="-6.867206826299772"><ele>668.0</ele><time>2026-03-23T07:02:00.002Z</time></trkpt><trkpt lat="30.129761854247533" lon="-6.867158370324207"><ele>668.0</ele><time>2026-03-23T07:02:01.002Z</time></trkpt><trkpt lat="30.129834242561817" lon="-6.867112482902703"><ele>668.0</ele><time>2026-03-23T07:02:02.002Z</time></trkpt><trkpt lat="30.1299044665886" lon="-6.86706762577379"><ele>669.75</ele><time>2026-03-23T07:02:03.002Z</time></trkpt><trkpt lat="30.129984999480335" lon="-6.867004667707274"><ele>671.5</ele><time>2026-03-23T07:02:04.002Z</time></trkpt><trkpt lat="30.13008119235634" lon="-6.866936462582225"><ele>673.25</ele><time>2026-03-23T07:02:05.002Z</time></trkpt><trkpt lat="30.130184214565247" lon="-6.866870945431108"><ele>675.0</ele><time>2026-03-23T07:02:06.002Z</time></trkpt><trkpt lat="30.130298722293812" lon="-6.866791955682649"><ele>675.0</ele><time>2026-03-23T07:02:07.002Z</time></trkpt><trkpt lat="30.130417018372235" lon="-6.8667060227661585"><ele>675.0</ele><time>2026-03-23T07:02:08.002Z</time></trkpt><trkpt lat="30.130534704462516" lon="-6.866632125823344"><ele>675.0</ele><time>2026-03-23T07:02:09.002Z</time></trkpt><trkpt lat="30.130654262708116" lon="-6.866552122352855"><ele>675.0</ele><time>2026-03-23T07:02:10.002Z</time></trkpt><trkpt lat="30.130776875088557" lon="-6.8664708981336195"><ele>675.0</ele><time>2026-03-23T07:02:11.002Z</time></trkpt><trkpt lat="30.130898025769703" lon="-6.866388164847218"><ele>675.0</ele><time>2026-03-23T07:02:12.002Z</time></trkpt><trkpt lat="30.131011092041103" lon="-6.866315464201536"><ele>675.0</ele><time>2026-03-23T07:02:13.002Z</time></trkpt><trkpt lat="30.131116914227537" lon="-6.866241056875554"><ele>675.0</ele><time>2026-03-23T07:02:14.002Z</time></trkpt><trkpt lat="30.131234202464718" lon="-6.866157828411489"><ele>675.0</ele><time>2026-03-23T07:02:15.002Z</time></trkpt><trkpt lat="30.13135708142457" lon="-6.866072213437604"><ele>675.0</ele><time>2026-03-23T07:02:16.002Z</time></trkpt><trkpt lat="30.13147933478648" lon="-6.865984362739314"><ele>675.0</ele><time>2026-03-23T07:02:17.002Z</time></trkpt><trkpt lat="30.131606666163467" lon="-6.8658949396553215"><ele>675.0</ele><time>2026-03-23T07:02:18.002Z</time></trkpt><trkpt lat="30.131731054752038" lon="-6.865815509455384"><ele>673.3333333333334</ele><time>2026-03-23T07:02:19.002Z</time></trkpt><trkpt lat="30.131861016771097" lon="-6.865730829863217"><ele>671.6666666666667</ele><time>2026-03-23T07:02:20.002Z</time></trkpt><trkpt lat="30.131995940364945" lon="-6.865645392201078"><ele>670.0</ele><time>2026-03-23T07:02:21.002Z</time></trkpt><trkpt lat="30.1321287142198" lon="-6.865562165016093"><ele>670.0</ele><time>2026-03-23T07:02:22.002Z</time></trkpt><trkpt lat="30.132262690346337" lon="-6.865478574705034"><ele>670.0</ele><time>2026-03-23T07:02:23.002Z</time></trkpt><trkpt lat="30.13239760681694" lon="-6.865393677758765"><ele>670.0</ele><time>2026-03-23T07:02:24.002Z</time></trkpt><trkpt lat="30.13253816437489" lon="-6.865299589102171"><ele>671.0</ele><time>2026-03-23T07:02:25.002Z</time></trkpt><trkpt lat="30.13267404928455" lon="-6.865198293525633"><ele>672.0</ele><time>2026-03-23T07:02:26.002Z</time></trkpt><trkpt lat="30.132807092610573" lon="-6.865094435710475"><ele>673.0</ele><time>2026-03-23T07:02:27.002Z</time></trkpt><trkpt lat="30.13293718435659" lon="-6.86498983574218"><ele>673.0</ele><time>2026-03-23T07:02:28.002Z</time></trkpt><trkpt lat="30.13306755737995" lon="-6.864883083137907"><ele>673.0</ele><time>2026-03-23T07:02:29.002Z</time></trkpt><trkpt lat="30.133202661040254" lon="-6.864781863417948"><ele>673.0</ele><time>2026-03-23T07:02:30.002Z</time></trkpt><trkpt lat="30.13334429028663" lon="-6.864671522475382"><ele>675.6666666666667</ele><time>2026-03-23T07:02:31.002Z</time></trkpt><trkpt lat="30.133480667250847" lon="-6.8645546488747105"><ele>678.3333333333334</ele><time>2026-03-23T07:02:32.002Z</time></trkpt><trkpt lat="30.13361209145959" lon="-6.864436101065636"><ele>681.0</ele><time>2026-03-23T07:02:33.002Z</time></trkpt><trkpt lat="30.133742211427833" lon="-6.864311082425305"><ele>681.6666666666666</ele><time>2026-03-23T07:02:34.002Z</time></trkpt><trkpt lat="30.133860092648984" lon="-6.864169899644511"><ele>682.3333333333333</ele><time>2026-03-23T07:02:35.002Z</time></trkpt><trkpt lat="30.133963917760287" lon="-6.864016071888207"><ele>683.0</ele><time>2026-03-23T07:02:36.002Z</time></trkpt><trkpt lat="30.13406147393342" lon="-6.863852642411519"><ele>683.0</ele><time>2026-03-23T07:02:37.002Z</time></trkpt><trkpt lat="30.134159079085055" lon="-6.863684470708587"><ele>683.0</ele><time>2026-03-23T07:02:38.002Z</time></trkpt><trkpt lat="30.13425631469154" lon="-6.86351592655757"><ele>683.0</ele><time>2026-03-23T07:02:39.002Z</time></trkpt><trkpt lat="30.13435289786743" lon="-6.863353497872425"><ele>681.6666666666666</ele><time>2026-03-23T07:02:40.002Z</time></trkpt><trkpt lat="30.134446860476164" lon="-6.863188262882941"><ele>680.3333333333334</ele><time>2026-03-23T07:02:41.002Z</time></trkpt><trkpt lat="30.1345434566304" lon="-6.86301870660576"><ele>679.0</ele><time>2026-03-23T07:02:42.002Z</time></trkpt><trkpt lat="30.134638748084377" lon="-6.86285176265951"><ele>679.0</ele><time>2026-03-23T07:02:43.002Z</time></trkpt><trkpt lat="30.134731411103715" lon="-6.862689405147576"><ele>679.0</ele><time>2026-03-23T07:02:44.002Z</time></trkpt><trkpt lat="30.13482463746357" lon="-6.862530216171474"><ele>679.0</ele><time>2026-03-23T07:02:45.002Z</time></trkpt><trkpt lat="30.134920231568202" lon="-6.862368511458241"><ele>678.6666666666667</ele><time>2026-03-23T07:02:46.002Z</time></trkpt><trkpt lat="30.13501715136361" lon="-6.862205069134989"><ele>678.3333333333334</ele><time>2026-03-23T07:02:47.002Z</time></trkpt><trkpt lat="30.135116186698212" lon="-6.862038680201603"><ele>678.0</ele><time>2026-03-23T07:02:48.002Z</time></trkpt><trkpt lat="30.135211845621345" lon="-6.861866781712777"><ele>677.0</ele><time>2026-03-23T07:02:49.002Z</time></trkpt><trkpt lat="30.135310554834927" lon="-6.861699008000063"><ele>676.0</ele><time>2026-03-23T07:02:50.002Z</time></trkpt><trkpt lat="30.135407579959246" lon="-6.861532072988502"><ele>675.0</ele><time>2026-03-23T07:02:51.002Z</time></trkpt><trkpt lat="30.135501134818252" lon="-6.861364193383158"><ele>675.0</ele><time>2026-03-23T07:02:52.002Z</time></trkpt><trkpt lat="30.135593237530305" lon="-6.861200299089922"><ele>675.0</ele><time>2026-03-23T07:02:53.002Z</time></trkpt><trkpt lat="30.135686244395526" lon="-6.861037862149289"><ele>675.0</ele><time>2026-03-23T07:02:54.002Z</time></trkpt><trkpt lat="30.13577631446681" lon="-6.860878164671666"><ele>676.6666666666666</ele><time>2026-03-23T07:02:55.002Z</time></trkpt><trkpt lat="30.135867281470922" lon="-6.860717740562968"><ele>678.3333333333333</ele><time>2026-03-23T07:02:56.002Z</time></trkpt><trkpt lat="30.1359606645725" lon="-6.860556926745705"><ele>680.0</ele><time>2026-03-23T07:02:57.002Z</time></trkpt><trkpt lat="30.136059578540717" lon="-6.860390304263694"><ele>680.0</ele><time>2026-03-23T07:02:58.002Z</time></trkpt><trkpt lat="30.13615531673072" lon="-6.860220965970716"><ele>680.0</ele><time>2026-03-23T07:02:59.002Z</time></trkpt><trkpt lat="30.13625272810926" lon="-6.860051614362075"><ele>680.0</ele><time>2026-03-23T07:03:00.002Z</time></trkpt><trkpt lat="30.136349893872843" lon="-6.859880733557541"><ele>680.0</ele><time>2026-03-23T07:03:01.002Z</time></trkpt><trkpt lat="30.136444892329813" lon="-6.859713928459985"><ele>680.0</ele><time>2026-03-23T07:03:02.002Z</time></trkpt><trkpt lat="30.136543284234783" lon="-6.859542898619039"><ele>680.0</ele><time>2026-03-23T07:03:03.002Z</time></trkpt><trkpt lat="30.136639027410816" lon="-6.8593760712416305"><ele>679.3333333333333</ele><time>2026-03-23T07:03:04.002Z</time></trkpt><trkpt lat="30.136737048672682" lon="-6.859207183180629"><ele>678.6666666666666</ele><time>2026-03-23T07:03:05.002Z</time></trkpt><trkpt lat="30.136835213332716" lon="-6.859040383468246"><ele>678.0</ele><time>2026-03-23T07:03:06.002Z</time></trkpt><trkpt lat="30.13693615481967" lon="-6.858867302066055"><ele>678.0</ele><time>2026-03-23T07:03:07.002Z</time></trkpt><trkpt lat="30.137036625724065" lon="-6.858697638419356"><ele>678.0</ele><time>2026-03-23T07:03:08.002Z</time></trkpt><trkpt lat="30.137137612448008" lon="-6.858525716230252"><ele>678.0</ele><time>2026-03-23T07:03:09.002Z</time></trkpt><trkpt lat="30.137236107001005" lon="-6.858351112548098"><ele>679.0</ele><time>2026-03-23T07:03:10.002Z</time></trkpt><trkpt lat="30.13733530618304" lon="-6.858175737717518"><ele>680.0</ele><time>2026-03-23T07:03:11.002Z</time></trkpt><trkpt lat="30.13743479153791" lon="-6.8580015067299485"><ele>681.0</ele><time>2026-03-23T07:03:12.002Z</time></trkpt><trkpt lat="30.137528488421548" lon="-6.857833503728776"><ele>681.0</ele><time>2026-03-23T07:03:13.002Z</time></trkpt><trkpt lat="30.137626723638004" lon="-6.857662592110737"><ele>681.0</ele><time>2026-03-23T07:03:14.002Z</time></trkpt><trkpt lat="30.13772895853263" lon="-6.8574896301818375"><ele>681.0</ele><time>2026-03-23T07:03:15.002Z</time></trkpt><trkpt lat="30.137826528307887" lon="-6.85731799102723"><ele>680.0</ele><time>2026-03-23T07:03:16.002Z</time></trkpt><trkpt lat="30.13792311074317" lon="-6.857147038298417"><ele>679.0</ele><time>2026-03-23T07:03:17.002Z</time></trkpt><trkpt lat="30.138018853481476" lon="-6.85697629330458"><ele>678.0</ele><time>2026-03-23T07:03:18.002Z</time></trkpt><trkpt lat="30.138116899993957" lon="-6.85680964586731"><ele>677.6666666666666</ele><time>2026-03-23T07:03:19.002Z</time></trkpt><trkpt lat="30.138218459813906" lon="-6.856639641202878"><ele>677.3333333333333</ele><time>2026-03-23T07:03:20.002Z</time></trkpt><trkpt lat="30.13831712279885" lon="-6.8564721901706385"><ele>677.0</ele><time>2026-03-23T07:03:21.002Z</time></trkpt><trkpt lat="30.138422828015667" lon="-6.856300785765693"><ele>677.0</ele><time>2026-03-23T07:03:22.002Z</time></trkpt><trkpt lat="30.138509101850097" lon="-6.856137542709279"><ele>677.0</ele><time>2026-03-23T07:03:23.002Z</time></trkpt><trkpt lat="30.138599241702867" lon="-6.855987417972904"><ele>677.0</ele><time>2026-03-23T07:03:24.002Z</time></trkpt><trkpt lat="30.138690026963108" lon="-6.855835947857359"><ele>676.0</ele><time>2026-03-23T07:03:25.002Z</time></trkpt><trkpt lat="30.138777058341308" lon="-6.855681335750574"><ele>675.0</ele><time>2026-03-23T07:03:26.002Z</time></trkpt><trkpt lat="30.138866550733294" lon="-6.8555285911750845"><ele>674.0</ele><time>2026-03-23T07:03:27.002Z</time></trkpt><trkpt lat="30.138957235189302" lon="-6.85537761300423"><ele>675.0</ele><time>2026-03-23T07:03:28.002Z</time></trkpt><trkpt lat="30.139052593876986" lon="-6.855224411112089"><ele>676.0</ele><time>2026-03-23T07:03:29.002Z</time></trkpt><trkpt lat="30.139145093064453" lon="-6.855063009616618"><ele>677.0</ele><time>2026-03-23T07:03:30.002Z</time></trkpt><trkpt lat="30.139240985087724" lon="-6.854898062661392"><ele>677.0</ele><time>2026-03-23T07:03:31.002Z</time></trkpt><trkpt lat="30.139338569635765" lon="-6.854730447026816"><ele>677.0</ele><time>2026-03-23T07:03:32.002Z</time></trkpt><trkpt lat="30.13943442064788" lon="-6.854566669036358"><ele>677.0</ele><time>2026-03-23T07:03:33.002Z</time></trkpt><trkpt lat="30.139528046367182" lon="-6.854401719046703"><ele>676.0</ele><time>2026-03-23T07:03:34.002Z</time></trkpt><trkpt lat="30.139621134528657" lon="-6.854235754370912"><ele>675.0</ele><time>2026-03-23T07:03:35.002Z</time></trkpt><trkpt lat="30.13972169054254" lon="-6.854065541888313"><ele>674.0</ele><time>2026-03-23T07:03:36.002Z</time></trkpt><trkpt lat="30.139835017338143" lon="-6.853871888270746"><ele>676.6666666666666</ele><time>2026-03-23T07:03:37.002Z</time></trkpt><trkpt lat="30.139934835850223" lon="-6.853692550189394"><ele>679.3333333333334</ele><time>2026-03-23T07:03:38.002Z</time></trkpt><trkpt lat="30.140028742653836" lon="-6.853513436966389"><ele>682.0</ele><time>2026-03-23T07:03:39.002Z</time></trkpt><trkpt lat="30.140121409011606" lon="-6.853341990578511"><ele>682.0</ele><time>2026-03-23T07:03:40.002Z</time></trkpt><trkpt lat="30.14020734125878" lon="-6.853179976985927"><ele>682.0</ele><time>2026-03-23T07:03:41.002Z</time></trkpt><trkpt lat="30.14029689326175" lon="-6.853027587273779"><ele>682.0</ele><time>2026-03-23T07:03:42.002Z</time></trkpt><trkpt lat="30.140379885474335" lon="-6.852876723853559"><ele>682.0</ele><time>2026-03-23T07:03:43.002Z</time></trkpt><trkpt lat="30.14045219902674" lon="-6.852737926777731"><ele>682.0</ele><time>2026-03-23T07:03:44.002Z</time></trkpt><trkpt lat="30.140517220144375" lon="-6.852616657615779"><ele>682.0</ele><time>2026-03-23T07:03:45.002Z</time></trkpt><trkpt lat="30.140574426998466" lon="-6.852509302965056"><ele>682.0</ele><time>2026-03-23T07:03:46.002Z</time></trkpt><trkpt lat="30.14062893466151" lon="-6.852410785270067"><ele>681.8333333333334</ele><time>2026-03-23T07:03:47.002Z</time></trkpt><trkpt lat="30.140677738616837" lon="-6.852320188292576"><ele>681.6666666666667</ele><time>2026-03-23T07:03:48.002Z</time></trkpt><trkpt lat="30.140723064823728" lon="-6.852235452456642"><ele>681.5</ele><time>2026-03-23T07:03:49.002Z</time></trkpt><trkpt lat="30.140761833145444" lon="-6.852162015861528"><ele>681.3333333333334</ele><time>2026-03-23T07:03:50.002Z</time></trkpt><trkpt lat="30.14080363777781" lon="-6.852080495162607"><ele>681.1666666666666</ele><time>2026-03-23T07:03:51.002Z</time></trkpt><trkpt lat="30.14085064410569" lon="-6.851990769743742"><ele>681.0</ele><time>2026-03-23T07:03:52.002Z</time></trkpt><trkpt lat="30.140902813895813" lon="-6.851896044745403"><ele>681.4</ele><time>2026-03-23T07:03:53.002Z</time></trkpt><trkpt lat="30.140956533526893" lon="-6.851797450094593"><ele>681.8</ele><time>2026-03-23T07:03:54.002Z</time></trkpt><trkpt lat="30.141013334779785" lon="-6.851698672755478"><ele>682.1999999999999</ele><time>2026-03-23T07:03:55.002Z</time></trkpt><trkpt lat="30.14107218046619" lon="-6.851593942696231"><ele>682.5999999999999</ele><time>2026-03-23T07:03:56.002Z</time></trkpt><trkpt lat="30.141133034055123" lon="-6.851480315862729"><ele>683.0</ele><time>2026-03-23T07:03:57.002Z</time></trkpt><trkpt lat="30.141195838879483" lon="-6.85136883612352"><ele>683.0</ele><time>2026-03-23T07:03:58.002Z</time></trkpt><trkpt lat="30.141257585009615" lon="-6.8512519969782355"><ele>683.0</ele><time>2026-03-23T07:03:59.002Z</time></trkpt><trkpt lat="30.141315590848645" lon="-6.851133855751431"><ele>683.0</ele><time>2026-03-23T07:04:00.002Z</time></trkpt><trkpt lat="30.141379120451717" lon="-6.851016162292655"><ele>683.0</ele><time>2026-03-23T07:04:01.002Z</time></trkpt><trkpt lat="30.141444431065455" lon="-6.8508963141243315"><ele>683.0</ele><time>2026-03-23T07:04:02.002Z</time></trkpt><trkpt lat="30.14151665502785" lon="-6.850767320954608"><ele>683.0</ele><time>2026-03-23T07:04:03.002Z</time></trkpt><trkpt lat="30.141586736285415" lon="-6.850637759809464"><ele>683.0</ele><time>2026-03-23T07:04:04.002Z</time></trkpt><trkpt lat="30.141658315548746" lon="-6.85050499888001"><ele>683.0</ele><time>2026-03-23T07:04:05.002Z</time></trkpt><trkpt lat="30.14173379285536" lon="-6.850367549403194"><ele>683.0</ele><time>2026-03-23T07:04:06.002Z</time></trkpt><trkpt lat="30.14181200206668" lon="-6.850231069221171"><ele>683.0</ele><time>2026-03-23T07:04:07.002Z</time></trkpt><trkpt lat="30.141895811499182" lon="-6.850097948355236"><ele>683.0</ele><time>2026-03-23T07:04:08.002Z</time></trkpt><trkpt lat="30.141980839940334" lon="-6.849966874919756"><ele>683.0</ele><time>2026-03-23T07:04:09.002Z</time></trkpt><trkpt lat="30.14206864149807" lon="-6.849840037073834"><ele>683.0</ele><time>2026-03-23T07:04:10.002Z</time></trkpt><trkpt lat="30.142160859913307" lon="-6.849717599861266"><ele>683.0</ele><time>2026-03-23T07:04:11.002Z</time></trkpt><trkpt lat="30.14225062644953" lon="-6.849596127777141"><ele>683.0</ele><time>2026-03-23T07:04:12.002Z</time></trkpt><trkpt lat="30.14234092979953" lon="-6.849473818978104"><ele>683.0</ele><time>2026-03-23T07:04:13.002Z</time></trkpt><trkpt lat="30.1424283497858" lon="-6.849352800820677"><ele>683.0</ele><time>2026-03-23T07:04:14.002Z</time></trkpt><trkpt lat="30.14251169320957" lon="-6.849225464949267"><ele>683.0</ele><time>2026-03-23T07:04:15.002Z</time></trkpt><trkpt lat="30.14259153195284" lon="-6.8490939175623655"><ele>683.0</ele><time>2026-03-23T07:04:16.002Z</time></trkpt><trkpt lat="30.14266688341623" lon="-6.848961716063836"><ele>683.0</ele><time>2026-03-23T07:04:17.002Z</time></trkpt><trkpt lat="30.14274314641316" lon="-6.848830027920914"><ele>683.0</ele><time>2026-03-23T07:04:18.002Z</time></trkpt><trkpt lat="30.14281793514861" lon="-6.84869412648721"><ele>683.0</ele><time>2026-03-23T07:04:19.002Z</time></trkpt><trkpt lat="30.14288796999556" lon="-6.848561079522552"><ele>683.0</ele><time>2026-03-23T07:04:20.002Z</time></trkpt><trkpt lat="30.14295973723132" lon="-6.848427787140976"><ele>683.0</ele><time>2026-03-23T07:04:21.002Z</time></trkpt><trkpt lat="30.14303376484917" lon="-6.848303225869145"><ele>682.8</ele><time>2026-03-23T07:04:22.002Z</time></trkpt><trkpt lat="30.143104924424808" lon="-6.848187910300111"><ele>682.5999999999999</ele><time>2026-03-23T07:04:23.002Z</time></trkpt><trkpt lat="30.143168678928312" lon="-6.848084602135128"><ele>682.4000000000001</ele><time>2026-03-23T07:04:24.002Z</time></trkpt><trkpt lat="30.143220297915114" lon="-6.847987024296724"><ele>682.2</ele><time>2026-03-23T07:04:25.002Z</time></trkpt><trkpt lat="30.14326995501705" lon="-6.847896676142369"><ele>682.0</ele><time>2026-03-23T07:04:26.002Z</time></trkpt><trkpt lat="30.14332141818409" lon="-6.847807482207673"><ele>682.0</ele><time>2026-03-23T07:04:27.002Z</time></trkpt><trkpt lat="30.14336890281367" lon="-6.847727625685155"><ele>682.0</ele><time>2026-03-23T07:04:28.002Z</time></trkpt><trkpt lat="30.143411443244325" lon="-6.847656666869757"><ele>682.0</ele><time>2026-03-23T07:04:29.002Z</time></trkpt><trkpt lat="30.143451414266607" lon="-6.847584290200854"><ele>682.0</ele><time>2026-03-23T07:04:30.002Z</time></trkpt><trkpt lat="30.143481201103267" lon="-6.8475140368581675"><ele>682.0</ele><time>2026-03-23T07:04:31.002Z</time></trkpt><trkpt lat="30.143485089398368" lon="-6.847439027423118"><ele>682.0</ele><time>2026-03-23T07:04:32.002Z</time></trkpt><trkpt lat="30.143464137521775" lon="-6.847358318246917"><ele>682.0</ele><time>2026-03-23T07:04:33.002Z</time></trkpt><trkpt lat="30.143360123779082" lon="-6.8473279465148265"><ele>681.4000000000001</ele><time>2026-03-23T07:04:34.002Z</time></trkpt><trkpt lat="30.143297237704047" lon="-6.847252126398138"><ele>680.8000000000001</ele><time>2026-03-23T07:04:35.002Z</time></trkpt><trkpt lat="30.143219920997964" lon="-6.847159254859312"><ele>680.2</ele><time>2026-03-23T07:04:36.002Z</time></trkpt><trkpt lat="30.143137663898383" lon="-6.847060613679449"><ele>679.6</ele><time>2026-03-23T07:04:37.002Z</time></trkpt><trkpt lat="30.14306379572465" lon="-6.8469677635603725"><ele>679.0</ele><time>2026-03-23T07:04:38.002Z</time></trkpt><trkpt lat="30.142998747692513" lon="-6.846869777339947"><ele>678.6</ele><time>2026-03-23T07:04:39.002Z</time></trkpt><trkpt lat="30.14294941227501" lon="-6.846771048995041"><ele>678.2</ele><time>2026-03-23T07:04:40.002Z</time></trkpt><trkpt lat="30.142916760766468" lon="-6.84663846829129"><ele>677.8000000000001</ele><time>2026-03-23T07:04:41.002Z</time></trkpt><trkpt lat="30.14290433867293" lon="-6.846509840467481"><ele>677.4000000000001</ele><time>2026-03-23T07:04:42.002Z</time></trkpt><trkpt lat="30.14289826558555" lon="-6.8463766895960605"><ele>677.0</ele><time>2026-03-23T07:04:43.002Z</time></trkpt><trkpt lat="30.142912831821143" lon="-6.846245183470601"><ele>677.0</ele><time>2026-03-23T07:04:44.002Z</time></trkpt><trkpt lat="30.142912745096755" lon="-6.846108866035357"><ele>677.0</ele><time>2026-03-23T07:04:45.002Z</time></trkpt><trkpt lat="30.142913749557053" lon="-6.845972670789068"><ele>677.0</ele><time>2026-03-23T07:04:46.002Z</time></trkpt><trkpt lat="30.14291347557943" lon="-6.845833909456559"><ele>677.0</ele><time>2026-03-23T07:04:47.002Z</time></trkpt><trkpt lat="30.14290911224368" lon="-6.84567782252388"><ele>677.6666666666666</ele><time>2026-03-23T07:04:48.002Z</time></trkpt><trkpt lat="30.142903719987892" lon="-6.8455011528675085"><ele>678.3333333333334</ele><time>2026-03-23T07:04:49.002Z</time></trkpt><trkpt lat="30.14289350493765" lon="-6.845311115316549"><ele>679.0</ele><time>2026-03-23T07:04:50.002Z</time></trkpt><trkpt lat="30.142884337033973" lon="-6.845134177104966"><ele>679.25</ele><time>2026-03-23T07:04:51.002Z</time></trkpt><trkpt lat="30.14287026985041" lon="-6.844977964921203"><ele>679.5</ele><time>2026-03-23T07:04:52.002Z</time></trkpt><trkpt lat="30.142826174810555" lon="-6.844826561456584"><ele>679.75</ele><time>2026-03-23T07:04:53.002Z</time></trkpt><trkpt lat="30.142792100555877" lon="-6.844671443341973"><ele>680.0</ele><time>2026-03-23T07:04:54.002Z</time></trkpt><trkpt lat="30.142765358544864" lon="-6.844513907314337"><ele>680.0</ele><time>2026-03-23T07:04:55.002Z</time></trkpt><trkpt lat="30.142739081437284" lon="-6.844356817321328"><ele>680.0</ele><time>2026-03-23T07:04:56.002Z</time></trkpt><trkpt lat="30.142712314482765" lon="-6.844198403204312"><ele>680.0</ele><time>2026-03-23T07:04:57.002Z</time></trkpt><trkpt lat="30.142684813411577" lon="-6.84403609265892"><ele>680.0</ele><time>2026-03-23T07:04:58.002Z</time></trkpt><trkpt lat="30.142654597788294" lon="-6.843861041487321"><ele>680.3333333333333</ele><time>2026-03-23T07:04:59.002Z</time></trkpt><trkpt lat="30.142621055426" lon="-6.843668809025664"><ele>680.6666666666666</ele><time>2026-03-23T07:05:00.002Z</time></trkpt><trkpt lat="30.14259196288422" lon="-6.843494161358953"><ele>681.0</ele><time>2026-03-23T07:05:01.002Z</time></trkpt><trkpt lat="30.14256595680884" lon="-6.843336425929889"><ele>681.75</ele><time>2026-03-23T07:05:02.002Z</time></trkpt><trkpt lat="30.14253869355444" lon="-6.843180849194596"><ele>682.5</ele><time>2026-03-23T07:05:03.002Z</time></trkpt><trkpt lat="30.142522055526875" lon="-6.843002373763715"><ele>683.25</ele><time>2026-03-23T07:05:04.002Z</time></trkpt><trkpt lat="30.142508044937042" lon="-6.842826115686727"><ele>684.0</ele><time>2026-03-23T07:05:05.002Z</time></trkpt><trkpt lat="30.142493362866144" lon="-6.8426600893110505"><ele>684.3333333333334</ele><time>2026-03-23T07:05:06.002Z</time></trkpt><trkpt lat="30.142486386512417" lon="-6.842493844267752"><ele>684.6666666666667</ele><time>2026-03-23T07:05:07.002Z</time></trkpt><trkpt lat="30.142493291197976" lon="-6.842322287875633"><ele>685.0</ele><time>2026-03-23T07:05:08.002Z</time></trkpt><trkpt lat="30.142531624692484" lon="-6.842136897480542"><ele>685.0</ele><time>2026-03-23T07:05:09.002Z</time></trkpt><trkpt lat="30.14257283911613" lon="-6.841966304483337"><ele>685.0</ele><time>2026-03-23T07:05:10.002Z</time></trkpt><trkpt lat="30.14261337742076" lon="-6.841804116681524"><ele>685.0</ele><time>2026-03-23T07:05:11.002Z</time></trkpt><trkpt lat="30.1426525181957" lon="-6.841648734555902"><ele>685.0</ele><time>2026-03-23T07:05:12.002Z</time></trkpt><trkpt lat="30.142691485310248" lon="-6.841492536322658"><ele>684.25</ele><time>2026-03-23T07:05:13.002Z</time></trkpt><trkpt lat="30.14273022911112" lon="-6.841336781693768"><ele>683.5</ele><time>2026-03-23T07:05:14.002Z</time></trkpt><trkpt lat="30.142769288499128" lon="-6.84117948647602"><ele>682.75</ele><time>2026-03-23T07:05:15.002Z</time></trkpt><trkpt lat="30.14280776945473" lon="-6.841024755330493"><ele>682.0</ele><time>2026-03-23T07:05:16.002Z</time></trkpt><trkpt lat="30.142846917114476" lon="-6.840864368451675"><ele>681.5</ele><time>2026-03-23T07:05:17.002Z</time></trkpt><trkpt lat="30.142887443490444" lon="-6.840696622358099"><ele>681.0</ele><time>2026-03-23T07:05:18.002Z</time></trkpt><trkpt lat="30.14292647967241" lon="-6.840538556771191"><ele>680.5</ele><time>2026-03-23T07:05:19.002Z</time></trkpt><trkpt lat="30.142965275298895" lon="-6.840377162392122"><ele>680.0</ele><time>2026-03-23T07:05:20.002Z</time></trkpt><trkpt lat="30.14302715079904" lon="-6.840190483945745"><ele>680.0</ele><time>2026-03-23T07:05:21.002Z</time></trkpt><trkpt lat="30.143072365584526" lon="-6.839998756433141"><ele>680.0</ele><time>2026-03-23T07:05:22.002Z</time></trkpt><trkpt lat="30.14311517230139" lon="-6.839831508081764"><ele>680.0</ele><time>2026-03-23T07:05:23.002Z</time></trkpt><trkpt lat="30.143137473372782" lon="-6.839670859229745"><ele>680.0</ele><time>2026-03-23T07:05:24.002Z</time></trkpt><trkpt lat="30.143174803203795" lon="-6.8395149220830165"><ele>680.0</ele><time>2026-03-23T07:05:25.002Z</time></trkpt><trkpt lat="30.14321159871332" lon="-6.839359991839246"><ele>680.0</ele><time>2026-03-23T07:05:26.002Z</time></trkpt><trkpt lat="30.143248871490247" lon="-6.839204366649472"><ele>680.0</ele><time>2026-03-23T07:05:27.002Z</time></trkpt><trkpt lat="30.14328755225057" lon="-6.839044177091943"><ele>680.25</ele><time>2026-03-23T07:05:28.002Z</time></trkpt><trkpt lat="30.143325407224978" lon="-6.8388847415732625"><ele>680.5</ele><time>2026-03-23T07:05:29.002Z</time></trkpt><trkpt lat="30.143364487313438" lon="-6.838722684718985"><ele>680.75</ele><time>2026-03-23T07:05:30.002Z</time></trkpt><trkpt lat="30.143402357994024" lon="-6.838561737672148"><ele>681.0</ele><time>2026-03-23T07:05:31.002Z</time></trkpt><trkpt lat="30.143436582702243" lon="-6.838402565684499"><ele>681.5</ele><time>2026-03-23T07:05:32.002Z</time></trkpt><trkpt lat="30.143466538588623" lon="-6.8382393234232115"><ele>682.0</ele><time>2026-03-23T07:05:33.002Z</time></trkpt><trkpt lat="30.14349293034518" lon="-6.838079658742774"><ele>682.5</ele><time>2026-03-23T07:05:34.002Z</time></trkpt><trkpt lat="30.143515325538903" lon="-6.83792027371985"><ele>683.0</ele><time>2026-03-23T07:05:35.002Z</time></trkpt><trkpt lat="30.143520747226138" lon="-6.837774463638733"><ele>683.75</ele><time>2026-03-23T07:05:36.002Z</time></trkpt><trkpt lat="30.143526103501546" lon="-6.837625786099449"><ele>684.5</ele><time>2026-03-23T07:05:37.002Z</time></trkpt><trkpt lat="30.143529645831432" lon="-6.837482075076642"><ele>685.25</ele><time>2026-03-23T07:05:38.002Z</time></trkpt><trkpt lat="30.143533133674786" lon="-6.837339236636616"><ele>686.0</ele><time>2026-03-23T07:05:39.002Z</time></trkpt><trkpt lat="30.14353594854664" lon="-6.837197894223814"><ele>686.0</ele><time>2026-03-23T07:05:40.002Z</time></trkpt><trkpt lat="30.143538680970796" lon="-6.837060692438696"><ele>686.0</ele><time>2026-03-23T07:05:41.002Z</time></trkpt><trkpt lat="30.14356732009208" lon="-6.836922497120653"><ele>686.0</ele><time>2026-03-23T07:05:42.002Z</time></trkpt><trkpt lat="30.143587776173245" lon="-6.836781935228803"><ele>686.0</ele><time>2026-03-23T07:05:43.002Z</time></trkpt><trkpt lat="30.1436155885869" lon="-6.8366394219442395"><ele>685.3333333333333</ele><time>2026-03-23T07:05:44.002Z</time></trkpt><trkpt lat="30.1436587906612" lon="-6.836470025618681"><ele>684.6666666666666</ele><time>2026-03-23T07:05:45.002Z</time></trkpt><trkpt lat="30.14371627579023" lon="-6.836284406536195"><ele>684.0</ele><time>2026-03-23T07:05:46.002Z</time></trkpt><trkpt lat="30.143779792278355" lon="-6.8360999337503845"><ele>683.3333333333334</ele><time>2026-03-23T07:05:47.002Z</time></trkpt><trkpt lat="30.143842524185203" lon="-6.835924402393846"><ele>682.6666666666667</ele><time>2026-03-23T07:05:48.002Z</time></trkpt><trkpt lat="30.14389917226153" lon="-6.835762637092864"><ele>682.0</ele><time>2026-03-23T07:05:49.002Z</time></trkpt><trkpt lat="30.143950807794482" lon="-6.835611659103658"><ele>682.0</ele><time>2026-03-23T07:05:50.002Z</time></trkpt><trkpt lat="30.144001417910264" lon="-6.835453204388907"><ele>682.0</ele><time>2026-03-23T07:05:51.002Z</time></trkpt><trkpt lat="30.144041672700865" lon="-6.83528064158795"><ele>682.0</ele><time>2026-03-23T07:05:52.002Z</time></trkpt><trkpt lat="30.144073868019376" lon="-6.835093933732461"><ele>682.6666666666667</ele><time>2026-03-23T07:05:53.003Z</time></trkpt><trkpt lat="30.144101029730752" lon="-6.834893173366438"><ele>683.3333333333334</ele><time>2026-03-23T07:05:54.003Z</time></trkpt><trkpt lat="30.144123926750698" lon="-6.8346930912637855"><ele>684.0</ele><time>2026-03-23T07:05:55.003Z</time></trkpt><trkpt lat="30.14415992943238" lon="-6.834488260639849"><ele>685.0</ele><time>2026-03-23T07:05:56.003Z</time></trkpt><trkpt lat="30.144197669355965" lon="-6.834275843023952"><ele>686.0</ele><time>2026-03-23T07:05:57.003Z</time></trkpt><trkpt lat="30.144224278381884" lon="-6.8340572023294515"><ele>687.0</ele><time>2026-03-23T07:05:58.003Z</time></trkpt><trkpt lat="30.144243392271946" lon="-6.833847761700454"><ele>687.0</ele><time>2026-03-23T07:05:59.003Z</time></trkpt><trkpt lat="30.14426181645621" lon="-6.833651271129109"><ele>687.0</ele><time>2026-03-23T07:06:00.003Z</time></trkpt><trkpt lat="30.144232259319686" lon="-6.833482990942597"><ele>687.0</ele><time>2026-03-23T07:06:01.003Z</time></trkpt><trkpt lat="30.144216468621092" lon="-6.833317830817008"><ele>687.25</ele><time>2026-03-23T07:06:02.003Z</time></trkpt><trkpt lat="30.144201010125236" lon="-6.833160329474389"><ele>687.5</ele><time>2026-03-23T07:06:03.003Z</time></trkpt><trkpt lat="30.144182375739167" lon="-6.832985058407083"><ele>687.75</ele><time>2026-03-23T07:06:04.003Z</time></trkpt><trkpt lat="30.144159236282725" lon="-6.832823303494323"><ele>688.0</ele><time>2026-03-23T07:06:05.003Z</time></trkpt><trkpt lat="30.144121628690137" lon="-6.83265163176997"><ele>688.6666666666667</ele><time>2026-03-23T07:06:06.003Z</time></trkpt><trkpt lat="30.14407401659429" lon="-6.832486220370764"><ele>689.3333333333334</ele><time>2026-03-23T07:06:07.003Z</time></trkpt><trkpt lat="30.144021655261174" lon="-6.832308802191501"><ele>690.0</ele><time>2026-03-23T07:06:08.003Z</time></trkpt><trkpt lat="30.143976293522716" lon="-6.832120961939176"><ele>688.3333333333334</ele><time>2026-03-23T07:06:09.003Z</time></trkpt><trkpt lat="30.143947796407218" lon="-6.831929171311231"><ele>686.6666666666667</ele><time>2026-03-23T07:06:10.003Z</time></trkpt><trkpt lat="30.143911648435942" lon="-6.831747505383253"><ele>685.0</ele><time>2026-03-23T07:06:11.003Z</time></trkpt><trkpt lat="30.14387719530258" lon="-6.831562364090141"><ele>685.0</ele><time>2026-03-23T07:06:12.003Z</time></trkpt><trkpt lat="30.143844148118283" lon="-6.831382282830907"><ele>685.0</ele><time>2026-03-23T07:06:13.003Z</time></trkpt><trkpt lat="30.14381318337592" lon="-6.831198521588219"><ele>685.0</ele><time>2026-03-23T07:06:14.003Z</time></trkpt><trkpt lat="30.14378573122368" lon="-6.831011892388988"><ele>685.3333333333334</ele><time>2026-03-23T07:06:15.003Z</time></trkpt><trkpt lat="30.14376342559956" lon="-6.8308157596354055"><ele>685.6666666666666</ele><time>2026-03-23T07:06:16.003Z</time></trkpt><trkpt lat="30.14375008188715" lon="-6.830608500486944"><ele>686.0</ele><time>2026-03-23T07:06:17.003Z</time></trkpt><trkpt lat="30.1437382473737" lon="-6.830393921134782"><ele>686.0</ele><time>2026-03-23T07:06:18.003Z</time></trkpt><trkpt lat="30.143728667399557" lon="-6.830182288234842"><ele>686.0</ele><time>2026-03-23T07:06:19.003Z</time></trkpt><trkpt lat="30.14371778603818" lon="-6.829980970625525"><ele>686.0</ele><time>2026-03-23T07:06:20.003Z</time></trkpt><trkpt lat="30.143709031797812" lon="-6.829780587117512"><ele>686.0</ele><time>2026-03-23T07:06:21.003Z</time></trkpt><trkpt lat="30.14369934473769" lon="-6.8295899222501255"><ele>686.0</ele><time>2026-03-23T07:06:22.003Z</time></trkpt><trkpt lat="30.14368840534827" lon="-6.829397621293371"><ele>686.0</ele><time>2026-03-23T07:06:23.003Z</time></trkpt><trkpt lat="30.14367680420915" lon="-6.829217223356806"><ele>686.6666666666666</ele><time>2026-03-23T07:06:24.003Z</time></trkpt><trkpt lat="30.143646460534256" lon="-6.82904072529047"><ele>687.3333333333334</ele><time>2026-03-23T07:06:25.003Z</time></trkpt><trkpt lat="30.143634247959696" lon="-6.828866967440675"><ele>688.0</ele><time>2026-03-23T07:06:26.003Z</time></trkpt><trkpt lat="30.14362210078369" lon="-6.82869629267891"><ele>688.0</ele><time>2026-03-23T07:06:27.003Z</time></trkpt><trkpt lat="30.14361772806524" lon="-6.828541587457518"><ele>688.0</ele><time>2026-03-23T07:06:28.003Z</time></trkpt><trkpt lat="30.143628707155735" lon="-6.8283883488869686"><ele>688.0</ele><time>2026-03-23T07:06:29.003Z</time></trkpt><trkpt lat="30.14361140663794" lon="-6.828233754089266"><ele>688.0</ele><time>2026-03-23T07:06:30.003Z</time></trkpt><trkpt lat="30.14360616424372" lon="-6.828073185078826"><ele>687.75</ele><time>2026-03-23T07:06:31.003Z</time></trkpt><trkpt lat="30.143598549126345" lon="-6.827906841167825"><ele>687.5</ele><time>2026-03-23T07:06:32.003Z</time></trkpt><trkpt lat="30.14359313870889" lon="-6.82774196340403"><ele>687.25</ele><time>2026-03-23T07:06:33.003Z</time></trkpt><trkpt lat="30.1435847364916" lon="-6.827572649196092"><ele>687.0</ele><time>2026-03-23T07:06:34.003Z</time></trkpt><trkpt lat="30.14358368013844" lon="-6.827391515429783"><ele>687.0</ele><time>2026-03-23T07:06:35.003Z</time></trkpt><trkpt lat="30.14358430590823" lon="-6.8272012975891085"><ele>687.0</ele><time>2026-03-23T07:06:36.003Z</time></trkpt><trkpt lat="30.14358304627259" lon="-6.8270120271057735"><ele>687.0</ele><time>2026-03-23T07:06:37.003Z</time></trkpt><trkpt lat="30.143581179398538" lon="-6.826836046637878"><ele>687.25</ele><time>2026-03-23T07:06:38.003Z</time></trkpt><trkpt lat="30.143572638544523" lon="-6.826664468747842"><ele>687.5</ele><time>2026-03-23T07:06:39.003Z</time></trkpt><trkpt lat="30.14356333569995" lon="-6.82649907111363"><ele>687.75</ele><time>2026-03-23T07:06:40.003Z</time></trkpt><trkpt lat="30.14355932213036" lon="-6.826332365863185"><ele>688.0</ele><time>2026-03-23T07:06:41.003Z</time></trkpt><trkpt lat="30.143568165736987" lon="-6.826171781988519"><ele>688.0</ele><time>2026-03-23T07:06:42.003Z</time></trkpt><trkpt lat="30.143575361615714" lon="-6.82601671543796"><ele>688.0</ele><time>2026-03-23T07:06:43.003Z</time></trkpt><trkpt lat="30.143577887000887" lon="-6.825859562583477"><ele>688.0</ele><time>2026-03-23T07:06:44.003Z</time></trkpt><trkpt lat="30.143579800887572" lon="-6.8257022952299895"><ele>688.0</ele><time>2026-03-23T07:06:45.003Z</time></trkpt><trkpt lat="30.14357966027286" lon="-6.82554103810821"><ele>688.75</ele><time>2026-03-23T07:06:46.003Z</time></trkpt><trkpt lat="30.143576118284898" lon="-6.825378170678794"><ele>689.5</ele><time>2026-03-23T07:06:47.003Z</time></trkpt><trkpt lat="30.143575950617798" lon="-6.825212379831943"><ele>690.25</ele><time>2026-03-23T07:06:48.003Z</time></trkpt><trkpt lat="30.143586489018674" lon="-6.825044381528824"><ele>691.0</ele><time>2026-03-23T07:06:49.003Z</time></trkpt><trkpt lat="30.143609728331707" lon="-6.82489230102123"><ele>691.5</ele><time>2026-03-23T07:06:50.003Z</time></trkpt><trkpt lat="30.143628675521658" lon="-6.824747087391384"><ele>692.0</ele><time>2026-03-23T07:06:51.003Z</time></trkpt><trkpt lat="30.14365191273559" lon="-6.824615077889282"><ele>692.5</ele><time>2026-03-23T07:06:52.003Z</time></trkpt><trkpt lat="30.14366878697352" lon="-6.824483669550821"><ele>693.0</ele><time>2026-03-23T07:06:53.003Z</time></trkpt><trkpt lat="30.143693000693805" lon="-6.824357887513606"><ele>693.2</ele><time>2026-03-23T07:06:54.003Z</time></trkpt><trkpt lat="30.143699228311707" lon="-6.8242237434241515"><ele>693.4</ele><time>2026-03-23T07:06:55.003Z</time></trkpt><trkpt lat="30.14371908253558" lon="-6.8241060670835845"><ele>693.6</ele><time>2026-03-23T07:06:56.003Z</time></trkpt><trkpt lat="30.143746717219926" lon="-6.823995361976196"><ele>693.8000000000001</ele><time>2026-03-23T07:06:57.003Z</time></trkpt><trkpt lat="30.14377373005049" lon="-6.823872410688735"><ele>694.0</ele><time>2026-03-23T07:06:58.003Z</time></trkpt><trkpt lat="30.143795617124145" lon="-6.823750262125678"><ele>694.0</ele><time>2026-03-23T07:06:59.003Z</time></trkpt><trkpt lat="30.14382070571039" lon="-6.823620729680123"><ele>694.0</ele><time>2026-03-23T07:07:00.003Z</time></trkpt><trkpt lat="30.143847221237994" lon="-6.823483171658737"><ele>694.0</ele><time>2026-03-23T07:07:01.003Z</time></trkpt><trkpt lat="30.143864316807445" lon="-6.823348334468986"><ele>694.0</ele><time>2026-03-23T07:07:02.003Z</time></trkpt><trkpt lat="30.14387164518527" lon="-6.823218283033252"><ele>694.0</ele><time>2026-03-23T07:07:03.003Z</time></trkpt><trkpt lat="30.143868015600976" lon="-6.823087574309368"><ele>694.0</ele><time>2026-03-23T07:07:04.003Z</time></trkpt><trkpt lat="30.14386912230124" lon="-6.822961585076377"><ele>694.0</ele><time>2026-03-23T07:07:05.003Z</time></trkpt><trkpt lat="30.14386992395528" lon="-6.822840776900173"><ele>694.0</ele><time>2026-03-23T07:07:06.003Z</time></trkpt><trkpt lat="30.143866291365185" lon="-6.822719687003705"><ele>694.0</ele><time>2026-03-23T07:07:07.003Z</time></trkpt><trkpt lat="30.143869904693673" lon="-6.822602296924992"><ele>694.0</ele><time>2026-03-23T07:07:08.003Z</time></trkpt><trkpt lat="30.143872228663582" lon="-6.82247742517497"><ele>694.0</ele><time>2026-03-23T07:07:09.003Z</time></trkpt><trkpt lat="30.143862017212747" lon="-6.822342474975407"><ele>694.0</ele><time>2026-03-23T07:07:10.003Z</time></trkpt><trkpt lat="30.143867412694913" lon="-6.8222122207682085"><ele>694.0</ele><time>2026-03-23T07:07:11.003Z</time></trkpt><trkpt lat="30.14386577206936" lon="-6.822072314344184"><ele>694.0</ele><time>2026-03-23T07:07:12.003Z</time></trkpt><trkpt lat="30.143857486033802" lon="-6.8219284576868136"><ele>694.0</ele><time>2026-03-23T07:07:13.003Z</time></trkpt><trkpt lat="30.143847550742155" lon="-6.8217883893250635"><ele>694.0</ele><time>2026-03-23T07:07:14.003Z</time></trkpt><trkpt lat="30.143830020508158" lon="-6.821651137100947"><ele>694.0</ele><time>2026-03-23T07:07:15.003Z</time></trkpt><trkpt lat="30.14380782881571" lon="-6.821523107718524"><ele>694.0</ele><time>2026-03-23T07:07:16.003Z</time></trkpt><trkpt lat="30.143771603318744" lon="-6.821395213815451"><ele>694.0</ele><time>2026-03-23T07:07:17.003Z</time></trkpt><trkpt lat="30.143726089116758" lon="-6.821267405587785"><ele>694.0</ele><time>2026-03-23T07:07:18.003Z</time></trkpt><trkpt lat="30.14366270767777" lon="-6.821144225678642"><ele>694.0</ele><time>2026-03-23T07:07:19.003Z</time></trkpt><trkpt lat="30.14355524249924" lon="-6.821027871393082"><ele>694.25</ele><time>2026-03-23T07:07:20.003Z</time></trkpt><trkpt lat="30.143456820746245" lon="-6.820885534447942"><ele>694.5</ele><time>2026-03-23T07:07:21.003Z</time></trkpt><trkpt lat="30.1433724013803" lon="-6.820762669666287"><ele>694.75</ele><time>2026-03-23T07:07:22.003Z</time></trkpt><trkpt lat="30.143305468458184" lon="-6.820634321228446"><ele>695.0</ele><time>2026-03-23T07:07:23.003Z</time></trkpt><trkpt lat="30.143219025970414" lon="-6.820527306829463"><ele>693.75</ele><time>2026-03-23T07:07:24.003Z</time></trkpt><trkpt lat="30.143135929768988" lon="-6.820419820969298"><ele>692.5</ele><time>2026-03-23T07:07:25.003Z</time></trkpt><trkpt lat="30.143041569360566" lon="-6.820341555367416"><ele>691.25</ele><time>2026-03-23T07:07:26.003Z</time></trkpt><trkpt lat="30.142957496771054" lon="-6.820253944378368"><ele>690.0</ele><time>2026-03-23T07:07:27.003Z</time></trkpt><trkpt lat="30.142877719476207" lon="-6.8201708093816595"><ele>690.4</ele><time>2026-03-23T07:07:28.003Z</time></trkpt><trkpt lat="30.14279991984303" lon="-6.820082961222658"><ele>690.8</ele><time>2026-03-23T07:07:29.003Z</time></trkpt><trkpt lat="30.142733262427935" lon="-6.819967631117411"><ele>691.2</ele><time>2026-03-23T07:07:30.003Z</time></trkpt><trkpt lat="30.14266807294357" lon="-6.819868064737943"><ele>691.6</ele><time>2026-03-23T07:07:31.003Z</time></trkpt><trkpt lat="30.142606068210608" lon="-6.819760318540226"><ele>692.0</ele><time>2026-03-23T07:07:32.003Z</time></trkpt><trkpt lat="30.14254082217612" lon="-6.819645778564426"><ele>692.0</ele><time>2026-03-23T07:07:33.003Z</time></trkpt><trkpt lat="30.142465111344695" lon="-6.819516139079588"><ele>692.0</ele><time>2026-03-23T07:07:34.003Z</time></trkpt><trkpt lat="30.14238064276395" lon="-6.8194161379823885"><ele>692.0</ele><time>2026-03-23T07:07:35.003Z</time></trkpt><trkpt lat="30.142310062386287" lon="-6.819309042358566"><ele>692.0</ele><time>2026-03-23T07:07:36.003Z</time></trkpt><trkpt lat="30.14223843207455" lon="-6.819199824365391"><ele>691.75</ele><time>2026-03-23T07:07:37.003Z</time></trkpt><trkpt lat="30.14218029411883" lon="-6.819076637785223"><ele>691.5</ele><time>2026-03-23T07:07:38.003Z</time></trkpt><trkpt lat="30.142102906998293" lon="-6.818962610872963"><ele>691.25</ele><time>2026-03-23T07:07:39.003Z</time></trkpt><trkpt lat="30.142035992831797" lon="-6.818858190202127"><ele>691.0</ele><time>2026-03-23T07:07:40.003Z</time></trkpt><trkpt lat="30.141974134179677" lon="-6.818761456656446"><ele>691.0</ele><time>2026-03-23T07:07:41.003Z</time></trkpt><trkpt lat="30.14191578910151" lon="-6.818673514222615"><ele>691.0</ele><time>2026-03-23T07:07:42.003Z</time></trkpt><trkpt lat="30.14185421744521" lon="-6.818581367573479"><ele>691.0</ele><time>2026-03-23T07:07:43.003Z</time></trkpt><trkpt lat="30.14179040155934" lon="-6.818487070663642"><ele>691.0</ele><time>2026-03-23T07:07:44.003Z</time></trkpt><trkpt lat="30.141721857032447" lon="-6.818411343030575"><ele>691.0</ele><time>2026-03-23T07:07:45.003Z</time></trkpt><trkpt lat="30.14169913064193" lon="-6.818292136345797"><ele>691.75</ele><time>2026-03-23T07:07:46.003Z</time></trkpt><trkpt lat="30.141677880815344" lon="-6.818162658485327"><ele>692.5</ele><time>2026-03-23T07:07:47.003Z</time></trkpt><trkpt lat="30.141651580409206" lon="-6.81803170054672"><ele>693.25</ele><time>2026-03-23T07:07:48.003Z</time></trkpt><trkpt lat="30.141623994594333" lon="-6.8178888300973695"><ele>694.0</ele><time>2026-03-23T07:07:49.003Z</time></trkpt><trkpt lat="30.141594482714222" lon="-6.817745983633332"><ele>694.0</ele><time>2026-03-23T07:07:50.003Z</time></trkpt><trkpt lat="30.141561881690834" lon="-6.817603953180497"><ele>694.0</ele><time>2026-03-23T07:07:51.003Z</time></trkpt><trkpt lat="30.141523416730745" lon="-6.817470551404853"><ele>694.0</ele><time>2026-03-23T07:07:52.003Z</time></trkpt><trkpt lat="30.141479103359476" lon="-6.817340778370493"><ele>694.0</ele><time>2026-03-23T07:07:53.003Z</time></trkpt><trkpt lat="30.141433395986933" lon="-6.81721217965227"><ele>693.0</ele><time>2026-03-23T07:07:54.003Z</time></trkpt><trkpt lat="30.14139133337284" lon="-6.817084309388284"><ele>692.0</ele><time>2026-03-23T07:07:55.003Z</time></trkpt><trkpt lat="30.14135043292975" lon="-6.816948145979454"><ele>691.0</ele><time>2026-03-23T07:07:56.003Z</time></trkpt><trkpt lat="30.141303467307516" lon="-6.816794462041727"><ele>690.0</ele><time>2026-03-23T07:07:57.003Z</time></trkpt><trkpt lat="30.141261681742133" lon="-6.816633703885019"><ele>690.0</ele><time>2026-03-23T07:07:58.003Z</time></trkpt><trkpt lat="30.141225890160946" lon="-6.816487110301564"><ele>690.0</ele><time>2026-03-23T07:07:59.003Z</time></trkpt><trkpt lat="30.141192788740483" lon="-6.81634304650716"><ele>690.0</ele><time>2026-03-23T07:08:00.003Z</time></trkpt><trkpt lat="30.141171074467657" lon="-6.816203180048071"><ele>690.0</ele><time>2026-03-23T07:08:01.003Z</time></trkpt><trkpt lat="30.141160283344067" lon="-6.8160618659004895"><ele>690.0</ele><time>2026-03-23T07:08:02.003Z</time></trkpt><trkpt lat="30.14113767943561" lon="-6.815918463882319"><ele>690.0</ele><time>2026-03-23T07:08:03.003Z</time></trkpt><trkpt lat="30.1411546695403" lon="-6.815778166934416"><ele>690.0</ele><time>2026-03-23T07:08:04.003Z</time></trkpt><trkpt lat="30.141154033352297" lon="-6.815635129337529"><ele>690.0</ele><time>2026-03-23T07:08:05.003Z</time></trkpt><trkpt lat="30.14115409072263" lon="-6.81549085438708"><ele>690.0</ele><time>2026-03-23T07:08:06.003Z</time></trkpt><trkpt lat="30.14115329863306" lon="-6.815344534912395"><ele>690.0</ele><time>2026-03-23T07:08:07.003Z</time></trkpt><trkpt lat="30.141145417769803" lon="-6.815197851663823"><ele>690.0</ele><time>2026-03-23T07:08:08.003Z</time></trkpt><trkpt lat="30.141114262280414" lon="-6.815062484887171"><ele>690.0</ele><time>2026-03-23T07:08:09.003Z</time></trkpt><trkpt lat="30.141110595872227" lon="-6.8149147323909185"><ele>690.5</ele><time>2026-03-23T07:08:10.003Z</time></trkpt><trkpt lat="30.14113148030764" lon="-6.814775024649698"><ele>691.0</ele><time>2026-03-23T07:08:11.003Z</time></trkpt><trkpt lat="30.141151890165546" lon="-6.814620599071566"><ele>691.5</ele><time>2026-03-23T07:08:12.003Z</time></trkpt><trkpt lat="30.14116056916496" lon="-6.814464364587519"><ele>692.0</ele><time>2026-03-23T07:08:13.003Z</time></trkpt><trkpt lat="30.141207890698503" lon="-6.814325904275359"><ele>692.5</ele><time>2026-03-23T07:08:14.003Z</time></trkpt><trkpt lat="30.141225053955278" lon="-6.814230512219204"><ele>693.0</ele><time>2026-03-23T07:08:15.003Z</time></trkpt><trkpt lat="30.14123206703533" lon="-6.814153843574384"><ele>693.5</ele><time>2026-03-23T07:08:16.003Z</time></trkpt><trkpt lat="30.141242762319553" lon="-6.814075381108024"><ele>694.0</ele><time>2026-03-23T07:08:17.003Z</time></trkpt><trkpt lat="30.14126988635245" lon="-6.813963228301"><ele>694.5</ele><time>2026-03-23T07:08:19.003Z</time></trkpt><trkpt lat="30.141288163976643" lon="-6.813889993729292"><ele>695.0</ele><time>2026-03-23T07:08:21.003Z</time></trkpt><trkpt lat="30.14131147327262" lon="-6.813803786190372"><ele>695.0</ele><time>2026-03-23T07:08:25.003Z</time></trkpt><trkpt lat="30.14133086811917" lon="-6.813718958310547"><ele>695.0</ele><time>2026-03-23T07:08:29.003Z</time></trkpt><trkpt lat="30.14131855389152" lon="-6.813633992591869"><ele>695.0</ele><time>2026-03-23T07:08:34.003Z</time></trkpt><trkpt lat="30.141120387434462" lon="-6.813533713928846"><ele>695.0</ele><time>2026-03-23T07:08:38.003Z</time></trkpt><trkpt lat="30.14104029472974" lon="-6.813510162650225"><ele>695.0</ele><time>2026-03-23T07:08:40.003Z</time></trkpt><trkpt lat="30.140977130116653" lon="-6.813518917891912"><ele>695.0</ele><time>2026-03-23T07:08:43.003Z</time></trkpt><trkpt lat="30.14104063757467" lon="-6.813545108661523"><ele>695.0</ele><time>2026-03-23T07:08:54.003Z</time></trkpt><trkpt lat="30.141108194553393" lon="-6.813522956921735"><ele>695.0</ele><time>2026-03-23T07:08:56.003Z</time></trkpt><trkpt lat="30.14117923003341" lon="-6.813542433164239"><ele>695.0</ele><time>2026-03-23T07:08:59.003Z</time></trkpt><trkpt lat="30.141260453375917" lon="-6.813617883268687"><ele>695.0</ele><time>2026-03-23T07:09:01.003Z</time></trkpt><trkpt lat="30.141299263453643" lon="-6.813677546259042"><ele>695.0</ele><time>2026-03-23T07:09:03.003Z</time></trkpt><trkpt lat="30.141310452967872" lon="-6.813773084893133"><ele>695.0</ele><time>2026-03-23T07:09:05.003Z</time></trkpt><trkpt lat="30.1413129618635" lon="-6.813865531478029"><ele>695.0</ele><time>2026-03-23T07:09:06.003Z</time></trkpt><trkpt lat="30.14130280000933" lon="-6.813960679627641"><ele>695.0</ele><time>2026-03-23T07:09:07.003Z</time></trkpt><trkpt lat="30.141279583801197" lon="-6.814071209724246"><ele>695.0</ele><time>2026-03-23T07:09:08.003Z</time></trkpt><trkpt lat="30.141250557188595" lon="-6.814192356420798"><ele>695.0</ele><time>2026-03-23T07:09:09.003Z</time></trkpt><trkpt lat="30.141221546736936" lon="-6.8143411779541125"><ele>694.25</ele><time>2026-03-23T07:09:10.003Z</time></trkpt><trkpt lat="30.14119803753197" lon="-6.814498789963521"><ele>693.5</ele><time>2026-03-23T07:09:11.003Z</time></trkpt><trkpt lat="30.14117248636554" lon="-6.814654280079258"><ele>692.75</ele><time>2026-03-23T07:09:12.003Z</time></trkpt><trkpt lat="30.141161211793136" lon="-6.814792450860467"><ele>692.0</ele><time>2026-03-23T07:09:13.003Z</time></trkpt><trkpt lat="30.141161106931996" lon="-6.814921093571011"><ele>692.0</ele><time>2026-03-23T07:09:14.003Z</time></trkpt><trkpt lat="30.141161278902345" lon="-6.815030809167343"><ele>692.0</ele><time>2026-03-23T07:09:15.003Z</time></trkpt><trkpt lat="30.141172652312548" lon="-6.8151335782036275"><ele>692.0</ele><time>2026-03-23T07:09:16.003Z</time></trkpt><trkpt lat="30.141180233290104" lon="-6.815233284822343"><ele>692.0</ele><time>2026-03-23T07:09:17.003Z</time></trkpt><trkpt lat="30.141185908293068" lon="-6.815320471710828"><ele>692.0</ele><time>2026-03-23T07:09:18.003Z</time></trkpt><trkpt lat="30.14118912239335" lon="-6.8153989017962555"><ele>692.0</ele><time>2026-03-23T07:09:19.003Z</time></trkpt><trkpt lat="30.14118498260629" lon="-6.815480123607883"><ele>691.6</ele><time>2026-03-23T07:09:20.003Z</time></trkpt><trkpt lat="30.141169845945708" lon="-6.81556848880524"><ele>691.2</ele><time>2026-03-23T07:09:22.003Z</time></trkpt><trkpt lat="30.141095315764254" lon="-6.815567332730398"><ele>690.8</ele><time>2026-03-23T07:09:29.003Z</time></trkpt><trkpt lat="30.14100914300844" lon="-6.815441340096281"><ele>690.4</ele><time>2026-03-23T07:09:31.003Z</time></trkpt><trkpt lat="30.140942535848694" lon="-6.81535706912971"><ele>690.0</ele><time>2026-03-23T07:09:32.003Z</time></trkpt><trkpt lat="30.140882899384916" lon="-6.815270806443284"><ele>690.0</ele><time>2026-03-23T07:09:33.003Z</time></trkpt><trkpt lat="30.140843655866266" lon="-6.815189878066254"><ele>690.0</ele><time>2026-03-23T07:09:34.003Z</time></trkpt><trkpt lat="30.140815533516182" lon="-6.815111852439948"><ele>690.0</ele><time>2026-03-23T07:09:35.003Z</time></trkpt><trkpt lat="30.140794795308665" lon="-6.8150364497377085"><ele>690.0</ele><time>2026-03-23T07:09:36.003Z</time></trkpt><trkpt lat="30.140768770599646" lon="-6.814953172141331"><ele>690.0</ele><time>2026-03-23T07:09:37.003Z</time></trkpt><trkpt lat="30.14073352126268" lon="-6.8148771059598365"><ele>690.0</ele><time>2026-03-23T07:09:38.003Z</time></trkpt><trkpt lat="30.14067212651066" lon="-6.814796564959068"><ele>690.4</ele><time>2026-03-23T07:09:39.003Z</time></trkpt><trkpt lat="30.14061077754927" lon="-6.814701936874578"><ele>690.8</ele><time>2026-03-23T07:09:40.003Z</time></trkpt><trkpt lat="30.140548487974694" lon="-6.814611154437458"><ele>691.2</ele><time>2026-03-23T07:09:41.003Z</time></trkpt><trkpt lat="30.140492991287516" lon="-6.814529770155377"><ele>691.6</ele><time>2026-03-23T07:09:42.003Z</time></trkpt><trkpt lat="30.140428125801733" lon="-6.814452305584328"><ele>692.0</ele><time>2026-03-23T07:09:43.003Z</time></trkpt><trkpt lat="30.140355397739807" lon="-6.814371521676066"><ele>692.2</ele><time>2026-03-23T07:09:44.003Z</time></trkpt><trkpt lat="30.140274543555712" lon="-6.81429133016576"><ele>692.4000000000001</ele><time>2026-03-23T07:09:45.003Z</time></trkpt><trkpt lat="30.140192172851524" lon="-6.814207062467684"><ele>692.5999999999999</ele><time>2026-03-23T07:09:46.003Z</time></trkpt><trkpt lat="30.14010913823452" lon="-6.8141329195184355"><ele>692.8</ele><time>2026-03-23T07:09:47.003Z</time></trkpt><trkpt lat="30.14002833566266" lon="-6.8140540931706"><ele>693.0</ele><time>2026-03-23T07:09:48.003Z</time></trkpt><trkpt lat="30.139946508428668" lon="-6.813965564588271"><ele>692.75</ele><time>2026-03-23T07:09:49.003Z</time></trkpt><trkpt lat="30.139858670793956" lon="-6.813856031477538"><ele>692.5</ele><time>2026-03-23T07:09:50.003Z</time></trkpt><trkpt lat="30.1397660620177" lon="-6.813731965881331"><ele>692.25</ele><time>2026-03-23T07:09:51.003Z</time></trkpt><trkpt lat="30.1396644278604" lon="-6.8136130899487215"><ele>692.0</ele><time>2026-03-23T07:09:52.003Z</time></trkpt><trkpt lat="30.13957702348684" lon="-6.813507138588887"><ele>691.75</ele><time>2026-03-23T07:09:53.003Z</time></trkpt><trkpt lat="30.139494649684856" lon="-6.813407257749528"><ele>691.5</ele><time>2026-03-23T07:09:54.003Z</time></trkpt><trkpt lat="30.139419418703888" lon="-6.813305254743728"><ele>691.25</ele><time>2026-03-23T07:09:55.003Z</time></trkpt><trkpt lat="30.139343575719124" lon="-6.813207164293184"><ele>691.0</ele><time>2026-03-23T07:09:56.003Z</time></trkpt><trkpt lat="30.139270704975516" lon="-6.813091552305574"><ele>691.0</ele><time>2026-03-23T07:09:57.003Z</time></trkpt><trkpt lat="30.139200229263142" lon="-6.8129748408899875"><ele>691.0</ele><time>2026-03-23T07:09:58.003Z</time></trkpt><trkpt lat="30.13913478011541" lon="-6.812861407427962"><ele>691.0</ele><time>2026-03-23T07:09:59.003Z</time></trkpt><trkpt lat="30.13907927226787" lon="-6.812757416808715"><ele>691.0</ele><time>2026-03-23T07:10:00.003Z</time></trkpt><trkpt lat="30.139014366181403" lon="-6.812650865660231"><ele>691.25</ele><time>2026-03-23T07:10:01.003Z</time></trkpt><trkpt lat="30.13894728204212" lon="-6.812542044814965"><ele>691.5</ele><time>2026-03-23T07:10:02.003Z</time></trkpt><trkpt lat="30.13888620577784" lon="-6.8124271237753"><ele>691.75</ele><time>2026-03-23T07:10:03.003Z</time></trkpt><trkpt lat="30.138839547872976" lon="-6.8123085248225586"><ele>692.0</ele><time>2026-03-23T07:10:04.003Z</time></trkpt><trkpt lat="30.138794186136955" lon="-6.812181295970888"><ele>692.0</ele><time>2026-03-23T07:10:05.003Z</time></trkpt><trkpt lat="30.13873507037528" lon="-6.812066669235135"><ele>692.0</ele><time>2026-03-23T07:10:06.003Z</time></trkpt><trkpt lat="30.138666914776042" lon="-6.811964358237492"><ele>692.0</ele><time>2026-03-23T07:10:07.003Z</time></trkpt><trkpt lat="30.138595852709354" lon="-6.811874460652098"><ele>692.0</ele><time>2026-03-23T07:10:08.003Z</time></trkpt><trkpt lat="30.13853937490722" lon="-6.811800340294907"><ele>692.0</ele><time>2026-03-23T07:10:09.003Z</time></trkpt><trkpt lat="30.13848771354723" lon="-6.81171663206581"><ele>692.4000000000001</ele><time>2026-03-23T07:10:10.003Z</time></trkpt><trkpt lat="30.138443876087937" lon="-6.811623663818771"><ele>692.8000000000001</ele><time>2026-03-23T07:10:11.003Z</time></trkpt><trkpt lat="30.13839435399571" lon="-6.811528950874083"><ele>693.2</ele><time>2026-03-23T07:10:12.003Z</time></trkpt><trkpt lat="30.138344967537538" lon="-6.811427378802216"><ele>693.6</ele><time>2026-03-23T07:10:13.003Z</time></trkpt><trkpt lat="30.1382960550689" lon="-6.811325808427435"><ele>694.0</ele><time>2026-03-23T07:10:14.003Z</time></trkpt><trkpt lat="30.138250018561745" lon="-6.811225730210123"><ele>693.5</ele><time>2026-03-23T07:10:15.003Z</time></trkpt><trkpt lat="30.138207159612357" lon="-6.8111275406517615"><ele>693.0</ele><time>2026-03-23T07:10:16.003Z</time></trkpt><trkpt lat="30.138166475153326" lon="-6.811038208362319"><ele>692.5</ele><time>2026-03-23T07:10:17.003Z</time></trkpt><trkpt lat="30.138122703271765" lon="-6.8109628500727455"><ele>692.0</ele><time>2026-03-23T07:10:18.003Z</time></trkpt><trkpt lat="30.138081947302517" lon="-6.810871554585456"><ele>691.5</ele><time>2026-03-23T07:10:19.003Z</time></trkpt><trkpt lat="30.138042247626228" lon="-6.810781015086566"><ele>691.0</ele><time>2026-03-23T07:10:20.003Z</time></trkpt><trkpt lat="30.137990712738997" lon="-6.8106850889504384"><ele>691.0</ele><time>2026-03-23T07:10:21.003Z</time></trkpt><trkpt lat="30.137927113700712" lon="-6.8105901687270745"><ele>691.0</ele><time>2026-03-23T07:10:22.003Z</time></trkpt><trkpt lat="30.137886748893656" lon="-6.81048702831113"><ele>691.0</ele><time>2026-03-23T07:10:23.003Z</time></trkpt><trkpt lat="30.13784485851427" lon="-6.810404523025647"><ele>691.0</ele><time>2026-03-23T07:10:24.003Z</time></trkpt><trkpt lat="30.137815380989103" lon="-6.810325887132792"><ele>691.0</ele><time>2026-03-23T07:10:25.003Z</time></trkpt><trkpt lat="30.13778629522225" lon="-6.810247364684398"><ele>691.0</ele><time>2026-03-23T07:10:26.003Z</time></trkpt><trkpt lat="30.137764521878715" lon="-6.810164591678901"><ele>691.0</ele><time>2026-03-23T07:10:27.003Z</time></trkpt><trkpt lat="30.13774021586968" lon="-6.81006837619126"><ele>691.0</ele><time>2026-03-23T07:10:28.003Z</time></trkpt><trkpt lat="30.13771023436658" lon="-6.8099707157749405"><ele>691.0</ele><time>2026-03-23T07:10:29.003Z</time></trkpt><trkpt lat="30.137686798817718" lon="-6.809879638164575"><ele>691.0</ele><time>2026-03-23T07:10:30.003Z</time></trkpt><trkpt lat="30.137651040266714" lon="-6.809797800719666"><ele>691.0</ele><time>2026-03-23T07:10:31.003Z</time></trkpt><trkpt lat="30.137603685781826" lon="-6.809723516914622"><ele>691.0</ele><time>2026-03-23T07:10:32.003Z</time></trkpt><trkpt lat="30.13752915763282" lon="-6.809647117843711"><ele>691.0</ele><time>2026-03-23T07:10:33.003Z</time></trkpt><trkpt lat="30.137449701427123" lon="-6.809579827251985"><ele>691.0</ele><time>2026-03-23T07:10:34.003Z</time></trkpt><trkpt lat="30.137365447516355" lon="-6.809511061068014"><ele>691.0</ele><time>2026-03-23T07:10:35.003Z</time></trkpt><trkpt lat="30.13728459342725" lon="-6.809452399877986"><ele>691.0</ele><time>2026-03-23T07:10:36.003Z</time></trkpt><trkpt lat="30.137201464239368" lon="-6.809407146135941"><ele>691.0</ele><time>2026-03-23T07:10:37.003Z</time></trkpt><trkpt lat="30.137117278153337" lon="-6.80936353214114"><ele>690.8333333333334</ele><time>2026-03-23T07:10:38.003Z</time></trkpt><trkpt lat="30.137034413911405" lon="-6.809332125622037"><ele>690.6666666666667</ele><time>2026-03-23T07:10:39.003Z</time></trkpt><trkpt lat="30.13696346601092" lon="-6.809297266191346"><ele>690.5</ele><time>2026-03-23T07:10:40.003Z</time></trkpt><trkpt lat="30.13690811193217" lon="-6.8092396563168185"><ele>690.3333333333334</ele><time>2026-03-23T07:10:41.003Z</time></trkpt><trkpt lat="30.136889442753997" lon="-6.809140051810192"><ele>690.1666666666666</ele><time>2026-03-23T07:10:42.003Z</time></trkpt><trkpt lat="30.136889716306005" lon="-6.809032056279195"><ele>690.0</ele><time>2026-03-23T07:10:43.003Z</time></trkpt><trkpt lat="30.136906340297998" lon="-6.808924825038938"><ele>690.0</ele><time>2026-03-23T07:10:44.003Z</time></trkpt><trkpt lat="30.136909573107772" lon="-6.8088056192814195"><ele>690.0</ele><time>2026-03-23T07:10:45.003Z</time></trkpt><trkpt lat="30.136909574477613" lon="-6.808707698767608"><ele>690.0</ele><time>2026-03-23T07:10:46.003Z</time></trkpt><trkpt lat="30.136913241608752" lon="-6.80862488121159"><ele>690.0</ele><time>2026-03-23T07:10:47.003Z</time></trkpt><trkpt lat="30.13691583328534" lon="-6.808526172162548"><ele>690.0</ele><time>2026-03-23T07:10:48.003Z</time></trkpt><trkpt lat="30.13691614839576" lon="-6.808435333352443"><ele>690.0</ele><time>2026-03-23T07:10:49.003Z</time></trkpt><trkpt lat="30.136914041836654" lon="-6.808337113478532"><ele>690.0</ele><time>2026-03-23T07:10:50.003Z</time></trkpt><trkpt lat="30.13690186544025" lon="-6.8082394812839935"><ele>690.0</ele><time>2026-03-23T07:10:51.003Z</time></trkpt><trkpt lat="30.136901988047516" lon="-6.808143886107198"><ele>690.0</ele><time>2026-03-23T07:10:52.003Z</time></trkpt><trkpt lat="30.136897586505388" lon="-6.808054612229256"><ele>690.0</ele><time>2026-03-23T07:10:53.003Z</time></trkpt><trkpt lat="30.136895713057665" lon="-6.807977952902663"><ele>690.0</ele><time>2026-03-23T07:10:54.003Z</time></trkpt><trkpt lat="30.1368826819181" lon="-6.807866369063239"><ele>690.0</ele><time>2026-03-23T07:10:56.003Z</time></trkpt><trkpt lat="30.136872505136363" lon="-6.80775744539599"><ele>690.4</ele><time>2026-03-23T07:10:58.003Z</time></trkpt><trkpt lat="30.136850490839585" lon="-6.807636155051732"><ele>690.8</ele><time>2026-03-23T07:11:00.003Z</time></trkpt><trkpt lat="30.136818570583454" lon="-6.807502964148088"><ele>691.2</ele><time>2026-03-23T07:11:02.003Z</time></trkpt><trkpt lat="30.13680625691004" lon="-6.807421455882586"><ele>691.6</ele><time>2026-03-23T07:11:03.003Z</time></trkpt><trkpt lat="30.13679355045997" lon="-6.807324122069226"><ele>692.0</ele><time>2026-03-23T07:11:04.003Z</time></trkpt><trkpt lat="30.136779521199838" lon="-6.80723050093034"><ele>692.0</ele><time>2026-03-23T07:11:05.003Z</time></trkpt><trkpt lat="30.136767418098056" lon="-6.8071479407287345"><ele>692.0</ele><time>2026-03-23T07:11:06.003Z</time></trkpt><trkpt lat="30.13676169126242" lon="-6.807072924829491"><ele>692.0</ele><time>2026-03-23T07:11:07.003Z</time></trkpt><trkpt lat="30.136752755855852" lon="-6.806977081543713"><ele>692.0</ele><time>2026-03-23T07:11:08.003Z</time></trkpt><trkpt lat="30.13672990470689" lon="-6.806861285963657"><ele>692.0</ele><time>2026-03-23T07:11:09.003Z</time></trkpt><trkpt lat="30.136699899320732" lon="-6.8067373809340594"><ele>692.0</ele><time>2026-03-23T07:11:10.003Z</time></trkpt><trkpt lat="30.13668046243031" lon="-6.8066395948075895"><ele>692.1666666666666</ele><time>2026-03-23T07:11:11.003Z</time></trkpt><trkpt lat="30.136666097304648" lon="-6.806544069759338"><ele>692.3333333333333</ele><time>2026-03-23T07:11:12.003Z</time></trkpt><trkpt lat="30.136657261002405" lon="-6.806463010109431"><ele>692.5</ele><time>2026-03-23T07:11:13.003Z</time></trkpt><trkpt lat="30.13664512867269" lon="-6.806370629377654"><ele>692.6666666666666</ele><time>2026-03-23T07:11:14.003Z</time></trkpt><trkpt lat="30.136617993787983" lon="-6.806262684444219"><ele>692.8333333333334</ele><time>2026-03-23T07:11:15.003Z</time></trkpt><trkpt lat="30.13659471845483" lon="-6.806170275613503"><ele>693.0</ele><time>2026-03-23T07:11:16.004Z</time></trkpt><trkpt lat="30.136566876752784" lon="-6.806097895174318"><ele>692.7142857142857</ele><time>2026-03-23T07:11:17.004Z</time></trkpt><trkpt lat="30.13654224903813" lon="-6.8060294099548795"><ele>692.4285714285714</ele><time>2026-03-23T07:11:18.004Z</time></trkpt><trkpt lat="30.136519276565956" lon="-6.805948487798135"><ele>692.1428571428571</ele><time>2026-03-23T07:11:19.004Z</time></trkpt><trkpt lat="30.13649556705659" lon="-6.805863416142384"><ele>691.8571428571429</ele><time>2026-03-23T07:11:20.004Z</time></trkpt><trkpt lat="30.136470938634485" lon="-6.805775015174381"><ele>691.5714285714286</ele><time>2026-03-23T07:11:21.004Z</time></trkpt><trkpt lat="30.13644715207373" lon="-6.8057033816620605"><ele>691.2857142857142</ele><time>2026-03-23T07:11:22.004Z</time></trkpt><trkpt lat="30.13640364066155" lon="-6.805627226574578"><ele>691.0</ele><time>2026-03-23T07:11:23.004Z</time></trkpt><trkpt lat="30.136358239388784" lon="-6.805550256570026"><ele>691.0</ele><time>2026-03-23T07:11:24.004Z</time></trkpt><trkpt lat="30.136313612783407" lon="-6.805472468633753"><ele>691.0</ele><time>2026-03-23T07:11:25.004Z</time></trkpt><trkpt lat="30.13627197988231" lon="-6.805387931026548"><ele>691.0</ele><time>2026-03-23T07:11:26.004Z</time></trkpt><trkpt lat="30.136230167849874" lon="-6.805297061450928"><ele>691.0</ele><time>2026-03-23T07:11:27.004Z</time></trkpt><trkpt lat="30.13620740953129" lon="-6.805196085143233"><ele>691.0</ele><time>2026-03-23T07:11:28.004Z</time></trkpt><trkpt lat="30.13618735022848" lon="-6.8050835560494365"><ele>691.0</ele><time>2026-03-23T07:11:29.004Z</time></trkpt><trkpt lat="30.136153944886175" lon="-6.804957075217002"><ele>691.0</ele><time>2026-03-23T07:11:30.004Z</time></trkpt><trkpt lat="30.136100467650472" lon="-6.804831301728172"><ele>691.0</ele><time>2026-03-23T07:11:31.004Z</time></trkpt><trkpt lat="30.13605189346352" lon="-6.804713618084401"><ele>691.0</ele><time>2026-03-23T07:11:32.004Z</time></trkpt><trkpt lat="30.13602133674552" lon="-6.804586083721774"><ele>691.0</ele><time>2026-03-23T07:11:33.004Z</time></trkpt><trkpt lat="30.135990456632687" lon="-6.804460879063131"><ele>691.0</ele><time>2026-03-23T07:11:34.004Z</time></trkpt><trkpt lat="30.13597104664387" lon="-6.804333148105967"><ele>691.0</ele><time>2026-03-23T07:11:35.004Z</time></trkpt><trkpt lat="30.135948192202324" lon="-6.8042110452917965"><ele>691.0</ele><time>2026-03-23T07:11:36.004Z</time></trkpt><trkpt lat="30.13592198639982" lon="-6.804093350404296"><ele>691.0</ele><time>2026-03-23T07:11:37.004Z</time></trkpt><trkpt lat="30.135895390516758" lon="-6.803980869376414"><ele>691.0</ele><time>2026-03-23T07:11:38.004Z</time></trkpt><trkpt lat="30.135873134152877" lon="-6.803870597903598"><ele>691.4</ele><time>2026-03-23T07:11:39.004Z</time></trkpt><trkpt lat="30.135857100141774" lon="-6.803759629178587"><ele>691.8</ele><time>2026-03-23T07:11:40.004Z</time></trkpt><trkpt lat="30.135832374691823" lon="-6.803647569583417"><ele>692.1999999999999</ele><time>2026-03-23T07:11:41.004Z</time></trkpt><trkpt lat="30.13581048934974" lon="-6.8035327982045555"><ele>692.5999999999999</ele><time>2026-03-23T07:11:42.004Z</time></trkpt><trkpt lat="30.1357931828964" lon="-6.803411927513275"><ele>693.0</ele><time>2026-03-23T07:11:43.004Z</time></trkpt><trkpt lat="30.135773807534036" lon="-6.803292209598768"><ele>692.8</ele><time>2026-03-23T07:11:44.004Z</time></trkpt><trkpt lat="30.13574668163318" lon="-6.803163704852076"><ele>692.5999999999999</ele><time>2026-03-23T07:11:45.004Z</time></trkpt><trkpt lat="30.135716559288234" lon="-6.803039789040541"><ele>692.4000000000001</ele><time>2026-03-23T07:11:46.004Z</time></trkpt><trkpt lat="30.135687090145833" lon="-6.802912029315309"><ele>692.2</ele><time>2026-03-23T07:11:47.004Z</time></trkpt><trkpt lat="30.135662041275086" lon="-6.802795965525751"><ele>692.0</ele><time>2026-03-23T07:11:48.004Z</time></trkpt><trkpt lat="30.135639845296325" lon="-6.80268313952367"><ele>692.4000000000001</ele><time>2026-03-23T07:11:49.004Z</time></trkpt><trkpt lat="30.135614247299824" lon="-6.8025675290323235"><ele>692.8000000000001</ele><time>2026-03-23T07:11:50.004Z</time></trkpt><trkpt lat="30.135572470569763" lon="-6.802454879273907"><ele>693.2</ele><time>2026-03-23T07:11:51.004Z</time></trkpt><trkpt lat="30.135536870305206" lon="-6.802345663802355"><ele>693.6</ele><time>2026-03-23T07:11:52.004Z</time></trkpt><trkpt lat="30.135491817037384" lon="-6.80223851079243"><ele>694.0</ele><time>2026-03-23T07:11:53.004Z</time></trkpt><trkpt lat="30.135444608356018" lon="-6.80212393997503"><ele>694.0</ele><time>2026-03-23T07:11:54.004Z</time></trkpt><trkpt lat="30.135403132943463" lon="-6.802014378292941"><ele>694.0</ele><time>2026-03-23T07:11:55.004Z</time></trkpt><trkpt lat="30.135351482853615" lon="-6.801899179562263"><ele>694.0</ele><time>2026-03-23T07:11:56.004Z</time></trkpt><trkpt lat="30.135293262101907" lon="-6.801780492243872"><ele>694.0</ele><time>2026-03-23T07:11:57.004Z</time></trkpt><trkpt lat="30.13525079252724" lon="-6.801658439067318"><ele>694.0</ele><time>2026-03-23T07:11:58.004Z</time></trkpt><trkpt lat="30.13521436777656" lon="-6.801545784725467"><ele>694.1666666666667</ele><time>2026-03-23T07:11:59.004Z</time></trkpt><trkpt lat="30.135170613920504" lon="-6.801432273235558"><ele>694.3333333333334</ele><time>2026-03-23T07:12:00.004Z</time></trkpt><trkpt lat="30.135130293400465" lon="-6.801338790976846"><ele>694.5</ele><time>2026-03-23T07:12:01.004Z</time></trkpt><trkpt lat="30.13507990646332" lon="-6.801250345631336"><ele>694.6666666666666</ele><time>2026-03-23T07:12:02.004Z</time></trkpt><trkpt lat="30.135043897814228" lon="-6.801169448690667"><ele>694.8333333333333</ele><time>2026-03-23T07:12:03.004Z</time></trkpt><trkpt lat="30.13502180240067" lon="-6.801090840429831"><ele>695.0</ele><time>2026-03-23T07:12:04.004Z</time></trkpt><trkpt lat="30.13499736413469" lon="-6.801012011371879"><ele>695.6</ele><time>2026-03-23T07:12:05.004Z</time></trkpt><trkpt lat="30.134954658186476" lon="-6.800920528364708"><ele>696.2</ele><time>2026-03-23T07:12:06.004Z</time></trkpt><trkpt lat="30.13491548898294" lon="-6.800824889216622"><ele>696.8</ele><time>2026-03-23T07:12:07.004Z</time></trkpt><trkpt lat="30.134878542480777" lon="-6.80072402396608"><ele>697.4</ele><time>2026-03-23T07:12:08.004Z</time></trkpt><trkpt lat="30.13484485402551" lon="-6.800599533611687"><ele>698.0</ele><time>2026-03-23T07:12:09.004Z</time></trkpt><trkpt lat="30.134794789975352" lon="-6.800468929006242"><ele>697.25</ele><time>2026-03-23T07:12:10.004Z</time></trkpt><trkpt lat="30.134726839281278" lon="-6.80032497238789"><ele>696.5</ele><time>2026-03-23T07:12:11.004Z</time></trkpt><trkpt lat="30.134647381633815" lon="-6.800191581811646"><ele>695.75</ele><time>2026-03-23T07:12:12.004Z</time></trkpt><trkpt lat="30.134583545200634" lon="-6.800044057360796"><ele>695.0</ele><time>2026-03-23T07:12:13.004Z</time></trkpt><trkpt lat="30.134533889571166" lon="-6.799892782361668"><ele>695.0</ele><time>2026-03-23T07:12:14.004Z</time></trkpt><trkpt lat="30.134485481387138" lon="-6.799768159122883"><ele>695.0</ele><time>2026-03-23T07:12:15.004Z</time></trkpt><trkpt lat="30.13444559227607" lon="-6.79966271351188"><ele>695.0</ele><time>2026-03-23T07:12:16.004Z</time></trkpt><trkpt lat="30.134400881608833" lon="-6.7995636187126625"><ele>695.0</ele><time>2026-03-23T07:12:17.004Z</time></trkpt><trkpt lat="30.13435733375262" lon="-6.799458314985684"><ele>695.0</ele><time>2026-03-23T07:12:18.004Z</time></trkpt><trkpt lat="30.13431018006441" lon="-6.799349816258736"><ele>695.2</ele><time>2026-03-23T07:12:19.004Z</time></trkpt><trkpt lat="30.13426300427608" lon="-6.799241302144613"><ele>695.4</ele><time>2026-03-23T07:12:20.004Z</time></trkpt><trkpt lat="30.13422034569811" lon="-6.799123158980234"><ele>695.5999999999999</ele><time>2026-03-23T07:12:21.004Z</time></trkpt><trkpt lat="30.13418045870074" lon="-6.799007651732642"><ele>695.8</ele><time>2026-03-23T07:12:22.004Z</time></trkpt><trkpt lat="30.134135295526676" lon="-6.798900653256667"><ele>696.0</ele><time>2026-03-23T07:12:23.004Z</time></trkpt><trkpt lat="30.134086477840373" lon="-6.79879154564079"><ele>695.4</ele><time>2026-03-23T07:12:24.004Z</time></trkpt><trkpt lat="30.134035982358814" lon="-6.798671102092456"><ele>694.8</ele><time>2026-03-23T07:12:25.004Z</time></trkpt><trkpt lat="30.133987453849816" lon="-6.798554077627402"><ele>694.1999999999999</ele><time>2026-03-23T07:12:26.004Z</time></trkpt><trkpt lat="30.1339430157174" lon="-6.7984400218400545"><ele>693.5999999999999</ele><time>2026-03-23T07:12:27.004Z</time></trkpt><trkpt lat="30.133895057290903" lon="-6.798330714921513"><ele>693.0</ele><time>2026-03-23T07:12:28.004Z</time></trkpt><trkpt lat="30.13385425917561" lon="-6.79821784084477"><ele>693.0</ele><time>2026-03-23T07:12:29.004Z</time></trkpt><trkpt lat="30.133813651451785" lon="-6.798104588767625"><ele>693.0</ele><time>2026-03-23T07:12:30.004Z</time></trkpt><trkpt lat="30.133767022883454" lon="-6.797999612845554"><ele>693.0</ele><time>2026-03-23T07:12:31.004Z</time></trkpt><trkpt lat="30.1337321066805" lon="-6.797893081680639"><ele>693.0</ele><time>2026-03-23T07:12:32.004Z</time></trkpt><trkpt lat="30.133669914149486" lon="-6.797790638577601"><ele>693.0</ele><time>2026-03-23T07:12:33.004Z</time></trkpt><trkpt lat="30.133621316811382" lon="-6.797688874240161"><ele>693.8</ele><time>2026-03-23T07:12:34.004Z</time></trkpt><trkpt lat="30.133572084619292" lon="-6.797582657980634"><ele>694.5999999999999</ele><time>2026-03-23T07:12:35.004Z</time></trkpt><trkpt lat="30.133532755579637" lon="-6.797471933119921"><ele>695.4000000000001</ele><time>2026-03-23T07:12:36.004Z</time></trkpt><trkpt lat="30.133498263552337" lon="-6.797355399061358"><ele>696.2</ele><time>2026-03-23T07:12:37.004Z</time></trkpt><trkpt lat="30.13345825733319" lon="-6.797242605634641"><ele>697.0</ele><time>2026-03-23T07:12:38.004Z</time></trkpt><trkpt lat="30.13342138493171" lon="-6.797124554631656"><ele>697.0</ele><time>2026-03-23T07:12:39.004Z</time></trkpt><trkpt lat="30.13336911752232" lon="-6.796994894981174"><ele>697.0</ele><time>2026-03-23T07:12:40.004Z</time></trkpt><trkpt lat="30.133314701825668" lon="-6.796853446024459"><ele>697.0</ele><time>2026-03-23T07:12:41.004Z</time></trkpt><trkpt lat="30.133265031200132" lon="-6.796704782856789"><ele>697.0</ele><time>2026-03-23T07:12:42.004Z</time></trkpt><trkpt lat="30.13321156516553" lon="-6.796577102972493"><ele>696.6</ele><time>2026-03-23T07:12:43.004Z</time></trkpt><trkpt lat="30.133164202624577" lon="-6.796475226968779"><ele>696.2</ele><time>2026-03-23T07:12:44.004Z</time></trkpt><trkpt lat="30.1331180014572" lon="-6.796382910221803"><ele>695.8</ele><time>2026-03-23T07:12:45.004Z</time></trkpt><trkpt lat="30.13308131737858" lon="-6.7962815805472605"><ele>695.4</ele><time>2026-03-23T07:12:46.004Z</time></trkpt><trkpt lat="30.133039193991824" lon="-6.796155066458023"><ele>695.0</ele><time>2026-03-23T07:12:47.004Z</time></trkpt><trkpt lat="30.132993766423738" lon="-6.796029760461425"><ele>695.6</ele><time>2026-03-23T07:12:48.004Z</time></trkpt><trkpt lat="30.132942290765367" lon="-6.795924506426003"><ele>696.2</ele><time>2026-03-23T07:12:49.004Z</time></trkpt><trkpt lat="30.132898310221716" lon="-6.795823392676678"><ele>696.8</ele><time>2026-03-23T07:12:50.004Z</time></trkpt><trkpt lat="30.132859947588354" lon="-6.795721682365141"><ele>697.4</ele><time>2026-03-23T07:12:51.004Z</time></trkpt><trkpt lat="30.132819969275747" lon="-6.79561994516521"><ele>698.0</ele><time>2026-03-23T07:12:52.004Z</time></trkpt><trkpt lat="30.132779784775863" lon="-6.795515881304425"><ele>698.0</ele><time>2026-03-23T07:12:53.004Z</time></trkpt><trkpt lat="30.132742899188575" lon="-6.795411583871243"><ele>698.0</ele><time>2026-03-23T07:12:54.004Z</time></trkpt><trkpt lat="30.1327050245148" lon="-6.795302545856934"><ele>698.0</ele><time>2026-03-23T07:12:55.004Z</time></trkpt><trkpt lat="30.132658209611503" lon="-6.795186538595095"><ele>698.0</ele><time>2026-03-23T07:12:56.004Z</time></trkpt><trkpt lat="30.13261454223284" lon="-6.795077436084139"><ele>698.0</ele><time>2026-03-23T07:12:57.004Z</time></trkpt><trkpt lat="30.132564556122347" lon="-6.794958797378391"><ele>698.2</ele><time>2026-03-23T07:12:58.004Z</time></trkpt><trkpt lat="30.132519151700066" lon="-6.794841176000801"><ele>698.4</ele><time>2026-03-23T07:12:59.004Z</time></trkpt><trkpt lat="30.132472465102847" lon="-6.794724407941374"><ele>698.6</ele><time>2026-03-23T07:13:00.004Z</time></trkpt><trkpt lat="30.13242714154972" lon="-6.794607107046452"><ele>698.8000000000001</ele><time>2026-03-23T07:13:01.004Z</time></trkpt><trkpt lat="30.13238240831175" lon="-6.79448534391614"><ele>699.0</ele><time>2026-03-23T07:13:02.004Z</time></trkpt><trkpt lat="30.132340704222553" lon="-6.79437945393422"><ele>698.8000000000001</ele><time>2026-03-23T07:13:03.004Z</time></trkpt><trkpt lat="30.132295811226623" lon="-6.794264390976228"><ele>698.6</ele><time>2026-03-23T07:13:04.004Z</time></trkpt><trkpt lat="30.13225018428471" lon="-6.794159957006935"><ele>698.4</ele><time>2026-03-23T07:13:05.004Z</time></trkpt><trkpt lat="30.132202374452405" lon="-6.794060788379208"><ele>698.2</ele><time>2026-03-23T07:13:06.004Z</time></trkpt><trkpt lat="30.132153467094522" lon="-6.793955641181803"><ele>698.0</ele><time>2026-03-23T07:13:07.004Z</time></trkpt><trkpt lat="30.132112524602444" lon="-6.7938494191343155"><ele>698.0</ele><time>2026-03-23T07:13:08.004Z</time></trkpt><trkpt lat="30.13207339771077" lon="-6.793726798961502"><ele>698.0</ele><time>2026-03-23T07:13:09.004Z</time></trkpt><trkpt lat="30.132032178713285" lon="-6.793609773185064"><ele>698.0</ele><time>2026-03-23T07:13:10.004Z</time></trkpt><trkpt lat="30.131983119334425" lon="-6.793490533420633"><ele>698.0</ele><time>2026-03-23T07:13:11.004Z</time></trkpt><trkpt lat="30.131934672876728" lon="-6.793371343904472"><ele>697.8</ele><time>2026-03-23T07:13:12.004Z</time></trkpt><trkpt lat="30.131886105570363" lon="-6.793260712771745"><ele>697.5999999999999</ele><time>2026-03-23T07:13:13.004Z</time></trkpt><trkpt lat="30.13184037144519" lon="-6.793156077771007"><ele>697.4000000000001</ele><time>2026-03-23T07:13:14.004Z</time></trkpt><trkpt lat="30.131798217619053" lon="-6.793055719591613"><ele>697.2</ele><time>2026-03-23T07:13:15.004Z</time></trkpt><trkpt lat="30.131754183369097" lon="-6.792951961678482"><ele>697.0</ele><time>2026-03-23T07:13:16.004Z</time></trkpt><trkpt lat="30.13171118907126" lon="-6.792853461606486"><ele>697.0</ele><time>2026-03-23T07:13:17.004Z</time></trkpt><trkpt lat="30.131667805623454" lon="-6.7927489594625845"><ele>697.0</ele><time>2026-03-23T07:13:18.004Z</time></trkpt><trkpt lat="30.131620106868077" lon="-6.792634808306772"><ele>697.0</ele><time>2026-03-23T07:13:19.004Z</time></trkpt><trkpt lat="30.131578597288453" lon="-6.792530675607174"><ele>697.0</ele><time>2026-03-23T07:13:20.004Z</time></trkpt><trkpt lat="30.131535198119106" lon="-6.792415804608406"><ele>697.0</ele><time>2026-03-23T07:13:21.004Z</time></trkpt><trkpt lat="30.131488270057254" lon="-6.792295778982279"><ele>697.0</ele><time>2026-03-23T07:13:22.004Z</time></trkpt><trkpt lat="30.13144052927095" lon="-6.7921812019174554"><ele>697.0</ele><time>2026-03-23T07:13:23.004Z</time></trkpt><trkpt lat="30.1313807082478" lon="-6.792065035586367"><ele>697.0</ele><time>2026-03-23T07:13:24.004Z</time></trkpt><trkpt lat="30.131319888164075" lon="-6.791951642136505"><ele>697.0</ele><time>2026-03-23T07:13:25.004Z</time></trkpt><trkpt lat="30.131269962868124" lon="-6.791831077496638"><ele>697.0</ele><time>2026-03-23T07:13:26.004Z</time></trkpt><trkpt lat="30.131233896650627" lon="-6.79171918474252"><ele>697.0</ele><time>2026-03-23T07:13:27.004Z</time></trkpt><trkpt lat="30.131194162747" lon="-6.791616080556893"><ele>697.0</ele><time>2026-03-23T07:13:28.004Z</time></trkpt><trkpt lat="30.131158068903474" lon="-6.791519719834725"><ele>697.0</ele><time>2026-03-23T07:13:29.004Z</time></trkpt><trkpt lat="30.131111484781485" lon="-6.791405854889259"><ele>697.0</ele><time>2026-03-23T07:13:30.004Z</time></trkpt><trkpt lat="30.131064121006695" lon="-6.791305355822474"><ele>697.0</ele><time>2026-03-23T07:13:31.004Z</time></trkpt><trkpt lat="30.131027046387086" lon="-6.791207273911955"><ele>697.0</ele><time>2026-03-23T07:13:32.004Z</time></trkpt><trkpt lat="30.130989471176143" lon="-6.791102764557819"><ele>697.0</ele><time>2026-03-23T07:13:33.004Z</time></trkpt><trkpt lat="30.130943770995934" lon="-6.790996132001284"><ele>697.0</ele><time>2026-03-23T07:13:34.004Z</time></trkpt><trkpt lat="30.130900845422673" lon="-6.79088936906733"><ele>697.0</ele><time>2026-03-23T07:13:35.004Z</time></trkpt><trkpt lat="30.130853495542116" lon="-6.7907741518400115"><ele>697.0</ele><time>2026-03-23T07:13:36.004Z</time></trkpt><trkpt lat="30.13080550305253" lon="-6.790648249509928"><ele>697.0</ele><time>2026-03-23T07:13:37.004Z</time></trkpt><trkpt lat="30.13075350882967" lon="-6.79051154568174"><ele>697.0</ele><time>2026-03-23T07:13:38.004Z</time></trkpt><trkpt lat="30.130702432124348" lon="-6.79037481170452"><ele>697.0</ele><time>2026-03-23T07:13:39.004Z</time></trkpt><trkpt lat="30.130656912309504" lon="-6.790254252564488"><ele>697.2</ele><time>2026-03-23T07:13:40.004Z</time></trkpt><trkpt lat="30.130599783007593" lon="-6.790136306092851"><ele>697.4000000000001</ele><time>2026-03-23T07:13:41.004Z</time></trkpt><trkpt lat="30.13055263005688" lon="-6.790029057390205"><ele>697.5999999999999</ele><time>2026-03-23T07:13:42.004Z</time></trkpt><trkpt lat="30.13051859666738" lon="-6.78993208437483"><ele>697.8</ele><time>2026-03-23T07:13:43.004Z</time></trkpt><trkpt lat="30.1304799153647" lon="-6.7898344639270185"><ele>698.0</ele><time>2026-03-23T07:13:44.004Z</time></trkpt><trkpt lat="30.13044127894625" lon="-6.789736863257458"><ele>698.0</ele><time>2026-03-23T07:13:45.004Z</time></trkpt><trkpt lat="30.13039402445212" lon="-6.789626825466433"><ele>698.0</ele><time>2026-03-23T07:13:46.004Z</time></trkpt><trkpt lat="30.130339919329668" lon="-6.789499857774683"><ele>698.0</ele><time>2026-03-23T07:13:47.004Z</time></trkpt><trkpt lat="30.130279025740037" lon="-6.789363383543848"><ele>698.0</ele><time>2026-03-23T07:13:48.004Z</time></trkpt><trkpt lat="30.130210721574215" lon="-6.789208545934853"><ele>698.3333333333333</ele><time>2026-03-23T07:13:49.004Z</time></trkpt><trkpt lat="30.13013722645836" lon="-6.789043836466924"><ele>698.6666666666666</ele><time>2026-03-23T07:13:50.004Z</time></trkpt><trkpt lat="30.130063566592018" lon="-6.788865014533959"><ele>699.0</ele><time>2026-03-23T07:13:51.004Z</time></trkpt><trkpt lat="30.129990653341885" lon="-6.7886831495003985"><ele>699.3333333333334</ele><time>2026-03-23T07:13:52.004Z</time></trkpt><trkpt lat="30.129919488447975" lon="-6.788500472245147"><ele>699.6666666666667</ele><time>2026-03-23T07:13:53.004Z</time></trkpt><trkpt lat="30.12985015714455" lon="-6.788327347457522"><ele>700.0</ele><time>2026-03-23T07:13:54.004Z</time></trkpt><trkpt lat="30.129795684154253" lon="-6.788183834145527"><ele>700.5</ele><time>2026-03-23T07:13:55.004Z</time></trkpt><trkpt lat="30.12974795980313" lon="-6.788055542751157"><ele>701.0</ele><time>2026-03-23T07:13:56.004Z</time></trkpt><trkpt lat="30.129699725123107" lon="-6.787929546105422"><ele>701.5</ele><time>2026-03-23T07:13:57.004Z</time></trkpt><trkpt lat="30.129641461925825" lon="-6.787800173769629"><ele>702.0</ele><time>2026-03-23T07:13:58.004Z</time></trkpt><trkpt lat="30.12957866332015" lon="-6.787672966954912"><ele>702.2</ele><time>2026-03-23T07:13:59.004Z</time></trkpt><trkpt lat="30.12952170677982" lon="-6.787573432071165"><ele>702.4000000000001</ele><time>2026-03-23T07:14:00.004Z</time></trkpt><trkpt lat="30.129477516890155" lon="-6.787476747519"><ele>702.5999999999999</ele><time>2026-03-23T07:14:01.004Z</time></trkpt><trkpt lat="30.12943768510664" lon="-6.787364596666994"><ele>702.8</ele><time>2026-03-23T07:14:02.004Z</time></trkpt><trkpt lat="30.12939871325538" lon="-6.787265107011893"><ele>703.0</ele><time>2026-03-23T07:14:03.004Z</time></trkpt><trkpt lat="30.12936183033894" lon="-6.787160569354958"><ele>703.0</ele><time>2026-03-23T07:14:04.004Z</time></trkpt><trkpt lat="30.129319848257012" lon="-6.7870620643029715"><ele>703.0</ele><time>2026-03-23T07:14:05.004Z</time></trkpt><trkpt lat="30.129281811277178" lon="-6.786959885450915"><ele>703.0</ele><time>2026-03-23T07:14:06.004Z</time></trkpt><trkpt lat="30.129226351164668" lon="-6.786854211989519"><ele>703.0</ele><time>2026-03-23T07:14:07.004Z</time></trkpt><trkpt lat="30.12917630944005" lon="-6.786743272211282"><ele>703.0</ele><time>2026-03-23T07:14:08.004Z</time></trkpt><trkpt lat="30.129125650842894" lon="-6.786629070387936"><ele>703.0</ele><time>2026-03-23T07:14:09.004Z</time></trkpt><trkpt lat="30.12908243188503" lon="-6.786507213344447"><ele>703.0</ele><time>2026-03-23T07:14:10.004Z</time></trkpt><trkpt lat="30.129029325161017" lon="-6.786379156839546"><ele>703.0</ele><time>2026-03-23T07:14:11.004Z</time></trkpt><trkpt lat="30.12896195118358" lon="-6.7862498504427"><ele>703.0</ele><time>2026-03-23T07:14:12.004Z</time></trkpt><trkpt lat="30.128903117739462" lon="-6.786109771184816"><ele>703.4</ele><time>2026-03-23T07:14:13.004Z</time></trkpt><trkpt lat="30.128853353760302" lon="-6.785976877265698"><ele>703.8</ele><time>2026-03-23T07:14:14.004Z</time></trkpt><trkpt lat="30.1287887629984" lon="-6.785857702759589"><ele>704.2</ele><time>2026-03-23T07:14:15.004Z</time></trkpt><trkpt lat="30.128735936565114" lon="-6.7857535538790215"><ele>704.6</ele><time>2026-03-23T07:14:16.004Z</time></trkpt><trkpt lat="30.128698774907182" lon="-6.785662277925648"><ele>705.0</ele><time>2026-03-23T07:14:17.004Z</time></trkpt><trkpt lat="30.128664049854546" lon="-6.785578346437123"><ele>705.0</ele><time>2026-03-23T07:14:18.004Z</time></trkpt><trkpt lat="30.128624255886006" lon="-6.785502111165323"><ele>705.0</ele><time>2026-03-23T07:14:19.004Z</time></trkpt><trkpt lat="30.128575527922884" lon="-6.785423185118435"><ele>705.0</ele><time>2026-03-23T07:14:20.004Z</time></trkpt><trkpt lat="30.128512569151308" lon="-6.785357332199868"><ele>705.0</ele><time>2026-03-23T07:14:21.004Z</time></trkpt><trkpt lat="30.128445179254694" lon="-6.7853012639881864"><ele>705.0</ele><time>2026-03-23T07:14:22.005Z</time></trkpt><trkpt lat="30.128373539228473" lon="-6.785244830664324"><ele>705.0</ele><time>2026-03-23T07:14:23.005Z</time></trkpt><trkpt lat="30.128290153858394" lon="-6.785187979749314"><ele>704.0</ele><time>2026-03-23T07:14:24.005Z</time></trkpt><trkpt lat="30.128198915545987" lon="-6.785131372577349"><ele>703.0</ele><time>2026-03-23T07:14:25.005Z</time></trkpt><trkpt lat="30.12809616229015" lon="-6.785071237347877"><ele>702.0</ele><time>2026-03-23T07:14:26.005Z</time></trkpt><trkpt lat="30.127980825492052" lon="-6.78503148971771"><ele>701.0</ele><time>2026-03-23T07:14:27.005Z</time></trkpt><trkpt lat="30.127870988634356" lon="-6.785010057001225"><ele>701.0</ele><time>2026-03-23T07:14:28.005Z</time></trkpt><trkpt lat="30.127753892402296" lon="-6.784998490065577"><ele>701.0</ele><time>2026-03-23T07:14:29.005Z</time></trkpt><trkpt lat="30.127632180000443" lon="-6.785013458651974"><ele>701.0</ele><time>2026-03-23T07:14:30.005Z</time></trkpt><trkpt lat="30.127500822322773" lon="-6.785033166136393"><ele>701.0</ele><time>2026-03-23T07:14:31.005Z</time></trkpt><trkpt lat="30.127376623829175" lon="-6.785052904906002"><ele>700.5</ele><time>2026-03-23T07:14:32.005Z</time></trkpt><trkpt lat="30.127266307088927" lon="-6.78505220596288"><ele>700.0</ele><time>2026-03-23T07:14:33.005Z</time></trkpt><trkpt lat="30.127129318918048" lon="-6.78503409720141"><ele>699.5</ele><time>2026-03-23T07:14:34.005Z</time></trkpt><trkpt lat="30.12698834747609" lon="-6.785023950453081"><ele>699.0</ele><time>2026-03-23T07:14:35.005Z</time></trkpt><trkpt lat="30.12686351180464" lon="-6.785010821662329"><ele>699.0</ele><time>2026-03-23T07:14:36.005Z</time></trkpt><trkpt lat="30.126754129494557" lon="-6.784988714263607"><ele>699.0</ele><time>2026-03-23T07:14:37.005Z</time></trkpt><trkpt lat="30.126635059728443" lon="-6.78497363762087"><ele>699.0</ele><time>2026-03-23T07:14:38.005Z</time></trkpt><trkpt lat="30.12652358917236" lon="-6.7849615405438355"><ele>699.0</ele><time>2026-03-23T07:14:39.005Z</time></trkpt><trkpt lat="30.12640031679508" lon="-6.784952572748225"><ele>698.75</ele><time>2026-03-23T07:14:40.005Z</time></trkpt><trkpt lat="30.126274161542923" lon="-6.784951998419449"><ele>698.5</ele><time>2026-03-23T07:14:41.005Z</time></trkpt><trkpt lat="30.126146024437862" lon="-6.78495094918633"><ele>698.25</ele><time>2026-03-23T07:14:42.005Z</time></trkpt><trkpt lat="30.126008266515527" lon="-6.78494714618476"><ele>698.0</ele><time>2026-03-23T07:14:43.005Z</time></trkpt><trkpt lat="30.12588339936086" lon="-6.784939283410903"><ele>698.0</ele><time>2026-03-23T07:14:44.005Z</time></trkpt><trkpt lat="30.125766037207455" lon="-6.784941276827834"><ele>698.0</ele><time>2026-03-23T07:14:45.005Z</time></trkpt><trkpt lat="30.125652126541013" lon="-6.7849389701086915"><ele>698.0</ele><time>2026-03-23T07:14:46.005Z</time></trkpt><trkpt lat="30.12554336823309" lon="-6.784934964850039"><ele>698.0</ele><time>2026-03-23T07:14:47.005Z</time></trkpt><trkpt lat="30.125435747467797" lon="-6.784928545386719"><ele>698.0</ele><time>2026-03-23T07:14:48.005Z</time></trkpt><trkpt lat="30.12533860207001" lon="-6.784903536442325"><ele>698.0</ele><time>2026-03-23T07:14:49.005Z</time></trkpt><trkpt lat="30.125254216783574" lon="-6.784876349148391"><ele>698.0</ele><time>2026-03-23T07:14:50.005Z</time></trkpt><trkpt lat="30.125179564542265" lon="-6.78484365954754"><ele>698.0</ele><time>2026-03-23T07:14:51.005Z</time></trkpt><trkpt lat="30.125097273589944" lon="-6.7848180805530465"><ele>698.0</ele><time>2026-03-23T07:14:52.005Z</time></trkpt><trkpt lat="30.125006433222968" lon="-6.784809986005559"><ele>698.0</ele><time>2026-03-23T07:14:53.005Z</time></trkpt><trkpt lat="30.12490905355818" lon="-6.7848129882494135"><ele>698.0</ele><time>2026-03-23T07:14:54.005Z</time></trkpt><trkpt lat="30.12480786032144" lon="-6.784814626636406"><ele>698.0</ele><time>2026-03-23T07:14:55.005Z</time></trkpt><trkpt lat="30.124707380684356" lon="-6.784803754572675"><ele>698.0</ele><time>2026-03-23T07:14:56.005Z</time></trkpt><trkpt lat="30.124619131249315" lon="-6.78476934722388"><ele>698.0</ele><time>2026-03-23T07:14:57.005Z</time></trkpt><trkpt lat="30.124532955706762" lon="-6.784724284987406"><ele>698.0</ele><time>2026-03-23T07:14:58.005Z</time></trkpt><trkpt lat="30.124455230323687" lon="-6.784673906413092"><ele>698.0</ele><time>2026-03-23T07:14:59.005Z</time></trkpt><trkpt lat="30.12437778826396" lon="-6.7846344446396305"><ele>698.0</ele><time>2026-03-23T07:15:00.006Z</time></trkpt><trkpt lat="30.124306439645537" lon="-6.7846018761748"><ele>698.0</ele><time>2026-03-23T07:15:01.005Z</time></trkpt><trkpt lat="30.12422790659647" lon="-6.784567868811108"><ele>698.0</ele><time>2026-03-23T07:15:02.005Z</time></trkpt><trkpt lat="30.124148948893883" lon="-6.784526367270692"><ele>698.0</ele><time>2026-03-23T07:15:03.006Z</time></trkpt><trkpt lat="30.124076193424745" lon="-6.784470365606963"><ele>698.0</ele><time>2026-03-23T07:15:04.005Z</time></trkpt><trkpt lat="30.12400722701304" lon="-6.784400150061423"><ele>698.0</ele><time>2026-03-23T07:15:05.005Z</time></trkpt><trkpt lat="30.12393697663026" lon="-6.784332039747214"><ele>698.4</ele><time>2026-03-23T07:15:06.005Z</time></trkpt><trkpt lat="30.123864166010105" lon="-6.784270872672847"><ele>698.8</ele><time>2026-03-23T07:15:07.005Z</time></trkpt><trkpt lat="30.12379760264583" lon="-6.784207259749886"><ele>699.2</ele><time>2026-03-23T07:15:08.005Z</time></trkpt><trkpt lat="30.123734224832166" lon="-6.784136041308544"><ele>699.6</ele><time>2026-03-23T07:15:09.005Z</time></trkpt><trkpt lat="30.12367009739012" lon="-6.784059236324251"><ele>700.0</ele><time>2026-03-23T07:15:10.005Z</time></trkpt><trkpt lat="30.12360388651623" lon="-6.783952996534306"><ele>700.0</ele><time>2026-03-23T07:15:11.005Z</time></trkpt><trkpt lat="30.123537109375082" lon="-6.783834079548177"><ele>700.0</ele><time>2026-03-23T07:15:12.005Z</time></trkpt><trkpt lat="30.123479191889352" lon="-6.783720937537833"><ele>700.0</ele><time>2026-03-23T07:15:13.005Z</time></trkpt><trkpt lat="30.123421540092966" lon="-6.783603957862357"><ele>700.0</ele><time>2026-03-23T07:15:14.005Z</time></trkpt><trkpt lat="30.123370239538065" lon="-6.783485481329523"><ele>700.0</ele><time>2026-03-23T07:15:15.005Z</time></trkpt><trkpt lat="30.123313457399938" lon="-6.783374950108815"><ele>700.0</ele><time>2026-03-23T07:15:16.005Z</time></trkpt><trkpt lat="30.12324800054569" lon="-6.783266169086171"><ele>700.0</ele><time>2026-03-23T07:15:17.005Z</time></trkpt><trkpt lat="30.123183967903785" lon="-6.783146663778403"><ele>700.0</ele><time>2026-03-23T07:15:18.005Z</time></trkpt><trkpt lat="30.123122735792943" lon="-6.783018228683402"><ele>700.0</ele><time>2026-03-23T07:15:19.005Z</time></trkpt><trkpt lat="30.12305995295974" lon="-6.782886371233265"><ele>700.0</ele><time>2026-03-23T07:15:20.005Z</time></trkpt><trkpt lat="30.122998460500902" lon="-6.7827648194433"><ele>700.0</ele><time>2026-03-23T07:15:21.005Z</time></trkpt><trkpt lat="30.122930745528542" lon="-6.782664625957518"><ele>700.0</ele><time>2026-03-23T07:15:22.005Z</time></trkpt><trkpt lat="30.122859378891317" lon="-6.78258127477849"><ele>700.0</ele><time>2026-03-23T07:15:23.005Z</time></trkpt><trkpt lat="30.12278205950179" lon="-6.782511798024182"><ele>700.0</ele><time>2026-03-23T07:15:24.005Z</time></trkpt><trkpt lat="30.122700945001025" lon="-6.782448567869448"><ele>700.0</ele><time>2026-03-23T07:15:25.005Z</time></trkpt><trkpt lat="30.122626234238105" lon="-6.782390789690153"><ele>700.0</ele><time>2026-03-23T07:15:26.005Z</time></trkpt><trkpt lat="30.12255105007052" lon="-6.782332494729254"><ele>700.0</ele><time>2026-03-23T07:15:27.005Z</time></trkpt><trkpt lat="30.122487004334232" lon="-6.782288737826194"><ele>700.0</ele><time>2026-03-23T07:15:28.005Z</time></trkpt><trkpt lat="30.122421342370295" lon="-6.782224706043206"><ele>700.0</ele><time>2026-03-23T07:15:29.005Z</time></trkpt><trkpt lat="30.12235471984698" lon="-6.7821688275550835"><ele>700.0</ele><time>2026-03-23T07:15:30.005Z</time></trkpt><trkpt lat="30.122288121898606" lon="-6.782104673435746"><ele>700.0</ele><time>2026-03-23T07:15:31.005Z</time></trkpt><trkpt lat="30.122210132340864" lon="-6.782028395238934"><ele>700.0</ele><time>2026-03-23T07:15:32.005Z</time></trkpt><trkpt lat="30.12213669385945" lon="-6.7819642094797015"><ele>700.0</ele><time>2026-03-23T07:15:33.005Z</time></trkpt><trkpt lat="30.122069405897964" lon="-6.781902123370704"><ele>700.8</ele><time>2026-03-23T07:15:34.005Z</time></trkpt><trkpt lat="30.122005639749908" lon="-6.781838294295033"><ele>701.6</ele><time>2026-03-23T07:15:35.005Z</time></trkpt><trkpt lat="30.12193130686285" lon="-6.7817685549029285"><ele>702.4000000000001</ele><time>2026-03-23T07:15:36.005Z</time></trkpt><trkpt lat="30.121853809588448" lon="-6.781689633813859"><ele>703.2</ele><time>2026-03-23T07:15:37.005Z</time></trkpt><trkpt lat="30.121780744076354" lon="-6.781613417816985"><ele>704.0</ele><time>2026-03-23T07:15:38.005Z</time></trkpt><trkpt lat="30.121710710773367" lon="-6.781541186155155"><ele>704.0</ele><time>2026-03-23T07:15:39.005Z</time></trkpt><trkpt lat="30.12165299925869" lon="-6.781479378051765"><ele>704.0</ele><time>2026-03-23T07:15:40.005Z</time></trkpt><trkpt lat="30.121605947102083" lon="-6.781424075132736"><ele>704.0</ele><time>2026-03-23T07:15:41.005Z</time></trkpt><trkpt lat="30.12152177774968" lon="-6.781322467941186"><ele>704.0</ele><time>2026-03-23T07:15:43.005Z</time></trkpt><trkpt lat="30.121456022490353" lon="-6.781231815450096"><ele>704.0</ele><time>2026-03-23T07:15:45.005Z</time></trkpt><trkpt lat="30.12140995108992" lon="-6.781165175707003"><ele>704.0</ele><time>2026-03-23T07:15:47.005Z</time></trkpt><trkpt lat="30.121377056397897" lon="-6.7810898035390546"><ele>704.1666666666666</ele><time>2026-03-23T07:15:49.005Z</time></trkpt><trkpt lat="30.12132806889129" lon="-6.780979962737397"><ele>704.3333333333333</ele><time>2026-03-23T07:15:51.005Z</time></trkpt><trkpt lat="30.121301810520634" lon="-6.780908521737728"><ele>704.5</ele><time>2026-03-23T07:15:52.005Z</time></trkpt><trkpt lat="30.121268380469964" lon="-6.78083825083051"><ele>704.6666666666666</ele><time>2026-03-23T07:15:53.005Z</time></trkpt><trkpt lat="30.12122984165635" lon="-6.7807586016860535"><ele>704.8333333333334</ele><time>2026-03-23T07:15:54.005Z</time></trkpt><trkpt lat="30.121188228301722" lon="-6.7806782070788465"><ele>705.0</ele><time>2026-03-23T07:15:55.005Z</time></trkpt><trkpt lat="30.12114862027879" lon="-6.780604374888816"><ele>705.0</ele><time>2026-03-23T07:15:56.005Z</time></trkpt><trkpt lat="30.12110980378352" lon="-6.780532926185418"><ele>705.0</ele><time>2026-03-23T07:15:57.005Z</time></trkpt><trkpt lat="30.121064439882716" lon="-6.78045558246658"><ele>705.0</ele><time>2026-03-23T07:15:58.005Z</time></trkpt><trkpt lat="30.12101113904911" lon="-6.780380940982809"><ele>705.0</ele><time>2026-03-23T07:15:59.005Z</time></trkpt><trkpt lat="30.120951236213898" lon="-6.7803043518814805"><ele>705.0</ele><time>2026-03-23T07:16:00.005Z</time></trkpt><trkpt lat="30.120895141420597" lon="-6.780231811639351"><ele>705.0</ele><time>2026-03-23T07:16:01.005Z</time></trkpt><trkpt lat="30.120831174196123" lon="-6.7801637408057305"><ele>705.4</ele><time>2026-03-23T07:16:02.005Z</time></trkpt><trkpt lat="30.120763182070508" lon="-6.780096263557757"><ele>705.8</ele><time>2026-03-23T07:16:03.005Z</time></trkpt><trkpt lat="30.12069629486857" lon="-6.780028931077949"><ele>706.2</ele><time>2026-03-23T07:16:04.005Z</time></trkpt><trkpt lat="30.120618668482333" lon="-6.779959367203184"><ele>706.6</ele><time>2026-03-23T07:16:05.005Z</time></trkpt><trkpt lat="30.120539752347128" lon="-6.779875021545967"><ele>707.0</ele><time>2026-03-23T07:16:06.005Z</time></trkpt><trkpt lat="30.12046177851617" lon="-6.7797844073889015"><ele>707.0</ele><time>2026-03-23T07:16:07.005Z</time></trkpt><trkpt lat="30.120388058469363" lon="-6.779685424337654"><ele>707.0</ele><time>2026-03-23T07:16:08.005Z</time></trkpt><trkpt lat="30.12030232901552" lon="-6.779595943244936"><ele>707.0</ele><time>2026-03-23T07:16:09.005Z</time></trkpt><trkpt lat="30.12019714484685" lon="-6.7795078491823695"><ele>707.0</ele><time>2026-03-23T07:16:10.005Z</time></trkpt><trkpt lat="30.12008627659985" lon="-6.779390447258594"><ele>707.25</ele><time>2026-03-23T07:16:11.005Z</time></trkpt><trkpt lat="30.119979457025654" lon="-6.779273218549913"><ele>707.5</ele><time>2026-03-23T07:16:12.005Z</time></trkpt><trkpt lat="30.11987291840811" lon="-6.779155254051693"><ele>707.75</ele><time>2026-03-23T07:16:13.006Z</time></trkpt><trkpt lat="30.11977963000293" lon="-6.779053173747973"><ele>708.0</ele><time>2026-03-23T07:16:14.006Z</time></trkpt><trkpt lat="30.119700378885657" lon="-6.778964331428966"><ele>708.5</ele><time>2026-03-23T07:16:15.006Z</time></trkpt><trkpt lat="30.119625399889618" lon="-6.778875030593902"><ele>709.0</ele><time>2026-03-23T07:16:16.006Z</time></trkpt><trkpt lat="30.1195513068292" lon="-6.778772380293481"><ele>709.5</ele><time>2026-03-23T07:16:17.006Z</time></trkpt><trkpt lat="30.119470851940807" lon="-6.778663481393112"><ele>710.0</ele><time>2026-03-23T07:16:18.006Z</time></trkpt><trkpt lat="30.119383670654273" lon="-6.778570040071234"><ele>710.0</ele><time>2026-03-23T07:16:19.006Z</time></trkpt><trkpt lat="30.11930486561034" lon="-6.778486762430797"><ele>710.0</ele><time>2026-03-23T07:16:20.006Z</time></trkpt><trkpt lat="30.119233797519765" lon="-6.778407955097649"><ele>710.0</ele><time>2026-03-23T07:16:21.006Z</time></trkpt><trkpt lat="30.1191615895289" lon="-6.778323541137924"><ele>710.0</ele><time>2026-03-23T07:16:22.006Z</time></trkpt><trkpt lat="30.11908253272032" lon="-6.778250370144554"><ele>710.0</ele><time>2026-03-23T07:16:23.006Z</time></trkpt><trkpt lat="30.119020289252138" lon="-6.778172667294279"><ele>710.0</ele><time>2026-03-23T07:16:24.006Z</time></trkpt><trkpt lat="30.11895949773008" lon="-6.77808492685161"><ele>710.0</ele><time>2026-03-23T07:16:25.006Z</time></trkpt><trkpt lat="30.11891846551277" lon="-6.777981441887299"><ele>710.0</ele><time>2026-03-23T07:16:26.006Z</time></trkpt><trkpt lat="30.11888566521007" lon="-6.77787312998732"><ele>710.0</ele><time>2026-03-23T07:16:27.006Z</time></trkpt><trkpt lat="30.11884568098798" lon="-6.777770872745234"><ele>710.0</ele><time>2026-03-23T07:16:28.006Z</time></trkpt><trkpt lat="30.118807352715308" lon="-6.777672881519801"><ele>710.0</ele><time>2026-03-23T07:16:29.006Z</time></trkpt><trkpt lat="30.1187650782354" lon="-6.777563848926102"><ele>710.0</ele><time>2026-03-23T07:16:30.006Z</time></trkpt><trkpt lat="30.118722573335415" lon="-6.777455434156128"><ele>710.0</ele><time>2026-03-23T07:16:31.006Z</time></trkpt><trkpt lat="30.118684261503205" lon="-6.777359329706371"><ele>710.0</ele><time>2026-03-23T07:16:32.006Z</time></trkpt><trkpt lat="30.118645290700144" lon="-6.777275300935356"><ele>710.0</ele><time>2026-03-23T07:16:33.006Z</time></trkpt><trkpt lat="30.118608698887204" lon="-6.777198607162935"><ele>710.0</ele><time>2026-03-23T07:16:34.006Z</time></trkpt><trkpt lat="30.118582601290417" lon="-6.777129340203861"><ele>710.0</ele><time>2026-03-23T07:16:35.006Z</time></trkpt><trkpt lat="30.118540801806148" lon="-6.777020526251603"><ele>710.0</ele><time>2026-03-23T07:16:37.006Z</time></trkpt><trkpt lat="30.118513314812887" lon="-6.776917397722545"><ele>710.0</ele><time>2026-03-23T07:16:39.006Z</time></trkpt><trkpt lat="30.11850422361819" lon="-6.776840183207694"><ele>710.0</ele><time>2026-03-23T07:16:40.006Z</time></trkpt><trkpt lat="30.11850918800593" lon="-6.776738046162528"><ele>710.0</ele><time>2026-03-23T07:16:41.006Z</time></trkpt><trkpt lat="30.118521530650437" lon="-6.776617413631898"><ele>710.0</ele><time>2026-03-23T07:16:42.006Z</time></trkpt><trkpt lat="30.118532674759155" lon="-6.776462841866897"><ele>710.0</ele><time>2026-03-23T07:16:43.006Z</time></trkpt><trkpt lat="30.11854594204143" lon="-6.776331197299022"><ele>710.0</ele><time>2026-03-23T07:16:44.006Z</time></trkpt><trkpt lat="30.118563727955305" lon="-6.776216510024069"><ele>710.0</ele><time>2026-03-23T07:16:45.006Z</time></trkpt><trkpt lat="30.118587139996283" lon="-6.776114936751745"><ele>710.0</ele><time>2026-03-23T07:16:46.006Z</time></trkpt><trkpt lat="30.118602639835185" lon="-6.776016024654886"><ele>710.2</ele><time>2026-03-23T07:16:47.006Z</time></trkpt><trkpt lat="30.118614195958088" lon="-6.775912511023858"><ele>710.4</ele><time>2026-03-23T07:16:48.006Z</time></trkpt><trkpt lat="30.118624850638493" lon="-6.7758094926363714"><ele>710.5999999999999</ele><time>2026-03-23T07:16:49.006Z</time></trkpt><trkpt lat="30.11863243652919" lon="-6.775706465987808"><ele>710.8</ele><time>2026-03-23T07:16:50.006Z</time></trkpt><trkpt lat="30.11863793713807" lon="-6.775604548072129"><ele>711.0</ele><time>2026-03-23T07:16:51.006Z</time></trkpt><trkpt lat="30.118648312208762" lon="-6.7754963014558065"><ele>711.0</ele><time>2026-03-23T07:16:52.006Z</time></trkpt><trkpt lat="30.118657075440904" lon="-6.775385676605229"><ele>711.0</ele><time>2026-03-23T07:16:53.006Z</time></trkpt><trkpt lat="30.118663543117634" lon="-6.775268690912434"><ele>711.0</ele><time>2026-03-23T07:16:54.006Z</time></trkpt><trkpt lat="30.118671510089303" lon="-6.775150443055428"><ele>711.0</ele><time>2026-03-23T07:16:55.006Z</time></trkpt><trkpt lat="30.118686234037973" lon="-6.775028306490364"><ele>711.0</ele><time>2026-03-23T07:16:56.006Z</time></trkpt><trkpt lat="30.118700176358878" lon="-6.774904489356153"><ele>711.4</ele><time>2026-03-23T07:16:57.006Z</time></trkpt><trkpt lat="30.11871167150947" lon="-6.774778628453673"><ele>711.8</ele><time>2026-03-23T07:16:58.006Z</time></trkpt><trkpt lat="30.118723855890437" lon="-6.774656379747403"><ele>712.1999999999999</ele><time>2026-03-23T07:16:59.006Z</time></trkpt><trkpt lat="30.118734647154138" lon="-6.774537665862973"><ele>712.5999999999999</ele><time>2026-03-23T07:17:00.006Z</time></trkpt><trkpt lat="30.118746310931478" lon="-6.774415015730602"><ele>713.0</ele><time>2026-03-23T07:17:01.006Z</time></trkpt><trkpt lat="30.118751481250886" lon="-6.774294084796658"><ele>713.0</ele><time>2026-03-23T07:17:02.006Z</time></trkpt><trkpt lat="30.118758463967914" lon="-6.774173860142727"><ele>713.0</ele><time>2026-03-23T07:17:03.006Z</time></trkpt><trkpt lat="30.118769731598263" lon="-6.774048813638929"><ele>713.0</ele><time>2026-03-23T07:17:04.006Z</time></trkpt><trkpt lat="30.11877690312199" lon="-6.773915289269209"><ele>713.0</ele><time>2026-03-23T07:17:05.006Z</time></trkpt><trkpt lat="30.11877952754619" lon="-6.773777386449262"><ele>713.0</ele><time>2026-03-23T07:17:06.006Z</time></trkpt><trkpt lat="30.1187963052914" lon="-6.773641822960011"><ele>712.75</ele><time>2026-03-23T07:17:07.005Z</time></trkpt><trkpt lat="30.118815056799928" lon="-6.773513121641925"><ele>712.5</ele><time>2026-03-23T07:17:08.005Z</time></trkpt><trkpt lat="30.118828484925764" lon="-6.773385175448763"><ele>712.25</ele><time>2026-03-23T07:17:09.006Z</time></trkpt><trkpt lat="30.11883987835705" lon="-6.77325588655673"><ele>712.0</ele><time>2026-03-23T07:17:10.006Z</time></trkpt><trkpt lat="30.118846884916003" lon="-6.773123881622927"><ele>712.0</ele><time>2026-03-23T07:17:11.006Z</time></trkpt><trkpt lat="30.118850050160475" lon="-6.77299426443176"><ele>712.0</ele><time>2026-03-23T07:17:12.006Z</time></trkpt><trkpt lat="30.11885706206117" lon="-6.772862454338252"><ele>712.0</ele><time>2026-03-23T07:17:13.006Z</time></trkpt><trkpt lat="30.118870541725293" lon="-6.772736722280924"><ele>712.0</ele><time>2026-03-23T07:17:14.006Z</time></trkpt><trkpt lat="30.118887970940744" lon="-6.772613340610904"><ele>712.0</ele><time>2026-03-23T07:17:15.006Z</time></trkpt><trkpt lat="30.11890274596108" lon="-6.772488091134285"><ele>711.6</ele><time>2026-03-23T07:17:16.005Z</time></trkpt><trkpt lat="30.118916915464084" lon="-6.772362398023746"><ele>711.2</ele><time>2026-03-23T07:17:17.005Z</time></trkpt><trkpt lat="30.11892759207424" lon="-6.772235953385466"><ele>710.8</ele><time>2026-03-23T07:17:18.006Z</time></trkpt><trkpt lat="30.1189391106954" lon="-6.772110497585015"><ele>710.4</ele><time>2026-03-23T07:17:19.006Z</time></trkpt><trkpt lat="30.118954400086633" lon="-6.771978696744582"><ele>710.0</ele><time>2026-03-23T07:17:20.006Z</time></trkpt><trkpt lat="30.118966689486584" lon="-6.771849721328035"><ele>710.0</ele><time>2026-03-23T07:17:21.006Z</time></trkpt><trkpt lat="30.11896884718278" lon="-6.771721755776004"><ele>710.0</ele><time>2026-03-23T07:17:22.006Z</time></trkpt><trkpt lat="30.118955137020127" lon="-6.771599656727645"><ele>710.0</ele><time>2026-03-23T07:17:23.006Z</time></trkpt><trkpt lat="30.11893672679284" lon="-6.771479609967195"><ele>710.0</ele><time>2026-03-23T07:17:24.006Z</time></trkpt><trkpt lat="30.1189217524178" lon="-6.771362089178818"><ele>710.0</ele><time>2026-03-23T07:17:25.006Z</time></trkpt><trkpt lat="30.118910004540027" lon="-6.771254328195876"><ele>710.0</ele><time>2026-03-23T07:17:26.006Z</time></trkpt><trkpt lat="30.118903362102905" lon="-6.771151215311815"><ele>710.0</ele><time>2026-03-23T07:17:27.006Z</time></trkpt><trkpt lat="30.11889875746763" lon="-6.7710582784170406"><ele>710.0</ele><time>2026-03-23T07:17:28.006Z</time></trkpt><trkpt lat="30.118891715178172" lon="-6.7709678752325875"><ele>710.0</ele><time>2026-03-23T07:17:29.006Z</time></trkpt><trkpt lat="30.118875477234706" lon="-6.770867760224437"><ele>710.0</ele><time>2026-03-23T07:17:30.006Z</time></trkpt><trkpt lat="30.118860100026524" lon="-6.770756861558073"><ele>710.0</ele><time>2026-03-23T07:17:31.006Z</time></trkpt><trkpt lat="30.118847128907206" lon="-6.7706291889864945"><ele>710.0</ele><time>2026-03-23T07:17:32.006Z</time></trkpt><trkpt lat="30.118840125122237" lon="-6.77048341930587"><ele>710.0</ele><time>2026-03-23T07:17:33.006Z</time></trkpt><trkpt lat="30.118842084995773" lon="-6.7703358063429215"><ele>710.0</ele><time>2026-03-23T07:17:34.006Z</time></trkpt><trkpt lat="30.118832960004283" lon="-6.770215092490098"><ele>710.0</ele><time>2026-03-23T07:17:35.006Z</time></trkpt><trkpt lat="30.118824643237602" lon="-6.770124570362125"><ele>710.0</ele><time>2026-03-23T07:17:36.006Z</time></trkpt><trkpt lat="30.118809231007376" lon="-6.770025049067238"><ele>709.8</ele><time>2026-03-23T07:17:37.006Z</time></trkpt><trkpt lat="30.118802532555254" lon="-6.76992135292026"><ele>709.6</ele><time>2026-03-23T07:17:38.006Z</time></trkpt><trkpt lat="30.11880172104391" lon="-6.769813583727626"><ele>709.4000000000001</ele><time>2026-03-23T07:17:39.006Z</time></trkpt><trkpt lat="30.118797316222633" lon="-6.769712756327779"><ele>709.2</ele><time>2026-03-23T07:17:40.006Z</time></trkpt><trkpt lat="30.118789742825854" lon="-6.769607071960308"><ele>709.0</ele><time>2026-03-23T07:17:41.006Z</time></trkpt><trkpt lat="30.118778408671755" lon="-6.769489224696398"><ele>709.0</ele><time>2026-03-23T07:17:42.006Z</time></trkpt><trkpt lat="30.118768439846015" lon="-6.769367657460996"><ele>709.0</ele><time>2026-03-23T07:17:43.006Z</time></trkpt><trkpt lat="30.118759834949017" lon="-6.769246523669377"><ele>709.0</ele><time>2026-03-23T07:17:44.006Z</time></trkpt><trkpt lat="30.118748659531352" lon="-6.76913378855393"><ele>709.0</ele><time>2026-03-23T07:17:45.006Z</time></trkpt><trkpt lat="30.118734960029734" lon="-6.769037601659291"><ele>709.0</ele><time>2026-03-23T07:17:46.006Z</time></trkpt><trkpt lat="30.118717437149634" lon="-6.768953811585037"><ele>709.5</ele><time>2026-03-23T07:17:47.006Z</time></trkpt><trkpt lat="30.11871414913243" lon="-6.768872480947082"><ele>710.0</ele><time>2026-03-23T07:17:48.006Z</time></trkpt><trkpt lat="30.118704712163908" lon="-6.768784469355386"><ele>710.5</ele><time>2026-03-23T07:17:49.006Z</time></trkpt><trkpt lat="30.11868874542034" lon="-6.768692373971261"><ele>711.0</ele><time>2026-03-23T07:17:50.006Z</time></trkpt><trkpt lat="30.118677577095664" lon="-6.76859691964103"><ele>711.5</ele><time>2026-03-23T07:17:51.006Z</time></trkpt><trkpt lat="30.118671411138983" lon="-6.768497785248332"><ele>712.0</ele><time>2026-03-23T07:17:52.006Z</time></trkpt><trkpt lat="30.11866112457953" lon="-6.7684050982289605"><ele>712.1666666666667</ele><time>2026-03-23T07:17:53.006Z</time></trkpt><trkpt lat="30.11864776066239" lon="-6.768311001534254"><ele>712.3333333333334</ele><time>2026-03-23T07:17:54.006Z</time></trkpt><trkpt lat="30.118640792727952" lon="-6.768227683034413"><ele>712.5</ele><time>2026-03-23T07:17:55.006Z</time></trkpt><trkpt lat="30.118633868858804" lon="-6.76814936688507"><ele>712.6666666666666</ele><time>2026-03-23T07:17:56.006Z</time></trkpt><trkpt lat="30.118627509330928" lon="-6.7680645970227475"><ele>712.8333333333333</ele><time>2026-03-23T07:17:57.006Z</time></trkpt><trkpt lat="30.11862094099722" lon="-6.767966862603666"><ele>713.0</ele><time>2026-03-23T07:17:58.006Z</time></trkpt><trkpt lat="30.118614140181204" lon="-6.767865888674222"><ele>713.0</ele><time>2026-03-23T07:17:59.006Z</time></trkpt><trkpt lat="30.118603287539518" lon="-6.767760522722411"><ele>713.0</ele><time>2026-03-23T07:18:00.006Z</time></trkpt><trkpt lat="30.118589508144115" lon="-6.767649680136934"><ele>713.0</ele><time>2026-03-23T07:18:01.006Z</time></trkpt><trkpt lat="30.118575162944655" lon="-6.7675299215507865"><ele>713.0</ele><time>2026-03-23T07:18:02.006Z</time></trkpt><trkpt lat="30.118557830644185" lon="-6.767401255301181"><ele>713.0</ele><time>2026-03-23T07:18:03.006Z</time></trkpt><trkpt lat="30.11854572328513" lon="-6.767284339036819"><ele>712.8</ele><time>2026-03-23T07:18:04.006Z</time></trkpt><trkpt lat="30.118529361697913" lon="-6.767166333807392"><ele>712.5999999999999</ele><time>2026-03-23T07:18:05.006Z</time></trkpt><trkpt lat="30.118518444436972" lon="-6.767051824487638"><ele>712.4000000000001</ele><time>2026-03-23T07:18:06.006Z</time></trkpt><trkpt lat="30.118507027345256" lon="-6.766933953603261"><ele>712.2</ele><time>2026-03-23T07:18:07.006Z</time></trkpt><trkpt lat="30.11849617593413" lon="-6.766806825853175"><ele>712.0</ele><time>2026-03-23T07:18:08.006Z</time></trkpt><trkpt lat="30.11847696829705" lon="-6.766690072432081"><ele>711.8</ele><time>2026-03-23T07:18:09.006Z</time></trkpt><trkpt lat="30.118466152597243" lon="-6.766578545261628"><ele>711.6</ele><time>2026-03-23T07:18:10.006Z</time></trkpt><trkpt lat="30.118453789409866" lon="-6.766467040565367"><ele>711.4</ele><time>2026-03-23T07:18:11.006Z</time></trkpt><trkpt lat="30.11843909553378" lon="-6.76635860643418"><ele>711.1999999999999</ele><time>2026-03-23T07:18:12.006Z</time></trkpt><trkpt lat="30.11842227668006" lon="-6.766245242437414"><ele>711.0</ele><time>2026-03-23T07:18:13.006Z</time></trkpt><trkpt lat="30.118404372488882" lon="-6.7661298316007725"><ele>711.0</ele><time>2026-03-23T07:18:14.006Z</time></trkpt><trkpt lat="30.118389346846755" lon="-6.766016523058993"><ele>711.0</ele><time>2026-03-23T07:18:15.006Z</time></trkpt><trkpt lat="30.11837304903336" lon="-6.765888277840358"><ele>711.0</ele><time>2026-03-23T07:18:16.006Z</time></trkpt><trkpt lat="30.118350864426944" lon="-6.765740937151147"><ele>711.0</ele><time>2026-03-23T07:18:17.006Z</time></trkpt><trkpt lat="30.11831876317264" lon="-6.765577121937671"><ele>711.0</ele><time>2026-03-23T07:18:18.006Z</time></trkpt><trkpt lat="30.118295888112165" lon="-6.765419745000782"><ele>711.0</ele><time>2026-03-23T07:18:19.006Z</time></trkpt><trkpt lat="30.118274131100254" lon="-6.76525812785808"><ele>711.0</ele><time>2026-03-23T07:18:20.006Z</time></trkpt><trkpt lat="30.11825284836384" lon="-6.7651066063319005"><ele>711.0</ele><time>2026-03-23T07:18:21.006Z</time></trkpt><trkpt lat="30.11823511391974" lon="-6.764977637193478"><ele>711.4</ele><time>2026-03-23T07:18:22.006Z</time></trkpt><trkpt lat="30.118217403841694" lon="-6.764865349489369"><ele>711.8</ele><time>2026-03-23T07:18:23.006Z</time></trkpt><trkpt lat="30.118202053358353" lon="-6.764746798098354"><ele>712.1999999999999</ele><time>2026-03-23T07:18:24.006Z</time></trkpt><trkpt lat="30.118175458942687" lon="-6.764642293748803"><ele>712.5999999999999</ele><time>2026-03-23T07:18:25.006Z</time></trkpt><trkpt lat="30.11815711963237" lon="-6.764535979227601"><ele>713.0</ele><time>2026-03-23T07:18:26.006Z</time></trkpt><trkpt lat="30.11814415759076" lon="-6.7644297589023985"><ele>713.1666666666666</ele><time>2026-03-23T07:18:27.006Z</time></trkpt><trkpt lat="30.118131620819902" lon="-6.764324187579593"><ele>713.3333333333333</ele><time>2026-03-23T07:18:28.006Z</time></trkpt><trkpt lat="30.11813346612081" lon="-6.764225397804958"><ele>713.5</ele><time>2026-03-23T07:18:29.006Z</time></trkpt><trkpt lat="30.118113773127696" lon="-6.764116170614068"><ele>713.6666666666666</ele><time>2026-03-23T07:18:30.006Z</time></trkpt><trkpt lat="30.118097719561113" lon="-6.76401885986955"><ele>713.8333333333334</ele><time>2026-03-23T07:18:31.006Z</time></trkpt><trkpt lat="30.118080305981923" lon="-6.763924698138231"><ele>714.0</ele><time>2026-03-23T07:18:32.006Z</time></trkpt><trkpt lat="30.11806772173965" lon="-6.763840329156011"><ele>714.0</ele><time>2026-03-23T07:18:33.006Z</time></trkpt><trkpt lat="30.118052057445553" lon="-6.763738575288311"><ele>714.0</ele><time>2026-03-23T07:18:34.006Z</time></trkpt><trkpt lat="30.118038083486944" lon="-6.763648643376892"><ele>714.0</ele><time>2026-03-23T07:18:35.006Z</time></trkpt><trkpt lat="30.11802363559113" lon="-6.763545976512806"><ele>714.0</ele><time>2026-03-23T07:18:36.006Z</time></trkpt><trkpt lat="30.118008222451405" lon="-6.763440317719544"><ele>714.0</ele><time>2026-03-23T07:18:37.006Z</time></trkpt><trkpt lat="30.117991565727582" lon="-6.763326561495254"><ele>714.0</ele><time>2026-03-23T07:18:38.006Z</time></trkpt><trkpt lat="30.117974347774464" lon="-6.763220903091301"><ele>714.0</ele><time>2026-03-23T07:18:39.006Z</time></trkpt><trkpt lat="30.117959099166665" lon="-6.763120472669523"><ele>714.0</ele><time>2026-03-23T07:18:40.006Z</time></trkpt><trkpt lat="30.117938436594205" lon="-6.763031189728802"><ele>714.0</ele><time>2026-03-23T07:18:41.006Z</time></trkpt><trkpt lat="30.117925099869083" lon="-6.762950398382039"><ele>714.0</ele><time>2026-03-23T07:18:42.006Z</time></trkpt><trkpt lat="30.117914568134022" lon="-6.762862159901552"><ele>714.0</ele><time>2026-03-23T07:18:43.006Z</time></trkpt><trkpt lat="30.117898710739254" lon="-6.762773996004917"><ele>713.8333333333334</ele><time>2026-03-23T07:18:44.006Z</time></trkpt><trkpt lat="30.117885608357287" lon="-6.762677654410316"><ele>713.6666666666666</ele><time>2026-03-23T07:18:45.006Z</time></trkpt><trkpt lat="30.11787135408626" lon="-6.76257647849086"><ele>713.5</ele><time>2026-03-23T07:18:46.006Z</time></trkpt><trkpt lat="30.1178571068852" lon="-6.7624753064674525"><ele>713.3333333333333</ele><time>2026-03-23T07:18:47.006Z</time></trkpt><trkpt lat="30.117839086945725" lon="-6.76237674913804"><ele>713.1666666666666</ele><time>2026-03-23T07:18:48.006Z</time></trkpt><trkpt lat="30.117835596603427" lon="-6.762288778374584"><ele>713.0</ele><time>2026-03-23T07:18:49.006Z</time></trkpt><trkpt lat="30.117835385936843" lon="-6.762196623488518"><ele>713.0</ele><time>2026-03-23T07:18:50.006Z</time></trkpt><trkpt lat="30.117823348614365" lon="-6.762092678286752"><ele>713.0</ele><time>2026-03-23T07:18:51.006Z</time></trkpt><trkpt lat="30.11779733700618" lon="-6.76196142013533"><ele>713.0</ele><time>2026-03-23T07:18:52.006Z</time></trkpt><trkpt lat="30.117764225327875" lon="-6.76182680049504"><ele>713.0</ele><time>2026-03-23T07:18:53.006Z</time></trkpt><trkpt lat="30.117729069038354" lon="-6.761718375863859"><ele>713.0</ele><time>2026-03-23T07:18:54.006Z</time></trkpt><trkpt lat="30.117695646579445" lon="-6.761620718197712"><ele>712.8</ele><time>2026-03-23T07:18:55.006Z</time></trkpt><trkpt lat="30.11765827538489" lon="-6.7615227723327935"><ele>712.5999999999999</ele><time>2026-03-23T07:18:56.006Z</time></trkpt><trkpt lat="30.117614834642435" lon="-6.761424052422154"><ele>712.4000000000001</ele><time>2026-03-23T07:18:57.006Z</time></trkpt><trkpt lat="30.117570128404292" lon="-6.761326410673591"><ele>712.2</ele><time>2026-03-23T07:18:58.006Z</time></trkpt><trkpt lat="30.11752402187692" lon="-6.761222567324475"><ele>712.0</ele><time>2026-03-23T07:18:59.006Z</time></trkpt><trkpt lat="30.117484750509053" lon="-6.761129377022258"><ele>712.0</ele><time>2026-03-23T07:19:00.006Z</time></trkpt><trkpt lat="30.117442895462254" lon="-6.7610364328692905"><ele>712.0</ele><time>2026-03-23T07:19:01.006Z</time></trkpt><trkpt lat="30.117397177742465" lon="-6.760947102198481"><ele>712.0</ele><time>2026-03-23T07:19:02.006Z</time></trkpt><trkpt lat="30.117351403466056" lon="-6.760854772233035"><ele>712.0</ele><time>2026-03-23T07:19:03.006Z</time></trkpt><trkpt lat="30.11730142332078" lon="-6.760754357472526"><ele>712.0</ele><time>2026-03-23T07:19:04.006Z</time></trkpt><trkpt lat="30.1172592707707" lon="-6.760651512792186"><ele>712.2</ele><time>2026-03-23T07:19:05.006Z</time></trkpt><trkpt lat="30.117217642169745" lon="-6.760544594880746"><ele>712.4000000000001</ele><time>2026-03-23T07:19:06.006Z</time></trkpt><trkpt lat="30.117170796728473" lon="-6.760430126710466"><ele>712.5999999999999</ele><time>2026-03-23T07:19:07.006Z</time></trkpt><trkpt lat="30.117124948373213" lon="-6.760316708347287"><ele>712.8</ele><time>2026-03-23T07:19:08.006Z</time></trkpt><trkpt lat="30.117084128642514" lon="-6.76020271394717"><ele>713.0</ele><time>2026-03-23T07:19:09.006Z</time></trkpt><trkpt lat="30.117039584835304" lon="-6.760083954428267"><ele>713.0</ele><time>2026-03-23T07:19:10.006Z</time></trkpt><trkpt lat="30.117002094184468" lon="-6.759972074500048"><ele>713.0</ele><time>2026-03-23T07:19:11.006Z</time></trkpt><trkpt lat="30.116966548540816" lon="-6.759867440642806"><ele>713.0</ele><time>2026-03-23T07:19:12.007Z</time></trkpt><trkpt lat="30.11691513387548" lon="-6.7597574971314724"><ele>713.0</ele><time>2026-03-23T07:19:13.006Z</time></trkpt><trkpt lat="30.116861378815" lon="-6.759657979759969"><ele>713.0</ele><time>2026-03-23T07:19:14.006Z</time></trkpt><trkpt lat="30.116811019735653" lon="-6.759547541347843"><ele>713.0</ele><time>2026-03-23T07:19:15.007Z</time></trkpt><trkpt lat="30.11676965343831" lon="-6.75943463320472"><ele>713.0</ele><time>2026-03-23T07:19:16.006Z</time></trkpt><trkpt lat="30.11672970563151" lon="-6.759319548159032"><ele>713.0</ele><time>2026-03-23T07:19:17.006Z</time></trkpt><trkpt lat="30.116705157132756" lon="-6.759203608088896"><ele>713.0</ele><time>2026-03-23T07:19:18.007Z</time></trkpt><trkpt lat="30.116671252267732" lon="-6.759091252022599"><ele>713.0</ele><time>2026-03-23T07:19:19.006Z</time></trkpt><trkpt lat="30.116621752760395" lon="-6.75898033280279"><ele>713.0</ele><time>2026-03-23T07:19:20.006Z</time></trkpt><trkpt lat="30.116577995284715" lon="-6.7588755336883946"><ele>713.0</ele><time>2026-03-23T07:19:21.007Z</time></trkpt><trkpt lat="30.116539391316703" lon="-6.758775515932491"><ele>713.0</ele><time>2026-03-23T07:19:22.007Z</time></trkpt><trkpt lat="30.116501905919066" lon="-6.7586750896919305"><ele>713.0</ele><time>2026-03-23T07:19:23.007Z</time></trkpt><trkpt lat="30.11645899618954" lon="-6.758566303530142"><ele>713.0</ele><time>2026-03-23T07:19:24.007Z</time></trkpt><trkpt lat="30.116414181162526" lon="-6.758455784316404"><ele>713.4</ele><time>2026-03-23T07:19:25.007Z</time></trkpt><trkpt lat="30.116365655929016" lon="-6.758346277867234"><ele>713.8</ele><time>2026-03-23T07:19:26.007Z</time></trkpt><trkpt lat="30.116321618996604" lon="-6.758235632480478"><ele>714.2</ele><time>2026-03-23T07:19:27.007Z</time></trkpt><trkpt lat="30.11627399123548" lon="-6.758121095830993"><ele>714.6</ele><time>2026-03-23T07:19:28.007Z</time></trkpt><trkpt lat="30.116227106039585" lon="-6.758010736427641"><ele>715.0</ele><time>2026-03-23T07:19:29.007Z</time></trkpt><trkpt lat="30.116184681410942" lon="-6.757894412451689"><ele>715.0</ele><time>2026-03-23T07:19:30.007Z</time></trkpt><trkpt lat="30.116142951432547" lon="-6.757768043525035"><ele>715.0</ele><time>2026-03-23T07:19:31.007Z</time></trkpt><trkpt lat="30.11609880857335" lon="-6.757635393696253"><ele>715.0</ele><time>2026-03-23T07:19:32.007Z</time></trkpt><trkpt lat="30.11604314293541" lon="-6.757506862923683"><ele>715.0</ele><time>2026-03-23T07:19:33.007Z</time></trkpt><trkpt lat="30.11599386885941" lon="-6.7573962544482935"><ele>714.8</ele><time>2026-03-23T07:19:34.007Z</time></trkpt><trkpt lat="30.115954327125046" lon="-6.757295638765805"><ele>714.6</ele><time>2026-03-23T07:19:35.007Z</time></trkpt><trkpt lat="30.115910254443595" lon="-6.757192947455579"><ele>714.4000000000001</ele><time>2026-03-23T07:19:36.007Z</time></trkpt><trkpt lat="30.11586976511272" lon="-6.75709216954679"><ele>714.2</ele><time>2026-03-23T07:19:37.007Z</time></trkpt><trkpt lat="30.115832255084804" lon="-6.756990603950359"><ele>714.0</ele><time>2026-03-23T07:19:38.007Z</time></trkpt><trkpt lat="30.11579554286878" lon="-6.756885487207536"><ele>714.0</ele><time>2026-03-23T07:19:39.007Z</time></trkpt><trkpt lat="30.115761249428918" lon="-6.756789005595076"><ele>714.0</ele><time>2026-03-23T07:19:40.007Z</time></trkpt><trkpt lat="30.115724957302714" lon="-6.756692962098537"><ele>714.0</ele><time>2026-03-23T07:19:41.007Z</time></trkpt><trkpt lat="30.115682679443598" lon="-6.756585796461227"><ele>714.0</ele><time>2026-03-23T07:19:42.007Z</time></trkpt><trkpt lat="30.11563922052211" lon="-6.756469968336654"><ele>714.0</ele><time>2026-03-23T07:19:43.007Z</time></trkpt><trkpt lat="30.11559287340775" lon="-6.75634628603714"><ele>714.2</ele><time>2026-03-23T07:19:44.007Z</time></trkpt><trkpt lat="30.115545549817806" lon="-6.756215862900277"><ele>714.4000000000001</ele><time>2026-03-23T07:19:45.007Z</time></trkpt><trkpt lat="30.115500245409045" lon="-6.756091955714863"><ele>714.6</ele><time>2026-03-23T07:19:46.007Z</time></trkpt><trkpt lat="30.11546143453845" lon="-6.755979759142353"><ele>714.8</ele><time>2026-03-23T07:19:47.007Z</time></trkpt><trkpt lat="30.115413223648993" lon="-6.755871193170051"><ele>715.0</ele><time>2026-03-23T07:19:48.007Z</time></trkpt><trkpt lat="30.11536547496363" lon="-6.755758169651002"><ele>714.5</ele><time>2026-03-23T07:19:49.007Z</time></trkpt><trkpt lat="30.115310455433754" lon="-6.755638064017706"><ele>714.0</ele><time>2026-03-23T07:19:50.007Z</time></trkpt><trkpt lat="30.115263658201485" lon="-6.755514360324006"><ele>713.5</ele><time>2026-03-23T07:19:51.007Z</time></trkpt><trkpt lat="30.115217828480045" lon="-6.755392623216473"><ele>713.0</ele><time>2026-03-23T07:19:52.007Z</time></trkpt><trkpt lat="30.11516876019449" lon="-6.7552564099672425"><ele>713.5</ele><time>2026-03-23T07:19:53.007Z</time></trkpt><trkpt lat="30.115117476042318" lon="-6.755111707153757"><ele>714.0</ele><time>2026-03-23T07:19:54.007Z</time></trkpt><trkpt lat="30.115070741316746" lon="-6.754981047573389"><ele>714.5</ele><time>2026-03-23T07:19:55.007Z</time></trkpt><trkpt lat="30.115027001822487" lon="-6.754868279039328"><ele>715.0</ele><time>2026-03-23T07:19:56.007Z</time></trkpt><trkpt lat="30.114977975156755" lon="-6.754761497971701"><ele>715.0</ele><time>2026-03-23T07:19:57.007Z</time></trkpt><trkpt lat="30.114922745618934" lon="-6.754648209288394"><ele>715.0</ele><time>2026-03-23T07:19:58.007Z</time></trkpt><trkpt lat="30.114872808216855" lon="-6.7545237022761"><ele>715.0</ele><time>2026-03-23T07:19:59.007Z</time></trkpt><trkpt lat="30.11482445574656" lon="-6.75439801066946"><ele>715.0</ele><time>2026-03-23T07:20:00.007Z</time></trkpt><trkpt lat="30.114778139971456" lon="-6.754281865676069"><ele>715.4</ele><time>2026-03-23T07:20:01.007Z</time></trkpt><trkpt lat="30.1147321431178" lon="-6.754165297639349"><ele>715.8</ele><time>2026-03-23T07:20:02.007Z</time></trkpt><trkpt lat="30.114685457034184" lon="-6.7540482131825135"><ele>716.2</ele><time>2026-03-23T07:20:03.007Z</time></trkpt><trkpt lat="30.114640342329523" lon="-6.753934076013018"><ele>716.6</ele><time>2026-03-23T07:20:04.007Z</time></trkpt><trkpt lat="30.11459795866558" lon="-6.753820808475239"><ele>717.0</ele><time>2026-03-23T07:20:05.007Z</time></trkpt><trkpt lat="30.11455569295844" lon="-6.753711030401341"><ele>717.0</ele><time>2026-03-23T07:20:06.007Z</time></trkpt><trkpt lat="30.114511994768403" lon="-6.753597836386587"><ele>717.0</ele><time>2026-03-23T07:20:07.007Z</time></trkpt><trkpt lat="30.114465688209286" lon="-6.753479432023967"><ele>717.0</ele><time>2026-03-23T07:20:08.007Z</time></trkpt><trkpt lat="30.11442221938612" lon="-6.753362246524412"><ele>717.0</ele><time>2026-03-23T07:20:09.007Z</time></trkpt><trkpt lat="30.11437807763112" lon="-6.753245276438461"><ele>717.0</ele><time>2026-03-23T07:20:10.007Z</time></trkpt><trkpt lat="30.1143311179132" lon="-6.753130493012005"><ele>716.5</ele><time>2026-03-23T07:20:11.007Z</time></trkpt><trkpt lat="30.114279621926958" lon="-6.753014055640685"><ele>716.0</ele><time>2026-03-23T07:20:12.007Z</time></trkpt><trkpt lat="30.114232677135384" lon="-6.752895090770751"><ele>715.5</ele><time>2026-03-23T07:20:13.007Z</time></trkpt><trkpt lat="30.114194989815093" lon="-6.752769430703627"><ele>715.0</ele><time>2026-03-23T07:20:14.007Z</time></trkpt><trkpt lat="30.114157141912855" lon="-6.752650285301492"><ele>715.0</ele><time>2026-03-23T07:20:15.007Z</time></trkpt><trkpt lat="30.11411653943411" lon="-6.752529155692814"><ele>715.0</ele><time>2026-03-23T07:20:16.007Z</time></trkpt><trkpt lat="30.114066645055438" lon="-6.752416692611051"><ele>715.0</ele><time>2026-03-23T07:20:17.007Z</time></trkpt><trkpt lat="30.11401413101232" lon="-6.752300006825529"><ele>715.0</ele><time>2026-03-23T07:20:18.007Z</time></trkpt><trkpt lat="30.11396397484983" lon="-6.7521797097278755"><ele>715.5</ele><time>2026-03-23T07:20:19.007Z</time></trkpt><trkpt lat="30.11391389060359" lon="-6.752060432284658"><ele>716.0</ele><time>2026-03-23T07:20:20.007Z</time></trkpt><trkpt lat="30.113867027485846" lon="-6.751938136499291"><ele>716.5</ele><time>2026-03-23T07:20:21.007Z</time></trkpt><trkpt lat="30.113820476574364" lon="-6.751818965191871"><ele>717.0</ele><time>2026-03-23T07:20:22.007Z</time></trkpt><trkpt lat="30.11377436165569" lon="-6.751699541307304"><ele>717.25</ele><time>2026-03-23T07:20:23.007Z</time></trkpt><trkpt lat="30.113723075968153" lon="-6.751579112599335"><ele>717.5</ele><time>2026-03-23T07:20:24.007Z</time></trkpt><trkpt lat="30.113675173543392" lon="-6.751457541828128"><ele>717.75</ele><time>2026-03-23T07:20:25.007Z</time></trkpt><trkpt lat="30.113632243416497" lon="-6.751332035005372"><ele>718.0</ele><time>2026-03-23T07:20:26.007Z</time></trkpt><trkpt lat="30.113586006533627" lon="-6.75119983678066"><ele>718.0</ele><time>2026-03-23T07:20:27.007Z</time></trkpt><trkpt lat="30.11352340941852" lon="-6.751063232888239"><ele>718.0</ele><time>2026-03-23T07:20:28.007Z</time></trkpt><trkpt lat="30.11346226988356" lon="-6.750922441358086"><ele>718.0</ele><time>2026-03-23T07:20:29.007Z</time></trkpt><trkpt lat="30.11340498837966" lon="-6.750787926770568"><ele>718.0</ele><time>2026-03-23T07:20:30.007Z</time></trkpt><trkpt lat="30.113346207639594" lon="-6.750639740374154"><ele>718.25</ele><time>2026-03-23T07:20:31.007Z</time></trkpt><trkpt lat="30.113296282555392" lon="-6.750498675053334"><ele>718.5</ele><time>2026-03-23T07:20:32.007Z</time></trkpt><trkpt lat="30.113252199206357" lon="-6.7503556719816675"><ele>718.75</ele><time>2026-03-23T07:20:33.007Z</time></trkpt><trkpt lat="30.113203038548377" lon="-6.750217229185155"><ele>719.0</ele><time>2026-03-23T07:20:34.007Z</time></trkpt><trkpt lat="30.113147514058223" lon="-6.750081112867989"><ele>719.25</ele><time>2026-03-23T07:20:35.007Z</time></trkpt><trkpt lat="30.113079031224157" lon="-6.749931131203659"><ele>719.5</ele><time>2026-03-23T07:20:36.007Z</time></trkpt><trkpt lat="30.113020061907935" lon="-6.749786957813061"><ele>719.75</ele><time>2026-03-23T07:20:37.007Z</time></trkpt><trkpt lat="30.1129686895723" lon="-6.749640985565224"><ele>720.0</ele><time>2026-03-23T07:20:38.007Z</time></trkpt><trkpt lat="30.112914769577678" lon="-6.749498231889884"><ele>720.0</ele><time>2026-03-23T07:20:39.007Z</time></trkpt><trkpt lat="30.112862622125842" lon="-6.749358992522434"><ele>720.0</ele><time>2026-03-23T07:20:40.007Z</time></trkpt><trkpt lat="30.112812793575976" lon="-6.749219847527058"><ele>720.0</ele><time>2026-03-23T07:20:41.007Z</time></trkpt><trkpt lat="30.11276315330261" lon="-6.749085478683278"><ele>720.0</ele><time>2026-03-23T07:20:42.007Z</time></trkpt><trkpt lat="30.112700872286005" lon="-6.7489407923894555"><ele>720.0</ele><time>2026-03-23T07:20:43.007Z</time></trkpt><trkpt lat="30.11264146304094" lon="-6.748798844967156"><ele>720.0</ele><time>2026-03-23T07:20:44.007Z</time></trkpt><trkpt lat="30.112583724524733" lon="-6.748654793062484"><ele>720.0</ele><time>2026-03-23T07:20:45.007Z</time></trkpt><trkpt lat="30.112530729112716" lon="-6.748514330501681"><ele>720.0</ele><time>2026-03-23T07:20:46.007Z</time></trkpt><trkpt lat="30.112477340168073" lon="-6.748375062110523"><ele>720.5</ele><time>2026-03-23T07:20:47.007Z</time></trkpt><trkpt lat="30.11242342804156" lon="-6.748235715259784"><ele>721.0</ele><time>2026-03-23T07:20:48.007Z</time></trkpt><trkpt lat="30.112368763974608" lon="-6.748095450074754"><ele>721.5</ele><time>2026-03-23T07:20:49.007Z</time></trkpt><trkpt lat="30.11231516932435" lon="-6.747955202052757"><ele>722.0</ele><time>2026-03-23T07:20:50.007Z</time></trkpt><trkpt lat="30.112259889784685" lon="-6.747812285794007"><ele>722.0</ele><time>2026-03-23T07:20:51.007Z</time></trkpt><trkpt lat="30.112212602283083" lon="-6.747678372216346"><ele>722.0</ele><time>2026-03-23T07:20:52.007Z</time></trkpt><trkpt lat="30.11216037167477" lon="-6.747544473997414"><ele>722.0</ele><time>2026-03-23T07:20:53.007Z</time></trkpt><trkpt lat="30.11210569985931" lon="-6.74741647427405"><ele>722.0</ele><time>2026-03-23T07:20:54.007Z</time></trkpt><trkpt lat="30.11205286596712" lon="-6.747300054306804"><ele>722.0</ele><time>2026-03-23T07:20:55.007Z</time></trkpt><trkpt lat="30.111998903605805" lon="-6.747196643850544"><ele>722.0</ele><time>2026-03-23T07:20:56.007Z</time></trkpt><trkpt lat="30.11195621666575" lon="-6.747100572784777"><ele>722.0</ele><time>2026-03-23T07:20:57.007Z</time></trkpt><trkpt lat="30.111923060830144" lon="-6.747001925866504"><ele>722.0</ele><time>2026-03-23T07:20:58.007Z</time></trkpt><trkpt lat="30.111902022816547" lon="-6.746897160559818"><ele>722.0</ele><time>2026-03-23T07:20:59.007Z</time></trkpt><trkpt lat="30.11186301498336" lon="-6.746778491560536"><ele>722.2</ele><time>2026-03-23T07:21:00.007Z</time></trkpt><trkpt lat="30.111815539738963" lon="-6.746659682083953"><ele>722.4000000000001</ele><time>2026-03-23T07:21:01.007Z</time></trkpt><trkpt lat="30.11176696731138" lon="-6.746536892061354"><ele>722.5999999999999</ele><time>2026-03-23T07:21:02.007Z</time></trkpt><trkpt lat="30.111722869381264" lon="-6.746422959406541"><ele>722.8</ele><time>2026-03-23T07:21:03.007Z</time></trkpt><trkpt lat="30.11168278823146" lon="-6.746319168467704"><ele>723.0</ele><time>2026-03-23T07:21:04.007Z</time></trkpt><trkpt lat="30.11164625066011" lon="-6.74621319016894"><ele>723.0</ele><time>2026-03-23T07:21:05.007Z</time></trkpt><trkpt lat="30.111612063456473" lon="-6.74610781134308"><ele>723.0</ele><time>2026-03-23T07:21:06.007Z</time></trkpt><trkpt lat="30.11158133793303" lon="-6.746010006777483"><ele>723.0</ele><time>2026-03-23T07:21:07.007Z</time></trkpt><trkpt lat="30.111547495687617" lon="-6.745915078665189"><ele>723.0</ele><time>2026-03-23T07:21:08.007Z</time></trkpt><trkpt lat="30.111506839904745" lon="-6.74582029961902"><ele>723.0</ele><time>2026-03-23T07:21:09.007Z</time></trkpt><trkpt lat="30.111466682082927" lon="-6.745726663842871"><ele>723.0</ele><time>2026-03-23T07:21:10.007Z</time></trkpt><trkpt lat="30.111425446225443" lon="-6.745632742201083"><ele>723.0</ele><time>2026-03-23T07:21:11.007Z</time></trkpt><trkpt lat="30.111378753154447" lon="-6.745536275016415"><ele>723.0</ele><time>2026-03-23T07:21:12.007Z</time></trkpt><trkpt lat="30.111328611656656" lon="-6.745425309353273"><ele>723.0</ele><time>2026-03-23T07:21:13.007Z</time></trkpt><trkpt lat="30.111280838282596" lon="-6.7453266573572535"><ele>723.0</ele><time>2026-03-23T07:21:14.007Z</time></trkpt><trkpt lat="30.11122584143722" lon="-6.745227598452353"><ele>723.0</ele><time>2026-03-23T07:21:15.007Z</time></trkpt><trkpt lat="30.11116602721027" lon="-6.745122854278327"><ele>723.0</ele><time>2026-03-23T07:21:16.007Z</time></trkpt><trkpt lat="30.11110157699924" lon="-6.745024532591343"><ele>723.0</ele><time>2026-03-23T07:21:17.007Z</time></trkpt><trkpt lat="30.111035943980067" lon="-6.7449264356752785"><ele>723.0</ele><time>2026-03-23T07:21:18.007Z</time></trkpt><trkpt lat="30.110975553847407" lon="-6.744827163035525"><ele>723.0</ele><time>2026-03-23T07:21:19.007Z</time></trkpt><trkpt lat="30.11090860652973" lon="-6.744725452276909"><ele>723.0</ele><time>2026-03-23T07:21:20.007Z</time></trkpt><trkpt lat="30.11085124556926" lon="-6.74462349796765"><ele>723.0</ele><time>2026-03-23T07:21:21.007Z</time></trkpt><trkpt lat="30.110805550493254" lon="-6.744522821349515"><ele>723.0</ele><time>2026-03-23T07:21:22.007Z</time></trkpt><trkpt lat="30.110766175184892" lon="-6.7444219904342395"><ele>723.0</ele><time>2026-03-23T07:21:23.007Z</time></trkpt><trkpt lat="30.11073336711518" lon="-6.744306677573491"><ele>723.0</ele><time>2026-03-23T07:21:24.007Z</time></trkpt><trkpt lat="30.110709370130017" lon="-6.744183483266971"><ele>723.5</ele><time>2026-03-23T07:21:25.007Z</time></trkpt><trkpt lat="30.110689435070995" lon="-6.744053676704902"><ele>724.0</ele><time>2026-03-23T07:21:26.007Z</time></trkpt><trkpt lat="30.110671504538747" lon="-6.743922330355953"><ele>724.5</ele><time>2026-03-23T07:21:27.007Z</time></trkpt><trkpt lat="30.11064915089736" lon="-6.743791151518738"><ele>725.0</ele><time>2026-03-23T07:21:28.007Z</time></trkpt><trkpt lat="30.11062081889004" lon="-6.743671855611826"><ele>725.0</ele><time>2026-03-23T07:21:29.007Z</time></trkpt><trkpt lat="30.11058646890798" lon="-6.743563769315788"><ele>725.0</ele><time>2026-03-23T07:21:30.006Z</time></trkpt><trkpt lat="30.110556778380964" lon="-6.743465463517259"><ele>725.0</ele><time>2026-03-23T07:21:31.006Z</time></trkpt><trkpt lat="30.110529750707894" lon="-6.743363828577688"><ele>725.0</ele><time>2026-03-23T07:21:32.006Z</time></trkpt><trkpt lat="30.11049393860908" lon="-6.743249999337079"><ele>725.0</ele><time>2026-03-23T07:21:33.006Z</time></trkpt><trkpt lat="30.110453842354865" lon="-6.743118128250571"><ele>725.0</ele><time>2026-03-23T07:21:34.006Z</time></trkpt><trkpt lat="30.110415404380294" lon="-6.742994298365143"><ele>725.0</ele><time>2026-03-23T07:21:35.006Z</time></trkpt><trkpt lat="30.110372570653404" lon="-6.742881701661995"><ele>725.0</ele><time>2026-03-23T07:21:36.006Z</time></trkpt><trkpt lat="30.110317985388374" lon="-6.7427596888391355"><ele>725.0</ele><time>2026-03-23T07:21:37.006Z</time></trkpt><trkpt lat="30.1102661937442" lon="-6.742629239827629"><ele>725.0</ele><time>2026-03-23T07:21:38.006Z</time></trkpt><trkpt lat="30.110213903733772" lon="-6.742495503120214"><ele>725.0</ele><time>2026-03-23T07:21:39.006Z</time></trkpt><trkpt lat="30.11016103334478" lon="-6.742362833519578"><ele>725.0</ele><time>2026-03-23T07:21:40.006Z</time></trkpt><trkpt lat="30.110108582910254" lon="-6.742232777749684"><ele>725.0</ele><time>2026-03-23T07:21:41.006Z</time></trkpt><trkpt lat="30.110055165618007" lon="-6.742101782429155"><ele>725.0</ele><time>2026-03-23T07:21:42.006Z</time></trkpt><trkpt lat="30.10999768082645" lon="-6.741976777750448"><ele>725.0</ele><time>2026-03-23T07:21:43.006Z</time></trkpt><trkpt lat="30.1099500598652" lon="-6.741873681479481"><ele>725.0</ele><time>2026-03-23T07:21:44.006Z</time></trkpt><trkpt lat="30.10991762129482" lon="-6.741796186643131"><ele>725.0</ele><time>2026-03-23T07:21:45.006Z</time></trkpt><trkpt lat="30.109894913504988" lon="-6.7417282135489085"><ele>725.0</ele><time>2026-03-23T07:21:46.006Z</time></trkpt><trkpt lat="30.109861112214677" lon="-6.741630238115165"><ele>725.3333333333333</ele><time>2026-03-23T07:21:48.006Z</time></trkpt><trkpt lat="30.109834164555497" lon="-6.741548488829842"><ele>725.6666666666666</ele><time>2026-03-23T07:21:51.006Z</time></trkpt><trkpt lat="30.10979993520954" lon="-6.741484864703729"><ele>726.0</ele><time>2026-03-23T07:22:08.007Z</time></trkpt><trkpt lat="30.10970093760867" lon="-6.741479759475245"><ele>726.3333333333334</ele><time>2026-03-23T07:22:19.007Z</time></trkpt><trkpt lat="30.109620595320273" lon="-6.7415067342041315"><ele>726.6666666666667</ele><time>2026-03-23T07:22:21.007Z</time></trkpt><trkpt lat="30.109541020307983" lon="-6.7415194603471145"><ele>727.0</ele><time>2026-03-23T07:22:23.007Z</time></trkpt><trkpt lat="30.10947639454413" lon="-6.741506678033135"><ele>727.0</ele><time>2026-03-23T07:22:25.007Z</time></trkpt><trkpt lat="30.109415597338696" lon="-6.74142014656734"><ele>727.0</ele><time>2026-03-23T07:22:27.007Z</time></trkpt><trkpt lat="30.109383603543336" lon="-6.741246266127382"><ele>727.0</ele><time>2026-03-23T07:22:29.007Z</time></trkpt><trkpt lat="30.109347621162676" lon="-6.74111456095299"><ele>727.0</ele><time>2026-03-23T07:22:30.007Z</time></trkpt><trkpt lat="30.109310408981354" lon="-6.740996275423399"><ele>727.0</ele><time>2026-03-23T07:22:31.007Z</time></trkpt><trkpt lat="30.109290285362338" lon="-6.740896220639184"><ele>727.0</ele><time>2026-03-23T07:22:32.007Z</time></trkpt><trkpt lat="30.10925940934961" lon="-6.740790405216977"><ele>727.0</ele><time>2026-03-23T07:22:33.007Z</time></trkpt><trkpt lat="30.109224328219796" lon="-6.740690634126126"><ele>727.0</ele><time>2026-03-23T07:22:34.007Z</time></trkpt><trkpt lat="30.109200745561918" lon="-6.7405985847034655"><ele>727.0</ele><time>2026-03-23T07:22:35.007Z</time></trkpt><trkpt lat="30.10919313251315" lon="-6.74050702976167"><ele>727.0</ele><time>2026-03-23T07:22:36.007Z</time></trkpt><trkpt lat="30.109192102993543" lon="-6.740406922779612"><ele>727.0</ele><time>2026-03-23T07:22:37.007Z</time></trkpt><trkpt lat="30.10919240798052" lon="-6.7403057794407"><ele>727.0</ele><time>2026-03-23T07:22:38.007Z</time></trkpt><trkpt lat="30.109192308212805" lon="-6.7402129468323375"><ele>727.0</ele><time>2026-03-23T07:22:39.007Z</time></trkpt><trkpt lat="30.109194485543405" lon="-6.740127111533677"><ele>727.0</ele><time>2026-03-23T07:22:40.007Z</time></trkpt><trkpt lat="30.10920086402209" lon="-6.7400504800831404"><ele>727.0</ele><time>2026-03-23T07:22:41.007Z</time></trkpt><trkpt lat="30.10920758356072" lon="-6.739902639650337"><ele>727.0</ele><time>2026-03-23T07:22:43.007Z</time></trkpt><trkpt lat="30.109198971908167" lon="-6.7398184939776495"><ele>727.0</ele><time>2026-03-23T07:22:44.007Z</time></trkpt><trkpt lat="30.1091693834857" lon="-6.7397403671433995"><ele>727.0</ele><time>2026-03-23T07:22:45.007Z</time></trkpt><trkpt lat="30.10913444538819" lon="-6.73967828120263"><ele>727.0</ele><time>2026-03-23T07:22:46.007Z</time></trkpt><trkpt lat="30.10908448266458" lon="-6.739598126694943"><ele>727.0</ele><time>2026-03-23T07:22:48.007Z</time></trkpt><trkpt lat="30.109048235807894" lon="-6.739530089060868"><ele>727.0</ele><time>2026-03-23T07:22:51.007Z</time></trkpt><trkpt lat="30.10898915270277" lon="-6.73942318753282"><ele>727.0</ele><time>2026-03-23T07:22:54.007Z</time></trkpt><trkpt lat="30.10894893990717" lon="-6.7393515530941"><ele>727.0</ele><time>2026-03-23T07:22:55.007Z</time></trkpt><trkpt lat="30.10891949772778" lon="-6.739279485918852"><ele>727.0</ele><time>2026-03-23T07:22:56.007Z</time></trkpt><trkpt lat="30.108888808799662" lon="-6.739189290178852"><ele>727.0</ele><time>2026-03-23T07:22:57.007Z</time></trkpt><trkpt lat="30.10886994105842" lon="-6.739102048336386"><ele>727.0</ele><time>2026-03-23T07:22:58.007Z</time></trkpt><trkpt lat="30.108843126380233" lon="-6.739017040478679"><ele>727.0</ele><time>2026-03-23T07:22:59.007Z</time></trkpt><trkpt lat="30.108821847517373" lon="-6.738941700523815"><ele>727.0</ele><time>2026-03-23T07:23:00.007Z</time></trkpt><trkpt lat="30.108784970406816" lon="-6.738860181356687"><ele>727.0</ele><time>2026-03-23T07:23:01.007Z</time></trkpt><trkpt lat="30.10873018105062" lon="-6.738773450046479"><ele>727.0</ele><time>2026-03-23T07:23:02.007Z</time></trkpt><trkpt lat="30.108682012133297" lon="-6.738668172127286"><ele>727.0</ele><time>2026-03-23T07:23:03.007Z</time></trkpt><trkpt lat="30.108641566707938" lon="-6.738545642303497"><ele>727.0</ele><time>2026-03-23T07:23:04.007Z</time></trkpt><trkpt lat="30.108602722686445" lon="-6.7384165299229295"><ele>727.0</ele><time>2026-03-23T07:23:05.007Z</time></trkpt><trkpt lat="30.108564002705457" lon="-6.738292623150117"><ele>727.4000000000001</ele><time>2026-03-23T07:23:06.007Z</time></trkpt><trkpt lat="30.108519351591003" lon="-6.738181368953918"><ele>727.8000000000001</ele><time>2026-03-23T07:23:07.007Z</time></trkpt><trkpt lat="30.108477663800368" lon="-6.738077511373927"><ele>728.2</ele><time>2026-03-23T07:23:08.007Z</time></trkpt><trkpt lat="30.108431487313357" lon="-6.7379711332550265"><ele>728.6</ele><time>2026-03-23T07:23:09.007Z</time></trkpt><trkpt lat="30.10839388163409" lon="-6.7378860667805505"><ele>729.0</ele><time>2026-03-23T07:23:10.007Z</time></trkpt><trkpt lat="30.108358943694117" lon="-6.737809591571378"><ele>729.0</ele><time>2026-03-23T07:23:11.007Z</time></trkpt><trkpt lat="30.108334245835593" lon="-6.737730113298328"><ele>729.0</ele><time>2026-03-23T07:23:12.007Z</time></trkpt><trkpt lat="30.108303770200326" lon="-6.737643653245881"><ele>729.0</ele><time>2026-03-23T07:23:13.007Z</time></trkpt><trkpt lat="30.108250076209607" lon="-6.737510441218671"><ele>729.0</ele><time>2026-03-23T07:23:15.007Z</time></trkpt><trkpt lat="30.10822140085909" lon="-6.737441274851078"><ele>729.0</ele><time>2026-03-23T07:23:16.007Z</time></trkpt><trkpt lat="30.108171432434776" lon="-6.737327004921258"><ele>728.8000000000001</ele><time>2026-03-23T07:23:18.007Z</time></trkpt><trkpt lat="30.10812422145918" lon="-6.737219291854306"><ele>728.6</ele><time>2026-03-23T07:23:20.007Z</time></trkpt><trkpt lat="30.10807177507931" lon="-6.737090925914771"><ele>728.4</ele><time>2026-03-23T07:23:22.007Z</time></trkpt><trkpt lat="30.10803363875972" lon="-6.736959553802901"><ele>728.2</ele><time>2026-03-23T07:23:24.007Z</time></trkpt><trkpt lat="30.108003256874674" lon="-6.736894089497363"><ele>728.0</ele><time>2026-03-23T07:23:25.008Z</time></trkpt><trkpt lat="30.107967684140213" lon="-6.736825248090817"><ele>728.3333333333333</ele><time>2026-03-23T07:23:26.008Z</time></trkpt><trkpt lat="30.107933100823544" lon="-6.736749206696281"><ele>728.6666666666666</ele><time>2026-03-23T07:23:27.007Z</time></trkpt><trkpt lat="30.10789731203372" lon="-6.736668555685965"><ele>729.0</ele><time>2026-03-23T07:23:28.007Z</time></trkpt><trkpt lat="30.107860535645358" lon="-6.736577901135884"><ele>729.3333333333334</ele><time>2026-03-23T07:23:29.007Z</time></trkpt><trkpt lat="30.10782351441139" lon="-6.736478300153536"><ele>729.6666666666667</ele><time>2026-03-23T07:23:30.008Z</time></trkpt><trkpt lat="30.10779158515755" lon="-6.736373069007255"><ele>730.0</ele><time>2026-03-23T07:23:31.007Z</time></trkpt><trkpt lat="30.107758649729238" lon="-6.736287285505839"><ele>730.0</ele><time>2026-03-23T07:23:32.007Z</time></trkpt><trkpt lat="30.107724324072173" lon="-6.736202102336812"><ele>730.0</ele><time>2026-03-23T07:23:33.007Z</time></trkpt><trkpt lat="30.107688749004307" lon="-6.736113323117811"><ele>730.0</ele><time>2026-03-23T07:23:34.007Z</time></trkpt><trkpt lat="30.107653479658268" lon="-6.736028303432066"><ele>730.0</ele><time>2026-03-23T07:23:35.007Z</time></trkpt><trkpt lat="30.10762205803259" lon="-6.735930900528318"><ele>730.0</ele><time>2026-03-23T07:23:36.007Z</time></trkpt><trkpt lat="30.107591851639274" lon="-6.735839912515814"><ele>730.0</ele><time>2026-03-23T07:23:37.007Z</time></trkpt><trkpt lat="30.107557541676325" lon="-6.7357593599319"><ele>730.0</ele><time>2026-03-23T07:23:38.007Z</time></trkpt><trkpt lat="30.10751380256064" lon="-6.735675974626415"><ele>730.0</ele><time>2026-03-23T07:23:39.007Z</time></trkpt><trkpt lat="30.107474702478733" lon="-6.735616717892895"><ele>730.0</ele><time>2026-03-23T07:23:40.007Z</time></trkpt><trkpt lat="30.107431630119578" lon="-6.735520221620931"><ele>730.0</ele><time>2026-03-23T07:23:42.007Z</time></trkpt><trkpt lat="30.107393792858804" lon="-6.735393976172141"><ele>730.0</ele><time>2026-03-23T07:23:44.007Z</time></trkpt><trkpt lat="30.107372595499573" lon="-6.735317021962364"><ele>730.0</ele><time>2026-03-23T07:23:45.007Z</time></trkpt><trkpt lat="30.107349803948264" lon="-6.735235756820589"><ele>729.6666666666667</ele><time>2026-03-23T07:23:46.007Z</time></trkpt><trkpt lat="30.107323999440066" lon="-6.735164029121711"><ele>729.3333333333334</ele><time>2026-03-23T07:23:47.007Z</time></trkpt><trkpt lat="30.10729445249811" lon="-6.735088828904531"><ele>729.0</ele><time>2026-03-23T07:23:48.007Z</time></trkpt><trkpt lat="30.107255565983493" lon="-6.7349950970604855"><ele>728.6666666666666</ele><time>2026-03-23T07:23:49.007Z</time></trkpt><trkpt lat="30.10722613151654" lon="-6.734921429839947"><ele>728.3333333333333</ele><time>2026-03-23T07:23:50.007Z</time></trkpt><trkpt lat="30.10719505521345" lon="-6.734841975307098"><ele>728.0</ele><time>2026-03-23T07:23:51.007Z</time></trkpt><trkpt lat="30.107165801185555" lon="-6.7347474829865"><ele>728.0</ele><time>2026-03-23T07:23:52.007Z</time></trkpt><trkpt lat="30.107139811721805" lon="-6.734672930804314"><ele>728.0</ele><time>2026-03-23T07:23:53.007Z</time></trkpt><trkpt lat="30.10710893899991" lon="-6.734593877892208"><ele>728.0</ele><time>2026-03-23T07:23:54.007Z</time></trkpt><trkpt lat="30.1070795629408" lon="-6.7345035930727"><ele>728.0</ele><time>2026-03-23T07:23:55.007Z</time></trkpt><trkpt lat="30.10704663405354" lon="-6.734406910756875"><ele>728.0</ele><time>2026-03-23T07:23:56.007Z</time></trkpt><trkpt lat="30.107013022834327" lon="-6.734301961504273"><ele>728.0</ele><time>2026-03-23T07:23:57.007Z</time></trkpt><trkpt lat="30.10696913725008" lon="-6.734209495978991"><ele>728.2</ele><time>2026-03-23T07:23:58.007Z</time></trkpt><trkpt lat="30.10693188775389" lon="-6.734126357680237"><ele>728.4</ele><time>2026-03-23T07:23:59.007Z</time></trkpt><trkpt lat="30.106895117791115" lon="-6.734055000264985"><ele>728.6</ele><time>2026-03-23T07:24:00.007Z</time></trkpt><trkpt lat="30.106835896918557" lon="-6.733919726188796"><ele>728.8000000000001</ele><time>2026-03-23T07:24:02.007Z</time></trkpt><trkpt lat="30.1067868103746" lon="-6.733794293167471"><ele>729.0</ele><time>2026-03-23T07:24:04.007Z</time></trkpt><trkpt lat="30.106756648671194" lon="-6.733724066110222"><ele>729.0</ele><time>2026-03-23T07:24:05.007Z</time></trkpt><trkpt lat="30.106723962582162" lon="-6.733646140386868"><ele>729.0</ele><time>2026-03-23T07:24:06.007Z</time></trkpt><trkpt lat="30.106694907568514" lon="-6.73356940266881"><ele>729.0</ele><time>2026-03-23T07:24:07.007Z</time></trkpt><trkpt lat="30.106669980882472" lon="-6.733499143344217"><ele>729.0</ele><time>2026-03-23T07:24:08.007Z</time></trkpt><trkpt lat="30.106641845774885" lon="-6.733430801152333"><ele>729.0</ele><time>2026-03-23T07:24:09.007Z</time></trkpt><trkpt lat="30.106613094855145" lon="-6.733356379173252"><ele>729.0</ele><time>2026-03-23T07:24:10.007Z</time></trkpt><trkpt lat="30.106587118133987" lon="-6.733285374183526"><ele>729.0</ele><time>2026-03-23T07:24:11.007Z</time></trkpt><trkpt lat="30.10656189607634" lon="-6.733209847532861"><ele>729.0</ele><time>2026-03-23T07:24:12.007Z</time></trkpt><trkpt lat="30.10653453231528" lon="-6.733129946831885"><ele>729.0</ele><time>2026-03-23T07:24:13.007Z</time></trkpt><trkpt lat="30.106499438767514" lon="-6.733043906804553"><ele>729.0</ele><time>2026-03-23T07:24:14.007Z</time></trkpt><trkpt lat="30.10646210833025" lon="-6.732954297735712"><ele>729.0</ele><time>2026-03-23T07:24:15.007Z</time></trkpt><trkpt lat="30.10643333878604" lon="-6.732855336561572"><ele>729.0</ele><time>2026-03-23T07:24:16.007Z</time></trkpt><trkpt lat="30.106387788941166" lon="-6.732758460967098"><ele>729.0</ele><time>2026-03-23T07:24:17.007Z</time></trkpt><trkpt lat="30.106356391214725" lon="-6.7326537266573"><ele>729.0</ele><time>2026-03-23T07:24:18.007Z</time></trkpt><trkpt lat="30.106327428515613" lon="-6.732555049129772"><ele>729.0</ele><time>2026-03-23T07:24:19.007Z</time></trkpt><trkpt lat="30.106282858427164" lon="-6.732446136270253"><ele>729.0</ele><time>2026-03-23T07:24:20.007Z</time></trkpt><trkpt lat="30.106238381334578" lon="-6.7323400794000925"><ele>729.0</ele><time>2026-03-23T07:24:21.007Z</time></trkpt><trkpt lat="30.10619229473794" lon="-6.732232787797041"><ele>729.0</ele><time>2026-03-23T07:24:22.007Z</time></trkpt><trkpt lat="30.106148602436" lon="-6.732125308565699"><ele>729.0</ele><time>2026-03-23T07:24:23.007Z</time></trkpt><trkpt lat="30.10610619786377" lon="-6.7320269666201265"><ele>729.0</ele><time>2026-03-23T07:24:24.007Z</time></trkpt><trkpt lat="30.106066270309892" lon="-6.731937398386389"><ele>729.0</ele><time>2026-03-23T07:24:25.007Z</time></trkpt><trkpt lat="30.1060276362888" lon="-6.731853202201684"><ele>729.0</ele><time>2026-03-23T07:24:26.007Z</time></trkpt><trkpt lat="30.10598759153998" lon="-6.731772773715157"><ele>729.0</ele><time>2026-03-23T07:24:27.007Z</time></trkpt><trkpt lat="30.105943489432946" lon="-6.731687036130346"><ele>729.0</ele><time>2026-03-23T07:24:28.007Z</time></trkpt><trkpt lat="30.105898693622795" lon="-6.73159293463656"><ele>728.8333333333334</ele><time>2026-03-23T07:24:29.007Z</time></trkpt><trkpt lat="30.105860205583713" lon="-6.731498218075545"><ele>728.6666666666666</ele><time>2026-03-23T07:24:30.007Z</time></trkpt><trkpt lat="30.1058319870291" lon="-6.7314124480355835"><ele>728.5</ele><time>2026-03-23T07:24:31.007Z</time></trkpt><trkpt lat="30.105803620487293" lon="-6.731333920923401"><ele>728.3333333333333</ele><time>2026-03-23T07:24:32.007Z</time></trkpt><trkpt lat="30.105793091620118" lon="-6.731253388967276"><ele>728.1666666666666</ele><time>2026-03-23T07:24:33.007Z</time></trkpt><trkpt lat="30.105787364903662" lon="-6.731159339109633"><ele>728.0</ele><time>2026-03-23T07:24:34.007Z</time></trkpt><trkpt lat="30.10575009768861" lon="-6.731065404990528"><ele>728.0</ele><time>2026-03-23T07:24:35.007Z</time></trkpt><trkpt lat="30.105701343518234" lon="-6.730972664849844"><ele>728.0</ele><time>2026-03-23T07:24:36.007Z</time></trkpt><trkpt lat="30.1056518757141" lon="-6.730875773138024"><ele>728.0</ele><time>2026-03-23T07:24:37.007Z</time></trkpt><trkpt lat="30.105607962559244" lon="-6.730772651582"><ele>728.0</ele><time>2026-03-23T07:24:38.007Z</time></trkpt><trkpt lat="30.105569209755103" lon="-6.7306716322705"><ele>728.0</ele><time>2026-03-23T07:24:39.007Z</time></trkpt><trkpt lat="30.10553216063358" lon="-6.7305677601664415"><ele>728.0</ele><time>2026-03-23T07:24:40.007Z</time></trkpt><trkpt lat="30.105493012621242" lon="-6.730466080176658"><ele>728.0</ele><time>2026-03-23T07:24:41.007Z</time></trkpt><trkpt lat="30.105455452267748" lon="-6.730362254999467"><ele>728.0</ele><time>2026-03-23T07:24:42.007Z</time></trkpt><trkpt lat="30.10541921737307" lon="-6.730259489627466"><ele>728.0</ele><time>2026-03-23T07:24:43.007Z</time></trkpt><trkpt lat="30.10538280606896" lon="-6.730158921331506"><ele>728.0</ele><time>2026-03-23T07:24:44.007Z</time></trkpt><trkpt lat="30.105343427892617" lon="-6.730059920157401"><ele>728.0</ele><time>2026-03-23T07:24:45.007Z</time></trkpt><trkpt lat="30.105294327384527" lon="-6.7299444379991815"><ele>728.0</ele><time>2026-03-23T07:24:46.007Z</time></trkpt><trkpt lat="30.105257990210852" lon="-6.729846536812709"><ele>728.0</ele><time>2026-03-23T07:24:47.007Z</time></trkpt><trkpt lat="30.105223058368765" lon="-6.729760700917398"><ele>728.0</ele><time>2026-03-23T07:24:48.007Z</time></trkpt><trkpt lat="30.10519210038092" lon="-6.7296679693779975"><ele>728.0</ele><time>2026-03-23T07:24:49.007Z</time></trkpt><trkpt lat="30.10515668119251" lon="-6.729575836970855"><ele>728.0</ele><time>2026-03-23T07:24:50.007Z</time></trkpt><trkpt lat="30.10510887234335" lon="-6.729478535127409"><ele>728.0</ele><time>2026-03-23T07:24:51.007Z</time></trkpt><trkpt lat="30.10506569328284" lon="-6.729378541050376"><ele>728.0</ele><time>2026-03-23T07:24:52.007Z</time></trkpt><trkpt lat="30.10502420991108" lon="-6.7292700210914225"><ele>728.0</ele><time>2026-03-23T07:24:53.007Z</time></trkpt><trkpt lat="30.104982696535124" lon="-6.729172447362302"><ele>728.0</ele><time>2026-03-23T07:24:54.007Z</time></trkpt><trkpt lat="30.104943501362214" lon="-6.729078100739306"><ele>728.5</ele><time>2026-03-23T07:24:55.007Z</time></trkpt><trkpt lat="30.10490753677078" lon="-6.728974340846827"><ele>729.0</ele><time>2026-03-23T07:24:56.007Z</time></trkpt><trkpt lat="30.104868304955748" lon="-6.728861016688481"><ele>729.5</ele><time>2026-03-23T07:24:57.007Z</time></trkpt><trkpt lat="30.104813470011802" lon="-6.728721481485936"><ele>730.0</ele><time>2026-03-23T07:24:58.007Z</time></trkpt><trkpt lat="30.104757379812206" lon="-6.728550488718006"><ele>730.0</ele><time>2026-03-23T07:24:59.007Z</time></trkpt><trkpt lat="30.104685202705895" lon="-6.728394343854124"><ele>730.0</ele><time>2026-03-23T07:25:00.007Z</time></trkpt><trkpt lat="30.104636616114174" lon="-6.728266998929117"><ele>730.0</ele><time>2026-03-23T07:25:01.007Z</time></trkpt><trkpt lat="30.104591550581922" lon="-6.728154095564056"><ele>730.0</ele><time>2026-03-23T07:25:02.007Z</time></trkpt><trkpt lat="30.104546876474533" lon="-6.728048222987626"><ele>730.0</ele><time>2026-03-23T07:25:03.007Z</time></trkpt><trkpt lat="30.104506350056127" lon="-6.727944688994438"><ele>730.0</ele><time>2026-03-23T07:25:04.007Z</time></trkpt><trkpt lat="30.10447011842637" lon="-6.727835860586988"><ele>730.0</ele><time>2026-03-23T07:25:05.007Z</time></trkpt><trkpt lat="30.104429143518654" lon="-6.72774396820564"><ele>730.0</ele><time>2026-03-23T07:25:06.007Z</time></trkpt><trkpt lat="30.104389229388563" lon="-6.7276657249810965"><ele>730.0</ele><time>2026-03-23T07:25:07.007Z</time></trkpt><trkpt lat="30.104355735074567" lon="-6.7275881835522044"><ele>730.0</ele><time>2026-03-23T07:25:08.007Z</time></trkpt><trkpt lat="30.104328489175728" lon="-6.727495105549685"><ele>730.0</ele><time>2026-03-23T07:25:09.007Z</time></trkpt><trkpt lat="30.10430197245571" lon="-6.727389420413809"><ele>730.0</ele><time>2026-03-23T07:25:10.007Z</time></trkpt><trkpt lat="30.104254046230373" lon="-6.727271844325043"><ele>730.0</ele><time>2026-03-23T07:25:11.007Z</time></trkpt><trkpt lat="30.104201769639687" lon="-6.727141308041875"><ele>730.0</ele><time>2026-03-23T07:25:12.007Z</time></trkpt><trkpt lat="30.10413970495895" lon="-6.7270005158893715"><ele>730.6666666666667</ele><time>2026-03-23T07:25:13.007Z</time></trkpt><trkpt lat="30.1040749693252" lon="-6.726849176380094"><ele>731.3333333333334</ele><time>2026-03-23T07:25:14.007Z</time></trkpt><trkpt lat="30.104007633502313" lon="-6.72668926912318"><ele>732.0</ele><time>2026-03-23T07:25:15.007Z</time></trkpt><trkpt lat="30.103940265157103" lon="-6.726513114375977"><ele>732.0</ele><time>2026-03-23T07:25:16.007Z</time></trkpt><trkpt lat="30.10387695834753" lon="-6.726349182873057"><ele>732.0</ele><time>2026-03-23T07:25:17.007Z</time></trkpt><trkpt lat="30.10382982133875" lon="-6.726204239674115"><ele>732.0</ele><time>2026-03-23T07:25:18.007Z</time></trkpt><trkpt lat="30.1037783882135" lon="-6.7260714067750005"><ele>732.0</ele><time>2026-03-23T07:25:19.007Z</time></trkpt><trkpt lat="30.103730134495763" lon="-6.725940035057198"><ele>731.75</ele><time>2026-03-23T07:25:20.007Z</time></trkpt><trkpt lat="30.10367958620676" lon="-6.725808646068649"><ele>731.5</ele><time>2026-03-23T07:25:21.007Z</time></trkpt><trkpt lat="30.103621312547094" lon="-6.725657254864135"><ele>731.25</ele><time>2026-03-23T07:25:22.007Z</time></trkpt><trkpt lat="30.103564031904284" lon="-6.7254932368274645"><ele>731.0</ele><time>2026-03-23T07:25:23.007Z</time></trkpt><trkpt lat="30.103492518643137" lon="-6.725319557873754"><ele>731.0</ele><time>2026-03-23T07:25:24.007Z</time></trkpt><trkpt lat="30.103419266398088" lon="-6.725138323452107"><ele>731.0</ele><time>2026-03-23T07:25:25.007Z</time></trkpt><trkpt lat="30.103359262893147" lon="-6.724977323308574"><ele>731.0</ele><time>2026-03-23T07:25:26.007Z</time></trkpt><trkpt lat="30.103302555081484" lon="-6.724852330799561"><ele>731.0</ele><time>2026-03-23T07:25:27.007Z</time></trkpt><trkpt lat="30.103258528284602" lon="-6.724742333086161"><ele>731.1999999999999</ele><time>2026-03-23T07:25:28.007Z</time></trkpt><trkpt lat="30.10322429841963" lon="-6.7246448524188684"><ele>731.4</ele><time>2026-03-23T07:25:29.007Z</time></trkpt><trkpt lat="30.103189139076026" lon="-6.7245403410883755"><ele>731.6</ele><time>2026-03-23T07:25:30.008Z</time></trkpt><trkpt lat="30.10315630051524" lon="-6.724436288854359"><ele>731.8</ele><time>2026-03-23T07:25:31.008Z</time></trkpt><trkpt lat="30.103112710662266" lon="-6.724337069012488"><ele>732.0</ele><time>2026-03-23T07:25:32.008Z</time></trkpt><trkpt lat="30.103077060802534" lon="-6.724241417208873"><ele>732.0</ele><time>2026-03-23T07:25:33.008Z</time></trkpt><trkpt lat="30.103042908323793" lon="-6.724134565381649"><ele>732.0</ele><time>2026-03-23T07:25:34.008Z</time></trkpt><trkpt lat="30.102997776406493" lon="-6.724017325194756"><ele>732.0</ele><time>2026-03-23T07:25:35.008Z</time></trkpt><trkpt lat="30.102954913686478" lon="-6.723904945592787"><ele>732.0</ele><time>2026-03-23T07:25:36.008Z</time></trkpt><trkpt lat="30.102911592617264" lon="-6.723810943260334"><ele>732.0</ele><time>2026-03-23T07:25:37.008Z</time></trkpt><trkpt lat="30.102880857454334" lon="-6.7237349484186755"><ele>732.0</ele><time>2026-03-23T07:25:38.008Z</time></trkpt><trkpt lat="30.10285006361992" lon="-6.723665436443552"><ele>732.0</ele><time>2026-03-23T07:25:39.007Z</time></trkpt><trkpt lat="30.10282170584605" lon="-6.723593709955019"><ele>732.0</ele><time>2026-03-23T07:25:40.008Z</time></trkpt><trkpt lat="30.10278951370489" lon="-6.723510775529183"><ele>732.0</ele><time>2026-03-23T07:25:41.008Z</time></trkpt><trkpt lat="30.102753527822475" lon="-6.723423067633045"><ele>732.0</ele><time>2026-03-23T07:25:42.008Z</time></trkpt><trkpt lat="30.102719390410808" lon="-6.723334220015808"><ele>732.0</ele><time>2026-03-23T07:25:43.008Z</time></trkpt><trkpt lat="30.102677635239736" lon="-6.72323858327336"><ele>731.75</ele><time>2026-03-23T07:25:44.008Z</time></trkpt><trkpt lat="30.102630946519096" lon="-6.723137615025283"><ele>731.5</ele><time>2026-03-23T07:25:45.008Z</time></trkpt><trkpt lat="30.102587238668924" lon="-6.723019183473942"><ele>731.25</ele><time>2026-03-23T07:25:46.008Z</time></trkpt><trkpt lat="30.102534113240417" lon="-6.722890108745628"><ele>731.0</ele><time>2026-03-23T07:25:47.008Z</time></trkpt><trkpt lat="30.10248372299215" lon="-6.722757763185978"><ele>731.0</ele><time>2026-03-23T07:25:48.008Z</time></trkpt><trkpt lat="30.10243842456154" lon="-6.722633155294456"><ele>731.0</ele><time>2026-03-23T07:25:49.008Z</time></trkpt><trkpt lat="30.102394563602044" lon="-6.722512933957895"><ele>731.0</ele><time>2026-03-23T07:25:50.008Z</time></trkpt><trkpt lat="30.102345738780013" lon="-6.722386774401129"><ele>731.0</ele><time>2026-03-23T07:25:51.008Z</time></trkpt><trkpt lat="30.10229832486316" lon="-6.722259505719317"><ele>731.1999999999999</ele><time>2026-03-23T07:25:52.008Z</time></trkpt><trkpt lat="30.102249421061412" lon="-6.722147300432458"><ele>731.4</ele><time>2026-03-23T07:25:53.008Z</time></trkpt><trkpt lat="30.102204098135662" lon="-6.722037998809969"><ele>731.6</ele><time>2026-03-23T07:25:54.008Z</time></trkpt><trkpt lat="30.102167439601487" lon="-6.721936988089526"><ele>731.8</ele><time>2026-03-23T07:25:55.008Z</time></trkpt><trkpt lat="30.1021325352736" lon="-6.7218394184477"><ele>732.0</ele><time>2026-03-23T07:25:56.008Z</time></trkpt><trkpt lat="30.10209923930741" lon="-6.72175435213285"><ele>732.0</ele><time>2026-03-23T07:25:57.008Z</time></trkpt><trkpt lat="30.102066200387934" lon="-6.721671480862677"><ele>732.0</ele><time>2026-03-23T07:25:58.008Z</time></trkpt><trkpt lat="30.102035363753167" lon="-6.721587007158425"><ele>732.0</ele><time>2026-03-23T07:25:59.008Z</time></trkpt><trkpt lat="30.101989426172974" lon="-6.7214873350765645"><ele>732.0</ele><time>2026-03-23T07:26:00.008Z</time></trkpt><trkpt lat="30.10195147007139" lon="-6.7213779932101385"><ele>732.0</ele><time>2026-03-23T07:26:01.008Z</time></trkpt><trkpt lat="30.101906698478423" lon="-6.721253705173675"><ele>732.0</ele><time>2026-03-23T07:26:02.008Z</time></trkpt><trkpt lat="30.101860563843683" lon="-6.721133665720662"><ele>732.0</ele><time>2026-03-23T07:26:03.008Z</time></trkpt><trkpt lat="30.101806896196376" lon="-6.721010200512058"><ele>732.0</ele><time>2026-03-23T07:26:04.008Z</time></trkpt><trkpt lat="30.101752521626373" lon="-6.720894371425807"><ele>732.0</ele><time>2026-03-23T07:26:05.008Z</time></trkpt><trkpt lat="30.101704639516978" lon="-6.720778245388349"><ele>732.0</ele><time>2026-03-23T07:26:06.008Z</time></trkpt><trkpt lat="30.101664780728946" lon="-6.720663950283616"><ele>732.0</ele><time>2026-03-23T07:26:07.008Z</time></trkpt><trkpt lat="30.10162542151386" lon="-6.720551269814129"><ele>732.0</ele><time>2026-03-23T07:26:08.008Z</time></trkpt><trkpt lat="30.10158434239803" lon="-6.720439414060028"><ele>732.0</ele><time>2026-03-23T07:26:09.008Z</time></trkpt><trkpt lat="30.10153808863915" lon="-6.720332315588735"><ele>732.0</ele><time>2026-03-23T07:26:10.008Z</time></trkpt><trkpt lat="30.101489110656633" lon="-6.720226863371328"><ele>732.0</ele><time>2026-03-23T07:26:11.008Z</time></trkpt><trkpt lat="30.10144662583381" lon="-6.720114924503474"><ele>732.0</ele><time>2026-03-23T07:26:12.008Z</time></trkpt><trkpt lat="30.10140583063861" lon="-6.720000260517097"><ele>732.0</ele><time>2026-03-23T07:26:13.008Z</time></trkpt><trkpt lat="30.101366401386223" lon="-6.719883280191647"><ele>732.0</ele><time>2026-03-23T07:26:14.008Z</time></trkpt><trkpt lat="30.101320585809194" lon="-6.719764939196637"><ele>732.0</ele><time>2026-03-23T07:26:15.008Z</time></trkpt><trkpt lat="30.101273935676293" lon="-6.719650127470774"><ele>732.0</ele><time>2026-03-23T07:26:16.008Z</time></trkpt><trkpt lat="30.101227088524457" lon="-6.719537944535451"><ele>732.0</ele><time>2026-03-23T07:26:17.008Z</time></trkpt><trkpt lat="30.101186397563843" lon="-6.719441844343933"><ele>732.0</ele><time>2026-03-23T07:26:18.008Z</time></trkpt><trkpt lat="30.10114951740642" lon="-6.719352758358773"><ele>732.0</ele><time>2026-03-23T07:26:19.008Z</time></trkpt><trkpt lat="30.101114253584647" lon="-6.719276649855997"><ele>732.0</ele><time>2026-03-23T07:26:20.008Z</time></trkpt><trkpt lat="30.101077140495082" lon="-6.71921168353457"><ele>732.0</ele><time>2026-03-23T07:26:21.008Z</time></trkpt><trkpt lat="30.101039460249954" lon="-6.719146970205845"><ele>731.6666666666666</ele><time>2026-03-23T07:26:22.008Z</time></trkpt><trkpt lat="30.101000986441363" lon="-6.719011082903591"><ele>731.3333333333334</ele><time>2026-03-23T07:26:24.008Z</time></trkpt><trkpt lat="30.10097519276235" lon="-6.7188780102696795"><ele>731.0</ele><time>2026-03-23T07:26:26.008Z</time></trkpt><trkpt lat="30.100947619987796" lon="-6.718812581400156"><ele>730.6666666666667</ele><time>2026-03-23T07:26:27.008Z</time></trkpt><trkpt lat="30.10092293681371" lon="-6.718742156149949"><ele>730.3333333333334</ele><time>2026-03-23T07:26:28.008Z</time></trkpt><trkpt lat="30.100883990032116" lon="-6.718677422634544"><ele>730.0</ele><time>2026-03-23T07:26:29.008Z</time></trkpt><trkpt lat="30.100848561376715" lon="-6.718608896485312"><ele>730.0</ele><time>2026-03-23T07:26:30.008Z</time></trkpt><trkpt lat="30.10081831349806" lon="-6.718526916887354"><ele>730.0</ele><time>2026-03-23T07:26:31.008Z</time></trkpt><trkpt lat="30.10078206701779" lon="-6.7184488611066975"><ele>730.0</ele><time>2026-03-23T07:26:32.008Z</time></trkpt><trkpt lat="30.100737072259758" lon="-6.718374349255438"><ele>730.0</ele><time>2026-03-23T07:26:33.008Z</time></trkpt><trkpt lat="30.100681640233375" lon="-6.718299103186957"><ele>730.0</ele><time>2026-03-23T07:26:34.008Z</time></trkpt><trkpt lat="30.10063064730766" lon="-6.718223812799648"><ele>730.0</ele><time>2026-03-23T07:26:35.008Z</time></trkpt><trkpt lat="30.100579117202233" lon="-6.718148306773845"><ele>730.3333333333334</ele><time>2026-03-23T07:26:36.008Z</time></trkpt><trkpt lat="30.100526918751275" lon="-6.718061835095471"><ele>730.6666666666667</ele><time>2026-03-23T07:26:37.008Z</time></trkpt><trkpt lat="30.100486715738263" lon="-6.717982430594079"><ele>731.0</ele><time>2026-03-23T07:26:38.008Z</time></trkpt><trkpt lat="30.100438000679812" lon="-6.717903864891101"><ele>731.3333333333334</ele><time>2026-03-23T07:26:39.008Z</time></trkpt><trkpt lat="30.100385403203063" lon="-6.717820794603275"><ele>731.6666666666666</ele><time>2026-03-23T07:26:40.008Z</time></trkpt><trkpt lat="30.100340779649713" lon="-6.717728950339132"><ele>732.0</ele><time>2026-03-23T07:26:41.008Z</time></trkpt><trkpt lat="30.100277538340443" lon="-6.717630677231544"><ele>732.0</ele><time>2026-03-23T07:26:42.008Z</time></trkpt><trkpt lat="30.1001900065577" lon="-6.717514596186604"><ele>732.0</ele><time>2026-03-23T07:26:43.008Z</time></trkpt><trkpt lat="30.100096642315258" lon="-6.717356903697317"><ele>732.0</ele><time>2026-03-23T07:26:44.008Z</time></trkpt><trkpt lat="30.099999502196308" lon="-6.717191334060014"><ele>732.25</ele><time>2026-03-23T07:26:45.008Z</time></trkpt><trkpt lat="30.09989823126983" lon="-6.717058588680932"><ele>732.5</ele><time>2026-03-23T07:26:46.008Z</time></trkpt><trkpt lat="30.09980595106347" lon="-6.716944819379901"><ele>732.75</ele><time>2026-03-23T07:26:47.008Z</time></trkpt><trkpt lat="30.099721967321237" lon="-6.716816210450504"><ele>733.0</ele><time>2026-03-23T07:26:48.008Z</time></trkpt><trkpt lat="30.09963508472991" lon="-6.716682048585842"><ele>733.0</ele><time>2026-03-23T07:26:49.008Z</time></trkpt><trkpt lat="30.099549923744185" lon="-6.71655569141922"><ele>733.0</ele><time>2026-03-23T07:26:50.008Z</time></trkpt><trkpt lat="30.099468444437765" lon="-6.716416763593083"><ele>733.0</ele><time>2026-03-23T07:26:51.008Z</time></trkpt><trkpt lat="30.099392153126633" lon="-6.7162904474828595"><ele>733.0</ele><time>2026-03-23T07:26:52.008Z</time></trkpt><trkpt lat="30.099313644668502" lon="-6.716167909747723"><ele>733.0</ele><time>2026-03-23T07:26:53.008Z</time></trkpt><trkpt lat="30.099233106140115" lon="-6.716052194474892"><ele>733.0</ele><time>2026-03-23T07:26:54.008Z</time></trkpt><trkpt lat="30.099152864975565" lon="-6.71593191532689"><ele>733.0</ele><time>2026-03-23T07:26:55.008Z</time></trkpt><trkpt lat="30.099072001261355" lon="-6.7158193096907715"><ele>733.0</ele><time>2026-03-23T07:26:56.008Z</time></trkpt><trkpt lat="30.098998224143966" lon="-6.715709684563401"><ele>733.25</ele><time>2026-03-23T07:26:57.008Z</time></trkpt><trkpt lat="30.098927288974892" lon="-6.715586878600436"><ele>733.5</ele><time>2026-03-23T07:26:58.008Z</time></trkpt><trkpt lat="30.098847701317258" lon="-6.715461543956911"><ele>733.75</ele><time>2026-03-23T07:26:59.008Z</time></trkpt><trkpt lat="30.09876861445202" lon="-6.715334494157077"><ele>734.0</ele><time>2026-03-23T07:27:00.008Z</time></trkpt><trkpt lat="30.098695621316462" lon="-6.715209570319333"><ele>734.0</ele><time>2026-03-23T07:27:01.008Z</time></trkpt><trkpt lat="30.098619800403476" lon="-6.715093162527312"><ele>734.0</ele><time>2026-03-23T07:27:02.008Z</time></trkpt><trkpt lat="30.098548852489028" lon="-6.7149888929105925"><ele>734.0</ele><time>2026-03-23T07:27:03.008Z</time></trkpt><trkpt lat="30.09847420308666" lon="-6.714881985906477"><ele>734.0</ele><time>2026-03-23T07:27:04.008Z</time></trkpt><trkpt lat="30.098395965501258" lon="-6.714778109365662"><ele>734.0</ele><time>2026-03-23T07:27:05.008Z</time></trkpt><trkpt lat="30.09832625569922" lon="-6.714686632765158"><ele>734.0</ele><time>2026-03-23T07:27:06.008Z</time></trkpt><trkpt lat="30.09826845495062" lon="-6.714601695935116"><ele>734.0</ele><time>2026-03-23T07:27:07.008Z</time></trkpt><trkpt lat="30.09821995615924" lon="-6.714522436612632"><ele>734.0</ele><time>2026-03-23T07:27:08.008Z</time></trkpt><trkpt lat="30.09818076198793" lon="-6.714445202081686"><ele>734.0</ele><time>2026-03-23T07:27:09.008Z</time></trkpt><trkpt lat="30.098142031092635" lon="-6.7143823776306375"><ele>734.0</ele><time>2026-03-23T07:27:10.008Z</time></trkpt><trkpt lat="30.09810084820415" lon="-6.714298777353933"><ele>733.5</ele><time>2026-03-23T07:27:11.008Z</time></trkpt><trkpt lat="30.09804187873931" lon="-6.714187043397384"><ele>733.0</ele><time>2026-03-23T07:27:12.008Z</time></trkpt><trkpt lat="30.097965043889097" lon="-6.714077479861657"><ele>732.5</ele><time>2026-03-23T07:27:13.008Z</time></trkpt><trkpt lat="30.097881691016525" lon="-6.713962081022618"><ele>732.0</ele><time>2026-03-23T07:27:14.008Z</time></trkpt><trkpt lat="30.097801886742072" lon="-6.713845216122161"><ele>732.0</ele><time>2026-03-23T07:27:15.008Z</time></trkpt><trkpt lat="30.097733722345865" lon="-6.713741508363389"><ele>732.0</ele><time>2026-03-23T07:27:16.008Z</time></trkpt><trkpt lat="30.097675019008804" lon="-6.713650701687168"><ele>732.0</ele><time>2026-03-23T07:27:17.008Z</time></trkpt><trkpt lat="30.097614235889882" lon="-6.713568812469331"><ele>732.0</ele><time>2026-03-23T07:27:18.008Z</time></trkpt><trkpt lat="30.09755756568585" lon="-6.713493785910737"><ele>732.0</ele><time>2026-03-23T07:27:19.008Z</time></trkpt><trkpt lat="30.097503976369904" lon="-6.713418664382653"><ele>732.0</ele><time>2026-03-23T07:27:20.008Z</time></trkpt><trkpt lat="30.097460702735496" lon="-6.71334429161002"><ele>732.0</ele><time>2026-03-23T07:27:21.008Z</time></trkpt><trkpt lat="30.097420469588663" lon="-6.713265941803646"><ele>732.0</ele><time>2026-03-23T07:27:22.008Z</time></trkpt><trkpt lat="30.097389307804132" lon="-6.713201437242569"><ele>732.0</ele><time>2026-03-23T07:27:23.008Z</time></trkpt><trkpt lat="30.09735441450112" lon="-6.713133754965366"><ele>732.0</ele><time>2026-03-23T07:27:24.008Z</time></trkpt><trkpt lat="30.0973157581155" lon="-6.713066107850018"><ele>732.0</ele><time>2026-03-23T07:27:25.008Z</time></trkpt><trkpt lat="30.097272181873638" lon="-6.712993114568637"><ele>732.0</ele><time>2026-03-23T07:27:26.008Z</time></trkpt><trkpt lat="30.09722449599008" lon="-6.7129215541297595"><ele>732.0</ele><time>2026-03-23T07:27:27.008Z</time></trkpt><trkpt lat="30.097166354097546" lon="-6.712857823132488"><ele>732.0</ele><time>2026-03-23T07:27:28.008Z</time></trkpt><trkpt lat="30.0971156124494" lon="-6.712788499547257"><ele>732.0</ele><time>2026-03-23T07:27:29.008Z</time></trkpt><trkpt lat="30.097074258314798" lon="-6.712718559441334"><ele>732.0</ele><time>2026-03-23T07:27:30.008Z</time></trkpt><trkpt lat="30.09703222360242" lon="-6.71266335887534"><ele>732.0</ele><time>2026-03-23T07:27:31.008Z</time></trkpt><trkpt lat="30.096947807895525" lon="-6.71258588369454"><ele>732.0</ele><time>2026-03-23T07:27:33.008Z</time></trkpt><trkpt lat="30.096868292641034" lon="-6.712470969145725"><ele>732.1666666666666</ele><time>2026-03-23T07:27:35.008Z</time></trkpt><trkpt lat="30.096827847455444" lon="-6.7123955626146605"><ele>732.3333333333334</ele><time>2026-03-23T07:27:36.009Z</time></trkpt><trkpt lat="30.09677912830424" lon="-6.712304472480065"><ele>732.5</ele><time>2026-03-23T07:27:37.008Z</time></trkpt><trkpt lat="30.096735648682596" lon="-6.712216053580416"><ele>732.6666666666667</ele><time>2026-03-23T07:27:38.008Z</time></trkpt><trkpt lat="30.096694829882438" lon="-6.712131367532181"><ele>732.8333333333334</ele><time>2026-03-23T07:27:39.008Z</time></trkpt><trkpt lat="30.096657128373742" lon="-6.712051335435174"><ele>733.0</ele><time>2026-03-23T07:27:40.009Z</time></trkpt><trkpt lat="30.096620554762346" lon="-6.711959367671448"><ele>733.2</ele><time>2026-03-23T07:27:41.009Z</time></trkpt><trkpt lat="30.096580773703906" lon="-6.711865423425421"><ele>733.4</ele><time>2026-03-23T07:27:42.009Z</time></trkpt><trkpt lat="30.096542126677498" lon="-6.711764947435982"><ele>733.6</ele><time>2026-03-23T07:27:43.008Z</time></trkpt><trkpt lat="30.09650207211177" lon="-6.71167175013406"><ele>733.8000000000001</ele><time>2026-03-23T07:27:44.008Z</time></trkpt><trkpt lat="30.096458274884686" lon="-6.7115905052410785"><ele>734.0</ele><time>2026-03-23T07:27:45.008Z</time></trkpt><trkpt lat="30.0964056907002" lon="-6.711496891567637"><ele>734.0</ele><time>2026-03-23T07:27:46.009Z</time></trkpt><trkpt lat="30.096357611225667" lon="-6.71141368124913"><ele>734.0</ele><time>2026-03-23T07:27:47.009Z</time></trkpt><trkpt lat="30.096311655911705" lon="-6.711335122311956"><ele>734.0</ele><time>2026-03-23T07:27:48.009Z</time></trkpt><trkpt lat="30.096263751972494" lon="-6.71125564672218"><ele>734.0</ele><time>2026-03-23T07:27:49.008Z</time></trkpt><trkpt lat="30.096211647192437" lon="-6.711173521546063"><ele>734.0</ele><time>2026-03-23T07:27:50.008Z</time></trkpt><trkpt lat="30.096157230063532" lon="-6.711086794786941"><ele>734.0</ele><time>2026-03-23T07:27:51.008Z</time></trkpt><trkpt lat="30.096099375047707" lon="-6.711002380411404"><ele>734.2</ele><time>2026-03-23T07:27:52.008Z</time></trkpt><trkpt lat="30.0960422187974" lon="-6.710924332249341"><ele>734.4000000000001</ele><time>2026-03-23T07:27:53.008Z</time></trkpt><trkpt lat="30.095981438774224" lon="-6.710846982550282"><ele>734.6</ele><time>2026-03-23T07:27:54.008Z</time></trkpt><trkpt lat="30.0959116906803" lon="-6.710770852683303"><ele>734.8</ele><time>2026-03-23T07:27:55.008Z</time></trkpt><trkpt lat="30.095848265936063" lon="-6.710696935445579"><ele>735.0</ele><time>2026-03-23T07:27:56.008Z</time></trkpt><trkpt lat="30.09579152870504" lon="-6.710609249968213"><ele>735.2</ele><time>2026-03-23T07:27:57.008Z</time></trkpt><trkpt lat="30.09572353005992" lon="-6.710521295005356"><ele>735.4</ele><time>2026-03-23T07:27:58.008Z</time></trkpt><trkpt lat="30.09565891011769" lon="-6.710424447915551"><ele>735.5999999999999</ele><time>2026-03-23T07:27:59.008Z</time></trkpt><trkpt lat="30.095590624242107" lon="-6.710318853848336"><ele>735.8</ele><time>2026-03-23T07:28:00.008Z</time></trkpt><trkpt lat="30.095527829001657" lon="-6.710216717982647"><ele>736.0</ele><time>2026-03-23T07:28:01.008Z</time></trkpt><trkpt lat="30.095459246172158" lon="-6.710111809740448"><ele>736.0</ele><time>2026-03-23T07:28:02.008Z</time></trkpt><trkpt lat="30.09539096470805" lon="-6.710008634890117"><ele>736.0</ele><time>2026-03-23T07:28:03.008Z</time></trkpt><trkpt lat="30.095321562104626" lon="-6.709894438848022"><ele>736.0</ele><time>2026-03-23T07:28:04.008Z</time></trkpt><trkpt lat="30.095251201746372" lon="-6.709780161927644"><ele>736.0</ele><time>2026-03-23T07:28:05.008Z</time></trkpt><trkpt lat="30.09517866117474" lon="-6.709670614751105"><ele>736.0</ele><time>2026-03-23T07:28:06.008Z</time></trkpt><trkpt lat="30.095096484091" lon="-6.709560853452442"><ele>736.0</ele><time>2026-03-23T07:28:07.008Z</time></trkpt><trkpt lat="30.095007442945043" lon="-6.709451405250174"><ele>736.0</ele><time>2026-03-23T07:28:08.008Z</time></trkpt><trkpt lat="30.094930209508444" lon="-6.709341272306061"><ele>736.0</ele><time>2026-03-23T07:28:09.008Z</time></trkpt><trkpt lat="30.094855072345958" lon="-6.70922742337499"><ele>736.0</ele><time>2026-03-23T07:28:10.008Z</time></trkpt><trkpt lat="30.094781455507736" lon="-6.709112641024376"><ele>736.0</ele><time>2026-03-23T07:28:11.008Z</time></trkpt><trkpt lat="30.094703858853915" lon="-6.709002698477208"><ele>736.0</ele><time>2026-03-23T07:28:12.008Z</time></trkpt><trkpt lat="30.09462882662418" lon="-6.708888773803868"><ele>736.0</ele><time>2026-03-23T07:28:13.008Z</time></trkpt><trkpt lat="30.09455050257415" lon="-6.7087737536884955"><ele>736.0</ele><time>2026-03-23T07:28:14.008Z</time></trkpt><trkpt lat="30.094468145315613" lon="-6.708660363025879"><ele>736.0</ele><time>2026-03-23T07:28:15.008Z</time></trkpt><trkpt lat="30.094386677488217" lon="-6.708553085183399"><ele>736.0</ele><time>2026-03-23T07:28:16.008Z</time></trkpt><trkpt lat="30.09431423657282" lon="-6.708451908700934"><ele>736.0</ele><time>2026-03-23T07:28:17.008Z</time></trkpt><trkpt lat="30.09424834286342" lon="-6.708350620788108"><ele>735.8</ele><time>2026-03-23T07:28:18.008Z</time></trkpt><trkpt lat="30.09417991293522" lon="-6.708251952639839"><ele>735.5999999999999</ele><time>2026-03-23T07:28:19.008Z</time></trkpt><trkpt lat="30.094114427171483" lon="-6.708155516096039"><ele>735.4</ele><time>2026-03-23T07:28:20.008Z</time></trkpt><trkpt lat="30.094049747879353" lon="-6.70804940373955"><ele>735.2</ele><time>2026-03-23T07:28:21.008Z</time></trkpt><trkpt lat="30.093986972766785" lon="-6.70794565961599"><ele>735.0</ele><time>2026-03-23T07:28:22.008Z</time></trkpt><trkpt lat="30.09392369565728" lon="-6.707847179558087"><ele>735.0</ele><time>2026-03-23T07:28:23.008Z</time></trkpt><trkpt lat="30.09386395029027" lon="-6.707757081378098"><ele>735.0</ele><time>2026-03-23T07:28:24.008Z</time></trkpt><trkpt lat="30.093812064517355" lon="-6.707680952999278"><ele>735.0</ele><time>2026-03-23T07:28:25.008Z</time></trkpt><trkpt lat="30.09376116040668" lon="-6.707610850125454"><ele>735.0</ele><time>2026-03-23T07:28:26.008Z</time></trkpt><trkpt lat="30.09371848349357" lon="-6.707552628160951"><ele>735.0</ele><time>2026-03-23T07:28:27.008Z</time></trkpt><trkpt lat="30.093650918135697" lon="-6.707432597187273"><ele>735.0</ele><time>2026-03-23T07:28:29.007Z</time></trkpt><trkpt lat="30.093602527356637" lon="-6.707353399718234"><ele>735.0</ele><time>2026-03-23T07:28:30.007Z</time></trkpt><trkpt lat="30.093562868375102" lon="-6.707278679412005"><ele>735.0</ele><time>2026-03-23T07:28:31.007Z</time></trkpt><trkpt lat="30.093514187660666" lon="-6.70720376129829"><ele>735.0</ele><time>2026-03-23T07:28:32.007Z</time></trkpt><trkpt lat="30.09347676884797" lon="-6.7071389221855195"><ele>735.0</ele><time>2026-03-23T07:28:33.007Z</time></trkpt><trkpt lat="30.093435255727588" lon="-6.707078455139231"><ele>735.0</ele><time>2026-03-23T07:28:34.007Z</time></trkpt><trkpt lat="30.093391288718845" lon="-6.707014676579882"><ele>735.0</ele><time>2026-03-23T07:28:35.007Z</time></trkpt><trkpt lat="30.093336189298558" lon="-6.706935252013685"><ele>735.0</ele><time>2026-03-23T07:28:36.007Z</time></trkpt><trkpt lat="30.093274803599225" lon="-6.706857233122576"><ele>735.0</ele><time>2026-03-23T07:28:37.007Z</time></trkpt><trkpt lat="30.093221116271714" lon="-6.706776441050291"><ele>735.0</ele><time>2026-03-23T07:28:38.007Z</time></trkpt><trkpt lat="30.09317045971981" lon="-6.706695413439447"><ele>735.0</ele><time>2026-03-23T07:28:39.007Z</time></trkpt><trkpt lat="30.093123574556547" lon="-6.706618482982268"><ele>735.0</ele><time>2026-03-23T07:28:40.007Z</time></trkpt><trkpt lat="30.09307371211395" lon="-6.7065454694609175"><ele>735.0</ele><time>2026-03-23T07:28:41.007Z</time></trkpt><trkpt lat="30.093025259685152" lon="-6.70647029324695"><ele>735.0</ele><time>2026-03-23T07:28:42.007Z</time></trkpt><trkpt lat="30.092976974911778" lon="-6.706401541506425"><ele>735.0</ele><time>2026-03-23T07:28:43.007Z</time></trkpt><trkpt lat="30.092907410293364" lon="-6.706302165970261"><ele>735.0</ele><time>2026-03-23T07:28:45.007Z</time></trkpt><trkpt lat="30.092857516912378" lon="-6.706197267094268"><ele>735.0</ele><time>2026-03-23T07:28:47.006Z</time></trkpt><trkpt lat="30.09277732525861" lon="-6.70606339014631"><ele>735.0</ele><time>2026-03-23T07:28:49.006Z</time></trkpt><trkpt lat="30.092704363424858" lon="-6.705966897869428"><ele>735.1666666666666</ele><time>2026-03-23T07:28:50.006Z</time></trkpt><trkpt lat="30.092638187562866" lon="-6.7058855903310475"><ele>735.3333333333334</ele><time>2026-03-23T07:28:51.006Z</time></trkpt><trkpt lat="30.09259487509531" lon="-6.705821070619013"><ele>735.5</ele><time>2026-03-23T07:28:52.006Z</time></trkpt><trkpt lat="30.092540522013103" lon="-6.7057285517667955"><ele>735.6666666666667</ele><time>2026-03-23T07:28:54.006Z</time></trkpt><trkpt lat="30.09250564807832" lon="-6.705665070141685"><ele>735.8333333333334</ele><time>2026-03-23T07:28:55.006Z</time></trkpt><trkpt lat="30.092458053017623" lon="-6.7055801347351105"><ele>736.0</ele><time>2026-03-23T07:28:56.006Z</time></trkpt><trkpt lat="30.0923898759206" lon="-6.705472913421683"><ele>736.25</ele><time>2026-03-23T07:28:57.006Z</time></trkpt><trkpt lat="30.092310745499912" lon="-6.705361874624225"><ele>736.5</ele><time>2026-03-23T07:28:58.006Z</time></trkpt><trkpt lat="30.092239995954277" lon="-6.705251350438333"><ele>736.75</ele><time>2026-03-23T07:28:59.006Z</time></trkpt><trkpt lat="30.09216907275138" lon="-6.705149942797978"><ele>737.0</ele><time>2026-03-23T07:29:00.006Z</time></trkpt><trkpt lat="30.092098646396767" lon="-6.705042544770473"><ele>737.25</ele><time>2026-03-23T07:29:01.006Z</time></trkpt><trkpt lat="30.09202391162503" lon="-6.7049265985945"><ele>737.5</ele><time>2026-03-23T07:29:02.006Z</time></trkpt><trkpt lat="30.091951945678844" lon="-6.704808453753566"><ele>737.75</ele><time>2026-03-23T07:29:03.006Z</time></trkpt><trkpt lat="30.09187523764307" lon="-6.704692322892496"><ele>738.0</ele><time>2026-03-23T07:29:04.006Z</time></trkpt><trkpt lat="30.091802713677655" lon="-6.704581999242206"><ele>738.0</ele><time>2026-03-23T07:29:05.006Z</time></trkpt><trkpt lat="30.0917313792399" lon="-6.704469667985957"><ele>738.0</ele><time>2026-03-23T07:29:06.006Z</time></trkpt><trkpt lat="30.091660183309287" lon="-6.704362021514634"><ele>738.0</ele><time>2026-03-23T07:29:07.006Z</time></trkpt><trkpt lat="30.09159072132012" lon="-6.704257367612173"><ele>738.0</ele><time>2026-03-23T07:29:08.006Z</time></trkpt><trkpt lat="30.091523265854363" lon="-6.7041510945896405"><ele>738.25</ele><time>2026-03-23T07:29:09.006Z</time></trkpt><trkpt lat="30.091455535153184" lon="-6.704042446229823"><ele>738.5</ele><time>2026-03-23T07:29:10.006Z</time></trkpt><trkpt lat="30.091382599847886" lon="-6.703931835520498"><ele>738.75</ele><time>2026-03-23T07:29:11.006Z</time></trkpt><trkpt lat="30.091303652948746" lon="-6.703820961305422"><ele>739.0</ele><time>2026-03-23T07:29:12.006Z</time></trkpt><trkpt lat="30.09122373380619" lon="-6.703700501471749"><ele>739.0</ele><time>2026-03-23T07:29:13.006Z</time></trkpt><trkpt lat="30.091154555009513" lon="-6.703582212406508"><ele>739.0</ele><time>2026-03-23T07:29:14.006Z</time></trkpt><trkpt lat="30.091085044777625" lon="-6.703465761493906"><ele>739.0</ele><time>2026-03-23T07:29:15.006Z</time></trkpt><trkpt lat="30.091008835766658" lon="-6.703347928916016"><ele>739.0</ele><time>2026-03-23T07:29:16.006Z</time></trkpt><trkpt lat="30.090923651089735" lon="-6.70323881939596"><ele>739.0</ele><time>2026-03-23T07:29:17.006Z</time></trkpt><trkpt lat="30.09084428351329" lon="-6.703116953764659"><ele>739.0</ele><time>2026-03-23T07:29:18.006Z</time></trkpt><trkpt lat="30.090765873704296" lon="-6.702989625013727"><ele>739.0</ele><time>2026-03-23T07:29:19.006Z</time></trkpt><trkpt lat="30.090691485571977" lon="-6.702867981009255"><ele>739.0</ele><time>2026-03-23T07:29:20.006Z</time></trkpt><trkpt lat="30.090616694074654" lon="-6.702754037547563"><ele>739.0</ele><time>2026-03-23T07:29:21.006Z</time></trkpt><trkpt lat="30.090543279625667" lon="-6.7026440864677665"><ele>739.0</ele><time>2026-03-23T07:29:22.006Z</time></trkpt><trkpt lat="30.09047157159569" lon="-6.702534100154773"><ele>739.0</ele><time>2026-03-23T07:29:23.006Z</time></trkpt><trkpt lat="30.0904000258764" lon="-6.702425778153026"><ele>739.0</ele><time>2026-03-23T07:29:24.006Z</time></trkpt><trkpt lat="30.09033091742348" lon="-6.702323938000314"><ele>739.0</ele><time>2026-03-23T07:29:25.006Z</time></trkpt><trkpt lat="30.090262430612178" lon="-6.702223933404258"><ele>739.0</ele><time>2026-03-23T07:29:26.006Z</time></trkpt><trkpt lat="30.090203114402435" lon="-6.702134092874019"><ele>739.0</ele><time>2026-03-23T07:29:27.006Z</time></trkpt><trkpt lat="30.09015213353315" lon="-6.70205387066081"><ele>739.0</ele><time>2026-03-23T07:29:28.006Z</time></trkpt><trkpt lat="30.090104982646317" lon="-6.701970976102727"><ele>739.0</ele><time>2026-03-23T07:29:29.006Z</time></trkpt><trkpt lat="30.090066056347258" lon="-6.7018913841060455"><ele>739.0</ele><time>2026-03-23T07:29:30.006Z</time></trkpt><trkpt lat="30.090022037770126" lon="-6.701811685955784"><ele>739.0</ele><time>2026-03-23T07:29:31.006Z</time></trkpt><trkpt lat="30.089968808341986" lon="-6.701742636201119"><ele>739.0</ele><time>2026-03-23T07:29:32.006Z</time></trkpt><trkpt lat="30.089916487878522" lon="-6.701662599054264"><ele>739.0</ele><time>2026-03-23T07:29:33.006Z</time></trkpt><trkpt lat="30.089861396024148" lon="-6.70158300338019"><ele>739.0</ele><time>2026-03-23T07:29:34.006Z</time></trkpt><trkpt lat="30.089802732885104" lon="-6.701495020876652"><ele>739.0</ele><time>2026-03-23T07:29:35.006Z</time></trkpt><trkpt lat="30.089741960386103" lon="-6.701397269585372"><ele>739.2</ele><time>2026-03-23T07:29:36.006Z</time></trkpt><trkpt lat="30.08968502557318" lon="-6.701306127242156"><ele>739.4000000000001</ele><time>2026-03-23T07:29:37.006Z</time></trkpt><trkpt lat="30.089624905273396" lon="-6.701216484910128"><ele>739.6</ele><time>2026-03-23T07:29:38.006Z</time></trkpt><trkpt lat="30.08956424214396" lon="-6.701124626219868"><ele>739.8</ele><time>2026-03-23T07:29:39.006Z</time></trkpt><trkpt lat="30.08949761023747" lon="-6.701027989968231"><ele>740.0</ele><time>2026-03-23T07:29:40.006Z</time></trkpt><trkpt lat="30.089432309939117" lon="-6.700930510240859"><ele>740.0</ele><time>2026-03-23T07:29:41.006Z</time></trkpt><trkpt lat="30.089368544474734" lon="-6.7008303814078864"><ele>740.0</ele><time>2026-03-23T07:29:42.006Z</time></trkpt><trkpt lat="30.08930285821621" lon="-6.7007306474704"><ele>740.0</ele><time>2026-03-23T07:29:43.006Z</time></trkpt><trkpt lat="30.089229343946815" lon="-6.700629224847376"><ele>740.0</ele><time>2026-03-23T07:29:44.006Z</time></trkpt><trkpt lat="30.089159237813725" lon="-6.700524313916837"><ele>740.0</ele><time>2026-03-23T07:29:45.007Z</time></trkpt><trkpt lat="30.08909381053613" lon="-6.700420668982598"><ele>740.2</ele><time>2026-03-23T07:29:46.007Z</time></trkpt><trkpt lat="30.089032587466832" lon="-6.70031660392996"><ele>740.4</ele><time>2026-03-23T07:29:47.007Z</time></trkpt><trkpt lat="30.088968032685404" lon="-6.700212542038915"><ele>740.5999999999999</ele><time>2026-03-23T07:29:48.007Z</time></trkpt><trkpt lat="30.088903963391093" lon="-6.700114804284505"><ele>740.8</ele><time>2026-03-23T07:29:49.006Z</time></trkpt><trkpt lat="30.088841303538413" lon="-6.700019677174631"><ele>741.0</ele><time>2026-03-23T07:29:50.006Z</time></trkpt><trkpt lat="30.088779572853266" lon="-6.699924251890536"><ele>741.0</ele><time>2026-03-23T07:29:51.006Z</time></trkpt><trkpt lat="30.08871078063038" lon="-6.699820497007791"><ele>741.0</ele><time>2026-03-23T07:29:52.006Z</time></trkpt><trkpt lat="30.088648231898823" lon="-6.699713567449908"><ele>741.0</ele><time>2026-03-23T07:29:53.006Z</time></trkpt><trkpt lat="30.088583653316604" lon="-6.699611566456366"><ele>741.0</ele><time>2026-03-23T07:29:54.006Z</time></trkpt><trkpt lat="30.08851697875376" lon="-6.699514681728751"><ele>741.0</ele><time>2026-03-23T07:29:55.006Z</time></trkpt><trkpt lat="30.08845252114962" lon="-6.6994136890978"><ele>741.0</ele><time>2026-03-23T07:29:56.006Z</time></trkpt><trkpt lat="30.088387189766035" lon="-6.699311187306046"><ele>741.0</ele><time>2026-03-23T07:29:57.006Z</time></trkpt><trkpt lat="30.08832695888436" lon="-6.699215626963506"><ele>741.0</ele><time>2026-03-23T07:29:58.006Z</time></trkpt><trkpt lat="30.08826801268425" lon="-6.6991396158632535"><ele>741.0</ele><time>2026-03-23T07:29:59.006Z</time></trkpt><trkpt lat="30.08820854971846" lon="-6.699067170930143"><ele>741.0</ele><time>2026-03-23T07:30:00.006Z</time></trkpt><trkpt lat="30.088160969685877" lon="-6.698973750443863"><ele>741.0</ele><time>2026-03-23T07:30:01.006Z</time></trkpt><trkpt lat="30.088106167054445" lon="-6.698881103537541"><ele>741.0</ele><time>2026-03-23T07:30:02.006Z</time></trkpt><trkpt lat="30.0880484676504" lon="-6.698790212840865"><ele>741.0</ele><time>2026-03-23T07:30:03.006Z</time></trkpt><trkpt lat="30.08798926518702" lon="-6.698696169931551"><ele>741.0</ele><time>2026-03-23T07:30:04.006Z</time></trkpt><trkpt lat="30.087929726588236" lon="-6.698611188657951"><ele>741.0</ele><time>2026-03-23T07:30:05.006Z</time></trkpt><trkpt lat="30.08787229769301" lon="-6.698517748107433"><ele>740.8</ele><time>2026-03-23T07:30:06.006Z</time></trkpt><trkpt lat="30.08781484556648" lon="-6.698425955263414"><ele>740.5999999999999</ele><time>2026-03-23T07:30:07.006Z</time></trkpt><trkpt lat="30.08775581846287" lon="-6.698325654198892"><ele>740.4</ele><time>2026-03-23T07:30:08.006Z</time></trkpt><trkpt lat="30.087703634237723" lon="-6.698241351902175"><ele>740.2</ele><time>2026-03-23T07:30:09.006Z</time></trkpt><trkpt lat="30.087639834367735" lon="-6.6981502457412905"><ele>740.0</ele><time>2026-03-23T07:30:10.006Z</time></trkpt><trkpt lat="30.087582448023255" lon="-6.698067476252986"><ele>740.0</ele><time>2026-03-23T07:30:11.006Z</time></trkpt><trkpt lat="30.087524455599745" lon="-6.6979790188962"><ele>740.0</ele><time>2026-03-23T07:30:12.006Z</time></trkpt><trkpt lat="30.08746611898124" lon="-6.697887543792257"><ele>740.0</ele><time>2026-03-23T07:30:13.006Z</time></trkpt><trkpt lat="30.087397132000397" lon="-6.697798468771372"><ele>740.0</ele><time>2026-03-23T07:30:14.006Z</time></trkpt><trkpt lat="30.087342284780966" lon="-6.697711924866251"><ele>740.0</ele><time>2026-03-23T07:30:15.006Z</time></trkpt><trkpt lat="30.08728468419701" lon="-6.697615476939582"><ele>740.25</ele><time>2026-03-23T07:30:16.006Z</time></trkpt><trkpt lat="30.087237141757157" lon="-6.697518486914417"><ele>740.5</ele><time>2026-03-23T07:30:17.006Z</time></trkpt><trkpt lat="30.087177953573644" lon="-6.697408213383065"><ele>740.75</ele><time>2026-03-23T07:30:18.006Z</time></trkpt><trkpt lat="30.087102588015984" lon="-6.697295473067892"><ele>741.0</ele><time>2026-03-23T07:30:19.006Z</time></trkpt><trkpt lat="30.087012162305157" lon="-6.697181983130265"><ele>741.0</ele><time>2026-03-23T07:30:20.006Z</time></trkpt><trkpt lat="30.08691116779589" lon="-6.6970331049321485"><ele>741.0</ele><time>2026-03-23T07:30:21.006Z</time></trkpt><trkpt lat="30.086766459183824" lon="-6.696925048167197"><ele>741.0</ele><time>2026-03-23T07:30:22.006Z</time></trkpt><trkpt lat="30.08668877009127" lon="-6.696799778896709"><ele>741.0</ele><time>2026-03-23T07:30:23.006Z</time></trkpt><trkpt lat="30.086616633988303" lon="-6.696683463792787"><ele>741.0</ele><time>2026-03-23T07:30:24.006Z</time></trkpt><trkpt lat="30.08654692401941" lon="-6.696571060322383"><ele>741.0</ele><time>2026-03-23T07:30:25.006Z</time></trkpt><trkpt lat="30.086468780333707" lon="-6.696427634600063"><ele>741.0</ele><time>2026-03-23T07:30:26.006Z</time></trkpt><trkpt lat="30.086402171056562" lon="-6.696314377823426"><ele>741.0</ele><time>2026-03-23T07:30:27.006Z</time></trkpt><trkpt lat="30.086337921325143" lon="-6.69621018580467"><ele>741.0</ele><time>2026-03-23T07:30:28.006Z</time></trkpt><trkpt lat="30.08627827401036" lon="-6.69611294642345"><ele>741.0</ele><time>2026-03-23T07:30:29.006Z</time></trkpt><trkpt lat="30.086211977964407" lon="-6.696013929551696"><ele>741.0</ele><time>2026-03-23T07:30:30.006Z</time></trkpt><trkpt lat="30.086146098386923" lon="-6.69591533217484"><ele>741.0</ele><time>2026-03-23T07:30:31.006Z</time></trkpt><trkpt lat="30.086089784117505" lon="-6.695826321203413"><ele>741.0</ele><time>2026-03-23T07:30:32.006Z</time></trkpt><trkpt lat="30.086039280481042" lon="-6.695748350180451"><ele>741.0</ele><time>2026-03-23T07:30:33.006Z</time></trkpt><trkpt lat="30.086005160928107" lon="-6.695675015493832"><ele>741.0</ele><time>2026-03-23T07:30:34.006Z</time></trkpt><trkpt lat="30.085988255701945" lon="-6.695561370194334"><ele>741.0</ele><time>2026-03-23T07:30:36.006Z</time></trkpt><trkpt lat="30.085985773769362" lon="-6.695455760151527"><ele>741.0</ele><time>2026-03-23T07:30:38.006Z</time></trkpt><trkpt lat="30.085981978594983" lon="-6.695324479023892"><ele>741.0</ele><time>2026-03-23T07:30:40.006Z</time></trkpt><trkpt lat="30.08596834141865" lon="-6.695226014602327"><ele>741.0</ele><time>2026-03-23T07:30:42.006Z</time></trkpt><trkpt lat="30.085913239197687" lon="-6.695182336058582"><ele>741.0</ele><time>2026-03-23T07:30:44.006Z</time></trkpt><trkpt lat="30.085828561058463" lon="-6.695117207084155"><ele>741.0</ele><time>2026-03-23T07:30:46.006Z</time></trkpt><trkpt lat="30.08576045342711" lon="-6.695105631306767"><ele>741.0</ele><time>2026-03-23T07:30:47.006Z</time></trkpt><trkpt lat="30.085687369022576" lon="-6.69510289786519"><ele>741.0</ele><time>2026-03-23T07:30:48.006Z</time></trkpt><trkpt lat="30.085617063790828" lon="-6.695080334897996"><ele>741.0</ele><time>2026-03-23T07:30:49.006Z</time></trkpt><trkpt lat="30.08555995098629" lon="-6.695033453974818"><ele>741.0</ele><time>2026-03-23T07:30:50.006Z</time></trkpt><trkpt lat="30.085522853400345" lon="-6.694961021341758"><ele>741.0</ele><time>2026-03-23T07:30:51.006Z</time></trkpt><trkpt lat="30.08547891429123" lon="-6.694867475631715"><ele>741.0</ele><time>2026-03-23T07:30:52.006Z</time></trkpt><trkpt lat="30.085423868227135" lon="-6.694768933120468"><ele>741.0</ele><time>2026-03-23T07:30:53.006Z</time></trkpt><trkpt lat="30.0853605097647" lon="-6.694659030337467"><ele>741.0</ele><time>2026-03-23T07:30:54.006Z</time></trkpt><trkpt lat="30.085281480521015" lon="-6.69453149000712"><ele>741.0</ele><time>2026-03-23T07:30:55.006Z</time></trkpt><trkpt lat="30.085214016043587" lon="-6.69442257415706"><ele>741.0</ele><time>2026-03-23T07:30:56.006Z</time></trkpt><trkpt lat="30.085161650241155" lon="-6.694321038641016"><ele>741.0</ele><time>2026-03-23T07:30:57.006Z</time></trkpt><trkpt lat="30.08510141769129" lon="-6.694212859908009"><ele>741.0</ele><time>2026-03-23T07:30:58.006Z</time></trkpt><trkpt lat="30.085034437532023" lon="-6.694104294099578"><ele>741.0</ele><time>2026-03-23T07:30:59.006Z</time></trkpt><trkpt lat="30.08496507488646" lon="-6.693996096380436"><ele>741.0</ele><time>2026-03-23T07:31:00.006Z</time></trkpt><trkpt lat="30.08490095881647" lon="-6.693893824423773"><ele>741.0</ele><time>2026-03-23T07:31:01.006Z</time></trkpt><trkpt lat="30.08483331049168" lon="-6.693790547380323"><ele>741.0</ele><time>2026-03-23T07:31:02.006Z</time></trkpt><trkpt lat="30.08477520659661" lon="-6.693697874018833"><ele>741.0</ele><time>2026-03-23T07:31:03.006Z</time></trkpt><trkpt lat="30.08471871148328" lon="-6.693614375495823"><ele>741.0</ele><time>2026-03-23T07:31:04.006Z</time></trkpt><trkpt lat="30.084671245638813" lon="-6.693546137336583"><ele>741.0</ele><time>2026-03-23T07:31:05.006Z</time></trkpt><trkpt lat="30.0846211157363" lon="-6.693481960596375"><ele>741.0</ele><time>2026-03-23T07:31:06.006Z</time></trkpt><trkpt lat="30.08455117088743" lon="-6.693374564834555"><ele>740.8</ele><time>2026-03-23T07:31:08.006Z</time></trkpt><trkpt lat="30.084507446681606" lon="-6.69331248087618"><ele>740.5999999999999</ele><time>2026-03-23T07:31:11.006Z</time></trkpt><trkpt lat="30.084463120336956" lon="-6.693247547766128"><ele>740.4</ele><time>2026-03-23T07:31:16.006Z</time></trkpt><trkpt lat="30.084388082825082" lon="-6.693126456860113"><ele>740.2</ele><time>2026-03-23T07:34:27.008Z</time></trkpt><trkpt lat="30.084321636173446" lon="-6.693037184518748"><ele>740.0</ele><time>2026-03-23T07:34:28.008Z</time></trkpt><trkpt lat="30.084287110764308" lon="-6.692927436604843"><ele>740.0</ele><time>2026-03-23T07:34:29.008Z</time></trkpt><trkpt lat="30.084237408444892" lon="-6.692847327702139"><ele>740.0</ele><time>2026-03-23T07:34:30.008Z</time></trkpt><trkpt lat="30.08418393715975" lon="-6.6927778410446646"><ele>740.0</ele><time>2026-03-23T07:34:31.008Z</time></trkpt><trkpt lat="30.084140173183826" lon="-6.692688628583785"><ele>740.0</ele><time>2026-03-23T07:34:32.008Z</time></trkpt><trkpt lat="30.084084206368868" lon="-6.6925907605573665"><ele>740.0</ele><time>2026-03-23T07:34:33.008Z</time></trkpt><trkpt lat="30.084025412812256" lon="-6.692491070735161"><ele>740.4</ele><time>2026-03-23T07:34:34.008Z</time></trkpt><trkpt lat="30.083956799183653" lon="-6.692383249179814"><ele>740.8</ele><time>2026-03-23T07:34:35.008Z</time></trkpt><trkpt lat="30.08388466880886" lon="-6.692273329627197"><ele>741.2</ele><time>2026-03-23T07:34:36.008Z</time></trkpt><trkpt lat="30.083820188581726" lon="-6.692172508292926"><ele>741.6</ele><time>2026-03-23T07:34:37.008Z</time></trkpt><trkpt lat="30.083757963288917" lon="-6.6920769727286755"><ele>742.0</ele><time>2026-03-23T07:34:38.008Z</time></trkpt><trkpt lat="30.08369185226992" lon="-6.691978733880871"><ele>741.8</ele><time>2026-03-23T07:34:39.008Z</time></trkpt><trkpt lat="30.083627599186812" lon="-6.691882283908372"><ele>741.6</ele><time>2026-03-23T07:34:40.008Z</time></trkpt><trkpt lat="30.08357293774163" lon="-6.691796120509717"><ele>741.4</ele><time>2026-03-23T07:34:41.008Z</time></trkpt><trkpt lat="30.08351149326478" lon="-6.691714525420082"><ele>741.1999999999999</ele><time>2026-03-23T07:34:42.008Z</time></trkpt><trkpt lat="30.08344644855468" lon="-6.6916330942597755"><ele>741.0</ele><time>2026-03-23T07:34:43.008Z</time></trkpt><trkpt lat="30.083366175204127" lon="-6.691549093181133"><ele>741.0</ele><time>2026-03-23T07:34:44.008Z</time></trkpt><trkpt lat="30.083297850919976" lon="-6.691465059131911"><ele>741.0</ele><time>2026-03-23T07:34:45.008Z</time></trkpt><trkpt lat="30.08323642922216" lon="-6.691386675301071"><ele>741.0</ele><time>2026-03-23T07:34:46.008Z</time></trkpt><trkpt lat="30.083177235913652" lon="-6.691318998895219"><ele>741.0</ele><time>2026-03-23T07:34:47.008Z</time></trkpt><trkpt lat="30.08310905128667" lon="-6.6912453379376124"><ele>741.0</ele><time>2026-03-23T07:34:48.008Z</time></trkpt><trkpt lat="30.08303610059677" lon="-6.691172044115138"><ele>741.0</ele><time>2026-03-23T07:34:49.008Z</time></trkpt><trkpt lat="30.08296641060965" lon="-6.691100890941869"><ele>741.0</ele><time>2026-03-23T07:34:50.008Z</time></trkpt><trkpt lat="30.08290410036442" lon="-6.691020559993372"><ele>741.0</ele><time>2026-03-23T07:34:51.008Z</time></trkpt><trkpt lat="30.08284074621132" lon="-6.690933518319281"><ele>741.0</ele><time>2026-03-23T07:34:52.008Z</time></trkpt><trkpt lat="30.08278026952878" lon="-6.690862218084713"><ele>741.0</ele><time>2026-03-23T07:34:53.008Z</time></trkpt><trkpt lat="30.082710276568175" lon="-6.690799967906081"><ele>741.0</ele><time>2026-03-23T07:34:54.008Z</time></trkpt><trkpt lat="30.082642165671018" lon="-6.690747818784363"><ele>741.0</ele><time>2026-03-23T07:34:55.008Z</time></trkpt><trkpt lat="30.082563487310257" lon="-6.6906865730716065"><ele>741.0</ele><time>2026-03-23T07:34:56.008Z</time></trkpt><trkpt lat="30.082493186523486" lon="-6.690620185532512"><ele>741.0</ele><time>2026-03-23T07:34:57.008Z</time></trkpt><trkpt lat="30.08243275832519" lon="-6.690539982169496"><ele>741.0</ele><time>2026-03-23T07:34:58.008Z</time></trkpt><trkpt lat="30.082374043185293" lon="-6.69045633153771"><ele>741.4</ele><time>2026-03-23T07:34:59.008Z</time></trkpt><trkpt lat="30.082309812432268" lon="-6.690371539635391"><ele>741.8</ele><time>2026-03-23T07:35:00.008Z</time></trkpt><trkpt lat="30.082243667488253" lon="-6.690292762525689"><ele>742.1999999999999</ele><time>2026-03-23T07:35:01.008Z</time></trkpt><trkpt lat="30.08217912222244" lon="-6.690203867714751"><ele>742.5999999999999</ele><time>2026-03-23T07:35:02.008Z</time></trkpt><trkpt lat="30.082148147163682" lon="-6.690058808063621"><ele>743.0</ele><time>2026-03-23T07:35:03.008Z</time></trkpt><trkpt lat="30.082067003936928" lon="-6.689960112534047"><ele>743.0</ele><time>2026-03-23T07:35:04.008Z</time></trkpt><trkpt lat="30.08198878178375" lon="-6.6898648619695384"><ele>743.0</ele><time>2026-03-23T07:35:05.008Z</time></trkpt><trkpt lat="30.081909906804952" lon="-6.689768816310613"><ele>743.0</ele><time>2026-03-23T07:35:06.008Z</time></trkpt><trkpt lat="30.081833260551697" lon="-6.689675626826997"><ele>743.0</ele><time>2026-03-23T07:35:07.008Z</time></trkpt><trkpt lat="30.081760507577318" lon="-6.689587248539702"><ele>743.0</ele><time>2026-03-23T07:35:08.008Z</time></trkpt><trkpt lat="30.081684236708536" lon="-6.689494596629136"><ele>743.0</ele><time>2026-03-23T07:35:09.008Z</time></trkpt><trkpt lat="30.081610299540287" lon="-6.689404779889888"><ele>743.0</ele><time>2026-03-23T07:35:10.008Z</time></trkpt><trkpt lat="30.081498195028242" lon="-6.689373313907338"><ele>743.0</ele><time>2026-03-23T07:35:11.008Z</time></trkpt><trkpt lat="30.081441579069065" lon="-6.689290064080807"><ele>743.0</ele><time>2026-03-23T07:35:12.008Z</time></trkpt><trkpt lat="30.08138811459755" lon="-6.689213713820341"><ele>743.0</ele><time>2026-03-23T07:35:13.008Z</time></trkpt><trkpt lat="30.081338344534526" lon="-6.6891488434112025"><ele>743.2857142857143</ele><time>2026-03-23T07:35:14.008Z</time></trkpt><trkpt lat="30.081290445765116" lon="-6.689087252193283"><ele>743.5714285714286</ele><time>2026-03-23T07:35:15.008Z</time></trkpt><trkpt lat="30.081240386207877" lon="-6.689031081900042"><ele>743.8571428571429</ele><time>2026-03-23T07:35:16.008Z</time></trkpt><trkpt lat="30.08118974301659" lon="-6.688973476043083"><ele>744.1428571428571</ele><time>2026-03-23T07:35:17.008Z</time></trkpt><trkpt lat="30.081136746556208" lon="-6.688911528187292"><ele>744.4285714285713</ele><time>2026-03-23T07:35:18.008Z</time></trkpt><trkpt lat="30.081087610599482" lon="-6.688840653024982"><ele>744.7142857142857</ele><time>2026-03-23T07:35:19.008Z</time></trkpt><trkpt lat="30.081040344041867" lon="-6.688769231047559"><ele>745.0</ele><time>2026-03-23T07:35:20.008Z</time></trkpt><trkpt lat="30.081011880884773" lon="-6.688678192787934"><ele>745.0</ele><time>2026-03-23T07:35:21.008Z</time></trkpt><trkpt lat="30.0809310517657" lon="-6.6886263417831815"><ele>745.0</ele><time>2026-03-23T07:35:22.008Z</time></trkpt><trkpt lat="30.080863993297953" lon="-6.688548713174137"><ele>745.0</ele><time>2026-03-23T07:35:23.008Z</time></trkpt><trkpt lat="30.08079345502611" lon="-6.688468267571448"><ele>745.0</ele><time>2026-03-23T07:35:24.008Z</time></trkpt><trkpt lat="30.080716678447306" lon="-6.688385727027367"><ele>745.0</ele><time>2026-03-23T07:35:25.008Z</time></trkpt><trkpt lat="30.08064044732729" lon="-6.688287449673026"><ele>745.0</ele><time>2026-03-23T07:35:26.008Z</time></trkpt><trkpt lat="30.080558931865713" lon="-6.688181231296781"><ele>745.0</ele><time>2026-03-23T07:35:27.008Z</time></trkpt><trkpt lat="30.080476892600153" lon="-6.688079341683429"><ele>745.0</ele><time>2026-03-23T07:35:28.008Z</time></trkpt><trkpt lat="30.080391765460462" lon="-6.687971610512868"><ele>745.0</ele><time>2026-03-23T07:35:29.008Z</time></trkpt><trkpt lat="30.080308501853146" lon="-6.687861460947647"><ele>744.75</ele><time>2026-03-23T07:35:30.008Z</time></trkpt><trkpt lat="30.080224255496223" lon="-6.687756124771497"><ele>744.5</ele><time>2026-03-23T07:35:31.008Z</time></trkpt><trkpt lat="30.080144385787463" lon="-6.687660978510889"><ele>744.25</ele><time>2026-03-23T07:35:32.008Z</time></trkpt><trkpt lat="30.08006564413913" lon="-6.6875659683304205"><ele>744.0</ele><time>2026-03-23T07:35:33.008Z</time></trkpt><trkpt lat="30.079991239353262" lon="-6.687470412646548"><ele>745.0</ele><time>2026-03-23T07:35:34.008Z</time></trkpt><trkpt lat="30.07992050729765" lon="-6.687373930133426"><ele>746.0</ele><time>2026-03-23T07:35:35.008Z</time></trkpt><trkpt lat="30.079842942790137" lon="-6.6872728865867845"><ele>747.0</ele><time>2026-03-23T07:35:36.008Z</time></trkpt><trkpt lat="30.07976480812324" lon="-6.687173472030259"><ele>748.0</ele><time>2026-03-23T07:35:37.008Z</time></trkpt><trkpt lat="30.079685320045122" lon="-6.6870704349190095"><ele>748.0</ele><time>2026-03-23T07:35:38.008Z</time></trkpt><trkpt lat="30.079607574397798" lon="-6.686971032008815"><ele>748.0</ele><time>2026-03-23T07:35:39.008Z</time></trkpt><trkpt lat="30.079528066113603" lon="-6.686873514175129"><ele>748.0</ele><time>2026-03-23T07:35:40.008Z</time></trkpt><trkpt lat="30.079449293317364" lon="-6.686773503227715"><ele>748.0</ele><time>2026-03-23T07:35:41.008Z</time></trkpt><trkpt lat="30.079375743534072" lon="-6.686671470499438"><ele>748.0</ele><time>2026-03-23T07:35:42.008Z</time></trkpt><trkpt lat="30.079294768571383" lon="-6.6865730922495015"><ele>748.0</ele><time>2026-03-23T07:35:43.008Z</time></trkpt><trkpt lat="30.079212034869638" lon="-6.686479159911435"><ele>748.0</ele><time>2026-03-23T07:35:44.008Z</time></trkpt><trkpt lat="30.079130535754004" lon="-6.6863866260993206"><ele>748.0</ele><time>2026-03-23T07:35:45.008Z</time></trkpt><trkpt lat="30.07904675410666" lon="-6.68629389715734"><ele>748.0</ele><time>2026-03-23T07:35:46.008Z</time></trkpt><trkpt lat="30.078967515493666" lon="-6.686197171354637"><ele>748.0</ele><time>2026-03-23T07:35:47.008Z</time></trkpt><trkpt lat="30.07888225588877" lon="-6.686103609656325"><ele>748.0</ele><time>2026-03-23T07:35:48.008Z</time></trkpt><trkpt lat="30.07879710434255" lon="-6.686008530928208"><ele>748.0</ele><time>2026-03-23T07:35:49.008Z</time></trkpt><trkpt lat="30.078711751293575" lon="-6.685919731460819"><ele>747.75</ele><time>2026-03-23T07:35:50.008Z</time></trkpt><trkpt lat="30.078625486267825" lon="-6.685832563437836"><ele>747.5</ele><time>2026-03-23T07:35:51.008Z</time></trkpt><trkpt lat="30.078536282519963" lon="-6.685740410048147"><ele>747.25</ele><time>2026-03-23T07:35:52.008Z</time></trkpt><trkpt lat="30.07845696824398" lon="-6.685648859883463"><ele>747.0</ele><time>2026-03-23T07:35:53.008Z</time></trkpt><trkpt lat="30.078366912940353" lon="-6.685558154814168"><ele>747.0</ele><time>2026-03-23T07:35:54.008Z</time></trkpt><trkpt lat="30.078277968246304" lon="-6.685464915757932"><ele>747.0</ele><time>2026-03-23T07:35:55.008Z</time></trkpt><trkpt lat="30.078193108976766" lon="-6.685363515474737"><ele>747.0</ele><time>2026-03-23T07:35:56.008Z</time></trkpt><trkpt lat="30.07810429314109" lon="-6.685263351503413"><ele>747.0</ele><time>2026-03-23T07:35:57.008Z</time></trkpt><trkpt lat="30.0780140637328" lon="-6.685165060122847"><ele>747.25</ele><time>2026-03-23T07:35:58.008Z</time></trkpt><trkpt lat="30.077925706710435" lon="-6.685065283076288"><ele>747.5</ele><time>2026-03-23T07:35:59.008Z</time></trkpt><trkpt lat="30.077839289540712" lon="-6.684968558048476"><ele>747.75</ele><time>2026-03-23T07:36:00.008Z</time></trkpt><trkpt lat="30.07775398084244" lon="-6.6848679809383444"><ele>748.0</ele><time>2026-03-23T07:36:01.007Z</time></trkpt><trkpt lat="30.07766476301164" lon="-6.684763726225783"><ele>748.0</ele><time>2026-03-23T07:36:02.007Z</time></trkpt><trkpt lat="30.077573064104566" lon="-6.684660863110851"><ele>748.0</ele><time>2026-03-23T07:36:03.008Z</time></trkpt><trkpt lat="30.077479734589133" lon="-6.684557649226549"><ele>748.0</ele><time>2026-03-23T07:36:04.007Z</time></trkpt><trkpt lat="30.077384109148124" lon="-6.684453362653817"><ele>748.0</ele><time>2026-03-23T07:36:05.007Z</time></trkpt><trkpt lat="30.077292348200437" lon="-6.6843526722687105"><ele>748.0</ele><time>2026-03-23T07:36:06.008Z</time></trkpt><trkpt lat="30.07720389997804" lon="-6.68424737949927"><ele>748.0</ele><time>2026-03-23T07:36:07.007Z</time></trkpt><trkpt lat="30.07711311196696" lon="-6.684145488164218"><ele>748.0</ele><time>2026-03-23T07:36:08.007Z</time></trkpt><trkpt lat="30.07701406837374" lon="-6.684040442768142"><ele>748.0</ele><time>2026-03-23T07:36:09.007Z</time></trkpt><trkpt lat="30.076915415052973" lon="-6.683937147603901"><ele>748.0</ele><time>2026-03-23T07:36:10.007Z</time></trkpt><trkpt lat="30.07681582390766" lon="-6.683829692310165"><ele>748.0</ele><time>2026-03-23T07:36:11.007Z</time></trkpt><trkpt lat="30.076725699742074" lon="-6.683731872136287"><ele>748.0</ele><time>2026-03-23T07:36:12.007Z</time></trkpt><trkpt lat="30.076644987015904" lon="-6.683639969431247"><ele>748.0</ele><time>2026-03-23T07:36:13.008Z</time></trkpt><trkpt lat="30.07656329979426" lon="-6.683547773933763"><ele>748.0</ele><time>2026-03-23T07:36:14.008Z</time></trkpt><trkpt lat="30.076479997508294" lon="-6.683456564259569"><ele>748.0</ele><time>2026-03-23T07:36:15.008Z</time></trkpt><trkpt lat="30.07639906168463" lon="-6.683367920472915"><ele>748.0</ele><time>2026-03-23T07:36:16.008Z</time></trkpt><trkpt lat="30.076328212064833" lon="-6.683288891857174"><ele>748.0</ele><time>2026-03-23T07:36:17.008Z</time></trkpt><trkpt lat="30.07625891983287" lon="-6.683198543481119"><ele>748.0</ele><time>2026-03-23T07:36:18.008Z</time></trkpt><trkpt lat="30.076180119626674" lon="-6.683108401833362"><ele>748.0</ele><time>2026-03-23T07:36:19.008Z</time></trkpt><trkpt lat="30.076090327161616" lon="-6.683010967626638"><ele>748.0</ele><time>2026-03-23T07:36:20.008Z</time></trkpt><trkpt lat="30.07599964319994" lon="-6.682914258779328"><ele>748.0</ele><time>2026-03-23T07:36:21.008Z</time></trkpt><trkpt lat="30.07591849589011" lon="-6.68283112174563"><ele>748.0</ele><time>2026-03-23T07:36:22.008Z</time></trkpt><trkpt lat="30.07584576462845" lon="-6.682751997556049"><ele>747.75</ele><time>2026-03-23T07:36:23.008Z</time></trkpt><trkpt lat="30.075766624972076" lon="-6.682664694442871"><ele>747.5</ele><time>2026-03-23T07:36:24.008Z</time></trkpt><trkpt lat="30.075688225025367" lon="-6.682566642107162"><ele>747.25</ele><time>2026-03-23T07:36:25.008Z</time></trkpt><trkpt lat="30.07561144860697" lon="-6.682467127422376"><ele>747.0</ele><time>2026-03-23T07:36:26.008Z</time></trkpt><trkpt lat="30.075527095346164" lon="-6.682367701680164"><ele>747.0</ele><time>2026-03-23T07:36:27.008Z</time></trkpt><trkpt lat="30.075440595907537" lon="-6.682274411358612"><ele>747.0</ele><time>2026-03-23T07:36:28.008Z</time></trkpt><trkpt lat="30.075349357072668" lon="-6.682177538655747"><ele>747.0</ele><time>2026-03-23T07:36:29.008Z</time></trkpt><trkpt lat="30.07525633846995" lon="-6.682081187029714"><ele>747.0</ele><time>2026-03-23T07:36:30.008Z</time></trkpt><trkpt lat="30.075170998608254" lon="-6.681995625512434"><ele>747.0</ele><time>2026-03-23T07:36:31.008Z</time></trkpt><trkpt lat="30.075091400225375" lon="-6.681916697419793"><ele>747.0</ele><time>2026-03-23T07:36:32.008Z</time></trkpt><trkpt lat="30.0750218903915" lon="-6.681843047201763"><ele>747.0</ele><time>2026-03-23T07:36:33.008Z</time></trkpt><trkpt lat="30.074963360515568" lon="-6.681777354257266"><ele>747.0</ele><time>2026-03-23T07:36:34.008Z</time></trkpt><trkpt lat="30.0749160060292" lon="-6.6817188850112785"><ele>747.0</ele><time>2026-03-23T07:36:35.008Z</time></trkpt><trkpt lat="30.07482354183556" lon="-6.68162781789894"><ele>747.6</ele><time>2026-03-23T07:36:37.008Z</time></trkpt><trkpt lat="30.07473469884567" lon="-6.681533365222401"><ele>748.2</ele><time>2026-03-23T07:36:39.008Z</time></trkpt><trkpt lat="30.07464815045715" lon="-6.6814630967567386"><ele>748.8</ele><time>2026-03-23T07:36:41.008Z</time></trkpt><trkpt lat="30.074573959071433" lon="-6.681399580751684"><ele>749.4</ele><time>2026-03-23T07:36:43.008Z</time></trkpt><trkpt lat="30.074502344716322" lon="-6.681361802375254"><ele>750.0</ele><time>2026-03-23T07:36:45.008Z</time></trkpt><trkpt lat="30.074439127580877" lon="-6.681296261596218"><ele>750.0</ele><time>2026-03-23T07:36:48.008Z</time></trkpt><trkpt lat="30.074427699456916" lon="-6.681189566733977"><ele>750.0</ele><time>2026-03-23T07:36:50.008Z</time></trkpt><trkpt lat="30.074394827773116" lon="-6.681075511004403"><ele>750.0</ele><time>2026-03-23T07:36:52.008Z</time></trkpt><trkpt lat="30.074340547552932" lon="-6.681037393678834"><ele>750.0</ele><time>2026-03-23T07:36:53.008Z</time></trkpt><trkpt lat="30.074267220373322" lon="-6.680964690329807"><ele>750.0</ele><time>2026-03-23T07:36:54.008Z</time></trkpt><trkpt lat="30.074181790857228" lon="-6.68086774622871"><ele>750.0</ele><time>2026-03-23T07:36:55.008Z</time></trkpt><trkpt lat="30.074091051789352" lon="-6.68078690738305"><ele>750.0</ele><time>2026-03-23T07:36:56.008Z</time></trkpt><trkpt lat="30.07398961218885" lon="-6.680673345430331"><ele>750.0</ele><time>2026-03-23T07:36:57.008Z</time></trkpt><trkpt lat="30.07390316585539" lon="-6.680536956364412"><ele>750.0</ele><time>2026-03-23T07:36:58.008Z</time></trkpt><trkpt lat="30.073814015456808" lon="-6.6804235063296185"><ele>750.0</ele><time>2026-03-23T07:36:59.008Z</time></trkpt><trkpt lat="30.073721279815793" lon="-6.6803403761596885"><ele>750.0</ele><time>2026-03-23T07:37:00.008Z</time></trkpt><trkpt lat="30.073643016728283" lon="-6.680283059949221"><ele>750.0</ele><time>2026-03-23T07:37:01.008Z</time></trkpt><trkpt lat="30.073558274722696" lon="-6.680210975406999"><ele>750.0</ele><time>2026-03-23T07:37:02.008Z</time></trkpt><trkpt lat="30.0734891416857" lon="-6.680117598512456"><ele>750.0</ele><time>2026-03-23T07:37:03.008Z</time></trkpt><trkpt lat="30.073421612065665" lon="-6.68002295805293"><ele>750.0</ele><time>2026-03-23T07:37:04.008Z</time></trkpt><trkpt lat="30.073353258064444" lon="-6.679930739023019"><ele>750.0</ele><time>2026-03-23T07:37:05.008Z</time></trkpt><trkpt lat="30.07327603581231" lon="-6.679838879988682"><ele>750.0</ele><time>2026-03-23T07:37:06.008Z</time></trkpt><trkpt lat="30.073198084848965" lon="-6.679756272379423"><ele>750.0</ele><time>2026-03-23T07:37:07.008Z</time></trkpt><trkpt lat="30.073114660295552" lon="-6.679668289320369"><ele>750.0</ele><time>2026-03-23T07:37:08.008Z</time></trkpt><trkpt lat="30.07303186278053" lon="-6.679580559256521"><ele>749.8</ele><time>2026-03-23T07:37:09.008Z</time></trkpt><trkpt lat="30.07295138454267" lon="-6.679498903052676"><ele>749.6</ele><time>2026-03-23T07:37:10.008Z</time></trkpt><trkpt lat="30.072881082005342" lon="-6.679421065523656"><ele>749.4000000000001</ele><time>2026-03-23T07:37:11.008Z</time></trkpt><trkpt lat="30.07282102809904" lon="-6.6793481757392215"><ele>749.2</ele><time>2026-03-23T07:37:12.008Z</time></trkpt><trkpt lat="30.072769674443116" lon="-6.679275570408579"><ele>749.0</ele><time>2026-03-23T07:37:13.008Z</time></trkpt><trkpt lat="30.072715995921047" lon="-6.679209443450652"><ele>749.0</ele><time>2026-03-23T07:37:14.008Z</time></trkpt><trkpt lat="30.07265522095565" lon="-6.679153135184816"><ele>749.0</ele><time>2026-03-23T07:37:15.008Z</time></trkpt><trkpt lat="30.072582131659704" lon="-6.679092328817685"><ele>749.0</ele><time>2026-03-23T07:37:16.008Z</time></trkpt><trkpt lat="30.072499199926895" lon="-6.67902818135746"><ele>749.0</ele><time>2026-03-23T07:37:17.008Z</time></trkpt><trkpt lat="30.072421959445716" lon="-6.678949908752461"><ele>749.0</ele><time>2026-03-23T07:37:18.008Z</time></trkpt><trkpt lat="30.072351521871685" lon="-6.678844733990572"><ele>749.25</ele><time>2026-03-23T07:37:19.008Z</time></trkpt><trkpt lat="30.07227728451664" lon="-6.678751524998178"><ele>749.5</ele><time>2026-03-23T07:37:20.008Z</time></trkpt><trkpt lat="30.0721978664068" lon="-6.678642117559818"><ele>749.75</ele><time>2026-03-23T07:37:21.008Z</time></trkpt><trkpt lat="30.07211959811507" lon="-6.678549501951074"><ele>750.0</ele><time>2026-03-23T07:37:22.008Z</time></trkpt><trkpt lat="30.07203105913418" lon="-6.678463177285235"><ele>750.0</ele><time>2026-03-23T07:37:23.008Z</time></trkpt><trkpt lat="30.071945613282022" lon="-6.678388134668091"><ele>750.0</ele><time>2026-03-23T07:37:24.008Z</time></trkpt><trkpt lat="30.071855613429687" lon="-6.678301138407533"><ele>750.0</ele><time>2026-03-23T07:37:25.008Z</time></trkpt><trkpt lat="30.071767297173263" lon="-6.678211839097335"><ele>750.0</ele><time>2026-03-23T07:37:26.008Z</time></trkpt><trkpt lat="30.071678965543235" lon="-6.678113468156622"><ele>749.75</ele><time>2026-03-23T07:37:27.008Z</time></trkpt><trkpt lat="30.07158374655468" lon="-6.677993652968353"><ele>749.5</ele><time>2026-03-23T07:37:28.008Z</time></trkpt><trkpt lat="30.071485976958858" lon="-6.677873984187985"><ele>749.25</ele><time>2026-03-23T07:37:29.008Z</time></trkpt><trkpt lat="30.07139953854542" lon="-6.677752570538232"><ele>749.0</ele><time>2026-03-23T07:37:30.008Z</time></trkpt><trkpt lat="30.07130276637258" lon="-6.677654156475986"><ele>748.75</ele><time>2026-03-23T07:37:31.008Z</time></trkpt><trkpt lat="30.071200673575724" lon="-6.677561112383799"><ele>748.5</ele><time>2026-03-23T07:37:32.008Z</time></trkpt><trkpt lat="30.071106863678203" lon="-6.677469965473072"><ele>748.25</ele><time>2026-03-23T07:37:33.008Z</time></trkpt><trkpt lat="30.071019212548954" lon="-6.677376631345941"><ele>748.0</ele><time>2026-03-23T07:37:34.008Z</time></trkpt><trkpt lat="30.070945017857156" lon="-6.677285374958035"><ele>748.0</ele><time>2026-03-23T07:37:35.008Z</time></trkpt><trkpt lat="30.07087339261754" lon="-6.677202874407512"><ele>748.0</ele><time>2026-03-23T07:37:36.008Z</time></trkpt><trkpt lat="30.070798831177108" lon="-6.677114004378078"><ele>748.0</ele><time>2026-03-23T07:37:37.008Z</time></trkpt><trkpt lat="30.07071935307997" lon="-6.67703024922923"><ele>748.0</ele><time>2026-03-23T07:37:38.008Z</time></trkpt><trkpt lat="30.07064443635846" lon="-6.676946663757564"><ele>748.0</ele><time>2026-03-23T07:37:39.008Z</time></trkpt><trkpt lat="30.070571342922914" lon="-6.676864355451255"><ele>748.2</ele><time>2026-03-23T07:37:40.008Z</time></trkpt><trkpt lat="30.070490155770905" lon="-6.6767790669645155"><ele>748.4</ele><time>2026-03-23T07:37:41.008Z</time></trkpt><trkpt lat="30.07041001072218" lon="-6.6766939209055405"><ele>748.6</ele><time>2026-03-23T07:37:42.008Z</time></trkpt><trkpt lat="30.070329545779998" lon="-6.676608825838219"><ele>748.8000000000001</ele><time>2026-03-23T07:37:43.008Z</time></trkpt><trkpt lat="30.07024906737775" lon="-6.676518610131511"><ele>749.0</ele><time>2026-03-23T07:37:44.008Z</time></trkpt><trkpt lat="30.070175611417522" lon="-6.676427388401655"><ele>749.0</ele><time>2026-03-23T07:37:45.008Z</time></trkpt><trkpt lat="30.07009350192484" lon="-6.676334275540958"><ele>749.0</ele><time>2026-03-23T07:37:46.008Z</time></trkpt><trkpt lat="30.0700179052476" lon="-6.6762424323781255"><ele>749.0</ele><time>2026-03-23T07:37:47.008Z</time></trkpt><trkpt lat="30.069938101991696" lon="-6.676154647731079"><ele>749.0</ele><time>2026-03-23T07:37:48.008Z</time></trkpt><trkpt lat="30.069858623202474" lon="-6.676068249109187"><ele>749.0</ele><time>2026-03-23T07:37:49.008Z</time></trkpt><trkpt lat="30.069780494850416" lon="-6.675982826660873"><ele>749.4000000000001</ele><time>2026-03-23T07:37:50.008Z</time></trkpt><trkpt lat="30.069703076079346" lon="-6.675897652487843"><ele>749.8</ele><time>2026-03-23T07:37:51.008Z</time></trkpt><trkpt lat="30.069627399221112" lon="-6.675812362607055"><ele>750.2</ele><time>2026-03-23T07:37:52.008Z</time></trkpt><trkpt lat="30.069546164023482" lon="-6.6757209109359605"><ele>750.5999999999999</ele><time>2026-03-23T07:37:53.008Z</time></trkpt><trkpt lat="30.0694698215738" lon="-6.675634186390948"><ele>751.0</ele><time>2026-03-23T07:37:54.008Z</time></trkpt><trkpt lat="30.06939359018403" lon="-6.675542590966965"><ele>751.0</ele><time>2026-03-23T07:37:55.008Z</time></trkpt><trkpt lat="30.069314329048428" lon="-6.675452298756539"><ele>751.0</ele><time>2026-03-23T07:37:56.008Z</time></trkpt><trkpt lat="30.06922856147053" lon="-6.675361158741887"><ele>751.0</ele><time>2026-03-23T07:37:57.008Z</time></trkpt><trkpt lat="30.06914689993546" lon="-6.675269305092002"><ele>751.0</ele><time>2026-03-23T07:37:58.008Z</time></trkpt><trkpt lat="30.06906066165696" lon="-6.675173495842451"><ele>750.75</ele><time>2026-03-23T07:37:59.008Z</time></trkpt><trkpt lat="30.068975795297053" lon="-6.67508061992857"><ele>750.5</ele><time>2026-03-23T07:38:00.008Z</time></trkpt><trkpt lat="30.068883442310234" lon="-6.674979331990184"><ele>750.25</ele><time>2026-03-23T07:38:01.008Z</time></trkpt><trkpt lat="30.068795658798702" lon="-6.67488512125295"><ele>750.0</ele><time>2026-03-23T07:38:02.008Z</time></trkpt><trkpt lat="30.06870863055805" lon="-6.674790258170538"><ele>750.0</ele><time>2026-03-23T07:38:03.008Z</time></trkpt><trkpt lat="30.06861491702051" lon="-6.674687822252286"><ele>750.0</ele><time>2026-03-23T07:38:04.008Z</time></trkpt><trkpt lat="30.06853019609481" lon="-6.674595106812823"><ele>750.0</ele><time>2026-03-23T07:38:05.008Z</time></trkpt><trkpt lat="30.06843572361231" lon="-6.674497865672811"><ele>750.0</ele><time>2026-03-23T07:38:06.008Z</time></trkpt><trkpt lat="30.068349436781553" lon="-6.674403464110348"><ele>750.0</ele><time>2026-03-23T07:38:07.008Z</time></trkpt><trkpt lat="30.068262090801397" lon="-6.674308892647881"><ele>750.0</ele><time>2026-03-23T07:38:08.008Z</time></trkpt><trkpt lat="30.068183530353647" lon="-6.674209913323744"><ele>750.0</ele><time>2026-03-23T07:38:09.008Z</time></trkpt><trkpt lat="30.068105892629013" lon="-6.674110171441417"><ele>750.0</ele><time>2026-03-23T07:38:10.008Z</time></trkpt><trkpt lat="30.068024597149076" lon="-6.674012674627833"><ele>750.0</ele><time>2026-03-23T07:38:11.008Z</time></trkpt><trkpt lat="30.067949692312045" lon="-6.673902107151588"><ele>750.0</ele><time>2026-03-23T07:38:12.008Z</time></trkpt><trkpt lat="30.067843416324404" lon="-6.673779634570479"><ele>750.0</ele><time>2026-03-23T07:38:13.008Z</time></trkpt><trkpt lat="30.067729503166717" lon="-6.673672676391758"><ele>750.0</ele><time>2026-03-23T07:38:14.008Z</time></trkpt><trkpt lat="30.06762889757134" lon="-6.673593576722499"><ele>749.8</ele><time>2026-03-23T07:38:15.008Z</time></trkpt><trkpt lat="30.06751808043427" lon="-6.673550230071976"><ele>749.6</ele><time>2026-03-23T07:38:16.008Z</time></trkpt><trkpt lat="30.067450106019265" lon="-6.67347415956442"><ele>749.4000000000001</ele><time>2026-03-23T07:38:17.008Z</time></trkpt><trkpt lat="30.067379109626263" lon="-6.6733759243381465"><ele>749.2</ele><time>2026-03-23T07:38:18.008Z</time></trkpt><trkpt lat="30.067308619750793" lon="-6.673315424061523"><ele>749.0</ele><time>2026-03-23T07:38:19.009Z</time></trkpt><trkpt lat="30.067245496053836" lon="-6.673244557465404"><ele>749.6</ele><time>2026-03-23T07:38:20.009Z</time></trkpt><trkpt lat="30.067189028186608" lon="-6.6731307483618165"><ele>750.2</ele><time>2026-03-23T07:38:21.009Z</time></trkpt><trkpt lat="30.067105043021776" lon="-6.673039603767202"><ele>750.8000000000001</ele><time>2026-03-23T07:38:22.009Z</time></trkpt><trkpt lat="30.067014624920528" lon="-6.672964080824276"><ele>751.4000000000001</ele><time>2026-03-23T07:38:23.009Z</time></trkpt><trkpt lat="30.066937627762922" lon="-6.672888174489594"><ele>752.0</ele><time>2026-03-23T07:38:24.009Z</time></trkpt><trkpt lat="30.066853632978425" lon="-6.672796415430059"><ele>752.0</ele><time>2026-03-23T07:38:25.009Z</time></trkpt><trkpt lat="30.066784036076612" lon="-6.672703169268377"><ele>752.0</ele><time>2026-03-23T07:38:26.009Z</time></trkpt><trkpt lat="30.066728336244825" lon="-6.672616032899344"><ele>752.0</ele><time>2026-03-23T07:38:27.009Z</time></trkpt><trkpt lat="30.066659552524413" lon="-6.672532463058759"><ele>752.0</ele><time>2026-03-23T07:38:28.009Z</time></trkpt><trkpt lat="30.066578425348116" lon="-6.67244907640959"><ele>752.0</ele><time>2026-03-23T07:38:29.009Z</time></trkpt><trkpt lat="30.06649649814322" lon="-6.672365368915453"><ele>752.0</ele><time>2026-03-23T07:38:30.009Z</time></trkpt><trkpt lat="30.066409316282773" lon="-6.67227998103368"><ele>752.0</ele><time>2026-03-23T07:38:31.009Z</time></trkpt><trkpt lat="30.06633072137085" lon="-6.672197652218322"><ele>752.0</ele><time>2026-03-23T07:38:32.009Z</time></trkpt><trkpt lat="30.06625324473354" lon="-6.67210528876555"><ele>752.0</ele><time>2026-03-23T07:38:33.009Z</time></trkpt><trkpt lat="30.066186764906025" lon="-6.672015268884551"><ele>752.0</ele><time>2026-03-23T07:38:34.009Z</time></trkpt><trkpt lat="30.06611341031418" lon="-6.671915148734298"><ele>752.0</ele><time>2026-03-23T07:38:35.009Z</time></trkpt><trkpt lat="30.0660344430737" lon="-6.671814136877094"><ele>752.0</ele><time>2026-03-23T07:38:36.009Z</time></trkpt><trkpt lat="30.06595387808493" lon="-6.671723580925365"><ele>752.0</ele><time>2026-03-23T07:38:37.009Z</time></trkpt><trkpt lat="30.06586848952164" lon="-6.67163219541233"><ele>752.0</ele><time>2026-03-23T07:38:38.009Z</time></trkpt><trkpt lat="30.06578080442723" lon="-6.671537225061226"><ele>752.0</ele><time>2026-03-23T07:38:39.009Z</time></trkpt><trkpt lat="30.065692182201275" lon="-6.671443022341225"><ele>752.0</ele><time>2026-03-23T07:38:40.009Z</time></trkpt><trkpt lat="30.06558215875797" lon="-6.671375564168778"><ele>752.0</ele><time>2026-03-23T07:38:41.009Z</time></trkpt><trkpt lat="30.065492710102127" lon="-6.671275188267564"><ele>752.0</ele><time>2026-03-23T07:38:42.009Z</time></trkpt><trkpt lat="30.065399264638557" lon="-6.671170327329199"><ele>752.0</ele><time>2026-03-23T07:38:43.009Z</time></trkpt><trkpt lat="30.065314059103677" lon="-6.671052886943621"><ele>752.0</ele><time>2026-03-23T07:38:44.009Z</time></trkpt><trkpt lat="30.06521623617726" lon="-6.670964933530155"><ele>752.0</ele><time>2026-03-23T07:38:45.009Z</time></trkpt><trkpt lat="30.06512365368598" lon="-6.670861027696274"><ele>752.0</ele><time>2026-03-23T07:38:46.009Z</time></trkpt><trkpt lat="30.06502779428767" lon="-6.670753095224301"><ele>752.0</ele><time>2026-03-23T07:38:47.009Z</time></trkpt><trkpt lat="30.064933540333733" lon="-6.670646913400802"><ele>752.0</ele><time>2026-03-23T07:38:48.009Z</time></trkpt><trkpt lat="30.06484786164317" lon="-6.670534644718114"><ele>752.0</ele><time>2026-03-23T07:38:49.009Z</time></trkpt><trkpt lat="30.06476092063847" lon="-6.670438537930699"><ele>752.0</ele><time>2026-03-23T07:38:50.009Z</time></trkpt><trkpt lat="30.0646809869465" lon="-6.670344711842577"><ele>752.0</ele><time>2026-03-23T07:38:51.009Z</time></trkpt><trkpt lat="30.06460111609887" lon="-6.670254072024794"><ele>752.0</ele><time>2026-03-23T07:38:52.009Z</time></trkpt><trkpt lat="30.064524602652575" lon="-6.670161371286783"><ele>752.0</ele><time>2026-03-23T07:38:53.009Z</time></trkpt><trkpt lat="30.064430400023202" lon="-6.670080921489386"><ele>752.0</ele><time>2026-03-23T07:38:54.009Z</time></trkpt><trkpt lat="30.06435074986643" lon="-6.6699431690967765"><ele>752.0</ele><time>2026-03-23T07:38:55.009Z</time></trkpt><trkpt lat="30.064244589675837" lon="-6.66982554257475"><ele>752.0</ele><time>2026-03-23T07:38:56.009Z</time></trkpt><trkpt lat="30.06413114540674" lon="-6.669710377520992"><ele>752.0</ele><time>2026-03-23T07:38:57.009Z</time></trkpt><trkpt lat="30.064015707559367" lon="-6.669575262389071"><ele>752.3333333333333</ele><time>2026-03-23T07:38:58.009Z</time></trkpt><trkpt lat="30.06388563410891" lon="-6.669426273220197"><ele>752.6666666666666</ele><time>2026-03-23T07:38:59.009Z</time></trkpt><trkpt lat="30.063755629976384" lon="-6.669282218747952"><ele>753.0</ele><time>2026-03-23T07:39:00.009Z</time></trkpt><trkpt lat="30.063633380314734" lon="-6.669157993734861"><ele>753.0</ele><time>2026-03-23T07:39:01.009Z</time></trkpt><trkpt lat="30.063541458394397" lon="-6.669047291264926"><ele>753.0</ele><time>2026-03-23T07:39:02.009Z</time></trkpt><trkpt lat="30.063452962890576" lon="-6.668944580123695"><ele>753.0</ele><time>2026-03-23T07:39:03.009Z</time></trkpt><trkpt lat="30.063366012108947" lon="-6.668845469517447"><ele>753.0</ele><time>2026-03-23T07:39:04.009Z</time></trkpt><trkpt lat="30.063276627168243" lon="-6.668746466834094"><ele>753.0</ele><time>2026-03-23T07:39:05.009Z</time></trkpt><trkpt lat="30.06319229103734" lon="-6.668658086637704"><ele>753.0</ele><time>2026-03-23T07:39:06.009Z</time></trkpt><trkpt lat="30.063114356423146" lon="-6.6685743982924865"><ele>753.0</ele><time>2026-03-23T07:39:07.009Z</time></trkpt><trkpt lat="30.06303762193993" lon="-6.668489457343854"><ele>753.0</ele><time>2026-03-23T07:39:08.009Z</time></trkpt><trkpt lat="30.062955776453133" lon="-6.668396236490277"><ele>753.0</ele><time>2026-03-23T07:39:09.009Z</time></trkpt><trkpt lat="30.06287609605293" lon="-6.668301275479682"><ele>752.4</ele><time>2026-03-23T07:39:10.009Z</time></trkpt><trkpt lat="30.06279214787451" lon="-6.668213747772784"><ele>751.8</ele><time>2026-03-23T07:39:11.009Z</time></trkpt><trkpt lat="30.062704256014346" lon="-6.668129111965444"><ele>751.2</ele><time>2026-03-23T07:39:12.009Z</time></trkpt><trkpt lat="30.062616971925802" lon="-6.668039380351392"><ele>750.6</ele><time>2026-03-23T07:39:13.009Z</time></trkpt><trkpt lat="30.062545265380063" lon="-6.667954241584909"><ele>750.0</ele><time>2026-03-23T07:39:14.009Z</time></trkpt><trkpt lat="30.062496772803662" lon="-6.6678852118347125"><ele>750.1666666666666</ele><time>2026-03-23T07:39:15.009Z</time></trkpt><trkpt lat="30.062410834038882" lon="-6.667835430176662"><ele>750.3333333333334</ele><time>2026-03-23T07:39:17.009Z</time></trkpt><trkpt lat="30.0623317540465" lon="-6.6678198976091645"><ele>750.5</ele><time>2026-03-23T07:39:19.009Z</time></trkpt><trkpt lat="30.062291937485682" lon="-6.667745479899773"><ele>750.6666666666667</ele><time>2026-03-23T07:39:21.009Z</time></trkpt><trkpt lat="30.062267860026115" lon="-6.667630339798409"><ele>750.8333333333334</ele><time>2026-03-23T07:39:23.009Z</time></trkpt><trkpt lat="30.062240262853344" lon="-6.667561720331093"><ele>751.0</ele><time>2026-03-23T07:39:24.009Z</time></trkpt><trkpt lat="30.06218840930562" lon="-6.667502647660919"><ele>751.0</ele><time>2026-03-23T07:39:25.009Z</time></trkpt><trkpt lat="30.062104150929613" lon="-6.667440065221546"><ele>751.0</ele><time>2026-03-23T07:39:26.009Z</time></trkpt><trkpt lat="30.06203772058822" lon="-6.667380102364965"><ele>751.0</ele><time>2026-03-23T07:39:27.009Z</time></trkpt><trkpt lat="30.061979990873112" lon="-6.6673147742430565"><ele>751.0</ele><time>2026-03-23T07:39:28.009Z</time></trkpt><trkpt lat="30.061931682791982" lon="-6.667265263541824"><ele>751.0</ele><time>2026-03-23T07:39:29.009Z</time></trkpt><trkpt lat="30.061874509690306" lon="-6.6671946196498615"><ele>751.0</ele><time>2026-03-23T07:39:30.009Z</time></trkpt><trkpt lat="30.06179733308409" lon="-6.667114206179536"><ele>751.0</ele><time>2026-03-23T07:39:31.009Z</time></trkpt><trkpt lat="30.061722510423905" lon="-6.667029452790488"><ele>751.0</ele><time>2026-03-23T07:39:32.009Z</time></trkpt><trkpt lat="30.06164661993898" lon="-6.666943454334432"><ele>751.0</ele><time>2026-03-23T07:39:33.009Z</time></trkpt><trkpt lat="30.061574630218136" lon="-6.666850806319927"><ele>751.0</ele><time>2026-03-23T07:39:34.009Z</time></trkpt><trkpt lat="30.061502264615015" lon="-6.666771439250386"><ele>751.0</ele><time>2026-03-23T07:39:35.009Z</time></trkpt><trkpt lat="30.061417981243338" lon="-6.666694725388452"><ele>751.8</ele><time>2026-03-23T07:39:36.009Z</time></trkpt><trkpt lat="30.06133860053442" lon="-6.666604479655143"><ele>752.5999999999999</ele><time>2026-03-23T07:39:37.009Z</time></trkpt><trkpt lat="30.06127391809748" lon="-6.6665186551214495"><ele>753.4</ele><time>2026-03-23T07:39:38.009Z</time></trkpt><trkpt lat="30.06119936342903" lon="-6.666430273761532"><ele>754.2</ele><time>2026-03-23T07:39:39.009Z</time></trkpt><trkpt lat="30.061140036390327" lon="-6.666333056952388"><ele>755.0</ele><time>2026-03-23T07:39:40.009Z</time></trkpt><trkpt lat="30.06106678692114" lon="-6.666234874820196"><ele>755.0</ele><time>2026-03-23T07:39:41.009Z</time></trkpt><trkpt lat="30.060985951787313" lon="-6.666135892835005"><ele>755.0</ele><time>2026-03-23T07:39:42.009Z</time></trkpt><trkpt lat="30.0608923821633" lon="-6.666049181759233"><ele>755.0</ele><time>2026-03-23T07:39:43.009Z</time></trkpt><trkpt lat="30.060789406843334" lon="-6.665966101012777"><ele>755.0</ele><time>2026-03-23T07:39:44.009Z</time></trkpt><trkpt lat="30.06068723361413" lon="-6.665866630578714"><ele>755.0</ele><time>2026-03-23T07:39:45.009Z</time></trkpt><trkpt lat="30.06059305723252" lon="-6.665755696122487"><ele>755.0</ele><time>2026-03-23T07:39:46.009Z</time></trkpt><trkpt lat="30.06049176441929" lon="-6.665618353856865"><ele>755.0</ele><time>2026-03-23T07:39:47.009Z</time></trkpt><trkpt lat="30.06034988608125" lon="-6.665456108184357"><ele>755.0</ele><time>2026-03-23T07:39:48.009Z</time></trkpt><trkpt lat="30.060213459877474" lon="-6.665321284431042"><ele>755.0</ele><time>2026-03-23T07:39:49.009Z</time></trkpt><trkpt lat="30.060118639073842" lon="-6.665227636597583"><ele>755.0</ele><time>2026-03-23T07:39:50.009Z</time></trkpt><trkpt lat="30.060024355030084" lon="-6.665128618124417"><ele>755.0</ele><time>2026-03-23T07:39:51.009Z</time></trkpt><trkpt lat="30.05994693159333" lon="-6.665037606929719"><ele>755.0</ele><time>2026-03-23T07:39:52.009Z</time></trkpt><trkpt lat="30.05986779375461" lon="-6.664948566193651"><ele>755.0</ele><time>2026-03-23T07:39:53.009Z</time></trkpt><trkpt lat="30.05979625430434" lon="-6.664853984025765"><ele>755.0</ele><time>2026-03-23T07:39:54.009Z</time></trkpt><trkpt lat="30.059721127411986" lon="-6.664751006766001"><ele>755.0</ele><time>2026-03-23T07:39:55.009Z</time></trkpt><trkpt lat="30.0596296723122" lon="-6.66464586154361"><ele>755.0</ele><time>2026-03-23T07:39:56.009Z</time></trkpt><trkpt lat="30.05952278288189" lon="-6.6645414175133855"><ele>755.0</ele><time>2026-03-23T07:39:57.009Z</time></trkpt><trkpt lat="30.059411967898594" lon="-6.664434886216436"><ele>755.0</ele><time>2026-03-23T07:39:58.009Z</time></trkpt><trkpt lat="30.059317027297762" lon="-6.664336781718784"><ele>755.0</ele><time>2026-03-23T07:39:59.009Z</time></trkpt><trkpt lat="30.059226932239152" lon="-6.664237198662146"><ele>754.75</ele><time>2026-03-23T07:40:00.009Z</time></trkpt><trkpt lat="30.05914301480892" lon="-6.664137631177536"><ele>754.5</ele><time>2026-03-23T07:40:01.009Z</time></trkpt><trkpt lat="30.05906114214817" lon="-6.664044202787207"><ele>754.25</ele><time>2026-03-23T07:40:02.009Z</time></trkpt><trkpt lat="30.05897844572846" lon="-6.663943445401454"><ele>754.0</ele><time>2026-03-23T07:40:03.009Z</time></trkpt><trkpt lat="30.058897254860884" lon="-6.663841589579229"><ele>754.5</ele><time>2026-03-23T07:40:04.009Z</time></trkpt><trkpt lat="30.058817420400615" lon="-6.663752183484642"><ele>755.0</ele><time>2026-03-23T07:40:05.009Z</time></trkpt><trkpt lat="30.058727038420965" lon="-6.66366385779166"><ele>755.5</ele><time>2026-03-23T07:40:06.009Z</time></trkpt><trkpt lat="30.058649241279507" lon="-6.663571154093553"><ele>756.0</ele><time>2026-03-23T07:40:07.009Z</time></trkpt><trkpt lat="30.058583994013205" lon="-6.663455861004815"><ele>756.0</ele><time>2026-03-23T07:40:08.009Z</time></trkpt><trkpt lat="30.058517802610496" lon="-6.663347798094087"><ele>756.0</ele><time>2026-03-23T07:40:09.009Z</time></trkpt><trkpt lat="30.05842543305879" lon="-6.663265024597836"><ele>756.0</ele><time>2026-03-23T07:40:10.009Z</time></trkpt><trkpt lat="30.05831728097532" lon="-6.663189175891295"><ele>756.0</ele><time>2026-03-23T07:40:11.009Z</time></trkpt><trkpt lat="30.05822021282791" lon="-6.663095142322906"><ele>756.0</ele><time>2026-03-23T07:40:12.008Z</time></trkpt><trkpt lat="30.05813047412049" lon="-6.66298905757562"><ele>756.0</ele><time>2026-03-23T07:40:13.008Z</time></trkpt><trkpt lat="30.05804685884996" lon="-6.662889939994155"><ele>756.0</ele><time>2026-03-23T07:40:14.008Z</time></trkpt><trkpt lat="30.057984337325347" lon="-6.662813412311399"><ele>756.0</ele><time>2026-03-23T07:40:15.009Z</time></trkpt><trkpt lat="30.057920008057085" lon="-6.662746692939217"><ele>756.0</ele><time>2026-03-23T07:40:16.008Z</time></trkpt><trkpt lat="30.05784835080174" lon="-6.662678755795127"><ele>756.0</ele><time>2026-03-23T07:40:17.008Z</time></trkpt><trkpt lat="30.057781891926737" lon="-6.662602987137063"><ele>756.0</ele><time>2026-03-23T07:40:18.008Z</time></trkpt><trkpt lat="30.057712549381552" lon="-6.662528315221055"><ele>756.0</ele><time>2026-03-23T07:40:19.008Z</time></trkpt><trkpt lat="30.057640424105422" lon="-6.662458345347508"><ele>756.0</ele><time>2026-03-23T07:40:20.008Z</time></trkpt><trkpt lat="30.05757573592204" lon="-6.662382790355425"><ele>756.0</ele><time>2026-03-23T07:40:21.008Z</time></trkpt><trkpt lat="30.057502574178745" lon="-6.662311779087421"><ele>756.1999999999999</ele><time>2026-03-23T07:40:22.008Z</time></trkpt><trkpt lat="30.057429671447686" lon="-6.662238953899318"><ele>756.4</ele><time>2026-03-23T07:40:23.008Z</time></trkpt><trkpt lat="30.057362106338807" lon="-6.662158455405276"><ele>756.6</ele><time>2026-03-23T07:40:24.008Z</time></trkpt><trkpt lat="30.057281313430074" lon="-6.662060957841013"><ele>756.8</ele><time>2026-03-23T07:40:25.009Z</time></trkpt><trkpt lat="30.05720086347584" lon="-6.661967481857492"><ele>757.0</ele><time>2026-03-23T07:40:26.009Z</time></trkpt><trkpt lat="30.057119500526017" lon="-6.661870968309753"><ele>757.0</ele><time>2026-03-23T07:40:27.009Z</time></trkpt><trkpt lat="30.057034486553942" lon="-6.661774811579154"><ele>757.0</ele><time>2026-03-23T07:40:28.009Z</time></trkpt><trkpt lat="30.056955314215465" lon="-6.661687879199992"><ele>757.0</ele><time>2026-03-23T07:40:29.009Z</time></trkpt><trkpt lat="30.0568738174684" lon="-6.661600524492185"><ele>757.0</ele><time>2026-03-23T07:40:30.009Z</time></trkpt><trkpt lat="30.05679470868858" lon="-6.661515275497484"><ele>757.0</ele><time>2026-03-23T07:40:31.009Z</time></trkpt><trkpt lat="30.05672000088258" lon="-6.661430106521798"><ele>757.0</ele><time>2026-03-23T07:40:32.009Z</time></trkpt><trkpt lat="30.05664470456632" lon="-6.66134926643798"><ele>757.0</ele><time>2026-03-23T07:40:33.009Z</time></trkpt><trkpt lat="30.056571786770025" lon="-6.661265738750601"><ele>757.0</ele><time>2026-03-23T07:40:34.009Z</time></trkpt><trkpt lat="30.056496810468392" lon="-6.66117443102179"><ele>757.0</ele><time>2026-03-23T07:40:35.009Z</time></trkpt><trkpt lat="30.05642064065569" lon="-6.661082508586201"><ele>757.0</ele><time>2026-03-23T07:40:36.009Z</time></trkpt><trkpt lat="30.056332652602435" lon="-6.660994055019727"><ele>757.0</ele><time>2026-03-23T07:40:37.009Z</time></trkpt><trkpt lat="30.056195477981905" lon="-6.660980703848398"><ele>757.0</ele><time>2026-03-23T07:40:38.009Z</time></trkpt><trkpt lat="30.056105512064274" lon="-6.660909252908401"><ele>757.0</ele><time>2026-03-23T07:40:39.009Z</time></trkpt><trkpt lat="30.056019491016208" lon="-6.660840934707084"><ele>757.0</ele><time>2026-03-23T07:40:40.009Z</time></trkpt><trkpt lat="30.055929307760866" lon="-6.660769747740403"><ele>757.0</ele><time>2026-03-23T07:40:41.009Z</time></trkpt><trkpt lat="30.055845063179277" lon="-6.660711198084242"><ele>757.0</ele><time>2026-03-23T07:40:42.009Z</time></trkpt><trkpt lat="30.05574412406442" lon="-6.6606434240143315"><ele>757.0</ele><time>2026-03-23T07:40:43.009Z</time></trkpt><trkpt lat="30.055639133046817" lon="-6.660574872017912"><ele>757.0</ele><time>2026-03-23T07:40:44.009Z</time></trkpt><trkpt lat="30.05550218318055" lon="-6.660515947252027"><ele>757.75</ele><time>2026-03-23T07:40:45.009Z</time></trkpt><trkpt lat="30.055385860583755" lon="-6.660484234799347"><ele>758.5</ele><time>2026-03-23T07:40:46.009Z</time></trkpt><trkpt lat="30.055265172608987" lon="-6.660478282852979"><ele>759.25</ele><time>2026-03-23T07:40:47.009Z</time></trkpt><trkpt lat="30.055134599320052" lon="-6.660491476420013"><ele>760.0</ele><time>2026-03-23T07:40:48.009Z</time></trkpt><trkpt lat="30.05500871963682" lon="-6.6605184828547355"><ele>760.25</ele><time>2026-03-23T07:40:49.009Z</time></trkpt><trkpt lat="30.05489710113973" lon="-6.660518482854871"><ele>760.5</ele><time>2026-03-23T07:40:50.009Z</time></trkpt><trkpt lat="30.054780785663116" lon="-6.660480625191364"><ele>760.75</ele><time>2026-03-23T07:40:51.009Z</time></trkpt><trkpt lat="30.054663394796872" lon="-6.660441727412551"><ele>761.0</ele><time>2026-03-23T07:40:52.009Z</time></trkpt><trkpt lat="30.054523690540314" lon="-6.660378919723686"><ele>761.0</ele><time>2026-03-23T07:40:53.009Z</time></trkpt><trkpt lat="30.05437118362968" lon="-6.6603155878461235"><ele>761.0</ele><time>2026-03-23T07:40:54.009Z</time></trkpt><trkpt lat="30.054232587811637" lon="-6.6602536308660065"><ele>761.0</ele><time>2026-03-23T07:40:55.009Z</time></trkpt><trkpt lat="30.054101718380252" lon="-6.66019940212566"><ele>760.5</ele><time>2026-03-23T07:40:56.009Z</time></trkpt><trkpt lat="30.053971040308948" lon="-6.660154988412625"><ele>760.0</ele><time>2026-03-23T07:40:57.009Z</time></trkpt><trkpt lat="30.053845962835187" lon="-6.660082593581936"><ele>759.5</ele><time>2026-03-23T07:40:58.009Z</time></trkpt><trkpt lat="30.053727170302615" lon="-6.6600185284988385"><ele>759.0</ele><time>2026-03-23T07:40:59.009Z</time></trkpt><trkpt lat="30.053615843870194" lon="-6.65994900219291"><ele>759.0</ele><time>2026-03-23T07:41:00.009Z</time></trkpt><trkpt lat="30.053507928042315" lon="-6.659878716271037"><ele>759.0</ele><time>2026-03-23T07:41:01.009Z</time></trkpt><trkpt lat="30.053395934197244" lon="-6.6598072302887985"><ele>759.0</ele><time>2026-03-23T07:41:02.009Z</time></trkpt><trkpt lat="30.053285072990754" lon="-6.659739086825187"><ele>759.0</ele><time>2026-03-23T07:41:03.009Z</time></trkpt><trkpt lat="30.053166310951955" lon="-6.659663734132931"><ele>759.25</ele><time>2026-03-23T07:41:04.009Z</time></trkpt><trkpt lat="30.05304653928535" lon="-6.659585440229979"><ele>759.5</ele><time>2026-03-23T07:41:05.009Z</time></trkpt><trkpt lat="30.05292820936909" lon="-6.659510946581541"><ele>759.75</ele><time>2026-03-23T07:41:06.009Z</time></trkpt><trkpt lat="30.052820759233988" lon="-6.659450622799739"><ele>760.0</ele><time>2026-03-23T07:41:07.009Z</time></trkpt><trkpt lat="30.05271382647018" lon="-6.659406528796195"><ele>760.0</ele><time>2026-03-23T07:41:08.009Z</time></trkpt><trkpt lat="30.052605349452907" lon="-6.659376223854518"><ele>760.0</ele><time>2026-03-23T07:41:09.009Z</time></trkpt><trkpt lat="30.05251128716692" lon="-6.659348423583297"><ele>760.0</ele><time>2026-03-23T07:41:10.009Z</time></trkpt><trkpt lat="30.0524217391855" lon="-6.659317381109349"><ele>760.0</ele><time>2026-03-23T07:41:11.009Z</time></trkpt><trkpt lat="30.052330175730795" lon="-6.659285401629815"><ele>760.0</ele><time>2026-03-23T07:41:12.009Z</time></trkpt><trkpt lat="30.052231745410737" lon="-6.6592468338655735"><ele>760.5</ele><time>2026-03-23T07:41:13.009Z</time></trkpt><trkpt lat="30.052124500763757" lon="-6.659203945784832"><ele>761.0</ele><time>2026-03-23T07:41:14.009Z</time></trkpt><trkpt lat="30.05202302563745" lon="-6.659166942529656"><ele>761.5</ele><time>2026-03-23T07:41:15.009Z</time></trkpt><trkpt lat="30.05190918743717" lon="-6.659130796412466"><ele>762.0</ele><time>2026-03-23T07:41:16.009Z</time></trkpt><trkpt lat="30.051785742706322" lon="-6.659087538273292"><ele>762.0</ele><time>2026-03-23T07:41:17.009Z</time></trkpt><trkpt lat="30.05165747684106" lon="-6.659036688219007"><ele>762.0</ele><time>2026-03-23T07:41:18.009Z</time></trkpt><trkpt lat="30.051530260160284" lon="-6.658986799936097"><ele>762.0</ele><time>2026-03-23T07:41:19.009Z</time></trkpt><trkpt lat="30.05140540087282" lon="-6.658938646652679"><ele>762.0</ele><time>2026-03-23T07:41:20.009Z</time></trkpt><trkpt lat="30.051274389461994" lon="-6.658894592538911"><ele>762.25</ele><time>2026-03-23T07:41:21.009Z</time></trkpt><trkpt lat="30.051154368968863" lon="-6.658851695596743"><ele>762.5</ele><time>2026-03-23T07:41:22.009Z</time></trkpt><trkpt lat="30.051022809559015" lon="-6.658805622840723"><ele>762.75</ele><time>2026-03-23T07:41:23.009Z</time></trkpt><trkpt lat="30.0508964997763" lon="-6.658759508071697"><ele>763.0</ele><time>2026-03-23T07:41:24.009Z</time></trkpt><trkpt lat="30.05077298127625" lon="-6.658710294468114"><ele>763.25</ele><time>2026-03-23T07:41:25.009Z</time></trkpt><trkpt lat="30.05064887316104" lon="-6.658662273947193"><ele>763.5</ele><time>2026-03-23T07:41:26.009Z</time></trkpt><trkpt lat="30.050547223583848" lon="-6.658601736820309"><ele>763.75</ele><time>2026-03-23T07:41:27.009Z</time></trkpt><trkpt lat="30.050445303753964" lon="-6.658527414235774"><ele>764.0</ele><time>2026-03-23T07:41:28.009Z</time></trkpt><trkpt lat="30.05032988961905" lon="-6.658480290330284"><ele>763.5</ele><time>2026-03-23T07:41:29.009Z</time></trkpt><trkpt lat="30.05024569218208" lon="-6.6583927575210105"><ele>763.0</ele><time>2026-03-23T07:41:30.009Z</time></trkpt><trkpt lat="30.05014481621476" lon="-6.658287885425154"><ele>762.5</ele><time>2026-03-23T07:41:31.009Z</time></trkpt><trkpt lat="30.050055583456487" lon="-6.658195050324971"><ele>762.0</ele><time>2026-03-23T07:41:32.009Z</time></trkpt><trkpt lat="30.049964795725927" lon="-6.658101165870313"><ele>762.5</ele><time>2026-03-23T07:41:33.009Z</time></trkpt><trkpt lat="30.04986777495263" lon="-6.6580070445995485"><ele>763.0</ele><time>2026-03-23T07:41:34.009Z</time></trkpt><trkpt lat="30.049782764702446" lon="-6.6579067906135645"><ele>763.5</ele><time>2026-03-23T07:41:35.009Z</time></trkpt><trkpt lat="30.049699430703" lon="-6.65782504403548"><ele>764.0</ele><time>2026-03-23T07:41:36.009Z</time></trkpt><trkpt lat="30.049601531879333" lon="-6.657748758050113"><ele>764.0</ele><time>2026-03-23T07:41:37.009Z</time></trkpt><trkpt lat="30.049512318348583" lon="-6.657662763620794"><ele>764.0</ele><time>2026-03-23T07:41:38.009Z</time></trkpt><trkpt lat="30.049423444958997" lon="-6.657576913115077"><ele>764.0</ele><time>2026-03-23T07:41:39.009Z</time></trkpt><trkpt lat="30.049343011829635" lon="-6.657487093290295"><ele>764.0</ele><time>2026-03-23T07:41:40.009Z</time></trkpt><trkpt lat="30.04925182168998" lon="-6.65739399032963"><ele>764.0</ele><time>2026-03-23T07:41:41.009Z</time></trkpt><trkpt lat="30.04914999531829" lon="-6.657312531635015"><ele>764.0</ele><time>2026-03-23T07:41:42.009Z</time></trkpt><trkpt lat="30.04905143594349" lon="-6.657216996615577"><ele>764.0</ele><time>2026-03-23T07:41:43.009Z</time></trkpt><trkpt lat="30.04896343810823" lon="-6.657113199286645"><ele>764.0</ele><time>2026-03-23T07:41:44.009Z</time></trkpt><trkpt lat="30.048871114253668" lon="-6.657028997733459"><ele>764.25</ele><time>2026-03-23T07:41:45.009Z</time></trkpt><trkpt lat="30.048777624985693" lon="-6.656935839886732"><ele>764.5</ele><time>2026-03-23T07:41:46.009Z</time></trkpt><trkpt lat="30.048682304317868" lon="-6.6568435471733585"><ele>764.75</ele><time>2026-03-23T07:41:47.009Z</time></trkpt><trkpt lat="30.048587468519564" lon="-6.656750458418406"><ele>765.0</ele><time>2026-03-23T07:41:48.009Z</time></trkpt><trkpt lat="30.048493064114723" lon="-6.656657551282567"><ele>765.0</ele><time>2026-03-23T07:41:49.009Z</time></trkpt><trkpt lat="30.04839085770681" lon="-6.656576688956266"><ele>765.0</ele><time>2026-03-23T07:41:50.009Z</time></trkpt><trkpt lat="30.048296207560043" lon="-6.656484943241561"><ele>765.0</ele><time>2026-03-23T07:41:51.009Z</time></trkpt><trkpt lat="30.048200865383944" lon="-6.6563925267281"><ele>765.0</ele><time>2026-03-23T07:41:52.009Z</time></trkpt><trkpt lat="30.04811947151062" lon="-6.6562891031110185"><ele>765.0</ele><time>2026-03-23T07:41:53.009Z</time></trkpt><trkpt lat="30.04802877871092" lon="-6.656207303562021"><ele>765.0</ele><time>2026-03-23T07:41:54.009Z</time></trkpt><trkpt lat="30.04794853192678" lon="-6.656125465324169"><ele>765.0</ele><time>2026-03-23T07:41:55.009Z</time></trkpt><trkpt lat="30.047853233285817" lon="-6.656053641038948"><ele>765.0</ele><time>2026-03-23T07:41:56.009Z</time></trkpt><trkpt lat="30.04778181218342" lon="-6.6559653812853865"><ele>765.0</ele><time>2026-03-23T07:41:57.009Z</time></trkpt><trkpt lat="30.047688367836702" lon="-6.655877071132327"><ele>764.8</ele><time>2026-03-23T07:41:58.009Z</time></trkpt><trkpt lat="30.04760301976262" lon="-6.655794464108532"><ele>764.6</ele><time>2026-03-23T07:41:59.009Z</time></trkpt><trkpt lat="30.047517293514936" lon="-6.6557161456052585"><ele>764.4000000000001</ele><time>2026-03-23T07:42:00.009Z</time></trkpt><trkpt lat="30.047442757450828" lon="-6.655635038855555"><ele>764.2</ele><time>2026-03-23T07:42:01.009Z</time></trkpt><trkpt lat="30.047361319717886" lon="-6.655552704101895"><ele>764.0</ele><time>2026-03-23T07:42:02.009Z</time></trkpt><trkpt lat="30.047261779843154" lon="-6.655476412745623"><ele>764.0</ele><time>2026-03-23T07:42:03.009Z</time></trkpt><trkpt lat="30.047182158852074" lon="-6.655373470145256"><ele>764.0</ele><time>2026-03-23T07:42:04.009Z</time></trkpt><trkpt lat="30.047090991190263" lon="-6.655294325293288"><ele>764.0</ele><time>2026-03-23T07:42:05.009Z</time></trkpt><trkpt lat="30.04701570947011" lon="-6.655217949701273"><ele>764.0</ele><time>2026-03-23T07:42:06.009Z</time></trkpt><trkpt lat="30.046944978064474" lon="-6.655150770873863"><ele>764.0</ele><time>2026-03-23T07:42:07.009Z</time></trkpt><trkpt lat="30.04687715769587" lon="-6.655083731025994"><ele>764.0</ele><time>2026-03-23T07:42:08.009Z</time></trkpt><trkpt lat="30.046800269985955" lon="-6.655025188199741"><ele>764.0</ele><time>2026-03-23T07:42:09.009Z</time></trkpt><trkpt lat="30.04673856165902" lon="-6.654932524280722"><ele>764.0</ele><time>2026-03-23T07:42:10.009Z</time></trkpt><trkpt lat="30.04665466867802" lon="-6.654851097511311"><ele>764.0</ele><time>2026-03-23T07:42:11.009Z</time></trkpt><trkpt lat="30.046566234114692" lon="-6.654767714279919"><ele>764.0</ele><time>2026-03-23T07:42:12.009Z</time></trkpt><trkpt lat="30.046480146611252" lon="-6.6546810919128285"><ele>764.0</ele><time>2026-03-23T07:42:13.009Z</time></trkpt><trkpt lat="30.0463940531883" lon="-6.654587543417582"><ele>764.0</ele><time>2026-03-23T07:42:14.009Z</time></trkpt><trkpt lat="30.046317596787148" lon="-6.654488527247362"><ele>764.0</ele><time>2026-03-23T07:42:15.009Z</time></trkpt><trkpt lat="30.04624283370858" lon="-6.654387515228761"><ele>764.0</ele><time>2026-03-23T07:42:16.009Z</time></trkpt><trkpt lat="30.046159448267375" lon="-6.6543076314360565"><ele>764.0</ele><time>2026-03-23T07:42:17.009Z</time></trkpt><trkpt lat="30.046063088542297" lon="-6.654233127002142"><ele>764.0</ele><time>2026-03-23T07:42:18.008Z</time></trkpt><trkpt lat="30.045959659759642" lon="-6.654167702754004"><ele>764.0</ele><time>2026-03-23T07:42:19.009Z</time></trkpt><trkpt lat="30.045857614007215" lon="-6.654081874594169"><ele>764.0</ele><time>2026-03-23T07:42:20.009Z</time></trkpt><trkpt lat="30.04576635683853" lon="-6.653977141891029"><ele>764.75</ele><time>2026-03-23T07:42:21.009Z</time></trkpt><trkpt lat="30.045681179685502" lon="-6.653863447188885"><ele>765.5</ele><time>2026-03-23T07:42:22.009Z</time></trkpt><trkpt lat="30.045575926341414" lon="-6.653762694435647"><ele>766.25</ele><time>2026-03-23T07:42:23.009Z</time></trkpt><trkpt lat="30.045458390178787" lon="-6.653668033387671"><ele>767.0</ele><time>2026-03-23T07:42:24.009Z</time></trkpt><trkpt lat="30.045338155970676" lon="-6.653561249982415"><ele>767.0</ele><time>2026-03-23T07:42:25.009Z</time></trkpt><trkpt lat="30.045229529563173" lon="-6.653449956194076"><ele>767.0</ele><time>2026-03-23T07:42:26.009Z</time></trkpt><trkpt lat="30.045116147644784" lon="-6.653330243901163"><ele>767.0</ele><time>2026-03-23T07:42:27.008Z</time></trkpt><trkpt lat="30.044995581340856" lon="-6.653217337099255"><ele>767.3333333333333</ele><time>2026-03-23T07:42:28.008Z</time></trkpt><trkpt lat="30.04487354735039" lon="-6.65310573908689"><ele>767.6666666666666</ele><time>2026-03-23T07:42:29.008Z</time></trkpt><trkpt lat="30.044757560982717" lon="-6.65298814341474"><ele>768.0</ele><time>2026-03-23T07:42:30.008Z</time></trkpt><trkpt lat="30.044631453076285" lon="-6.6528671429023145"><ele>767.5</ele><time>2026-03-23T07:42:31.008Z</time></trkpt><trkpt lat="30.04450626655769" lon="-6.652753678670051"><ele>767.0</ele><time>2026-03-23T07:42:32.008Z</time></trkpt><trkpt lat="30.04439534022531" lon="-6.65265167491762"><ele>766.5</ele><time>2026-03-23T07:42:33.008Z</time></trkpt><trkpt lat="30.044285238859572" lon="-6.652553568599699"><ele>766.0</ele><time>2026-03-23T07:42:34.008Z</time></trkpt><trkpt lat="30.044181719892606" lon="-6.652453130050076"><ele>766.5</ele><time>2026-03-23T07:42:35.008Z</time></trkpt><trkpt lat="30.044079439471545" lon="-6.6523426989457946"><ele>767.0</ele><time>2026-03-23T07:42:36.008Z</time></trkpt><trkpt lat="30.043975786822493" lon="-6.652234344173705"><ele>767.5</ele><time>2026-03-23T07:42:37.008Z</time></trkpt><trkpt lat="30.043871645441985" lon="-6.652131920659365"><ele>768.0</ele><time>2026-03-23T07:42:38.008Z</time></trkpt><trkpt lat="30.04377045846938" lon="-6.652030225018919"><ele>768.0</ele><time>2026-03-23T07:42:39.008Z</time></trkpt><trkpt lat="30.043670275652946" lon="-6.651928935838336"><ele>768.0</ele><time>2026-03-23T07:42:40.008Z</time></trkpt><trkpt lat="30.04357059406744" lon="-6.6518290528630395"><ele>768.0</ele><time>2026-03-23T07:42:41.008Z</time></trkpt><trkpt lat="30.043472943664312" lon="-6.651735789223898"><ele>768.0</ele><time>2026-03-23T07:42:42.008Z</time></trkpt><trkpt lat="30.04338378300002" lon="-6.651650140712829"><ele>768.0</ele><time>2026-03-23T07:42:43.008Z</time></trkpt><trkpt lat="30.04327868549443" lon="-6.65158642525414"><ele>768.0</ele><time>2026-03-23T07:42:44.008Z</time></trkpt><trkpt lat="30.043203457117542" lon="-6.651512816852939"><ele>768.0</ele><time>2026-03-23T07:42:45.008Z</time></trkpt><trkpt lat="30.04312441508108" lon="-6.651435476432735"><ele>768.0</ele><time>2026-03-23T07:42:46.008Z</time></trkpt><trkpt lat="30.04305856528097" lon="-6.651351299366496"><ele>768.0</ele><time>2026-03-23T07:42:47.008Z</time></trkpt><trkpt lat="30.04298663596661" lon="-6.651288541505959"><ele>768.0</ele><time>2026-03-23T07:42:48.008Z</time></trkpt><trkpt lat="30.042921876694553" lon="-6.651225824492106"><ele>768.0</ele><time>2026-03-23T07:42:49.008Z</time></trkpt><trkpt lat="30.042855391027366" lon="-6.65114995447843"><ele>768.0</ele><time>2026-03-23T07:42:50.008Z</time></trkpt><trkpt lat="30.042768557615688" lon="-6.651089133284752"><ele>768.0</ele><time>2026-03-23T07:42:51.008Z</time></trkpt><trkpt lat="30.042687932129642" lon="-6.650989707723049"><ele>768.0</ele><time>2026-03-23T07:42:52.008Z</time></trkpt><trkpt lat="30.042595650781895" lon="-6.6509061965284175"><ele>768.0</ele><time>2026-03-23T07:42:53.008Z</time></trkpt><trkpt lat="30.04248159692094" lon="-6.650808871587223"><ele>768.0</ele><time>2026-03-23T07:42:54.008Z</time></trkpt><trkpt lat="30.042377607899308" lon="-6.650707260094262"><ele>768.0</ele><time>2026-03-23T07:42:55.008Z</time></trkpt><trkpt lat="30.04227109223708" lon="-6.650603179601339"><ele>768.0</ele><time>2026-03-23T07:42:56.008Z</time></trkpt><trkpt lat="30.04215901600073" lon="-6.650499994368721"><ele>767.8</ele><time>2026-03-23T07:42:57.008Z</time></trkpt><trkpt lat="30.04206630236373" lon="-6.650414495447202"><ele>767.5999999999999</ele><time>2026-03-23T07:42:58.008Z</time></trkpt><trkpt lat="30.041982341149485" lon="-6.650337068048142"><ele>767.4000000000001</ele><time>2026-03-23T07:42:59.008Z</time></trkpt><trkpt lat="30.041900905199704" lon="-6.650261969246252"><ele>767.2</ele><time>2026-03-23T07:43:00.008Z</time></trkpt><trkpt lat="30.041864540692742" lon="-6.650135537852569"><ele>767.0</ele><time>2026-03-23T07:43:01.008Z</time></trkpt><trkpt lat="30.041748269660435" lon="-6.650088289144437"><ele>767.0</ele><time>2026-03-23T07:43:02.008Z</time></trkpt><trkpt lat="30.041672837065764" lon="-6.650034088729361"><ele>767.0</ele><time>2026-03-23T07:43:03.008Z</time></trkpt><trkpt lat="30.041591244600866" lon="-6.64996803839166"><ele>767.0</ele><time>2026-03-23T07:43:04.008Z</time></trkpt><trkpt lat="30.04151687879828" lon="-6.649896533378203"><ele>767.0</ele><time>2026-03-23T07:43:05.008Z</time></trkpt><trkpt lat="30.04144956980328" lon="-6.649816030138225"><ele>767.0</ele><time>2026-03-23T07:43:06.008Z</time></trkpt><trkpt lat="30.041385595822348" lon="-6.649724024011106"><ele>767.2</ele><time>2026-03-23T07:43:07.008Z</time></trkpt><trkpt lat="30.041290117042326" lon="-6.649650967978594"><ele>767.4000000000001</ele><time>2026-03-23T07:43:08.008Z</time></trkpt><trkpt lat="30.04119950578142" lon="-6.649587610330542"><ele>767.5999999999999</ele><time>2026-03-23T07:43:09.008Z</time></trkpt><trkpt lat="30.0411165260487" lon="-6.649512429162909"><ele>767.8</ele><time>2026-03-23T07:43:10.008Z</time></trkpt><trkpt lat="30.041042524133452" lon="-6.649435669175327"><ele>768.0</ele><time>2026-03-23T07:43:11.008Z</time></trkpt><trkpt lat="30.040975172336406" lon="-6.649349674235979"><ele>768.0</ele><time>2026-03-23T07:43:12.008Z</time></trkpt><trkpt lat="30.040893998839472" lon="-6.649253209113778"><ele>768.0</ele><time>2026-03-23T07:43:13.008Z</time></trkpt><trkpt lat="30.0407929860194" lon="-6.649159933597589"><ele>768.0</ele><time>2026-03-23T07:43:14.008Z</time></trkpt><trkpt lat="30.04068782101697" lon="-6.649066347239134"><ele>768.0</ele><time>2026-03-23T07:43:15.008Z</time></trkpt><trkpt lat="30.040589954430576" lon="-6.648962567205849"><ele>768.75</ele><time>2026-03-23T07:43:16.008Z</time></trkpt><trkpt lat="30.04049499188141" lon="-6.648852295954984"><ele>769.5</ele><time>2026-03-23T07:43:17.008Z</time></trkpt><trkpt lat="30.04039054337204" lon="-6.648752156401039"><ele>770.25</ele><time>2026-03-23T07:43:18.008Z</time></trkpt><trkpt lat="30.040283078915714" lon="-6.648657758608466"><ele>771.0</ele><time>2026-03-23T07:43:19.008Z</time></trkpt><trkpt lat="30.04017277783094" lon="-6.648561740766543"><ele>771.0</ele><time>2026-03-23T07:43:20.008Z</time></trkpt><trkpt lat="30.040066457047427" lon="-6.648463762656975"><ele>771.0</ele><time>2026-03-23T07:43:21.008Z</time></trkpt><trkpt lat="30.03995946375345" lon="-6.648363450193523"><ele>771.0</ele><time>2026-03-23T07:43:22.008Z</time></trkpt><trkpt lat="30.039855549364336" lon="-6.648263414848387"><ele>771.0</ele><time>2026-03-23T07:43:23.008Z</time></trkpt><trkpt lat="30.03975166715986" lon="-6.648158103472291"><ele>771.0</ele><time>2026-03-23T07:43:24.008Z</time></trkpt><trkpt lat="30.03964400595322" lon="-6.648058387560193"><ele>771.0</ele><time>2026-03-23T07:43:25.008Z</time></trkpt><trkpt lat="30.039538444038183" lon="-6.647965424878"><ele>771.0</ele><time>2026-03-23T07:43:26.008Z</time></trkpt><trkpt lat="30.03944358112076" lon="-6.647880690659308"><ele>771.0</ele><time>2026-03-23T07:43:27.008Z</time></trkpt><trkpt lat="30.03935331334209" lon="-6.647793192556233"><ele>771.0</ele><time>2026-03-23T07:43:28.008Z</time></trkpt><trkpt lat="30.039258296306173" lon="-6.647706084385413"><ele>771.0</ele><time>2026-03-23T07:43:29.008Z</time></trkpt><trkpt lat="30.039160608612473" lon="-6.647610882541535"><ele>771.0</ele><time>2026-03-23T07:43:30.008Z</time></trkpt><trkpt lat="30.03906540752333" lon="-6.6475063949586"><ele>771.0</ele><time>2026-03-23T07:43:31.008Z</time></trkpt><trkpt lat="30.038976730074666" lon="-6.647404160335367"><ele>771.0</ele><time>2026-03-23T07:43:32.008Z</time></trkpt><trkpt lat="30.03888449802361" lon="-6.647316182946816"><ele>771.0</ele><time>2026-03-23T07:43:33.008Z</time></trkpt><trkpt lat="30.038787756112605" lon="-6.647227934950122"><ele>771.0</ele><time>2026-03-23T07:43:34.008Z</time></trkpt><trkpt lat="30.03868916373492" lon="-6.647132178100525"><ele>771.0</ele><time>2026-03-23T07:43:35.008Z</time></trkpt><trkpt lat="30.038591863979203" lon="-6.647040489015547"><ele>771.0</ele><time>2026-03-23T07:43:36.008Z</time></trkpt><trkpt lat="30.038492729340017" lon="-6.646952400970864"><ele>771.0</ele><time>2026-03-23T07:43:37.008Z</time></trkpt><trkpt lat="30.038395147140836" lon="-6.646862774180602"><ele>771.0</ele><time>2026-03-23T07:43:38.008Z</time></trkpt><trkpt lat="30.038297114579997" lon="-6.646772622542144"><ele>771.0</ele><time>2026-03-23T07:43:39.008Z</time></trkpt><trkpt lat="30.038199481562955" lon="-6.646675336041365"><ele>771.0</ele><time>2026-03-23T07:43:40.008Z</time></trkpt><trkpt lat="30.03811190796946" lon="-6.646574787389263"><ele>771.0</ele><time>2026-03-23T07:43:41.008Z</time></trkpt><trkpt lat="30.038038618397845" lon="-6.64646454718852"><ele>771.0</ele><time>2026-03-23T07:43:42.008Z</time></trkpt><trkpt lat="30.03798632539682" lon="-6.646331301688511"><ele>771.0</ele><time>2026-03-23T07:43:43.008Z</time></trkpt><trkpt lat="30.03795263280474" lon="-6.646183235061969"><ele>771.0</ele><time>2026-03-23T07:43:44.008Z</time></trkpt><trkpt lat="30.037916864982908" lon="-6.646033588293412"><ele>771.0</ele><time>2026-03-23T07:43:45.008Z</time></trkpt><trkpt lat="30.037875963719376" lon="-6.645884717210598"><ele>771.0</ele><time>2026-03-23T07:43:46.008Z</time></trkpt><trkpt lat="30.037831589310315" lon="-6.645741624040997"><ele>771.0</ele><time>2026-03-23T07:43:47.008Z</time></trkpt><trkpt lat="30.03779859755686" lon="-6.645613841543488"><ele>771.0</ele><time>2026-03-23T07:43:48.008Z</time></trkpt><trkpt lat="30.037769719366686" lon="-6.645492692005205"><ele>771.0</ele><time>2026-03-23T07:43:49.009Z</time></trkpt><trkpt lat="30.037751557938986" lon="-6.645374841724982"><ele>771.0</ele><time>2026-03-23T07:43:50.009Z</time></trkpt><trkpt lat="30.0377171060647" lon="-6.64525647345099"><ele>771.0</ele><time>2026-03-23T07:43:51.009Z</time></trkpt><trkpt lat="30.037669782883924" lon="-6.645151221240062"><ele>771.0</ele><time>2026-03-23T07:43:52.009Z</time></trkpt><trkpt lat="30.03762433960327" lon="-6.6450495069143765"><ele>771.0</ele><time>2026-03-23T07:43:53.009Z</time></trkpt><trkpt lat="30.037579284419202" lon="-6.644940698067931"><ele>771.0</ele><time>2026-03-23T07:43:54.009Z</time></trkpt><trkpt lat="30.037544410773513" lon="-6.644827823550921"><ele>771.0</ele><time>2026-03-23T07:43:55.009Z</time></trkpt><trkpt lat="30.037524030579775" lon="-6.644715995107349"><ele>771.0</ele><time>2026-03-23T07:43:56.009Z</time></trkpt><trkpt lat="30.037506030810313" lon="-6.644608404445256"><ele>771.0</ele><time>2026-03-23T07:43:57.009Z</time></trkpt><trkpt lat="30.03748344403741" lon="-6.644513134488457"><ele>771.0</ele><time>2026-03-23T07:43:58.009Z</time></trkpt><trkpt lat="30.03745659906388" lon="-6.644430118846439"><ele>771.0</ele><time>2026-03-23T07:43:59.009Z</time></trkpt><trkpt lat="30.03742778702622" lon="-6.644361184337551"><ele>771.0</ele><time>2026-03-23T07:44:00.009Z</time></trkpt><trkpt lat="30.03739303405159" lon="-6.644300338240315"><ele>771.0</ele><time>2026-03-23T07:44:01.009Z</time></trkpt><trkpt lat="30.037318364824184" lon="-6.6441750653241405"><ele>771.0</ele><time>2026-03-23T07:44:03.009Z</time></trkpt><trkpt lat="30.037291994873105" lon="-6.644085959365312"><ele>771.0</ele><time>2026-03-23T07:44:04.009Z</time></trkpt><trkpt lat="30.037280022918914" lon="-6.643978364663619"><ele>771.0</ele><time>2026-03-23T07:44:05.009Z</time></trkpt><trkpt lat="30.037277748781403" lon="-6.643867375782916"><ele>771.0</ele><time>2026-03-23T07:44:06.009Z</time></trkpt><trkpt lat="30.03726523245617" lon="-6.6437597305998946"><ele>771.0</ele><time>2026-03-23T07:44:07.009Z</time></trkpt><trkpt lat="30.03723279523428" lon="-6.6436436480676875"><ele>771.0</ele><time>2026-03-23T07:44:08.009Z</time></trkpt><trkpt lat="30.037190722686212" lon="-6.64351503045874"><ele>771.0</ele><time>2026-03-23T07:44:09.009Z</time></trkpt><trkpt lat="30.03714398413092" lon="-6.643381822943737"><ele>771.75</ele><time>2026-03-23T07:44:10.009Z</time></trkpt><trkpt lat="30.03710350118045" lon="-6.6432571821908315"><ele>772.5</ele><time>2026-03-23T07:44:11.009Z</time></trkpt><trkpt lat="30.0370692493987" lon="-6.643138116362822"><ele>773.25</ele><time>2026-03-23T07:44:12.009Z</time></trkpt><trkpt lat="30.03703432520078" lon="-6.643020818064829"><ele>774.0</ele><time>2026-03-23T07:44:13.009Z</time></trkpt><trkpt lat="30.036989955286924" lon="-6.642892973582719"><ele>773.5</ele><time>2026-03-23T07:44:14.009Z</time></trkpt><trkpt lat="30.03694267682008" lon="-6.642753007085717"><ele>773.0</ele><time>2026-03-23T07:44:15.009Z</time></trkpt><trkpt lat="30.03690305043445" lon="-6.642596426934458"><ele>772.5</ele><time>2026-03-23T07:44:16.009Z</time></trkpt><trkpt lat="30.036869911494854" lon="-6.642430071408782"><ele>772.0</ele><time>2026-03-23T07:44:17.009Z</time></trkpt><trkpt lat="30.036819768867378" lon="-6.642261287167839"><ele>772.0</ele><time>2026-03-23T07:44:18.009Z</time></trkpt><trkpt lat="30.03676568744134" lon="-6.642096271033536"><ele>772.0</ele><time>2026-03-23T07:44:19.009Z</time></trkpt><trkpt lat="30.03670820407491" lon="-6.641945992983556"><ele>772.0</ele><time>2026-03-23T07:44:20.009Z</time></trkpt><trkpt lat="30.03665593866552" lon="-6.641811532573119"><ele>772.0</ele><time>2026-03-23T07:44:21.009Z</time></trkpt><trkpt lat="30.036623484393516" lon="-6.641682461004439"><ele>772.0</ele><time>2026-03-23T07:44:22.009Z</time></trkpt><trkpt lat="30.036598989784103" lon="-6.641538491172075"><ele>772.0</ele><time>2026-03-23T07:44:23.008Z</time></trkpt><trkpt lat="30.036560939094855" lon="-6.641381593157898"><ele>772.0</ele><time>2026-03-23T07:44:24.008Z</time></trkpt><trkpt lat="30.036511871222967" lon="-6.641232614180692"><ele>772.0</ele><time>2026-03-23T07:44:25.008Z</time></trkpt><trkpt lat="30.0364581535074" lon="-6.641105700966245"><ele>772.0</ele><time>2026-03-23T07:44:26.008Z</time></trkpt><trkpt lat="30.036397766062795" lon="-6.641006523642484"><ele>772.0</ele><time>2026-03-23T07:44:27.008Z</time></trkpt><trkpt lat="30.036328581283325" lon="-6.640923808855238"><ele>772.0</ele><time>2026-03-23T07:44:28.007Z</time></trkpt><trkpt lat="30.036243271205574" lon="-6.640842106556989"><ele>772.0</ele><time>2026-03-23T07:44:29.007Z</time></trkpt><trkpt lat="30.036147106803856" lon="-6.64074577064769"><ele>772.0</ele><time>2026-03-23T07:44:30.007Z</time></trkpt><trkpt lat="30.03604749109945" lon="-6.640628549674231"><ele>772.0</ele><time>2026-03-23T07:44:31.007Z</time></trkpt><trkpt lat="30.035943677540736" lon="-6.640513642997269"><ele>772.0</ele><time>2026-03-23T07:44:32.007Z</time></trkpt><trkpt lat="30.035847969579944" lon="-6.640398753687348"><ele>772.0</ele><time>2026-03-23T07:44:33.007Z</time></trkpt><trkpt lat="30.035771637247688" lon="-6.640290630462799"><ele>772.0</ele><time>2026-03-23T07:44:34.006Z</time></trkpt><trkpt lat="30.035708899842678" lon="-6.640204771251636"><ele>771.8</ele><time>2026-03-23T07:44:35.006Z</time></trkpt><trkpt lat="30.0356503457472" lon="-6.640121158419294"><ele>771.6</ele><time>2026-03-23T07:44:36.007Z</time></trkpt><trkpt lat="30.035597088679065" lon="-6.640025235666809"><ele>771.4</ele><time>2026-03-23T07:44:37.006Z</time></trkpt><trkpt lat="30.0355274670778" lon="-6.639935181308255"><ele>771.1999999999999</ele><time>2026-03-23T07:44:38.006Z</time></trkpt><trkpt lat="30.035452317719226" lon="-6.6398314061131485"><ele>771.0</ele><time>2026-03-23T07:44:39.006Z</time></trkpt><trkpt lat="30.03537791216264" lon="-6.639702034810555"><ele>771.0</ele><time>2026-03-23T07:44:40.006Z</time></trkpt><trkpt lat="30.035285876349167" lon="-6.6395758518552785"><ele>771.0</ele><time>2026-03-23T07:44:41.006Z</time></trkpt><trkpt lat="30.035196070680215" lon="-6.639469531379213"><ele>771.0</ele><time>2026-03-23T07:44:42.006Z</time></trkpt><trkpt lat="30.035108384659765" lon="-6.639365023602079"><ele>771.0</ele><time>2026-03-23T07:44:43.006Z</time></trkpt><trkpt lat="30.035034969596868" lon="-6.639237365005513"><ele>771.5</ele><time>2026-03-23T07:44:44.006Z</time></trkpt><trkpt lat="30.034959130274768" lon="-6.6390999346363"><ele>772.0</ele><time>2026-03-23T07:44:45.006Z</time></trkpt><trkpt lat="30.034884412642686" lon="-6.6389841448499"><ele>772.5</ele><time>2026-03-23T07:44:46.006Z</time></trkpt><trkpt lat="30.034806464619333" lon="-6.638873557461063"><ele>773.0</ele><time>2026-03-23T07:44:47.005Z</time></trkpt><trkpt lat="30.03473651080264" lon="-6.638772432480825"><ele>773.0</ele><time>2026-03-23T07:44:48.005Z</time></trkpt><trkpt lat="30.034677098929528" lon="-6.6386803105527346"><ele>773.0</ele><time>2026-03-23T07:44:49.005Z</time></trkpt><trkpt lat="30.0346106328101" lon="-6.638580059869192"><ele>773.0</ele><time>2026-03-23T07:44:50.005Z</time></trkpt><trkpt lat="30.034540138847593" lon="-6.638467684273237"><ele>773.0</ele><time>2026-03-23T07:44:51.005Z</time></trkpt><trkpt lat="30.0344678482359" lon="-6.638361024203663"><ele>773.0</ele><time>2026-03-23T07:44:52.005Z</time></trkpt><trkpt lat="30.034401573450452" lon="-6.638263676464966"><ele>773.0</ele><time>2026-03-23T07:44:53.005Z</time></trkpt><trkpt lat="30.03433646539639" lon="-6.638165626218483"><ele>773.0</ele><time>2026-03-23T07:44:54.005Z</time></trkpt><trkpt lat="30.03426608048797" lon="-6.638067542196708"><ele>773.0</ele><time>2026-03-23T07:44:55.005Z</time></trkpt><trkpt lat="30.034204655484245" lon="-6.637971092935275"><ele>773.0</ele><time>2026-03-23T07:44:56.005Z</time></trkpt><trkpt lat="30.03413825876236" lon="-6.637869152558798"><ele>773.0</ele><time>2026-03-23T07:44:57.005Z</time></trkpt><trkpt lat="30.034060080239684" lon="-6.63775477232468"><ele>773.0</ele><time>2026-03-23T07:44:58.005Z</time></trkpt><trkpt lat="30.033982832153917" lon="-6.637633948644115"><ele>773.0</ele><time>2026-03-23T07:44:59.005Z</time></trkpt><trkpt lat="30.033909953971214" lon="-6.6375087697888935"><ele>773.0</ele><time>2026-03-23T07:45:00.005Z</time></trkpt><trkpt lat="30.03382819100584" lon="-6.637396615453015"><ele>773.0</ele><time>2026-03-23T07:45:01.005Z</time></trkpt><trkpt lat="30.033740211251068" lon="-6.63729653290567"><ele>773.0</ele><time>2026-03-23T07:45:02.005Z</time></trkpt><trkpt lat="30.033658396521695" lon="-6.637184047459463"><ele>773.0</ele><time>2026-03-23T07:45:03.005Z</time></trkpt><trkpt lat="30.03358283339017" lon="-6.637056487276147"><ele>773.0</ele><time>2026-03-23T07:45:04.005Z</time></trkpt><trkpt lat="30.033508039536827" lon="-6.63693079726516"><ele>773.0</ele><time>2026-03-23T07:45:05.005Z</time></trkpt><trkpt lat="30.03342840233433" lon="-6.6368214556284535"><ele>773.2</ele><time>2026-03-23T07:45:06.005Z</time></trkpt><trkpt lat="30.033357600009687" lon="-6.636721668569948"><ele>773.4</ele><time>2026-03-23T07:45:07.005Z</time></trkpt><trkpt lat="30.03329735007528" lon="-6.636628206052503"><ele>773.6</ele><time>2026-03-23T07:45:08.005Z</time></trkpt><trkpt lat="30.033232883326605" lon="-6.636535643775182"><ele>773.8000000000001</ele><time>2026-03-23T07:45:09.005Z</time></trkpt><trkpt lat="30.033164509679914" lon="-6.636433317625102"><ele>774.0</ele><time>2026-03-23T07:45:10.005Z</time></trkpt><trkpt lat="30.033097427415868" lon="-6.636332798263337"><ele>774.25</ele><time>2026-03-23T07:45:11.005Z</time></trkpt><trkpt lat="30.0330300043369" lon="-6.636233958418601"><ele>774.5</ele><time>2026-03-23T07:45:12.005Z</time></trkpt><trkpt lat="30.032966251774294" lon="-6.636125663181409"><ele>774.75</ele><time>2026-03-23T07:45:13.005Z</time></trkpt><trkpt lat="30.032897277560775" lon="-6.636015377161047"><ele>775.0</ele><time>2026-03-23T07:45:14.005Z</time></trkpt><trkpt lat="30.032820428820667" lon="-6.635913956735518"><ele>775.0</ele><time>2026-03-23T07:45:15.005Z</time></trkpt><trkpt lat="30.032749984496586" lon="-6.635818655704752"><ele>775.0</ele><time>2026-03-23T07:45:16.005Z</time></trkpt><trkpt lat="30.032676445427526" lon="-6.635721216716459"><ele>775.0</ele><time>2026-03-23T07:45:17.005Z</time></trkpt><trkpt lat="30.032605469533713" lon="-6.6356257678217"><ele>775.0</ele><time>2026-03-23T07:45:18.005Z</time></trkpt><trkpt lat="30.03253386604336" lon="-6.6355215396111875"><ele>775.0</ele><time>2026-03-23T07:45:19.005Z</time></trkpt><trkpt lat="30.032460978144425" lon="-6.635412964414514"><ele>775.25</ele><time>2026-03-23T07:45:20.005Z</time></trkpt><trkpt lat="30.032392746950595" lon="-6.635298984050112"><ele>775.5</ele><time>2026-03-23T07:45:21.005Z</time></trkpt><trkpt lat="30.03232212323492" lon="-6.635183685092755"><ele>775.75</ele><time>2026-03-23T07:45:22.005Z</time></trkpt><trkpt lat="30.032247785279296" lon="-6.635072680573398"><ele>776.0</ele><time>2026-03-23T07:45:23.005Z</time></trkpt><trkpt lat="30.032170252276813" lon="-6.634959721179678"><ele>776.0</ele><time>2026-03-23T07:45:24.005Z</time></trkpt><trkpt lat="30.032091077940688" lon="-6.63484465845363"><ele>776.0</ele><time>2026-03-23T07:45:25.005Z</time></trkpt><trkpt lat="30.032006841334645" lon="-6.634734203134183"><ele>776.0</ele><time>2026-03-23T07:45:26.005Z</time></trkpt><trkpt lat="30.031922207637958" lon="-6.634624708285572"><ele>776.0</ele><time>2026-03-23T07:45:27.005Z</time></trkpt><trkpt lat="30.03184250971329" lon="-6.634517009726846"><ele>776.0</ele><time>2026-03-23T07:45:28.005Z</time></trkpt><trkpt lat="30.031777116074405" lon="-6.634412584680898"><ele>776.0</ele><time>2026-03-23T07:45:29.005Z</time></trkpt><trkpt lat="30.031702208367694" lon="-6.634305492210634"><ele>776.0</ele><time>2026-03-23T07:45:30.005Z</time></trkpt><trkpt lat="30.03161963045391" lon="-6.63419756122417"><ele>776.0</ele><time>2026-03-23T07:45:31.005Z</time></trkpt><trkpt lat="30.031541097735914" lon="-6.634080303108244"><ele>776.5</ele><time>2026-03-23T07:45:32.005Z</time></trkpt><trkpt lat="30.031457871146376" lon="-6.633953948429851"><ele>777.0</ele><time>2026-03-23T07:45:33.005Z</time></trkpt><trkpt lat="30.031380422197174" lon="-6.633836621887975"><ele>777.5</ele><time>2026-03-23T07:45:34.005Z</time></trkpt><trkpt lat="30.03129284509193" lon="-6.63371630046189"><ele>778.0</ele><time>2026-03-23T07:45:35.005Z</time></trkpt><trkpt lat="30.031207382162464" lon="-6.6335950536804456"><ele>778.25</ele><time>2026-03-23T07:45:36.005Z</time></trkpt><trkpt lat="30.031121538637553" lon="-6.633474182294585"><ele>778.5</ele><time>2026-03-23T07:45:37.005Z</time></trkpt><trkpt lat="30.031037715377927" lon="-6.633349724092881"><ele>778.75</ele><time>2026-03-23T07:45:38.005Z</time></trkpt><trkpt lat="30.030952144664095" lon="-6.633221045587337"><ele>779.0</ele><time>2026-03-23T07:45:39.005Z</time></trkpt><trkpt lat="30.03087355603097" lon="-6.63310151211992"><ele>779.25</ele><time>2026-03-23T07:45:40.005Z</time></trkpt><trkpt lat="30.030789580546536" lon="-6.632992329922711"><ele>779.5</ele><time>2026-03-23T07:45:41.005Z</time></trkpt><trkpt lat="30.030705754183167" lon="-6.632877337579767"><ele>779.75</ele><time>2026-03-23T07:45:42.005Z</time></trkpt><trkpt lat="30.030620748182436" lon="-6.632746076776785"><ele>780.0</ele><time>2026-03-23T07:45:43.005Z</time></trkpt><trkpt lat="30.030529168495157" lon="-6.63261328650037"><ele>780.0</ele><time>2026-03-23T07:45:44.005Z</time></trkpt><trkpt lat="30.030437233375338" lon="-6.632477186860757"><ele>780.0</ele><time>2026-03-23T07:45:45.005Z</time></trkpt><trkpt lat="30.03034644602439" lon="-6.632342044364565"><ele>780.0</ele><time>2026-03-23T07:45:46.005Z</time></trkpt><trkpt lat="30.030255970404568" lon="-6.6322111088175575"><ele>780.0</ele><time>2026-03-23T07:45:47.005Z</time></trkpt><trkpt lat="30.030165414225003" lon="-6.632081912747265"><ele>779.5</ele><time>2026-03-23T07:45:48.005Z</time></trkpt><trkpt lat="30.03007416403431" lon="-6.631955066247758"><ele>779.0</ele><time>2026-03-23T07:45:49.005Z</time></trkpt><trkpt lat="30.029985978271313" lon="-6.631828721481549"><ele>778.5</ele><time>2026-03-23T07:45:50.005Z</time></trkpt><trkpt lat="30.02990280806762" lon="-6.631704593475721"><ele>778.0</ele><time>2026-03-23T07:45:51.005Z</time></trkpt><trkpt lat="30.029818669082108" lon="-6.631586318391396"><ele>778.0</ele><time>2026-03-23T07:45:52.005Z</time></trkpt><trkpt lat="30.029734803270724" lon="-6.631483359276134"><ele>778.0</ele><time>2026-03-23T07:45:53.005Z</time></trkpt><trkpt lat="30.029660857842753" lon="-6.631380319146257"><ele>778.0</ele><time>2026-03-23T07:45:54.005Z</time></trkpt><trkpt lat="30.029586208689476" lon="-6.631276351098063"><ele>778.0</ele><time>2026-03-23T07:45:55.005Z</time></trkpt><trkpt lat="30.029514351127546" lon="-6.63116181357911"><ele>777.6666666666666</ele><time>2026-03-23T07:45:56.005Z</time></trkpt><trkpt lat="30.029435320156633" lon="-6.631027119021955"><ele>777.3333333333333</ele><time>2026-03-23T07:45:57.005Z</time></trkpt><trkpt lat="30.029331892273767" lon="-6.630891766888654"><ele>777.0</ele><time>2026-03-23T07:45:58.005Z</time></trkpt><trkpt lat="30.029236059945074" lon="-6.630754295653828"><ele>777.0</ele><time>2026-03-23T07:45:59.005Z</time></trkpt><trkpt lat="30.02917046621415" lon="-6.630646004829936"><ele>777.0</ele><time>2026-03-23T07:46:00.005Z</time></trkpt><trkpt lat="30.02909037165373" lon="-6.630538125064197"><ele>777.0</ele><time>2026-03-23T07:46:01.005Z</time></trkpt><trkpt lat="30.029003880841863" lon="-6.630419834599394"><ele>777.0</ele><time>2026-03-23T07:46:02.005Z</time></trkpt><trkpt lat="30.02891591708169" lon="-6.630291972466746"><ele>777.5</ele><time>2026-03-23T07:46:03.005Z</time></trkpt><trkpt lat="30.02884069685793" lon="-6.630163202797347"><ele>778.0</ele><time>2026-03-23T07:46:04.005Z</time></trkpt><trkpt lat="30.02875307469295" lon="-6.630044403855941"><ele>778.5</ele><time>2026-03-23T07:46:05.005Z</time></trkpt><trkpt lat="30.028666543961126" lon="-6.629925496836207"><ele>779.0</ele><time>2026-03-23T07:46:06.005Z</time></trkpt><trkpt lat="30.028589379716585" lon="-6.629813470717903"><ele>779.0</ele><time>2026-03-23T07:46:07.005Z</time></trkpt><trkpt lat="30.02851771641226" lon="-6.629711023054539"><ele>779.0</ele><time>2026-03-23T07:46:08.005Z</time></trkpt><trkpt lat="30.028446844218017" lon="-6.629609873890825"><ele>779.0</ele><time>2026-03-23T07:46:09.005Z</time></trkpt><trkpt lat="30.02837488847279" lon="-6.629504097200467"><ele>779.0</ele><time>2026-03-23T07:46:10.005Z</time></trkpt><trkpt lat="30.028298251830318" lon="-6.62939321823516"><ele>779.5</ele><time>2026-03-23T07:46:11.005Z</time></trkpt><trkpt lat="30.028221331750157" lon="-6.629283664411394"><ele>780.0</ele><time>2026-03-23T07:46:12.005Z</time></trkpt><trkpt lat="30.02814032796875" lon="-6.629171040879144"><ele>780.5</ele><time>2026-03-23T07:46:13.005Z</time></trkpt><trkpt lat="30.028062742181696" lon="-6.629060296064945"><ele>781.0</ele><time>2026-03-23T07:46:14.005Z</time></trkpt><trkpt lat="30.02798771850895" lon="-6.628950780747638"><ele>781.0</ele><time>2026-03-23T07:46:15.005Z</time></trkpt><trkpt lat="30.027918373954837" lon="-6.628845583382684"><ele>781.0</ele><time>2026-03-23T07:46:16.005Z</time></trkpt><trkpt lat="30.027841398979934" lon="-6.628734592914414"><ele>781.0</ele><time>2026-03-23T07:46:17.005Z</time></trkpt><trkpt lat="30.027766105300035" lon="-6.628629083039002"><ele>781.0</ele><time>2026-03-23T07:46:18.005Z</time></trkpt><trkpt lat="30.027690789875624" lon="-6.628526890685588"><ele>781.0</ele><time>2026-03-23T07:46:19.005Z</time></trkpt><trkpt lat="30.027611581256924" lon="-6.628418697215102"><ele>781.0</ele><time>2026-03-23T07:46:20.005Z</time></trkpt><trkpt lat="30.027534496412333" lon="-6.6283092344740995"><ele>781.0</ele><time>2026-03-23T07:46:21.005Z</time></trkpt><trkpt lat="30.027459552689603" lon="-6.628207168749282"><ele>781.0</ele><time>2026-03-23T07:46:22.005Z</time></trkpt><trkpt lat="30.027380043184284" lon="-6.628087976320629"><ele>781.0</ele><time>2026-03-23T07:46:23.005Z</time></trkpt><trkpt lat="30.027296422838457" lon="-6.627967493146838"><ele>781.0</ele><time>2026-03-23T07:46:24.005Z</time></trkpt><trkpt lat="30.027215082335893" lon="-6.627857927688549"><ele>781.0</ele><time>2026-03-23T07:46:25.005Z</time></trkpt><trkpt lat="30.027131146375684" lon="-6.627750121762379"><ele>781.0</ele><time>2026-03-23T07:46:26.005Z</time></trkpt><trkpt lat="30.02705920736576" lon="-6.6276490707000635"><ele>780.75</ele><time>2026-03-23T07:46:27.005Z</time></trkpt><trkpt lat="30.02697933677882" lon="-6.627541776390527"><ele>780.5</ele><time>2026-03-23T07:46:28.005Z</time></trkpt><trkpt lat="30.026900005618305" lon="-6.627435979808811"><ele>780.25</ele><time>2026-03-23T07:46:29.005Z</time></trkpt><trkpt lat="30.02682136191469" lon="-6.627313939398153"><ele>780.0</ele><time>2026-03-23T07:46:30.005Z</time></trkpt><trkpt lat="30.02674297701645" lon="-6.627190457217433"><ele>780.0</ele><time>2026-03-23T07:46:31.004Z</time></trkpt><trkpt lat="30.026664380944453" lon="-6.627057235522534"><ele>780.0</ele><time>2026-03-23T07:46:32.004Z</time></trkpt><trkpt lat="30.026596213226107" lon="-6.626925615080796"><ele>780.0</ele><time>2026-03-23T07:46:33.005Z</time></trkpt><trkpt lat="30.02652615100587" lon="-6.626781801295448"><ele>780.0</ele><time>2026-03-23T07:46:34.005Z</time></trkpt><trkpt lat="30.02645080664961" lon="-6.6266339064213176"><ele>780.5</ele><time>2026-03-23T07:46:35.005Z</time></trkpt><trkpt lat="30.026370138651192" lon="-6.6264863614461"><ele>781.0</ele><time>2026-03-23T07:46:36.005Z</time></trkpt><trkpt lat="30.026288005537417" lon="-6.62634966717085"><ele>781.5</ele><time>2026-03-23T07:46:37.004Z</time></trkpt><trkpt lat="30.02620679435744" lon="-6.626242743540189"><ele>782.0</ele><time>2026-03-23T07:46:38.004Z</time></trkpt><trkpt lat="30.02609523105522" lon="-6.626157629240082"><ele>782.0</ele><time>2026-03-23T07:46:39.004Z</time></trkpt><trkpt lat="30.025994243830407" lon="-6.6260706473750455"><ele>782.0</ele><time>2026-03-23T07:46:40.004Z</time></trkpt><trkpt lat="30.025920986950037" lon="-6.625991526233568"><ele>782.0</ele><time>2026-03-23T07:46:41.004Z</time></trkpt><trkpt lat="30.025858401372762" lon="-6.625912268245891"><ele>782.0</ele><time>2026-03-23T07:46:42.004Z</time></trkpt><trkpt lat="30.025806947222698" lon="-6.625835762289707"><ele>782.0</ele><time>2026-03-23T07:46:43.005Z</time></trkpt><trkpt lat="30.02575832853177" lon="-6.625771182003523"><ele>782.0</ele><time>2026-03-23T07:46:44.005Z</time></trkpt><trkpt lat="30.02568552205921" lon="-6.625683050957267"><ele>782.0</ele><time>2026-03-23T07:46:46.005Z</time></trkpt><trkpt lat="30.025636074890063" lon="-6.625632392340734"><ele>782.0</ele><time>2026-03-23T07:46:49.005Z</time></trkpt><trkpt lat="30.025623620253196" lon="-6.625560633230039"><ele>782.0</ele><time>2026-03-23T07:53:42.005Z</time></trkpt><trkpt lat="30.025629090306605" lon="-6.625668391475625"><ele>782.0</ele><time>2026-03-23T08:01:44.005Z</time></trkpt></trkseg><trkseg><trkpt lat="30.02561814533525" lon="-6.625543775617345"><ele>782.0</ele><time>2026-03-23T08:23:42.993Z</time></trkpt><trkpt lat="30.025578258013635" lon="-6.625462114042525"><ele>782.0</ele><time>2026-03-23T08:23:43.993Z</time></trkpt><trkpt lat="30.025514787175688" lon="-6.625381358562306"><ele>782.0</ele><time>2026-03-23T08:23:44.993Z</time></trkpt><trkpt lat="30.025445883496864" lon="-6.625297638646548"><ele>782.0</ele><time>2026-03-23T08:23:45.993Z</time></trkpt><trkpt lat="30.025384303076702" lon="-6.62520757491966"><ele>782.0</ele><time>2026-03-23T08:23:46.993Z</time></trkpt><trkpt lat="30.02529977604544" lon="-6.625099296998552"><ele>781.75</ele><time>2026-03-23T08:23:47.993Z</time></trkpt><trkpt lat="30.025217204632124" lon="-6.624980546628702"><ele>781.5</ele><time>2026-03-23T08:23:48.993Z</time></trkpt><trkpt lat="30.025138548050037" lon="-6.624866834990022"><ele>781.25</ele><time>2026-03-23T08:23:49.993Z</time></trkpt><trkpt lat="30.02505405014074" lon="-6.624763320236413"><ele>781.0</ele><time>2026-03-23T08:23:50.993Z</time></trkpt><trkpt lat="30.024972814813708" lon="-6.624654687204609"><ele>781.0</ele><time>2026-03-23T08:23:51.993Z</time></trkpt><trkpt lat="30.024884912268572" lon="-6.6245231052879445"><ele>781.0</ele><time>2026-03-23T08:23:52.993Z</time></trkpt><trkpt lat="30.02480988850146" lon="-6.624389264023987"><ele>781.0</ele><time>2026-03-23T08:23:53.993Z</time></trkpt><trkpt lat="30.024717822468627" lon="-6.624270772337208"><ele>781.0</ele><time>2026-03-23T08:23:54.993Z</time></trkpt><trkpt lat="30.024624769745163" lon="-6.624162557620351"><ele>781.5</ele><time>2026-03-23T08:23:55.993Z</time></trkpt><trkpt lat="30.024554262842635" lon="-6.62404458106686"><ele>782.0</ele><time>2026-03-23T08:23:56.993Z</time></trkpt><trkpt lat="30.024487353288475" lon="-6.623931382281832"><ele>782.5</ele><time>2026-03-23T08:23:57.993Z</time></trkpt><trkpt lat="30.024411817446715" lon="-6.623812092906778"><ele>783.0</ele><time>2026-03-23T08:23:58.993Z</time></trkpt><trkpt lat="30.024319846240758" lon="-6.623688527375922"><ele>782.8</ele><time>2026-03-23T08:23:59.993Z</time></trkpt><trkpt lat="30.02423966178484" lon="-6.623569469705032"><ele>782.5999999999999</ele><time>2026-03-23T08:24:00.993Z</time></trkpt><trkpt lat="30.024169701152413" lon="-6.6234801501348795"><ele>782.4000000000001</ele><time>2026-03-23T08:24:01.993Z</time></trkpt><trkpt lat="30.02411399558419" lon="-6.623374911991967"><ele>782.2</ele><time>2026-03-23T08:24:02.993Z</time></trkpt><trkpt lat="30.024067233378595" lon="-6.623264356752785"><ele>782.0</ele><time>2026-03-23T08:24:03.993Z</time></trkpt><trkpt lat="30.02402859666803" lon="-6.623133060717455"><ele>782.0</ele><time>2026-03-23T08:24:04.993Z</time></trkpt><trkpt lat="30.02399623213642" lon="-6.622983853182335"><ele>782.0</ele><time>2026-03-23T08:24:05.993Z</time></trkpt><trkpt lat="30.02396742454079" lon="-6.622810807318233"><ele>782.0</ele><time>2026-03-23T08:24:06.993Z</time></trkpt><trkpt lat="30.023941266902092" lon="-6.622640474214092"><ele>782.0</ele><time>2026-03-23T08:24:07.993Z</time></trkpt><trkpt lat="30.02389687300868" lon="-6.62247460403586"><ele>782.25</ele><time>2026-03-23T08:24:08.993Z</time></trkpt><trkpt lat="30.023831539319733" lon="-6.622323726396099"><ele>782.5</ele><time>2026-03-23T08:24:09.993Z</time></trkpt><trkpt lat="30.023742596706043" lon="-6.622180474266433"><ele>782.75</ele><time>2026-03-23T08:24:10.993Z</time></trkpt><trkpt lat="30.023647045179597" lon="-6.622045888619808"><ele>783.0</ele><time>2026-03-23T08:24:11.993Z</time></trkpt><trkpt lat="30.023553863924633" lon="-6.62191106030955"><ele>783.0</ele><time>2026-03-23T08:24:12.993Z</time></trkpt><trkpt lat="30.023472179336373" lon="-6.621771334901133"><ele>783.0</ele><time>2026-03-23T08:24:13.993Z</time></trkpt><trkpt lat="30.023405712258192" lon="-6.621626473201833"><ele>783.0</ele><time>2026-03-23T08:24:14.993Z</time></trkpt><trkpt lat="30.023360364516236" lon="-6.621472624876489"><ele>783.0</ele><time>2026-03-23T08:24:15.993Z</time></trkpt><trkpt lat="30.023313513504192" lon="-6.621321845268091"><ele>783.0</ele><time>2026-03-23T08:24:16.992Z</time></trkpt><trkpt lat="30.02325497934197" lon="-6.6211881565391915"><ele>783.0</ele><time>2026-03-23T08:24:17.992Z</time></trkpt><trkpt lat="30.023206407636415" lon="-6.621049666094711"><ele>783.0</ele><time>2026-03-23T08:24:18.992Z</time></trkpt><trkpt lat="30.023171021051905" lon="-6.620923078747843"><ele>783.0</ele><time>2026-03-23T08:24:19.992Z</time></trkpt><trkpt lat="30.023148172275683" lon="-6.620781412117383"><ele>783.25</ele><time>2026-03-23T08:24:20.992Z</time></trkpt><trkpt lat="30.02313233280442" lon="-6.620637097583506"><ele>783.5</ele><time>2026-03-23T08:24:21.992Z</time></trkpt><trkpt lat="30.02309825814866" lon="-6.620500608902858"><ele>783.75</ele><time>2026-03-23T08:24:22.992Z</time></trkpt><trkpt lat="30.023045854452608" lon="-6.620391895340501"><ele>784.0</ele><time>2026-03-23T08:24:23.992Z</time></trkpt><trkpt lat="30.02296387930481" lon="-6.620286884795159"><ele>784.25</ele><time>2026-03-23T08:24:24.992Z</time></trkpt><trkpt lat="30.022861944726777" lon="-6.620177658803646"><ele>784.5</ele><time>2026-03-23T08:24:25.992Z</time></trkpt><trkpt lat="30.022761437575355" lon="-6.620056277210778"><ele>784.75</ele><time>2026-03-23T08:24:26.992Z</time></trkpt><trkpt lat="30.022662988027367" lon="-6.619923489180734"><ele>785.0</ele><time>2026-03-23T08:24:27.992Z</time></trkpt><trkpt lat="30.022565028737805" lon="-6.619781309347073"><ele>785.6666666666667</ele><time>2026-03-23T08:24:28.992Z</time></trkpt><trkpt lat="30.022455780422153" lon="-6.619644997941459"><ele>786.3333333333333</ele><time>2026-03-23T08:24:29.992Z</time></trkpt><trkpt lat="30.022363186290427" lon="-6.6195112032690275"><ele>787.0</ele><time>2026-03-23T08:24:30.992Z</time></trkpt><trkpt lat="30.022275172596437" lon="-6.619376586627045"><ele>787.0</ele><time>2026-03-23T08:24:31.992Z</time></trkpt><trkpt lat="30.02216602306521" lon="-6.61925336656295"><ele>787.0</ele><time>2026-03-23T08:24:32.992Z</time></trkpt><trkpt lat="30.0220500806845" lon="-6.6191413873347935"><ele>787.0</ele><time>2026-03-23T08:24:33.992Z</time></trkpt><trkpt lat="30.021930087583037" lon="-6.619033420426282"><ele>787.0</ele><time>2026-03-23T08:24:34.992Z</time></trkpt><trkpt lat="30.021807346980545" lon="-6.618934804668933"><ele>787.0</ele><time>2026-03-23T08:24:35.992Z</time></trkpt><trkpt lat="30.021701286868307" lon="-6.618850572019103"><ele>787.0</ele><time>2026-03-23T08:24:36.992Z</time></trkpt><trkpt lat="30.021612156203652" lon="-6.618777095004122"><ele>787.0</ele><time>2026-03-23T08:24:37.992Z</time></trkpt><trkpt lat="30.02152335836216" lon="-6.6187027444207"><ele>787.25</ele><time>2026-03-23T08:24:38.992Z</time></trkpt><trkpt lat="30.021428965001505" lon="-6.618633326758357"><ele>787.5</ele><time>2026-03-23T08:24:39.992Z</time></trkpt><trkpt lat="30.021330845846794" lon="-6.618538885908499"><ele>787.75</ele><time>2026-03-23T08:24:40.992Z</time></trkpt><trkpt lat="30.02124489083404" lon="-6.618428100431758"><ele>788.0</ele><time>2026-03-23T08:24:41.992Z</time></trkpt><trkpt lat="30.021157138865547" lon="-6.618305908351312"><ele>788.0</ele><time>2026-03-23T08:24:42.992Z</time></trkpt><trkpt lat="30.02107258888269" lon="-6.618162579498496"><ele>788.0</ele><time>2026-03-23T08:24:43.992Z</time></trkpt><trkpt lat="30.020991868558795" lon="-6.618008039564718"><ele>788.0</ele><time>2026-03-23T08:24:44.992Z</time></trkpt><trkpt lat="30.02090360770184" lon="-6.6178767947907655"><ele>788.4</ele><time>2026-03-23T08:24:45.992Z</time></trkpt><trkpt lat="30.02083104597939" lon="-6.617771511153668"><ele>788.8</ele><time>2026-03-23T08:24:46.992Z</time></trkpt><trkpt lat="30.02077672049189" lon="-6.617678107321121"><ele>789.2</ele><time>2026-03-23T08:24:47.992Z</time></trkpt><trkpt lat="30.02075771331277" lon="-6.617535236206675"><ele>789.6</ele><time>2026-03-23T08:24:49.992Z</time></trkpt><trkpt lat="30.020768047057636" lon="-6.617437259911086"><ele>790.0</ele><time>2026-03-23T08:24:50.992Z</time></trkpt><trkpt lat="30.020802711212596" lon="-6.617315286624448"><ele>790.0</ele><time>2026-03-23T08:24:51.992Z</time></trkpt><trkpt lat="30.02085702742209" lon="-6.617176359385517"><ele>790.0</ele><time>2026-03-23T08:24:52.992Z</time></trkpt><trkpt lat="30.020899337667903" lon="-6.617025131340171"><ele>790.0</ele><time>2026-03-23T08:24:53.992Z</time></trkpt><trkpt lat="30.020928407499895" lon="-6.6168736984372"><ele>790.0</ele><time>2026-03-23T08:24:54.992Z</time></trkpt><trkpt lat="30.02094811523555" lon="-6.616714188552567"><ele>790.0</ele><time>2026-03-23T08:24:55.992Z</time></trkpt><trkpt lat="30.020977302114535" lon="-6.6165630845023005"><ele>790.0</ele><time>2026-03-23T08:24:56.992Z</time></trkpt><trkpt lat="30.021000870365462" lon="-6.616416684164474"><ele>790.0</ele><time>2026-03-23T08:24:57.992Z</time></trkpt><trkpt lat="30.021023543666615" lon="-6.616282140285364"><ele>790.0</ele><time>2026-03-23T08:24:58.992Z</time></trkpt><trkpt lat="30.021064784801002" lon="-6.616131754273659"><ele>790.0</ele><time>2026-03-23T08:24:59.992Z</time></trkpt><trkpt lat="30.02108777408235" lon="-6.615988993613071"><ele>790.0</ele><time>2026-03-23T08:25:00.992Z</time></trkpt><trkpt lat="30.021111144310353" lon="-6.615833625637607"><ele>790.0</ele><time>2026-03-23T08:25:01.992Z</time></trkpt><trkpt lat="30.021138020178366" lon="-6.615666943296647"><ele>790.0</ele><time>2026-03-23T08:25:02.992Z</time></trkpt><trkpt lat="30.021182358477024" lon="-6.615500090489097"><ele>790.0</ele><time>2026-03-23T08:25:03.992Z</time></trkpt><trkpt lat="30.021219184805418" lon="-6.615329212243359"><ele>790.0</ele><time>2026-03-23T08:25:04.992Z</time></trkpt><trkpt lat="30.021243588702408" lon="-6.61515461082865"><ele>790.0</ele><time>2026-03-23T08:25:05.992Z</time></trkpt><trkpt lat="30.021271266932292" lon="-6.614982801690153"><ele>790.25</ele><time>2026-03-23T08:25:06.992Z</time></trkpt><trkpt lat="30.021298915017557" lon="-6.614822919893212"><ele>790.5</ele><time>2026-03-23T08:25:07.992Z</time></trkpt><trkpt lat="30.021334677776803" lon="-6.614656379336903"><ele>790.75</ele><time>2026-03-23T08:25:08.992Z</time></trkpt><trkpt lat="30.021365702774432" lon="-6.614481995893953"><ele>791.0</ele><time>2026-03-23T08:25:09.992Z</time></trkpt><trkpt lat="30.021402202081052" lon="-6.614310184325596"><ele>791.25</ele><time>2026-03-23T08:25:10.992Z</time></trkpt><trkpt lat="30.02143532883656" lon="-6.61413874335093"><ele>791.5</ele><time>2026-03-23T08:25:11.992Z</time></trkpt><trkpt lat="30.021464762321877" lon="-6.613986602369183"><ele>791.75</ele><time>2026-03-23T08:25:12.992Z</time></trkpt><trkpt lat="30.021490035922863" lon="-6.613844934733972"><ele>792.0</ele><time>2026-03-23T08:25:13.992Z</time></trkpt><trkpt lat="30.021510448050932" lon="-6.613715096913189"><ele>792.2</ele><time>2026-03-23T08:25:14.992Z</time></trkpt><trkpt lat="30.021530781376107" lon="-6.613585073277588"><ele>792.4000000000001</ele><time>2026-03-23T08:25:15.992Z</time></trkpt><trkpt lat="30.021551737517925" lon="-6.613463317520354"><ele>792.5999999999999</ele><time>2026-03-23T08:25:16.992Z</time></trkpt><trkpt lat="30.021581810643404" lon="-6.613339987183018"><ele>792.8</ele><time>2026-03-23T08:25:17.992Z</time></trkpt><trkpt lat="30.0216127304552" lon="-6.613215848844123"><ele>793.0</ele><time>2026-03-23T08:25:18.992Z</time></trkpt><trkpt lat="30.021640719166356" lon="-6.613075209384994"><ele>792.25</ele><time>2026-03-23T08:25:19.992Z</time></trkpt><trkpt lat="30.02165958759495" lon="-6.6129253778444435"><ele>791.5</ele><time>2026-03-23T08:25:20.992Z</time></trkpt><trkpt lat="30.021692200143384" lon="-6.612763615379326"><ele>790.75</ele><time>2026-03-23T08:25:21.992Z</time></trkpt><trkpt lat="30.021725465957715" lon="-6.612595868185699"><ele>790.0</ele><time>2026-03-23T08:25:22.992Z</time></trkpt><trkpt lat="30.021754462154426" lon="-6.612426078917935"><ele>790.0</ele><time>2026-03-23T08:25:23.993Z</time></trkpt><trkpt lat="30.02178901234292" lon="-6.612260753452329"><ele>790.0</ele><time>2026-03-23T08:25:24.993Z</time></trkpt><trkpt lat="30.02182099764449" lon="-6.612108321845189"><ele>790.0</ele><time>2026-03-23T08:25:25.993Z</time></trkpt><trkpt lat="30.021850792366315" lon="-6.611952958807407"><ele>790.0</ele><time>2026-03-23T08:25:26.993Z</time></trkpt><trkpt lat="30.021877633767417" lon="-6.611801477045169"><ele>790.5</ele><time>2026-03-23T08:25:27.992Z</time></trkpt><trkpt lat="30.021906250479947" lon="-6.611658328910541"><ele>791.0</ele><time>2026-03-23T08:25:28.992Z</time></trkpt><trkpt lat="30.02192749569263" lon="-6.611507996709896"><ele>791.5</ele><time>2026-03-23T08:25:29.993Z</time></trkpt><trkpt lat="30.02195574176746" lon="-6.61136769468981"><ele>792.0</ele><time>2026-03-23T08:25:30.992Z</time></trkpt><trkpt lat="30.021982539506578" lon="-6.611220792781333"><ele>792.0</ele><time>2026-03-23T08:25:31.992Z</time></trkpt><trkpt lat="30.022008016198665" lon="-6.611078702084378"><ele>792.0</ele><time>2026-03-23T08:25:32.992Z</time></trkpt><trkpt lat="30.022030587931184" lon="-6.610945201680561"><ele>792.0</ele><time>2026-03-23T08:25:33.993Z</time></trkpt><trkpt lat="30.0220603532649" lon="-6.610820760438123"><ele>792.0</ele><time>2026-03-23T08:25:34.993Z</time></trkpt><trkpt lat="30.022083841779445" lon="-6.610699850928493"><ele>792.0</ele><time>2026-03-23T08:25:35.992Z</time></trkpt><trkpt lat="30.02210204430138" lon="-6.610611368318431"><ele>792.0</ele><time>2026-03-23T08:25:36.993Z</time></trkpt><trkpt lat="30.022121795870476" lon="-6.610532105199348"><ele>792.0</ele><time>2026-03-23T08:25:37.993Z</time></trkpt><trkpt lat="30.02214600222852" lon="-6.610439926539751"><ele>792.0</ele><time>2026-03-23T08:25:38.993Z</time></trkpt><trkpt lat="30.02216293595675" lon="-6.610333032761141"><ele>792.0</ele><time>2026-03-23T08:25:39.993Z</time></trkpt><trkpt lat="30.022187515745088" lon="-6.610221556347468"><ele>792.0</ele><time>2026-03-23T08:25:40.993Z</time></trkpt><trkpt lat="30.022210248492044" lon="-6.610103910371955"><ele>792.2</ele><time>2026-03-23T08:25:41.993Z</time></trkpt><trkpt lat="30.022233737526385" lon="-6.609987338909478"><ele>792.4000000000001</ele><time>2026-03-23T08:25:42.993Z</time></trkpt><trkpt lat="30.022256111674928" lon="-6.609865548770923"><ele>792.5999999999999</ele><time>2026-03-23T08:25:43.993Z</time></trkpt><trkpt lat="30.022276207519425" lon="-6.60974169258762"><ele>792.8</ele><time>2026-03-23T08:25:44.993Z</time></trkpt><trkpt lat="30.022300009536142" lon="-6.609621969866585"><ele>793.0</ele><time>2026-03-23T08:25:45.993Z</time></trkpt><trkpt lat="30.022321018469817" lon="-6.609503111388728"><ele>792.8</ele><time>2026-03-23T08:25:46.993Z</time></trkpt><trkpt lat="30.022342373385772" lon="-6.609380267991195"><ele>792.5999999999999</ele><time>2026-03-23T08:25:47.993Z</time></trkpt><trkpt lat="30.02235369296959" lon="-6.6092568409118835"><ele>792.4000000000001</ele><time>2026-03-23T08:25:48.993Z</time></trkpt><trkpt lat="30.02238207080646" lon="-6.609131223396113"><ele>792.2</ele><time>2026-03-23T08:25:49.993Z</time></trkpt><trkpt lat="30.02240477015443" lon="-6.609017095634752"><ele>792.0</ele><time>2026-03-23T08:25:50.993Z</time></trkpt><trkpt lat="30.02242372202611" lon="-6.608917095673496"><ele>792.0</ele><time>2026-03-23T08:25:51.993Z</time></trkpt><trkpt lat="30.022449108570598" lon="-6.608813383202707"><ele>792.0</ele><time>2026-03-23T08:25:52.993Z</time></trkpt><trkpt lat="30.022481419418387" lon="-6.608699877373142"><ele>792.0</ele><time>2026-03-23T08:25:53.993Z</time></trkpt><trkpt lat="30.022502189256812" lon="-6.608569457729414"><ele>792.0</ele><time>2026-03-23T08:25:54.993Z</time></trkpt><trkpt lat="30.022524283314418" lon="-6.608418975968395"><ele>792.0</ele><time>2026-03-23T08:25:55.993Z</time></trkpt><trkpt lat="30.02254603999006" lon="-6.608287178639536"><ele>792.25</ele><time>2026-03-23T08:25:56.993Z</time></trkpt><trkpt lat="30.022576299080157" lon="-6.608147018670882"><ele>792.5</ele><time>2026-03-23T08:25:57.993Z</time></trkpt><trkpt lat="30.02260946995618" lon="-6.60800662250498"><ele>792.75</ele><time>2026-03-23T08:25:58.993Z</time></trkpt><trkpt lat="30.022639784768604" lon="-6.607860973061918"><ele>793.0</ele><time>2026-03-23T08:25:59.993Z</time></trkpt><trkpt lat="30.02266652419827" lon="-6.60772028613125"><ele>793.0</ele><time>2026-03-23T08:26:00.993Z</time></trkpt><trkpt lat="30.022686845520287" lon="-6.607581566928353"><ele>793.0</ele><time>2026-03-23T08:26:01.993Z</time></trkpt><trkpt lat="30.02271306485221" lon="-6.607439742922595"><ele>793.0</ele><time>2026-03-23T08:26:02.993Z</time></trkpt><trkpt lat="30.02274383710012" lon="-6.607296769517068"><ele>793.0</ele><time>2026-03-23T08:26:03.993Z</time></trkpt><trkpt lat="30.022769418156358" lon="-6.607156407674147"><ele>793.0</ele><time>2026-03-23T08:26:04.993Z</time></trkpt><trkpt lat="30.02279726740784" lon="-6.607018405719957"><ele>793.0</ele><time>2026-03-23T08:26:05.993Z</time></trkpt><trkpt lat="30.022831239346793" lon="-6.606876437041715"><ele>793.0</ele><time>2026-03-23T08:26:06.993Z</time></trkpt><trkpt lat="30.02285478918361" lon="-6.606736887610692"><ele>793.0</ele><time>2026-03-23T08:26:07.993Z</time></trkpt><trkpt lat="30.022879951711793" lon="-6.6065980684518"><ele>793.5</ele><time>2026-03-23T08:26:08.993Z</time></trkpt><trkpt lat="30.02290508802691" lon="-6.6064681148643425"><ele>794.0</ele><time>2026-03-23T08:26:09.993Z</time></trkpt><trkpt lat="30.0229334161651" lon="-6.606333646646278"><ele>794.5</ele><time>2026-03-23T08:26:10.993Z</time></trkpt><trkpt lat="30.022959346282356" lon="-6.6061891424360075"><ele>795.0</ele><time>2026-03-23T08:26:11.993Z</time></trkpt><trkpt lat="30.022990636679594" lon="-6.606038504395481"><ele>795.25</ele><time>2026-03-23T08:26:12.993Z</time></trkpt><trkpt lat="30.023018883488177" lon="-6.6058821911039205"><ele>795.5</ele><time>2026-03-23T08:26:13.993Z</time></trkpt><trkpt lat="30.02304718607656" lon="-6.605735517379869"><ele>795.75</ele><time>2026-03-23T08:26:14.993Z</time></trkpt><trkpt lat="30.023071750278152" lon="-6.605590037555184"><ele>796.0</ele><time>2026-03-23T08:26:15.993Z</time></trkpt><trkpt lat="30.023097216535582" lon="-6.605462229533329"><ele>796.0</ele><time>2026-03-23T08:26:16.993Z</time></trkpt><trkpt lat="30.02312243158458" lon="-6.605333761684326"><ele>796.0</ele><time>2026-03-23T08:26:17.993Z</time></trkpt><trkpt lat="30.023142481627218" lon="-6.605206009210715"><ele>796.0</ele><time>2026-03-23T08:26:18.993Z</time></trkpt><trkpt lat="30.023168402448615" lon="-6.605071689119065"><ele>796.0</ele><time>2026-03-23T08:26:19.993Z</time></trkpt><trkpt lat="30.023203400548212" lon="-6.604923983590922"><ele>795.5</ele><time>2026-03-23T08:26:20.993Z</time></trkpt><trkpt lat="30.023237163920854" lon="-6.6047712459418175"><ele>795.0</ele><time>2026-03-23T08:26:21.993Z</time></trkpt><trkpt lat="30.023268841822723" lon="-6.604605792515969"><ele>794.5</ele><time>2026-03-23T08:26:22.993Z</time></trkpt><trkpt lat="30.023301897670628" lon="-6.604442288123742"><ele>794.0</ele><time>2026-03-23T08:26:23.993Z</time></trkpt><trkpt lat="30.023332866715403" lon="-6.604285676233936"><ele>793.5</ele><time>2026-03-23T08:26:24.993Z</time></trkpt><trkpt lat="30.02336358402929" lon="-6.6041366564701445"><ele>793.0</ele><time>2026-03-23T08:26:25.993Z</time></trkpt><trkpt lat="30.023387339997292" lon="-6.603985946980429"><ele>792.5</ele><time>2026-03-23T08:26:26.993Z</time></trkpt><trkpt lat="30.023413237478927" lon="-6.6038380404687596"><ele>792.0</ele><time>2026-03-23T08:26:27.993Z</time></trkpt><trkpt lat="30.023446660146977" lon="-6.6036851021236345"><ele>791.75</ele><time>2026-03-23T08:26:28.993Z</time></trkpt><trkpt lat="30.023483179668233" lon="-6.603527189823991"><ele>791.5</ele><time>2026-03-23T08:26:29.993Z</time></trkpt><trkpt lat="30.023512290505334" lon="-6.603381238572187"><ele>791.25</ele><time>2026-03-23T08:26:30.993Z</time></trkpt><trkpt lat="30.023537264003036" lon="-6.603234496794534"><ele>791.0</ele><time>2026-03-23T08:26:31.993Z</time></trkpt><trkpt lat="30.023562912899934" lon="-6.6030966536599935"><ele>791.0</ele><time>2026-03-23T08:26:32.993Z</time></trkpt><trkpt lat="30.02359537976632" lon="-6.60294568597864"><ele>791.0</ele><time>2026-03-23T08:26:33.993Z</time></trkpt><trkpt lat="30.023623287564956" lon="-6.602793323034898"><ele>791.0</ele><time>2026-03-23T08:26:34.993Z</time></trkpt><trkpt lat="30.023658489584076" lon="-6.6026525759062515"><ele>791.0</ele><time>2026-03-23T08:26:35.993Z</time></trkpt><trkpt lat="30.023687972657445" lon="-6.602516099957919"><ele>791.25</ele><time>2026-03-23T08:26:36.993Z</time></trkpt><trkpt lat="30.02371900890604" lon="-6.602377659926043"><ele>791.5</ele><time>2026-03-23T08:26:37.993Z</time></trkpt><trkpt lat="30.02374436711022" lon="-6.60223400254895"><ele>791.75</ele><time>2026-03-23T08:26:38.993Z</time></trkpt><trkpt lat="30.023770544919255" lon="-6.6020937835406865"><ele>792.0</ele><time>2026-03-23T08:26:39.993Z</time></trkpt><trkpt lat="30.023797005603015" lon="-6.601955208057109"><ele>792.25</ele><time>2026-03-23T08:26:40.993Z</time></trkpt><trkpt lat="30.02382593142411" lon="-6.601820681384619"><ele>792.5</ele><time>2026-03-23T08:26:41.993Z</time></trkpt><trkpt lat="30.023853376265887" lon="-6.601676491497587"><ele>792.75</ele><time>2026-03-23T08:26:42.993Z</time></trkpt><trkpt lat="30.023880538756632" lon="-6.601529090316875"><ele>793.0</ele><time>2026-03-23T08:26:43.993Z</time></trkpt><trkpt lat="30.023910119247837" lon="-6.60138550176191"><ele>793.0</ele><time>2026-03-23T08:26:44.993Z</time></trkpt><trkpt lat="30.023936844774916" lon="-6.6012469550496435"><ele>793.0</ele><time>2026-03-23T08:26:45.993Z</time></trkpt><trkpt lat="30.023950984596723" lon="-6.6011129086903315"><ele>793.0</ele><time>2026-03-23T08:26:46.993Z</time></trkpt><trkpt lat="30.023957159567487" lon="-6.60098700636122"><ele>793.0</ele><time>2026-03-23T08:26:47.993Z</time></trkpt><trkpt lat="30.023963253043906" lon="-6.600858331614555"><ele>793.5</ele><time>2026-03-23T08:26:48.993Z</time></trkpt><trkpt lat="30.023975376688316" lon="-6.600725654663463"><ele>794.0</ele><time>2026-03-23T08:26:49.993Z</time></trkpt><trkpt lat="30.023991844804044" lon="-6.600586012340095"><ele>794.5</ele><time>2026-03-23T08:26:50.993Z</time></trkpt><trkpt lat="30.02401649724583" lon="-6.600437638884733"><ele>795.0</ele><time>2026-03-23T08:26:51.993Z</time></trkpt><trkpt lat="30.024044681268332" lon="-6.6002737151503705"><ele>795.0</ele><time>2026-03-23T08:26:52.993Z</time></trkpt><trkpt lat="30.024078201370518" lon="-6.600106671905805"><ele>795.0</ele><time>2026-03-23T08:26:53.993Z</time></trkpt><trkpt lat="30.02410953029282" lon="-6.599937317566326"><ele>795.0</ele><time>2026-03-23T08:26:54.993Z</time></trkpt><trkpt lat="30.02415013814614" lon="-6.599766668770337"><ele>794.75</ele><time>2026-03-23T08:26:55.993Z</time></trkpt><trkpt lat="30.024183767610356" lon="-6.599608698313495"><ele>794.5</ele><time>2026-03-23T08:26:56.993Z</time></trkpt><trkpt lat="30.024214039020787" lon="-6.599460400886278"><ele>794.25</ele><time>2026-03-23T08:26:57.993Z</time></trkpt><trkpt lat="30.024240649904257" lon="-6.599318211789816"><ele>794.0</ele><time>2026-03-23T08:26:58.993Z</time></trkpt><trkpt lat="30.024267256860334" lon="-6.599164752531178"><ele>794.0</ele><time>2026-03-23T08:26:59.993Z</time></trkpt><trkpt lat="30.024282316836967" lon="-6.59900662918957"><ele>794.0</ele><time>2026-03-23T08:27:00.993Z</time></trkpt><trkpt lat="30.024301012605605" lon="-6.598858671988071"><ele>794.0</ele><time>2026-03-23T08:27:01.993Z</time></trkpt><trkpt lat="30.024319754410033" lon="-6.59869607357356"><ele>794.0</ele><time>2026-03-23T08:27:02.993Z</time></trkpt><trkpt lat="30.024353408353523" lon="-6.598540914549505"><ele>794.25</ele><time>2026-03-23T08:27:03.993Z</time></trkpt><trkpt lat="30.024387824194058" lon="-6.598384455658444"><ele>794.5</ele><time>2026-03-23T08:27:04.993Z</time></trkpt><trkpt lat="30.024400992796892" lon="-6.598225092599917"><ele>794.75</ele><time>2026-03-23T08:27:05.993Z</time></trkpt><trkpt lat="30.024398764015118" lon="-6.598077752482366"><ele>795.0</ele><time>2026-03-23T08:27:06.993Z</time></trkpt><trkpt lat="30.02439246495783" lon="-6.597934864855516"><ele>795.25</ele><time>2026-03-23T08:27:07.993Z</time></trkpt><trkpt lat="30.024382253734764" lon="-6.597794675578935"><ele>795.5</ele><time>2026-03-23T08:27:08.993Z</time></trkpt><trkpt lat="30.024379326494664" lon="-6.597651006240023"><ele>795.75</ele><time>2026-03-23T08:27:09.993Z</time></trkpt><trkpt lat="30.024374439050444" lon="-6.5975078530007485"><ele>796.0</ele><time>2026-03-23T08:27:10.993Z</time></trkpt><trkpt lat="30.024364754757514" lon="-6.597380294660132"><ele>796.0</ele><time>2026-03-23T08:27:11.993Z</time></trkpt><trkpt lat="30.02436148752168" lon="-6.597279299142056"><ele>796.0</ele><time>2026-03-23T08:27:12.993Z</time></trkpt><trkpt lat="30.024366626022122" lon="-6.597154588998978"><ele>796.0</ele><time>2026-03-23T08:27:14.993Z</time></trkpt><trkpt lat="30.024395815268015" lon="-6.597088016660248"><ele>796.0</ele><time>2026-03-23T08:27:16.993Z</time></trkpt><trkpt lat="30.024467941630288" lon="-6.597037450069961"><ele>796.0</ele><time>2026-03-23T08:27:44.992Z</time></trkpt><trkpt lat="30.024581426730226" lon="-6.596965912529448"><ele>796.1666666666666</ele><time>2026-03-23T08:27:46.992Z</time></trkpt><trkpt lat="30.024637679161103" lon="-6.596932712434844"><ele>796.3333333333333</ele><time>2026-03-23T08:27:47.992Z</time></trkpt><trkpt lat="30.02470236762117" lon="-6.596918028398801"><ele>796.5</ele><time>2026-03-23T08:27:48.992Z</time></trkpt><trkpt lat="30.024773364624675" lon="-6.596909242539608"><ele>796.6666666666667</ele><time>2026-03-23T08:27:49.992Z</time></trkpt><trkpt lat="30.02487437963305" lon="-6.596929447592913"><ele>796.8333333333334</ele><time>2026-03-23T08:27:50.992Z</time></trkpt><trkpt lat="30.024982521789386" lon="-6.596973804308069"><ele>797.0</ele><time>2026-03-23T08:27:51.992Z</time></trkpt><trkpt lat="30.02508882803006" lon="-6.597019967712409"><ele>796.6666666666667</ele><time>2026-03-23T08:27:52.992Z</time></trkpt><trkpt lat="30.025176767008006" lon="-6.597049276552599"><ele>796.3333333333334</ele><time>2026-03-23T08:27:53.992Z</time></trkpt><trkpt lat="30.0252495931167" lon="-6.59707911760211"><ele>796.0</ele><time>2026-03-23T08:27:54.992Z</time></trkpt><trkpt lat="30.02532710314129" lon="-6.597104453294999"><ele>795.6666666666667</ele><time>2026-03-23T08:27:55.992Z</time></trkpt><trkpt lat="30.025395222704628" lon="-6.59714754076304"><ele>795.3333333333334</ele><time>2026-03-23T08:27:56.992Z</time></trkpt><trkpt lat="30.025468063348555" lon="-6.597186823338076"><ele>795.0</ele><time>2026-03-23T08:27:57.992Z</time></trkpt><trkpt lat="30.02554148561807" lon="-6.597230348088848"><ele>795.0</ele><time>2026-03-23T08:27:58.992Z</time></trkpt><trkpt lat="30.025623858248196" lon="-6.5972734992667705"><ele>795.0</ele><time>2026-03-23T08:27:59.992Z</time></trkpt><trkpt lat="30.025692463150868" lon="-6.597327952042801"><ele>795.0</ele><time>2026-03-23T08:28:00.992Z</time></trkpt><trkpt lat="30.02577311950667" lon="-6.597376153080581"><ele>795.0</ele><time>2026-03-23T08:28:01.992Z</time></trkpt><trkpt lat="30.025869824062347" lon="-6.597426037384596"><ele>795.0</ele><time>2026-03-23T08:28:02.992Z</time></trkpt><trkpt lat="30.025985511953248" lon="-6.597471325364027"><ele>794.25</ele><time>2026-03-23T08:28:03.992Z</time></trkpt><trkpt lat="30.026116420096137" lon="-6.597509593618365"><ele>793.5</ele><time>2026-03-23T08:28:04.992Z</time></trkpt><trkpt lat="30.026266282172255" lon="-6.597530740607018"><ele>792.75</ele><time>2026-03-23T08:28:05.992Z</time></trkpt><trkpt lat="30.026428375369743" lon="-6.597540088653625"><ele>792.0</ele><time>2026-03-23T08:28:06.992Z</time></trkpt><trkpt lat="30.026595850839826" lon="-6.5975514171758345"><ele>792.25</ele><time>2026-03-23T08:28:07.992Z</time></trkpt><trkpt lat="30.026744877964152" lon="-6.597576760491232"><ele>792.5</ele><time>2026-03-23T08:28:08.992Z</time></trkpt><trkpt lat="30.02687167967018" lon="-6.597598874164041"><ele>792.75</ele><time>2026-03-23T08:28:09.992Z</time></trkpt><trkpt lat="30.026999718416654" lon="-6.597643792250574"><ele>793.0</ele><time>2026-03-23T08:28:10.992Z</time></trkpt><trkpt lat="30.027143078739552" lon="-6.597703318869572"><ele>793.0</ele><time>2026-03-23T08:28:11.992Z</time></trkpt><trkpt lat="30.02729654757405" lon="-6.597741667427656"><ele>793.0</ele><time>2026-03-23T08:28:12.992Z</time></trkpt><trkpt lat="30.02740971877929" lon="-6.597736537804215"><ele>793.0</ele><time>2026-03-23T08:28:13.992Z</time></trkpt><trkpt lat="30.027507912939953" lon="-6.597721372327605"><ele>793.0</ele><time>2026-03-23T08:28:14.992Z</time></trkpt><trkpt lat="30.02760668213487" lon="-6.5976944950423135"><ele>793.0</ele><time>2026-03-23T08:28:15.992Z</time></trkpt><trkpt lat="30.02771862157451" lon="-6.597630433520602"><ele>793.0</ele><time>2026-03-23T08:28:16.992Z</time></trkpt><trkpt lat="30.027842056948874" lon="-6.597573092179272"><ele>793.0</ele><time>2026-03-23T08:28:17.992Z</time></trkpt><trkpt lat="30.027966905431605" lon="-6.597554023377092"><ele>793.0</ele><time>2026-03-23T08:28:18.992Z</time></trkpt><trkpt lat="30.028106069012445" lon="-6.597589841282528"><ele>793.0</ele><time>2026-03-23T08:28:19.992Z</time></trkpt><trkpt lat="30.028269861840133" lon="-6.597641364625078"><ele>793.0</ele><time>2026-03-23T08:28:20.992Z</time></trkpt><trkpt lat="30.028443469331457" lon="-6.59765702101235"><ele>793.0</ele><time>2026-03-23T08:28:21.992Z</time></trkpt><trkpt lat="30.02859916583467" lon="-6.5976566504818335"><ele>793.0</ele><time>2026-03-23T08:28:22.992Z</time></trkpt><trkpt lat="30.028746289491448" lon="-6.597648945629339"><ele>793.0</ele><time>2026-03-23T08:28:23.992Z</time></trkpt><trkpt lat="30.02888364253037" lon="-6.597644976740705"><ele>793.0</ele><time>2026-03-23T08:28:24.992Z</time></trkpt><trkpt lat="30.029011251709427" lon="-6.597632277882903"><ele>793.0</ele><time>2026-03-23T08:28:25.992Z</time></trkpt><trkpt lat="30.02913464617483" lon="-6.597598435171942"><ele>792.75</ele><time>2026-03-23T08:28:26.992Z</time></trkpt><trkpt lat="30.029254783038446" lon="-6.597548307635737"><ele>792.5</ele><time>2026-03-23T08:28:27.992Z</time></trkpt><trkpt lat="30.02938390480203" lon="-6.597481940551359"><ele>792.25</ele><time>2026-03-23T08:28:28.992Z</time></trkpt><trkpt lat="30.029517171474243" lon="-6.597407169555376"><ele>792.0</ele><time>2026-03-23T08:28:29.992Z</time></trkpt><trkpt lat="30.029660562930086" lon="-6.59733872011166"><ele>792.0</ele><time>2026-03-23T08:28:30.992Z</time></trkpt><trkpt lat="30.029800530187735" lon="-6.5972670104587925"><ele>792.0</ele><time>2026-03-23T08:28:31.992Z</time></trkpt><trkpt lat="30.02994369085319" lon="-6.597194730463837"><ele>792.0</ele><time>2026-03-23T08:28:32.992Z</time></trkpt><trkpt lat="30.030081355972385" lon="-6.597124802433253"><ele>792.0</ele><time>2026-03-23T08:28:33.992Z</time></trkpt><trkpt lat="30.030206398436135" lon="-6.597061520132807"><ele>792.0</ele><time>2026-03-23T08:28:34.992Z</time></trkpt><trkpt lat="30.03032160150575" lon="-6.596999972569901"><ele>792.0</ele><time>2026-03-23T08:28:35.992Z</time></trkpt><trkpt lat="30.030437156798882" lon="-6.596934522740049"><ele>792.0</ele><time>2026-03-23T08:28:36.992Z</time></trkpt><trkpt lat="30.030545819073318" lon="-6.596873414372679"><ele>792.0</ele><time>2026-03-23T08:28:37.992Z</time></trkpt><trkpt lat="30.03064572289116" lon="-6.596821471422793"><ele>792.0</ele><time>2026-03-23T08:28:38.992Z</time></trkpt><trkpt lat="30.03075034327774" lon="-6.596783867322389"><ele>792.0</ele><time>2026-03-23T08:28:39.992Z</time></trkpt><trkpt lat="30.030854559830136" lon="-6.596746277040985"><ele>792.0</ele><time>2026-03-23T08:28:40.992Z</time></trkpt><trkpt lat="30.03096323250628" lon="-6.596719138189135"><ele>792.0</ele><time>2026-03-23T08:28:41.992Z</time></trkpt><trkpt lat="30.031075399251222" lon="-6.596677898716088"><ele>792.0</ele><time>2026-03-23T08:28:42.992Z</time></trkpt><trkpt lat="30.031188453907294" lon="-6.596622022732904"><ele>792.0</ele><time>2026-03-23T08:28:43.992Z</time></trkpt><trkpt lat="30.031314699842497" lon="-6.596570939420789"><ele>792.0</ele><time>2026-03-23T08:28:44.992Z</time></trkpt><trkpt lat="30.031443731969485" lon="-6.596526860609639"><ele>792.0</ele><time>2026-03-23T08:28:45.992Z</time></trkpt><trkpt lat="30.031566397995316" lon="-6.596483048820661"><ele>791.5</ele><time>2026-03-23T08:28:46.992Z</time></trkpt><trkpt lat="30.031675817883553" lon="-6.596428867184882"><ele>791.0</ele><time>2026-03-23T08:28:47.992Z</time></trkpt><trkpt lat="30.031782046149434" lon="-6.596365331675831"><ele>790.5</ele><time>2026-03-23T08:28:48.992Z</time></trkpt><trkpt lat="30.031891005545607" lon="-6.596315752519203"><ele>790.0</ele><time>2026-03-23T08:28:49.992Z</time></trkpt><trkpt lat="30.032013845305176" lon="-6.596267559415076"><ele>790.0</ele><time>2026-03-23T08:28:50.992Z</time></trkpt><trkpt lat="30.03214180801278" lon="-6.596219076477638"><ele>790.0</ele><time>2026-03-23T08:28:51.992Z</time></trkpt><trkpt lat="30.032277915510463" lon="-6.596160306289281"><ele>790.0</ele><time>2026-03-23T08:28:52.992Z</time></trkpt><trkpt lat="30.032432181367582" lon="-6.596099731684881"><ele>790.0</ele><time>2026-03-23T08:28:53.992Z</time></trkpt><trkpt lat="30.032591165961698" lon="-6.596036673211375"><ele>791.0</ele><time>2026-03-23T08:28:54.992Z</time></trkpt><trkpt lat="30.032751485333247" lon="-6.595956615864098"><ele>792.0</ele><time>2026-03-23T08:28:55.992Z</time></trkpt><trkpt lat="30.032896912684226" lon="-6.595874569233224"><ele>793.0</ele><time>2026-03-23T08:28:56.992Z</time></trkpt><trkpt lat="30.03302684081415" lon="-6.595815911290868"><ele>793.0</ele><time>2026-03-23T08:28:57.992Z</time></trkpt><trkpt lat="30.033140741591133" lon="-6.59576166315609"><ele>793.0</ele><time>2026-03-23T08:28:58.992Z</time></trkpt><trkpt lat="30.03325695504731" lon="-6.595703335409968"><ele>793.0</ele><time>2026-03-23T08:28:59.992Z</time></trkpt><trkpt lat="30.03337680290454" lon="-6.595653352503458"><ele>793.0</ele><time>2026-03-23T08:29:00.992Z</time></trkpt><trkpt lat="30.033490462858595" lon="-6.595600414990404"><ele>792.5</ele><time>2026-03-23T08:29:01.992Z</time></trkpt><trkpt lat="30.033607213725308" lon="-6.595552557631355"><ele>792.0</ele><time>2026-03-23T08:29:02.992Z</time></trkpt><trkpt lat="30.033733104865565" lon="-6.595498545095033"><ele>791.5</ele><time>2026-03-23T08:29:03.992Z</time></trkpt><trkpt lat="30.03385512317713" lon="-6.595426836997553"><ele>791.0</ele><time>2026-03-23T08:29:04.992Z</time></trkpt><trkpt lat="30.033979652084515" lon="-6.59535139217669"><ele>791.0</ele><time>2026-03-23T08:29:05.992Z</time></trkpt><trkpt lat="30.034113449870166" lon="-6.595268957321613"><ele>791.0</ele><time>2026-03-23T08:29:06.992Z</time></trkpt><trkpt lat="30.034233760545582" lon="-6.595195656423998"><ele>791.0</ele><time>2026-03-23T08:29:07.992Z</time></trkpt><trkpt lat="30.03434583572735" lon="-6.595124474807734"><ele>791.0</ele><time>2026-03-23T08:29:08.992Z</time></trkpt><trkpt lat="30.034455605666732" lon="-6.5950620930186705"><ele>791.25</ele><time>2026-03-23T08:29:09.992Z</time></trkpt><trkpt lat="30.03456830387942" lon="-6.595002031204206"><ele>791.5</ele><time>2026-03-23T08:29:10.992Z</time></trkpt><trkpt lat="30.034687278939728" lon="-6.594952399175396"><ele>791.75</ele><time>2026-03-23T08:29:11.992Z</time></trkpt><trkpt lat="30.034832599789148" lon="-6.594937914287908"><ele>792.0</ele><time>2026-03-23T08:29:12.992Z</time></trkpt><trkpt lat="30.034982522934918" lon="-6.594939129113807"><ele>792.0</ele><time>2026-03-23T08:29:13.992Z</time></trkpt><trkpt lat="30.03512753158277" lon="-6.594925975808458"><ele>792.0</ele><time>2026-03-23T08:29:14.992Z</time></trkpt><trkpt lat="30.035263287590784" lon="-6.594922089798779"><ele>792.0</ele><time>2026-03-23T08:29:15.992Z</time></trkpt><trkpt lat="30.035402338702198" lon="-6.594927905525262"><ele>792.0</ele><time>2026-03-23T08:29:16.992Z</time></trkpt><trkpt lat="30.035507523624027" lon="-6.594934044182754"><ele>792.0</ele><time>2026-03-23T08:29:17.992Z</time></trkpt><trkpt lat="30.03558558833789" lon="-6.594926943019098"><ele>792.0</ele><time>2026-03-23T08:29:18.992Z</time></trkpt><trkpt lat="30.03565022217588" lon="-6.594899886579716"><ele>792.0</ele><time>2026-03-23T08:29:19.992Z</time></trkpt><trkpt lat="30.0357339447899" lon="-6.594821328250158"><ele>792.0</ele><time>2026-03-23T08:29:21.992Z</time></trkpt><trkpt lat="30.035768699716908" lon="-6.594726305526956"><ele>792.0</ele><time>2026-03-23T08:29:23.992Z</time></trkpt><trkpt lat="30.035731181034233" lon="-6.594627091695767"><ele>792.0</ele><time>2026-03-23T08:29:25.992Z</time></trkpt><trkpt lat="30.035675201172868" lon="-6.5945739442844165"><ele>792.1666666666666</ele><time>2026-03-23T08:29:27.992Z</time></trkpt><trkpt lat="30.0356329976955" lon="-6.59450265239449"><ele>792.3333333333333</ele><time>2026-03-23T08:29:29.992Z</time></trkpt><trkpt lat="30.03557785425839" lon="-6.594396898081614"><ele>792.5</ele><time>2026-03-23T08:29:31.992Z</time></trkpt><trkpt lat="30.035511597293958" lon="-6.594279768194893"><ele>792.6666666666666</ele><time>2026-03-23T08:29:33.992Z</time></trkpt><trkpt lat="30.035473666151677" lon="-6.594216973307921"><ele>792.8333333333333</ele><time>2026-03-23T08:29:34.992Z</time></trkpt><trkpt lat="30.035435080242422" lon="-6.594147683584208"><ele>793.0</ele><time>2026-03-23T08:29:35.992Z</time></trkpt><trkpt lat="30.035391648668842" lon="-6.59406881453336"><ele>793.0</ele><time>2026-03-23T08:29:36.992Z</time></trkpt><trkpt lat="30.03534754124315" lon="-6.5939800033340905"><ele>793.0</ele><time>2026-03-23T08:29:37.992Z</time></trkpt><trkpt lat="30.035302007635735" lon="-6.59387914240305"><ele>793.0</ele><time>2026-03-23T08:29:38.992Z</time></trkpt><trkpt lat="30.035250398025386" lon="-6.593773306933222"><ele>793.0</ele><time>2026-03-23T08:29:39.992Z</time></trkpt><trkpt lat="30.035197402620227" lon="-6.593653053171684"><ele>793.0</ele><time>2026-03-23T08:29:40.992Z</time></trkpt><trkpt lat="30.035137513475245" lon="-6.5935215304424215"><ele>793.25</ele><time>2026-03-23T08:29:41.993Z</time></trkpt><trkpt lat="30.03507487367066" lon="-6.593387312128968"><ele>793.5</ele><time>2026-03-23T08:29:42.992Z</time></trkpt><trkpt lat="30.035012854342447" lon="-6.593239214256857"><ele>793.75</ele><time>2026-03-23T08:29:43.992Z</time></trkpt><trkpt lat="30.034951266321894" lon="-6.593092915283587"><ele>794.0</ele><time>2026-03-23T08:29:44.992Z</time></trkpt><trkpt lat="30.03489252129672" lon="-6.592939408799319"><ele>794.3333333333334</ele><time>2026-03-23T08:29:45.992Z</time></trkpt><trkpt lat="30.034828277709575" lon="-6.5927779504517"><ele>794.6666666666667</ele><time>2026-03-23T08:29:46.992Z</time></trkpt><trkpt lat="30.034767972700713" lon="-6.592610194112316"><ele>795.0</ele><time>2026-03-23T08:29:47.993Z</time></trkpt><trkpt lat="30.034700242326867" lon="-6.59243365528773"><ele>795.0</ele><time>2026-03-23T08:29:48.992Z</time></trkpt><trkpt lat="30.034622535149897" lon="-6.592237017030911"><ele>795.0</ele><time>2026-03-23T08:29:49.992Z</time></trkpt><trkpt lat="30.034539132490277" lon="-6.592011617985706"><ele>795.0</ele><time>2026-03-23T08:29:50.992Z</time></trkpt><trkpt lat="30.034456149534314" lon="-6.591796258867754"><ele>795.3333333333333</ele><time>2026-03-23T08:29:51.992Z</time></trkpt><trkpt lat="30.03437651111767" lon="-6.591594103945625"><ele>795.6666666666666</ele><time>2026-03-23T08:29:52.992Z</time></trkpt><trkpt lat="30.034301171713498" lon="-6.591392472046749"><ele>796.0</ele><time>2026-03-23T08:29:53.992Z</time></trkpt><trkpt lat="30.03421722778721" lon="-6.591181102225315"><ele>795.6666666666666</ele><time>2026-03-23T08:29:54.992Z</time></trkpt><trkpt lat="30.03413942320328" lon="-6.590975438249187"><ele>795.3333333333333</ele><time>2026-03-23T08:29:55.992Z</time></trkpt><trkpt lat="30.03406185555013" lon="-6.590773133719883"><ele>795.0</ele><time>2026-03-23T08:29:56.992Z</time></trkpt><trkpt lat="30.03398502548218" lon="-6.590569133882443"><ele>795.0</ele><time>2026-03-23T08:29:57.992Z</time></trkpt><trkpt lat="30.033917445527813" lon="-6.590371816534871"><ele>795.0</ele><time>2026-03-23T08:29:58.992Z</time></trkpt><trkpt lat="30.03384041021722" lon="-6.590169126345535"><ele>795.0</ele><time>2026-03-23T08:29:59.992Z</time></trkpt><trkpt lat="30.03376355949539" lon="-6.589979471404746"><ele>795.3333333333333</ele><time>2026-03-23T08:30:00.992Z</time></trkpt><trkpt lat="30.033682368857775" lon="-6.58978309092683"><ele>795.6666666666666</ele><time>2026-03-23T08:30:01.992Z</time></trkpt><trkpt lat="30.033604959122634" lon="-6.58958478609173"><ele>796.0</ele><time>2026-03-23T08:30:02.992Z</time></trkpt><trkpt lat="30.033531009343378" lon="-6.589387975057735"><ele>796.0</ele><time>2026-03-23T08:30:03.992Z</time></trkpt><trkpt lat="30.033454462516335" lon="-6.589192228124243"><ele>796.0</ele><time>2026-03-23T08:30:04.992Z</time></trkpt><trkpt lat="30.033383455301372" lon="-6.589001231876929"><ele>796.0</ele><time>2026-03-23T08:30:05.992Z</time></trkpt><trkpt lat="30.03330531067284" lon="-6.5888093304095525"><ele>796.0</ele><time>2026-03-23T08:30:06.992Z</time></trkpt><trkpt lat="30.03322949154564" lon="-6.588620031868092"><ele>796.0</ele><time>2026-03-23T08:30:07.992Z</time></trkpt><trkpt lat="30.033152461004565" lon="-6.588425245808576"><ele>796.0</ele><time>2026-03-23T08:30:08.992Z</time></trkpt><trkpt lat="30.033073176930042" lon="-6.588232381564759"><ele>796.0</ele><time>2026-03-23T08:30:09.992Z</time></trkpt><trkpt lat="30.032996973235594" lon="-6.588039356448504"><ele>796.0</ele><time>2026-03-23T08:30:10.992Z</time></trkpt><trkpt lat="30.032919547737627" lon="-6.58784365025378"><ele>796.0</ele><time>2026-03-23T08:30:11.992Z</time></trkpt><trkpt lat="30.03284705589936" lon="-6.587650229945098"><ele>796.3333333333333</ele><time>2026-03-23T08:30:12.992Z</time></trkpt><trkpt lat="30.032774718570483" lon="-6.587455501430581"><ele>796.6666666666667</ele><time>2026-03-23T08:30:13.992Z</time></trkpt><trkpt lat="30.03270140707819" lon="-6.587258892562735"><ele>797.0</ele><time>2026-03-23T08:30:14.992Z</time></trkpt><trkpt lat="30.032625614501963" lon="-6.587060655849132"><ele>797.3333333333334</ele><time>2026-03-23T08:30:15.992Z</time></trkpt><trkpt lat="30.03255000814679" lon="-6.586855680041144"><ele>797.6666666666667</ele><time>2026-03-23T08:30:16.992Z</time></trkpt><trkpt lat="30.032471010023553" lon="-6.58665166808146"><ele>798.0</ele><time>2026-03-23T08:30:17.992Z</time></trkpt><trkpt lat="30.03239596855933" lon="-6.58645028453181"><ele>798.0</ele><time>2026-03-23T08:30:18.992Z</time></trkpt><trkpt lat="30.032321120052856" lon="-6.58625037937577"><ele>798.0</ele><time>2026-03-23T08:30:19.992Z</time></trkpt><trkpt lat="30.032242396706064" lon="-6.5860525950681925"><ele>798.0</ele><time>2026-03-23T08:30:20.992Z</time></trkpt><trkpt lat="30.03216281282879" lon="-6.585855863663726"><ele>798.3333333333333</ele><time>2026-03-23T08:30:21.992Z</time></trkpt><trkpt lat="30.032084904061477" lon="-6.585660730299969"><ele>798.6666666666666</ele><time>2026-03-23T08:30:22.992Z</time></trkpt><trkpt lat="30.03200893444387" lon="-6.585466515217191"><ele>799.0</ele><time>2026-03-23T08:30:23.992Z</time></trkpt><trkpt lat="30.03193504979284" lon="-6.585272735546442"><ele>799.3333333333333</ele><time>2026-03-23T08:30:24.992Z</time></trkpt><trkpt lat="30.031856496331716" lon="-6.585076434976409"><ele>799.6666666666667</ele><time>2026-03-23T08:30:25.992Z</time></trkpt><trkpt lat="30.031780149164153" lon="-6.584880724910653"><ele>800.0</ele><time>2026-03-23T08:30:26.992Z</time></trkpt><trkpt lat="30.031701481665774" lon="-6.584678934682297"><ele>800.3333333333334</ele><time>2026-03-23T08:30:27.992Z</time></trkpt><trkpt lat="30.031622987960915" lon="-6.584475011141051"><ele>800.6666666666667</ele><time>2026-03-23T08:30:28.992Z</time></trkpt><trkpt lat="30.031542708187274" lon="-6.584270180766447"><ele>801.0</ele><time>2026-03-23T08:30:29.992Z</time></trkpt><trkpt lat="30.03146367781527" lon="-6.584067587333518"><ele>801.0</ele><time>2026-03-23T08:30:30.992Z</time></trkpt><trkpt lat="30.031382286044817" lon="-6.5838648257637615"><ele>801.0</ele><time>2026-03-23T08:30:31.992Z</time></trkpt><trkpt lat="30.031302305092193" lon="-6.583658525356823"><ele>801.0</ele><time>2026-03-23T08:30:32.992Z</time></trkpt><trkpt lat="30.031220769921074" lon="-6.583447486621282"><ele>801.6666666666667</ele><time>2026-03-23T08:30:33.992Z</time></trkpt><trkpt lat="30.031141125300564" lon="-6.583236786769994"><ele>802.3333333333334</ele><time>2026-03-23T08:30:34.992Z</time></trkpt><trkpt lat="30.03106051499901" lon="-6.583023669399321"><ele>803.0</ele><time>2026-03-23T08:30:35.992Z</time></trkpt><trkpt lat="30.030980348693355" lon="-6.5828126129054"><ele>803.0</ele><time>2026-03-23T08:30:36.992Z</time></trkpt><trkpt lat="30.030896721497154" lon="-6.582598261340685"><ele>803.0</ele><time>2026-03-23T08:30:37.992Z</time></trkpt><trkpt lat="30.03081306938271" lon="-6.582389463823219"><ele>803.0</ele><time>2026-03-23T08:30:38.992Z</time></trkpt><trkpt lat="30.030730668296204" lon="-6.582175820093025"><ele>803.3333333333334</ele><time>2026-03-23T08:30:39.992Z</time></trkpt><trkpt lat="30.03065222831897" lon="-6.581967333081016"><ele>803.6666666666667</ele><time>2026-03-23T08:30:40.992Z</time></trkpt><trkpt lat="30.030575568674347" lon="-6.581766151201163"><ele>804.0</ele><time>2026-03-23T08:30:41.992Z</time></trkpt><trkpt lat="30.030501175322975" lon="-6.581572249385955"><ele>804.0</ele><time>2026-03-23T08:30:42.992Z</time></trkpt><trkpt lat="30.03042139411774" lon="-6.581375876361665"><ele>804.0</ele><time>2026-03-23T08:30:43.992Z</time></trkpt><trkpt lat="30.030348312932304" lon="-6.581183492362669"><ele>804.0</ele><time>2026-03-23T08:30:44.992Z</time></trkpt><trkpt lat="30.03027327979697" lon="-6.580992947534814"><ele>804.3333333333333</ele><time>2026-03-23T08:30:45.992Z</time></trkpt><trkpt lat="30.030192631256778" lon="-6.58079723238632"><ele>804.6666666666666</ele><time>2026-03-23T08:30:46.992Z</time></trkpt><trkpt lat="30.03011199235984" lon="-6.580591257432361"><ele>805.0</ele><time>2026-03-23T08:30:47.992Z</time></trkpt><trkpt lat="30.030025743814388" lon="-6.580374876372115"><ele>804.3333333333333</ele><time>2026-03-23T08:30:48.992Z</time></trkpt><trkpt lat="30.02993845214789" lon="-6.5801542923306915"><ele>803.6666666666667</ele><time>2026-03-23T08:30:49.992Z</time></trkpt><trkpt lat="30.02985774521335" lon="-6.579943473039959"><ele>803.0</ele><time>2026-03-23T08:30:50.992Z</time></trkpt><trkpt lat="30.02978976298098" lon="-6.579725663905676"><ele>803.5</ele><time>2026-03-23T08:30:51.992Z</time></trkpt><trkpt lat="30.02974260238559" lon="-6.5794792977225685"><ele>804.0</ele><time>2026-03-23T08:30:52.992Z</time></trkpt><trkpt lat="30.029714803997503" lon="-6.579207882312138"><ele>804.0</ele><time>2026-03-23T08:30:53.992Z</time></trkpt><trkpt lat="30.029699524795284" lon="-6.5789139939454"><ele>804.0</ele><time>2026-03-23T08:30:54.992Z</time></trkpt><trkpt lat="30.02968272858104" lon="-6.578605679892673"><ele>804.5</ele><time>2026-03-23T08:30:55.992Z</time></trkpt><trkpt lat="30.02967847332159" lon="-6.578319321302083"><ele>805.0</ele><time>2026-03-23T08:30:56.992Z</time></trkpt><trkpt lat="30.029679112484818" lon="-6.578068929404794"><ele>806.0</ele><time>2026-03-23T08:30:57.992Z</time></trkpt><trkpt lat="30.029673962435115" lon="-6.577832244759866"><ele>807.0</ele><time>2026-03-23T08:30:58.992Z</time></trkpt><trkpt lat="30.029671953337047" lon="-6.577593041045946"><ele>808.0</ele><time>2026-03-23T08:30:59.992Z</time></trkpt><trkpt lat="30.02966957132748" lon="-6.577367690769797"><ele>808.0</ele><time>2026-03-23T08:31:00.992Z</time></trkpt><trkpt lat="30.02966445074602" lon="-6.577148001779024"><ele>808.0</ele><time>2026-03-23T08:31:01.992Z</time></trkpt><trkpt lat="30.02966365023643" lon="-6.576938012702467"><ele>808.0</ele><time>2026-03-23T08:31:02.992Z</time></trkpt><trkpt lat="30.029674396270313" lon="-6.576719790930703"><ele>808.3333333333333</ele><time>2026-03-23T08:31:03.992Z</time></trkpt><trkpt lat="30.029690683355046" lon="-6.576494564965359"><ele>808.6666666666667</ele><time>2026-03-23T08:31:04.992Z</time></trkpt><trkpt lat="30.02970512516227" lon="-6.576273771096126"><ele>809.0</ele><time>2026-03-23T08:31:05.992Z</time></trkpt><trkpt lat="30.02972717473873" lon="-6.576053141094128"><ele>809.0</ele><time>2026-03-23T08:31:06.992Z</time></trkpt><trkpt lat="30.02975249025124" lon="-6.575829632759583"><ele>809.0</ele><time>2026-03-23T08:31:07.992Z</time></trkpt><trkpt lat="30.029767377183173" lon="-6.575609613216385"><ele>809.0</ele><time>2026-03-23T08:31:08.992Z</time></trkpt><trkpt lat="30.029801066108128" lon="-6.575386611009325"><ele>808.0</ele><time>2026-03-23T08:31:09.992Z</time></trkpt><trkpt lat="30.029846925423314" lon="-6.575165219204052"><ele>807.0</ele><time>2026-03-23T08:31:10.992Z</time></trkpt><trkpt lat="30.029895495818042" lon="-6.574938805145413"><ele>806.0</ele><time>2026-03-23T08:31:11.992Z</time></trkpt><trkpt lat="30.029944923685168" lon="-6.574712414312459"><ele>809.6666666666667</ele><time>2026-03-23T08:31:12.992Z</time></trkpt><trkpt lat="30.029994606301702" lon="-6.574485479119141"><ele>813.3333333333333</ele><time>2026-03-23T08:31:13.992Z</time></trkpt><trkpt lat="30.030044861871737" lon="-6.574256944604653"><ele>817.0</ele><time>2026-03-23T08:31:14.992Z</time></trkpt><trkpt lat="30.030099143710334" lon="-6.574023725040639"><ele>817.0</ele><time>2026-03-23T08:31:15.992Z</time></trkpt><trkpt lat="30.030167350482127" lon="-6.5737922773984"><ele>817.0</ele><time>2026-03-23T08:31:16.992Z</time></trkpt><trkpt lat="30.03021099475283" lon="-6.573561307241678"><ele>817.0</ele><time>2026-03-23T08:31:17.992Z</time></trkpt><trkpt lat="30.03025585467296" lon="-6.573330400110687"><ele>816.0</ele><time>2026-03-23T08:31:18.992Z</time></trkpt><trkpt lat="30.030303288231284" lon="-6.573097718854779"><ele>815.0</ele><time>2026-03-23T08:31:19.992Z</time></trkpt><trkpt lat="30.03034923521983" lon="-6.572868034049347"><ele>814.0</ele><time>2026-03-23T08:31:20.992Z</time></trkpt><trkpt lat="30.030396190415924" lon="-6.572640434239243"><ele>813.0</ele><time>2026-03-23T08:31:21.992Z</time></trkpt><trkpt lat="30.030445581618842" lon="-6.57241246499336"><ele>812.0</ele><time>2026-03-23T08:31:22.992Z</time></trkpt><trkpt lat="30.030498254032306" lon="-6.572182852792257"><ele>811.0</ele><time>2026-03-23T08:31:23.992Z</time></trkpt><trkpt lat="30.03054240335549" lon="-6.571955092069475"><ele>811.0</ele><time>2026-03-23T08:31:24.992Z</time></trkpt><trkpt lat="30.030587996573182" lon="-6.571727282255192"><ele>811.0</ele><time>2026-03-23T08:31:25.992Z</time></trkpt><trkpt lat="30.030634292796204" lon="-6.57149632928071"><ele>811.0</ele><time>2026-03-23T08:31:26.992Z</time></trkpt><trkpt lat="30.030679726553483" lon="-6.571262231219044"><ele>811.3333333333333</ele><time>2026-03-23T08:31:27.992Z</time></trkpt><trkpt lat="30.030727152373323" lon="-6.57103233019876"><ele>811.6666666666667</ele><time>2026-03-23T08:31:28.992Z</time></trkpt><trkpt lat="30.030775029078395" lon="-6.5708077478150635"><ele>812.0</ele><time>2026-03-23T08:31:29.992Z</time></trkpt><trkpt lat="30.030821037426463" lon="-6.570600554364252"><ele>813.3333333333334</ele><time>2026-03-23T08:31:30.992Z</time></trkpt><trkpt lat="30.030861895098546" lon="-6.570398877729301"><ele>814.6666666666667</ele><time>2026-03-23T08:31:31.992Z</time></trkpt><trkpt lat="30.030901137215505" lon="-6.570197097563704"><ele>816.0</ele><time>2026-03-23T08:31:32.992Z</time></trkpt><trkpt lat="30.03094476669306" lon="-6.569990509413332"><ele>816.6666666666667</ele><time>2026-03-23T08:31:33.992Z</time></trkpt><trkpt lat="30.03098920660605" lon="-6.5697759946997545"><ele>817.3333333333334</ele><time>2026-03-23T08:31:34.992Z</time></trkpt><trkpt lat="30.03103288740231" lon="-6.569554374311794"><ele>818.0</ele><time>2026-03-23T08:31:35.992Z</time></trkpt><trkpt lat="30.031072992702704" lon="-6.569329347797621"><ele>818.0</ele><time>2026-03-23T08:31:36.992Z</time></trkpt><trkpt lat="30.031115250483893" lon="-6.56910698499794"><ele>818.0</ele><time>2026-03-23T08:31:37.992Z</time></trkpt><trkpt lat="30.03115138633015" lon="-6.568887989438112"><ele>818.0</ele><time>2026-03-23T08:31:38.992Z</time></trkpt><trkpt lat="30.031182613606152" lon="-6.568666201303849"><ele>818.0</ele><time>2026-03-23T08:31:39.992Z</time></trkpt><trkpt lat="30.031212914408577" lon="-6.568447527408769"><ele>818.0</ele><time>2026-03-23T08:31:40.992Z</time></trkpt><trkpt lat="30.031249581075226" lon="-6.568219765899215"><ele>818.0</ele><time>2026-03-23T08:31:41.992Z</time></trkpt><trkpt lat="30.031285367823248" lon="-6.567981201062911"><ele>818.0</ele><time>2026-03-23T08:31:42.992Z</time></trkpt><trkpt lat="30.031314290359745" lon="-6.567745449221887"><ele>818.0</ele><time>2026-03-23T08:31:43.992Z</time></trkpt><trkpt lat="30.031337444258888" lon="-6.5675137832850705"><ele>818.0</ele><time>2026-03-23T08:31:44.992Z</time></trkpt><trkpt lat="30.031365544126274" lon="-6.567283940770084"><ele>818.0</ele><time>2026-03-23T08:31:45.991Z</time></trkpt><trkpt lat="30.031398965239674" lon="-6.567037178510103"><ele>818.0</ele><time>2026-03-23T08:31:46.991Z</time></trkpt><trkpt lat="30.031435877060822" lon="-6.566770125750693"><ele>818.0</ele><time>2026-03-23T08:31:47.992Z</time></trkpt><trkpt lat="30.031466288201457" lon="-6.56650453846501"><ele>818.0</ele><time>2026-03-23T08:31:48.992Z</time></trkpt><trkpt lat="30.031490162983054" lon="-6.566269114588297"><ele>818.0</ele><time>2026-03-23T08:31:49.992Z</time></trkpt><trkpt lat="30.031515621955077" lon="-6.566047516729424"><ele>817.6666666666667</ele><time>2026-03-23T08:31:50.992Z</time></trkpt><trkpt lat="30.03154538445589" lon="-6.565836760985562"><ele>817.3333333333333</ele><time>2026-03-23T08:31:51.992Z</time></trkpt><trkpt lat="30.031570130457578" lon="-6.565628219214858"><ele>817.0</ele><time>2026-03-23T08:31:52.992Z</time></trkpt><trkpt lat="30.031594124795284" lon="-6.565418178501496"><ele>817.0</ele><time>2026-03-23T08:31:53.993Z</time></trkpt><trkpt lat="30.031618223754638" lon="-6.565207162050493"><ele>817.0</ele><time>2026-03-23T08:31:54.992Z</time></trkpt><trkpt lat="30.031646914523776" lon="-6.564991055825272"><ele>817.0</ele><time>2026-03-23T08:31:55.992Z</time></trkpt><trkpt lat="30.031671753647444" lon="-6.564771126025137"><ele>818.3333333333333</ele><time>2026-03-23T08:31:56.992Z</time></trkpt><trkpt lat="30.0317014480759" lon="-6.56454676945237"><ele>819.6666666666667</ele><time>2026-03-23T08:31:57.992Z</time></trkpt><trkpt lat="30.031734034857575" lon="-6.5643253798787615"><ele>821.0</ele><time>2026-03-23T08:31:58.992Z</time></trkpt><trkpt lat="30.031772765227046" lon="-6.564104526883966"><ele>821.0</ele><time>2026-03-23T08:31:59.992Z</time></trkpt><trkpt lat="30.031812342033458" lon="-6.563877446382255"><ele>821.0</ele><time>2026-03-23T08:32:00.992Z</time></trkpt><trkpt lat="30.03185498875472" lon="-6.563650531014823"><ele>821.0</ele><time>2026-03-23T08:32:01.992Z</time></trkpt><trkpt lat="30.031906015872977" lon="-6.563423971464543"><ele>821.0</ele><time>2026-03-23T08:32:02.992Z</time></trkpt><trkpt lat="30.0319632381896" lon="-6.563196585507839"><ele>821.0</ele><time>2026-03-23T08:32:03.992Z</time></trkpt><trkpt lat="30.03202473372705" lon="-6.562971509042319"><ele>821.0</ele><time>2026-03-23T08:32:04.992Z</time></trkpt><trkpt lat="30.03208949917768" lon="-6.562750520549371"><ele>821.0</ele><time>2026-03-23T08:32:05.992Z</time></trkpt><trkpt lat="30.032155046925897" lon="-6.562529489044551"><ele>821.0</ele><time>2026-03-23T08:32:06.992Z</time></trkpt><trkpt lat="30.032224347357218" lon="-6.5623092768213835"><ele>821.0</ele><time>2026-03-23T08:32:07.992Z</time></trkpt><trkpt lat="30.032295514036566" lon="-6.5620917335473194"><ele>820.6666666666667</ele><time>2026-03-23T08:32:08.992Z</time></trkpt><trkpt lat="30.03237566812893" lon="-6.561880430367744"><ele>820.3333333333333</ele><time>2026-03-23T08:32:09.992Z</time></trkpt><trkpt lat="30.032455362187893" lon="-6.561665656757516"><ele>820.0</ele><time>2026-03-23T08:32:10.992Z</time></trkpt><trkpt lat="30.032534639851278" lon="-6.561453214126037"><ele>821.0</ele><time>2026-03-23T08:32:11.992Z</time></trkpt><trkpt lat="30.032620561533545" lon="-6.561241383751247"><ele>822.0</ele><time>2026-03-23T08:32:12.992Z</time></trkpt><trkpt lat="30.032712555120014" lon="-6.561031429786457"><ele>823.0</ele><time>2026-03-23T08:32:13.992Z</time></trkpt><trkpt lat="30.0328076944626" lon="-6.560817897924068"><ele>823.0</ele><time>2026-03-23T08:32:14.992Z</time></trkpt><trkpt lat="30.032904690904758" lon="-6.56060893084562"><ele>823.0</ele><time>2026-03-23T08:32:15.992Z</time></trkpt><trkpt lat="30.03300407199728" lon="-6.560405629291832"><ele>823.0</ele><time>2026-03-23T08:32:16.992Z</time></trkpt><trkpt lat="30.033107217304668" lon="-6.560208964842342"><ele>822.6666666666666</ele><time>2026-03-23T08:32:17.992Z</time></trkpt><trkpt lat="30.033206075785372" lon="-6.5600141658665"><ele>822.3333333333333</ele><time>2026-03-23T08:32:18.992Z</time></trkpt><trkpt lat="30.033304156653532" lon="-6.559820927220965"><ele>822.0</ele><time>2026-03-23T08:32:19.992Z</time></trkpt><trkpt lat="30.033408846812797" lon="-6.5596300474215425"><ele>822.0</ele><time>2026-03-23T08:32:20.991Z</time></trkpt><trkpt lat="30.033512234438117" lon="-6.559439028473953"><ele>822.0</ele><time>2026-03-23T08:32:21.99Z</time></trkpt><trkpt lat="30.033617000301227" lon="-6.559251335434409"><ele>822.0</ele><time>2026-03-23T08:32:22.989Z</time></trkpt><trkpt lat="30.033716319350916" lon="-6.559063186024207"><ele>822.0</ele><time>2026-03-23T08:32:23.988Z</time></trkpt><trkpt lat="30.0338163221047" lon="-6.558874916827496"><ele>822.0</ele><time>2026-03-23T08:32:24.988Z</time></trkpt><trkpt lat="30.033918926734678" lon="-6.558690781922861"><ele>822.0</ele><time>2026-03-23T08:32:25.987Z</time></trkpt><trkpt lat="30.03401548424735" lon="-6.558506558690594"><ele>822.3333333333333</ele><time>2026-03-23T08:32:26.986Z</time></trkpt><trkpt lat="30.03411311069227" lon="-6.558318578617351"><ele>822.6666666666666</ele><time>2026-03-23T08:32:27.986Z</time></trkpt><trkpt lat="30.034210226895905" lon="-6.558131805067032"><ele>823.0</ele><time>2026-03-23T08:32:28.985Z</time></trkpt><trkpt lat="30.03431005696017" lon="-6.557938612782703"><ele>824.3333333333333</ele><time>2026-03-23T08:32:29.985Z</time></trkpt><trkpt lat="30.0344089701236" lon="-6.557750944693507"><ele>825.6666666666667</ele><time>2026-03-23T08:32:30.984Z</time></trkpt><trkpt lat="30.03451093463235" lon="-6.5575538768018085"><ele>827.0</ele><time>2026-03-23T08:32:31.984Z</time></trkpt><trkpt lat="30.034615721073035" lon="-6.557355022109"><ele>827.0</ele><time>2026-03-23T08:32:32.983Z</time></trkpt><trkpt lat="30.034720651552874" lon="-6.557155471529113"><ele>827.0</ele><time>2026-03-23T08:32:33.983Z</time></trkpt><trkpt lat="30.034826448556394" lon="-6.5569542093875555"><ele>827.0</ele><time>2026-03-23T08:32:34.983Z</time></trkpt><trkpt lat="30.034937825541554" lon="-6.556751518886333"><ele>828.6666666666667</ele><time>2026-03-23T08:32:35.982Z</time></trkpt><trkpt lat="30.035041021665684" lon="-6.556558616013756"><ele>830.3333333333333</ele><time>2026-03-23T08:32:36.982Z</time></trkpt><trkpt lat="30.035142101576184" lon="-6.556367294243694"><ele>832.0</ele><time>2026-03-23T08:32:37.982Z</time></trkpt><trkpt lat="30.035238866891973" lon="-6.556178172447501"><ele>832.3333333333333</ele><time>2026-03-23T08:32:38.981Z</time></trkpt><trkpt lat="30.035335750031717" lon="-6.555991351546832"><ele>832.6666666666667</ele><time>2026-03-23T08:32:39.981Z</time></trkpt><trkpt lat="30.035430606090696" lon="-6.555808278816652"><ele>833.0</ele><time>2026-03-23T08:32:40.981Z</time></trkpt><trkpt lat="30.03553356157356" lon="-6.555616737864381"><ele>833.0</ele><time>2026-03-23T08:32:41.981Z</time></trkpt><trkpt lat="30.035641857044126" lon="-6.555412309038334"><ele>833.0</ele><time>2026-03-23T08:32:42.98Z</time></trkpt><trkpt lat="30.035754096275447" lon="-6.555198788509978"><ele>833.0</ele><time>2026-03-23T08:32:43.98Z</time></trkpt><trkpt lat="30.035862923249322" lon="-6.55499553707673"><ele>833.6666666666667</ele><time>2026-03-23T08:32:44.98Z</time></trkpt><trkpt lat="30.035970536555144" lon="-6.5547953323723425"><ele>834.3333333333333</ele><time>2026-03-23T08:32:45.98Z</time></trkpt><trkpt lat="30.03607863066308" lon="-6.554599459125033"><ele>835.0</ele><time>2026-03-23T08:32:46.98Z</time></trkpt><trkpt lat="30.03617782527666" lon="-6.554423481436386"><ele>835.0</ele><time>2026-03-23T08:32:47.98Z</time></trkpt><trkpt lat="30.036270731878194" lon="-6.554251278554458"><ele>835.0</ele><time>2026-03-23T08:32:48.979Z</time></trkpt><trkpt lat="30.03636069587182" lon="-6.554077193305744"><ele>835.0</ele><time>2026-03-23T08:32:49.979Z</time></trkpt><trkpt lat="30.036447804292134" lon="-6.553908430761444"><ele>835.0</ele><time>2026-03-23T08:32:50.979Z</time></trkpt><trkpt lat="30.036534099954373" lon="-6.553736450415496"><ele>835.0</ele><time>2026-03-23T08:32:51.979Z</time></trkpt><trkpt lat="30.036621078680795" lon="-6.553565035802436"><ele>835.0</ele><time>2026-03-23T08:32:52.979Z</time></trkpt><trkpt lat="30.036717834731874" lon="-6.553390054230476"><ele>835.6666666666666</ele><time>2026-03-23T08:32:53.979Z</time></trkpt><trkpt lat="30.036814146984806" lon="-6.553206324846121"><ele>836.3333333333333</ele><time>2026-03-23T08:32:54.979Z</time></trkpt><trkpt lat="30.036910428060636" lon="-6.553019150968273"><ele>837.0</ele><time>2026-03-23T08:32:55.979Z</time></trkpt><trkpt lat="30.037003855607946" lon="-6.552837991337464"><ele>837.3333333333333</ele><time>2026-03-23T08:32:56.978Z</time></trkpt><trkpt lat="30.037095820055228" lon="-6.552669292257751"><ele>837.6666666666666</ele><time>2026-03-23T08:32:57.978Z</time></trkpt><trkpt lat="30.0371837261546" lon="-6.552494361390012"><ele>838.0</ele><time>2026-03-23T08:32:58.978Z</time></trkpt><trkpt lat="30.03727790410781" lon="-6.5523103052701055"><ele>838.0</ele><time>2026-03-23T08:32:59.978Z</time></trkpt><trkpt lat="30.03737024455235" lon="-6.552131052955982"><ele>838.0</ele><time>2026-03-23T08:33:00.978Z</time></trkpt><trkpt lat="30.037461616514573" lon="-6.5519502711883755"><ele>838.0</ele><time>2026-03-23T08:33:01.978Z</time></trkpt><trkpt lat="30.037560422499755" lon="-6.551763505793108"><ele>839.0</ele><time>2026-03-23T08:33:02.978Z</time></trkpt><trkpt lat="30.037659996874957" lon="-6.55156917310555"><ele>840.0</ele><time>2026-03-23T08:33:03.978Z</time></trkpt><trkpt lat="30.03776337143608" lon="-6.551375756184938"><ele>841.0</ele><time>2026-03-23T08:33:04.978Z</time></trkpt><trkpt lat="30.037872617837284" lon="-6.551179103377473"><ele>841.3333333333333</ele><time>2026-03-23T08:33:05.978Z</time></trkpt><trkpt lat="30.037980997744835" lon="-6.550983350375868"><ele>841.6666666666667</ele><time>2026-03-23T08:33:06.978Z</time></trkpt><trkpt lat="30.03808942610894" lon="-6.55078967655782"><ele>842.0</ele><time>2026-03-23T08:33:07.978Z</time></trkpt><trkpt lat="30.038197346368673" lon="-6.5505906615640725"><ele>842.3333333333334</ele><time>2026-03-23T08:33:08.978Z</time></trkpt><trkpt lat="30.03830764036751" lon="-6.55038327877642"><ele>842.6666666666667</ele><time>2026-03-23T08:33:09.978Z</time></trkpt><trkpt lat="30.03841856307263" lon="-6.550178577999281"><ele>843.0</ele><time>2026-03-23T08:33:10.978Z</time></trkpt><trkpt lat="30.03852876288902" lon="-6.549974097626188"><ele>843.0</ele><time>2026-03-23T08:33:11.978Z</time></trkpt><trkpt lat="30.038628651710198" lon="-6.549783515622037"><ele>843.0</ele><time>2026-03-23T08:33:12.978Z</time></trkpt><trkpt lat="30.03871243103092" lon="-6.549621137055959"><ele>843.0</ele><time>2026-03-23T08:33:13.977Z</time></trkpt><trkpt lat="30.038781791600734" lon="-6.54948266212067"><ele>843.0</ele><time>2026-03-23T08:33:14.977Z</time></trkpt><trkpt lat="30.038843339874877" lon="-6.549359542791183"><ele>843.0</ele><time>2026-03-23T08:33:15.977Z</time></trkpt><trkpt lat="30.038903559657058" lon="-6.549247127532791"><ele>843.0</ele><time>2026-03-23T08:33:16.977Z</time></trkpt><trkpt lat="30.038964599556987" lon="-6.549127837336202"><ele>843.0</ele><time>2026-03-23T08:33:17.977Z</time></trkpt><trkpt lat="30.039031445995228" lon="-6.549000428362386"><ele>843.0</ele><time>2026-03-23T08:33:18.977Z</time></trkpt><trkpt lat="30.03910502952595" lon="-6.548865227445991"><ele>843.0</ele><time>2026-03-23T08:33:19.977Z</time></trkpt><trkpt lat="30.03918565684721" lon="-6.5487154060995465"><ele>843.0</ele><time>2026-03-23T08:33:20.977Z</time></trkpt><trkpt lat="30.039273506961862" lon="-6.548553863059136"><ele>844.6666666666667</ele><time>2026-03-23T08:33:21.977Z</time></trkpt><trkpt lat="30.039362108164486" lon="-6.548384326479833"><ele>846.3333333333334</ele><time>2026-03-23T08:33:22.977Z</time></trkpt><trkpt lat="30.039452147984917" lon="-6.548207592662119"><ele>848.0</ele><time>2026-03-23T08:33:23.977Z</time></trkpt><trkpt lat="30.03953928232806" lon="-6.5480394420935"><ele>847.3333333333334</ele><time>2026-03-23T08:33:24.977Z</time></trkpt><trkpt lat="30.039628434736" lon="-6.5478695514387875"><ele>846.6666666666667</ele><time>2026-03-23T08:33:25.977Z</time></trkpt><trkpt lat="30.039722249486115" lon="-6.547691392187119"><ele>846.0</ele><time>2026-03-23T08:33:26.977Z</time></trkpt><trkpt lat="30.039817495569192" lon="-6.547513186733963"><ele>846.0</ele><time>2026-03-23T08:33:27.977Z</time></trkpt><trkpt lat="30.0399136028862" lon="-6.547330182689607"><ele>846.0</ele><time>2026-03-23T08:33:28.977Z</time></trkpt><trkpt lat="30.040013517975257" lon="-6.547143189165063"><ele>846.0</ele><time>2026-03-23T08:33:29.977Z</time></trkpt><trkpt lat="30.040108328095148" lon="-6.546960777765202"><ele>847.0</ele><time>2026-03-23T08:33:30.977Z</time></trkpt><trkpt lat="30.04019983537181" lon="-6.546787995972432"><ele>848.0</ele><time>2026-03-23T08:33:31.977Z</time></trkpt><trkpt lat="30.040292186086173" lon="-6.5466141069573425"><ele>849.0</ele><time>2026-03-23T08:33:32.977Z</time></trkpt><trkpt lat="30.040387814321022" lon="-6.546437382849702"><ele>849.0</ele><time>2026-03-23T08:33:33.977Z</time></trkpt><trkpt lat="30.040487260624847" lon="-6.546252789202055"><ele>849.0</ele><time>2026-03-23T08:33:34.977Z</time></trkpt><trkpt lat="30.04058791451677" lon="-6.546060256110228"><ele>849.0</ele><time>2026-03-23T08:33:35.977Z</time></trkpt><trkpt lat="30.04068479648972" lon="-6.545872351385376"><ele>849.0</ele><time>2026-03-23T08:33:36.977Z</time></trkpt><trkpt lat="30.040780971806747" lon="-6.545693337474701"><ele>849.0</ele><time>2026-03-23T08:33:37.977Z</time></trkpt><trkpt lat="30.04087920019559" lon="-6.545510008676493"><ele>849.0</ele><time>2026-03-23T08:33:38.977Z</time></trkpt><trkpt lat="30.040978155935047" lon="-6.5453207584680655"><ele>849.6666666666667</ele><time>2026-03-23T08:33:39.977Z</time></trkpt><trkpt lat="30.041080951510096" lon="-6.545132489334288"><ele>850.3333333333334</ele><time>2026-03-23T08:33:40.977Z</time></trkpt><trkpt lat="30.04118301763061" lon="-6.5449476650823515"><ele>851.0</ele><time>2026-03-23T08:33:41.977Z</time></trkpt><trkpt lat="30.0412852740403" lon="-6.544761719298884"><ele>851.0</ele><time>2026-03-23T08:33:42.977Z</time></trkpt><trkpt lat="30.041383524853824" lon="-6.544571794282715"><ele>851.0</ele><time>2026-03-23T08:33:43.977Z</time></trkpt><trkpt lat="30.041480949583043" lon="-6.544382965381614"><ele>851.0</ele><time>2026-03-23T08:33:44.977Z</time></trkpt><trkpt lat="30.041579733324742" lon="-6.54419616686139"><ele>850.3333333333334</ele><time>2026-03-23T08:33:45.977Z</time></trkpt><trkpt lat="30.04168119256804" lon="-6.544006826869162"><ele>849.6666666666667</ele><time>2026-03-23T08:33:46.977Z</time></trkpt><trkpt lat="30.041782061084703" lon="-6.543817928386846"><ele>849.0</ele><time>2026-03-23T08:33:47.978Z</time></trkpt><trkpt lat="30.041881673912474" lon="-6.543626748071126"><ele>848.3333333333333</ele><time>2026-03-23T08:33:48.977Z</time></trkpt><trkpt lat="30.041987435184893" lon="-6.543425260497972"><ele>847.6666666666666</ele><time>2026-03-23T08:33:49.977Z</time></trkpt><trkpt lat="30.042092959857623" lon="-6.54322572705552"><ele>847.0</ele><time>2026-03-23T08:33:50.978Z</time></trkpt><trkpt lat="30.042192330325555" lon="-6.543037222449831"><ele>846.6666666666666</ele><time>2026-03-23T08:33:51.977Z</time></trkpt><trkpt lat="30.042290912021965" lon="-6.542855688403918"><ele>846.3333333333333</ele><time>2026-03-23T08:33:52.977Z</time></trkpt><trkpt lat="30.04238664543303" lon="-6.5426699026631745"><ele>846.0</ele><time>2026-03-23T08:33:53.977Z</time></trkpt><trkpt lat="30.042483407828485" lon="-6.542476703219888"><ele>846.0</ele><time>2026-03-23T08:33:54.977Z</time></trkpt><trkpt lat="30.04258272879964" lon="-6.54228323901806"><ele>846.0</ele><time>2026-03-23T08:33:55.977Z</time></trkpt><trkpt lat="30.042682594878016" lon="-6.542087069051204"><ele>846.0</ele><time>2026-03-23T08:33:56.977Z</time></trkpt><trkpt lat="30.04278556433277" lon="-6.541886551422424"><ele>846.0</ele><time>2026-03-23T08:33:57.977Z</time></trkpt><trkpt lat="30.04288863935946" lon="-6.541692559207002"><ele>846.0</ele><time>2026-03-23T08:33:58.977Z</time></trkpt><trkpt lat="30.042990275209654" lon="-6.541495454783243"><ele>846.0</ele><time>2026-03-23T08:33:59.977Z</time></trkpt><trkpt lat="30.04309384364065" lon="-6.541299115374945"><ele>846.3333333333333</ele><time>2026-03-23T08:34:00.977Z</time></trkpt><trkpt lat="30.043197165204138" lon="-6.541099497484548"><ele>846.6666666666666</ele><time>2026-03-23T08:34:01.977Z</time></trkpt><trkpt lat="30.043295181933157" lon="-6.540905119771343"><ele>847.0</ele><time>2026-03-23T08:34:02.977Z</time></trkpt><trkpt lat="30.04339378349883" lon="-6.540705184017901"><ele>847.0</ele><time>2026-03-23T08:34:03.977Z</time></trkpt><trkpt lat="30.04348955115621" lon="-6.5405144567089915"><ele>847.0</ele><time>2026-03-23T08:34:04.977Z</time></trkpt><trkpt lat="30.0435910720032" lon="-6.540327622889192"><ele>847.0</ele><time>2026-03-23T08:34:05.977Z</time></trkpt><trkpt lat="30.043695212827142" lon="-6.540135331881728"><ele>846.6666666666666</ele><time>2026-03-23T08:34:06.977Z</time></trkpt><trkpt lat="30.043799708263254" lon="-6.53993880421049"><ele>846.3333333333333</ele><time>2026-03-23T08:34:07.977Z</time></trkpt><trkpt lat="30.043905805597756" lon="-6.539740487536449"><ele>846.0</ele><time>2026-03-23T08:34:08.977Z</time></trkpt><trkpt lat="30.044012381478165" lon="-6.539547102463052"><ele>846.0</ele><time>2026-03-23T08:34:09.977Z</time></trkpt><trkpt lat="30.04411676920085" lon="-6.539353824171423"><ele>846.0</ele><time>2026-03-23T08:34:10.977Z</time></trkpt><trkpt lat="30.04421934873768" lon="-6.5391580321525336"><ele>846.0</ele><time>2026-03-23T08:34:11.977Z</time></trkpt><trkpt lat="30.044318011007903" lon="-6.538967535265495"><ele>846.3333333333333</ele><time>2026-03-23T08:34:12.977Z</time></trkpt><trkpt lat="30.044417858970384" lon="-6.538780764209024"><ele>846.6666666666666</ele><time>2026-03-23T08:34:13.977Z</time></trkpt><trkpt lat="30.044517512205577" lon="-6.538590072818772"><ele>847.0</ele><time>2026-03-23T08:34:14.977Z</time></trkpt><trkpt lat="30.044619795875754" lon="-6.5384009056777925"><ele>847.0</ele><time>2026-03-23T08:34:15.977Z</time></trkpt><trkpt lat="30.044712264281483" lon="-6.5382233258439895"><ele>847.0</ele><time>2026-03-23T08:34:16.977Z</time></trkpt><trkpt lat="30.044799260720087" lon="-6.538059826844062"><ele>847.0</ele><time>2026-03-23T08:34:17.977Z</time></trkpt><trkpt lat="30.044881868762445" lon="-6.5379035849027725"><ele>847.6666666666666</ele><time>2026-03-23T08:34:18.977Z</time></trkpt><trkpt lat="30.044969534657284" lon="-6.53774239712722"><ele>848.3333333333333</ele><time>2026-03-23T08:34:19.977Z</time></trkpt><trkpt lat="30.045065564371004" lon="-6.537565746187842"><ele>849.0</ele><time>2026-03-23T08:34:20.977Z</time></trkpt><trkpt lat="30.04516606114362" lon="-6.537375891877726"><ele>849.0</ele><time>2026-03-23T08:34:21.977Z</time></trkpt><trkpt lat="30.04526560983124" lon="-6.537182840964474"><ele>849.0</ele><time>2026-03-23T08:34:22.977Z</time></trkpt><trkpt lat="30.045365069831465" lon="-6.536996779920195"><ele>849.0</ele><time>2026-03-23T08:34:23.977Z</time></trkpt><trkpt lat="30.04546720845348" lon="-6.5368098688483105"><ele>848.6666666666667</ele><time>2026-03-23T08:34:24.977Z</time></trkpt><trkpt lat="30.045568963676118" lon="-6.536621737118287"><ele>848.3333333333334</ele><time>2026-03-23T08:34:25.977Z</time></trkpt><trkpt lat="30.04567127854559" lon="-6.536434640333375"><ele>848.0</ele><time>2026-03-23T08:34:26.977Z</time></trkpt><trkpt lat="30.045767916316755" lon="-6.536252425642683"><ele>849.0</ele><time>2026-03-23T08:34:27.976Z</time></trkpt><trkpt lat="30.04586889826285" lon="-6.536068094869184"><ele>850.0</ele><time>2026-03-23T08:34:28.976Z</time></trkpt><trkpt lat="30.045963838526287" lon="-6.535884822180962"><ele>851.0</ele><time>2026-03-23T08:34:29.976Z</time></trkpt><trkpt lat="30.046062173477505" lon="-6.53570250118691"><ele>851.0</ele><time>2026-03-23T08:34:30.976Z</time></trkpt><trkpt lat="30.046160319758382" lon="-6.535512645648472"><ele>851.0</ele><time>2026-03-23T08:34:31.976Z</time></trkpt><trkpt lat="30.04626114743444" lon="-6.535319264369446"><ele>851.0</ele><time>2026-03-23T08:34:32.976Z</time></trkpt><trkpt lat="30.04636284489513" lon="-6.535122358660067"><ele>851.0</ele><time>2026-03-23T08:34:33.976Z</time></trkpt><trkpt lat="30.04645671724811" lon="-6.534942774903764"><ele>851.0</ele><time>2026-03-23T08:34:34.976Z</time></trkpt><trkpt lat="30.04653719312586" lon="-6.534786439935221"><ele>851.0</ele><time>2026-03-23T08:34:35.976Z</time></trkpt><trkpt lat="30.046599928556784" lon="-6.534663198505746"><ele>851.1666666666667</ele><time>2026-03-23T08:34:36.976Z</time></trkpt><trkpt lat="30.046656585399134" lon="-6.534575374816711"><ele>851.3333333333334</ele><time>2026-03-23T08:34:37.976Z</time></trkpt><trkpt lat="30.046703195377102" lon="-6.5345143801825545"><ele>851.5</ele><time>2026-03-23T08:34:38.976Z</time></trkpt><trkpt lat="30.04676143803521" lon="-6.534458904006722"><ele>851.6666666666667</ele><time>2026-03-23T08:34:40.976Z</time></trkpt><trkpt lat="30.046848046427773" lon="-6.534475817653"><ele>851.8333333333334</ele><time>2026-03-23T08:34:42.976Z</time></trkpt><trkpt lat="30.046915988691367" lon="-6.534433627670573"><ele>852.0</ele><time>2026-03-23T08:34:43.976Z</time></trkpt><trkpt lat="30.04700047401149" lon="-6.534353007719782"><ele>852.0</ele><time>2026-03-23T08:34:44.976Z</time></trkpt><trkpt lat="30.047096224927277" lon="-6.534264241530248"><ele>852.0</ele><time>2026-03-23T08:34:45.976Z</time></trkpt><trkpt lat="30.047187241639467" lon="-6.534147267608544"><ele>852.0</ele><time>2026-03-23T08:34:46.976Z</time></trkpt><trkpt lat="30.047261981721718" lon="-6.533997931305194"><ele>852.0</ele><time>2026-03-23T08:34:47.976Z</time></trkpt><trkpt lat="30.047332933216918" lon="-6.533856126289689"><ele>852.0</ele><time>2026-03-23T08:34:48.976Z</time></trkpt><trkpt lat="30.047407489301968" lon="-6.533714923296296"><ele>852.0</ele><time>2026-03-23T08:34:49.976Z</time></trkpt><trkpt lat="30.04747160318793" lon="-6.533597294029009"><ele>852.0</ele><time>2026-03-23T08:34:50.976Z</time></trkpt><trkpt lat="30.047524429264968" lon="-6.5334914313318855"><ele>852.0</ele><time>2026-03-23T08:34:51.976Z</time></trkpt><trkpt lat="30.04757651989233" lon="-6.533391217102217"><ele>852.0</ele><time>2026-03-23T08:34:52.976Z</time></trkpt><trkpt lat="30.04741723761519" lon="-6.533162934538891"><ele>852.0</ele><time>2026-03-23T08:34:53.976Z</time></trkpt><trkpt lat="30.047466542074204" lon="-6.533071765314835"><ele>852.0</ele><time>2026-03-23T08:34:54.976Z</time></trkpt><trkpt lat="30.047503137597545" lon="-6.5330009268812335"><ele>852.0</ele><time>2026-03-23T08:34:55.976Z</time></trkpt><trkpt lat="30.04753740527571" lon="-6.532935781191104"><ele>852.6</ele><time>2026-03-23T08:34:56.976Z</time></trkpt><trkpt lat="30.04760069298" lon="-6.532815466031287"><ele>853.2</ele><time>2026-03-23T08:34:58.976Z</time></trkpt><trkpt lat="30.047635887476456" lon="-6.532748558379568"><ele>853.8</ele><time>2026-03-23T08:34:59.976Z</time></trkpt><trkpt lat="30.04767119024525" lon="-6.53268144489275"><ele>854.4</ele><time>2026-03-23T08:35:00.976Z</time></trkpt><trkpt lat="30.047735054072586" lon="-6.532560509477637"><ele>855.0</ele><time>2026-03-23T08:35:02.976Z</time></trkpt><trkpt lat="30.04799277368148" lon="-6.532584390158988"><ele>855.0</ele><time>2026-03-23T08:35:04.976Z</time></trkpt><trkpt lat="30.04805639159853" lon="-6.532486294234311"><ele>855.0</ele><time>2026-03-23T08:35:06.976Z</time></trkpt><trkpt lat="30.048097324579622" lon="-6.532377798449962"><ele>855.0</ele><time>2026-03-23T08:35:08.976Z</time></trkpt><trkpt lat="30.04814697868834" lon="-6.532291868493126"><ele>855.0</ele><time>2026-03-23T08:35:09.976Z</time></trkpt><trkpt lat="30.04819749596919" lon="-6.5322070980532825"><ele>855.0</ele><time>2026-03-23T08:35:10.976Z</time></trkpt><trkpt lat="30.0482494112782" lon="-6.532120307061627"><ele>855.4</ele><time>2026-03-23T08:35:11.976Z</time></trkpt><trkpt lat="30.048299838186264" lon="-6.532034335774192"><ele>855.8</ele><time>2026-03-23T08:35:12.976Z</time></trkpt><trkpt lat="30.048351165456115" lon="-6.531936984219498"><ele>856.2</ele><time>2026-03-23T08:35:13.976Z</time></trkpt><trkpt lat="30.048407142362446" lon="-6.531844448458331"><ele>856.6</ele><time>2026-03-23T08:35:14.976Z</time></trkpt><trkpt lat="30.048453205946753" lon="-6.531731981537516"><ele>857.0</ele><time>2026-03-23T08:35:15.976Z</time></trkpt><trkpt lat="30.04851252004643" lon="-6.531614935169659"><ele>857.0</ele><time>2026-03-23T08:35:16.976Z</time></trkpt><trkpt lat="30.048576681038547" lon="-6.531493412336512"><ele>857.0</ele><time>2026-03-23T08:35:17.976Z</time></trkpt><trkpt lat="30.048651146216173" lon="-6.531367441045944"><ele>857.0</ele><time>2026-03-23T08:35:18.976Z</time></trkpt><trkpt lat="30.048720263056634" lon="-6.531241301915096"><ele>857.0</ele><time>2026-03-23T08:35:19.976Z</time></trkpt><trkpt lat="30.048786618391432" lon="-6.531100000552301"><ele>857.25</ele><time>2026-03-23T08:35:20.976Z</time></trkpt><trkpt lat="30.04885683968535" lon="-6.530957714671764"><ele>857.5</ele><time>2026-03-23T08:35:21.976Z</time></trkpt><trkpt lat="30.048932059989042" lon="-6.530827571019803"><ele>857.75</ele><time>2026-03-23T08:35:22.976Z</time></trkpt><trkpt lat="30.04900256789875" lon="-6.5306972523983795"><ele>858.0</ele><time>2026-03-23T08:35:23.976Z</time></trkpt><trkpt lat="30.049089225178825" lon="-6.53057928474373"><ele>858.75</ele><time>2026-03-23T08:35:24.976Z</time></trkpt><trkpt lat="30.04916784702187" lon="-6.53045207394037"><ele>859.5</ele><time>2026-03-23T08:35:25.976Z</time></trkpt><trkpt lat="30.04922648619931" lon="-6.530313460770498"><ele>860.25</ele><time>2026-03-23T08:35:26.976Z</time></trkpt><trkpt lat="30.049282013452867" lon="-6.530187714611424"><ele>861.0</ele><time>2026-03-23T08:35:27.976Z</time></trkpt><trkpt lat="30.049354938144187" lon="-6.530052567535619"><ele>861.25</ele><time>2026-03-23T08:35:28.976Z</time></trkpt><trkpt lat="30.049430328091223" lon="-6.529911820485458"><ele>861.5</ele><time>2026-03-23T08:35:29.976Z</time></trkpt><trkpt lat="30.049492110156006" lon="-6.529776801267114"><ele>861.75</ele><time>2026-03-23T08:35:30.976Z</time></trkpt><trkpt lat="30.049567199923434" lon="-6.5296358923264615"><ele>862.0</ele><time>2026-03-23T08:35:31.976Z</time></trkpt><trkpt lat="30.049641495906407" lon="-6.529500928548196"><ele>862.0</ele><time>2026-03-23T08:35:32.976Z</time></trkpt><trkpt lat="30.04971231479867" lon="-6.5293738747069545"><ele>862.0</ele><time>2026-03-23T08:35:33.976Z</time></trkpt><trkpt lat="30.049772211173995" lon="-6.529270764302164"><ele>862.0</ele><time>2026-03-23T08:35:34.976Z</time></trkpt><trkpt lat="30.04984107923647" lon="-6.52918118865058"><ele>862.0</ele><time>2026-03-23T08:35:35.976Z</time></trkpt><trkpt lat="30.049914490251588" lon="-6.5290653500222335"><ele>862.75</ele><time>2026-03-23T08:35:36.976Z</time></trkpt><trkpt lat="30.049960855533882" lon="-6.528946717219565"><ele>863.5</ele><time>2026-03-23T08:35:37.976Z</time></trkpt><trkpt lat="30.050013783359088" lon="-6.528824791934469"><ele>864.25</ele><time>2026-03-23T08:35:38.976Z</time></trkpt><trkpt lat="30.05007862345164" lon="-6.528693527391968"><ele>865.0</ele><time>2026-03-23T08:35:39.976Z</time></trkpt><trkpt lat="30.05014728625044" lon="-6.528569267096413"><ele>865.0</ele><time>2026-03-23T08:35:40.976Z</time></trkpt><trkpt lat="30.05021826001052" lon="-6.528438791168856"><ele>865.0</ele><time>2026-03-23T08:35:41.976Z</time></trkpt><trkpt lat="30.050299570051745" lon="-6.528270837833108"><ele>865.0</ele><time>2026-03-23T08:35:42.976Z</time></trkpt><trkpt lat="30.050390419097134" lon="-6.528106399418754"><ele>865.0</ele><time>2026-03-23T08:35:43.976Z</time></trkpt><trkpt lat="30.05048696166549" lon="-6.5279508087352065"><ele>865.0</ele><time>2026-03-23T08:35:44.976Z</time></trkpt><trkpt lat="30.050567304867695" lon="-6.527796082487326"><ele>865.0</ele><time>2026-03-23T08:35:45.976Z</time></trkpt><trkpt lat="30.050638069891843" lon="-6.527650008103984"><ele>865.2</ele><time>2026-03-23T08:35:46.976Z</time></trkpt><trkpt lat="30.05069687081647" lon="-6.527538064093199"><ele>865.4</ele><time>2026-03-23T08:35:47.976Z</time></trkpt><trkpt lat="30.050746882012835" lon="-6.527455235816407"><ele>865.5999999999999</ele><time>2026-03-23T08:35:48.976Z</time></trkpt><trkpt lat="30.05081563091284" lon="-6.5273658388956415"><ele>865.8</ele><time>2026-03-23T08:35:50.976Z</time></trkpt><trkpt lat="30.050869815498572" lon="-6.527244826092908"><ele>866.0</ele><time>2026-03-23T08:35:52.976Z</time></trkpt><trkpt lat="30.050902089117393" lon="-6.527146832649566"><ele>866.4</ele><time>2026-03-23T08:35:53.977Z</time></trkpt><trkpt lat="30.05094076692994" lon="-6.527052890100068"><ele>866.8</ele><time>2026-03-23T08:35:54.976Z</time></trkpt><trkpt lat="30.050983407247255" lon="-6.526967445868867"><ele>867.1999999999999</ele><time>2026-03-23T08:35:55.976Z</time></trkpt><trkpt lat="30.051030525606784" lon="-6.526882995964408"><ele>867.5999999999999</ele><time>2026-03-23T08:35:56.977Z</time></trkpt><trkpt lat="30.051079885117943" lon="-6.5267971541741385"><ele>868.0</ele><time>2026-03-23T08:35:57.977Z</time></trkpt><trkpt lat="30.051132206367186" lon="-6.526698576233118"><ele>868.0</ele><time>2026-03-23T08:35:58.977Z</time></trkpt><trkpt lat="30.05118405904567" lon="-6.526595834964239"><ele>868.0</ele><time>2026-03-23T08:35:59.977Z</time></trkpt><trkpt lat="30.051233793612585" lon="-6.526501975809477"><ele>868.0</ele><time>2026-03-23T08:36:00.976Z</time></trkpt><trkpt lat="30.05128329777183" lon="-6.526407375554529"><ele>868.0</ele><time>2026-03-23T08:36:01.976Z</time></trkpt><trkpt lat="30.051335235018882" lon="-6.526310171087901"><ele>868.0</ele><time>2026-03-23T08:36:02.976Z</time></trkpt><trkpt lat="30.051386408927716" lon="-6.5262121576949434"><ele>868.25</ele><time>2026-03-23T08:36:03.977Z</time></trkpt><trkpt lat="30.05144733038189" lon="-6.5261109051408654"><ele>868.5</ele><time>2026-03-23T08:36:04.977Z</time></trkpt><trkpt lat="30.051509111028775" lon="-6.5259934329718075"><ele>868.75</ele><time>2026-03-23T08:36:05.977Z</time></trkpt><trkpt lat="30.051574831129177" lon="-6.525869103946095"><ele>869.0</ele><time>2026-03-23T08:36:06.976Z</time></trkpt><trkpt lat="30.051642893340166" lon="-6.525742011152404"><ele>869.5</ele><time>2026-03-23T08:36:07.976Z</time></trkpt><trkpt lat="30.051710020538966" lon="-6.525610750297475"><ele>870.0</ele><time>2026-03-23T08:36:08.976Z</time></trkpt><trkpt lat="30.051782020143094" lon="-6.525475525637521"><ele>870.5</ele><time>2026-03-23T08:36:09.976Z</time></trkpt><trkpt lat="30.05185273622944" lon="-6.5253430003209525"><ele>871.0</ele><time>2026-03-23T08:36:10.976Z</time></trkpt><trkpt lat="30.05192137962244" lon="-6.5252181205547055"><ele>871.0</ele><time>2026-03-23T08:36:11.976Z</time></trkpt><trkpt lat="30.05199131635487" lon="-6.525101368973951"><ele>871.0</ele><time>2026-03-23T08:36:12.976Z</time></trkpt><trkpt lat="30.05205998020394" lon="-6.524982206804876"><ele>871.0</ele><time>2026-03-23T08:36:13.976Z</time></trkpt><trkpt lat="30.05212444577837" lon="-6.524867266283162"><ele>871.0</ele><time>2026-03-23T08:36:14.976Z</time></trkpt><trkpt lat="30.05218289332239" lon="-6.52475808807603"><ele>871.0</ele><time>2026-03-23T08:36:15.976Z</time></trkpt><trkpt lat="30.052237987003497" lon="-6.524644429299898"><ele>871.0</ele><time>2026-03-23T08:36:16.976Z</time></trkpt><trkpt lat="30.05229810768662" lon="-6.524527667808668"><ele>871.0</ele><time>2026-03-23T08:36:17.976Z</time></trkpt><trkpt lat="30.052362457103094" lon="-6.524409057373269"><ele>871.0</ele><time>2026-03-23T08:36:18.976Z</time></trkpt><trkpt lat="30.052422551159527" lon="-6.524295361194407"><ele>871.1999999999999</ele><time>2026-03-23T08:36:19.976Z</time></trkpt><trkpt lat="30.052481026423497" lon="-6.524186170874137"><ele>871.3999999999999</ele><time>2026-03-23T08:36:20.976Z</time></trkpt><trkpt lat="30.052539004631278" lon="-6.524082330541013"><ele>871.6</ele><time>2026-03-23T08:36:21.976Z</time></trkpt><trkpt lat="30.052591794838712" lon="-6.523994949355493"><ele>871.8</ele><time>2026-03-23T08:36:22.976Z</time></trkpt><trkpt lat="30.052643278427666" lon="-6.523909615584599"><ele>872.0</ele><time>2026-03-23T08:36:23.976Z</time></trkpt><trkpt lat="30.05269504718588" lon="-6.523815820335223"><ele>872.0</ele><time>2026-03-23T08:36:24.976Z</time></trkpt><trkpt lat="30.052741961229334" lon="-6.523711599075574"><ele>872.0</ele><time>2026-03-23T08:36:25.976Z</time></trkpt><trkpt lat="30.052798416207573" lon="-6.523595979253568"><ele>872.0</ele><time>2026-03-23T08:36:26.976Z</time></trkpt><trkpt lat="30.052866403259916" lon="-6.5234679041850265"><ele>872.0</ele><time>2026-03-23T08:36:27.976Z</time></trkpt><trkpt lat="30.0529377671903" lon="-6.523340618202886"><ele>872.0</ele><time>2026-03-23T08:36:28.976Z</time></trkpt><trkpt lat="30.052999478877158" lon="-6.523217682651632"><ele>872.0</ele><time>2026-03-23T08:36:29.976Z</time></trkpt><trkpt lat="30.053058265198878" lon="-6.523093054612735"><ele>872.0</ele><time>2026-03-23T08:36:30.976Z</time></trkpt><trkpt lat="30.05312386700746" lon="-6.522968734379927"><ele>872.0</ele><time>2026-03-23T08:36:31.976Z</time></trkpt><trkpt lat="30.053199651739163" lon="-6.522838892781731"><ele>872.0</ele><time>2026-03-23T08:36:32.976Z</time></trkpt><trkpt lat="30.053271607617457" lon="-6.522702325277457"><ele>872.0</ele><time>2026-03-23T08:36:33.976Z</time></trkpt><trkpt lat="30.05333797479643" lon="-6.522569516314147"><ele>872.0</ele><time>2026-03-23T08:36:34.976Z</time></trkpt><trkpt lat="30.053408725262255" lon="-6.52242831548332"><ele>872.0</ele><time>2026-03-23T08:36:35.976Z</time></trkpt><trkpt lat="30.05347589332953" lon="-6.522290543246673"><ele>872.25</ele><time>2026-03-23T08:36:36.976Z</time></trkpt><trkpt lat="30.05354273902158" lon="-6.522172727822969"><ele>872.5</ele><time>2026-03-23T08:36:37.976Z</time></trkpt><trkpt lat="30.05360730875503" lon="-6.522066643133142"><ele>872.75</ele><time>2026-03-23T08:36:38.976Z</time></trkpt><trkpt lat="30.053669316626888" lon="-6.521961891861907"><ele>873.0</ele><time>2026-03-23T08:36:39.976Z</time></trkpt><trkpt lat="30.053740165760363" lon="-6.521864983230604"><ele>873.0</ele><time>2026-03-23T08:36:40.976Z</time></trkpt><trkpt lat="30.053782332219438" lon="-6.5217686940610715"><ele>873.0</ele><time>2026-03-23T08:36:41.976Z</time></trkpt><trkpt lat="30.053825858984556" lon="-6.521666776173572"><ele>873.0</ele><time>2026-03-23T08:36:42.976Z</time></trkpt><trkpt lat="30.053881404740682" lon="-6.521554653416858"><ele>873.0</ele><time>2026-03-23T08:36:43.976Z</time></trkpt><trkpt lat="30.053942017617572" lon="-6.521442595980602"><ele>873.0</ele><time>2026-03-23T08:36:44.976Z</time></trkpt><trkpt lat="30.054001229238434" lon="-6.521326888888971"><ele>873.0</ele><time>2026-03-23T08:36:45.976Z</time></trkpt><trkpt lat="30.054062668781512" lon="-6.5212050990659"><ele>873.0</ele><time>2026-03-23T08:36:46.976Z</time></trkpt><trkpt lat="30.054119733640924" lon="-6.521086597268606"><ele>873.0</ele><time>2026-03-23T08:36:47.976Z</time></trkpt><trkpt lat="30.0541756025151" lon="-6.520965016311304"><ele>873.0</ele><time>2026-03-23T08:36:48.976Z</time></trkpt><trkpt lat="30.054229765646454" lon="-6.520842863440078"><ele>874.0</ele><time>2026-03-23T08:36:49.976Z</time></trkpt><trkpt lat="30.05428337687046" lon="-6.520722939038145"><ele>875.0</ele><time>2026-03-23T08:36:50.976Z</time></trkpt><trkpt lat="30.054341170809586" lon="-6.520592132932407"><ele>876.0</ele><time>2026-03-23T08:36:51.976Z</time></trkpt><trkpt lat="30.054406266122836" lon="-6.520447866223533"><ele>877.0</ele><time>2026-03-23T08:36:52.976Z</time></trkpt><trkpt lat="30.054464776665494" lon="-6.520309258876502"><ele>877.0</ele><time>2026-03-23T08:36:53.976Z</time></trkpt><trkpt lat="30.054520100492066" lon="-6.520180699472685"><ele>877.0</ele><time>2026-03-23T08:36:54.976Z</time></trkpt><trkpt lat="30.054573330972367" lon="-6.520060573802958"><ele>877.0</ele><time>2026-03-23T08:36:55.976Z</time></trkpt><trkpt lat="30.054624076548556" lon="-6.519961361792787"><ele>877.0</ele><time>2026-03-23T08:36:56.976Z</time></trkpt><trkpt lat="30.054668001515882" lon="-6.519869562058716"><ele>877.0</ele><time>2026-03-23T08:36:57.976Z</time></trkpt><trkpt lat="30.05469955572778" lon="-6.519798276018312"><ele>877.0</ele><time>2026-03-23T08:36:58.976Z</time></trkpt><trkpt lat="30.054752297642523" lon="-6.519704245295991"><ele>877.0</ele><time>2026-03-23T08:37:00.976Z</time></trkpt><trkpt lat="30.054791810521056" lon="-6.519560283750006"><ele>877.0</ele><time>2026-03-23T08:37:02.976Z</time></trkpt><trkpt lat="30.054816263928227" lon="-6.519476207824272"><ele>877.0</ele><time>2026-03-23T08:37:03.976Z</time></trkpt><trkpt lat="30.05485076501773" lon="-6.519395913278814"><ele>877.0</ele><time>2026-03-23T08:37:04.976Z</time></trkpt><trkpt lat="30.05488098040884" lon="-6.519320917901238"><ele>877.0</ele><time>2026-03-23T08:37:05.976Z</time></trkpt><trkpt lat="30.054925292203674" lon="-6.5192080937858785"><ele>877.0</ele><time>2026-03-23T08:37:07.976Z</time></trkpt><trkpt lat="30.054960847534545" lon="-6.519096992507953"><ele>877.0</ele><time>2026-03-23T08:37:10.976Z</time></trkpt><trkpt lat="30.055022601984373" lon="-6.518935458488693"><ele>877.0</ele><time>2026-03-23T08:37:12.976Z</time></trkpt><trkpt lat="30.055063582182502" lon="-6.518838973590983"><ele>876.6</ele><time>2026-03-23T08:37:13.976Z</time></trkpt><trkpt lat="30.055101188621613" lon="-6.518730534174945"><ele>876.2</ele><time>2026-03-23T08:37:14.976Z</time></trkpt><trkpt lat="30.055142364040673" lon="-6.518620645855564"><ele>875.8</ele><time>2026-03-23T08:37:15.976Z</time></trkpt><trkpt lat="30.0551765487907" lon="-6.518519929096336"><ele>875.4</ele><time>2026-03-23T08:37:16.976Z</time></trkpt><trkpt lat="30.055214595739915" lon="-6.518427563940814"><ele>875.0</ele><time>2026-03-23T08:37:17.976Z</time></trkpt><trkpt lat="30.055253275968933" lon="-6.518327474128037"><ele>875.0</ele><time>2026-03-23T08:37:18.976Z</time></trkpt><trkpt lat="30.055288310218437" lon="-6.518216149409959"><ele>875.0</ele><time>2026-03-23T08:37:19.976Z</time></trkpt><trkpt lat="30.05532913387387" lon="-6.518100778177506"><ele>875.0</ele><time>2026-03-23T08:37:20.976Z</time></trkpt><trkpt lat="30.05537411298852" lon="-6.517981640993064"><ele>875.0</ele><time>2026-03-23T08:37:21.976Z</time></trkpt><trkpt lat="30.055423522115348" lon="-6.517859282306094"><ele>875.0</ele><time>2026-03-23T08:37:22.975Z</time></trkpt><trkpt lat="30.05547418824401" lon="-6.5177297033211525"><ele>874.5</ele><time>2026-03-23T08:37:23.975Z</time></trkpt><trkpt lat="30.055525222523872" lon="-6.517599278832184"><ele>874.0</ele><time>2026-03-23T08:37:24.975Z</time></trkpt><trkpt lat="30.05557413613744" lon="-6.517465808921848"><ele>873.5</ele><time>2026-03-23T08:37:25.975Z</time></trkpt><trkpt lat="30.0556289033938" lon="-6.517330483933913"><ele>873.0</ele><time>2026-03-23T08:37:26.975Z</time></trkpt><trkpt lat="30.0556845286195" lon="-6.517202610185355"><ele>873.0</ele><time>2026-03-23T08:37:27.975Z</time></trkpt><trkpt lat="30.055737387072547" lon="-6.517084175130986"><ele>873.0</ele><time>2026-03-23T08:37:28.975Z</time></trkpt><trkpt lat="30.05577836654717" lon="-6.516966838007822"><ele>873.0</ele><time>2026-03-23T08:37:29.975Z</time></trkpt><trkpt lat="30.055813906713716" lon="-6.516862662770215"><ele>873.0</ele><time>2026-03-23T08:37:30.975Z</time></trkpt><trkpt lat="30.055856515828026" lon="-6.516762444145854"><ele>873.0</ele><time>2026-03-23T08:37:31.975Z</time></trkpt><trkpt lat="30.05589091396288" lon="-6.5166803801303494"><ele>873.0</ele><time>2026-03-23T08:37:32.975Z</time></trkpt><trkpt lat="30.055915973463268" lon="-6.516606328126654"><ele>873.0</ele><time>2026-03-23T08:37:33.975Z</time></trkpt><trkpt lat="30.055949437480443" lon="-6.516517816177499"><ele>873.0</ele><time>2026-03-23T08:37:34.975Z</time></trkpt><trkpt lat="30.05598075571445" lon="-6.516425558286375"><ele>873.0</ele><time>2026-03-23T08:37:35.975Z</time></trkpt><trkpt lat="30.056020526570183" lon="-6.5163170935325505"><ele>873.0</ele><time>2026-03-23T08:37:36.975Z</time></trkpt><trkpt lat="30.056064715211352" lon="-6.51620374290793"><ele>873.0</ele><time>2026-03-23T08:37:37.975Z</time></trkpt><trkpt lat="30.05610600502068" lon="-6.5161065415051995"><ele>872.9999999999999</ele><time>2026-03-23T08:37:38.975Z</time></trkpt><trkpt lat="30.05614998656406" lon="-6.516024274054707"><ele>873.0</ele><time>2026-03-23T08:37:39.975Z</time></trkpt><trkpt lat="30.056187526992886" lon="-6.515954734871156"><ele>873.0</ele><time>2026-03-23T08:37:40.975Z</time></trkpt><trkpt lat="30.056218997463773" lon="-6.515886631084387"><ele>873.0</ele><time>2026-03-23T08:37:41.975Z</time></trkpt><trkpt lat="30.05624200369227" lon="-6.515815464247054"><ele>873.0</ele><time>2026-03-23T08:37:42.975Z</time></trkpt><trkpt lat="30.056249125238473" lon="-6.515742914893675"><ele>872.9999999999999</ele><time>2026-03-23T08:37:43.975Z</time></trkpt><trkpt lat="30.056239019132356" lon="-6.515644119438966"><ele>873.0</ele><time>2026-03-23T08:37:45.975Z</time></trkpt><trkpt lat="30.05618626685922" lon="-6.51560440237958"><ele>873.0</ele><time>2026-03-23T08:37:47.975Z</time></trkpt><trkpt lat="30.056108267920557" lon="-6.515590043061105"><ele>873.0</ele><time>2026-03-23T08:37:50.975Z</time></trkpt><trkpt lat="30.056059934845976" lon="-6.51550810336855"><ele>873.0</ele><time>2026-03-23T08:37:52.975Z</time></trkpt><trkpt lat="30.056093717505455" lon="-6.515356490725725"><ele>873.0</ele><time>2026-03-23T08:37:54.975Z</time></trkpt><trkpt lat="30.05614198495022" lon="-6.515265195883751"><ele>873.0</ele><time>2026-03-23T08:37:55.975Z</time></trkpt><trkpt lat="30.05619381270954" lon="-6.515143641469017"><ele>872.75</ele><time>2026-03-23T08:37:56.975Z</time></trkpt><trkpt lat="30.05624790241588" lon="-6.515009515705205"><ele>872.5</ele><time>2026-03-23T08:37:57.975Z</time></trkpt><trkpt lat="30.05630354014581" lon="-6.514878101237913"><ele>872.25</ele><time>2026-03-23T08:37:58.975Z</time></trkpt><trkpt lat="30.05635342794097" lon="-6.514756644671499"><ele>872.0</ele><time>2026-03-23T08:37:59.976Z</time></trkpt><trkpt lat="30.056400738013778" lon="-6.514656244498549"><ele>871.6666666666667</ele><time>2026-03-23T08:38:00.976Z</time></trkpt><trkpt lat="30.056426848189112" lon="-6.514551670418282"><ele>871.3333333333334</ele><time>2026-03-23T08:38:01.976Z</time></trkpt><trkpt lat="30.056468413529227" lon="-6.514465283511954"><ele>871.0</ele><time>2026-03-23T08:38:02.976Z</time></trkpt><trkpt lat="30.056553080670827" lon="-6.514402182598712"><ele>870.6666666666667</ele><time>2026-03-23T08:38:04.976Z</time></trkpt><trkpt lat="30.05661785675171" lon="-6.514463565588306"><ele>870.3333333333334</ele><time>2026-03-23T08:38:06.977Z</time></trkpt><trkpt lat="30.05666710424938" lon="-6.514529544120234"><ele>870.0</ele><time>2026-03-23T08:38:08.976Z</time></trkpt><trkpt lat="30.05675029244704" lon="-6.514503528457782"><ele>871.0</ele><time>2026-03-23T08:38:11.976Z</time></trkpt><trkpt lat="30.056776329543236" lon="-6.514379507389037"><ele>872.0</ele><time>2026-03-23T08:38:13.977Z</time></trkpt><trkpt lat="30.056759231271748" lon="-6.514270839782328"><ele>873.0</ele><time>2026-03-23T08:38:16.977Z</time></trkpt><trkpt lat="30.056802321341827" lon="-6.514171670070588"><ele>874.0</ele><time>2026-03-23T08:38:18.977Z</time></trkpt><trkpt lat="30.056905187447448" lon="-6.514030857056627"><ele>874.0</ele><time>2026-03-23T08:38:20.977Z</time></trkpt><trkpt lat="30.056962761655836" lon="-6.513918996201862"><ele>874.0</ele><time>2026-03-23T08:38:21.977Z</time></trkpt><trkpt lat="30.05700841052284" lon="-6.513795389095931"><ele>874.0</ele><time>2026-03-23T08:38:22.977Z</time></trkpt><trkpt lat="30.057058369921617" lon="-6.5136653487522365"><ele>874.0</ele><time>2026-03-23T08:38:23.977Z</time></trkpt><trkpt lat="30.057107583697285" lon="-6.513546295426141"><ele>873.6</ele><time>2026-03-23T08:38:24.977Z</time></trkpt><trkpt lat="30.057156290316446" lon="-6.513440163815471"><ele>873.2</ele><time>2026-03-23T08:38:25.977Z</time></trkpt><trkpt lat="30.0571931198808" lon="-6.513340015466131"><ele>872.8000000000001</ele><time>2026-03-23T08:38:26.977Z</time></trkpt><trkpt lat="30.057237687421857" lon="-6.513244668098081"><ele>872.4000000000001</ele><time>2026-03-23T08:38:27.977Z</time></trkpt><trkpt lat="30.057275176144998" lon="-6.513155772480229"><ele>872.0</ele><time>2026-03-23T08:38:28.977Z</time></trkpt><trkpt lat="30.057315051003542" lon="-6.513078032474385"><ele>872.0000000000001</ele><time>2026-03-23T08:38:29.977Z</time></trkpt><trkpt lat="30.057372524065467" lon="-6.512939310285379"><ele>872.0</ele><time>2026-03-23T08:38:31.977Z</time></trkpt><trkpt lat="30.05741160809285" lon="-6.512856673718592"><ele>872.0</ele><time>2026-03-23T08:38:32.977Z</time></trkpt><trkpt lat="30.05743742581193" lon="-6.512771451384523"><ele>872.0</ele><time>2026-03-23T08:38:33.976Z</time></trkpt><trkpt lat="30.057452171780202" lon="-6.512690102506172"><ele>872.0000000000001</ele><time>2026-03-23T08:38:34.976Z</time></trkpt><trkpt lat="30.057471220769692" lon="-6.512613029959234"><ele>872.0</ele><time>2026-03-23T08:38:35.976Z</time></trkpt><trkpt lat="30.057501387499983" lon="-6.512528993477547"><ele>872.5000000000001</ele><time>2026-03-23T08:38:36.976Z</time></trkpt><trkpt lat="30.057527153674688" lon="-6.512450153256091"><ele>873.0</ele><time>2026-03-23T08:38:37.976Z</time></trkpt><trkpt lat="30.05755383155247" lon="-6.512371275787776"><ele>873.5</ele><time>2026-03-23T08:38:38.976Z</time></trkpt><trkpt lat="30.057584985879267" lon="-6.51229269232051"><ele>874.0</ele><time>2026-03-23T08:38:39.976Z</time></trkpt><trkpt lat="30.057623594483623" lon="-6.512201600597218"><ele>874.5000000000001</ele><time>2026-03-23T08:38:40.976Z</time></trkpt><trkpt lat="30.057660264799857" lon="-6.512114793045922"><ele>875.0</ele><time>2026-03-23T08:38:41.976Z</time></trkpt><trkpt lat="30.05768992304119" lon="-6.5120414241041695"><ele>875.0000000000001</ele><time>2026-03-23T08:38:42.976Z</time></trkpt><trkpt lat="30.05771952498746" lon="-6.511971150841199"><ele>875.0</ele><time>2026-03-23T08:38:43.976Z</time></trkpt><trkpt lat="30.057745480172425" lon="-6.511889152607839"><ele>875.0</ele><time>2026-03-23T08:38:44.976Z</time></trkpt><trkpt lat="30.057772862499213" lon="-6.511809882464485"><ele>875.0</ele><time>2026-03-23T08:38:45.976Z</time></trkpt><trkpt lat="30.05780901014767" lon="-6.511716841571571"><ele>875.0000000000001</ele><time>2026-03-23T08:38:46.976Z</time></trkpt><trkpt lat="30.057849748259144" lon="-6.511627355846828"><ele>875.0</ele><time>2026-03-23T08:38:47.976Z</time></trkpt><trkpt lat="30.057884629305807" lon="-6.5115257684047805"><ele>875.0</ele><time>2026-03-23T08:38:48.976Z</time></trkpt><trkpt lat="30.05792509771974" lon="-6.511423694735591"><ele>875.0</ele><time>2026-03-23T08:38:49.976Z</time></trkpt><trkpt lat="30.057961098130956" lon="-6.5113264184984105"><ele>875.0</ele><time>2026-03-23T08:38:50.976Z</time></trkpt><trkpt lat="30.058001267520705" lon="-6.51121978734575"><ele>875.0</ele><time>2026-03-23T08:38:51.976Z</time></trkpt><trkpt lat="30.05805610417957" lon="-6.51110333227283"><ele>875.0</ele><time>2026-03-23T08:38:52.976Z</time></trkpt><trkpt lat="30.0581067232957" lon="-6.51099066536876"><ele>874.8</ele><time>2026-03-23T08:38:53.976Z</time></trkpt><trkpt lat="30.058147723674733" lon="-6.510885190098089"><ele>874.6</ele><time>2026-03-23T08:38:54.976Z</time></trkpt><trkpt lat="30.05818395602477" lon="-6.510783452428791"><ele>874.4000000000001</ele><time>2026-03-23T08:38:55.976Z</time></trkpt><trkpt lat="30.058218583197544" lon="-6.510688137020796"><ele>874.2</ele><time>2026-03-23T08:38:56.976Z</time></trkpt><trkpt lat="30.05825586584405" lon="-6.510580427819523"><ele>874.0</ele><time>2026-03-23T08:38:57.976Z</time></trkpt><trkpt lat="30.058297287769356" lon="-6.510473960473182"><ele>874.6</ele><time>2026-03-23T08:38:58.976Z</time></trkpt><trkpt lat="30.05834227575555" lon="-6.510379815026577"><ele>875.2</ele><time>2026-03-23T08:38:59.976Z</time></trkpt><trkpt lat="30.05839984201787" lon="-6.510295266136623"><ele>875.8000000000001</ele><time>2026-03-23T08:39:00.976Z</time></trkpt><trkpt lat="30.058452610447535" lon="-6.510194974344338"><ele>876.4000000000001</ele><time>2026-03-23T08:39:01.976Z</time></trkpt><trkpt lat="30.05848568461521" lon="-6.510088031641988"><ele>877.0</ele><time>2026-03-23T08:39:02.976Z</time></trkpt><trkpt lat="30.058525701543445" lon="-6.509983607693572"><ele>877.0</ele><time>2026-03-23T08:39:03.976Z</time></trkpt><trkpt lat="30.05856700573077" lon="-6.509889371102371"><ele>877.0</ele><time>2026-03-23T08:39:04.976Z</time></trkpt><trkpt lat="30.05861058913799" lon="-6.509787541239979"><ele>877.0</ele><time>2026-03-23T08:39:05.976Z</time></trkpt><trkpt lat="30.058644046041756" lon="-6.5096768733163834"><ele>877.0</ele><time>2026-03-23T08:39:06.976Z</time></trkpt><trkpt lat="30.058677258087513" lon="-6.509563563408493"><ele>877.0</ele><time>2026-03-23T08:39:07.976Z</time></trkpt><trkpt lat="30.05871616255191" lon="-6.509451951379228"><ele>877.0</ele><time>2026-03-23T08:39:08.976Z</time></trkpt><trkpt lat="30.05876220372737" lon="-6.5093442178089385"><ele>877.0</ele><time>2026-03-23T08:39:09.976Z</time></trkpt><trkpt lat="30.05879968342485" lon="-6.509222220805949"><ele>877.0</ele><time>2026-03-23T08:39:10.976Z</time></trkpt><trkpt lat="30.058842291634704" lon="-6.509094407448015"><ele>877.0</ele><time>2026-03-23T08:39:11.976Z</time></trkpt><trkpt lat="30.05889456016626" lon="-6.508972321507904"><ele>877.0</ele><time>2026-03-23T08:39:12.976Z</time></trkpt><trkpt lat="30.05894152349287" lon="-6.508846933821236"><ele>877.0</ele><time>2026-03-23T08:39:13.976Z</time></trkpt><trkpt lat="30.058991484862023" lon="-6.508723647778436"><ele>877.0</ele><time>2026-03-23T08:39:14.976Z</time></trkpt><trkpt lat="30.05904507848783" lon="-6.508597801956706"><ele>877.0</ele><time>2026-03-23T08:39:15.976Z</time></trkpt><trkpt lat="30.059097053687616" lon="-6.5084648290845"><ele>877.25</ele><time>2026-03-23T08:39:16.976Z</time></trkpt><trkpt lat="30.059147999134687" lon="-6.508328940210386"><ele>877.5</ele><time>2026-03-23T08:39:17.976Z</time></trkpt><trkpt lat="30.059200629550947" lon="-6.508193681719997"><ele>877.75</ele><time>2026-03-23T08:39:18.976Z</time></trkpt><trkpt lat="30.05925983572649" lon="-6.508058922102339"><ele>878.0</ele><time>2026-03-23T08:39:19.976Z</time></trkpt><trkpt lat="30.059312182812153" lon="-6.5079307581618595"><ele>878.2</ele><time>2026-03-23T08:39:20.976Z</time></trkpt><trkpt lat="30.059364348407048" lon="-6.507803822364137"><ele>878.4</ele><time>2026-03-23T08:39:21.976Z</time></trkpt><trkpt lat="30.0594128872403" lon="-6.507676869867101"><ele>878.6000000000001</ele><time>2026-03-23T08:39:22.976Z</time></trkpt><trkpt lat="30.059454661621764" lon="-6.507563718685792"><ele>878.8000000000001</ele><time>2026-03-23T08:39:23.976Z</time></trkpt><trkpt lat="30.059491628322785" lon="-6.507456321241519"><ele>879.0</ele><time>2026-03-23T08:39:24.976Z</time></trkpt><trkpt lat="30.059533801948394" lon="-6.507367789062135"><ele>879.0</ele><time>2026-03-23T08:39:25.976Z</time></trkpt><trkpt lat="30.059563475669016" lon="-6.507298002475774"><ele>879.0</ele><time>2026-03-23T08:39:26.976Z</time></trkpt><trkpt lat="30.059562733500144" lon="-6.507215364052133"><ele>879.0</ele><time>2026-03-23T08:39:28.976Z</time></trkpt><trkpt lat="30.05950562917922" lon="-6.507150530098813"><ele>879.0</ele><time>2026-03-23T08:39:31.976Z</time></trkpt><trkpt lat="30.0594215513858" lon="-6.507070564553925"><ele>879.0</ele><time>2026-03-23T08:39:33.976Z</time></trkpt><trkpt lat="30.059396625304764" lon="-6.506972906550578"><ele>879.0</ele><time>2026-03-23T08:39:35.976Z</time></trkpt><trkpt lat="30.05941087901815" lon="-6.506894126401195"><ele>879.25</ele><time>2026-03-23T08:39:36.976Z</time></trkpt><trkpt lat="30.05945661246409" lon="-6.506783654175464"><ele>879.5</ele><time>2026-03-23T08:39:37.976Z</time></trkpt><trkpt lat="30.059510778913552" lon="-6.506646031730473"><ele>879.75</ele><time>2026-03-23T08:39:38.976Z</time></trkpt><trkpt lat="30.059567719608605" lon="-6.506507143384389"><ele>880.0</ele><time>2026-03-23T08:39:39.976Z</time></trkpt><trkpt lat="30.059620342735496" lon="-6.506377794799056"><ele>879.5</ele><time>2026-03-23T08:39:40.976Z</time></trkpt><trkpt lat="30.059665888918172" lon="-6.506237032959741"><ele>879.0</ele><time>2026-03-23T08:39:41.976Z</time></trkpt><trkpt lat="30.059716326001784" lon="-6.506108396193822"><ele>878.5</ele><time>2026-03-23T08:39:42.976Z</time></trkpt><trkpt lat="30.059767273186303" lon="-6.505982994964693"><ele>878.0</ele><time>2026-03-23T08:39:43.976Z</time></trkpt><trkpt lat="30.05982127876751" lon="-6.505854605435978"><ele>878.0</ele><time>2026-03-23T08:39:44.976Z</time></trkpt><trkpt lat="30.059874418725926" lon="-6.505727100498189"><ele>878.0</ele><time>2026-03-23T08:39:45.976Z</time></trkpt><trkpt lat="30.059919602650858" lon="-6.505597627340056"><ele>878.0</ele><time>2026-03-23T08:39:46.976Z</time></trkpt><trkpt lat="30.059963303664922" lon="-6.505477127027155"><ele>878.0</ele><time>2026-03-23T08:39:47.976Z</time></trkpt><trkpt lat="30.060006214702323" lon="-6.505364141588276"><ele>878.3333333333334</ele><time>2026-03-23T08:39:48.976Z</time></trkpt><trkpt lat="30.06004596382395" lon="-6.50526437761528"><ele>878.6666666666667</ele><time>2026-03-23T08:39:49.976Z</time></trkpt><trkpt lat="30.060083803964073" lon="-6.505166496970753"><ele>879.0</ele><time>2026-03-23T08:39:50.976Z</time></trkpt><trkpt lat="30.060119394130272" lon="-6.5050746606079795"><ele>879.3333333333333</ele><time>2026-03-23T08:39:51.976Z</time></trkpt><trkpt lat="30.060146111939474" lon="-6.505002539342362"><ele>879.6666666666666</ele><time>2026-03-23T08:39:52.976Z</time></trkpt><trkpt lat="30.060195418781984" lon="-6.504914774291401"><ele>880.0</ele><time>2026-03-23T08:39:54.976Z</time></trkpt><trkpt lat="30.0602510148304" lon="-6.504850390687367"><ele>880.0</ele><time>2026-03-23T08:43:16.974Z</time></trkpt><trkpt lat="30.0602901929196" lon="-6.504714928880361"><ele>880.0</ele><time>2026-03-23T08:43:18.974Z</time></trkpt><trkpt lat="30.0603301552437" lon="-6.504644053131246"><ele>880.0</ele><time>2026-03-23T08:43:19.974Z</time></trkpt><trkpt lat="30.060425131952876" lon="-6.504621682418325"><ele>880.0</ele><time>2026-03-23T08:43:21.974Z</time></trkpt><trkpt lat="30.06053600589565" lon="-6.504630114467528"><ele>880.0</ele><time>2026-03-23T08:43:23.974Z</time></trkpt><trkpt lat="30.060632060754255" lon="-6.504574115663585"><ele>880.5</ele><time>2026-03-23T08:43:25.974Z</time></trkpt><trkpt lat="30.0606962254868" lon="-6.504427084670384"><ele>881.0</ele><time>2026-03-23T08:43:27.974Z</time></trkpt><trkpt lat="30.06073075134551" lon="-6.504307419674964"><ele>881.5</ele><time>2026-03-23T08:43:28.974Z</time></trkpt><trkpt lat="30.060780705213684" lon="-6.50416568291696"><ele>882.0</ele><time>2026-03-23T08:43:29.974Z</time></trkpt><trkpt lat="30.060829634099424" lon="-6.5040385205104805"><ele>882.0</ele><time>2026-03-23T08:43:30.974Z</time></trkpt><trkpt lat="30.060876623042944" lon="-6.503917842844297"><ele>882.0</ele><time>2026-03-23T08:43:31.974Z</time></trkpt><trkpt lat="30.060915052077295" lon="-6.503809127003932"><ele>882.0</ele><time>2026-03-23T08:43:32.974Z</time></trkpt><trkpt lat="30.060959866022262" lon="-6.503710596039306"><ele>882.0</ele><time>2026-03-23T08:43:33.974Z</time></trkpt><trkpt lat="30.061000040427356" lon="-6.503623950633812"><ele>882.0</ele><time>2026-03-23T08:43:34.974Z</time></trkpt><trkpt lat="30.061034972153802" lon="-6.503536886168673"><ele>882.0</ele><time>2026-03-23T08:43:35.974Z</time></trkpt><trkpt lat="30.061063658869433" lon="-6.503452120825235"><ele>882.0</ele><time>2026-03-23T08:43:36.974Z</time></trkpt><trkpt lat="30.061091636189346" lon="-6.503367986816884"><ele>882.0</ele><time>2026-03-23T08:43:37.974Z</time></trkpt><trkpt lat="30.061120525809034" lon="-6.5032695673349945"><ele>882.0</ele><time>2026-03-23T08:43:38.974Z</time></trkpt><trkpt lat="30.061155818596806" lon="-6.5031808494963474"><ele>882.0</ele><time>2026-03-23T08:43:39.974Z</time></trkpt><trkpt lat="30.061192613640884" lon="-6.503089355543462"><ele>882.0</ele><time>2026-03-23T08:43:40.974Z</time></trkpt><trkpt lat="30.061238331702754" lon="-6.502987066105327"><ele>882.0</ele><time>2026-03-23T08:43:41.974Z</time></trkpt><trkpt lat="30.061293003886934" lon="-6.502871589012605"><ele>882.0</ele><time>2026-03-23T08:43:42.974Z</time></trkpt><trkpt lat="30.061351284154515" lon="-6.502753690487653"><ele>882.0</ele><time>2026-03-23T08:43:43.974Z</time></trkpt><trkpt lat="30.061408051982923" lon="-6.502639840327763"><ele>882.0</ele><time>2026-03-23T08:43:44.974Z</time></trkpt><trkpt lat="30.061453178420027" lon="-6.502519897781746"><ele>882.0</ele><time>2026-03-23T08:43:45.974Z</time></trkpt><trkpt lat="30.06149273103837" lon="-6.502409458090757"><ele>882.0</ele><time>2026-03-23T08:43:46.974Z</time></trkpt><trkpt lat="30.061527251252073" lon="-6.5023020847559625"><ele>882.0</ele><time>2026-03-23T08:43:47.974Z</time></trkpt><trkpt lat="30.06156350265033" lon="-6.502210182344947"><ele>882.0</ele><time>2026-03-23T08:43:48.974Z</time></trkpt><trkpt lat="30.061593210758495" lon="-6.502129332432597"><ele>882.0</ele><time>2026-03-23T08:43:49.974Z</time></trkpt><trkpt lat="30.06162836095126" lon="-6.50204818914973"><ele>882.0</ele><time>2026-03-23T08:43:50.974Z</time></trkpt><trkpt lat="30.061674090048854" lon="-6.5019470616039525"><ele>882.5</ele><time>2026-03-23T08:43:51.974Z</time></trkpt><trkpt lat="30.061743225847852" lon="-6.501804624757788"><ele>883.0</ele><time>2026-03-23T08:43:52.974Z</time></trkpt><trkpt lat="30.061794868028066" lon="-6.501685330396315"><ele>883.5</ele><time>2026-03-23T08:43:53.974Z</time></trkpt><trkpt lat="30.061847899425498" lon="-6.50156533279233"><ele>884.0</ele><time>2026-03-23T08:43:54.974Z</time></trkpt><trkpt lat="30.061891571896247" lon="-6.501446890445457"><ele>884.0</ele><time>2026-03-23T08:43:55.974Z</time></trkpt><trkpt lat="30.06192577028736" lon="-6.50132433499947"><ele>884.0000000000001</ele><time>2026-03-23T08:43:56.974Z</time></trkpt><trkpt lat="30.061963425095524" lon="-6.50120936683997"><ele>884.0000000000001</ele><time>2026-03-23T08:43:57.974Z</time></trkpt><trkpt lat="30.062001292195642" lon="-6.501095237970898"><ele>884.0</ele><time>2026-03-23T08:43:58.974Z</time></trkpt><trkpt lat="30.06204469396864" lon="-6.500991419812749"><ele>884.0</ele><time>2026-03-23T08:43:59.974Z</time></trkpt><trkpt lat="30.06208848056659" lon="-6.500895128039577"><ele>884.0</ele><time>2026-03-23T08:44:00.974Z</time></trkpt><trkpt lat="30.06213197461106" lon="-6.500802336312906"><ele>884.0000000000001</ele><time>2026-03-23T08:44:01.974Z</time></trkpt><trkpt lat="30.062166392723782" lon="-6.500699168245941"><ele>884.0000000000001</ele><time>2026-03-23T08:44:02.974Z</time></trkpt><trkpt lat="30.062194024025807" lon="-6.50061064725834"><ele>884.0</ele><time>2026-03-23T08:44:03.974Z</time></trkpt><trkpt lat="30.062223877080253" lon="-6.500538936675305"><ele>884.0</ele><time>2026-03-23T08:44:04.974Z</time></trkpt><trkpt lat="30.062271031426754" lon="-6.500416023439651"><ele>884.3333333333334</ele><time>2026-03-23T08:44:06.974Z</time></trkpt><trkpt lat="30.062309847889654" lon="-6.500326443905581"><ele>884.6666666666667</ele><time>2026-03-23T08:44:08.974Z</time></trkpt><trkpt lat="30.06234368595321" lon="-6.500225405151416"><ele>885.0</ele><time>2026-03-23T08:44:10.974Z</time></trkpt><trkpt lat="30.062369906273688" lon="-6.500094701807894"><ele>885.3333333333333</ele><time>2026-03-23T08:44:12.974Z</time></trkpt><trkpt lat="30.062384629504372" lon="-6.500013974640019"><ele>885.6666666666666</ele><time>2026-03-23T08:44:13.974Z</time></trkpt><trkpt lat="30.06242169630279" lon="-6.499930325314419"><ele>886.0</ele><time>2026-03-23T08:44:14.974Z</time></trkpt><trkpt lat="30.062461721082006" lon="-6.499823897079802"><ele>886.0</ele><time>2026-03-23T08:44:15.974Z</time></trkpt><trkpt lat="30.06251102819192" lon="-6.499698760686557"><ele>886.0</ele><time>2026-03-23T08:44:16.974Z</time></trkpt><trkpt lat="30.062565526324583" lon="-6.499575852916807"><ele>886.0</ele><time>2026-03-23T08:44:17.975Z</time></trkpt><trkpt lat="30.062623542035354" lon="-6.499438724197849"><ele>886.0</ele><time>2026-03-23T08:44:18.974Z</time></trkpt><trkpt lat="30.062671364310265" lon="-6.499297652469522"><ele>886.0</ele><time>2026-03-23T08:44:19.974Z</time></trkpt><trkpt lat="30.062719058425632" lon="-6.499160335729972"><ele>886.0</ele><time>2026-03-23T08:44:20.974Z</time></trkpt><trkpt lat="30.06276499149763" lon="-6.499028201076734"><ele>886.0</ele><time>2026-03-23T08:44:21.974Z</time></trkpt><trkpt lat="30.062815685851852" lon="-6.49889388923625"><ele>886.0</ele><time>2026-03-23T08:44:22.974Z</time></trkpt><trkpt lat="30.062860260453668" lon="-6.498771454870523"><ele>886.0</ele><time>2026-03-23T08:44:23.975Z</time></trkpt><trkpt lat="30.06291298671057" lon="-6.498647268631882"><ele>886.0</ele><time>2026-03-23T08:44:24.974Z</time></trkpt><trkpt lat="30.062960704376287" lon="-6.49852460642453"><ele>886.0</ele><time>2026-03-23T08:44:25.974Z</time></trkpt><trkpt lat="30.06300433797606" lon="-6.498398707995687"><ele>886.0</ele><time>2026-03-23T08:44:26.974Z</time></trkpt><trkpt lat="30.063044512112388" lon="-6.498274412403569"><ele>886.0</ele><time>2026-03-23T08:44:27.974Z</time></trkpt><trkpt lat="30.063087999052694" lon="-6.498163090647273"><ele>885.9999999999999</ele><time>2026-03-23T08:44:28.974Z</time></trkpt><trkpt lat="30.063136338662044" lon="-6.498036801812181"><ele>885.9999999999999</ele><time>2026-03-23T08:44:29.974Z</time></trkpt><trkpt lat="30.06318169950368" lon="-6.497932479482432"><ele>886.0</ele><time>2026-03-23T08:44:30.974Z</time></trkpt><trkpt lat="30.063234788122376" lon="-6.4978178381360205"><ele>886.0</ele><time>2026-03-23T08:44:31.974Z</time></trkpt><trkpt lat="30.06329207403518" lon="-6.497705148703789"><ele>886.4</ele><time>2026-03-23T08:44:32.974Z</time></trkpt><trkpt lat="30.063339025229556" lon="-6.497587860045693"><ele>886.8</ele><time>2026-03-23T08:44:33.974Z</time></trkpt><trkpt lat="30.063382715733432" lon="-6.497478084220853"><ele>887.1999999999999</ele><time>2026-03-23T08:44:34.974Z</time></trkpt><trkpt lat="30.063417472940255" lon="-6.497375237369251"><ele>887.5999999999999</ele><time>2026-03-23T08:44:35.974Z</time></trkpt><trkpt lat="30.063458542066797" lon="-6.497268638592146"><ele>888.0</ele><time>2026-03-23T08:44:36.974Z</time></trkpt><trkpt lat="30.063504380541822" lon="-6.4971594395560315"><ele>887.8</ele><time>2026-03-23T08:44:37.974Z</time></trkpt><trkpt lat="30.063554961270487" lon="-6.497052261594271"><ele>887.5999999999999</ele><time>2026-03-23T08:44:38.974Z</time></trkpt><trkpt lat="30.06360759801043" lon="-6.496942409594122"><ele>887.4000000000001</ele><time>2026-03-23T08:44:39.974Z</time></trkpt><trkpt lat="30.063654865023594" lon="-6.496838284248917"><ele>887.2</ele><time>2026-03-23T08:44:40.974Z</time></trkpt><trkpt lat="30.06369418804253" lon="-6.496748787002327"><ele>887.0</ele><time>2026-03-23T08:44:41.974Z</time></trkpt><trkpt lat="30.06374764873756" lon="-6.496656351886155"><ele>887.0</ele><time>2026-03-23T08:44:42.974Z</time></trkpt><trkpt lat="30.063798036629517" lon="-6.496560690297334"><ele>887.0</ele><time>2026-03-23T08:44:43.974Z</time></trkpt><trkpt lat="30.063840492643177" lon="-6.496458896528355"><ele>887.0</ele><time>2026-03-23T08:44:44.974Z</time></trkpt><trkpt lat="30.06388342583531" lon="-6.496357906625346"><ele>887.0</ele><time>2026-03-23T08:44:45.974Z</time></trkpt><trkpt lat="30.063916936168926" lon="-6.496271536419628"><ele>887.0</ele><time>2026-03-23T08:44:46.974Z</time></trkpt><trkpt lat="30.06395253193759" lon="-6.496190679070572"><ele>887.1666666666667</ele><time>2026-03-23T08:44:47.974Z</time></trkpt><trkpt lat="30.063984768406396" lon="-6.496117941607561"><ele>887.3333333333334</ele><time>2026-03-23T08:44:48.974Z</time></trkpt><trkpt lat="30.064024341098303" lon="-6.496032098921886"><ele>887.5</ele><time>2026-03-23T08:44:50.974Z</time></trkpt><trkpt lat="30.06400722000674" lon="-6.49595668819998"><ele>887.6666666666667</ele><time>2026-03-23T08:44:55.974Z</time></trkpt><trkpt lat="30.06393096745261" lon="-6.495934954838263"><ele>887.8333333333334</ele><time>2026-03-23T08:44:57.974Z</time></trkpt><trkpt lat="30.0638582577849" lon="-6.495895388470783"><ele>888.0</ele><time>2026-03-23T08:45:00.974Z</time></trkpt><trkpt lat="30.063837076717352" lon="-6.495820116531029"><ele>888.0</ele><time>2026-03-23T08:45:02.974Z</time></trkpt><trkpt lat="30.063910598287535" lon="-6.495685636579179"><ele>888.0</ele><time>2026-03-23T08:45:04.974Z</time></trkpt><trkpt lat="30.063955235423133" lon="-6.4955940551914"><ele>888.0</ele><time>2026-03-23T08:45:05.974Z</time></trkpt><trkpt lat="30.064003669527047" lon="-6.495491881375993"><ele>888.0</ele><time>2026-03-23T08:45:06.974Z</time></trkpt><trkpt lat="30.064063820633308" lon="-6.495363811912061"><ele>888.0</ele><time>2026-03-23T08:45:07.974Z</time></trkpt><trkpt lat="30.064130818505" lon="-6.495225574769398"><ele>888.0</ele><time>2026-03-23T08:45:08.974Z</time></trkpt><trkpt lat="30.06419244385619" lon="-6.495094627697604"><ele>888.0</ele><time>2026-03-23T08:45:09.974Z</time></trkpt><trkpt lat="30.064251514505617" lon="-6.49496223247958"><ele>888.0</ele><time>2026-03-23T08:45:10.974Z</time></trkpt><trkpt lat="30.064311452733815" lon="-6.494830860748647"><ele>888.0</ele><time>2026-03-23T08:45:11.974Z</time></trkpt><trkpt lat="30.064371267084883" lon="-6.494700841617498"><ele>888.0</ele><time>2026-03-23T08:45:12.974Z</time></trkpt><trkpt lat="30.064430632547683" lon="-6.494564054967727"><ele>888.0</ele><time>2026-03-23T08:45:13.974Z</time></trkpt><trkpt lat="30.064487684407297" lon="-6.4944369059882066"><ele>888.0</ele><time>2026-03-23T08:45:14.974Z</time></trkpt><trkpt lat="30.064537373224454" lon="-6.4943171954597565"><ele>888.0</ele><time>2026-03-23T08:45:15.974Z</time></trkpt><trkpt lat="30.064587760608212" lon="-6.494216674375311"><ele>888.0</ele><time>2026-03-23T08:45:16.974Z</time></trkpt><trkpt lat="30.064642082061283" lon="-6.494123987506049"><ele>888.0</ele><time>2026-03-23T08:45:17.974Z</time></trkpt><trkpt lat="30.06468257147535" lon="-6.49402259943588"><ele>888.0</ele><time>2026-03-23T08:45:18.974Z</time></trkpt><trkpt lat="30.064720913437927" lon="-6.493953288570629"><ele>888.0</ele><time>2026-03-23T08:45:19.974Z</time></trkpt><trkpt lat="30.064783077893463" lon="-6.493926591252673"><ele>888.0</ele><time>2026-03-23T08:45:20.974Z</time></trkpt><trkpt lat="30.06484746267576" lon="-6.493932377036466"><ele>888.0</ele><time>2026-03-23T08:45:21.974Z</time></trkpt><trkpt lat="30.064905195499442" lon="-6.493978139760006"><ele>888.0</ele><time>2026-03-23T08:45:22.974Z</time></trkpt><trkpt lat="30.064970121910555" lon="-6.494003692004889"><ele>888.0</ele><time>2026-03-23T08:45:23.974Z</time></trkpt><trkpt lat="30.065031755022368" lon="-6.4939731122856355"><ele>888.0</ele><time>2026-03-23T08:45:24.974Z</time></trkpt><trkpt lat="30.06507752028645" lon="-6.493888857440321"><ele>888.0</ele><time>2026-03-23T08:45:25.974Z</time></trkpt><trkpt lat="30.06510517225041" lon="-6.493767104015307"><ele>888.0</ele><time>2026-03-23T08:45:26.974Z</time></trkpt><trkpt lat="30.06514276093019" lon="-6.493609757827284"><ele>888.3333333333333</ele><time>2026-03-23T08:45:27.974Z</time></trkpt><trkpt lat="30.065207573997156" lon="-6.4934490858495835"><ele>888.6666666666666</ele><time>2026-03-23T08:45:28.974Z</time></trkpt><trkpt lat="30.06529066896956" lon="-6.4932799030710235"><ele>889.0</ele><time>2026-03-23T08:45:29.974Z</time></trkpt><trkpt lat="30.06535868341248" lon="-6.493130791853952"><ele>889.0</ele><time>2026-03-23T08:45:30.974Z</time></trkpt><trkpt lat="30.065425741365384" lon="-6.492997067364586"><ele>889.0</ele><time>2026-03-23T08:45:31.974Z</time></trkpt><trkpt lat="30.065492602298285" lon="-6.492861522056535"><ele>889.0</ele><time>2026-03-23T08:45:32.974Z</time></trkpt><trkpt lat="30.0655607276033" lon="-6.492731388093378"><ele>889.0</ele><time>2026-03-23T08:45:33.974Z</time></trkpt><trkpt lat="30.065628510302545" lon="-6.492611112948641"><ele>889.0</ele><time>2026-03-23T08:45:34.974Z</time></trkpt><trkpt lat="30.06567771566278" lon="-6.492497728830104"><ele>889.0</ele><time>2026-03-23T08:45:35.974Z</time></trkpt><trkpt lat="30.065718635788595" lon="-6.4923685572143945"><ele>889.0</ele><time>2026-03-23T08:45:36.974Z</time></trkpt><trkpt lat="30.06577750555106" lon="-6.492218751198571"><ele>889.0</ele><time>2026-03-23T08:45:37.974Z</time></trkpt><trkpt lat="30.065841549262462" lon="-6.49206333149972"><ele>889.0</ele><time>2026-03-23T08:45:38.974Z</time></trkpt><trkpt lat="30.06590236070956" lon="-6.4919119466376785"><ele>889.0</ele><time>2026-03-23T08:45:39.974Z</time></trkpt><trkpt lat="30.065957779625094" lon="-6.491776607165906"><ele>889.0</ele><time>2026-03-23T08:45:40.974Z</time></trkpt><trkpt lat="30.066011847967157" lon="-6.491649415823794"><ele>889.0</ele><time>2026-03-23T08:45:41.974Z</time></trkpt><trkpt lat="30.066070112977304" lon="-6.491527726775169"><ele>889.0</ele><time>2026-03-23T08:45:42.974Z</time></trkpt><trkpt lat="30.06612934846891" lon="-6.491400590767728"><ele>889.0000000000001</ele><time>2026-03-23T08:45:43.974Z</time></trkpt><trkpt lat="30.06618814322902" lon="-6.491276381829823"><ele>889.0000000000001</ele><time>2026-03-23T08:45:44.974Z</time></trkpt><trkpt lat="30.066243555535937" lon="-6.491171354282879"><ele>889.0</ele><time>2026-03-23T08:45:45.974Z</time></trkpt><trkpt lat="30.06628480958035" lon="-6.491073849857315"><ele>889.0</ele><time>2026-03-23T08:45:46.974Z</time></trkpt><trkpt lat="30.066325453352146" lon="-6.490975330280305"><ele>889.0</ele><time>2026-03-23T08:45:47.974Z</time></trkpt><trkpt lat="30.066365739525963" lon="-6.490874560102526"><ele>889.0000000000001</ele><time>2026-03-23T08:45:48.974Z</time></trkpt><trkpt lat="30.066403692408493" lon="-6.4907780135552215"><ele>889.0000000000001</ele><time>2026-03-23T08:45:49.974Z</time></trkpt><trkpt lat="30.066441070362245" lon="-6.4906763891139"><ele>889.0</ele><time>2026-03-23T08:45:50.974Z</time></trkpt><trkpt lat="30.06648171570563" lon="-6.490579530955202"><ele>889.0</ele><time>2026-03-23T08:45:51.974Z</time></trkpt><trkpt lat="30.06652374762528" lon="-6.490478502521321"><ele>888.8000000000001</ele><time>2026-03-23T08:45:52.974Z</time></trkpt><trkpt lat="30.066570264110435" lon="-6.490381634764167"><ele>888.6000000000001</ele><time>2026-03-23T08:45:53.974Z</time></trkpt><trkpt lat="30.066625482874148" lon="-6.490270141777581"><ele>888.4</ele><time>2026-03-23T08:45:54.974Z</time></trkpt><trkpt lat="30.066679886033533" lon="-6.490153783956878"><ele>888.2</ele><time>2026-03-23T08:45:55.974Z</time></trkpt><trkpt lat="30.06672255120266" lon="-6.490054154742633"><ele>888.0</ele><time>2026-03-23T08:45:56.974Z</time></trkpt><trkpt lat="30.066750135356518" lon="-6.489982942089009"><ele>888.75</ele><time>2026-03-23T08:45:57.974Z</time></trkpt><trkpt lat="30.066795216273505" lon="-6.489877202829615"><ele>889.5</ele><time>2026-03-23T08:45:58.974Z</time></trkpt><trkpt lat="30.066856188677665" lon="-6.489733090124959"><ele>890.25</ele><time>2026-03-23T08:45:59.974Z</time></trkpt><trkpt lat="30.066925958911547" lon="-6.489583981290804"><ele>891.0</ele><time>2026-03-23T08:46:00.974Z</time></trkpt><trkpt lat="30.066989850323893" lon="-6.489446936774437"><ele>891.0</ele><time>2026-03-23T08:46:01.974Z</time></trkpt><trkpt lat="30.067046149335706" lon="-6.489327085699207"><ele>890.9999999999999</ele><time>2026-03-23T08:46:02.974Z</time></trkpt><trkpt lat="30.067093272750935" lon="-6.48921961971713"><ele>890.9999999999999</ele><time>2026-03-23T08:46:03.974Z</time></trkpt><trkpt lat="30.067137658657078" lon="-6.489116713732153"><ele>891.0</ele><time>2026-03-23T08:46:04.974Z</time></trkpt><trkpt lat="30.067187792068083" lon="-6.48901233800615"><ele>891.0</ele><time>2026-03-23T08:46:05.974Z</time></trkpt><trkpt lat="30.06725119973047" lon="-6.488905771127088"><ele>891.0</ele><time>2026-03-23T08:46:06.974Z</time></trkpt><trkpt lat="30.067306771789813" lon="-6.488796408622204"><ele>891.0</ele><time>2026-03-23T08:46:07.974Z</time></trkpt><trkpt lat="30.067362850423816" lon="-6.488677023137259"><ele>891.0</ele><time>2026-03-23T08:46:08.974Z</time></trkpt><trkpt lat="30.067420550279152" lon="-6.4885580478458476"><ele>891.0</ele><time>2026-03-23T08:46:09.974Z</time></trkpt><trkpt lat="30.067484488024267" lon="-6.4884221184838236"><ele>891.0</ele><time>2026-03-23T08:46:10.974Z</time></trkpt><trkpt lat="30.067549023761543" lon="-6.4882826005472625"><ele>891.0</ele><time>2026-03-23T08:46:11.974Z</time></trkpt><trkpt lat="30.06760856230363" lon="-6.488153562838701"><ele>891.0</ele><time>2026-03-23T08:46:12.974Z</time></trkpt><trkpt lat="30.067672391224836" lon="-6.488023108250229"><ele>891.0</ele><time>2026-03-23T08:46:13.974Z</time></trkpt><trkpt lat="30.067728480737664" lon="-6.487898290554846"><ele>891.0</ele><time>2026-03-23T08:46:14.974Z</time></trkpt><trkpt lat="30.067782792966423" lon="-6.4877765656520605"><ele>891.0</ele><time>2026-03-23T08:46:15.974Z</time></trkpt><trkpt lat="30.06783901268683" lon="-6.487664026076215"><ele>891.0</ele><time>2026-03-23T08:46:16.974Z</time></trkpt><trkpt lat="30.06789286208638" lon="-6.487550115665677"><ele>891.0</ele><time>2026-03-23T08:46:17.974Z</time></trkpt><trkpt lat="30.067947476264706" lon="-6.487433273401151"><ele>891.0</ele><time>2026-03-23T08:46:18.974Z</time></trkpt><trkpt lat="30.068001315744105" lon="-6.487327194460819"><ele>890.9999999999999</ele><time>2026-03-23T08:46:19.974Z</time></trkpt><trkpt lat="30.06805083514746" lon="-6.487218235964338"><ele>890.9999999999999</ele><time>2026-03-23T08:46:20.974Z</time></trkpt><trkpt lat="30.068096221024426" lon="-6.48710605839772"><ele>891.0</ele><time>2026-03-23T08:46:21.974Z</time></trkpt><trkpt lat="30.068153374030572" lon="-6.486987374546961"><ele>891.0</ele><time>2026-03-23T08:46:22.974Z</time></trkpt><trkpt lat="30.0682182811772" lon="-6.486841797367176"><ele>891.25</ele><time>2026-03-23T08:46:23.974Z</time></trkpt><trkpt lat="30.06828530133029" lon="-6.486695866145533"><ele>891.5</ele><time>2026-03-23T08:46:24.974Z</time></trkpt><trkpt lat="30.068350266143966" lon="-6.48654332329415"><ele>891.75</ele><time>2026-03-23T08:46:25.974Z</time></trkpt><trkpt lat="30.068409639816124" lon="-6.486395849921668"><ele>892.0</ele><time>2026-03-23T08:46:26.973Z</time></trkpt><trkpt lat="30.06846208311313" lon="-6.486243703493638"><ele>892.0</ele><time>2026-03-23T08:46:27.973Z</time></trkpt><trkpt lat="30.06851359623557" lon="-6.486113926950976"><ele>892.0</ele><time>2026-03-23T08:46:28.973Z</time></trkpt><trkpt lat="30.06857362477512" lon="-6.4859884248865525"><ele>892.0</ele><time>2026-03-23T08:46:29.974Z</time></trkpt><trkpt lat="30.068642209596003" lon="-6.485868701308472"><ele>892.0</ele><time>2026-03-23T08:46:30.973Z</time></trkpt><trkpt lat="30.06871349329449" lon="-6.48574798671984"><ele>892.0</ele><time>2026-03-23T08:46:31.973Z</time></trkpt><trkpt lat="30.068781791840273" lon="-6.485631469271024"><ele>892.0</ele><time>2026-03-23T08:46:32.973Z</time></trkpt><trkpt lat="30.068853436974333" lon="-6.485506298248055"><ele>892.0</ele><time>2026-03-23T08:46:33.973Z</time></trkpt><trkpt lat="30.06892254031252" lon="-6.485375616924088"><ele>892.0</ele><time>2026-03-23T08:46:34.973Z</time></trkpt><trkpt lat="30.068995504211127" lon="-6.485261009927896"><ele>892.5</ele><time>2026-03-23T08:46:35.973Z</time></trkpt><trkpt lat="30.069054781970568" lon="-6.485122696602544"><ele>893.0</ele><time>2026-03-23T08:46:36.973Z</time></trkpt><trkpt lat="30.06911836716505" lon="-6.484987254345965"><ele>893.5</ele><time>2026-03-23T08:46:37.973Z</time></trkpt><trkpt lat="30.06917601985951" lon="-6.484867074251968"><ele>894.0</ele><time>2026-03-23T08:46:38.973Z</time></trkpt><trkpt lat="30.069235294560517" lon="-6.484756850602726"><ele>894.0</ele><time>2026-03-23T08:46:39.973Z</time></trkpt><trkpt lat="30.06928965518563" lon="-6.484635022036373"><ele>894.0</ele><time>2026-03-23T08:46:40.973Z</time></trkpt><trkpt lat="30.069350867142642" lon="-6.484503760302609"><ele>894.0</ele><time>2026-03-23T08:46:41.973Z</time></trkpt><trkpt lat="30.069422988590844" lon="-6.484365161547186"><ele>894.0</ele><time>2026-03-23T08:46:42.973Z</time></trkpt><trkpt lat="30.069489691268956" lon="-6.484224125591084"><ele>894.0</ele><time>2026-03-23T08:46:43.973Z</time></trkpt><trkpt lat="30.069553020511734" lon="-6.484084579779863"><ele>894.0000000000001</ele><time>2026-03-23T08:46:44.973Z</time></trkpt><trkpt lat="30.069604551942287" lon="-6.483981155849523"><ele>894.0000000000001</ele><time>2026-03-23T08:46:45.973Z</time></trkpt><trkpt lat="30.06965606326024" lon="-6.483855002974309"><ele>894.0</ele><time>2026-03-23T08:46:47.973Z</time></trkpt><trkpt lat="30.06965674064732" lon="-6.483769515006911"><ele>894.0</ele><time>2026-03-23T08:46:49.973Z</time></trkpt><trkpt lat="30.069570124440663" lon="-6.483724716150998"><ele>894.0</ele><time>2026-03-23T08:46:52.973Z</time></trkpt><trkpt lat="30.069475471463306" lon="-6.483726116807435"><ele>894.0000000000001</ele><time>2026-03-23T08:46:54.973Z</time></trkpt><trkpt lat="30.069398385543302" lon="-6.483731636671437"><ele>894.0000000000001</ele><time>2026-03-23T08:46:56.973Z</time></trkpt><trkpt lat="30.06933095471684" lon="-6.483693495134453"><ele>894.0</ele><time>2026-03-23T08:46:59.973Z</time></trkpt><trkpt lat="30.069377943117157" lon="-6.48356651831232"><ele>894.0</ele><time>2026-03-23T08:47:01.973Z</time></trkpt><trkpt lat="30.069438638248037" lon="-6.483462028123737"><ele>894.0</ele><time>2026-03-23T08:47:02.973Z</time></trkpt><trkpt lat="30.069497575273907" lon="-6.483337665696434"><ele>894.0</ele><time>2026-03-23T08:47:03.973Z</time></trkpt><trkpt lat="30.06956394279354" lon="-6.483190168421104"><ele>894.0</ele><time>2026-03-23T08:47:04.973Z</time></trkpt><trkpt lat="30.06963594325457" lon="-6.483018999588373"><ele>894.0</ele><time>2026-03-23T08:47:05.973Z</time></trkpt><trkpt lat="30.069714005817325" lon="-6.48284585319582"><ele>893.6666666666667</ele><time>2026-03-23T08:47:06.973Z</time></trkpt><trkpt lat="30.06980711512921" lon="-6.482646912251154"><ele>893.3333333333334</ele><time>2026-03-23T08:47:07.973Z</time></trkpt><trkpt lat="30.0699019948944" lon="-6.482440980822684"><ele>893.0</ele><time>2026-03-23T08:47:08.973Z</time></trkpt><trkpt lat="30.069985397024187" lon="-6.482265636735429"><ele>894.0</ele><time>2026-03-23T08:47:09.973Z</time></trkpt><trkpt lat="30.07006411347452" lon="-6.482092194173794"><ele>895.0</ele><time>2026-03-23T08:47:10.973Z</time></trkpt><trkpt lat="30.070142786310335" lon="-6.481922232271793"><ele>896.0</ele><time>2026-03-23T08:47:11.973Z</time></trkpt><trkpt lat="30.070220856149092" lon="-6.4817540708861605"><ele>896.0</ele><time>2026-03-23T08:47:12.973Z</time></trkpt><trkpt lat="30.070295865117682" lon="-6.481583249183335"><ele>896.0</ele><time>2026-03-23T08:47:13.973Z</time></trkpt><trkpt lat="30.070375867635597" lon="-6.4814120443917"><ele>896.0</ele><time>2026-03-23T08:47:14.973Z</time></trkpt><trkpt lat="30.070451376888226" lon="-6.48124545711233"><ele>896.0</ele><time>2026-03-23T08:47:15.973Z</time></trkpt><trkpt lat="30.070523525168813" lon="-6.481081447683806"><ele>896.0</ele><time>2026-03-23T08:47:16.973Z</time></trkpt><trkpt lat="30.070596945335446" lon="-6.480919385431247"><ele>896.0</ele><time>2026-03-23T08:47:17.973Z</time></trkpt><trkpt lat="30.07067123982386" lon="-6.480752741561014"><ele>896.0</ele><time>2026-03-23T08:47:18.973Z</time></trkpt><trkpt lat="30.070751368801236" lon="-6.48057815176718"><ele>896.0</ele><time>2026-03-23T08:47:19.973Z</time></trkpt><trkpt lat="30.070827731551226" lon="-6.480404723449092"><ele>896.0</ele><time>2026-03-23T08:47:20.973Z</time></trkpt><trkpt lat="30.07090723618063" lon="-6.4802189405573065"><ele>896.3333333333334</ele><time>2026-03-23T08:47:21.972Z</time></trkpt><trkpt lat="30.070981999329753" lon="-6.4800546364804195"><ele>896.6666666666667</ele><time>2026-03-23T08:47:22.972Z</time></trkpt><trkpt lat="30.07106569444719" lon="-6.4798862472350205"><ele>897.0</ele><time>2026-03-23T08:47:23.971Z</time></trkpt><trkpt lat="30.071141469315858" lon="-6.4797123611087475"><ele>897.3333333333333</ele><time>2026-03-23T08:47:24.971Z</time></trkpt><trkpt lat="30.07121885505193" lon="-6.47953796986733"><ele>897.6666666666666</ele><time>2026-03-23T08:47:25.97Z</time></trkpt><trkpt lat="30.071294344212713" lon="-6.479359818959448"><ele>898.0</ele><time>2026-03-23T08:47:26.97Z</time></trkpt><trkpt lat="30.071376828665013" lon="-6.479184102937667"><ele>898.0</ele><time>2026-03-23T08:47:27.969Z</time></trkpt><trkpt lat="30.07145446879902" lon="-6.4790098726411856"><ele>898.0</ele><time>2026-03-23T08:47:28.969Z</time></trkpt><trkpt lat="30.071542305801316" lon="-6.478827118686644"><ele>898.0</ele><time>2026-03-23T08:47:29.968Z</time></trkpt><trkpt lat="30.071634244298053" lon="-6.478625271481595"><ele>898.0</ele><time>2026-03-23T08:47:30.968Z</time></trkpt><trkpt lat="30.071724139590636" lon="-6.47841922117456"><ele>898.0</ele><time>2026-03-23T08:47:31.968Z</time></trkpt><trkpt lat="30.071821396189762" lon="-6.478210103150881"><ele>898.0</ele><time>2026-03-23T08:47:32.967Z</time></trkpt><trkpt lat="30.071922299891146" lon="-6.477990854536754"><ele>898.0</ele><time>2026-03-23T08:47:33.967Z</time></trkpt><trkpt lat="30.072018624414415" lon="-6.477779457320791"><ele>898.0</ele><time>2026-03-23T08:47:34.967Z</time></trkpt><trkpt lat="30.072106826216068" lon="-6.477586117861919"><ele>898.0</ele><time>2026-03-23T08:47:35.966Z</time></trkpt><trkpt lat="30.07219041437047" lon="-6.477400569686125"><ele>898.0</ele><time>2026-03-23T08:47:36.966Z</time></trkpt><trkpt lat="30.072271690973754" lon="-6.477219926696807"><ele>898.0</ele><time>2026-03-23T08:47:37.966Z</time></trkpt><trkpt lat="30.072351262000854" lon="-6.477039982108097"><ele>898.0</ele><time>2026-03-23T08:47:38.966Z</time></trkpt><trkpt lat="30.072429305968654" lon="-6.476870058687745"><ele>898.3333333333333</ele><time>2026-03-23T08:47:39.966Z</time></trkpt><trkpt lat="30.072506325041388" lon="-6.476699061970471"><ele>898.6666666666667</ele><time>2026-03-23T08:47:40.965Z</time></trkpt><trkpt lat="30.07258036338419" lon="-6.476538899363191"><ele>899.0</ele><time>2026-03-23T08:47:41.965Z</time></trkpt><trkpt lat="30.0726498672372" lon="-6.476389417702907"><ele>899.0</ele><time>2026-03-23T08:47:42.965Z</time></trkpt><trkpt lat="30.072719633220753" lon="-6.476233971746868"><ele>899.0</ele><time>2026-03-23T08:47:43.965Z</time></trkpt><trkpt lat="30.072791262521957" lon="-6.476076460034705"><ele>899.0</ele><time>2026-03-23T08:47:44.965Z</time></trkpt><trkpt lat="30.072864845396087" lon="-6.475917647417337"><ele>899.0</ele><time>2026-03-23T08:47:45.965Z</time></trkpt><trkpt lat="30.072938691756224" lon="-6.475757853505362"><ele>899.0</ele><time>2026-03-23T08:47:46.964Z</time></trkpt><trkpt lat="30.07301783593709" lon="-6.475592912013383"><ele>899.0</ele><time>2026-03-23T08:47:47.964Z</time></trkpt><trkpt lat="30.07309466021159" lon="-6.475426756468668"><ele>899.6666666666667</ele><time>2026-03-23T08:47:48.964Z</time></trkpt><trkpt lat="30.0731692932899" lon="-6.475258150837444"><ele>900.3333333333333</ele><time>2026-03-23T08:47:49.964Z</time></trkpt><trkpt lat="30.073245510325787" lon="-6.475085070977548"><ele>901.0</ele><time>2026-03-23T08:47:50.964Z</time></trkpt><trkpt lat="30.073323572081907" lon="-6.474912602950275"><ele>901.0</ele><time>2026-03-23T08:47:51.964Z</time></trkpt><trkpt lat="30.073400105563433" lon="-6.474731461188851"><ele>901.0</ele><time>2026-03-23T08:47:52.964Z</time></trkpt><trkpt lat="30.07348159663899" lon="-6.4745554859302645"><ele>901.0</ele><time>2026-03-23T08:47:53.964Z</time></trkpt><trkpt lat="30.073562651428304" lon="-6.474377694900985"><ele>901.0</ele><time>2026-03-23T08:47:54.964Z</time></trkpt><trkpt lat="30.073641271725908" lon="-6.4742056717612035"><ele>901.0</ele><time>2026-03-23T08:47:55.963Z</time></trkpt><trkpt lat="30.07372128504152" lon="-6.4740249141990205"><ele>901.0</ele><time>2026-03-23T08:47:56.963Z</time></trkpt><trkpt lat="30.07380448021806" lon="-6.47383865624576"><ele>901.0</ele><time>2026-03-23T08:47:57.963Z</time></trkpt><trkpt lat="30.07388563283434" lon="-6.473659971184927"><ele>901.0</ele><time>2026-03-23T08:47:58.963Z</time></trkpt><trkpt lat="30.073969431544747" lon="-6.473470654385966"><ele>901.0</ele><time>2026-03-23T08:47:59.963Z</time></trkpt><trkpt lat="30.0740542678242" lon="-6.473287612566646"><ele>901.6666666666666</ele><time>2026-03-23T08:48:00.963Z</time></trkpt><trkpt lat="30.074134397635405" lon="-6.473098346208017"><ele>902.3333333333333</ele><time>2026-03-23T08:48:01.963Z</time></trkpt><trkpt lat="30.07421466275283" lon="-6.472921903740332"><ele>903.0</ele><time>2026-03-23T08:48:02.963Z</time></trkpt><trkpt lat="30.074297946648585" lon="-6.472742548980067"><ele>903.0</ele><time>2026-03-23T08:48:03.963Z</time></trkpt><trkpt lat="30.074380659113302" lon="-6.472553563146426"><ele>903.0</ele><time>2026-03-23T08:48:04.963Z</time></trkpt><trkpt lat="30.074464815177322" lon="-6.472370447113288"><ele>903.0</ele><time>2026-03-23T08:48:05.963Z</time></trkpt><trkpt lat="30.074546252897548" lon="-6.472183203633035"><ele>902.6666666666667</ele><time>2026-03-23T08:48:06.963Z</time></trkpt><trkpt lat="30.0746288991026" lon="-6.472000774581626"><ele>902.3333333333334</ele><time>2026-03-23T08:48:07.963Z</time></trkpt><trkpt lat="30.07471284371892" lon="-6.471817298217696"><ele>902.0</ele><time>2026-03-23T08:48:08.963Z</time></trkpt><trkpt lat="30.074795983006354" lon="-6.471630537335117"><ele>902.0</ele><time>2026-03-23T08:48:09.963Z</time></trkpt><trkpt lat="30.074878691980008" lon="-6.471453579576774"><ele>902.0</ele><time>2026-03-23T08:48:10.963Z</time></trkpt><trkpt lat="30.074963772227818" lon="-6.471266217983931"><ele>902.0</ele><time>2026-03-23T08:48:11.963Z</time></trkpt><trkpt lat="30.075045862286412" lon="-6.471083412558158"><ele>902.6666666666667</ele><time>2026-03-23T08:48:12.963Z</time></trkpt><trkpt lat="30.075129284184655" lon="-6.470895479129917"><ele>903.3333333333333</ele><time>2026-03-23T08:48:13.963Z</time></trkpt><trkpt lat="30.075217644695584" lon="-6.47070454100852"><ele>904.0</ele><time>2026-03-23T08:48:14.963Z</time></trkpt><trkpt lat="30.0753078354132" lon="-6.470517430533101"><ele>903.3333333333333</ele><time>2026-03-23T08:48:15.963Z</time></trkpt><trkpt lat="30.075397218541312" lon="-6.470320773547517"><ele>902.6666666666667</ele><time>2026-03-23T08:48:16.963Z</time></trkpt><trkpt lat="30.07548464010141" lon="-6.470124790834705"><ele>902.0</ele><time>2026-03-23T08:48:17.963Z</time></trkpt><trkpt lat="30.075571606686758" lon="-6.469930329352946"><ele>902.0</ele><time>2026-03-23T08:48:18.963Z</time></trkpt><trkpt lat="30.07565798434624" lon="-6.469739073908672"><ele>902.0</ele><time>2026-03-23T08:48:19.962Z</time></trkpt><trkpt lat="30.075742480562" lon="-6.469549932097652"><ele>902.0</ele><time>2026-03-23T08:48:20.962Z</time></trkpt><trkpt lat="30.075825236731024" lon="-6.4693668391934045"><ele>903.0</ele><time>2026-03-23T08:48:21.962Z</time></trkpt><trkpt lat="30.075905163839852" lon="-6.469190554764555"><ele>904.0</ele><time>2026-03-23T08:48:22.962Z</time></trkpt><trkpt lat="30.075985558344417" lon="-6.46901317905999"><ele>905.0</ele><time>2026-03-23T08:48:23.962Z</time></trkpt><trkpt lat="30.076068553490543" lon="-6.468829795658843"><ele>905.0</ele><time>2026-03-23T08:48:24.962Z</time></trkpt><trkpt lat="30.076156796164256" lon="-6.468641384576318"><ele>905.0</ele><time>2026-03-23T08:48:25.962Z</time></trkpt><trkpt lat="30.076251441375415" lon="-6.4684408920539544"><ele>905.0</ele><time>2026-03-23T08:48:26.962Z</time></trkpt><trkpt lat="30.076353702730433" lon="-6.46822402877716"><ele>905.0</ele><time>2026-03-23T08:48:27.962Z</time></trkpt><trkpt lat="30.076464135303365" lon="-6.467993475623406"><ele>905.0</ele><time>2026-03-23T08:48:28.962Z</time></trkpt><trkpt lat="30.076586254978782" lon="-6.467774576292164"><ele>904.6666666666667</ele><time>2026-03-23T08:48:29.963Z</time></trkpt><trkpt lat="30.07669222402425" lon="-6.467560414521559"><ele>904.3333333333333</ele><time>2026-03-23T08:48:30.963Z</time></trkpt><trkpt lat="30.07679822695151" lon="-6.467363883749752"><ele>904.0</ele><time>2026-03-23T08:48:31.963Z</time></trkpt><trkpt lat="30.076899935819174" lon="-6.467171993309581"><ele>904.0</ele><time>2026-03-23T08:48:32.963Z</time></trkpt><trkpt lat="30.0769992237963" lon="-6.466985392611156"><ele>904.0</ele><time>2026-03-23T08:48:33.963Z</time></trkpt><trkpt lat="30.07710424587732" lon="-6.4667935505152"><ele>904.0</ele><time>2026-03-23T08:48:34.963Z</time></trkpt><trkpt lat="30.077209400860536" lon="-6.466609887642034"><ele>904.0</ele><time>2026-03-23T08:48:35.963Z</time></trkpt><trkpt lat="30.077312536285163" lon="-6.466423111329153"><ele>904.0</ele><time>2026-03-23T08:48:36.963Z</time></trkpt><trkpt lat="30.07741446219459" lon="-6.4662388916265705"><ele>904.0</ele><time>2026-03-23T08:48:37.963Z</time></trkpt><trkpt lat="30.077512647233963" lon="-6.466058424614433"><ele>904.6666666666666</ele><time>2026-03-23T08:48:38.963Z</time></trkpt><trkpt lat="30.07761734247869" lon="-6.465874183778214"><ele>905.3333333333333</ele><time>2026-03-23T08:48:39.962Z</time></trkpt><trkpt lat="30.077713504524883" lon="-6.46570110293155"><ele>906.0</ele><time>2026-03-23T08:48:40.962Z</time></trkpt><trkpt lat="30.077802262524113" lon="-6.4655444080625575"><ele>905.6666666666667</ele><time>2026-03-23T08:48:41.962Z</time></trkpt><trkpt lat="30.077886480263807" lon="-6.46539842810139"><ele>905.3333333333334</ele><time>2026-03-23T08:48:42.962Z</time></trkpt><trkpt lat="30.0779719863474" lon="-6.465247608738345"><ele>905.0</ele><time>2026-03-23T08:48:43.962Z</time></trkpt><trkpt lat="30.078065697140634" lon="-6.465079335697978"><ele>905.0</ele><time>2026-03-23T08:48:44.962Z</time></trkpt><trkpt lat="30.078164150013613" lon="-6.464906254712678"><ele>905.0</ele><time>2026-03-23T08:48:45.962Z</time></trkpt><trkpt lat="30.078262810265066" lon="-6.464730969887192"><ele>905.0</ele><time>2026-03-23T08:48:46.962Z</time></trkpt><trkpt lat="30.07836239773698" lon="-6.464545833641067"><ele>905.6666666666667</ele><time>2026-03-23T08:48:47.962Z</time></trkpt><trkpt lat="30.07846237238247" lon="-6.4643630550460305"><ele>906.3333333333333</ele><time>2026-03-23T08:48:48.962Z</time></trkpt><trkpt lat="30.078560483135103" lon="-6.464185701175683"><ele>907.0</ele><time>2026-03-23T08:48:49.962Z</time></trkpt><trkpt lat="30.078662287577963" lon="-6.464002844759654"><ele>907.0</ele><time>2026-03-23T08:48:50.962Z</time></trkpt><trkpt lat="30.078759920286146" lon="-6.463825841531463"><ele>907.0</ele><time>2026-03-23T08:48:51.962Z</time></trkpt><trkpt lat="30.07886094533807" lon="-6.463640826046355"><ele>907.0</ele><time>2026-03-23T08:48:52.962Z</time></trkpt><trkpt lat="30.07896559364993" lon="-6.4634575852417075"><ele>907.0</ele><time>2026-03-23T08:48:53.962Z</time></trkpt><trkpt lat="30.07906709647633" lon="-6.463280493716214"><ele>907.0</ele><time>2026-03-23T08:48:54.962Z</time></trkpt><trkpt lat="30.079165054621928" lon="-6.463098118376674"><ele>907.0</ele><time>2026-03-23T08:48:55.962Z</time></trkpt><trkpt lat="30.079261005239783" lon="-6.462921822118619"><ele>907.0</ele><time>2026-03-23T08:48:56.962Z</time></trkpt><trkpt lat="30.07935923078345" lon="-6.4627492684463155"><ele>907.0</ele><time>2026-03-23T08:48:57.962Z</time></trkpt><trkpt lat="30.0794570522843" lon="-6.462579340170961"><ele>907.0</ele><time>2026-03-23T08:48:58.962Z</time></trkpt><trkpt lat="30.079552718668108" lon="-6.4624044287251285"><ele>907.0</ele><time>2026-03-23T08:48:59.962Z</time></trkpt><trkpt lat="30.079647120396338" lon="-6.462226515672664"><ele>907.0</ele><time>2026-03-23T08:49:00.962Z</time></trkpt><trkpt lat="30.07973905977889" lon="-6.462049267262885"><ele>907.0</ele><time>2026-03-23T08:49:01.962Z</time></trkpt><trkpt lat="30.079837531410348" lon="-6.461875676424425"><ele>906.6666666666666</ele><time>2026-03-23T08:49:02.962Z</time></trkpt><trkpt lat="30.079935529250935" lon="-6.461695938358278"><ele>906.3333333333333</ele><time>2026-03-23T08:49:03.962Z</time></trkpt><trkpt lat="30.08003545379547" lon="-6.461514060902446"><ele>906.0</ele><time>2026-03-23T08:49:04.962Z</time></trkpt><trkpt lat="30.080134764587847" lon="-6.461329145212008"><ele>906.0</ele><time>2026-03-23T08:49:05.962Z</time></trkpt><trkpt lat="30.080243715083498" lon="-6.4611311422659865"><ele>906.0</ele><time>2026-03-23T08:49:06.962Z</time></trkpt><trkpt lat="30.080364950196348" lon="-6.4609140549794795"><ele>906.0</ele><time>2026-03-23T08:49:07.962Z</time></trkpt><trkpt lat="30.080486694268014" lon="-6.460688909941176"><ele>906.0</ele><time>2026-03-23T08:49:08.962Z</time></trkpt><trkpt lat="30.080598535016343" lon="-6.460480869935626"><ele>906.0</ele><time>2026-03-23T08:49:09.962Z</time></trkpt><trkpt lat="30.080698542257796" lon="-6.460293552379949"><ele>906.0</ele><time>2026-03-23T08:49:10.962Z</time></trkpt><trkpt lat="30.080803836568137" lon="-6.460101860623471"><ele>906.0</ele><time>2026-03-23T08:49:11.962Z</time></trkpt><trkpt lat="30.080911303393016" lon="-6.459908388531586"><ele>906.0</ele><time>2026-03-23T08:49:12.962Z</time></trkpt><trkpt lat="30.08101961077268" lon="-6.459713058487701"><ele>906.0</ele><time>2026-03-23T08:49:13.962Z</time></trkpt><trkpt lat="30.081129915318247" lon="-6.459520826541598"><ele>906.0</ele><time>2026-03-23T08:49:14.962Z</time></trkpt><trkpt lat="30.081237668673893" lon="-6.4593329310912475"><ele>906.0</ele><time>2026-03-23T08:49:15.962Z</time></trkpt><trkpt lat="30.0813415285837" lon="-6.459130875922105"><ele>906.0</ele><time>2026-03-23T08:49:16.962Z</time></trkpt><trkpt lat="30.08144769847079" lon="-6.458941443381"><ele>906.0</ele><time>2026-03-23T08:49:17.962Z</time></trkpt><trkpt lat="30.08155684319828" lon="-6.458749634151318"><ele>906.0</ele><time>2026-03-23T08:49:18.962Z</time></trkpt><trkpt lat="30.081660773877132" lon="-6.45855688165788"><ele>906.0</ele><time>2026-03-23T08:49:19.962Z</time></trkpt><trkpt lat="30.081769012295943" lon="-6.458364214329756"><ele>906.0</ele><time>2026-03-23T08:49:20.962Z</time></trkpt><trkpt lat="30.08187724306868" lon="-6.458171318818736"><ele>906.0</ele><time>2026-03-23T08:49:21.962Z</time></trkpt><trkpt lat="30.08198288385881" lon="-6.457981269132187"><ele>906.0</ele><time>2026-03-23T08:49:22.962Z</time></trkpt><trkpt lat="30.0820876598426" lon="-6.457790168986463"><ele>906.0</ele><time>2026-03-23T08:49:23.962Z</time></trkpt><trkpt lat="30.08219487122015" lon="-6.457595033376013"><ele>906.0</ele><time>2026-03-23T08:49:24.962Z</time></trkpt><trkpt lat="30.082300670187735" lon="-6.457405932976932"><ele>906.0</ele><time>2026-03-23T08:49:25.962Z</time></trkpt><trkpt lat="30.082404367972856" lon="-6.457218061096115"><ele>906.0</ele><time>2026-03-23T08:49:26.962Z</time></trkpt><trkpt lat="30.08250576499687" lon="-6.457026187428051"><ele>906.0</ele><time>2026-03-23T08:49:27.962Z</time></trkpt><trkpt lat="30.082604514542883" lon="-6.456841086833398"><ele>906.0</ele><time>2026-03-23T08:49:28.962Z</time></trkpt><trkpt lat="30.082708567496297" lon="-6.456648018405603"><ele>906.0</ele><time>2026-03-23T08:49:29.962Z</time></trkpt><trkpt lat="30.082816688622422" lon="-6.456454790001364"><ele>906.0</ele><time>2026-03-23T08:49:30.962Z</time></trkpt><trkpt lat="30.08291662170258" lon="-6.456273145458396"><ele>906.0</ele><time>2026-03-23T08:49:31.962Z</time></trkpt><trkpt lat="30.083009122870536" lon="-6.456100660203367"><ele>906.0</ele><time>2026-03-23T08:49:32.962Z</time></trkpt><trkpt lat="30.08310235147056" lon="-6.455928343437774"><ele>906.0</ele><time>2026-03-23T08:49:33.962Z</time></trkpt><trkpt lat="30.083200497028994" lon="-6.455755292606729"><ele>906.0</ele><time>2026-03-23T08:49:34.962Z</time></trkpt><trkpt lat="30.083296669824005" lon="-6.455573603547027"><ele>906.3333333333333</ele><time>2026-03-23T08:49:35.962Z</time></trkpt><trkpt lat="30.083399931510172" lon="-6.4553915698696835"><ele>906.6666666666666</ele><time>2026-03-23T08:49:36.962Z</time></trkpt><trkpt lat="30.083507299976016" lon="-6.455199876922154"><ele>907.0</ele><time>2026-03-23T08:49:37.962Z</time></trkpt><trkpt lat="30.083619557299574" lon="-6.454998158789841"><ele>907.0</ele><time>2026-03-23T08:49:38.962Z</time></trkpt><trkpt lat="30.0837349637808" lon="-6.4547907725925135"><ele>907.0</ele><time>2026-03-23T08:49:39.962Z</time></trkpt><trkpt lat="30.083851367829933" lon="-6.454582185320626"><ele>907.0</ele><time>2026-03-23T08:49:40.962Z</time></trkpt><trkpt lat="30.08396928832532" lon="-6.454371840256463"><ele>907.0</ele><time>2026-03-23T08:49:41.962Z</time></trkpt><trkpt lat="30.08408707471235" lon="-6.454163570422477"><ele>907.0</ele><time>2026-03-23T08:49:42.962Z</time></trkpt><trkpt lat="30.08420297625386" lon="-6.45395745377454"><ele>907.0</ele><time>2026-03-23T08:49:43.962Z</time></trkpt><trkpt lat="30.08431349621535" lon="-6.4537554783071664"><ele>907.0</ele><time>2026-03-23T08:49:44.962Z</time></trkpt><trkpt lat="30.08442006905789" lon="-6.453552361440115"><ele>907.0</ele><time>2026-03-23T08:49:45.962Z</time></trkpt><trkpt lat="30.08452746522026" lon="-6.453348964429834"><ele>907.0</ele><time>2026-03-23T08:49:46.962Z</time></trkpt><trkpt lat="30.08463365822844" lon="-6.45314475652055"><ele>906.6666666666666</ele><time>2026-03-23T08:49:47.962Z</time></trkpt><trkpt lat="30.08473998650193" lon="-6.452941730438698"><ele>906.3333333333333</ele><time>2026-03-23T08:49:48.962Z</time></trkpt><trkpt lat="30.084844070244998" lon="-6.452736293735109"><ele>906.0</ele><time>2026-03-23T08:49:49.962Z</time></trkpt><trkpt lat="30.084947785415473" lon="-6.452517603511877"><ele>906.0</ele><time>2026-03-23T08:49:50.962Z</time></trkpt><trkpt lat="30.085053427411008" lon="-6.452298695968337"><ele>906.0</ele><time>2026-03-23T08:49:51.962Z</time></trkpt><trkpt lat="30.085159972961694" lon="-6.452076659117551"><ele>906.0</ele><time>2026-03-23T08:49:52.962Z</time></trkpt><trkpt lat="30.085268820912685" lon="-6.451854193430585"><ele>906.3333333333333</ele><time>2026-03-23T08:49:53.962Z</time></trkpt><trkpt lat="30.08537807746372" lon="-6.451632498316063"><ele>906.6666666666666</ele><time>2026-03-23T08:49:54.962Z</time></trkpt><trkpt lat="30.0854871679572" lon="-6.4514110707792565"><ele>907.0</ele><time>2026-03-23T08:49:55.962Z</time></trkpt><trkpt lat="30.085592623845017" lon="-6.45119030262742"><ele>906.6666666666666</ele><time>2026-03-23T08:49:56.962Z</time></trkpt><trkpt lat="30.08569302062978" lon="-6.450973681198732"><ele>906.3333333333333</ele><time>2026-03-23T08:49:57.962Z</time></trkpt><trkpt lat="30.085795328068585" lon="-6.450764451967877"><ele>906.0</ele><time>2026-03-23T08:49:58.962Z</time></trkpt><trkpt lat="30.085895146080194" lon="-6.4505559161861905"><ele>905.6666666666667</ele><time>2026-03-23T08:49:59.962Z</time></trkpt><trkpt lat="30.08599420440608" lon="-6.450348581670695"><ele>905.3333333333334</ele><time>2026-03-23T08:50:00.962Z</time></trkpt><trkpt lat="30.086092923779937" lon="-6.450143153541203"><ele>905.0</ele><time>2026-03-23T08:50:01.962Z</time></trkpt><trkpt lat="30.086196894704702" lon="-6.449932345184218"><ele>905.0</ele><time>2026-03-23T08:50:02.962Z</time></trkpt><trkpt lat="30.086301761165043" lon="-6.449711224850828"><ele>905.0</ele><time>2026-03-23T08:50:03.962Z</time></trkpt><trkpt lat="30.086408423502114" lon="-6.449483023210913"><ele>905.0</ele><time>2026-03-23T08:50:04.962Z</time></trkpt><trkpt lat="30.086514301158026" lon="-6.4492566016618476"><ele>904.6666666666667</ele><time>2026-03-23T08:50:05.962Z</time></trkpt><trkpt lat="30.086619608118728" lon="-6.449031264113312"><ele>904.3333333333333</ele><time>2026-03-23T08:50:06.962Z</time></trkpt><trkpt lat="30.08672551011481" lon="-6.448808016629936"><ele>904.0</ele><time>2026-03-23T08:50:07.962Z</time></trkpt><trkpt lat="30.086828106686156" lon="-6.4485879366801715"><ele>904.0</ele><time>2026-03-23T08:50:08.962Z</time></trkpt><trkpt lat="30.086928548991633" lon="-6.448371196118948"><ele>904.0</ele><time>2026-03-23T08:50:09.962Z</time></trkpt><trkpt lat="30.087030162979165" lon="-6.448157364942105"><ele>904.0</ele><time>2026-03-23T08:50:10.962Z</time></trkpt><trkpt lat="30.0871295043656" lon="-6.447943670978649"><ele>903.3333333333333</ele><time>2026-03-23T08:50:11.962Z</time></trkpt><trkpt lat="30.08722730090474" lon="-6.447733598889744"><ele>902.6666666666667</ele><time>2026-03-23T08:50:12.962Z</time></trkpt><trkpt lat="30.087317775611485" lon="-6.447535720320248"><ele>902.0</ele><time>2026-03-23T08:50:13.962Z</time></trkpt><trkpt lat="30.087408010817185" lon="-6.447340084822188"><ele>902.0</ele><time>2026-03-23T08:50:14.962Z</time></trkpt><trkpt lat="30.087494753060117" lon="-6.447155796177819"><ele>902.0</ele><time>2026-03-23T08:50:15.962Z</time></trkpt><trkpt lat="30.087577216448746" lon="-6.446981463952499"><ele>902.0</ele><time>2026-03-23T08:50:16.962Z</time></trkpt><trkpt lat="30.087653828107918" lon="-6.446816402100041"><ele>902.0</ele><time>2026-03-23T08:50:17.962Z</time></trkpt><trkpt lat="30.08772592342905" lon="-6.446662200271728"><ele>902.0</ele><time>2026-03-23T08:50:18.962Z</time></trkpt><trkpt lat="30.08778923257862" lon="-6.446521328075052"><ele>902.0</ele><time>2026-03-23T08:50:19.962Z</time></trkpt><trkpt lat="30.087851362053296" lon="-6.446388398029887"><ele>902.0</ele><time>2026-03-23T08:50:20.962Z</time></trkpt><trkpt lat="30.087910996698167" lon="-6.446262979714496"><ele>902.5</ele><time>2026-03-23T08:50:21.962Z</time></trkpt><trkpt lat="30.087966169724545" lon="-6.446145641444087"><ele>903.0</ele><time>2026-03-23T08:50:22.962Z</time></trkpt><trkpt lat="30.088022192759727" lon="-6.446021665399326"><ele>903.5</ele><time>2026-03-23T08:50:23.962Z</time></trkpt><trkpt lat="30.08808168416055" lon="-6.445900201880256"><ele>904.0</ele><time>2026-03-23T08:50:24.962Z</time></trkpt><trkpt lat="30.088139666665672" lon="-6.445779446864967"><ele>904.0</ele><time>2026-03-23T08:50:25.962Z</time></trkpt><trkpt lat="30.088199776436955" lon="-6.445656233475736"><ele>904.0</ele><time>2026-03-23T08:50:26.962Z</time></trkpt><trkpt lat="30.088254567067032" lon="-6.44553280985768"><ele>904.0</ele><time>2026-03-23T08:50:27.962Z</time></trkpt><trkpt lat="30.088311659879093" lon="-6.445412443266997"><ele>904.0</ele><time>2026-03-23T08:50:28.962Z</time></trkpt><trkpt lat="30.08837083584574" lon="-6.445289516835106"><ele>904.0</ele><time>2026-03-23T08:50:29.962Z</time></trkpt><trkpt lat="30.088432439170948" lon="-6.445167442607331"><ele>904.0</ele><time>2026-03-23T08:50:30.962Z</time></trkpt><trkpt lat="30.088493053086854" lon="-6.445045838993613"><ele>904.0</ele><time>2026-03-23T08:50:31.962Z</time></trkpt><trkpt lat="30.088554811322567" lon="-6.444917741302567"><ele>904.0</ele><time>2026-03-23T08:50:32.962Z</time></trkpt><trkpt lat="30.088618074237235" lon="-6.444784423212877"><ele>904.0</ele><time>2026-03-23T08:50:33.962Z</time></trkpt><trkpt lat="30.088685281646477" lon="-6.444648094746573"><ele>904.0</ele><time>2026-03-23T08:50:34.962Z</time></trkpt><trkpt lat="30.088755440039485" lon="-6.44450640463609"><ele>904.0</ele><time>2026-03-23T08:50:35.961Z</time></trkpt><trkpt lat="30.08882657063816" lon="-6.444362322648315"><ele>904.0</ele><time>2026-03-23T08:50:36.962Z</time></trkpt><trkpt lat="30.088899138168827" lon="-6.444213518139745"><ele>904.3333333333333</ele><time>2026-03-23T08:50:37.962Z</time></trkpt><trkpt lat="30.088973671460614" lon="-6.444056812639999"><ele>904.6666666666667</ele><time>2026-03-23T08:50:38.961Z</time></trkpt><trkpt lat="30.089056704324186" lon="-6.4438891209986835"><ele>905.0</ele><time>2026-03-23T08:50:39.962Z</time></trkpt><trkpt lat="30.089132553884905" lon="-6.443725091366689"><ele>903.0</ele><time>2026-03-23T08:50:40.962Z</time></trkpt><trkpt lat="30.089205733382876" lon="-6.443564278236859"><ele>901.0</ele><time>2026-03-23T08:50:41.962Z</time></trkpt><trkpt lat="30.089280448276767" lon="-6.443404262247781"><ele>899.0</ele><time>2026-03-23T08:50:42.962Z</time></trkpt><trkpt lat="30.089356830267302" lon="-6.443242739878407"><ele>899.0</ele><time>2026-03-23T08:50:43.962Z</time></trkpt><trkpt lat="30.0894316993325" lon="-6.443081371106508"><ele>899.0</ele><time>2026-03-23T08:50:44.961Z</time></trkpt><trkpt lat="30.089505942319807" lon="-6.442921292874278"><ele>899.0</ele><time>2026-03-23T08:50:45.961Z</time></trkpt><trkpt lat="30.08957947795655" lon="-6.4427630767624695"><ele>899.3333333333334</ele><time>2026-03-23T08:50:46.961Z</time></trkpt><trkpt lat="30.089656071054424" lon="-6.442607175929061"><ele>899.6666666666667</ele><time>2026-03-23T08:50:47.961Z</time></trkpt><trkpt lat="30.08973432122649" lon="-6.442452031680683"><ele>900.0</ele><time>2026-03-23T08:50:48.961Z</time></trkpt><trkpt lat="30.089804112597626" lon="-6.4423057409164945"><ele>900.0</ele><time>2026-03-23T08:50:49.961Z</time></trkpt><trkpt lat="30.08986784612467" lon="-6.4421697426762945"><ele>900.0</ele><time>2026-03-23T08:50:50.961Z</time></trkpt><trkpt lat="30.08992559168041" lon="-6.442047904883373"><ele>900.0</ele><time>2026-03-23T08:50:51.961Z</time></trkpt><trkpt lat="30.089978347863838" lon="-6.441935779257509"><ele>900.0</ele><time>2026-03-23T08:50:52.961Z</time></trkpt><trkpt lat="30.090030711092197" lon="-6.441830942709468"><ele>900.2</ele><time>2026-03-23T08:50:53.961Z</time></trkpt><trkpt lat="30.09007727831562" lon="-6.441728015139093"><ele>900.4</ele><time>2026-03-23T08:50:54.961Z</time></trkpt><trkpt lat="30.090120347242344" lon="-6.441630332923279"><ele>900.5999999999999</ele><time>2026-03-23T08:50:55.961Z</time></trkpt><trkpt lat="30.090162198546142" lon="-6.441537326532017"><ele>900.8</ele><time>2026-03-23T08:50:56.961Z</time></trkpt><trkpt lat="30.090192024919787" lon="-6.4414631727394704"><ele>901.0</ele><time>2026-03-23T08:50:57.961Z</time></trkpt><trkpt lat="30.090204600368363" lon="-6.441350460013491"><ele>901.0</ele><time>2026-03-23T08:50:59.961Z</time></trkpt><trkpt lat="30.090209776488937" lon="-6.441268291812127"><ele>900.9999999999999</ele><time>2026-03-23T08:51:01.961Z</time></trkpt><trkpt lat="30.09025892423372" lon="-6.441164444772297"><ele>900.9999999999999</ele><time>2026-03-23T08:51:04.961Z</time></trkpt><trkpt lat="30.090320692065504" lon="-6.4410349097486215"><ele>901.0</ele><time>2026-03-23T08:51:06.961Z</time></trkpt><trkpt lat="30.090365473564066" lon="-6.44094099726124"><ele>901.0</ele><time>2026-03-23T08:51:07.961Z</time></trkpt><trkpt lat="30.090407720210962" lon="-6.440852400676398"><ele>901.0</ele><time>2026-03-23T08:51:08.961Z</time></trkpt><trkpt lat="30.090452857575812" lon="-6.440757741904147"><ele>900.9999999999999</ele><time>2026-03-23T08:51:09.961Z</time></trkpt><trkpt lat="30.09050654750257" lon="-6.44064514719048"><ele>900.9999999999999</ele><time>2026-03-23T08:51:10.961Z</time></trkpt><trkpt lat="30.090563448436882" lon="-6.440525818855738"><ele>901.0</ele><time>2026-03-23T08:51:11.961Z</time></trkpt><trkpt lat="30.090619513129315" lon="-6.440409233665351"><ele>901.0</ele><time>2026-03-23T08:51:12.961Z</time></trkpt><trkpt lat="30.090675292808854" lon="-6.4402910818175885"><ele>901.25</ele><time>2026-03-23T08:51:13.961Z</time></trkpt><trkpt lat="30.090729402556153" lon="-6.440176502822539"><ele>901.5</ele><time>2026-03-23T08:51:14.961Z</time></trkpt><trkpt lat="30.09078117527845" lon="-6.440066872527558"><ele>901.75</ele><time>2026-03-23T08:51:15.961Z</time></trkpt><trkpt lat="30.09083532179898" lon="-6.43995229258824"><ele>902.0</ele><time>2026-03-23T08:51:16.961Z</time></trkpt><trkpt lat="30.090892981274113" lon="-6.439830475030217"><ele>902.0</ele><time>2026-03-23T08:51:17.961Z</time></trkpt><trkpt lat="30.090626590207407" lon="-6.439507921859764"><ele>902.0</ele><time>2026-03-23T08:51:18.961Z</time></trkpt><trkpt lat="30.09066187010501" lon="-6.439369221125115"><ele>902.0</ele><time>2026-03-23T08:51:19.961Z</time></trkpt><trkpt lat="30.09069030907617" lon="-6.439237987312827"><ele>902.0</ele><time>2026-03-23T08:51:20.961Z</time></trkpt><trkpt lat="30.090719929198894" lon="-6.439105642074966"><ele>902.0</ele><time>2026-03-23T08:51:21.961Z</time></trkpt><trkpt lat="30.09074851222191" lon="-6.438973412928904"><ele>902.0</ele><time>2026-03-23T08:51:22.961Z</time></trkpt><trkpt lat="30.090773641807157" lon="-6.438837235700592"><ele>902.0</ele><time>2026-03-23T08:51:23.961Z</time></trkpt><trkpt lat="30.090798118836634" lon="-6.438687855666247"><ele>902.0</ele><time>2026-03-23T08:51:24.961Z</time></trkpt><trkpt lat="30.09081551766057" lon="-6.438511672102692"><ele>902.0</ele><time>2026-03-23T08:51:25.961Z</time></trkpt><trkpt lat="30.090840399156686" lon="-6.438320133409142"><ele>902.0</ele><time>2026-03-23T08:51:26.961Z</time></trkpt><trkpt lat="30.0908854889841" lon="-6.438116209821438"><ele>902.0</ele><time>2026-03-23T08:51:27.961Z</time></trkpt><trkpt lat="30.090920655616912" lon="-6.4379184146951935"><ele>902.0</ele><time>2026-03-23T08:51:28.961Z</time></trkpt><trkpt lat="30.09095476213596" lon="-6.437742375453872"><ele>901.6666666666667</ele><time>2026-03-23T08:51:29.961Z</time></trkpt><trkpt lat="30.090984911483815" lon="-6.437566617754233"><ele>901.3333333333333</ele><time>2026-03-23T08:51:30.961Z</time></trkpt><trkpt lat="30.091037387453557" lon="-6.437376970801211"><ele>901.0</ele><time>2026-03-23T08:51:31.961Z</time></trkpt><trkpt lat="30.09108998990164" lon="-6.437190173961198"><ele>900.0</ele><time>2026-03-23T08:51:32.961Z</time></trkpt><trkpt lat="30.091143322310007" lon="-6.437007318987819"><ele>899.0</ele><time>2026-03-23T08:51:33.961Z</time></trkpt><trkpt lat="30.091194458893675" lon="-6.4368338045791145"><ele>898.0</ele><time>2026-03-23T08:51:34.961Z</time></trkpt><trkpt lat="30.091240560740705" lon="-6.436670690440819"><ele>898.0</ele><time>2026-03-23T08:51:35.961Z</time></trkpt><trkpt lat="30.09127400032376" lon="-6.436507905979796"><ele>898.0</ele><time>2026-03-23T08:51:36.961Z</time></trkpt><trkpt lat="30.091300533399647" lon="-6.436336517570945"><ele>898.0</ele><time>2026-03-23T08:51:37.961Z</time></trkpt><trkpt lat="30.091324269307194" lon="-6.436170439998139"><ele>898.0</ele><time>2026-03-23T08:51:38.961Z</time></trkpt><trkpt lat="30.091348541292632" lon="-6.43599342585817"><ele>899.0</ele><time>2026-03-23T08:51:39.961Z</time></trkpt><trkpt lat="30.09137424170631" lon="-6.43580571634283"><ele>900.0</ele><time>2026-03-23T08:51:40.961Z</time></trkpt><trkpt lat="30.09140669152035" lon="-6.435621477982222"><ele>901.0</ele><time>2026-03-23T08:51:41.961Z</time></trkpt><trkpt lat="30.091467186440525" lon="-6.435433374307495"><ele>901.6666666666666</ele><time>2026-03-23T08:51:42.961Z</time></trkpt><trkpt lat="30.091549984783104" lon="-6.435242695143481"><ele>902.3333333333333</ele><time>2026-03-23T08:51:43.961Z</time></trkpt><trkpt lat="30.091625455527964" lon="-6.435083447641232"><ele>903.0</ele><time>2026-03-23T08:51:44.961Z</time></trkpt><trkpt lat="30.09169125438032" lon="-6.4349373630451066"><ele>902.0</ele><time>2026-03-23T08:51:45.961Z</time></trkpt><trkpt lat="30.091747510321994" lon="-6.434787292347661"><ele>901.0</ele><time>2026-03-23T08:51:46.961Z</time></trkpt><trkpt lat="30.091797813729684" lon="-6.434646263807086"><ele>900.0</ele><time>2026-03-23T08:51:47.961Z</time></trkpt><trkpt lat="30.09184634118811" lon="-6.434506263438877"><ele>899.0</ele><time>2026-03-23T08:51:48.961Z</time></trkpt><trkpt lat="30.091890154436264" lon="-6.43435611722373"><ele>898.6666666666667</ele><time>2026-03-23T08:51:49.961Z</time></trkpt><trkpt lat="30.091935677474" lon="-6.434188167360944"><ele>898.3333333333333</ele><time>2026-03-23T08:51:50.961Z</time></trkpt><trkpt lat="30.091984051613622" lon="-6.434003783007686"><ele>898.0</ele><time>2026-03-23T08:51:51.961Z</time></trkpt><trkpt lat="30.0920224578644" lon="-6.433816057371931"><ele>897.3333333333333</ele><time>2026-03-23T08:51:52.961Z</time></trkpt><trkpt lat="30.092063199032623" lon="-6.433612383462331"><ele>896.6666666666667</ele><time>2026-03-23T08:51:53.961Z</time></trkpt><trkpt lat="30.092107071613803" lon="-6.433414389897361"><ele>896.0</ele><time>2026-03-23T08:51:54.961Z</time></trkpt><trkpt lat="30.092158278142428" lon="-6.433247540482749"><ele>896.0</ele><time>2026-03-23T08:51:55.961Z</time></trkpt><trkpt lat="30.092218385569552" lon="-6.433088937838819"><ele>896.0</ele><time>2026-03-23T08:51:56.961Z</time></trkpt><trkpt lat="30.092287116459687" lon="-6.432935530326817"><ele>896.0</ele><time>2026-03-23T08:51:57.961Z</time></trkpt><trkpt lat="30.09235177059629" lon="-6.432792766734132"><ele>896.0</ele><time>2026-03-23T08:51:58.961Z</time></trkpt><trkpt lat="30.09241113788266" lon="-6.432651917802988"><ele>896.5</ele><time>2026-03-23T08:51:59.961Z</time></trkpt><trkpt lat="30.09246149620154" lon="-6.432513452802665"><ele>897.0</ele><time>2026-03-23T08:52:00.961Z</time></trkpt><trkpt lat="30.09251605346417" lon="-6.432357189680757"><ele>897.5</ele><time>2026-03-23T08:52:01.961Z</time></trkpt><trkpt lat="30.092561419442777" lon="-6.432191113541633"><ele>898.0</ele><time>2026-03-23T08:52:02.961Z</time></trkpt><trkpt lat="30.092594451650438" lon="-6.432013153265425"><ele>898.25</ele><time>2026-03-23T08:52:03.961Z</time></trkpt><trkpt lat="30.092629535376332" lon="-6.431854399527878"><ele>898.5</ele><time>2026-03-23T08:52:04.961Z</time></trkpt><trkpt lat="30.092664264383505" lon="-6.4317029989541235"><ele>898.75</ele><time>2026-03-23T08:52:05.961Z</time></trkpt><trkpt lat="30.09270297740755" lon="-6.431570796520536"><ele>899.0</ele><time>2026-03-23T08:52:06.961Z</time></trkpt><trkpt lat="30.09274134475222" lon="-6.431461370998442"><ele>899.0000000000001</ele><time>2026-03-23T08:52:07.961Z</time></trkpt><trkpt lat="30.09277127082027" lon="-6.431375076848285"><ele>899.0</ele><time>2026-03-23T08:52:08.961Z</time></trkpt><trkpt lat="30.09280701832872" lon="-6.431295186485301"><ele>899.0</ele><time>2026-03-23T08:52:09.961Z</time></trkpt><trkpt lat="30.09284457479255" lon="-6.431219885275037"><ele>899.0</ele><time>2026-03-23T08:52:10.961Z</time></trkpt><trkpt lat="30.092882226527955" lon="-6.431136976509417"><ele>899.0000000000001</ele><time>2026-03-23T08:52:11.961Z</time></trkpt><trkpt lat="30.092920864151203" lon="-6.431039169166397"><ele>899.0</ele><time>2026-03-23T08:52:12.961Z</time></trkpt><trkpt lat="30.092950964836582" lon="-6.430922282018186"><ele>898.6</ele><time>2026-03-23T08:52:13.961Z</time></trkpt><trkpt lat="30.09296650265407" lon="-6.430792030092497"><ele>898.2</ele><time>2026-03-23T08:52:14.961Z</time></trkpt><trkpt lat="30.092979798145517" lon="-6.430673150279785"><ele>897.8000000000001</ele><time>2026-03-23T08:52:15.961Z</time></trkpt><trkpt lat="30.0930096556118" lon="-6.430551665596122"><ele>897.4000000000001</ele><time>2026-03-23T08:52:16.961Z</time></trkpt><trkpt lat="30.093048500351813" lon="-6.430448968148043"><ele>897.0</ele><time>2026-03-23T08:52:17.961Z</time></trkpt><trkpt lat="30.093094292254165" lon="-6.430349817616171"><ele>897.0</ele><time>2026-03-23T08:52:18.961Z</time></trkpt><trkpt lat="30.093134872777455" lon="-6.430262477711127"><ele>897.0</ele><time>2026-03-23T08:52:19.961Z</time></trkpt><trkpt lat="30.093170122290886" lon="-6.43016882500992"><ele>897.0</ele><time>2026-03-23T08:52:20.961Z</time></trkpt><trkpt lat="30.093205193654274" lon="-6.430054487180413"><ele>897.0</ele><time>2026-03-23T08:52:21.961Z</time></trkpt><trkpt lat="30.093256699177733" lon="-6.429924526524108"><ele>897.0</ele><time>2026-03-23T08:52:22.961Z</time></trkpt><trkpt lat="30.093304769258786" lon="-6.429767780611601"><ele>897.25</ele><time>2026-03-23T08:52:23.961Z</time></trkpt><trkpt lat="30.093354594706277" lon="-6.429611843124622"><ele>897.5</ele><time>2026-03-23T08:52:24.961Z</time></trkpt><trkpt lat="30.093394157089136" lon="-6.429470807091355"><ele>897.75</ele><time>2026-03-23T08:52:25.961Z</time></trkpt><trkpt lat="30.093427562485854" lon="-6.429345343754166"><ele>898.0</ele><time>2026-03-23T08:52:26.961Z</time></trkpt><trkpt lat="30.093459697220815" lon="-6.429213023492873"><ele>898.0</ele><time>2026-03-23T08:52:27.961Z</time></trkpt><trkpt lat="30.093487905850875" lon="-6.429081836035883"><ele>898.0</ele><time>2026-03-23T08:52:28.961Z</time></trkpt><trkpt lat="30.09351759204512" lon="-6.428962234006665"><ele>898.0</ele><time>2026-03-23T08:52:29.961Z</time></trkpt><trkpt lat="30.0935598737083" lon="-6.428848748329904"><ele>898.0</ele><time>2026-03-23T08:52:30.961Z</time></trkpt><trkpt lat="30.09359940790658" lon="-6.4287344181416035"><ele>898.0</ele><time>2026-03-23T08:52:31.961Z</time></trkpt><trkpt lat="30.093642848264565" lon="-6.42860778393249"><ele>897.75</ele><time>2026-03-23T08:52:32.961Z</time></trkpt><trkpt lat="30.093686834951907" lon="-6.4284904858759795"><ele>897.5</ele><time>2026-03-23T08:52:33.961Z</time></trkpt><trkpt lat="30.093739255262744" lon="-6.428376483909988"><ele>897.25</ele><time>2026-03-23T08:52:34.961Z</time></trkpt><trkpt lat="30.093797304305884" lon="-6.4282486348297185"><ele>897.0</ele><time>2026-03-23T08:52:35.961Z</time></trkpt><trkpt lat="30.09385794897441" lon="-6.42812935856531"><ele>897.0</ele><time>2026-03-23T08:52:36.961Z</time></trkpt><trkpt lat="30.093919691387345" lon="-6.42802131611327"><ele>897.0</ele><time>2026-03-23T08:52:37.961Z</time></trkpt><trkpt lat="30.09398579403893" lon="-6.427915770343125"><ele>897.0</ele><time>2026-03-23T08:52:38.961Z</time></trkpt><trkpt lat="30.09404902074921" lon="-6.427812194792502"><ele>897.0</ele><time>2026-03-23T08:52:39.961Z</time></trkpt><trkpt lat="30.094108713642402" lon="-6.427710248412488"><ele>897.0</ele><time>2026-03-23T08:52:40.961Z</time></trkpt><trkpt lat="30.094166599828537" lon="-6.4275988647835165"><ele>897.2</ele><time>2026-03-23T08:52:41.961Z</time></trkpt><trkpt lat="30.0942212684381" lon="-6.427486887670014"><ele>897.4000000000001</ele><time>2026-03-23T08:52:42.961Z</time></trkpt><trkpt lat="30.094267346205985" lon="-6.4273850693254815"><ele>897.5999999999999</ele><time>2026-03-23T08:52:43.961Z</time></trkpt><trkpt lat="30.09431373884556" lon="-6.42727763198623"><ele>897.8</ele><time>2026-03-23T08:52:44.961Z</time></trkpt><trkpt lat="30.094366436131814" lon="-6.427162628247392"><ele>898.0</ele><time>2026-03-23T08:52:45.961Z</time></trkpt><trkpt lat="30.094416719751223" lon="-6.427051501164565"><ele>898.0</ele><time>2026-03-23T08:52:46.961Z</time></trkpt><trkpt lat="30.094456867015367" lon="-6.426936744435001"><ele>898.0</ele><time>2026-03-23T08:52:47.961Z</time></trkpt><trkpt lat="30.094504566342547" lon="-6.426822553502501"><ele>898.0</ele><time>2026-03-23T08:52:48.961Z</time></trkpt><trkpt lat="30.09458189868908" lon="-6.426696942679081"><ele>898.0</ele><time>2026-03-23T08:52:49.961Z</time></trkpt><trkpt lat="30.094646533095823" lon="-6.426564570805895"><ele>898.0</ele><time>2026-03-23T08:52:50.961Z</time></trkpt><trkpt lat="30.09469536179239" lon="-6.4264209394029566"><ele>898.0</ele><time>2026-03-23T08:52:51.961Z</time></trkpt><trkpt lat="30.094736169900408" lon="-6.426276489887426"><ele>898.0</ele><time>2026-03-23T08:52:52.961Z</time></trkpt><trkpt lat="30.094776097708493" lon="-6.426146138470665"><ele>898.0</ele><time>2026-03-23T08:52:53.961Z</time></trkpt><trkpt lat="30.094807462976835" lon="-6.426016525028127"><ele>898.0</ele><time>2026-03-23T08:52:54.961Z</time></trkpt><trkpt lat="30.094838320947666" lon="-6.425884943282066"><ele>898.0</ele><time>2026-03-23T08:52:55.961Z</time></trkpt><trkpt lat="30.094881421716398" lon="-6.4257501674166955"><ele>898.0</ele><time>2026-03-23T08:52:56.961Z</time></trkpt><trkpt lat="30.094926827606166" lon="-6.425615932995355"><ele>898.0</ele><time>2026-03-23T08:52:57.961Z</time></trkpt><trkpt lat="30.09497215209307" lon="-6.425486547302679"><ele>897.5</ele><time>2026-03-23T08:52:58.961Z</time></trkpt><trkpt lat="30.095027894438015" lon="-6.425362684322135"><ele>897.0</ele><time>2026-03-23T08:52:59.961Z</time></trkpt><trkpt lat="30.095081504409517" lon="-6.425245937542105"><ele>896.5</ele><time>2026-03-23T08:53:00.961Z</time></trkpt><trkpt lat="30.095134829755935" lon="-6.42513462421285"><ele>896.0</ele><time>2026-03-23T08:53:01.961Z</time></trkpt><trkpt lat="30.095171627428144" lon="-6.425017184695499"><ele>896.0</ele><time>2026-03-23T08:53:02.961Z</time></trkpt><trkpt lat="30.095195030339273" lon="-6.424901188813874"><ele>896.0</ele><time>2026-03-23T08:53:03.961Z</time></trkpt><trkpt lat="30.095226402873884" lon="-6.424772406893069"><ele>896.0</ele><time>2026-03-23T08:53:04.961Z</time></trkpt><trkpt lat="30.095256986012103" lon="-6.424641942223485"><ele>896.0</ele><time>2026-03-23T08:53:05.961Z</time></trkpt><trkpt lat="30.095286155336392" lon="-6.4245105857898235"><ele>896.25</ele><time>2026-03-23T08:53:06.961Z</time></trkpt><trkpt lat="30.095314343517124" lon="-6.424382668581024"><ele>896.5</ele><time>2026-03-23T08:53:07.961Z</time></trkpt><trkpt lat="30.095340362591795" lon="-6.424249050586214"><ele>896.75</ele><time>2026-03-23T08:53:08.961Z</time></trkpt><trkpt lat="30.095356238401077" lon="-6.424113180497943"><ele>897.0</ele><time>2026-03-23T08:53:09.961Z</time></trkpt><trkpt lat="30.095375473705605" lon="-6.423981801344741"><ele>897.0</ele><time>2026-03-23T08:53:10.961Z</time></trkpt><trkpt lat="30.095392021255687" lon="-6.423854999994826"><ele>897.0</ele><time>2026-03-23T08:53:11.961Z</time></trkpt><trkpt lat="30.095414647944935" lon="-6.423727226677973"><ele>897.0</ele><time>2026-03-23T08:53:12.961Z</time></trkpt><trkpt lat="30.09545252327273" lon="-6.423597655699617"><ele>897.0</ele><time>2026-03-23T08:53:13.961Z</time></trkpt><trkpt lat="30.095492917657335" lon="-6.423458673157648"><ele>897.0</ele><time>2026-03-23T08:53:14.961Z</time></trkpt><trkpt lat="30.095540236686706" lon="-6.423335199668392"><ele>897.0</ele><time>2026-03-23T08:53:15.961Z</time></trkpt><trkpt lat="30.095591821749068" lon="-6.423199879209475"><ele>897.0</ele><time>2026-03-23T08:53:16.961Z</time></trkpt><trkpt lat="30.095647025279366" lon="-6.4230661719243205"><ele>897.0</ele><time>2026-03-23T08:53:17.961Z</time></trkpt><trkpt lat="30.095707552336616" lon="-6.422934600347767"><ele>896.75</ele><time>2026-03-23T08:53:18.961Z</time></trkpt><trkpt lat="30.095762075316205" lon="-6.422805337580381"><ele>896.5</ele><time>2026-03-23T08:53:19.961Z</time></trkpt><trkpt lat="30.095810434062905" lon="-6.422677397712968"><ele>896.25</ele><time>2026-03-23T08:53:20.961Z</time></trkpt><trkpt lat="30.095858341175067" lon="-6.422554297510416"><ele>896.0</ele><time>2026-03-23T08:53:21.961Z</time></trkpt><trkpt lat="30.09590172106484" lon="-6.422429715435847"><ele>896.0</ele><time>2026-03-23T08:53:22.961Z</time></trkpt><trkpt lat="30.09594168708459" lon="-6.422305952608724"><ele>896.0</ele><time>2026-03-23T08:53:23.961Z</time></trkpt><trkpt lat="30.095981878748013" lon="-6.422182239926624"><ele>896.0</ele><time>2026-03-23T08:53:24.961Z</time></trkpt><trkpt lat="30.096018458771717" lon="-6.422050952010445"><ele>896.0</ele><time>2026-03-23T08:53:25.961Z</time></trkpt><trkpt lat="30.096044596387504" lon="-6.421922229561255"><ele>895.25</ele><time>2026-03-23T08:53:26.961Z</time></trkpt><trkpt lat="30.09607817882007" lon="-6.421784886202582"><ele>894.5</ele><time>2026-03-23T08:53:27.961Z</time></trkpt><trkpt lat="30.096109898578927" lon="-6.4216651548734305"><ele>893.75</ele><time>2026-03-23T08:53:28.961Z</time></trkpt><trkpt lat="30.09614338266764" lon="-6.421539702464634"><ele>893.0</ele><time>2026-03-23T08:53:29.961Z</time></trkpt><trkpt lat="30.096165094723744" lon="-6.421411477895354"><ele>893.25</ele><time>2026-03-23T08:53:30.961Z</time></trkpt><trkpt lat="30.096175918403365" lon="-6.421274118736732"><ele>893.5</ele><time>2026-03-23T08:53:31.961Z</time></trkpt><trkpt lat="30.096188115167223" lon="-6.421132600361935"><ele>893.75</ele><time>2026-03-23T08:53:32.961Z</time></trkpt><trkpt lat="30.096203589404347" lon="-6.4209875736282624"><ele>894.0</ele><time>2026-03-23T08:53:33.961Z</time></trkpt><trkpt lat="30.09621947588231" lon="-6.420850878580502"><ele>894.0</ele><time>2026-03-23T08:53:34.961Z</time></trkpt><trkpt lat="30.096253239738314" lon="-6.420724653887126"><ele>894.0</ele><time>2026-03-23T08:53:35.961Z</time></trkpt><trkpt lat="30.096314301461213" lon="-6.420578545424046"><ele>894.0</ele><time>2026-03-23T08:53:36.961Z</time></trkpt><trkpt lat="30.09639590784479" lon="-6.420393094230516"><ele>894.0</ele><time>2026-03-23T08:53:37.961Z</time></trkpt><trkpt lat="30.096484475687053" lon="-6.4201907764570585"><ele>894.5</ele><time>2026-03-23T08:53:38.961Z</time></trkpt><trkpt lat="30.096568978399866" lon="-6.420029572632567"><ele>895.0</ele><time>2026-03-23T08:53:39.961Z</time></trkpt><trkpt lat="30.09663192857131" lon="-6.419901300315792"><ele>895.5</ele><time>2026-03-23T08:53:40.961Z</time></trkpt><trkpt lat="30.096695463616197" lon="-6.419788180899404"><ele>896.0</ele><time>2026-03-23T08:53:41.961Z</time></trkpt><trkpt lat="30.096762796698332" lon="-6.419674386332929"><ele>896.0</ele><time>2026-03-23T08:53:42.961Z</time></trkpt><trkpt lat="30.09682433772215" lon="-6.419577579210977"><ele>895.9999999999999</ele><time>2026-03-23T08:53:43.961Z</time></trkpt><trkpt lat="30.096876776422263" lon="-6.419471529199082"><ele>895.9999999999999</ele><time>2026-03-23T08:53:44.961Z</time></trkpt><trkpt lat="30.096910214099847" lon="-6.419386681223245"><ele>896.0</ele><time>2026-03-23T08:53:45.961Z</time></trkpt><trkpt lat="30.09696350225857" lon="-6.419258724027762"><ele>896.0</ele><time>2026-03-23T08:53:47.961Z</time></trkpt><trkpt lat="30.097002203654746" lon="-6.419183287893448"><ele>896.0</ele><time>2026-03-23T08:53:48.961Z</time></trkpt><trkpt lat="30.09705082640379" lon="-6.419099730931862"><ele>895.9999999999999</ele><time>2026-03-23T08:53:49.961Z</time></trkpt><trkpt lat="30.097102378914702" lon="-6.4190071412573175"><ele>895.9999999999999</ele><time>2026-03-23T08:53:50.961Z</time></trkpt><trkpt lat="30.09715554401206" lon="-6.418903915586722"><ele>896.0</ele><time>2026-03-23T08:53:51.961Z</time></trkpt><trkpt lat="30.097220892224694" lon="-6.418787796074309"><ele>896.0</ele><time>2026-03-23T08:53:52.961Z</time></trkpt><trkpt lat="30.097288890158115" lon="-6.418674909141548"><ele>895.75</ele><time>2026-03-23T08:53:53.961Z</time></trkpt><trkpt lat="30.097357185827384" lon="-6.418567085910226"><ele>895.5</ele><time>2026-03-23T08:53:54.961Z</time></trkpt><trkpt lat="30.09743257131698" lon="-6.418444076259172"><ele>895.25</ele><time>2026-03-23T08:53:55.961Z</time></trkpt><trkpt lat="30.09749651171775" lon="-6.418313170991407"><ele>895.0</ele><time>2026-03-23T08:53:56.961Z</time></trkpt><trkpt lat="30.09753848504237" lon="-6.4181928185743855"><ele>894.8</ele><time>2026-03-23T08:53:57.961Z</time></trkpt><trkpt lat="30.097557827224843" lon="-6.418081418049243"><ele>894.6</ele><time>2026-03-23T08:53:58.961Z</time></trkpt><trkpt lat="30.097560817799952" lon="-6.417974169471493"><ele>894.4000000000001</ele><time>2026-03-23T08:53:59.961Z</time></trkpt><trkpt lat="30.09754786753941" lon="-6.417854240439291"><ele>894.2</ele><time>2026-03-23T08:54:00.961Z</time></trkpt><trkpt lat="30.097519954247627" lon="-6.417725773045715"><ele>894.0</ele><time>2026-03-23T08:54:01.961Z</time></trkpt><trkpt lat="30.097485468847317" lon="-6.417588759552374"><ele>894.0</ele><time>2026-03-23T08:54:02.961Z</time></trkpt><trkpt lat="30.09748108597947" lon="-6.417474431217818"><ele>894.0000000000001</ele><time>2026-03-23T08:54:03.961Z</time></trkpt><trkpt lat="30.097498000089885" lon="-6.417372780725016"><ele>894.0000000000001</ele><time>2026-03-23T08:54:04.961Z</time></trkpt><trkpt lat="30.097532841087517" lon="-6.417289400720266"><ele>894.0</ele><time>2026-03-23T08:54:05.961Z</time></trkpt><trkpt lat="30.09759630321139" lon="-6.417187499271328"><ele>894.0</ele><time>2026-03-23T08:54:06.961Z</time></trkpt><trkpt lat="30.097664441010938" lon="-6.41706402255862"><ele>894.0</ele><time>2026-03-23T08:54:07.961Z</time></trkpt><trkpt lat="30.097729927926242" lon="-6.416937527759887"><ele>894.0000000000001</ele><time>2026-03-23T08:54:08.961Z</time></trkpt><trkpt lat="30.09778762842999" lon="-6.416824158245342"><ele>894.0000000000001</ele><time>2026-03-23T08:54:09.961Z</time></trkpt><trkpt lat="30.09781643557982" lon="-6.41671730665285"><ele>894.0</ele><time>2026-03-23T08:54:10.96Z</time></trkpt><trkpt lat="30.09782333898995" lon="-6.4165970696295584"><ele>894.0</ele><time>2026-03-23T08:54:11.96Z</time></trkpt><trkpt lat="30.097828449681742" lon="-6.416482348355464"><ele>894.0</ele><time>2026-03-23T08:54:12.96Z</time></trkpt><trkpt lat="30.097842642276213" lon="-6.416378880937048"><ele>894.0000000000001</ele><time>2026-03-23T08:54:13.96Z</time></trkpt><trkpt lat="30.0978698926657" lon="-6.4162874632543945"><ele>894.0000000000001</ele><time>2026-03-23T08:54:14.96Z</time></trkpt><trkpt lat="30.097904102891675" lon="-6.416199349815546"><ele>894.0</ele><time>2026-03-23T08:54:15.96Z</time></trkpt><trkpt lat="30.097943082489632" lon="-6.416105904092636"><ele>894.0</ele><time>2026-03-23T08:54:16.96Z</time></trkpt><trkpt lat="30.097992624045702" lon="-6.415996535295638"><ele>894.0</ele><time>2026-03-23T08:54:17.96Z</time></trkpt><trkpt lat="30.098046090500546" lon="-6.415903355620407"><ele>894.0</ele><time>2026-03-23T08:54:18.96Z</time></trkpt><trkpt lat="30.098102545971415" lon="-6.415832449257684"><ele>894.0</ele><time>2026-03-23T08:54:19.96Z</time></trkpt><trkpt lat="30.098160752068704" lon="-6.415764859162192"><ele>894.0</ele><time>2026-03-23T08:54:20.96Z</time></trkpt><trkpt lat="30.09822302904623" lon="-6.415685293186085"><ele>894.0</ele><time>2026-03-23T08:54:21.96Z</time></trkpt><trkpt lat="30.098275535523666" lon="-6.415601510942982"><ele>894.0</ele><time>2026-03-23T08:54:22.96Z</time></trkpt><trkpt lat="30.09831255413207" lon="-6.415511311507974"><ele>893.6</ele><time>2026-03-23T08:54:23.96Z</time></trkpt><trkpt lat="30.098341260247686" lon="-6.415410658249839"><ele>893.2</ele><time>2026-03-23T08:54:24.96Z</time></trkpt><trkpt lat="30.098368703635437" lon="-6.415294207924294"><ele>892.8000000000001</ele><time>2026-03-23T08:54:25.96Z</time></trkpt><trkpt lat="30.098400592310533" lon="-6.415181670736345"><ele>892.4000000000001</ele><time>2026-03-23T08:54:26.96Z</time></trkpt><trkpt lat="30.098430101441444" lon="-6.415067837077648"><ele>892.0</ele><time>2026-03-23T08:54:27.96Z</time></trkpt><trkpt lat="30.098466493641865" lon="-6.41495889262856"><ele>892.0</ele><time>2026-03-23T08:54:28.96Z</time></trkpt><trkpt lat="30.09851615696415" lon="-6.4148592747713735"><ele>892.0</ele><time>2026-03-23T08:54:29.96Z</time></trkpt><trkpt lat="30.09856183400533" lon="-6.4147585461619006"><ele>892.0</ele><time>2026-03-23T08:54:30.96Z</time></trkpt><trkpt lat="30.0986128870515" lon="-6.414655073283128"><ele>892.0</ele><time>2026-03-23T08:54:31.96Z</time></trkpt><trkpt lat="30.0986603168183" lon="-6.414557045202293"><ele>892.0</ele><time>2026-03-23T08:54:32.96Z</time></trkpt><trkpt lat="30.09871094557435" lon="-6.414454133904288"><ele>892.6</ele><time>2026-03-23T08:54:33.96Z</time></trkpt><trkpt lat="30.098761380012675" lon="-6.414348174711716"><ele>893.2</ele><time>2026-03-23T08:54:34.96Z</time></trkpt><trkpt lat="30.098807890655912" lon="-6.414241365805008"><ele>893.8</ele><time>2026-03-23T08:54:35.96Z</time></trkpt><trkpt lat="30.098855036564224" lon="-6.414133854327094"><ele>894.4</ele><time>2026-03-23T08:54:36.96Z</time></trkpt><trkpt lat="30.098903506830705" lon="-6.414026821517501"><ele>895.0</ele><time>2026-03-23T08:54:37.96Z</time></trkpt><trkpt lat="30.098960003896963" lon="-6.413922603612665"><ele>894.6</ele><time>2026-03-23T08:54:38.96Z</time></trkpt><trkpt lat="30.099021792079593" lon="-6.413819750586893"><ele>894.2</ele><time>2026-03-23T08:54:39.96Z</time></trkpt><trkpt lat="30.099081932648204" lon="-6.41373252201846"><ele>893.8</ele><time>2026-03-23T08:54:40.96Z</time></trkpt><trkpt lat="30.099142081691664" lon="-6.413631760882055"><ele>893.4</ele><time>2026-03-23T08:54:41.96Z</time></trkpt><trkpt lat="30.0992047885274" lon="-6.413524031598291"><ele>893.0</ele><time>2026-03-23T08:54:42.96Z</time></trkpt><trkpt lat="30.09926254390432" lon="-6.413412560679078"><ele>892.75</ele><time>2026-03-23T08:54:43.96Z</time></trkpt><trkpt lat="30.099309710311974" lon="-6.4132863480144"><ele>892.5</ele><time>2026-03-23T08:54:44.96Z</time></trkpt><trkpt lat="30.099351654208938" lon="-6.413137708146359"><ele>892.25</ele><time>2026-03-23T08:54:45.96Z</time></trkpt><trkpt lat="30.099392803124214" lon="-6.412990551046973"><ele>892.0</ele><time>2026-03-23T08:54:46.96Z</time></trkpt><trkpt lat="30.099432750787084" lon="-6.412863583193036"><ele>892.4000000000001</ele><time>2026-03-23T08:54:47.96Z</time></trkpt><trkpt lat="30.099456218575998" lon="-6.412749921885703"><ele>892.8000000000001</ele><time>2026-03-23T08:54:48.96Z</time></trkpt><trkpt lat="30.099478185554922" lon="-6.412632232293427"><ele>893.2</ele><time>2026-03-23T08:54:49.96Z</time></trkpt><trkpt lat="30.09950920252249" lon="-6.412529623969675"><ele>893.6</ele><time>2026-03-23T08:54:50.961Z</time></trkpt><trkpt lat="30.099532868920306" lon="-6.412438413838848"><ele>894.0</ele><time>2026-03-23T08:54:51.96Z</time></trkpt><trkpt lat="30.099561828847477" lon="-6.412346124507892"><ele>894.0</ele><time>2026-03-23T08:54:52.96Z</time></trkpt><trkpt lat="30.099589632157947" lon="-6.41224243722589"><ele>894.0000000000001</ele><time>2026-03-23T08:54:53.96Z</time></trkpt><trkpt lat="30.099614289200456" lon="-6.412134180797737"><ele>894.0000000000001</ele><time>2026-03-23T08:54:54.96Z</time></trkpt><trkpt lat="30.09963573529785" lon="-6.412035841716721"><ele>894.0</ele><time>2026-03-23T08:54:55.96Z</time></trkpt><trkpt lat="30.099666092519676" lon="-6.411935242927502"><ele>894.0</ele><time>2026-03-23T08:54:56.961Z</time></trkpt><trkpt lat="30.09969980524911" lon="-6.411830447664443"><ele>894.2</ele><time>2026-03-23T08:54:57.96Z</time></trkpt><trkpt lat="30.099740790217524" lon="-6.411742345855555"><ele>894.4000000000001</ele><time>2026-03-23T08:54:58.96Z</time></trkpt><trkpt lat="30.099785650352803" lon="-6.411647130351753"><ele>894.6</ele><time>2026-03-23T08:54:59.96Z</time></trkpt><trkpt lat="30.099826312713514" lon="-6.411549012678641"><ele>894.8</ele><time>2026-03-23T08:55:00.96Z</time></trkpt><trkpt lat="30.099865005676232" lon="-6.411446549108419"><ele>895.0</ele><time>2026-03-23T08:55:01.96Z</time></trkpt><trkpt lat="30.099898062454233" lon="-6.41133799143283"><ele>895.0</ele><time>2026-03-23T08:55:02.96Z</time></trkpt><trkpt lat="30.099937911283835" lon="-6.4112355264066085"><ele>895.0</ele><time>2026-03-23T08:55:03.96Z</time></trkpt><trkpt lat="30.099983683985233" lon="-6.411152364369616"><ele>895.0</ele><time>2026-03-23T08:55:04.96Z</time></trkpt><trkpt lat="30.10003557219764" lon="-6.411060286602414"><ele>895.0</ele><time>2026-03-23T08:55:05.96Z</time></trkpt><trkpt lat="30.100091428095475" lon="-6.410962359192734"><ele>895.0</ele><time>2026-03-23T08:55:06.96Z</time></trkpt><trkpt lat="30.10016343412433" lon="-6.410860490513944"><ele>895.0</ele><time>2026-03-23T08:55:07.96Z</time></trkpt><trkpt lat="30.100241184707365" lon="-6.410753846822599"><ele>895.0</ele><time>2026-03-23T08:55:08.96Z</time></trkpt><trkpt lat="30.100317870687935" lon="-6.410637983111148"><ele>895.0</ele><time>2026-03-23T08:55:09.96Z</time></trkpt><trkpt lat="30.10040235957627" lon="-6.410511904914807"><ele>895.0</ele><time>2026-03-23T08:55:10.96Z</time></trkpt><trkpt lat="30.10047396233884" lon="-6.410404067665904"><ele>895.0</ele><time>2026-03-23T08:55:11.96Z</time></trkpt><trkpt lat="30.10052950231148" lon="-6.410312573525998"><ele>895.0</ele><time>2026-03-23T08:55:12.96Z</time></trkpt><trkpt lat="30.100572182264937" lon="-6.410200961657887"><ele>895.0</ele><time>2026-03-23T08:55:13.96Z</time></trkpt><trkpt lat="30.10061257750664" lon="-6.41009571110019"><ele>895.0</ele><time>2026-03-23T08:55:14.96Z</time></trkpt><trkpt lat="30.100652900070997" lon="-6.409984085652453"><ele>895.0</ele><time>2026-03-23T08:55:15.96Z</time></trkpt><trkpt lat="30.10068823182094" lon="-6.409880419553578"><ele>895.0</ele><time>2026-03-23T08:55:16.96Z</time></trkpt><trkpt lat="30.100731282894724" lon="-6.40977153585928"><ele>895.0</ele><time>2026-03-23T08:55:17.96Z</time></trkpt><trkpt lat="30.100777299256645" lon="-6.409672952112013"><ele>895.0</ele><time>2026-03-23T08:55:18.96Z</time></trkpt><trkpt lat="30.100825809232887" lon="-6.4095783421205486"><ele>895.0</ele><time>2026-03-23T08:55:19.96Z</time></trkpt><trkpt lat="30.10087100290391" lon="-6.40948464387064"><ele>895.0</ele><time>2026-03-23T08:55:20.96Z</time></trkpt><trkpt lat="30.100916147513466" lon="-6.409383421865988"><ele>894.6666666666666</ele><time>2026-03-23T08:55:21.96Z</time></trkpt><trkpt lat="30.10096584339849" lon="-6.409295044882456"><ele>894.3333333333333</ele><time>2026-03-23T08:55:22.96Z</time></trkpt><trkpt lat="30.101012007174866" lon="-6.409219292319624"><ele>894.0</ele><time>2026-03-23T08:55:23.96Z</time></trkpt><trkpt lat="30.10106781063753" lon="-6.409137649098408"><ele>893.6666666666667</ele><time>2026-03-23T08:55:24.96Z</time></trkpt><trkpt lat="30.10111033053053" lon="-6.409055475991886"><ele>893.3333333333334</ele><time>2026-03-23T08:55:25.96Z</time></trkpt><trkpt lat="30.101128115261996" lon="-6.4089697896545585"><ele>893.0</ele><time>2026-03-23T08:55:26.96Z</time></trkpt><trkpt lat="30.10113619927724" lon="-6.408887931435914"><ele>892.5000000000001</ele><time>2026-03-23T08:55:27.96Z</time></trkpt><trkpt lat="30.101158685021694" lon="-6.408785419345144"><ele>892.0</ele><time>2026-03-23T08:55:28.96Z</time></trkpt><trkpt lat="30.101190794988817" lon="-6.408685160399211"><ele>891.5</ele><time>2026-03-23T08:55:29.96Z</time></trkpt><trkpt lat="30.10123314608859" lon="-6.408608455748255"><ele>891.0</ele><time>2026-03-23T08:55:30.96Z</time></trkpt><trkpt lat="30.101268148841328" lon="-6.408523631269298"><ele>890.5000000000001</ele><time>2026-03-23T08:55:31.96Z</time></trkpt><trkpt lat="30.101305728681503" lon="-6.408447504121994"><ele>890.0</ele><time>2026-03-23T08:55:32.96Z</time></trkpt><trkpt lat="30.10136218307691" lon="-6.4083762112403"><ele>890.0</ele><time>2026-03-23T08:55:33.96Z</time></trkpt><trkpt lat="30.10142030683853" lon="-6.4082980539783465"><ele>890.0</ele><time>2026-03-23T08:55:34.96Z</time></trkpt><trkpt lat="30.10147206109751" lon="-6.40821630655627"><ele>890.0</ele><time>2026-03-23T08:55:35.96Z</time></trkpt><trkpt lat="30.101521263269344" lon="-6.408136687353292"><ele>890.0</ele><time>2026-03-23T08:55:36.96Z</time></trkpt><trkpt lat="30.10159457145196" lon="-6.408040988918852"><ele>890.0</ele><time>2026-03-23T08:55:37.96Z</time></trkpt><trkpt lat="30.101634672852377" lon="-6.40793773313879"><ele>890.5</ele><time>2026-03-23T08:55:38.96Z</time></trkpt><trkpt lat="30.101682748972635" lon="-6.4078307980774465"><ele>891.0</ele><time>2026-03-23T08:55:39.96Z</time></trkpt><trkpt lat="30.101761406759678" lon="-6.407730171447903"><ele>891.5</ele><time>2026-03-23T08:55:40.96Z</time></trkpt><trkpt lat="30.101845875976146" lon="-6.407628048044614"><ele>892.0</ele><time>2026-03-23T08:55:41.96Z</time></trkpt><trkpt lat="30.10191397603942" lon="-6.407509700049302"><ele>892.0</ele><time>2026-03-23T08:55:42.96Z</time></trkpt><trkpt lat="30.10198056258502" lon="-6.407389809662338"><ele>892.0</ele><time>2026-03-23T08:55:43.96Z</time></trkpt><trkpt lat="30.102045757311316" lon="-6.40728164178022"><ele>892.0</ele><time>2026-03-23T08:55:44.96Z</time></trkpt><trkpt lat="30.102108868267706" lon="-6.4071804238726076"><ele>892.0</ele><time>2026-03-23T08:55:45.96Z</time></trkpt><trkpt lat="30.10214937938517" lon="-6.40707463876765"><ele>892.0</ele><time>2026-03-23T08:55:46.96Z</time></trkpt><trkpt lat="30.10219424943788" lon="-6.406981387842046"><ele>891.6</ele><time>2026-03-23T08:55:47.96Z</time></trkpt><trkpt lat="30.102238079800923" lon="-6.406889726618704"><ele>891.2</ele><time>2026-03-23T08:55:48.96Z</time></trkpt><trkpt lat="30.102258604955587" lon="-6.406782395579936"><ele>890.8</ele><time>2026-03-23T08:55:49.96Z</time></trkpt><trkpt lat="30.10229733952862" lon="-6.40667461176941"><ele>890.4</ele><time>2026-03-23T08:55:50.96Z</time></trkpt><trkpt lat="30.102359854283833" lon="-6.4065631647222"><ele>890.0</ele><time>2026-03-23T08:55:51.96Z</time></trkpt><trkpt lat="30.10242279511178" lon="-6.406457241940721"><ele>891.0</ele><time>2026-03-23T08:55:52.96Z</time></trkpt><trkpt lat="30.102478243350447" lon="-6.406363810168131"><ele>892.0</ele><time>2026-03-23T08:55:53.96Z</time></trkpt><trkpt lat="30.102530995855385" lon="-6.40627930229698"><ele>893.0</ele><time>2026-03-23T08:55:54.96Z</time></trkpt><trkpt lat="30.102584990522562" lon="-6.406195406716647"><ele>894.0</ele><time>2026-03-23T08:55:55.96Z</time></trkpt><trkpt lat="30.102638214949305" lon="-6.4061098547549555"><ele>895.0</ele><time>2026-03-23T08:55:56.96Z</time></trkpt><trkpt lat="30.102690544101456" lon="-6.406027973300837"><ele>894.9999999999999</ele><time>2026-03-23T08:55:57.96Z</time></trkpt><trkpt lat="30.102731197684356" lon="-6.405949038853186"><ele>895.0</ele><time>2026-03-23T08:55:58.96Z</time></trkpt><trkpt lat="30.102762707188226" lon="-6.405854233249554"><ele>895.0</ele><time>2026-03-23T08:55:59.96Z</time></trkpt><trkpt lat="30.10278891407338" lon="-6.405758738938744"><ele>895.0</ele><time>2026-03-23T08:56:00.96Z</time></trkpt><trkpt lat="30.102817204582028" lon="-6.4056608884099715"><ele>894.9999999999999</ele><time>2026-03-23T08:56:01.96Z</time></trkpt><trkpt lat="30.102832509333297" lon="-6.40555366359911"><ele>895.0</ele><time>2026-03-23T08:56:02.96Z</time></trkpt><trkpt lat="30.102844841799694" lon="-6.405456546420244"><ele>894.3333333333333</ele><time>2026-03-23T08:56:03.96Z</time></trkpt><trkpt lat="30.102866679708097" lon="-6.405372122718602"><ele>893.6666666666666</ele><time>2026-03-23T08:56:04.96Z</time></trkpt><trkpt lat="30.102895865565007" lon="-6.405301203660131"><ele>893.0</ele><time>2026-03-23T08:56:05.96Z</time></trkpt><trkpt lat="30.1029242121387" lon="-6.405187046764131"><ele>892.3333333333333</ele><time>2026-03-23T08:56:07.96Z</time></trkpt><trkpt lat="30.10296295831127" lon="-6.405128248210587"><ele>891.6666666666666</ele><time>2026-03-23T08:56:08.96Z</time></trkpt><trkpt lat="30.10299764081662" lon="-6.40505036028756"><ele>891.0</ele><time>2026-03-23T08:56:09.96Z</time></trkpt><trkpt lat="30.103022944167435" lon="-6.40497020809631"><ele>891.0</ele><time>2026-03-23T08:56:10.96Z</time></trkpt><trkpt lat="30.103052816689104" lon="-6.404888683013278"><ele>891.0</ele><time>2026-03-23T08:56:11.96Z</time></trkpt><trkpt lat="30.103084345627845" lon="-6.404803706615602"><ele>891.0</ele><time>2026-03-23T08:56:12.96Z</time></trkpt><trkpt lat="30.10311258848005" lon="-6.404714276380058"><ele>891.0</ele><time>2026-03-23T08:56:13.96Z</time></trkpt><trkpt lat="30.103134369351846" lon="-6.40459996466953"><ele>891.0</ele><time>2026-03-23T08:56:14.96Z</time></trkpt><trkpt lat="30.10315767121449" lon="-6.404498000310322"><ele>891.0</ele><time>2026-03-23T08:56:15.96Z</time></trkpt><trkpt lat="30.10318215257698" lon="-6.404384799504954"><ele>891.0</ele><time>2026-03-23T08:56:16.96Z</time></trkpt><trkpt lat="30.103203991052446" lon="-6.404263775914086"><ele>891.0</ele><time>2026-03-23T08:56:17.96Z</time></trkpt><trkpt lat="30.103226744584664" lon="-6.404138888504906"><ele>891.0</ele><time>2026-03-23T08:56:18.96Z</time></trkpt><trkpt lat="30.10325106799676" lon="-6.404011503476052"><ele>891.0</ele><time>2026-03-23T08:56:19.96Z</time></trkpt><trkpt lat="30.10327562086881" lon="-6.403873083259118"><ele>890.3333333333333</ele><time>2026-03-23T08:56:20.96Z</time></trkpt><trkpt lat="30.10328487391557" lon="-6.403709430404045"><ele>889.6666666666666</ele><time>2026-03-23T08:56:21.96Z</time></trkpt><trkpt lat="30.10331906081684" lon="-6.403509343916323"><ele>889.0</ele><time>2026-03-23T08:56:22.96Z</time></trkpt><trkpt lat="30.10337158817039" lon="-6.403303725576199"><ele>889.0</ele><time>2026-03-23T08:56:23.96Z</time></trkpt><trkpt lat="30.103428517880225" lon="-6.403103113893069"><ele>889.0</ele><time>2026-03-23T08:56:24.96Z</time></trkpt><trkpt lat="30.10348747822099" lon="-6.402949131284697"><ele>889.0</ele><time>2026-03-23T08:56:25.96Z</time></trkpt><trkpt lat="30.103545409249804" lon="-6.402810267404801"><ele>889.25</ele><time>2026-03-23T08:56:26.96Z</time></trkpt><trkpt lat="30.103604852996707" lon="-6.402682502692445"><ele>889.5</ele><time>2026-03-23T08:56:27.96Z</time></trkpt><trkpt lat="30.10367120154477" lon="-6.402562498770508"><ele>889.75</ele><time>2026-03-23T08:56:28.96Z</time></trkpt><trkpt lat="30.103736760537714" lon="-6.402444879021948"><ele>890.0</ele><time>2026-03-23T08:56:29.96Z</time></trkpt><trkpt lat="30.103800343705547" lon="-6.40234896134508"><ele>890.0</ele><time>2026-03-23T08:56:30.96Z</time></trkpt><trkpt lat="30.103860708458054" lon="-6.402253494761882"><ele>890.0</ele><time>2026-03-23T08:56:31.96Z</time></trkpt><trkpt lat="30.103914821488086" lon="-6.402156739909693"><ele>890.0</ele><time>2026-03-23T08:56:32.96Z</time></trkpt><trkpt lat="30.10396280941564" lon="-6.4020630590184675"><ele>890.0</ele><time>2026-03-23T08:56:33.96Z</time></trkpt><trkpt lat="30.10401290859961" lon="-6.401975309814165"><ele>890.0</ele><time>2026-03-23T08:56:34.96Z</time></trkpt><trkpt lat="30.10406877052116" lon="-6.401881546795163"><ele>891.0</ele><time>2026-03-23T08:56:35.96Z</time></trkpt><trkpt lat="30.104113307263326" lon="-6.401771948630593"><ele>892.0</ele><time>2026-03-23T08:56:36.96Z</time></trkpt><trkpt lat="30.10416405221179" lon="-6.401642822910625"><ele>893.0</ele><time>2026-03-23T08:56:37.96Z</time></trkpt><trkpt lat="30.10422180745579" lon="-6.401514999466672"><ele>894.0</ele><time>2026-03-23T08:56:38.96Z</time></trkpt><trkpt lat="30.104287833455885" lon="-6.401400381051809"><ele>894.0</ele><time>2026-03-23T08:56:39.96Z</time></trkpt><trkpt lat="30.10435816700177" lon="-6.401296383703152"><ele>894.0</ele><time>2026-03-23T08:56:40.96Z</time></trkpt><trkpt lat="30.10444114394748" lon="-6.401169673156978"><ele>894.0</ele><time>2026-03-23T08:56:41.96Z</time></trkpt><trkpt lat="30.104512332240382" lon="-6.401048780068484"><ele>894.0</ele><time>2026-03-23T08:56:42.96Z</time></trkpt><trkpt lat="30.10458492154242" lon="-6.400928013429599"><ele>894.0</ele><time>2026-03-23T08:56:43.96Z</time></trkpt><trkpt lat="30.104646723767516" lon="-6.400807531539593"><ele>894.0000000000001</ele><time>2026-03-23T08:56:44.96Z</time></trkpt><trkpt lat="30.10470994246228" lon="-6.400685667882083"><ele>894.0000000000001</ele><time>2026-03-23T08:56:45.96Z</time></trkpt><trkpt lat="30.10476037271275" lon="-6.4005722117172"><ele>894.0</ele><time>2026-03-23T08:56:46.96Z</time></trkpt><trkpt lat="30.104792739713062" lon="-6.400471692908773"><ele>894.0</ele><time>2026-03-23T08:56:47.96Z</time></trkpt><trkpt lat="30.10481457301977" lon="-6.40036900907931"><ele>893.2</ele><time>2026-03-23T08:56:48.96Z</time></trkpt><trkpt lat="30.10483458446389" lon="-6.400249857340056"><ele>892.4000000000001</ele><time>2026-03-23T08:56:49.96Z</time></trkpt><trkpt lat="30.10485123125048" lon="-6.400132050401975"><ele>891.6</ele><time>2026-03-23T08:56:50.96Z</time></trkpt><trkpt lat="30.10486907467725" lon="-6.400014973002747"><ele>890.8</ele><time>2026-03-23T08:56:51.96Z</time></trkpt><trkpt lat="30.104883462399606" lon="-6.399891147353137"><ele>890.0</ele><time>2026-03-23T08:56:52.96Z</time></trkpt><trkpt lat="30.10491734496464" lon="-6.3997529275614"><ele>889.0</ele><time>2026-03-23T08:56:53.96Z</time></trkpt><trkpt lat="30.104965666350154" lon="-6.39962234764523"><ele>888.0</ele><time>2026-03-23T08:56:54.959Z</time></trkpt><trkpt lat="30.105002350190723" lon="-6.399502296827319"><ele>887.0</ele><time>2026-03-23T08:56:55.959Z</time></trkpt><trkpt lat="30.105031575687406" lon="-6.399378279822008"><ele>886.0</ele><time>2026-03-23T08:56:56.96Z</time></trkpt><trkpt lat="30.105065230912537" lon="-6.399243656250144"><ele>886.0</ele><time>2026-03-23T08:56:57.959Z</time></trkpt><trkpt lat="30.105095919105597" lon="-6.399109137492155"><ele>886.0</ele><time>2026-03-23T08:56:58.959Z</time></trkpt><trkpt lat="30.105125210592142" lon="-6.398976196287049"><ele>886.0</ele><time>2026-03-23T08:56:59.96Z</time></trkpt><trkpt lat="30.105157864617947" lon="-6.398839566261921"><ele>886.0</ele><time>2026-03-23T08:57:00.959Z</time></trkpt><trkpt lat="30.105197884497684" lon="-6.3987075386543175"><ele>886.75</ele><time>2026-03-23T08:57:01.959Z</time></trkpt><trkpt lat="30.105248974808056" lon="-6.398583030318221"><ele>887.5</ele><time>2026-03-23T08:57:02.96Z</time></trkpt><trkpt lat="30.10530775987005" lon="-6.398465712982978"><ele>888.25</ele><time>2026-03-23T08:57:03.959Z</time></trkpt><trkpt lat="30.10537008126603" lon="-6.398346627268654"><ele>889.0</ele><time>2026-03-23T08:57:04.959Z</time></trkpt><trkpt lat="30.10544373430053" lon="-6.398218000849531"><ele>889.0</ele><time>2026-03-23T08:57:05.959Z</time></trkpt><trkpt lat="30.105518309203518" lon="-6.398093656383308"><ele>889.0</ele><time>2026-03-23T08:57:06.959Z</time></trkpt><trkpt lat="30.105600921310852" lon="-6.397955530578189"><ele>889.0</ele><time>2026-03-23T08:57:07.959Z</time></trkpt><trkpt lat="30.105687901466514" lon="-6.397810760374972"><ele>889.0</ele><time>2026-03-23T08:57:08.959Z</time></trkpt><trkpt lat="30.105774005445706" lon="-6.397673307402184"><ele>889.75</ele><time>2026-03-23T08:57:09.959Z</time></trkpt><trkpt lat="30.10584200970152" lon="-6.3975468652943395"><ele>890.5</ele><time>2026-03-23T08:57:10.959Z</time></trkpt><trkpt lat="30.10590062352176" lon="-6.397426172841616"><ele>891.25</ele><time>2026-03-23T08:57:11.959Z</time></trkpt><trkpt lat="30.10595169155475" lon="-6.397310753698595"><ele>892.0</ele><time>2026-03-23T08:57:12.959Z</time></trkpt><trkpt lat="30.1059932681972" lon="-6.397205948893103"><ele>892.1666666666666</ele><time>2026-03-23T08:57:13.959Z</time></trkpt><trkpt lat="30.106044600604495" lon="-6.39711101977052"><ele>892.3333333333333</ele><time>2026-03-23T08:57:14.959Z</time></trkpt><trkpt lat="30.106095757571186" lon="-6.397022778042076"><ele>892.5</ele><time>2026-03-23T08:57:15.959Z</time></trkpt><trkpt lat="30.106147565757077" lon="-6.39694495466492"><ele>892.6666666666667</ele><time>2026-03-23T08:57:16.959Z</time></trkpt><trkpt lat="30.10619323895641" lon="-6.396866533792779"><ele>892.8333333333334</ele><time>2026-03-23T08:57:17.959Z</time></trkpt><trkpt lat="30.106243218695774" lon="-6.396779177551023"><ele>893.0</ele><time>2026-03-23T08:57:18.959Z</time></trkpt><trkpt lat="30.10628520311677" lon="-6.396686403737817"><ele>893.0</ele><time>2026-03-23T08:57:19.959Z</time></trkpt><trkpt lat="30.1063388442948" lon="-6.396591747125517"><ele>893.0</ele><time>2026-03-23T08:57:20.959Z</time></trkpt><trkpt lat="30.106404102293677" lon="-6.396489299383082"><ele>893.0</ele><time>2026-03-23T08:57:21.959Z</time></trkpt><trkpt lat="30.106470586647863" lon="-6.396401265792332"><ele>893.0</ele><time>2026-03-23T08:57:22.959Z</time></trkpt><trkpt lat="30.10652293260646" lon="-6.396294402072328"><ele>893.0</ele><time>2026-03-23T08:57:23.959Z</time></trkpt><trkpt lat="30.106573594228575" lon="-6.396167079542619"><ele>892.5</ele><time>2026-03-23T08:57:24.959Z</time></trkpt><trkpt lat="30.106621532494025" lon="-6.396039363062669"><ele>892.0</ele><time>2026-03-23T08:57:25.959Z</time></trkpt><trkpt lat="30.10668525764068" lon="-6.395918272970024"><ele>891.5</ele><time>2026-03-23T08:57:26.959Z</time></trkpt><trkpt lat="30.10674214505741" lon="-6.395808018501448"><ele>891.0</ele><time>2026-03-23T08:57:27.959Z</time></trkpt><trkpt lat="30.106807310821747" lon="-6.395696676560447"><ele>891.0</ele><time>2026-03-23T08:57:28.959Z</time></trkpt><trkpt lat="30.10686328891831" lon="-6.395596752069396"><ele>890.9999999999999</ele><time>2026-03-23T08:57:29.959Z</time></trkpt><trkpt lat="30.106925305213903" lon="-6.39548628725612"><ele>890.9999999999999</ele><time>2026-03-23T08:57:30.959Z</time></trkpt><trkpt lat="30.106979647706908" lon="-6.3953769415404285"><ele>891.0</ele><time>2026-03-23T08:57:31.959Z</time></trkpt><trkpt lat="30.107037177670236" lon="-6.39527578072963"><ele>891.0</ele><time>2026-03-23T08:57:32.959Z</time></trkpt><trkpt lat="30.10709256380265" lon="-6.395170764101882"><ele>891.1999999999999</ele><time>2026-03-23T08:57:33.959Z</time></trkpt><trkpt lat="30.1071469539183" lon="-6.395081638887809"><ele>891.3999999999999</ele><time>2026-03-23T08:57:34.959Z</time></trkpt><trkpt lat="30.107198902358093" lon="-6.3949963324235455"><ele>891.6</ele><time>2026-03-23T08:57:35.959Z</time></trkpt><trkpt lat="30.107253607062447" lon="-6.394899603774308"><ele>891.8</ele><time>2026-03-23T08:57:36.959Z</time></trkpt><trkpt lat="30.107314793206793" lon="-6.394804687390856"><ele>892.0</ele><time>2026-03-23T08:57:37.959Z</time></trkpt><trkpt lat="30.107372656705326" lon="-6.394695187425367"><ele>892.0</ele><time>2026-03-23T08:57:38.959Z</time></trkpt><trkpt lat="30.10744155708393" lon="-6.394599723559868"><ele>892.0</ele><time>2026-03-23T08:57:39.959Z</time></trkpt><trkpt lat="30.10750154406952" lon="-6.394514666107956"><ele>892.0</ele><time>2026-03-23T08:57:40.959Z</time></trkpt><trkpt lat="30.107565965022637" lon="-6.394430399936718"><ele>892.0</ele><time>2026-03-23T08:57:41.959Z</time></trkpt><trkpt lat="30.107637436415555" lon="-6.394345634325188"><ele>892.0</ele><time>2026-03-23T08:57:42.959Z</time></trkpt><trkpt lat="30.107711431722517" lon="-6.394237276361009"><ele>892.0</ele><time>2026-03-23T08:57:43.959Z</time></trkpt><trkpt lat="30.107781283281263" lon="-6.394131739974933"><ele>892.0</ele><time>2026-03-23T08:57:44.959Z</time></trkpt><trkpt lat="30.107844638735436" lon="-6.394036516903455"><ele>892.0</ele><time>2026-03-23T08:57:45.959Z</time></trkpt><trkpt lat="30.107915102921442" lon="-6.39393428578079"><ele>892.0</ele><time>2026-03-23T08:57:46.959Z</time></trkpt><trkpt lat="30.10798323637512" lon="-6.393829724424132"><ele>892.0</ele><time>2026-03-23T08:57:47.959Z</time></trkpt><trkpt lat="30.108038681141434" lon="-6.3937396893293625"><ele>892.2</ele><time>2026-03-23T08:57:48.959Z</time></trkpt><trkpt lat="30.108095005438116" lon="-6.393652356614653"><ele>892.4000000000001</ele><time>2026-03-23T08:57:49.959Z</time></trkpt><trkpt lat="30.108151959942134" lon="-6.393577191237482"><ele>892.5999999999999</ele><time>2026-03-23T08:57:50.959Z</time></trkpt><trkpt lat="30.10821964311676" lon="-6.3934978899212815"><ele>892.8</ele><time>2026-03-23T08:57:51.959Z</time></trkpt><trkpt lat="30.108277331864237" lon="-6.393407221432314"><ele>893.0</ele><time>2026-03-23T08:57:52.959Z</time></trkpt><trkpt lat="30.108337824295802" lon="-6.393306189200223"><ele>893.2</ele><time>2026-03-23T08:57:53.959Z</time></trkpt><trkpt lat="30.108399726770855" lon="-6.393203429036219"><ele>893.4</ele><time>2026-03-23T08:57:54.959Z</time></trkpt><trkpt lat="30.108454886187744" lon="-6.393089323823492"><ele>893.6000000000001</ele><time>2026-03-23T08:57:55.959Z</time></trkpt><trkpt lat="30.108510305511444" lon="-6.392979668291286"><ele>893.8000000000001</ele><time>2026-03-23T08:57:56.959Z</time></trkpt><trkpt lat="30.108567206295476" lon="-6.392878186263519"><ele>894.0</ele><time>2026-03-23T08:57:57.959Z</time></trkpt><trkpt lat="30.108625345482483" lon="-6.392782348411484"><ele>894.0</ele><time>2026-03-23T08:57:58.959Z</time></trkpt><trkpt lat="30.108690621236033" lon="-6.3926886921220865"><ele>894.0000000000001</ele><time>2026-03-23T08:57:59.959Z</time></trkpt><trkpt lat="30.108759370858785" lon="-6.392598083757488"><ele>894.0000000000001</ele><time>2026-03-23T08:58:00.959Z</time></trkpt><trkpt lat="30.108823041568368" lon="-6.392496728046788"><ele>894.0</ele><time>2026-03-23T08:58:01.959Z</time></trkpt><trkpt lat="30.108865062620414" lon="-6.392396794020332"><ele>894.0</ele><time>2026-03-23T08:58:02.958Z</time></trkpt><trkpt lat="30.108926859769902" lon="-6.392299000791148"><ele>894.0</ele><time>2026-03-23T08:58:03.958Z</time></trkpt><trkpt lat="30.108991485606925" lon="-6.3921928291885015"><ele>894.0</ele><time>2026-03-23T08:58:04.958Z</time></trkpt><trkpt lat="30.109055736890564" lon="-6.392074597962153"><ele>894.0</ele><time>2026-03-23T08:58:05.958Z</time></trkpt><trkpt lat="30.10911143547396" lon="-6.391956231363656"><ele>894.0</ele><time>2026-03-23T08:58:06.958Z</time></trkpt><trkpt lat="30.10916179617553" lon="-6.391842211987811"><ele>893.25</ele><time>2026-03-23T08:58:07.958Z</time></trkpt><trkpt lat="30.10920558115235" lon="-6.391706839100021"><ele>892.5</ele><time>2026-03-23T08:58:08.958Z</time></trkpt><trkpt lat="30.10924860988657" lon="-6.391564538540718"><ele>891.75</ele><time>2026-03-23T08:58:09.958Z</time></trkpt><trkpt lat="30.109291450738407" lon="-6.3914339270072675"><ele>891.0</ele><time>2026-03-23T08:58:10.958Z</time></trkpt><trkpt lat="30.109334003014666" lon="-6.391315398611787"><ele>890.5999999999999</ele><time>2026-03-23T08:58:11.958Z</time></trkpt><trkpt lat="30.109370405421004" lon="-6.391201658157777"><ele>890.1999999999999</ele><time>2026-03-23T08:58:12.958Z</time></trkpt><trkpt lat="30.109405257758446" lon="-6.391091444062832"><ele>889.8000000000001</ele><time>2026-03-23T08:58:13.958Z</time></trkpt><trkpt lat="30.109455822520285" lon="-6.390989494238792"><ele>889.4000000000001</ele><time>2026-03-23T08:58:14.958Z</time></trkpt><trkpt lat="30.109508515939204" lon="-6.3908864499420535"><ele>889.0</ele><time>2026-03-23T08:58:15.958Z</time></trkpt><trkpt lat="30.109556281572555" lon="-6.390780773816621"><ele>889.0</ele><time>2026-03-23T08:58:16.958Z</time></trkpt><trkpt lat="30.109607519205262" lon="-6.390666693945305"><ele>889.0000000000001</ele><time>2026-03-23T08:58:17.958Z</time></trkpt><trkpt lat="30.10965686277385" lon="-6.39056061224844"><ele>889.0000000000001</ele><time>2026-03-23T08:58:18.958Z</time></trkpt><trkpt lat="30.109707966549724" lon="-6.390449664254564"><ele>889.0</ele><time>2026-03-23T08:58:19.958Z</time></trkpt><trkpt lat="30.109761268308674" lon="-6.390339041207284"><ele>889.0</ele><time>2026-03-23T08:58:20.958Z</time></trkpt><trkpt lat="30.109816675295708" lon="-6.390218102523952"><ele>890.0</ele><time>2026-03-23T08:58:21.958Z</time></trkpt><trkpt lat="30.10987032318597" lon="-6.390102818263124"><ele>891.0</ele><time>2026-03-23T08:58:22.958Z</time></trkpt><trkpt lat="30.10992285218108" lon="-6.389984422906944"><ele>892.0</ele><time>2026-03-23T08:58:23.958Z</time></trkpt><trkpt lat="30.109985442796606" lon="-6.3898462172996"><ele>893.0</ele><time>2026-03-23T08:58:24.958Z</time></trkpt><trkpt lat="30.110065794539562" lon="-6.389691136652377"><ele>893.25</ele><time>2026-03-23T08:58:25.958Z</time></trkpt><trkpt lat="30.11014350535354" lon="-6.389519454490753"><ele>893.5</ele><time>2026-03-23T08:58:26.958Z</time></trkpt><trkpt lat="30.11022371885392" lon="-6.389371105924678"><ele>893.75</ele><time>2026-03-23T08:58:27.958Z</time></trkpt><trkpt lat="30.11028706145557" lon="-6.389247989815106"><ele>894.0</ele><time>2026-03-23T08:58:28.958Z</time></trkpt><trkpt lat="30.110347883590745" lon="-6.389130033669206"><ele>894.0</ele><time>2026-03-23T08:58:29.958Z</time></trkpt><trkpt lat="30.110408437182297" lon="-6.38902747887385"><ele>894.0</ele><time>2026-03-23T08:58:30.958Z</time></trkpt><trkpt lat="30.110458399429593" lon="-6.388911738383956"><ele>894.0</ele><time>2026-03-23T08:58:31.958Z</time></trkpt><trkpt lat="30.11051700402269" lon="-6.388791890067897"><ele>894.0</ele><time>2026-03-23T08:58:32.958Z</time></trkpt><trkpt lat="30.110584449823257" lon="-6.3886737585566395"><ele>894.5</ele><time>2026-03-23T08:58:33.958Z</time></trkpt><trkpt lat="30.11065706774327" lon="-6.3885593392335664"><ele>895.0</ele><time>2026-03-23T08:58:34.958Z</time></trkpt><trkpt lat="30.110731375202395" lon="-6.388448810335083"><ele>895.5</ele><time>2026-03-23T08:58:35.958Z</time></trkpt><trkpt lat="30.11080723771252" lon="-6.388336850396299"><ele>896.0</ele><time>2026-03-23T08:58:36.958Z</time></trkpt><trkpt lat="30.11088086786655" lon="-6.38822134812689"><ele>896.0</ele><time>2026-03-23T08:58:37.958Z</time></trkpt><trkpt lat="30.110953572283925" lon="-6.388104775098244"><ele>896.0</ele><time>2026-03-23T08:58:38.958Z</time></trkpt><trkpt lat="30.11101406835918" lon="-6.387986956179929"><ele>896.0</ele><time>2026-03-23T08:58:39.958Z</time></trkpt><trkpt lat="30.111073901338916" lon="-6.387864306063194"><ele>896.0</ele><time>2026-03-23T08:58:40.958Z</time></trkpt><trkpt lat="30.11114543591943" lon="-6.387752223919103"><ele>895.5999999999999</ele><time>2026-03-23T08:58:41.958Z</time></trkpt><trkpt lat="30.111212525403698" lon="-6.387648573877006"><ele>895.1999999999999</ele><time>2026-03-23T08:58:42.958Z</time></trkpt><trkpt lat="30.1112703916848" lon="-6.387544525846284"><ele>894.8000000000001</ele><time>2026-03-23T08:58:43.958Z</time></trkpt><trkpt lat="30.1113181557714" lon="-6.387447078718416"><ele>894.4000000000001</ele><time>2026-03-23T08:58:44.958Z</time></trkpt><trkpt lat="30.111373507687016" lon="-6.387362822375958"><ele>894.0</ele><time>2026-03-23T08:58:45.958Z</time></trkpt><trkpt lat="30.111419571972988" lon="-6.387278960107814"><ele>894.0</ele><time>2026-03-23T08:58:46.958Z</time></trkpt><trkpt lat="30.11147694644106" lon="-6.387194866466027"><ele>894.0000000000001</ele><time>2026-03-23T08:58:47.958Z</time></trkpt><trkpt lat="30.111535269649377" lon="-6.3871150219128126"><ele>894.0000000000001</ele><time>2026-03-23T08:58:48.958Z</time></trkpt><trkpt lat="30.111599651142154" lon="-6.387038493588604"><ele>894.0</ele><time>2026-03-23T08:58:49.958Z</time></trkpt><trkpt lat="30.111663873903087" lon="-6.386953730383635"><ele>894.0</ele><time>2026-03-23T08:58:50.958Z</time></trkpt><trkpt lat="30.11173184607777" lon="-6.3868683805540885"><ele>893.8000000000001</ele><time>2026-03-23T08:58:51.958Z</time></trkpt><trkpt lat="30.111797240628544" lon="-6.386781193287819"><ele>893.6000000000001</ele><time>2026-03-23T08:58:52.958Z</time></trkpt><trkpt lat="30.11186431054314" lon="-6.386704225919993"><ele>893.4</ele><time>2026-03-23T08:58:53.958Z</time></trkpt><trkpt lat="30.11193538457403" lon="-6.386623950845637"><ele>893.2</ele><time>2026-03-23T08:58:54.958Z</time></trkpt><trkpt lat="30.11200614652293" lon="-6.38654672084768"><ele>893.0</ele><time>2026-03-23T08:58:55.958Z</time></trkpt><trkpt lat="30.11206422275209" lon="-6.386460104910827"><ele>893.0000000000001</ele><time>2026-03-23T08:58:56.958Z</time></trkpt><trkpt lat="30.11211484342473" lon="-6.386388224830946"><ele>893.0</ele><time>2026-03-23T08:58:57.958Z</time></trkpt><trkpt lat="30.112170186496172" lon="-6.386318348766456"><ele>893.0</ele><time>2026-03-23T08:58:58.958Z</time></trkpt><trkpt lat="30.112229711224252" lon="-6.386237076613053"><ele>893.0</ele><time>2026-03-23T08:58:59.959Z</time></trkpt><trkpt lat="30.112292128792678" lon="-6.386169616414401"><ele>893.0000000000001</ele><time>2026-03-23T08:59:00.959Z</time></trkpt><trkpt lat="30.11233821085669" lon="-6.386119949072243"><ele>893.0</ele><time>2026-03-23T08:59:01.959Z</time></trkpt><trkpt lat="30.112399451187468" lon="-6.386029036744127"><ele>893.5000000000001</ele><time>2026-03-23T08:59:03.959Z</time></trkpt><trkpt lat="30.112459373171795" lon="-6.3859726323023995"><ele>894.0</ele><time>2026-03-23T08:59:05.959Z</time></trkpt><trkpt lat="30.11253376131105" lon="-6.385977913182957"><ele>894.5</ele><time>2026-03-23T08:59:08.959Z</time></trkpt><trkpt lat="30.112612276995137" lon="-6.386007985904288"><ele>895.0</ele><time>2026-03-23T09:01:45.958Z</time></trkpt><trkpt lat="30.112677581587754" lon="-6.386001684831889"><ele>895.5000000000001</ele><time>2026-03-23T09:01:46.958Z</time></trkpt><trkpt lat="30.112743569815088" lon="-6.385940286966364"><ele>896.0</ele><time>2026-03-23T09:01:47.958Z</time></trkpt><trkpt lat="30.112794683026348" lon="-6.3858301125070245"><ele>896.0</ele><time>2026-03-23T09:01:48.958Z</time></trkpt><trkpt lat="30.112832459677126" lon="-6.385678181185296"><ele>896.0</ele><time>2026-03-23T09:01:49.958Z</time></trkpt><trkpt lat="30.112875497859218" lon="-6.385522390107034"><ele>896.0</ele><time>2026-03-23T09:01:50.958Z</time></trkpt><trkpt lat="30.112964122987208" lon="-6.385351170011473"><ele>895.6666666666667</ele><time>2026-03-23T09:01:51.958Z</time></trkpt><trkpt lat="30.1130538250771" lon="-6.385175710590108"><ele>895.3333333333333</ele><time>2026-03-23T09:01:52.958Z</time></trkpt><trkpt lat="30.11313795220219" lon="-6.385007044537164"><ele>895.0</ele><time>2026-03-23T09:01:53.958Z</time></trkpt><trkpt lat="30.113234371472526" lon="-6.384846747733606"><ele>895.0</ele><time>2026-03-23T09:01:54.958Z</time></trkpt><trkpt lat="30.11334466834669" lon="-6.384678102966644"><ele>895.0</ele><time>2026-03-23T09:01:55.958Z</time></trkpt><trkpt lat="30.113445209962407" lon="-6.384518023240026"><ele>895.0</ele><time>2026-03-23T09:01:56.958Z</time></trkpt><trkpt lat="30.113532811133833" lon="-6.384397970638485"><ele>895.0</ele><time>2026-03-23T09:01:57.958Z</time></trkpt><trkpt lat="30.113621906434428" lon="-6.384309662985883"><ele>895.0</ele><time>2026-03-23T09:01:58.958Z</time></trkpt><trkpt lat="30.113719905773173" lon="-6.384218224901218"><ele>895.0</ele><time>2026-03-23T09:01:59.958Z</time></trkpt><trkpt lat="30.11381978068" lon="-6.3841507335448195"><ele>895.0</ele><time>2026-03-23T09:02:00.958Z</time></trkpt><trkpt lat="30.1139158627858" lon="-6.384075700860941"><ele>895.0</ele><time>2026-03-23T09:02:01.958Z</time></trkpt><trkpt lat="30.113992436893724" lon="-6.383985719051844"><ele>895.0</ele><time>2026-03-23T09:02:02.958Z</time></trkpt><trkpt lat="30.114058466455933" lon="-6.383873797772056"><ele>895.0</ele><time>2026-03-23T09:02:03.958Z</time></trkpt><trkpt lat="30.114115106792966" lon="-6.383760571237562"><ele>895.0</ele><time>2026-03-23T09:02:04.958Z</time></trkpt><trkpt lat="30.114165542981436" lon="-6.3836463135397"><ele>895.4</ele><time>2026-03-23T09:02:05.958Z</time></trkpt><trkpt lat="30.114224975139013" lon="-6.3835437517397375"><ele>895.8</ele><time>2026-03-23T09:02:06.958Z</time></trkpt><trkpt lat="30.114284190535862" lon="-6.383451167121543"><ele>896.2</ele><time>2026-03-23T09:02:07.958Z</time></trkpt><trkpt lat="30.114346839292963" lon="-6.383360790604222"><ele>896.6</ele><time>2026-03-23T09:02:08.958Z</time></trkpt><trkpt lat="30.114397860184187" lon="-6.383275032192879"><ele>897.0</ele><time>2026-03-23T09:02:09.958Z</time></trkpt><trkpt lat="30.11444056948947" lon="-6.383193474440956"><ele>897.0</ele><time>2026-03-23T09:02:10.958Z</time></trkpt><trkpt lat="30.11447854771831" lon="-6.383109360925827"><ele>897.0</ele><time>2026-03-23T09:02:11.958Z</time></trkpt><trkpt lat="30.114519316505582" lon="-6.38302454274487"><ele>897.0</ele><time>2026-03-23T09:02:12.958Z</time></trkpt><trkpt lat="30.11456321551207" lon="-6.382941263219499"><ele>897.0</ele><time>2026-03-23T09:02:13.958Z</time></trkpt><trkpt lat="30.114597740874558" lon="-6.382873285672708"><ele>897.0</ele><time>2026-03-23T09:02:14.958Z</time></trkpt><trkpt lat="30.114633335945513" lon="-6.382804197466106"><ele>897.0</ele><time>2026-03-23T09:02:15.958Z</time></trkpt><trkpt lat="30.11467142147028" lon="-6.382731991683312"><ele>896.8333333333334</ele><time>2026-03-23T09:02:16.958Z</time></trkpt><trkpt lat="30.114703075264124" lon="-6.382649113361634"><ele>896.6666666666667</ele><time>2026-03-23T09:02:17.958Z</time></trkpt><trkpt lat="30.114747136733452" lon="-6.382553250368731"><ele>896.5</ele><time>2026-03-23T09:02:18.958Z</time></trkpt><trkpt lat="30.11478080523008" lon="-6.382456806496464"><ele>896.3333333333334</ele><time>2026-03-23T09:02:19.958Z</time></trkpt><trkpt lat="30.114805463145853" lon="-6.382364288898706"><ele>896.1666666666667</ele><time>2026-03-23T09:02:20.958Z</time></trkpt><trkpt lat="30.114834885679638" lon="-6.382281692253582"><ele>896.0</ele><time>2026-03-23T09:02:21.958Z</time></trkpt><trkpt lat="30.11486694106704" lon="-6.38219445477974"><ele>896.1428571428571</ele><time>2026-03-23T09:02:22.958Z</time></trkpt><trkpt lat="30.1148971977908" lon="-6.382119275026846"><ele>896.2857142857142</ele><time>2026-03-23T09:02:23.958Z</time></trkpt><trkpt lat="30.114923976736033" lon="-6.382037528603632"><ele>896.4285714285714</ele><time>2026-03-23T09:02:24.958Z</time></trkpt><trkpt lat="30.114942068954964" lon="-6.38195073313525"><ele>896.5714285714286</ele><time>2026-03-23T09:02:25.958Z</time></trkpt><trkpt lat="30.114943726027253" lon="-6.381868689187927"><ele>896.7142857142857</ele><time>2026-03-23T09:02:26.958Z</time></trkpt><trkpt lat="30.11495751690654" lon="-6.381783342914916"><ele>896.8571428571429</ele><time>2026-03-23T09:02:27.958Z</time></trkpt><trkpt lat="30.11497252441068" lon="-6.381695328071365"><ele>897.0</ele><time>2026-03-23T09:02:28.958Z</time></trkpt><trkpt lat="30.114993969168783" lon="-6.381593927734881"><ele>897.0</ele><time>2026-03-23T09:02:29.958Z</time></trkpt><trkpt lat="30.115024506538195" lon="-6.3814666716552475"><ele>897.0</ele><time>2026-03-23T09:02:30.958Z</time></trkpt><trkpt lat="30.115051698937936" lon="-6.381330527312409"><ele>897.0</ele><time>2026-03-23T09:02:31.958Z</time></trkpt><trkpt lat="30.115076989419595" lon="-6.381202851028047"><ele>897.0</ele><time>2026-03-23T09:02:32.957Z</time></trkpt><trkpt lat="30.11510177499234" lon="-6.381080992663804"><ele>896.8333333333334</ele><time>2026-03-23T09:02:33.957Z</time></trkpt><trkpt lat="30.11512559875415" lon="-6.380975508171306"><ele>896.6666666666667</ele><time>2026-03-23T09:02:34.957Z</time></trkpt><trkpt lat="30.115152246774958" lon="-6.380881303471708"><ele>896.5</ele><time>2026-03-23T09:02:35.957Z</time></trkpt><trkpt lat="30.11517536590432" lon="-6.3808003423098425"><ele>896.3333333333334</ele><time>2026-03-23T09:02:36.957Z</time></trkpt><trkpt lat="30.115193680894702" lon="-6.38072041486545"><ele>896.1666666666667</ele><time>2026-03-23T09:02:37.957Z</time></trkpt><trkpt lat="30.115211516063123" lon="-6.38064575463897"><ele>896.0</ele><time>2026-03-23T09:02:38.957Z</time></trkpt><trkpt lat="30.115232095975436" lon="-6.380567713371191"><ele>896.0000000000001</ele><time>2026-03-23T09:02:39.957Z</time></trkpt><trkpt lat="30.115242871854743" lon="-6.380484688043191"><ele>896.0</ele><time>2026-03-23T09:02:40.957Z</time></trkpt><trkpt lat="30.11525115099716" lon="-6.38039915098286"><ele>896.0</ele><time>2026-03-23T09:02:41.957Z</time></trkpt><trkpt lat="30.11526169301591" lon="-6.380316568913143"><ele>896.0</ele><time>2026-03-23T09:02:42.957Z</time></trkpt><trkpt lat="30.11526687058114" lon="-6.380220780825396"><ele>896.0000000000001</ele><time>2026-03-23T09:02:43.957Z</time></trkpt><trkpt lat="30.11527035743959" lon="-6.38012584368494"><ele>896.0</ele><time>2026-03-23T09:02:44.957Z</time></trkpt><trkpt lat="30.115274923715333" lon="-6.3799996595821815"><ele>896.0</ele><time>2026-03-23T09:02:45.957Z</time></trkpt><trkpt lat="30.11528450117884" lon="-6.3798410092913365"><ele>896.0</ele><time>2026-03-23T09:02:46.957Z</time></trkpt><trkpt lat="30.11528713688087" lon="-6.379657852429629"><ele>896.0</ele><time>2026-03-23T09:02:47.957Z</time></trkpt><trkpt lat="30.11529071636718" lon="-6.379495390116297"><ele>896.0</ele><time>2026-03-23T09:02:48.957Z</time></trkpt><trkpt lat="30.115289033981405" lon="-6.379347938669085"><ele>896.25</ele><time>2026-03-23T09:02:49.957Z</time></trkpt><trkpt lat="30.1152954393952" lon="-6.37921038769589"><ele>896.5</ele><time>2026-03-23T09:02:50.957Z</time></trkpt><trkpt lat="30.11530343809481" lon="-6.379076698076351"><ele>896.75</ele><time>2026-03-23T09:02:51.957Z</time></trkpt><trkpt lat="30.115313110202912" lon="-6.378949816337111"><ele>897.0</ele><time>2026-03-23T09:02:52.957Z</time></trkpt><trkpt lat="30.11531591455254" lon="-6.378825697784957"><ele>897.2</ele><time>2026-03-23T09:02:53.957Z</time></trkpt><trkpt lat="30.115316579813317" lon="-6.378703628389089"><ele>897.4000000000001</ele><time>2026-03-23T09:02:54.957Z</time></trkpt><trkpt lat="30.115315166941222" lon="-6.3785885758977745"><ele>897.5999999999999</ele><time>2026-03-23T09:02:55.957Z</time></trkpt><trkpt lat="30.115311451935426" lon="-6.378486725449253"><ele>897.8</ele><time>2026-03-23T09:02:56.957Z</time></trkpt><trkpt lat="30.115317526574234" lon="-6.378391459489129"><ele>898.0</ele><time>2026-03-23T09:02:57.957Z</time></trkpt><trkpt lat="30.11532964110327" lon="-6.378281340489859"><ele>898.0</ele><time>2026-03-23T09:02:58.957Z</time></trkpt><trkpt lat="30.115350089266446" lon="-6.378165381068416"><ele>898.0</ele><time>2026-03-23T09:02:59.957Z</time></trkpt><trkpt lat="30.115378143228344" lon="-6.378039661781167"><ele>898.0</ele><time>2026-03-23T09:03:00.957Z</time></trkpt><trkpt lat="30.115413350354945" lon="-6.377920810081951"><ele>898.0</ele><time>2026-03-23T09:03:01.957Z</time></trkpt><trkpt lat="30.11544278505202" lon="-6.377806847499029"><ele>898.0</ele><time>2026-03-23T09:03:02.957Z</time></trkpt><trkpt lat="30.115469915564802" lon="-6.377688562831942"><ele>897.4</ele><time>2026-03-23T09:03:03.957Z</time></trkpt><trkpt lat="30.115498298392712" lon="-6.377577978184742"><ele>896.8</ele><time>2026-03-23T09:03:04.957Z</time></trkpt><trkpt lat="30.11552829093473" lon="-6.377473214645492"><ele>896.2</ele><time>2026-03-23T09:03:05.957Z</time></trkpt><trkpt lat="30.115560455460205" lon="-6.377375923707106"><ele>895.6</ele><time>2026-03-23T09:03:06.957Z</time></trkpt><trkpt lat="30.11559143185365" lon="-6.377288732181554"><ele>895.0</ele><time>2026-03-23T09:03:07.957Z</time></trkpt><trkpt lat="30.11562238943405" lon="-6.3771983105732275"><ele>895.2</ele><time>2026-03-23T09:03:08.957Z</time></trkpt><trkpt lat="30.115646654802664" lon="-6.377090920120393"><ele>895.4</ele><time>2026-03-23T09:03:09.957Z</time></trkpt><trkpt lat="30.115669532727225" lon="-6.376958784861567"><ele>895.5999999999999</ele><time>2026-03-23T09:03:10.957Z</time></trkpt><trkpt lat="30.115700957169214" lon="-6.376830542210136"><ele>895.8</ele><time>2026-03-23T09:03:11.957Z</time></trkpt><trkpt lat="30.115742102482812" lon="-6.376709975648599"><ele>896.0</ele><time>2026-03-23T09:03:12.957Z</time></trkpt><trkpt lat="30.11578501358573" lon="-6.376603062020114"><ele>896.5</ele><time>2026-03-23T09:03:13.957Z</time></trkpt><trkpt lat="30.115836620734086" lon="-6.37649158255722"><ele>897.0</ele><time>2026-03-23T09:03:14.957Z</time></trkpt><trkpt lat="30.115905479373197" lon="-6.376364266836846"><ele>897.5</ele><time>2026-03-23T09:03:15.957Z</time></trkpt><trkpt lat="30.115994733164904" lon="-6.376211470578381"><ele>898.0</ele><time>2026-03-23T09:03:16.957Z</time></trkpt><trkpt lat="30.116076470133482" lon="-6.376079865229064"><ele>898.25</ele><time>2026-03-23T09:03:17.957Z</time></trkpt><trkpt lat="30.11616116009437" lon="-6.375962344659005"><ele>898.5</ele><time>2026-03-23T09:03:18.957Z</time></trkpt><trkpt lat="30.116249119360734" lon="-6.37585490555982"><ele>898.75</ele><time>2026-03-23T09:03:19.957Z</time></trkpt><trkpt lat="30.116329574069038" lon="-6.375755008934485"><ele>899.0</ele><time>2026-03-23T09:03:20.957Z</time></trkpt><trkpt lat="30.116405318328574" lon="-6.375653200947374"><ele>899.0</ele><time>2026-03-23T09:03:21.957Z</time></trkpt><trkpt lat="30.116472800397773" lon="-6.375562787143991"><ele>899.0</ele><time>2026-03-23T09:03:22.957Z</time></trkpt><trkpt lat="30.11654821974009" lon="-6.37547313955958"><ele>899.0</ele><time>2026-03-23T09:03:23.957Z</time></trkpt><trkpt lat="30.116631592365454" lon="-6.375363927895802"><ele>899.0</ele><time>2026-03-23T09:03:24.957Z</time></trkpt><trkpt lat="30.11671405785932" lon="-6.3752588611128544"><ele>899.25</ele><time>2026-03-23T09:03:25.957Z</time></trkpt><trkpt lat="30.116800391972603" lon="-6.3751481587881305"><ele>899.5</ele><time>2026-03-23T09:03:26.957Z</time></trkpt><trkpt lat="30.116889387234185" lon="-6.375038273979957"><ele>899.75</ele><time>2026-03-23T09:03:27.957Z</time></trkpt><trkpt lat="30.116978287234737" lon="-6.3749244665192455"><ele>900.0</ele><time>2026-03-23T09:03:28.957Z</time></trkpt><trkpt lat="30.11707043201491" lon="-6.374806631276787"><ele>900.0</ele><time>2026-03-23T09:03:29.957Z</time></trkpt><trkpt lat="30.117169807540243" lon="-6.374691834826694"><ele>900.0</ele><time>2026-03-23T09:03:30.957Z</time></trkpt><trkpt lat="30.117267388715547" lon="-6.374569406268136"><ele>900.0</ele><time>2026-03-23T09:03:31.957Z</time></trkpt><trkpt lat="30.117388726044524" lon="-6.374432742822667"><ele>899.3333333333333</ele><time>2026-03-23T09:03:32.957Z</time></trkpt><trkpt lat="30.1175206917227" lon="-6.374270228337352"><ele>898.6666666666666</ele><time>2026-03-23T09:03:33.957Z</time></trkpt><trkpt lat="30.11766526357386" lon="-6.374076375452958"><ele>898.0</ele><time>2026-03-23T09:03:34.957Z</time></trkpt><trkpt lat="30.117803167597515" lon="-6.373899862617422"><ele>898.0</ele><time>2026-03-23T09:03:35.957Z</time></trkpt><trkpt lat="30.117928801894706" lon="-6.37374084721541"><ele>898.0</ele><time>2026-03-23T09:03:36.957Z</time></trkpt><trkpt lat="30.118047482031933" lon="-6.373615875330165"><ele>898.0</ele><time>2026-03-23T09:03:37.957Z</time></trkpt><trkpt lat="30.11816410100073" lon="-6.373500765054993"><ele>898.4999999999999</ele><time>2026-03-23T09:03:38.957Z</time></trkpt><trkpt lat="30.118258385891913" lon="-6.3734174338210385"><ele>899.0</ele><time>2026-03-23T09:03:39.957Z</time></trkpt><trkpt lat="30.118318750199975" lon="-6.373353831179088"><ele>899.5</ele><time>2026-03-23T09:03:40.957Z</time></trkpt><trkpt lat="30.118369454985437" lon="-6.37330826440491"><ele>900.0</ele><time>2026-03-23T09:03:41.957Z</time></trkpt><trkpt lat="30.11842298621306" lon="-6.373254897372118"><ele>900.4999999999999</ele><time>2026-03-23T09:03:42.957Z</time></trkpt><trkpt lat="30.118481909365393" lon="-6.373202084716571"><ele>901.0</ele><time>2026-03-23T09:03:43.957Z</time></trkpt><trkpt lat="30.11854098168499" lon="-6.373156625742368"><ele>901.0</ele><time>2026-03-23T09:03:44.957Z</time></trkpt><trkpt lat="30.118603844300683" lon="-6.373116481081554"><ele>901.0000000000001</ele><time>2026-03-23T09:03:45.957Z</time></trkpt><trkpt lat="30.11866972616015" lon="-6.373086720054393"><ele>901.0</ele><time>2026-03-23T09:03:46.957Z</time></trkpt><trkpt lat="30.118733110647813" lon="-6.373076897946097"><ele>901.0</ele><time>2026-03-23T09:03:47.957Z</time></trkpt><trkpt lat="30.118805801498112" lon="-6.373081774592174"><ele>901.0000000000001</ele><time>2026-03-23T09:03:48.957Z</time></trkpt><trkpt lat="30.118876235570003" lon="-6.373094387183457"><ele>901.0</ele><time>2026-03-23T09:03:49.957Z</time></trkpt><trkpt lat="30.118944946952265" lon="-6.373123082303767"><ele>901.0</ele><time>2026-03-23T09:03:50.957Z</time></trkpt><trkpt lat="30.11901088157004" lon="-6.3731529892777"><ele>901.1666666666666</ele><time>2026-03-23T09:03:51.957Z</time></trkpt><trkpt lat="30.11908035748526" lon="-6.373175326864921"><ele>901.3333333333333</ele><time>2026-03-23T09:03:52.957Z</time></trkpt><trkpt lat="30.11915334556722" lon="-6.373212065415548"><ele>901.5</ele><time>2026-03-23T09:03:53.957Z</time></trkpt><trkpt lat="30.119239319378067" lon="-6.373259975499246"><ele>901.6666666666667</ele><time>2026-03-23T09:03:54.957Z</time></trkpt><trkpt lat="30.119331164899545" lon="-6.373294557598374"><ele>901.8333333333334</ele><time>2026-03-23T09:03:55.957Z</time></trkpt><trkpt lat="30.11941787111866" lon="-6.3732988182030725"><ele>902.0</ele><time>2026-03-23T09:03:56.957Z</time></trkpt><trkpt lat="30.11950497016432" lon="-6.373287332776297"><ele>902.0</ele><time>2026-03-23T09:03:57.957Z</time></trkpt><trkpt lat="30.119608647527688" lon="-6.3732765516755965"><ele>902.0</ele><time>2026-03-23T09:03:58.957Z</time></trkpt><trkpt lat="30.119741797096115" lon="-6.37328408525442"><ele>902.0</ele><time>2026-03-23T09:03:59.957Z</time></trkpt><trkpt lat="30.119892723611063" lon="-6.373297927679296"><ele>902.0</ele><time>2026-03-23T09:04:00.957Z</time></trkpt><trkpt lat="30.120048431721923" lon="-6.373309500326123"><ele>901.5</ele><time>2026-03-23T09:04:01.957Z</time></trkpt><trkpt lat="30.12019525310052" lon="-6.373314730799018"><ele>901.0</ele><time>2026-03-23T09:04:02.957Z</time></trkpt><trkpt lat="30.120336800747282" lon="-6.373313471659223"><ele>900.5</ele><time>2026-03-23T09:04:03.957Z</time></trkpt><trkpt lat="30.12047977339995" lon="-6.373310977156638"><ele>900.0</ele><time>2026-03-23T09:04:04.957Z</time></trkpt><trkpt lat="30.12062713107481" lon="-6.373299744732444"><ele>900.6666666666667</ele><time>2026-03-23T09:04:05.957Z</time></trkpt><trkpt lat="30.12078182834782" lon="-6.3732938074152"><ele>901.3333333333334</ele><time>2026-03-23T09:04:06.957Z</time></trkpt><trkpt lat="30.120951191850178" lon="-6.373288946021514"><ele>902.0</ele><time>2026-03-23T09:04:07.957Z</time></trkpt><trkpt lat="30.121150848867813" lon="-6.373287234050046"><ele>902.0</ele><time>2026-03-23T09:04:08.957Z</time></trkpt><trkpt lat="30.121336526757936" lon="-6.3732966344928075"><ele>902.0</ele><time>2026-03-23T09:04:09.957Z</time></trkpt><trkpt lat="30.12150553925318" lon="-6.373310658813194"><ele>902.0</ele><time>2026-03-23T09:04:10.957Z</time></trkpt><trkpt lat="30.12165213201103" lon="-6.373327830800182"><ele>902.0</ele><time>2026-03-23T09:04:11.957Z</time></trkpt><trkpt lat="30.12178599553527" lon="-6.373345543845805"><ele>902.0</ele><time>2026-03-23T09:04:12.957Z</time></trkpt><trkpt lat="30.12191618312746" lon="-6.373355829031918"><ele>902.0</ele><time>2026-03-23T09:04:13.957Z</time></trkpt><trkpt lat="30.122038986024222" lon="-6.3733690520440005"><ele>902.0</ele><time>2026-03-23T09:04:14.957Z</time></trkpt><trkpt lat="30.122149341135234" lon="-6.37337749173498"><ele>902.0</ele><time>2026-03-23T09:04:15.957Z</time></trkpt><trkpt lat="30.122256926159967" lon="-6.373365060715564"><ele>902.0</ele><time>2026-03-23T09:04:16.957Z</time></trkpt><trkpt lat="30.122367112893627" lon="-6.373325533544486"><ele>902.0</ele><time>2026-03-23T09:04:17.957Z</time></trkpt><trkpt lat="30.12248754362062" lon="-6.3732584097840315"><ele>902.0</ele><time>2026-03-23T09:04:18.957Z</time></trkpt><trkpt lat="30.122636289051858" lon="-6.373194336579441"><ele>902.5</ele><time>2026-03-23T09:04:19.957Z</time></trkpt><trkpt lat="30.122794865224485" lon="-6.373132758131228"><ele>903.0</ele><time>2026-03-23T09:04:20.957Z</time></trkpt><trkpt lat="30.12293359088765" lon="-6.37308724697508"><ele>903.5</ele><time>2026-03-23T09:04:21.957Z</time></trkpt><trkpt lat="30.123062078040405" lon="-6.373049567316752"><ele>904.0</ele><time>2026-03-23T09:04:22.957Z</time></trkpt><trkpt lat="30.123185290199917" lon="-6.373010553596167"><ele>903.8000000000001</ele><time>2026-03-23T09:04:23.957Z</time></trkpt><trkpt lat="30.123305705301632" lon="-6.372974802781377"><ele>903.6000000000001</ele><time>2026-03-23T09:04:24.956Z</time></trkpt><trkpt lat="30.123416304009336" lon="-6.372946780214741"><ele>903.4</ele><time>2026-03-23T09:04:25.956Z</time></trkpt><trkpt lat="30.123521428818567" lon="-6.372928499168864"><ele>903.2</ele><time>2026-03-23T09:04:26.956Z</time></trkpt><trkpt lat="30.123620107918043" lon="-6.372918601456615"><ele>903.0</ele><time>2026-03-23T09:04:27.956Z</time></trkpt><trkpt lat="30.12372253039645" lon="-6.372932897485257"><ele>903.0</ele><time>2026-03-23T09:04:28.956Z</time></trkpt><trkpt lat="30.123833491776494" lon="-6.3729542752542505"><ele>903.0</ele><time>2026-03-23T09:04:29.956Z</time></trkpt><trkpt lat="30.12396228876139" lon="-6.3729605152246585"><ele>903.0</ele><time>2026-03-23T09:04:30.956Z</time></trkpt><trkpt lat="30.12409073274667" lon="-6.372966952375804"><ele>903.0</ele><time>2026-03-23T09:04:31.956Z</time></trkpt><trkpt lat="30.12421666933393" lon="-6.372974574475894"><ele>903.25</ele><time>2026-03-23T09:04:32.956Z</time></trkpt><trkpt lat="30.1243361932394" lon="-6.372988005510424"><ele>903.5</ele><time>2026-03-23T09:04:33.956Z</time></trkpt><trkpt lat="30.124455911039416" lon="-6.3729943965651215"><ele>903.75</ele><time>2026-03-23T09:04:34.956Z</time></trkpt><trkpt lat="30.124576923837658" lon="-6.373009817986976"><ele>904.0</ele><time>2026-03-23T09:04:35.956Z</time></trkpt><trkpt lat="30.124693738801223" lon="-6.37303204240704"><ele>904.0</ele><time>2026-03-23T09:04:36.956Z</time></trkpt><trkpt lat="30.12481089602151" lon="-6.373054894587014"><ele>904.0000000000001</ele><time>2026-03-23T09:04:37.956Z</time></trkpt><trkpt lat="30.124921374333923" lon="-6.3730746318611455"><ele>904.0000000000001</ele><time>2026-03-23T09:04:38.956Z</time></trkpt><trkpt lat="30.125029653782477" lon="-6.3730955466473285"><ele>904.0</ele><time>2026-03-23T09:04:39.956Z</time></trkpt><trkpt lat="30.125136236641104" lon="-6.373111375277506"><ele>904.0</ele><time>2026-03-23T09:04:40.956Z</time></trkpt><trkpt lat="30.12525256824368" lon="-6.3731155877343575"><ele>904.25</ele><time>2026-03-23T09:04:41.956Z</time></trkpt><trkpt lat="30.125385343552765" lon="-6.37311858374516"><ele>904.5</ele><time>2026-03-23T09:04:42.956Z</time></trkpt><trkpt lat="30.12552334365267" lon="-6.37311828798202"><ele>904.75</ele><time>2026-03-23T09:04:43.956Z</time></trkpt><trkpt lat="30.125645233931014" lon="-6.373116896843198"><ele>905.0</ele><time>2026-03-23T09:04:44.956Z</time></trkpt><trkpt lat="30.125766139446398" lon="-6.373118138261515"><ele>905.0</ele><time>2026-03-23T09:04:45.956Z</time></trkpt><trkpt lat="30.125875273004826" lon="-6.373103539687205"><ele>905.0</ele><time>2026-03-23T09:04:46.956Z</time></trkpt><trkpt lat="30.12597592784268" lon="-6.37309567899632"><ele>905.0</ele><time>2026-03-23T09:04:47.956Z</time></trkpt><trkpt lat="30.12607663832101" lon="-6.373069635208958"><ele>905.0</ele><time>2026-03-23T09:04:48.956Z</time></trkpt><trkpt lat="30.126169968828133" lon="-6.373047800487317"><ele>905.0</ele><time>2026-03-23T09:04:49.956Z</time></trkpt><trkpt lat="30.12627963063922" lon="-6.3730251460625125"><ele>905.4</ele><time>2026-03-23T09:04:50.956Z</time></trkpt><trkpt lat="30.12638643642642" lon="-6.373021034797256"><ele>905.8</ele><time>2026-03-23T09:04:51.956Z</time></trkpt><trkpt lat="30.126491304845533" lon="-6.373013253414129"><ele>906.2</ele><time>2026-03-23T09:04:52.956Z</time></trkpt><trkpt lat="30.126596198824473" lon="-6.372996350860205"><ele>906.6</ele><time>2026-03-23T09:04:53.956Z</time></trkpt><trkpt lat="30.126700052778336" lon="-6.372977858904922"><ele>907.0</ele><time>2026-03-23T09:04:54.956Z</time></trkpt><trkpt lat="30.126811641693735" lon="-6.372962644658874"><ele>907.25</ele><time>2026-03-23T09:04:55.956Z</time></trkpt><trkpt lat="30.12692291481942" lon="-6.372944354997507"><ele>907.5</ele><time>2026-03-23T09:04:56.956Z</time></trkpt><trkpt lat="30.127037708145973" lon="-6.372923176008141"><ele>907.75</ele><time>2026-03-23T09:04:57.956Z</time></trkpt><trkpt lat="30.12715730485716" lon="-6.372899249512733"><ele>908.0</ele><time>2026-03-23T09:04:58.956Z</time></trkpt><trkpt lat="30.127277663946945" lon="-6.372867217041748"><ele>907.75</ele><time>2026-03-23T09:04:59.956Z</time></trkpt><trkpt lat="30.127396476924098" lon="-6.372836840584994"><ele>907.5</ele><time>2026-03-23T09:05:00.956Z</time></trkpt><trkpt lat="30.12750924701861" lon="-6.372803906241225"><ele>907.25</ele><time>2026-03-23T09:05:01.956Z</time></trkpt><trkpt lat="30.12761441513991" lon="-6.372778761702725"><ele>907.0</ele><time>2026-03-23T09:05:02.956Z</time></trkpt><trkpt lat="30.127717341919183" lon="-6.372756382320949"><ele>907.0</ele><time>2026-03-23T09:05:03.956Z</time></trkpt><trkpt lat="30.12782011183988" lon="-6.372743912741022"><ele>907.0</ele><time>2026-03-23T09:05:04.956Z</time></trkpt><trkpt lat="30.12792126540315" lon="-6.372713824911876"><ele>907.0</ele><time>2026-03-23T09:05:05.956Z</time></trkpt><trkpt lat="30.128011997312584" lon="-6.372669368510939"><ele>907.0</ele><time>2026-03-23T09:05:06.956Z</time></trkpt><trkpt lat="30.12810702421617" lon="-6.372638655079865"><ele>907.0</ele><time>2026-03-23T09:05:07.956Z</time></trkpt><trkpt lat="30.128201559606346" lon="-6.3726017389701095"><ele>907.0</ele><time>2026-03-23T09:05:08.956Z</time></trkpt><trkpt lat="30.128297175727973" lon="-6.372563857745395"><ele>907.0</ele><time>2026-03-23T09:05:09.956Z</time></trkpt><trkpt lat="30.128397693754813" lon="-6.3725249210832295"><ele>907.0</ele><time>2026-03-23T09:05:10.956Z</time></trkpt><trkpt lat="30.128505115526746" lon="-6.372475214460599"><ele>907.0</ele><time>2026-03-23T09:05:11.956Z</time></trkpt><trkpt lat="30.128610556719714" lon="-6.3724337631167485"><ele>907.0</ele><time>2026-03-23T09:05:12.956Z</time></trkpt><trkpt lat="30.128689674615938" lon="-6.372411595125134"><ele>907.0</ele><time>2026-03-23T09:05:13.956Z</time></trkpt><trkpt lat="30.12880025056976" lon="-6.372415197642768"><ele>907.0</ele><time>2026-03-23T09:05:15.956Z</time></trkpt><trkpt lat="30.12891729163991" lon="-6.37242948036645"><ele>907.0</ele><time>2026-03-23T09:05:17.956Z</time></trkpt><trkpt lat="30.12898687628093" lon="-6.372435772609243"><ele>907.0</ele><time>2026-03-23T09:05:18.955Z</time></trkpt><trkpt lat="30.129063748017625" lon="-6.372445060474191"><ele>907.0</ele><time>2026-03-23T09:05:19.955Z</time></trkpt><trkpt lat="30.129149443086153" lon="-6.372449674165473"><ele>907.3333333333333</ele><time>2026-03-23T09:05:20.956Z</time></trkpt><trkpt lat="30.12923016225328" lon="-6.372444819434663"><ele>907.6666666666666</ele><time>2026-03-23T09:05:21.956Z</time></trkpt><trkpt lat="30.129318289272558" lon="-6.3724375734008785"><ele>908.0</ele><time>2026-03-23T09:05:22.956Z</time></trkpt><trkpt lat="30.129410206284472" lon="-6.372430625207259"><ele>908.3333333333333</ele><time>2026-03-23T09:05:23.956Z</time></trkpt><trkpt lat="30.129499185658812" lon="-6.3724085154576375"><ele>908.6666666666666</ele><time>2026-03-23T09:05:24.956Z</time></trkpt><trkpt lat="30.12958469940169" lon="-6.372380340529035"><ele>909.0</ele><time>2026-03-23T09:05:25.956Z</time></trkpt><trkpt lat="30.129670547158643" lon="-6.372355838148829"><ele>909.0</ele><time>2026-03-23T09:05:26.956Z</time></trkpt><trkpt lat="30.12976058097452" lon="-6.37234542497656"><ele>909.0</ele><time>2026-03-23T09:05:27.956Z</time></trkpt><trkpt lat="30.129863459150016" lon="-6.3723366712512695"><ele>909.0</ele><time>2026-03-23T09:05:28.956Z</time></trkpt><trkpt lat="30.12998747374829" lon="-6.372300029524437"><ele>909.0</ele><time>2026-03-23T09:05:29.956Z</time></trkpt><trkpt lat="30.130115071365328" lon="-6.372245585422444"><ele>909.0</ele><time>2026-03-23T09:05:30.956Z</time></trkpt><trkpt lat="30.130206079027555" lon="-6.372214173904331"><ele>909.0</ele><time>2026-03-23T09:05:31.956Z</time></trkpt><trkpt lat="30.1302842882994" lon="-6.372199358229059"><ele>909.0</ele><time>2026-03-23T09:05:32.956Z</time></trkpt><trkpt lat="30.130354727830305" lon="-6.372187699413106"><ele>909.0</ele><time>2026-03-23T09:05:33.956Z</time></trkpt><trkpt lat="30.130431147010654" lon="-6.372176237069008"><ele>909.0</ele><time>2026-03-23T09:05:34.956Z</time></trkpt><trkpt lat="30.13050964232182" lon="-6.3721618108019875"><ele>909.0</ele><time>2026-03-23T09:05:35.956Z</time></trkpt><trkpt lat="30.13057926373015" lon="-6.372133741549293"><ele>909.1428571428571</ele><time>2026-03-23T09:05:36.956Z</time></trkpt><trkpt lat="30.130641144424153" lon="-6.372092234059033"><ele>909.2857142857143</ele><time>2026-03-23T09:05:37.956Z</time></trkpt><trkpt lat="30.130707790279413" lon="-6.372052469947177"><ele>909.4285714285714</ele><time>2026-03-23T09:05:38.956Z</time></trkpt><trkpt lat="30.13077562216343" lon="-6.372019140720974"><ele>909.5714285714286</ele><time>2026-03-23T09:05:39.955Z</time></trkpt><trkpt lat="30.13084822802788" lon="-6.371990285027485"><ele>909.7142857142858</ele><time>2026-03-23T09:05:40.955Z</time></trkpt><trkpt lat="30.130921799301742" lon="-6.3719665904537"><ele>909.8571428571429</ele><time>2026-03-23T09:05:41.955Z</time></trkpt><trkpt lat="30.130994284472013" lon="-6.371943082106391"><ele>910.0</ele><time>2026-03-23T09:05:42.955Z</time></trkpt><trkpt lat="30.131062995041873" lon="-6.371910449109567"><ele>909.9999999999999</ele><time>2026-03-23T09:05:43.955Z</time></trkpt><trkpt lat="30.131129678624095" lon="-6.3718663132126325"><ele>910.0</ele><time>2026-03-23T09:05:44.955Z</time></trkpt><trkpt lat="30.13119319375147" lon="-6.3718245240240465"><ele>910.0</ele><time>2026-03-23T09:05:45.955Z</time></trkpt><trkpt lat="30.131263790113888" lon="-6.371778668533742"><ele>910.0</ele><time>2026-03-23T09:05:46.955Z</time></trkpt><trkpt lat="30.131333500761205" lon="-6.371731339634851"><ele>909.9999999999999</ele><time>2026-03-23T09:05:47.955Z</time></trkpt><trkpt lat="30.131403525590702" lon="-6.371684443226408"><ele>910.0</ele><time>2026-03-23T09:05:48.955Z</time></trkpt><trkpt lat="30.131471413119307" lon="-6.37163652567145"><ele>909.9999999999999</ele><time>2026-03-23T09:05:49.955Z</time></trkpt><trkpt lat="30.13154339693485" lon="-6.371577978155374"><ele>910.0</ele><time>2026-03-23T09:05:50.955Z</time></trkpt><trkpt lat="30.13162166985917" lon="-6.371504460222503"><ele>910.0</ele><time>2026-03-23T09:05:51.955Z</time></trkpt><trkpt lat="30.131696688892397" lon="-6.371434218268186"><ele>910.0</ele><time>2026-03-23T09:05:52.955Z</time></trkpt><trkpt lat="30.131763789951354" lon="-6.371372001725047"><ele>909.9999999999999</ele><time>2026-03-23T09:05:53.955Z</time></trkpt><trkpt lat="30.13181845025808" lon="-6.3713157098048745"><ele>910.0</ele><time>2026-03-23T09:05:54.955Z</time></trkpt><trkpt lat="30.131902742098923" lon="-6.371228860923564"><ele>910.3333333333333</ele><time>2026-03-23T09:05:56.955Z</time></trkpt><trkpt lat="30.131972628861377" lon="-6.371159340534333"><ele>910.6666666666666</ele><time>2026-03-23T09:05:58.955Z</time></trkpt><trkpt lat="30.132032052388954" lon="-6.371090249586657"><ele>911.0</ele><time>2026-03-23T09:06:00.955Z</time></trkpt><trkpt lat="30.13210509742018" lon="-6.371003364589851"><ele>911.3333333333333</ele><time>2026-03-23T09:06:02.955Z</time></trkpt><trkpt lat="30.132150884319902" lon="-6.370951887805393"><ele>911.6666666666666</ele><time>2026-03-23T09:06:03.955Z</time></trkpt><trkpt lat="30.132205002976082" lon="-6.370909378156512"><ele>912.0</ele><time>2026-03-23T09:06:04.955Z</time></trkpt><trkpt lat="30.13229500261979" lon="-6.370816198721086"><ele>912.0</ele><time>2026-03-23T09:06:06.955Z</time></trkpt><trkpt lat="30.132374530849347" lon="-6.3707317245163635"><ele>912.0</ele><time>2026-03-23T09:06:08.955Z</time></trkpt><trkpt lat="30.132437572915688" lon="-6.370666803540892"><ele>912.0</ele><time>2026-03-23T09:06:10.955Z</time></trkpt><trkpt lat="30.132505335042605" lon="-6.37062775969666"><ele>912.0</ele><time>2026-03-23T09:06:12.955Z</time></trkpt><trkpt lat="30.132581017927176" lon="-6.370615535173605"><ele>912.0</ele><time>2026-03-23T09:06:14.955Z</time></trkpt><trkpt lat="30.13265537648805" lon="-6.370629079414176"><ele>912.0</ele><time>2026-03-23T09:06:16.955Z</time></trkpt><trkpt lat="30.132745485782863" lon="-6.37066027666954"><ele>912.1666666666666</ele><time>2026-03-23T09:06:18.955Z</time></trkpt><trkpt lat="30.13283591702022" lon="-6.3706097124108325"><ele>912.3333333333333</ele><time>2026-03-23T09:06:20.955Z</time></trkpt><trkpt lat="30.132882057981256" lon="-6.370539147412838"><ele>912.5</ele><time>2026-03-23T09:06:21.955Z</time></trkpt><trkpt lat="30.132927267902083" lon="-6.370477507350887"><ele>912.6666666666666</ele><time>2026-03-23T09:06:22.955Z</time></trkpt><trkpt lat="30.132974626058044" lon="-6.37041354100642"><ele>912.8333333333333</ele><time>2026-03-23T09:06:23.955Z</time></trkpt><trkpt lat="30.133045686554585" lon="-6.370308397541691"><ele>913.0</ele><time>2026-03-23T09:06:25.955Z</time></trkpt><trkpt lat="30.13309423322308" lon="-6.37024239943315"><ele>913.1666666666666</ele><time>2026-03-23T09:06:28.955Z</time></trkpt><trkpt lat="30.13316795837384" lon="-6.370155669518615"><ele>913.3333333333333</ele><time>2026-03-23T09:06:44.955Z</time></trkpt><trkpt lat="30.13321632279825" lon="-6.37010066801004"><ele>913.5</ele><time>2026-03-23T09:06:45.955Z</time></trkpt><trkpt lat="30.13327477348784" lon="-6.370041122425008"><ele>913.6666666666667</ele><time>2026-03-23T09:06:46.955Z</time></trkpt><trkpt lat="30.13332922401224" lon="-6.369975953071279"><ele>913.8333333333334</ele><time>2026-03-23T09:06:47.955Z</time></trkpt><trkpt lat="30.133389772413473" lon="-6.369897770412187"><ele>914.0</ele><time>2026-03-23T09:06:48.955Z</time></trkpt><trkpt lat="30.13346124633201" lon="-6.3698121725711285"><ele>914.0</ele><time>2026-03-23T09:06:49.955Z</time></trkpt><trkpt lat="30.133533848142978" lon="-6.369719046777254"><ele>914.0</ele><time>2026-03-23T09:06:50.955Z</time></trkpt><trkpt lat="30.13361083246894" lon="-6.369623865084052"><ele>914.0</ele><time>2026-03-23T09:06:51.955Z</time></trkpt><trkpt lat="30.133691621367117" lon="-6.369521923633777"><ele>914.0</ele><time>2026-03-23T09:06:52.955Z</time></trkpt><trkpt lat="30.133776048553646" lon="-6.369423709118771"><ele>914.0</ele><time>2026-03-23T09:06:53.955Z</time></trkpt><trkpt lat="30.13386066828434" lon="-6.369321632689646"><ele>914.0</ele><time>2026-03-23T09:06:54.955Z</time></trkpt><trkpt lat="30.13394829057878" lon="-6.369215874582418"><ele>914.0</ele><time>2026-03-23T09:06:55.955Z</time></trkpt><trkpt lat="30.134033487446487" lon="-6.369110414227946"><ele>914.0</ele><time>2026-03-23T09:06:56.955Z</time></trkpt><trkpt lat="30.134119855634854" lon="-6.369001883487434"><ele>914.0</ele><time>2026-03-23T09:06:57.955Z</time></trkpt><trkpt lat="30.13420220987501" lon="-6.368903255501927"><ele>914.0</ele><time>2026-03-23T09:06:58.955Z</time></trkpt><trkpt lat="30.134292084869198" lon="-6.368795706969166"><ele>914.0</ele><time>2026-03-23T09:06:59.955Z</time></trkpt><trkpt lat="30.13438200720986" lon="-6.368689226135627"><ele>914.0</ele><time>2026-03-23T09:07:00.955Z</time></trkpt><trkpt lat="30.13448161107169" lon="-6.368570062675034"><ele>914.0</ele><time>2026-03-23T09:07:01.955Z</time></trkpt><trkpt lat="30.134590283194676" lon="-6.368431802571561"><ele>914.0</ele><time>2026-03-23T09:07:02.955Z</time></trkpt><trkpt lat="30.1347099138251" lon="-6.36829115242727"><ele>914.0</ele><time>2026-03-23T09:07:03.955Z</time></trkpt><trkpt lat="30.134832209979113" lon="-6.368145653308767"><ele>915.0</ele><time>2026-03-23T09:07:04.955Z</time></trkpt><trkpt lat="30.13496143099399" lon="-6.367988172735066"><ele>916.0</ele><time>2026-03-23T09:07:05.955Z</time></trkpt><trkpt lat="30.135104053851407" lon="-6.367817228376862"><ele>917.0</ele><time>2026-03-23T09:07:06.955Z</time></trkpt><trkpt lat="30.135257647885606" lon="-6.367626235455452"><ele>917.0</ele><time>2026-03-23T09:07:07.955Z</time></trkpt><trkpt lat="30.135408153728427" lon="-6.367442255916303"><ele>917.0</ele><time>2026-03-23T09:07:08.955Z</time></trkpt><trkpt lat="30.135545906308447" lon="-6.367270035188075"><ele>917.0</ele><time>2026-03-23T09:07:09.955Z</time></trkpt><trkpt lat="30.135676727718707" lon="-6.367109459827066"><ele>916.6666666666667</ele><time>2026-03-23T09:07:10.955Z</time></trkpt><trkpt lat="30.1357975728075" lon="-6.366957004993995"><ele>916.3333333333333</ele><time>2026-03-23T09:07:11.955Z</time></trkpt><trkpt lat="30.13591186409149" lon="-6.3668177899263245"><ele>916.0</ele><time>2026-03-23T09:07:12.955Z</time></trkpt><trkpt lat="30.136020515367974" lon="-6.366684120342207"><ele>916.0</ele><time>2026-03-23T09:07:13.955Z</time></trkpt><trkpt lat="30.13612918758495" lon="-6.36654857773891"><ele>916.0</ele><time>2026-03-23T09:07:14.955Z</time></trkpt><trkpt lat="30.13624131690795" lon="-6.366407199037772"><ele>916.0</ele><time>2026-03-23T09:07:15.955Z</time></trkpt><trkpt lat="30.13636032181825" lon="-6.366269717988638"><ele>915.6666666666666</ele><time>2026-03-23T09:07:16.955Z</time></trkpt><trkpt lat="30.13647283243191" lon="-6.366125339567374"><ele>915.3333333333333</ele><time>2026-03-23T09:07:17.955Z</time></trkpt><trkpt lat="30.136587427532493" lon="-6.365983985349065"><ele>915.0</ele><time>2026-03-23T09:07:18.955Z</time></trkpt><trkpt lat="30.136701168988708" lon="-6.365847461287878"><ele>915.6666666666667</ele><time>2026-03-23T09:07:19.955Z</time></trkpt><trkpt lat="30.13682086429495" lon="-6.365697774763847"><ele>916.3333333333334</ele><time>2026-03-23T09:07:20.955Z</time></trkpt><trkpt lat="30.136940060433233" lon="-6.365551541297793"><ele>917.0</ele><time>2026-03-23T09:07:21.955Z</time></trkpt><trkpt lat="30.13706078674355" lon="-6.365407020003786"><ele>917.0</ele><time>2026-03-23T09:07:22.955Z</time></trkpt><trkpt lat="30.137184375075364" lon="-6.365255118875136"><ele>917.0</ele><time>2026-03-23T09:07:23.956Z</time></trkpt><trkpt lat="30.137310683219997" lon="-6.365103254646221"><ele>917.0</ele><time>2026-03-23T09:07:24.955Z</time></trkpt><trkpt lat="30.137434772688007" lon="-6.364946740367287"><ele>917.3333333333334</ele><time>2026-03-23T09:07:25.955Z</time></trkpt><trkpt lat="30.137565326228945" lon="-6.364787505312647"><ele>917.6666666666667</ele><time>2026-03-23T09:07:26.955Z</time></trkpt><trkpt lat="30.137706574155768" lon="-6.364614060309137"><ele>918.0</ele><time>2026-03-23T09:07:27.955Z</time></trkpt><trkpt lat="30.137844514106856" lon="-6.364432569835086"><ele>918.3333333333333</ele><time>2026-03-23T09:07:28.955Z</time></trkpt><trkpt lat="30.13797665921391" lon="-6.364259028524376"><ele>918.6666666666666</ele><time>2026-03-23T09:07:29.956Z</time></trkpt><trkpt lat="30.138101304672304" lon="-6.364087283934013"><ele>919.0</ele><time>2026-03-23T09:07:30.955Z</time></trkpt><trkpt lat="30.13822243137939" lon="-6.363919433464206"><ele>919.0</ele><time>2026-03-23T09:07:31.955Z</time></trkpt><trkpt lat="30.138340640835075" lon="-6.363750993879414"><ele>919.0</ele><time>2026-03-23T09:07:32.955Z</time></trkpt><trkpt lat="30.138456917739955" lon="-6.363579680556572"><ele>919.0</ele><time>2026-03-23T09:07:33.955Z</time></trkpt><trkpt lat="30.138578061462955" lon="-6.363403465226772"><ele>919.0</ele><time>2026-03-23T09:07:34.955Z</time></trkpt><trkpt lat="30.138699515728657" lon="-6.363214883273004"><ele>919.0</ele><time>2026-03-23T09:07:35.955Z</time></trkpt><trkpt lat="30.138815737066924" lon="-6.363026177697228"><ele>919.0</ele><time>2026-03-23T09:07:36.955Z</time></trkpt><trkpt lat="30.138925047676864" lon="-6.362838875652146"><ele>919.3333333333333</ele><time>2026-03-23T09:07:37.955Z</time></trkpt><trkpt lat="30.139029745532092" lon="-6.362646158836234"><ele>919.6666666666667</ele><time>2026-03-23T09:07:38.955Z</time></trkpt><trkpt lat="30.139128595372963" lon="-6.362449437810572"><ele>920.0</ele><time>2026-03-23T09:07:39.955Z</time></trkpt><trkpt lat="30.13922234278837" lon="-6.36225263188292"><ele>920.0</ele><time>2026-03-23T09:07:40.955Z</time></trkpt><trkpt lat="30.139312257506024" lon="-6.362053484512784"><ele>920.0</ele><time>2026-03-23T09:07:41.955Z</time></trkpt><trkpt lat="30.139401741544823" lon="-6.361856975520067"><ele>920.0</ele><time>2026-03-23T09:07:42.955Z</time></trkpt><trkpt lat="30.139474028085846" lon="-6.361644484038479"><ele>920.0</ele><time>2026-03-23T09:07:43.955Z</time></trkpt><trkpt lat="30.13955671398988" lon="-6.361429919778431"><ele>920.0</ele><time>2026-03-23T09:07:44.955Z</time></trkpt><trkpt lat="30.13965217815658" lon="-6.361216283478509"><ele>920.0</ele><time>2026-03-23T09:07:45.955Z</time></trkpt><trkpt lat="30.13971632163024" lon="-6.360980948875648"><ele>919.6666666666667</ele><time>2026-03-23T09:07:46.955Z</time></trkpt><trkpt lat="30.13979140577076" lon="-6.360762700467086"><ele>919.3333333333333</ele><time>2026-03-23T09:07:47.955Z</time></trkpt><trkpt lat="30.139862458743174" lon="-6.360557102182861"><ele>919.0</ele><time>2026-03-23T09:07:48.955Z</time></trkpt><trkpt lat="30.13992439158814" lon="-6.360359897116137"><ele>919.0</ele><time>2026-03-23T09:07:49.954Z</time></trkpt><trkpt lat="30.1399873647188" lon="-6.36015817392343"><ele>919.0</ele><time>2026-03-23T09:07:50.954Z</time></trkpt><trkpt lat="30.140048569432327" lon="-6.3599498416063565"><ele>919.0</ele><time>2026-03-23T09:07:51.954Z</time></trkpt><trkpt lat="30.140110459116762" lon="-6.35973884798278"><ele>919.0</ele><time>2026-03-23T09:07:52.954Z</time></trkpt><trkpt lat="30.140167514545514" lon="-6.359528045497901"><ele>919.0</ele><time>2026-03-23T09:07:53.954Z</time></trkpt><trkpt lat="30.14019475502267" lon="-6.359310092999907"><ele>919.0</ele><time>2026-03-23T09:07:54.954Z</time></trkpt><trkpt lat="30.140229767878395" lon="-6.359092521094551"><ele>919.0</ele><time>2026-03-23T09:07:55.954Z</time></trkpt><trkpt lat="30.1402657506771" lon="-6.3588733853548245"><ele>919.0</ele><time>2026-03-23T09:07:56.954Z</time></trkpt><trkpt lat="30.140296058935665" lon="-6.358662144616805"><ele>919.0</ele><time>2026-03-23T09:07:57.954Z</time></trkpt><trkpt lat="30.1403207013251" lon="-6.358461361456171"><ele>918.6666666666666</ele><time>2026-03-23T09:07:58.954Z</time></trkpt><trkpt lat="30.14034370695273" lon="-6.358268233159104"><ele>918.3333333333333</ele><time>2026-03-23T09:07:59.954Z</time></trkpt><trkpt lat="30.14036641373545" lon="-6.358077613610182"><ele>918.0</ele><time>2026-03-23T09:08:00.954Z</time></trkpt><trkpt lat="30.14038773622307" lon="-6.357893204667403"><ele>918.0</ele><time>2026-03-23T09:08:01.954Z</time></trkpt><trkpt lat="30.140406657718326" lon="-6.357710778694171"><ele>918.0</ele><time>2026-03-23T09:08:02.954Z</time></trkpt><trkpt lat="30.140423507097502" lon="-6.357528576974368"><ele>918.0</ele><time>2026-03-23T09:08:03.954Z</time></trkpt><trkpt lat="30.1404404127618" lon="-6.357343365739658"><ele>918.0</ele><time>2026-03-23T09:08:04.954Z</time></trkpt><trkpt lat="30.140455302526927" lon="-6.357150676838994"><ele>918.0</ele><time>2026-03-23T09:08:05.954Z</time></trkpt><trkpt lat="30.140458494317812" lon="-6.356951410034185"><ele>918.0</ele><time>2026-03-23T09:08:06.954Z</time></trkpt><trkpt lat="30.1404587881212" lon="-6.3567534896559765"><ele>918.0</ele><time>2026-03-23T09:08:07.954Z</time></trkpt><trkpt lat="30.140453809479276" lon="-6.356544993948865"><ele>918.0</ele><time>2026-03-23T09:08:08.954Z</time></trkpt><trkpt lat="30.140448688794446" lon="-6.356341013897619"><ele>918.0</ele><time>2026-03-23T09:08:09.954Z</time></trkpt><trkpt lat="30.14045538734131" lon="-6.356134430892004"><ele>918.0</ele><time>2026-03-23T09:08:10.954Z</time></trkpt><trkpt lat="30.14043290090316" lon="-6.355920253017597"><ele>918.0</ele><time>2026-03-23T09:08:11.954Z</time></trkpt><trkpt lat="30.140424491946764" lon="-6.3556968820590845"><ele>918.0</ele><time>2026-03-23T09:08:12.954Z</time></trkpt><trkpt lat="30.1404157630763" lon="-6.355481633481869"><ele>917.6666666666667</ele><time>2026-03-23T09:08:13.954Z</time></trkpt><trkpt lat="30.14040851763688" lon="-6.355284895360534"><ele>917.3333333333334</ele><time>2026-03-23T09:08:14.954Z</time></trkpt><trkpt lat="30.140401379177767" lon="-6.355091062141844"><ele>917.0</ele><time>2026-03-23T09:08:15.954Z</time></trkpt><trkpt lat="30.14039412182656" lon="-6.354901370333352"><ele>917.0</ele><time>2026-03-23T09:08:16.954Z</time></trkpt><trkpt lat="30.14038686915326" lon="-6.354713332813918"><ele>917.0</ele><time>2026-03-23T09:08:17.954Z</time></trkpt><trkpt lat="30.140380356770432" lon="-6.3545420245518525"><ele>917.0</ele><time>2026-03-23T09:08:18.954Z</time></trkpt><trkpt lat="30.140373784103925" lon="-6.354368224551324"><ele>917.0</ele><time>2026-03-23T09:08:19.954Z</time></trkpt><trkpt lat="30.14036804319359" lon="-6.354189036861851"><ele>917.0</ele><time>2026-03-23T09:08:20.954Z</time></trkpt><trkpt lat="30.14036109080744" lon="-6.354010282761263"><ele>917.0</ele><time>2026-03-23T09:08:21.954Z</time></trkpt><trkpt lat="30.140353812729963" lon="-6.353825130989552"><ele>917.0</ele><time>2026-03-23T09:08:22.954Z</time></trkpt><trkpt lat="30.140347128393532" lon="-6.353634062788906"><ele>917.0</ele><time>2026-03-23T09:08:23.954Z</time></trkpt><trkpt lat="30.140339854789755" lon="-6.353434399943237"><ele>917.0</ele><time>2026-03-23T09:08:24.954Z</time></trkpt><trkpt lat="30.140333375359067" lon="-6.353237043568066"><ele>916.3333333333334</ele><time>2026-03-23T09:08:25.954Z</time></trkpt><trkpt lat="30.140327383214046" lon="-6.353032965836554"><ele>915.6666666666667</ele><time>2026-03-23T09:08:26.954Z</time></trkpt><trkpt lat="30.140321383518707" lon="-6.3528294746430705"><ele>915.0</ele><time>2026-03-23T09:08:27.954Z</time></trkpt><trkpt lat="30.140315201513207" lon="-6.352621609573568"><ele>915.0</ele><time>2026-03-23T09:08:28.954Z</time></trkpt><trkpt lat="30.14031003050168" lon="-6.352416224489218"><ele>915.0</ele><time>2026-03-23T09:08:29.954Z</time></trkpt><trkpt lat="30.140304553892737" lon="-6.352223361260976"><ele>915.0</ele><time>2026-03-23T09:08:30.954Z</time></trkpt><trkpt lat="30.140299316126544" lon="-6.352038909072878"><ele>915.25</ele><time>2026-03-23T09:08:31.954Z</time></trkpt><trkpt lat="30.140294512764402" lon="-6.35186676496366"><ele>915.5</ele><time>2026-03-23T09:08:32.954Z</time></trkpt><trkpt lat="30.140290084106983" lon="-6.351703912976721"><ele>915.75</ele><time>2026-03-23T09:08:33.954Z</time></trkpt><trkpt lat="30.140299729270573" lon="-6.351548543547962"><ele>916.0</ele><time>2026-03-23T09:08:34.954Z</time></trkpt><trkpt lat="30.140292531595108" lon="-6.351397392463529"><ele>916.0</ele><time>2026-03-23T09:08:35.954Z</time></trkpt><trkpt lat="30.140284466212105" lon="-6.351247836756542"><ele>916.0</ele><time>2026-03-23T09:08:36.954Z</time></trkpt><trkpt lat="30.140277653540753" lon="-6.35110047598637"><ele>916.0</ele><time>2026-03-23T09:08:37.954Z</time></trkpt><trkpt lat="30.140270849638277" lon="-6.350949133235566"><ele>916.0</ele><time>2026-03-23T09:08:38.954Z</time></trkpt><trkpt lat="30.14026358499831" lon="-6.35078830636507"><ele>916.0</ele><time>2026-03-23T09:08:39.954Z</time></trkpt><trkpt lat="30.140256080964846" lon="-6.350618159701141"><ele>916.0</ele><time>2026-03-23T09:08:40.954Z</time></trkpt><trkpt lat="30.140251126755366" lon="-6.350436960735459"><ele>916.0</ele><time>2026-03-23T09:08:41.954Z</time></trkpt><trkpt lat="30.140246661698136" lon="-6.350256642701987"><ele>916.0</ele><time>2026-03-23T09:08:42.954Z</time></trkpt><trkpt lat="30.1402442957828" lon="-6.350070564007488"><ele>916.0</ele><time>2026-03-23T09:08:43.954Z</time></trkpt><trkpt lat="30.14024040501534" lon="-6.3498931022301015"><ele>916.0</ele><time>2026-03-23T09:08:44.954Z</time></trkpt><trkpt lat="30.140233355784705" lon="-6.349709717735183"><ele>915.6666666666666</ele><time>2026-03-23T09:08:45.954Z</time></trkpt><trkpt lat="30.140223994367567" lon="-6.349510794757766"><ele>915.3333333333333</ele><time>2026-03-23T09:08:46.954Z</time></trkpt><trkpt lat="30.14021803555003" lon="-6.349312245276944"><ele>915.0</ele><time>2026-03-23T09:08:47.954Z</time></trkpt><trkpt lat="30.140211958563498" lon="-6.349121142431669"><ele>915.0</ele><time>2026-03-23T09:08:48.954Z</time></trkpt><trkpt lat="30.14020258901816" lon="-6.348934819542973"><ele>915.0</ele><time>2026-03-23T09:08:49.954Z</time></trkpt><trkpt lat="30.140189219731578" lon="-6.348723884424665"><ele>915.0</ele><time>2026-03-23T09:08:50.954Z</time></trkpt><trkpt lat="30.140181582909243" lon="-6.348524552616848"><ele>915.0</ele><time>2026-03-23T09:08:51.954Z</time></trkpt><trkpt lat="30.14017672856662" lon="-6.348338514435232"><ele>915.0</ele><time>2026-03-23T09:08:52.954Z</time></trkpt><trkpt lat="30.140171221589025" lon="-6.348155598900049"><ele>915.0</ele><time>2026-03-23T09:08:53.954Z</time></trkpt><trkpt lat="30.140166752468446" lon="-6.347971594265772"><ele>914.3333333333333</ele><time>2026-03-23T09:08:54.954Z</time></trkpt><trkpt lat="30.140162595661607" lon="-6.347796225887735"><ele>913.6666666666666</ele><time>2026-03-23T09:08:55.954Z</time></trkpt><trkpt lat="30.140139468078832" lon="-6.3476233852350585"><ele>913.0</ele><time>2026-03-23T09:08:56.954Z</time></trkpt><trkpt lat="30.140132957665507" lon="-6.347452699794991"><ele>913.0</ele><time>2026-03-23T09:08:57.954Z</time></trkpt><trkpt lat="30.140126269001115" lon="-6.347277477896853"><ele>913.0</ele><time>2026-03-23T09:08:58.954Z</time></trkpt><trkpt lat="30.14011923881923" lon="-6.3470971877607"><ele>913.0</ele><time>2026-03-23T09:08:59.954Z</time></trkpt><trkpt lat="30.140126938774802" lon="-6.346905889595795"><ele>913.0</ele><time>2026-03-23T09:09:00.954Z</time></trkpt><trkpt lat="30.140117751422093" lon="-6.3467151853619646"><ele>913.0</ele><time>2026-03-23T09:09:01.954Z</time></trkpt><trkpt lat="30.14011192093798" lon="-6.34652018944088"><ele>913.0</ele><time>2026-03-23T09:09:02.954Z</time></trkpt><trkpt lat="30.140089489946167" lon="-6.34633026232116"><ele>913.0</ele><time>2026-03-23T09:09:03.954Z</time></trkpt><trkpt lat="30.140082293866648" lon="-6.346142358018081"><ele>913.0</ele><time>2026-03-23T09:09:04.954Z</time></trkpt><trkpt lat="30.140075300387927" lon="-6.345958196346557"><ele>913.0</ele><time>2026-03-23T09:09:05.954Z</time></trkpt><trkpt lat="30.14006897533953" lon="-6.3457692658737015"><ele>913.0</ele><time>2026-03-23T09:09:06.954Z</time></trkpt><trkpt lat="30.14006363268429" lon="-6.345585478615341"><ele>913.0</ele><time>2026-03-23T09:09:07.954Z</time></trkpt><trkpt lat="30.140058785237933" lon="-6.345411331723319"><ele>913.0</ele><time>2026-03-23T09:09:08.954Z</time></trkpt><trkpt lat="30.14005461079476" lon="-6.3452613628019625"><ele>913.0</ele><time>2026-03-23T09:09:09.954Z</time></trkpt><trkpt lat="30.140050949729755" lon="-6.345129837310283"><ele>912.8333333333333</ele><time>2026-03-23T09:09:10.954Z</time></trkpt><trkpt lat="30.14004768973642" lon="-6.345012720467094"><ele>912.6666666666666</ele><time>2026-03-23T09:09:11.954Z</time></trkpt><trkpt lat="30.140044751844936" lon="-6.344907175262981"><ele>912.5</ele><time>2026-03-23T09:09:12.954Z</time></trkpt><trkpt lat="30.140042047994143" lon="-6.3448100381112695"><ele>912.3333333333333</ele><time>2026-03-23T09:09:13.954Z</time></trkpt><trkpt lat="30.1400395890707" lon="-6.344719680850269"><ele>912.1666666666666</ele><time>2026-03-23T09:09:14.954Z</time></trkpt><trkpt lat="30.14002512804646" lon="-6.344643581120845"><ele>912.0</ele><time>2026-03-23T09:09:15.954Z</time></trkpt><trkpt lat="30.13999794110759" lon="-6.344572427197464"><ele>911.8</ele><time>2026-03-23T09:09:16.954Z</time></trkpt><trkpt lat="30.139956623142652" lon="-6.344501468579696"><ele>911.6</ele><time>2026-03-23T09:09:17.954Z</time></trkpt><trkpt lat="30.13995605890489" lon="-6.344408373579886"><ele>911.3999999999999</ele><time>2026-03-23T09:09:18.954Z</time></trkpt><trkpt lat="30.139953398961506" lon="-6.344309165665253"><ele>911.1999999999999</ele><time>2026-03-23T09:09:19.954Z</time></trkpt><trkpt lat="30.139950167509557" lon="-6.344189869800802"><ele>911.0</ele><time>2026-03-23T09:09:20.954Z</time></trkpt><trkpt lat="30.13994674775281" lon="-6.344065314249545"><ele>911.0</ele><time>2026-03-23T09:09:21.954Z</time></trkpt><trkpt lat="30.13994306801728" lon="-6.343931289193441"><ele>911.0</ele><time>2026-03-23T09:09:22.954Z</time></trkpt><trkpt lat="30.139939349737475" lon="-6.3438011604564775"><ele>911.0</ele><time>2026-03-23T09:09:23.954Z</time></trkpt><trkpt lat="30.139934804792226" lon="-6.343673491944948"><ele>911.0</ele><time>2026-03-23T09:09:24.954Z</time></trkpt><trkpt lat="30.13993023319254" lon="-6.3435450744968085"><ele>911.0</ele><time>2026-03-23T09:09:25.954Z</time></trkpt><trkpt lat="30.139925549649053" lon="-6.343413512588184"><ele>911.0</ele><time>2026-03-23T09:09:26.954Z</time></trkpt><trkpt lat="30.139920267622266" lon="-6.343265139341356"><ele>911.0</ele><time>2026-03-23T09:09:27.954Z</time></trkpt><trkpt lat="30.13991437837906" lon="-6.343099709326799"><ele>911.0</ele><time>2026-03-23T09:09:28.954Z</time></trkpt><trkpt lat="30.139908050596254" lon="-6.342920683707463"><ele>910.3333333333334</ele><time>2026-03-23T09:09:29.954Z</time></trkpt><trkpt lat="30.139902029565324" lon="-6.342716158476026"><ele>909.6666666666667</ele><time>2026-03-23T09:09:30.955Z</time></trkpt><trkpt lat="30.139894771409256" lon="-6.342501368676166"><ele>909.0</ele><time>2026-03-23T09:09:31.955Z</time></trkpt><trkpt lat="30.13988830891082" lon="-6.342305502388554"><ele>909.0</ele><time>2026-03-23T09:09:32.955Z</time></trkpt><trkpt lat="30.139882257342773" lon="-6.342120393476301"><ele>909.0</ele><time>2026-03-23T09:09:33.954Z</time></trkpt><trkpt lat="30.13987608999293" lon="-6.341928569152948"><ele>909.0</ele><time>2026-03-23T09:09:34.954Z</time></trkpt><trkpt lat="30.139870180992496" lon="-6.341748027248317"><ele>909.0</ele><time>2026-03-23T09:09:35.955Z</time></trkpt><trkpt lat="30.139864158851704" lon="-6.341568209865829"><ele>909.0</ele><time>2026-03-23T09:09:36.955Z</time></trkpt><trkpt lat="30.139636030194946" lon="-6.341411057379871"><ele>909.0</ele><time>2026-03-23T09:09:37.955Z</time></trkpt><trkpt lat="30.13963028056577" lon="-6.341250319479085"><ele>908.75</ele><time>2026-03-23T09:09:38.955Z</time></trkpt><trkpt lat="30.139629975869834" lon="-6.3410968837656405"><ele>908.5</ele><time>2026-03-23T09:09:39.954Z</time></trkpt><trkpt lat="30.139639414033354" lon="-6.340927930492266"><ele>908.25</ele><time>2026-03-23T09:09:40.954Z</time></trkpt><trkpt lat="30.139649772336117" lon="-6.340746594597757"><ele>908.0</ele><time>2026-03-23T09:09:41.954Z</time></trkpt><trkpt lat="30.13964791474115" lon="-6.3405620166515755"><ele>907.6666666666667</ele><time>2026-03-23T09:09:42.954Z</time></trkpt><trkpt lat="30.13963950335148" lon="-6.340379674515695"><ele>907.3333333333333</ele><time>2026-03-23T09:09:43.954Z</time></trkpt><trkpt lat="30.13963697198838" lon="-6.340199538627598"><ele>907.0</ele><time>2026-03-23T09:09:44.954Z</time></trkpt><trkpt lat="30.139638176559373" lon="-6.3400256962275225"><ele>907.0</ele><time>2026-03-23T09:09:45.954Z</time></trkpt><trkpt lat="30.139632444383412" lon="-6.339856429658835"><ele>907.0</ele><time>2026-03-23T09:09:46.954Z</time></trkpt><trkpt lat="30.13962460820248" lon="-6.3397097026516755"><ele>907.0</ele><time>2026-03-23T09:09:47.954Z</time></trkpt><trkpt lat="30.139614611352496" lon="-6.339553919383846"><ele>907.0</ele><time>2026-03-23T09:09:48.954Z</time></trkpt><trkpt lat="30.139605317115993" lon="-6.339401623931134"><ele>907.0</ele><time>2026-03-23T09:09:49.954Z</time></trkpt><trkpt lat="30.13958967965941" lon="-6.339248160985367"><ele>907.0</ele><time>2026-03-23T09:09:50.954Z</time></trkpt><trkpt lat="30.139576235040586" lon="-6.339100666752567"><ele>907.0</ele><time>2026-03-23T09:09:51.954Z</time></trkpt><trkpt lat="30.139557078167563" lon="-6.3389536820362835"><ele>907.0</ele><time>2026-03-23T09:09:52.954Z</time></trkpt><trkpt lat="30.139535516138455" lon="-6.338805073727677"><ele>907.0</ele><time>2026-03-23T09:09:53.954Z</time></trkpt><trkpt lat="30.139517231559864" lon="-6.33865576603999"><ele>907.0</ele><time>2026-03-23T09:09:54.954Z</time></trkpt><trkpt lat="30.139499081885447" lon="-6.33850016077297"><ele>907.0</ele><time>2026-03-23T09:09:55.954Z</time></trkpt><trkpt lat="30.139482206803706" lon="-6.338341970190959"><ele>907.0</ele><time>2026-03-23T09:09:56.954Z</time></trkpt><trkpt lat="30.139471564191965" lon="-6.338187711950947"><ele>906.75</ele><time>2026-03-23T09:09:57.954Z</time></trkpt><trkpt lat="30.13945628276336" lon="-6.338035549863971"><ele>906.5</ele><time>2026-03-23T09:09:58.954Z</time></trkpt><trkpt lat="30.139443713462033" lon="-6.337883687810466"><ele>906.25</ele><time>2026-03-23T09:09:59.954Z</time></trkpt><trkpt lat="30.139441968263093" lon="-6.337731921249109"><ele>906.0</ele><time>2026-03-23T09:10:00.954Z</time></trkpt><trkpt lat="30.139437527141453" lon="-6.337587692002497"><ele>906.0</ele><time>2026-03-23T09:10:01.954Z</time></trkpt><trkpt lat="30.139437555380482" lon="-6.33744526663691"><ele>906.0</ele><time>2026-03-23T09:10:02.954Z</time></trkpt><trkpt lat="30.139446037114464" lon="-6.337291881604408"><ele>906.0</ele><time>2026-03-23T09:10:03.954Z</time></trkpt><trkpt lat="30.139455567983134" lon="-6.33712664137841"><ele>906.0</ele><time>2026-03-23T09:10:04.954Z</time></trkpt><trkpt lat="30.139458742239917" lon="-6.336957856580921"><ele>905.75</ele><time>2026-03-23T09:10:05.954Z</time></trkpt><trkpt lat="30.139456473683108" lon="-6.3367843157089645"><ele>905.5</ele><time>2026-03-23T09:10:06.954Z</time></trkpt><trkpt lat="30.13945829141505" lon="-6.336606634578971"><ele>905.25</ele><time>2026-03-23T09:10:07.954Z</time></trkpt><trkpt lat="30.13945277375081" lon="-6.336447039973801"><ele>905.0</ele><time>2026-03-23T09:10:08.954Z</time></trkpt><trkpt lat="30.13943664634827" lon="-6.33634065335783"><ele>904.8333333333334</ele><time>2026-03-23T09:10:09.954Z</time></trkpt><trkpt lat="30.13941108390871" lon="-6.336260834796191"><ele>904.6666666666667</ele><time>2026-03-23T09:10:10.954Z</time></trkpt><trkpt lat="30.13938075466219" lon="-6.336196065268398"><ele>904.5</ele><time>2026-03-23T09:10:11.954Z</time></trkpt><trkpt lat="30.139324142760774" lon="-6.336108469359499"><ele>904.3333333333333</ele><time>2026-03-23T09:10:13.954Z</time></trkpt><trkpt lat="30.13926580691618" lon="-6.336054174927315"><ele>904.1666666666666</ele><time>2026-03-23T09:10:15.954Z</time></trkpt><trkpt lat="30.139200229649198" lon="-6.336008188070454"><ele>904.0</ele><time>2026-03-23T09:10:17.954Z</time></trkpt><trkpt lat="30.139121048098033" lon="-6.335929755883708"><ele>903.9999999999999</ele><time>2026-03-23T09:10:19.953Z</time></trkpt><trkpt lat="30.13907338111161" lon="-6.335879341155176"><ele>904.0</ele><time>2026-03-23T09:10:20.953Z</time></trkpt><trkpt lat="30.1389882425279" lon="-6.335835438671377"><ele>904.0</ele><time>2026-03-23T09:10:21.953Z</time></trkpt><trkpt lat="30.138949407708306" lon="-6.335730958526713"><ele>904.0</ele><time>2026-03-23T09:10:22.953Z</time></trkpt><trkpt lat="30.138885644738867" lon="-6.335649169464937"><ele>903.9999999999999</ele><time>2026-03-23T09:10:23.953Z</time></trkpt><trkpt lat="30.138825539871384" lon="-6.335572210126966"><ele>904.0</ele><time>2026-03-23T09:10:24.953Z</time></trkpt><trkpt lat="30.138773078414207" lon="-6.335495600079191"><ele>904.0</ele><time>2026-03-23T09:10:25.953Z</time></trkpt><trkpt lat="30.138717793210834" lon="-6.33542112900545"><ele>904.0000000000001</ele><time>2026-03-23T09:10:26.953Z</time></trkpt><trkpt lat="30.13866615264849" lon="-6.335340444617538"><ele>904.0000000000001</ele><time>2026-03-23T09:10:27.953Z</time></trkpt><trkpt lat="30.138608798367443" lon="-6.335256534450428"><ele>904.0</ele><time>2026-03-23T09:10:28.953Z</time></trkpt><trkpt lat="30.138546743079463" lon="-6.335158781059088"><ele>904.0</ele><time>2026-03-23T09:10:29.953Z</time></trkpt><trkpt lat="30.138482501328003" lon="-6.335057667891642"><ele>904.0</ele><time>2026-03-23T09:10:30.953Z</time></trkpt><trkpt lat="30.138427181381164" lon="-6.334951440493087"><ele>904.0</ele><time>2026-03-23T09:10:31.953Z</time></trkpt><trkpt lat="30.138382469499795" lon="-6.334827488872391"><ele>904.0</ele><time>2026-03-23T09:10:32.953Z</time></trkpt><trkpt lat="30.138339431843512" lon="-6.3346943163130645"><ele>904.0</ele><time>2026-03-23T09:10:33.953Z</time></trkpt><trkpt lat="30.13829875160668" lon="-6.334551446072751"><ele>904.0</ele><time>2026-03-23T09:10:34.953Z</time></trkpt><trkpt lat="30.13824830339859" lon="-6.334397007258169"><ele>904.0</ele><time>2026-03-23T09:10:35.953Z</time></trkpt><trkpt lat="30.13819726958807" lon="-6.334235469910357"><ele>904.0</ele><time>2026-03-23T09:10:36.953Z</time></trkpt><trkpt lat="30.138129567944503" lon="-6.334033788526788"><ele>903.6666666666666</ele><time>2026-03-23T09:10:37.953Z</time></trkpt><trkpt lat="30.138045738519157" lon="-6.333822078818137"><ele>903.3333333333333</ele><time>2026-03-23T09:10:38.953Z</time></trkpt><trkpt lat="30.137974302108223" lon="-6.333640545376532"><ele>903.0</ele><time>2026-03-23T09:10:39.953Z</time></trkpt><trkpt lat="30.137936852805996" lon="-6.333441921299417"><ele>903.0</ele><time>2026-03-23T09:10:40.953Z</time></trkpt><trkpt lat="30.137925733835804" lon="-6.3331981433401"><ele>903.0</ele><time>2026-03-23T09:10:41.953Z</time></trkpt><trkpt lat="30.137916915382146" lon="-6.332943036146545"><ele>903.0</ele><time>2026-03-23T09:10:42.953Z</time></trkpt><trkpt lat="30.137882920415716" lon="-6.3326731640033"><ele>903.0</ele><time>2026-03-23T09:10:43.953Z</time></trkpt><trkpt lat="30.1378715819161" lon="-6.332468223166463"><ele>903.0</ele><time>2026-03-23T09:10:44.953Z</time></trkpt><trkpt lat="30.137851958203118" lon="-6.332310897360608"><ele>903.0</ele><time>2026-03-23T09:10:45.953Z</time></trkpt><trkpt lat="30.13782782845105" lon="-6.332167206151297"><ele>903.0</ele><time>2026-03-23T09:10:46.953Z</time></trkpt><trkpt lat="30.137807497485902" lon="-6.332039197808388"><ele>903.0</ele><time>2026-03-23T09:10:47.953Z</time></trkpt><trkpt lat="30.13779730631161" lon="-6.331898102721218"><ele>903.0</ele><time>2026-03-23T09:10:48.953Z</time></trkpt><trkpt lat="30.137787813502804" lon="-6.3317634188547975"><ele>903.0</ele><time>2026-03-23T09:10:49.953Z</time></trkpt><trkpt lat="30.1377688189969" lon="-6.331617397241883"><ele>903.0</ele><time>2026-03-23T09:10:50.953Z</time></trkpt><trkpt lat="30.13773261070452" lon="-6.331474615367381"><ele>902.5</ele><time>2026-03-23T09:10:51.953Z</time></trkpt><trkpt lat="30.137695278381596" lon="-6.331325936082226"><ele>902.0</ele><time>2026-03-23T09:10:52.953Z</time></trkpt><trkpt lat="30.13766041889035" lon="-6.3311874244537"><ele>901.5</ele><time>2026-03-23T09:10:53.953Z</time></trkpt><trkpt lat="30.137608201615574" lon="-6.331074546624126"><ele>901.0</ele><time>2026-03-23T09:10:54.953Z</time></trkpt><trkpt lat="30.137526703763648" lon="-6.330962370154419"><ele>901.0</ele><time>2026-03-23T09:10:55.953Z</time></trkpt><trkpt lat="30.137429274031085" lon="-6.330841184448244"><ele>901.0</ele><time>2026-03-23T09:10:56.953Z</time></trkpt><trkpt lat="30.13734127290453" lon="-6.330719994144737"><ele>901.0</ele><time>2026-03-23T09:10:57.953Z</time></trkpt><trkpt lat="30.13729420798136" lon="-6.3305979136157235"><ele>901.0</ele><time>2026-03-23T09:10:58.953Z</time></trkpt><trkpt lat="30.137270176936166" lon="-6.330457555642698"><ele>900.75</ele><time>2026-03-23T09:10:59.953Z</time></trkpt><trkpt lat="30.137229409738513" lon="-6.330302965066649"><ele>900.5</ele><time>2026-03-23T09:11:00.953Z</time></trkpt><trkpt lat="30.1371858210595" lon="-6.330143511603935"><ele>900.25</ele><time>2026-03-23T09:11:01.953Z</time></trkpt><trkpt lat="30.13714493423906" lon="-6.329995290048761"><ele>900.0</ele><time>2026-03-23T09:11:02.953Z</time></trkpt><trkpt lat="30.13711575631138" lon="-6.329848821436381"><ele>899.75</ele><time>2026-03-23T09:11:03.953Z</time></trkpt><trkpt lat="30.137095598730518" lon="-6.329702560208843"><ele>899.5</ele><time>2026-03-23T09:11:04.953Z</time></trkpt><trkpt lat="30.137084293154757" lon="-6.329548163256397"><ele>899.25</ele><time>2026-03-23T09:11:05.953Z</time></trkpt><trkpt lat="30.137076483622714" lon="-6.329388926463747"><ele>899.0</ele><time>2026-03-23T09:11:06.953Z</time></trkpt><trkpt lat="30.1370532263991" lon="-6.329235196284893"><ele>899.0</ele><time>2026-03-23T09:11:07.953Z</time></trkpt><trkpt lat="30.137010372557313" lon="-6.329077628234701"><ele>899.0</ele><time>2026-03-23T09:11:08.953Z</time></trkpt><trkpt lat="30.136961160125434" lon="-6.328914076028076"><ele>899.0</ele><time>2026-03-23T09:11:09.953Z</time></trkpt><trkpt lat="30.136923015651977" lon="-6.328749405826642"><ele>899.0</ele><time>2026-03-23T09:11:10.953Z</time></trkpt><trkpt lat="30.13689828766796" lon="-6.328594145998946"><ele>899.0</ele><time>2026-03-23T09:11:11.953Z</time></trkpt><trkpt lat="30.136876799815983" lon="-6.3284489891453015"><ele>899.0</ele><time>2026-03-23T09:11:12.953Z</time></trkpt><trkpt lat="30.13684353426826" lon="-6.328309686689601"><ele>899.0</ele><time>2026-03-23T09:11:13.953Z</time></trkpt><trkpt lat="30.136804095738185" lon="-6.3281785716057595"><ele>899.0</ele><time>2026-03-23T09:11:14.953Z</time></trkpt><trkpt lat="30.136763420784135" lon="-6.328041925046756"><ele>899.0</ele><time>2026-03-23T09:11:15.953Z</time></trkpt><trkpt lat="30.136722358506606" lon="-6.327897276598517"><ele>899.0</ele><time>2026-03-23T09:11:16.953Z</time></trkpt><trkpt lat="30.136682544962415" lon="-6.327743016365626"><ele>899.0</ele><time>2026-03-23T09:11:17.953Z</time></trkpt><trkpt lat="30.136637375716454" lon="-6.327586322559264"><ele>899.0</ele><time>2026-03-23T09:11:18.953Z</time></trkpt><trkpt lat="30.13659312515922" lon="-6.327430154693249"><ele>898.75</ele><time>2026-03-23T09:11:19.953Z</time></trkpt><trkpt lat="30.136549177865856" lon="-6.327281330566956"><ele>898.5</ele><time>2026-03-23T09:11:20.953Z</time></trkpt><trkpt lat="30.136501843272296" lon="-6.327136802266676"><ele>898.25</ele><time>2026-03-23T09:11:21.953Z</time></trkpt><trkpt lat="30.13645411751208" lon="-6.327004071901332"><ele>898.0</ele><time>2026-03-23T09:11:22.953Z</time></trkpt><trkpt lat="30.13641306253423" lon="-6.326874517818232"><ele>897.75</ele><time>2026-03-23T09:11:23.953Z</time></trkpt><trkpt lat="30.136374002160522" lon="-6.326745705212785"><ele>897.5</ele><time>2026-03-23T09:11:24.953Z</time></trkpt><trkpt lat="30.136345312687503" lon="-6.326610767697986"><ele>897.25</ele><time>2026-03-23T09:11:25.953Z</time></trkpt><trkpt lat="30.136309949636576" lon="-6.326468442982097"><ele>897.0</ele><time>2026-03-23T09:11:26.953Z</time></trkpt><trkpt lat="30.136269117688393" lon="-6.326317901127364"><ele>896.3333333333333</ele><time>2026-03-23T09:11:27.953Z</time></trkpt><trkpt lat="30.136221467053662" lon="-6.326156770510238"><ele>895.6666666666666</ele><time>2026-03-23T09:11:28.953Z</time></trkpt><trkpt lat="30.136166882068853" lon="-6.325987862676712"><ele>895.0</ele><time>2026-03-23T09:11:29.953Z</time></trkpt><trkpt lat="30.136097493710245" lon="-6.325818966646808"><ele>895.0</ele><time>2026-03-23T09:11:30.953Z</time></trkpt><trkpt lat="30.13601540524339" lon="-6.325644657512528"><ele>895.0</ele><time>2026-03-23T09:11:31.953Z</time></trkpt><trkpt lat="30.13590290647661" lon="-6.325460133294259"><ele>895.0</ele><time>2026-03-23T09:11:32.953Z</time></trkpt><trkpt lat="30.135762418420796" lon="-6.325268444654016"><ele>894.6666666666666</ele><time>2026-03-23T09:11:33.953Z</time></trkpt><trkpt lat="30.135638916050294" lon="-6.325079954144301"><ele>894.3333333333333</ele><time>2026-03-23T09:11:34.953Z</time></trkpt><trkpt lat="30.135532522360364" lon="-6.324900464469506"><ele>894.0</ele><time>2026-03-23T09:11:35.953Z</time></trkpt><trkpt lat="30.135444938785295" lon="-6.324743141152811"><ele>894.0</ele><time>2026-03-23T09:11:36.954Z</time></trkpt><trkpt lat="30.13535983399876" lon="-6.324593259946369"><ele>894.0</ele><time>2026-03-23T09:11:37.954Z</time></trkpt><trkpt lat="30.135269075938375" lon="-6.324448631283631"><ele>894.0</ele><time>2026-03-23T09:11:38.954Z</time></trkpt><trkpt lat="30.135175074437367" lon="-6.324280650713989"><ele>894.0</ele><time>2026-03-23T09:11:39.953Z</time></trkpt><trkpt lat="30.135087411651543" lon="-6.324088952837284"><ele>894.0</ele><time>2026-03-23T09:11:40.953Z</time></trkpt><trkpt lat="30.134994421982945" lon="-6.32388017209985"><ele>894.0</ele><time>2026-03-23T09:11:41.954Z</time></trkpt><trkpt lat="30.13491451940541" lon="-6.323674470341957"><ele>893.6666666666667</ele><time>2026-03-23T09:11:42.953Z</time></trkpt><trkpt lat="30.134832325201163" lon="-6.323505409006203"><ele>893.3333333333334</ele><time>2026-03-23T09:11:43.953Z</time></trkpt><trkpt lat="30.13474064319246" lon="-6.323365401083216"><ele>893.0</ele><time>2026-03-23T09:11:44.953Z</time></trkpt><trkpt lat="30.134649654170325" lon="-6.323230565232376"><ele>893.0</ele><time>2026-03-23T09:11:45.953Z</time></trkpt><trkpt lat="30.134566660076917" lon="-6.323092440047725"><ele>893.0</ele><time>2026-03-23T09:11:46.953Z</time></trkpt><trkpt lat="30.134487056367377" lon="-6.322927299527339"><ele>893.0</ele><time>2026-03-23T09:11:47.953Z</time></trkpt><trkpt lat="30.134398823908327" lon="-6.322772612072191"><ele>892.6666666666667</ele><time>2026-03-23T09:11:48.953Z</time></trkpt><trkpt lat="30.134304304724242" lon="-6.322614380135134"><ele>892.3333333333333</ele><time>2026-03-23T09:11:49.953Z</time></trkpt><trkpt lat="30.134225999198062" lon="-6.322423951861488"><ele>892.0</ele><time>2026-03-23T09:11:50.953Z</time></trkpt><trkpt lat="30.13414521391601" lon="-6.32226989156372"><ele>892.25</ele><time>2026-03-23T09:11:51.953Z</time></trkpt><trkpt lat="30.134058718557878" lon="-6.322126699542283"><ele>892.5</ele><time>2026-03-23T09:11:52.953Z</time></trkpt><trkpt lat="30.13391439544494" lon="-6.322041778055704"><ele>892.75</ele><time>2026-03-23T09:11:53.953Z</time></trkpt><trkpt lat="30.13384238258162" lon="-6.321929006686207"><ele>893.0</ele><time>2026-03-23T09:11:54.953Z</time></trkpt><trkpt lat="30.133763984958517" lon="-6.321801305299994"><ele>893.0</ele><time>2026-03-23T09:11:55.953Z</time></trkpt><trkpt lat="30.13368092882336" lon="-6.32166601575539"><ele>893.0</ele><time>2026-03-23T09:11:56.953Z</time></trkpt><trkpt lat="30.133597414829616" lon="-6.321529907775978"><ele>893.0</ele><time>2026-03-23T09:11:57.953Z</time></trkpt><trkpt lat="30.1335150439825" lon="-6.32139564305943"><ele>893.0</ele><time>2026-03-23T09:11:58.953Z</time></trkpt><trkpt lat="30.133422443850012" lon="-6.321244704247179"><ele>893.0</ele><time>2026-03-23T09:11:59.953Z</time></trkpt><trkpt lat="30.133323738674967" lon="-6.321084138851625"><ele>893.0</ele><time>2026-03-23T09:12:00.953Z</time></trkpt><trkpt lat="30.133234777044642" lon="-6.32093959924107"><ele>893.0</ele><time>2026-03-23T09:12:01.953Z</time></trkpt><trkpt lat="30.133147265575666" lon="-6.320805590344726"><ele>893.0</ele><time>2026-03-23T09:12:02.953Z</time></trkpt><trkpt lat="30.13305770738029" lon="-6.320685352360368"><ele>893.0</ele><time>2026-03-23T09:12:03.953Z</time></trkpt><trkpt lat="30.13297992804805" lon="-6.320567367380918"><ele>893.0</ele><time>2026-03-23T09:12:04.953Z</time></trkpt><trkpt lat="30.1329026270022" lon="-6.320444606393886"><ele>893.0</ele><time>2026-03-23T09:12:05.953Z</time></trkpt><trkpt lat="30.132830219275707" lon="-6.320322149530753"><ele>893.0</ele><time>2026-03-23T09:12:06.953Z</time></trkpt><trkpt lat="30.132760649454973" lon="-6.3201921369644305"><ele>893.0</ele><time>2026-03-23T09:12:07.953Z</time></trkpt><trkpt lat="30.1326901030679" lon="-6.320060126318203"><ele>893.0</ele><time>2026-03-23T09:12:08.953Z</time></trkpt><trkpt lat="30.13262450553628" lon="-6.319936106997028"><ele>893.0</ele><time>2026-03-23T09:12:09.953Z</time></trkpt><trkpt lat="30.132565045840195" lon="-6.319816780415904"><ele>892.75</ele><time>2026-03-23T09:12:10.953Z</time></trkpt><trkpt lat="30.132502481016065" lon="-6.31970927465982"><ele>892.5</ele><time>2026-03-23T09:12:11.953Z</time></trkpt><trkpt lat="30.132429716732826" lon="-6.319615783812188"><ele>892.25</ele><time>2026-03-23T09:12:12.953Z</time></trkpt><trkpt lat="30.132342509415903" lon="-6.319517296975627"><ele>892.0</ele><time>2026-03-23T09:12:13.953Z</time></trkpt><trkpt lat="30.132264401136492" lon="-6.319403676871716"><ele>892.0</ele><time>2026-03-23T09:12:14.953Z</time></trkpt><trkpt lat="30.132194077398538" lon="-6.319284809698006"><ele>892.0</ele><time>2026-03-23T09:12:15.953Z</time></trkpt><trkpt lat="30.13212109164774" lon="-6.3191674804682565"><ele>892.0</ele><time>2026-03-23T09:12:16.953Z</time></trkpt><trkpt lat="30.132043815817877" lon="-6.31904449430257"><ele>892.0</ele><time>2026-03-23T09:12:17.953Z</time></trkpt><trkpt lat="30.13196150905863" lon="-6.31891208997509"><ele>891.6666666666666</ele><time>2026-03-23T09:12:18.953Z</time></trkpt><trkpt lat="30.131876911589256" lon="-6.318785502303175"><ele>891.3333333333333</ele><time>2026-03-23T09:12:19.953Z</time></trkpt><trkpt lat="30.13178138314006" lon="-6.3186512258509895"><ele>891.0</ele><time>2026-03-23T09:12:20.953Z</time></trkpt><trkpt lat="30.131683565528235" lon="-6.31847810849265"><ele>891.0</ele><time>2026-03-23T09:12:21.953Z</time></trkpt><trkpt lat="30.1315805765269" lon="-6.318321708157215"><ele>891.0</ele><time>2026-03-23T09:12:22.953Z</time></trkpt><trkpt lat="30.131471639133842" lon="-6.318175672573792"><ele>891.0</ele><time>2026-03-23T09:12:23.953Z</time></trkpt><trkpt lat="30.131369990402053" lon="-6.318024077374206"><ele>890.6666666666667</ele><time>2026-03-23T09:12:24.953Z</time></trkpt><trkpt lat="30.131263123437176" lon="-6.3178670531189205"><ele>890.3333333333334</ele><time>2026-03-23T09:12:25.953Z</time></trkpt><trkpt lat="30.131142034051617" lon="-6.317700345972016"><ele>890.0</ele><time>2026-03-23T09:12:26.953Z</time></trkpt><trkpt lat="30.131028615333598" lon="-6.317547549476463"><ele>890.0</ele><time>2026-03-23T09:12:27.953Z</time></trkpt><trkpt lat="30.13091619600993" lon="-6.317412342468471"><ele>890.0</ele><time>2026-03-23T09:12:28.953Z</time></trkpt><trkpt lat="30.130798070055103" lon="-6.317281668372517"><ele>890.0</ele><time>2026-03-23T09:12:29.953Z</time></trkpt><trkpt lat="30.130661171648086" lon="-6.317150705578404"><ele>889.25</ele><time>2026-03-23T09:12:30.953Z</time></trkpt><trkpt lat="30.130519121188865" lon="-6.31703138915896"><ele>888.5</ele><time>2026-03-23T09:12:31.953Z</time></trkpt><trkpt lat="30.130400528635604" lon="-6.316937503457377"><ele>887.75</ele><time>2026-03-23T09:12:32.953Z</time></trkpt><trkpt lat="30.130308177891095" lon="-6.316840912668489"><ele>887.0</ele><time>2026-03-23T09:12:33.953Z</time></trkpt><trkpt lat="30.130228399161737" lon="-6.316726259083336"><ele>887.0</ele><time>2026-03-23T09:12:34.953Z</time></trkpt><trkpt lat="30.130162804985968" lon="-6.316603599079172"><ele>887.0</ele><time>2026-03-23T09:12:35.953Z</time></trkpt><trkpt lat="30.130107128421606" lon="-6.31646839789962"><ele>887.0</ele><time>2026-03-23T09:12:36.953Z</time></trkpt><trkpt lat="30.130051025807887" lon="-6.316333331891729"><ele>887.0</ele><time>2026-03-23T09:12:37.953Z</time></trkpt><trkpt lat="30.12998693254982" lon="-6.316199676654286"><ele>887.0</ele><time>2026-03-23T09:12:38.953Z</time></trkpt><trkpt lat="30.129913240894385" lon="-6.316074600506778"><ele>887.0</ele><time>2026-03-23T09:12:39.953Z</time></trkpt><trkpt lat="30.129824594792552" lon="-6.315960884960625"><ele>887.0</ele><time>2026-03-23T09:12:40.953Z</time></trkpt><trkpt lat="30.129726131467713" lon="-6.315858151751147"><ele>887.0</ele><time>2026-03-23T09:12:41.953Z</time></trkpt><trkpt lat="30.129643768736017" lon="-6.315763221163251"><ele>886.8</ele><time>2026-03-23T09:12:42.953Z</time></trkpt><trkpt lat="30.12957568806727" lon="-6.315667432051292"><ele>886.6</ele><time>2026-03-23T09:12:43.953Z</time></trkpt><trkpt lat="30.129533826787245" lon="-6.315564521596528"><ele>886.3999999999999</ele><time>2026-03-23T09:12:44.953Z</time></trkpt><trkpt lat="30.129510234204627" lon="-6.315451965434295"><ele>886.1999999999999</ele><time>2026-03-23T09:12:45.953Z</time></trkpt><trkpt lat="30.129490947649" lon="-6.315333469670602"><ele>886.0</ele><time>2026-03-23T09:12:46.953Z</time></trkpt><trkpt lat="30.129446493517637" lon="-6.315215318254455"><ele>886.0</ele><time>2026-03-23T09:12:47.953Z</time></trkpt><trkpt lat="30.129408225935272" lon="-6.3150928876837575"><ele>885.9999999999999</ele><time>2026-03-23T09:12:48.953Z</time></trkpt><trkpt lat="30.129383770970282" lon="-6.31497264788964"><ele>885.9999999999999</ele><time>2026-03-23T09:12:49.953Z</time></trkpt><trkpt lat="30.12935287258193" lon="-6.3148558938377395"><ele>886.0</ele><time>2026-03-23T09:12:50.953Z</time></trkpt><trkpt lat="30.129326414589205" lon="-6.314748774497895"><ele>886.0</ele><time>2026-03-23T09:12:51.953Z</time></trkpt><trkpt lat="30.129311233564753" lon="-6.31463372098931"><ele>886.0</ele><time>2026-03-23T09:12:52.953Z</time></trkpt><trkpt lat="30.129285239893495" lon="-6.3145237417227404"><ele>886.0</ele><time>2026-03-23T09:12:53.953Z</time></trkpt><trkpt lat="30.129249297918115" lon="-6.3143916391759864"><ele>886.0</ele><time>2026-03-23T09:12:54.953Z</time></trkpt><trkpt lat="30.129196558855508" lon="-6.314270388684161"><ele>886.0</ele><time>2026-03-23T09:12:55.953Z</time></trkpt><trkpt lat="30.129117350507133" lon="-6.314155496603429"><ele>886.0</ele><time>2026-03-23T09:12:56.953Z</time></trkpt><trkpt lat="30.129007328055852" lon="-6.314058084762547"><ele>886.0</ele><time>2026-03-23T09:12:57.953Z</time></trkpt><trkpt lat="30.12893062319222" lon="-6.3139265517812655"><ele>886.0</ele><time>2026-03-23T09:12:58.953Z</time></trkpt><trkpt lat="30.128850434411632" lon="-6.313801092392957"><ele>886.0</ele><time>2026-03-23T09:12:59.953Z</time></trkpt><trkpt lat="30.128770366610627" lon="-6.313670826750826"><ele>886.0</ele><time>2026-03-23T09:13:00.953Z</time></trkpt><trkpt lat="30.12868412698359" lon="-6.313530519849157"><ele>886.0</ele><time>2026-03-23T09:13:01.953Z</time></trkpt><trkpt lat="30.12859922477304" lon="-6.313392388881112"><ele>886.0</ele><time>2026-03-23T09:13:02.953Z</time></trkpt><trkpt lat="30.12851318452104" lon="-6.313252406390307"><ele>886.0</ele><time>2026-03-23T09:13:03.953Z</time></trkpt><trkpt lat="30.12843139262378" lon="-6.313119335781031"><ele>885.75</ele><time>2026-03-23T09:13:04.953Z</time></trkpt><trkpt lat="30.12835367045365" lon="-6.312992717218885"><ele>885.5</ele><time>2026-03-23T09:13:05.953Z</time></trkpt><trkpt lat="30.12828056952843" lon="-6.312873468542887"><ele>885.25</ele><time>2026-03-23T09:13:06.953Z</time></trkpt><trkpt lat="30.128208140809893" lon="-6.312755333396831"><ele>885.0</ele><time>2026-03-23T09:13:07.953Z</time></trkpt><trkpt lat="30.128132267096202" lon="-6.312631925367288"><ele>885.0</ele><time>2026-03-23T09:13:08.953Z</time></trkpt><trkpt lat="30.128052056774536" lon="-6.312501463905596"><ele>885.0</ele><time>2026-03-23T09:13:09.953Z</time></trkpt><trkpt lat="30.127971291334568" lon="-6.312370099473788"><ele>885.0</ele><time>2026-03-23T09:13:10.953Z</time></trkpt><trkpt lat="30.127886820737448" lon="-6.312232708669789"><ele>885.0</ele><time>2026-03-23T09:13:11.953Z</time></trkpt><trkpt lat="30.127793337407784" lon="-6.312087498339755"><ele>885.0</ele><time>2026-03-23T09:13:12.953Z</time></trkpt><trkpt lat="30.127710332920667" lon="-6.311945652574135"><ele>885.0</ele><time>2026-03-23T09:13:13.953Z</time></trkpt><trkpt lat="30.12763221019099" lon="-6.311818625713043"><ele>885.0</ele><time>2026-03-23T09:13:14.953Z</time></trkpt><trkpt lat="30.12755492055465" lon="-6.311692984655368"><ele>885.0</ele><time>2026-03-23T09:13:15.953Z</time></trkpt><trkpt lat="30.127480676689213" lon="-6.311572294676217"><ele>885.0</ele><time>2026-03-23T09:13:16.953Z</time></trkpt><trkpt lat="30.127412685972118" lon="-6.311461769613454"><ele>885.0</ele><time>2026-03-23T09:13:17.953Z</time></trkpt><trkpt lat="30.127344388622706" lon="-6.311350688768708"><ele>885.0</ele><time>2026-03-23T09:13:18.953Z</time></trkpt><trkpt lat="30.127276693911558" lon="-6.311240532228071"><ele>885.0</ele><time>2026-03-23T09:13:19.953Z</time></trkpt><trkpt lat="30.127198942025654" lon="-6.3111140096663565"><ele>884.0</ele><time>2026-03-23T09:13:20.953Z</time></trkpt><trkpt lat="30.12711645391206" lon="-6.310979606641228"><ele>883.0</ele><time>2026-03-23T09:13:21.953Z</time></trkpt><trkpt lat="30.12704276690359" lon="-6.3108596864563715"><ele>882.0</ele><time>2026-03-23T09:13:22.953Z</time></trkpt><trkpt lat="30.12696215139969" lon="-6.310728483598189"><ele>881.0</ele><time>2026-03-23T09:13:23.953Z</time></trkpt><trkpt lat="30.126895442296746" lon="-6.310619545878032"><ele>881.5</ele><time>2026-03-23T09:13:24.953Z</time></trkpt><trkpt lat="30.126806260585173" lon="-6.310481984301882"><ele>882.0</ele><time>2026-03-23T09:13:25.953Z</time></trkpt><trkpt lat="30.126749542554325" lon="-6.310327146539869"><ele>882.5</ele><time>2026-03-23T09:13:26.953Z</time></trkpt><trkpt lat="30.126696760016866" lon="-6.310181107900587"><ele>883.0</ele><time>2026-03-23T09:13:27.953Z</time></trkpt><trkpt lat="30.126648958698638" lon="-6.3100488513735495"><ele>883.0</ele><time>2026-03-23T09:13:28.953Z</time></trkpt><trkpt lat="30.126600906418894" lon="-6.309891349324552"><ele>883.0</ele><time>2026-03-23T09:13:29.953Z</time></trkpt><trkpt lat="30.126559301734193" lon="-6.309766742086981"><ele>883.0</ele><time>2026-03-23T09:13:30.953Z</time></trkpt><trkpt lat="30.126506617135647" lon="-6.309659581959468"><ele>883.0</ele><time>2026-03-23T09:13:31.953Z</time></trkpt><trkpt lat="30.126468238670498" lon="-6.309554023550267"><ele>882.9999999999999</ele><time>2026-03-23T09:13:32.953Z</time></trkpt><trkpt lat="30.126445181588565" lon="-6.309448581136848"><ele>883.0</ele><time>2026-03-23T09:13:33.953Z</time></trkpt><trkpt lat="30.126395197243056" lon="-6.309354196507758"><ele>883.0</ele><time>2026-03-23T09:13:34.953Z</time></trkpt><trkpt lat="30.1263618925358" lon="-6.309260997989015"><ele>883.0</ele><time>2026-03-23T09:13:35.953Z</time></trkpt><trkpt lat="30.12632856763515" lon="-6.309168971095113"><ele>882.9999999999999</ele><time>2026-03-23T09:13:36.953Z</time></trkpt><trkpt lat="30.126296530628753" lon="-6.3090805006308"><ele>883.0</ele><time>2026-03-23T09:13:37.953Z</time></trkpt><trkpt lat="30.12626686828306" lon="-6.308999042316999"><ele>882.9999999999999</ele><time>2026-03-23T09:13:38.953Z</time></trkpt><trkpt lat="30.12623698098893" lon="-6.308916546730334"><ele>883.0</ele><time>2026-03-23T09:13:39.953Z</time></trkpt><trkpt lat="30.126207679102446" lon="-6.308835666891221"><ele>883.0</ele><time>2026-03-23T09:13:40.953Z</time></trkpt><trkpt lat="30.126177439722877" lon="-6.308752199258667"><ele>883.0</ele><time>2026-03-23T09:13:41.952Z</time></trkpt><trkpt lat="30.126149458634394" lon="-6.308674965165295"><ele>882.9999999999999</ele><time>2026-03-23T09:13:42.953Z</time></trkpt><trkpt lat="30.126117742424853" lon="-6.308587421226704"><ele>883.0</ele><time>2026-03-23T09:13:43.953Z</time></trkpt><trkpt lat="30.12608077915378" lon="-6.308485046637061"><ele>883.0</ele><time>2026-03-23T09:13:44.953Z</time></trkpt><trkpt lat="30.126036007557897" lon="-6.308360915326848"><ele>883.0</ele><time>2026-03-23T09:13:45.952Z</time></trkpt><trkpt lat="30.126007740551934" lon="-6.308214686879865"><ele>883.0</ele><time>2026-03-23T09:13:46.952Z</time></trkpt><trkpt lat="30.12595202540833" lon="-6.3080510349230074"><ele>883.0</ele><time>2026-03-23T09:13:47.953Z</time></trkpt><trkpt lat="30.125905928981187" lon="-6.307888665255129"><ele>882.75</ele><time>2026-03-23T09:13:48.952Z</time></trkpt><trkpt lat="30.12586580574381" lon="-6.307715034753005"><ele>882.5</ele><time>2026-03-23T09:13:49.952Z</time></trkpt><trkpt lat="30.12580879108187" lon="-6.307573409003116"><ele>882.25</ele><time>2026-03-23T09:13:50.953Z</time></trkpt><trkpt lat="30.125738381360613" lon="-6.307442754238937"><ele>882.0</ele><time>2026-03-23T09:13:51.952Z</time></trkpt><trkpt lat="30.12566464523514" lon="-6.307308673023007"><ele>881.75</ele><time>2026-03-23T09:13:52.952Z</time></trkpt><trkpt lat="30.125596471996516" lon="-6.307164399764578"><ele>881.5</ele><time>2026-03-23T09:13:53.953Z</time></trkpt><trkpt lat="30.12553013895625" lon="-6.3070106636044745"><ele>881.25</ele><time>2026-03-23T09:13:54.953Z</time></trkpt><trkpt lat="30.125468174382004" lon="-6.306852685999502"><ele>881.0</ele><time>2026-03-23T09:13:55.953Z</time></trkpt><trkpt lat="30.125411141504035" lon="-6.306689141368845"><ele>881.0</ele><time>2026-03-23T09:13:56.953Z</time></trkpt><trkpt lat="30.125364875670193" lon="-6.306523032538894"><ele>881.0</ele><time>2026-03-23T09:13:57.953Z</time></trkpt><trkpt lat="30.125330183653748" lon="-6.306369530699095"><ele>881.0</ele><time>2026-03-23T09:13:58.953Z</time></trkpt><trkpt lat="30.125299268401516" lon="-6.306231650951968"><ele>881.0</ele><time>2026-03-23T09:13:59.953Z</time></trkpt><trkpt lat="30.125270000242793" lon="-6.306088680166768"><ele>881.0</ele><time>2026-03-23T09:14:00.953Z</time></trkpt><trkpt lat="30.125250807729397" lon="-6.305925334925204"><ele>881.0</ele><time>2026-03-23T09:14:01.953Z</time></trkpt><trkpt lat="30.12523288963371" lon="-6.305750102666005"><ele>881.0</ele><time>2026-03-23T09:14:02.953Z</time></trkpt><trkpt lat="30.1252041638361" lon="-6.305571790510914"><ele>880.5</ele><time>2026-03-23T09:14:03.953Z</time></trkpt><trkpt lat="30.125161326491714" lon="-6.305410663135089"><ele>880.0</ele><time>2026-03-23T09:14:04.953Z</time></trkpt><trkpt lat="30.125110577362967" lon="-6.305262094202823"><ele>879.5</ele><time>2026-03-23T09:14:05.953Z</time></trkpt><trkpt lat="30.125047126968695" lon="-6.305112780165548"><ele>879.0</ele><time>2026-03-23T09:14:06.953Z</time></trkpt><trkpt lat="30.124984536178935" lon="-6.304955219064784"><ele>879.0</ele><time>2026-03-23T09:14:07.953Z</time></trkpt><trkpt lat="30.124929191900847" lon="-6.304778916438203"><ele>879.0</ele><time>2026-03-23T09:14:08.953Z</time></trkpt><trkpt lat="30.124882276070824" lon="-6.30459163929085"><ele>879.0</ele><time>2026-03-23T09:14:09.953Z</time></trkpt><trkpt lat="30.124841368860476" lon="-6.304422254758302"><ele>878.75</ele><time>2026-03-23T09:14:10.953Z</time></trkpt><trkpt lat="30.124803728959986" lon="-6.304263359955383"><ele>878.5</ele><time>2026-03-23T09:14:11.953Z</time></trkpt><trkpt lat="30.124763524164173" lon="-6.304109789094822"><ele>878.25</ele><time>2026-03-23T09:14:12.953Z</time></trkpt><trkpt lat="30.12472899134886" lon="-6.3039623981430335"><ele>878.0</ele><time>2026-03-23T09:14:13.953Z</time></trkpt><trkpt lat="30.124703361582082" lon="-6.3038133077890555"><ele>878.0</ele><time>2026-03-23T09:14:14.953Z</time></trkpt><trkpt lat="30.12468253254876" lon="-6.3036635381297845"><ele>878.0</ele><time>2026-03-23T09:14:15.953Z</time></trkpt><trkpt lat="30.124654410503126" lon="-6.3035266763557045"><ele>878.0</ele><time>2026-03-23T09:14:16.953Z</time></trkpt><trkpt lat="30.124593742583652" lon="-6.303394439045268"><ele>878.0</ele><time>2026-03-23T09:14:17.953Z</time></trkpt><trkpt lat="30.124512948478678" lon="-6.303267986741282"><ele>878.0</ele><time>2026-03-23T09:14:18.953Z</time></trkpt><trkpt lat="30.124425141477534" lon="-6.303154372779586"><ele>878.0</ele><time>2026-03-23T09:14:19.953Z</time></trkpt><trkpt lat="30.12434781068566" lon="-6.303051817004471"><ele>878.0</ele><time>2026-03-23T09:14:20.953Z</time></trkpt><trkpt lat="30.124277701879013" lon="-6.3029201587398695"><ele>878.0</ele><time>2026-03-23T09:14:21.953Z</time></trkpt><trkpt lat="30.12420844980583" lon="-6.302787298234427"><ele>878.0</ele><time>2026-03-23T09:14:22.953Z</time></trkpt><trkpt lat="30.124144027481872" lon="-6.302652323729218"><ele>878.0</ele><time>2026-03-23T09:14:23.953Z</time></trkpt><trkpt lat="30.124079947487882" lon="-6.302502983935788"><ele>878.0</ele><time>2026-03-23T09:14:24.953Z</time></trkpt><trkpt lat="30.12401180836596" lon="-6.302355551814238"><ele>878.0</ele><time>2026-03-23T09:14:25.953Z</time></trkpt><trkpt lat="30.12394207451557" lon="-6.302192752835744"><ele>878.0</ele><time>2026-03-23T09:14:26.953Z</time></trkpt><trkpt lat="30.123881212449323" lon="-6.302030363537602"><ele>878.0</ele><time>2026-03-23T09:14:27.953Z</time></trkpt><trkpt lat="30.12382128301035" lon="-6.30187035202629"><ele>878.0</ele><time>2026-03-23T09:14:28.953Z</time></trkpt><trkpt lat="30.123750613677807" lon="-6.3017112108719555"><ele>878.0</ele><time>2026-03-23T09:14:29.953Z</time></trkpt><trkpt lat="30.123684227171218" lon="-6.301557482636067"><ele>878.0</ele><time>2026-03-23T09:14:30.953Z</time></trkpt><trkpt lat="30.123606608758447" lon="-6.301400711213679"><ele>878.0</ele><time>2026-03-23T09:14:31.953Z</time></trkpt><trkpt lat="30.123529358406326" lon="-6.301238374912778"><ele>877.75</ele><time>2026-03-23T09:14:32.953Z</time></trkpt><trkpt lat="30.12346739812427" lon="-6.301077709843796"><ele>877.5</ele><time>2026-03-23T09:14:33.953Z</time></trkpt><trkpt lat="30.123418875893698" lon="-6.300918816645459"><ele>877.25</ele><time>2026-03-23T09:14:34.953Z</time></trkpt><trkpt lat="30.123381307302076" lon="-6.300770663192078"><ele>877.0</ele><time>2026-03-23T09:14:35.953Z</time></trkpt><trkpt lat="30.123347743219004" lon="-6.300617471031012"><ele>877.0</ele><time>2026-03-23T09:14:36.953Z</time></trkpt><trkpt lat="30.12331484797763" lon="-6.300459230366778"><ele>877.0</ele><time>2026-03-23T09:14:37.953Z</time></trkpt><trkpt lat="30.123281236391595" lon="-6.300302142084078"><ele>877.0</ele><time>2026-03-23T09:14:38.953Z</time></trkpt><trkpt lat="30.123227935564213" lon="-6.300145474676815"><ele>877.0</ele><time>2026-03-23T09:14:39.953Z</time></trkpt><trkpt lat="30.123161537353305" lon="-6.299987932310466"><ele>876.6666666666666</ele><time>2026-03-23T09:14:40.953Z</time></trkpt><trkpt lat="30.1230810187984" lon="-6.29982294866198"><ele>876.3333333333333</ele><time>2026-03-23T09:14:41.952Z</time></trkpt><trkpt lat="30.122983897759404" lon="-6.299651814166055"><ele>876.0</ele><time>2026-03-23T09:14:42.952Z</time></trkpt><trkpt lat="30.12288661050887" lon="-6.29947973676512"><ele>875.6666666666667</ele><time>2026-03-23T09:14:43.952Z</time></trkpt><trkpt lat="30.122788210160497" lon="-6.299306031693458"><ele>875.3333333333334</ele><time>2026-03-23T09:14:44.952Z</time></trkpt><trkpt lat="30.12268546247901" lon="-6.29912995099915"><ele>875.0</ele><time>2026-03-23T09:14:45.952Z</time></trkpt><trkpt lat="30.122594906883553" lon="-6.298951630387586"><ele>875.0</ele><time>2026-03-23T09:14:46.952Z</time></trkpt><trkpt lat="30.122509842127386" lon="-6.2987700622675495"><ele>875.0</ele><time>2026-03-23T09:14:47.952Z</time></trkpt><trkpt lat="30.12242838461435" lon="-6.29858741731899"><ele>875.0</ele><time>2026-03-23T09:14:48.952Z</time></trkpt><trkpt lat="30.122343843835022" lon="-6.298401788153429"><ele>875.6666666666667</ele><time>2026-03-23T09:14:49.952Z</time></trkpt><trkpt lat="30.12226487856608" lon="-6.298217116873064"><ele>876.3333333333333</ele><time>2026-03-23T09:14:50.952Z</time></trkpt><trkpt lat="30.122205743884816" lon="-6.298027832562391"><ele>877.0</ele><time>2026-03-23T09:14:51.952Z</time></trkpt><trkpt lat="30.122153341107524" lon="-6.297837359988687"><ele>877.0</ele><time>2026-03-23T09:14:52.952Z</time></trkpt><trkpt lat="30.122096996124107" lon="-6.297651965546704"><ele>877.0</ele><time>2026-03-23T09:14:53.952Z</time></trkpt><trkpt lat="30.122026075802847" lon="-6.297474444348884"><ele>877.0</ele><time>2026-03-23T09:14:54.952Z</time></trkpt><trkpt lat="30.12196728986639" lon="-6.297306962217585"><ele>876.75</ele><time>2026-03-23T09:14:55.952Z</time></trkpt><trkpt lat="30.121925699088795" lon="-6.2971505790086"><ele>876.5</ele><time>2026-03-23T09:14:56.952Z</time></trkpt><trkpt lat="30.121905915203207" lon="-6.296984394011506"><ele>876.25</ele><time>2026-03-23T09:14:57.952Z</time></trkpt><trkpt lat="30.121908417114376" lon="-6.296826444322641"><ele>876.0</ele><time>2026-03-23T09:14:58.952Z</time></trkpt><trkpt lat="30.12190822285626" lon="-6.296664143616025"><ele>876.0</ele><time>2026-03-23T09:14:59.952Z</time></trkpt><trkpt lat="30.12191134456456" lon="-6.2965076830151485"><ele>876.0</ele><time>2026-03-23T09:15:00.952Z</time></trkpt><trkpt lat="30.12190900344853" lon="-6.296360016775652"><ele>876.0</ele><time>2026-03-23T09:15:01.952Z</time></trkpt><trkpt lat="30.121898902765665" lon="-6.2962151931454935"><ele>876.0</ele><time>2026-03-23T09:15:02.952Z</time></trkpt><trkpt lat="30.121881213377364" lon="-6.2960713420079175"><ele>875.0</ele><time>2026-03-23T09:15:03.952Z</time></trkpt><trkpt lat="30.121859300525454" lon="-6.295937227329877"><ele>874.0</ele><time>2026-03-23T09:15:04.952Z</time></trkpt><trkpt lat="30.121843278737217" lon="-6.29580964246333"><ele>873.0</ele><time>2026-03-23T09:15:05.952Z</time></trkpt><trkpt lat="30.12183951100719" lon="-6.295676059353993"><ele>872.0</ele><time>2026-03-23T09:15:06.952Z</time></trkpt><trkpt lat="30.12184580655944" lon="-6.295544970816906"><ele>871.6</ele><time>2026-03-23T09:15:07.952Z</time></trkpt><trkpt lat="30.121836657035097" lon="-6.295418272881163"><ele>871.2</ele><time>2026-03-23T09:15:08.952Z</time></trkpt><trkpt lat="30.12180340475018" lon="-6.295281335102608"><ele>870.8</ele><time>2026-03-23T09:15:09.952Z</time></trkpt><trkpt lat="30.121780791936448" lon="-6.29516021369994"><ele>870.4</ele><time>2026-03-23T09:15:10.952Z</time></trkpt><trkpt lat="30.121748643863477" lon="-6.295045137616088"><ele>870.0</ele><time>2026-03-23T09:15:11.952Z</time></trkpt><trkpt lat="30.12169002637035" lon="-6.294926687074115"><ele>870.0</ele><time>2026-03-23T09:15:12.952Z</time></trkpt><trkpt lat="30.12163072156478" lon="-6.294807115045248"><ele>870.0</ele><time>2026-03-23T09:15:13.952Z</time></trkpt><trkpt lat="30.121585142496844" lon="-6.294671141293081"><ele>870.0</ele><time>2026-03-23T09:15:14.952Z</time></trkpt><trkpt lat="30.121531020793487" lon="-6.294527293532564"><ele>870.0</ele><time>2026-03-23T09:15:15.952Z</time></trkpt><trkpt lat="30.121463103464258" lon="-6.294384360722271"><ele>870.6666666666667</ele><time>2026-03-23T09:15:16.952Z</time></trkpt><trkpt lat="30.12138237416132" lon="-6.294226744252164"><ele>871.3333333333334</ele><time>2026-03-23T09:15:17.952Z</time></trkpt><trkpt lat="30.121302390019544" lon="-6.294054227174985"><ele>872.0</ele><time>2026-03-23T09:15:18.952Z</time></trkpt><trkpt lat="30.121230580417617" lon="-6.293868423165283"><ele>872.0</ele><time>2026-03-23T09:15:19.952Z</time></trkpt><trkpt lat="30.121161263603806" lon="-6.293696203593192"><ele>872.0</ele><time>2026-03-23T09:15:20.952Z</time></trkpt><trkpt lat="30.12108987288919" lon="-6.2935498708084205"><ele>872.0</ele><time>2026-03-23T09:15:21.952Z</time></trkpt><trkpt lat="30.12100143154171" lon="-6.293427597977407"><ele>872.0</ele><time>2026-03-23T09:15:22.952Z</time></trkpt><trkpt lat="30.120916596827435" lon="-6.293300870963944"><ele>872.0</ele><time>2026-03-23T09:15:23.952Z</time></trkpt><trkpt lat="30.120845628565004" lon="-6.293155265564755"><ele>872.0</ele><time>2026-03-23T09:15:24.952Z</time></trkpt><trkpt lat="30.120773656404925" lon="-6.293014943617097"><ele>872.0</ele><time>2026-03-23T09:15:25.952Z</time></trkpt><trkpt lat="30.120691254596267" lon="-6.292890182888971"><ele>872.0</ele><time>2026-03-23T09:15:26.952Z</time></trkpt><trkpt lat="30.120620098201293" lon="-6.292750412727787"><ele>872.0</ele><time>2026-03-23T09:15:27.952Z</time></trkpt><trkpt lat="30.120567585381572" lon="-6.292581657008269"><ele>872.0</ele><time>2026-03-23T09:15:28.952Z</time></trkpt><trkpt lat="30.1205233838887" lon="-6.292399647386689"><ele>872.0</ele><time>2026-03-23T09:15:29.952Z</time></trkpt><trkpt lat="30.12047750404099" lon="-6.2922019206715225"><ele>872.0</ele><time>2026-03-23T09:15:30.952Z</time></trkpt><trkpt lat="30.120432292781782" lon="-6.292000094680568"><ele>872.0</ele><time>2026-03-23T09:15:31.952Z</time></trkpt><trkpt lat="30.120390156146986" lon="-6.29179963492314"><ele>872.0</ele><time>2026-03-23T09:15:32.952Z</time></trkpt><trkpt lat="30.120349152157928" lon="-6.291598911696095"><ele>871.3333333333334</ele><time>2026-03-23T09:15:33.952Z</time></trkpt><trkpt lat="30.120311326163293" lon="-6.291404369926788"><ele>870.6666666666667</ele><time>2026-03-23T09:15:34.952Z</time></trkpt><trkpt lat="30.120278347875455" lon="-6.291214384702527"><ele>870.0</ele><time>2026-03-23T09:15:35.952Z</time></trkpt><trkpt lat="30.120238466389416" lon="-6.2910261839380075"><ele>870.0</ele><time>2026-03-23T09:15:36.952Z</time></trkpt><trkpt lat="30.120201229308293" lon="-6.290845987631139"><ele>870.0</ele><time>2026-03-23T09:15:37.952Z</time></trkpt><trkpt lat="30.12016188700245" lon="-6.290674215055984"><ele>870.0</ele><time>2026-03-23T09:15:38.952Z</time></trkpt><trkpt lat="30.120133168060516" lon="-6.290498876665564"><ele>869.6666666666667</ele><time>2026-03-23T09:15:39.952Z</time></trkpt><trkpt lat="30.12010420918869" lon="-6.290311933608242"><ele>869.3333333333334</ele><time>2026-03-23T09:15:40.952Z</time></trkpt><trkpt lat="30.12008065354276" lon="-6.290120102893379"><ele>869.0</ele><time>2026-03-23T09:15:41.952Z</time></trkpt><trkpt lat="30.12006155662765" lon="-6.289918507009513"><ele>868.3333333333334</ele><time>2026-03-23T09:15:42.952Z</time></trkpt><trkpt lat="30.120041484168944" lon="-6.289705904962798"><ele>867.6666666666667</ele><time>2026-03-23T09:15:43.952Z</time></trkpt><trkpt lat="30.120019067788938" lon="-6.289486474318781"><ele>867.0</ele><time>2026-03-23T09:15:44.952Z</time></trkpt><trkpt lat="30.11999317476695" lon="-6.2892707309052875"><ele>867.0</ele><time>2026-03-23T09:15:45.952Z</time></trkpt><trkpt lat="30.1199668477248" lon="-6.289070225549565"><ele>867.0</ele><time>2026-03-23T09:15:46.952Z</time></trkpt><trkpt lat="30.119931148088543" lon="-6.288870959144534"><ele>867.0</ele><time>2026-03-23T09:15:47.952Z</time></trkpt><trkpt lat="30.119906823672935" lon="-6.288679753704487"><ele>867.6666666666667</ele><time>2026-03-23T09:15:48.952Z</time></trkpt><trkpt lat="30.11988049938746" lon="-6.28848773388604"><ele>868.3333333333334</ele><time>2026-03-23T09:15:49.952Z</time></trkpt><trkpt lat="30.119871554976083" lon="-6.2882988552083985"><ele>869.0</ele><time>2026-03-23T09:15:50.952Z</time></trkpt><trkpt lat="30.11987194257778" lon="-6.288103372307081"><ele>868.3333333333334</ele><time>2026-03-23T09:15:51.952Z</time></trkpt><trkpt lat="30.11987151458514" lon="-6.287903977989218"><ele>867.6666666666667</ele><time>2026-03-23T09:15:52.952Z</time></trkpt><trkpt lat="30.119860365452542" lon="-6.287719823589812"><ele>867.0</ele><time>2026-03-23T09:15:53.952Z</time></trkpt><trkpt lat="30.119844078935753" lon="-6.287549766251113"><ele>867.0</ele><time>2026-03-23T09:15:54.951Z</time></trkpt><trkpt lat="30.119810196209055" lon="-6.287388910985294"><ele>867.0</ele><time>2026-03-23T09:15:55.951Z</time></trkpt><trkpt lat="30.119761742587034" lon="-6.28722840804651"><ele>867.0</ele><time>2026-03-23T09:15:56.952Z</time></trkpt><trkpt lat="30.119728724970365" lon="-6.287068295957941"><ele>867.0</ele><time>2026-03-23T09:15:57.951Z</time></trkpt><trkpt lat="30.1197146773622" lon="-6.286894133770981"><ele>867.0</ele><time>2026-03-23T09:15:58.951Z</time></trkpt><trkpt lat="30.119690718148007" lon="-6.286714651319441"><ele>867.0</ele><time>2026-03-23T09:15:59.952Z</time></trkpt><trkpt lat="30.119664976475583" lon="-6.286514586674078"><ele>867.0</ele><time>2026-03-23T09:16:00.951Z</time></trkpt><trkpt lat="30.119642065170748" lon="-6.286322859252029"><ele>866.3333333333333</ele><time>2026-03-23T09:16:01.951Z</time></trkpt><trkpt lat="30.119613869398865" lon="-6.286121794667936"><ele>865.6666666666666</ele><time>2026-03-23T09:16:02.951Z</time></trkpt><trkpt lat="30.11957705117175" lon="-6.285905706091169"><ele>865.0</ele><time>2026-03-23T09:16:03.951Z</time></trkpt><trkpt lat="30.1195275426649" lon="-6.285713357028896"><ele>865.6666666666666</ele><time>2026-03-23T09:16:04.951Z</time></trkpt><trkpt lat="30.119480644925858" lon="-6.285541896776305"><ele>866.3333333333333</ele><time>2026-03-23T09:16:05.951Z</time></trkpt><trkpt lat="30.119448145458357" lon="-6.2853690807079365"><ele>867.0</ele><time>2026-03-23T09:16:06.951Z</time></trkpt><trkpt lat="30.11942845459312" lon="-6.285183658770155"><ele>867.0</ele><time>2026-03-23T09:16:07.951Z</time></trkpt><trkpt lat="30.119414274187008" lon="-6.284991397478694"><ele>867.0</ele><time>2026-03-23T09:16:08.951Z</time></trkpt><trkpt lat="30.119400431499617" lon="-6.284822596356434"><ele>867.0</ele><time>2026-03-23T09:16:09.951Z</time></trkpt><trkpt lat="30.119376244569107" lon="-6.284670266880731"><ele>867.0</ele><time>2026-03-23T09:16:10.951Z</time></trkpt><trkpt lat="30.119340488279303" lon="-6.2845181166856"><ele>866.5</ele><time>2026-03-23T09:16:11.951Z</time></trkpt><trkpt lat="30.119308565697903" lon="-6.284355452322763"><ele>866.0</ele><time>2026-03-23T09:16:12.951Z</time></trkpt><trkpt lat="30.119287117319264" lon="-6.284181485408759"><ele>865.5</ele><time>2026-03-23T09:16:13.951Z</time></trkpt><trkpt lat="30.119276181305448" lon="-6.284011716125766"><ele>865.0</ele><time>2026-03-23T09:16:14.951Z</time></trkpt><trkpt lat="30.119254535685762" lon="-6.28387200304856"><ele>865.0</ele><time>2026-03-23T09:16:15.951Z</time></trkpt><trkpt lat="30.11919936591193" lon="-6.283735462424243"><ele>865.0</ele><time>2026-03-23T09:16:16.951Z</time></trkpt><trkpt lat="30.119112319011176" lon="-6.283585498605901"><ele>865.0</ele><time>2026-03-23T09:16:17.951Z</time></trkpt><trkpt lat="30.119031019972493" lon="-6.283438818216866"><ele>865.0</ele><time>2026-03-23T09:16:18.951Z</time></trkpt><trkpt lat="30.118978676504454" lon="-6.283321112549207"><ele>865.0</ele><time>2026-03-23T09:16:19.951Z</time></trkpt><trkpt lat="30.118952631777386" lon="-6.283215124081942"><ele>865.0</ele><time>2026-03-23T09:16:20.951Z</time></trkpt><trkpt lat="30.118959098164513" lon="-6.283093040823702"><ele>865.0</ele><time>2026-03-23T09:16:21.951Z</time></trkpt><trkpt lat="30.118994588463003" lon="-6.282938179354763"><ele>865.0</ele><time>2026-03-23T09:16:22.951Z</time></trkpt><trkpt lat="30.119029884457685" lon="-6.282782680111616"><ele>865.0</ele><time>2026-03-23T09:16:23.951Z</time></trkpt><trkpt lat="30.119038775438533" lon="-6.28263546610655"><ele>865.0</ele><time>2026-03-23T09:16:24.951Z</time></trkpt><trkpt lat="30.119031295144833" lon="-6.282480192653076"><ele>865.0</ele><time>2026-03-23T09:16:25.951Z</time></trkpt><trkpt lat="30.11904467619108" lon="-6.282342854326317"><ele>865.0</ele><time>2026-03-23T09:16:26.951Z</time></trkpt><trkpt lat="30.119049581974984" lon="-6.282218775239029"><ele>864.5</ele><time>2026-03-23T09:16:27.951Z</time></trkpt><trkpt lat="30.11905505175981" lon="-6.282100139241215"><ele>864.0</ele><time>2026-03-23T09:16:28.951Z</time></trkpt><trkpt lat="30.119045242408156" lon="-6.281960952161317"><ele>863.5</ele><time>2026-03-23T09:16:29.951Z</time></trkpt><trkpt lat="30.119038691832273" lon="-6.281806028719995"><ele>863.0</ele><time>2026-03-23T09:16:30.951Z</time></trkpt><trkpt lat="30.119037442609557" lon="-6.2816341758670635"><ele>863.0</ele><time>2026-03-23T09:16:31.951Z</time></trkpt><trkpt lat="30.119046381803788" lon="-6.281456820177442"><ele>863.0</ele><time>2026-03-23T09:16:32.951Z</time></trkpt><trkpt lat="30.119064448921495" lon="-6.281291009591485"><ele>863.0</ele><time>2026-03-23T09:16:33.951Z</time></trkpt><trkpt lat="30.119078062554795" lon="-6.28113554930375"><ele>863.0</ele><time>2026-03-23T09:16:34.951Z</time></trkpt><trkpt lat="30.11906985879779" lon="-6.280985467681078"><ele>863.25</ele><time>2026-03-23T09:16:35.951Z</time></trkpt><trkpt lat="30.11905169797107" lon="-6.280844299197649"><ele>863.5</ele><time>2026-03-23T09:16:36.951Z</time></trkpt><trkpt lat="30.11901520836251" lon="-6.2807021139843195"><ele>863.75</ele><time>2026-03-23T09:16:37.951Z</time></trkpt><trkpt lat="30.118975688783742" lon="-6.280545428827341"><ele>864.0</ele><time>2026-03-23T09:16:38.951Z</time></trkpt><trkpt lat="30.11893829821456" lon="-6.2803783675018785"><ele>863.5</ele><time>2026-03-23T09:16:39.951Z</time></trkpt><trkpt lat="30.11891218509041" lon="-6.280205269272939"><ele>863.0</ele><time>2026-03-23T09:16:40.951Z</time></trkpt><trkpt lat="30.118885140807013" lon="-6.2800486215980325"><ele>862.5</ele><time>2026-03-23T09:16:41.951Z</time></trkpt><trkpt lat="30.118864813540885" lon="-6.279893043986396"><ele>862.0</ele><time>2026-03-23T09:16:42.951Z</time></trkpt><trkpt lat="30.118848462993295" lon="-6.2797260818192475"><ele>861.6666666666666</ele><time>2026-03-23T09:16:43.951Z</time></trkpt><trkpt lat="30.118825096217606" lon="-6.279541183688729"><ele>861.3333333333333</ele><time>2026-03-23T09:16:44.951Z</time></trkpt><trkpt lat="30.118806915673087" lon="-6.279349403579432"><ele>861.0</ele><time>2026-03-23T09:16:45.951Z</time></trkpt><trkpt lat="30.11880034076588" lon="-6.279168966660687"><ele>861.0</ele><time>2026-03-23T09:16:46.951Z</time></trkpt><trkpt lat="30.118811899431567" lon="-6.278989372693022"><ele>861.0</ele><time>2026-03-23T09:16:47.951Z</time></trkpt><trkpt lat="30.1188262703431" lon="-6.278806224562783"><ele>861.0</ele><time>2026-03-23T09:16:48.951Z</time></trkpt><trkpt lat="30.118824793833724" lon="-6.278621743305679"><ele>861.0</ele><time>2026-03-23T09:16:49.951Z</time></trkpt><trkpt lat="30.118815315902644" lon="-6.278440223074249"><ele>861.0</ele><time>2026-03-23T09:16:50.951Z</time></trkpt><trkpt lat="30.118794006128354" lon="-6.27825820545819"><ele>861.0</ele><time>2026-03-23T09:16:51.951Z</time></trkpt><trkpt lat="30.118773671064723" lon="-6.278070875807906"><ele>861.0</ele><time>2026-03-23T09:16:52.951Z</time></trkpt><trkpt lat="30.118739672246903" lon="-6.277892905616227"><ele>861.0</ele><time>2026-03-23T09:16:53.951Z</time></trkpt><trkpt lat="30.11870293393377" lon="-6.277721246618024"><ele>861.0</ele><time>2026-03-23T09:16:54.951Z</time></trkpt><trkpt lat="30.11865513070419" lon="-6.277548722966265"><ele>861.0</ele><time>2026-03-23T09:16:55.951Z</time></trkpt><trkpt lat="30.118608557310445" lon="-6.277375888504164"><ele>861.0</ele><time>2026-03-23T09:16:56.951Z</time></trkpt><trkpt lat="30.118569730874388" lon="-6.277207282294657"><ele>861.0</ele><time>2026-03-23T09:16:57.951Z</time></trkpt><trkpt lat="30.118535583600945" lon="-6.277042961087577"><ele>859.6666666666667</ele><time>2026-03-23T09:16:58.951Z</time></trkpt><trkpt lat="30.118499826367096" lon="-6.27688465186943"><ele>858.3333333333334</ele><time>2026-03-23T09:16:59.951Z</time></trkpt><trkpt lat="30.118448967093315" lon="-6.276724246958363"><ele>857.0</ele><time>2026-03-23T09:17:00.951Z</time></trkpt><trkpt lat="30.118388488466895" lon="-6.276545718591401"><ele>857.3333333333334</ele><time>2026-03-23T09:17:01.951Z</time></trkpt><trkpt lat="30.118332736008743" lon="-6.276317977417119"><ele>857.6666666666667</ele><time>2026-03-23T09:17:02.951Z</time></trkpt><trkpt lat="30.118294620800466" lon="-6.276104624572189"><ele>858.0</ele><time>2026-03-23T09:17:03.951Z</time></trkpt><trkpt lat="30.11828388969807" lon="-6.275925880288032"><ele>858.0</ele><time>2026-03-23T09:17:04.951Z</time></trkpt><trkpt lat="30.118293243236145" lon="-6.275793133970585"><ele>858.0</ele><time>2026-03-23T09:17:05.951Z</time></trkpt><trkpt lat="30.11832165604641" lon="-6.275672990270511"><ele>858.0</ele><time>2026-03-23T09:17:06.951Z</time></trkpt><trkpt lat="30.118361127774456" lon="-6.275556399835903"><ele>858.0</ele><time>2026-03-23T09:17:07.951Z</time></trkpt><trkpt lat="30.118409423153498" lon="-6.275443819953989"><ele>858.0</ele><time>2026-03-23T09:17:08.951Z</time></trkpt><trkpt lat="30.118462357471756" lon="-6.275334019126234"><ele>858.0</ele><time>2026-03-23T09:17:09.951Z</time></trkpt><trkpt lat="30.118501770410905" lon="-6.275210732063687"><ele>858.0</ele><time>2026-03-23T09:17:10.951Z</time></trkpt><trkpt lat="30.118520016324734" lon="-6.275076859372029"><ele>858.0</ele><time>2026-03-23T09:17:11.951Z</time></trkpt><trkpt lat="30.118522668999606" lon="-6.274930547619661"><ele>858.0</ele><time>2026-03-23T09:17:12.951Z</time></trkpt><trkpt lat="30.118515687353778" lon="-6.274787871379867"><ele>857.8</ele><time>2026-03-23T09:17:13.951Z</time></trkpt><trkpt lat="30.11849502792635" lon="-6.274655067305797"><ele>857.5999999999999</ele><time>2026-03-23T09:17:14.951Z</time></trkpt><trkpt lat="30.1184898627825" lon="-6.2745345417613825"><ele>857.4000000000001</ele><time>2026-03-23T09:17:15.951Z</time></trkpt><trkpt lat="30.118486954385375" lon="-6.274413677135573"><ele>857.2</ele><time>2026-03-23T09:17:16.951Z</time></trkpt><trkpt lat="30.118491356581544" lon="-6.274274721081536"><ele>857.0</ele><time>2026-03-23T09:17:17.951Z</time></trkpt><trkpt lat="30.118488841350366" lon="-6.2741240889411225"><ele>857.0</ele><time>2026-03-23T09:17:18.951Z</time></trkpt><trkpt lat="30.118468609636597" lon="-6.273952529328098"><ele>857.0</ele><time>2026-03-23T09:17:19.951Z</time></trkpt><trkpt lat="30.118443573127127" lon="-6.2737948576992055"><ele>857.0</ele><time>2026-03-23T09:17:20.951Z</time></trkpt><trkpt lat="30.11841421747585" lon="-6.273647192225429"><ele>857.0</ele><time>2026-03-23T09:17:21.951Z</time></trkpt><trkpt lat="30.118366776358965" lon="-6.273476064302686"><ele>856.6666666666667</ele><time>2026-03-23T09:17:22.951Z</time></trkpt><trkpt lat="30.11831425126094" lon="-6.273285520301791"><ele>856.3333333333333</ele><time>2026-03-23T09:17:23.951Z</time></trkpt><trkpt lat="30.118251418161865" lon="-6.273081049097454"><ele>856.0</ele><time>2026-03-23T09:17:24.951Z</time></trkpt><trkpt lat="30.118180890686975" lon="-6.2728930269954875"><ele>856.5</ele><time>2026-03-23T09:17:25.951Z</time></trkpt><trkpt lat="30.118121005229096" lon="-6.272732508657802"><ele>857.0</ele><time>2026-03-23T09:17:26.951Z</time></trkpt><trkpt lat="30.118074877899154" lon="-6.27258647693619"><ele>857.5</ele><time>2026-03-23T09:17:27.951Z</time></trkpt><trkpt lat="30.11804214270018" lon="-6.2724327278588685"><ele>858.0</ele><time>2026-03-23T09:17:28.951Z</time></trkpt><trkpt lat="30.118034618410658" lon="-6.272272393537919"><ele>858.0</ele><time>2026-03-23T09:17:29.951Z</time></trkpt><trkpt lat="30.118022659708203" lon="-6.2721233281878535"><ele>858.0</ele><time>2026-03-23T09:17:30.951Z</time></trkpt><trkpt lat="30.118000677284154" lon="-6.271955675833459"><ele>858.0</ele><time>2026-03-23T09:17:31.951Z</time></trkpt><trkpt lat="30.11796049054017" lon="-6.271782107878922"><ele>858.0</ele><time>2026-03-23T09:17:32.951Z</time></trkpt><trkpt lat="30.117895170543015" lon="-6.271604712973453"><ele>857.0</ele><time>2026-03-23T09:17:33.951Z</time></trkpt><trkpt lat="30.11782696620035" lon="-6.2714216035339625"><ele>856.0</ele><time>2026-03-23T09:17:34.951Z</time></trkpt><trkpt lat="30.117764036820407" lon="-6.271248414202273"><ele>855.0</ele><time>2026-03-23T09:17:35.951Z</time></trkpt><trkpt lat="30.11768471120653" lon="-6.271083808104405"><ele>855.0</ele><time>2026-03-23T09:17:36.951Z</time></trkpt><trkpt lat="30.117599142945462" lon="-6.270903190873949"><ele>855.0</ele><time>2026-03-23T09:17:37.951Z</time></trkpt><trkpt lat="30.117524147852897" lon="-6.2707030752376625"><ele>855.0</ele><time>2026-03-23T09:17:38.951Z</time></trkpt><trkpt lat="30.11744612222187" lon="-6.270505568790125"><ele>856.0</ele><time>2026-03-23T09:17:39.951Z</time></trkpt><trkpt lat="30.117365816972697" lon="-6.270333903476562"><ele>857.0</ele><time>2026-03-23T09:17:40.951Z</time></trkpt><trkpt lat="30.117293820165056" lon="-6.27017795210254"><ele>858.0</ele><time>2026-03-23T09:17:41.951Z</time></trkpt><trkpt lat="30.117234746494116" lon="-6.270023112670702"><ele>858.0</ele><time>2026-03-23T09:17:42.951Z</time></trkpt><trkpt lat="30.117195768230008" lon="-6.2698655648710355"><ele>858.0</ele><time>2026-03-23T09:17:43.951Z</time></trkpt><trkpt lat="30.117173571972653" lon="-6.269712988602733"><ele>858.0</ele><time>2026-03-23T09:17:44.951Z</time></trkpt><trkpt lat="30.117147677751465" lon="-6.26955341784434"><ele>858.0</ele><time>2026-03-23T09:17:45.951Z</time></trkpt><trkpt lat="30.11711826126594" lon="-6.269409340693118"><ele>857.4</ele><time>2026-03-23T09:17:46.951Z</time></trkpt><trkpt lat="30.11707863994083" lon="-6.269287153094098"><ele>856.8</ele><time>2026-03-23T09:17:47.951Z</time></trkpt><trkpt lat="30.117036221343135" lon="-6.269198819010647"><ele>856.2</ele><time>2026-03-23T09:17:48.951Z</time></trkpt><trkpt lat="30.116974964339043" lon="-6.269119368373088"><ele>855.6</ele><time>2026-03-23T09:17:49.951Z</time></trkpt><trkpt lat="30.116894418950732" lon="-6.269040929321635"><ele>855.0</ele><time>2026-03-23T09:17:50.951Z</time></trkpt><trkpt lat="30.11680470508713" lon="-6.268945238665409"><ele>854.5</ele><time>2026-03-23T09:17:51.951Z</time></trkpt><trkpt lat="30.116730982793978" lon="-6.268833540168782"><ele>854.0</ele><time>2026-03-23T09:17:52.95Z</time></trkpt><trkpt lat="30.116669796726548" lon="-6.268682622892584"><ele>853.5</ele><time>2026-03-23T09:17:53.951Z</time></trkpt><trkpt lat="30.116618636509365" lon="-6.26851347639325"><ele>853.0</ele><time>2026-03-23T09:17:54.951Z</time></trkpt><trkpt lat="30.11657296254119" lon="-6.268340655456618"><ele>853.3333333333333</ele><time>2026-03-23T09:17:55.951Z</time></trkpt><trkpt lat="30.116507909806096" lon="-6.268178131987168"><ele>853.6666666666667</ele><time>2026-03-23T09:17:56.952Z</time></trkpt><trkpt lat="30.116422343804498" lon="-6.268007469055264"><ele>854.0</ele><time>2026-03-23T09:17:57.951Z</time></trkpt><trkpt lat="30.116339746852066" lon="-6.267820456680858"><ele>854.0</ele><time>2026-03-23T09:17:58.951Z</time></trkpt><trkpt lat="30.116278645955877" lon="-6.267611520100729"><ele>854.0</ele><time>2026-03-23T09:17:59.951Z</time></trkpt><trkpt lat="30.116231773257102" lon="-6.267398626128219"><ele>854.0</ele><time>2026-03-23T09:18:00.951Z</time></trkpt><trkpt lat="30.116207803096778" lon="-6.267212487082625"><ele>854.0</ele><time>2026-03-23T09:18:01.951Z</time></trkpt><trkpt lat="30.11617723544702" lon="-6.267048628285736"><ele>854.0</ele><time>2026-03-23T09:18:02.951Z</time></trkpt><trkpt lat="30.116136714785394" lon="-6.2668788530015"><ele>854.0</ele><time>2026-03-23T09:18:03.951Z</time></trkpt><trkpt lat="30.116088142657176" lon="-6.266713780205529"><ele>854.0</ele><time>2026-03-23T09:18:04.951Z</time></trkpt><trkpt lat="30.116046925066247" lon="-6.26655451824208"><ele>854.2</ele><time>2026-03-23T09:18:05.951Z</time></trkpt><trkpt lat="30.116026096326642" lon="-6.266411735868268"><ele>854.4000000000001</ele><time>2026-03-23T09:18:06.951Z</time></trkpt><trkpt lat="30.11601330480745" lon="-6.266287214457842"><ele>854.6</ele><time>2026-03-23T09:18:07.951Z</time></trkpt><trkpt lat="30.115994728516963" lon="-6.266195280995217"><ele>854.8</ele><time>2026-03-23T09:18:08.951Z</time></trkpt><trkpt lat="30.115951942856274" lon="-6.266128172456688"><ele>855.0</ele><time>2026-03-23T09:18:09.951Z</time></trkpt><trkpt lat="30.11587777828536" lon="-6.266068805181106"><ele>855.0</ele><time>2026-03-23T09:18:10.951Z</time></trkpt><trkpt lat="30.115793648026123" lon="-6.266016082137827"><ele>855.0</ele><time>2026-03-23T09:18:11.951Z</time></trkpt><trkpt lat="30.115710475523898" lon="-6.265966770709957"><ele>855.0</ele><time>2026-03-23T09:18:12.951Z</time></trkpt><trkpt lat="30.11563221489832" lon="-6.265916735385969"><ele>855.0</ele><time>2026-03-23T09:18:13.951Z</time></trkpt><trkpt lat="30.115557126499315" lon="-6.265868147978769"><ele>855.0</ele><time>2026-03-23T09:18:14.951Z</time></trkpt><trkpt lat="30.115480535973877" lon="-6.265804624326141"><ele>854.6</ele><time>2026-03-23T09:18:15.951Z</time></trkpt><trkpt lat="30.11539782429525" lon="-6.265723465908582"><ele>854.2</ele><time>2026-03-23T09:18:16.951Z</time></trkpt><trkpt lat="30.11531038477537" lon="-6.265646291346583"><ele>853.8</ele><time>2026-03-23T09:18:17.951Z</time></trkpt><trkpt lat="30.1152132227762" lon="-6.265582122567213"><ele>853.4</ele><time>2026-03-23T09:18:18.951Z</time></trkpt><trkpt lat="30.115115185701658" lon="-6.265511519909697"><ele>853.0</ele><time>2026-03-23T09:18:19.951Z</time></trkpt><trkpt lat="30.115022772777" lon="-6.265397454591198"><ele>852.75</ele><time>2026-03-23T09:18:20.951Z</time></trkpt><trkpt lat="30.11494825846809" lon="-6.265254604608386"><ele>852.5</ele><time>2026-03-23T09:18:21.951Z</time></trkpt><trkpt lat="30.114884208068723" lon="-6.265104976220136"><ele>852.25</ele><time>2026-03-23T09:18:22.951Z</time></trkpt><trkpt lat="30.11482527915442" lon="-6.264932672502045"><ele>852.0</ele><time>2026-03-23T09:18:23.951Z</time></trkpt><trkpt lat="30.114776283916495" lon="-6.264776062948983"><ele>851.25</ele><time>2026-03-23T09:18:24.951Z</time></trkpt><trkpt lat="30.11474418786341" lon="-6.264619424101198"><ele>850.5</ele><time>2026-03-23T09:18:25.951Z</time></trkpt><trkpt lat="30.114710391112837" lon="-6.264459894860009"><ele>849.75</ele><time>2026-03-23T09:18:26.951Z</time></trkpt><trkpt lat="30.114648107838907" lon="-6.264312833367353"><ele>849.0</ele><time>2026-03-23T09:18:27.951Z</time></trkpt><trkpt lat="30.114571392261308" lon="-6.264177376729639"><ele>849.0</ele><time>2026-03-23T09:18:28.951Z</time></trkpt><trkpt lat="30.11450059983231" lon="-6.26404831356809"><ele>849.0</ele><time>2026-03-23T09:18:29.951Z</time></trkpt><trkpt lat="30.114427386321815" lon="-6.263924509112213"><ele>849.0</ele><time>2026-03-23T09:18:30.951Z</time></trkpt><trkpt lat="30.114363424356938" lon="-6.263795159978705"><ele>849.0</ele><time>2026-03-23T09:18:31.951Z</time></trkpt><trkpt lat="30.114304066959885" lon="-6.2636473982140215"><ele>849.0</ele><time>2026-03-23T09:18:32.951Z</time></trkpt><trkpt lat="30.11425706375708" lon="-6.263501346558724"><ele>849.0</ele><time>2026-03-23T09:18:33.951Z</time></trkpt><trkpt lat="30.114237265440337" lon="-6.263353803007976"><ele>849.0</ele><time>2026-03-23T09:18:34.951Z</time></trkpt><trkpt lat="30.114237772213773" lon="-6.263211352613204"><ele>849.0</ele><time>2026-03-23T09:18:35.951Z</time></trkpt><trkpt lat="30.114247896574813" lon="-6.263092840737682"><ele>849.1666666666666</ele><time>2026-03-23T09:18:36.951Z</time></trkpt><trkpt lat="30.11426361358579" lon="-6.262993424524638"><ele>849.3333333333333</ele><time>2026-03-23T09:18:37.951Z</time></trkpt><trkpt lat="30.11427867379342" lon="-6.2629015719991585"><ele>849.5</ele><time>2026-03-23T09:18:38.951Z</time></trkpt><trkpt lat="30.114288434911025" lon="-6.262819488242588"><ele>849.6666666666666</ele><time>2026-03-23T09:18:39.951Z</time></trkpt><trkpt lat="30.114300124633886" lon="-6.262745066469098"><ele>849.8333333333333</ele><time>2026-03-23T09:18:40.951Z</time></trkpt><trkpt lat="30.114320829359205" lon="-6.262614869080097"><ele>850.0</ele><time>2026-03-23T09:18:42.951Z</time></trkpt><trkpt lat="30.114366892575212" lon="-6.262496543784468"><ele>850.0</ele><time>2026-03-23T09:18:44.951Z</time></trkpt><trkpt lat="30.11440238146471" lon="-6.262343841911868"><ele>850.0</ele><time>2026-03-23T09:18:46.951Z</time></trkpt><trkpt lat="30.114411585409684" lon="-6.26226087649372"><ele>850.0</ele><time>2026-03-23T09:18:47.951Z</time></trkpt><trkpt lat="30.114431115052373" lon="-6.262186713772464"><ele>850.0</ele><time>2026-03-23T09:18:48.951Z</time></trkpt><trkpt lat="30.114481280958305" lon="-6.262072745183975"><ele>850.0</ele><time>2026-03-23T09:18:50.951Z</time></trkpt><trkpt lat="30.1145099254533" lon="-6.261999373538253"><ele>849.9999999999999</ele><time>2026-03-23T09:18:51.951Z</time></trkpt><trkpt lat="30.114517023489277" lon="-6.261926931914835"><ele>850.0</ele><time>2026-03-23T09:18:52.951Z</time></trkpt><trkpt lat="30.114525165717993" lon="-6.261843104300877"><ele>850.0</ele><time>2026-03-23T09:18:53.951Z</time></trkpt><trkpt lat="30.114537978553663" lon="-6.261749233791155"><ele>850.0</ele><time>2026-03-23T09:18:54.951Z</time></trkpt><trkpt lat="30.114560792330582" lon="-6.261648873401756"><ele>849.9999999999999</ele><time>2026-03-23T09:18:55.951Z</time></trkpt><trkpt lat="30.11459227825216" lon="-6.2615276318993685"><ele>850.0</ele><time>2026-03-23T09:18:56.951Z</time></trkpt><trkpt lat="30.11462824157589" lon="-6.261376133975442"><ele>850.0</ele><time>2026-03-23T09:18:57.951Z</time></trkpt><trkpt lat="30.114656161141514" lon="-6.261224590520344"><ele>850.0</ele><time>2026-03-23T09:18:58.951Z</time></trkpt><trkpt lat="30.114685197916558" lon="-6.26105170228134"><ele>850.0</ele><time>2026-03-23T09:18:59.951Z</time></trkpt><trkpt lat="30.114693566652715" lon="-6.260879507226822"><ele>850.0</ele><time>2026-03-23T09:19:00.951Z</time></trkpt><trkpt lat="30.114717697139575" lon="-6.2606980286696"><ele>849.3333333333333</ele><time>2026-03-23T09:19:01.951Z</time></trkpt><trkpt lat="30.114738703482256" lon="-6.260497987636837"><ele>848.6666666666667</ele><time>2026-03-23T09:19:02.951Z</time></trkpt><trkpt lat="30.114750961438045" lon="-6.260274687251157"><ele>848.0</ele><time>2026-03-23T09:19:03.951Z</time></trkpt><trkpt lat="30.114763819086352" lon="-6.260063433016695"><ele>848.0</ele><time>2026-03-23T09:19:04.951Z</time></trkpt><trkpt lat="30.11477573594438" lon="-6.259854247597731"><ele>848.0</ele><time>2026-03-23T09:19:05.951Z</time></trkpt><trkpt lat="30.114802079710866" lon="-6.2596338406528975"><ele>848.0</ele><time>2026-03-23T09:19:06.951Z</time></trkpt><trkpt lat="30.11483205821668" lon="-6.259387906840138"><ele>848.0</ele><time>2026-03-23T09:19:07.951Z</time></trkpt><trkpt lat="30.114854443052398" lon="-6.259161586440625"><ele>848.0</ele><time>2026-03-23T09:19:08.951Z</time></trkpt><trkpt lat="30.114877512199445" lon="-6.258957920333572"><ele>848.0</ele><time>2026-03-23T09:19:09.951Z</time></trkpt><trkpt lat="30.1149049847836" lon="-6.258722278886483"><ele>848.0</ele><time>2026-03-23T09:19:10.951Z</time></trkpt><trkpt lat="30.11493685785067" lon="-6.258470579831669"><ele>848.0</ele><time>2026-03-23T09:19:11.951Z</time></trkpt><trkpt lat="30.114960442904266" lon="-6.258249689919701"><ele>848.0</ele><time>2026-03-23T09:19:12.951Z</time></trkpt><trkpt lat="30.11498703266813" lon="-6.258052427623535"><ele>848.0</ele><time>2026-03-23T09:19:13.951Z</time></trkpt><trkpt lat="30.115027140850174" lon="-6.2578484956840486"><ele>848.0</ele><time>2026-03-23T09:19:14.951Z</time></trkpt><trkpt lat="30.115062970044548" lon="-6.257661087812704"><ele>848.0</ele><time>2026-03-23T09:19:15.951Z</time></trkpt><trkpt lat="30.115117974246793" lon="-6.2574676767342945"><ele>847.25</ele><time>2026-03-23T09:19:16.951Z</time></trkpt><trkpt lat="30.11517212210277" lon="-6.257282896232541"><ele>846.5</ele><time>2026-03-23T09:19:17.951Z</time></trkpt><trkpt lat="30.115216580653225" lon="-6.257129223039701"><ele>845.75</ele><time>2026-03-23T09:19:18.951Z</time></trkpt><trkpt lat="30.115258516459562" lon="-6.2569857889541565"><ele>845.0</ele><time>2026-03-23T09:19:19.951Z</time></trkpt><trkpt lat="30.115315973903662" lon="-6.256850054316616"><ele>845.0</ele><time>2026-03-23T09:19:20.951Z</time></trkpt><trkpt lat="30.1153656325255" lon="-6.256698710754365"><ele>845.0</ele><time>2026-03-23T09:19:21.951Z</time></trkpt><trkpt lat="30.115387136262004" lon="-6.256534479152734"><ele>845.0</ele><time>2026-03-23T09:19:22.951Z</time></trkpt><trkpt lat="30.11539883539753" lon="-6.256350807383357"><ele>845.0</ele><time>2026-03-23T09:19:23.951Z</time></trkpt><trkpt lat="30.11541845604453" lon="-6.256153886938771"><ele>844.6666666666667</ele><time>2026-03-23T09:19:24.951Z</time></trkpt><trkpt lat="30.11544296902255" lon="-6.2559411394556586"><ele>844.3333333333333</ele><time>2026-03-23T09:19:25.952Z</time></trkpt><trkpt lat="30.115466789087264" lon="-6.255758970799955"><ele>844.0</ele><time>2026-03-23T09:19:26.952Z</time></trkpt><trkpt lat="30.115486795065376" lon="-6.2556010701491305"><ele>844.0</ele><time>2026-03-23T09:19:27.952Z</time></trkpt><trkpt lat="30.115503962125615" lon="-6.2554462417047985"><ele>844.0</ele><time>2026-03-23T09:19:28.952Z</time></trkpt><trkpt lat="30.115517692009387" lon="-6.255286770385727"><ele>844.0</ele><time>2026-03-23T09:19:29.952Z</time></trkpt><trkpt lat="30.11553485513374" lon="-6.255129641144909"><ele>844.0</ele><time>2026-03-23T09:19:30.952Z</time></trkpt><trkpt lat="30.11555688528907" lon="-6.254966478775474"><ele>844.0</ele><time>2026-03-23T09:19:31.952Z</time></trkpt><trkpt lat="30.115583343222973" lon="-6.2547977368379994"><ele>844.0</ele><time>2026-03-23T09:19:32.953Z</time></trkpt><trkpt lat="30.11561559085637" lon="-6.2546334218311435"><ele>844.0</ele><time>2026-03-23T09:19:33.953Z</time></trkpt><trkpt lat="30.115649987192793" lon="-6.254463132207253"><ele>844.0</ele><time>2026-03-23T09:19:34.953Z</time></trkpt><trkpt lat="30.115673796581248" lon="-6.254296274788956"><ele>843.75</ele><time>2026-03-23T09:19:35.953Z</time></trkpt><trkpt lat="30.115692479469264" lon="-6.2541168001329295"><ele>843.5</ele><time>2026-03-23T09:19:36.953Z</time></trkpt><trkpt lat="30.115705765197696" lon="-6.253941003449292"><ele>843.25</ele><time>2026-03-23T09:19:37.953Z</time></trkpt><trkpt lat="30.115728168632202" lon="-6.253786013048449"><ele>843.0</ele><time>2026-03-23T09:19:38.953Z</time></trkpt><trkpt lat="30.11576311995411" lon="-6.2536310447437"><ele>843.0</ele><time>2026-03-23T09:19:39.953Z</time></trkpt><trkpt lat="30.115796903293834" lon="-6.253462054372417"><ele>843.0</ele><time>2026-03-23T09:19:40.953Z</time></trkpt><trkpt lat="30.11581840586768" lon="-6.253277396196071"><ele>843.0</ele><time>2026-03-23T09:19:41.953Z</time></trkpt><trkpt lat="30.1158448648887" lon="-6.253095150972352"><ele>843.0</ele><time>2026-03-23T09:19:42.953Z</time></trkpt><trkpt lat="30.115874954086387" lon="-6.252913645474324"><ele>843.0</ele><time>2026-03-23T09:19:43.953Z</time></trkpt><trkpt lat="30.115898366027345" lon="-6.252751826724089"><ele>843.0</ele><time>2026-03-23T09:19:44.953Z</time></trkpt><trkpt lat="30.115914871189126" lon="-6.252604635424602"><ele>843.0</ele><time>2026-03-23T09:19:45.953Z</time></trkpt><trkpt lat="30.11593434129395" lon="-6.252461312932599"><ele>843.0</ele><time>2026-03-23T09:19:46.953Z</time></trkpt><trkpt lat="30.115948280738667" lon="-6.2523308204565105"><ele>843.0</ele><time>2026-03-23T09:19:47.953Z</time></trkpt><trkpt lat="30.1159672713844" lon="-6.252214051002547"><ele>843.0</ele><time>2026-03-23T09:19:48.953Z</time></trkpt><trkpt lat="30.11598399862838" lon="-6.252084475501288"><ele>843.0</ele><time>2026-03-23T09:19:49.954Z</time></trkpt><trkpt lat="30.11600743344296" lon="-6.251946238209608"><ele>843.25</ele><time>2026-03-23T09:19:50.954Z</time></trkpt><trkpt lat="30.116029671865128" lon="-6.251808182647644"><ele>843.5</ele><time>2026-03-23T09:19:51.954Z</time></trkpt><trkpt lat="30.11605181284717" lon="-6.251653277882447"><ele>843.75</ele><time>2026-03-23T09:19:52.954Z</time></trkpt><trkpt lat="30.11607682261416" lon="-6.25148566035651"><ele>844.0</ele><time>2026-03-23T09:19:53.954Z</time></trkpt><trkpt lat="30.11609571036462" lon="-6.251329699945297"><ele>844.25</ele><time>2026-03-23T09:19:54.954Z</time></trkpt><trkpt lat="30.116127361784958" lon="-6.251177317183854"><ele>844.5</ele><time>2026-03-23T09:19:55.954Z</time></trkpt><trkpt lat="30.11615306153311" lon="-6.2510274422651255"><ele>844.75</ele><time>2026-03-23T09:19:56.954Z</time></trkpt><trkpt lat="30.11617185021091" lon="-6.250870251185692"><ele>845.0</ele><time>2026-03-23T09:19:57.954Z</time></trkpt><trkpt lat="30.11619207672836" lon="-6.250690236599817"><ele>844.6666666666667</ele><time>2026-03-23T09:19:58.954Z</time></trkpt><trkpt lat="30.116223475903137" lon="-6.25048265823816"><ele>844.3333333333333</ele><time>2026-03-23T09:19:59.954Z</time></trkpt><trkpt lat="30.116264629650843" lon="-6.250238020514037"><ele>844.0</ele><time>2026-03-23T09:20:00.953Z</time></trkpt><trkpt lat="30.116307623690716" lon="-6.249998160233983"><ele>844.0</ele><time>2026-03-23T09:20:01.953Z</time></trkpt><trkpt lat="30.11633378086207" lon="-6.249850734858152"><ele>844.0</ele><time>2026-03-23T09:20:02.954Z</time></trkpt><trkpt lat="30.116350474360644" lon="-6.249738582840236"><ele>844.0</ele><time>2026-03-23T09:20:03.954Z</time></trkpt><trkpt lat="30.11637649260889" lon="-6.249637713531034"><ele>844.0</ele><time>2026-03-23T09:20:04.954Z</time></trkpt><trkpt lat="30.11639104889047" lon="-6.249542192959837"><ele>844.0</ele><time>2026-03-23T09:20:05.954Z</time></trkpt><trkpt lat="30.116399883988336" lon="-6.249456160118165"><ele>843.6666666666666</ele><time>2026-03-23T09:20:06.953Z</time></trkpt><trkpt lat="30.116416452140374" lon="-6.24933990643877"><ele>843.3333333333333</ele><time>2026-03-23T09:20:08.954Z</time></trkpt><trkpt lat="30.11643309779991" lon="-6.249264579245263"><ele>843.0</ele><time>2026-03-23T09:21:56.953Z</time></trkpt><trkpt lat="30.11644412924034" lon="-6.249150908133359"><ele>842.6666666666667</ele><time>2026-03-23T09:23:32.952Z</time></trkpt><trkpt lat="30.11645547512444" lon="-6.249059545085432"><ele>842.3333333333334</ele><time>2026-03-23T09:23:33.952Z</time></trkpt><trkpt lat="30.11647472915705" lon="-6.248951143704973"><ele>842.0</ele><time>2026-03-23T09:23:34.952Z</time></trkpt><trkpt lat="30.116507016755005" lon="-6.248814171189039"><ele>842.0</ele><time>2026-03-23T09:23:35.952Z</time></trkpt><trkpt lat="30.116539070541357" lon="-6.248655007395288"><ele>842.0</ele><time>2026-03-23T09:23:36.952Z</time></trkpt><trkpt lat="30.116582777282293" lon="-6.248489204165896"><ele>842.0</ele><time>2026-03-23T09:23:37.952Z</time></trkpt><trkpt lat="30.116630723902947" lon="-6.24829755162814"><ele>841.3333333333334</ele><time>2026-03-23T09:23:38.952Z</time></trkpt><trkpt lat="30.116678043449447" lon="-6.248097828189919"><ele>840.6666666666667</ele><time>2026-03-23T09:23:39.952Z</time></trkpt><trkpt lat="30.11672994872854" lon="-6.247907363191813"><ele>840.0</ele><time>2026-03-23T09:23:40.952Z</time></trkpt><trkpt lat="30.116789910111667" lon="-6.247732984890814"><ele>840.0</ele><time>2026-03-23T09:23:41.952Z</time></trkpt><trkpt lat="30.116855593343228" lon="-6.247550216876003"><ele>840.0</ele><time>2026-03-23T09:23:42.952Z</time></trkpt><trkpt lat="30.116924688374798" lon="-6.247353048783798"><ele>840.0</ele><time>2026-03-23T09:23:43.952Z</time></trkpt><trkpt lat="30.117007458785636" lon="-6.247139555600636"><ele>840.6666666666667</ele><time>2026-03-23T09:23:44.952Z</time></trkpt><trkpt lat="30.117096770434962" lon="-6.246928640662503"><ele>841.3333333333334</ele><time>2026-03-23T09:23:45.952Z</time></trkpt><trkpt lat="30.117183578638095" lon="-6.246713143189765"><ele>842.0</ele><time>2026-03-23T09:23:46.952Z</time></trkpt><trkpt lat="30.117262888605506" lon="-6.246497646511523"><ele>842.0</ele><time>2026-03-23T09:23:47.952Z</time></trkpt><trkpt lat="30.11733709964202" lon="-6.2462830468414445"><ele>842.0</ele><time>2026-03-23T09:23:48.952Z</time></trkpt><trkpt lat="30.11741570236872" lon="-6.246062556486309"><ele>842.0</ele><time>2026-03-23T09:23:49.952Z</time></trkpt><trkpt lat="30.117488102654985" lon="-6.245833030108994"><ele>841.6666666666667</ele><time>2026-03-23T09:23:50.952Z</time></trkpt><trkpt lat="30.117558678162503" lon="-6.245606531859853"><ele>841.3333333333333</ele><time>2026-03-23T09:23:51.952Z</time></trkpt><trkpt lat="30.117622383580755" lon="-6.245394755315418"><ele>841.0</ele><time>2026-03-23T09:23:52.952Z</time></trkpt><trkpt lat="30.117677881236517" lon="-6.245199533512153"><ele>841.0</ele><time>2026-03-23T09:23:53.952Z</time></trkpt><trkpt lat="30.117720981850532" lon="-6.2450143944915"><ele>841.0</ele><time>2026-03-23T09:23:54.952Z</time></trkpt><trkpt lat="30.117762832547168" lon="-6.244840795672437"><ele>841.0</ele><time>2026-03-23T09:23:55.952Z</time></trkpt><trkpt lat="30.11779115087425" lon="-6.24465918559937"><ele>840.6666666666666</ele><time>2026-03-23T09:23:56.952Z</time></trkpt><trkpt lat="30.1177998988046" lon="-6.244466290047655"><ele>840.3333333333333</ele><time>2026-03-23T09:23:57.952Z</time></trkpt><trkpt lat="30.11780263398858" lon="-6.24425556658409"><ele>840.0</ele><time>2026-03-23T09:23:58.952Z</time></trkpt><trkpt lat="30.117801861982752" lon="-6.244046524342876"><ele>839.3333333333333</ele><time>2026-03-23T09:23:59.952Z</time></trkpt><trkpt lat="30.117800476142655" lon="-6.243848470299425"><ele>838.6666666666666</ele><time>2026-03-23T09:24:00.952Z</time></trkpt><trkpt lat="30.11779068225892" lon="-6.243659282999197"><ele>838.0</ele><time>2026-03-23T09:24:01.952Z</time></trkpt><trkpt lat="30.11778889676368" lon="-6.243472829734132"><ele>838.0</ele><time>2026-03-23T09:24:02.952Z</time></trkpt><trkpt lat="30.11778489525072" lon="-6.243293237216613"><ele>838.0</ele><time>2026-03-23T09:24:03.952Z</time></trkpt><trkpt lat="30.117780777931955" lon="-6.243122516082515"><ele>838.0</ele><time>2026-03-23T09:24:04.952Z</time></trkpt><trkpt lat="30.11778292019588" lon="-6.242941669335565"><ele>838.0</ele><time>2026-03-23T09:24:05.952Z</time></trkpt><trkpt lat="30.117789212047278" lon="-6.242761943468401"><ele>838.0</ele><time>2026-03-23T09:24:06.952Z</time></trkpt><trkpt lat="30.117797339898374" lon="-6.242600659577758"><ele>838.0</ele><time>2026-03-23T09:24:07.952Z</time></trkpt><trkpt lat="30.1178043424346" lon="-6.242443844239498"><ele>838.0</ele><time>2026-03-23T09:24:08.952Z</time></trkpt><trkpt lat="30.117812189491453" lon="-6.2422847876063114"><ele>837.0</ele><time>2026-03-23T09:24:09.952Z</time></trkpt><trkpt lat="30.117820769182682" lon="-6.242120460249199"><ele>836.0</ele><time>2026-03-23T09:24:10.952Z</time></trkpt><trkpt lat="30.117825984519953" lon="-6.241950310999262"><ele>835.0</ele><time>2026-03-23T09:24:11.952Z</time></trkpt><trkpt lat="30.11783151748402" lon="-6.241784222952232"><ele>834.0</ele><time>2026-03-23T09:24:12.952Z</time></trkpt><trkpt lat="30.11784499482577" lon="-6.241613396697165"><ele>834.25</ele><time>2026-03-23T09:24:13.952Z</time></trkpt><trkpt lat="30.117858933472277" lon="-6.241435069376274"><ele>834.5</ele><time>2026-03-23T09:24:14.952Z</time></trkpt><trkpt lat="30.117870188357426" lon="-6.241253989564599"><ele>834.75</ele><time>2026-03-23T09:24:15.952Z</time></trkpt><trkpt lat="30.117879693048902" lon="-6.2410977151741855"><ele>835.0</ele><time>2026-03-23T09:24:16.952Z</time></trkpt><trkpt lat="30.11789039820375" lon="-6.240956583605489"><ele>835.0</ele><time>2026-03-23T09:24:17.952Z</time></trkpt><trkpt lat="30.11789279923573" lon="-6.24081754043061"><ele>835.0</ele><time>2026-03-23T09:24:18.952Z</time></trkpt><trkpt lat="30.11788164357257" lon="-6.240689844669692"><ele>835.0</ele><time>2026-03-23T09:24:19.952Z</time></trkpt><trkpt lat="30.11788363642147" lon="-6.240582636605845"><ele>835.0</ele><time>2026-03-23T09:24:20.952Z</time></trkpt><trkpt lat="30.117896973161287" lon="-6.240470120140317"><ele>835.0</ele><time>2026-03-23T09:24:21.952Z</time></trkpt><trkpt lat="30.11791253157315" lon="-6.240349089886909"><ele>835.2</ele><time>2026-03-23T09:24:22.952Z</time></trkpt><trkpt lat="30.117924691207858" lon="-6.240223916821548"><ele>835.4</ele><time>2026-03-23T09:24:23.952Z</time></trkpt><trkpt lat="30.117926774568232" lon="-6.240091669335795"><ele>835.5999999999999</ele><time>2026-03-23T09:24:24.952Z</time></trkpt><trkpt lat="30.117925512455198" lon="-6.23998347520284"><ele>835.8</ele><time>2026-03-23T09:24:25.952Z</time></trkpt><trkpt lat="30.117928333214834" lon="-6.239890599990653"><ele>836.0</ele><time>2026-03-23T09:24:26.952Z</time></trkpt><trkpt lat="30.117960187994797" lon="-6.239756995569757"><ele>836.0</ele><time>2026-03-23T09:24:28.952Z</time></trkpt><trkpt lat="30.118016737205306" lon="-6.239663496762683"><ele>836.0</ele><time>2026-03-23T09:24:30.952Z</time></trkpt><trkpt lat="30.11806397063036" lon="-6.239608341850992"><ele>836.0</ele><time>2026-03-23T09:24:31.952Z</time></trkpt><trkpt lat="30.11812107457671" lon="-6.239569907696265"><ele>836.0</ele><time>2026-03-23T09:24:32.952Z</time></trkpt><trkpt lat="30.118183693593316" lon="-6.2395463556290895"><ele>836.0</ele><time>2026-03-23T09:24:33.952Z</time></trkpt><trkpt lat="30.11824835881978" lon="-6.23953813247925"><ele>836.0</ele><time>2026-03-23T09:24:34.952Z</time></trkpt><trkpt lat="30.118317510526754" lon="-6.23954612950264"><ele>836.0</ele><time>2026-03-23T09:24:35.952Z</time></trkpt><trkpt lat="30.118393550155087" lon="-6.239548878412992"><ele>836.0000000000001</ele><time>2026-03-23T09:24:36.952Z</time></trkpt><trkpt lat="30.11847290390188" lon="-6.2395459567773095"><ele>836.0</ele><time>2026-03-23T09:24:37.952Z</time></trkpt><trkpt lat="30.11854073235004" lon="-6.239539716712089"><ele>836.0</ele><time>2026-03-23T09:24:38.952Z</time></trkpt><trkpt lat="30.118611434888226" lon="-6.239559336128697"><ele>836.0</ele><time>2026-03-23T09:24:39.952Z</time></trkpt><trkpt lat="30.118682184780603" lon="-6.239571656404062"><ele>836.0000000000001</ele><time>2026-03-23T09:24:40.952Z</time></trkpt><trkpt lat="30.11879892965019" lon="-6.239564719495504"><ele>836.0</ele><time>2026-03-23T09:24:42.952Z</time></trkpt><trkpt lat="30.118890941557964" lon="-6.23952904271992"><ele>836.0</ele><time>2026-03-23T09:24:43.952Z</time></trkpt><trkpt lat="30.118985074582593" lon="-6.2394746226443845"><ele>836.0</ele><time>2026-03-23T09:24:44.952Z</time></trkpt><trkpt lat="30.119084662719672" lon="-6.239404065682712"><ele>836.0</ele><time>2026-03-23T09:24:45.952Z</time></trkpt><trkpt lat="30.119190499528948" lon="-6.239335928773827"><ele>836.0</ele><time>2026-03-23T09:24:46.952Z</time></trkpt><trkpt lat="30.119274939428706" lon="-6.239261590647441"><ele>836.0</ele><time>2026-03-23T09:24:47.951Z</time></trkpt><trkpt lat="30.11935389950385" lon="-6.23918295801631"><ele>836.1999999999999</ele><time>2026-03-23T09:24:48.951Z</time></trkpt><trkpt lat="30.11941329863064" lon="-6.239098263964738"><ele>836.4</ele><time>2026-03-23T09:24:49.951Z</time></trkpt><trkpt lat="30.1194695383979" lon="-6.238996320444086"><ele>836.6</ele><time>2026-03-23T09:24:50.951Z</time></trkpt><trkpt lat="30.119536970231035" lon="-6.238883514622742"><ele>836.8</ele><time>2026-03-23T09:24:51.951Z</time></trkpt><trkpt lat="30.119612307130378" lon="-6.238778082811654"><ele>837.0</ele><time>2026-03-23T09:24:52.951Z</time></trkpt><trkpt lat="30.119720110091635" lon="-6.2386930246767385"><ele>837.6666666666667</ele><time>2026-03-23T09:24:53.951Z</time></trkpt><trkpt lat="30.11986735019667" lon="-6.238630538584621"><ele>838.3333333333334</ele><time>2026-03-23T09:24:54.951Z</time></trkpt><trkpt lat="30.120019839903204" lon="-6.238590357080018"><ele>839.0</ele><time>2026-03-23T09:24:55.951Z</time></trkpt><trkpt lat="30.12015686248151" lon="-6.238576582375198"><ele>839.0</ele><time>2026-03-23T09:24:56.951Z</time></trkpt><trkpt lat="30.120291330724505" lon="-6.238591418012992"><ele>839.0</ele><time>2026-03-23T09:24:57.951Z</time></trkpt><trkpt lat="30.120422664812704" lon="-6.238601759907872"><ele>839.0</ele><time>2026-03-23T09:24:58.951Z</time></trkpt><trkpt lat="30.120539334551818" lon="-6.238594013581111"><ele>839.0</ele><time>2026-03-23T09:24:59.951Z</time></trkpt><trkpt lat="30.1206553578578" lon="-6.238590397050587"><ele>839.0</ele><time>2026-03-23T09:25:00.951Z</time></trkpt><trkpt lat="30.120784007152896" lon="-6.238585739675107"><ele>839.0</ele><time>2026-03-23T09:25:01.951Z</time></trkpt><trkpt lat="30.12090876374188" lon="-6.238559106578428"><ele>839.0</ele><time>2026-03-23T09:25:02.951Z</time></trkpt><trkpt lat="30.121034894177434" lon="-6.238536336657711"><ele>839.0</ele><time>2026-03-23T09:25:03.951Z</time></trkpt><trkpt lat="30.12117957053111" lon="-6.238515176635625"><ele>839.0</ele><time>2026-03-23T09:25:04.951Z</time></trkpt><trkpt lat="30.121320373768928" lon="-6.238495575705913"><ele>839.0</ele><time>2026-03-23T09:25:05.951Z</time></trkpt><trkpt lat="30.121458972290274" lon="-6.238485287197898"><ele>839.0</ele><time>2026-03-23T09:25:06.951Z</time></trkpt><trkpt lat="30.12158105767989" lon="-6.238467001065632"><ele>839.0</ele><time>2026-03-23T09:25:07.951Z</time></trkpt><trkpt lat="30.121685032831802" lon="-6.238435673477255"><ele>838.25</ele><time>2026-03-23T09:25:08.951Z</time></trkpt><trkpt lat="30.121786282417737" lon="-6.238411867009008"><ele>837.5</ele><time>2026-03-23T09:25:09.951Z</time></trkpt><trkpt lat="30.121896182996725" lon="-6.238396746211151"><ele>836.75</ele><time>2026-03-23T09:25:10.951Z</time></trkpt><trkpt lat="30.122018416164664" lon="-6.238373712080659"><ele>836.0</ele><time>2026-03-23T09:25:11.951Z</time></trkpt><trkpt lat="30.122148321920776" lon="-6.238321888772232"><ele>836.0</ele><time>2026-03-23T09:25:12.951Z</time></trkpt><trkpt lat="30.12229304814198" lon="-6.238247560702959"><ele>836.0</ele><time>2026-03-23T09:25:13.951Z</time></trkpt><trkpt lat="30.12242128941322" lon="-6.2382005798828715"><ele>836.0</ele><time>2026-03-23T09:25:14.951Z</time></trkpt><trkpt lat="30.122520795788628" lon="-6.238178023673227"><ele>836.0</ele><time>2026-03-23T09:25:15.951Z</time></trkpt><trkpt lat="30.12261406638429" lon="-6.238154055896031"><ele>836.0000000000001</ele><time>2026-03-23T09:25:16.951Z</time></trkpt><trkpt lat="30.12269712709451" lon="-6.238123679894012"><ele>836.0</ele><time>2026-03-23T09:25:17.951Z</time></trkpt><trkpt lat="30.122772273676695" lon="-6.238102689396536"><ele>836.0</ele><time>2026-03-23T09:25:18.951Z</time></trkpt><trkpt lat="30.122849104614172" lon="-6.238091934120565"><ele>836.0</ele><time>2026-03-23T09:25:19.951Z</time></trkpt><trkpt lat="30.12293199244451" lon="-6.238070423832411"><ele>836.0000000000001</ele><time>2026-03-23T09:25:20.951Z</time></trkpt><trkpt lat="30.12301909047839" lon="-6.2380457402935985"><ele>836.0</ele><time>2026-03-23T09:25:21.951Z</time></trkpt><trkpt lat="30.123111828813556" lon="-6.238021169081517"><ele>836.0000000000001</ele><time>2026-03-23T09:25:22.951Z</time></trkpt><trkpt lat="30.12320243024161" lon="-6.238005085562105"><ele>836.0</ele><time>2026-03-23T09:25:23.951Z</time></trkpt><trkpt lat="30.123291219832517" lon="-6.237986440475661"><ele>836.0</ele><time>2026-03-23T09:25:24.951Z</time></trkpt><trkpt lat="30.12337248705311" lon="-6.237976436889229"><ele>836.0</ele><time>2026-03-23T09:25:25.951Z</time></trkpt><trkpt lat="30.123449969172302" lon="-6.23794908488253"><ele>836.0000000000001</ele><time>2026-03-23T09:25:26.951Z</time></trkpt><trkpt lat="30.123518320959583" lon="-6.237917565111827"><ele>836.0</ele><time>2026-03-23T09:25:27.951Z</time></trkpt><trkpt lat="30.12359069572782" lon="-6.237868975150882"><ele>835.5999999999999</ele><time>2026-03-23T09:25:28.951Z</time></trkpt><trkpt lat="30.123673016570248" lon="-6.237835886925051"><ele>835.2</ele><time>2026-03-23T09:25:29.951Z</time></trkpt><trkpt lat="30.12376972702059" lon="-6.237805205492316"><ele>834.8</ele><time>2026-03-23T09:25:30.951Z</time></trkpt><trkpt lat="30.123876122009708" lon="-6.237766298487945"><ele>834.4000000000001</ele><time>2026-03-23T09:25:31.951Z</time></trkpt><trkpt lat="30.12398586583467" lon="-6.2377197903514165"><ele>834.0</ele><time>2026-03-23T09:25:32.951Z</time></trkpt><trkpt lat="30.124093115925483" lon="-6.237664366064922"><ele>834.0</ele><time>2026-03-23T09:25:33.951Z</time></trkpt><trkpt lat="30.124183912949675" lon="-6.2376125444501485"><ele>834.0</ele><time>2026-03-23T09:25:34.951Z</time></trkpt><trkpt lat="30.124271564355457" lon="-6.237553057800973"><ele>834.0</ele><time>2026-03-23T09:25:35.951Z</time></trkpt><trkpt lat="30.124359820705596" lon="-6.23750132595448"><ele>834.0</ele><time>2026-03-23T09:25:36.951Z</time></trkpt><trkpt lat="30.124457895839434" lon="-6.237452835265142"><ele>834.0</ele><time>2026-03-23T09:25:37.951Z</time></trkpt><trkpt lat="30.124557326338124" lon="-6.2373860261554"><ele>834.0</ele><time>2026-03-23T09:25:38.951Z</time></trkpt><trkpt lat="30.12465732235658" lon="-6.237322580939768"><ele>834.0</ele><time>2026-03-23T09:25:39.951Z</time></trkpt><trkpt lat="30.124747488433528" lon="-6.2372509138591115"><ele>834.0</ele><time>2026-03-23T09:25:40.951Z</time></trkpt><trkpt lat="30.124831684810903" lon="-6.237193528110071"><ele>834.0</ele><time>2026-03-23T09:25:41.951Z</time></trkpt><trkpt lat="30.12492243568377" lon="-6.237132785382066"><ele>834.0</ele><time>2026-03-23T09:25:42.951Z</time></trkpt><trkpt lat="30.125014757977485" lon="-6.237065827511544"><ele>834.0</ele><time>2026-03-23T09:25:43.951Z</time></trkpt><trkpt lat="30.125113203379854" lon="-6.237001389396965"><ele>834.0</ele><time>2026-03-23T09:25:44.951Z</time></trkpt><trkpt lat="30.125212252534613" lon="-6.236935555923472"><ele>834.0</ele><time>2026-03-23T09:25:45.951Z</time></trkpt><trkpt lat="30.125306803435105" lon="-6.236872942517659"><ele>834.0</ele><time>2026-03-23T09:25:46.951Z</time></trkpt><trkpt lat="30.12540477497993" lon="-6.2367842214560625"><ele>834.0</ele><time>2026-03-23T09:25:47.951Z</time></trkpt><trkpt lat="30.125519696703122" lon="-6.236668186362086"><ele>834.0</ele><time>2026-03-23T09:25:48.951Z</time></trkpt><trkpt lat="30.125646212688366" lon="-6.236527467984818"><ele>834.0</ele><time>2026-03-23T09:25:49.951Z</time></trkpt><trkpt lat="30.125792472411693" lon="-6.236375422689728"><ele>833.75</ele><time>2026-03-23T09:25:50.951Z</time></trkpt><trkpt lat="30.125910461245518" lon="-6.236252753290347"><ele>833.5</ele><time>2026-03-23T09:25:51.951Z</time></trkpt><trkpt lat="30.126000822661506" lon="-6.236161717837238"><ele>833.25</ele><time>2026-03-23T09:25:52.951Z</time></trkpt><trkpt lat="30.12608503616253" lon="-6.236077634310313"><ele>833.0</ele><time>2026-03-23T09:25:53.951Z</time></trkpt><trkpt lat="30.126169253063246" lon="-6.235993039052848"><ele>833.0</ele><time>2026-03-23T09:25:54.951Z</time></trkpt><trkpt lat="30.126260828987956" lon="-6.235918605894517"><ele>833.0</ele><time>2026-03-23T09:25:55.951Z</time></trkpt><trkpt lat="30.126351788210382" lon="-6.23584724177374"><ele>833.0</ele><time>2026-03-23T09:25:56.951Z</time></trkpt><trkpt lat="30.126440588880147" lon="-6.23577307953198"><ele>833.0</ele><time>2026-03-23T09:25:57.951Z</time></trkpt><trkpt lat="30.12653294771188" lon="-6.235697170510465"><ele>833.0</ele><time>2026-03-23T09:25:58.951Z</time></trkpt><trkpt lat="30.1266233182541" lon="-6.235620977014231"><ele>833.4</ele><time>2026-03-23T09:25:59.951Z</time></trkpt><trkpt lat="30.12671144235544" lon="-6.23555253036965"><ele>833.8</ele><time>2026-03-23T09:26:00.951Z</time></trkpt><trkpt lat="30.12679318201977" lon="-6.235490579063844"><ele>834.2</ele><time>2026-03-23T09:26:01.951Z</time></trkpt><trkpt lat="30.126879118017634" lon="-6.235437249659269"><ele>834.6</ele><time>2026-03-23T09:26:02.951Z</time></trkpt><trkpt lat="30.126959881413743" lon="-6.235382822576685"><ele>835.0</ele><time>2026-03-23T09:26:03.951Z</time></trkpt><trkpt lat="30.12705581893654" lon="-6.235328853460142"><ele>835.0</ele><time>2026-03-23T09:26:04.951Z</time></trkpt><trkpt lat="30.127151557258582" lon="-6.2352681838611135"><ele>835.0</ele><time>2026-03-23T09:26:05.951Z</time></trkpt><trkpt lat="30.127242753954075" lon="-6.235203703175625"><ele>835.0</ele><time>2026-03-23T09:26:06.951Z</time></trkpt><trkpt lat="30.127313982112852" lon="-6.235134354003859"><ele>835.0</ele><time>2026-03-23T09:26:07.951Z</time></trkpt><trkpt lat="30.127385296785672" lon="-6.235059154093776"><ele>835.0</ele><time>2026-03-23T09:26:08.951Z</time></trkpt><trkpt lat="30.127465355212962" lon="-6.234979673081354"><ele>834.5</ele><time>2026-03-23T09:26:09.951Z</time></trkpt><trkpt lat="30.127546256342995" lon="-6.234882611834946"><ele>834.0</ele><time>2026-03-23T09:26:10.951Z</time></trkpt><trkpt lat="30.127614436054024" lon="-6.234771556832983"><ele>833.5</ele><time>2026-03-23T09:26:11.951Z</time></trkpt><trkpt lat="30.127670445151647" lon="-6.234650986611679"><ele>833.0</ele><time>2026-03-23T09:26:12.951Z</time></trkpt><trkpt lat="30.127714254364264" lon="-6.234515413600348"><ele>833.0</ele><time>2026-03-23T09:26:13.951Z</time></trkpt><trkpt lat="30.127749085648222" lon="-6.234357063888225"><ele>833.0</ele><time>2026-03-23T09:26:14.951Z</time></trkpt><trkpt lat="30.127788136830983" lon="-6.234200680409359"><ele>833.0</ele><time>2026-03-23T09:26:15.951Z</time></trkpt><trkpt lat="30.127829831509917" lon="-6.234050220258985"><ele>833.0</ele><time>2026-03-23T09:26:16.951Z</time></trkpt><trkpt lat="30.127870987268075" lon="-6.233905435678977"><ele>832.2</ele><time>2026-03-23T09:26:17.951Z</time></trkpt><trkpt lat="30.127930397020744" lon="-6.233782592447645"><ele>831.4</ele><time>2026-03-23T09:26:18.951Z</time></trkpt><trkpt lat="30.127989268960054" lon="-6.233702546266083"><ele>830.6</ele><time>2026-03-23T09:26:19.951Z</time></trkpt><trkpt lat="30.12804756072794" lon="-6.233630646018387"><ele>829.8000000000001</ele><time>2026-03-23T09:26:20.952Z</time></trkpt><trkpt lat="30.12811204840182" lon="-6.233568159860303"><ele>829.0</ele><time>2026-03-23T09:26:21.951Z</time></trkpt><trkpt lat="30.128179621799468" lon="-6.233509621099346"><ele>829.6</ele><time>2026-03-23T09:26:22.951Z</time></trkpt><trkpt lat="30.128250670463412" lon="-6.23345607566218"><ele>830.2</ele><time>2026-03-23T09:26:23.951Z</time></trkpt><trkpt lat="30.128338754270057" lon="-6.233401680266556"><ele>830.8000000000001</ele><time>2026-03-23T09:26:24.95Z</time></trkpt><trkpt lat="30.128432650643315" lon="-6.2333525443080635"><ele>831.4000000000001</ele><time>2026-03-23T09:26:25.95Z</time></trkpt><trkpt lat="30.12854220002647" lon="-6.2332949138405285"><ele>832.0</ele><time>2026-03-23T09:26:26.951Z</time></trkpt><trkpt lat="30.128653503915018" lon="-6.233245739636958"><ele>832.0</ele><time>2026-03-23T09:26:27.951Z</time></trkpt><trkpt lat="30.128773333840165" lon="-6.233205670875517"><ele>832.0</ele><time>2026-03-23T09:26:28.951Z</time></trkpt><trkpt lat="30.12889382619326" lon="-6.233166718478715"><ele>832.0</ele><time>2026-03-23T09:26:29.951Z</time></trkpt><trkpt lat="30.128992211144574" lon="-6.233132545101266"><ele>832.0</ele><time>2026-03-23T09:26:30.951Z</time></trkpt><trkpt lat="30.129081609957872" lon="-6.233091715740621"><ele>832.0</ele><time>2026-03-23T09:26:31.951Z</time></trkpt><trkpt lat="30.12916028968436" lon="-6.233059468467293"><ele>832.1666666666666</ele><time>2026-03-23T09:26:32.951Z</time></trkpt><trkpt lat="30.129231819132002" lon="-6.233033272443911"><ele>832.3333333333333</ele><time>2026-03-23T09:26:33.951Z</time></trkpt><trkpt lat="30.129305167279277" lon="-6.233008506501661"><ele>832.5</ele><time>2026-03-23T09:26:34.951Z</time></trkpt><trkpt lat="30.129381418186256" lon="-6.232982180295642"><ele>832.6666666666667</ele><time>2026-03-23T09:26:35.951Z</time></trkpt><trkpt lat="30.129462302394085" lon="-6.23295593793315"><ele>832.8333333333334</ele><time>2026-03-23T09:26:36.951Z</time></trkpt><trkpt lat="30.129547774444752" lon="-6.232932304232981"><ele>833.0</ele><time>2026-03-23T09:26:37.951Z</time></trkpt><trkpt lat="30.129661436902897" lon="-6.232892866630058"><ele>833.0</ele><time>2026-03-23T09:26:38.951Z</time></trkpt><trkpt lat="30.129773579621315" lon="-6.232845794256308"><ele>833.0</ele><time>2026-03-23T09:26:39.951Z</time></trkpt><trkpt lat="30.129878697255258" lon="-6.2328061455726305"><ele>833.0</ele><time>2026-03-23T09:26:40.951Z</time></trkpt><trkpt lat="30.129979420768773" lon="-6.232766509002687"><ele>833.0</ele><time>2026-03-23T09:26:41.951Z</time></trkpt><trkpt lat="30.13007770315067" lon="-6.232728275106481"><ele>833.0</ele><time>2026-03-23T09:26:42.951Z</time></trkpt><trkpt lat="30.130173689729432" lon="-6.232684010690773"><ele>833.2</ele><time>2026-03-23T09:26:43.951Z</time></trkpt><trkpt lat="30.130264061696728" lon="-6.232639879958824"><ele>833.4</ele><time>2026-03-23T09:26:44.951Z</time></trkpt><trkpt lat="30.130353899998433" lon="-6.232596477512307"><ele>833.6</ele><time>2026-03-23T09:26:45.951Z</time></trkpt><trkpt lat="30.130444515617445" lon="-6.232552782311237"><ele>833.8000000000001</ele><time>2026-03-23T09:26:46.951Z</time></trkpt><trkpt lat="30.130539517177652" lon="-6.232513198499093"><ele>834.0</ele><time>2026-03-23T09:26:47.951Z</time></trkpt><trkpt lat="30.13064989722455" lon="-6.232470605916737"><ele>834.0</ele><time>2026-03-23T09:26:48.951Z</time></trkpt><trkpt lat="30.130752003726723" lon="-6.232411284807487"><ele>834.0</ele><time>2026-03-23T09:26:49.951Z</time></trkpt><trkpt lat="30.130837685803467" lon="-6.232332583539208"><ele>834.0</ele><time>2026-03-23T09:26:50.951Z</time></trkpt><trkpt lat="30.130932971803933" lon="-6.232236737713962"><ele>834.0</ele><time>2026-03-23T09:26:51.951Z</time></trkpt><trkpt lat="30.13105334764698" lon="-6.2321403577442975"><ele>834.2</ele><time>2026-03-23T09:26:52.951Z</time></trkpt><trkpt lat="30.131164572276237" lon="-6.23207150632302"><ele>834.4000000000001</ele><time>2026-03-23T09:26:53.951Z</time></trkpt><trkpt lat="30.131256625463624" lon="-6.232023664679479"><ele>834.6</ele><time>2026-03-23T09:26:54.951Z</time></trkpt><trkpt lat="30.131337751156444" lon="-6.231982688152161"><ele>834.8</ele><time>2026-03-23T09:26:55.951Z</time></trkpt><trkpt lat="30.131420214052444" lon="-6.231945556492991"><ele>835.0</ele><time>2026-03-23T09:26:56.951Z</time></trkpt><trkpt lat="30.131500941638286" lon="-6.231901572140349"><ele>834.9999999999999</ele><time>2026-03-23T09:26:57.951Z</time></trkpt><trkpt lat="30.131572732769587" lon="-6.2318647047621045"><ele>835.0</ele><time>2026-03-23T09:26:58.951Z</time></trkpt><trkpt lat="30.131644803880803" lon="-6.2318262565474365"><ele>835.0</ele><time>2026-03-23T09:26:59.951Z</time></trkpt><trkpt lat="30.131711830468788" lon="-6.231773551967176"><ele>835.0</ele><time>2026-03-23T09:27:00.951Z</time></trkpt><trkpt lat="30.131783075587705" lon="-6.231713755902716"><ele>834.9999999999999</ele><time>2026-03-23T09:27:01.951Z</time></trkpt><trkpt lat="30.13185179076254" lon="-6.231658129609152"><ele>835.0</ele><time>2026-03-23T09:27:02.951Z</time></trkpt><trkpt lat="30.13192038982138" lon="-6.2315876681401745"><ele>835.0</ele><time>2026-03-23T09:27:03.951Z</time></trkpt><trkpt lat="30.131974454488645" lon="-6.231483724593691"><ele>835.0</ele><time>2026-03-23T09:27:04.951Z</time></trkpt><trkpt lat="30.132026482073798" lon="-6.231355475779153"><ele>835.0</ele><time>2026-03-23T09:27:05.951Z</time></trkpt><trkpt lat="30.132104302356282" lon="-6.231222037316223"><ele>835.0</ele><time>2026-03-23T09:27:06.951Z</time></trkpt><trkpt lat="30.132186791107948" lon="-6.231099366410179"><ele>834.4</ele><time>2026-03-23T09:27:07.951Z</time></trkpt><trkpt lat="30.132264941575603" lon="-6.231002417263835"><ele>833.8</ele><time>2026-03-23T09:27:08.951Z</time></trkpt><trkpt lat="30.132343201874722" lon="-6.230909153072359"><ele>833.2</ele><time>2026-03-23T09:27:09.951Z</time></trkpt><trkpt lat="30.13242837093851" lon="-6.230834274782775"><ele>832.6</ele><time>2026-03-23T09:27:10.951Z</time></trkpt><trkpt lat="30.132509325694173" lon="-6.230752431850069"><ele>832.0</ele><time>2026-03-23T09:27:11.951Z</time></trkpt><trkpt lat="30.132584250141424" lon="-6.230666496137081"><ele>831.8</ele><time>2026-03-23T09:27:12.951Z</time></trkpt><trkpt lat="30.13265623018301" lon="-6.230591363341811"><ele>831.6</ele><time>2026-03-23T09:27:13.951Z</time></trkpt><trkpt lat="30.13272629499226" lon="-6.230508816763961"><ele>831.4</ele><time>2026-03-23T09:27:14.951Z</time></trkpt><trkpt lat="30.132793389262847" lon="-6.230424197272566"><ele>831.1999999999999</ele><time>2026-03-23T09:27:15.951Z</time></trkpt><trkpt lat="30.132858894603018" lon="-6.23033018793983"><ele>831.0</ele><time>2026-03-23T09:27:16.951Z</time></trkpt><trkpt lat="30.132920042385887" lon="-6.230236440110673"><ele>831.0</ele><time>2026-03-23T09:27:17.951Z</time></trkpt><trkpt lat="30.132981114044732" lon="-6.2301347801785045"><ele>831.0</ele><time>2026-03-23T09:27:18.951Z</time></trkpt><trkpt lat="30.13304333381968" lon="-6.230022726562219"><ele>831.0</ele><time>2026-03-23T09:27:19.951Z</time></trkpt><trkpt lat="30.13310588357035" lon="-6.229918023916401"><ele>831.0</ele><time>2026-03-23T09:27:20.951Z</time></trkpt><trkpt lat="30.133163730876042" lon="-6.229801454704095"><ele>831.0</ele><time>2026-03-23T09:27:21.951Z</time></trkpt><trkpt lat="30.13320827032549" lon="-6.229685511364065"><ele>831.0</ele><time>2026-03-23T09:27:22.951Z</time></trkpt><trkpt lat="30.13323873430831" lon="-6.229562845721405"><ele>831.0</ele><time>2026-03-23T09:27:23.951Z</time></trkpt><trkpt lat="30.133274497913007" lon="-6.2294462861783515"><ele>831.0</ele><time>2026-03-23T09:27:24.951Z</time></trkpt><trkpt lat="30.133311072082122" lon="-6.229323096432007"><ele>831.0</ele><time>2026-03-23T09:27:25.951Z</time></trkpt><trkpt lat="30.13335264076399" lon="-6.229198381280651"><ele>831.0</ele><time>2026-03-23T09:27:26.951Z</time></trkpt><trkpt lat="30.13338759803983" lon="-6.229075729611553"><ele>830.75</ele><time>2026-03-23T09:27:27.951Z</time></trkpt><trkpt lat="30.133433497267056" lon="-6.2289513650582595"><ele>830.5</ele><time>2026-03-23T09:27:28.951Z</time></trkpt><trkpt lat="30.13347676346727" lon="-6.228809512578773"><ele>830.25</ele><time>2026-03-23T09:27:29.951Z</time></trkpt><trkpt lat="30.13351295643572" lon="-6.228676026503682"><ele>830.0</ele><time>2026-03-23T09:27:30.951Z</time></trkpt><trkpt lat="30.133554358404115" lon="-6.228546338134676"><ele>830.0</ele><time>2026-03-23T09:27:31.951Z</time></trkpt><trkpt lat="30.133592564197706" lon="-6.228423689887857"><ele>830.0</ele><time>2026-03-23T09:27:32.951Z</time></trkpt><trkpt lat="30.13362153733082" lon="-6.228292193231382"><ele>830.0</ele><time>2026-03-23T09:27:33.951Z</time></trkpt><trkpt lat="30.133659710552518" lon="-6.228171540908362"><ele>830.0</ele><time>2026-03-23T09:27:34.951Z</time></trkpt><trkpt lat="30.13370594637729" lon="-6.228051231837718"><ele>830.4</ele><time>2026-03-23T09:27:35.951Z</time></trkpt><trkpt lat="30.133754607401418" lon="-6.227932370178305"><ele>830.8</ele><time>2026-03-23T09:27:36.951Z</time></trkpt><trkpt lat="30.13379746534708" lon="-6.227813837723959"><ele>831.2</ele><time>2026-03-23T09:27:37.951Z</time></trkpt><trkpt lat="30.133821311026587" lon="-6.227693276587471"><ele>831.6</ele><time>2026-03-23T09:27:38.951Z</time></trkpt><trkpt lat="30.13382544485676" lon="-6.227581272486011"><ele>832.0</ele><time>2026-03-23T09:27:39.951Z</time></trkpt><trkpt lat="30.13381943504711" lon="-6.227444944566319"><ele>832.0</ele><time>2026-03-23T09:27:40.951Z</time></trkpt><trkpt lat="30.133818610012366" lon="-6.227295531549635"><ele>832.0</ele><time>2026-03-23T09:27:41.951Z</time></trkpt><trkpt lat="30.133826254442337" lon="-6.227136189240927"><ele>832.0</ele><time>2026-03-23T09:27:42.951Z</time></trkpt><trkpt lat="30.13383811835944" lon="-6.226972046093201"><ele>832.0</ele><time>2026-03-23T09:27:43.951Z</time></trkpt><trkpt lat="30.133856986138984" lon="-6.226807083657326"><ele>832.0</ele><time>2026-03-23T09:27:44.951Z</time></trkpt><trkpt lat="30.133878996051035" lon="-6.2266382105473745"><ele>832.0</ele><time>2026-03-23T09:27:45.951Z</time></trkpt><trkpt lat="30.133900147686585" lon="-6.226468714671493"><ele>832.0</ele><time>2026-03-23T09:27:46.951Z</time></trkpt><trkpt lat="30.1339156817951" lon="-6.22630147076583"><ele>832.0</ele><time>2026-03-23T09:27:47.951Z</time></trkpt><trkpt lat="30.133925315729197" lon="-6.226130326009547"><ele>831.3333333333333</ele><time>2026-03-23T09:27:48.951Z</time></trkpt><trkpt lat="30.133933898311643" lon="-6.225959737506334"><ele>830.6666666666667</ele><time>2026-03-23T09:27:49.951Z</time></trkpt><trkpt lat="30.133942123132666" lon="-6.225785636697946"><ele>830.0</ele><time>2026-03-23T09:27:50.951Z</time></trkpt><trkpt lat="30.13394548853529" lon="-6.225606072684651"><ele>829.6666666666667</ele><time>2026-03-23T09:27:51.951Z</time></trkpt><trkpt lat="30.133937854463678" lon="-6.225417031371477"><ele>829.3333333333333</ele><time>2026-03-23T09:27:52.951Z</time></trkpt><trkpt lat="30.133931695366634" lon="-6.225215669517139"><ele>829.0</ele><time>2026-03-23T09:27:53.951Z</time></trkpt><trkpt lat="30.133926294982494" lon="-6.225010570819609"><ele>828.6666666666666</ele><time>2026-03-23T09:27:54.951Z</time></trkpt><trkpt lat="30.133921395100923" lon="-6.22480715601675"><ele>828.3333333333333</ele><time>2026-03-23T09:27:55.951Z</time></trkpt><trkpt lat="30.133919246308352" lon="-6.224609154376952"><ele>828.0</ele><time>2026-03-23T09:27:56.951Z</time></trkpt><trkpt lat="30.133913916694066" lon="-6.224429814413491"><ele>828.0</ele><time>2026-03-23T09:27:57.951Z</time></trkpt><trkpt lat="30.13390456362974" lon="-6.224253959504227"><ele>828.0</ele><time>2026-03-23T09:27:58.951Z</time></trkpt><trkpt lat="30.133891606929804" lon="-6.224073414304012"><ele>828.0</ele><time>2026-03-23T09:27:59.951Z</time></trkpt><trkpt lat="30.13388137182167" lon="-6.223892040706999"><ele>828.3333333333333</ele><time>2026-03-23T09:28:00.951Z</time></trkpt><trkpt lat="30.133868237620312" lon="-6.223712983769762"><ele>828.6666666666666</ele><time>2026-03-23T09:28:01.951Z</time></trkpt><trkpt lat="30.133852602779324" lon="-6.223529234317969"><ele>829.0</ele><time>2026-03-23T09:28:02.951Z</time></trkpt><trkpt lat="30.13383549057711" lon="-6.223336251669771"><ele>826.6666666666666</ele><time>2026-03-23T09:28:03.951Z</time></trkpt><trkpt lat="30.133817672668258" lon="-6.2231334952719815"><ele>824.3333333333333</ele><time>2026-03-23T09:28:04.951Z</time></trkpt><trkpt lat="30.13380073356286" lon="-6.222932846310961"><ele>822.0</ele><time>2026-03-23T09:28:05.951Z</time></trkpt><trkpt lat="30.13378451463927" lon="-6.222742626731749"><ele>822.0</ele><time>2026-03-23T09:28:06.951Z</time></trkpt><trkpt lat="30.133773853720573" lon="-6.222554470468546"><ele>822.0</ele><time>2026-03-23T09:28:07.951Z</time></trkpt><trkpt lat="30.133760595800712" lon="-6.222378061727765"><ele>822.0</ele><time>2026-03-23T09:28:08.951Z</time></trkpt><trkpt lat="30.13374755610153" lon="-6.222189124029832"><ele>822.6666666666667</ele><time>2026-03-23T09:28:09.951Z</time></trkpt><trkpt lat="30.133733432476156" lon="-6.221996988949138"><ele>823.3333333333334</ele><time>2026-03-23T09:28:10.951Z</time></trkpt><trkpt lat="30.133720955172432" lon="-6.221827571587475"><ele>824.0</ele><time>2026-03-23T09:28:11.951Z</time></trkpt><trkpt lat="30.133714432091743" lon="-6.221666963462263"><ele>824.0</ele><time>2026-03-23T09:28:12.951Z</time></trkpt><trkpt lat="30.133706105126308" lon="-6.22150660825584"><ele>824.0</ele><time>2026-03-23T09:28:13.951Z</time></trkpt><trkpt lat="30.13369984938769" lon="-6.221353548489129"><ele>824.0</ele><time>2026-03-23T09:28:14.951Z</time></trkpt><trkpt lat="30.133692124267135" lon="-6.221205272240126"><ele>824.0</ele><time>2026-03-23T09:28:15.951Z</time></trkpt><trkpt lat="30.133686963306566" lon="-6.22106853071747"><ele>824.25</ele><time>2026-03-23T09:28:16.951Z</time></trkpt><trkpt lat="30.133694937525696" lon="-6.2209235385504025"><ele>824.5</ele><time>2026-03-23T09:28:17.951Z</time></trkpt><trkpt lat="30.13369907469778" lon="-6.220770564370791"><ele>824.75</ele><time>2026-03-23T09:28:18.951Z</time></trkpt><trkpt lat="30.133713318318545" lon="-6.220620399843534"><ele>825.0</ele><time>2026-03-23T09:28:19.951Z</time></trkpt><trkpt lat="30.133731831942928" lon="-6.220466073180746"><ele>824.25</ele><time>2026-03-23T09:28:20.951Z</time></trkpt><trkpt lat="30.13375189270544" lon="-6.2203039521874"><ele>823.5</ele><time>2026-03-23T09:28:21.951Z</time></trkpt><trkpt lat="30.133780537506336" lon="-6.220144827917288"><ele>822.75</ele><time>2026-03-23T09:28:22.951Z</time></trkpt><trkpt lat="30.13380680578351" lon="-6.21998313426249"><ele>822.0</ele><time>2026-03-23T09:28:23.951Z</time></trkpt><trkpt lat="30.13383544522194" lon="-6.2198183288008115"><ele>824.3333333333333</ele><time>2026-03-23T09:28:24.95Z</time></trkpt><trkpt lat="30.133870990737712" lon="-6.219642199903389"><ele>826.6666666666666</ele><time>2026-03-23T09:28:25.95Z</time></trkpt><trkpt lat="30.133904850447976" lon="-6.2194673663867555"><ele>829.0</ele><time>2026-03-23T09:28:26.95Z</time></trkpt><trkpt lat="30.13393744281574" lon="-6.219296548839172"><ele>829.0</ele><time>2026-03-23T09:28:27.951Z</time></trkpt><trkpt lat="30.13396908285959" lon="-6.2191352330279726"><ele>829.0</ele><time>2026-03-23T09:28:28.951Z</time></trkpt><trkpt lat="30.134007668296167" lon="-6.2189734981476334"><ele>829.0</ele><time>2026-03-23T09:28:29.95Z</time></trkpt><trkpt lat="30.13404672820286" lon="-6.218818631716449"><ele>829.0</ele><time>2026-03-23T09:28:30.95Z</time></trkpt><trkpt lat="30.13407771695583" lon="-6.218679636934654"><ele>828.6</ele><time>2026-03-23T09:28:31.95Z</time></trkpt><trkpt lat="30.134105399847293" lon="-6.21854626979793"><ele>828.2</ele><time>2026-03-23T09:28:32.95Z</time></trkpt><trkpt lat="30.134135766419742" lon="-6.218430228447942"><ele>827.8000000000001</ele><time>2026-03-23T09:28:33.95Z</time></trkpt><trkpt lat="30.134163665215752" lon="-6.218315270211982"><ele>827.4000000000001</ele><time>2026-03-23T09:28:34.95Z</time></trkpt><trkpt lat="30.134190866082168" lon="-6.218201125908075"><ele>827.0</ele><time>2026-03-23T09:28:35.95Z</time></trkpt><trkpt lat="30.134215522062526" lon="-6.218083943506551"><ele>826.4000000000001</ele><time>2026-03-23T09:28:36.95Z</time></trkpt><trkpt lat="30.134243321521044" lon="-6.2179672730906015"><ele>825.8000000000001</ele><time>2026-03-23T09:28:37.95Z</time></trkpt><trkpt lat="30.134264668767088" lon="-6.217857315713237"><ele>825.2</ele><time>2026-03-23T09:28:38.95Z</time></trkpt><trkpt lat="30.13427278746415" lon="-6.2177445806612015"><ele>824.6</ele><time>2026-03-23T09:28:39.95Z</time></trkpt><trkpt lat="30.13427365847259" lon="-6.217621220783972"><ele>824.0</ele><time>2026-03-23T09:28:40.95Z</time></trkpt><trkpt lat="30.13427610199402" lon="-6.21748737433704"><ele>824.0</ele><time>2026-03-23T09:28:41.95Z</time></trkpt><trkpt lat="30.134276025523604" lon="-6.217348886481918"><ele>824.0</ele><time>2026-03-23T09:28:42.95Z</time></trkpt><trkpt lat="30.134281386904316" lon="-6.217202419200729"><ele>824.0</ele><time>2026-03-23T09:28:43.95Z</time></trkpt><trkpt lat="30.134287707270047" lon="-6.217062481454635"><ele>824.0</ele><time>2026-03-23T09:28:44.95Z</time></trkpt><trkpt lat="30.134291861808965" lon="-6.216920864658392"><ele>823.75</ele><time>2026-03-23T09:28:45.95Z</time></trkpt><trkpt lat="30.134291559986057" lon="-6.216780296507504"><ele>823.5</ele><time>2026-03-23T09:28:46.95Z</time></trkpt><trkpt lat="30.134290215345118" lon="-6.216635330718491"><ele>823.25</ele><time>2026-03-23T09:28:47.95Z</time></trkpt><trkpt lat="30.134309797467797" lon="-6.216483100096274"><ele>823.0</ele><time>2026-03-23T09:28:48.95Z</time></trkpt><trkpt lat="30.134344720727288" lon="-6.216320555415317"><ele>823.75</ele><time>2026-03-23T09:28:49.95Z</time></trkpt><trkpt lat="30.13437466609551" lon="-6.216153719729952"><ele>824.5</ele><time>2026-03-23T09:28:50.95Z</time></trkpt><trkpt lat="30.134399288701886" lon="-6.215996875478604"><ele>825.25</ele><time>2026-03-23T09:28:51.95Z</time></trkpt><trkpt lat="30.134418453339066" lon="-6.215839411900663"><ele>826.0</ele><time>2026-03-23T09:28:52.95Z</time></trkpt><trkpt lat="30.13444293497042" lon="-6.215675131531959"><ele>825.75</ele><time>2026-03-23T09:28:53.95Z</time></trkpt><trkpt lat="30.134461548717933" lon="-6.21551270182389"><ele>825.5</ele><time>2026-03-23T09:28:54.95Z</time></trkpt><trkpt lat="30.134480209208892" lon="-6.215349697639113"><ele>825.25</ele><time>2026-03-23T09:28:55.95Z</time></trkpt><trkpt lat="30.134494153890035" lon="-6.215203241470443"><ele>825.0</ele><time>2026-03-23T09:28:56.95Z</time></trkpt><trkpt lat="30.134505908971917" lon="-6.215074924532728"><ele>825.0</ele><time>2026-03-23T09:28:57.95Z</time></trkpt><trkpt lat="30.13452123143309" lon="-6.214961383642124"><ele>825.0</ele><time>2026-03-23T09:28:58.95Z</time></trkpt><trkpt lat="30.134539463938477" lon="-6.2148616335937845"><ele>825.0</ele><time>2026-03-23T09:28:59.95Z</time></trkpt><trkpt lat="30.134565687187997" lon="-6.2147643730233675"><ele>825.0</ele><time>2026-03-23T09:29:00.95Z</time></trkpt><trkpt lat="30.13458151728538" lon="-6.214658804223317"><ele>825.0</ele><time>2026-03-23T09:29:01.95Z</time></trkpt><trkpt lat="30.134595871676606" lon="-6.21458199973873"><ele>825.0</ele><time>2026-03-23T09:29:02.95Z</time></trkpt><trkpt lat="30.134623094027788" lon="-6.214495932714"><ele>825.0</ele><time>2026-03-23T09:29:04.95Z</time></trkpt><trkpt lat="30.134681810116984" lon="-6.214397149935887"><ele>825.0</ele><time>2026-03-23T09:29:07.949Z</time></trkpt><trkpt lat="30.13469011931469" lon="-6.2142337537683625"><ele>825.0</ele><time>2026-03-23T09:29:09.949Z</time></trkpt><trkpt lat="30.13466505753247" lon="-6.214139571473441"><ele>825.0</ele><time>2026-03-23T09:29:10.949Z</time></trkpt><trkpt lat="30.134649348786464" lon="-6.214034826373689"><ele>825.0</ele><time>2026-03-23T09:29:11.949Z</time></trkpt><trkpt lat="30.134611712891537" lon="-6.213910191800912"><ele>825.0</ele><time>2026-03-23T09:29:12.949Z</time></trkpt><trkpt lat="30.134608079998877" lon="-6.213771247865415"><ele>825.0</ele><time>2026-03-23T09:29:13.949Z</time></trkpt><trkpt lat="30.1346043310207" lon="-6.213627864062353"><ele>825.0</ele><time>2026-03-23T09:29:14.949Z</time></trkpt><trkpt lat="30.13460034167148" lon="-6.213475287176448"><ele>825.0</ele><time>2026-03-23T09:29:15.949Z</time></trkpt><trkpt lat="30.134628630850543" lon="-6.213319929898893"><ele>825.0</ele><time>2026-03-23T09:29:16.949Z</time></trkpt><trkpt lat="30.134628862639374" lon="-6.213166870202862"><ele>825.0</ele><time>2026-03-23T09:29:17.949Z</time></trkpt><trkpt lat="30.13458859512286" lon="-6.213015931261213"><ele>825.0</ele><time>2026-03-23T09:29:18.949Z</time></trkpt><trkpt lat="30.134583750380887" lon="-6.212842272256875"><ele>825.0</ele><time>2026-03-23T09:29:19.949Z</time></trkpt><trkpt lat="30.134579499236757" lon="-6.2126721314496125"><ele>824.0</ele><time>2026-03-23T09:29:20.949Z</time></trkpt><trkpt lat="30.134575404748052" lon="-6.212507004638591"><ele>823.0</ele><time>2026-03-23T09:29:21.949Z</time></trkpt><trkpt lat="30.134570832093413" lon="-6.212361676162417"><ele>822.0</ele><time>2026-03-23T09:29:22.949Z</time></trkpt><trkpt lat="30.13456616803746" lon="-6.212213162299412"><ele>821.0</ele><time>2026-03-23T09:29:23.949Z</time></trkpt><trkpt lat="30.134562015024134" lon="-6.2120667068415845"><ele>820.25</ele><time>2026-03-23T09:29:24.949Z</time></trkpt><trkpt lat="30.134558205721095" lon="-6.211932372136461"><ele>819.5</ele><time>2026-03-23T09:29:25.949Z</time></trkpt><trkpt lat="30.134554494198515" lon="-6.211801485704097"><ele>818.75</ele><time>2026-03-23T09:29:26.949Z</time></trkpt><trkpt lat="30.134550702364784" lon="-6.2116682412191135"><ele>818.0</ele><time>2026-03-23T09:29:27.949Z</time></trkpt><trkpt lat="30.134549314556974" lon="-6.21152818104968"><ele>818.25</ele><time>2026-03-23T09:29:28.949Z</time></trkpt><trkpt lat="30.134544111230472" lon="-6.211390025725408"><ele>818.5</ele><time>2026-03-23T09:29:29.949Z</time></trkpt><trkpt lat="30.13454284340429" lon="-6.2112519719706825"><ele>818.75</ele><time>2026-03-23T09:29:30.949Z</time></trkpt><trkpt lat="30.134540316103372" lon="-6.211108250271392"><ele>819.0</ele><time>2026-03-23T09:29:31.949Z</time></trkpt><trkpt lat="30.13452807718305" lon="-6.210955041707604"><ele>819.0</ele><time>2026-03-23T09:29:32.949Z</time></trkpt><trkpt lat="30.134525263379615" lon="-6.210794120844723"><ele>819.0</ele><time>2026-03-23T09:29:33.949Z</time></trkpt><trkpt lat="30.134510755894905" lon="-6.210627093360388"><ele>819.0</ele><time>2026-03-23T09:29:34.949Z</time></trkpt><trkpt lat="30.134500426775272" lon="-6.210474810482249"><ele>819.0</ele><time>2026-03-23T09:29:35.949Z</time></trkpt><trkpt lat="30.134496453628522" lon="-6.210332757616722"><ele>819.5</ele><time>2026-03-23T09:29:36.949Z</time></trkpt><trkpt lat="30.134496059055547" lon="-6.210195088856489"><ele>820.0</ele><time>2026-03-23T09:29:37.949Z</time></trkpt><trkpt lat="30.134493218319324" lon="-6.210059996751028"><ele>820.5</ele><time>2026-03-23T09:29:38.949Z</time></trkpt><trkpt lat="30.13449053522421" lon="-6.2099240305736805"><ele>821.0</ele><time>2026-03-23T09:29:39.949Z</time></trkpt><trkpt lat="30.134486796179626" lon="-6.209804496434605"><ele>820.0</ele><time>2026-03-23T09:29:40.949Z</time></trkpt><trkpt lat="30.13448394463562" lon="-6.209687049526944"><ele>819.0</ele><time>2026-03-23T09:29:41.949Z</time></trkpt><trkpt lat="30.134478635945275" lon="-6.209573221884701"><ele>818.0</ele><time>2026-03-23T09:29:42.949Z</time></trkpt><trkpt lat="30.134481866200048" lon="-6.209461523957877"><ele>817.0</ele><time>2026-03-23T09:29:43.949Z</time></trkpt><trkpt lat="30.134479892639423" lon="-6.209350192713039"><ele>816.0</ele><time>2026-03-23T09:29:44.949Z</time></trkpt><trkpt lat="30.134477307870686" lon="-6.2092416181345875"><ele>816.0</ele><time>2026-03-23T09:29:45.949Z</time></trkpt><trkpt lat="30.134472463906814" lon="-6.209137030133437"><ele>816.0</ele><time>2026-03-23T09:29:46.949Z</time></trkpt><trkpt lat="30.134468219716265" lon="-6.209038524758304"><ele>816.0</ele><time>2026-03-23T09:29:47.949Z</time></trkpt><trkpt lat="30.134465730022885" lon="-6.208940580488533"><ele>816.0</ele><time>2026-03-23T09:29:48.949Z</time></trkpt><trkpt lat="30.134461103409976" lon="-6.208853589914752"><ele>816.0</ele><time>2026-03-23T09:29:49.949Z</time></trkpt><trkpt lat="30.134456505175947" lon="-6.20876791755916"><ele>816.0</ele><time>2026-03-23T09:29:50.949Z</time></trkpt><trkpt lat="30.13445008042492" lon="-6.208684020302894"><ele>816.1666666666666</ele><time>2026-03-23T09:29:51.949Z</time></trkpt><trkpt lat="30.13444184256618" lon="-6.208607213584362"><ele>816.3333333333333</ele><time>2026-03-23T09:29:52.949Z</time></trkpt><trkpt lat="30.134441005683676" lon="-6.2084748522089175"><ele>816.5</ele><time>2026-03-23T09:29:54.949Z</time></trkpt><trkpt lat="30.134437876500876" lon="-6.208399300840777"><ele>816.6666666666666</ele><time>2026-03-23T09:29:55.949Z</time></trkpt><trkpt lat="30.134432188897478" lon="-6.208282575239983"><ele>816.8333333333333</ele><time>2026-03-23T09:29:57.949Z</time></trkpt><trkpt lat="30.134431671103034" lon="-6.208196637169267"><ele>817.0</ele><time>2026-03-23T09:29:59.949Z</time></trkpt><trkpt lat="30.134428323745205" lon="-6.208102059931226"><ele>817.4000000000001</ele><time>2026-03-23T09:30:02.949Z</time></trkpt><trkpt lat="30.13442675213816" lon="-6.20801631395218"><ele>817.8000000000001</ele><time>2026-03-23T09:30:05.949Z</time></trkpt><trkpt lat="30.1344318845083" lon="-6.207891659696889"><ele>818.2</ele><time>2026-03-23T09:32:11.948Z</time></trkpt><trkpt lat="30.134435357112434" lon="-6.207775874997854"><ele>818.6</ele><time>2026-03-23T09:32:13.948Z</time></trkpt><trkpt lat="30.13442447332665" lon="-6.207638320474983"><ele>819.0</ele><time>2026-03-23T09:32:15.948Z</time></trkpt><trkpt lat="30.134422146562866" lon="-6.20754525213411"><ele>819.0</ele><time>2026-03-23T09:32:16.948Z</time></trkpt><trkpt lat="30.134420535739892" lon="-6.207452562756153"><ele>819.0</ele><time>2026-03-23T09:32:17.948Z</time></trkpt><trkpt lat="30.13441876505769" lon="-6.207360952437261"><ele>819.0</ele><time>2026-03-23T09:32:18.948Z</time></trkpt><trkpt lat="30.1344170046737" lon="-6.2072685048998775"><ele>819.0</ele><time>2026-03-23T09:32:19.948Z</time></trkpt><trkpt lat="30.134413812437252" lon="-6.207134838459414"><ele>819.0</ele><time>2026-03-23T09:32:20.948Z</time></trkpt><trkpt lat="30.134420278918732" lon="-6.2070223822097015"><ele>818.8000000000001</ele><time>2026-03-23T09:32:21.948Z</time></trkpt><trkpt lat="30.13442623171204" lon="-6.206918859453904"><ele>818.6</ele><time>2026-03-23T09:32:22.948Z</time></trkpt><trkpt lat="30.134432252642867" lon="-6.20681652862443"><ele>818.4</ele><time>2026-03-23T09:32:23.948Z</time></trkpt><trkpt lat="30.134438032585344" lon="-6.206718933961952"><ele>818.2</ele><time>2026-03-23T09:32:24.948Z</time></trkpt><trkpt lat="30.13444939345478" lon="-6.206567182861192"><ele>818.0</ele><time>2026-03-23T09:32:25.948Z</time></trkpt><trkpt lat="30.134466014798374" lon="-6.20643805222178"><ele>815.25</ele><time>2026-03-23T09:32:26.948Z</time></trkpt><trkpt lat="30.134484981963787" lon="-6.2062842203206126"><ele>812.5</ele><time>2026-03-23T09:32:27.948Z</time></trkpt><trkpt lat="30.134508347997784" lon="-6.206099931363485"><ele>809.75</ele><time>2026-03-23T09:32:28.948Z</time></trkpt><trkpt lat="30.134530148154514" lon="-6.2059337596100175"><ele>807.0</ele><time>2026-03-23T09:32:29.948Z</time></trkpt><trkpt lat="30.134548931453217" lon="-6.205791948227041"><ele>807.0</ele><time>2026-03-23T09:32:30.948Z</time></trkpt><trkpt lat="30.13456302528597" lon="-6.205666392279095"><ele>807.0</ele><time>2026-03-23T09:32:31.948Z</time></trkpt><trkpt lat="30.13457113097273" lon="-6.205524371396741"><ele>807.0</ele><time>2026-03-23T09:32:32.948Z</time></trkpt><trkpt lat="30.134590681017816" lon="-6.2053398506587545"><ele>807.0</ele><time>2026-03-23T09:32:33.948Z</time></trkpt><trkpt lat="30.134614282202396" lon="-6.205180094826881"><ele>808.75</ele><time>2026-03-23T09:32:34.948Z</time></trkpt><trkpt lat="30.134636534078908" lon="-6.205034387068112"><ele>810.5</ele><time>2026-03-23T09:32:35.948Z</time></trkpt><trkpt lat="30.13466699798838" lon="-6.204858767557341"><ele>812.25</ele><time>2026-03-23T09:32:36.948Z</time></trkpt><trkpt lat="30.13470059434208" lon="-6.204697687247375"><ele>814.0</ele><time>2026-03-23T09:32:37.949Z</time></trkpt><trkpt lat="30.134741527442966" lon="-6.204512956681023"><ele>815.0</ele><time>2026-03-23T09:32:38.949Z</time></trkpt><trkpt lat="30.134788361324066" lon="-6.204336051201014"><ele>816.0</ele><time>2026-03-23T09:32:39.949Z</time></trkpt><trkpt lat="30.134846065006368" lon="-6.204132893473196"><ele>817.0</ele><time>2026-03-23T09:32:40.948Z</time></trkpt><trkpt lat="30.134908709704455" lon="-6.203950655318778"><ele>817.0</ele><time>2026-03-23T09:32:41.949Z</time></trkpt><trkpt lat="30.13498194328392" lon="-6.20375671690346"><ele>817.0</ele><time>2026-03-23T09:32:42.949Z</time></trkpt><trkpt lat="30.135055866788658" lon="-6.203579616976716"><ele>817.0</ele><time>2026-03-23T09:32:43.949Z</time></trkpt><trkpt lat="30.135128311429014" lon="-6.203403659293421"><ele>817.0</ele><time>2026-03-23T09:32:44.949Z</time></trkpt><trkpt lat="30.1352010790126" lon="-6.203219796690703"><ele>817.0</ele><time>2026-03-23T09:32:45.949Z</time></trkpt><trkpt lat="30.13527908766431" lon="-6.20303149726785"><ele>817.0</ele><time>2026-03-23T09:32:46.948Z</time></trkpt><trkpt lat="30.135358634404348" lon="-6.202843046462382"><ele>817.3333333333333</ele><time>2026-03-23T09:32:47.948Z</time></trkpt><trkpt lat="30.135442868240446" lon="-6.202650562434167"><ele>817.6666666666667</ele><time>2026-03-23T09:32:48.948Z</time></trkpt><trkpt lat="30.135536292135082" lon="-6.202443644828322"><ele>818.0</ele><time>2026-03-23T09:32:49.948Z</time></trkpt><trkpt lat="30.13563690556666" lon="-6.202249075670523"><ele>817.3333333333334</ele><time>2026-03-23T09:32:50.948Z</time></trkpt><trkpt lat="30.135742670627092" lon="-6.202044652086943"><ele>816.6666666666667</ele><time>2026-03-23T09:32:51.948Z</time></trkpt><trkpt lat="30.135846693833365" lon="-6.201842891812323"><ele>816.0</ele><time>2026-03-23T09:32:52.948Z</time></trkpt><trkpt lat="30.135957963620125" lon="-6.20162905070696"><ele>815.0</ele><time>2026-03-23T09:32:53.948Z</time></trkpt><trkpt lat="30.13606388894591" lon="-6.201423045985751"><ele>814.0</ele><time>2026-03-23T09:32:54.948Z</time></trkpt><trkpt lat="30.13616573244748" lon="-6.201227649032296"><ele>813.0</ele><time>2026-03-23T09:32:55.948Z</time></trkpt><trkpt lat="30.13626902307187" lon="-6.201027406386759"><ele>813.0</ele><time>2026-03-23T09:32:56.948Z</time></trkpt><trkpt lat="30.136383639038076" lon="-6.200817107563539"><ele>813.0</ele><time>2026-03-23T09:32:57.948Z</time></trkpt><trkpt lat="30.136494946183447" lon="-6.200613938312553"><ele>813.0</ele><time>2026-03-23T09:32:58.948Z</time></trkpt><trkpt lat="30.13661508318549" lon="-6.200399507639312"><ele>815.0</ele><time>2026-03-23T09:32:59.948Z</time></trkpt><trkpt lat="30.136739862295627" lon="-6.20018611762443"><ele>817.0</ele><time>2026-03-23T09:33:00.948Z</time></trkpt><trkpt lat="30.136871480070965" lon="-6.199963877127008"><ele>816.5</ele><time>2026-03-23T09:33:01.948Z</time></trkpt><trkpt lat="30.13700645582503" lon="-6.199745198685351"><ele>816.0</ele><time>2026-03-23T09:33:02.948Z</time></trkpt><trkpt lat="30.137146262960812" lon="-6.199518440601935"><ele>816.0</ele><time>2026-03-23T09:33:03.948Z</time></trkpt><trkpt lat="30.13727547974066" lon="-6.199305066124056"><ele>816.0</ele><time>2026-03-23T09:33:04.948Z</time></trkpt><trkpt lat="30.137412730554356" lon="-6.199075179462638"><ele>814.0</ele><time>2026-03-23T09:33:05.948Z</time></trkpt><trkpt lat="30.137551192412992" lon="-6.198845697880398"><ele>812.0</ele><time>2026-03-23T09:33:06.948Z</time></trkpt><trkpt lat="30.137696535066226" lon="-6.198605355343315"><ele>812.0</ele><time>2026-03-23T09:33:07.948Z</time></trkpt><trkpt lat="30.13783735233363" lon="-6.198373527389679"><ele>812.0</ele><time>2026-03-23T09:33:08.948Z</time></trkpt><trkpt lat="30.137976908444774" lon="-6.198142500568996"><ele>812.0</ele><time>2026-03-23T09:33:09.948Z</time></trkpt><trkpt lat="30.138118507942604" lon="-6.197907100065409"><ele>812.0</ele><time>2026-03-23T09:33:10.948Z</time></trkpt><trkpt lat="30.13826142485218" lon="-6.197672020335256"><ele>812.0</ele><time>2026-03-23T09:33:11.948Z</time></trkpt><trkpt lat="30.138411108600955" lon="-6.197422403965281"><ele>812.0</ele><time>2026-03-23T09:33:12.948Z</time></trkpt><trkpt lat="30.138567630998615" lon="-6.197163647083881"><ele>812.5</ele><time>2026-03-23T09:33:13.948Z</time></trkpt><trkpt lat="30.138720330386327" lon="-6.196910593689204"><ele>813.0</ele><time>2026-03-23T09:33:14.948Z</time></trkpt><trkpt lat="30.138859121771286" lon="-6.196682027248564"><ele>813.0</ele><time>2026-03-23T09:33:15.948Z</time></trkpt><trkpt lat="30.13898838547634" lon="-6.196469050987558"><ele>813.0</ele><time>2026-03-23T09:33:16.948Z</time></trkpt><trkpt lat="30.139116619209517" lon="-6.196263609806842"><ele>813.0</ele><time>2026-03-23T09:33:17.948Z</time></trkpt><trkpt lat="30.139248933400115" lon="-6.196053115696899"><ele>813.0</ele><time>2026-03-23T09:33:18.948Z</time></trkpt><trkpt lat="30.139378903814887" lon="-6.195847042670152"><ele>813.0</ele><time>2026-03-23T09:33:19.948Z</time></trkpt><trkpt lat="30.139503033553833" lon="-6.195648482372479"><ele>813.0</ele><time>2026-03-23T09:33:20.948Z</time></trkpt><trkpt lat="30.139606651809814" lon="-6.195478116214929"><ele>813.0</ele><time>2026-03-23T09:33:21.948Z</time></trkpt><trkpt lat="30.139713844353647" lon="-6.195295035338127"><ele>813.0</ele><time>2026-03-23T09:33:22.948Z</time></trkpt><trkpt lat="30.139819729198805" lon="-6.195114447476395"><ele>813.0</ele><time>2026-03-23T09:33:23.948Z</time></trkpt><trkpt lat="30.139921289386997" lon="-6.194941235409399"><ele>816.3333333333333</ele><time>2026-03-23T09:33:24.948Z</time></trkpt><trkpt lat="30.140014176252656" lon="-6.194781410672843"><ele>819.6666666666666</ele><time>2026-03-23T09:33:25.948Z</time></trkpt><trkpt lat="30.140105453948735" lon="-6.194624768433563"><ele>823.0</ele><time>2026-03-23T09:33:26.948Z</time></trkpt><trkpt lat="30.140197140841114" lon="-6.194469427269922"><ele>823.0</ele><time>2026-03-23T09:33:27.948Z</time></trkpt><trkpt lat="30.140300750273028" lon="-6.194294339095528"><ele>823.0</ele><time>2026-03-23T09:33:28.948Z</time></trkpt><trkpt lat="30.14041405786916" lon="-6.194103190432585"><ele>823.0</ele><time>2026-03-23T09:33:29.948Z</time></trkpt><trkpt lat="30.14053259331472" lon="-6.193905158858012"><ele>821.0</ele><time>2026-03-23T09:33:30.948Z</time></trkpt><trkpt lat="30.14066116852042" lon="-6.193697635229311"><ele>819.0</ele><time>2026-03-23T09:33:31.948Z</time></trkpt><trkpt lat="30.14078167845562" lon="-6.193509312136863"><ele>817.0</ele><time>2026-03-23T09:33:32.948Z</time></trkpt><trkpt lat="30.14091104457741" lon="-6.1933071706021465"><ele>815.0</ele><time>2026-03-23T09:33:33.948Z</time></trkpt><trkpt lat="30.141039458778582" lon="-6.193105389104549"><ele>813.0</ele><time>2026-03-23T09:33:34.948Z</time></trkpt><trkpt lat="30.14117902369457" lon="-6.192879611683678"><ele>813.0</ele><time>2026-03-23T09:33:35.948Z</time></trkpt><trkpt lat="30.14130961796567" lon="-6.192668504818334"><ele>813.0</ele><time>2026-03-23T09:33:36.948Z</time></trkpt><trkpt lat="30.14143242973046" lon="-6.192469338771757"><ele>813.0</ele><time>2026-03-23T09:33:37.948Z</time></trkpt><trkpt lat="30.141553673340084" lon="-6.192272715809566"><ele>812.0</ele><time>2026-03-23T09:33:38.948Z</time></trkpt><trkpt lat="30.14167747190034" lon="-6.192071571571956"><ele>811.0</ele><time>2026-03-23T09:33:39.948Z</time></trkpt><trkpt lat="30.141805749528768" lon="-6.191862602387169"><ele>810.0</ele><time>2026-03-23T09:33:40.948Z</time></trkpt><trkpt lat="30.14192619331828" lon="-6.191665953529796"><ele>812.3333333333333</ele><time>2026-03-23T09:33:41.948Z</time></trkpt><trkpt lat="30.142042773108297" lon="-6.1914764193666505"><ele>814.6666666666666</ele><time>2026-03-23T09:33:42.948Z</time></trkpt><trkpt lat="30.142158643962293" lon="-6.191287242303346"><ele>817.0</ele><time>2026-03-23T09:33:43.948Z</time></trkpt><trkpt lat="30.142273794094756" lon="-6.191098944451261"><ele>814.6666666666666</ele><time>2026-03-23T09:33:44.948Z</time></trkpt><trkpt lat="30.142392245850026" lon="-6.190905122715798"><ele>812.3333333333333</ele><time>2026-03-23T09:33:45.948Z</time></trkpt><trkpt lat="30.1425070024606" lon="-6.190716698831467"><ele>810.0</ele><time>2026-03-23T09:33:46.948Z</time></trkpt><trkpt lat="30.142628716312892" lon="-6.190517939155362"><ele>810.0</ele><time>2026-03-23T09:33:47.948Z</time></trkpt><trkpt lat="30.142742859096654" lon="-6.19033126911944"><ele>810.0</ele><time>2026-03-23T09:33:48.948Z</time></trkpt><trkpt lat="30.14285156222253" lon="-6.190153495113796"><ele>810.0</ele><time>2026-03-23T09:33:49.948Z</time></trkpt><trkpt lat="30.142965650054673" lon="-6.189966914373032"><ele>810.0</ele><time>2026-03-23T09:33:50.948Z</time></trkpt><trkpt lat="30.143080744546438" lon="-6.189778687327184"><ele>810.0</ele><time>2026-03-23T09:33:51.948Z</time></trkpt><trkpt lat="30.143211775477077" lon="-6.189597033988338"><ele>810.0</ele><time>2026-03-23T09:33:52.948Z</time></trkpt><trkpt lat="30.14356862448583" lon="-6.1896091592444415"><ele>809.3333333333333</ele><time>2026-03-23T09:33:53.948Z</time></trkpt><trkpt lat="30.143663453291822" lon="-6.189434778716029"><ele>808.6666666666666</ele><time>2026-03-23T09:33:54.948Z</time></trkpt><trkpt lat="30.143756890622686" lon="-6.189263205128858"><ele>808.0</ele><time>2026-03-23T09:33:55.948Z</time></trkpt><trkpt lat="30.143843971776175" lon="-6.189108371596687"><ele>808.6666666666666</ele><time>2026-03-23T09:33:56.948Z</time></trkpt><trkpt lat="30.143929245692476" lon="-6.188955770304838"><ele>809.3333333333333</ele><time>2026-03-23T09:33:57.948Z</time></trkpt><trkpt lat="30.14402165980309" lon="-6.188795546894287"><ele>810.0</ele><time>2026-03-23T09:33:58.948Z</time></trkpt><trkpt lat="30.14412706661728" lon="-6.188627735903959"><ele>810.0</ele><time>2026-03-23T09:33:59.948Z</time></trkpt><trkpt lat="30.144243782565212" lon="-6.188435237443109"><ele>810.0</ele><time>2026-03-23T09:34:00.948Z</time></trkpt><trkpt lat="30.144360389991697" lon="-6.188245587681324"><ele>810.0</ele><time>2026-03-23T09:34:01.948Z</time></trkpt><trkpt lat="30.144474594791824" lon="-6.188064075168917"><ele>810.6666666666667</ele><time>2026-03-23T09:34:02.948Z</time></trkpt><trkpt lat="30.14458867741806" lon="-6.187891757033047"><ele>811.3333333333334</ele><time>2026-03-23T09:34:03.948Z</time></trkpt><trkpt lat="30.14469734676201" lon="-6.187720067023123"><ele>812.0</ele><time>2026-03-23T09:34:04.947Z</time></trkpt><trkpt lat="30.144807158677953" lon="-6.187545805138003"><ele>812.6666666666667</ele><time>2026-03-23T09:34:05.947Z</time></trkpt><trkpt lat="30.14491881047439" lon="-6.187370274543747"><ele>813.3333333333333</ele><time>2026-03-23T09:34:06.947Z</time></trkpt><trkpt lat="30.145031308904578" lon="-6.187183866806498"><ele>814.0</ele><time>2026-03-23T09:34:07.947Z</time></trkpt><trkpt lat="30.14514625252187" lon="-6.18698877955745"><ele>814.3333333333333</ele><time>2026-03-23T09:34:08.947Z</time></trkpt><trkpt lat="30.14526129209857" lon="-6.1867909303924975"><ele>814.6666666666667</ele><time>2026-03-23T09:34:09.947Z</time></trkpt><trkpt lat="30.145378812860514" lon="-6.186587212458652"><ele>815.0</ele><time>2026-03-23T09:34:10.947Z</time></trkpt><trkpt lat="30.145503338124406" lon="-6.186390791622396"><ele>814.0</ele><time>2026-03-23T09:34:11.947Z</time></trkpt><trkpt lat="30.145631778773783" lon="-6.186183779711984"><ele>813.0</ele><time>2026-03-23T09:34:12.947Z</time></trkpt><trkpt lat="30.145761007628135" lon="-6.185977101301482"><ele>812.0</ele><time>2026-03-23T09:34:13.947Z</time></trkpt><trkpt lat="30.14588862698956" lon="-6.185771794728103"><ele>810.6666666666667</ele><time>2026-03-23T09:34:14.947Z</time></trkpt><trkpt lat="30.146017118168842" lon="-6.185567432471563"><ele>809.3333333333333</ele><time>2026-03-23T09:34:15.947Z</time></trkpt><trkpt lat="30.146146355009098" lon="-6.185363782211449"><ele>808.0</ele><time>2026-03-23T09:34:16.947Z</time></trkpt><trkpt lat="30.14627774452072" lon="-6.185159342139299"><ele>808.0</ele><time>2026-03-23T09:34:17.947Z</time></trkpt><trkpt lat="30.1464159174243" lon="-6.184936852078432"><ele>808.0</ele><time>2026-03-23T09:34:18.947Z</time></trkpt><trkpt lat="30.146560251820027" lon="-6.184712632541376"><ele>809.0</ele><time>2026-03-23T09:34:19.947Z</time></trkpt><trkpt lat="30.146704618514512" lon="-6.184484858929554"><ele>810.0</ele><time>2026-03-23T09:34:20.947Z</time></trkpt><trkpt lat="30.146843017948665" lon="-6.184261957934224"><ele>810.0</ele><time>2026-03-23T09:34:21.947Z</time></trkpt><trkpt lat="30.146968208468913" lon="-6.184058276635241"><ele>810.0</ele><time>2026-03-23T09:34:22.947Z</time></trkpt><trkpt lat="30.14709085417515" lon="-6.1838545850332896"><ele>810.0</ele><time>2026-03-23T09:34:23.947Z</time></trkpt><trkpt lat="30.14720733680463" lon="-6.183657163362677"><ele>809.3333333333333</ele><time>2026-03-23T09:34:24.947Z</time></trkpt><trkpt lat="30.14732928264062" lon="-6.183466136663277"><ele>808.6666666666666</ele><time>2026-03-23T09:34:25.947Z</time></trkpt><trkpt lat="30.147445316448938" lon="-6.18328224937124"><ele>808.0</ele><time>2026-03-23T09:34:26.947Z</time></trkpt><trkpt lat="30.147558111668996" lon="-6.183108936117473"><ele>808.0</ele><time>2026-03-23T09:34:27.947Z</time></trkpt><trkpt lat="30.14766292776177" lon="-6.1829407284135485"><ele>808.0</ele><time>2026-03-23T09:34:28.947Z</time></trkpt><trkpt lat="30.147742530718745" lon="-6.1828073067454214"><ele>808.0</ele><time>2026-03-23T09:34:29.947Z</time></trkpt><trkpt lat="30.147811979358817" lon="-6.182683182604958"><ele>808.0</ele><time>2026-03-23T09:34:30.947Z</time></trkpt><trkpt lat="30.14787131712324" lon="-6.182569502403603"><ele>808.0</ele><time>2026-03-23T09:34:31.947Z</time></trkpt><trkpt lat="30.147922809017704" lon="-6.182469879160676"><ele>808.0</ele><time>2026-03-23T09:34:32.947Z</time></trkpt><trkpt lat="30.147974841824098" lon="-6.182386274795675"><ele>808.0</ele><time>2026-03-23T09:34:33.947Z</time></trkpt><trkpt lat="30.148028499742384" lon="-6.182304091795763"><ele>808.0</ele><time>2026-03-23T09:34:34.947Z</time></trkpt><trkpt lat="30.14807985241545" lon="-6.182222042748831"><ele>808.0</ele><time>2026-03-23T09:34:35.947Z</time></trkpt><trkpt lat="30.14812244452373" lon="-6.182137234514889"><ele>808.2</ele><time>2026-03-23T09:34:36.947Z</time></trkpt><trkpt lat="30.148153191677224" lon="-6.182049226990895"><ele>808.4</ele><time>2026-03-23T09:34:37.947Z</time></trkpt><trkpt lat="30.14818122604371" lon="-6.181943002581864"><ele>808.6</ele><time>2026-03-23T09:34:38.947Z</time></trkpt><trkpt lat="30.148203256888713" lon="-6.181824302747005"><ele>808.8000000000001</ele><time>2026-03-23T09:34:39.947Z</time></trkpt><trkpt lat="30.148232320993458" lon="-6.181695471679725"><ele>809.0</ele><time>2026-03-23T09:34:40.947Z</time></trkpt><trkpt lat="30.14826080215556" lon="-6.181582417951662"><ele>808.0</ele><time>2026-03-23T09:34:41.948Z</time></trkpt><trkpt lat="30.148302834942324" lon="-6.181460989547276"><ele>807.0</ele><time>2026-03-23T09:34:42.948Z</time></trkpt><trkpt lat="30.1483653744624" lon="-6.1813350294509135"><ele>806.0</ele><time>2026-03-23T09:34:43.948Z</time></trkpt><trkpt lat="30.148430955223954" lon="-6.181194869422759"><ele>805.0</ele><time>2026-03-23T09:34:44.948Z</time></trkpt><trkpt lat="30.14849488888078" lon="-6.181063677880407"><ele>805.0</ele><time>2026-03-23T09:34:45.948Z</time></trkpt><trkpt lat="30.14856200950341" lon="-6.180937441538963"><ele>805.0</ele><time>2026-03-23T09:34:46.947Z</time></trkpt><trkpt lat="30.14863686853927" lon="-6.18081253725807"><ele>805.0</ele><time>2026-03-23T09:34:47.947Z</time></trkpt><trkpt lat="30.148717822509887" lon="-6.180687911951615"><ele>805.0</ele><time>2026-03-23T09:34:48.947Z</time></trkpt><trkpt lat="30.14878755961962" lon="-6.180562147643198"><ele>805.25</ele><time>2026-03-23T09:34:49.947Z</time></trkpt><trkpt lat="30.148851399302" lon="-6.180449776716554"><ele>805.5</ele><time>2026-03-23T09:34:50.947Z</time></trkpt><trkpt lat="30.14891495047432" lon="-6.180333060624583"><ele>805.75</ele><time>2026-03-23T09:34:51.947Z</time></trkpt><trkpt lat="30.148975690209067" lon="-6.180214599143893"><ele>806.0</ele><time>2026-03-23T09:34:52.947Z</time></trkpt><trkpt lat="30.149031613471085" lon="-6.180110444946044"><ele>805.4</ele><time>2026-03-23T09:34:53.948Z</time></trkpt><trkpt lat="30.14909237910244" lon="-6.179991290869179"><ele>804.8</ele><time>2026-03-23T09:34:54.948Z</time></trkpt><trkpt lat="30.14914801346727" lon="-6.179882524576219"><ele>804.1999999999999</ele><time>2026-03-23T09:34:55.948Z</time></trkpt><trkpt lat="30.149202426626914" lon="-6.179782132090334"><ele>803.5999999999999</ele><time>2026-03-23T09:34:56.948Z</time></trkpt><trkpt lat="30.149250877956664" lon="-6.17970107153156"><ele>803.0</ele><time>2026-03-23T09:34:57.948Z</time></trkpt><trkpt lat="30.14932185755011" lon="-6.179601106723128"><ele>803.0000000000001</ele><time>2026-03-23T09:34:59.948Z</time></trkpt><trkpt lat="30.149386540577648" lon="-6.179551586429143"><ele>803.0</ele><time>2026-03-23T09:35:01.948Z</time></trkpt><trkpt lat="30.149461869561254" lon="-6.179504498898133"><ele>803.0</ele><time>2026-03-23T09:35:03.948Z</time></trkpt><trkpt lat="30.149541820759666" lon="-6.179472114760802"><ele>803.0</ele><time>2026-03-23T09:35:05.948Z</time></trkpt><trkpt lat="30.14962228379187" lon="-6.179445028009925"><ele>803.0000000000001</ele><time>2026-03-23T09:35:07.948Z</time></trkpt><trkpt lat="30.149687497776924" lon="-6.179428416290348"><ele>803.0</ele><time>2026-03-23T09:35:09.948Z</time></trkpt><trkpt lat="30.14975376941304" lon="-6.179389347980903"><ele>803.0000000000001</ele><time>2026-03-23T09:35:12.948Z</time></trkpt><trkpt lat="30.149813307959924" lon="-6.179348067423695"><ele>803.0</ele><time>2026-03-23T09:35:16.948Z</time></trkpt><trkpt lat="30.149877939056655" lon="-6.179360078852438"><ele>803.0</ele><time>2026-03-23T09:35:21.948Z</time></trkpt><trkpt lat="30.14994521071275" lon="-6.17938062138804"><ele>803.0</ele><time>2026-03-23T09:35:24.948Z</time></trkpt><trkpt lat="30.15005823054779" lon="-6.179426738025692"><ele>803.0000000000001</ele><time>2026-03-23T09:35:26.948Z</time></trkpt><trkpt lat="30.150164135352753" lon="-6.179459755529848"><ele>803.0</ele><time>2026-03-23T09:35:28.948Z</time></trkpt><trkpt lat="30.15024758963686" lon="-6.179466208352375"><ele>803.3333333333334</ele><time>2026-03-23T09:35:30.948Z</time></trkpt><trkpt lat="30.15034463797778" lon="-6.179449367254223"><ele>803.6666666666667</ele><time>2026-03-23T09:35:32.948Z</time></trkpt><trkpt lat="30.150403383153368" lon="-6.179423144844002"><ele>804.0</ele><time>2026-03-23T09:35:33.948Z</time></trkpt><trkpt lat="30.150460763486816" lon="-6.1793912357986285"><ele>804.3333333333333</ele><time>2026-03-23T09:35:34.948Z</time></trkpt><trkpt lat="30.150522589745528" lon="-6.179351324369809"><ele>804.6666666666666</ele><time>2026-03-23T09:35:35.948Z</time></trkpt><trkpt lat="30.150590917926184" lon="-6.1793071725885715"><ele>805.0</ele><time>2026-03-23T09:35:36.948Z</time></trkpt><trkpt lat="30.150666918104143" lon="-6.179269575346208"><ele>805.0</ele><time>2026-03-23T09:35:37.948Z</time></trkpt><trkpt lat="30.15075913183909" lon="-6.179229640862701"><ele>805.0</ele><time>2026-03-23T09:35:38.948Z</time></trkpt><trkpt lat="30.150844908291578" lon="-6.179191205741826"><ele>805.0</ele><time>2026-03-23T09:35:39.948Z</time></trkpt><trkpt lat="30.150943095725964" lon="-6.179123736155956"><ele>805.0</ele><time>2026-03-23T09:35:40.948Z</time></trkpt><trkpt lat="30.15104469026565" lon="-6.179070749679746"><ele>805.0</ele><time>2026-03-23T09:35:41.948Z</time></trkpt><trkpt lat="30.151147243380283" lon="-6.17903417724931"><ele>804.5</ele><time>2026-03-23T09:35:42.948Z</time></trkpt><trkpt lat="30.151256759308932" lon="-6.179011094827904"><ele>804.0</ele><time>2026-03-23T09:35:43.948Z</time></trkpt><trkpt lat="30.151360987165173" lon="-6.178976437140083"><ele>803.5</ele><time>2026-03-23T09:35:44.948Z</time></trkpt><trkpt lat="30.151472080604307" lon="-6.178920201841411"><ele>803.0</ele><time>2026-03-23T09:35:45.948Z</time></trkpt><trkpt lat="30.15158160511408" lon="-6.178852950004944"><ele>803.0</ele><time>2026-03-23T09:35:46.948Z</time></trkpt><trkpt lat="30.15169195525747" lon="-6.178766906645047"><ele>803.0</ele><time>2026-03-23T09:35:47.948Z</time></trkpt><trkpt lat="30.151799437210663" lon="-6.17867605662542"><ele>803.0</ele><time>2026-03-23T09:35:48.948Z</time></trkpt><trkpt lat="30.151916043724245" lon="-6.17859604496541"><ele>803.0</ele><time>2026-03-23T09:35:49.948Z</time></trkpt><trkpt lat="30.152029019057913" lon="-6.178522676038764"><ele>803.0</ele><time>2026-03-23T09:35:50.948Z</time></trkpt><trkpt lat="30.15213505106921" lon="-6.1784508477902795"><ele>803.0</ele><time>2026-03-23T09:35:51.948Z</time></trkpt><trkpt lat="30.1522314186038" lon="-6.17838804492478"><ele>803.0</ele><time>2026-03-23T09:35:52.948Z</time></trkpt><trkpt lat="30.152312652503188" lon="-6.1783414115311155"><ele>803.0</ele><time>2026-03-23T09:35:53.948Z</time></trkpt><trkpt lat="30.152388106354547" lon="-6.178305240074941"><ele>803.0</ele><time>2026-03-23T09:35:54.948Z</time></trkpt><trkpt lat="30.15245932265909" lon="-6.178267748943599"><ele>803.0000000000001</ele><time>2026-03-23T09:35:55.948Z</time></trkpt><trkpt lat="30.152514740632704" lon="-6.178222715109853"><ele>803.0</ele><time>2026-03-23T09:35:56.948Z</time></trkpt><trkpt lat="30.15258204306946" lon="-6.178161270403699"><ele>803.0</ele><time>2026-03-23T09:35:59.948Z</time></trkpt><trkpt lat="30.15263310210085" lon="-6.178101947397796"><ele>803.0</ele><time>2026-03-23T09:36:02.948Z</time></trkpt><trkpt lat="30.152676631123278" lon="-6.178025442241928"><ele>803.0000000000001</ele><time>2026-03-23T09:36:04.948Z</time></trkpt><trkpt lat="30.152725694625897" lon="-6.177931916734019"><ele>803.0</ele><time>2026-03-23T09:36:06.948Z</time></trkpt><trkpt lat="30.15277700609768" lon="-6.177864716404267"><ele>802.8333333333334</ele><time>2026-03-23T09:36:08.948Z</time></trkpt><trkpt lat="30.152819132616877" lon="-6.177799657870501"><ele>802.6666666666667</ele><time>2026-03-23T09:36:11.948Z</time></trkpt><trkpt lat="30.152882904005306" lon="-6.177757977921648"><ele>802.5</ele><time>2026-03-23T09:36:15.947Z</time></trkpt><trkpt lat="30.152942527043884" lon="-6.177731937704759"><ele>802.3333333333333</ele><time>2026-03-23T09:36:34.947Z</time></trkpt><trkpt lat="30.15303890275405" lon="-6.177635095925721"><ele>802.1666666666666</ele><time>2026-03-23T09:36:36.947Z</time></trkpt><trkpt lat="30.153079335044033" lon="-6.1775700884880065"><ele>802.0</ele><time>2026-03-23T09:36:37.947Z</time></trkpt><trkpt lat="30.153122805444315" lon="-6.177510981170548"><ele>802.0</ele><time>2026-03-23T09:36:38.947Z</time></trkpt><trkpt lat="30.15317285809789" lon="-6.1774337466553595"><ele>802.0</ele><time>2026-03-23T09:36:39.947Z</time></trkpt><trkpt lat="30.153215988268823" lon="-6.17737191602242"><ele>802.0</ele><time>2026-03-23T09:36:40.947Z</time></trkpt><trkpt lat="30.153328634328737" lon="-6.177295918962988"><ele>802.0</ele><time>2026-03-23T09:36:42.947Z</time></trkpt><trkpt lat="30.153387274441148" lon="-6.177264651740628"><ele>802.0</ele><time>2026-03-23T09:36:43.947Z</time></trkpt><trkpt lat="30.15347023374451" lon="-6.177192307410809"><ele>802.3333333333333</ele><time>2026-03-23T09:36:45.947Z</time></trkpt><trkpt lat="30.15354506652679" lon="-6.177161612075584"><ele>802.6666666666666</ele><time>2026-03-23T09:36:46.946Z</time></trkpt><trkpt lat="30.153617232841025" lon="-6.177128309581274"><ele>803.0</ele><time>2026-03-23T09:36:47.947Z</time></trkpt><trkpt lat="30.153674127849346" lon="-6.177067834267966"><ele>803.3333333333333</ele><time>2026-03-23T09:36:49.947Z</time></trkpt><trkpt lat="30.153678898636652" lon="-6.176987649726058"><ele>803.6666666666666</ele><time>2026-03-23T09:36:51.947Z</time></trkpt><trkpt lat="30.153656405504364" lon="-6.176845031383092"><ele>804.0</ele><time>2026-03-23T09:36:53.947Z</time></trkpt><trkpt lat="30.153640069921224" lon="-6.17677151176168"><ele>804.0</ele><time>2026-03-23T09:36:54.947Z</time></trkpt><trkpt lat="30.153648187295765" lon="-6.176678088984581"><ele>804.0</ele><time>2026-03-23T09:36:56.947Z</time></trkpt><trkpt lat="30.153687327228837" lon="-6.176602404270436"><ele>804.0</ele><time>2026-03-23T09:36:58.947Z</time></trkpt><trkpt lat="30.15375912471362" lon="-6.176570290812731"><ele>804.0</ele><time>2026-03-23T09:37:02.947Z</time></trkpt><trkpt lat="30.15383515390847" lon="-6.176560282319421"><ele>804.0</ele><time>2026-03-23T09:37:05.947Z</time></trkpt><trkpt lat="30.15389262363153" lon="-6.176593073380246"><ele>804.0</ele><time>2026-03-23T09:37:10.946Z</time></trkpt><trkpt lat="30.15392392932026" lon="-6.176522731751926"><ele>804.0</ele><time>2026-03-23T09:37:14.946Z</time></trkpt><trkpt lat="30.153860560473653" lon="-6.176496276761252"><ele>804.0</ele><time>2026-03-23T09:38:11.946Z</time></trkpt><trkpt lat="30.153769473879855" lon="-6.176498163362624"><ele>804.0</ele><time>2026-03-23T09:38:13.946Z</time></trkpt><trkpt lat="30.153658196546306" lon="-6.176484789099487"><ele>804.0</ele><time>2026-03-23T09:38:15.946Z</time></trkpt><trkpt lat="30.153582029179837" lon="-6.176494615932213"><ele>804.0</ele><time>2026-03-23T09:38:16.946Z</time></trkpt><trkpt lat="30.153503465342723" lon="-6.176504273112804"><ele>804.0</ele><time>2026-03-23T09:38:17.946Z</time></trkpt><trkpt lat="30.153426862088192" lon="-6.176504483330526"><ele>804.0</ele><time>2026-03-23T09:38:18.946Z</time></trkpt><trkpt lat="30.15334669427436" lon="-6.176489201418254"><ele>804.0</ele><time>2026-03-23T09:38:19.946Z</time></trkpt><trkpt lat="30.153273287588753" lon="-6.176458640783914"><ele>804.0</ele><time>2026-03-23T09:38:20.946Z</time></trkpt><trkpt lat="30.15320646998494" lon="-6.176419446893709"><ele>804.0</ele><time>2026-03-23T09:38:21.946Z</time></trkpt><trkpt lat="30.153144167192245" lon="-6.176392712302131"><ele>804.0</ele><time>2026-03-23T09:38:22.946Z</time></trkpt><trkpt lat="30.153075953622647" lon="-6.176361363975515"><ele>804.0</ele><time>2026-03-23T09:38:23.946Z</time></trkpt><trkpt lat="30.153012398821204" lon="-6.176324848943522"><ele>804.0</ele><time>2026-03-23T09:38:24.946Z</time></trkpt><trkpt lat="30.152944916657958" lon="-6.176265307221432"><ele>804.0</ele><time>2026-03-23T09:38:25.946Z</time></trkpt><trkpt lat="30.152843702139634" lon="-6.176191545020186"><ele>804.75</ele><time>2026-03-23T09:38:26.946Z</time></trkpt><trkpt lat="30.15272220789302" lon="-6.176118126214124"><ele>805.5</ele><time>2026-03-23T09:38:27.946Z</time></trkpt><trkpt lat="30.152582437871466" lon="-6.176051897558196"><ele>806.25</ele><time>2026-03-23T09:38:28.946Z</time></trkpt><trkpt lat="30.152435606327757" lon="-6.175983842050156"><ele>807.0</ele><time>2026-03-23T09:38:29.946Z</time></trkpt><trkpt lat="30.152290711070265" lon="-6.175909502523979"><ele>807.0</ele><time>2026-03-23T09:38:30.946Z</time></trkpt><trkpt lat="30.152176266689942" lon="-6.175836884335935"><ele>807.0</ele><time>2026-03-23T09:38:31.946Z</time></trkpt><trkpt lat="30.152113819095046" lon="-6.175741454801395"><ele>807.0</ele><time>2026-03-23T09:38:32.946Z</time></trkpt><trkpt lat="30.15208871002688" lon="-6.1756311713839205"><ele>807.0</ele><time>2026-03-23T09:38:33.946Z</time></trkpt><trkpt lat="30.152089638651994" lon="-6.1755009313802836"><ele>807.0</ele><time>2026-03-23T09:38:34.946Z</time></trkpt><trkpt lat="30.152116564328313" lon="-6.175385062715899"><ele>807.0</ele><time>2026-03-23T09:38:35.946Z</time></trkpt><trkpt lat="30.152164475257962" lon="-6.175281313581553"><ele>807.0</ele><time>2026-03-23T09:38:36.946Z</time></trkpt><trkpt lat="30.152213037270858" lon="-6.175165408822178"><ele>807.0</ele><time>2026-03-23T09:38:37.946Z</time></trkpt><trkpt lat="30.152255784347194" lon="-6.1750535568875025"><ele>807.0</ele><time>2026-03-23T09:38:38.946Z</time></trkpt><trkpt lat="30.1522917527832" lon="-6.174937335270389"><ele>807.0</ele><time>2026-03-23T09:38:39.946Z</time></trkpt><trkpt lat="30.152328662744743" lon="-6.17480739868517"><ele>807.0</ele><time>2026-03-23T09:38:40.946Z</time></trkpt><trkpt lat="30.152366704276925" lon="-6.174683251494821"><ele>807.0</ele><time>2026-03-23T09:38:41.946Z</time></trkpt><trkpt lat="30.152408027867587" lon="-6.174559970919042"><ele>807.0</ele><time>2026-03-23T09:38:42.946Z</time></trkpt><trkpt lat="30.152448074468392" lon="-6.174435291612541"><ele>807.0</ele><time>2026-03-23T09:38:43.946Z</time></trkpt><trkpt lat="30.152492011732647" lon="-6.174311937217962"><ele>806.75</ele><time>2026-03-23T09:38:44.946Z</time></trkpt><trkpt lat="30.15253426659709" lon="-6.174197910781889"><ele>806.5</ele><time>2026-03-23T09:38:45.946Z</time></trkpt><trkpt lat="30.152583340273218" lon="-6.174074086902994"><ele>806.25</ele><time>2026-03-23T09:38:46.946Z</time></trkpt><trkpt lat="30.152635647121844" lon="-6.173948895426281"><ele>806.0</ele><time>2026-03-23T09:38:47.946Z</time></trkpt><trkpt lat="30.15267543916398" lon="-6.1738159960394645"><ele>806.0</ele><time>2026-03-23T09:38:48.946Z</time></trkpt><trkpt lat="30.152697594802543" lon="-6.173684879133171"><ele>806.0</ele><time>2026-03-23T09:38:49.946Z</time></trkpt><trkpt lat="30.15269341754769" lon="-6.173558520201057"><ele>806.0</ele><time>2026-03-23T09:38:50.946Z</time></trkpt><trkpt lat="30.15266809257022" lon="-6.173420291438321"><ele>806.0</ele><time>2026-03-23T09:38:51.946Z</time></trkpt><trkpt lat="30.152632627481662" lon="-6.1732964626514395"><ele>806.0</ele><time>2026-03-23T09:38:52.946Z</time></trkpt><trkpt lat="30.1525837491498" lon="-6.173191289199464"><ele>806.0</ele><time>2026-03-23T09:38:53.946Z</time></trkpt><trkpt lat="30.152519000421844" lon="-6.173096897861781"><ele>806.0</ele><time>2026-03-23T09:38:54.946Z</time></trkpt><trkpt lat="30.152433881169674" lon="-6.173019634480664"><ele>806.0</ele><time>2026-03-23T09:38:55.946Z</time></trkpt><trkpt lat="30.15233983816416" lon="-6.172954671634312"><ele>806.0</ele><time>2026-03-23T09:38:56.946Z</time></trkpt><trkpt lat="30.152228016203736" lon="-6.17288442832606"><ele>805.5999999999999</ele><time>2026-03-23T09:38:57.946Z</time></trkpt><trkpt lat="30.152122378395994" lon="-6.172822682921887"><ele>805.2</ele><time>2026-03-23T09:38:58.945Z</time></trkpt><trkpt lat="30.152023478669665" lon="-6.172765747595741"><ele>804.8</ele><time>2026-03-23T09:38:59.945Z</time></trkpt><trkpt lat="30.151940700623914" lon="-6.172711908803273"><ele>804.4000000000001</ele><time>2026-03-23T09:39:00.945Z</time></trkpt><trkpt lat="30.151869049674563" lon="-6.1726649235527"><ele>804.0</ele><time>2026-03-23T09:39:01.946Z</time></trkpt><trkpt lat="30.1517952199598" lon="-6.172617266800609"><ele>804.0</ele><time>2026-03-23T09:39:02.946Z</time></trkpt><trkpt lat="30.15172230174482" lon="-6.172568253517027"><ele>804.0</ele><time>2026-03-23T09:39:03.946Z</time></trkpt><trkpt lat="30.151662984279152" lon="-6.172529647560691"><ele>804.0</ele><time>2026-03-23T09:39:04.946Z</time></trkpt><trkpt lat="30.151579262774728" lon="-6.172452604345324"><ele>804.0</ele><time>2026-03-23T09:39:06.946Z</time></trkpt><trkpt lat="30.15153389420017" lon="-6.172368119238806"><ele>804.0</ele><time>2026-03-23T09:39:08.946Z</time></trkpt><trkpt lat="30.151486113272803" lon="-6.172252902607221"><ele>803.8000000000001</ele><time>2026-03-23T09:39:10.946Z</time></trkpt><trkpt lat="30.15147369603011" lon="-6.17211084192433"><ele>803.6</ele><time>2026-03-23T09:39:12.946Z</time></trkpt><trkpt lat="30.151505015687917" lon="-6.172029457209621"><ele>803.4</ele><time>2026-03-23T09:39:13.946Z</time></trkpt><trkpt lat="30.151548092271252" lon="-6.171925047666096"><ele>803.2</ele><time>2026-03-23T09:39:14.946Z</time></trkpt><trkpt lat="30.15160670576725" lon="-6.1718142316312266"><ele>803.0</ele><time>2026-03-23T09:39:15.946Z</time></trkpt><trkpt lat="30.151675097425837" lon="-6.171698202795265"><ele>803.0</ele><time>2026-03-23T09:39:16.946Z</time></trkpt><trkpt lat="30.151741340840466" lon="-6.171576022013909"><ele>803.0</ele><time>2026-03-23T09:39:17.946Z</time></trkpt><trkpt lat="30.15181389204819" lon="-6.171437276925424"><ele>803.0</ele><time>2026-03-23T09:39:18.946Z</time></trkpt><trkpt lat="30.151895605874795" lon="-6.171286977079919"><ele>803.0</ele><time>2026-03-23T09:39:19.946Z</time></trkpt><trkpt lat="30.151980140961438" lon="-6.171133530601951"><ele>803.3333333333334</ele><time>2026-03-23T09:39:20.946Z</time></trkpt><trkpt lat="30.152060963756476" lon="-6.170972738961077"><ele>803.6666666666667</ele><time>2026-03-23T09:39:21.946Z</time></trkpt><trkpt lat="30.152144976861234" lon="-6.17081018211095"><ele>804.0</ele><time>2026-03-23T09:39:22.946Z</time></trkpt><trkpt lat="30.152226820701276" lon="-6.170647114770747"><ele>803.3333333333333</ele><time>2026-03-23T09:39:23.946Z</time></trkpt><trkpt lat="30.152307619111234" lon="-6.17048739529738"><ele>802.6666666666666</ele><time>2026-03-23T09:39:24.946Z</time></trkpt><trkpt lat="30.15239255722141" lon="-6.170330276873352"><ele>802.0</ele><time>2026-03-23T09:39:25.946Z</time></trkpt><trkpt lat="30.15247596617303" lon="-6.17018405982678"><ele>802.0</ele><time>2026-03-23T09:39:26.946Z</time></trkpt><trkpt lat="30.15255138677921" lon="-6.170039023193563"><ele>802.0</ele><time>2026-03-23T09:39:27.946Z</time></trkpt><trkpt lat="30.152626894651295" lon="-6.169914429827293"><ele>802.0</ele><time>2026-03-23T09:39:28.946Z</time></trkpt><trkpt lat="30.152688467723586" lon="-6.16977662179095"><ele>802.0</ele><time>2026-03-23T09:39:29.946Z</time></trkpt><trkpt lat="30.15275980654401" lon="-6.169646715010821"><ele>802.0</ele><time>2026-03-23T09:39:30.946Z</time></trkpt><trkpt lat="30.152832269923433" lon="-6.169505885921296"><ele>802.0</ele><time>2026-03-23T09:39:31.946Z</time></trkpt><trkpt lat="30.152914481820385" lon="-6.16934601815905"><ele>802.0</ele><time>2026-03-23T09:39:32.946Z</time></trkpt><trkpt lat="30.152993497151495" lon="-6.169188693155491"><ele>802.0</ele><time>2026-03-23T09:39:33.946Z</time></trkpt><trkpt lat="30.153055375549172" lon="-6.169064524630824"><ele>802.0</ele><time>2026-03-23T09:39:34.946Z</time></trkpt><trkpt lat="30.153107821877246" lon="-6.168943638025796"><ele>802.0</ele><time>2026-03-23T09:39:35.946Z</time></trkpt><trkpt lat="30.153145142997378" lon="-6.168859024808604"><ele>802.0</ele><time>2026-03-23T09:39:36.946Z</time></trkpt><trkpt lat="30.153171838003836" lon="-6.168778098685368"><ele>802.0</ele><time>2026-03-23T09:39:37.946Z</time></trkpt><trkpt lat="30.153199124913545" lon="-6.168650105706649"><ele>801.8</ele><time>2026-03-23T09:39:39.946Z</time></trkpt><trkpt lat="30.15323552977604" lon="-6.1685800866309055"><ele>801.6</ele><time>2026-03-23T09:39:40.946Z</time></trkpt><trkpt lat="30.153280743518753" lon="-6.16849351211033"><ele>801.4</ele><time>2026-03-23T09:39:41.946Z</time></trkpt><trkpt lat="30.15332514997181" lon="-6.168408459527142"><ele>801.1999999999999</ele><time>2026-03-23T09:39:42.946Z</time></trkpt><trkpt lat="30.153379101962024" lon="-6.168304973038241"><ele>801.0</ele><time>2026-03-23T09:39:43.946Z</time></trkpt><trkpt lat="30.153433461147607" lon="-6.168201301094022"><ele>800.75</ele><time>2026-03-23T09:39:44.946Z</time></trkpt><trkpt lat="30.153488607137888" lon="-6.168096626527457"><ele>800.5</ele><time>2026-03-23T09:39:45.946Z</time></trkpt><trkpt lat="30.153549385233067" lon="-6.1679800890967895"><ele>800.25</ele><time>2026-03-23T09:39:46.946Z</time></trkpt><trkpt lat="30.153608865803406" lon="-6.167866039607314"><ele>800.0</ele><time>2026-03-23T09:39:47.946Z</time></trkpt><trkpt lat="30.153667501660337" lon="-6.167753609766679"><ele>800.0</ele><time>2026-03-23T09:39:48.946Z</time></trkpt><trkpt lat="30.15372581796712" lon="-6.167641792678855"><ele>800.0</ele><time>2026-03-23T09:39:49.946Z</time></trkpt><trkpt lat="30.153787943065335" lon="-6.167523499223316"><ele>800.0</ele><time>2026-03-23T09:39:50.946Z</time></trkpt><trkpt lat="30.153849760606423" lon="-6.167406388005911"><ele>800.0</ele><time>2026-03-23T09:39:51.946Z</time></trkpt><trkpt lat="30.15389636671228" lon="-6.167283768591362"><ele>800.25</ele><time>2026-03-23T09:39:52.946Z</time></trkpt><trkpt lat="30.153976399319312" lon="-6.167166475200628"><ele>800.5</ele><time>2026-03-23T09:39:53.946Z</time></trkpt><trkpt lat="30.15403920284878" lon="-6.167047496149494"><ele>800.75</ele><time>2026-03-23T09:39:54.946Z</time></trkpt><trkpt lat="30.154117819841193" lon="-6.166898845981416"><ele>801.0</ele><time>2026-03-23T09:39:55.946Z</time></trkpt><trkpt lat="30.154203528452513" lon="-6.1667367492474945"><ele>801.0</ele><time>2026-03-23T09:39:56.946Z</time></trkpt><trkpt lat="30.15428931538591" lon="-6.166573640229658"><ele>801.0</ele><time>2026-03-23T09:39:57.946Z</time></trkpt><trkpt lat="30.154374529858213" lon="-6.1664089346585405"><ele>801.0</ele><time>2026-03-23T09:39:58.946Z</time></trkpt><trkpt lat="30.15445782204495" lon="-6.166247126755722"><ele>801.6666666666667</ele><time>2026-03-23T09:39:59.946Z</time></trkpt><trkpt lat="30.154547040143463" lon="-6.166073806896114"><ele>802.3333333333334</ele><time>2026-03-23T09:40:00.946Z</time></trkpt><trkpt lat="30.154642349963243" lon="-6.165887722225231"><ele>803.0</ele><time>2026-03-23T09:40:01.946Z</time></trkpt><trkpt lat="30.154745317054243" lon="-6.165687649799147"><ele>802.3333333333334</ele><time>2026-03-23T09:40:02.946Z</time></trkpt><trkpt lat="30.154841890261178" lon="-6.165500182467967"><ele>801.6666666666667</ele><time>2026-03-23T09:40:03.946Z</time></trkpt><trkpt lat="30.154933389173088" lon="-6.165322565344613"><ele>801.0</ele><time>2026-03-23T09:40:04.946Z</time></trkpt><trkpt lat="30.15495667771369" lon="-6.1650952822204745"><ele>801.0</ele><time>2026-03-23T09:40:05.946Z</time></trkpt><trkpt lat="30.155042543855508" lon="-6.164931841286233"><ele>801.0</ele><time>2026-03-23T09:40:06.946Z</time></trkpt><trkpt lat="30.155128521622206" lon="-6.164763320207668"><ele>801.0</ele><time>2026-03-23T09:40:07.946Z</time></trkpt><trkpt lat="30.15521038711537" lon="-6.164598317051066"><ele>801.6666666666667</ele><time>2026-03-23T09:40:08.946Z</time></trkpt><trkpt lat="30.155291274099707" lon="-6.164434028790703"><ele>802.3333333333334</ele><time>2026-03-23T09:40:09.946Z</time></trkpt><trkpt lat="30.155369376242994" lon="-6.1642763971185515"><ele>803.0</ele><time>2026-03-23T09:40:10.946Z</time></trkpt><trkpt lat="30.155441940454132" lon="-6.164116842471129"><ele>802.25</ele><time>2026-03-23T09:40:11.946Z</time></trkpt><trkpt lat="30.155515510289625" lon="-6.16396844430502"><ele>801.5</ele><time>2026-03-23T09:40:12.946Z</time></trkpt><trkpt lat="30.15558661473602" lon="-6.163824916103932"><ele>800.75</ele><time>2026-03-23T09:40:13.946Z</time></trkpt><trkpt lat="30.155655157637593" lon="-6.163683453406041"><ele>800.0</ele><time>2026-03-23T09:40:14.946Z</time></trkpt><trkpt lat="30.15572620307167" lon="-6.163547713796279"><ele>800.0</ele><time>2026-03-23T09:40:15.946Z</time></trkpt><trkpt lat="30.155792567400283" lon="-6.163412247185349"><ele>800.0</ele><time>2026-03-23T09:40:16.946Z</time></trkpt><trkpt lat="30.15585611516468" lon="-6.163280218326263"><ele>800.0</ele><time>2026-03-23T09:40:17.946Z</time></trkpt><trkpt lat="30.155915400581694" lon="-6.163153032637982"><ele>800.0</ele><time>2026-03-23T09:40:18.946Z</time></trkpt><trkpt lat="30.155983565416257" lon="-6.163023336112332"><ele>799.25</ele><time>2026-03-23T09:40:19.946Z</time></trkpt><trkpt lat="30.156055687307706" lon="-6.162890279092653"><ele>798.5</ele><time>2026-03-23T09:40:20.946Z</time></trkpt><trkpt lat="30.15612149565994" lon="-6.162748822629797"><ele>797.75</ele><time>2026-03-23T09:40:21.946Z</time></trkpt><trkpt lat="30.156184096312636" lon="-6.162613895042079"><ele>797.0</ele><time>2026-03-23T09:40:22.946Z</time></trkpt><trkpt lat="30.156251485644802" lon="-6.162491367372866"><ele>797.0</ele><time>2026-03-23T09:40:23.946Z</time></trkpt><trkpt lat="30.15632217776323" lon="-6.162381928287218"><ele>797.0</ele><time>2026-03-23T09:40:24.946Z</time></trkpt><trkpt lat="30.156387111247746" lon="-6.162260426530945"><ele>797.0</ele><time>2026-03-23T09:40:25.946Z</time></trkpt><trkpt lat="30.15644566051919" lon="-6.162128973992048"><ele>797.0</ele><time>2026-03-23T09:40:26.946Z</time></trkpt><trkpt lat="30.156503856670916" lon="-6.161996176417426"><ele>797.0</ele><time>2026-03-23T09:40:27.946Z</time></trkpt><trkpt lat="30.15656798168948" lon="-6.161870400312376"><ele>797.0</ele><time>2026-03-23T09:40:28.946Z</time></trkpt><trkpt lat="30.156624234277594" lon="-6.161766964886323"><ele>797.0</ele><time>2026-03-23T09:40:29.946Z</time></trkpt><trkpt lat="30.156680631496563" lon="-6.161669461395636"><ele>797.0</ele><time>2026-03-23T09:40:30.946Z</time></trkpt><trkpt lat="30.156733746091223" lon="-6.161579837545785"><ele>797.0</ele><time>2026-03-23T09:40:31.946Z</time></trkpt><trkpt lat="30.156788808959355" lon="-6.161480354759289"><ele>797.0000000000001</ele><time>2026-03-23T09:40:32.946Z</time></trkpt><trkpt lat="30.15683496250049" lon="-6.161389061194265"><ele>797.0</ele><time>2026-03-23T09:40:33.946Z</time></trkpt><trkpt lat="30.156871044913842" lon="-6.161307286715427"><ele>797.0</ele><time>2026-03-23T09:40:34.946Z</time></trkpt><trkpt lat="30.15690346725007" lon="-6.1612347206419535"><ele>797.0</ele><time>2026-03-23T09:40:35.946Z</time></trkpt><trkpt lat="30.156928796507742" lon="-6.161167123574012"><ele>797.0000000000001</ele><time>2026-03-23T09:40:36.946Z</time></trkpt><trkpt lat="30.15697782026677" lon="-6.161053145816819"><ele>797.0</ele><time>2026-03-23T09:40:38.946Z</time></trkpt><trkpt lat="30.1569970710846" lon="-6.160973449602928"><ele>797.0000000000001</ele><time>2026-03-23T09:40:39.946Z</time></trkpt><trkpt lat="30.157017533658852" lon="-6.160888251630417"><ele>797.0</ele><time>2026-03-23T09:40:40.945Z</time></trkpt><trkpt lat="30.157036974800366" lon="-6.160808641883794"><ele>797.0</ele><time>2026-03-23T09:40:41.945Z</time></trkpt><trkpt lat="30.157046234274034" lon="-6.160719504837129"><ele>797.0</ele><time>2026-03-23T09:40:42.945Z</time></trkpt><trkpt lat="30.157055567359127" lon="-6.160637982269893"><ele>797.0000000000001</ele><time>2026-03-23T09:40:43.945Z</time></trkpt><trkpt lat="30.157101372123226" lon="-6.160495754979956"><ele>797.0</ele><time>2026-03-23T09:40:45.945Z</time></trkpt><trkpt lat="30.157126374173064" lon="-6.160412551721368"><ele>797.6666666666667</ele><time>2026-03-23T09:40:46.945Z</time></trkpt><trkpt lat="30.157144283611103" lon="-6.160331654338394"><ele>798.3333333333334</ele><time>2026-03-23T09:40:47.945Z</time></trkpt><trkpt lat="30.157146609699108" lon="-6.160245901337386"><ele>799.0</ele><time>2026-03-23T09:40:48.945Z</time></trkpt><trkpt lat="30.15713747346273" lon="-6.160157620447983"><ele>799.6666666666667</ele><time>2026-03-23T09:40:49.945Z</time></trkpt><trkpt lat="30.15711094053851" lon="-6.160070880770234"><ele>800.3333333333334</ele><time>2026-03-23T09:40:50.945Z</time></trkpt><trkpt lat="30.157082466842258" lon="-6.1599796709346695"><ele>801.0</ele><time>2026-03-23T09:40:51.945Z</time></trkpt><trkpt lat="30.157065922496354" lon="-6.159875855387936"><ele>801.8333333333334</ele><time>2026-03-23T09:40:52.945Z</time></trkpt><trkpt lat="30.157071576085166" lon="-6.159775073857487"><ele>802.6666666666667</ele><time>2026-03-23T09:40:53.945Z</time></trkpt><trkpt lat="30.157082508764894" lon="-6.159672456954718"><ele>803.5</ele><time>2026-03-23T09:40:54.945Z</time></trkpt><trkpt lat="30.157085504698905" lon="-6.15958645585803"><ele>804.3333333333334</ele><time>2026-03-23T09:40:55.945Z</time></trkpt><trkpt lat="30.157092485498687" lon="-6.159508057706013"><ele>805.1666666666667</ele><time>2026-03-23T09:40:56.945Z</time></trkpt><trkpt lat="30.157099714860898" lon="-6.159385299477438"><ele>806.0</ele><time>2026-03-23T09:40:58.945Z</time></trkpt><trkpt lat="30.157093628125914" lon="-6.1592998876399045"><ele>806.0</ele><time>2026-03-23T09:41:00.944Z</time></trkpt><trkpt lat="30.157081678540635" lon="-6.159223199488248"><ele>806.0</ele><time>2026-03-23T09:41:02.945Z</time></trkpt><trkpt lat="30.15705743915127" lon="-6.1591156749532106"><ele>806.0</ele><time>2026-03-23T09:41:04.945Z</time></trkpt><trkpt lat="30.15699003288982" lon="-6.159038315961908"><ele>806.0</ele><time>2026-03-23T09:41:06.945Z</time></trkpt><trkpt lat="30.156888066338023" lon="-6.159127270283264"><ele>806.0</ele><time>2026-03-23T09:41:08.945Z</time></trkpt><trkpt lat="30.156870345266903" lon="-6.159239649019359"><ele>806.0000000000001</ele><time>2026-03-23T09:41:10.945Z</time></trkpt><trkpt lat="30.15686644187753" lon="-6.159328558225043"><ele>806.0</ele><time>2026-03-23T09:41:12.945Z</time></trkpt><trkpt lat="30.156870647645693" lon="-6.159421416661166"><ele>806.0</ele><time>2026-03-23T09:41:14.945Z</time></trkpt><trkpt lat="30.15686355205485" lon="-6.15950608463523"><ele>806.0</ele><time>2026-03-23T09:41:16.945Z</time></trkpt><trkpt lat="30.156838177300106" lon="-6.159619018723383"><ele>806.0000000000001</ele><time>2026-03-23T09:41:19.945Z</time></trkpt><trkpt lat="30.15687645279269" lon="-6.159724238960752"><ele>806.0</ele><time>2026-03-23T09:41:21.945Z</time></trkpt><trkpt lat="30.156903589400148" lon="-6.159841537898657"><ele>805.1666666666667</ele><time>2026-03-23T09:41:23.945Z</time></trkpt><trkpt lat="30.157021622997977" lon="-6.159913219054157"><ele>804.3333333333334</ele><time>2026-03-23T09:41:25.945Z</time></trkpt><trkpt lat="30.15709363217203" lon="-6.159937253219084"><ele>803.5</ele><time>2026-03-23T09:41:26.945Z</time></trkpt><trkpt lat="30.157139459454505" lon="-6.159991928751552"><ele>802.6666666666667</ele><time>2026-03-23T09:41:27.945Z</time></trkpt><trkpt lat="30.15721196942715" lon="-6.160067038430759"><ele>801.8333333333334</ele><time>2026-03-23T09:41:29.945Z</time></trkpt><trkpt lat="30.157271713832134" lon="-6.160109514404397"><ele>801.0</ele><time>2026-03-23T09:41:30.945Z</time></trkpt><trkpt lat="30.157339965083956" lon="-6.160151363794921"><ele>801.0</ele><time>2026-03-23T09:41:31.945Z</time></trkpt><trkpt lat="30.157402546889884" lon="-6.1601827929460775"><ele>801.0</ele><time>2026-03-23T09:41:32.945Z</time></trkpt><trkpt lat="30.15750411898986" lon="-6.1602352926036374"><ele>801.0</ele><time>2026-03-23T09:41:34.945Z</time></trkpt><trkpt lat="30.15760366553528" lon="-6.160245350551526"><ele>801.0</ele><time>2026-03-23T09:41:36.945Z</time></trkpt><trkpt lat="30.157697767819478" lon="-6.160175794382379"><ele>801.0</ele><time>2026-03-23T09:41:38.945Z</time></trkpt><trkpt lat="30.1577437966869" lon="-6.160115094747822"><ele>801.0</ele><time>2026-03-23T09:41:39.945Z</time></trkpt><trkpt lat="30.157804252470523" lon="-6.16001781547795"><ele>801.0</ele><time>2026-03-23T09:41:40.945Z</time></trkpt><trkpt lat="30.157860843767118" lon="-6.159891684250201"><ele>801.0</ele><time>2026-03-23T09:41:41.945Z</time></trkpt><trkpt lat="30.157926332378917" lon="-6.159747307005734"><ele>801.0</ele><time>2026-03-23T09:41:42.945Z</time></trkpt><trkpt lat="30.158005493298955" lon="-6.159585564551368"><ele>800.6666666666667</ele><time>2026-03-23T09:41:43.945Z</time></trkpt><trkpt lat="30.15810072970519" lon="-6.159400605912157"><ele>800.3333333333334</ele><time>2026-03-23T09:41:44.945Z</time></trkpt><trkpt lat="30.158208452800693" lon="-6.159188777894158"><ele>800.0</ele><time>2026-03-23T09:41:45.945Z</time></trkpt><trkpt lat="30.158309864735198" lon="-6.158985554121465"><ele>801.0</ele><time>2026-03-23T09:41:46.945Z</time></trkpt><trkpt lat="30.158409542394125" lon="-6.1588118256060795"><ele>802.0</ele><time>2026-03-23T09:41:47.945Z</time></trkpt><trkpt lat="30.158492258569776" lon="-6.1586405482303945"><ele>803.0</ele><time>2026-03-23T09:41:48.945Z</time></trkpt><trkpt lat="30.158572046260065" lon="-6.158496635715293"><ele>803.0</ele><time>2026-03-23T09:41:49.945Z</time></trkpt><trkpt lat="30.158652037431626" lon="-6.158339892651413"><ele>803.0</ele><time>2026-03-23T09:41:50.945Z</time></trkpt><trkpt lat="30.158736767395816" lon="-6.158182322116941"><ele>803.0</ele><time>2026-03-23T09:41:51.945Z</time></trkpt><trkpt lat="30.158823215203878" lon="-6.158021419295006"><ele>802.3333333333334</ele><time>2026-03-23T09:41:52.945Z</time></trkpt><trkpt lat="30.15890894013364" lon="-6.157861867564454"><ele>801.6666666666667</ele><time>2026-03-23T09:41:53.945Z</time></trkpt><trkpt lat="30.158987251814015" lon="-6.1577073777316675"><ele>801.0</ele><time>2026-03-23T09:41:54.945Z</time></trkpt><trkpt lat="30.159070175911555" lon="-6.157548578502537"><ele>800.0</ele><time>2026-03-23T09:41:55.945Z</time></trkpt><trkpt lat="30.159149273104017" lon="-6.157388715467172"><ele>799.0</ele><time>2026-03-23T09:41:56.945Z</time></trkpt><trkpt lat="30.159230229131715" lon="-6.15722658227389"><ele>798.0</ele><time>2026-03-23T09:41:57.945Z</time></trkpt><trkpt lat="30.1593154816157" lon="-6.15706554642625"><ele>796.3333333333333</ele><time>2026-03-23T09:41:58.945Z</time></trkpt><trkpt lat="30.15939926041605" lon="-6.156901722001702"><ele>794.6666666666666</ele><time>2026-03-23T09:41:59.945Z</time></trkpt><trkpt lat="30.159492128509978" lon="-6.156726095009714"><ele>793.0</ele><time>2026-03-23T09:42:00.945Z</time></trkpt><trkpt lat="30.1595947729023" lon="-6.156533944561684"><ele>792.6666666666666</ele><time>2026-03-23T09:42:01.945Z</time></trkpt><trkpt lat="30.159698567105185" lon="-6.15633681382726"><ele>792.3333333333333</ele><time>2026-03-23T09:42:02.945Z</time></trkpt><trkpt lat="30.15980026257429" lon="-6.156139450442256"><ele>792.0</ele><time>2026-03-23T09:42:03.945Z</time></trkpt><trkpt lat="30.159900612822316" lon="-6.155949949455411"><ele>792.3333333333333</ele><time>2026-03-23T09:42:04.945Z</time></trkpt><trkpt lat="30.160003964162854" lon="-6.155751465816002"><ele>792.6666666666666</ele><time>2026-03-23T09:42:05.945Z</time></trkpt><trkpt lat="30.16010674980864" lon="-6.155559104918981"><ele>793.0</ele><time>2026-03-23T09:42:06.945Z</time></trkpt><trkpt lat="30.16020810796194" lon="-6.155363649943372"><ele>793.0</ele><time>2026-03-23T09:42:07.945Z</time></trkpt><trkpt lat="30.160307166028268" lon="-6.155167447321021"><ele>793.0</ele><time>2026-03-23T09:42:08.945Z</time></trkpt><trkpt lat="30.160404906032305" lon="-6.154974984685582"><ele>793.0</ele><time>2026-03-23T09:42:09.945Z</time></trkpt><trkpt lat="30.160508588824406" lon="-6.154780406592463"><ele>795.0</ele><time>2026-03-23T09:42:10.945Z</time></trkpt><trkpt lat="30.160611637237366" lon="-6.154583729854713"><ele>797.0</ele><time>2026-03-23T09:42:11.945Z</time></trkpt><trkpt lat="30.160712612267748" lon="-6.154394153897006"><ele>799.0</ele><time>2026-03-23T09:42:12.945Z</time></trkpt><trkpt lat="30.160812594210345" lon="-6.154204314424194"><ele>799.3333333333333</ele><time>2026-03-23T09:42:13.945Z</time></trkpt><trkpt lat="30.160914888555048" lon="-6.1540072941410076"><ele>799.6666666666667</ele><time>2026-03-23T09:42:14.945Z</time></trkpt><trkpt lat="30.161016305923773" lon="-6.153812827659217"><ele>800.0</ele><time>2026-03-23T09:42:15.945Z</time></trkpt><trkpt lat="30.161094014336342" lon="-6.153599435662389"><ele>800.0</ele><time>2026-03-23T09:42:16.945Z</time></trkpt><trkpt lat="30.16119139057678" lon="-6.153399986474506"><ele>800.0</ele><time>2026-03-23T09:42:17.945Z</time></trkpt><trkpt lat="30.161292707731477" lon="-6.15319096390434"><ele>800.0</ele><time>2026-03-23T09:42:18.945Z</time></trkpt><trkpt lat="30.161391194552625" lon="-6.152988243629917"><ele>800.0</ele><time>2026-03-23T09:42:19.945Z</time></trkpt><trkpt lat="30.16149353141192" lon="-6.152777570298097"><ele>800.0</ele><time>2026-03-23T09:42:20.945Z</time></trkpt><trkpt lat="30.16159367341884" lon="-6.152571047159534"><ele>800.0</ele><time>2026-03-23T09:42:21.945Z</time></trkpt><trkpt lat="30.161692472974337" lon="-6.152366270266075"><ele>799.0</ele><time>2026-03-23T09:42:22.945Z</time></trkpt><trkpt lat="30.161797209297593" lon="-6.1521512438745525"><ele>798.0</ele><time>2026-03-23T09:42:23.945Z</time></trkpt><trkpt lat="30.161903349227497" lon="-6.151932595464104"><ele>797.0</ele><time>2026-03-23T09:42:24.945Z</time></trkpt><trkpt lat="30.162007260070354" lon="-6.151718302315681"><ele>799.0</ele><time>2026-03-23T09:42:25.945Z</time></trkpt><trkpt lat="30.162119301230515" lon="-6.151518027302826"><ele>801.0</ele><time>2026-03-23T09:42:26.945Z</time></trkpt><trkpt lat="30.16221775166187" lon="-6.151299470436799"><ele>803.0</ele><time>2026-03-23T09:42:27.945Z</time></trkpt><trkpt lat="30.16231541236174" lon="-6.151079225756204"><ele>801.0</ele><time>2026-03-23T09:42:28.945Z</time></trkpt><trkpt lat="30.162411292124265" lon="-6.150870779014479"><ele>799.0</ele><time>2026-03-23T09:42:29.945Z</time></trkpt><trkpt lat="30.1625091044712" lon="-6.150656211829532"><ele>797.0</ele><time>2026-03-23T09:42:30.945Z</time></trkpt><trkpt lat="30.162603605536727" lon="-6.150444190419288"><ele>797.0</ele><time>2026-03-23T09:42:31.945Z</time></trkpt><trkpt lat="30.162688844190182" lon="-6.150217533199102"><ele>797.0</ele><time>2026-03-23T09:42:32.945Z</time></trkpt><trkpt lat="30.1627853283497" lon="-6.149994540367214"><ele>797.0</ele><time>2026-03-23T09:42:33.945Z</time></trkpt><trkpt lat="30.162882919470807" lon="-6.149780378476597"><ele>796.6666666666667</ele><time>2026-03-23T09:42:34.945Z</time></trkpt><trkpt lat="30.162979015533224" lon="-6.149574671138417"><ele>796.3333333333333</ele><time>2026-03-23T09:42:35.945Z</time></trkpt><trkpt lat="30.163075874664912" lon="-6.14936943558878"><ele>796.0</ele><time>2026-03-23T09:42:36.945Z</time></trkpt><trkpt lat="30.163172055428987" lon="-6.149162290490829"><ele>796.3333333333333</ele><time>2026-03-23T09:42:37.945Z</time></trkpt><trkpt lat="30.16326838933081" lon="-6.14895931858977"><ele>796.6666666666667</ele><time>2026-03-23T09:42:38.945Z</time></trkpt><trkpt lat="30.163365718213633" lon="-6.1487489446697445"><ele>797.0</ele><time>2026-03-23T09:42:39.945Z</time></trkpt><trkpt lat="30.163461336333945" lon="-6.148534550158154"><ele>797.0</ele><time>2026-03-23T09:42:40.945Z</time></trkpt><trkpt lat="30.16356145108775" lon="-6.148308631306459"><ele>797.0</ele><time>2026-03-23T09:42:41.945Z</time></trkpt><trkpt lat="30.16366580159531" lon="-6.148080020465942"><ele>797.0</ele><time>2026-03-23T09:42:42.945Z</time></trkpt><trkpt lat="30.16377300513909" lon="-6.147852000884787"><ele>795.3333333333334</ele><time>2026-03-23T09:42:43.945Z</time></trkpt><trkpt lat="30.163875633638327" lon="-6.147623270431259"><ele>793.6666666666667</ele><time>2026-03-23T09:42:44.945Z</time></trkpt><trkpt lat="30.163971467695735" lon="-6.147404121354243"><ele>792.0</ele><time>2026-03-23T09:42:45.945Z</time></trkpt><trkpt lat="30.16406513331809" lon="-6.147186792313049"><ele>792.0</ele><time>2026-03-23T09:42:46.945Z</time></trkpt><trkpt lat="30.164153628191258" lon="-6.146976379461375"><ele>792.0</ele><time>2026-03-23T09:42:47.945Z</time></trkpt><trkpt lat="30.164246286632867" lon="-6.146761209721715"><ele>792.0</ele><time>2026-03-23T09:42:48.945Z</time></trkpt><trkpt lat="30.164340325585666" lon="-6.146564204766993"><ele>792.3333333333333</ele><time>2026-03-23T09:42:49.945Z</time></trkpt><trkpt lat="30.16443026197681" lon="-6.146356431437781"><ele>792.6666666666666</ele><time>2026-03-23T09:42:50.945Z</time></trkpt><trkpt lat="30.164517421518294" lon="-6.14615646165449"><ele>793.0</ele><time>2026-03-23T09:42:51.945Z</time></trkpt><trkpt lat="30.164604850865423" lon="-6.145947188465666"><ele>793.0</ele><time>2026-03-23T09:42:52.945Z</time></trkpt><trkpt lat="30.164692952506318" lon="-6.145749338122449"><ele>793.0</ele><time>2026-03-23T09:42:53.945Z</time></trkpt><trkpt lat="30.164787239727318" lon="-6.1455472808216385"><ele>793.0</ele><time>2026-03-23T09:42:54.945Z</time></trkpt><trkpt lat="30.1648792085576" lon="-6.145345151367145"><ele>793.3333333333333</ele><time>2026-03-23T09:42:55.945Z</time></trkpt><trkpt lat="30.16497269015609" lon="-6.145134137983966"><ele>793.6666666666667</ele><time>2026-03-23T09:42:56.945Z</time></trkpt><trkpt lat="30.16506747952548" lon="-6.144927983398456"><ele>794.0</ele><time>2026-03-23T09:42:57.945Z</time></trkpt><trkpt lat="30.1651616166884" lon="-6.1447173158333"><ele>794.0</ele><time>2026-03-23T09:42:58.945Z</time></trkpt><trkpt lat="30.165256691412832" lon="-6.144510909059509"><ele>794.0</ele><time>2026-03-23T09:42:59.945Z</time></trkpt><trkpt lat="30.165350955953294" lon="-6.144299603357365"><ele>794.0</ele><time>2026-03-23T09:43:00.945Z</time></trkpt><trkpt lat="30.165442708582972" lon="-6.144088436542575"><ele>793.3333333333334</ele><time>2026-03-23T09:43:01.945Z</time></trkpt><trkpt lat="30.165533562935057" lon="-6.1438834387498495"><ele>792.6666666666667</ele><time>2026-03-23T09:43:02.945Z</time></trkpt><trkpt lat="30.165626468051336" lon="-6.143675512612411"><ele>792.0</ele><time>2026-03-23T09:43:03.945Z</time></trkpt><trkpt lat="30.165721673668077" lon="-6.143468584911558"><ele>790.6666666666667</ele><time>2026-03-23T09:43:04.944Z</time></trkpt><trkpt lat="30.165817334924487" lon="-6.143258438331787"><ele>789.3333333333334</ele><time>2026-03-23T09:43:05.944Z</time></trkpt><trkpt lat="30.16591318454632" lon="-6.143045870636983"><ele>788.0</ele><time>2026-03-23T09:43:06.944Z</time></trkpt><trkpt lat="30.166009570745807" lon="-6.142826942000721"><ele>788.0</ele><time>2026-03-23T09:43:07.944Z</time></trkpt><trkpt lat="30.166101188978384" lon="-6.14261290465557"><ele>788.0</ele><time>2026-03-23T09:43:08.944Z</time></trkpt><trkpt lat="30.166183369250746" lon="-6.142410935241361"><ele>788.0</ele><time>2026-03-23T09:43:09.944Z</time></trkpt><trkpt lat="30.16626124628159" lon="-6.142232446301145"><ele>788.3333333333334</ele><time>2026-03-23T09:43:10.944Z</time></trkpt><trkpt lat="30.166338935352485" lon="-6.1420705834452525"><ele>788.6666666666667</ele><time>2026-03-23T09:43:11.943Z</time></trkpt><trkpt lat="30.16641142867822" lon="-6.141908353814948"><ele>789.0</ele><time>2026-03-23T09:43:12.943Z</time></trkpt><trkpt lat="30.16647849710701" lon="-6.141761450187621"><ele>789.25</ele><time>2026-03-23T09:43:13.944Z</time></trkpt><trkpt lat="30.16654508373514" lon="-6.14161120988549"><ele>789.5</ele><time>2026-03-23T09:43:14.944Z</time></trkpt><trkpt lat="30.166608759491716" lon="-6.141473157127676"><ele>789.75</ele><time>2026-03-23T09:43:15.944Z</time></trkpt><trkpt lat="30.16666582268685" lon="-6.141348105126112"><ele>790.0</ele><time>2026-03-23T09:43:16.944Z</time></trkpt><trkpt lat="30.166719347864934" lon="-6.141225072067158"><ele>790.0</ele><time>2026-03-23T09:43:17.944Z</time></trkpt><trkpt lat="30.166771694009586" lon="-6.141098947016013"><ele>790.0</ele><time>2026-03-23T09:43:18.944Z</time></trkpt><trkpt lat="30.16682580006476" lon="-6.140980173799281"><ele>790.0</ele><time>2026-03-23T09:43:19.944Z</time></trkpt><trkpt lat="30.166878106957107" lon="-6.140863945227041"><ele>790.0</ele><time>2026-03-23T09:43:20.944Z</time></trkpt><trkpt lat="30.166931854994605" lon="-6.140745310594162"><ele>789.2</ele><time>2026-03-23T09:43:21.944Z</time></trkpt><trkpt lat="30.16698518327698" lon="-6.140635035763485"><ele>788.4</ele><time>2026-03-23T09:43:22.944Z</time></trkpt><trkpt lat="30.167030379707207" lon="-6.14052544197922"><ele>787.5999999999999</ele><time>2026-03-23T09:43:23.944Z</time></trkpt><trkpt lat="30.16707622198636" lon="-6.140419912637272"><ele>786.8</ele><time>2026-03-23T09:43:24.944Z</time></trkpt><trkpt lat="30.16711982335287" lon="-6.140319768372141"><ele>786.0</ele><time>2026-03-23T09:43:25.944Z</time></trkpt><trkpt lat="30.16716266459449" lon="-6.140223527620408"><ele>786.0</ele><time>2026-03-23T09:43:26.944Z</time></trkpt><trkpt lat="30.16720718678437" lon="-6.140127045376801"><ele>786.0</ele><time>2026-03-23T09:43:27.944Z</time></trkpt><trkpt lat="30.167249064636753" lon="-6.140031763836595"><ele>786.0</ele><time>2026-03-23T09:43:28.944Z</time></trkpt><trkpt lat="30.167286353808834" lon="-6.139945820092798"><ele>786.0</ele><time>2026-03-23T09:43:29.944Z</time></trkpt><trkpt lat="30.16731590087948" lon="-6.139880309489083"><ele>786.0</ele><time>2026-03-23T09:43:30.944Z</time></trkpt><trkpt lat="30.167376104946854" lon="-6.139742695887264"><ele>785.1999999999999</ele><time>2026-03-23T09:43:32.944Z</time></trkpt><trkpt lat="30.16742631870113" lon="-6.139606590477903"><ele>784.4</ele><time>2026-03-23T09:43:34.944Z</time></trkpt><trkpt lat="30.167463440768476" lon="-6.139480959734517"><ele>783.6</ele><time>2026-03-23T09:43:36.944Z</time></trkpt><trkpt lat="30.167455383295877" lon="-6.13940462879329"><ele>782.8</ele><time>2026-03-23T09:43:38.944Z</time></trkpt><trkpt lat="30.167331562349332" lon="-6.139408888636888"><ele>782.0</ele><time>2026-03-23T09:43:41.944Z</time></trkpt><trkpt lat="30.167244401465478" lon="-6.139440195656615"><ele>781.6</ele><time>2026-03-23T09:43:43.944Z</time></trkpt><trkpt lat="30.167169423252997" lon="-6.139438952237346"><ele>781.2</ele><time>2026-03-23T09:43:44.944Z</time></trkpt><trkpt lat="30.167093456574825" lon="-6.13944218358741"><ele>780.8</ele><time>2026-03-23T09:43:45.944Z</time></trkpt><trkpt lat="30.167004089652448" lon="-6.1394490226343414"><ele>780.4</ele><time>2026-03-23T09:43:46.944Z</time></trkpt><trkpt lat="30.166854656795167" lon="-6.139431366539128"><ele>780.0</ele><time>2026-03-23T09:43:47.944Z</time></trkpt><trkpt lat="30.166757002877684" lon="-6.13939680433961"><ele>780.0</ele><time>2026-03-23T09:43:48.944Z</time></trkpt><trkpt lat="30.166657847467267" lon="-6.13936121146698"><ele>780.0</ele><time>2026-03-23T09:43:49.944Z</time></trkpt><trkpt lat="30.16653860605512" lon="-6.139314191325593"><ele>780.0</ele><time>2026-03-23T09:43:50.944Z</time></trkpt><trkpt lat="30.166419908545528" lon="-6.139261220759857"><ele>780.0</ele><time>2026-03-23T09:43:51.944Z</time></trkpt><trkpt lat="30.166278519463443" lon="-6.139171629233808"><ele>782.25</ele><time>2026-03-23T09:43:52.944Z</time></trkpt><trkpt lat="30.166160308529125" lon="-6.139084070996765"><ele>784.5</ele><time>2026-03-23T09:43:53.944Z</time></trkpt><trkpt lat="30.166046043743112" lon="-6.138994487023082"><ele>786.75</ele><time>2026-03-23T09:43:54.944Z</time></trkpt><trkpt lat="30.16591295497532" lon="-6.138925261590981"><ele>789.0</ele><time>2026-03-23T09:43:55.944Z</time></trkpt><trkpt lat="30.165776937163535" lon="-6.13883892532521"><ele>792.0</ele><time>2026-03-23T09:43:56.944Z</time></trkpt><trkpt lat="30.16562967479491" lon="-6.138780652484046"><ele>795.0</ele><time>2026-03-23T09:43:57.944Z</time></trkpt><trkpt lat="30.165486194557534" lon="-6.138719725495336"><ele>798.0</ele><time>2026-03-23T09:43:58.944Z</time></trkpt><trkpt lat="30.165365511766943" lon="-6.138606335254679"><ele>798.0</ele><time>2026-03-23T09:43:59.944Z</time></trkpt><trkpt lat="30.16522523040112" lon="-6.138506004811972"><ele>798.0</ele><time>2026-03-23T09:44:00.944Z</time></trkpt><trkpt lat="30.165061920527698" lon="-6.138367356432944"><ele>798.0</ele><time>2026-03-23T09:44:01.944Z</time></trkpt><trkpt lat="30.16489772859729" lon="-6.13831738252509"><ele>794.6666666666667</ele><time>2026-03-23T09:44:02.944Z</time></trkpt><trkpt lat="30.16472524059962" lon="-6.138269692273096"><ele>791.3333333333334</ele><time>2026-03-23T09:44:03.944Z</time></trkpt><trkpt lat="30.16454555552391" lon="-6.138221254056478"><ele>788.0</ele><time>2026-03-23T09:44:04.944Z</time></trkpt><trkpt lat="30.164371292220476" lon="-6.138111586302623"><ele>787.6666666666667</ele><time>2026-03-23T09:44:05.944Z</time></trkpt><trkpt lat="30.16419380920348" lon="-6.13799829631823"><ele>787.3333333333333</ele><time>2026-03-23T09:44:06.944Z</time></trkpt><trkpt lat="30.16402741330354" lon="-6.137898943054726"><ele>787.0</ele><time>2026-03-23T09:44:07.944Z</time></trkpt><trkpt lat="30.163869163489046" lon="-6.137828077513764"><ele>789.0</ele><time>2026-03-23T09:44:08.944Z</time></trkpt><trkpt lat="30.163698531094692" lon="-6.137760570354185"><ele>791.0</ele><time>2026-03-23T09:44:09.944Z</time></trkpt><trkpt lat="30.163533638211046" lon="-6.137668874390938"><ele>793.0</ele><time>2026-03-23T09:44:10.944Z</time></trkpt><trkpt lat="30.16336909056343" lon="-6.137580137783344"><ele>793.0</ele><time>2026-03-23T09:44:11.944Z</time></trkpt><trkpt lat="30.163212452849315" lon="-6.137502676255444"><ele>793.0</ele><time>2026-03-23T09:44:12.944Z</time></trkpt><trkpt lat="30.163069987899195" lon="-6.137438020615251"><ele>793.0</ele><time>2026-03-23T09:44:13.944Z</time></trkpt><trkpt lat="30.162926865264208" lon="-6.137365262864285"><ele>792.3333333333333</ele><time>2026-03-23T09:44:14.944Z</time></trkpt><trkpt lat="30.16278769524946" lon="-6.137262467508392"><ele>791.6666666666667</ele><time>2026-03-23T09:44:15.944Z</time></trkpt><trkpt lat="30.162646458967977" lon="-6.137140828608259"><ele>791.0</ele><time>2026-03-23T09:44:16.944Z</time></trkpt><trkpt lat="30.16250686395275" lon="-6.137043073309933"><ele>791.0</ele><time>2026-03-23T09:44:17.944Z</time></trkpt><trkpt lat="30.16237174159874" lon="-6.136968937392323"><ele>791.0</ele><time>2026-03-23T09:44:18.944Z</time></trkpt><trkpt lat="30.162243199320358" lon="-6.1368936949210795"><ele>791.0</ele><time>2026-03-23T09:44:19.944Z</time></trkpt><trkpt lat="30.162123084735942" lon="-6.13681676342151"><ele>791.0</ele><time>2026-03-23T09:44:20.944Z</time></trkpt><trkpt lat="30.162006134588058" lon="-6.136746295274805"><ele>790.75</ele><time>2026-03-23T09:44:21.944Z</time></trkpt><trkpt lat="30.16187199622029" lon="-6.136693202541483"><ele>790.5</ele><time>2026-03-23T09:44:22.944Z</time></trkpt><trkpt lat="30.161736766933053" lon="-6.136627152501318"><ele>790.25</ele><time>2026-03-23T09:44:23.944Z</time></trkpt><trkpt lat="30.161603679202944" lon="-6.136563386879202"><ele>790.0</ele><time>2026-03-23T09:44:24.944Z</time></trkpt><trkpt lat="30.16148142319619" lon="-6.136492138483123"><ele>790.0</ele><time>2026-03-23T09:44:25.944Z</time></trkpt><trkpt lat="30.1613601880268" lon="-6.1364292987388955"><ele>790.0</ele><time>2026-03-23T09:44:26.944Z</time></trkpt><trkpt lat="30.161231045130382" lon="-6.136382868677148"><ele>790.0</ele><time>2026-03-23T09:44:27.944Z</time></trkpt><trkpt lat="30.161079443862086" lon="-6.136315658369726"><ele>790.0</ele><time>2026-03-23T09:44:28.944Z</time></trkpt><trkpt lat="30.160928377789695" lon="-6.136216123078513"><ele>790.0</ele><time>2026-03-23T09:44:29.944Z</time></trkpt><trkpt lat="30.16079454399933" lon="-6.136129072171696"><ele>790.0</ele><time>2026-03-23T09:44:30.944Z</time></trkpt><trkpt lat="30.160644045355884" lon="-6.136070366977054"><ele>790.0</ele><time>2026-03-23T09:44:31.944Z</time></trkpt><trkpt lat="30.160482863825273" lon="-6.136019601545709"><ele>791.0</ele><time>2026-03-23T09:44:32.944Z</time></trkpt><trkpt lat="30.16032041241307" lon="-6.135968127393716"><ele>792.0</ele><time>2026-03-23T09:44:33.944Z</time></trkpt><trkpt lat="30.16015514041728" lon="-6.135923448443046"><ele>793.0</ele><time>2026-03-23T09:44:34.944Z</time></trkpt><trkpt lat="30.15998511433982" lon="-6.135881769468955"><ele>794.3333333333333</ele><time>2026-03-23T09:44:35.944Z</time></trkpt><trkpt lat="30.159817649426927" lon="-6.135830138343859"><ele>795.6666666666667</ele><time>2026-03-23T09:44:36.944Z</time></trkpt><trkpt lat="30.15965542219091" lon="-6.135763565388502"><ele>797.0</ele><time>2026-03-23T09:44:37.944Z</time></trkpt><trkpt lat="30.15949442571128" lon="-6.135695969801191"><ele>797.0</ele><time>2026-03-23T09:44:38.944Z</time></trkpt><trkpt lat="30.159340997617665" lon="-6.13562315002788"><ele>797.0</ele><time>2026-03-23T09:44:39.944Z</time></trkpt><trkpt lat="30.159182299458998" lon="-6.135547674317795"><ele>797.0</ele><time>2026-03-23T09:44:40.944Z</time></trkpt><trkpt lat="30.15903028870439" lon="-6.135465816027287"><ele>797.6666666666667</ele><time>2026-03-23T09:44:41.944Z</time></trkpt><trkpt lat="30.158876512500633" lon="-6.135381445226504"><ele>798.3333333333333</ele><time>2026-03-23T09:44:42.944Z</time></trkpt><trkpt lat="30.158716299453836" lon="-6.135292349936253"><ele>799.0</ele><time>2026-03-23T09:44:43.944Z</time></trkpt><trkpt lat="30.15855802982051" lon="-6.13519134513001"><ele>799.0</ele><time>2026-03-23T09:44:44.944Z</time></trkpt><trkpt lat="30.158392148970588" lon="-6.135090856240589"><ele>799.0</ele><time>2026-03-23T09:44:45.944Z</time></trkpt><trkpt lat="30.158232186038195" lon="-6.135012200945066"><ele>799.0</ele><time>2026-03-23T09:44:46.944Z</time></trkpt><trkpt lat="30.158093210220915" lon="-6.134947983612112"><ele>801.3333333333333</ele><time>2026-03-23T09:44:47.944Z</time></trkpt><trkpt lat="30.157978910872004" lon="-6.134856060011111"><ele>803.6666666666667</ele><time>2026-03-23T09:44:48.944Z</time></trkpt><trkpt lat="30.157865163621658" lon="-6.134724597590939"><ele>806.0</ele><time>2026-03-23T09:44:49.944Z</time></trkpt><trkpt lat="30.157782165939533" lon="-6.134577564371461"><ele>806.0</ele><time>2026-03-23T09:44:50.944Z</time></trkpt><trkpt lat="30.157713986786717" lon="-6.134432674626728"><ele>806.0</ele><time>2026-03-23T09:44:51.944Z</time></trkpt><trkpt lat="30.15764079258324" lon="-6.134307574898107"><ele>806.0</ele><time>2026-03-23T09:44:52.944Z</time></trkpt><trkpt lat="30.15753479247657" lon="-6.134201443906789"><ele>806.0</ele><time>2026-03-23T09:44:53.944Z</time></trkpt><trkpt lat="30.1574021356189" lon="-6.1341027943224296"><ele>807.0</ele><time>2026-03-23T09:44:54.944Z</time></trkpt><trkpt lat="30.15725776909676" lon="-6.13401360138816"><ele>808.0</ele><time>2026-03-23T09:44:55.944Z</time></trkpt><trkpt lat="30.157114871291913" lon="-6.133933082654018"><ele>809.0</ele><time>2026-03-23T09:44:56.944Z</time></trkpt><trkpt lat="30.15697539419246" lon="-6.133875602747108"><ele>809.0</ele><time>2026-03-23T09:44:57.944Z</time></trkpt><trkpt lat="30.156840328038275" lon="-6.13383655241351"><ele>809.0</ele><time>2026-03-23T09:44:58.944Z</time></trkpt><trkpt lat="30.156694763749776" lon="-6.133827658217453"><ele>809.0</ele><time>2026-03-23T09:44:59.944Z</time></trkpt><trkpt lat="30.15654804167906" lon="-6.1337927616830585"><ele>809.0</ele><time>2026-03-23T09:45:00.944Z</time></trkpt><trkpt lat="30.15641919670997" lon="-6.133699825861304"><ele>809.0</ele><time>2026-03-23T09:45:01.944Z</time></trkpt><trkpt lat="30.156309933904055" lon="-6.133602502842072"><ele>809.0</ele><time>2026-03-23T09:45:02.944Z</time></trkpt><trkpt lat="30.156219510875623" lon="-6.133513136220914"><ele>809.0</ele><time>2026-03-23T09:45:03.944Z</time></trkpt><trkpt lat="30.156134405282327" lon="-6.133425930840623"><ele>809.0</ele><time>2026-03-23T09:45:04.944Z</time></trkpt><trkpt lat="30.15605290200829" lon="-6.133329895874659"><ele>809.25</ele><time>2026-03-23T09:45:05.944Z</time></trkpt><trkpt lat="30.15598934276273" lon="-6.133219935301723"><ele>809.5</ele><time>2026-03-23T09:45:06.944Z</time></trkpt><trkpt lat="30.155923582958824" lon="-6.133098568355189"><ele>809.75</ele><time>2026-03-23T09:45:07.944Z</time></trkpt><trkpt lat="30.15586685966225" lon="-6.132974454562009"><ele>810.0</ele><time>2026-03-23T09:45:08.944Z</time></trkpt><trkpt lat="30.155817944258715" lon="-6.132848646154911"><ele>810.0</ele><time>2026-03-23T09:45:09.944Z</time></trkpt><trkpt lat="30.15575344478815" lon="-6.132733591853247"><ele>810.0</ele><time>2026-03-23T09:45:10.943Z</time></trkpt><trkpt lat="30.155671159088833" lon="-6.132652259074569"><ele>810.0</ele><time>2026-03-23T09:45:11.943Z</time></trkpt><trkpt lat="30.15557015379886" lon="-6.132604377122855"><ele>810.0</ele><time>2026-03-23T09:45:12.943Z</time></trkpt><trkpt lat="30.155458442627182" lon="-6.1325755065712695"><ele>810.25</ele><time>2026-03-23T09:45:13.943Z</time></trkpt><trkpt lat="30.155332998912023" lon="-6.132540230150188"><ele>810.5</ele><time>2026-03-23T09:45:14.942Z</time></trkpt><trkpt lat="30.155202621379445" lon="-6.132482121185098"><ele>810.75</ele><time>2026-03-23T09:45:15.942Z</time></trkpt><trkpt lat="30.155075931258153" lon="-6.132415341080595"><ele>811.0</ele><time>2026-03-23T09:45:16.943Z</time></trkpt><trkpt lat="30.15494860310749" lon="-6.132353066215683"><ele>812.0</ele><time>2026-03-23T09:45:17.943Z</time></trkpt><trkpt lat="30.154823623461656" lon="-6.132294922931222"><ele>813.0</ele><time>2026-03-23T09:45:18.943Z</time></trkpt><trkpt lat="30.15469120166225" lon="-6.1322564169374765"><ele>814.0</ele><time>2026-03-23T09:45:19.943Z</time></trkpt><trkpt lat="30.15455271911836" lon="-6.132238243181787"><ele>815.0</ele><time>2026-03-23T09:45:20.943Z</time></trkpt><trkpt lat="30.154413045084347" lon="-6.132228250930122"><ele>815.0</ele><time>2026-03-23T09:45:21.943Z</time></trkpt><trkpt lat="30.15428799387193" lon="-6.132217549254591"><ele>815.0</ele><time>2026-03-23T09:45:22.943Z</time></trkpt><trkpt lat="30.154158475573563" lon="-6.132209479925089"><ele>815.0</ele><time>2026-03-23T09:45:23.943Z</time></trkpt><trkpt lat="30.154043352875643" lon="-6.132206797371972"><ele>815.0</ele><time>2026-03-23T09:45:24.942Z</time></trkpt><trkpt lat="30.15394523630845" lon="-6.13221998198023"><ele>815.6666666666667</ele><time>2026-03-23T09:45:25.942Z</time></trkpt><trkpt lat="30.15385467394287" lon="-6.13225832848676"><ele>816.3333333333334</ele><time>2026-03-23T09:45:26.942Z</time></trkpt><trkpt lat="30.15377488674394" lon="-6.132286695705992"><ele>817.0</ele><time>2026-03-23T09:45:27.942Z</time></trkpt><trkpt lat="30.153709820517058" lon="-6.132297978843939"><ele>817.6666666666667</ele><time>2026-03-23T09:45:28.942Z</time></trkpt><trkpt lat="30.153611416810374" lon="-6.132303566844415"><ele>818.3333333333334</ele><time>2026-03-23T09:45:30.942Z</time></trkpt><trkpt lat="30.153520153806866" lon="-6.132305480226103"><ele>819.0</ele><time>2026-03-23T09:45:32.942Z</time></trkpt><trkpt lat="30.153396134665176" lon="-6.132282602262942"><ele>819.0</ele><time>2026-03-23T09:45:34.942Z</time></trkpt><trkpt lat="30.153332653430965" lon="-6.132263593025266"><ele>819.0</ele><time>2026-03-23T09:45:35.942Z</time></trkpt><trkpt lat="30.15327354440717" lon="-6.132237921615628"><ele>819.0</ele><time>2026-03-23T09:45:36.942Z</time></trkpt><trkpt lat="30.15321313575614" lon="-6.132209704671225"><ele>819.0</ele><time>2026-03-23T09:45:37.942Z</time></trkpt><trkpt lat="30.153146533777072" lon="-6.1321839392459"><ele>819.0</ele><time>2026-03-23T09:45:38.942Z</time></trkpt><trkpt lat="30.153066443645972" lon="-6.132167470240218"><ele>819.0</ele><time>2026-03-23T09:45:39.942Z</time></trkpt><trkpt lat="30.152983333723625" lon="-6.132155512108984"><ele>819.0</ele><time>2026-03-23T09:45:40.942Z</time></trkpt><trkpt lat="30.15288484469795" lon="-6.132136460640021"><ele>819.75</ele><time>2026-03-23T09:45:41.942Z</time></trkpt><trkpt lat="30.15277515419295" lon="-6.132096849259601"><ele>820.5</ele><time>2026-03-23T09:45:42.942Z</time></trkpt><trkpt lat="30.152635228631933" lon="-6.132047340952193"><ele>821.25</ele><time>2026-03-23T09:45:43.942Z</time></trkpt><trkpt lat="30.152503629288155" lon="-6.13199925646798"><ele>822.0</ele><time>2026-03-23T09:45:44.942Z</time></trkpt><trkpt lat="30.152366669924653" lon="-6.131957616013165"><ele>823.6666666666667</ele><time>2026-03-23T09:45:45.942Z</time></trkpt><trkpt lat="30.152224202499564" lon="-6.131896004395734"><ele>825.3333333333334</ele><time>2026-03-23T09:45:46.942Z</time></trkpt><trkpt lat="30.152071466584182" lon="-6.131823130088197"><ele>827.0</ele><time>2026-03-23T09:45:47.942Z</time></trkpt><trkpt lat="30.151907955854814" lon="-6.1317497549842175"><ele>827.0</ele><time>2026-03-23T09:45:48.942Z</time></trkpt><trkpt lat="30.151734512124797" lon="-6.131715455151502"><ele>827.0</ele><time>2026-03-23T09:45:49.942Z</time></trkpt><trkpt lat="30.151583304909302" lon="-6.131676186459815"><ele>827.0</ele><time>2026-03-23T09:45:50.942Z</time></trkpt><trkpt lat="30.151451158304763" lon="-6.131604023327924"><ele>830.0</ele><time>2026-03-23T09:45:51.942Z</time></trkpt><trkpt lat="30.151306151235687" lon="-6.131463221157513"><ele>833.0</ele><time>2026-03-23T09:45:52.942Z</time></trkpt><trkpt lat="30.15114370699939" lon="-6.131316131825648"><ele>836.0</ele><time>2026-03-23T09:45:53.942Z</time></trkpt><trkpt lat="30.150939332759993" lon="-6.13119448493318"><ele>836.0</ele><time>2026-03-23T09:45:54.942Z</time></trkpt><trkpt lat="30.15073447255717" lon="-6.1310847090183715"><ele>836.0</ele><time>2026-03-23T09:45:55.942Z</time></trkpt><trkpt lat="30.15053166613416" lon="-6.130970156952797"><ele>838.5</ele><time>2026-03-23T09:45:56.942Z</time></trkpt><trkpt lat="30.150307188035704" lon="-6.13085188739772"><ele>841.0</ele><time>2026-03-23T09:45:57.942Z</time></trkpt><trkpt lat="30.150098040835804" lon="-6.130731424143453"><ele>842.0</ele><time>2026-03-23T09:45:58.942Z</time></trkpt><trkpt lat="30.149932308506653" lon="-6.130618167911049"><ele>843.0</ele><time>2026-03-23T09:45:59.942Z</time></trkpt><trkpt lat="30.149785345088603" lon="-6.130495416407043"><ele>844.0</ele><time>2026-03-23T09:46:00.942Z</time></trkpt><trkpt lat="30.14966159627843" lon="-6.130373861041408"><ele>845.75</ele><time>2026-03-23T09:46:01.942Z</time></trkpt><trkpt lat="30.14954774988692" lon="-6.130238862718451"><ele>847.5</ele><time>2026-03-23T09:46:02.942Z</time></trkpt><trkpt lat="30.149440867101855" lon="-6.130123848579698"><ele>849.25</ele><time>2026-03-23T09:46:03.942Z</time></trkpt><trkpt lat="30.14935635189003" lon="-6.130017419545088"><ele>851.0</ele><time>2026-03-23T09:46:04.942Z</time></trkpt><trkpt lat="30.14925987833705" lon="-6.129976087933338"><ele>851.0</ele><time>2026-03-23T09:46:05.942Z</time></trkpt><trkpt lat="30.149142677184678" lon="-6.129957577955121"><ele>851.0</ele><time>2026-03-23T09:46:06.942Z</time></trkpt><trkpt lat="30.149026120335993" lon="-6.129996391311508"><ele>851.0</ele><time>2026-03-23T09:46:07.942Z</time></trkpt><trkpt lat="30.14890836834821" lon="-6.130056852971306"><ele>851.0</ele><time>2026-03-23T09:46:08.942Z</time></trkpt><trkpt lat="30.14877979599863" lon="-6.1300879233839325"><ele>852.0</ele><time>2026-03-23T09:46:09.942Z</time></trkpt><trkpt lat="30.148640281661056" lon="-6.130055946347603"><ele>853.0</ele><time>2026-03-23T09:46:10.942Z</time></trkpt><trkpt lat="30.148527137516865" lon="-6.129971812928314"><ele>854.0</ele><time>2026-03-23T09:46:11.942Z</time></trkpt><trkpt lat="30.148442876406637" lon="-6.129867733786201"><ele>855.0</ele><time>2026-03-23T09:46:12.942Z</time></trkpt><trkpt lat="30.148352956460958" lon="-6.129747498328383"><ele>856.75</ele><time>2026-03-23T09:46:13.942Z</time></trkpt><trkpt lat="30.1482117536759" lon="-6.129653190009714"><ele>858.5</ele><time>2026-03-23T09:46:14.942Z</time></trkpt><trkpt lat="30.148065167865116" lon="-6.1296060668046675"><ele>860.25</ele><time>2026-03-23T09:46:15.942Z</time></trkpt><trkpt lat="30.147935937293948" lon="-6.129596326533343"><ele>862.0</ele><time>2026-03-23T09:46:16.942Z</time></trkpt><trkpt lat="30.147797163035015" lon="-6.129599378887228"><ele>864.25</ele><time>2026-03-23T09:46:17.942Z</time></trkpt><trkpt lat="30.147662432649785" lon="-6.129578716755939"><ele>866.5</ele><time>2026-03-23T09:46:18.942Z</time></trkpt><trkpt lat="30.147551946227104" lon="-6.12951817920792"><ele>868.75</ele><time>2026-03-23T09:46:19.942Z</time></trkpt><trkpt lat="30.14744317831502" lon="-6.12943525958674"><ele>871.0</ele><time>2026-03-23T09:46:20.942Z</time></trkpt><trkpt lat="30.147342533123265" lon="-6.129334786787061"><ele>873.0</ele><time>2026-03-23T09:46:21.942Z</time></trkpt><trkpt lat="30.14724606158066" lon="-6.129239829831067"><ele>875.0</ele><time>2026-03-23T09:46:22.942Z</time></trkpt><trkpt lat="30.1471600518471" lon="-6.12915116374692"><ele>877.0</ele><time>2026-03-23T09:46:23.942Z</time></trkpt><trkpt lat="30.14707505610171" lon="-6.129057394382836"><ele>879.0</ele><time>2026-03-23T09:46:24.942Z</time></trkpt><trkpt lat="30.146992797390418" lon="-6.128943137246081"><ele>880.6</ele><time>2026-03-23T09:46:25.942Z</time></trkpt><trkpt lat="30.146938697927368" lon="-6.128819102298107"><ele>882.2</ele><time>2026-03-23T09:46:26.942Z</time></trkpt><trkpt lat="30.14691403660914" lon="-6.128694258940468"><ele>883.8000000000001</ele><time>2026-03-23T09:46:27.942Z</time></trkpt><trkpt lat="30.14690350559022" lon="-6.128572059993242"><ele>885.4000000000001</ele><time>2026-03-23T09:46:28.942Z</time></trkpt><trkpt lat="30.146906464421185" lon="-6.128474478743208"><ele>887.0</ele><time>2026-03-23T09:46:29.942Z</time></trkpt><trkpt lat="30.146905457164216" lon="-6.128381731134599"><ele>887.0</ele><time>2026-03-23T09:46:30.942Z</time></trkpt><trkpt lat="30.14690812235325" lon="-6.12827769547818"><ele>887.0</ele><time>2026-03-23T09:46:31.942Z</time></trkpt><trkpt lat="30.146912490335307" lon="-6.128166064228195"><ele>887.0</ele><time>2026-03-23T09:46:32.942Z</time></trkpt><trkpt lat="30.146917731430804" lon="-6.128044401449722"><ele>887.0</ele><time>2026-03-23T09:46:33.942Z</time></trkpt><trkpt lat="30.14691607866371" lon="-6.127899314670005"><ele>887.0</ele><time>2026-03-23T09:46:34.942Z</time></trkpt><trkpt lat="30.14689970329026" lon="-6.1277569584651195"><ele>888.6</ele><time>2026-03-23T09:46:35.942Z</time></trkpt><trkpt lat="30.146884713180118" lon="-6.127625470231846"><ele>890.2</ele><time>2026-03-23T09:46:36.942Z</time></trkpt><trkpt lat="30.146884317266107" lon="-6.127496839241479"><ele>891.8</ele><time>2026-03-23T09:46:37.942Z</time></trkpt><trkpt lat="30.146893833764235" lon="-6.1273746865273395"><ele>893.4</ele><time>2026-03-23T09:46:38.942Z</time></trkpt><trkpt lat="30.146905970911924" lon="-6.127254103357975"><ele>895.0</ele><time>2026-03-23T09:46:39.942Z</time></trkpt><trkpt lat="30.146916657364535" lon="-6.127148648444417"><ele>898.0</ele><time>2026-03-23T09:46:40.942Z</time></trkpt><trkpt lat="30.14695283838047" lon="-6.127058633778516"><ele>901.0</ele><time>2026-03-23T09:46:41.942Z</time></trkpt><trkpt lat="30.147018057610982" lon="-6.126994088449593"><ele>904.0</ele><time>2026-03-23T09:46:42.942Z</time></trkpt><trkpt lat="30.147097308100598" lon="-6.126955369017928"><ele>907.0</ele><time>2026-03-23T09:46:43.942Z</time></trkpt><trkpt lat="30.147204536580134" lon="-6.1269522564155965"><ele>910.0</ele><time>2026-03-23T09:46:44.942Z</time></trkpt><trkpt lat="30.147309714085228" lon="-6.126985408431804"><ele>909.9999999999999</ele><time>2026-03-23T09:46:45.942Z</time></trkpt><trkpt lat="30.14739015031891" lon="-6.126988175543404"><ele>910.0</ele><time>2026-03-23T09:46:47.942Z</time></trkpt><trkpt lat="30.147427191522347" lon="-6.126922173687152"><ele>910.0</ele><time>2026-03-23T09:46:50.942Z</time></trkpt><trkpt lat="30.14746749400867" lon="-6.126861753810677"><ele>910.0</ele><time>2026-03-23T09:46:52.942Z</time></trkpt><trkpt lat="30.147420856099068" lon="-6.126805688676271"><ele>909.9999999999999</ele><time>2026-03-23T09:47:07.942Z</time></trkpt><trkpt lat="30.147307846645116" lon="-6.12676570833115"><ele>910.0</ele><time>2026-03-23T09:47:09.942Z</time></trkpt><trkpt lat="30.147242727854326" lon="-6.126738877953996"><ele>910.0</ele><time>2026-03-23T09:47:10.942Z</time></trkpt><trkpt lat="30.14718676685565" lon="-6.126697157082457"><ele>910.0</ele><time>2026-03-23T09:47:11.942Z</time></trkpt><trkpt lat="30.147112264855597" lon="-6.126647596868948"><ele>910.0</ele><time>2026-03-23T09:47:12.942Z</time></trkpt><trkpt lat="30.147011462257982" lon="-6.126583999063786"><ele>910.0</ele><time>2026-03-23T09:47:13.942Z</time></trkpt><trkpt lat="30.146898645439414" lon="-6.1265214794129985"><ele>910.0</ele><time>2026-03-23T09:47:14.942Z</time></trkpt><trkpt lat="30.146773929602794" lon="-6.126509733055497"><ele>914.0</ele><time>2026-03-23T09:47:15.942Z</time></trkpt><trkpt lat="30.146678796632322" lon="-6.126473310190475"><ele>918.0</ele><time>2026-03-23T09:47:16.942Z</time></trkpt><trkpt lat="30.14661177035358" lon="-6.126413100598644"><ele>922.0</ele><time>2026-03-23T09:47:18.942Z</time></trkpt><trkpt lat="30.146678138815" lon="-6.126285587426411"><ele>926.0</ele><time>2026-03-23T09:47:20.941Z</time></trkpt><trkpt lat="30.1467638468361" lon="-6.126240625223613"><ele>930.0</ele><time>2026-03-23T09:47:21.941Z</time></trkpt><trkpt lat="30.146872278306557" lon="-6.126220462837282"><ele>930.0</ele><time>2026-03-23T09:47:22.942Z</time></trkpt><trkpt lat="30.147014724860618" lon="-6.126211678420319"><ele>930.0</ele><time>2026-03-23T09:47:23.941Z</time></trkpt><trkpt lat="30.147159375783662" lon="-6.126164807137165"><ele>930.0</ele><time>2026-03-23T09:47:24.941Z</time></trkpt><trkpt lat="30.14724373820892" lon="-6.12612846675882"><ele>930.0</ele><time>2026-03-23T09:47:25.942Z</time></trkpt><trkpt lat="30.147308277192813" lon="-6.1260657624094925"><ele>930.0</ele><time>2026-03-23T09:47:26.942Z</time></trkpt><trkpt lat="30.147355779687338" lon="-6.126001656660621"><ele>930.0</ele><time>2026-03-23T09:47:27.942Z</time></trkpt><trkpt lat="30.147391889725753" lon="-6.125932023098506"><ele>930.0</ele><time>2026-03-23T09:47:28.941Z</time></trkpt><trkpt lat="30.147433722746158" lon="-6.125852862238046"><ele>930.0</ele><time>2026-03-23T09:47:29.942Z</time></trkpt><trkpt lat="30.147496317173417" lon="-6.125780452473178"><ele>930.0</ele><time>2026-03-23T09:47:30.942Z</time></trkpt><trkpt lat="30.14756303687534" lon="-6.125712293653242"><ele>930.0</ele><time>2026-03-23T09:47:31.942Z</time></trkpt><trkpt lat="30.147602863244096" lon="-6.12561667776109"><ele>930.8333333333334</ele><time>2026-03-23T09:47:32.942Z</time></trkpt><trkpt lat="30.147639129062185" lon="-6.12555204286135"><ele>931.6666666666667</ele><time>2026-03-23T09:47:33.942Z</time></trkpt><trkpt lat="30.147636105752238" lon="-6.125467561378926"><ele>932.5</ele><time>2026-03-23T09:47:35.942Z</time></trkpt><trkpt lat="30.14755018830758" lon="-6.1254300253420855"><ele>933.3333333333334</ele><time>2026-03-23T09:47:38.942Z</time></trkpt><trkpt lat="30.14747058009805" lon="-6.125497856589318"><ele>934.1666666666667</ele><time>2026-03-23T09:47:40.942Z</time></trkpt><trkpt lat="30.147385342555058" lon="-6.125550112589445"><ele>935.0</ele><time>2026-03-23T09:47:42.942Z</time></trkpt><trkpt lat="30.147257853322344" lon="-6.1255563455083895"><ele>938.5000000000001</ele><time>2026-03-23T09:47:44.942Z</time></trkpt><trkpt lat="30.14718522765461" lon="-6.12554651440903"><ele>942.0</ele><time>2026-03-23T09:47:45.942Z</time></trkpt><trkpt lat="30.1471037650588" lon="-6.125534623859949"><ele>945.5</ele><time>2026-03-23T09:47:46.942Z</time></trkpt><trkpt lat="30.147011914708056" lon="-6.125541137738682"><ele>949.0</ele><time>2026-03-23T09:47:47.942Z</time></trkpt><trkpt lat="30.146912171785083" lon="-6.125558087392212"><ele>952.5000000000001</ele><time>2026-03-23T09:47:48.942Z</time></trkpt><trkpt lat="30.146847875027017" lon="-6.125545965508871"><ele>956.0</ele><time>2026-03-23T09:47:49.942Z</time></trkpt><trkpt lat="30.146859409928137" lon="-6.125440303124845"><ele>956.0</ele><time>2026-03-23T09:47:51.942Z</time></trkpt><trkpt lat="30.146925554003108" lon="-6.125405849844879"><ele>955.9999999999999</ele><time>2026-03-23T09:47:52.942Z</time></trkpt><trkpt lat="30.147029003291966" lon="-6.125352090636172"><ele>955.9999999999999</ele><time>2026-03-23T09:47:53.942Z</time></trkpt><trkpt lat="30.147128318548454" lon="-6.125289765049228"><ele>956.0</ele><time>2026-03-23T09:47:54.942Z</time></trkpt><trkpt lat="30.147220939590273" lon="-6.125193304134445"><ele>956.0</ele><time>2026-03-23T09:47:55.942Z</time></trkpt><trkpt lat="30.14729415290661" lon="-6.125086785781028"><ele>956.0</ele><time>2026-03-23T09:47:56.942Z</time></trkpt><trkpt lat="30.147346404515524" lon="-6.124970736712954"><ele>955.9999999999999</ele><time>2026-03-23T09:47:57.942Z</time></trkpt><trkpt lat="30.147357913715354" lon="-6.1248510782990975"><ele>955.9999999999999</ele><time>2026-03-23T09:47:58.942Z</time></trkpt><trkpt lat="30.14735569884484" lon="-6.124743103062946"><ele>956.0</ele><time>2026-03-23T09:47:59.942Z</time></trkpt><trkpt lat="30.147339140823842" lon="-6.124666629877479"><ele>956.0</ele><time>2026-03-23T09:48:00.942Z</time></trkpt><trkpt lat="30.147247942137344" lon="-6.124613140302264"><ele>956.0</ele><time>2026-03-23T09:48:02.942Z</time></trkpt><trkpt lat="30.147181398111453" lon="-6.124743168569425"><ele>955.9999999999999</ele><time>2026-03-23T09:48:04.942Z</time></trkpt><trkpt lat="30.14715789684045" lon="-6.124835943925068"><ele>955.9999999999999</ele><time>2026-03-23T09:48:05.942Z</time></trkpt><trkpt lat="30.147105149151194" lon="-6.124878326637123"><ele>956.0</ele><time>2026-03-23T09:48:06.942Z</time></trkpt><trkpt lat="30.147012257434046" lon="-6.124898721099919"><ele>956.0</ele><time>2026-03-23T09:48:07.942Z</time></trkpt><trkpt lat="30.146885456394337" lon="-6.124916746925687"><ele>956.0</ele><time>2026-03-23T09:48:08.942Z</time></trkpt><trkpt lat="30.146765860981223" lon="-6.124946499650279"><ele>955.9999999999999</ele><time>2026-03-23T09:48:09.942Z</time></trkpt><trkpt lat="30.146685294205422" lon="-6.124992454605191"><ele>955.9999999999999</ele><time>2026-03-23T09:48:10.942Z</time></trkpt><trkpt lat="30.146607452660806" lon="-6.125024279633074"><ele>956.0</ele><time>2026-03-23T09:48:11.942Z</time></trkpt><trkpt lat="30.1465149744682" lon="-6.1250348493103814"><ele>956.0</ele><time>2026-03-23T09:48:12.942Z</time></trkpt><trkpt lat="30.14642585425353" lon="-6.12503014822281"><ele>958.5</ele><time>2026-03-23T09:48:13.942Z</time></trkpt><trkpt lat="30.14631489474889" lon="-6.125001780300465"><ele>961.0</ele><time>2026-03-23T09:48:14.942Z</time></trkpt><trkpt lat="30.14619356684145" lon="-6.124965555354309"><ele>963.5</ele><time>2026-03-23T09:48:15.942Z</time></trkpt><trkpt lat="30.14607829594913" lon="-6.124936876763544"><ele>966.0</ele><time>2026-03-23T09:48:16.942Z</time></trkpt><trkpt lat="30.14598459481138" lon="-6.1249212752903635"><ele>966.0</ele><time>2026-03-23T09:48:17.942Z</time></trkpt><trkpt lat="30.145896232005594" lon="-6.124919623069363"><ele>966.0</ele><time>2026-03-23T09:48:18.942Z</time></trkpt><trkpt lat="30.145822152061132" lon="-6.124951137018077"><ele>966.0</ele><time>2026-03-23T09:48:19.942Z</time></trkpt><trkpt lat="30.14575646604292" lon="-6.1250043341673095"><ele>966.0</ele><time>2026-03-23T09:48:20.942Z</time></trkpt><trkpt lat="30.14568760962978" lon="-6.125058906377997"><ele>966.0</ele><time>2026-03-23T09:48:21.942Z</time></trkpt><trkpt lat="30.14562046403943" lon="-6.1251151277900275"><ele>966.0</ele><time>2026-03-23T09:48:22.942Z</time></trkpt><trkpt lat="30.1455365201435" lon="-6.125137105759386"><ele>969.4</ele><time>2026-03-23T09:48:23.942Z</time></trkpt><trkpt lat="30.14545356674557" lon="-6.125158752513315"><ele>972.8</ele><time>2026-03-23T09:48:24.942Z</time></trkpt><trkpt lat="30.14538214765536" lon="-6.1251860528247"><ele>976.1999999999999</ele><time>2026-03-23T09:48:25.942Z</time></trkpt><trkpt lat="30.14527973409666" lon="-6.125216759133245"><ele>979.5999999999999</ele><time>2026-03-23T09:48:26.942Z</time></trkpt><trkpt lat="30.145162022429837" lon="-6.12523776840619"><ele>983.0</ele><time>2026-03-23T09:48:27.942Z</time></trkpt><trkpt lat="30.145058192083102" lon="-6.125253027634882"><ele>983.0000000000001</ele><time>2026-03-23T09:48:28.942Z</time></trkpt><trkpt lat="30.14497411486561" lon="-6.1252568509529635"><ele>983.0</ele><time>2026-03-23T09:48:29.942Z</time></trkpt><trkpt lat="30.144894006446613" lon="-6.12526311166497"><ele>983.0</ele><time>2026-03-23T09:48:30.942Z</time></trkpt><trkpt lat="30.144817302901934" lon="-6.125265151635577"><ele>983.0</ele><time>2026-03-23T09:48:31.942Z</time></trkpt><trkpt lat="30.144742185444677" lon="-6.125271418366838"><ele>983.0000000000001</ele><time>2026-03-23T09:48:32.942Z</time></trkpt><trkpt lat="30.14466273471633" lon="-6.125291258103673"><ele>983.0</ele><time>2026-03-23T09:48:33.942Z</time></trkpt><trkpt lat="30.144589782252066" lon="-6.1253201995009166"><ele>986.5000000000001</ele><time>2026-03-23T09:48:34.942Z</time></trkpt><trkpt lat="30.144506474192582" lon="-6.125332371648355"><ele>990.0</ele><time>2026-03-23T09:48:35.942Z</time></trkpt><trkpt lat="30.144382251575927" lon="-6.12535620999449"><ele>993.5</ele><time>2026-03-23T09:48:37.942Z</time></trkpt><trkpt lat="30.144309391084914" lon="-6.125377478851428"><ele>997.0</ele><time>2026-03-23T09:48:38.942Z</time></trkpt><trkpt lat="30.144238344298497" lon="-6.125406051732734"><ele>1000.5000000000001</ele><time>2026-03-23T09:48:39.942Z</time></trkpt><trkpt lat="30.144154935686807" lon="-6.125442330902227"><ele>1004.0</ele><time>2026-03-23T09:48:40.942Z</time></trkpt><trkpt lat="30.14407221282663" lon="-6.125471267435818"><ele>1005.3333333333334</ele><time>2026-03-23T09:48:41.942Z</time></trkpt><trkpt lat="30.143946959823634" lon="-6.125511163518156"><ele>1006.6666666666667</ele><time>2026-03-23T09:48:43.942Z</time></trkpt><trkpt lat="30.143878830298036" lon="-6.12553697513408"><ele>1008.0</ele><time>2026-03-23T09:48:44.942Z</time></trkpt><trkpt lat="30.143812989844186" lon="-6.125572063040516"><ele>1009.3333333333333</ele><time>2026-03-23T09:48:45.942Z</time></trkpt><trkpt lat="30.143751307654863" lon="-6.12561982063115"><ele>1010.6666666666666</ele><time>2026-03-23T09:48:46.942Z</time></trkpt><trkpt lat="30.143694260848747" lon="-6.125680509231316"><ele>1012.0</ele><time>2026-03-23T09:48:47.942Z</time></trkpt><trkpt lat="30.143644279395797" lon="-6.125741895897227"><ele>1012.0</ele><time>2026-03-23T09:48:48.942Z</time></trkpt><trkpt lat="30.143599452755083" lon="-6.125818842989923"><ele>1012.0</ele><time>2026-03-23T09:48:49.942Z</time></trkpt><trkpt lat="30.14356940789557" lon="-6.125905661294927"><ele>1012.0</ele><time>2026-03-23T09:48:50.942Z</time></trkpt><trkpt lat="30.14353785277183" lon="-6.126002754677491"><ele>1012.0</ele><time>2026-03-23T09:48:51.942Z</time></trkpt><trkpt lat="30.143520729347937" lon="-6.126106320403549"><ele>1012.0</ele><time>2026-03-23T09:48:52.942Z</time></trkpt><trkpt lat="30.143493440495103" lon="-6.126228272097229"><ele>1012.0</ele><time>2026-03-23T09:48:53.942Z</time></trkpt><trkpt lat="30.143470732637603" lon="-6.126354824422601"><ele>1012.0</ele><time>2026-03-23T09:48:54.942Z</time></trkpt><trkpt lat="30.14343869429824" lon="-6.126493517182584"><ele>1012.0</ele><time>2026-03-23T09:48:55.942Z</time></trkpt><trkpt lat="30.143397422003495" lon="-6.1266577844554275"><ele>1012.0</ele><time>2026-03-23T09:48:56.942Z</time></trkpt><trkpt lat="30.143346948925696" lon="-6.1268336725386705"><ele>1008.25</ele><time>2026-03-23T09:48:57.942Z</time></trkpt><trkpt lat="30.143290029408615" lon="-6.12701451645839"><ele>1004.5</ele><time>2026-03-23T09:48:58.942Z</time></trkpt><trkpt lat="30.143228779485728" lon="-6.127162446843961"><ele>1000.75</ele><time>2026-03-23T09:48:59.942Z</time></trkpt><trkpt lat="30.143179740603234" lon="-6.127268667082899"><ele>997.0</ele><time>2026-03-23T09:49:00.942Z</time></trkpt><trkpt lat="30.143135152323982" lon="-6.127372841486032"><ele>1005.4000000000001</ele><time>2026-03-23T09:49:01.941Z</time></trkpt><trkpt lat="30.1431086654717" lon="-6.127460292816086"><ele>1013.8000000000001</ele><time>2026-03-23T09:49:02.941Z</time></trkpt><trkpt lat="30.143089172508382" lon="-6.127558996484428"><ele>1022.2</ele><time>2026-03-23T09:49:03.941Z</time></trkpt><trkpt lat="30.143066860433724" lon="-6.127678141357473"><ele>1030.6000000000001</ele><time>2026-03-23T09:49:04.941Z</time></trkpt><trkpt lat="30.143028050798062" lon="-6.12780066916383"><ele>1039.0</ele><time>2026-03-23T09:49:05.941Z</time></trkpt><trkpt lat="30.14298996377192" lon="-6.127882072046182"><ele>1039.0</ele><time>2026-03-23T09:49:06.941Z</time></trkpt><trkpt lat="30.142883806197098" lon="-6.127874565041146"><ele>1039.0</ele><time>2026-03-23T09:49:08.941Z</time></trkpt><trkpt lat="30.142854120860157" lon="-6.127803522902169"><ele>1039.0</ele><time>2026-03-23T09:49:09.941Z</time></trkpt><trkpt lat="30.142881513642745" lon="-6.127713274635587"><ele>1039.0</ele><time>2026-03-23T09:49:10.941Z</time></trkpt><trkpt lat="30.142942372890634" lon="-6.127625674870702"><ele>1039.0</ele><time>2026-03-23T09:49:11.941Z</time></trkpt><trkpt lat="30.14298315426737" lon="-6.127478636074477"><ele>1046.0</ele><time>2026-03-23T09:49:12.941Z</time></trkpt><trkpt lat="30.143010698316697" lon="-6.12731662753544"><ele>1053.0</ele><time>2026-03-23T09:49:13.941Z</time></trkpt><trkpt lat="30.143028320076294" lon="-6.127122610842662"><ele>1060.0</ele><time>2026-03-23T09:49:14.941Z</time></trkpt><trkpt lat="30.14304895982564" lon="-6.126896650304558"><ele>1060.0</ele><time>2026-03-23T09:49:15.941Z</time></trkpt><trkpt lat="30.143057200453782" lon="-6.126668956361416"><ele>1060.0</ele><time>2026-03-23T09:49:16.941Z</time></trkpt><trkpt lat="30.143057221062527" lon="-6.126477052117531"><ele>1060.0</ele><time>2026-03-23T09:49:17.941Z</time></trkpt><trkpt lat="30.14305305008858" lon="-6.126294301043434"><ele>1063.6666666666665</ele><time>2026-03-23T09:49:18.941Z</time></trkpt><trkpt lat="30.143040472654583" lon="-6.126097083142935"><ele>1067.3333333333333</ele><time>2026-03-23T09:49:19.941Z</time></trkpt><trkpt lat="30.143039560910704" lon="-6.125915903989211"><ele>1071.0</ele><time>2026-03-23T09:49:20.941Z</time></trkpt><trkpt lat="30.14307856072904" lon="-6.1257376480846135"><ele>1069.3333333333333</ele><time>2026-03-23T09:49:21.941Z</time></trkpt><trkpt lat="30.143147038205424" lon="-6.125563081017596"><ele>1067.6666666666665</ele><time>2026-03-23T09:49:22.941Z</time></trkpt><trkpt lat="30.14324243251857" lon="-6.125369534478539"><ele>1066.0</ele><time>2026-03-23T09:49:23.941Z</time></trkpt><trkpt lat="30.14332887131247" lon="-6.125168346111891"><ele>1070.3333333333333</ele><time>2026-03-23T09:49:24.941Z</time></trkpt><trkpt lat="30.14341820590703" lon="-6.1249789355789455"><ele>1074.6666666666667</ele><time>2026-03-23T09:49:25.941Z</time></trkpt><trkpt lat="30.1435071406246" lon="-6.124841419587548"><ele>1079.0</ele><time>2026-03-23T09:49:26.941Z</time></trkpt><trkpt lat="30.14362550565411" lon="-6.124709399688793"><ele>1079.0</ele><time>2026-03-23T09:49:27.941Z</time></trkpt><trkpt lat="30.14373775844961" lon="-6.124609220936624"><ele>1079.0</ele><time>2026-03-23T09:49:28.941Z</time></trkpt><trkpt lat="30.143859854952964" lon="-6.12453462092406"><ele>1079.0</ele><time>2026-03-23T09:49:29.941Z</time></trkpt><trkpt lat="30.143977726474862" lon="-6.124504267248124"><ele>1079.0</ele><time>2026-03-23T09:49:30.941Z</time></trkpt><trkpt lat="30.144105134369607" lon="-6.124489556247131"><ele>1073.5</ele><time>2026-03-23T09:49:31.941Z</time></trkpt><trkpt lat="30.14424619034736" lon="-6.124464625351009"><ele>1068.0</ele><time>2026-03-23T09:49:32.941Z</time></trkpt><trkpt lat="30.144372233842617" lon="-6.124405651417931"><ele>1062.5</ele><time>2026-03-23T09:49:33.941Z</time></trkpt><trkpt lat="30.144466727330304" lon="-6.124367937537567"><ele>1057.0</ele><time>2026-03-23T09:49:34.941Z</time></trkpt><trkpt lat="30.14457811625231" lon="-6.124280961940062"><ele>1057.0</ele><time>2026-03-23T09:49:35.94Z</time></trkpt><trkpt lat="30.144697824967878" lon="-6.124187966121692"><ele>1057.0</ele><time>2026-03-23T09:49:36.94Z</time></trkpt><trkpt lat="30.14479793324118" lon="-6.1240823872552275"><ele>1057.0</ele><time>2026-03-23T09:49:37.94Z</time></trkpt><trkpt lat="30.144864880841514" lon="-6.124013903399395"><ele>1057.0</ele><time>2026-03-23T09:49:38.94Z</time></trkpt><trkpt lat="30.144896176651084" lon="-6.123933900402704"><ele>1057.0</ele><time>2026-03-23T09:49:40.94Z</time></trkpt><trkpt lat="30.144817416494938" lon="-6.1239012776652695"><ele>1057.0</ele><time>2026-03-23T09:49:42.94Z</time></trkpt><trkpt lat="30.144758107079245" lon="-6.123944090616825"><ele>1057.0</ele><time>2026-03-23T09:49:43.94Z</time></trkpt><trkpt lat="30.14469749769526" lon="-6.124023353786397"><ele>1057.0</ele><time>2026-03-23T09:49:44.94Z</time></trkpt><trkpt lat="30.14461507645318" lon="-6.124107255916595"><ele>1057.0</ele><time>2026-03-23T09:49:45.94Z</time></trkpt><trkpt lat="30.14450820893366" lon="-6.124194281002944"><ele>1057.0</ele><time>2026-03-23T09:49:46.94Z</time></trkpt><trkpt lat="30.14437483685901" lon="-6.124240367882143"><ele>1057.0</ele><time>2026-03-23T09:49:47.94Z</time></trkpt><trkpt lat="30.144261618536436" lon="-6.124252461703691"><ele>1057.0</ele><time>2026-03-23T09:49:48.94Z</time></trkpt><trkpt lat="30.144155598162563" lon="-6.124255162534846"><ele>1057.0</ele><time>2026-03-23T09:49:49.94Z</time></trkpt><trkpt lat="30.144052847395745" lon="-6.124256785372593"><ele>1057.0</ele><time>2026-03-23T09:49:50.94Z</time></trkpt><trkpt lat="30.143946746942486" lon="-6.124230678104916"><ele>1057.0</ele><time>2026-03-23T09:49:51.94Z</time></trkpt><trkpt lat="30.14385759184192" lon="-6.124227376395343"><ele>1061.4</ele><time>2026-03-23T09:49:52.94Z</time></trkpt><trkpt lat="30.143764902297683" lon="-6.124233528942846"><ele>1065.8000000000002</ele><time>2026-03-23T09:49:53.94Z</time></trkpt><trkpt lat="30.14368211118428" lon="-6.124256068334838"><ele>1070.2</ele><time>2026-03-23T09:49:54.94Z</time></trkpt><trkpt lat="30.143601643433843" lon="-6.124319151056102"><ele>1074.6000000000001</ele><time>2026-03-23T09:49:55.94Z</time></trkpt><trkpt lat="30.143528994101413" lon="-6.124380035226077"><ele>1079.0</ele><time>2026-03-23T09:49:56.94Z</time></trkpt><trkpt lat="30.143464206486204" lon="-6.124450740204454"><ele>1079.0</ele><time>2026-03-23T09:49:57.94Z</time></trkpt><trkpt lat="30.14338983208342" lon="-6.124513273728362"><ele>1079.0</ele><time>2026-03-23T09:49:58.94Z</time></trkpt><trkpt lat="30.143323337539176" lon="-6.124573371877852"><ele>1079.0</ele><time>2026-03-23T09:49:59.94Z</time></trkpt><trkpt lat="30.143257776627152" lon="-6.124623041278624"><ele>1079.0</ele><time>2026-03-23T09:50:00.94Z</time></trkpt><trkpt lat="30.1431913506042" lon="-6.124670468333133"><ele>1079.0</ele><time>2026-03-23T09:50:01.94Z</time></trkpt><trkpt lat="30.14313409917731" lon="-6.124713885061737"><ele>1079.0</ele><time>2026-03-23T09:50:02.94Z</time></trkpt><trkpt lat="30.143089825859143" lon="-6.1247744843506995"><ele>1076.5714285714287</ele><time>2026-03-23T09:50:04.94Z</time></trkpt><trkpt lat="30.1431002637361" lon="-6.124850370587243"><ele>1074.142857142857</ele><time>2026-03-23T09:50:21.94Z</time></trkpt><trkpt lat="30.1431253543591" lon="-6.124781199966265"><ele>1071.7142857142858</ele><time>2026-03-23T09:50:50.94Z</time></trkpt><trkpt lat="30.143064602680482" lon="-6.124809581337136"><ele>1069.2857142857142</ele><time>2026-03-23T09:51:32.937Z</time></trkpt><trkpt lat="30.143063839562217" lon="-6.124882889847181"><ele>1066.857142857143</ele><time>2026-03-23T09:51:43.937Z</time></trkpt><trkpt lat="30.142992448463133" lon="-6.124870585893088"><ele>1064.4285714285716</ele><time>2026-03-23T09:52:15.935Z</time></trkpt><trkpt lat="30.143013963589702" lon="-6.124801506029772"><ele>1062.0</ele><time>2026-03-23T09:52:43.935Z</time></trkpt><trkpt lat="30.142950913540307" lon="-6.124840044396412"><ele>1062.0</ele><time>2026-03-23T09:52:52.935Z</time></trkpt><trkpt lat="30.14300352123341" lon="-6.124881879809599"><ele>1062.0</ele><time>2026-03-23T09:53:21.935Z</time></trkpt><trkpt lat="30.143064587290013" lon="-6.124939110012395"><ele>1062.0</ele><time>2026-03-23T09:53:30.935Z</time></trkpt><trkpt lat="30.14311832672142" lon="-6.124868490438252"><ele>1062.0</ele><time>2026-03-23T09:55:45.932Z</time></trkpt><trkpt lat="30.143156042837187" lon="-6.12479758659788"><ele>1062.0</ele><time>2026-03-23T09:55:47.932Z</time></trkpt><trkpt lat="30.143183954258653" lon="-6.12472856992583"><ele>1062.0</ele><time>2026-03-23T09:55:49.933Z</time></trkpt><trkpt lat="30.14311902866017" lon="-6.12476172171438"><ele>1062.0</ele><time>2026-03-23T09:56:03.932Z</time></trkpt><trkpt lat="30.143064827871807" lon="-6.124803732389134"><ele>1062.0</ele><time>2026-03-23T09:56:09.932Z</time></trkpt><trkpt lat="30.143051575265208" lon="-6.124875036866405"><ele>1062.0</ele><time>2026-03-23T09:56:43.932Z</time></trkpt><trkpt lat="30.14298669777057" lon="-6.124878119168897"><ele>1062.0</ele><time>2026-03-23T09:57:03.932Z</time></trkpt><trkpt lat="30.142923765470808" lon="-6.12487534787796"><ele>1062.0</ele><time>2026-03-23T09:57:10.932Z</time></trkpt><trkpt lat="30.14285800743994" lon="-6.124859780191968"><ele>1062.0</ele><time>2026-03-23T09:57:48.93Z</time></trkpt><trkpt lat="30.14293300290245" lon="-6.124868956850205"><ele>1062.0</ele><time>2026-03-23T09:58:28.931Z</time></trkpt><trkpt lat="30.143017947668568" lon="-6.124933607085143"><ele>1062.0</ele><time>2026-03-23T09:58:43.93Z</time></trkpt><trkpt lat="30.143074291916175" lon="-6.1248924239415"><ele>1062.0</ele><time>2026-03-23T09:59:35.93Z</time></trkpt><trkpt lat="30.143034006233272" lon="-6.124828543018118"><ele>1062.0</ele><time>2026-03-23T10:01:36.929Z</time></trkpt><trkpt lat="30.14308922299572" lon="-6.124791312250758"><ele>1062.0</ele><time>2026-03-23T10:02:35.929Z</time></trkpt><trkpt lat="30.143016404287838" lon="-6.124784234768325"><ele>1062.0</ele><time>2026-03-23T10:02:54.928Z</time></trkpt><trkpt lat="30.1429680725783" lon="-6.124731010844894"><ele>1062.0</ele><time>2026-03-23T10:03:00.928Z</time></trkpt><trkpt lat="30.143001756220034" lon="-6.124793994275303"><ele>1062.0</ele><time>2026-03-23T10:03:52.928Z</time></trkpt><trkpt lat="30.142923764750954" lon="-6.1247706621943285"><ele>1062.0</ele><time>2026-03-23T10:06:17.926Z</time></trkpt><trkpt lat="30.142868825307065" lon="-6.124719025573065"><ele>1062.0</ele><time>2026-03-23T10:06:18.926Z</time></trkpt><trkpt lat="30.142816706198783" lon="-6.124666902443916"><ele>1062.0</ele><time>2026-03-23T10:06:19.926Z</time></trkpt><trkpt lat="30.142764283298796" lon="-6.124599433109144"><ele>1062.0</ele><time>2026-03-23T10:06:20.926Z</time></trkpt><trkpt lat="30.142703106569442" lon="-6.124527707493898"><ele>1062.0</ele><time>2026-03-23T10:06:21.926Z</time></trkpt><trkpt lat="30.14259092767208" lon="-6.124527825585282"><ele>1062.0</ele><time>2026-03-23T10:06:22.926Z</time></trkpt><trkpt lat="30.14258926908711" lon="-6.1243669400060385"><ele>1062.0</ele><time>2026-03-23T10:06:23.926Z</time></trkpt><trkpt lat="30.142527333077506" lon="-6.124287891501371"><ele>1062.0</ele><time>2026-03-23T10:06:24.926Z</time></trkpt><trkpt lat="30.14245723698505" lon="-6.124210010311925"><ele>1062.0</ele><time>2026-03-23T10:06:25.926Z</time></trkpt><trkpt lat="30.142396977870906" lon="-6.124129158892547"><ele>1062.0</ele><time>2026-03-23T10:06:26.926Z</time></trkpt><trkpt lat="30.142326030181856" lon="-6.124062439170255"><ele>1062.0</ele><time>2026-03-23T10:06:27.926Z</time></trkpt><trkpt lat="30.142243556836885" lon="-6.123994416926598"><ele>1059.0</ele><time>2026-03-23T10:06:28.926Z</time></trkpt><trkpt lat="30.14213068612236" lon="-6.123913291546336"><ele>1056.0</ele><time>2026-03-23T10:06:29.926Z</time></trkpt><trkpt lat="30.142009600021527" lon="-6.123809324119442"><ele>1053.0</ele><time>2026-03-23T10:06:30.926Z</time></trkpt><trkpt lat="30.14185970749129" lon="-6.123686356206276"><ele>1053.0</ele><time>2026-03-23T10:06:31.926Z</time></trkpt><trkpt lat="30.141717280773168" lon="-6.123582517022985"><ele>1053.0</ele><time>2026-03-23T10:06:32.926Z</time></trkpt><trkpt lat="30.141605915701724" lon="-6.123472704741781"><ele>1053.0</ele><time>2026-03-23T10:06:33.926Z</time></trkpt><trkpt lat="30.14148266895294" lon="-6.123395754358882"><ele>1049.3333333333333</ele><time>2026-03-23T10:06:34.926Z</time></trkpt><trkpt lat="30.141356262115206" lon="-6.123350313026227"><ele>1045.6666666666665</ele><time>2026-03-23T10:06:35.926Z</time></trkpt><trkpt lat="30.141190675550217" lon="-6.123318040441769"><ele>1042.0</ele><time>2026-03-23T10:06:36.926Z</time></trkpt><trkpt lat="30.141027708515416" lon="-6.123273211941237"><ele>1039.6666666666665</ele><time>2026-03-23T10:06:37.926Z</time></trkpt><trkpt lat="30.14087964509888" lon="-6.123209031766344"><ele>1037.3333333333333</ele><time>2026-03-23T10:06:38.926Z</time></trkpt><trkpt lat="30.140721588374987" lon="-6.12313274487818"><ele>1035.0</ele><time>2026-03-23T10:06:39.926Z</time></trkpt><trkpt lat="30.140583095184752" lon="-6.12303612520419"><ele>1035.0</ele><time>2026-03-23T10:06:40.926Z</time></trkpt><trkpt lat="30.140435220297455" lon="-6.122920267564004"><ele>1035.0</ele><time>2026-03-23T10:06:41.926Z</time></trkpt><trkpt lat="30.140289563879374" lon="-6.122815565409436"><ele>1035.0</ele><time>2026-03-23T10:06:42.926Z</time></trkpt><trkpt lat="30.14015589653954" lon="-6.122743374030203"><ele>1035.0</ele><time>2026-03-23T10:06:43.926Z</time></trkpt><trkpt lat="30.140036310926654" lon="-6.122673827446296"><ele>1035.0</ele><time>2026-03-23T10:06:44.926Z</time></trkpt><trkpt lat="30.139931970150627" lon="-6.122590517179174"><ele>1035.0</ele><time>2026-03-23T10:06:45.926Z</time></trkpt><trkpt lat="30.139857921540646" lon="-6.122479080872018"><ele>1035.0</ele><time>2026-03-23T10:06:46.926Z</time></trkpt><trkpt lat="30.139787406426716" lon="-6.122359265511829"><ele>1033.0</ele><time>2026-03-23T10:06:47.926Z</time></trkpt><trkpt lat="30.139721440586833" lon="-6.122254242562276"><ele>1031.0</ele><time>2026-03-23T10:06:48.926Z</time></trkpt><trkpt lat="30.139636009100478" lon="-6.12218012478009"><ele>1029.0</ele><time>2026-03-23T10:06:49.926Z</time></trkpt><trkpt lat="30.13953613488181" lon="-6.122122929380672"><ele>1027.0</ele><time>2026-03-23T10:06:50.926Z</time></trkpt><trkpt lat="30.139435769758258" lon="-6.122066999003989"><ele>1025.0</ele><time>2026-03-23T10:06:51.926Z</time></trkpt><trkpt lat="30.139355786072915" lon="-6.12199333507542"><ele>1025.0</ele><time>2026-03-23T10:06:52.926Z</time></trkpt><trkpt lat="30.139304716177943" lon="-6.121925269914562"><ele>1025.0</ele><time>2026-03-23T10:06:53.926Z</time></trkpt><trkpt lat="30.13926787482097" lon="-6.1218439990053986"><ele>1025.0</ele><time>2026-03-23T10:06:54.926Z</time></trkpt><trkpt lat="30.13923541277476" lon="-6.121753128357755"><ele>1025.0</ele><time>2026-03-23T10:06:55.926Z</time></trkpt><trkpt lat="30.1391644234451" lon="-6.1216677862346165"><ele>1025.0</ele><time>2026-03-23T10:06:56.926Z</time></trkpt><trkpt lat="30.13909120272593" lon="-6.121563315755688"><ele>1022.6</ele><time>2026-03-23T10:06:57.926Z</time></trkpt><trkpt lat="30.13901223959911" lon="-6.121451019585881"><ele>1020.2</ele><time>2026-03-23T10:06:58.926Z</time></trkpt><trkpt lat="30.138936535486565" lon="-6.121357418262828"><ele>1017.8</ele><time>2026-03-23T10:06:59.926Z</time></trkpt><trkpt lat="30.1388575042525" lon="-6.1212747786388535"><ele>1015.4</ele><time>2026-03-23T10:07:00.926Z</time></trkpt><trkpt lat="30.13877031781141" lon="-6.121204611847903"><ele>1013.0</ele><time>2026-03-23T10:07:01.926Z</time></trkpt><trkpt lat="30.13867928935083" lon="-6.121162296386499"><ele>1013.0</ele><time>2026-03-23T10:07:02.926Z</time></trkpt><trkpt lat="30.138590123621672" lon="-6.121116449727158"><ele>1013.0</ele><time>2026-03-23T10:07:03.926Z</time></trkpt><trkpt lat="30.138521086284847" lon="-6.121040983596067"><ele>1013.0</ele><time>2026-03-23T10:07:04.926Z</time></trkpt><trkpt lat="30.138463299740312" lon="-6.120947640440635"><ele>1013.0</ele><time>2026-03-23T10:07:05.926Z</time></trkpt><trkpt lat="30.138413820039208" lon="-6.120841716137241"><ele>1013.0</ele><time>2026-03-23T10:07:06.926Z</time></trkpt><trkpt lat="30.138358044919453" lon="-6.120729497945453"><ele>1012.5</ele><time>2026-03-23T10:07:07.926Z</time></trkpt><trkpt lat="30.138307945799664" lon="-6.120634295391281"><ele>1012.0</ele><time>2026-03-23T10:07:08.926Z</time></trkpt><trkpt lat="30.138244020501492" lon="-6.1205306540237325"><ele>1011.5</ele><time>2026-03-23T10:07:09.926Z</time></trkpt><trkpt lat="30.13819904843094" lon="-6.12040095384448"><ele>1011.0</ele><time>2026-03-23T10:07:10.926Z</time></trkpt><trkpt lat="30.13816344862857" lon="-6.120263370016107"><ele>1010.25</ele><time>2026-03-23T10:07:11.926Z</time></trkpt><trkpt lat="30.138137650782735" lon="-6.120115874267307"><ele>1009.5</ele><time>2026-03-23T10:07:12.926Z</time></trkpt><trkpt lat="30.13811686342436" lon="-6.119958645337821"><ele>1008.75</ele><time>2026-03-23T10:07:13.926Z</time></trkpt><trkpt lat="30.138068895661135" lon="-6.119815596602697"><ele>1008.0</ele><time>2026-03-23T10:07:14.926Z</time></trkpt><trkpt lat="30.138015668715116" lon="-6.11968986534358"><ele>1007.75</ele><time>2026-03-23T10:07:15.926Z</time></trkpt><trkpt lat="30.137930443129417" lon="-6.119588782377248"><ele>1007.5</ele><time>2026-03-23T10:07:16.926Z</time></trkpt><trkpt lat="30.137820642239536" lon="-6.119498077126548"><ele>1007.25</ele><time>2026-03-23T10:07:17.926Z</time></trkpt><trkpt lat="30.137724529752038" lon="-6.119390738272867"><ele>1007.0</ele><time>2026-03-23T10:07:18.926Z</time></trkpt><trkpt lat="30.137641480721726" lon="-6.119261690638136"><ele>1007.0</ele><time>2026-03-23T10:07:19.926Z</time></trkpt><trkpt lat="30.13757511625864" lon="-6.119129825784963"><ele>1007.0</ele><time>2026-03-23T10:07:20.926Z</time></trkpt><trkpt lat="30.13749416337148" lon="-6.119007986401728"><ele>1007.0</ele><time>2026-03-23T10:07:21.926Z</time></trkpt><trkpt lat="30.137413357765094" lon="-6.1188897092937955"><ele>1007.0</ele><time>2026-03-23T10:07:22.926Z</time></trkpt><trkpt lat="30.137338534281906" lon="-6.118753328736291"><ele>1006.0</ele><time>2026-03-23T10:07:23.926Z</time></trkpt><trkpt lat="30.137266676697553" lon="-6.118601505313861"><ele>1005.0</ele><time>2026-03-23T10:07:24.926Z</time></trkpt><trkpt lat="30.13722396883678" lon="-6.118473175092504"><ele>1004.0</ele><time>2026-03-23T10:07:25.926Z</time></trkpt><trkpt lat="30.13721317694843" lon="-6.118354319965657"><ele>1003.0</ele><time>2026-03-23T10:07:26.926Z</time></trkpt><trkpt lat="30.137232053065727" lon="-6.118217080114751"><ele>1003.0</ele><time>2026-03-23T10:07:27.926Z</time></trkpt><trkpt lat="30.137223971629712" lon="-6.118069753725231"><ele>1003.0</ele><time>2026-03-23T10:07:28.926Z</time></trkpt><trkpt lat="30.13719973432816" lon="-6.117954898225493"><ele>1003.0</ele><time>2026-03-23T10:07:29.926Z</time></trkpt><trkpt lat="30.137170061882838" lon="-6.117840749904992"><ele>1003.0</ele><time>2026-03-23T10:07:30.926Z</time></trkpt><trkpt lat="30.13714427460322" lon="-6.117738845135102"><ele>1003.0</ele><time>2026-03-23T10:07:31.926Z</time></trkpt><trkpt lat="30.137092052288814" lon="-6.117661771607851"><ele>1003.0</ele><time>2026-03-23T10:07:32.926Z</time></trkpt><trkpt lat="30.137014211612527" lon="-6.1175781638953755"><ele>1003.0</ele><time>2026-03-23T10:07:33.926Z</time></trkpt><trkpt lat="30.136939903797344" lon="-6.11748615755454"><ele>1003.0</ele><time>2026-03-23T10:07:34.926Z</time></trkpt><trkpt lat="30.136866389133658" lon="-6.1173798636547385"><ele>1003.0</ele><time>2026-03-23T10:07:35.926Z</time></trkpt><trkpt lat="30.136769229775783" lon="-6.1172942400846"><ele>1002.25</ele><time>2026-03-23T10:07:36.926Z</time></trkpt><trkpt lat="30.13671231779833" lon="-6.117206753401399"><ele>1001.5</ele><time>2026-03-23T10:07:37.926Z</time></trkpt><trkpt lat="30.136672696674363" lon="-6.117096882155898"><ele>1000.75</ele><time>2026-03-23T10:07:38.926Z</time></trkpt><trkpt lat="30.136662016837636" lon="-6.116965567142412"><ele>1000.0</ele><time>2026-03-23T10:07:39.925Z</time></trkpt><trkpt lat="30.136650607963777" lon="-6.116799445232277"><ele>1000.0</ele><time>2026-03-23T10:07:40.925Z</time></trkpt><trkpt lat="30.13662644540912" lon="-6.116657513158709"><ele>1000.0</ele><time>2026-03-23T10:07:41.925Z</time></trkpt><trkpt lat="30.13660786234597" lon="-6.116518441803294"><ele>1000.0</ele><time>2026-03-23T10:07:42.925Z</time></trkpt><trkpt lat="30.136579411807705" lon="-6.116369999285445"><ele>1000.0</ele><time>2026-03-23T10:07:43.925Z</time></trkpt><trkpt lat="30.136563693433036" lon="-6.116234329580179"><ele>998.5</ele><time>2026-03-23T10:07:44.925Z</time></trkpt><trkpt lat="30.136533090206296" lon="-6.116090843617118"><ele>997.0</ele><time>2026-03-23T10:07:45.925Z</time></trkpt><trkpt lat="30.13650900419877" lon="-6.115974892857054"><ele>995.5</ele><time>2026-03-23T10:07:46.925Z</time></trkpt><trkpt lat="30.136482272981166" lon="-6.115839684387741"><ele>994.0</ele><time>2026-03-23T10:07:47.925Z</time></trkpt><trkpt lat="30.13645591957634" lon="-6.115709687787298"><ele>992.5</ele><time>2026-03-23T10:07:48.925Z</time></trkpt><trkpt lat="30.136421930103214" lon="-6.115597520089305"><ele>991.0</ele><time>2026-03-23T10:07:49.925Z</time></trkpt><trkpt lat="30.136398739955737" lon="-6.115466912603114"><ele>989.5</ele><time>2026-03-23T10:07:50.925Z</time></trkpt><trkpt lat="30.136378496529368" lon="-6.115318637964526"><ele>988.0</ele><time>2026-03-23T10:07:51.925Z</time></trkpt><trkpt lat="30.136357336971166" lon="-6.115185978290845"><ele>988.0</ele><time>2026-03-23T10:07:52.925Z</time></trkpt><trkpt lat="30.136329906646115" lon="-6.115062248297349"><ele>988.0</ele><time>2026-03-23T10:07:53.925Z</time></trkpt><trkpt lat="30.136297141585914" lon="-6.1149464088639744"><ele>988.0</ele><time>2026-03-23T10:07:54.925Z</time></trkpt><trkpt lat="30.136258489348172" lon="-6.114820304231014"><ele>988.0</ele><time>2026-03-23T10:07:55.925Z</time></trkpt><trkpt lat="30.1362235662146" lon="-6.114694842756155"><ele>988.0</ele><time>2026-03-23T10:07:56.925Z</time></trkpt><trkpt lat="30.136223847027516" lon="-6.114569261656627"><ele>987.4</ele><time>2026-03-23T10:07:57.925Z</time></trkpt><trkpt lat="30.136248869375322" lon="-6.114465828515069"><ele>986.8</ele><time>2026-03-23T10:07:58.925Z</time></trkpt><trkpt lat="30.136289529493194" lon="-6.114382761988085"><ele>986.2</ele><time>2026-03-23T10:07:59.925Z</time></trkpt><trkpt lat="30.13636113142507" lon="-6.114338488713419"><ele>985.6</ele><time>2026-03-23T10:08:00.925Z</time></trkpt><trkpt lat="30.13646582067857" lon="-6.114312421215645"><ele>985.0</ele><time>2026-03-23T10:08:01.925Z</time></trkpt><trkpt lat="30.136561270678857" lon="-6.114262691761583"><ele>985.9999999999999</ele><time>2026-03-23T10:08:02.925Z</time></trkpt><trkpt lat="30.136635787503497" lon="-6.114203401114839"><ele>987.0</ele><time>2026-03-23T10:08:03.925Z</time></trkpt><trkpt lat="30.136686298464888" lon="-6.114122779665461"><ele>988.0</ele><time>2026-03-23T10:08:04.925Z</time></trkpt><trkpt lat="30.1367136294354" lon="-6.114032536250671"><ele>989.0</ele><time>2026-03-23T10:08:05.925Z</time></trkpt><trkpt lat="30.13671303010834" lon="-6.1139381127317165"><ele>989.9999999999999</ele><time>2026-03-23T10:08:06.925Z</time></trkpt><trkpt lat="30.136695486286467" lon="-6.113847796968626"><ele>991.0</ele><time>2026-03-23T10:08:07.925Z</time></trkpt><trkpt lat="30.13664808644244" lon="-6.113792550110597"><ele>990.0</ele><time>2026-03-23T10:08:08.925Z</time></trkpt><trkpt lat="30.13657595798144" lon="-6.113744033052238"><ele>988.9999999999999</ele><time>2026-03-23T10:08:09.925Z</time></trkpt><trkpt lat="30.136501638732092" lon="-6.113702799682953"><ele>987.9999999999999</ele><time>2026-03-23T10:08:10.925Z</time></trkpt><trkpt lat="30.13642274937683" lon="-6.113643393722317"><ele>987.0</ele><time>2026-03-23T10:08:11.925Z</time></trkpt><trkpt lat="30.1363459147969" lon="-6.1135880613424565"><ele>986.0</ele><time>2026-03-23T10:08:12.925Z</time></trkpt><trkpt lat="30.136258142099862" lon="-6.113531101208752"><ele>986.0</ele><time>2026-03-23T10:08:13.925Z</time></trkpt><trkpt lat="30.136156475652466" lon="-6.113448321994627"><ele>985.9999999999999</ele><time>2026-03-23T10:08:14.925Z</time></trkpt><trkpt lat="30.136061346915763" lon="-6.113361068600119"><ele>985.9999999999999</ele><time>2026-03-23T10:08:15.925Z</time></trkpt><trkpt lat="30.13597818745626" lon="-6.113286013126888"><ele>986.0</ele><time>2026-03-23T10:08:16.926Z</time></trkpt><trkpt lat="30.135898406029042" lon="-6.1132241922451644"><ele>986.0</ele><time>2026-03-23T10:08:17.925Z</time></trkpt><trkpt lat="30.135820623968506" lon="-6.113143241732252"><ele>984.75</ele><time>2026-03-23T10:08:18.925Z</time></trkpt><trkpt lat="30.135734512405573" lon="-6.113075258492623"><ele>983.5</ele><time>2026-03-23T10:08:19.925Z</time></trkpt><trkpt lat="30.13564201461637" lon="-6.113006662954434"><ele>982.25</ele><time>2026-03-23T10:08:20.925Z</time></trkpt><trkpt lat="30.13554816517525" lon="-6.11293001937736"><ele>981.0</ele><time>2026-03-23T10:08:21.925Z</time></trkpt><trkpt lat="30.13544516330677" lon="-6.112855252714237"><ele>981.0</ele><time>2026-03-23T10:08:22.925Z</time></trkpt><trkpt lat="30.135353785263913" lon="-6.112789326577236"><ele>981.0</ele><time>2026-03-23T10:08:23.925Z</time></trkpt><trkpt lat="30.13526719021494" lon="-6.112717865518567"><ele>981.0</ele><time>2026-03-23T10:08:24.925Z</time></trkpt><trkpt lat="30.135188577490357" lon="-6.112627383678287"><ele>981.0</ele><time>2026-03-23T10:08:25.926Z</time></trkpt><trkpt lat="30.135112391719975" lon="-6.112502636822488"><ele>981.8</ele><time>2026-03-23T10:08:26.925Z</time></trkpt><trkpt lat="30.13504490515191" lon="-6.112355372568145"><ele>982.5999999999999</ele><time>2026-03-23T10:08:27.925Z</time></trkpt><trkpt lat="30.13499845183307" lon="-6.112233975278285"><ele>983.4</ele><time>2026-03-23T10:08:28.925Z</time></trkpt><trkpt lat="30.134969274943742" lon="-6.1121217273012824"><ele>984.2</ele><time>2026-03-23T10:08:29.925Z</time></trkpt><trkpt lat="30.134966688992797" lon="-6.112018759315692"><ele>985.0</ele><time>2026-03-23T10:08:30.925Z</time></trkpt><trkpt lat="30.13499180613681" lon="-6.111924058213123"><ele>985.0</ele><time>2026-03-23T10:08:31.925Z</time></trkpt><trkpt lat="30.13504533481111" lon="-6.111850209917866"><ele>985.0</ele><time>2026-03-23T10:08:32.925Z</time></trkpt><trkpt lat="30.13512780390093" lon="-6.111755658707148"><ele>985.0</ele><time>2026-03-23T10:08:33.925Z</time></trkpt><trkpt lat="30.13520224318539" lon="-6.111635926928577"><ele>985.0</ele><time>2026-03-23T10:08:34.925Z</time></trkpt><trkpt lat="30.135270525907064" lon="-6.111478794683796"><ele>984.6</ele><time>2026-03-23T10:08:35.925Z</time></trkpt><trkpt lat="30.135304276669284" lon="-6.111344262674343"><ele>984.2</ele><time>2026-03-23T10:08:36.925Z</time></trkpt><trkpt lat="30.135308096098555" lon="-6.111235858689276"><ele>983.8</ele><time>2026-03-23T10:08:37.925Z</time></trkpt><trkpt lat="30.135300690974077" lon="-6.11113080985683"><ele>983.4</ele><time>2026-03-23T10:08:38.925Z</time></trkpt><trkpt lat="30.135312797119514" lon="-6.1110173851166305"><ele>983.0</ele><time>2026-03-23T10:08:39.925Z</time></trkpt><trkpt lat="30.13534498342156" lon="-6.110905549050703"><ele>983.0000000000001</ele><time>2026-03-23T10:08:40.925Z</time></trkpt><trkpt lat="30.135390428131664" lon="-6.110799914553796"><ele>983.0</ele><time>2026-03-23T10:08:41.925Z</time></trkpt><trkpt lat="30.135444286891943" lon="-6.110706895357605"><ele>983.0</ele><time>2026-03-23T10:08:42.925Z</time></trkpt><trkpt lat="30.135486268388654" lon="-6.110620399843344"><ele>983.0</ele><time>2026-03-23T10:08:43.925Z</time></trkpt><trkpt lat="30.135500197302726" lon="-6.110545184624378"><ele>983.0000000000001</ele><time>2026-03-23T10:08:44.925Z</time></trkpt><trkpt lat="30.135497550460013" lon="-6.110460338948092"><ele>983.0</ele><time>2026-03-23T10:08:45.925Z</time></trkpt><trkpt lat="30.1354771243555" lon="-6.11038168829845"><ele>983.8</ele><time>2026-03-23T10:08:46.925Z</time></trkpt><trkpt lat="30.135428898286293" lon="-6.11030638716874"><ele>984.5999999999999</ele><time>2026-03-23T10:08:47.925Z</time></trkpt><trkpt lat="30.13537015475792" lon="-6.110224504308077"><ele>985.4000000000001</ele><time>2026-03-23T10:08:48.925Z</time></trkpt><trkpt lat="30.13531568812132" lon="-6.1101299054718465"><ele>986.2</ele><time>2026-03-23T10:08:49.925Z</time></trkpt><trkpt lat="30.13526284953385" lon="-6.1100301395735634"><ele>987.0</ele><time>2026-03-23T10:08:50.925Z</time></trkpt><trkpt lat="30.135234998989922" lon="-6.109918394058049"><ele>988.25</ele><time>2026-03-23T10:08:51.925Z</time></trkpt><trkpt lat="30.135211912078947" lon="-6.109788295931146"><ele>989.5</ele><time>2026-03-23T10:08:52.925Z</time></trkpt><trkpt lat="30.135197714149324" lon="-6.109647059311934"><ele>990.75</ele><time>2026-03-23T10:08:53.925Z</time></trkpt><trkpt lat="30.135185010062546" lon="-6.109463736477296"><ele>992.0</ele><time>2026-03-23T10:08:54.925Z</time></trkpt><trkpt lat="30.13517588340998" lon="-6.109279240267059"><ele>992.0</ele><time>2026-03-23T10:08:55.925Z</time></trkpt><trkpt lat="30.13516085934964" lon="-6.109112819374863"><ele>992.0</ele><time>2026-03-23T10:08:56.925Z</time></trkpt><trkpt lat="30.135136596569108" lon="-6.108985396526596"><ele>992.0</ele><time>2026-03-23T10:08:57.925Z</time></trkpt><trkpt lat="30.135111818703052" lon="-6.108864724063787"><ele>992.0</ele><time>2026-03-23T10:08:58.925Z</time></trkpt><trkpt lat="30.135076814386633" lon="-6.108769074780729"><ele>994.4000000000001</ele><time>2026-03-23T10:08:59.925Z</time></trkpt><trkpt lat="30.135041084252784" lon="-6.108691611783469"><ele>996.8000000000001</ele><time>2026-03-23T10:09:00.925Z</time></trkpt><trkpt lat="30.134997273527272" lon="-6.108615100761164"><ele>999.2</ele><time>2026-03-23T10:09:01.925Z</time></trkpt><trkpt lat="30.134944432764605" lon="-6.10853164834213"><ele>1001.6</ele><time>2026-03-23T10:09:02.925Z</time></trkpt><trkpt lat="30.134883082305553" lon="-6.108429746544077"><ele>1004.0</ele><time>2026-03-23T10:09:03.925Z</time></trkpt><trkpt lat="30.134820186364205" lon="-6.108313627439164"><ele>1002.5</ele><time>2026-03-23T10:09:04.925Z</time></trkpt><trkpt lat="30.134746056054933" lon="-6.108191421642398"><ele>1001.0</ele><time>2026-03-23T10:09:05.925Z</time></trkpt><trkpt lat="30.134671273282372" lon="-6.108091907400639"><ele>999.5</ele><time>2026-03-23T10:09:06.925Z</time></trkpt><trkpt lat="30.134594800569054" lon="-6.108004716895932"><ele>998.0</ele><time>2026-03-23T10:09:07.925Z</time></trkpt><trkpt lat="30.13451056198587" lon="-6.107923219377052"><ele>998.0</ele><time>2026-03-23T10:09:08.925Z</time></trkpt><trkpt lat="30.134416486231604" lon="-6.1078314051913445"><ele>998.0</ele><time>2026-03-23T10:09:09.925Z</time></trkpt><trkpt lat="30.13432705739866" lon="-6.107726222968141"><ele>998.0</ele><time>2026-03-23T10:09:10.925Z</time></trkpt><trkpt lat="30.13424380967968" lon="-6.107611094427696"><ele>998.0</ele><time>2026-03-23T10:09:11.925Z</time></trkpt><trkpt lat="30.134166875488564" lon="-6.107503972577467"><ele>997.75</ele><time>2026-03-23T10:09:12.925Z</time></trkpt><trkpt lat="30.134070652992406" lon="-6.107397166233445"><ele>997.5</ele><time>2026-03-23T10:09:13.925Z</time></trkpt><trkpt lat="30.133980734378234" lon="-6.10728825633083"><ele>997.25</ele><time>2026-03-23T10:09:14.924Z</time></trkpt><trkpt lat="30.133886236824406" lon="-6.10717119033448"><ele>997.0</ele><time>2026-03-23T10:09:15.924Z</time></trkpt><trkpt lat="30.133798722639117" lon="-6.107051225605365"><ele>997.0</ele><time>2026-03-23T10:09:16.924Z</time></trkpt><trkpt lat="30.133718989202805" lon="-6.106927705975846"><ele>997.0</ele><time>2026-03-23T10:09:17.924Z</time></trkpt><trkpt lat="30.133640159757913" lon="-6.10679761639352"><ele>997.0</ele><time>2026-03-23T10:09:18.924Z</time></trkpt><trkpt lat="30.1335560466596" lon="-6.106675661591607"><ele>997.0</ele><time>2026-03-23T10:09:19.924Z</time></trkpt><trkpt lat="30.133473663198902" lon="-6.106553280982715"><ele>995.0</ele><time>2026-03-23T10:09:20.924Z</time></trkpt><trkpt lat="30.133383390987916" lon="-6.106440524007397"><ele>993.0</ele><time>2026-03-23T10:09:21.924Z</time></trkpt><trkpt lat="30.133279580728694" lon="-6.106312630044017"><ele>991.0</ele><time>2026-03-23T10:09:22.924Z</time></trkpt><trkpt lat="30.133167355170386" lon="-6.106179763284222"><ele>989.0</ele><time>2026-03-23T10:09:23.924Z</time></trkpt><trkpt lat="30.133078862028004" lon="-6.106041313459252"><ele>989.0</ele><time>2026-03-23T10:09:24.924Z</time></trkpt><trkpt lat="30.132998312660458" lon="-6.105915977976403"><ele>989.0</ele><time>2026-03-23T10:09:25.924Z</time></trkpt><trkpt lat="30.132920749084896" lon="-6.105811653297589"><ele>989.0</ele><time>2026-03-23T10:09:26.924Z</time></trkpt><trkpt lat="30.132853814570396" lon="-6.105721259570494"><ele>989.0</ele><time>2026-03-23T10:09:27.924Z</time></trkpt><trkpt lat="30.132783682557896" lon="-6.105630202265102"><ele>992.25</ele><time>2026-03-23T10:09:28.924Z</time></trkpt><trkpt lat="30.132700476526704" lon="-6.10552232857163"><ele>995.5</ele><time>2026-03-23T10:09:29.924Z</time></trkpt><trkpt lat="30.132631865191456" lon="-6.105401658347423"><ele>998.75</ele><time>2026-03-23T10:09:30.924Z</time></trkpt><trkpt lat="30.132562034690295" lon="-6.105267052183338"><ele>1002.0</ele><time>2026-03-23T10:09:31.924Z</time></trkpt><trkpt lat="30.13248685084611" lon="-6.105137630225836"><ele>1002.0</ele><time>2026-03-23T10:09:32.924Z</time></trkpt><trkpt lat="30.132409672996832" lon="-6.105004146363536"><ele>1002.0</ele><time>2026-03-23T10:09:33.924Z</time></trkpt><trkpt lat="30.132340415653676" lon="-6.104874047964684"><ele>1002.0</ele><time>2026-03-23T10:09:34.924Z</time></trkpt><trkpt lat="30.132265204591263" lon="-6.104748279314048"><ele>1002.0</ele><time>2026-03-23T10:09:35.924Z</time></trkpt><trkpt lat="30.132195552189614" lon="-6.104619857044432"><ele>999.0</ele><time>2026-03-23T10:09:36.924Z</time></trkpt><trkpt lat="30.1321268088063" lon="-6.104495470564331"><ele>996.0</ele><time>2026-03-23T10:09:37.924Z</time></trkpt><trkpt lat="30.132063966261143" lon="-6.1043713464466824"><ele>993.0</ele><time>2026-03-23T10:09:38.924Z</time></trkpt><trkpt lat="30.131994901283907" lon="-6.104258781790506"><ele>990.0</ele><time>2026-03-23T10:09:39.924Z</time></trkpt><trkpt lat="30.131930229544245" lon="-6.104152940696369"><ele>990.0</ele><time>2026-03-23T10:09:40.924Z</time></trkpt><trkpt lat="30.131868815914146" lon="-6.104040852384926"><ele>990.0</ele><time>2026-03-23T10:09:41.924Z</time></trkpt><trkpt lat="30.131812233656294" lon="-6.103932847178598"><ele>990.0</ele><time>2026-03-23T10:09:42.924Z</time></trkpt><trkpt lat="30.131761801280415" lon="-6.103832653683835"><ele>990.0</ele><time>2026-03-23T10:09:43.924Z</time></trkpt><trkpt lat="30.13172890899881" lon="-6.1037691663293945"><ele>990.0</ele><time>2026-03-23T10:09:44.924Z</time></trkpt><trkpt lat="30.13167185865296" lon="-6.1036580625335946"><ele>989.9999999999999</ele><time>2026-03-23T10:09:46.924Z</time></trkpt><trkpt lat="30.13162358809969" lon="-6.103568260185584"><ele>990.0</ele><time>2026-03-23T10:09:48.924Z</time></trkpt><trkpt lat="30.13157649581116" lon="-6.103503789531659"><ele>989.9999999999999</ele><time>2026-03-23T10:09:50.924Z</time></trkpt><trkpt lat="30.131536093553976" lon="-6.103425731703024"><ele>989.9999999999999</ele><time>2026-03-23T10:09:53.924Z</time></trkpt><trkpt lat="30.13149627056841" lon="-6.103367539108431"><ele>990.0</ele><time>2026-03-23T10:09:55.924Z</time></trkpt><trkpt lat="30.1314621949381" lon="-6.103306241015397"><ele>989.9999999999999</ele><time>2026-03-23T10:09:57.924Z</time></trkpt><trkpt lat="30.13142717951822" lon="-6.103237185586382"><ele>989.9999999999999</ele><time>2026-03-23T10:09:59.924Z</time></trkpt><trkpt lat="30.131392749593456" lon="-6.1031753255700165"><ele>989.3333333333334</ele><time>2026-03-23T10:10:01.924Z</time></trkpt><trkpt lat="30.131347634649373" lon="-6.103092436988113"><ele>988.6666666666667</ele><time>2026-03-23T10:10:04.924Z</time></trkpt><trkpt lat="30.131320882119116" lon="-6.103019687304478"><ele>988.0</ele><time>2026-03-23T10:10:06.924Z</time></trkpt><trkpt lat="30.13128506201167" lon="-6.1029366325112235"><ele>987.3333333333334</ele><time>2026-03-23T10:10:08.924Z</time></trkpt><trkpt lat="30.13124659149974" lon="-6.102857463968554"><ele>986.6666666666667</ele><time>2026-03-23T10:10:10.924Z</time></trkpt><trkpt lat="30.131189159737993" lon="-6.102805404861859"><ele>986.0</ele><time>2026-03-23T10:10:11.924Z</time></trkpt><trkpt lat="30.131118700828292" lon="-6.102742335001345"><ele>986.0</ele><time>2026-03-23T10:10:12.924Z</time></trkpt><trkpt lat="30.131050997706062" lon="-6.102659462154083"><ele>985.9999999999999</ele><time>2026-03-23T10:10:13.924Z</time></trkpt><trkpt lat="30.130985101103903" lon="-6.102574927488368"><ele>985.9999999999999</ele><time>2026-03-23T10:10:14.924Z</time></trkpt><trkpt lat="30.13091256756001" lon="-6.102489875812407"><ele>986.0</ele><time>2026-03-23T10:10:15.924Z</time></trkpt><trkpt lat="30.130830070103798" lon="-6.102379568298093"><ele>986.0</ele><time>2026-03-23T10:10:16.924Z</time></trkpt><trkpt lat="30.13074469054875" lon="-6.102271192633701"><ele>984.75</ele><time>2026-03-23T10:10:17.924Z</time></trkpt><trkpt lat="30.13066738773538" lon="-6.102157234163527"><ele>983.5</ele><time>2026-03-23T10:10:18.924Z</time></trkpt><trkpt lat="30.13057575049601" lon="-6.102043933729574"><ele>982.25</ele><time>2026-03-23T10:10:19.924Z</time></trkpt><trkpt lat="30.130488964471898" lon="-6.101946063022567"><ele>981.0</ele><time>2026-03-23T10:10:20.924Z</time></trkpt><trkpt lat="30.130383785811404" lon="-6.101832057685206"><ele>981.0</ele><time>2026-03-23T10:10:21.924Z</time></trkpt><trkpt lat="30.130277438201695" lon="-6.101709607549953"><ele>981.0</ele><time>2026-03-23T10:10:22.924Z</time></trkpt><trkpt lat="30.130169987294607" lon="-6.101574052484019"><ele>981.0</ele><time>2026-03-23T10:10:23.924Z</time></trkpt><trkpt lat="30.130070921507514" lon="-6.10142454837663"><ele>981.25</ele><time>2026-03-23T10:10:24.924Z</time></trkpt><trkpt lat="30.12997628951566" lon="-6.101311093454553"><ele>981.5</ele><time>2026-03-23T10:10:25.924Z</time></trkpt><trkpt lat="30.129897186910398" lon="-6.101225044870816"><ele>981.75</ele><time>2026-03-23T10:10:26.924Z</time></trkpt><trkpt lat="30.129816262061777" lon="-6.101151769362959"><ele>982.0</ele><time>2026-03-23T10:10:27.924Z</time></trkpt><trkpt lat="30.129742637870844" lon="-6.10106863212704"><ele>981.0</ele><time>2026-03-23T10:10:28.924Z</time></trkpt><trkpt lat="30.129668656938524" lon="-6.100990179018465"><ele>980.0</ele><time>2026-03-23T10:10:29.924Z</time></trkpt><trkpt lat="30.129586331444898" lon="-6.100901129076617"><ele>979.0</ele><time>2026-03-23T10:10:30.924Z</time></trkpt><trkpt lat="30.129485232374233" lon="-6.100809646945176"><ele>978.0</ele><time>2026-03-23T10:10:31.925Z</time></trkpt><trkpt lat="30.12938772488332" lon="-6.1007046184718385"><ele>978.0</ele><time>2026-03-23T10:10:32.924Z</time></trkpt><trkpt lat="30.12927359739985" lon="-6.100602040045397"><ele>978.0</ele><time>2026-03-23T10:10:33.924Z</time></trkpt><trkpt lat="30.129165177269204" lon="-6.100489710649775"><ele>978.0</ele><time>2026-03-23T10:10:34.924Z</time></trkpt><trkpt lat="30.12905420090817" lon="-6.100384663198428"><ele>978.0</ele><time>2026-03-23T10:10:35.924Z</time></trkpt><trkpt lat="30.128937916444418" lon="-6.100268025764915"><ele>975.75</ele><time>2026-03-23T10:10:36.924Z</time></trkpt><trkpt lat="30.12882013197872" lon="-6.10015359843321"><ele>973.5</ele><time>2026-03-23T10:10:37.924Z</time></trkpt><trkpt lat="30.128712065465955" lon="-6.100040103348068"><ele>971.25</ele><time>2026-03-23T10:10:38.924Z</time></trkpt><trkpt lat="30.128603075874754" lon="-6.099935014655366"><ele>969.0</ele><time>2026-03-23T10:10:39.924Z</time></trkpt><trkpt lat="30.12850193850944" lon="-6.099829430388911"><ele>969.0</ele><time>2026-03-23T10:10:40.924Z</time></trkpt><trkpt lat="30.128401359937282" lon="-6.099726993188581"><ele>969.0</ele><time>2026-03-23T10:10:41.924Z</time></trkpt><trkpt lat="30.12830183443208" lon="-6.099629459983803"><ele>969.0</ele><time>2026-03-23T10:10:42.924Z</time></trkpt><trkpt lat="30.128199997409517" lon="-6.099535995606484"><ele>969.0</ele><time>2026-03-23T10:10:43.924Z</time></trkpt><trkpt lat="30.128098938713336" lon="-6.099440609153954"><ele>967.0</ele><time>2026-03-23T10:10:44.924Z</time></trkpt><trkpt lat="30.128011467473005" lon="-6.099337863625467"><ele>965.0</ele><time>2026-03-23T10:10:45.924Z</time></trkpt><trkpt lat="30.12791296739013" lon="-6.099241530662141"><ele>963.0</ele><time>2026-03-23T10:10:46.924Z</time></trkpt><trkpt lat="30.127818015893975" lon="-6.099145899783019"><ele>961.0</ele><time>2026-03-23T10:10:47.924Z</time></trkpt><trkpt lat="30.12772366218219" lon="-6.099050713386235"><ele>961.0</ele><time>2026-03-23T10:10:48.924Z</time></trkpt><trkpt lat="30.127616607799723" lon="-6.0989552136675655"><ele>961.0</ele><time>2026-03-23T10:10:49.923Z</time></trkpt><trkpt lat="30.127504790065952" lon="-6.098855119359041"><ele>961.0</ele><time>2026-03-23T10:10:50.923Z</time></trkpt><trkpt lat="30.127386671884132" lon="-6.09872829472256"><ele>961.0</ele><time>2026-03-23T10:10:51.923Z</time></trkpt><trkpt lat="30.12725472590845" lon="-6.098587568321767"><ele>958.6666666666666</ele><time>2026-03-23T10:10:52.923Z</time></trkpt><trkpt lat="30.127129906354867" lon="-6.098464979570253"><ele>956.3333333333333</ele><time>2026-03-23T10:10:53.923Z</time></trkpt><trkpt lat="30.12699447520878" lon="-6.098350743671475"><ele>954.0</ele><time>2026-03-23T10:10:54.923Z</time></trkpt><trkpt lat="30.126857800467537" lon="-6.098198091851371"><ele>954.0</ele><time>2026-03-23T10:10:55.923Z</time></trkpt><trkpt lat="30.126710195707197" lon="-6.098035212556126"><ele>954.0</ele><time>2026-03-23T10:10:56.923Z</time></trkpt><trkpt lat="30.12657909992557" lon="-6.097904726314659"><ele>954.0</ele><time>2026-03-23T10:10:57.923Z</time></trkpt><trkpt lat="30.12646450229802" lon="-6.09779240340518"><ele>949.0</ele><time>2026-03-23T10:10:58.923Z</time></trkpt><trkpt lat="30.126356878308016" lon="-6.097672460627185"><ele>944.0</ele><time>2026-03-23T10:10:59.923Z</time></trkpt><trkpt lat="30.12626478605507" lon="-6.097565034386813"><ele>939.0</ele><time>2026-03-23T10:11:00.923Z</time></trkpt><trkpt lat="30.126177862357626" lon="-6.097447881429525"><ele>934.0</ele><time>2026-03-23T10:11:01.923Z</time></trkpt><trkpt lat="30.126117441972134" lon="-6.097319270736486"><ele>934.0</ele><time>2026-03-23T10:11:02.923Z</time></trkpt><trkpt lat="30.126061032809293" lon="-6.097170743253054"><ele>934.0</ele><time>2026-03-23T10:11:03.923Z</time></trkpt><trkpt lat="30.126009325539133" lon="-6.096993863818349"><ele>934.0</ele><time>2026-03-23T10:11:04.923Z</time></trkpt><trkpt lat="30.125953088801563" lon="-6.096806497336023"><ele>934.0</ele><time>2026-03-23T10:11:05.923Z</time></trkpt><trkpt lat="30.125910518832562" lon="-6.096632764663796"><ele>934.0</ele><time>2026-03-23T10:11:06.923Z</time></trkpt><trkpt lat="30.12586762007717" lon="-6.096491250918479"><ele>934.0</ele><time>2026-03-23T10:11:07.923Z</time></trkpt><trkpt lat="30.125823440788487" lon="-6.096370029776795"><ele>934.0</ele><time>2026-03-23T10:11:08.923Z</time></trkpt><trkpt lat="30.125799356897286" lon="-6.096247267352113"><ele>935.4000000000001</ele><time>2026-03-23T10:11:09.923Z</time></trkpt><trkpt lat="30.12577163424614" lon="-6.096147503712049"><ele>936.8000000000001</ele><time>2026-03-23T10:11:10.923Z</time></trkpt><trkpt lat="30.1257113010769" lon="-6.096064432319403"><ele>938.1999999999999</ele><time>2026-03-23T10:11:11.923Z</time></trkpt><trkpt lat="30.125628152179928" lon="-6.096002371677669"><ele>939.5999999999999</ele><time>2026-03-23T10:11:12.923Z</time></trkpt><trkpt lat="30.125561049153653" lon="-6.095909233877206"><ele>941.0</ele><time>2026-03-23T10:11:13.923Z</time></trkpt><trkpt lat="30.125505273346153" lon="-6.09580454748728"><ele>938.1999999999999</ele><time>2026-03-23T10:11:14.923Z</time></trkpt><trkpt lat="30.12544251677306" lon="-6.095726358012251"><ele>935.3999999999999</ele><time>2026-03-23T10:11:15.923Z</time></trkpt><trkpt lat="30.12538802528741" lon="-6.095656170101975"><ele>932.6</ele><time>2026-03-23T10:11:16.923Z</time></trkpt><trkpt lat="30.125336828144682" lon="-6.095561943766579"><ele>929.8</ele><time>2026-03-23T10:11:17.923Z</time></trkpt><trkpt lat="30.12530490849436" lon="-6.095458239514511"><ele>927.0</ele><time>2026-03-23T10:11:18.923Z</time></trkpt><trkpt lat="30.125273936353423" lon="-6.095334330684962"><ele>927.0</ele><time>2026-03-23T10:11:19.923Z</time></trkpt><trkpt lat="30.12524847415182" lon="-6.095196079209213"><ele>927.0</ele><time>2026-03-23T10:11:20.923Z</time></trkpt><trkpt lat="30.125220887690414" lon="-6.0950532202533285"><ele>927.0</ele><time>2026-03-23T10:11:21.923Z</time></trkpt><trkpt lat="30.125196487212392" lon="-6.0949302722338885"><ele>927.0</ele><time>2026-03-23T10:11:22.923Z</time></trkpt><trkpt lat="30.12515315712633" lon="-6.094820848585019"><ele>928.5</ele><time>2026-03-23T10:11:23.923Z</time></trkpt><trkpt lat="30.125089436709022" lon="-6.094733240764606"><ele>930.0</ele><time>2026-03-23T10:11:24.923Z</time></trkpt><trkpt lat="30.124988251756843" lon="-6.094649580556956"><ele>931.5</ele><time>2026-03-23T10:11:25.923Z</time></trkpt><trkpt lat="30.124897692900902" lon="-6.094538517417755"><ele>933.0</ele><time>2026-03-23T10:11:26.923Z</time></trkpt><trkpt lat="30.124803834507443" lon="-6.094408756173217"><ele>929.75</ele><time>2026-03-23T10:11:27.923Z</time></trkpt><trkpt lat="30.124709053412367" lon="-6.09426931286523"><ele>926.5</ele><time>2026-03-23T10:11:28.923Z</time></trkpt><trkpt lat="30.124614186671693" lon="-6.094134479599007"><ele>923.25</ele><time>2026-03-23T10:11:29.923Z</time></trkpt><trkpt lat="30.124533420753462" lon="-6.094000514209827"><ele>920.0</ele><time>2026-03-23T10:11:30.923Z</time></trkpt><trkpt lat="30.12444876571775" lon="-6.093870398609931"><ele>920.0</ele><time>2026-03-23T10:11:31.923Z</time></trkpt><trkpt lat="30.124373357230688" lon="-6.093745493186554"><ele>920.0</ele><time>2026-03-23T10:11:32.923Z</time></trkpt><trkpt lat="30.12428865587725" lon="-6.0936228919051105"><ele>920.0</ele><time>2026-03-23T10:11:33.923Z</time></trkpt><trkpt lat="30.124196533805087" lon="-6.093491056339461"><ele>920.0</ele><time>2026-03-23T10:11:34.923Z</time></trkpt><trkpt lat="30.124118801419428" lon="-6.093369280391317"><ele>917.5</ele><time>2026-03-23T10:11:35.923Z</time></trkpt><trkpt lat="30.12403968031531" lon="-6.093256515018319"><ele>915.0</ele><time>2026-03-23T10:11:36.923Z</time></trkpt><trkpt lat="30.123967796660484" lon="-6.093137699052211"><ele>912.5</ele><time>2026-03-23T10:11:37.923Z</time></trkpt><trkpt lat="30.123896037305155" lon="-6.093021312559839"><ele>910.0</ele><time>2026-03-23T10:11:38.923Z</time></trkpt><trkpt lat="30.123817982865052" lon="-6.09285723857329"><ele>909.6666666666666</ele><time>2026-03-23T10:11:39.923Z</time></trkpt><trkpt lat="30.123740029268" lon="-6.092673082548039"><ele>909.3333333333333</ele><time>2026-03-23T10:11:40.923Z</time></trkpt><trkpt lat="30.123648244087377" lon="-6.092475757430584"><ele>909.0</ele><time>2026-03-23T10:11:41.923Z</time></trkpt><trkpt lat="30.12354691815517" lon="-6.092296033949779"><ele>911.3333333333333</ele><time>2026-03-23T10:11:42.923Z</time></trkpt><trkpt lat="30.12346026254989" lon="-6.092133588374379"><ele>913.6666666666666</ele><time>2026-03-23T10:11:43.923Z</time></trkpt><trkpt lat="30.123379742391897" lon="-6.091971348346378"><ele>916.0</ele><time>2026-03-23T10:11:44.923Z</time></trkpt><trkpt lat="30.1233063871408" lon="-6.091816334752465"><ele>913.3333333333333</ele><time>2026-03-23T10:11:45.923Z</time></trkpt><trkpt lat="30.123229668651838" lon="-6.091667805813242"><ele>910.6666666666667</ele><time>2026-03-23T10:11:46.923Z</time></trkpt><trkpt lat="30.12313996408923" lon="-6.09149612779385"><ele>908.0</ele><time>2026-03-23T10:11:47.923Z</time></trkpt><trkpt lat="30.123044778582436" lon="-6.091318062236914"><ele>907.0</ele><time>2026-03-23T10:11:48.923Z</time></trkpt><trkpt lat="30.122932957718454" lon="-6.091160821636845"><ele>906.0</ele><time>2026-03-23T10:11:49.923Z</time></trkpt><trkpt lat="30.12280033739383" lon="-6.091022165286128"><ele>905.0</ele><time>2026-03-23T10:11:50.923Z</time></trkpt><trkpt lat="30.122633455141656" lon="-6.090897459993375"><ele>905.0</ele><time>2026-03-23T10:11:51.923Z</time></trkpt><trkpt lat="30.122480030528415" lon="-6.090789152482301"><ele>905.0</ele><time>2026-03-23T10:11:52.923Z</time></trkpt><trkpt lat="30.12233437796412" lon="-6.090689052315846"><ele>905.0</ele><time>2026-03-23T10:11:53.923Z</time></trkpt><trkpt lat="30.122202177438524" lon="-6.09059301073721"><ele>904.0</ele><time>2026-03-23T10:11:54.923Z</time></trkpt><trkpt lat="30.12206778095998" lon="-6.090494041875924"><ele>903.0</ele><time>2026-03-23T10:11:55.923Z</time></trkpt><trkpt lat="30.121942535002226" lon="-6.090396581228582"><ele>902.0</ele><time>2026-03-23T10:11:56.923Z</time></trkpt><trkpt lat="30.1218176214959" lon="-6.090318615702454"><ele>902.0</ele><time>2026-03-23T10:11:57.923Z</time></trkpt><trkpt lat="30.121704509820994" lon="-6.090261429381551"><ele>902.0</ele><time>2026-03-23T10:11:58.923Z</time></trkpt><trkpt lat="30.121580701112393" lon="-6.090179854355659"><ele>902.0</ele><time>2026-03-23T10:11:59.923Z</time></trkpt><trkpt lat="30.121469945768084" lon="-6.090066841980217"><ele>902.0</ele><time>2026-03-23T10:12:00.923Z</time></trkpt><trkpt lat="30.12137484635991" lon="-6.089941184063267"><ele>901.5</ele><time>2026-03-23T10:12:01.923Z</time></trkpt><trkpt lat="30.121296579972633" lon="-6.089836000625309"><ele>901.0</ele><time>2026-03-23T10:12:02.923Z</time></trkpt><trkpt lat="30.12120421103351" lon="-6.089759278214285"><ele>900.5</ele><time>2026-03-23T10:12:03.923Z</time></trkpt><trkpt lat="30.1210985287577" lon="-6.089706211327537"><ele>900.0</ele><time>2026-03-23T10:12:04.923Z</time></trkpt><trkpt lat="30.120988427897913" lon="-6.089639155009834"><ele>900.0</ele><time>2026-03-23T10:12:05.923Z</time></trkpt><trkpt lat="30.120900721712587" lon="-6.089558892652098"><ele>900.0</ele><time>2026-03-23T10:12:06.923Z</time></trkpt><trkpt lat="30.120833874326493" lon="-6.089459771746297"><ele>900.0</ele><time>2026-03-23T10:12:07.923Z</time></trkpt><trkpt lat="30.120771574602042" lon="-6.089366563542526"><ele>900.0</ele><time>2026-03-23T10:12:08.923Z</time></trkpt><trkpt lat="30.120691361411676" lon="-6.089303812982791"><ele>900.0</ele><time>2026-03-23T10:12:09.923Z</time></trkpt><trkpt lat="30.12059562078053" lon="-6.089272938910576"><ele>898.25</ele><time>2026-03-23T10:12:10.923Z</time></trkpt><trkpt lat="30.12047744386986" lon="-6.089246753046251"><ele>896.5</ele><time>2026-03-23T10:12:11.923Z</time></trkpt><trkpt lat="30.12037246842384" lon="-6.089205118623304"><ele>894.75</ele><time>2026-03-23T10:12:12.923Z</time></trkpt><trkpt lat="30.12029016366825" lon="-6.0891228123526995"><ele>893.0</ele><time>2026-03-23T10:12:13.923Z</time></trkpt><trkpt lat="30.120208149057692" lon="-6.0890200175319285"><ele>893.0</ele><time>2026-03-23T10:12:14.923Z</time></trkpt><trkpt lat="30.12012144612522" lon="-6.088926873085765"><ele>893.0</ele><time>2026-03-23T10:12:15.923Z</time></trkpt><trkpt lat="30.120028819816103" lon="-6.088837955941145"><ele>893.0</ele><time>2026-03-23T10:12:16.923Z</time></trkpt><trkpt lat="30.119950627888194" lon="-6.088751200878445"><ele>893.0</ele><time>2026-03-23T10:12:17.923Z</time></trkpt><trkpt lat="30.119890971996895" lon="-6.088649738200029"><ele>892.2</ele><time>2026-03-23T10:12:18.923Z</time></trkpt><trkpt lat="30.119840554500637" lon="-6.088528032695872"><ele>891.4</ele><time>2026-03-23T10:12:19.923Z</time></trkpt><trkpt lat="30.119800007535225" lon="-6.088415065326186"><ele>890.6000000000001</ele><time>2026-03-23T10:12:20.923Z</time></trkpt><trkpt lat="30.119761442309102" lon="-6.088301883819216"><ele>889.8000000000001</ele><time>2026-03-23T10:12:21.923Z</time></trkpt><trkpt lat="30.11973143594397" lon="-6.088196774722158"><ele>889.0</ele><time>2026-03-23T10:12:22.923Z</time></trkpt><trkpt lat="30.119703222578664" lon="-6.0881118196387"><ele>888.2</ele><time>2026-03-23T10:12:23.923Z</time></trkpt><trkpt lat="30.119662031085046" lon="-6.088004024628824"><ele>887.4000000000001</ele><time>2026-03-23T10:12:24.923Z</time></trkpt><trkpt lat="30.119587581329462" lon="-6.087925661552101"><ele>886.6</ele><time>2026-03-23T10:12:25.923Z</time></trkpt><trkpt lat="30.119504748295533" lon="-6.087844877442617"><ele>885.8</ele><time>2026-03-23T10:12:26.923Z</time></trkpt><trkpt lat="30.119443528240843" lon="-6.087750893162959"><ele>885.0</ele><time>2026-03-23T10:12:27.923Z</time></trkpt><trkpt lat="30.119388470531845" lon="-6.087661167759541"><ele>885.0</ele><time>2026-03-23T10:12:28.923Z</time></trkpt><trkpt lat="30.119327725696948" lon="-6.087574008720021"><ele>885.0</ele><time>2026-03-23T10:12:29.923Z</time></trkpt><trkpt lat="30.119258131720677" lon="-6.08748614842477"><ele>885.0</ele><time>2026-03-23T10:12:30.923Z</time></trkpt><trkpt lat="30.119198009114452" lon="-6.087377580948129"><ele>885.0</ele><time>2026-03-23T10:12:31.923Z</time></trkpt><trkpt lat="30.119143148109238" lon="-6.087257686477211"><ele>885.0</ele><time>2026-03-23T10:12:32.922Z</time></trkpt><trkpt lat="30.119112892349687" lon="-6.087113773318961"><ele>884.75</ele><time>2026-03-23T10:12:33.922Z</time></trkpt><trkpt lat="30.119079299745938" lon="-6.086959717174171"><ele>884.5</ele><time>2026-03-23T10:12:34.923Z</time></trkpt><trkpt lat="30.11904763888984" lon="-6.08680058104804"><ele>884.25</ele><time>2026-03-23T10:12:35.923Z</time></trkpt><trkpt lat="30.119015277266573" lon="-6.0866349066602154"><ele>884.0</ele><time>2026-03-23T10:12:36.923Z</time></trkpt><trkpt lat="30.118987451232364" lon="-6.086472393560618"><ele>884.0</ele><time>2026-03-23T10:12:37.923Z</time></trkpt><trkpt lat="30.118958570065672" lon="-6.086309817343637"><ele>884.0</ele><time>2026-03-23T10:12:38.923Z</time></trkpt><trkpt lat="30.11893953818576" lon="-6.08614060345724"><ele>884.0</ele><time>2026-03-23T10:12:39.923Z</time></trkpt><trkpt lat="30.1189274418171" lon="-6.085956731601454"><ele>884.0</ele><time>2026-03-23T10:12:40.923Z</time></trkpt><trkpt lat="30.11889792963621" lon="-6.085766303229966"><ele>884.0</ele><time>2026-03-23T10:12:41.923Z</time></trkpt><trkpt lat="30.11887651191728" lon="-6.085561097207077"><ele>884.0</ele><time>2026-03-23T10:12:42.923Z</time></trkpt><trkpt lat="30.118850177975727" lon="-6.08535761483706"><ele>883.25</ele><time>2026-03-23T10:12:43.923Z</time></trkpt><trkpt lat="30.118813711136365" lon="-6.085173054847727"><ele>882.5</ele><time>2026-03-23T10:12:44.923Z</time></trkpt><trkpt lat="30.11876610976387" lon="-6.085017257583041"><ele>881.75</ele><time>2026-03-23T10:12:45.923Z</time></trkpt><trkpt lat="30.118731784551517" lon="-6.084862756549157"><ele>881.0</ele><time>2026-03-23T10:12:46.923Z</time></trkpt><trkpt lat="30.118696906192337" lon="-6.0847047908392415"><ele>880.0</ele><time>2026-03-23T10:12:47.923Z</time></trkpt><trkpt lat="30.118658138630202" lon="-6.084558056907625"><ele>879.0</ele><time>2026-03-23T10:12:48.923Z</time></trkpt><trkpt lat="30.11861760927447" lon="-6.08442935668824"><ele>878.0</ele><time>2026-03-23T10:12:49.923Z</time></trkpt><trkpt lat="30.118591256321135" lon="-6.084302294126673"><ele>877.0</ele><time>2026-03-23T10:12:50.923Z</time></trkpt><trkpt lat="30.118603045409174" lon="-6.084173083802216"><ele>876.5</ele><time>2026-03-23T10:12:51.923Z</time></trkpt><trkpt lat="30.118628034987353" lon="-6.084045724773639"><ele>876.0</ele><time>2026-03-23T10:12:52.923Z</time></trkpt><trkpt lat="30.11865037969133" lon="-6.083918082730643"><ele>875.5</ele><time>2026-03-23T10:12:53.923Z</time></trkpt><trkpt lat="30.11866194675584" lon="-6.083791093098641"><ele>875.0</ele><time>2026-03-23T10:12:54.923Z</time></trkpt><trkpt lat="30.118657870014662" lon="-6.083654367830789"><ele>875.0</ele><time>2026-03-23T10:12:55.923Z</time></trkpt><trkpt lat="30.118668685055248" lon="-6.083524206504842"><ele>875.0</ele><time>2026-03-23T10:12:56.923Z</time></trkpt><trkpt lat="30.11866340739514" lon="-6.083396516117588"><ele>875.0</ele><time>2026-03-23T10:12:57.923Z</time></trkpt><trkpt lat="30.118644553048902" lon="-6.083257563558791"><ele>875.0</ele><time>2026-03-23T10:12:58.923Z</time></trkpt><trkpt lat="30.118633735276298" lon="-6.083129226580143"><ele>874.4</ele><time>2026-03-23T10:12:59.923Z</time></trkpt><trkpt lat="30.118601118131455" lon="-6.08300492152209"><ele>873.8</ele><time>2026-03-23T10:13:00.923Z</time></trkpt><trkpt lat="30.118556715347736" lon="-6.082889742820026"><ele>873.2</ele><time>2026-03-23T10:13:01.923Z</time></trkpt><trkpt lat="30.118534427289593" lon="-6.08276554212378"><ele>872.6</ele><time>2026-03-23T10:13:02.923Z</time></trkpt><trkpt lat="30.118545810909108" lon="-6.082637688623621"><ele>872.0</ele><time>2026-03-23T10:13:03.923Z</time></trkpt><trkpt lat="30.118569843224382" lon="-6.082502108825413"><ele>871.75</ele><time>2026-03-23T10:13:04.923Z</time></trkpt><trkpt lat="30.11859111383234" lon="-6.082358490733692"><ele>871.5</ele><time>2026-03-23T10:13:05.923Z</time></trkpt><trkpt lat="30.1186054615716" lon="-6.08221582794523"><ele>871.25</ele><time>2026-03-23T10:13:06.923Z</time></trkpt><trkpt lat="30.118620009963106" lon="-6.082076406457062"><ele>871.0</ele><time>2026-03-23T10:13:07.923Z</time></trkpt><trkpt lat="30.118639541207074" lon="-6.081941955180827"><ele>871.0</ele><time>2026-03-23T10:13:08.923Z</time></trkpt><trkpt lat="30.118679761503945" lon="-6.081799101062442"><ele>871.0</ele><time>2026-03-23T10:13:09.923Z</time></trkpt><trkpt lat="30.11872056665652" lon="-6.081660475793342"><ele>871.0</ele><time>2026-03-23T10:13:10.923Z</time></trkpt><trkpt lat="30.118755546278233" lon="-6.081526790634619"><ele>871.0</ele><time>2026-03-23T10:13:11.923Z</time></trkpt><trkpt lat="30.11876881082108" lon="-6.081392297733196"><ele>870.25</ele><time>2026-03-23T10:13:12.923Z</time></trkpt><trkpt lat="30.1187559454362" lon="-6.081259318824589"><ele>869.5</ele><time>2026-03-23T10:13:13.923Z</time></trkpt><trkpt lat="30.11870281788397" lon="-6.08111529592034"><ele>868.75</ele><time>2026-03-23T10:13:14.923Z</time></trkpt><trkpt lat="30.11864891577013" lon="-6.080957897616711"><ele>868.0</ele><time>2026-03-23T10:13:15.923Z</time></trkpt><trkpt lat="30.11860965321428" lon="-6.080793665769207"><ele>868.6666666666666</ele><time>2026-03-23T10:13:16.923Z</time></trkpt><trkpt lat="30.118566881613226" lon="-6.0806156014158645"><ele>869.3333333333333</ele><time>2026-03-23T10:13:17.923Z</time></trkpt><trkpt lat="30.118529433492334" lon="-6.080439838247278"><ele>870.0</ele><time>2026-03-23T10:13:18.923Z</time></trkpt><trkpt lat="30.118489933505753" lon="-6.080263912744395"><ele>870.0</ele><time>2026-03-23T10:13:19.923Z</time></trkpt><trkpt lat="30.11844728854877" lon="-6.080089309836244"><ele>870.0</ele><time>2026-03-23T10:13:20.923Z</time></trkpt><trkpt lat="30.11840478146327" lon="-6.079913108172307"><ele>870.0</ele><time>2026-03-23T10:13:21.923Z</time></trkpt><trkpt lat="30.118366603273557" lon="-6.079737452484019"><ele>870.0</ele><time>2026-03-23T10:13:22.923Z</time></trkpt><trkpt lat="30.118326923575122" lon="-6.079563381748561"><ele>870.0</ele><time>2026-03-23T10:13:23.923Z</time></trkpt><trkpt lat="30.11827851886475" lon="-6.079367672558208"><ele>870.0</ele><time>2026-03-23T10:13:24.923Z</time></trkpt><trkpt lat="30.118228966402356" lon="-6.07917284212186"><ele>868.3333333333333</ele><time>2026-03-23T10:13:25.923Z</time></trkpt><trkpt lat="30.118178290270347" lon="-6.078946029459751"><ele>866.6666666666666</ele><time>2026-03-23T10:13:26.923Z</time></trkpt><trkpt lat="30.118119135150778" lon="-6.078700006415115"><ele>865.0</ele><time>2026-03-23T10:13:27.923Z</time></trkpt><trkpt lat="30.118060938646828" lon="-6.0784406852563375"><ele>864.3333333333333</ele><time>2026-03-23T10:13:28.923Z</time></trkpt><trkpt lat="30.117997107821843" lon="-6.078176730554337"><ele>863.6666666666667</ele><time>2026-03-23T10:13:29.923Z</time></trkpt><trkpt lat="30.117948717047128" lon="-6.07794546313089"><ele>863.0</ele><time>2026-03-23T10:13:30.923Z</time></trkpt><trkpt lat="30.11789642466873" lon="-6.077730774796457"><ele>863.0</ele><time>2026-03-23T10:13:31.923Z</time></trkpt><trkpt lat="30.117849475937245" lon="-6.077519869101382"><ele>863.0</ele><time>2026-03-23T10:13:32.923Z</time></trkpt><trkpt lat="30.117801750469432" lon="-6.077305975863698"><ele>863.0</ele><time>2026-03-23T10:13:33.923Z</time></trkpt><trkpt lat="30.117752378506403" lon="-6.077103891331908"><ele>862.3333333333334</ele><time>2026-03-23T10:13:34.923Z</time></trkpt><trkpt lat="30.11770693034357" lon="-6.07692041669787"><ele>861.6666666666667</ele><time>2026-03-23T10:13:35.923Z</time></trkpt><trkpt lat="30.117665853720023" lon="-6.0767468191155265"><ele>861.0</ele><time>2026-03-23T10:13:36.923Z</time></trkpt><trkpt lat="30.117626769024586" lon="-6.076575991644178"><ele>860.0</ele><time>2026-03-23T10:13:37.923Z</time></trkpt><trkpt lat="30.117586295050756" lon="-6.076404512782352"><ele>859.0</ele><time>2026-03-23T10:13:38.923Z</time></trkpt><trkpt lat="30.117542927505248" lon="-6.076225552332254"><ele>858.0</ele><time>2026-03-23T10:13:39.923Z</time></trkpt><trkpt lat="30.117497874142483" lon="-6.076037069211155"><ele>858.0</ele><time>2026-03-23T10:13:40.923Z</time></trkpt><trkpt lat="30.11745726833668" lon="-6.0758513124722"><ele>858.0</ele><time>2026-03-23T10:13:41.923Z</time></trkpt><trkpt lat="30.117414727704485" lon="-6.075664047655642"><ele>858.0</ele><time>2026-03-23T10:13:42.923Z</time></trkpt><trkpt lat="30.117375162963995" lon="-6.075490237966031"><ele>856.5</ele><time>2026-03-23T10:13:43.923Z</time></trkpt><trkpt lat="30.117335101065724" lon="-6.075329465915306"><ele>855.0</ele><time>2026-03-23T10:13:44.923Z</time></trkpt><trkpt lat="30.117302282699878" lon="-6.075175575177803"><ele>853.5</ele><time>2026-03-23T10:13:45.923Z</time></trkpt><trkpt lat="30.11727250505365" lon="-6.075028872943879"><ele>852.0</ele><time>2026-03-23T10:13:46.923Z</time></trkpt><trkpt lat="30.117241796092298" lon="-6.074884325872989"><ele>851.8</ele><time>2026-03-23T10:13:47.923Z</time></trkpt><trkpt lat="30.11723528719075" lon="-6.074744420089877"><ele>851.6</ele><time>2026-03-23T10:13:48.923Z</time></trkpt><trkpt lat="30.117223281373942" lon="-6.074618414731601"><ele>851.4</ele><time>2026-03-23T10:13:49.923Z</time></trkpt><trkpt lat="30.11719375275253" lon="-6.074503291272998"><ele>851.1999999999999</ele><time>2026-03-23T10:13:50.923Z</time></trkpt><trkpt lat="30.117134039910237" lon="-6.074402990418277"><ele>851.0</ele><time>2026-03-23T10:13:51.923Z</time></trkpt><trkpt lat="30.117072736053682" lon="-6.074299105746235"><ele>851.0</ele><time>2026-03-23T10:13:52.923Z</time></trkpt><trkpt lat="30.11701463502681" lon="-6.07418524048854"><ele>851.0</ele><time>2026-03-23T10:13:53.923Z</time></trkpt><trkpt lat="30.11695199079439" lon="-6.07407327606856"><ele>851.0</ele><time>2026-03-23T10:13:54.923Z</time></trkpt><trkpt lat="30.116899013823804" lon="-6.073962290318909"><ele>851.0</ele><time>2026-03-23T10:13:55.923Z</time></trkpt><trkpt lat="30.1168569238975" lon="-6.073854542981149"><ele>851.0</ele><time>2026-03-23T10:13:56.922Z</time></trkpt><trkpt lat="30.11682505856178" lon="-6.073744492963951"><ele>851.25</ele><time>2026-03-23T10:13:57.922Z</time></trkpt><trkpt lat="30.116805265806306" lon="-6.0736292400628225"><ele>851.5</ele><time>2026-03-23T10:13:58.922Z</time></trkpt><trkpt lat="30.116806090254162" lon="-6.073515684841009"><ele>851.75</ele><time>2026-03-23T10:13:59.922Z</time></trkpt><trkpt lat="30.116818695677576" lon="-6.073371289011671"><ele>852.0</ele><time>2026-03-23T10:14:00.922Z</time></trkpt><trkpt lat="30.1168418003318" lon="-6.073220917400488"><ele>853.0</ele><time>2026-03-23T10:14:01.922Z</time></trkpt><trkpt lat="30.11686002353594" lon="-6.07306347618408"><ele>854.0</ele><time>2026-03-23T10:14:02.922Z</time></trkpt><trkpt lat="30.11687505402552" lon="-6.07291695872634"><ele>855.0</ele><time>2026-03-23T10:14:03.922Z</time></trkpt><trkpt lat="30.116880131192495" lon="-6.072825041609359"><ele>856.0</ele><time>2026-03-23T10:14:04.922Z</time></trkpt><trkpt lat="30.116887515017147" lon="-6.072735243086409"><ele>857.0</ele><time>2026-03-23T10:14:06.922Z</time></trkpt><trkpt lat="30.116906883048824" lon="-6.072654539874777"><ele>857.0</ele><time>2026-03-23T10:14:12.922Z</time></trkpt><trkpt lat="30.116839016987463" lon="-6.072630127971493"><ele>857.0</ele><time>2026-03-23T10:14:45.922Z</time></trkpt><trkpt lat="30.11679198427833" lon="-6.072695086070984"><ele>857.0</ele><time>2026-03-23T10:14:50.922Z</time></trkpt><trkpt lat="30.116737894915733" lon="-6.072759499204575"><ele>857.0</ele><time>2026-03-23T10:15:36.922Z</time></trkpt><trkpt lat="30.11665512528771" lon="-6.0728105084926725"><ele>857.0</ele><time>2026-03-23T10:15:38.921Z</time></trkpt><trkpt lat="30.116601177810633" lon="-6.072849516878382"><ele>857.0</ele><time>2026-03-23T10:15:39.921Z</time></trkpt><trkpt lat="30.116546192466473" lon="-6.072886563617229"><ele>857.0</ele><time>2026-03-23T10:15:40.921Z</time></trkpt><trkpt lat="30.116482032678302" lon="-6.072935173350848"><ele>858.0000000000001</ele><time>2026-03-23T10:15:41.921Z</time></trkpt><trkpt lat="30.116411610078572" lon="-6.072979902182281"><ele>859.0</ele><time>2026-03-23T10:15:42.921Z</time></trkpt><trkpt lat="30.11633804470124" lon="-6.073026884519501"><ele>860.0</ele><time>2026-03-23T10:15:43.921Z</time></trkpt><trkpt lat="30.116261558929587" lon="-6.073061309491838"><ele>861.0</ele><time>2026-03-23T10:15:44.921Z</time></trkpt><trkpt lat="30.116176857861348" lon="-6.073095921340482"><ele>862.0000000000001</ele><time>2026-03-23T10:15:45.921Z</time></trkpt><trkpt lat="30.11609376599356" lon="-6.073131827199027"><ele>863.0</ele><time>2026-03-23T10:15:46.921Z</time></trkpt><trkpt lat="30.116012328692488" lon="-6.07316480540548"><ele>863.0</ele><time>2026-03-23T10:15:47.921Z</time></trkpt><trkpt lat="30.11592410062782" lon="-6.073198830558622"><ele>863.0</ele><time>2026-03-23T10:15:48.921Z</time></trkpt><trkpt lat="30.115834169963072" lon="-6.073236953498803"><ele>863.0</ele><time>2026-03-23T10:15:49.921Z</time></trkpt><trkpt lat="30.115743777784772" lon="-6.073277692034947"><ele>863.0</ele><time>2026-03-23T10:15:50.921Z</time></trkpt><trkpt lat="30.115656867217133" lon="-6.073346878458179"><ele>863.0</ele><time>2026-03-23T10:15:51.921Z</time></trkpt><trkpt lat="30.11557325612435" lon="-6.073422339468408"><ele>862.8</ele><time>2026-03-23T10:15:52.921Z</time></trkpt><trkpt lat="30.115488624384938" lon="-6.073502372762969"><ele>862.5999999999999</ele><time>2026-03-23T10:15:53.921Z</time></trkpt><trkpt lat="30.11540943398238" lon="-6.073577484199656"><ele>862.4000000000001</ele><time>2026-03-23T10:15:54.921Z</time></trkpt><trkpt lat="30.115327532120112" lon="-6.073642195762091"><ele>862.2</ele><time>2026-03-23T10:15:55.921Z</time></trkpt><trkpt lat="30.115250449570837" lon="-6.073714336582908"><ele>862.0</ele><time>2026-03-23T10:15:56.921Z</time></trkpt><trkpt lat="30.115168933161282" lon="-6.073786392097438"><ele>862.0</ele><time>2026-03-23T10:15:57.921Z</time></trkpt><trkpt lat="30.115076494268692" lon="-6.073840775477828"><ele>862.0</ele><time>2026-03-23T10:15:58.921Z</time></trkpt><trkpt lat="30.114974580346896" lon="-6.0739003286247115"><ele>862.0</ele><time>2026-03-23T10:15:59.921Z</time></trkpt><trkpt lat="30.114880187055206" lon="-6.073959576317318"><ele>862.0</ele><time>2026-03-23T10:16:00.921Z</time></trkpt><trkpt lat="30.114794208886302" lon="-6.074043181720717"><ele>862.0</ele><time>2026-03-23T10:16:01.921Z</time></trkpt><trkpt lat="30.11470494823176" lon="-6.0741265807487625"><ele>861.25</ele><time>2026-03-23T10:16:02.921Z</time></trkpt><trkpt lat="30.114594492770106" lon="-6.0742258342280415"><ele>860.5</ele><time>2026-03-23T10:16:03.921Z</time></trkpt><trkpt lat="30.11448278061039" lon="-6.074309066791982"><ele>859.75</ele><time>2026-03-23T10:16:04.921Z</time></trkpt><trkpt lat="30.11437896192701" lon="-6.0743838425200245"><ele>859.0</ele><time>2026-03-23T10:16:05.921Z</time></trkpt><trkpt lat="30.114260602514392" lon="-6.074465628823526"><ele>859.0</ele><time>2026-03-23T10:16:06.921Z</time></trkpt><trkpt lat="30.114172016495775" lon="-6.074562810779597"><ele>859.0</ele><time>2026-03-23T10:16:07.921Z</time></trkpt><trkpt lat="30.114106953336247" lon="-6.074684270589317"><ele>859.0</ele><time>2026-03-23T10:16:08.921Z</time></trkpt><trkpt lat="30.114039092336288" lon="-6.074806639342568"><ele>859.0</ele><time>2026-03-23T10:16:09.921Z</time></trkpt><trkpt lat="30.113960220557882" lon="-6.074916896409892"><ele>859.0</ele><time>2026-03-23T10:16:10.921Z</time></trkpt><trkpt lat="30.113867348297354" lon="-6.0750033835800865"><ele>859.0</ele><time>2026-03-23T10:16:11.921Z</time></trkpt><trkpt lat="30.113753977808507" lon="-6.075074256015225"><ele>859.0</ele><time>2026-03-23T10:16:12.921Z</time></trkpt><trkpt lat="30.113634903427826" lon="-6.075149951913743"><ele>859.0</ele><time>2026-03-23T10:16:13.921Z</time></trkpt><trkpt lat="30.113529010168126" lon="-6.075235420460822"><ele>859.0</ele><time>2026-03-23T10:16:14.921Z</time></trkpt><trkpt lat="30.11342648604042" lon="-6.075304752658177"><ele>859.0</ele><time>2026-03-23T10:16:15.921Z</time></trkpt><trkpt lat="30.11332823655356" lon="-6.075383948117119"><ele>859.0</ele><time>2026-03-23T10:16:16.921Z</time></trkpt><trkpt lat="30.113234921044654" lon="-6.075461214080118"><ele>859.0</ele><time>2026-03-23T10:16:17.921Z</time></trkpt><trkpt lat="30.113152870291067" lon="-6.075556670168263"><ele>859.8000000000001</ele><time>2026-03-23T10:16:18.921Z</time></trkpt><trkpt lat="30.113069994185143" lon="-6.07565022561532"><ele>860.6000000000001</ele><time>2026-03-23T10:16:19.921Z</time></trkpt><trkpt lat="30.112985199239876" lon="-6.075735482582453"><ele>861.4</ele><time>2026-03-23T10:16:20.921Z</time></trkpt><trkpt lat="30.112897619301737" lon="-6.075817095019189"><ele>862.2</ele><time>2026-03-23T10:16:21.921Z</time></trkpt><trkpt lat="30.112805435109525" lon="-6.0758816338828545"><ele>863.0</ele><time>2026-03-23T10:16:22.921Z</time></trkpt><trkpt lat="30.11272233078078" lon="-6.075940255069167"><ele>863.0</ele><time>2026-03-23T10:16:23.921Z</time></trkpt><trkpt lat="30.112646372144873" lon="-6.076005330316869"><ele>863.0</ele><time>2026-03-23T10:16:24.921Z</time></trkpt><trkpt lat="30.11256380918801" lon="-6.076080676574619"><ele>863.0</ele><time>2026-03-23T10:16:25.921Z</time></trkpt><trkpt lat="30.11247771981129" lon="-6.076161110564741"><ele>863.0</ele><time>2026-03-23T10:16:26.921Z</time></trkpt><trkpt lat="30.112391654224492" lon="-6.076221195753982"><ele>863.0</ele><time>2026-03-23T10:16:27.921Z</time></trkpt><trkpt lat="30.11230345582907" lon="-6.076267184428631"><ele>862.8</ele><time>2026-03-23T10:16:28.921Z</time></trkpt><trkpt lat="30.112214597525202" lon="-6.0763010887934366"><ele>862.5999999999999</ele><time>2026-03-23T10:16:29.921Z</time></trkpt><trkpt lat="30.11211983457952" lon="-6.076319742218066"><ele>862.4000000000001</ele><time>2026-03-23T10:16:30.921Z</time></trkpt><trkpt lat="30.112025058612556" lon="-6.076315536943264"><ele>862.2</ele><time>2026-03-23T10:16:31.921Z</time></trkpt><trkpt lat="30.111937687902547" lon="-6.076303518063411"><ele>862.0</ele><time>2026-03-23T10:16:32.921Z</time></trkpt><trkpt lat="30.111857316086418" lon="-6.076284426649071"><ele>862.0</ele><time>2026-03-23T10:16:33.921Z</time></trkpt><trkpt lat="30.111762081964063" lon="-6.0762617208942915"><ele>862.0</ele><time>2026-03-23T10:16:34.921Z</time></trkpt><trkpt lat="30.11167078112115" lon="-6.076246686086556"><ele>862.0</ele><time>2026-03-23T10:16:35.921Z</time></trkpt><trkpt lat="30.11158905741869" lon="-6.076248255433896"><ele>862.0</ele><time>2026-03-23T10:16:36.921Z</time></trkpt><trkpt lat="30.11150282666477" lon="-6.076279267601742"><ele>862.0</ele><time>2026-03-23T10:16:37.921Z</time></trkpt><trkpt lat="30.111417921447348" lon="-6.076332851675002"><ele>861.8</ele><time>2026-03-23T10:16:38.921Z</time></trkpt><trkpt lat="30.11132747281192" lon="-6.076417226853944"><ele>861.6</ele><time>2026-03-23T10:16:39.921Z</time></trkpt><trkpt lat="30.11125039130485" lon="-6.076494198010517"><ele>861.3999999999999</ele><time>2026-03-23T10:16:40.92Z</time></trkpt><trkpt lat="30.111164738548396" lon="-6.076565880269429"><ele>861.1999999999999</ele><time>2026-03-23T10:16:41.921Z</time></trkpt><trkpt lat="30.111080254725906" lon="-6.076636822732418"><ele>861.0</ele><time>2026-03-23T10:16:42.921Z</time></trkpt><trkpt lat="30.11098730300314" lon="-6.0766868158532725"><ele>861.0</ele><time>2026-03-23T10:16:43.921Z</time></trkpt><trkpt lat="30.11088346495706" lon="-6.0767370239752925"><ele>860.9999999999999</ele><time>2026-03-23T10:16:44.921Z</time></trkpt><trkpt lat="30.11078554677571" lon="-6.076787075815224"><ele>860.9999999999999</ele><time>2026-03-23T10:16:45.921Z</time></trkpt><trkpt lat="30.11068532898927" lon="-6.0768306723897405"><ele>861.0</ele><time>2026-03-23T10:16:46.921Z</time></trkpt><trkpt lat="30.110573379623816" lon="-6.076873948287005"><ele>861.0</ele><time>2026-03-23T10:16:47.921Z</time></trkpt><trkpt lat="30.110454809740805" lon="-6.076910391088228"><ele>862.1999999999999</ele><time>2026-03-23T10:16:48.921Z</time></trkpt><trkpt lat="30.110344234044966" lon="-6.076944937007664"><ele>863.3999999999999</ele><time>2026-03-23T10:16:49.921Z</time></trkpt><trkpt lat="30.110249020375324" lon="-6.076976960417422"><ele>864.6</ele><time>2026-03-23T10:16:50.92Z</time></trkpt><trkpt lat="30.110163119739912" lon="-6.07700330989646"><ele>865.8</ele><time>2026-03-23T10:16:51.92Z</time></trkpt><trkpt lat="30.11008056220495" lon="-6.077025595323058"><ele>867.0</ele><time>2026-03-23T10:16:52.92Z</time></trkpt><trkpt lat="30.10999668893532" lon="-6.0770517252133045"><ele>868.0</ele><time>2026-03-23T10:16:53.921Z</time></trkpt><trkpt lat="30.109904853261963" lon="-6.077063481523099"><ele>869.0</ele><time>2026-03-23T10:16:54.921Z</time></trkpt><trkpt lat="30.10980038347047" lon="-6.07706128766232"><ele>870.0</ele><time>2026-03-23T10:16:55.921Z</time></trkpt><trkpt lat="30.109696103993997" lon="-6.077061883875484"><ele>871.0</ele><time>2026-03-23T10:16:56.921Z</time></trkpt><trkpt lat="30.109587882635143" lon="-6.077071113298204"><ele>872.0</ele><time>2026-03-23T10:16:57.921Z</time></trkpt><trkpt lat="30.109477587437524" lon="-6.077086218811114"><ele>872.0</ele><time>2026-03-23T10:16:58.921Z</time></trkpt><trkpt lat="30.109370242323877" lon="-6.077101377512118"><ele>872.0</ele><time>2026-03-23T10:16:59.921Z</time></trkpt><trkpt lat="30.109272585132306" lon="-6.077131537029456"><ele>872.0</ele><time>2026-03-23T10:17:00.92Z</time></trkpt><trkpt lat="30.109163420270608" lon="-6.077164587105942"><ele>872.0</ele><time>2026-03-23T10:17:01.92Z</time></trkpt><trkpt lat="30.1090634239099" lon="-6.077184872672765"><ele>872.0</ele><time>2026-03-23T10:17:02.92Z</time></trkpt><trkpt lat="30.108975794436628" lon="-6.077191837921821"><ele>872.0</ele><time>2026-03-23T10:17:03.92Z</time></trkpt><trkpt lat="30.10888302482329" lon="-6.077184896733641"><ele>872.0</ele><time>2026-03-23T10:17:04.92Z</time></trkpt><trkpt lat="30.108794775175326" lon="-6.077192091958605"><ele>872.0</ele><time>2026-03-23T10:17:05.92Z</time></trkpt><trkpt lat="30.108691089939928" lon="-6.077209362685291"><ele>872.0</ele><time>2026-03-23T10:17:06.92Z</time></trkpt><trkpt lat="30.10858769759554" lon="-6.077212407572819"><ele>872.0</ele><time>2026-03-23T10:17:07.92Z</time></trkpt><trkpt lat="30.108478746584865" lon="-6.077205758739644"><ele>872.0</ele><time>2026-03-23T10:17:08.92Z</time></trkpt><trkpt lat="30.10838276689205" lon="-6.077205785321477"><ele>872.0</ele><time>2026-03-23T10:17:09.92Z</time></trkpt><trkpt lat="30.108281201910643" lon="-6.077209864218887"><ele>872.0</ele><time>2026-03-23T10:17:10.92Z</time></trkpt><trkpt lat="30.108168677547944" lon="-6.077199154584655"><ele>872.0</ele><time>2026-03-23T10:17:11.92Z</time></trkpt><trkpt lat="30.108067987035085" lon="-6.077181475088144"><ele>872.0</ele><time>2026-03-23T10:17:12.92Z</time></trkpt><trkpt lat="30.107978479607066" lon="-6.077154851599649"><ele>872.5000000000001</ele><time>2026-03-23T10:17:13.92Z</time></trkpt><trkpt lat="30.10789374427299" lon="-6.077103131388599"><ele>873.0</ele><time>2026-03-23T10:17:14.92Z</time></trkpt><trkpt lat="30.107809370817275" lon="-6.077056248936107"><ele>873.5</ele><time>2026-03-23T10:17:15.92Z</time></trkpt><trkpt lat="30.107730632289645" lon="-6.077014855432669"><ele>874.0</ele><time>2026-03-23T10:17:16.92Z</time></trkpt><trkpt lat="30.10766015790143" lon="-6.076998281454507"><ele>874.5000000000001</ele><time>2026-03-23T10:17:17.92Z</time></trkpt><trkpt lat="30.107589686834213" lon="-6.077005119753433"><ele>875.0</ele><time>2026-03-23T10:17:18.92Z</time></trkpt><trkpt lat="30.10750665578731" lon="-6.0770173195337565"><ele>875.0000000000001</ele><time>2026-03-23T10:17:19.92Z</time></trkpt><trkpt lat="30.107425090479026" lon="-6.0770131041173325"><ele>875.0</ele><time>2026-03-23T10:17:20.92Z</time></trkpt><trkpt lat="30.107346035545962" lon="-6.076999484563134"><ele>875.0</ele><time>2026-03-23T10:17:21.92Z</time></trkpt><trkpt lat="30.107263943298324" lon="-6.077013008841524"><ele>875.0</ele><time>2026-03-23T10:17:22.92Z</time></trkpt><trkpt lat="30.107191261572677" lon="-6.077036963286619"><ele>875.0000000000001</ele><time>2026-03-23T10:17:23.92Z</time></trkpt><trkpt lat="30.10711630284197" lon="-6.077058906165237"><ele>875.0</ele><time>2026-03-23T10:17:24.92Z</time></trkpt><trkpt lat="30.10703214893584" lon="-6.077067206484136"><ele>875.3333333333334</ele><time>2026-03-23T10:17:25.92Z</time></trkpt><trkpt lat="30.106958444003258" lon="-6.077057533135136"><ele>875.6666666666667</ele><time>2026-03-23T10:17:26.92Z</time></trkpt><trkpt lat="30.106886226443603" lon="-6.077055361246898"><ele>876.0</ele><time>2026-03-23T10:17:27.92Z</time></trkpt><trkpt lat="30.106809098240795" lon="-6.077074422051592"><ele>876.3333333333333</ele><time>2026-03-23T10:17:28.92Z</time></trkpt><trkpt lat="30.10673747384786" lon="-6.077117360591012"><ele>876.6666666666666</ele><time>2026-03-23T10:17:29.92Z</time></trkpt><trkpt lat="30.106657215666644" lon="-6.077172399645927"><ele>877.0</ele><time>2026-03-23T10:17:30.92Z</time></trkpt><trkpt lat="30.106581377845128" lon="-6.077237607460614"><ele>877.4000000000001</ele><time>2026-03-23T10:17:31.92Z</time></trkpt><trkpt lat="30.10649847874039" lon="-6.077296752665453"><ele>877.8000000000001</ele><time>2026-03-23T10:17:32.92Z</time></trkpt><trkpt lat="30.106408215438318" lon="-6.077351613226631"><ele>878.2</ele><time>2026-03-23T10:17:33.92Z</time></trkpt><trkpt lat="30.106318094751146" lon="-6.077397757982225"><ele>878.6</ele><time>2026-03-23T10:17:34.92Z</time></trkpt><trkpt lat="30.106219826587566" lon="-6.077435933035875"><ele>879.0</ele><time>2026-03-23T10:17:35.92Z</time></trkpt><trkpt lat="30.106115765314232" lon="-6.077477386679794"><ele>878.0</ele><time>2026-03-23T10:17:36.92Z</time></trkpt><trkpt lat="30.106004948525296" lon="-6.077518893005568"><ele>877.0000000000001</ele><time>2026-03-23T10:17:37.92Z</time></trkpt><trkpt lat="30.105893873302097" lon="-6.077555569176382"><ele>876.0000000000001</ele><time>2026-03-23T10:17:38.92Z</time></trkpt><trkpt lat="30.105787613046882" lon="-6.077600344392731"><ele>875.0</ele><time>2026-03-23T10:17:39.92Z</time></trkpt><trkpt lat="30.105694082019806" lon="-6.077632416529975"><ele>874.0</ele><time>2026-03-23T10:17:40.92Z</time></trkpt><trkpt lat="30.10561222148022" lon="-6.077669083879334"><ele>874.0</ele><time>2026-03-23T10:17:41.92Z</time></trkpt><trkpt lat="30.105519274745518" lon="-6.077710247075384"><ele>874.0000000000001</ele><time>2026-03-23T10:17:43.92Z</time></trkpt><trkpt lat="30.105426078329113" lon="-6.077747834927413"><ele>874.0000000000001</ele><time>2026-03-23T10:17:45.92Z</time></trkpt><trkpt lat="30.10532729411145" lon="-6.077798771472071"><ele>874.0</ele><time>2026-03-23T10:17:47.92Z</time></trkpt><trkpt lat="30.105209567969535" lon="-6.077866877280066"><ele>874.0</ele><time>2026-03-23T10:17:49.92Z</time></trkpt><trkpt lat="30.105137598979574" lon="-6.077909472895899"><ele>873.9999999999999</ele><time>2026-03-23T10:17:50.92Z</time></trkpt><trkpt lat="30.105073968631174" lon="-6.077934247244545"><ele>874.0</ele><time>2026-03-23T10:17:51.92Z</time></trkpt><trkpt lat="30.104989180640874" lon="-6.077950168722985"><ele>874.0</ele><time>2026-03-23T10:17:52.92Z</time></trkpt><trkpt lat="30.104900635099728" lon="-6.077965866417219"><ele>874.0</ele><time>2026-03-23T10:17:53.92Z</time></trkpt><trkpt lat="30.10481446427163" lon="-6.077980269807395"><ele>873.9999999999999</ele><time>2026-03-23T10:17:54.92Z</time></trkpt><trkpt lat="30.10473531938466" lon="-6.078005539389879"><ele>874.0</ele><time>2026-03-23T10:17:55.92Z</time></trkpt><trkpt lat="30.104664938359136" lon="-6.078023534886495"><ele>874.6</ele><time>2026-03-23T10:17:56.92Z</time></trkpt><trkpt lat="30.104588678693766" lon="-6.078041633115694"><ele>875.2</ele><time>2026-03-23T10:17:57.92Z</time></trkpt><trkpt lat="30.10450602785382" lon="-6.078055268871403"><ele>875.8000000000001</ele><time>2026-03-23T10:17:58.92Z</time></trkpt><trkpt lat="30.10442326729531" lon="-6.078053278680103"><ele>876.4000000000001</ele><time>2026-03-23T10:17:59.92Z</time></trkpt><trkpt lat="30.10432547560203" lon="-6.078043275660594"><ele>877.0</ele><time>2026-03-23T10:18:00.92Z</time></trkpt><trkpt lat="30.104213089882574" lon="-6.078049660499657"><ele>877.0</ele><time>2026-03-23T10:18:01.92Z</time></trkpt><trkpt lat="30.104110509879693" lon="-6.078072490685901"><ele>877.0</ele><time>2026-03-23T10:18:02.92Z</time></trkpt><trkpt lat="30.103999551581495" lon="-6.078093363784632"><ele>877.0</ele><time>2026-03-23T10:18:03.92Z</time></trkpt><trkpt lat="30.103892132748037" lon="-6.078109963670359"><ele>877.0</ele><time>2026-03-23T10:18:04.92Z</time></trkpt><trkpt lat="30.103772339250558" lon="-6.078127998056425"><ele>877.0</ele><time>2026-03-23T10:18:05.92Z</time></trkpt><trkpt lat="30.103664801396018" lon="-6.078153340243871"><ele>876.6</ele><time>2026-03-23T10:18:06.92Z</time></trkpt><trkpt lat="30.103550466479337" lon="-6.0781723552442415"><ele>876.2</ele><time>2026-03-23T10:18:07.92Z</time></trkpt><trkpt lat="30.103449828163193" lon="-6.078195620492913"><ele>875.8</ele><time>2026-03-23T10:18:08.92Z</time></trkpt><trkpt lat="30.103353319578858" lon="-6.078222602629881"><ele>875.4</ele><time>2026-03-23T10:18:09.92Z</time></trkpt><trkpt lat="30.103258442749006" lon="-6.078248184060037"><ele>875.0</ele><time>2026-03-23T10:18:10.92Z</time></trkpt><trkpt lat="30.103156498526943" lon="-6.078274859771828"><ele>875.0</ele><time>2026-03-23T10:18:11.92Z</time></trkpt><trkpt lat="30.10306455922424" lon="-6.078309802979024"><ele>875.0</ele><time>2026-03-23T10:18:12.92Z</time></trkpt><trkpt lat="30.10297530152818" lon="-6.078343941661807"><ele>875.0</ele><time>2026-03-23T10:18:13.92Z</time></trkpt><trkpt lat="30.102885429691575" lon="-6.078365265386824"><ele>875.0</ele><time>2026-03-23T10:18:14.92Z</time></trkpt><trkpt lat="30.102791286624555" lon="-6.078386841744786"><ele>875.0</ele><time>2026-03-23T10:18:15.92Z</time></trkpt><trkpt lat="30.10270928626771" lon="-6.078408709249533"><ele>875.0</ele><time>2026-03-23T10:18:16.92Z</time></trkpt><trkpt lat="30.102616490274766" lon="-6.078413918115576"><ele>875.0</ele><time>2026-03-23T10:18:17.92Z</time></trkpt><trkpt lat="30.102516966803694" lon="-6.078445422733186"><ele>875.0</ele><time>2026-03-23T10:18:18.92Z</time></trkpt><trkpt lat="30.1023945089348" lon="-6.07846471548877"><ele>875.0</ele><time>2026-03-23T10:18:19.92Z</time></trkpt><trkpt lat="30.102254993267753" lon="-6.078440981595123"><ele>874.3333333333334</ele><time>2026-03-23T10:18:20.92Z</time></trkpt><trkpt lat="30.102089177533767" lon="-6.078410251383966"><ele>873.6666666666667</ele><time>2026-03-23T10:18:21.92Z</time></trkpt><trkpt lat="30.101923366851043" lon="-6.078407390625708"><ele>873.0</ele><time>2026-03-23T10:18:22.92Z</time></trkpt><trkpt lat="30.101776090479493" lon="-6.07841040729666"><ele>873.0</ele><time>2026-03-23T10:18:23.92Z</time></trkpt><trkpt lat="30.101631788921516" lon="-6.07840452180503"><ele>873.0</ele><time>2026-03-23T10:18:24.92Z</time></trkpt><trkpt lat="30.101477403444626" lon="-6.0784092192605526"><ele>873.0</ele><time>2026-03-23T10:18:25.92Z</time></trkpt><trkpt lat="30.101333530280098" lon="-6.078436692512222"><ele>873.0</ele><time>2026-03-23T10:18:26.92Z</time></trkpt><trkpt lat="30.10121474356375" lon="-6.078452015831472"><ele>872.75</ele><time>2026-03-23T10:18:27.92Z</time></trkpt><trkpt lat="30.1010968828109" lon="-6.07843865729084"><ele>872.5</ele><time>2026-03-23T10:18:28.92Z</time></trkpt><trkpt lat="30.10098174914266" lon="-6.078423864609843"><ele>872.25</ele><time>2026-03-23T10:18:29.92Z</time></trkpt><trkpt lat="30.10086471636594" lon="-6.078391558125086"><ele>872.0</ele><time>2026-03-23T10:18:30.92Z</time></trkpt><trkpt lat="30.10076013169934" lon="-6.078363565118757"><ele>872.0</ele><time>2026-03-23T10:18:31.92Z</time></trkpt><trkpt lat="30.100647023948316" lon="-6.078356625084188"><ele>872.0</ele><time>2026-03-23T10:18:32.92Z</time></trkpt><trkpt lat="30.10052829227968" lon="-6.078364685391721"><ele>872.0</ele><time>2026-03-23T10:18:33.92Z</time></trkpt><trkpt lat="30.100406126267494" lon="-6.078385518256306"><ele>872.0</ele><time>2026-03-23T10:18:34.92Z</time></trkpt><trkpt lat="30.100266397590758" lon="-6.078406490260514"><ele>872.0</ele><time>2026-03-23T10:18:35.92Z</time></trkpt><trkpt lat="30.100105447083102" lon="-6.078418880622951"><ele>872.0</ele><time>2026-03-23T10:18:36.92Z</time></trkpt><trkpt lat="30.099954650595738" lon="-6.0784216451225435"><ele>872.0</ele><time>2026-03-23T10:18:37.92Z</time></trkpt><trkpt lat="30.09981159677325" lon="-6.0784146657118105"><ele>871.5</ele><time>2026-03-23T10:18:38.92Z</time></trkpt><trkpt lat="30.099677755879778" lon="-6.078403237292794"><ele>871.0</ele><time>2026-03-23T10:18:39.92Z</time></trkpt><trkpt lat="30.09954704960055" lon="-6.07838140343092"><ele>870.5</ele><time>2026-03-23T10:18:40.92Z</time></trkpt><trkpt lat="30.099430180811876" lon="-6.078339762847217"><ele>870.0</ele><time>2026-03-23T10:18:41.92Z</time></trkpt><trkpt lat="30.099318554025565" lon="-6.078306314001445"><ele>870.0</ele><time>2026-03-23T10:18:42.92Z</time></trkpt><trkpt lat="30.099216442488718" lon="-6.078274793035161"><ele>870.0</ele><time>2026-03-23T10:18:43.92Z</time></trkpt><trkpt lat="30.099112330119787" lon="-6.078242162975591"><ele>870.0</ele><time>2026-03-23T10:18:44.92Z</time></trkpt><trkpt lat="30.098978541028764" lon="-6.078217368287541"><ele>870.0</ele><time>2026-03-23T10:18:45.92Z</time></trkpt><trkpt lat="30.09885139503818" lon="-6.078194647470605"><ele>870.75</ele><time>2026-03-23T10:18:46.92Z</time></trkpt><trkpt lat="30.098732133657965" lon="-6.07815444182684"><ele>871.5</ele><time>2026-03-23T10:18:47.919Z</time></trkpt><trkpt lat="30.09863427971159" lon="-6.0781021827592845"><ele>872.25</ele><time>2026-03-23T10:18:48.919Z</time></trkpt><trkpt lat="30.098541359856263" lon="-6.078037184153656"><ele>873.0</ele><time>2026-03-23T10:18:49.92Z</time></trkpt><trkpt lat="30.098458112661067" lon="-6.077951804977128"><ele>873.0</ele><time>2026-03-23T10:18:50.919Z</time></trkpt><trkpt lat="30.09837223967809" lon="-6.077866284281858"><ele>873.0</ele><time>2026-03-23T10:18:51.919Z</time></trkpt><trkpt lat="30.098273970011835" lon="-6.077780230962724"><ele>873.0</ele><time>2026-03-23T10:18:52.919Z</time></trkpt><trkpt lat="30.098163820703764" lon="-6.077708914750165"><ele>873.0</ele><time>2026-03-23T10:18:53.92Z</time></trkpt><trkpt lat="30.098072260871476" lon="-6.077640947918184"><ele>872.5999999999999</ele><time>2026-03-23T10:18:54.92Z</time></trkpt><trkpt lat="30.09800867565145" lon="-6.077621800629151"><ele>872.1999999999999</ele><time>2026-03-23T10:18:55.919Z</time></trkpt><trkpt lat="30.097884061376934" lon="-6.077565224560422"><ele>871.8</ele><time>2026-03-23T10:18:57.92Z</time></trkpt><trkpt lat="30.0977948781269" lon="-6.077530320059931"><ele>871.4</ele><time>2026-03-23T10:18:58.919Z</time></trkpt><trkpt lat="30.09770187579544" lon="-6.077488158045733"><ele>871.0</ele><time>2026-03-23T10:18:59.919Z</time></trkpt><trkpt lat="30.097606255281175" lon="-6.077456618094639"><ele>872.25</ele><time>2026-03-23T10:19:00.919Z</time></trkpt><trkpt lat="30.0975054032294" lon="-6.07740680978545"><ele>873.5</ele><time>2026-03-23T10:19:01.919Z</time></trkpt><trkpt lat="30.09740853578637" lon="-6.077362263860979"><ele>874.75</ele><time>2026-03-23T10:19:02.919Z</time></trkpt><trkpt lat="30.09730922678362" lon="-6.077308064680974"><ele>876.0</ele><time>2026-03-23T10:19:03.919Z</time></trkpt><trkpt lat="30.097189695468415" lon="-6.077256370133392"><ele>876.0</ele><time>2026-03-23T10:19:04.919Z</time></trkpt><trkpt lat="30.097066511188352" lon="-6.0772170661782825"><ele>876.0</ele><time>2026-03-23T10:19:05.919Z</time></trkpt><trkpt lat="30.096923799514695" lon="-6.077178565876504"><ele>876.0</ele><time>2026-03-23T10:19:06.919Z</time></trkpt><trkpt lat="30.096788896719506" lon="-6.077157305973868"><ele>876.0</ele><time>2026-03-23T10:19:07.919Z</time></trkpt><trkpt lat="30.09663944376633" lon="-6.0771782555440135"><ele>877.6666666666667</ele><time>2026-03-23T10:19:08.919Z</time></trkpt><trkpt lat="30.096481981710365" lon="-6.0771900050305065"><ele>879.3333333333334</ele><time>2026-03-23T10:19:09.919Z</time></trkpt><trkpt lat="30.09633894483288" lon="-6.077217976894418"><ele>881.0</ele><time>2026-03-23T10:19:10.919Z</time></trkpt><trkpt lat="30.096191702464516" lon="-6.077247890929486"><ele>881.0</ele><time>2026-03-23T10:19:11.919Z</time></trkpt><trkpt lat="30.096051108207043" lon="-6.077286317059681"><ele>881.0</ele><time>2026-03-23T10:19:12.919Z</time></trkpt><trkpt lat="30.095917839026843" lon="-6.0773291498527655"><ele>881.0</ele><time>2026-03-23T10:19:13.919Z</time></trkpt><trkpt lat="30.095781291537545" lon="-6.077366593570717"><ele>881.0</ele><time>2026-03-23T10:19:14.919Z</time></trkpt><trkpt lat="30.095646889504586" lon="-6.077399942161343"><ele>880.25</ele><time>2026-03-23T10:19:15.919Z</time></trkpt><trkpt lat="30.095506007776176" lon="-6.077426969405438"><ele>879.5</ele><time>2026-03-23T10:19:16.919Z</time></trkpt><trkpt lat="30.095356530440835" lon="-6.077438855439714"><ele>878.75</ele><time>2026-03-23T10:19:17.919Z</time></trkpt><trkpt lat="30.09521229813383" lon="-6.077442814745596"><ele>878.0</ele><time>2026-03-23T10:19:18.919Z</time></trkpt><trkpt lat="30.095071783631052" lon="-6.077442784432047"><ele>878.0</ele><time>2026-03-23T10:19:19.919Z</time></trkpt><trkpt lat="30.09493357101826" lon="-6.077449505854016"><ele>878.0</ele><time>2026-03-23T10:19:20.919Z</time></trkpt><trkpt lat="30.094805571827717" lon="-6.077441767281959"><ele>878.0</ele><time>2026-03-23T10:19:21.919Z</time></trkpt><trkpt lat="30.094677372259255" lon="-6.077433200737152"><ele>878.0</ele><time>2026-03-23T10:19:22.919Z</time></trkpt><trkpt lat="30.09456041407919" lon="-6.077430263867569"><ele>878.0</ele><time>2026-03-23T10:19:23.919Z</time></trkpt><trkpt lat="30.094426350688405" lon="-6.077419346952737"><ele>878.0</ele><time>2026-03-23T10:19:24.919Z</time></trkpt><trkpt lat="30.094305670453437" lon="-6.077415479835809"><ele>878.0</ele><time>2026-03-23T10:19:25.919Z</time></trkpt><trkpt lat="30.09417956403406" lon="-6.077412829908846"><ele>878.0</ele><time>2026-03-23T10:19:26.919Z</time></trkpt><trkpt lat="30.094038216492333" lon="-6.07740860917313"><ele>878.25</ele><time>2026-03-23T10:19:27.919Z</time></trkpt><trkpt lat="30.09390813291148" lon="-6.077403745468767"><ele>878.5</ele><time>2026-03-23T10:19:28.919Z</time></trkpt><trkpt lat="30.09377863987339" lon="-6.077395226145029"><ele>878.75</ele><time>2026-03-23T10:19:29.919Z</time></trkpt><trkpt lat="30.09363784613694" lon="-6.07738370694819"><ele>879.0</ele><time>2026-03-23T10:19:30.919Z</time></trkpt><trkpt lat="30.093505675907686" lon="-6.077388294242376"><ele>879.0</ele><time>2026-03-23T10:19:31.919Z</time></trkpt><trkpt lat="30.09336860489987" lon="-6.077399431393507"><ele>879.0</ele><time>2026-03-23T10:19:32.919Z</time></trkpt><trkpt lat="30.093230270977536" lon="-6.077420625379218"><ele>879.0</ele><time>2026-03-23T10:19:33.919Z</time></trkpt><trkpt lat="30.093101646520118" lon="-6.077431879368519"><ele>879.0</ele><time>2026-03-23T10:19:34.919Z</time></trkpt><trkpt lat="30.092975407999887" lon="-6.077434874276598"><ele>877.75</ele><time>2026-03-23T10:19:35.919Z</time></trkpt><trkpt lat="30.092851827998544" lon="-6.077437700918559"><ele>876.5</ele><time>2026-03-23T10:19:36.919Z</time></trkpt><trkpt lat="30.09273050577849" lon="-6.077444719393646"><ele>875.25</ele><time>2026-03-23T10:19:37.919Z</time></trkpt><trkpt lat="30.092604049364716" lon="-6.077444120092974"><ele>874.0</ele><time>2026-03-23T10:19:38.919Z</time></trkpt><trkpt lat="30.092486663413485" lon="-6.077441845769486"><ele>874.5</ele><time>2026-03-23T10:19:39.919Z</time></trkpt><trkpt lat="30.092367427880397" lon="-6.077440474194739"><ele>875.0</ele><time>2026-03-23T10:19:40.919Z</time></trkpt><trkpt lat="30.092244416749885" lon="-6.077448550778807"><ele>875.5</ele><time>2026-03-23T10:19:41.919Z</time></trkpt><trkpt lat="30.092126184616017" lon="-6.077466637742389"><ele>876.0</ele><time>2026-03-23T10:19:42.919Z</time></trkpt><trkpt lat="30.092007970383865" lon="-6.077480326013936"><ele>876.0</ele><time>2026-03-23T10:19:43.919Z</time></trkpt><trkpt lat="30.09187860955147" lon="-6.077495705435602"><ele>876.0</ele><time>2026-03-23T10:19:44.919Z</time></trkpt><trkpt lat="30.09175279396682" lon="-6.077512700574928"><ele>876.0</ele><time>2026-03-23T10:19:45.919Z</time></trkpt><trkpt lat="30.09164178812187" lon="-6.077523553119391"><ele>876.0</ele><time>2026-03-23T10:19:46.919Z</time></trkpt><trkpt lat="30.091507668924105" lon="-6.077535887488496"><ele>876.5</ele><time>2026-03-23T10:19:47.919Z</time></trkpt><trkpt lat="30.09138304527591" lon="-6.077528740796782"><ele>877.0</ele><time>2026-03-23T10:19:48.919Z</time></trkpt><trkpt lat="30.0912714778884" lon="-6.077521993690881"><ele>877.5</ele><time>2026-03-23T10:19:49.919Z</time></trkpt><trkpt lat="30.091154408620472" lon="-6.077524460013886"><ele>878.0</ele><time>2026-03-23T10:19:50.919Z</time></trkpt><trkpt lat="30.09104816549682" lon="-6.077506608761185"><ele>878.0</ele><time>2026-03-23T10:19:51.919Z</time></trkpt><trkpt lat="30.090929860933546" lon="-6.077458994281159"><ele>878.0</ele><time>2026-03-23T10:19:52.919Z</time></trkpt><trkpt lat="30.09081442106692" lon="-6.07742101067857"><ele>878.0</ele><time>2026-03-23T10:19:53.919Z</time></trkpt><trkpt lat="30.09070190923371" lon="-6.0774078842605155"><ele>878.0</ele><time>2026-03-23T10:19:54.919Z</time></trkpt><trkpt lat="30.09058241382147" lon="-6.077419463362233"><ele>878.4</ele><time>2026-03-23T10:19:55.919Z</time></trkpt><trkpt lat="30.090480134469374" lon="-6.077446310894339"><ele>878.8</ele><time>2026-03-23T10:19:56.919Z</time></trkpt><trkpt lat="30.090362634885615" lon="-6.07747929752404"><ele>879.2</ele><time>2026-03-23T10:19:57.919Z</time></trkpt><trkpt lat="30.090256098743296" lon="-6.0775051125261115"><ele>879.6</ele><time>2026-03-23T10:19:58.919Z</time></trkpt><trkpt lat="30.090163787872903" lon="-6.077518943169148"><ele>880.0</ele><time>2026-03-23T10:19:59.919Z</time></trkpt><trkpt lat="30.09007889309468" lon="-6.077514309725203"><ele>879.9999999999999</ele><time>2026-03-23T10:20:00.919Z</time></trkpt><trkpt lat="30.089998304461176" lon="-6.077519180390661"><ele>880.0</ele><time>2026-03-23T10:20:01.919Z</time></trkpt><trkpt lat="30.08992007971491" lon="-6.0775471392688845"><ele>880.0</ele><time>2026-03-23T10:20:02.919Z</time></trkpt><trkpt lat="30.089844282055626" lon="-6.077595333171255"><ele>880.0</ele><time>2026-03-23T10:20:03.919Z</time></trkpt><trkpt lat="30.089775197577126" lon="-6.077636040963393"><ele>879.9999999999999</ele><time>2026-03-23T10:20:04.919Z</time></trkpt><trkpt lat="30.089710156124443" lon="-6.077664336960537"><ele>880.0</ele><time>2026-03-23T10:20:05.919Z</time></trkpt><trkpt lat="30.08961487847149" lon="-6.077651370569744"><ele>880.0</ele><time>2026-03-23T10:20:06.919Z</time></trkpt><trkpt lat="30.089517260175146" lon="-6.077622760873274"><ele>880.0</ele><time>2026-03-23T10:20:07.919Z</time></trkpt><trkpt lat="30.089413635427626" lon="-6.07759265059932"><ele>880.0</ele><time>2026-03-23T10:20:08.919Z</time></trkpt><trkpt lat="30.089305112924926" lon="-6.077583430330747"><ele>880.0</ele><time>2026-03-23T10:20:09.919Z</time></trkpt><trkpt lat="30.08919332089798" lon="-6.0775938686067965"><ele>880.0</ele><time>2026-03-23T10:20:10.919Z</time></trkpt><trkpt lat="30.089085534850415" lon="-6.077602620360268"><ele>879.8</ele><time>2026-03-23T10:20:11.919Z</time></trkpt><trkpt lat="30.088983634254916" lon="-6.077608574250829"><ele>879.6</ele><time>2026-03-23T10:20:12.919Z</time></trkpt><trkpt lat="30.088873223370896" lon="-6.077615786197879"><ele>879.4000000000001</ele><time>2026-03-23T10:20:13.919Z</time></trkpt><trkpt lat="30.08876163992497" lon="-6.077625247462119"><ele>879.2</ele><time>2026-03-23T10:20:14.919Z</time></trkpt><trkpt lat="30.08865412179755" lon="-6.077633402738571"><ele>879.0</ele><time>2026-03-23T10:20:15.919Z</time></trkpt><trkpt lat="30.088536934661175" lon="-6.077646893071353"><ele>879.0</ele><time>2026-03-23T10:20:16.919Z</time></trkpt><trkpt lat="30.088422491355242" lon="-6.077659479605077"><ele>879.0</ele><time>2026-03-23T10:20:17.919Z</time></trkpt><trkpt lat="30.08831914314675" lon="-6.077674901574065"><ele>879.0</ele><time>2026-03-23T10:20:18.919Z</time></trkpt><trkpt lat="30.08820397445822" lon="-6.077687796590813"><ele>879.0</ele><time>2026-03-23T10:20:19.919Z</time></trkpt><trkpt lat="30.08808884316523" lon="-6.077684455044402"><ele>876.5</ele><time>2026-03-23T10:20:20.919Z</time></trkpt><trkpt lat="30.087967603669284" lon="-6.077668594410316"><ele>874.0</ele><time>2026-03-23T10:20:21.919Z</time></trkpt><trkpt lat="30.087841324629547" lon="-6.077656694965792"><ele>871.5</ele><time>2026-03-23T10:20:22.919Z</time></trkpt><trkpt lat="30.08770798920941" lon="-6.07766047917121"><ele>869.0</ele><time>2026-03-23T10:20:23.919Z</time></trkpt><trkpt lat="30.087581462175645" lon="-6.077667338097652"><ele>869.0</ele><time>2026-03-23T10:20:24.919Z</time></trkpt><trkpt lat="30.087450106071593" lon="-6.0776797266941465"><ele>869.0</ele><time>2026-03-23T10:20:25.919Z</time></trkpt><trkpt lat="30.087327448232475" lon="-6.0776840746888094"><ele>869.0</ele><time>2026-03-23T10:20:26.919Z</time></trkpt><trkpt lat="30.08721012744231" lon="-6.077688932822742"><ele>869.0</ele><time>2026-03-23T10:20:27.919Z</time></trkpt><trkpt lat="30.087094257152028" lon="-6.077693939817956"><ele>870.8000000000001</ele><time>2026-03-23T10:20:28.918Z</time></trkpt><trkpt lat="30.08697665173423" lon="-6.077709723946082"><ele>872.6000000000001</ele><time>2026-03-23T10:20:29.918Z</time></trkpt><trkpt lat="30.086869675476404" lon="-6.077730789894125"><ele>874.4</ele><time>2026-03-23T10:20:30.918Z</time></trkpt><trkpt lat="30.086761521582574" lon="-6.077742357990184"><ele>876.2</ele><time>2026-03-23T10:20:31.918Z</time></trkpt><trkpt lat="30.086658331458654" lon="-6.077751160836807"><ele>878.0</ele><time>2026-03-23T10:20:32.918Z</time></trkpt><trkpt lat="30.08654311906338" lon="-6.077763644762877"><ele>878.25</ele><time>2026-03-23T10:20:33.918Z</time></trkpt><trkpt lat="30.086421699829692" lon="-6.077783728979571"><ele>878.5</ele><time>2026-03-23T10:20:34.918Z</time></trkpt><trkpt lat="30.086291292610497" lon="-6.0778066822542245"><ele>878.75</ele><time>2026-03-23T10:20:35.918Z</time></trkpt><trkpt lat="30.086164391920082" lon="-6.077824334044866"><ele>879.0</ele><time>2026-03-23T10:20:36.918Z</time></trkpt><trkpt lat="30.08604578952063" lon="-6.077847476232626"><ele>879.0</ele><time>2026-03-23T10:20:37.918Z</time></trkpt><trkpt lat="30.085918184546674" lon="-6.077867239596034"><ele>879.0</ele><time>2026-03-23T10:20:38.918Z</time></trkpt><trkpt lat="30.085800154737854" lon="-6.0778859630652935"><ele>879.0</ele><time>2026-03-23T10:20:39.918Z</time></trkpt><trkpt lat="30.085687138620262" lon="-6.077899605643524"><ele>879.0</ele><time>2026-03-23T10:20:40.918Z</time></trkpt><trkpt lat="30.0855823538716" lon="-6.077921572373865"><ele>879.8000000000001</ele><time>2026-03-23T10:20:41.918Z</time></trkpt><trkpt lat="30.085474350051165" lon="-6.077931203414361"><ele>880.6000000000001</ele><time>2026-03-23T10:20:42.918Z</time></trkpt><trkpt lat="30.085365532341307" lon="-6.077932032646104"><ele>881.4</ele><time>2026-03-23T10:20:43.918Z</time></trkpt><trkpt lat="30.085279977593093" lon="-6.077928233628328"><ele>882.2</ele><time>2026-03-23T10:20:44.918Z</time></trkpt><trkpt lat="30.085191235706084" lon="-6.077933709475614"><ele>883.0</ele><time>2026-03-23T10:20:45.918Z</time></trkpt><trkpt lat="30.0850717235758" lon="-6.077953829436282"><ele>882.5</ele><time>2026-03-23T10:20:46.918Z</time></trkpt><trkpt lat="30.08491881729903" lon="-6.0780019772237015"><ele>882.0</ele><time>2026-03-23T10:20:47.918Z</time></trkpt><trkpt lat="30.084789512374744" lon="-6.07805135616175"><ele>881.5</ele><time>2026-03-23T10:20:48.918Z</time></trkpt><trkpt lat="30.08466887736275" lon="-6.0780909844681155"><ele>881.0</ele><time>2026-03-23T10:20:49.918Z</time></trkpt><trkpt lat="30.08455653030306" lon="-6.0781306721779425"><ele>881.0</ele><time>2026-03-23T10:20:50.918Z</time></trkpt><trkpt lat="30.084436834984018" lon="-6.078167561561759"><ele>881.0</ele><time>2026-03-23T10:20:51.918Z</time></trkpt><trkpt lat="30.08430949739723" lon="-6.078209749717065"><ele>881.0</ele><time>2026-03-23T10:20:52.918Z</time></trkpt><trkpt lat="30.084188861225496" lon="-6.0782450865991375"><ele>881.0</ele><time>2026-03-23T10:20:53.918Z</time></trkpt><trkpt lat="30.084060768309996" lon="-6.078274112641609"><ele>881.25</ele><time>2026-03-23T10:20:54.918Z</time></trkpt><trkpt lat="30.08392182763967" lon="-6.078320275503881"><ele>881.5</ele><time>2026-03-23T10:20:55.918Z</time></trkpt><trkpt lat="30.083785193385406" lon="-6.078382207482272"><ele>881.75</ele><time>2026-03-23T10:20:56.919Z</time></trkpt><trkpt lat="30.083653215687438" lon="-6.07845610403853"><ele>882.0</ele><time>2026-03-23T10:20:57.919Z</time></trkpt><trkpt lat="30.08352168475883" lon="-6.0785299281848575"><ele>882.0</ele><time>2026-03-23T10:20:58.918Z</time></trkpt><trkpt lat="30.08338662979728" lon="-6.078604631881186"><ele>882.0</ele><time>2026-03-23T10:20:59.919Z</time></trkpt><trkpt lat="30.083243945247364" lon="-6.0786809054912325"><ele>882.0</ele><time>2026-03-23T10:21:00.919Z</time></trkpt><trkpt lat="30.08311184715178" lon="-6.078768874965115"><ele>882.5</ele><time>2026-03-23T10:21:01.918Z</time></trkpt><trkpt lat="30.083008511804895" lon="-6.078859087922583"><ele>883.0</ele><time>2026-03-23T10:21:02.918Z</time></trkpt><trkpt lat="30.082914676911226" lon="-6.078948309279113"><ele>883.5</ele><time>2026-03-23T10:21:03.918Z</time></trkpt><trkpt lat="30.082825942414686" lon="-6.079024923032402"><ele>884.0</ele><time>2026-03-23T10:21:04.918Z</time></trkpt><trkpt lat="30.082722225770986" lon="-6.079099210107156"><ele>883.0</ele><time>2026-03-23T10:21:05.918Z</time></trkpt><trkpt lat="30.082605413135227" lon="-6.079159522246182"><ele>882.0</ele><time>2026-03-23T10:21:06.918Z</time></trkpt><trkpt lat="30.082470647409114" lon="-6.079184555955809"><ele>881.0</ele><time>2026-03-23T10:21:07.918Z</time></trkpt><trkpt lat="30.082334834378653" lon="-6.0791923370800145"><ele>880.0</ele><time>2026-03-23T10:21:08.918Z</time></trkpt><trkpt lat="30.08220358798442" lon="-6.079197746335268"><ele>880.0</ele><time>2026-03-23T10:21:09.918Z</time></trkpt><trkpt lat="30.08207504499717" lon="-6.07922253831427"><ele>880.0</ele><time>2026-03-23T10:21:10.918Z</time></trkpt><trkpt lat="30.081952458516017" lon="-6.079268106287374"><ele>880.0</ele><time>2026-03-23T10:21:11.918Z</time></trkpt><trkpt lat="30.0818228733696" lon="-6.079307607028173"><ele>880.0</ele><time>2026-03-23T10:21:12.918Z</time></trkpt><trkpt lat="30.081699804271544" lon="-6.079346610264538"><ele>881.5</ele><time>2026-03-23T10:21:13.918Z</time></trkpt><trkpt lat="30.081573976227475" lon="-6.079391424502682"><ele>883.0</ele><time>2026-03-23T10:21:14.918Z</time></trkpt><trkpt lat="30.08145297195027" lon="-6.079435872306775"><ele>884.5</ele><time>2026-03-23T10:21:15.918Z</time></trkpt><trkpt lat="30.08133569518274" lon="-6.079472901702224"><ele>886.0</ele><time>2026-03-23T10:21:16.918Z</time></trkpt><trkpt lat="30.081222137753816" lon="-6.079501913144749"><ele>886.0</ele><time>2026-03-23T10:21:17.918Z</time></trkpt><trkpt lat="30.08110883509133" lon="-6.079536184187249"><ele>886.0</ele><time>2026-03-23T10:21:18.918Z</time></trkpt><trkpt lat="30.080995312569147" lon="-6.079572554702504"><ele>886.0</ele><time>2026-03-23T10:21:19.918Z</time></trkpt><trkpt lat="30.080887171107985" lon="-6.079607588590063"><ele>886.0</ele><time>2026-03-23T10:21:20.918Z</time></trkpt><trkpt lat="30.080766257441184" lon="-6.079649540076187"><ele>885.75</ele><time>2026-03-23T10:21:21.918Z</time></trkpt><trkpt lat="30.080657665613" lon="-6.079686438571272"><ele>885.5</ele><time>2026-03-23T10:21:22.918Z</time></trkpt><trkpt lat="30.080542131534497" lon="-6.079727197586814"><ele>885.25</ele><time>2026-03-23T10:21:23.918Z</time></trkpt><trkpt lat="30.080435316507298" lon="-6.079768808415184"><ele>885.0</ele><time>2026-03-23T10:21:24.918Z</time></trkpt><trkpt lat="30.08033157857972" lon="-6.079816501902676"><ele>885.0</ele><time>2026-03-23T10:21:25.918Z</time></trkpt><trkpt lat="30.08023908794771" lon="-6.079854419916507"><ele>885.0</ele><time>2026-03-23T10:21:26.918Z</time></trkpt><trkpt lat="30.080145547758345" lon="-6.079893590403197"><ele>885.0</ele><time>2026-03-23T10:21:27.918Z</time></trkpt><trkpt lat="30.0800247786462" lon="-6.0799291911879685"><ele>885.0</ele><time>2026-03-23T10:21:28.918Z</time></trkpt><trkpt lat="30.079892382491654" lon="-6.079990154001466"><ele>885.0</ele><time>2026-03-23T10:21:29.918Z</time></trkpt><trkpt lat="30.079758448168096" lon="-6.080039855503663"><ele>885.0</ele><time>2026-03-23T10:21:30.918Z</time></trkpt><trkpt lat="30.07963685306808" lon="-6.080084080312036"><ele>885.0</ele><time>2026-03-23T10:21:31.918Z</time></trkpt><trkpt lat="30.07951701738411" lon="-6.080118789801124"><ele>885.0</ele><time>2026-03-23T10:21:32.918Z</time></trkpt><trkpt lat="30.07940245699428" lon="-6.080146898595767"><ele>885.0</ele><time>2026-03-23T10:21:33.918Z</time></trkpt><trkpt lat="30.079312241171355" lon="-6.080168436351777"><ele>885.0</ele><time>2026-03-23T10:21:34.918Z</time></trkpt><trkpt lat="30.07923174929028" lon="-6.080176232537495"><ele>885.0</ele><time>2026-03-23T10:21:35.918Z</time></trkpt><trkpt lat="30.079160599985602" lon="-6.0801649005815"><ele>885.0</ele><time>2026-03-23T10:21:36.918Z</time></trkpt><trkpt lat="30.07908805655037" lon="-6.0801662486185535"><ele>885.0</ele><time>2026-03-23T10:21:37.918Z</time></trkpt><trkpt lat="30.078991833813074" lon="-6.08021707863155"><ele>885.0</ele><time>2026-03-23T10:21:38.918Z</time></trkpt><trkpt lat="30.07889123920686" lon="-6.080273442303143"><ele>885.2</ele><time>2026-03-23T10:21:39.918Z</time></trkpt><trkpt lat="30.078786553423463" lon="-6.080329689639112"><ele>885.4</ele><time>2026-03-23T10:21:40.918Z</time></trkpt><trkpt lat="30.07869954198245" lon="-6.080384685835926"><ele>885.5999999999999</ele><time>2026-03-23T10:21:41.918Z</time></trkpt><trkpt lat="30.07860427550399" lon="-6.080441851549171"><ele>885.8</ele><time>2026-03-23T10:21:42.918Z</time></trkpt><trkpt lat="30.07849981821497" lon="-6.080474496350215"><ele>886.0</ele><time>2026-03-23T10:21:43.918Z</time></trkpt><trkpt lat="30.078385957799178" lon="-6.080489615940943"><ele>886.0</ele><time>2026-03-23T10:21:44.918Z</time></trkpt><trkpt lat="30.07828231314262" lon="-6.0805088149204165"><ele>885.9999999999999</ele><time>2026-03-23T10:21:45.918Z</time></trkpt><trkpt lat="30.078186256452515" lon="-6.080537491596198"><ele>885.9999999999999</ele><time>2026-03-23T10:21:46.918Z</time></trkpt><trkpt lat="30.07809877320872" lon="-6.080572036392288"><ele>886.0</ele><time>2026-03-23T10:21:47.918Z</time></trkpt><trkpt lat="30.078009210519102" lon="-6.080592830086505"><ele>886.0</ele><time>2026-03-23T10:21:48.918Z</time></trkpt><trkpt lat="30.07790858746938" lon="-6.080595603304352"><ele>885.9999999999999</ele><time>2026-03-23T10:21:49.918Z</time></trkpt><trkpt lat="30.077816821970906" lon="-6.08059694558807"><ele>886.0</ele><time>2026-03-23T10:21:50.918Z</time></trkpt><trkpt lat="30.077749245841062" lon="-6.080614855427685"><ele>886.0</ele><time>2026-03-23T10:21:51.918Z</time></trkpt><trkpt lat="30.077670349882176" lon="-6.080644399422192"><ele>886.0</ele><time>2026-03-23T10:21:52.918Z</time></trkpt><trkpt lat="30.077593407629568" lon="-6.080668043441366"><ele>885.9999999999999</ele><time>2026-03-23T10:21:53.918Z</time></trkpt><trkpt lat="30.07750573307306" lon="-6.080677519397471"><ele>886.0</ele><time>2026-03-23T10:21:54.918Z</time></trkpt><trkpt lat="30.077417140359433" lon="-6.080685315414228"><ele>886.0</ele><time>2026-03-23T10:21:55.918Z</time></trkpt><trkpt lat="30.077329652939966" lon="-6.080703478644492"><ele>885.9999999999999</ele><time>2026-03-23T10:21:56.918Z</time></trkpt><trkpt lat="30.077240884557117" lon="-6.08071040046644"><ele>885.9999999999999</ele><time>2026-03-23T10:21:57.918Z</time></trkpt><trkpt lat="30.07714018916522" lon="-6.080687614080958"><ele>886.0</ele><time>2026-03-23T10:21:58.918Z</time></trkpt><trkpt lat="30.07703860025153" lon="-6.080651944165082"><ele>886.0</ele><time>2026-03-23T10:21:59.918Z</time></trkpt><trkpt lat="30.076936821650083" lon="-6.080622723383436"><ele>886.0</ele><time>2026-03-23T10:22:00.918Z</time></trkpt><trkpt lat="30.0768348003883" lon="-6.080590731548744"><ele>885.9999999999999</ele><time>2026-03-23T10:22:01.918Z</time></trkpt><trkpt lat="30.07673971096956" lon="-6.080558220024655"><ele>885.9999999999999</ele><time>2026-03-23T10:22:02.918Z</time></trkpt><trkpt lat="30.076645390986716" lon="-6.080526624047361"><ele>886.0</ele><time>2026-03-23T10:22:03.918Z</time></trkpt><trkpt lat="30.076556772562885" lon="-6.080499361805591"><ele>886.0</ele><time>2026-03-23T10:22:04.918Z</time></trkpt><trkpt lat="30.076466487965135" lon="-6.08047631522958"><ele>886.3333333333333</ele><time>2026-03-23T10:22:05.918Z</time></trkpt><trkpt lat="30.07638682586064" lon="-6.080454833898336"><ele>886.6666666666666</ele><time>2026-03-23T10:22:06.918Z</time></trkpt><trkpt lat="30.07630941602874" lon="-6.080440550627409"><ele>887.0</ele><time>2026-03-23T10:22:07.918Z</time></trkpt><trkpt lat="30.07623481226658" lon="-6.0804348136292345"><ele>887.3333333333333</ele><time>2026-03-23T10:22:08.918Z</time></trkpt><trkpt lat="30.076159552992127" lon="-6.0804392472320545"><ele>887.6666666666666</ele><time>2026-03-23T10:22:09.918Z</time></trkpt><trkpt lat="30.076076274028242" lon="-6.080452332036982"><ele>888.0</ele><time>2026-03-23T10:22:10.918Z</time></trkpt><trkpt lat="30.075993333668226" lon="-6.080468237697905"><ele>888.0</ele><time>2026-03-23T10:22:11.918Z</time></trkpt><trkpt lat="30.0759041235905" lon="-6.08049269355859"><ele>888.0</ele><time>2026-03-23T10:22:12.918Z</time></trkpt><trkpt lat="30.075812036855616" lon="-6.080505664475136"><ele>888.0</ele><time>2026-03-23T10:22:13.918Z</time></trkpt><trkpt lat="30.075714557423396" lon="-6.080517396754202"><ele>888.0</ele><time>2026-03-23T10:22:14.918Z</time></trkpt><trkpt lat="30.075607986819016" lon="-6.080526888764014"><ele>888.0</ele><time>2026-03-23T10:22:15.918Z</time></trkpt><trkpt lat="30.07550023108435" lon="-6.080531266418891"><ele>888.2</ele><time>2026-03-23T10:22:16.918Z</time></trkpt><trkpt lat="30.07539257526315" lon="-6.080538344519564"><ele>888.4</ele><time>2026-03-23T10:22:17.918Z</time></trkpt><trkpt lat="30.075282891614464" lon="-6.080547999144592"><ele>888.6000000000001</ele><time>2026-03-23T10:22:18.918Z</time></trkpt><trkpt lat="30.075169816440262" lon="-6.080558253121176"><ele>888.8000000000001</ele><time>2026-03-23T10:22:19.918Z</time></trkpt><trkpt lat="30.07506135932257" lon="-6.08056578648409"><ele>889.0</ele><time>2026-03-23T10:22:20.918Z</time></trkpt><trkpt lat="30.074948765459965" lon="-6.0805640126964855"><ele>889.0</ele><time>2026-03-23T10:22:21.918Z</time></trkpt><trkpt lat="30.074836423433283" lon="-6.080563829002008"><ele>889.0000000000001</ele><time>2026-03-23T10:22:22.918Z</time></trkpt><trkpt lat="30.074730966103225" lon="-6.080572479432318"><ele>889.0000000000001</ele><time>2026-03-23T10:22:23.918Z</time></trkpt><trkpt lat="30.074629377763248" lon="-6.08057976164873"><ele>889.0</ele><time>2026-03-23T10:22:24.918Z</time></trkpt><trkpt lat="30.07452656101868" lon="-6.080585369954246"><ele>889.0</ele><time>2026-03-23T10:22:25.918Z</time></trkpt><trkpt lat="30.074427106509376" lon="-6.080571881954597"><ele>889.0</ele><time>2026-03-23T10:22:26.918Z</time></trkpt><trkpt lat="30.07432467741706" lon="-6.080545649018198"><ele>889.0000000000001</ele><time>2026-03-23T10:22:27.918Z</time></trkpt><trkpt lat="30.074215240841614" lon="-6.080519216119324"><ele>889.0000000000001</ele><time>2026-03-23T10:22:28.918Z</time></trkpt><trkpt lat="30.074110162146564" lon="-6.080501139065265"><ele>889.0</ele><time>2026-03-23T10:22:29.918Z</time></trkpt><trkpt lat="30.074012475115826" lon="-6.080490859873703"><ele>889.0</ele><time>2026-03-23T10:22:30.918Z</time></trkpt><trkpt lat="30.07390317027884" lon="-6.080490936103158"><ele>888.75</ele><time>2026-03-23T10:22:31.918Z</time></trkpt><trkpt lat="30.073784606462365" lon="-6.080508696379421"><ele>888.5</ele><time>2026-03-23T10:22:32.918Z</time></trkpt><trkpt lat="30.073661922757775" lon="-6.080524496400858"><ele>888.25</ele><time>2026-03-23T10:22:33.918Z</time></trkpt><trkpt lat="30.07354889449623" lon="-6.080552790333396"><ele>888.0</ele><time>2026-03-23T10:22:34.918Z</time></trkpt><trkpt lat="30.0734290282341" lon="-6.080594871847119"><ele>888.0</ele><time>2026-03-23T10:22:35.918Z</time></trkpt><trkpt lat="30.073304166230397" lon="-6.0806373732606005"><ele>888.0</ele><time>2026-03-23T10:22:36.918Z</time></trkpt><trkpt lat="30.073185874096996" lon="-6.080672792943026"><ele>888.0</ele><time>2026-03-23T10:22:37.918Z</time></trkpt><trkpt lat="30.073039881473363" lon="-6.080711869939882"><ele>888.0</ele><time>2026-03-23T10:22:38.918Z</time></trkpt><trkpt lat="30.072862967973588" lon="-6.080771214552171"><ele>888.0</ele><time>2026-03-23T10:22:39.918Z</time></trkpt><trkpt lat="30.07270742390481" lon="-6.080839519107869"><ele>888.0</ele><time>2026-03-23T10:22:40.918Z</time></trkpt><trkpt lat="30.07259365501642" lon="-6.080890253495441"><ele>888.0</ele><time>2026-03-23T10:22:41.918Z</time></trkpt><trkpt lat="30.072488133676153" lon="-6.080944962602321"><ele>888.0</ele><time>2026-03-23T10:22:42.918Z</time></trkpt><trkpt lat="30.0723923233366" lon="-6.080990012049511"><ele>887.8</ele><time>2026-03-23T10:22:43.917Z</time></trkpt><trkpt lat="30.072295208392877" lon="-6.081032439240976"><ele>887.5999999999999</ele><time>2026-03-23T10:22:44.917Z</time></trkpt><trkpt lat="30.07219694214897" lon="-6.081061387951694"><ele>887.4000000000001</ele><time>2026-03-23T10:22:45.917Z</time></trkpt><trkpt lat="30.072103486308695" lon="-6.081104708360239"><ele>887.2</ele><time>2026-03-23T10:22:46.917Z</time></trkpt><trkpt lat="30.072012898450552" lon="-6.081145729896574"><ele>887.0</ele><time>2026-03-23T10:22:47.917Z</time></trkpt><trkpt lat="30.07192587904126" lon="-6.0811807222516805"><ele>887.0</ele><time>2026-03-23T10:22:48.917Z</time></trkpt><trkpt lat="30.07184067416958" lon="-6.081220967820079"><ele>887.0</ele><time>2026-03-23T10:22:49.917Z</time></trkpt><trkpt lat="30.071754097707743" lon="-6.081279747452065"><ele>887.0</ele><time>2026-03-23T10:22:50.917Z</time></trkpt><trkpt lat="30.07168318026251" lon="-6.081368328529009"><ele>887.0</ele><time>2026-03-23T10:22:51.917Z</time></trkpt><trkpt lat="30.07162440645765" lon="-6.081473981477634"><ele>887.0</ele><time>2026-03-23T10:22:52.917Z</time></trkpt><trkpt lat="30.071575907414637" lon="-6.081574435582664"><ele>887.6</ele><time>2026-03-23T10:22:53.917Z</time></trkpt><trkpt lat="30.071527161461624" lon="-6.081693970074681"><ele>888.2</ele><time>2026-03-23T10:22:54.917Z</time></trkpt><trkpt lat="30.07149429163047" lon="-6.0818157731056885"><ele>888.8</ele><time>2026-03-23T10:22:55.917Z</time></trkpt><trkpt lat="30.071469857251074" lon="-6.081937677225427"><ele>889.4</ele><time>2026-03-23T10:22:56.917Z</time></trkpt><trkpt lat="30.0714341266471" lon="-6.082065334806667"><ele>890.0</ele><time>2026-03-23T10:22:57.917Z</time></trkpt><trkpt lat="30.071400244124423" lon="-6.082166953329982"><ele>890.0000000000001</ele><time>2026-03-23T10:22:58.917Z</time></trkpt><trkpt lat="30.071351941910496" lon="-6.082251090997035"><ele>890.0</ele><time>2026-03-23T10:22:59.917Z</time></trkpt><trkpt lat="30.07130134473549" lon="-6.082312417650392"><ele>890.0</ele><time>2026-03-23T10:23:00.917Z</time></trkpt><trkpt lat="30.071243980100014" lon="-6.082423216725709"><ele>890.0</ele><time>2026-03-23T10:23:02.917Z</time></trkpt><trkpt lat="30.07121778808853" lon="-6.082496856402235"><ele>890.0000000000001</ele><time>2026-03-23T10:23:03.917Z</time></trkpt><trkpt lat="30.071202785873307" lon="-6.082587861299109"><ele>890.0</ele><time>2026-03-23T10:23:04.918Z</time></trkpt><trkpt lat="30.07117377993657" lon="-6.082676922194672"><ele>889.6</ele><time>2026-03-23T10:23:05.917Z</time></trkpt><trkpt lat="30.071141689536745" lon="-6.082765602909291"><ele>889.2</ele><time>2026-03-23T10:23:06.917Z</time></trkpt><trkpt lat="30.071117919263987" lon="-6.082866785531225"><ele>888.8</ele><time>2026-03-23T10:23:07.918Z</time></trkpt><trkpt lat="30.07110554311464" lon="-6.082973124785967"><ele>888.4</ele><time>2026-03-23T10:23:08.917Z</time></trkpt><trkpt lat="30.071100703031206" lon="-6.083082588012342"><ele>888.0</ele><time>2026-03-23T10:23:09.917Z</time></trkpt><trkpt lat="30.07111028907457" lon="-6.083200261128253"><ele>887.5999999999999</ele><time>2026-03-23T10:23:10.917Z</time></trkpt><trkpt lat="30.071120949502657" lon="-6.083338890017738"><ele>887.1999999999999</ele><time>2026-03-23T10:23:11.918Z</time></trkpt><trkpt lat="30.07113488753732" lon="-6.083451118284667"><ele>886.8</ele><time>2026-03-23T10:23:12.918Z</time></trkpt><trkpt lat="30.071151791647704" lon="-6.083566735425646"><ele>886.4</ele><time>2026-03-23T10:23:13.918Z</time></trkpt><trkpt lat="30.071162548563073" lon="-6.083678673810483"><ele>886.0</ele><time>2026-03-23T10:23:14.918Z</time></trkpt><trkpt lat="30.071162018189344" lon="-6.083809916460444"><ele>886.0</ele><time>2026-03-23T10:23:15.918Z</time></trkpt><trkpt lat="30.071155417467793" lon="-6.0839389526638925"><ele>885.9999999999999</ele><time>2026-03-23T10:23:16.918Z</time></trkpt><trkpt lat="30.071159806817995" lon="-6.0840549727761335"><ele>885.9999999999999</ele><time>2026-03-23T10:23:17.918Z</time></trkpt><trkpt lat="30.07116094372048" lon="-6.084153729882339"><ele>886.0</ele><time>2026-03-23T10:23:18.918Z</time></trkpt><trkpt lat="30.071157676413044" lon="-6.084254944053053"><ele>886.0</ele><time>2026-03-23T10:23:19.918Z</time></trkpt><trkpt lat="30.071152318993516" lon="-6.084355205787945"><ele>885.8333333333333</ele><time>2026-03-23T10:23:20.918Z</time></trkpt><trkpt lat="30.07114109088426" lon="-6.084453370243817"><ele>885.6666666666666</ele><time>2026-03-23T10:23:21.918Z</time></trkpt><trkpt lat="30.071137596700243" lon="-6.084545671708875"><ele>885.5</ele><time>2026-03-23T10:23:22.918Z</time></trkpt><trkpt lat="30.071123839740938" lon="-6.084635192677306"><ele>885.3333333333333</ele><time>2026-03-23T10:23:23.918Z</time></trkpt><trkpt lat="30.071095797098494" lon="-6.084714865087406"><ele>885.1666666666666</ele><time>2026-03-23T10:23:24.918Z</time></trkpt><trkpt lat="30.071048849231232" lon="-6.084765161980398"><ele>885.0</ele><time>2026-03-23T10:23:25.918Z</time></trkpt><trkpt lat="30.070978193998137" lon="-6.084807550693385"><ele>885.0</ele><time>2026-03-23T10:23:26.918Z</time></trkpt><trkpt lat="30.070901661422088" lon="-6.084855876257606"><ele>885.0</ele><time>2026-03-23T10:23:27.918Z</time></trkpt><trkpt lat="30.070834177207367" lon="-6.084927129664308"><ele>885.0</ele><time>2026-03-23T10:23:28.918Z</time></trkpt><trkpt lat="30.07078184386596" lon="-6.08498190812164"><ele>885.0</ele><time>2026-03-23T10:23:29.918Z</time></trkpt><trkpt lat="30.070722495206454" lon="-6.085012168875578"><ele>885.0</ele><time>2026-03-23T10:23:30.918Z</time></trkpt><trkpt lat="30.07065186267146" lon="-6.085031265978499"><ele>885.0</ele><time>2026-03-23T10:23:31.918Z</time></trkpt><trkpt lat="30.070586823436066" lon="-6.0850521178520385"><ele>883.6666666666666</ele><time>2026-03-23T10:23:32.918Z</time></trkpt><trkpt lat="30.07047540856554" lon="-6.0851536495269425"><ele>882.3333333333333</ele><time>2026-03-23T10:23:34.918Z</time></trkpt><trkpt lat="30.070417199395397" lon="-6.0852140848387855"><ele>881.0</ele><time>2026-03-23T10:23:35.918Z</time></trkpt><trkpt lat="30.07035545347244" lon="-6.085265950217382"><ele>879.6666666666666</ele><time>2026-03-23T10:23:36.918Z</time></trkpt><trkpt lat="30.070301913899844" lon="-6.085313804431514"><ele>878.3333333333333</ele><time>2026-03-23T10:23:37.918Z</time></trkpt><trkpt lat="30.07025661167501" lon="-6.085366389027697"><ele>877.0</ele><time>2026-03-23T10:23:38.918Z</time></trkpt><trkpt lat="30.07017324147727" lon="-6.085438105594582"><ele>877.0</ele><time>2026-03-23T10:23:40.918Z</time></trkpt><trkpt lat="30.070063086588444" lon="-6.0854469153083794"><ele>877.0</ele><time>2026-03-23T10:23:42.918Z</time></trkpt><trkpt lat="30.06998237920635" lon="-6.08545869871424"><ele>877.0</ele><time>2026-03-23T10:23:43.918Z</time></trkpt><trkpt lat="30.06990403232398" lon="-6.0854833407209155"><ele>877.0</ele><time>2026-03-23T10:23:44.918Z</time></trkpt><trkpt lat="30.069825384289427" lon="-6.085520591875359"><ele>877.0</ele><time>2026-03-23T10:23:45.918Z</time></trkpt><trkpt lat="30.069730721474894" lon="-6.085551760102502"><ele>876.1666666666666</ele><time>2026-03-23T10:23:46.918Z</time></trkpt><trkpt lat="30.06965610700982" lon="-6.085572902732499"><ele>875.3333333333333</ele><time>2026-03-23T10:23:47.918Z</time></trkpt><trkpt lat="30.069586900248456" lon="-6.085580373355801"><ele>874.5</ele><time>2026-03-23T10:23:48.918Z</time></trkpt><trkpt lat="30.06952184348797" lon="-6.085571827207215"><ele>873.6666666666667</ele><time>2026-03-23T10:23:49.918Z</time></trkpt><trkpt lat="30.06945341308008" lon="-6.08552908702377"><ele>872.8333333333334</ele><time>2026-03-23T10:23:50.918Z</time></trkpt><trkpt lat="30.069373773782054" lon="-6.085466643534205"><ele>872.0</ele><time>2026-03-23T10:23:51.918Z</time></trkpt><trkpt lat="30.0692818893447" lon="-6.085406453876613"><ele>872.0</ele><time>2026-03-23T10:23:52.917Z</time></trkpt><trkpt lat="30.069181978056836" lon="-6.085366706167951"><ele>872.0</ele><time>2026-03-23T10:23:53.917Z</time></trkpt><trkpt lat="30.06910006593727" lon="-6.085334823070953"><ele>872.0</ele><time>2026-03-23T10:23:54.917Z</time></trkpt><trkpt lat="30.069019988272448" lon="-6.085294741922505"><ele>872.0</ele><time>2026-03-23T10:23:55.917Z</time></trkpt><trkpt lat="30.06893590499306" lon="-6.08524887812659"><ele>872.0</ele><time>2026-03-23T10:23:56.917Z</time></trkpt><trkpt lat="30.068854124540017" lon="-6.085204627454968"><ele>870.8333333333334</ele><time>2026-03-23T10:23:57.917Z</time></trkpt><trkpt lat="30.068780230020728" lon="-6.085176613209372"><ele>869.6666666666667</ele><time>2026-03-23T10:23:58.917Z</time></trkpt><trkpt lat="30.068706129554002" lon="-6.085142536670614"><ele>868.5</ele><time>2026-03-23T10:23:59.917Z</time></trkpt><trkpt lat="30.06863594553185" lon="-6.085089737359711"><ele>867.3333333333333</ele><time>2026-03-23T10:24:00.917Z</time></trkpt><trkpt lat="30.06858245534891" lon="-6.085029397190114"><ele>866.1666666666666</ele><time>2026-03-23T10:24:01.917Z</time></trkpt><trkpt lat="30.06852955499486" lon="-6.084951385879781"><ele>865.0</ele><time>2026-03-23T10:24:02.917Z</time></trkpt><trkpt lat="30.068485542636832" lon="-6.084865860731088"><ele>865.0</ele><time>2026-03-23T10:24:03.917Z</time></trkpt><trkpt lat="30.068451173991093" lon="-6.08476235304907"><ele>865.0</ele><time>2026-03-23T10:24:04.917Z</time></trkpt><trkpt lat="30.068424686988394" lon="-6.0846659246928425"><ele>865.0</ele><time>2026-03-23T10:24:05.917Z</time></trkpt><trkpt lat="30.068404371005595" lon="-6.084551672960792"><ele>865.0</ele><time>2026-03-23T10:24:06.917Z</time></trkpt><trkpt lat="30.068372470483297" lon="-6.084422454794454"><ele>865.0</ele><time>2026-03-23T10:24:07.917Z</time></trkpt><trkpt lat="30.068345320828424" lon="-6.084308838008041"><ele>864.9999999999999</ele><time>2026-03-23T10:24:08.917Z</time></trkpt><trkpt lat="30.06830672756445" lon="-6.084235008515402"><ele>865.0</ele><time>2026-03-23T10:24:09.917Z</time></trkpt><trkpt lat="30.068256156348582" lon="-6.084169081687884"><ele>865.0</ele><time>2026-03-23T10:24:10.917Z</time></trkpt><trkpt lat="30.068208976491672" lon="-6.0840975062531815"><ele>865.0</ele><time>2026-03-23T10:24:11.917Z</time></trkpt><trkpt lat="30.06815616321281" lon="-6.084016946385857"><ele>864.9999999999999</ele><time>2026-03-23T10:24:12.917Z</time></trkpt><trkpt lat="30.06810439283278" lon="-6.083943396124805"><ele>865.0</ele><time>2026-03-23T10:24:13.917Z</time></trkpt><trkpt lat="30.068043189169305" lon="-6.0838827890205565"><ele>864.4285714285714</ele><time>2026-03-23T10:24:14.917Z</time></trkpt><trkpt lat="30.067986145116098" lon="-6.083823226572507"><ele>863.8571428571429</ele><time>2026-03-23T10:24:15.917Z</time></trkpt><trkpt lat="30.067922880188824" lon="-6.083786327719312"><ele>863.2857142857142</ele><time>2026-03-23T10:24:16.917Z</time></trkpt><trkpt lat="30.067861927752357" lon="-6.083740282819271"><ele>862.7142857142858</ele><time>2026-03-23T10:24:17.917Z</time></trkpt><trkpt lat="30.0678001367323" lon="-6.083693589384235"><ele>862.1428571428571</ele><time>2026-03-23T10:24:18.917Z</time></trkpt><trkpt lat="30.06775090360848" lon="-6.083644387286361"><ele>861.5714285714286</ele><time>2026-03-23T10:24:19.917Z</time></trkpt><trkpt lat="30.06771494827176" lon="-6.083577816276003"><ele>861.0</ele><time>2026-03-23T10:24:20.917Z</time></trkpt><trkpt lat="30.067632070349976" lon="-6.083464473379152"><ele>861.0</ele><time>2026-03-23T10:24:22.917Z</time></trkpt><trkpt lat="30.067578897795368" lon="-6.083396815714674"><ele>861.0</ele><time>2026-03-23T10:24:23.917Z</time></trkpt><trkpt lat="30.067520400112254" lon="-6.083328352792577"><ele>861.0</ele><time>2026-03-23T10:24:24.917Z</time></trkpt><trkpt lat="30.06747145401747" lon="-6.083257845888403"><ele>861.0</ele><time>2026-03-23T10:24:25.917Z</time></trkpt><trkpt lat="30.067419982283955" lon="-6.08318181203577"><ele>861.0</ele><time>2026-03-23T10:24:26.917Z</time></trkpt><trkpt lat="30.067371221013524" lon="-6.0831181613320835"><ele>861.0</ele><time>2026-03-23T10:24:27.917Z</time></trkpt><trkpt lat="30.06732390803144" lon="-6.083054510091777"><ele>860.0</ele><time>2026-03-23T10:24:28.917Z</time></trkpt><trkpt lat="30.06727467977376" lon="-6.082992256755449"><ele>859.0</ele><time>2026-03-23T10:24:29.917Z</time></trkpt><trkpt lat="30.067224478884263" lon="-6.082930653094335"><ele>858.0</ele><time>2026-03-23T10:24:30.917Z</time></trkpt><trkpt lat="30.067150395992037" lon="-6.0828207898640345"><ele>857.0</ele><time>2026-03-23T10:24:32.917Z</time></trkpt><trkpt lat="30.067126431538618" lon="-6.082750094361562"><ele>856.0</ele><time>2026-03-23T10:24:33.917Z</time></trkpt><trkpt lat="30.06709395034419" lon="-6.082682405098994"><ele>855.0</ele><time>2026-03-23T10:24:34.917Z</time></trkpt><trkpt lat="30.067033198904312" lon="-6.082596240609981"><ele>855.0</ele><time>2026-03-23T10:24:36.917Z</time></trkpt><trkpt lat="30.0669322939322" lon="-6.082515792766153"><ele>855.0</ele><time>2026-03-23T10:24:38.917Z</time></trkpt><trkpt lat="30.06684395694168" lon="-6.082496235815672"><ele>855.0</ele><time>2026-03-23T10:24:40.917Z</time></trkpt><trkpt lat="30.06683518460916" lon="-6.0822715616273255"><ele>855.0</ele><time>2026-03-23T10:25:02.917Z</time></trkpt><trkpt lat="30.066862433592377" lon="-6.0821347099370175"><ele>854.6</ele><time>2026-03-23T10:25:03.917Z</time></trkpt><trkpt lat="30.066896908530957" lon="-6.082008275008257"><ele>854.2</ele><time>2026-03-23T10:25:04.916Z</time></trkpt><trkpt lat="30.066929473980878" lon="-6.081912176268959"><ele>853.8</ele><time>2026-03-23T10:25:05.916Z</time></trkpt><trkpt lat="30.066910957534386" lon="-6.08179988144208"><ele>853.4</ele><time>2026-03-23T10:25:06.916Z</time></trkpt><trkpt lat="30.066849498542055" lon="-6.08168087049533"><ele>853.0</ele><time>2026-03-23T10:25:07.917Z</time></trkpt><trkpt lat="30.06677889995417" lon="-6.081562992292172"><ele>853.0</ele><time>2026-03-23T10:25:08.916Z</time></trkpt><trkpt lat="30.06671109759063" lon="-6.081430464542938"><ele>853.0</ele><time>2026-03-23T10:25:09.916Z</time></trkpt><trkpt lat="30.066642533217394" lon="-6.081327605964622"><ele>853.0</ele><time>2026-03-23T10:25:10.916Z</time></trkpt><trkpt lat="30.066577868972207" lon="-6.081232549810852"><ele>853.0</ele><time>2026-03-23T10:25:11.916Z</time></trkpt><trkpt lat="30.066496302503822" lon="-6.081162927273014"><ele>851.5</ele><time>2026-03-23T10:25:12.916Z</time></trkpt><trkpt lat="30.066395346899654" lon="-6.081123083276029"><ele>850.0</ele><time>2026-03-23T10:25:13.917Z</time></trkpt><trkpt lat="30.066276405812875" lon="-6.081097354262884"><ele>848.5</ele><time>2026-03-23T10:25:14.916Z</time></trkpt><trkpt lat="30.06614750965095" lon="-6.081058659295431"><ele>847.0</ele><time>2026-03-23T10:25:15.916Z</time></trkpt><trkpt lat="30.066004143590582" lon="-6.081010340488034"><ele>847.0</ele><time>2026-03-23T10:25:16.916Z</time></trkpt><trkpt lat="30.065865154212002" lon="-6.08095333491047"><ele>847.0</ele><time>2026-03-23T10:25:17.916Z</time></trkpt><trkpt lat="30.0657479896391" lon="-6.080897883121697"><ele>847.0</ele><time>2026-03-23T10:25:18.916Z</time></trkpt><trkpt lat="30.065631856978705" lon="-6.080844629984574"><ele>847.0</ele><time>2026-03-23T10:25:19.916Z</time></trkpt><trkpt lat="30.065523668746735" lon="-6.080795811187257"><ele>847.2</ele><time>2026-03-23T10:25:20.916Z</time></trkpt><trkpt lat="30.065419657413937" lon="-6.080752952200801"><ele>847.4000000000001</ele><time>2026-03-23T10:25:21.916Z</time></trkpt><trkpt lat="30.065325638988497" lon="-6.080721221427554"><ele>847.5999999999999</ele><time>2026-03-23T10:25:22.916Z</time></trkpt><trkpt lat="30.065237389135294" lon="-6.080693450274301"><ele>847.8</ele><time>2026-03-23T10:25:23.916Z</time></trkpt><trkpt lat="30.065160000027554" lon="-6.080658781205704"><ele>848.0</ele><time>2026-03-23T10:25:24.916Z</time></trkpt><trkpt lat="30.06509042009164" lon="-6.080629066529752"><ele>848.0000000000001</ele><time>2026-03-23T10:25:25.916Z</time></trkpt><trkpt lat="30.065030720422126" lon="-6.0806024191590655"><ele>848.0</ele><time>2026-03-23T10:25:26.916Z</time></trkpt><trkpt lat="30.06496549250585" lon="-6.080584527352731"><ele>848.0</ele><time>2026-03-23T10:25:27.916Z</time></trkpt><trkpt lat="30.06484950556124" lon="-6.080586872107808"><ele>848.0</ele><time>2026-03-23T10:25:29.916Z</time></trkpt><trkpt lat="30.064764752989237" lon="-6.080584156949882"><ele>848.0000000000001</ele><time>2026-03-23T10:25:30.916Z</time></trkpt><trkpt lat="30.06469314739756" lon="-6.080577875213545"><ele>848.0</ele><time>2026-03-23T10:25:31.916Z</time></trkpt><trkpt lat="30.064618994887674" lon="-6.080565884648149"><ele>847.5999999999999</ele><time>2026-03-23T10:25:32.916Z</time></trkpt><trkpt lat="30.064513287635965" lon="-6.080539969635911"><ele>847.1999999999999</ele><time>2026-03-23T10:25:34.916Z</time></trkpt><trkpt lat="30.06441078004716" lon="-6.080533700333471"><ele>846.8</ele><time>2026-03-23T10:25:36.916Z</time></trkpt><trkpt lat="30.064320757974865" lon="-6.080553505775012"><ele>846.4</ele><time>2026-03-23T10:25:38.916Z</time></trkpt><trkpt lat="30.06424547241171" lon="-6.080603628169621"><ele>846.0</ele><time>2026-03-23T10:25:40.916Z</time></trkpt><trkpt lat="30.06416868163168" lon="-6.080630487269701"><ele>845.6666666666666</ele><time>2026-03-23T10:25:42.916Z</time></trkpt><trkpt lat="30.064089404908266" lon="-6.08063861235066"><ele>845.3333333333333</ele><time>2026-03-23T10:25:45.916Z</time></trkpt><trkpt lat="30.064019091419798" lon="-6.080628187735283"><ele>845.0</ele><time>2026-03-23T10:25:50.916Z</time></trkpt><trkpt lat="30.06390719159675" lon="-6.080644455233736"><ele>844.6666666666666</ele><time>2026-03-23T10:25:52.916Z</time></trkpt><trkpt lat="30.063842039593307" lon="-6.080646425290058"><ele>844.3333333333333</ele><time>2026-03-23T10:25:53.916Z</time></trkpt><trkpt lat="30.06374051868059" lon="-6.0806396122044095"><ele>844.0</ele><time>2026-03-23T10:25:55.916Z</time></trkpt><trkpt lat="30.06361985627025" lon="-6.080650902182651"><ele>844.0</ele><time>2026-03-23T10:25:57.916Z</time></trkpt><trkpt lat="30.063513221745733" lon="-6.080669063466429"><ele>844.0</ele><time>2026-03-23T10:25:59.916Z</time></trkpt><trkpt lat="30.063415839911713" lon="-6.080707366726014"><ele>844.0</ele><time>2026-03-23T10:26:01.916Z</time></trkpt><trkpt lat="30.063331662854818" lon="-6.080763557347711"><ele>844.0</ele><time>2026-03-23T10:26:03.916Z</time></trkpt><trkpt lat="30.063261626212235" lon="-6.080837642707763"><ele>844.0</ele><time>2026-03-23T10:26:06.916Z</time></trkpt><trkpt lat="30.063210626347598" lon="-6.080958035819708"><ele>843.6666666666666</ele><time>2026-03-23T10:26:08.916Z</time></trkpt><trkpt lat="30.063158237007084" lon="-6.08104629486571"><ele>843.3333333333333</ele><time>2026-03-23T10:26:10.916Z</time></trkpt><trkpt lat="30.06306230633133" lon="-6.081117968891898"><ele>843.0</ele><time>2026-03-23T10:26:12.916Z</time></trkpt><trkpt lat="30.06300076159458" lon="-6.081155856383909"><ele>842.6666666666667</ele><time>2026-03-23T10:26:13.916Z</time></trkpt><trkpt lat="30.06293581092657" lon="-6.081185497484244"><ele>842.3333333333334</ele><time>2026-03-23T10:26:14.916Z</time></trkpt><trkpt lat="30.06285814051308" lon="-6.081207339750905"><ele>842.0</ele><time>2026-03-23T10:26:15.916Z</time></trkpt><trkpt lat="30.062766764029572" lon="-6.081230075615613"><ele>842.0</ele><time>2026-03-23T10:26:16.916Z</time></trkpt><trkpt lat="30.062672910926178" lon="-6.081246385977405"><ele>842.0</ele><time>2026-03-23T10:26:17.916Z</time></trkpt><trkpt lat="30.06256337846749" lon="-6.081252097807798"><ele>842.0</ele><time>2026-03-23T10:26:18.916Z</time></trkpt><trkpt lat="30.062421260660674" lon="-6.081238716135441"><ele>842.0</ele><time>2026-03-23T10:26:19.916Z</time></trkpt><trkpt lat="30.062266671049542" lon="-6.081215831899191"><ele>841.25</ele><time>2026-03-23T10:26:20.916Z</time></trkpt><trkpt lat="30.06213705477406" lon="-6.0812180222847045"><ele>840.5</ele><time>2026-03-23T10:26:21.916Z</time></trkpt><trkpt lat="30.062027533181563" lon="-6.081252865393973"><ele>839.75</ele><time>2026-03-23T10:26:22.916Z</time></trkpt><trkpt lat="30.061923764333805" lon="-6.081273953923204"><ele>839.0</ele><time>2026-03-23T10:26:23.916Z</time></trkpt><trkpt lat="30.061805750595816" lon="-6.08130234311529"><ele>839.0</ele><time>2026-03-23T10:26:24.916Z</time></trkpt><trkpt lat="30.061695914408993" lon="-6.081332999470261"><ele>839.0</ele><time>2026-03-23T10:26:25.916Z</time></trkpt><trkpt lat="30.061596112160817" lon="-6.081376491178179"><ele>839.0</ele><time>2026-03-23T10:26:26.916Z</time></trkpt><trkpt lat="30.06149633646133" lon="-6.0814143464484225"><ele>839.0</ele><time>2026-03-23T10:26:27.916Z</time></trkpt><trkpt lat="30.06138126259919" lon="-6.0814416400069655"><ele>839.0</ele><time>2026-03-23T10:26:28.916Z</time></trkpt><trkpt lat="30.06127083627238" lon="-6.081470976330047"><ele>839.0</ele><time>2026-03-23T10:26:29.916Z</time></trkpt><trkpt lat="30.061157166076512" lon="-6.08152211640831"><ele>839.0</ele><time>2026-03-23T10:26:30.916Z</time></trkpt><trkpt lat="30.06104557935192" lon="-6.081574146287989"><ele>839.0</ele><time>2026-03-23T10:26:31.916Z</time></trkpt><trkpt lat="30.060931962299552" lon="-6.081620788407283"><ele>839.0</ele><time>2026-03-23T10:26:32.916Z</time></trkpt><trkpt lat="30.06081398678225" lon="-6.081656343198664"><ele>838.8000000000001</ele><time>2026-03-23T10:26:33.916Z</time></trkpt><trkpt lat="30.060699699258823" lon="-6.081689815613958"><ele>838.6</ele><time>2026-03-23T10:26:34.916Z</time></trkpt><trkpt lat="30.060593040448595" lon="-6.08171321616525"><ele>838.4</ele><time>2026-03-23T10:26:35.916Z</time></trkpt><trkpt lat="30.06048870593305" lon="-6.081729383300001"><ele>838.2</ele><time>2026-03-23T10:26:36.916Z</time></trkpt><trkpt lat="30.060387359991385" lon="-6.081754643056043"><ele>838.0</ele><time>2026-03-23T10:26:37.916Z</time></trkpt><trkpt lat="30.06027888729329" lon="-6.081773240412768"><ele>838.0</ele><time>2026-03-23T10:26:38.916Z</time></trkpt><trkpt lat="30.060189637014286" lon="-6.081810172957808"><ele>838.0</ele><time>2026-03-23T10:26:39.916Z</time></trkpt><trkpt lat="30.060086831544677" lon="-6.081844364485202"><ele>838.0</ele><time>2026-03-23T10:26:40.916Z</time></trkpt><trkpt lat="30.059980960598235" lon="-6.081883027206711"><ele>838.0</ele><time>2026-03-23T10:26:41.916Z</time></trkpt><trkpt lat="30.059873175776172" lon="-6.0819342206772085"><ele>838.0</ele><time>2026-03-23T10:26:42.916Z</time></trkpt><trkpt lat="30.059760325128156" lon="-6.081990553681785"><ele>837.5999999999999</ele><time>2026-03-23T10:26:43.915Z</time></trkpt><trkpt lat="30.059652406368002" lon="-6.08205040025934"><ele>837.1999999999999</ele><time>2026-03-23T10:26:44.915Z</time></trkpt><trkpt lat="30.0595644236324" lon="-6.08210282719743"><ele>836.8</ele><time>2026-03-23T10:26:45.915Z</time></trkpt><trkpt lat="30.059474495796316" lon="-6.082152665675692"><ele>836.4</ele><time>2026-03-23T10:26:46.915Z</time></trkpt><trkpt lat="30.059377755429438" lon="-6.082192776220097"><ele>836.0</ele><time>2026-03-23T10:26:47.915Z</time></trkpt><trkpt lat="30.059294712693994" lon="-6.082241527437555"><ele>836.0</ele><time>2026-03-23T10:26:48.915Z</time></trkpt><trkpt lat="30.059215635985478" lon="-6.082304227984896"><ele>836.0</ele><time>2026-03-23T10:26:49.915Z</time></trkpt><trkpt lat="30.05911872825319" lon="-6.082364609438012"><ele>836.0</ele><time>2026-03-23T10:26:50.915Z</time></trkpt><trkpt lat="30.059024499534303" lon="-6.082423414308642"><ele>836.0</ele><time>2026-03-23T10:26:51.915Z</time></trkpt><trkpt lat="30.058924791923577" lon="-6.08248124226211"><ele>836.0</ele><time>2026-03-23T10:26:52.915Z</time></trkpt><trkpt lat="30.05882244950119" lon="-6.0825317600437785"><ele>835.8</ele><time>2026-03-23T10:26:53.915Z</time></trkpt><trkpt lat="30.058727050613978" lon="-6.082588374142154"><ele>835.5999999999999</ele><time>2026-03-23T10:26:54.915Z</time></trkpt><trkpt lat="30.058638474371975" lon="-6.082649357481894"><ele>835.4</ele><time>2026-03-23T10:26:55.915Z</time></trkpt><trkpt lat="30.058546603635865" lon="-6.082702018551617"><ele>835.2</ele><time>2026-03-23T10:26:56.915Z</time></trkpt><trkpt lat="30.05846019220789" lon="-6.0827334162988"><ele>835.0</ele><time>2026-03-23T10:26:57.915Z</time></trkpt><trkpt lat="30.0583662388097" lon="-6.082750193685408"><ele>834.8333333333333</ele><time>2026-03-23T10:26:58.915Z</time></trkpt><trkpt lat="30.05828331057042" lon="-6.082771328080879"><ele>834.6666666666666</ele><time>2026-03-23T10:26:59.915Z</time></trkpt><trkpt lat="30.058216360512173" lon="-6.082781743922616"><ele>834.5</ele><time>2026-03-23T10:27:00.915Z</time></trkpt><trkpt lat="30.058123728491452" lon="-6.082824982928438"><ele>834.3333333333333</ele><time>2026-03-23T10:27:02.915Z</time></trkpt><trkpt lat="30.05804880446078" lon="-6.082931741618725"><ele>834.1666666666666</ele><time>2026-03-23T10:27:04.915Z</time></trkpt><trkpt lat="30.05799573669429" lon="-6.0829804681238855"><ele>834.0</ele><time>2026-03-23T10:27:05.915Z</time></trkpt><trkpt lat="30.057887286904396" lon="-6.083055396055902"><ele>834.0</ele><time>2026-03-23T10:27:07.915Z</time></trkpt><trkpt lat="30.05782341315568" lon="-6.083096436460535"><ele>834.0</ele><time>2026-03-23T10:27:08.915Z</time></trkpt><trkpt lat="30.057747095181945" lon="-6.083156278174533"><ele>834.0</ele><time>2026-03-23T10:27:09.915Z</time></trkpt><trkpt lat="30.05766945138742" lon="-6.083229938701397"><ele>834.0</ele><time>2026-03-23T10:27:10.915Z</time></trkpt><trkpt lat="30.05759163033962" lon="-6.083303176801353"><ele>834.0</ele><time>2026-03-23T10:27:11.915Z</time></trkpt><trkpt lat="30.05750878017009" lon="-6.083381853032792"><ele>834.4000000000001</ele><time>2026-03-23T10:27:12.915Z</time></trkpt><trkpt lat="30.057425228343682" lon="-6.083455455513284"><ele>834.8</ele><time>2026-03-23T10:27:13.916Z</time></trkpt><trkpt lat="30.057347872911" lon="-6.083532340251822"><ele>835.2</ele><time>2026-03-23T10:27:14.915Z</time></trkpt><trkpt lat="30.057260516459937" lon="-6.083604169532665"><ele>835.5999999999999</ele><time>2026-03-23T10:27:15.915Z</time></trkpt><trkpt lat="30.05717379952167" lon="-6.0836859857155545"><ele>836.0</ele><time>2026-03-23T10:27:16.915Z</time></trkpt><trkpt lat="30.05707613154403" lon="-6.083768920991061"><ele>836.0</ele><time>2026-03-23T10:27:17.915Z</time></trkpt><trkpt lat="30.0569786767047" lon="-6.083850540223361"><ele>836.0</ele><time>2026-03-23T10:27:18.915Z</time></trkpt><trkpt lat="30.05687343841713" lon="-6.083932509436615"><ele>836.0</ele><time>2026-03-23T10:27:19.915Z</time></trkpt><trkpt lat="30.056779182479307" lon="-6.084026571979102"><ele>836.0</ele><time>2026-03-23T10:27:20.915Z</time></trkpt><trkpt lat="30.056683554226495" lon="-6.084126660946974"><ele>835.75</ele><time>2026-03-23T10:27:21.915Z</time></trkpt><trkpt lat="30.056583655474874" lon="-6.084226097888686"><ele>835.5</ele><time>2026-03-23T10:27:22.915Z</time></trkpt><trkpt lat="30.056489346499312" lon="-6.084319759324006"><ele>835.25</ele><time>2026-03-23T10:27:23.915Z</time></trkpt><trkpt lat="30.056410261060478" lon="-6.084421587594534"><ele>835.0</ele><time>2026-03-23T10:27:24.915Z</time></trkpt><trkpt lat="30.056336422076424" lon="-6.084518603785953"><ele>835.0</ele><time>2026-03-23T10:27:25.915Z</time></trkpt><trkpt lat="30.056266116043307" lon="-6.084596513007773"><ele>835.0</ele><time>2026-03-23T10:27:26.915Z</time></trkpt><trkpt lat="30.056198190809432" lon="-6.084671045794348"><ele>835.0</ele><time>2026-03-23T10:27:27.915Z</time></trkpt><trkpt lat="30.056130339262214" lon="-6.0847491357308865"><ele>835.0</ele><time>2026-03-23T10:27:28.915Z</time></trkpt><trkpt lat="30.056060094207126" lon="-6.084831722342713"><ele>835.0</ele><time>2026-03-23T10:27:29.915Z</time></trkpt><trkpt lat="30.055981611148415" lon="-6.084908320537035"><ele>835.2</ele><time>2026-03-23T10:27:30.915Z</time></trkpt><trkpt lat="30.05590491967163" lon="-6.084984318894345"><ele>835.4</ele><time>2026-03-23T10:27:31.915Z</time></trkpt><trkpt lat="30.05582849282842" lon="-6.085059970113564"><ele>835.5999999999999</ele><time>2026-03-23T10:27:32.915Z</time></trkpt><trkpt lat="30.055752223707543" lon="-6.085137460185948"><ele>835.8</ele><time>2026-03-23T10:27:33.915Z</time></trkpt><trkpt lat="30.055683901369022" lon="-6.085217373603702"><ele>836.0</ele><time>2026-03-23T10:27:34.915Z</time></trkpt><trkpt lat="30.05561641997488" lon="-6.085300861859279"><ele>836.0</ele><time>2026-03-23T10:27:35.915Z</time></trkpt><trkpt lat="30.055546084064428" lon="-6.08538784799605"><ele>836.0</ele><time>2026-03-23T10:27:36.915Z</time></trkpt><trkpt lat="30.055463359055246" lon="-6.0854693337693355"><ele>836.0</ele><time>2026-03-23T10:27:37.915Z</time></trkpt><trkpt lat="30.055378210875087" lon="-6.085559422429164"><ele>836.0</ele><time>2026-03-23T10:27:38.915Z</time></trkpt><trkpt lat="30.055287860368505" lon="-6.085639401118808"><ele>836.0</ele><time>2026-03-23T10:27:39.915Z</time></trkpt><trkpt lat="30.05519613325556" lon="-6.085714965282737"><ele>836.1999999999999</ele><time>2026-03-23T10:27:40.915Z</time></trkpt><trkpt lat="30.055104111781375" lon="-6.085789382199022"><ele>836.4</ele><time>2026-03-23T10:27:41.915Z</time></trkpt><trkpt lat="30.055014676547376" lon="-6.085864594787662"><ele>836.6</ele><time>2026-03-23T10:27:42.915Z</time></trkpt><trkpt lat="30.054930809944857" lon="-6.085944110736924"><ele>836.8</ele><time>2026-03-23T10:27:43.915Z</time></trkpt><trkpt lat="30.05485312600953" lon="-6.086030239738373"><ele>837.0</ele><time>2026-03-23T10:27:44.915Z</time></trkpt><trkpt lat="30.054771480174153" lon="-6.086119463185283"><ele>837.0</ele><time>2026-03-23T10:27:45.915Z</time></trkpt><trkpt lat="30.054683946919592" lon="-6.086206210425863"><ele>837.0</ele><time>2026-03-23T10:27:46.915Z</time></trkpt><trkpt lat="30.054588045477065" lon="-6.086277160849108"><ele>837.0</ele><time>2026-03-23T10:27:47.915Z</time></trkpt><trkpt lat="30.054499309390053" lon="-6.086345583201523"><ele>837.0</ele><time>2026-03-23T10:27:48.915Z</time></trkpt><trkpt lat="30.054419581165924" lon="-6.086410432439146"><ele>837.0</ele><time>2026-03-23T10:27:49.915Z</time></trkpt><trkpt lat="30.05433536643136" lon="-6.086469539833894"><ele>837.0</ele><time>2026-03-23T10:27:50.915Z</time></trkpt><trkpt lat="30.05424934604044" lon="-6.086518400374353"><ele>837.0</ele><time>2026-03-23T10:27:51.915Z</time></trkpt><trkpt lat="30.05416056203779" lon="-6.0865719455773135"><ele>837.0</ele><time>2026-03-23T10:27:52.915Z</time></trkpt><trkpt lat="30.054069923497348" lon="-6.0866375763703955"><ele>837.0</ele><time>2026-03-23T10:27:53.915Z</time></trkpt><trkpt lat="30.053974442599536" lon="-6.086706178476123"><ele>837.0</ele><time>2026-03-23T10:27:54.915Z</time></trkpt><trkpt lat="30.053878317075174" lon="-6.086776888665264"><ele>837.25</ele><time>2026-03-23T10:27:55.915Z</time></trkpt><trkpt lat="30.0537869405291" lon="-6.086844983678456"><ele>837.5</ele><time>2026-03-23T10:27:56.915Z</time></trkpt><trkpt lat="30.053688316585898" lon="-6.086918069617734"><ele>837.75</ele><time>2026-03-23T10:27:57.915Z</time></trkpt><trkpt lat="30.053599193112017" lon="-6.086996940749841"><ele>838.0</ele><time>2026-03-23T10:27:58.915Z</time></trkpt><trkpt lat="30.05350124732434" lon="-6.087081073072044"><ele>838.0</ele><time>2026-03-23T10:27:59.915Z</time></trkpt><trkpt lat="30.053408050612767" lon="-6.087163226041418"><ele>838.0</ele><time>2026-03-23T10:28:00.915Z</time></trkpt><trkpt lat="30.05330933609965" lon="-6.087245204322663"><ele>838.0</ele><time>2026-03-23T10:28:01.915Z</time></trkpt><trkpt lat="30.053204395110967" lon="-6.0873243233734255"><ele>838.0</ele><time>2026-03-23T10:28:02.915Z</time></trkpt><trkpt lat="30.05310632401728" lon="-6.08740983556603"><ele>837.4</ele><time>2026-03-23T10:28:03.915Z</time></trkpt><trkpt lat="30.053010870434615" lon="-6.087493431328362"><ele>836.8</ele><time>2026-03-23T10:28:04.915Z</time></trkpt><trkpt lat="30.052927645508237" lon="-6.0875693271219395"><ele>836.2</ele><time>2026-03-23T10:28:05.915Z</time></trkpt><trkpt lat="30.052852052770795" lon="-6.087632832038718"><ele>835.6</ele><time>2026-03-23T10:28:06.915Z</time></trkpt><trkpt lat="30.05278098497653" lon="-6.087701705724497"><ele>835.0</ele><time>2026-03-23T10:28:07.915Z</time></trkpt><trkpt lat="30.052698374284567" lon="-6.0877893528509475"><ele>835.0</ele><time>2026-03-23T10:28:08.915Z</time></trkpt><trkpt lat="30.052613986833624" lon="-6.0878910519742275"><ele>835.0</ele><time>2026-03-23T10:28:09.915Z</time></trkpt><trkpt lat="30.05253844257183" lon="-6.087991214735877"><ele>835.0</ele><time>2026-03-23T10:28:10.915Z</time></trkpt><trkpt lat="30.052446812404817" lon="-6.088088704330404"><ele>835.0</ele><time>2026-03-23T10:28:11.915Z</time></trkpt><trkpt lat="30.052354913758247" lon="-6.088188426921997"><ele>834.5</ele><time>2026-03-23T10:28:12.915Z</time></trkpt><trkpt lat="30.05226619116508" lon="-6.08829965520209"><ele>834.0</ele><time>2026-03-23T10:28:13.915Z</time></trkpt><trkpt lat="30.05217922648928" lon="-6.088418018671976"><ele>833.5</ele><time>2026-03-23T10:28:14.915Z</time></trkpt><trkpt lat="30.05209768800522" lon="-6.0885400587230185"><ele>833.0</ele><time>2026-03-23T10:28:15.915Z</time></trkpt><trkpt lat="30.052010551572202" lon="-6.088642177607512"><ele>833.0</ele><time>2026-03-23T10:28:16.915Z</time></trkpt><trkpt lat="30.05191685540584" lon="-6.088736026044566"><ele>833.0</ele><time>2026-03-23T10:28:17.915Z</time></trkpt><trkpt lat="30.051831832702792" lon="-6.088813270898061"><ele>833.0</ele><time>2026-03-23T10:28:18.915Z</time></trkpt><trkpt lat="30.051760164388618" lon="-6.088896350224473"><ele>833.0</ele><time>2026-03-23T10:28:19.915Z</time></trkpt><trkpt lat="30.05169249603656" lon="-6.088981190059185"><ele>833.0</ele><time>2026-03-23T10:28:20.915Z</time></trkpt><trkpt lat="30.05164103525363" lon="-6.089063801723879"><ele>833.0</ele><time>2026-03-23T10:28:21.915Z</time></trkpt><trkpt lat="30.05158707889291" lon="-6.089155399950402"><ele>833.0</ele><time>2026-03-23T10:28:22.915Z</time></trkpt><trkpt lat="30.05152101220481" lon="-6.089234054097064"><ele>833.0</ele><time>2026-03-23T10:28:23.915Z</time></trkpt><trkpt lat="30.051446683026516" lon="-6.089320361104624"><ele>833.0</ele><time>2026-03-23T10:28:24.915Z</time></trkpt><trkpt lat="30.05137694259915" lon="-6.0894138533125535"><ele>833.0</ele><time>2026-03-23T10:28:25.915Z</time></trkpt><trkpt lat="30.05131898928436" lon="-6.089513956679615"><ele>833.0</ele><time>2026-03-23T10:28:26.915Z</time></trkpt><trkpt lat="30.051266900612777" lon="-6.089617779970492"><ele>833.0</ele><time>2026-03-23T10:28:27.915Z</time></trkpt><trkpt lat="30.051222157283725" lon="-6.089714495139783"><ele>833.0</ele><time>2026-03-23T10:28:28.915Z</time></trkpt><trkpt lat="30.051175405842635" lon="-6.089807716651923"><ele>833.0</ele><time>2026-03-23T10:28:29.915Z</time></trkpt><trkpt lat="30.05111563233331" lon="-6.089881801566885"><ele>833.0</ele><time>2026-03-23T10:28:30.915Z</time></trkpt><trkpt lat="30.0510215656624" lon="-6.089953782094831"><ele>833.0</ele><time>2026-03-23T10:28:31.915Z</time></trkpt><trkpt lat="30.050925976476265" lon="-6.090036649364333"><ele>833.0</ele><time>2026-03-23T10:28:32.915Z</time></trkpt><trkpt lat="30.0508380209775" lon="-6.090127018290074"><ele>833.0</ele><time>2026-03-23T10:28:33.915Z</time></trkpt><trkpt lat="30.05074340208221" lon="-6.090217127063934"><ele>833.0</ele><time>2026-03-23T10:28:34.915Z</time></trkpt><trkpt lat="30.050658301795846" lon="-6.090312069811991"><ele>833.0</ele><time>2026-03-23T10:28:35.915Z</time></trkpt><trkpt lat="30.05057581841309" lon="-6.090411012866029"><ele>833.0</ele><time>2026-03-23T10:28:36.915Z</time></trkpt><trkpt lat="30.0504897350522" lon="-6.090501489136649"><ele>833.0</ele><time>2026-03-23T10:28:37.915Z</time></trkpt><trkpt lat="30.050410764700846" lon="-6.090603795482712"><ele>833.0</ele><time>2026-03-23T10:28:38.915Z</time></trkpt><trkpt lat="30.05034202187054" lon="-6.090705258888728"><ele>834.0</ele><time>2026-03-23T10:28:39.915Z</time></trkpt><trkpt lat="30.0502689223065" lon="-6.090811216781664"><ele>835.0</ele><time>2026-03-23T10:28:40.915Z</time></trkpt><trkpt lat="30.050196205243807" lon="-6.090905016560848"><ele>836.0</ele><time>2026-03-23T10:28:41.915Z</time></trkpt><trkpt lat="30.050114141867986" lon="-6.091006174960284"><ele>837.0</ele><time>2026-03-23T10:28:42.915Z</time></trkpt><trkpt lat="30.050024057845544" lon="-6.091104652252854"><ele>835.5</ele><time>2026-03-23T10:28:43.915Z</time></trkpt><trkpt lat="30.04993236406597" lon="-6.091202763126149"><ele>834.0</ele><time>2026-03-23T10:28:44.915Z</time></trkpt><trkpt lat="30.04984301029166" lon="-6.091301983431378"><ele>832.5</ele><time>2026-03-23T10:28:45.915Z</time></trkpt><trkpt lat="30.049752714662056" lon="-6.0913991473660145"><ele>831.0</ele><time>2026-03-23T10:28:46.915Z</time></trkpt><trkpt lat="30.04966027402831" lon="-6.0914938196618325"><ele>831.0</ele><time>2026-03-23T10:28:47.915Z</time></trkpt><trkpt lat="30.049574305660773" lon="-6.091591546374636"><ele>831.0</ele><time>2026-03-23T10:28:48.915Z</time></trkpt><trkpt lat="30.04948535410803" lon="-6.091696360285773"><ele>831.0</ele><time>2026-03-23T10:28:49.915Z</time></trkpt><trkpt lat="30.049408746860223" lon="-6.091801683183387"><ele>831.0</ele><time>2026-03-23T10:28:50.915Z</time></trkpt><trkpt lat="30.049344304789727" lon="-6.091899006746629"><ele>831.0</ele><time>2026-03-23T10:28:51.915Z</time></trkpt><trkpt lat="30.04928969745835" lon="-6.091998948992909"><ele>831.0</ele><time>2026-03-23T10:28:52.915Z</time></trkpt><trkpt lat="30.049251018475438" lon="-6.092087812115036"><ele>831.0</ele><time>2026-03-23T10:28:53.915Z</time></trkpt><trkpt lat="30.049212609760932" lon="-6.0921730649392725"><ele>831.0</ele><time>2026-03-23T10:28:54.915Z</time></trkpt><trkpt lat="30.049172634681657" lon="-6.092235880957592"><ele>831.0</ele><time>2026-03-23T10:28:55.915Z</time></trkpt><trkpt lat="30.04910159396934" lon="-6.092335980785405"><ele>830.1999999999999</ele><time>2026-03-23T10:28:57.915Z</time></trkpt><trkpt lat="30.04904816912258" lon="-6.092435625858995"><ele>829.4</ele><time>2026-03-23T10:28:59.915Z</time></trkpt><trkpt lat="30.04898840251462" lon="-6.092528460373793"><ele>828.6</ele><time>2026-03-23T10:29:01.915Z</time></trkpt><trkpt lat="30.048933376076228" lon="-6.0926550867289855"><ele>827.8</ele><time>2026-03-23T10:29:03.915Z</time></trkpt><trkpt lat="30.048902293937136" lon="-6.092719411147911"><ele>827.0</ele><time>2026-03-23T10:29:04.915Z</time></trkpt><trkpt lat="30.04886647531007" lon="-6.09278488496092"><ele>827.0</ele><time>2026-03-23T10:29:05.915Z</time></trkpt><trkpt lat="30.04882190113525" lon="-6.092857684514451"><ele>827.0</ele><time>2026-03-23T10:29:06.914Z</time></trkpt><trkpt lat="30.048770817179957" lon="-6.092953333917418"><ele>827.0</ele><time>2026-03-23T10:29:07.914Z</time></trkpt><trkpt lat="30.048720582378962" lon="-6.093060274550495"><ele>827.0</ele><time>2026-03-23T10:29:08.914Z</time></trkpt><trkpt lat="30.04868735104506" lon="-6.093170733706593"><ele>827.0</ele><time>2026-03-23T10:29:09.914Z</time></trkpt><trkpt lat="30.04865553961753" lon="-6.093261773426208"><ele>827.3333333333334</ele><time>2026-03-23T10:29:10.914Z</time></trkpt><trkpt lat="30.048623954936296" lon="-6.093350505497264"><ele>827.6666666666667</ele><time>2026-03-23T10:29:11.914Z</time></trkpt><trkpt lat="30.048564311836127" lon="-6.093430708229896"><ele>828.0</ele><time>2026-03-23T10:29:12.914Z</time></trkpt><trkpt lat="30.04849885713386" lon="-6.09350669552452"><ele>828.3333333333333</ele><time>2026-03-23T10:29:13.914Z</time></trkpt><trkpt lat="30.048443446901636" lon="-6.0935728539411755"><ele>828.6666666666666</ele><time>2026-03-23T10:29:14.914Z</time></trkpt><trkpt lat="30.048393429327895" lon="-6.0936380186103785"><ele>829.0</ele><time>2026-03-23T10:29:15.914Z</time></trkpt><trkpt lat="30.04833598989542" lon="-6.093703865652404"><ele>828.8333333333333</ele><time>2026-03-23T10:29:16.914Z</time></trkpt><trkpt lat="30.04826854698187" lon="-6.093765546100252"><ele>828.6666666666666</ele><time>2026-03-23T10:29:17.914Z</time></trkpt><trkpt lat="30.048199437002143" lon="-6.093817994825001"><ele>828.5</ele><time>2026-03-23T10:29:18.914Z</time></trkpt><trkpt lat="30.048143279658067" lon="-6.093872300872551"><ele>828.3333333333333</ele><time>2026-03-23T10:29:19.915Z</time></trkpt><trkpt lat="30.048105511495134" lon="-6.093950631120376"><ele>828.1666666666666</ele><time>2026-03-23T10:29:20.915Z</time></trkpt><trkpt lat="30.048068945777622" lon="-6.09403851817483"><ele>828.0</ele><time>2026-03-23T10:29:21.915Z</time></trkpt><trkpt lat="30.04801794914692" lon="-6.094128927701428"><ele>828.5999999999999</ele><time>2026-03-23T10:29:22.914Z</time></trkpt><trkpt lat="30.047957068727513" lon="-6.094218849366507"><ele>829.1999999999999</ele><time>2026-03-23T10:29:23.914Z</time></trkpt><trkpt lat="30.047894795753276" lon="-6.094309088695621"><ele>829.8</ele><time>2026-03-23T10:29:24.914Z</time></trkpt><trkpt lat="30.047830799565507" lon="-6.09441708737028"><ele>830.4</ele><time>2026-03-23T10:29:25.914Z</time></trkpt><trkpt lat="30.047761331786198" lon="-6.094526853815253"><ele>831.0</ele><time>2026-03-23T10:29:26.914Z</time></trkpt><trkpt lat="30.047702193711235" lon="-6.094626466522067"><ele>831.0</ele><time>2026-03-23T10:29:27.914Z</time></trkpt><trkpt lat="30.047654547806328" lon="-6.0947146728609916"><ele>831.0</ele><time>2026-03-23T10:29:28.914Z</time></trkpt><trkpt lat="30.047598396592498" lon="-6.09480605545484"><ele>831.0</ele><time>2026-03-23T10:29:29.914Z</time></trkpt><trkpt lat="30.047529715633544" lon="-6.094894493717145"><ele>831.0</ele><time>2026-03-23T10:29:30.914Z</time></trkpt><trkpt lat="30.047482709743257" lon="-6.094988240069381"><ele>831.0</ele><time>2026-03-23T10:29:31.914Z</time></trkpt><trkpt lat="30.04744017478118" lon="-6.095072648429507"><ele>830.5999999999999</ele><time>2026-03-23T10:29:32.914Z</time></trkpt><trkpt lat="30.047384582298" lon="-6.095143040298637"><ele>830.2</ele><time>2026-03-23T10:29:33.914Z</time></trkpt><trkpt lat="30.047316949584253" lon="-6.095224577029154"><ele>829.8</ele><time>2026-03-23T10:29:34.914Z</time></trkpt><trkpt lat="30.047255957383012" lon="-6.0953028019757935"><ele>829.4000000000001</ele><time>2026-03-23T10:29:35.914Z</time></trkpt><trkpt lat="30.047206375010365" lon="-6.0953671880783835"><ele>829.0</ele><time>2026-03-23T10:29:36.914Z</time></trkpt><trkpt lat="30.047142345474704" lon="-6.095466527142409"><ele>828.9999999999999</ele><time>2026-03-23T10:29:38.914Z</time></trkpt><trkpt lat="30.047098879252193" lon="-6.095545665007498"><ele>829.0</ele><time>2026-03-23T10:29:41.914Z</time></trkpt><trkpt lat="30.047047675819847" lon="-6.095626941358792"><ele>829.0</ele><time>2026-03-23T10:29:43.914Z</time></trkpt><trkpt lat="30.046994922425732" lon="-6.095693180321612"><ele>829.0</ele><time>2026-03-23T10:29:44.914Z</time></trkpt><trkpt lat="30.046935350737062" lon="-6.095770938443363"><ele>828.9999999999999</ele><time>2026-03-23T10:29:45.914Z</time></trkpt><trkpt lat="30.046882952155695" lon="-6.095842799571052"><ele>829.0</ele><time>2026-03-23T10:29:46.914Z</time></trkpt><trkpt lat="30.046839038159725" lon="-6.095902209448078"><ele>829.1666666666666</ele><time>2026-03-23T10:29:47.914Z</time></trkpt><trkpt lat="30.04677280117285" lon="-6.095953564426581"><ele>829.3333333333333</ele><time>2026-03-23T10:29:48.914Z</time></trkpt><trkpt lat="30.04669995039184" lon="-6.095993100257665"><ele>829.5</ele><time>2026-03-23T10:29:49.914Z</time></trkpt><trkpt lat="30.046620976675854" lon="-6.09601002808784"><ele>829.6666666666667</ele><time>2026-03-23T10:29:50.914Z</time></trkpt><trkpt lat="30.04652598853452" lon="-6.096009738990708"><ele>829.8333333333334</ele><time>2026-03-23T10:29:51.914Z</time></trkpt><trkpt lat="30.04645417305622" lon="-6.096005241161646"><ele>830.0</ele><time>2026-03-23T10:29:52.914Z</time></trkpt><trkpt lat="30.04638258053812" lon="-6.096018818890072"><ele>830.0</ele><time>2026-03-23T10:29:53.914Z</time></trkpt><trkpt lat="30.046265338622508" lon="-6.096079194631454"><ele>830.0</ele><time>2026-03-23T10:29:55.914Z</time></trkpt><trkpt lat="30.046209497490423" lon="-6.096132148368271"><ele>830.0</ele><time>2026-03-23T10:29:56.914Z</time></trkpt><trkpt lat="30.04614481872572" lon="-6.0961934145485275"><ele>830.0</ele><time>2026-03-23T10:29:57.914Z</time></trkpt><trkpt lat="30.046080281769587" lon="-6.096262319582001"><ele>830.0</ele><time>2026-03-23T10:29:58.914Z</time></trkpt><trkpt lat="30.04601361980196" lon="-6.0963337851414865"><ele>830.0</ele><time>2026-03-23T10:29:59.914Z</time></trkpt><trkpt lat="30.045933984827755" lon="-6.096409584245923"><ele>830.0</ele><time>2026-03-23T10:30:00.914Z</time></trkpt><trkpt lat="30.04586026457645" lon="-6.096492512229754"><ele>830.0</ele><time>2026-03-23T10:30:01.914Z</time></trkpt><trkpt lat="30.045782814118944" lon="-6.096571989031836"><ele>830.0</ele><time>2026-03-23T10:30:02.914Z</time></trkpt><trkpt lat="30.045704407746936" lon="-6.096653935343086"><ele>830.0</ele><time>2026-03-23T10:30:03.914Z</time></trkpt><trkpt lat="30.045630433906286" lon="-6.0967337379571545"><ele>830.0</ele><time>2026-03-23T10:30:04.914Z</time></trkpt><trkpt lat="30.045558018304774" lon="-6.09680678561594"><ele>830.0</ele><time>2026-03-23T10:30:05.914Z</time></trkpt><trkpt lat="30.04548797227077" lon="-6.096883003934196"><ele>830.0</ele><time>2026-03-23T10:30:06.914Z</time></trkpt><trkpt lat="30.04541429320277" lon="-6.096954731430084"><ele>830.0</ele><time>2026-03-23T10:30:07.914Z</time></trkpt><trkpt lat="30.045343942518006" lon="-6.0970276100991185"><ele>830.0</ele><time>2026-03-23T10:30:08.914Z</time></trkpt><trkpt lat="30.04528110001857" lon="-6.097100380617618"><ele>830.0000000000001</ele><time>2026-03-23T10:30:09.914Z</time></trkpt><trkpt lat="30.045225638604517" lon="-6.097173168110674"><ele>830.0</ele><time>2026-03-23T10:30:10.914Z</time></trkpt><trkpt lat="30.045172813344795" lon="-6.097248215428707"><ele>830.0</ele><time>2026-03-23T10:30:11.914Z</time></trkpt><trkpt lat="30.0451232929197" lon="-6.097331831346736"><ele>830.0</ele><time>2026-03-23T10:30:12.914Z</time></trkpt><trkpt lat="30.045077057617046" lon="-6.097426904388356"><ele>830.0000000000001</ele><time>2026-03-23T10:30:13.914Z</time></trkpt><trkpt lat="30.045028390992297" lon="-6.097515205441775"><ele>830.0</ele><time>2026-03-23T10:30:14.914Z</time></trkpt><trkpt lat="30.04498407539098" lon="-6.097586609919933"><ele>830.4</ele><time>2026-03-23T10:30:15.914Z</time></trkpt><trkpt lat="30.044932893317153" lon="-6.097651912263823"><ele>830.8</ele><time>2026-03-23T10:30:16.914Z</time></trkpt><trkpt lat="30.04487129162495" lon="-6.097745098971474"><ele>831.2</ele><time>2026-03-23T10:30:17.914Z</time></trkpt><trkpt lat="30.044803862392005" lon="-6.097855559312717"><ele>831.6</ele><time>2026-03-23T10:30:18.914Z</time></trkpt><trkpt lat="30.04474475521516" lon="-6.09796770600912"><ele>832.0</ele><time>2026-03-23T10:30:19.914Z</time></trkpt><trkpt lat="30.04468909184066" lon="-6.098060984987253"><ele>832.0</ele><time>2026-03-23T10:30:20.914Z</time></trkpt><trkpt lat="30.044653237701823" lon="-6.098157839069748"><ele>832.0</ele><time>2026-03-23T10:30:21.914Z</time></trkpt><trkpt lat="30.04461039386335" lon="-6.098292344673049"><ele>832.0</ele><time>2026-03-23T10:30:22.914Z</time></trkpt><trkpt lat="30.04455385317178" lon="-6.0984314733226554"><ele>832.0</ele><time>2026-03-23T10:30:23.914Z</time></trkpt><trkpt lat="30.044509339422792" lon="-6.098548533835194"><ele>832.2</ele><time>2026-03-23T10:30:24.914Z</time></trkpt><trkpt lat="30.044456519186685" lon="-6.098667858108685"><ele>832.4000000000001</ele><time>2026-03-23T10:30:25.914Z</time></trkpt><trkpt lat="30.044412330164874" lon="-6.098769189360819"><ele>832.5999999999999</ele><time>2026-03-23T10:30:26.914Z</time></trkpt><trkpt lat="30.04437511542762" lon="-6.098870951167038"><ele>832.8</ele><time>2026-03-23T10:30:27.914Z</time></trkpt><trkpt lat="30.044343478841977" lon="-6.098972064484482"><ele>833.0</ele><time>2026-03-23T10:30:28.914Z</time></trkpt><trkpt lat="30.044282084890988" lon="-6.0990505437893"><ele>832.75</ele><time>2026-03-23T10:30:29.914Z</time></trkpt><trkpt lat="30.04418780419716" lon="-6.099116732211687"><ele>832.5</ele><time>2026-03-23T10:30:30.914Z</time></trkpt><trkpt lat="30.044087367548116" lon="-6.09919654961138"><ele>832.25</ele><time>2026-03-23T10:30:31.914Z</time></trkpt><trkpt lat="30.043997202135692" lon="-6.099293118132264"><ele>832.0</ele><time>2026-03-23T10:30:32.914Z</time></trkpt><trkpt lat="30.04391671009258" lon="-6.099389668404294"><ele>831.8</ele><time>2026-03-23T10:30:33.914Z</time></trkpt><trkpt lat="30.043829404663935" lon="-6.099474830492818"><ele>831.6</ele><time>2026-03-23T10:30:34.914Z</time></trkpt><trkpt lat="30.043745207982845" lon="-6.099542115079036"><ele>831.4</ele><time>2026-03-23T10:30:35.914Z</time></trkpt><trkpt lat="30.043664472198582" lon="-6.099604021534065"><ele>831.1999999999999</ele><time>2026-03-23T10:30:36.914Z</time></trkpt><trkpt lat="30.0435848592685" lon="-6.099671796810287"><ele>831.0</ele><time>2026-03-23T10:30:37.914Z</time></trkpt><trkpt lat="30.04349646837727" lon="-6.099754238855108"><ele>831.0</ele><time>2026-03-23T10:30:38.914Z</time></trkpt><trkpt lat="30.043402164159584" lon="-6.0998365032772845"><ele>831.0</ele><time>2026-03-23T10:30:39.914Z</time></trkpt><trkpt lat="30.04331193015542" lon="-6.0999034111169586"><ele>831.0</ele><time>2026-03-23T10:30:40.914Z</time></trkpt><trkpt lat="30.04323542894546" lon="-6.099956344661498"><ele>831.0</ele><time>2026-03-23T10:30:41.914Z</time></trkpt><trkpt lat="30.04317746830615" lon="-6.100002896672746"><ele>831.0</ele><time>2026-03-23T10:30:42.914Z</time></trkpt><trkpt lat="30.04311567111588" lon="-6.10004303066933"><ele>830.5999999999999</ele><time>2026-03-23T10:30:44.914Z</time></trkpt><trkpt lat="30.043034716800605" lon="-6.100015663802208"><ele>830.2</ele><time>2026-03-23T10:30:47.914Z</time></trkpt><trkpt lat="30.042992624841336" lon="-6.099941772956826"><ele>829.8</ele><time>2026-03-23T10:34:38.911Z</time></trkpt><trkpt lat="30.04292924011721" lon="-6.099831081368972"><ele>829.4000000000001</ele><time>2026-03-23T10:34:40.911Z</time></trkpt><trkpt lat="30.04289221770676" lon="-6.099703053327714"><ele>829.0</ele><time>2026-03-23T10:34:42.911Z</time></trkpt><trkpt lat="30.04284432887188" lon="-6.099612485345926"><ele>829.0</ele><time>2026-03-23T10:34:43.911Z</time></trkpt><trkpt lat="30.04280764693866" lon="-6.09953719099903"><ele>829.0</ele><time>2026-03-23T10:34:44.911Z</time></trkpt><trkpt lat="30.042774507675645" lon="-6.099363654583189"><ele>829.0</ele><time>2026-03-23T10:34:46.911Z</time></trkpt><trkpt lat="30.04274533009261" lon="-6.099282055958157"><ele>829.0</ele><time>2026-03-23T10:34:47.911Z</time></trkpt><trkpt lat="30.04269095711022" lon="-6.0992254976286455"><ele>829.0</ele><time>2026-03-23T10:34:48.911Z</time></trkpt><trkpt lat="30.042581061331923" lon="-6.099153622846498"><ele>828.9999999999999</ele><time>2026-03-23T10:34:50.911Z</time></trkpt><trkpt lat="30.0425191433027" lon="-6.099117707934821"><ele>829.0</ele><time>2026-03-23T10:34:51.911Z</time></trkpt><trkpt lat="30.042437091720622" lon="-6.099084391431993"><ele>829.0</ele><time>2026-03-23T10:34:53.911Z</time></trkpt><trkpt lat="30.042352284132534" lon="-6.099060056796871"><ele>829.0</ele><time>2026-03-23T10:34:55.911Z</time></trkpt><trkpt lat="30.04228389565652" lon="-6.099024817112369"><ele>828.9999999999999</ele><time>2026-03-23T10:34:57.911Z</time></trkpt><trkpt lat="30.042219367322474" lon="-6.098973100570894"><ele>829.0</ele><time>2026-03-23T10:34:59.911Z</time></trkpt><trkpt lat="30.042139947185536" lon="-6.0989345566615265"><ele>828.6666666666666</ele><time>2026-03-23T10:35:02.911Z</time></trkpt><trkpt lat="30.042077867923098" lon="-6.098987055587475"><ele>828.3333333333333</ele><time>2026-03-23T10:35:05.911Z</time></trkpt><trkpt lat="30.04200420430017" lon="-6.099039757442958"><ele>828.0</ele><time>2026-03-23T10:35:07.911Z</time></trkpt><trkpt lat="30.041928443618932" lon="-6.099087875922362"><ele>827.6666666666667</ele><time>2026-03-23T10:35:09.911Z</time></trkpt><trkpt lat="30.041870993968658" lon="-6.09912583444014"><ele>827.3333333333334</ele><time>2026-03-23T10:35:11.911Z</time></trkpt><trkpt lat="30.041768383009863" lon="-6.099134164777478"><ele>827.0</ele><time>2026-03-23T10:35:14.911Z</time></trkpt><trkpt lat="30.041690965937732" lon="-6.099064953871809"><ele>827.0000000000001</ele><time>2026-03-23T10:35:16.911Z</time></trkpt><trkpt lat="30.041648310872304" lon="-6.098956703350073"><ele>827.0</ele><time>2026-03-23T10:35:18.911Z</time></trkpt><trkpt lat="30.04162556070208" lon="-6.098875815649548"><ele>827.0</ele><time>2026-03-23T10:35:20.911Z</time></trkpt><trkpt lat="30.04163854236336" lon="-6.098803602679294"><ele>827.0</ele><time>2026-03-23T10:35:59.911Z</time></trkpt><trkpt lat="30.0415627425558" lon="-6.09874145830384"><ele>827.0000000000001</ele><time>2026-03-23T10:36:01.911Z</time></trkpt><trkpt lat="30.041459889362304" lon="-6.098695536209601"><ele>827.0</ele><time>2026-03-23T10:36:03.911Z</time></trkpt><trkpt lat="30.04136344900588" lon="-6.098662203825022"><ele>828.0</ele><time>2026-03-23T10:36:05.911Z</time></trkpt><trkpt lat="30.041258967910434" lon="-6.098672501661409"><ele>829.0</ele><time>2026-03-23T10:36:07.911Z</time></trkpt><trkpt lat="30.04115841599401" lon="-6.098688314024468"><ele>830.0</ele><time>2026-03-23T10:36:09.911Z</time></trkpt><trkpt lat="30.0410958074115" lon="-6.0986692780630625"><ele>831.0</ele><time>2026-03-23T10:36:10.911Z</time></trkpt><trkpt lat="30.04102676714498" lon="-6.098617483379602"><ele>832.0</ele><time>2026-03-23T10:36:11.911Z</time></trkpt><trkpt lat="30.040945091884854" lon="-6.0985547952859775"><ele>832.0</ele><time>2026-03-23T10:36:12.911Z</time></trkpt><trkpt lat="30.040834270950658" lon="-6.098471321882926"><ele>832.0</ele><time>2026-03-23T10:36:13.911Z</time></trkpt><trkpt lat="30.040720077396298" lon="-6.098401840444715"><ele>832.0</ele><time>2026-03-23T10:36:14.911Z</time></trkpt><trkpt lat="30.040629665715205" lon="-6.098358776453111"><ele>832.0</ele><time>2026-03-23T10:36:15.911Z</time></trkpt><trkpt lat="30.040545645831063" lon="-6.098338714997473"><ele>832.0</ele><time>2026-03-23T10:36:16.911Z</time></trkpt><trkpt lat="30.040454998222287" lon="-6.0983573657990995"><ele>832.6</ele><time>2026-03-23T10:36:17.911Z</time></trkpt><trkpt lat="30.040361014286756" lon="-6.098392631209407"><ele>833.2</ele><time>2026-03-23T10:36:18.911Z</time></trkpt><trkpt lat="30.040256048563656" lon="-6.098412075006588"><ele>833.8</ele><time>2026-03-23T10:36:19.911Z</time></trkpt><trkpt lat="30.040136355484254" lon="-6.098404187464857"><ele>834.4</ele><time>2026-03-23T10:36:20.911Z</time></trkpt><trkpt lat="30.040027629398534" lon="-6.098384213417286"><ele>835.0</ele><time>2026-03-23T10:36:21.911Z</time></trkpt><trkpt lat="30.03994186441402" lon="-6.098381086569319"><ele>835.1666666666666</ele><time>2026-03-23T10:36:22.911Z</time></trkpt><trkpt lat="30.03986646411518" lon="-6.0983880992391075"><ele>835.3333333333333</ele><time>2026-03-23T10:36:23.911Z</time></trkpt><trkpt lat="30.039792787667775" lon="-6.098418577512715"><ele>835.5</ele><time>2026-03-23T10:36:24.911Z</time></trkpt><trkpt lat="30.03973044859356" lon="-6.0984760896068"><ele>835.6666666666667</ele><time>2026-03-23T10:36:25.911Z</time></trkpt><trkpt lat="30.03965711540725" lon="-6.09853612523131"><ele>835.8333333333334</ele><time>2026-03-23T10:36:26.911Z</time></trkpt><trkpt lat="30.039560389614437" lon="-6.098588140976825"><ele>836.0</ele><time>2026-03-23T10:36:27.911Z</time></trkpt><trkpt lat="30.03946365543362" lon="-6.098633099180751"><ele>836.0</ele><time>2026-03-23T10:36:28.911Z</time></trkpt><trkpt lat="30.03937484680327" lon="-6.0986790618315325"><ele>836.0</ele><time>2026-03-23T10:36:29.911Z</time></trkpt><trkpt lat="30.03927543935233" lon="-6.098722739226145"><ele>836.0</ele><time>2026-03-23T10:36:30.911Z</time></trkpt><trkpt lat="30.039177531332115" lon="-6.098759041318809"><ele>836.0</ele><time>2026-03-23T10:36:31.911Z</time></trkpt><trkpt lat="30.039081363238694" lon="-6.0987937828686265"><ele>836.0</ele><time>2026-03-23T10:36:32.911Z</time></trkpt><trkpt lat="30.038995442867026" lon="-6.098820072126011"><ele>837.4</ele><time>2026-03-23T10:36:33.911Z</time></trkpt><trkpt lat="30.03890958846392" lon="-6.098851772376583"><ele>838.8</ele><time>2026-03-23T10:36:34.911Z</time></trkpt><trkpt lat="30.038816358710395" lon="-6.098890925552235"><ele>840.1999999999999</ele><time>2026-03-23T10:36:35.911Z</time></trkpt><trkpt lat="30.038733010995646" lon="-6.098937983542534"><ele>841.5999999999999</ele><time>2026-03-23T10:36:36.911Z</time></trkpt><trkpt lat="30.038645972271095" lon="-6.098983280968467"><ele>843.0</ele><time>2026-03-23T10:36:37.911Z</time></trkpt><trkpt lat="30.038546869479088" lon="-6.099016673906031"><ele>843.0</ele><time>2026-03-23T10:36:38.911Z</time></trkpt><trkpt lat="30.03845163334098" lon="-6.099043540378257"><ele>843.0</ele><time>2026-03-23T10:36:39.911Z</time></trkpt><trkpt lat="30.038372722815208" lon="-6.099085050409982"><ele>843.0</ele><time>2026-03-23T10:36:40.911Z</time></trkpt><trkpt lat="30.03830535568355" lon="-6.0991222021100615"><ele>843.0</ele><time>2026-03-23T10:36:41.911Z</time></trkpt><trkpt lat="30.038218440956953" lon="-6.09915790391718"><ele>843.0</ele><time>2026-03-23T10:36:42.911Z</time></trkpt><trkpt lat="30.038128183549986" lon="-6.099183798217711"><ele>843.0</ele><time>2026-03-23T10:36:43.911Z</time></trkpt><trkpt lat="30.038045711318592" lon="-6.099200030697662"><ele>842.5999999999999</ele><time>2026-03-23T10:36:44.911Z</time></trkpt><trkpt lat="30.03796520823738" lon="-6.09921773493984"><ele>842.1999999999999</ele><time>2026-03-23T10:36:45.911Z</time></trkpt><trkpt lat="30.037872588201207" lon="-6.099245284591374"><ele>841.8</ele><time>2026-03-23T10:36:46.911Z</time></trkpt><trkpt lat="30.03776830095435" lon="-6.099268789894996"><ele>841.4</ele><time>2026-03-23T10:36:47.911Z</time></trkpt><trkpt lat="30.037667341156073" lon="-6.099291061382364"><ele>841.0</ele><time>2026-03-23T10:36:48.911Z</time></trkpt><trkpt lat="30.037556768550367" lon="-6.099312133177061"><ele>842.0</ele><time>2026-03-23T10:36:49.911Z</time></trkpt><trkpt lat="30.037439494074103" lon="-6.099314069791254"><ele>843.0</ele><time>2026-03-23T10:36:50.911Z</time></trkpt><trkpt lat="30.037320286987953" lon="-6.099302317443709"><ele>844.0</ele><time>2026-03-23T10:36:51.911Z</time></trkpt><trkpt lat="30.037204707595773" lon="-6.0992784044171895"><ele>845.0</ele><time>2026-03-23T10:36:52.911Z</time></trkpt><trkpt lat="30.03709377313838" lon="-6.099260516215213"><ele>845.0</ele><time>2026-03-23T10:36:53.911Z</time></trkpt><trkpt lat="30.036983148250336" lon="-6.0992457861768"><ele>845.0</ele><time>2026-03-23T10:36:54.911Z</time></trkpt><trkpt lat="30.03687360551431" lon="-6.099232537065268"><ele>845.0</ele><time>2026-03-23T10:36:55.911Z</time></trkpt><trkpt lat="30.03676592056728" lon="-6.099244493289263"><ele>845.0</ele><time>2026-03-23T10:36:56.911Z</time></trkpt><trkpt lat="30.036657546851316" lon="-6.099282861415289"><ele>845.0</ele><time>2026-03-23T10:36:57.911Z</time></trkpt><trkpt lat="30.036548727997342" lon="-6.099327810296584"><ele>846.4</ele><time>2026-03-23T10:36:58.911Z</time></trkpt><trkpt lat="30.036432471532482" lon="-6.099364541346891"><ele>847.8</ele><time>2026-03-23T10:36:59.911Z</time></trkpt><trkpt lat="30.03633340207401" lon="-6.099382438829408"><ele>849.2</ele><time>2026-03-23T10:37:00.911Z</time></trkpt><trkpt lat="30.036245227488354" lon="-6.09940236907743"><ele>850.6</ele><time>2026-03-23T10:37:01.911Z</time></trkpt><trkpt lat="30.036147932266577" lon="-6.099416340291794"><ele>852.0</ele><time>2026-03-23T10:37:02.911Z</time></trkpt><trkpt lat="30.03605702144055" lon="-6.099436360844766"><ele>852.0</ele><time>2026-03-23T10:37:03.911Z</time></trkpt><trkpt lat="30.03596033545714" lon="-6.0994327202144785"><ele>852.0</ele><time>2026-03-23T10:37:04.911Z</time></trkpt><trkpt lat="30.035888633837676" lon="-6.099434981366475"><ele>852.0</ele><time>2026-03-23T10:37:05.911Z</time></trkpt><trkpt lat="30.03579384867876" lon="-6.099428881054102"><ele>852.0</ele><time>2026-03-23T10:37:06.911Z</time></trkpt><trkpt lat="30.035698159188367" lon="-6.099429009943485"><ele>852.0</ele><time>2026-03-23T10:37:07.911Z</time></trkpt><trkpt lat="30.035591007189478" lon="-6.099408362200518"><ele>853.0</ele><time>2026-03-23T10:37:08.911Z</time></trkpt><trkpt lat="30.035487229758232" lon="-6.099390796475687"><ele>854.0</ele><time>2026-03-23T10:37:09.911Z</time></trkpt><trkpt lat="30.035386306798113" lon="-6.099381670146459"><ele>855.0</ele><time>2026-03-23T10:37:10.911Z</time></trkpt><trkpt lat="30.03529675802759" lon="-6.099369090185774"><ele>856.0</ele><time>2026-03-23T10:37:11.911Z</time></trkpt><trkpt lat="30.035180121579597" lon="-6.0993656156570175"><ele>857.0</ele><time>2026-03-23T10:37:12.911Z</time></trkpt><trkpt lat="30.035089292789298" lon="-6.099353696948044"><ele>857.0</ele><time>2026-03-23T10:37:13.911Z</time></trkpt><trkpt lat="30.034988385931246" lon="-6.099337854627805"><ele>857.0</ele><time>2026-03-23T10:37:14.911Z</time></trkpt><trkpt lat="30.034880838149622" lon="-6.099315347463986"><ele>857.0</ele><time>2026-03-23T10:37:15.911Z</time></trkpt><trkpt lat="30.034770791919552" lon="-6.099299228523562"><ele>857.0</ele><time>2026-03-23T10:37:16.91Z</time></trkpt><trkpt lat="30.03467698795539" lon="-6.099280171778347"><ele>857.0</ele><time>2026-03-23T10:37:17.91Z</time></trkpt><trkpt lat="30.0345825861108" lon="-6.09924500887544"><ele>858.6</ele><time>2026-03-23T10:37:18.91Z</time></trkpt><trkpt lat="30.034513077943362" lon="-6.099217165005313"><ele>860.2</ele><time>2026-03-23T10:37:19.91Z</time></trkpt><trkpt lat="30.034380612561538" lon="-6.099236739796652"><ele>861.8</ele><time>2026-03-23T10:37:21.91Z</time></trkpt><trkpt lat="30.03426378699488" lon="-6.099234157988669"><ele>863.4</ele><time>2026-03-23T10:37:23.91Z</time></trkpt><trkpt lat="30.034195057957945" lon="-6.099189299247336"><ele>865.0</ele><time>2026-03-23T10:37:24.91Z</time></trkpt><trkpt lat="30.034122499592353" lon="-6.099131181358939"><ele>865.4999999999999</ele><time>2026-03-23T10:37:25.91Z</time></trkpt><trkpt lat="30.0340545594594" lon="-6.099092341561261"><ele>866.0</ele><time>2026-03-23T10:37:26.91Z</time></trkpt><trkpt lat="30.03397566376481" lon="-6.099073565256671"><ele>866.5</ele><time>2026-03-23T10:37:27.91Z</time></trkpt><trkpt lat="30.033879807706732" lon="-6.099083650635206"><ele>867.0</ele><time>2026-03-23T10:37:28.91Z</time></trkpt><trkpt lat="30.033800425912073" lon="-6.099088558086023"><ele>867.4999999999999</ele><time>2026-03-23T10:37:29.91Z</time></trkpt><trkpt lat="30.033712178118495" lon="-6.099082244579033"><ele>868.0</ele><time>2026-03-23T10:37:30.91Z</time></trkpt><trkpt lat="30.03362488083853" lon="-6.099068368869231"><ele>868.4999999999999</ele><time>2026-03-23T10:37:31.91Z</time></trkpt><trkpt lat="30.033540379070903" lon="-6.099058776992309"><ele>869.0</ele><time>2026-03-23T10:37:32.91Z</time></trkpt><trkpt lat="30.033458054769397" lon="-6.099069988478697"><ele>869.5</ele><time>2026-03-23T10:37:33.91Z</time></trkpt><trkpt lat="30.033364160727267" lon="-6.099074886781256"><ele>870.0</ele><time>2026-03-23T10:37:34.91Z</time></trkpt><trkpt lat="30.033283840017145" lon="-6.099081099233697"><ele>870.4999999999999</ele><time>2026-03-23T10:37:35.91Z</time></trkpt><trkpt lat="30.033198853209385" lon="-6.099085943408378"><ele>871.0</ele><time>2026-03-23T10:37:36.91Z</time></trkpt><trkpt lat="30.033112205444727" lon="-6.09909409423613"><ele>871.0</ele><time>2026-03-23T10:37:37.91Z</time></trkpt><trkpt lat="30.033019488007174" lon="-6.099086706649451"><ele>870.9999999999999</ele><time>2026-03-23T10:37:38.91Z</time></trkpt><trkpt lat="30.0329259865479" lon="-6.099081850922353"><ele>870.9999999999999</ele><time>2026-03-23T10:37:39.91Z</time></trkpt><trkpt lat="30.032831692769324" lon="-6.099083583038458"><ele>871.0</ele><time>2026-03-23T10:37:40.91Z</time></trkpt><trkpt lat="30.03273167100975" lon="-6.099073718947981"><ele>871.0</ele><time>2026-03-23T10:37:41.91Z</time></trkpt><trkpt lat="30.03262670596031" lon="-6.099058874190243"><ele>873.1666666666666</ele><time>2026-03-23T10:37:42.91Z</time></trkpt><trkpt lat="30.032524131659297" lon="-6.099042347715215"><ele>875.3333333333333</ele><time>2026-03-23T10:37:43.91Z</time></trkpt><trkpt lat="30.03243372018748" lon="-6.0990205797190065"><ele>877.5</ele><time>2026-03-23T10:37:44.91Z</time></trkpt><trkpt lat="30.03236563410122" lon="-6.098993911072939"><ele>879.6666666666667</ele><time>2026-03-23T10:37:45.91Z</time></trkpt><trkpt lat="30.03229275410253" lon="-6.098974323345147"><ele>881.8333333333334</ele><time>2026-03-23T10:37:46.91Z</time></trkpt><trkpt lat="30.032212493795633" lon="-6.09896720121157"><ele>884.0</ele><time>2026-03-23T10:37:47.91Z</time></trkpt><trkpt lat="30.032133744348148" lon="-6.098941916687391"><ele>884.0000000000001</ele><time>2026-03-23T10:37:48.91Z</time></trkpt><trkpt lat="30.03205311125406" lon="-6.0989147570169235"><ele>884.0</ele><time>2026-03-23T10:37:49.909Z</time></trkpt><trkpt lat="30.031980138514633" lon="-6.098889217144412"><ele>884.0</ele><time>2026-03-23T10:37:50.91Z</time></trkpt><trkpt lat="30.03191127525396" lon="-6.098845478171994"><ele>884.0</ele><time>2026-03-23T10:37:51.91Z</time></trkpt><trkpt lat="30.031854534553705" lon="-6.098797572696825"><ele>884.0000000000001</ele><time>2026-03-23T10:37:52.91Z</time></trkpt><trkpt lat="30.031796785108586" lon="-6.098741536533221"><ele>884.0</ele><time>2026-03-23T10:37:53.91Z</time></trkpt><trkpt lat="30.031743181187732" lon="-6.098698607610632"><ele>884.0000000000001</ele><time>2026-03-23T10:37:54.91Z</time></trkpt><trkpt lat="30.031692796980767" lon="-6.0986501839808165"><ele>884.0</ele><time>2026-03-23T10:37:55.91Z</time></trkpt><trkpt lat="30.031631725324388" lon="-6.098602961641199"><ele>884.0</ele><time>2026-03-23T10:37:56.91Z</time></trkpt><trkpt lat="30.03158600884277" lon="-6.098542064570483"><ele>884.0</ele><time>2026-03-23T10:37:57.91Z</time></trkpt><trkpt lat="30.03153451277935" lon="-6.098438440643983"><ele>884.0000000000001</ele><time>2026-03-23T10:37:59.91Z</time></trkpt><trkpt lat="30.03154955621487" lon="-6.098338458879811"><ele>884.0</ele><time>2026-03-23T10:38:02.91Z</time></trkpt><trkpt lat="30.03161113734297" lon="-6.09829240600372"><ele>884.0</ele><time>2026-03-23T10:38:04.91Z</time></trkpt><trkpt lat="30.03170608373793" lon="-6.098293892176933"><ele>884.0000000000001</ele><time>2026-03-23T10:38:06.91Z</time></trkpt><trkpt lat="30.031767890136965" lon="-6.098321302115834"><ele>884.0000000000001</ele><time>2026-03-23T10:38:07.91Z</time></trkpt><trkpt lat="30.031871994463742" lon="-6.098358060415186"><ele>884.0</ele><time>2026-03-23T10:38:09.91Z</time></trkpt><trkpt lat="30.031938313930237" lon="-6.09828824288593"><ele>884.0</ele><time>2026-03-23T10:38:11.91Z</time></trkpt><trkpt lat="30.03193378288613" lon="-6.098127084437821"><ele>886.0000000000001</ele><time>2026-03-23T10:38:13.91Z</time></trkpt><trkpt lat="30.031916617200253" lon="-6.098025843909955"><ele>888.0</ele><time>2026-03-23T10:38:14.91Z</time></trkpt><trkpt lat="30.031903334429124" lon="-6.097921302394988"><ele>890.0</ele><time>2026-03-23T10:38:15.91Z</time></trkpt><trkpt lat="30.031879380736825" lon="-6.097826587017537"><ele>892.0</ele><time>2026-03-23T10:38:16.91Z</time></trkpt><trkpt lat="30.03185767383183" lon="-6.097745325485759"><ele>894.0000000000001</ele><time>2026-03-23T10:38:17.91Z</time></trkpt><trkpt lat="30.03182352703911" lon="-6.097669940169067"><ele>896.0</ele><time>2026-03-23T10:38:18.91Z</time></trkpt><trkpt lat="30.031775139446385" lon="-6.097610503490171"><ele>896.0000000000001</ele><time>2026-03-23T10:38:19.91Z</time></trkpt><trkpt lat="30.031673048388495" lon="-6.097567602319096"><ele>896.0</ele><time>2026-03-23T10:38:21.91Z</time></trkpt><trkpt lat="30.03160294390747" lon="-6.09757772759125"><ele>896.0</ele><time>2026-03-23T10:38:22.91Z</time></trkpt><trkpt lat="30.031533453629628" lon="-6.097623816111323"><ele>896.0</ele><time>2026-03-23T10:38:23.91Z</time></trkpt><trkpt lat="30.03146791843277" lon="-6.097661657750846"><ele>896.0000000000001</ele><time>2026-03-23T10:38:24.91Z</time></trkpt><trkpt lat="30.031402886617865" lon="-6.097691699420188"><ele>896.0</ele><time>2026-03-23T10:38:25.91Z</time></trkpt><trkpt lat="30.031342056180343" lon="-6.097718272855829"><ele>896.0000000000001</ele><time>2026-03-23T10:38:26.91Z</time></trkpt><trkpt lat="30.031220065132395" lon="-6.0977269093192685"><ele>896.0</ele><time>2026-03-23T10:38:28.91Z</time></trkpt><trkpt lat="30.031149577818738" lon="-6.09771494124941"><ele>896.0</ele><time>2026-03-23T10:38:29.91Z</time></trkpt><trkpt lat="30.031074475101896" lon="-6.097707265352047"><ele>896.0</ele><time>2026-03-23T10:38:30.91Z</time></trkpt><trkpt lat="30.030998585364518" lon="-6.097732474692523"><ele>896.0000000000001</ele><time>2026-03-23T10:38:31.91Z</time></trkpt><trkpt lat="30.030944556563483" lon="-6.09779175097517"><ele>896.0</ele><time>2026-03-23T10:38:32.91Z</time></trkpt><trkpt lat="30.03089401686073" lon="-6.097875620485557"><ele>896.0000000000001</ele><time>2026-03-23T10:38:33.91Z</time></trkpt><trkpt lat="30.030848381924475" lon="-6.097949853281003"><ele>896.0</ele><time>2026-03-23T10:38:34.91Z</time></trkpt><trkpt lat="30.03078569769245" lon="-6.098018599467088"><ele>896.0</ele><time>2026-03-23T10:38:35.91Z</time></trkpt><trkpt lat="30.030713862450348" lon="-6.098069056820051"><ele>896.0</ele><time>2026-03-23T10:38:36.91Z</time></trkpt><trkpt lat="30.030662085754127" lon="-6.098118717638663"><ele>896.0000000000001</ele><time>2026-03-23T10:38:37.91Z</time></trkpt><trkpt lat="30.0305819603148" lon="-6.09816031707368"><ele>896.0</ele><time>2026-03-23T10:38:38.91Z</time></trkpt><trkpt lat="30.03048247230263" lon="-6.098204539902082"><ele>894.1666666666667</ele><time>2026-03-23T10:38:39.91Z</time></trkpt><trkpt lat="30.030382765944143" lon="-6.098261011662079"><ele>892.3333333333334</ele><time>2026-03-23T10:38:40.91Z</time></trkpt><trkpt lat="30.03030555651958" lon="-6.09830434893584"><ele>890.5</ele><time>2026-03-23T10:38:41.91Z</time></trkpt><trkpt lat="30.030244337813492" lon="-6.098335363005397"><ele>888.6666666666667</ele><time>2026-03-23T10:38:42.91Z</time></trkpt><trkpt lat="30.030132422489608" lon="-6.098354215787172"><ele>886.8333333333334</ele><time>2026-03-23T10:38:44.91Z</time></trkpt><trkpt lat="30.03006882912837" lon="-6.0983638769407715"><ele>885.0</ele><time>2026-03-23T10:38:45.91Z</time></trkpt><trkpt lat="30.029987887570357" lon="-6.098378839207309"><ele>886.0</ele><time>2026-03-23T10:38:46.91Z</time></trkpt><trkpt lat="30.029911647103862" lon="-6.098399601401067"><ele>887.0</ele><time>2026-03-23T10:38:47.91Z</time></trkpt><trkpt lat="30.02979766661878" lon="-6.09844488229538"><ele>888.0</ele><time>2026-03-23T10:38:49.91Z</time></trkpt><trkpt lat="30.029734761034735" lon="-6.098472395041858"><ele>889.0</ele><time>2026-03-23T10:38:50.91Z</time></trkpt><trkpt lat="30.02967245155833" lon="-6.098501418463007"><ele>890.0</ele><time>2026-03-23T10:38:51.91Z</time></trkpt><trkpt lat="30.02957326122332" lon="-6.098521129148095"><ele>891.0</ele><time>2026-03-23T10:38:53.91Z</time></trkpt><trkpt lat="30.029516915303745" lon="-6.098476757853927"><ele>891.0000000000001</ele><time>2026-03-23T10:38:54.91Z</time></trkpt><trkpt lat="30.029460408665454" lon="-6.098435134852318"><ele>891.0</ele><time>2026-03-23T10:38:55.91Z</time></trkpt><trkpt lat="30.02940467766991" lon="-6.098387614863819"><ele>891.0</ele><time>2026-03-23T10:38:56.91Z</time></trkpt><trkpt lat="30.02935321813424" lon="-6.098340582061585"><ele>891.0</ele><time>2026-03-23T10:38:57.91Z</time></trkpt><trkpt lat="30.02929039861446" lon="-6.0983014934663355"><ele>891.0</ele><time>2026-03-23T10:38:58.91Z</time></trkpt><trkpt lat="30.02919537645063" lon="-6.098256630298182"><ele>891.0000000000001</ele><time>2026-03-23T10:39:00.91Z</time></trkpt><trkpt lat="30.029136347423123" lon="-6.098213144739978"><ele>891.0</ele><time>2026-03-23T10:39:01.91Z</time></trkpt><trkpt lat="30.02906292819261" lon="-6.098178136175614"><ele>891.5714285714287</ele><time>2026-03-23T10:39:02.91Z</time></trkpt><trkpt lat="30.029006122561213" lon="-6.098139603936907"><ele>892.1428571428571</ele><time>2026-03-23T10:39:03.91Z</time></trkpt><trkpt lat="30.02894184369302" lon="-6.0980991503505555"><ele>892.7142857142858</ele><time>2026-03-23T10:39:04.91Z</time></trkpt><trkpt lat="30.028876442465553" lon="-6.0980716327086695"><ele>893.2857142857143</ele><time>2026-03-23T10:39:05.909Z</time></trkpt><trkpt lat="30.028804218484215" lon="-6.0980382327792935"><ele>893.8571428571429</ele><time>2026-03-23T10:39:06.909Z</time></trkpt><trkpt lat="30.028730722095915" lon="-6.098021500791654"><ele>894.4285714285714</ele><time>2026-03-23T10:39:07.909Z</time></trkpt><trkpt lat="30.02865691215893" lon="-6.098007181461903"><ele>895.0</ele><time>2026-03-23T10:39:08.909Z</time></trkpt><trkpt lat="30.02856945355614" lon="-6.098034295099747"><ele>894.9999999999999</ele><time>2026-03-23T10:39:09.909Z</time></trkpt><trkpt lat="30.02848976016332" lon="-6.098047850843246"><ele>895.0</ele><time>2026-03-23T10:39:10.909Z</time></trkpt><trkpt lat="30.02841554995513" lon="-6.098011835625139"><ele>895.0</ele><time>2026-03-23T10:39:11.909Z</time></trkpt><trkpt lat="30.02835084343826" lon="-6.097946138823707"><ele>895.0</ele><time>2026-03-23T10:39:12.909Z</time></trkpt><trkpt lat="30.028287378038367" lon="-6.097896497559348"><ele>894.9999999999999</ele><time>2026-03-23T10:39:13.909Z</time></trkpt><trkpt lat="30.02818738903295" lon="-6.097852705815223"><ele>895.0</ele><time>2026-03-23T10:39:15.909Z</time></trkpt><trkpt lat="30.0280781018358" lon="-6.0978541313841115"><ele>894.6</ele><time>2026-03-23T10:39:17.909Z</time></trkpt><trkpt lat="30.027959424761256" lon="-6.097843759765062"><ele>894.2</ele><time>2026-03-23T10:39:19.909Z</time></trkpt><trkpt lat="30.02788448737556" lon="-6.0978241904361745"><ele>893.8</ele><time>2026-03-23T10:39:20.909Z</time></trkpt><trkpt lat="30.027808187691935" lon="-6.097798180138115"><ele>893.4</ele><time>2026-03-23T10:39:21.909Z</time></trkpt><trkpt lat="30.02771636250952" lon="-6.09776645284183"><ele>893.0</ele><time>2026-03-23T10:39:22.909Z</time></trkpt><trkpt lat="30.02762381951851" lon="-6.097744844441205"><ele>893.0</ele><time>2026-03-23T10:39:23.909Z</time></trkpt><trkpt lat="30.02753328366932" lon="-6.097721838554684"><ele>893.0</ele><time>2026-03-23T10:39:24.909Z</time></trkpt><trkpt lat="30.027435541798113" lon="-6.0977120950312855"><ele>893.0</ele><time>2026-03-23T10:39:25.909Z</time></trkpt><trkpt lat="30.02733452738577" lon="-6.097691621242905"><ele>893.0</ele><time>2026-03-23T10:39:26.909Z</time></trkpt><trkpt lat="30.027247482156447" lon="-6.097670127575646"><ele>893.0</ele><time>2026-03-23T10:39:27.909Z</time></trkpt><trkpt lat="30.027172946235655" lon="-6.097648106163747"><ele>893.75</ele><time>2026-03-23T10:39:28.909Z</time></trkpt><trkpt lat="30.027025735675505" lon="-6.097616693942536"><ele>894.5</ele><time>2026-03-23T10:39:30.909Z</time></trkpt><trkpt lat="30.026910891919265" lon="-6.097610955482897"><ele>895.25</ele><time>2026-03-23T10:39:31.909Z</time></trkpt><trkpt lat="30.026767837694344" lon="-6.097586892155915"><ele>896.0</ele><time>2026-03-23T10:39:32.909Z</time></trkpt><trkpt lat="30.02665030688277" lon="-6.097578591711483"><ele>896.8</ele><time>2026-03-23T10:39:33.909Z</time></trkpt><trkpt lat="30.026552930112263" lon="-6.097583554748586"><ele>897.5999999999999</ele><time>2026-03-23T10:39:34.909Z</time></trkpt><trkpt lat="30.026444296633084" lon="-6.097590369468079"><ele>898.4</ele><time>2026-03-23T10:39:35.909Z</time></trkpt><trkpt lat="30.026334880088356" lon="-6.097584093496745"><ele>899.2</ele><time>2026-03-23T10:39:36.909Z</time></trkpt><trkpt lat="30.0262210756301" lon="-6.097580111475417"><ele>900.0</ele><time>2026-03-23T10:39:37.909Z</time></trkpt><trkpt lat="30.02612322962359" lon="-6.097577066302954"><ele>900.0</ele><time>2026-03-23T10:39:38.909Z</time></trkpt><trkpt lat="30.026040185038926" lon="-6.097578910248137"><ele>900.0</ele><time>2026-03-23T10:39:39.909Z</time></trkpt><trkpt lat="30.025941602619298" lon="-6.097571984517176"><ele>900.0</ele><time>2026-03-23T10:39:40.909Z</time></trkpt><trkpt lat="30.025852539865646" lon="-6.097549919347742"><ele>900.0</ele><time>2026-03-23T10:39:41.909Z</time></trkpt><trkpt lat="30.025758758983088" lon="-6.097550447530128"><ele>900.0</ele><time>2026-03-23T10:39:42.909Z</time></trkpt><trkpt lat="30.025666042801326" lon="-6.097563954168264"><ele>900.6</ele><time>2026-03-23T10:39:43.909Z</time></trkpt><trkpt lat="30.02558323096433" lon="-6.097572726426726"><ele>901.2</ele><time>2026-03-23T10:39:44.909Z</time></trkpt><trkpt lat="30.02550497650029" lon="-6.097572303367186"><ele>901.8</ele><time>2026-03-23T10:39:45.909Z</time></trkpt><trkpt lat="30.025403831370017" lon="-6.097554504165915"><ele>902.4</ele><time>2026-03-23T10:39:46.909Z</time></trkpt><trkpt lat="30.025283407604547" lon="-6.097557399548959"><ele>903.0</ele><time>2026-03-23T10:39:47.908Z</time></trkpt><trkpt lat="30.02516325291259" lon="-6.097555194084862"><ele>903.0</ele><time>2026-03-23T10:39:48.908Z</time></trkpt><trkpt lat="30.02504918167241" lon="-6.097547138737354"><ele>903.0</ele><time>2026-03-23T10:39:49.909Z</time></trkpt><trkpt lat="30.02493646681866" lon="-6.097537133977551"><ele>903.0</ele><time>2026-03-23T10:39:50.908Z</time></trkpt><trkpt lat="30.024833125566552" lon="-6.097517824248019"><ele>903.0</ele><time>2026-03-23T10:39:51.908Z</time></trkpt><trkpt lat="30.024720882633435" lon="-6.097500073396226"><ele>903.0</ele><time>2026-03-23T10:39:52.909Z</time></trkpt><trkpt lat="30.02461537033597" lon="-6.0974709188324825"><ele>904.75</ele><time>2026-03-23T10:39:53.909Z</time></trkpt><trkpt lat="30.024502248663516" lon="-6.097403561694265"><ele>906.5</ele><time>2026-03-23T10:39:54.909Z</time></trkpt><trkpt lat="30.024385014836938" lon="-6.097320947914013"><ele>908.25</ele><time>2026-03-23T10:39:55.909Z</time></trkpt><trkpt lat="30.024272723612007" lon="-6.097263642858706"><ele>910.0</ele><time>2026-03-23T10:39:56.909Z</time></trkpt><trkpt lat="30.02417119236347" lon="-6.097224576402729"><ele>909.6</ele><time>2026-03-23T10:39:57.909Z</time></trkpt><trkpt lat="30.024065116299248" lon="-6.097197306623571"><ele>909.2</ele><time>2026-03-23T10:39:58.909Z</time></trkpt><trkpt lat="30.023963323190873" lon="-6.097169543054957"><ele>908.8</ele><time>2026-03-23T10:39:59.909Z</time></trkpt><trkpt lat="30.023862268605566" lon="-6.097158986024321"><ele>908.4</ele><time>2026-03-23T10:40:00.909Z</time></trkpt><trkpt lat="30.0237580862741" lon="-6.097156313770715"><ele>908.0</ele><time>2026-03-23T10:40:01.909Z</time></trkpt><trkpt lat="30.023650499363427" lon="-6.097147905563222"><ele>908.0000000000001</ele><time>2026-03-23T10:40:02.909Z</time></trkpt><trkpt lat="30.023543363018643" lon="-6.097142266433858"><ele>908.0</ele><time>2026-03-23T10:40:03.909Z</time></trkpt><trkpt lat="30.02345571983519" lon="-6.097125467341549"><ele>908.0</ele><time>2026-03-23T10:40:04.909Z</time></trkpt><trkpt lat="30.023369610440437" lon="-6.097106177035565"><ele>908.0</ele><time>2026-03-23T10:40:05.909Z</time></trkpt><trkpt lat="30.023288461310965" lon="-6.097086590662614"><ele>908.0000000000001</ele><time>2026-03-23T10:40:06.909Z</time></trkpt><trkpt lat="30.02320806305422" lon="-6.09707139719956"><ele>908.0</ele><time>2026-03-23T10:40:07.909Z</time></trkpt><trkpt lat="30.023143000266984" lon="-6.097059334163845"><ele>908.1666666666667</ele><time>2026-03-23T10:40:08.909Z</time></trkpt><trkpt lat="30.023036278140815" lon="-6.096969418755393"><ele>908.3333333333334</ele><time>2026-03-23T10:40:10.909Z</time></trkpt><trkpt lat="30.02299092176675" lon="-6.096903609953365"><ele>908.5</ele><time>2026-03-23T10:40:11.909Z</time></trkpt><trkpt lat="30.022941966998076" lon="-6.096835216785847"><ele>908.6666666666667</ele><time>2026-03-23T10:40:12.909Z</time></trkpt><trkpt lat="30.02288354693709" lon="-6.0967732453327805"><ele>908.8333333333334</ele><time>2026-03-23T10:40:13.909Z</time></trkpt><trkpt lat="30.022806944981678" lon="-6.096724026503906"><ele>909.0</ele><time>2026-03-23T10:40:14.909Z</time></trkpt><trkpt lat="30.022724307496713" lon="-6.09668027425821"><ele>909.0</ele><time>2026-03-23T10:40:15.909Z</time></trkpt><trkpt lat="30.022647925306895" lon="-6.096633022068265"><ele>909.0000000000001</ele><time>2026-03-23T10:40:16.909Z</time></trkpt><trkpt lat="30.02256218087184" lon="-6.096593074442734"><ele>909.0000000000001</ele><time>2026-03-23T10:40:17.909Z</time></trkpt><trkpt lat="30.02247613879272" lon="-6.096558021701191"><ele>909.0</ele><time>2026-03-23T10:40:18.909Z</time></trkpt><trkpt lat="30.022386349175584" lon="-6.096531527176213"><ele>909.0</ele><time>2026-03-23T10:40:19.909Z</time></trkpt><trkpt lat="30.02230136054229" lon="-6.096507239192978"><ele>910.3333333333334</ele><time>2026-03-23T10:40:20.909Z</time></trkpt><trkpt lat="30.02221709642621" lon="-6.096482780489754"><ele>911.6666666666667</ele><time>2026-03-23T10:40:21.909Z</time></trkpt><trkpt lat="30.022137689103626" lon="-6.096460355698906"><ele>913.0</ele><time>2026-03-23T10:40:22.909Z</time></trkpt><trkpt lat="30.022060510985682" lon="-6.096426443629806"><ele>914.3333333333334</ele><time>2026-03-23T10:40:23.909Z</time></trkpt><trkpt lat="30.02198537712696" lon="-6.096393647824472"><ele>915.6666666666667</ele><time>2026-03-23T10:40:24.909Z</time></trkpt><trkpt lat="30.021924443760515" lon="-6.096359267283066"><ele>917.0</ele><time>2026-03-23T10:40:25.909Z</time></trkpt><trkpt lat="30.021860341896375" lon="-6.096332053560927"><ele>917.0000000000001</ele><time>2026-03-23T10:40:26.909Z</time></trkpt><trkpt lat="30.021775049110218" lon="-6.096310800261917"><ele>917.0</ele><time>2026-03-23T10:40:27.909Z</time></trkpt><trkpt lat="30.021704699108728" lon="-6.096281950337152"><ele>917.0</ele><time>2026-03-23T10:40:28.909Z</time></trkpt><trkpt lat="30.021626169127877" lon="-6.096261379312852"><ele>917.0</ele><time>2026-03-23T10:40:29.908Z</time></trkpt><trkpt lat="30.02155192198854" lon="-6.096232476344142"><ele>917.0000000000001</ele><time>2026-03-23T10:40:30.908Z</time></trkpt><trkpt lat="30.021476920232036" lon="-6.096211320216971"><ele>917.0</ele><time>2026-03-23T10:40:31.908Z</time></trkpt><trkpt lat="30.021401668950567" lon="-6.096199457459507"><ele>918.0</ele><time>2026-03-23T10:40:32.908Z</time></trkpt><trkpt lat="30.021308726694524" lon="-6.096146330799875"><ele>919.0</ele><time>2026-03-23T10:40:34.908Z</time></trkpt><trkpt lat="30.021244235316047" lon="-6.09604393485333"><ele>920.0</ele><time>2026-03-23T10:40:36.908Z</time></trkpt><trkpt lat="30.021172041753438" lon="-6.095981624489383"><ele>921.0</ele><time>2026-03-23T10:40:38.908Z</time></trkpt><trkpt lat="30.02108910791832" lon="-6.095878104478505"><ele>922.0</ele><time>2026-03-23T10:40:40.908Z</time></trkpt><trkpt lat="30.021041761977568" lon="-6.095826407090256"><ele>922.1666666666666</ele><time>2026-03-23T10:40:41.908Z</time></trkpt><trkpt lat="30.020918978227268" lon="-6.095731954931971"><ele>922.3333333333333</ele><time>2026-03-23T10:40:43.908Z</time></trkpt><trkpt lat="30.020861631780203" lon="-6.095675761472562"><ele>922.5</ele><time>2026-03-23T10:40:44.908Z</time></trkpt><trkpt lat="30.020823216641435" lon="-6.095614774089312"><ele>922.6666666666667</ele><time>2026-03-23T10:40:45.908Z</time></trkpt><trkpt lat="30.020788714408855" lon="-6.095545539997383"><ele>922.8333333333334</ele><time>2026-03-23T10:40:46.908Z</time></trkpt><trkpt lat="30.020744067014363" lon="-6.095471142018634"><ele>923.0</ele><time>2026-03-23T10:40:47.908Z</time></trkpt><trkpt lat="30.02068197811203" lon="-6.095391556135974"><ele>925.0</ele><time>2026-03-23T10:40:48.908Z</time></trkpt><trkpt lat="30.02061650734648" lon="-6.095323247267323"><ele>927.0</ele><time>2026-03-23T10:40:49.908Z</time></trkpt><trkpt lat="30.020542845531736" lon="-6.095251641509858"><ele>929.0</ele><time>2026-03-23T10:40:50.908Z</time></trkpt><trkpt lat="30.020447786539084" lon="-6.0951823980141775"><ele>931.0</ele><time>2026-03-23T10:40:51.908Z</time></trkpt><trkpt lat="30.020351813623034" lon="-6.095097377491651"><ele>933.0</ele><time>2026-03-23T10:40:52.908Z</time></trkpt><trkpt lat="30.020270854199186" lon="-6.095029307572922"><ele>933.0</ele><time>2026-03-23T10:40:53.908Z</time></trkpt><trkpt lat="30.020195422563226" lon="-6.095002017827859"><ele>933.0</ele><time>2026-03-23T10:40:54.908Z</time></trkpt><trkpt lat="30.02013181286869" lon="-6.095018831438568"><ele>933.0</ele><time>2026-03-23T10:40:55.908Z</time></trkpt><trkpt lat="30.02004432700654" lon="-6.095035819500909"><ele>933.0</ele><time>2026-03-23T10:40:56.908Z</time></trkpt><trkpt lat="30.01995707031988" lon="-6.095055545084635"><ele>933.0</ele><time>2026-03-23T10:40:57.908Z</time></trkpt><trkpt lat="30.019869148462394" lon="-6.0950632467389445"><ele>933.0</ele><time>2026-03-23T10:40:58.908Z</time></trkpt><trkpt lat="30.01980121932529" lon="-6.095038304712796"><ele>934.2</ele><time>2026-03-23T10:40:59.908Z</time></trkpt><trkpt lat="30.019739226830502" lon="-6.094977776153807"><ele>935.4</ele><time>2026-03-23T10:41:00.908Z</time></trkpt><trkpt lat="30.019645294408022" lon="-6.094895939458274"><ele>936.6000000000001</ele><time>2026-03-23T10:41:02.908Z</time></trkpt><trkpt lat="30.01956194669993" lon="-6.094836701747219"><ele>937.8000000000001</ele><time>2026-03-23T10:41:04.908Z</time></trkpt><trkpt lat="30.019416852767844" lon="-6.094846471890002"><ele>939.0</ele><time>2026-03-23T10:41:06.908Z</time></trkpt><trkpt lat="30.01931884430573" lon="-6.0948539702327675"><ele>940.8000000000001</ele><time>2026-03-23T10:41:07.908Z</time></trkpt><trkpt lat="30.019229878137473" lon="-6.094848628683841"><ele>942.6000000000001</ele><time>2026-03-23T10:41:08.908Z</time></trkpt><trkpt lat="30.019138245318043" lon="-6.094836901022382"><ele>944.4</ele><time>2026-03-23T10:41:09.908Z</time></trkpt><trkpt lat="30.01902963267109" lon="-6.094790189740187"><ele>946.2</ele><time>2026-03-23T10:41:11.908Z</time></trkpt><trkpt lat="30.0189768151084" lon="-6.094749989499522"><ele>948.0</ele><time>2026-03-23T10:41:12.908Z</time></trkpt><trkpt lat="30.018877545563523" lon="-6.094664086708311"><ele>948.0</ele><time>2026-03-23T10:41:14.908Z</time></trkpt><trkpt lat="30.018814848613218" lon="-6.094635310781007"><ele>948.0</ele><time>2026-03-23T10:41:15.908Z</time></trkpt><trkpt lat="30.01875365120479" lon="-6.094598666207403"><ele>948.0</ele><time>2026-03-23T10:41:16.908Z</time></trkpt><trkpt lat="30.01867560985639" lon="-6.094498580789693"><ele>948.0</ele><time>2026-03-23T10:41:18.908Z</time></trkpt><trkpt lat="30.01862929373789" lon="-6.094374415787557"><ele>948.0</ele><time>2026-03-23T10:41:20.908Z</time></trkpt><trkpt lat="30.01857622337093" lon="-6.09429071960152"><ele>948.0</ele><time>2026-03-23T10:41:22.908Z</time></trkpt><trkpt lat="30.018476575094898" lon="-6.094276555513824"><ele>948.0</ele><time>2026-03-23T10:41:24.908Z</time></trkpt><trkpt lat="30.0183819665666" lon="-6.094303824254723"><ele>948.0</ele><time>2026-03-23T10:41:26.908Z</time></trkpt><trkpt lat="30.018294649262014" lon="-6.094313220162626"><ele>948.0</ele><time>2026-03-23T10:41:28.908Z</time></trkpt><trkpt lat="30.018163321859053" lon="-6.094337577881737"><ele>948.0</ele><time>2026-03-23T10:41:30.908Z</time></trkpt><trkpt lat="30.018064268503597" lon="-6.094349815249387"><ele>947.6666666666666</ele><time>2026-03-23T10:41:31.908Z</time></trkpt><trkpt lat="30.017994289848964" lon="-6.0943625383905315"><ele>947.3333333333333</ele><time>2026-03-23T10:41:32.908Z</time></trkpt><trkpt lat="30.017893589179053" lon="-6.094390694714107"><ele>947.0</ele><time>2026-03-23T10:41:34.908Z</time></trkpt><trkpt lat="30.01781408065429" lon="-6.094409644344469"><ele>946.6666666666666</ele><time>2026-03-23T10:41:36.908Z</time></trkpt><trkpt lat="30.01772611838782" lon="-6.094434902828887"><ele>946.3333333333333</ele><time>2026-03-23T10:41:38.908Z</time></trkpt><trkpt lat="30.017651051886325" lon="-6.094450545192969"><ele>946.0</ele><time>2026-03-23T10:41:40.908Z</time></trkpt><trkpt lat="30.017575860770187" lon="-6.0944706786340594"><ele>945.3333333333333</ele><time>2026-03-23T10:41:43.908Z</time></trkpt><trkpt lat="30.017467833702042" lon="-6.094523150911758"><ele>944.6666666666666</ele><time>2026-03-23T10:43:11.908Z</time></trkpt><trkpt lat="30.017412943689607" lon="-6.094585212554182"><ele>944.0</ele><time>2026-03-23T10:43:12.908Z</time></trkpt><trkpt lat="30.017354142329413" lon="-6.094632361301888"><ele>943.3333333333333</ele><time>2026-03-23T10:43:13.908Z</time></trkpt><trkpt lat="30.0172717442495" lon="-6.0946474654026925"><ele>942.6666666666666</ele><time>2026-03-23T10:43:14.908Z</time></trkpt><trkpt lat="30.017174715609517" lon="-6.094670948394569"><ele>942.0</ele><time>2026-03-23T10:43:15.908Z</time></trkpt><trkpt lat="30.017086509588975" lon="-6.094678198520529"><ele>942.0</ele><time>2026-03-23T10:43:16.908Z</time></trkpt><trkpt lat="30.016970562309147" lon="-6.094693618425919"><ele>942.0</ele><time>2026-03-23T10:43:17.908Z</time></trkpt><trkpt lat="30.016833117579544" lon="-6.094702597632542"><ele>942.0</ele><time>2026-03-23T10:43:18.908Z</time></trkpt><trkpt lat="30.01672364647421" lon="-6.0947227952649135"><ele>942.0</ele><time>2026-03-23T10:43:19.908Z</time></trkpt><trkpt lat="30.016617388910017" lon="-6.094758756996941"><ele>942.0</ele><time>2026-03-23T10:43:20.907Z</time></trkpt><trkpt lat="30.016503340113186" lon="-6.09478073780339"><ele>942.0</ele><time>2026-03-23T10:43:21.907Z</time></trkpt><trkpt lat="30.01638566740016" lon="-6.094796867715537"><ele>942.0</ele><time>2026-03-23T10:43:22.907Z</time></trkpt><trkpt lat="30.01627464001087" lon="-6.094814602968086"><ele>942.0</ele><time>2026-03-23T10:43:23.907Z</time></trkpt><trkpt lat="30.016169659281964" lon="-6.094834930310818"><ele>942.0</ele><time>2026-03-23T10:43:24.907Z</time></trkpt><trkpt lat="30.016084000655482" lon="-6.094867185368698"><ele>942.0</ele><time>2026-03-23T10:43:25.907Z</time></trkpt><trkpt lat="30.01600755760125" lon="-6.094926600075347"><ele>942.0</ele><time>2026-03-23T10:43:26.907Z</time></trkpt><trkpt lat="30.015940001144845" lon="-6.094987713273328"><ele>942.0</ele><time>2026-03-23T10:43:27.907Z</time></trkpt><trkpt lat="30.01589238930521" lon="-6.095055148512926"><ele>942.0</ele><time>2026-03-23T10:43:28.907Z</time></trkpt><trkpt lat="30.015792452824964" lon="-6.095099443124798"><ele>942.8333333333334</ele><time>2026-03-23T10:43:30.907Z</time></trkpt><trkpt lat="30.015712263120275" lon="-6.095109879932896"><ele>943.6666666666667</ele><time>2026-03-23T10:43:31.907Z</time></trkpt><trkpt lat="30.015632075795793" lon="-6.095122703595242"><ele>944.5</ele><time>2026-03-23T10:43:32.907Z</time></trkpt><trkpt lat="30.015540972596465" lon="-6.095124129371949"><ele>945.3333333333334</ele><time>2026-03-23T10:43:33.907Z</time></trkpt><trkpt lat="30.015459810367904" lon="-6.095101152276468"><ele>946.1666666666667</ele><time>2026-03-23T10:43:34.907Z</time></trkpt><trkpt lat="30.015394031796244" lon="-6.095093315209766"><ele>947.0</ele><time>2026-03-23T10:43:35.907Z</time></trkpt><trkpt lat="30.01532570367765" lon="-6.095093511882693"><ele>947.0</ele><time>2026-03-23T10:43:36.907Z</time></trkpt><trkpt lat="30.01523647147747" lon="-6.095150275018125"><ele>947.0</ele><time>2026-03-23T10:43:38.907Z</time></trkpt><trkpt lat="30.015203772756767" lon="-6.095255502828594"><ele>947.0</ele><time>2026-03-23T10:43:40.907Z</time></trkpt><trkpt lat="30.01520601324557" lon="-6.095410866111117"><ele>947.0</ele><time>2026-03-23T10:43:42.907Z</time></trkpt><trkpt lat="30.01519987653659" lon="-6.09549057240743"><ele>947.0</ele><time>2026-03-23T10:43:43.907Z</time></trkpt><trkpt lat="30.015166728894087" lon="-6.095564211499222"><ele>947.0000000000001</ele><time>2026-03-23T10:43:44.907Z</time></trkpt><trkpt lat="30.01514488655271" lon="-6.095633668323404"><ele>947.0</ele><time>2026-03-23T10:43:45.907Z</time></trkpt><trkpt lat="30.015098223466804" lon="-6.095711727809567"><ele>947.0</ele><time>2026-03-23T10:43:47.907Z</time></trkpt><trkpt lat="30.01499679755148" lon="-6.095712258440238"><ele>947.0</ele><time>2026-03-23T10:43:49.907Z</time></trkpt><trkpt lat="30.014889764610807" lon="-6.095674033219729"><ele>947.0000000000001</ele><time>2026-03-23T10:43:51.907Z</time></trkpt><trkpt lat="30.014805827918295" lon="-6.0956804628297565"><ele>947.0</ele><time>2026-03-23T10:43:52.907Z</time></trkpt><trkpt lat="30.01471970286604" lon="-6.095687585551301"><ele>947.2857142857142</ele><time>2026-03-23T10:43:53.907Z</time></trkpt><trkpt lat="30.014653226940464" lon="-6.095683537799099"><ele>947.5714285714284</ele><time>2026-03-23T10:43:54.907Z</time></trkpt><trkpt lat="30.014589227226995" lon="-6.095648122842226"><ele>947.8571428571429</ele><time>2026-03-23T10:43:55.907Z</time></trkpt><trkpt lat="30.014520795461205" lon="-6.095609449589281"><ele>948.1428571428571</ele><time>2026-03-23T10:43:56.907Z</time></trkpt><trkpt lat="30.0144502257226" lon="-6.095574295339486"><ele>948.4285714285714</ele><time>2026-03-23T10:43:57.907Z</time></trkpt><trkpt lat="30.014384605517186" lon="-6.095557141897293"><ele>948.7142857142858</ele><time>2026-03-23T10:43:58.907Z</time></trkpt><trkpt lat="30.014309575474197" lon="-6.095545954026542"><ele>949.0000000000001</ele><time>2026-03-23T10:43:59.906Z</time></trkpt><trkpt lat="30.014237199407617" lon="-6.095551044147923"><ele>948.9999999999999</ele><time>2026-03-23T10:44:00.906Z</time></trkpt><trkpt lat="30.01416246992944" lon="-6.095556654507801"><ele>949.0</ele><time>2026-03-23T10:44:01.907Z</time></trkpt><trkpt lat="30.014080949256904" lon="-6.095590347398762"><ele>949.0</ele><time>2026-03-23T10:44:02.906Z</time></trkpt><trkpt lat="30.014005390288695" lon="-6.095619234708025"><ele>949.0</ele><time>2026-03-23T10:44:03.906Z</time></trkpt><trkpt lat="30.013926339562314" lon="-6.095638989476846"><ele>948.9999999999999</ele><time>2026-03-23T10:44:04.907Z</time></trkpt><trkpt lat="30.013847714562814" lon="-6.095650163362055"><ele>949.0</ele><time>2026-03-23T10:44:05.907Z</time></trkpt><trkpt lat="30.01377005924254" lon="-6.095645506050034"><ele>948.1666666666666</ele><time>2026-03-23T10:44:06.907Z</time></trkpt><trkpt lat="30.013689541225038" lon="-6.095634464341375"><ele>947.3333333333333</ele><time>2026-03-23T10:44:07.906Z</time></trkpt><trkpt lat="30.013608130601256" lon="-6.095628829412192"><ele>946.5</ele><time>2026-03-23T10:44:08.907Z</time></trkpt><trkpt lat="30.013519116746927" lon="-6.095638779941878"><ele>945.6666666666667</ele><time>2026-03-23T10:44:09.907Z</time></trkpt><trkpt lat="30.01342582549428" lon="-6.095663918948231"><ele>944.8333333333334</ele><time>2026-03-23T10:44:10.907Z</time></trkpt><trkpt lat="30.01334074821362" lon="-6.095686047301073"><ele>944.0</ele><time>2026-03-23T10:44:11.907Z</time></trkpt><trkpt lat="30.013260651256616" lon="-6.095727214326315"><ele>949.0000000000001</ele><time>2026-03-23T10:44:12.907Z</time></trkpt><trkpt lat="30.013182210376957" lon="-6.095760474191895"><ele>954.0</ele><time>2026-03-23T10:44:13.907Z</time></trkpt><trkpt lat="30.013108605490938" lon="-6.095813119745453"><ele>959.0</ele><time>2026-03-23T10:44:14.907Z</time></trkpt><trkpt lat="30.01305130358425" lon="-6.095868808783985"><ele>964.0</ele><time>2026-03-23T10:44:15.907Z</time></trkpt><trkpt lat="30.012999053340323" lon="-6.095920080084121"><ele>969.0000000000001</ele><time>2026-03-23T10:44:16.907Z</time></trkpt><trkpt lat="30.01293490449574" lon="-6.095935105578259"><ele>974.0</ele><time>2026-03-23T10:44:17.907Z</time></trkpt><trkpt lat="30.01285342030032" lon="-6.095922510104457"><ele>974.0000000000001</ele><time>2026-03-23T10:44:18.907Z</time></trkpt><trkpt lat="30.012772134833412" lon="-6.095910642250899"><ele>974.0</ele><time>2026-03-23T10:44:19.907Z</time></trkpt><trkpt lat="30.012702288793037" lon="-6.09590424987369"><ele>974.0</ele><time>2026-03-23T10:44:20.907Z</time></trkpt><trkpt lat="30.01257778241766" lon="-6.095943264226955"><ele>974.0</ele><time>2026-03-23T10:44:22.907Z</time></trkpt><trkpt lat="30.01249861937514" lon="-6.095970507431592"><ele>974.0000000000001</ele><time>2026-03-23T10:44:23.907Z</time></trkpt><trkpt lat="30.012421625234154" lon="-6.095993840366568"><ele>974.0</ele><time>2026-03-23T10:44:24.907Z</time></trkpt><trkpt lat="30.01230758079866" lon="-6.0959996755317425"><ele>974.5000000000001</ele><time>2026-03-23T10:44:26.907Z</time></trkpt><trkpt lat="30.012183107571182" lon="-6.09599720338355"><ele>975.0</ele><time>2026-03-23T10:44:28.907Z</time></trkpt><trkpt lat="30.01211582641685" lon="-6.096022295345634"><ele>975.5</ele><time>2026-03-23T10:44:29.907Z</time></trkpt><trkpt lat="30.01204327285557" lon="-6.096054614624327"><ele>976.0</ele><time>2026-03-23T10:44:30.907Z</time></trkpt><trkpt lat="30.01197757574608" lon="-6.096094155851287"><ele>976.5000000000001</ele><time>2026-03-23T10:44:31.907Z</time></trkpt><trkpt lat="30.011908434251218" lon="-6.096145246701517"><ele>977.0</ele><time>2026-03-23T10:44:32.907Z</time></trkpt><trkpt lat="30.011835848446186" lon="-6.096188089130055"><ele>977.0000000000001</ele><time>2026-03-23T10:44:33.907Z</time></trkpt><trkpt lat="30.01176176626336" lon="-6.0962207812997855"><ele>977.0</ele><time>2026-03-23T10:44:34.907Z</time></trkpt><trkpt lat="30.01169305036414" lon="-6.096262082500425"><ele>977.0</ele><time>2026-03-23T10:44:35.907Z</time></trkpt><trkpt lat="30.011622274327262" lon="-6.096301436615804"><ele>977.0</ele><time>2026-03-23T10:44:36.907Z</time></trkpt><trkpt lat="30.01155325330706" lon="-6.096333755190842"><ele>977.0000000000001</ele><time>2026-03-23T10:44:37.907Z</time></trkpt><trkpt lat="30.01148508432721" lon="-6.096372031998304"><ele>977.0</ele><time>2026-03-23T10:44:38.907Z</time></trkpt><trkpt lat="30.01141192400349" lon="-6.096400379610258"><ele>979.1666666666667</ele><time>2026-03-23T10:44:39.907Z</time></trkpt><trkpt lat="30.01133255769675" lon="-6.096428553999707"><ele>981.3333333333334</ele><time>2026-03-23T10:44:40.907Z</time></trkpt><trkpt lat="30.01126143565814" lon="-6.0964632685527125"><ele>983.5</ele><time>2026-03-23T10:44:41.907Z</time></trkpt><trkpt lat="30.011193067586007" lon="-6.096507689009786"><ele>985.6666666666667</ele><time>2026-03-23T10:44:42.907Z</time></trkpt><trkpt lat="30.011135038781624" lon="-6.096557692186975"><ele>987.8333333333334</ele><time>2026-03-23T10:44:43.907Z</time></trkpt><trkpt lat="30.01107808200316" lon="-6.096600580789828"><ele>990.0</ele><time>2026-03-23T10:44:44.907Z</time></trkpt><trkpt lat="30.01096749536899" lon="-6.09664936422103"><ele>990.0</ele><time>2026-03-23T10:44:46.907Z</time></trkpt><trkpt lat="30.010903570474298" lon="-6.096692755879667"><ele>990.0</ele><time>2026-03-23T10:44:48.907Z</time></trkpt><trkpt lat="30.01088090197329" lon="-6.096760641925125"><ele>990.0</ele><time>2026-03-23T10:44:50.907Z</time></trkpt><trkpt lat="30.010907767190286" lon="-6.096880008820064"><ele>990.0</ele><time>2026-03-23T10:44:52.907Z</time></trkpt><trkpt lat="30.010947695579052" lon="-6.097013100584417"><ele>990.0</ele><time>2026-03-23T10:44:54.907Z</time></trkpt><trkpt lat="30.010975214799338" lon="-6.0970821817181236"><ele>990.0</ele><time>2026-03-23T10:44:55.907Z</time></trkpt><trkpt lat="30.01101492287253" lon="-6.097166197841305"><ele>990.0</ele><time>2026-03-23T10:44:56.907Z</time></trkpt><trkpt lat="30.01106561772008" lon="-6.097276231731777"><ele>990.0</ele><time>2026-03-23T10:44:57.907Z</time></trkpt><trkpt lat="30.0111428415636" lon="-6.097407443614169"><ele>990.0</ele><time>2026-03-23T10:44:58.907Z</time></trkpt><trkpt lat="30.011199237046725" lon="-6.097525116513937"><ele>990.0</ele><time>2026-03-23T10:44:59.907Z</time></trkpt><trkpt lat="30.01123921689513" lon="-6.097620927564761"><ele>990.3333333333334</ele><time>2026-03-23T10:45:00.907Z</time></trkpt><trkpt lat="30.01128005667603" lon="-6.097699292932428"><ele>990.6666666666667</ele><time>2026-03-23T10:45:01.907Z</time></trkpt><trkpt lat="30.011322322579357" lon="-6.097767007346126"><ele>991.0</ele><time>2026-03-23T10:45:02.907Z</time></trkpt><trkpt lat="30.01139500977825" lon="-6.097901108991612"><ele>991.3333333333334</ele><time>2026-03-23T10:45:04.906Z</time></trkpt><trkpt lat="30.011437718233367" lon="-6.09798148345468"><ele>991.6666666666667</ele><time>2026-03-23T10:45:05.906Z</time></trkpt><trkpt lat="30.01145681720728" lon="-6.098051266239814"><ele>992.0</ele><time>2026-03-23T10:45:06.906Z</time></trkpt><trkpt lat="30.011394764776643" lon="-6.098135288289796"><ele>992.0</ele><time>2026-03-23T10:45:08.906Z</time></trkpt><trkpt lat="30.011315202874993" lon="-6.098152127155396"><ele>992.0</ele><time>2026-03-23T10:45:09.906Z</time></trkpt><trkpt lat="30.011219056810592" lon="-6.098128140841238"><ele>992.0</ele><time>2026-03-23T10:45:10.906Z</time></trkpt><trkpt lat="30.011118013432572" lon="-6.098102547618321"><ele>992.0</ele><time>2026-03-23T10:45:11.906Z</time></trkpt><trkpt lat="30.011028062366897" lon="-6.098087751309081"><ele>992.0</ele><time>2026-03-23T10:45:12.906Z</time></trkpt><trkpt lat="30.010946171413618" lon="-6.098073301049647"><ele>992.0</ele><time>2026-03-23T10:45:13.906Z</time></trkpt><trkpt lat="30.010841992414797" lon="-6.098048430532807"><ele>992.0</ele><time>2026-03-23T10:45:14.906Z</time></trkpt><trkpt lat="30.010728973259752" lon="-6.098025645142619"><ele>992.0</ele><time>2026-03-23T10:45:15.906Z</time></trkpt><trkpt lat="30.010607107911486" lon="-6.098007887549583"><ele>992.0</ele><time>2026-03-23T10:45:16.906Z</time></trkpt><trkpt lat="30.01047468103764" lon="-6.097989991995823"><ele>990.25</ele><time>2026-03-23T10:45:17.906Z</time></trkpt><trkpt lat="30.01034342290088" lon="-6.097978707669272"><ele>988.5</ele><time>2026-03-23T10:45:18.906Z</time></trkpt><trkpt lat="30.010220963620466" lon="-6.097967245135336"><ele>986.75</ele><time>2026-03-23T10:45:19.906Z</time></trkpt><trkpt lat="30.010072241256314" lon="-6.097963729247406"><ele>985.0</ele><time>2026-03-23T10:45:20.906Z</time></trkpt><trkpt lat="30.009947383964434" lon="-6.097972009797207"><ele>984.9999999999999</ele><time>2026-03-23T10:45:21.906Z</time></trkpt><trkpt lat="30.009847186801498" lon="-6.097985076614582"><ele>985.0</ele><time>2026-03-23T10:45:22.906Z</time></trkpt><trkpt lat="30.009765955334714" lon="-6.097999941241518"><ele>985.0</ele><time>2026-03-23T10:45:23.906Z</time></trkpt><trkpt lat="30.009687448470448" lon="-6.098022707589059"><ele>985.0</ele><time>2026-03-23T10:45:24.906Z</time></trkpt><trkpt lat="30.00961223612155" lon="-6.098043156876345"><ele>984.9999999999999</ele><time>2026-03-23T10:45:25.906Z</time></trkpt><trkpt lat="30.009545597044607" lon="-6.098057191357635"><ele>985.0</ele><time>2026-03-23T10:45:26.906Z</time></trkpt><trkpt lat="30.009439054430057" lon="-6.098071733668503"><ele>985.0</ele><time>2026-03-23T10:45:28.906Z</time></trkpt><trkpt lat="30.009335797012348" lon="-6.098064758457229"><ele>985.0</ele><time>2026-03-23T10:45:30.906Z</time></trkpt><trkpt lat="30.00925313056066" lon="-6.0980202600886955"><ele>985.0</ele><time>2026-03-23T10:45:32.906Z</time></trkpt><trkpt lat="30.00917152543532" lon="-6.097979572730793"><ele>985.0</ele><time>2026-03-23T10:45:34.906Z</time></trkpt><trkpt lat="30.00908473200213" lon="-6.0979606059857705"><ele>985.0</ele><time>2026-03-23T10:45:36.906Z</time></trkpt><trkpt lat="30.009001813641564" lon="-6.097951308493128"><ele>985.4</ele><time>2026-03-23T10:45:38.906Z</time></trkpt><trkpt lat="30.008914836447236" lon="-6.097941166015294"><ele>985.8</ele><time>2026-03-23T10:45:40.906Z</time></trkpt><trkpt lat="30.008828511615782" lon="-6.097939347413119"><ele>986.2</ele><time>2026-03-23T10:45:42.906Z</time></trkpt><trkpt lat="30.00873309455165" lon="-6.0979212955397495"><ele>986.6</ele><time>2026-03-23T10:45:44.906Z</time></trkpt><trkpt lat="30.008610561837795" lon="-6.097938717068546"><ele>987.0</ele><time>2026-03-23T10:45:46.906Z</time></trkpt><trkpt lat="30.008493738835853" lon="-6.097968295939885"><ele>987.0</ele><time>2026-03-23T10:45:48.906Z</time></trkpt><trkpt lat="30.008378415811002" lon="-6.097946756687269"><ele>987.0</ele><time>2026-03-23T10:45:50.906Z</time></trkpt><trkpt lat="30.00827641605669" lon="-6.097899247256756"><ele>987.0</ele><time>2026-03-23T10:45:52.906Z</time></trkpt><trkpt lat="30.008174663923878" lon="-6.0978210236976516"><ele>987.0</ele><time>2026-03-23T10:45:54.906Z</time></trkpt><trkpt lat="30.008086565684014" lon="-6.097743499314552"><ele>987.0</ele><time>2026-03-23T10:45:56.906Z</time></trkpt><trkpt lat="30.00803056531685" lon="-6.097696253693845"><ele>987.0</ele><time>2026-03-23T10:45:57.906Z</time></trkpt><trkpt lat="30.007927270073036" lon="-6.0976640405559515"><ele>987.0</ele><time>2026-03-23T10:45:59.906Z</time></trkpt><trkpt lat="30.007846595200107" lon="-6.097639658381127"><ele>987.0</ele><time>2026-03-23T10:46:01.906Z</time></trkpt><trkpt lat="30.007782712361706" lon="-6.097611319795965"><ele>987.0</ele><time>2026-03-23T10:46:03.906Z</time></trkpt><trkpt lat="30.00771001963403" lon="-6.097594584816323"><ele>987.0</ele><time>2026-03-23T10:46:06.906Z</time></trkpt><trkpt lat="30.007656773976187" lon="-6.097534082168685"><ele>987.0</ele><time>2026-03-23T10:52:01.897Z</time></trkpt><trkpt lat="30.00768077627242" lon="-6.097460384067508"><ele>987.0</ele><time>2026-03-23T10:52:05.897Z</time></trkpt><trkpt lat="30.007750133668836" lon="-6.097444175312324"><ele>987.0</ele><time>2026-03-23T10:52:07.897Z</time></trkpt><trkpt lat="30.00780972874756" lon="-6.097506099205481"><ele>987.0</ele><time>2026-03-23T10:52:09.897Z</time></trkpt><trkpt lat="30.007858781067714" lon="-6.097611573652281"><ele>987.0</ele><time>2026-03-23T10:52:11.897Z</time></trkpt><trkpt lat="30.007892988951586" lon="-6.0977142638998405"><ele>987.0</ele><time>2026-03-23T10:52:13.897Z</time></trkpt><trkpt lat="30.007918179960747" lon="-6.097805395530579"><ele>987.0</ele><time>2026-03-23T10:52:15.897Z</time></trkpt><trkpt lat="30.007938097767802" lon="-6.097877891551377"><ele>987.0</ele><time>2026-03-23T10:52:17.897Z</time></trkpt><trkpt lat="30.00795912869397" lon="-6.097963471998066"><ele>987.0</ele><time>2026-03-23T10:52:19.897Z</time></trkpt><trkpt lat="30.007989134702456" lon="-6.098040071145532"><ele>987.0</ele><time>2026-03-23T10:52:20.897Z</time></trkpt><trkpt lat="30.00802172458499" lon="-6.098113925719749"><ele>987.0</ele><time>2026-03-23T10:52:21.897Z</time></trkpt><trkpt lat="30.008099364302296" lon="-6.098174110572817"><ele>987.0</ele><time>2026-03-23T10:52:23.896Z</time></trkpt><trkpt lat="30.008204139463533" lon="-6.098142609812949"><ele>987.0</ele><time>2026-03-23T10:52:25.896Z</time></trkpt><trkpt lat="30.008300123492795" lon="-6.098108574907804"><ele>987.0</ele><time>2026-03-23T10:52:26.896Z</time></trkpt><trkpt lat="30.008398957401372" lon="-6.098065304585141"><ele>987.0</ele><time>2026-03-23T10:52:27.896Z</time></trkpt><trkpt lat="30.00849465448644" lon="-6.098005079573706"><ele>987.0</ele><time>2026-03-23T10:52:28.896Z</time></trkpt><trkpt lat="30.00858073714898" lon="-6.097958513086616"><ele>987.0</ele><time>2026-03-23T10:52:29.896Z</time></trkpt><trkpt lat="30.00865525255411" lon="-6.097931161284158"><ele>987.0</ele><time>2026-03-23T10:52:30.896Z</time></trkpt><trkpt lat="30.00876832307109" lon="-6.097911490452678"><ele>987.0</ele><time>2026-03-23T10:52:32.896Z</time></trkpt><trkpt lat="30.008870948843335" lon="-6.097893714265961"><ele>987.0</ele><time>2026-03-23T10:52:34.896Z</time></trkpt><trkpt lat="30.00899455374434" lon="-6.09786155625491"><ele>987.0</ele><time>2026-03-23T10:52:36.896Z</time></trkpt><trkpt lat="30.009070592738574" lon="-6.097803118071129"><ele>987.0</ele><time>2026-03-23T10:52:38.896Z</time></trkpt><trkpt lat="30.009106769673267" lon="-6.097720568078121"><ele>987.0</ele><time>2026-03-23T10:52:41.896Z</time></trkpt><trkpt lat="30.009061775234752" lon="-6.097657148018939"><ele>987.0</ele><time>2026-03-23T10:52:51.896Z</time></trkpt><trkpt lat="30.008993535407537" lon="-6.09758042375993"><ele>987.0</ele><time>2026-03-23T10:52:53.896Z</time></trkpt><trkpt lat="30.008915389553888" lon="-6.09752756347012"><ele>987.0</ele><time>2026-03-23T10:52:55.896Z</time></trkpt><trkpt lat="30.008857527064844" lon="-6.097430410398484"><ele>987.0</ele><time>2026-03-23T10:52:57.896Z</time></trkpt><trkpt lat="30.008808708906297" lon="-6.0973000956497705"><ele>985.8333333333334</ele><time>2026-03-23T10:52:59.896Z</time></trkpt><trkpt lat="30.008776815068348" lon="-6.097233881244583"><ele>984.6666666666667</ele><time>2026-03-23T10:53:00.896Z</time></trkpt><trkpt lat="30.00874834881158" lon="-6.097163074044147"><ele>983.5</ele><time>2026-03-23T10:53:01.896Z</time></trkpt><trkpt lat="30.008716576079866" lon="-6.097090547454289"><ele>982.3333333333334</ele><time>2026-03-23T10:53:02.896Z</time></trkpt><trkpt lat="30.008671205457347" lon="-6.09701166473733"><ele>981.1666666666667</ele><time>2026-03-23T10:53:03.896Z</time></trkpt><trkpt lat="30.008612893995497" lon="-6.096929966115146"><ele>980.0</ele><time>2026-03-23T10:53:04.896Z</time></trkpt><trkpt lat="30.008559717146444" lon="-6.096845896152586"><ele>980.0</ele><time>2026-03-23T10:53:05.896Z</time></trkpt><trkpt lat="30.0085001823008" lon="-6.096757131033624"><ele>980.0</ele><time>2026-03-23T10:53:06.896Z</time></trkpt><trkpt lat="30.008425056441954" lon="-6.096665206593479"><ele>980.0</ele><time>2026-03-23T10:53:07.896Z</time></trkpt><trkpt lat="30.008340999096916" lon="-6.0965786371614294"><ele>980.0</ele><time>2026-03-23T10:53:08.896Z</time></trkpt><trkpt lat="30.00825208237479" lon="-6.096507313465073"><ele>980.0</ele><time>2026-03-23T10:53:09.896Z</time></trkpt><trkpt lat="30.008161919758205" lon="-6.0964512342273265"><ele>978.0</ele><time>2026-03-23T10:53:10.896Z</time></trkpt><trkpt lat="30.008073521736687" lon="-6.096399022835953"><ele>976.0</ele><time>2026-03-23T10:53:11.896Z</time></trkpt><trkpt lat="30.00797865459965" lon="-6.096352145397984"><ele>974.0</ele><time>2026-03-23T10:53:12.896Z</time></trkpt><trkpt lat="30.007890149554502" lon="-6.096305470790557"><ele>972.0</ele><time>2026-03-23T10:53:13.896Z</time></trkpt><trkpt lat="30.00779714329058" lon="-6.096260871769774"><ele>970.0</ele><time>2026-03-23T10:53:14.896Z</time></trkpt><trkpt lat="30.007704869444375" lon="-6.096224877315533"><ele>969.9999999999999</ele><time>2026-03-23T10:53:15.896Z</time></trkpt><trkpt lat="30.00762355563366" lon="-6.096194623159245"><ele>970.0</ele><time>2026-03-23T10:53:16.896Z</time></trkpt><trkpt lat="30.007542643733288" lon="-6.0961557833785776"><ele>970.0</ele><time>2026-03-23T10:53:17.896Z</time></trkpt><trkpt lat="30.007467195587886" lon="-6.096126920166214"><ele>970.0</ele><time>2026-03-23T10:53:18.896Z</time></trkpt><trkpt lat="30.00738868888471" lon="-6.0960981191627335"><ele>969.9999999999999</ele><time>2026-03-23T10:53:19.896Z</time></trkpt><trkpt lat="30.007297482973478" lon="-6.096071730228089"><ele>970.0</ele><time>2026-03-23T10:53:20.896Z</time></trkpt><trkpt lat="30.00720084473112" lon="-6.0960377927748866"><ele>969.6</ele><time>2026-03-23T10:53:21.896Z</time></trkpt><trkpt lat="30.00710870730011" lon="-6.096010814453197"><ele>969.2</ele><time>2026-03-23T10:53:22.896Z</time></trkpt><trkpt lat="30.00701812204693" lon="-6.095986286033754"><ele>968.8</ele><time>2026-03-23T10:53:23.896Z</time></trkpt><trkpt lat="30.00691711407798" lon="-6.095961163580432"><ele>968.4</ele><time>2026-03-23T10:53:24.896Z</time></trkpt><trkpt lat="30.0068282570269" lon="-6.095935084622322"><ele>968.0</ele><time>2026-03-23T10:53:25.896Z</time></trkpt><trkpt lat="30.00674182871392" lon="-6.095904291095818"><ele>968.0</ele><time>2026-03-23T10:53:26.896Z</time></trkpt><trkpt lat="30.006644597308597" lon="-6.09586968287941"><ele>968.0</ele><time>2026-03-23T10:53:27.896Z</time></trkpt><trkpt lat="30.00654738739839" lon="-6.095833309706887"><ele>968.0</ele><time>2026-03-23T10:53:28.896Z</time></trkpt><trkpt lat="30.006446421959474" lon="-6.095812956808912"><ele>968.0</ele><time>2026-03-23T10:53:29.896Z</time></trkpt><trkpt lat="30.00635123493418" lon="-6.095793414739689"><ele>968.0</ele><time>2026-03-23T10:53:30.896Z</time></trkpt><trkpt lat="30.006272726932288" lon="-6.0957828988052425"><ele>968.0000000000001</ele><time>2026-03-23T10:53:31.896Z</time></trkpt><trkpt lat="30.006192086572977" lon="-6.095764217684407"><ele>968.0</ele><time>2026-03-23T10:53:32.896Z</time></trkpt><trkpt lat="30.006131904652698" lon="-6.095728634766254"><ele>968.0</ele><time>2026-03-23T10:53:33.896Z</time></trkpt><trkpt lat="30.006058945087144" lon="-6.095708081506413"><ele>968.0</ele><time>2026-03-23T10:53:34.896Z</time></trkpt><trkpt lat="30.005995254703457" lon="-6.095688342005576"><ele>968.0000000000001</ele><time>2026-03-23T10:53:35.896Z</time></trkpt><trkpt lat="30.005915775041238" lon="-6.095662145878271"><ele>968.0</ele><time>2026-03-23T10:53:36.896Z</time></trkpt><trkpt lat="30.00580541835069" lon="-6.095626977036108"><ele>965.2</ele><time>2026-03-23T10:53:37.896Z</time></trkpt><trkpt lat="30.005707064115192" lon="-6.095587183910489"><ele>962.4</ele><time>2026-03-23T10:53:38.896Z</time></trkpt><trkpt lat="30.00561592958631" lon="-6.0955650979110425"><ele>959.6000000000001</ele><time>2026-03-23T10:53:39.896Z</time></trkpt><trkpt lat="30.005528678363664" lon="-6.095544401440763"><ele>956.8000000000001</ele><time>2026-03-23T10:53:40.896Z</time></trkpt><trkpt lat="30.00544627672974" lon="-6.095527807482097"><ele>954.0</ele><time>2026-03-23T10:53:41.895Z</time></trkpt><trkpt lat="30.005350592451208" lon="-6.095522837616666"><ele>954.0</ele><time>2026-03-23T10:53:42.895Z</time></trkpt><trkpt lat="30.005240992069595" lon="-6.095531117859712"><ele>954.0000000000001</ele><time>2026-03-23T10:53:43.895Z</time></trkpt><trkpt lat="30.005142925510853" lon="-6.095549978292763"><ele>954.0000000000001</ele><time>2026-03-23T10:53:44.895Z</time></trkpt><trkpt lat="30.005049659035496" lon="-6.09557660167891"><ele>954.0</ele><time>2026-03-23T10:53:45.895Z</time></trkpt><trkpt lat="30.004960354466544" lon="-6.095613577377342"><ele>954.0</ele><time>2026-03-23T10:53:46.895Z</time></trkpt><trkpt lat="30.004877984429257" lon="-6.09565961422244"><ele>953.6</ele><time>2026-03-23T10:53:47.895Z</time></trkpt><trkpt lat="30.004793920820024" lon="-6.095716386183111"><ele>953.2</ele><time>2026-03-23T10:53:48.895Z</time></trkpt><trkpt lat="30.004715400483388" lon="-6.095778719278519"><ele>952.8000000000001</ele><time>2026-03-23T10:53:49.895Z</time></trkpt><trkpt lat="30.004634520879904" lon="-6.095839325255198"><ele>952.4000000000001</ele><time>2026-03-23T10:53:50.895Z</time></trkpt><trkpt lat="30.004556934322228" lon="-6.095910413876479"><ele>952.0</ele><time>2026-03-23T10:53:51.895Z</time></trkpt><trkpt lat="30.00448536712629" lon="-6.095987979681521"><ele>952.0</ele><time>2026-03-23T10:53:52.895Z</time></trkpt><trkpt lat="30.00440724855314" lon="-6.09606998404689"><ele>952.0</ele><time>2026-03-23T10:53:53.895Z</time></trkpt><trkpt lat="30.004320704697797" lon="-6.096168380340076"><ele>952.0</ele><time>2026-03-23T10:53:54.895Z</time></trkpt><trkpt lat="30.004212302711135" lon="-6.096277578518166"><ele>952.0</ele><time>2026-03-23T10:53:55.895Z</time></trkpt><trkpt lat="30.00408580543969" lon="-6.096401679236179"><ele>950.5</ele><time>2026-03-23T10:53:56.895Z</time></trkpt><trkpt lat="30.00397828914831" lon="-6.096518179525154"><ele>949.0</ele><time>2026-03-23T10:53:57.895Z</time></trkpt><trkpt lat="30.00387702335032" lon="-6.096601403594104"><ele>947.5</ele><time>2026-03-23T10:53:58.895Z</time></trkpt><trkpt lat="30.00378588281906" lon="-6.096655285806085"><ele>946.0</ele><time>2026-03-23T10:53:59.895Z</time></trkpt><trkpt lat="30.003701507175347" lon="-6.096686299704156"><ele>945.9999999999999</ele><time>2026-03-23T10:54:00.895Z</time></trkpt><trkpt lat="30.003626892959566" lon="-6.0967286995665395"><ele>946.0</ele><time>2026-03-23T10:54:01.895Z</time></trkpt><trkpt lat="30.00356840139897" lon="-6.096773558109335"><ele>946.0</ele><time>2026-03-23T10:54:02.895Z</time></trkpt><trkpt lat="30.00346698660312" lon="-6.096806360464038"><ele>946.0</ele><time>2026-03-23T10:54:04.895Z</time></trkpt><trkpt lat="30.003392265951305" lon="-6.09680365910462"><ele>945.9999999999999</ele><time>2026-03-23T10:54:05.895Z</time></trkpt><trkpt lat="30.0033052094711" lon="-6.0968310490274105"><ele>946.0</ele><time>2026-03-23T10:54:06.895Z</time></trkpt><trkpt lat="30.00323496775347" lon="-6.096866590282708"><ele>945.4285714285714</ele><time>2026-03-23T10:54:07.895Z</time></trkpt><trkpt lat="30.003165014908333" lon="-6.09689910677983"><ele>944.8571428571429</ele><time>2026-03-23T10:54:08.895Z</time></trkpt><trkpt lat="30.003089091984425" lon="-6.096931502154718"><ele>944.2857142857143</ele><time>2026-03-23T10:54:09.895Z</time></trkpt><trkpt lat="30.00302366993826" lon="-6.096956449992339"><ele>943.7142857142858</ele><time>2026-03-23T10:54:10.895Z</time></trkpt><trkpt lat="30.002951371752" lon="-6.0969792195706365"><ele>943.1428571428571</ele><time>2026-03-23T10:54:11.895Z</time></trkpt><trkpt lat="30.002880147630876" lon="-6.096985979553414"><ele>942.5714285714287</ele><time>2026-03-23T10:54:12.895Z</time></trkpt><trkpt lat="30.00281101294564" lon="-6.096992631051471"><ele>942.0000000000001</ele><time>2026-03-23T10:54:13.895Z</time></trkpt><trkpt lat="30.002745868927207" lon="-6.097014604668126"><ele>942.0</ele><time>2026-03-23T10:54:14.895Z</time></trkpt><trkpt lat="30.00263138843793" lon="-6.097111523836997"><ele>942.0</ele><time>2026-03-23T10:54:16.895Z</time></trkpt><trkpt lat="30.00257116595163" lon="-6.097178954551506"><ele>942.0</ele><time>2026-03-23T10:54:17.895Z</time></trkpt><trkpt lat="30.002517351027613" lon="-6.09725260533867"><ele>942.0</ele><time>2026-03-23T10:54:18.895Z</time></trkpt><trkpt lat="30.002461454774984" lon="-6.097336738847525"><ele>942.0</ele><time>2026-03-23T10:54:19.895Z</time></trkpt><trkpt lat="30.002396209526438" lon="-6.097413502260471"><ele>941.4000000000001</ele><time>2026-03-23T10:54:20.895Z</time></trkpt><trkpt lat="30.002304256973" lon="-6.097465422230424"><ele>940.8000000000001</ele><time>2026-03-23T10:54:21.895Z</time></trkpt><trkpt lat="30.002203251142557" lon="-6.097494013041964"><ele>940.2</ele><time>2026-03-23T10:54:22.895Z</time></trkpt><trkpt lat="30.002092491740413" lon="-6.097538846367293"><ele>939.6</ele><time>2026-03-23T10:54:23.895Z</time></trkpt><trkpt lat="30.001987384579966" lon="-6.09759429569902"><ele>939.0</ele><time>2026-03-23T10:54:24.895Z</time></trkpt><trkpt lat="30.00188909809826" lon="-6.097655574645926"><ele>939.0</ele><time>2026-03-23T10:54:25.895Z</time></trkpt><trkpt lat="30.00179539301391" lon="-6.097718131667951"><ele>939.0000000000001</ele><time>2026-03-23T10:54:26.895Z</time></trkpt><trkpt lat="30.001716351420768" lon="-6.0977771566824"><ele>939.0000000000001</ele><time>2026-03-23T10:54:27.895Z</time></trkpt><trkpt lat="30.00164097108839" lon="-6.097849516301077"><ele>939.0</ele><time>2026-03-23T10:54:28.895Z</time></trkpt><trkpt lat="30.001573494722944" lon="-6.097930736747469"><ele>939.0</ele><time>2026-03-23T10:54:29.895Z</time></trkpt><trkpt lat="30.00149760321957" lon="-6.098031592942191"><ele>937.75</ele><time>2026-03-23T10:54:30.895Z</time></trkpt><trkpt lat="30.001413485744916" lon="-6.09813594923972"><ele>936.5</ele><time>2026-03-23T10:54:31.895Z</time></trkpt><trkpt lat="30.00132810723845" lon="-6.098246963579455"><ele>935.25</ele><time>2026-03-23T10:54:32.895Z</time></trkpt><trkpt lat="30.00125201234479" lon="-6.098343483574875"><ele>934.0</ele><time>2026-03-23T10:54:33.895Z</time></trkpt><trkpt lat="30.001175997004793" lon="-6.098442857785837"><ele>933.6</ele><time>2026-03-23T10:54:34.895Z</time></trkpt><trkpt lat="30.001108357349164" lon="-6.098541046980286"><ele>933.2</ele><time>2026-03-23T10:54:35.895Z</time></trkpt><trkpt lat="30.0010453959032" lon="-6.098635017744967"><ele>932.8000000000001</ele><time>2026-03-23T10:54:36.895Z</time></trkpt><trkpt lat="30.000986612686987" lon="-6.0987223020172205"><ele>932.4000000000001</ele><time>2026-03-23T10:54:37.895Z</time></trkpt><trkpt lat="30.000942684706366" lon="-6.0988125164462765"><ele>932.0</ele><time>2026-03-23T10:54:38.895Z</time></trkpt><trkpt lat="30.000904969021253" lon="-6.098884420844623"><ele>932.0</ele><time>2026-03-23T10:54:39.895Z</time></trkpt><trkpt lat="30.0008707400064" lon="-6.098960641541116"><ele>932.0</ele><time>2026-03-23T10:54:40.895Z</time></trkpt><trkpt lat="30.00082613767022" lon="-6.0990197238424475"><ele>932.0</ele><time>2026-03-23T10:54:41.895Z</time></trkpt><trkpt lat="30.00078004764086" lon="-6.099084808456214"><ele>932.0</ele><time>2026-03-23T10:54:42.895Z</time></trkpt><trkpt lat="30.000749245884073" lon="-6.09915696692725"><ele>932.0</ele><time>2026-03-23T10:54:43.895Z</time></trkpt><trkpt lat="30.000708498285892" lon="-6.099224308277412"><ele>932.0</ele><time>2026-03-23T10:54:44.895Z</time></trkpt><trkpt lat="30.000663599430048" lon="-6.099284040774281"><ele>932.0</ele><time>2026-03-23T10:54:45.895Z</time></trkpt><trkpt lat="30.00058892726186" lon="-6.099314569559024"><ele>931.4000000000001</ele><time>2026-03-23T10:54:46.895Z</time></trkpt><trkpt lat="30.000511406572127" lon="-6.099328779554126"><ele>930.8000000000001</ele><time>2026-03-23T10:54:47.895Z</time></trkpt><trkpt lat="30.000413622835786" lon="-6.099342243135616"><ele>930.2</ele><time>2026-03-23T10:54:48.895Z</time></trkpt><trkpt lat="30.000315948969032" lon="-6.099342262916435"><ele>929.6</ele><time>2026-03-23T10:54:49.895Z</time></trkpt><trkpt lat="30.000205675114415" lon="-6.0993368429562"><ele>929.0</ele><time>2026-03-23T10:54:50.895Z</time></trkpt><trkpt lat="30.00010568816236" lon="-6.099329009123381"><ele>929.0</ele><time>2026-03-23T10:54:51.895Z</time></trkpt><trkpt lat="29.999997504823078" lon="-6.0993268546281705"><ele>929.0000000000001</ele><time>2026-03-23T10:54:52.895Z</time></trkpt><trkpt lat="29.999885785643" lon="-6.099329006141158"><ele>929.0000000000001</ele><time>2026-03-23T10:54:53.895Z</time></trkpt><trkpt lat="29.999775277506192" lon="-6.099318790086954"><ele>929.0</ele><time>2026-03-23T10:54:54.895Z</time></trkpt><trkpt lat="29.99968628416242" lon="-6.099294539840869"><ele>929.0</ele><time>2026-03-23T10:54:55.895Z</time></trkpt><trkpt lat="29.999592029834062" lon="-6.0992803842799255"><ele>929.0</ele><time>2026-03-23T10:54:56.895Z</time></trkpt><trkpt lat="29.99950164012342" lon="-6.099273040137261"><ele>929.0000000000001</ele><time>2026-03-23T10:54:57.894Z</time></trkpt><trkpt lat="29.999414363187732" lon="-6.099274360191359"><ele>929.0000000000001</ele><time>2026-03-23T10:54:58.894Z</time></trkpt><trkpt lat="29.99932424580208" lon="-6.099278502742146"><ele>929.0</ele><time>2026-03-23T10:54:59.894Z</time></trkpt><trkpt lat="29.999236068828367" lon="-6.099277732468289"><ele>929.0</ele><time>2026-03-23T10:55:00.894Z</time></trkpt><trkpt lat="29.999132170591132" lon="-6.099257057494368"><ele>927.5</ele><time>2026-03-23T10:55:01.894Z</time></trkpt><trkpt lat="29.99901347716623" lon="-6.099220481984638"><ele>926.0</ele><time>2026-03-23T10:55:02.894Z</time></trkpt><trkpt lat="29.998891504790066" lon="-6.099162688070714"><ele>924.5</ele><time>2026-03-23T10:55:03.894Z</time></trkpt><trkpt lat="29.998774032477613" lon="-6.099105905924603"><ele>923.0</ele><time>2026-03-23T10:55:04.894Z</time></trkpt><trkpt lat="29.9986863159226" lon="-6.099041407174843"><ele>923.0000000000001</ele><time>2026-03-23T10:55:05.894Z</time></trkpt><trkpt lat="29.998610415987596" lon="-6.098983740797048"><ele>923.0</ele><time>2026-03-23T10:55:06.894Z</time></trkpt><trkpt lat="29.998531968933246" lon="-6.098934714793097"><ele>923.0</ele><time>2026-03-23T10:55:07.894Z</time></trkpt><trkpt lat="29.99845281953246" lon="-6.098898059667421"><ele>923.0</ele><time>2026-03-23T10:55:08.894Z</time></trkpt><trkpt lat="29.9983682375935" lon="-6.0988775383639435"><ele>923.0000000000001</ele><time>2026-03-23T10:55:09.894Z</time></trkpt><trkpt lat="29.99827238587873" lon="-6.098865597093091"><ele>923.0</ele><time>2026-03-23T10:55:10.894Z</time></trkpt><trkpt lat="29.99819282160381" lon="-6.098839450468146"><ele>921.6666666666667</ele><time>2026-03-23T10:55:11.894Z</time></trkpt><trkpt lat="29.998113172784173" lon="-6.098819277172221"><ele>920.3333333333334</ele><time>2026-03-23T10:55:12.894Z</time></trkpt><trkpt lat="29.998026349837946" lon="-6.098801426490933"><ele>919.0</ele><time>2026-03-23T10:55:13.894Z</time></trkpt><trkpt lat="29.997937571925327" lon="-6.098783720636549"><ele>917.6666666666667</ele><time>2026-03-23T10:55:14.894Z</time></trkpt><trkpt lat="29.99784219050527" lon="-6.098769151182154"><ele>916.3333333333334</ele><time>2026-03-23T10:55:15.894Z</time></trkpt><trkpt lat="29.997756553503866" lon="-6.098753935269096"><ele>915.0</ele><time>2026-03-23T10:55:16.894Z</time></trkpt><trkpt lat="29.997666371531967" lon="-6.09874729505353"><ele>915.0</ele><time>2026-03-23T10:55:17.894Z</time></trkpt><trkpt lat="29.997584530649632" lon="-6.098735407175432"><ele>915.0</ele><time>2026-03-23T10:55:18.894Z</time></trkpt><trkpt lat="29.997510657479538" lon="-6.098727257522401"><ele>915.0</ele><time>2026-03-23T10:55:19.894Z</time></trkpt><trkpt lat="29.99742474167334" lon="-6.098706276557336"><ele>915.0</ele><time>2026-03-23T10:55:20.894Z</time></trkpt><trkpt lat="29.997338798210233" lon="-6.098683858228746"><ele>915.0</ele><time>2026-03-23T10:55:21.894Z</time></trkpt><trkpt lat="29.997250478450205" lon="-6.098671828148452"><ele>915.0</ele><time>2026-03-23T10:55:22.894Z</time></trkpt><trkpt lat="29.99717298494178" lon="-6.098654624479995"><ele>913.4</ele><time>2026-03-23T10:55:23.894Z</time></trkpt><trkpt lat="29.997087349257747" lon="-6.098640269785073"><ele>911.8</ele><time>2026-03-23T10:55:24.894Z</time></trkpt><trkpt lat="29.997000175267587" lon="-6.098620969453557"><ele>910.2</ele><time>2026-03-23T10:55:25.894Z</time></trkpt><trkpt lat="29.99690499153915" lon="-6.0986081740903115"><ele>908.6</ele><time>2026-03-23T10:55:26.894Z</time></trkpt><trkpt lat="29.996814804363158" lon="-6.098597843158873"><ele>907.0</ele><time>2026-03-23T10:55:27.894Z</time></trkpt><trkpt lat="29.996725792470237" lon="-6.09857676762943"><ele>905.6</ele><time>2026-03-23T10:55:28.894Z</time></trkpt><trkpt lat="29.99662606218836" lon="-6.098557969038174"><ele>904.2</ele><time>2026-03-23T10:55:29.894Z</time></trkpt><trkpt lat="29.99652091135484" lon="-6.098535590957188"><ele>902.8</ele><time>2026-03-23T10:55:30.894Z</time></trkpt><trkpt lat="29.99642043199918" lon="-6.098507391129975"><ele>901.4</ele><time>2026-03-23T10:55:31.894Z</time></trkpt><trkpt lat="29.99632373996779" lon="-6.098508703075786"><ele>900.0</ele><time>2026-03-23T10:55:32.894Z</time></trkpt><trkpt lat="29.996221352087616" lon="-6.0985171490647145"><ele>900.0</ele><time>2026-03-23T10:55:33.894Z</time></trkpt><trkpt lat="29.99612063840056" lon="-6.0985048447277315"><ele>900.0</ele><time>2026-03-23T10:55:34.894Z</time></trkpt><trkpt lat="29.99603876417516" lon="-6.098487255805111"><ele>900.0</ele><time>2026-03-23T10:55:35.894Z</time></trkpt><trkpt lat="29.995957804741323" lon="-6.098473049380652"><ele>900.0</ele><time>2026-03-23T10:55:36.894Z</time></trkpt><trkpt lat="29.995881209773557" lon="-6.098461532854517"><ele>900.0</ele><time>2026-03-23T10:55:37.894Z</time></trkpt><trkpt lat="29.995766877957344" lon="-6.098405877237153"><ele>899.0</ele><time>2026-03-23T10:55:39.894Z</time></trkpt><trkpt lat="29.99569259689217" lon="-6.098304958261902"><ele>898.0</ele><time>2026-03-23T10:55:41.894Z</time></trkpt><trkpt lat="29.995605186412654" lon="-6.09822320603614"><ele>897.0</ele><time>2026-03-23T10:55:43.894Z</time></trkpt><trkpt lat="29.995508633968143" lon="-6.098179997941152"><ele>896.0</ele><time>2026-03-23T10:55:45.894Z</time></trkpt><trkpt lat="29.995429621559836" lon="-6.098179432545772"><ele>895.0</ele><time>2026-03-23T10:55:47.894Z</time></trkpt><trkpt lat="29.995312173018476" lon="-6.098223369253342"><ele>895.0</ele><time>2026-03-23T10:55:49.894Z</time></trkpt><trkpt lat="29.99524762332075" lon="-6.098258581843721"><ele>895.0</ele><time>2026-03-23T10:55:50.894Z</time></trkpt><trkpt lat="29.99518184735378" lon="-6.098288687831604"><ele>895.0</ele><time>2026-03-23T10:55:51.894Z</time></trkpt><trkpt lat="29.995114950132344" lon="-6.098288721539692"><ele>895.0</ele><time>2026-03-23T10:55:52.894Z</time></trkpt><trkpt lat="29.995045653767587" lon="-6.098268576153166"><ele>895.0</ele><time>2026-03-23T10:55:53.894Z</time></trkpt><trkpt lat="29.99497210459725" lon="-6.098246207890869"><ele>895.0</ele><time>2026-03-23T10:55:54.894Z</time></trkpt><trkpt lat="29.994896526163107" lon="-6.098221526970499"><ele>895.0</ele><time>2026-03-23T10:55:55.894Z</time></trkpt><trkpt lat="29.994820776390984" lon="-6.09820233640318"><ele>892.8571428571428</ele><time>2026-03-23T10:55:56.894Z</time></trkpt><trkpt lat="29.994741270980203" lon="-6.09819452107709"><ele>890.7142857142858</ele><time>2026-03-23T10:55:57.894Z</time></trkpt><trkpt lat="29.994668317474652" lon="-6.098181842569936"><ele>888.5714285714286</ele><time>2026-03-23T10:55:58.894Z</time></trkpt><trkpt lat="29.99460878469347" lon="-6.098145533093148"><ele>886.4285714285713</ele><time>2026-03-23T10:55:59.894Z</time></trkpt><trkpt lat="29.99455111498213" lon="-6.098107290419833"><ele>884.2857142857142</ele><time>2026-03-23T10:56:00.894Z</time></trkpt><trkpt lat="29.99449346542382" lon="-6.098061507391563"><ele>882.1428571428571</ele><time>2026-03-23T10:56:01.894Z</time></trkpt><trkpt lat="29.994440125176123" lon="-6.098012591322585"><ele>880.0</ele><time>2026-03-23T10:56:02.894Z</time></trkpt><trkpt lat="29.994383357110003" lon="-6.0979781202924634"><ele>879.9999999999999</ele><time>2026-03-23T10:56:03.894Z</time></trkpt><trkpt lat="29.99431828970593" lon="-6.0979592889435175"><ele>880.0</ele><time>2026-03-23T10:56:04.894Z</time></trkpt><trkpt lat="29.99424133670309" lon="-6.097958278697344"><ele>880.0</ele><time>2026-03-23T10:56:05.894Z</time></trkpt><trkpt lat="29.994164752660843" lon="-6.097958316313495"><ele>880.0</ele><time>2026-03-23T10:56:06.894Z</time></trkpt><trkpt lat="29.99408888636252" lon="-6.097960615764109"><ele>879.9999999999999</ele><time>2026-03-23T10:56:07.894Z</time></trkpt><trkpt lat="29.994010807917093" lon="-6.097960294164819"><ele>880.0</ele><time>2026-03-23T10:56:08.894Z</time></trkpt><trkpt lat="29.99393385125888" lon="-6.097959140963298"><ele>879.1428571428571</ele><time>2026-03-23T10:56:09.894Z</time></trkpt><trkpt lat="29.993862148319234" lon="-6.097947702677134"><ele>878.2857142857142</ele><time>2026-03-23T10:56:10.894Z</time></trkpt><trkpt lat="29.993786737313705" lon="-6.097929959508212"><ele>877.4285714285713</ele><time>2026-03-23T10:56:11.894Z</time></trkpt><trkpt lat="29.993721879397025" lon="-6.0979089795531625"><ele>876.5714285714286</ele><time>2026-03-23T10:56:12.894Z</time></trkpt><trkpt lat="29.993658275442222" lon="-6.097880645317766"><ele>875.7142857142858</ele><time>2026-03-23T10:56:13.894Z</time></trkpt><trkpt lat="29.99359758229358" lon="-6.097836793402654"><ele>874.8571428571428</ele><time>2026-03-23T10:56:14.894Z</time></trkpt><trkpt lat="29.993563212047093" lon="-6.097774449973711"><ele>874.0</ele><time>2026-03-23T10:56:15.894Z</time></trkpt><trkpt lat="29.99352493616675" lon="-6.09767754214454"><ele>873.9999999999999</ele><time>2026-03-23T10:56:16.894Z</time></trkpt><trkpt lat="29.99347815595947" lon="-6.0975930190474115"><ele>874.0</ele><time>2026-03-23T10:56:17.894Z</time></trkpt><trkpt lat="29.99341467998322" lon="-6.0975105142575625"><ele>874.0</ele><time>2026-03-23T10:56:18.894Z</time></trkpt><trkpt lat="29.993352328190984" lon="-6.097445616646227"><ele>874.0</ele><time>2026-03-23T10:56:19.894Z</time></trkpt><trkpt lat="29.993290710657806" lon="-6.097387729588085"><ele>873.9999999999999</ele><time>2026-03-23T10:56:20.894Z</time></trkpt><trkpt lat="29.993224308549674" lon="-6.097335239245616"><ele>874.0</ele><time>2026-03-23T10:56:21.894Z</time></trkpt><trkpt lat="29.993156720561764" lon="-6.09729981052411"><ele>871.6666666666666</ele><time>2026-03-23T10:56:22.894Z</time></trkpt><trkpt lat="29.993038221877995" lon="-6.097292839292582"><ele>869.3333333333333</ele><time>2026-03-23T10:56:24.894Z</time></trkpt><trkpt lat="29.992974219618734" lon="-6.097295939016796"><ele>867.0</ele><time>2026-03-23T10:56:25.894Z</time></trkpt><trkpt lat="29.992900070350903" lon="-6.097295440829258"><ele>864.6666666666667</ele><time>2026-03-23T10:56:26.894Z</time></trkpt><trkpt lat="29.992837251605074" lon="-6.097270878401046"><ele>862.3333333333334</ele><time>2026-03-23T10:56:27.894Z</time></trkpt><trkpt lat="29.992783632152573" lon="-6.097231952471484"><ele>860.0</ele><time>2026-03-23T10:56:28.894Z</time></trkpt><trkpt lat="29.99272870577202" lon="-6.097173900878204"><ele>860.0000000000001</ele><time>2026-03-23T10:56:29.894Z</time></trkpt><trkpt lat="29.992674009193202" lon="-6.097103366946019"><ele>860.0</ele><time>2026-03-23T10:56:30.894Z</time></trkpt><trkpt lat="29.992634100303658" lon="-6.09700246834662"><ele>860.0</ele><time>2026-03-23T10:56:31.894Z</time></trkpt><trkpt lat="29.99260594736865" lon="-6.09690886012091"><ele>860.0</ele><time>2026-03-23T10:56:32.894Z</time></trkpt><trkpt lat="29.992574651548768" lon="-6.09681840404636"><ele>860.0000000000001</ele><time>2026-03-23T10:56:33.894Z</time></trkpt><trkpt lat="29.992552568102738" lon="-6.096721423024207"><ele>860.0</ele><time>2026-03-23T10:56:34.894Z</time></trkpt><trkpt lat="29.992545226721283" lon="-6.09659907785583"><ele>859.25</ele><time>2026-03-23T10:56:35.894Z</time></trkpt><trkpt lat="29.992558553908673" lon="-6.096455778816093"><ele>858.5</ele><time>2026-03-23T10:56:36.894Z</time></trkpt><trkpt lat="29.9925743937584" lon="-6.096307595854404"><ele>857.75</ele><time>2026-03-23T10:56:37.894Z</time></trkpt><trkpt lat="29.992603437163538" lon="-6.096170691829173"><ele>857.0</ele><time>2026-03-23T10:56:38.894Z</time></trkpt><trkpt lat="29.992636450066797" lon="-6.096029817112414"><ele>857.0</ele><time>2026-03-23T10:56:39.894Z</time></trkpt><trkpt lat="29.992685148588343" lon="-6.0958756850471305"><ele>857.0</ele><time>2026-03-23T10:56:40.894Z</time></trkpt><trkpt lat="29.99272911768328" lon="-6.095735251113076"><ele>857.0</ele><time>2026-03-23T10:56:41.894Z</time></trkpt><trkpt lat="29.99278335374748" lon="-6.095600784909775"><ele>857.0</ele><time>2026-03-23T10:56:42.894Z</time></trkpt><trkpt lat="29.992842582188242" lon="-6.095461113827471"><ele>857.25</ele><time>2026-03-23T10:56:43.893Z</time></trkpt><trkpt lat="29.992900066213203" lon="-6.095329621801559"><ele>857.5</ele><time>2026-03-23T10:56:44.893Z</time></trkpt><trkpt lat="29.99295057419884" lon="-6.0952030718086805"><ele>857.75</ele><time>2026-03-23T10:56:45.893Z</time></trkpt><trkpt lat="29.993004805818465" lon="-6.095072363058824"><ele>858.0</ele><time>2026-03-23T10:56:46.893Z</time></trkpt><trkpt lat="29.99304424959237" lon="-6.094954351002197"><ele>858.5</ele><time>2026-03-23T10:56:47.893Z</time></trkpt><trkpt lat="29.9930942949127" lon="-6.094827902361384"><ele>859.0</ele><time>2026-03-23T10:56:48.893Z</time></trkpt><trkpt lat="29.993140826783794" lon="-6.094678772892917"><ele>859.5</ele><time>2026-03-23T10:56:49.893Z</time></trkpt><trkpt lat="29.993169793394017" lon="-6.0945442113705255"><ele>860.0</ele><time>2026-03-23T10:56:50.893Z</time></trkpt><trkpt lat="29.99319081614509" lon="-6.094436195328974"><ele>860.0000000000001</ele><time>2026-03-23T10:56:51.893Z</time></trkpt><trkpt lat="29.99320970402367" lon="-6.094335435373378"><ele>860.0</ele><time>2026-03-23T10:56:52.893Z</time></trkpt><trkpt lat="29.993206263457935" lon="-6.0942494028037055"><ele>860.0</ele><time>2026-03-23T10:56:53.893Z</time></trkpt><trkpt lat="29.99318551553865" lon="-6.094153716676054"><ele>860.0</ele><time>2026-03-23T10:56:54.893Z</time></trkpt><trkpt lat="29.993168993546135" lon="-6.0940459687051325"><ele>860.0000000000001</ele><time>2026-03-23T10:56:55.893Z</time></trkpt><trkpt lat="29.99315530197927" lon="-6.093935265293217"><ele>860.0</ele><time>2026-03-23T10:56:56.893Z</time></trkpt><trkpt lat="29.993149783465896" lon="-6.0938353555768625"><ele>858.6</ele><time>2026-03-23T10:56:57.893Z</time></trkpt><trkpt lat="29.993130903403824" lon="-6.0937321828740405"><ele>857.2</ele><time>2026-03-23T10:56:58.893Z</time></trkpt><trkpt lat="29.99308951980456" lon="-6.093624043455403"><ele>855.8</ele><time>2026-03-23T10:56:59.893Z</time></trkpt><trkpt lat="29.993062829125964" lon="-6.0935081460140115"><ele>854.4</ele><time>2026-03-23T10:57:00.893Z</time></trkpt><trkpt lat="29.993049740099686" lon="-6.093380076298406"><ele>853.0</ele><time>2026-03-23T10:57:01.893Z</time></trkpt><trkpt lat="29.993052971966417" lon="-6.093247626710081"><ele>852.0</ele><time>2026-03-23T10:57:02.893Z</time></trkpt><trkpt lat="29.993069235345885" lon="-6.09311341016848"><ele>851.0</ele><time>2026-03-23T10:57:03.893Z</time></trkpt><trkpt lat="29.993084776058453" lon="-6.092972171059877"><ele>850.0</ele><time>2026-03-23T10:57:04.893Z</time></trkpt><trkpt lat="29.99310195653335" lon="-6.0928253878558225"><ele>849.0</ele><time>2026-03-23T10:57:05.893Z</time></trkpt><trkpt lat="29.993117489952446" lon="-6.09265196430652"><ele>849.0</ele><time>2026-03-23T10:57:06.893Z</time></trkpt><trkpt lat="29.99313108418591" lon="-6.0924761922550275"><ele>849.0</ele><time>2026-03-23T10:57:07.893Z</time></trkpt><trkpt lat="29.993140753618302" lon="-6.09230494611353"><ele>849.0</ele><time>2026-03-23T10:57:08.893Z</time></trkpt><trkpt lat="29.993154328254143" lon="-6.09214893771616"><ele>849.0</ele><time>2026-03-23T10:57:09.893Z</time></trkpt><trkpt lat="29.993168308407892" lon="-6.0920023430040695"><ele>849.4000000000001</ele><time>2026-03-23T10:57:10.893Z</time></trkpt><trkpt lat="29.993177627487672" lon="-6.091860513778069"><ele>849.8</ele><time>2026-03-23T10:57:11.893Z</time></trkpt><trkpt lat="29.993183481477033" lon="-6.091723680165276"><ele>850.2</ele><time>2026-03-23T10:57:12.893Z</time></trkpt><trkpt lat="29.993198924279262" lon="-6.091599036206577"><ele>850.5999999999999</ele><time>2026-03-23T10:57:13.893Z</time></trkpt><trkpt lat="29.99321498027125" lon="-6.091488256428037"><ele>851.0</ele><time>2026-03-23T10:57:14.893Z</time></trkpt><trkpt lat="29.993229066590256" lon="-6.091358413446141"><ele>851.25</ele><time>2026-03-23T10:57:15.893Z</time></trkpt><trkpt lat="29.99324601442162" lon="-6.091219089844402"><ele>851.5</ele><time>2026-03-23T10:57:16.893Z</time></trkpt><trkpt lat="29.993263767516602" lon="-6.091080860384433"><ele>851.75</ele><time>2026-03-23T10:57:17.893Z</time></trkpt><trkpt lat="29.993281274040733" lon="-6.090941016519641"><ele>852.0</ele><time>2026-03-23T10:57:18.893Z</time></trkpt><trkpt lat="29.993308194892304" lon="-6.090800004246737"><ele>852.0</ele><time>2026-03-23T10:57:19.893Z</time></trkpt><trkpt lat="29.993317181628697" lon="-6.090658898648335"><ele>852.0</ele><time>2026-03-23T10:57:20.893Z</time></trkpt><trkpt lat="29.99332579271994" lon="-6.090510666287565"><ele>852.0</ele><time>2026-03-23T10:57:21.893Z</time></trkpt><trkpt lat="29.993331776094085" lon="-6.090364333572231"><ele>852.0</ele><time>2026-03-23T10:57:22.893Z</time></trkpt><trkpt lat="29.99334418944961" lon="-6.090216179156895"><ele>841.25</ele><time>2026-03-23T10:57:23.893Z</time></trkpt><trkpt lat="29.993367948955115" lon="-6.090073056161919"><ele>830.5</ele><time>2026-03-23T10:57:24.893Z</time></trkpt><trkpt lat="29.993395710861453" lon="-6.08992975119788"><ele>819.75</ele><time>2026-03-23T10:57:25.893Z</time></trkpt><trkpt lat="29.99342569921947" lon="-6.089785639267937"><ele>809.0</ele><time>2026-03-23T10:57:26.893Z</time></trkpt><trkpt lat="29.993450293559135" lon="-6.089649916022137"><ele>808.25</ele><time>2026-03-23T10:57:27.893Z</time></trkpt><trkpt lat="29.993472782043593" lon="-6.089524018699742"><ele>807.5</ele><time>2026-03-23T10:57:28.893Z</time></trkpt><trkpt lat="29.993485965395536" lon="-6.089393348657186"><ele>806.75</ele><time>2026-03-23T10:57:29.893Z</time></trkpt><trkpt lat="29.9934887022008" lon="-6.08926757007157"><ele>806.0</ele><time>2026-03-23T10:57:30.893Z</time></trkpt><trkpt lat="29.99348758752306" lon="-6.089127645098572"><ele>806.75</ele><time>2026-03-23T10:57:31.893Z</time></trkpt><trkpt lat="29.993485758956737" lon="-6.088986914867192"><ele>807.5</ele><time>2026-03-23T10:57:32.893Z</time></trkpt><trkpt lat="29.993486017604795" lon="-6.088837312770094"><ele>808.25</ele><time>2026-03-23T10:57:33.893Z</time></trkpt><trkpt lat="29.9934954978652" lon="-6.088687512563739"><ele>809.0</ele><time>2026-03-23T10:57:34.893Z</time></trkpt><trkpt lat="29.99348965653594" lon="-6.088534257818141"><ele>809.0</ele><time>2026-03-23T10:57:35.893Z</time></trkpt><trkpt lat="29.993478348105995" lon="-6.088392317276895"><ele>809.0</ele><time>2026-03-23T10:57:36.893Z</time></trkpt><trkpt lat="29.993478579687896" lon="-6.0882425171140095"><ele>809.0</ele><time>2026-03-23T10:57:37.892Z</time></trkpt><trkpt lat="29.993472285805666" lon="-6.088104251956631"><ele>809.0</ele><time>2026-03-23T10:57:38.892Z</time></trkpt><trkpt lat="29.99345629706566" lon="-6.087980728231999"><ele>807.5000000000001</ele><time>2026-03-23T10:57:39.892Z</time></trkpt><trkpt lat="29.99343093656672" lon="-6.087865831642133"><ele>806.0</ele><time>2026-03-23T10:57:40.892Z</time></trkpt><trkpt lat="29.993413126374914" lon="-6.087756154858723"><ele>804.5</ele><time>2026-03-23T10:57:41.892Z</time></trkpt><trkpt lat="29.993401816760354" lon="-6.087654880608585"><ele>803.0</ele><time>2026-03-23T10:57:42.892Z</time></trkpt><trkpt lat="29.993391299834137" lon="-6.087559113386476"><ele>801.5000000000001</ele><time>2026-03-23T10:57:43.892Z</time></trkpt><trkpt lat="29.993380369436206" lon="-6.087471280298366"><ele>800.0</ele><time>2026-03-23T10:57:44.892Z</time></trkpt><trkpt lat="29.993354533843714" lon="-6.087384029981623"><ele>803.6666666666667</ele><time>2026-03-23T10:57:45.892Z</time></trkpt><trkpt lat="29.993319803416814" lon="-6.087294567915971"><ele>807.3333333333334</ele><time>2026-03-23T10:57:46.892Z</time></trkpt><trkpt lat="29.99327864378395" lon="-6.087215802393569"><ele>811.0</ele><time>2026-03-23T10:57:47.892Z</time></trkpt><trkpt lat="29.993235914380474" lon="-6.087138936802778"><ele>814.6666666666667</ele><time>2026-03-23T10:57:48.892Z</time></trkpt><trkpt lat="29.99318906932325" lon="-6.08706722738216"><ele>818.3333333333334</ele><time>2026-03-23T10:57:49.892Z</time></trkpt><trkpt lat="29.993140390650087" lon="-6.087001340801172"><ele>822.0</ele><time>2026-03-23T10:57:50.892Z</time></trkpt><trkpt lat="29.993090578695192" lon="-6.0869272209948315"><ele>822.0</ele><time>2026-03-23T10:57:51.892Z</time></trkpt><trkpt lat="29.993042238194175" lon="-6.08684503041184"><ele>822.0</ele><time>2026-03-23T10:57:52.892Z</time></trkpt><trkpt lat="29.992992413497937" lon="-6.086767988365718"><ele>822.0</ele><time>2026-03-23T10:57:53.892Z</time></trkpt><trkpt lat="29.992929073701433" lon="-6.086691571048957"><ele>822.0</ele><time>2026-03-23T10:57:54.892Z</time></trkpt><trkpt lat="29.992864096791244" lon="-6.086614647826639"><ele>822.0</ele><time>2026-03-23T10:57:55.892Z</time></trkpt><trkpt lat="29.992802920120376" lon="-6.086528401504394"><ele>821.8333333333334</ele><time>2026-03-23T10:57:56.892Z</time></trkpt><trkpt lat="29.992752970987883" lon="-6.086442825950353"><ele>821.6666666666667</ele><time>2026-03-23T10:57:57.892Z</time></trkpt><trkpt lat="29.992706571413688" lon="-6.086364021437107"><ele>821.5</ele><time>2026-03-23T10:57:58.892Z</time></trkpt><trkpt lat="29.99265477238846" lon="-6.086287563138109"><ele>821.3333333333334</ele><time>2026-03-23T10:57:59.892Z</time></trkpt><trkpt lat="29.99259799552913" lon="-6.0862292955385655"><ele>821.1666666666667</ele><time>2026-03-23T10:58:00.892Z</time></trkpt><trkpt lat="29.992526288069676" lon="-6.086187950249196"><ele>821.0</ele><time>2026-03-23T10:58:01.892Z</time></trkpt><trkpt lat="29.99244643580081" lon="-6.086171376462332"><ele>821.0000000000001</ele><time>2026-03-23T10:58:02.892Z</time></trkpt><trkpt lat="29.992364552154502" lon="-6.086158453279796"><ele>821.0</ele><time>2026-03-23T10:58:03.892Z</time></trkpt><trkpt lat="29.992266062574274" lon="-6.086152265471125"><ele>821.0</ele><time>2026-03-23T10:58:04.892Z</time></trkpt><trkpt lat="29.99219129763759" lon="-6.086134627569655"><ele>821.0</ele><time>2026-03-23T10:58:05.892Z</time></trkpt><trkpt lat="29.992100973750123" lon="-6.086130413474723"><ele>821.0000000000001</ele><time>2026-03-23T10:58:06.892Z</time></trkpt><trkpt lat="29.992012867394163" lon="-6.086113208331081"><ele>821.0</ele><time>2026-03-23T10:58:07.892Z</time></trkpt><trkpt lat="29.99193504837543" lon="-6.086102098730253"><ele>821.0000000000001</ele><time>2026-03-23T10:58:08.892Z</time></trkpt><trkpt lat="29.991865201596337" lon="-6.08610793692432"><ele>821.0</ele><time>2026-03-23T10:58:09.892Z</time></trkpt><trkpt lat="29.991801205791074" lon="-6.086131223306117"><ele>821.0</ele><time>2026-03-23T10:58:10.892Z</time></trkpt><trkpt lat="29.991744547783323" lon="-6.086171188367122"><ele>821.0</ele><time>2026-03-23T10:58:12.892Z</time></trkpt><trkpt lat="29.9916636707967" lon="-6.086177631089953"><ele>821.0000000000001</ele><time>2026-03-23T10:58:14.892Z</time></trkpt><trkpt lat="29.99152049064249" lon="-6.086189150291481"><ele>821.0</ele><time>2026-03-23T10:58:16.892Z</time></trkpt><trkpt lat="29.9914252002412" lon="-6.086187301851599"><ele>821.8</ele><time>2026-03-23T10:58:17.892Z</time></trkpt><trkpt lat="29.99133923298127" lon="-6.086177200490685"><ele>822.5999999999999</ele><time>2026-03-23T10:58:18.892Z</time></trkpt><trkpt lat="29.991248271367212" lon="-6.0861700374135905"><ele>823.4</ele><time>2026-03-23T10:58:19.892Z</time></trkpt><trkpt lat="29.991149406826594" lon="-6.086159127129108"><ele>824.2</ele><time>2026-03-23T10:58:20.892Z</time></trkpt><trkpt lat="29.991056353696344" lon="-6.08614665746451"><ele>825.0</ele><time>2026-03-23T10:58:21.892Z</time></trkpt><trkpt lat="29.99096662848556" lon="-6.086147688194595"><ele>825.0</ele><time>2026-03-23T10:58:22.892Z</time></trkpt><trkpt lat="29.990879998294407" lon="-6.086163481982317"><ele>825.0</ele><time>2026-03-23T10:58:23.892Z</time></trkpt><trkpt lat="29.990804706895457" lon="-6.086181413398979"><ele>825.0</ele><time>2026-03-23T10:58:24.892Z</time></trkpt><trkpt lat="29.99072835109487" lon="-6.086215593874355"><ele>825.0</ele><time>2026-03-23T10:58:25.892Z</time></trkpt><trkpt lat="29.99060715682906" lon="-6.086213193087198"><ele>825.0</ele><time>2026-03-23T10:58:27.892Z</time></trkpt><trkpt lat="29.99054346860524" lon="-6.086176640119916"><ele>825.0</ele><time>2026-03-23T10:58:28.892Z</time></trkpt><trkpt lat="29.990493477603568" lon="-6.086128578792739"><ele>823.6</ele><time>2026-03-23T10:58:29.892Z</time></trkpt><trkpt lat="29.990424791091208" lon="-6.086098362840167"><ele>822.2</ele><time>2026-03-23T10:58:30.892Z</time></trkpt><trkpt lat="29.990299404790242" lon="-6.0861033498898784"><ele>820.8</ele><time>2026-03-23T10:58:32.892Z</time></trkpt><trkpt lat="29.990227294438405" lon="-6.086088934577624"><ele>819.4</ele><time>2026-03-23T10:58:33.892Z</time></trkpt><trkpt lat="29.990142117837472" lon="-6.0860757670375865"><ele>818.0</ele><time>2026-03-23T10:58:34.892Z</time></trkpt><trkpt lat="29.990053489424987" lon="-6.086049763015646"><ele>816.2</ele><time>2026-03-23T10:58:35.892Z</time></trkpt><trkpt lat="29.989955700918483" lon="-6.086009788953381"><ele>814.4</ele><time>2026-03-23T10:58:36.892Z</time></trkpt><trkpt lat="29.989852481187892" lon="-6.08597125790199"><ele>812.6</ele><time>2026-03-23T10:58:37.892Z</time></trkpt><trkpt lat="29.989754350106214" lon="-6.0859183211143035"><ele>810.8000000000001</ele><time>2026-03-23T10:58:38.892Z</time></trkpt><trkpt lat="29.989659426278013" lon="-6.085872210095229"><ele>809.0</ele><time>2026-03-23T10:58:39.892Z</time></trkpt><trkpt lat="29.98955643665783" lon="-6.085828100212155"><ele>809.0</ele><time>2026-03-23T10:58:40.893Z</time></trkpt><trkpt lat="29.98945223357156" lon="-6.085778385846422"><ele>809.0</ele><time>2026-03-23T10:58:41.892Z</time></trkpt><trkpt lat="29.98936126850035" lon="-6.085729003915498"><ele>809.0</ele><time>2026-03-23T10:58:42.892Z</time></trkpt><trkpt lat="29.989274415308437" lon="-6.085685057838516"><ele>809.0</ele><time>2026-03-23T10:58:43.892Z</time></trkpt><trkpt lat="29.989179289338686" lon="-6.085644667729094"><ele>809.0</ele><time>2026-03-23T10:58:44.892Z</time></trkpt><trkpt lat="29.98908688631103" lon="-6.085602060060407"><ele>807.2</ele><time>2026-03-23T10:58:45.892Z</time></trkpt><trkpt lat="29.988991261285282" lon="-6.085568957403026"><ele>805.4000000000001</ele><time>2026-03-23T10:58:46.892Z</time></trkpt><trkpt lat="29.988897159638167" lon="-6.08553079208779"><ele>803.6</ele><time>2026-03-23T10:58:47.892Z</time></trkpt><trkpt lat="29.988813678065785" lon="-6.085485935337172"><ele>801.8</ele><time>2026-03-23T10:58:48.892Z</time></trkpt><trkpt lat="29.98872807765568" lon="-6.085446612604976"><ele>800.0</ele><time>2026-03-23T10:58:49.892Z</time></trkpt><trkpt lat="29.988642863657866" lon="-6.085410502614674"><ele>800.0</ele><time>2026-03-23T10:58:50.892Z</time></trkpt><trkpt lat="29.98855894798317" lon="-6.085381556633847"><ele>800.0</ele><time>2026-03-23T10:58:51.892Z</time></trkpt><trkpt lat="29.988468060303077" lon="-6.085387082759976"><ele>800.0</ele><time>2026-03-23T10:58:52.892Z</time></trkpt><trkpt lat="29.98838362078914" lon="-6.085412304296674"><ele>800.0</ele><time>2026-03-23T10:58:53.892Z</time></trkpt><trkpt lat="29.988293452896464" lon="-6.085443319963216"><ele>800.0</ele><time>2026-03-23T10:58:54.892Z</time></trkpt><trkpt lat="29.988197307115467" lon="-6.08546521662395"><ele>798.4</ele><time>2026-03-23T10:58:55.892Z</time></trkpt><trkpt lat="29.988091257125443" lon="-6.085493988274676"><ele>796.8</ele><time>2026-03-23T10:58:56.892Z</time></trkpt><trkpt lat="29.987996248731083" lon="-6.085536429638081"><ele>795.2</ele><time>2026-03-23T10:58:57.892Z</time></trkpt><trkpt lat="29.987890972912457" lon="-6.085583643816621"><ele>793.6</ele><time>2026-03-23T10:58:58.892Z</time></trkpt><trkpt lat="29.987787671161332" lon="-6.08561535275231"><ele>792.0</ele><time>2026-03-23T10:58:59.892Z</time></trkpt><trkpt lat="29.98768662680007" lon="-6.085644661044533"><ele>792.0</ele><time>2026-03-23T10:59:00.892Z</time></trkpt><trkpt lat="29.98758995270531" lon="-6.08567035570119"><ele>792.0</ele><time>2026-03-23T10:59:01.892Z</time></trkpt><trkpt lat="29.98749024098268" lon="-6.085689274393797"><ele>792.0</ele><time>2026-03-23T10:59:02.892Z</time></trkpt><trkpt lat="29.987397762074476" lon="-6.085692911233446"><ele>792.0</ele><time>2026-03-23T10:59:03.892Z</time></trkpt><trkpt lat="29.987304437505422" lon="-6.085675454454645"><ele>792.0</ele><time>2026-03-23T10:59:04.892Z</time></trkpt><trkpt lat="29.987219790790917" lon="-6.085665456758232"><ele>790.6666666666666</ele><time>2026-03-23T10:59:05.892Z</time></trkpt><trkpt lat="29.98714383427175" lon="-6.085637368256181"><ele>789.3333333333333</ele><time>2026-03-23T10:59:06.892Z</time></trkpt><trkpt lat="29.987071354581456" lon="-6.085590883730814"><ele>788.0</ele><time>2026-03-23T10:59:07.892Z</time></trkpt><trkpt lat="29.98699532963146" lon="-6.085559995216497"><ele>786.6666666666666</ele><time>2026-03-23T10:59:08.892Z</time></trkpt><trkpt lat="29.986922349321983" lon="-6.085548246459929"><ele>785.3333333333333</ele><time>2026-03-23T10:59:09.892Z</time></trkpt><trkpt lat="29.986849359536325" lon="-6.085548578010658"><ele>784.0</ele><time>2026-03-23T10:59:10.892Z</time></trkpt><trkpt lat="29.986774258479713" lon="-6.085522079205776"><ele>783.9999999999999</ele><time>2026-03-23T10:59:11.892Z</time></trkpt><trkpt lat="29.98669581320948" lon="-6.0854798755063415"><ele>784.0</ele><time>2026-03-23T10:59:12.892Z</time></trkpt><trkpt lat="29.98663144133192" lon="-6.085437440838077"><ele>784.0</ele><time>2026-03-23T10:59:13.892Z</time></trkpt><trkpt lat="29.986575077403906" lon="-6.085373928946874"><ele>784.0</ele><time>2026-03-23T10:59:14.891Z</time></trkpt><trkpt lat="29.986532063367445" lon="-6.085308437721186"><ele>783.9999999999999</ele><time>2026-03-23T10:59:15.891Z</time></trkpt><trkpt lat="29.98649369142542" lon="-6.085244309628188"><ele>784.0</ele><time>2026-03-23T10:59:16.891Z</time></trkpt><trkpt lat="29.986432910240367" lon="-6.085199816904815"><ele>782.6</ele><time>2026-03-23T10:59:17.891Z</time></trkpt><trkpt lat="29.98634820840569" lon="-6.085171947119983"><ele>781.2</ele><time>2026-03-23T10:59:18.891Z</time></trkpt><trkpt lat="29.98624083467022" lon="-6.085163469678729"><ele>779.8000000000001</ele><time>2026-03-23T10:59:19.891Z</time></trkpt><trkpt lat="29.98613357880829" lon="-6.085156469567824"><ele>778.4000000000001</ele><time>2026-03-23T10:59:20.891Z</time></trkpt><trkpt lat="29.986021250116355" lon="-6.085147371694654"><ele>777.0</ele><time>2026-03-23T10:59:21.891Z</time></trkpt><trkpt lat="29.985920756986406" lon="-6.085146094515754"><ele>776.0</ele><time>2026-03-23T10:59:22.891Z</time></trkpt><trkpt lat="29.98583113921094" lon="-6.085154164541451"><ele>775.0</ele><time>2026-03-23T10:59:23.891Z</time></trkpt><trkpt lat="29.985750485268653" lon="-6.0851593696112385"><ele>774.0</ele><time>2026-03-23T10:59:24.891Z</time></trkpt><trkpt lat="29.98566269884678" lon="-6.085154199648625"><ele>773.0</ele><time>2026-03-23T10:59:25.891Z</time></trkpt><trkpt lat="29.98556425982901" lon="-6.085159967501296"><ele>772.0</ele><time>2026-03-23T10:59:26.891Z</time></trkpt><trkpt lat="29.985466707090232" lon="-6.0851608577263905"><ele>772.0</ele><time>2026-03-23T10:59:27.891Z</time></trkpt><trkpt lat="29.98535116345486" lon="-6.085150044413489"><ele>772.0</ele><time>2026-03-23T10:59:28.891Z</time></trkpt><trkpt lat="29.985227975292982" lon="-6.085137543451754"><ele>772.0</ele><time>2026-03-23T10:59:29.891Z</time></trkpt><trkpt lat="29.985127512500572" lon="-6.085105715616183"><ele>772.0</ele><time>2026-03-23T10:59:30.891Z</time></trkpt><trkpt lat="29.985037172912318" lon="-6.085060506198855"><ele>772.0</ele><time>2026-03-23T10:59:31.891Z</time></trkpt><trkpt lat="29.98495708320782" lon="-6.0849972679457895"><ele>771.0</ele><time>2026-03-23T10:59:32.891Z</time></trkpt><trkpt lat="29.984884669392304" lon="-6.084936629785949"><ele>770.0</ele><time>2026-03-23T10:59:33.891Z</time></trkpt><trkpt lat="29.98482075027511" lon="-6.084884345942715"><ele>769.0</ele><time>2026-03-23T10:59:34.891Z</time></trkpt><trkpt lat="29.984725405903443" lon="-6.084812910351506"><ele>768.0</ele><time>2026-03-23T10:59:36.891Z</time></trkpt><trkpt lat="29.984641840257286" lon="-6.084796153096652"><ele>767.0</ele><time>2026-03-23T10:59:38.891Z</time></trkpt><trkpt lat="29.984559942295842" lon="-6.0848260780657615"><ele>766.8333333333333</ele><time>2026-03-23T10:59:40.891Z</time></trkpt><trkpt lat="29.98447696779229" lon="-6.084782418468109"><ele>766.6666666666666</ele><time>2026-03-23T10:59:42.891Z</time></trkpt><trkpt lat="29.98442231790851" lon="-6.084743677909114"><ele>766.5</ele><time>2026-03-23T10:59:43.891Z</time></trkpt><trkpt lat="29.984315879732563" lon="-6.084709044789736"><ele>766.3333333333334</ele><time>2026-03-23T10:59:45.891Z</time></trkpt><trkpt lat="29.98424500477167" lon="-6.084706438334057"><ele>766.1666666666667</ele><time>2026-03-23T10:59:46.891Z</time></trkpt><trkpt lat="29.984164732605677" lon="-6.084709283990115"><ele>766.0</ele><time>2026-03-23T10:59:47.891Z</time></trkpt><trkpt lat="29.984070211036965" lon="-6.084712040507983"><ele>764.6666666666667</ele><time>2026-03-23T10:59:48.891Z</time></trkpt><trkpt lat="29.98398396846424" lon="-6.0847111261064475"><ele>763.3333333333334</ele><time>2026-03-23T10:59:49.891Z</time></trkpt><trkpt lat="29.983897162371363" lon="-6.084715092644768"><ele>762.0</ele><time>2026-03-23T10:59:50.891Z</time></trkpt><trkpt lat="29.98381762920449" lon="-6.084734616363282"><ele>760.6666666666666</ele><time>2026-03-23T10:59:51.891Z</time></trkpt><trkpt lat="29.98374880884095" lon="-6.084762577602438"><ele>759.3333333333333</ele><time>2026-03-23T10:59:52.891Z</time></trkpt><trkpt lat="29.983681769503495" lon="-6.084785521416441"><ele>758.0</ele><time>2026-03-23T10:59:53.891Z</time></trkpt><trkpt lat="29.983624104100862" lon="-6.084817959051981"><ele>758.0</ele><time>2026-03-23T10:59:54.891Z</time></trkpt><trkpt lat="29.983554368329262" lon="-6.0848894002197165"><ele>758.0</ele><time>2026-03-23T10:59:56.891Z</time></trkpt><trkpt lat="29.98346219996904" lon="-6.08499656266639"><ele>758.0</ele><time>2026-03-23T10:59:58.891Z</time></trkpt><trkpt lat="29.983406873843773" lon="-6.085062724146212"><ele>758.0</ele><time>2026-03-23T10:59:59.891Z</time></trkpt><trkpt lat="29.983341276412503" lon="-6.085127732744112"><ele>758.0</ele><time>2026-03-23T11:00:00.891Z</time></trkpt><trkpt lat="29.98326328316988" lon="-6.085195414673012"><ele>758.6666666666666</ele><time>2026-03-23T11:00:01.891Z</time></trkpt><trkpt lat="29.983190442317238" lon="-6.085254248838307"><ele>759.3333333333333</ele><time>2026-03-23T11:00:02.891Z</time></trkpt><trkpt lat="29.983114701010393" lon="-6.085313489355402"><ele>760.0</ele><time>2026-03-23T11:00:03.891Z</time></trkpt><trkpt lat="29.9830501551243" lon="-6.085384653122625"><ele>760.6666666666666</ele><time>2026-03-23T11:00:04.891Z</time></trkpt><trkpt lat="29.982980030042402" lon="-6.085450362323544"><ele>761.3333333333334</ele><time>2026-03-23T11:00:05.891Z</time></trkpt><trkpt lat="29.98290686438075" lon="-6.085506787333889"><ele>762.0</ele><time>2026-03-23T11:00:06.891Z</time></trkpt><trkpt lat="29.98284194226798" lon="-6.085537864551265"><ele>762.0</ele><time>2026-03-23T11:00:07.891Z</time></trkpt><trkpt lat="29.98277729972616" lon="-6.085546266741489"><ele>762.0</ele><time>2026-03-23T11:00:08.891Z</time></trkpt><trkpt lat="29.98268284785951" lon="-6.085617740171487"><ele>762.0</ele><time>2026-03-23T11:00:10.891Z</time></trkpt><trkpt lat="29.98264068450939" lon="-6.085680768807264"><ele>762.0</ele><time>2026-03-23T11:00:11.891Z</time></trkpt><trkpt lat="29.982588638450956" lon="-6.0857476113696585"><ele>762.0</ele><time>2026-03-23T11:00:12.891Z</time></trkpt><trkpt lat="29.982529684718806" lon="-6.085802349410527"><ele>762.0</ele><time>2026-03-23T11:00:13.891Z</time></trkpt><trkpt lat="29.98245563399398" lon="-6.085833297409773"><ele>761.0</ele><time>2026-03-23T11:00:14.891Z</time></trkpt><trkpt lat="29.98239645498487" lon="-6.085860046223765"><ele>760.0</ele><time>2026-03-23T11:00:15.891Z</time></trkpt><trkpt lat="29.982331504662184" lon="-6.085899641375485"><ele>759.0</ele><time>2026-03-23T11:00:16.891Z</time></trkpt><trkpt lat="29.982277900154347" lon="-6.085942880143793"><ele>758.0</ele><time>2026-03-23T11:00:17.891Z</time></trkpt><trkpt lat="29.982227724582714" lon="-6.085992120363003"><ele>757.0</ele><time>2026-03-23T11:00:18.891Z</time></trkpt><trkpt lat="29.982114648367965" lon="-6.086048964170894"><ele>756.0</ele><time>2026-03-23T11:00:20.891Z</time></trkpt><trkpt lat="29.982046750146957" lon="-6.086064912071343"><ele>756.0</ele><time>2026-03-23T11:00:21.891Z</time></trkpt><trkpt lat="29.98196856794109" lon="-6.086078402360896"><ele>756.0</ele><time>2026-03-23T11:00:22.891Z</time></trkpt><trkpt lat="29.98188685020168" lon="-6.086083621967255"><ele>756.0</ele><time>2026-03-23T11:00:23.891Z</time></trkpt><trkpt lat="29.98180908045287" lon="-6.086089770222447"><ele>756.0</ele><time>2026-03-23T11:00:24.891Z</time></trkpt><trkpt lat="29.981721915703528" lon="-6.0861032256742025"><ele>756.0</ele><time>2026-03-23T11:00:25.891Z</time></trkpt><trkpt lat="29.981630031325455" lon="-6.086106015861017"><ele>756.0</ele><time>2026-03-23T11:00:26.891Z</time></trkpt><trkpt lat="29.981530561090544" lon="-6.086113122199105"><ele>755.0</ele><time>2026-03-23T11:00:27.891Z</time></trkpt><trkpt lat="29.98143498370846" lon="-6.086126415008732"><ele>754.0</ele><time>2026-03-23T11:00:28.891Z</time></trkpt><trkpt lat="29.98134453161791" lon="-6.08613527012724"><ele>753.0</ele><time>2026-03-23T11:00:29.891Z</time></trkpt><trkpt lat="29.98126146256745" lon="-6.08613027305907"><ele>752.0</ele><time>2026-03-23T11:00:30.891Z</time></trkpt><trkpt lat="29.981168308219004" lon="-6.08612011439999"><ele>751.0</ele><time>2026-03-23T11:00:31.891Z</time></trkpt><trkpt lat="29.981087994636855" lon="-6.086089189916968"><ele>750.0</ele><time>2026-03-23T11:00:32.891Z</time></trkpt><trkpt lat="29.98101585453491" lon="-6.086051099032303"><ele>750.0</ele><time>2026-03-23T11:00:33.891Z</time></trkpt><trkpt lat="29.980945813579847" lon="-6.086012538829316"><ele>750.0</ele><time>2026-03-23T11:00:34.891Z</time></trkpt><trkpt lat="29.980869529238905" lon="-6.085962380048409"><ele>750.0</ele><time>2026-03-23T11:00:35.891Z</time></trkpt><trkpt lat="29.980804005219007" lon="-6.085899707681269"><ele>750.0</ele><time>2026-03-23T11:00:36.891Z</time></trkpt><trkpt lat="29.980724203987723" lon="-6.085821931826347"><ele>750.0</ele><time>2026-03-23T11:00:37.891Z</time></trkpt><trkpt lat="29.980648665784496" lon="-6.08574262140178"><ele>748.4</ele><time>2026-03-23T11:00:38.891Z</time></trkpt><trkpt lat="29.980574558341072" lon="-6.085671016595215"><ele>746.8</ele><time>2026-03-23T11:00:39.891Z</time></trkpt><trkpt lat="29.98051753682115" lon="-6.085592778738659"><ele>745.2</ele><time>2026-03-23T11:00:40.891Z</time></trkpt><trkpt lat="29.98044368050202" lon="-6.085497858601624"><ele>743.6</ele><time>2026-03-23T11:00:41.891Z</time></trkpt><trkpt lat="29.980369546536856" lon="-6.085410851166646"><ele>742.0</ele><time>2026-03-23T11:00:42.891Z</time></trkpt><trkpt lat="29.980297980291873" lon="-6.085354843827"><ele>742.0</ele><time>2026-03-23T11:00:43.891Z</time></trkpt><trkpt lat="29.980218641638785" lon="-6.085320710074484"><ele>742.0</ele><time>2026-03-23T11:00:44.891Z</time></trkpt><trkpt lat="29.980130030560186" lon="-6.085297347980231"><ele>742.0</ele><time>2026-03-23T11:00:45.891Z</time></trkpt><trkpt lat="29.980038909157273" lon="-6.08526768085456"><ele>742.0</ele><time>2026-03-23T11:00:46.89Z</time></trkpt><trkpt lat="29.979950472759917" lon="-6.085205696552916"><ele>742.0</ele><time>2026-03-23T11:00:47.89Z</time></trkpt><trkpt lat="29.97984568411976" lon="-6.085100754355287"><ele>740.0</ele><time>2026-03-23T11:00:48.891Z</time></trkpt><trkpt lat="29.97972031797005" lon="-6.085001622302407"><ele>738.0</ele><time>2026-03-23T11:00:49.891Z</time></trkpt><trkpt lat="29.97958124394546" lon="-6.084929815350583"><ele>736.0</ele><time>2026-03-23T11:00:50.891Z</time></trkpt><trkpt lat="29.979447762549164" lon="-6.084859859256356"><ele>736.0</ele><time>2026-03-23T11:00:51.891Z</time></trkpt><trkpt lat="29.979324562128483" lon="-6.084810537533479"><ele>736.0</ele><time>2026-03-23T11:00:52.891Z</time></trkpt><trkpt lat="29.979214375159373" lon="-6.084757143445186"><ele>736.0</ele><time>2026-03-23T11:00:53.891Z</time></trkpt><trkpt lat="29.97908874689358" lon="-6.084691039849702"><ele>736.0</ele><time>2026-03-23T11:00:54.891Z</time></trkpt><trkpt lat="29.978961894463836" lon="-6.084618338135797"><ele>734.25</ele><time>2026-03-23T11:00:55.891Z</time></trkpt><trkpt lat="29.97884425509434" lon="-6.084559938621506"><ele>732.5</ele><time>2026-03-23T11:00:56.891Z</time></trkpt><trkpt lat="29.97873714896718" lon="-6.084509196512739"><ele>730.75</ele><time>2026-03-23T11:00:57.891Z</time></trkpt><trkpt lat="29.97864408017488" lon="-6.08446442739602"><ele>729.0</ele><time>2026-03-23T11:00:58.891Z</time></trkpt><trkpt lat="29.978532987142778" lon="-6.0844145770129465"><ele>729.0</ele><time>2026-03-23T11:00:59.891Z</time></trkpt><trkpt lat="29.978428215241493" lon="-6.0843766516464575"><ele>729.0</ele><time>2026-03-23T11:01:00.891Z</time></trkpt><trkpt lat="29.97831792560079" lon="-6.084340070986917"><ele>729.0</ele><time>2026-03-23T11:01:01.891Z</time></trkpt><trkpt lat="29.978214241958757" lon="-6.084297088550337"><ele>729.0</ele><time>2026-03-23T11:01:02.891Z</time></trkpt><trkpt lat="29.978119540811708" lon="-6.084250307639875"><ele>729.0</ele><time>2026-03-23T11:01:03.891Z</time></trkpt><trkpt lat="29.97802559625145" lon="-6.084206270215038"><ele>727.8000000000001</ele><time>2026-03-23T11:01:04.891Z</time></trkpt><trkpt lat="29.977951091210887" lon="-6.084164287554319"><ele>726.6</ele><time>2026-03-23T11:01:05.891Z</time></trkpt><trkpt lat="29.97785431110243" lon="-6.084118449004395"><ele>725.4</ele><time>2026-03-23T11:01:06.891Z</time></trkpt><trkpt lat="29.977762906162763" lon="-6.0840683009071865"><ele>724.2</ele><time>2026-03-23T11:01:07.891Z</time></trkpt><trkpt lat="29.977665574296285" lon="-6.084023463000726"><ele>723.0</ele><time>2026-03-23T11:01:08.891Z</time></trkpt><trkpt lat="29.977564506727752" lon="-6.0839923972868775"><ele>721.4</ele><time>2026-03-23T11:01:09.891Z</time></trkpt><trkpt lat="29.977466931096274" lon="-6.083958461375198"><ele>719.8</ele><time>2026-03-23T11:01:10.891Z</time></trkpt><trkpt lat="29.97736587939781" lon="-6.083919706129028"><ele>718.2</ele><time>2026-03-23T11:01:11.891Z</time></trkpt><trkpt lat="29.97726536318843" lon="-6.083873728878913"><ele>716.6</ele><time>2026-03-23T11:01:12.891Z</time></trkpt><trkpt lat="29.977160587399986" lon="-6.083829079336442"><ele>715.0</ele><time>2026-03-23T11:01:13.891Z</time></trkpt><trkpt lat="29.977050311070602" lon="-6.083787796562126"><ele>715.0</ele><time>2026-03-23T11:01:14.891Z</time></trkpt><trkpt lat="29.97694241870377" lon="-6.083746641364472"><ele>715.0</ele><time>2026-03-23T11:01:15.891Z</time></trkpt><trkpt lat="29.97681610414517" lon="-6.083705354364965"><ele>715.0</ele><time>2026-03-23T11:01:16.891Z</time></trkpt><trkpt lat="29.976689085837126" lon="-6.08366341230215"><ele>715.0</ele><time>2026-03-23T11:01:17.891Z</time></trkpt><trkpt lat="29.97654073595251" lon="-6.083628282010417"><ele>712.0</ele><time>2026-03-23T11:01:18.891Z</time></trkpt><trkpt lat="29.976385924735503" lon="-6.0835787398008705"><ele>709.0</ele><time>2026-03-23T11:01:19.891Z</time></trkpt><trkpt lat="29.976233074288505" lon="-6.083534367049554"><ele>706.0</ele><time>2026-03-23T11:01:20.891Z</time></trkpt><trkpt lat="29.976100422682897" lon="-6.083506820204579"><ele>706.0</ele><time>2026-03-23T11:01:21.891Z</time></trkpt><trkpt lat="29.975983627716403" lon="-6.08349410697367"><ele>706.0</ele><time>2026-03-23T11:01:22.891Z</time></trkpt><trkpt lat="29.97586726455302" lon="-6.08348242469038"><ele>706.0</ele><time>2026-03-23T11:01:23.891Z</time></trkpt><trkpt lat="29.975747159140404" lon="-6.083457609512624"><ele>706.0</ele><time>2026-03-23T11:01:24.891Z</time></trkpt><trkpt lat="29.975623613173287" lon="-6.083435536172462"><ele>704.75</ele><time>2026-03-23T11:01:25.891Z</time></trkpt><trkpt lat="29.975499240393194" lon="-6.083414380646562"><ele>703.5</ele><time>2026-03-23T11:01:26.891Z</time></trkpt><trkpt lat="29.975365837735712" lon="-6.083389069148105"><ele>702.25</ele><time>2026-03-23T11:01:27.891Z</time></trkpt><trkpt lat="29.975233702400125" lon="-6.083353983416783"><ele>701.0</ele><time>2026-03-23T11:01:28.891Z</time></trkpt><trkpt lat="29.975116407369484" lon="-6.083307832417168"><ele>698.75</ele><time>2026-03-23T11:01:29.891Z</time></trkpt><trkpt lat="29.974993814112775" lon="-6.083263061404596"><ele>696.5</ele><time>2026-03-23T11:01:30.891Z</time></trkpt><trkpt lat="29.974869021935326" lon="-6.083224265925277"><ele>694.25</ele><time>2026-03-23T11:01:31.891Z</time></trkpt><trkpt lat="29.974753464777383" lon="-6.083174918578692"><ele>692.0</ele><time>2026-03-23T11:01:32.891Z</time></trkpt><trkpt lat="29.974628573278434" lon="-6.083134740344075"><ele>692.0</ele><time>2026-03-23T11:01:33.891Z</time></trkpt><trkpt lat="29.974515894544137" lon="-6.083102374053887"><ele>692.0</ele><time>2026-03-23T11:01:34.891Z</time></trkpt><trkpt lat="29.974399245644108" lon="-6.083079011141958"><ele>692.0</ele><time>2026-03-23T11:01:35.891Z</time></trkpt><trkpt lat="29.974270420823625" lon="-6.083058917908855"><ele>692.0</ele><time>2026-03-23T11:01:36.891Z</time></trkpt><trkpt lat="29.974131913911833" lon="-6.083034354171064"><ele>690.0</ele><time>2026-03-23T11:01:37.891Z</time></trkpt><trkpt lat="29.974010175558707" lon="-6.083013109685984"><ele>688.0</ele><time>2026-03-23T11:01:38.891Z</time></trkpt><trkpt lat="29.973902137453788" lon="-6.083005194311693"><ele>686.0</ele><time>2026-03-23T11:01:39.891Z</time></trkpt><trkpt lat="29.973792227263754" lon="-6.083000736932989"><ele>684.0</ele><time>2026-03-23T11:01:40.891Z</time></trkpt><trkpt lat="29.973677164223307" lon="-6.082997553491886"><ele>684.0</ele><time>2026-03-23T11:01:41.891Z</time></trkpt><trkpt lat="29.97356034298092" lon="-6.08296946421405"><ele>684.0</ele><time>2026-03-23T11:01:42.891Z</time></trkpt><trkpt lat="29.973428048217876" lon="-6.082921373623218"><ele>684.0</ele><time>2026-03-23T11:01:43.891Z</time></trkpt><trkpt lat="29.973307304456856" lon="-6.082848621654377"><ele>684.0</ele><time>2026-03-23T11:01:44.891Z</time></trkpt><trkpt lat="29.973189269122507" lon="-6.082772608399069"><ele>682.75</ele><time>2026-03-23T11:01:45.891Z</time></trkpt><trkpt lat="29.973073495879493" lon="-6.082691404948734"><ele>681.5</ele><time>2026-03-23T11:01:46.891Z</time></trkpt><trkpt lat="29.97295890506656" lon="-6.082606224780247"><ele>680.25</ele><time>2026-03-23T11:01:47.891Z</time></trkpt><trkpt lat="29.972852268092552" lon="-6.0825302387613185"><ele>679.0</ele><time>2026-03-23T11:01:48.891Z</time></trkpt><trkpt lat="29.972745531728886" lon="-6.082456408761782"><ele>678.75</ele><time>2026-03-23T11:01:49.891Z</time></trkpt><trkpt lat="29.97264463915375" lon="-6.082373743304905"><ele>678.5</ele><time>2026-03-23T11:01:50.891Z</time></trkpt><trkpt lat="29.972544673753426" lon="-6.082282614253916"><ele>678.25</ele><time>2026-03-23T11:01:51.891Z</time></trkpt><trkpt lat="29.97244015119867" lon="-6.082200360658203"><ele>678.0</ele><time>2026-03-23T11:01:52.891Z</time></trkpt><trkpt lat="29.972328982453025" lon="-6.082127603757225"><ele>677.25</ele><time>2026-03-23T11:01:53.891Z</time></trkpt><trkpt lat="29.97221363186593" lon="-6.082049652884441"><ele>676.5</ele><time>2026-03-23T11:01:54.891Z</time></trkpt><trkpt lat="29.972100528522155" lon="-6.081978462247946"><ele>675.75</ele><time>2026-03-23T11:01:55.891Z</time></trkpt><trkpt lat="29.97198494114331" lon="-6.081888146751694"><ele>675.0</ele><time>2026-03-23T11:01:56.891Z</time></trkpt><trkpt lat="29.971863874478178" lon="-6.081790070066262"><ele>675.0</ele><time>2026-03-23T11:01:57.891Z</time></trkpt><trkpt lat="29.971739981751266" lon="-6.081703894136477"><ele>675.0</ele><time>2026-03-23T11:01:58.891Z</time></trkpt><trkpt lat="29.971619987382343" lon="-6.0816157107142566"><ele>675.0</ele><time>2026-03-23T11:01:59.891Z</time></trkpt><trkpt lat="29.97150587399947" lon="-6.081528346792478"><ele>675.0</ele><time>2026-03-23T11:02:00.891Z</time></trkpt><trkpt lat="29.971392494054975" lon="-6.081439267306061"><ele>674.5</ele><time>2026-03-23T11:02:01.891Z</time></trkpt><trkpt lat="29.97128003684305" lon="-6.081350771021638"><ele>674.0</ele><time>2026-03-23T11:02:02.891Z</time></trkpt><trkpt lat="29.97117054498653" lon="-6.081263136150765"><ele>673.5</ele><time>2026-03-23T11:02:03.891Z</time></trkpt><trkpt lat="29.9710621184731" lon="-6.0811724559766205"><ele>673.0</ele><time>2026-03-23T11:02:04.891Z</time></trkpt><trkpt lat="29.970963726329696" lon="-6.081098731961671"><ele>673.0</ele><time>2026-03-23T11:02:05.891Z</time></trkpt><trkpt lat="29.97085988253135" lon="-6.081028013905125"><ele>673.0</ele><time>2026-03-23T11:02:06.891Z</time></trkpt><trkpt lat="29.970750824901977" lon="-6.0809625127344535"><ele>673.0</ele><time>2026-03-23T11:02:07.891Z</time></trkpt><trkpt lat="29.970652994596854" lon="-6.080901541392782"><ele>673.0</ele><time>2026-03-23T11:02:08.891Z</time></trkpt><trkpt lat="29.970562553205678" lon="-6.080840393877376"><ele>672.6666666666667</ele><time>2026-03-23T11:02:09.891Z</time></trkpt><trkpt lat="29.970483545674696" lon="-6.080780293011254"><ele>672.3333333333334</ele><time>2026-03-23T11:02:10.891Z</time></trkpt><trkpt lat="29.970417890064407" lon="-6.080733276358541"><ele>672.0</ele><time>2026-03-23T11:02:11.891Z</time></trkpt><trkpt lat="29.97033842956242" lon="-6.080684929311392"><ele>671.6666666666666</ele><time>2026-03-23T11:02:13.891Z</time></trkpt><trkpt lat="29.970249723014966" lon="-6.080617616447175"><ele>671.3333333333333</ele><time>2026-03-23T11:09:48.884Z</time></trkpt><trkpt lat="29.970192284766945" lon="-6.080577796891698"><ele>671.0</ele><time>2026-03-23T11:09:49.884Z</time></trkpt><trkpt lat="29.970138668719834" lon="-6.0805388277832915"><ele>670.8</ele><time>2026-03-23T11:09:50.884Z</time></trkpt><trkpt lat="29.97008207116259" lon="-6.080495478945594"><ele>670.5999999999999</ele><time>2026-03-23T11:09:51.884Z</time></trkpt><trkpt lat="29.970023023344673" lon="-6.080447251914489"><ele>670.4</ele><time>2026-03-23T11:09:52.884Z</time></trkpt><trkpt lat="29.969961122852485" lon="-6.080402431746262"><ele>670.2</ele><time>2026-03-23T11:09:53.884Z</time></trkpt><trkpt lat="29.969886166416277" lon="-6.0803607008462475"><ele>670.0</ele><time>2026-03-23T11:09:54.884Z</time></trkpt><trkpt lat="29.969656061320993" lon="-6.080295340648649"><ele>668.2</ele><time>2026-03-23T11:09:57.884Z</time></trkpt><trkpt lat="29.969557092779475" lon="-6.080366846656437"><ele>666.4</ele><time>2026-03-23T11:09:58.884Z</time></trkpt><trkpt lat="29.96946366431021" lon="-6.080389800324842"><ele>664.5999999999999</ele><time>2026-03-23T11:09:59.884Z</time></trkpt><trkpt lat="29.969364793695554" lon="-6.080413791498199"><ele>662.8</ele><time>2026-03-23T11:10:00.884Z</time></trkpt><trkpt lat="29.969251027881246" lon="-6.080462091145548"><ele>661.0</ele><time>2026-03-23T11:10:01.884Z</time></trkpt><trkpt lat="29.96915703520258" lon="-6.080500662117604"><ele>660.0</ele><time>2026-03-23T11:10:02.884Z</time></trkpt><trkpt lat="29.969059900745833" lon="-6.080544332691317"><ele>659.0</ele><time>2026-03-23T11:10:03.884Z</time></trkpt><trkpt lat="29.968960485974108" lon="-6.080580833065917"><ele>658.0</ele><time>2026-03-23T11:10:04.884Z</time></trkpt><trkpt lat="29.968850525584582" lon="-6.080631862049331"><ele>657.0</ele><time>2026-03-23T11:10:05.884Z</time></trkpt><trkpt lat="29.96873105915416" lon="-6.080703981555518"><ele>657.75</ele><time>2026-03-23T11:10:06.884Z</time></trkpt><trkpt lat="29.968604477064325" lon="-6.08079537178019"><ele>658.5</ele><time>2026-03-23T11:10:07.884Z</time></trkpt><trkpt lat="29.96848828588042" lon="-6.080894105142073"><ele>659.25</ele><time>2026-03-23T11:10:08.884Z</time></trkpt><trkpt lat="29.96840489126359" lon="-6.08097653821864"><ele>660.0</ele><time>2026-03-23T11:10:09.884Z</time></trkpt><trkpt lat="29.968332213708962" lon="-6.081032501934603"><ele>659.0</ele><time>2026-03-23T11:10:10.884Z</time></trkpt><trkpt lat="29.968259244440688" lon="-6.081101613100589"><ele>658.0</ele><time>2026-03-23T11:10:11.884Z</time></trkpt><trkpt lat="29.96820101833144" lon="-6.08116106664836"><ele>657.0</ele><time>2026-03-23T11:10:12.884Z</time></trkpt><trkpt lat="29.968155707754548" lon="-6.081218021732504"><ele>656.0</ele><time>2026-03-23T11:10:13.884Z</time></trkpt><trkpt lat="29.968125776337168" lon="-6.081282833509714"><ele>655.0</ele><time>2026-03-23T11:10:14.884Z</time></trkpt><trkpt lat="29.968075598865397" lon="-6.081328662057163"><ele>654.0</ele><time>2026-03-23T11:10:15.884Z</time></trkpt><trkpt lat="29.967974794838042" lon="-6.081373999283123"><ele>654.0</ele><time>2026-03-23T11:10:16.884Z</time></trkpt><trkpt lat="29.96785920061313" lon="-6.081428758122665"><ele>654.0</ele><time>2026-03-23T11:10:17.884Z</time></trkpt><trkpt lat="29.967730565377327" lon="-6.081512925715506"><ele>654.0</ele><time>2026-03-23T11:10:18.884Z</time></trkpt><trkpt lat="29.96757518619342" lon="-6.081625427191392"><ele>653.6666666666666</ele><time>2026-03-23T11:10:19.884Z</time></trkpt><trkpt lat="29.967408282265772" lon="-6.08172824107243"><ele>653.3333333333333</ele><time>2026-03-23T11:10:20.884Z</time></trkpt><trkpt lat="29.967270449550227" lon="-6.081808484253704"><ele>653.0</ele><time>2026-03-23T11:10:21.884Z</time></trkpt><trkpt lat="29.967156744716345" lon="-6.08188159387324"><ele>653.0</ele><time>2026-03-23T11:10:22.884Z</time></trkpt><trkpt lat="29.96706234988673" lon="-6.081955461264703"><ele>653.0</ele><time>2026-03-23T11:10:23.884Z</time></trkpt><trkpt lat="29.96697662357658" lon="-6.082036088218236"><ele>653.0</ele><time>2026-03-23T11:10:24.884Z</time></trkpt><trkpt lat="29.966885211765145" lon="-6.082108783731775"><ele>653.0</ele><time>2026-03-23T11:10:25.884Z</time></trkpt><trkpt lat="29.966784331845" lon="-6.0821682194611"><ele>653.0</ele><time>2026-03-23T11:10:26.884Z</time></trkpt><trkpt lat="29.96666324088613" lon="-6.082201543447267"><ele>652.6666666666666</ele><time>2026-03-23T11:10:27.884Z</time></trkpt><trkpt lat="29.966516621629733" lon="-6.082261890370539"><ele>652.3333333333334</ele><time>2026-03-23T11:10:28.884Z</time></trkpt><trkpt lat="29.96634436147122" lon="-6.082336811261134"><ele>652.0</ele><time>2026-03-23T11:10:29.884Z</time></trkpt><trkpt lat="29.966201440248692" lon="-6.082403189013633"><ele>652.0</ele><time>2026-03-23T11:10:30.884Z</time></trkpt><trkpt lat="29.96608404236707" lon="-6.082447312870526"><ele>652.0</ele><time>2026-03-23T11:10:31.884Z</time></trkpt><trkpt lat="29.965974252153632" lon="-6.082483761320914"><ele>652.0</ele><time>2026-03-23T11:10:32.884Z</time></trkpt><trkpt lat="29.96586475935402" lon="-6.082515022289498"><ele>652.0</ele><time>2026-03-23T11:10:33.884Z</time></trkpt><trkpt lat="29.965771376685446" lon="-6.0825222475862395"><ele>652.0</ele><time>2026-03-23T11:10:34.884Z</time></trkpt><trkpt lat="29.96567027256593" lon="-6.082536376438446"><ele>652.1666666666667</ele><time>2026-03-23T11:10:35.884Z</time></trkpt><trkpt lat="29.965571895469484" lon="-6.082556147083208"><ele>652.3333333333334</ele><time>2026-03-23T11:10:36.884Z</time></trkpt><trkpt lat="29.965484121906506" lon="-6.082600146452488"><ele>652.5</ele><time>2026-03-23T11:10:37.884Z</time></trkpt><trkpt lat="29.965401506816217" lon="-6.082640562251646"><ele>652.6666666666666</ele><time>2026-03-23T11:10:38.884Z</time></trkpt><trkpt lat="29.965328671924947" lon="-6.082678768376282"><ele>652.8333333333333</ele><time>2026-03-23T11:10:39.884Z</time></trkpt><trkpt lat="29.965255179957733" lon="-6.082713423171868"><ele>653.0</ele><time>2026-03-23T11:10:40.884Z</time></trkpt><trkpt lat="29.965181666596596" lon="-6.082742036671723"><ele>653.0</ele><time>2026-03-23T11:10:41.884Z</time></trkpt><trkpt lat="29.965097769725556" lon="-6.082778609614383"><ele>653.0</ele><time>2026-03-23T11:10:42.884Z</time></trkpt><trkpt lat="29.96502053055558" lon="-6.0828265787717"><ele>653.0</ele><time>2026-03-23T11:10:43.884Z</time></trkpt><trkpt lat="29.96494058044462" lon="-6.082883289056197"><ele>653.0</ele><time>2026-03-23T11:10:44.884Z</time></trkpt><trkpt lat="29.964861784993143" lon="-6.0829297804443785"><ele>653.0</ele><time>2026-03-23T11:10:45.884Z</time></trkpt><trkpt lat="29.964786091985076" lon="-6.082971063964109"><ele>653.0</ele><time>2026-03-23T11:10:46.884Z</time></trkpt><trkpt lat="29.964720872022223" lon="-6.083008336988129"><ele>652.8333333333333</ele><time>2026-03-23T11:10:47.884Z</time></trkpt><trkpt lat="29.96462484875242" lon="-6.083032743802379"><ele>652.6666666666666</ele><time>2026-03-23T11:10:49.884Z</time></trkpt><trkpt lat="29.964544558051593" lon="-6.083063910551502"><ele>652.5</ele><time>2026-03-23T11:10:51.884Z</time></trkpt><trkpt lat="29.964491343973442" lon="-6.083137988735505"><ele>652.3333333333334</ele><time>2026-03-23T11:12:11.882Z</time></trkpt><trkpt lat="29.964417802477964" lon="-6.083212047232641"><ele>652.1666666666667</ele><time>2026-03-23T11:12:13.882Z</time></trkpt><trkpt lat="29.96436246975712" lon="-6.083259006687342"><ele>652.0</ele><time>2026-03-23T11:12:14.882Z</time></trkpt><trkpt lat="29.964304908382488" lon="-6.083339640970614"><ele>651.6666666666667</ele><time>2026-03-23T11:12:15.882Z</time></trkpt><trkpt lat="29.96424869759617" lon="-6.083405464606972"><ele>651.3333333333334</ele><time>2026-03-23T11:12:16.882Z</time></trkpt><trkpt lat="29.96419647186258" lon="-6.083457641316338"><ele>651.0</ele><time>2026-03-23T11:12:17.882Z</time></trkpt><trkpt lat="29.964119515763215" lon="-6.0835120351469385"><ele>650.6666666666666</ele><time>2026-03-23T11:12:18.882Z</time></trkpt><trkpt lat="29.96404857746256" lon="-6.083566722540492"><ele>650.3333333333333</ele><time>2026-03-23T11:12:19.882Z</time></trkpt><trkpt lat="29.963968903556925" lon="-6.083624807568852"><ele>650.0</ele><time>2026-03-23T11:12:20.882Z</time></trkpt><trkpt lat="29.963897290251257" lon="-6.083685798139687"><ele>649.5</ele><time>2026-03-23T11:12:21.882Z</time></trkpt><trkpt lat="29.963809973340116" lon="-6.083764238197362"><ele>649.0</ele><time>2026-03-23T11:12:22.882Z</time></trkpt><trkpt lat="29.96371607975311" lon="-6.083848871241573"><ele>648.5</ele><time>2026-03-23T11:12:23.882Z</time></trkpt><trkpt lat="29.963601560535274" lon="-6.083928955738711"><ele>648.0</ele><time>2026-03-23T11:12:24.882Z</time></trkpt><trkpt lat="29.963504622405303" lon="-6.08401444566858"><ele>648.0</ele><time>2026-03-23T11:12:25.882Z</time></trkpt><trkpt lat="29.963406641376366" lon="-6.084092184165108"><ele>648.0</ele><time>2026-03-23T11:12:26.882Z</time></trkpt><trkpt lat="29.963309175567215" lon="-6.084175433793169"><ele>648.0</ele><time>2026-03-23T11:12:27.882Z</time></trkpt><trkpt lat="29.963230517806952" lon="-6.084279554690686"><ele>648.0</ele><time>2026-03-23T11:12:28.882Z</time></trkpt><trkpt lat="29.963166002265243" lon="-6.084371494464526"><ele>647.8</ele><time>2026-03-23T11:12:29.882Z</time></trkpt><trkpt lat="29.96309694549384" lon="-6.08446233838451"><ele>647.5999999999999</ele><time>2026-03-23T11:12:30.882Z</time></trkpt><trkpt lat="29.963011963626492" lon="-6.084539151167332"><ele>647.4000000000001</ele><time>2026-03-23T11:12:31.882Z</time></trkpt><trkpt lat="29.96290982536942" lon="-6.084607384509523"><ele>647.2</ele><time>2026-03-23T11:12:32.882Z</time></trkpt><trkpt lat="29.96281380786285" lon="-6.084667395246921"><ele>647.0</ele><time>2026-03-23T11:12:33.882Z</time></trkpt><trkpt lat="29.962731357895507" lon="-6.084722801330613"><ele>647.0</ele><time>2026-03-23T11:12:34.882Z</time></trkpt><trkpt lat="29.962654134277624" lon="-6.084769271695619"><ele>647.0</ele><time>2026-03-23T11:12:35.882Z</time></trkpt><trkpt lat="29.962582060310105" lon="-6.0848150892333965"><ele>647.0</ele><time>2026-03-23T11:12:36.882Z</time></trkpt><trkpt lat="29.96251945503208" lon="-6.084850948426728"><ele>647.0</ele><time>2026-03-23T11:12:37.882Z</time></trkpt><trkpt lat="29.96245515211415" lon="-6.084889721520883"><ele>647.0</ele><time>2026-03-23T11:12:38.882Z</time></trkpt><trkpt lat="29.962390407154302" lon="-6.084941360597639"><ele>647.0</ele><time>2026-03-23T11:12:39.882Z</time></trkpt><trkpt lat="29.9623242152133" lon="-6.084980826449284"><ele>647.0</ele><time>2026-03-23T11:12:40.882Z</time></trkpt><trkpt lat="29.962257039107396" lon="-6.085019311738233"><ele>647.0</ele><time>2026-03-23T11:12:41.882Z</time></trkpt><trkpt lat="29.962189119336546" lon="-6.085062674584478"><ele>647.0</ele><time>2026-03-23T11:12:42.882Z</time></trkpt><trkpt lat="29.96213271825669" lon="-6.085107688648229"><ele>647.0</ele><time>2026-03-23T11:12:43.882Z</time></trkpt><trkpt lat="29.962084708101877" lon="-6.085163941512552"><ele>647.0</ele><time>2026-03-23T11:12:44.882Z</time></trkpt><trkpt lat="29.962042093082637" lon="-6.08522313774591"><ele>647.0</ele><time>2026-03-23T11:12:45.882Z</time></trkpt><trkpt lat="29.961936283012086" lon="-6.085295474890564"><ele>647.0</ele><time>2026-03-23T11:12:47.882Z</time></trkpt><trkpt lat="29.96182024869241" lon="-6.085281021706799"><ele>647.0</ele><time>2026-03-23T11:12:49.882Z</time></trkpt><trkpt lat="29.961712925594014" lon="-6.085282058022292"><ele>647.0</ele><time>2026-03-23T11:12:51.882Z</time></trkpt><trkpt lat="29.961609120379823" lon="-6.085364465007166"><ele>647.0</ele><time>2026-03-23T11:12:53.882Z</time></trkpt><trkpt lat="29.961536012250228" lon="-6.085417272265638"><ele>647.0</ele><time>2026-03-23T11:12:54.882Z</time></trkpt><trkpt lat="29.961450682192545" lon="-6.085473316396132"><ele>646.5</ele><time>2026-03-23T11:12:55.882Z</time></trkpt><trkpt lat="29.961357217759076" lon="-6.085529482406433"><ele>646.0</ele><time>2026-03-23T11:12:56.882Z</time></trkpt><trkpt lat="29.961288194966155" lon="-6.085588024221222"><ele>645.5</ele><time>2026-03-23T11:12:57.882Z</time></trkpt><trkpt lat="29.961235262974288" lon="-6.085649318636306"><ele>645.0</ele><time>2026-03-23T11:12:58.882Z</time></trkpt><trkpt lat="29.961186821353127" lon="-6.085708253579704"><ele>644.5</ele><time>2026-03-23T11:13:00.882Z</time></trkpt><trkpt lat="29.96113089259566" lon="-6.085752126882056"><ele>644.0</ele><time>2026-03-23T11:13:03.882Z</time></trkpt><trkpt lat="29.96106007370031" lon="-6.085751513133572"><ele>644.3333333333333</ele><time>2026-03-23T11:13:41.881Z</time></trkpt><trkpt lat="29.96097177230845" lon="-6.085762207271027"><ele>644.6666666666666</ele><time>2026-03-23T11:13:43.881Z</time></trkpt><trkpt lat="29.96089075964589" lon="-6.085768549231391"><ele>645.0</ele><time>2026-03-23T11:13:45.881Z</time></trkpt><trkpt lat="29.960778682542063" lon="-6.085734007663894"><ele>645.3333333333334</ele><time>2026-03-23T11:13:47.881Z</time></trkpt><trkpt lat="29.960716201336275" lon="-6.085715909330562"><ele>645.6666666666667</ele><time>2026-03-23T11:13:48.881Z</time></trkpt><trkpt lat="29.960649674749487" lon="-6.085704577101524"><ele>646.0</ele><time>2026-03-23T11:13:49.881Z</time></trkpt><trkpt lat="29.960587118609823" lon="-6.085695336909897"><ele>645.0</ele><time>2026-03-23T11:13:50.881Z</time></trkpt><trkpt lat="29.960524374465123" lon="-6.08568746903191"><ele>644.0</ele><time>2026-03-23T11:13:51.881Z</time></trkpt><trkpt lat="29.960407539171655" lon="-6.085679199992347"><ele>643.0</ele><time>2026-03-23T11:13:53.881Z</time></trkpt><trkpt lat="29.960346214688922" lon="-6.0856535659842566"><ele>642.0</ele><time>2026-03-23T11:13:54.881Z</time></trkpt><trkpt lat="29.96023370045605" lon="-6.085587693186286"><ele>641.0</ele><time>2026-03-23T11:13:56.881Z</time></trkpt><trkpt lat="29.96011560433618" lon="-6.085546891147692"><ele>640.5</ele><time>2026-03-23T11:13:58.881Z</time></trkpt><trkpt lat="29.960028343359113" lon="-6.08548688046808"><ele>640.0</ele><time>2026-03-23T11:14:00.881Z</time></trkpt><trkpt lat="29.95994979381936" lon="-6.085426606424588"><ele>639.5</ele><time>2026-03-23T11:14:02.881Z</time></trkpt><trkpt lat="29.95987857707094" lon="-6.085386556280467"><ele>639.0</ele><time>2026-03-23T11:14:04.881Z</time></trkpt><trkpt lat="29.959796191256647" lon="-6.085317853891051"><ele>638.5</ele><time>2026-03-23T11:14:06.881Z</time></trkpt><trkpt lat="29.959749419354562" lon="-6.085268375989751"><ele>638.0</ele><time>2026-03-23T11:14:07.881Z</time></trkpt><trkpt lat="29.959657004594895" lon="-6.085189336893494"><ele>638.0</ele><time>2026-03-23T11:14:09.881Z</time></trkpt><trkpt lat="29.95960327574029" lon="-6.085142976790699"><ele>638.0</ele><time>2026-03-23T11:14:10.881Z</time></trkpt><trkpt lat="29.959535040398965" lon="-6.085103725680524"><ele>638.0</ele><time>2026-03-23T11:14:11.881Z</time></trkpt><trkpt lat="29.95945836617235" lon="-6.0850744004765325"><ele>638.0</ele><time>2026-03-23T11:14:12.881Z</time></trkpt><trkpt lat="29.9593266177376" lon="-6.085053903623535"><ele>638.0</ele><time>2026-03-23T11:14:14.881Z</time></trkpt><trkpt lat="29.959224836438292" lon="-6.0850519252087665"><ele>638.3333333333333</ele><time>2026-03-23T11:14:16.881Z</time></trkpt><trkpt lat="29.959164784241597" lon="-6.085075962232201"><ele>638.6666666666666</ele><time>2026-03-23T11:14:17.881Z</time></trkpt><trkpt lat="29.95910007058618" lon="-6.085104007049877"><ele>639.0</ele><time>2026-03-23T11:14:18.881Z</time></trkpt><trkpt lat="29.959031611034295" lon="-6.085147109665718"><ele>639.3333333333334</ele><time>2026-03-23T11:14:19.881Z</time></trkpt><trkpt lat="29.958948721773712" lon="-6.085186558155738"><ele>639.6666666666667</ele><time>2026-03-23T11:14:20.881Z</time></trkpt><trkpt lat="29.95887806444736" lon="-6.085219766417941"><ele>640.0</ele><time>2026-03-23T11:14:21.881Z</time></trkpt><trkpt lat="29.958794048869873" lon="-6.0852578904718175"><ele>640.0</ele><time>2026-03-23T11:14:22.881Z</time></trkpt><trkpt lat="29.958716345140314" lon="-6.085304049321318"><ele>640.0</ele><time>2026-03-23T11:14:23.881Z</time></trkpt><trkpt lat="29.958641931248117" lon="-6.085338068586837"><ele>640.0</ele><time>2026-03-23T11:14:24.881Z</time></trkpt><trkpt lat="29.958564540062717" lon="-6.085368887004572"><ele>640.0</ele><time>2026-03-23T11:14:25.881Z</time></trkpt><trkpt lat="29.95847562408893" lon="-6.08540247438249"><ele>640.0</ele><time>2026-03-23T11:14:26.881Z</time></trkpt><trkpt lat="29.95840109967755" lon="-6.085448952682378"><ele>640.0</ele><time>2026-03-23T11:14:27.881Z</time></trkpt><trkpt lat="29.958348264845508" lon="-6.085494202293944"><ele>639.6666666666667</ele><time>2026-03-23T11:14:28.881Z</time></trkpt><trkpt lat="29.95829192547427" lon="-6.0855434442219245"><ele>639.3333333333334</ele><time>2026-03-23T11:14:29.881Z</time></trkpt><trkpt lat="29.95822751509647" lon="-6.085591553806173"><ele>639.0</ele><time>2026-03-23T11:14:30.881Z</time></trkpt><trkpt lat="29.95816623084839" lon="-6.085637413398683"><ele>638.6666666666666</ele><time>2026-03-23T11:14:31.881Z</time></trkpt><trkpt lat="29.95810570715747" lon="-6.08567542775345"><ele>638.3333333333333</ele><time>2026-03-23T11:14:32.881Z</time></trkpt><trkpt lat="29.958007278184272" lon="-6.085748184792036"><ele>638.0</ele><time>2026-03-23T11:14:34.881Z</time></trkpt><trkpt lat="29.95790744048589" lon="-6.0858446999633475"><ele>638.0</ele><time>2026-03-23T11:14:36.881Z</time></trkpt><trkpt lat="29.957837001353997" lon="-6.0858879688109395"><ele>638.0</ele><time>2026-03-23T11:14:37.881Z</time></trkpt><trkpt lat="29.957775313993253" lon="-6.085927533933907"><ele>638.0</ele><time>2026-03-23T11:14:38.881Z</time></trkpt><trkpt lat="29.957705985719105" lon="-6.08595113128032"><ele>638.0</ele><time>2026-03-23T11:14:39.881Z</time></trkpt><trkpt lat="29.957595401087207" lon="-6.085960217598292"><ele>638.0</ele><time>2026-03-23T11:14:41.881Z</time></trkpt><trkpt lat="29.957478856413495" lon="-6.085969963538755"><ele>638.0</ele><time>2026-03-23T11:14:43.881Z</time></trkpt><trkpt lat="29.95741972305219" lon="-6.085998557585998"><ele>638.0</ele><time>2026-03-23T11:14:44.881Z</time></trkpt><trkpt lat="29.95736349957548" lon="-6.086034229582215"><ele>638.0</ele><time>2026-03-23T11:14:45.881Z</time></trkpt><trkpt lat="29.95729692723831" lon="-6.0860622859648394"><ele>638.0</ele><time>2026-03-23T11:14:46.881Z</time></trkpt><trkpt lat="29.957233991959296" lon="-6.086091326390955"><ele>638.0</ele><time>2026-03-23T11:14:47.881Z</time></trkpt><trkpt lat="29.957166302995475" lon="-6.086129686005941"><ele>638.0</ele><time>2026-03-23T11:14:48.881Z</time></trkpt><trkpt lat="29.957103625863972" lon="-6.086155852738862"><ele>638.0</ele><time>2026-03-23T11:14:49.881Z</time></trkpt><trkpt lat="29.957033549234655" lon="-6.08618363974804"><ele>638.0</ele><time>2026-03-23T11:14:50.881Z</time></trkpt><trkpt lat="29.956959471667968" lon="-6.086192290029586"><ele>638.0</ele><time>2026-03-23T11:14:51.881Z</time></trkpt><trkpt lat="29.956884513743695" lon="-6.086214967457745"><ele>638.0</ele><time>2026-03-23T11:14:52.881Z</time></trkpt><trkpt lat="29.95681331691611" lon="-6.086235203626003"><ele>638.0</ele><time>2026-03-23T11:14:53.881Z</time></trkpt><trkpt lat="29.956744067312155" lon="-6.086266101822457"><ele>638.0</ele><time>2026-03-23T11:14:54.881Z</time></trkpt><trkpt lat="29.95668164588732" lon="-6.086285793531297"><ele>638.0</ele><time>2026-03-23T11:14:55.881Z</time></trkpt><trkpt lat="29.95654940836453" lon="-6.086300613738627"><ele>638.4285714285714</ele><time>2026-03-23T11:14:57.881Z</time></trkpt><trkpt lat="29.956475061705426" lon="-6.086308875714367"><ele>638.8571428571428</ele><time>2026-03-23T11:14:58.881Z</time></trkpt><trkpt lat="29.95640838637335" lon="-6.086322298517174"><ele>639.2857142857142</ele><time>2026-03-23T11:14:59.881Z</time></trkpt><trkpt lat="29.956336244059365" lon="-6.086350076498349"><ele>639.7142857142858</ele><time>2026-03-23T11:15:00.881Z</time></trkpt><trkpt lat="29.95626758417993" lon="-6.086378376897206"><ele>640.1428571428571</ele><time>2026-03-23T11:15:01.881Z</time></trkpt><trkpt lat="29.95620254771685" lon="-6.086409180601363"><ele>640.5714285714286</ele><time>2026-03-23T11:15:02.881Z</time></trkpt><trkpt lat="29.956130984610187" lon="-6.0864423637303275"><ele>641.0</ele><time>2026-03-23T11:15:03.881Z</time></trkpt><trkpt lat="29.95602933140808" lon="-6.086489976629713"><ele>641.0</ele><time>2026-03-23T11:15:05.881Z</time></trkpt><trkpt lat="29.95592602588014" lon="-6.086536710540509"><ele>641.0</ele><time>2026-03-23T11:15:07.88Z</time></trkpt><trkpt lat="29.955858742007095" lon="-6.0865537873447915"><ele>641.0</ele><time>2026-03-23T11:15:08.88Z</time></trkpt><trkpt lat="29.955779455571985" lon="-6.086564563841004"><ele>641.0</ele><time>2026-03-23T11:15:09.88Z</time></trkpt><trkpt lat="29.955698775737453" lon="-6.086576439447321"><ele>641.0</ele><time>2026-03-23T11:15:10.88Z</time></trkpt><trkpt lat="29.95562127071989" lon="-6.086595654399724"><ele>641.0</ele><time>2026-03-23T11:15:11.88Z</time></trkpt><trkpt lat="29.955546008432226" lon="-6.086620467087183"><ele>640.5</ele><time>2026-03-23T11:15:12.88Z</time></trkpt><trkpt lat="29.955460133400496" lon="-6.086659898239947"><ele>640.0</ele><time>2026-03-23T11:15:13.88Z</time></trkpt><trkpt lat="29.955387175203658" lon="-6.086700656041926"><ele>639.5</ele><time>2026-03-23T11:15:14.88Z</time></trkpt><trkpt lat="29.955307773935985" lon="-6.086753926913346"><ele>639.0</ele><time>2026-03-23T11:15:15.88Z</time></trkpt><trkpt lat="29.955215785272017" lon="-6.086797104949255"><ele>638.5</ele><time>2026-03-23T11:15:16.88Z</time></trkpt><trkpt lat="29.955135972065943" lon="-6.0868261636961485"><ele>638.0</ele><time>2026-03-23T11:15:17.88Z</time></trkpt><trkpt lat="29.95506109552109" lon="-6.086831882965747"><ele>637.5</ele><time>2026-03-23T11:15:18.88Z</time></trkpt><trkpt lat="29.954999448235117" lon="-6.086850308800278"><ele>637.0</ele><time>2026-03-23T11:15:19.88Z</time></trkpt><trkpt lat="29.954937092326013" lon="-6.086872070356415"><ele>636.5</ele><time>2026-03-23T11:15:20.88Z</time></trkpt><trkpt lat="29.95481262004198" lon="-6.086905948245199"><ele>636.0</ele><time>2026-03-23T11:15:22.88Z</time></trkpt><trkpt lat="29.954748244340156" lon="-6.086928864122225"><ele>635.5</ele><time>2026-03-23T11:15:23.88Z</time></trkpt><trkpt lat="29.95468747718689" lon="-6.0869580564099355"><ele>635.0</ele><time>2026-03-23T11:15:24.88Z</time></trkpt><trkpt lat="29.954620984803185" lon="-6.086994115089067"><ele>635.0</ele><time>2026-03-23T11:15:25.88Z</time></trkpt><trkpt lat="29.95454186155501" lon="-6.08703272007917"><ele>635.0</ele><time>2026-03-23T11:15:26.88Z</time></trkpt><trkpt lat="29.954444722137318" lon="-6.087091371630802"><ele>635.0</ele><time>2026-03-23T11:15:27.879Z</time></trkpt><trkpt lat="29.954367735675525" lon="-6.087134575681671"><ele>635.0</ele><time>2026-03-23T11:15:28.879Z</time></trkpt><trkpt lat="29.954291458063068" lon="-6.0871776741694825"><ele>635.0</ele><time>2026-03-23T11:15:29.88Z</time></trkpt><trkpt lat="29.954214736177175" lon="-6.087232763711226"><ele>635.0</ele><time>2026-03-23T11:15:30.88Z</time></trkpt><trkpt lat="29.954130051334026" lon="-6.087303572964749"><ele>635.0</ele><time>2026-03-23T11:15:31.88Z</time></trkpt><trkpt lat="29.954052082132517" lon="-6.08737333492223"><ele>635.0</ele><time>2026-03-23T11:15:32.88Z</time></trkpt><trkpt lat="29.953987471672253" lon="-6.087419616735957"><ele>635.0</ele><time>2026-03-23T11:15:33.88Z</time></trkpt><trkpt lat="29.953922939557238" lon="-6.087459196778786"><ele>635.0</ele><time>2026-03-23T11:15:34.88Z</time></trkpt><trkpt lat="29.953866668011756" lon="-6.087499977911208"><ele>635.0</ele><time>2026-03-23T11:15:35.879Z</time></trkpt><trkpt lat="29.953771401049682" lon="-6.087561872267354"><ele>635.0</ele><time>2026-03-23T11:15:37.879Z</time></trkpt><trkpt lat="29.953658461386215" lon="-6.087592241274999"><ele>635.0</ele><time>2026-03-23T11:15:39.879Z</time></trkpt><trkpt lat="29.953584533292663" lon="-6.087610609133156"><ele>635.0</ele><time>2026-03-23T11:15:40.879Z</time></trkpt><trkpt lat="29.953500314341596" lon="-6.0876295159291605"><ele>635.0</ele><time>2026-03-23T11:15:41.879Z</time></trkpt><trkpt lat="29.953431142232304" lon="-6.087673177230919"><ele>635.0</ele><time>2026-03-23T11:15:42.879Z</time></trkpt><trkpt lat="29.95336513096327" lon="-6.087732834482716"><ele>635.0</ele><time>2026-03-23T11:15:43.879Z</time></trkpt><trkpt lat="29.95329480531133" lon="-6.087791110588797"><ele>634.5</ele><time>2026-03-23T11:15:44.879Z</time></trkpt><trkpt lat="29.95323217155807" lon="-6.08783543335943"><ele>634.0</ele><time>2026-03-23T11:15:45.879Z</time></trkpt><trkpt lat="29.95318622321527" lon="-6.08790169362304"><ele>633.5</ele><time>2026-03-23T11:15:46.879Z</time></trkpt><trkpt lat="29.9531496016618" lon="-6.087962962109677"><ele>633.0</ele><time>2026-03-23T11:15:47.879Z</time></trkpt><trkpt lat="29.95310502842925" lon="-6.088020596400287"><ele>632.5</ele><time>2026-03-23T11:15:48.879Z</time></trkpt><trkpt lat="29.953001172813767" lon="-6.088109851316828"><ele>632.0</ele><time>2026-03-23T11:15:50.879Z</time></trkpt><trkpt lat="29.95292759093438" lon="-6.088158675216272"><ele>632.0</ele><time>2026-03-23T11:15:51.879Z</time></trkpt><trkpt lat="29.95286267437464" lon="-6.0882009690372145"><ele>632.0</ele><time>2026-03-23T11:15:52.879Z</time></trkpt><trkpt lat="29.952799262558703" lon="-6.088230990153561"><ele>632.0</ele><time>2026-03-23T11:15:53.879Z</time></trkpt><trkpt lat="29.952737330522353" lon="-6.088262456136087"><ele>632.0</ele><time>2026-03-23T11:15:54.879Z</time></trkpt><trkpt lat="29.952674491492225" lon="-6.088278823486289"><ele>632.0</ele><time>2026-03-23T11:15:55.879Z</time></trkpt><trkpt lat="29.952558885127747" lon="-6.088271620488991"><ele>632.0</ele><time>2026-03-23T11:15:57.879Z</time></trkpt><trkpt lat="29.95249678144696" lon="-6.088253984455931"><ele>631.6</ele><time>2026-03-23T11:15:58.879Z</time></trkpt><trkpt lat="29.95243548197258" lon="-6.0882746173300815"><ele>631.2</ele><time>2026-03-23T11:15:59.879Z</time></trkpt><trkpt lat="29.95232532989572" lon="-6.08834472038529"><ele>630.8</ele><time>2026-03-23T11:16:01.879Z</time></trkpt><trkpt lat="29.952264263981473" lon="-6.088406201807904"><ele>630.4</ele><time>2026-03-23T11:16:02.879Z</time></trkpt><trkpt lat="29.95219973414253" lon="-6.088480884309124"><ele>630.0</ele><time>2026-03-23T11:16:03.879Z</time></trkpt><trkpt lat="29.952129767657823" lon="-6.088550209079745"><ele>630.0</ele><time>2026-03-23T11:16:04.879Z</time></trkpt><trkpt lat="29.952061999638293" lon="-6.088600202936734"><ele>630.0</ele><time>2026-03-23T11:16:05.879Z</time></trkpt><trkpt lat="29.95199644634217" lon="-6.0886280027853665"><ele>630.0</ele><time>2026-03-23T11:16:06.879Z</time></trkpt><trkpt lat="29.951927674132662" lon="-6.088653519986753"><ele>630.0</ele><time>2026-03-23T11:16:07.879Z</time></trkpt><trkpt lat="29.951818757893555" lon="-6.088710554672903"><ele>630.0</ele><time>2026-03-23T11:16:09.879Z</time></trkpt><trkpt lat="29.951714164768863" lon="-6.088759616871156"><ele>630.8</ele><time>2026-03-23T11:16:11.879Z</time></trkpt><trkpt lat="29.951614837381687" lon="-6.0888223104447174"><ele>631.6</ele><time>2026-03-23T11:16:13.879Z</time></trkpt><trkpt lat="29.95150772348422" lon="-6.0888678714799935"><ele>632.4</ele><time>2026-03-23T11:16:15.879Z</time></trkpt><trkpt lat="29.951438825431786" lon="-6.0888835149739835"><ele>633.2</ele><time>2026-03-23T11:16:16.879Z</time></trkpt><trkpt lat="29.95135598484622" lon="-6.088906574496593"><ele>634.0</ele><time>2026-03-23T11:16:17.879Z</time></trkpt><trkpt lat="29.951276997974958" lon="-6.088941529745867"><ele>634.0</ele><time>2026-03-23T11:16:18.879Z</time></trkpt><trkpt lat="29.951199032267716" lon="-6.088987659304267"><ele>634.0</ele><time>2026-03-23T11:16:19.879Z</time></trkpt><trkpt lat="29.95112844843463" lon="-6.089039182614961"><ele>634.0</ele><time>2026-03-23T11:16:20.879Z</time></trkpt><trkpt lat="29.951047398968047" lon="-6.089105620108047"><ele>634.0</ele><time>2026-03-23T11:16:21.879Z</time></trkpt><trkpt lat="29.950954849804727" lon="-6.089184467802898"><ele>634.0</ele><time>2026-03-23T11:16:22.879Z</time></trkpt><trkpt lat="29.950870872367798" lon="-6.089261138491859"><ele>633.6666666666667</ele><time>2026-03-23T11:16:23.879Z</time></trkpt><trkpt lat="29.950794815362283" lon="-6.089321000911925"><ele>633.3333333333334</ele><time>2026-03-23T11:16:24.879Z</time></trkpt><trkpt lat="29.950721490253848" lon="-6.089362839274938"><ele>633.0</ele><time>2026-03-23T11:16:25.879Z</time></trkpt><trkpt lat="29.95065231868932" lon="-6.089385719625105"><ele>632.6666666666666</ele><time>2026-03-23T11:16:26.879Z</time></trkpt><trkpt lat="29.95057194835723" lon="-6.089386330426636"><ele>632.3333333333333</ele><time>2026-03-23T11:16:27.879Z</time></trkpt><trkpt lat="29.950493909591824" lon="-6.089383899099073"><ele>632.0</ele><time>2026-03-23T11:16:28.879Z</time></trkpt><trkpt lat="29.950402930712468" lon="-6.0893827507451865"><ele>632.0</ele><time>2026-03-23T11:16:29.879Z</time></trkpt><trkpt lat="29.950324324242775" lon="-6.089397636151681"><ele>632.0</ele><time>2026-03-23T11:16:30.879Z</time></trkpt><trkpt lat="29.95023488095037" lon="-6.089425891869643"><ele>632.0</ele><time>2026-03-23T11:16:31.879Z</time></trkpt><trkpt lat="29.950133990926904" lon="-6.0894490660029765"><ele>632.0</ele><time>2026-03-23T11:16:32.879Z</time></trkpt><trkpt lat="29.950047186748808" lon="-6.089480082225907"><ele>632.0</ele><time>2026-03-23T11:16:33.879Z</time></trkpt><trkpt lat="29.949984190124127" lon="-6.08952263129804"><ele>632.0</ele><time>2026-03-23T11:16:34.879Z</time></trkpt><trkpt lat="29.94991691984392" lon="-6.089553276430355"><ele>632.1666666666666</ele><time>2026-03-23T11:16:36.879Z</time></trkpt><trkpt lat="29.94984033393993" lon="-6.089565326858364"><ele>632.3333333333333</ele><time>2026-03-23T11:16:44.879Z</time></trkpt><trkpt lat="29.94980090089651" lon="-6.089489541041074"><ele>632.5</ele><time>2026-03-23T11:17:05.878Z</time></trkpt><trkpt lat="29.949812354973588" lon="-6.0893917554769255"><ele>632.6666666666666</ele><time>2026-03-23T11:17:07.878Z</time></trkpt><trkpt lat="29.94983722234189" lon="-6.089304384334766"><ele>632.8333333333334</ele><time>2026-03-23T11:17:09.878Z</time></trkpt><trkpt lat="29.94981944059987" lon="-6.0892045680898725"><ele>633.0</ele><time>2026-03-23T11:17:12.878Z</time></trkpt><trkpt lat="29.949753142283658" lon="-6.08909617101486"><ele>634.0</ele><time>2026-03-23T11:17:14.878Z</time></trkpt><trkpt lat="29.949712970166757" lon="-6.089038488997021"><ele>635.0</ele><time>2026-03-23T11:17:15.878Z</time></trkpt><trkpt lat="29.949648702396644" lon="-6.0889886101074175"><ele>636.0</ele><time>2026-03-23T11:17:17.878Z</time></trkpt><trkpt lat="29.949590045881735" lon="-6.088955006690556"><ele>637.0</ele><time>2026-03-23T11:17:20.878Z</time></trkpt><trkpt lat="29.94953250638381" lon="-6.08891905260689"><ele>638.0</ele><time>2026-03-23T11:17:24.878Z</time></trkpt><trkpt lat="29.949441507525727" lon="-6.088908490894321"><ele>639.0</ele><time>2026-03-23T11:19:00.877Z</time></trkpt><trkpt lat="29.94941051136569" lon="-6.0889773516715096"><ele>640.0</ele><time>2026-03-23T11:19:02.877Z</time></trkpt><trkpt lat="29.949370334157628" lon="-6.089040709758216"><ele>638.6</ele><time>2026-03-23T11:19:04.877Z</time></trkpt><trkpt lat="29.949335451728015" lon="-6.089144120976693"><ele>637.2</ele><time>2026-03-23T11:19:07.877Z</time></trkpt><trkpt lat="29.9493015771298" lon="-6.089227876036409"><ele>635.8</ele><time>2026-03-23T11:19:09.877Z</time></trkpt><trkpt lat="29.949277122149525" lon="-6.089327827356223"><ele>634.4</ele><time>2026-03-23T11:19:12.877Z</time></trkpt><trkpt lat="29.949249105804213" lon="-6.089432189865189"><ele>633.0</ele><time>2026-03-23T11:19:14.877Z</time></trkpt><trkpt lat="29.949218107887347" lon="-6.089544736493495"><ele>633.6</ele><time>2026-03-23T11:19:16.877Z</time></trkpt><trkpt lat="29.949182570914683" lon="-6.089651741531396"><ele>634.1999999999999</ele><time>2026-03-23T11:19:18.877Z</time></trkpt><trkpt lat="29.94908198312545" lon="-6.089695963429946"><ele>634.8</ele><time>2026-03-23T11:19:20.877Z</time></trkpt><trkpt lat="29.949010229113277" lon="-6.089725959970296"><ele>635.4</ele><time>2026-03-23T11:19:21.877Z</time></trkpt><trkpt lat="29.948939988013713" lon="-6.0897661065835855"><ele>636.0</ele><time>2026-03-23T11:19:22.877Z</time></trkpt><trkpt lat="29.948857012578543" lon="-6.0898096773763735"><ele>636.0</ele><time>2026-03-23T11:19:23.877Z</time></trkpt><trkpt lat="29.948762982897293" lon="-6.08983077211138"><ele>636.0</ele><time>2026-03-23T11:19:24.877Z</time></trkpt><trkpt lat="29.94866848404548" lon="-6.089866738649149"><ele>636.0</ele><time>2026-03-23T11:19:25.877Z</time></trkpt><trkpt lat="29.948581476499182" lon="-6.089926716466838"><ele>636.0</ele><time>2026-03-23T11:19:26.877Z</time></trkpt><trkpt lat="29.948489806382693" lon="-6.090005498012792"><ele>636.0</ele><time>2026-03-23T11:19:27.877Z</time></trkpt><trkpt lat="29.94838595624367" lon="-6.0900810155516885"><ele>635.5</ele><time>2026-03-23T11:19:28.877Z</time></trkpt><trkpt lat="29.948273811067644" lon="-6.0901457916383075"><ele>635.0</ele><time>2026-03-23T11:19:29.877Z</time></trkpt><trkpt lat="29.948151126298928" lon="-6.09021162223477"><ele>634.5</ele><time>2026-03-23T11:19:30.877Z</time></trkpt><trkpt lat="29.948040180770462" lon="-6.090270015987395"><ele>634.0</ele><time>2026-03-23T11:19:31.877Z</time></trkpt><trkpt lat="29.947917177985943" lon="-6.090288064720161"><ele>634.0</ele><time>2026-03-23T11:19:32.877Z</time></trkpt><trkpt lat="29.9477859470717" lon="-6.090288449895903"><ele>634.0</ele><time>2026-03-23T11:19:33.877Z</time></trkpt><trkpt lat="29.947658141265173" lon="-6.090321804239764"><ele>634.0</ele><time>2026-03-23T11:19:34.877Z</time></trkpt><trkpt lat="29.947525936149376" lon="-6.090388531725757"><ele>634.0</ele><time>2026-03-23T11:19:35.877Z</time></trkpt><trkpt lat="29.94738505834863" lon="-6.090463537082044"><ele>634.0</ele><time>2026-03-23T11:19:36.877Z</time></trkpt><trkpt lat="29.94723401678785" lon="-6.090555717657692"><ele>634.0</ele><time>2026-03-23T11:19:37.877Z</time></trkpt><trkpt lat="29.94707725483551" lon="-6.090665376666975"><ele>634.0</ele><time>2026-03-23T11:19:38.877Z</time></trkpt><trkpt lat="29.94689578435986" lon="-6.090777541848632"><ele>634.0</ele><time>2026-03-23T11:19:39.877Z</time></trkpt><trkpt lat="29.9467118472059" lon="-6.09088812810135"><ele>634.0</ele><time>2026-03-23T11:19:40.877Z</time></trkpt><trkpt lat="29.9465507563387" lon="-6.090977518754147"><ele>634.0</ele><time>2026-03-23T11:19:41.877Z</time></trkpt><trkpt lat="29.946404885400675" lon="-6.091045703920109"><ele>634.0</ele><time>2026-03-23T11:19:42.876Z</time></trkpt><trkpt lat="29.946272890455525" lon="-6.091106720879676"><ele>634.0</ele><time>2026-03-23T11:19:43.876Z</time></trkpt><trkpt lat="29.94615792181652" lon="-6.0911837929846415"><ele>634.0</ele><time>2026-03-23T11:19:44.877Z</time></trkpt><trkpt lat="29.946046949201317" lon="-6.091272232860398"><ele>634.0</ele><time>2026-03-23T11:19:45.876Z</time></trkpt><trkpt lat="29.945932648371983" lon="-6.09136115315033"><ele>633.25</ele><time>2026-03-23T11:19:46.876Z</time></trkpt><trkpt lat="29.94582677797087" lon="-6.09144846265933"><ele>632.5</ele><time>2026-03-23T11:19:47.877Z</time></trkpt><trkpt lat="29.945724523772753" lon="-6.091525491898494"><ele>631.75</ele><time>2026-03-23T11:19:48.877Z</time></trkpt><trkpt lat="29.945618702093732" lon="-6.091583722416073"><ele>631.0</ele><time>2026-03-23T11:19:49.876Z</time></trkpt><trkpt lat="29.945524719741567" lon="-6.091641846102486"><ele>630.8</ele><time>2026-03-23T11:19:50.877Z</time></trkpt><trkpt lat="29.9454303311104" lon="-6.091697105932485"><ele>630.6</ele><time>2026-03-23T11:19:51.876Z</time></trkpt><trkpt lat="29.94532455972485" lon="-6.091734108712085"><ele>630.4</ele><time>2026-03-23T11:19:52.876Z</time></trkpt><trkpt lat="29.945225076113772" lon="-6.0917717044854065"><ele>630.2</ele><time>2026-03-23T11:19:53.876Z</time></trkpt><trkpt lat="29.945150012139806" lon="-6.091812683548636"><ele>630.0</ele><time>2026-03-23T11:19:54.876Z</time></trkpt><trkpt lat="29.94507997140851" lon="-6.091866432412036"><ele>630.0</ele><time>2026-03-23T11:19:55.876Z</time></trkpt><trkpt lat="29.944993243712176" lon="-6.091930512305922"><ele>630.0</ele><time>2026-03-23T11:19:56.876Z</time></trkpt><trkpt lat="29.944893517944895" lon="-6.091980538977537"><ele>630.0</ele><time>2026-03-23T11:19:57.876Z</time></trkpt><trkpt lat="29.944790292356114" lon="-6.092019517105868"><ele>630.0</ele><time>2026-03-23T11:19:58.876Z</time></trkpt><trkpt lat="29.944678474051067" lon="-6.092064609033703"><ele>630.0</ele><time>2026-03-23T11:19:59.876Z</time></trkpt><trkpt lat="29.944559438881967" lon="-6.092094890268484"><ele>630.0</ele><time>2026-03-23T11:20:00.876Z</time></trkpt><trkpt lat="29.944439974042883" lon="-6.092133332587206"><ele>630.0</ele><time>2026-03-23T11:20:01.876Z</time></trkpt><trkpt lat="29.944328956147885" lon="-6.092199493554007"><ele>630.0</ele><time>2026-03-23T11:20:02.876Z</time></trkpt><trkpt lat="29.944209611078875" lon="-6.0922724416019784"><ele>630.0</ele><time>2026-03-23T11:20:03.876Z</time></trkpt><trkpt lat="29.944089103656026" lon="-6.092355161484569"><ele>629.25</ele><time>2026-03-23T11:20:04.876Z</time></trkpt><trkpt lat="29.94397648833839" lon="-6.092428796611028"><ele>628.5</ele><time>2026-03-23T11:20:05.876Z</time></trkpt><trkpt lat="29.943878206569977" lon="-6.092483126581519"><ele>627.75</ele><time>2026-03-23T11:20:06.876Z</time></trkpt><trkpt lat="29.943780398872637" lon="-6.0925502430880245"><ele>627.0</ele><time>2026-03-23T11:20:07.876Z</time></trkpt><trkpt lat="29.943669481082292" lon="-6.0925878519240175"><ele>627.0</ele><time>2026-03-23T11:20:08.876Z</time></trkpt><trkpt lat="29.943550923176193" lon="-6.092612142735697"><ele>627.0</ele><time>2026-03-23T11:20:09.876Z</time></trkpt><trkpt lat="29.94344038062253" lon="-6.092652928627004"><ele>627.0</ele><time>2026-03-23T11:20:10.876Z</time></trkpt><trkpt lat="29.943345465089518" lon="-6.092718324767376"><ele>627.0</ele><time>2026-03-23T11:20:11.876Z</time></trkpt><trkpt lat="29.943254570837908" lon="-6.092785068894994"><ele>627.0</ele><time>2026-03-23T11:20:12.876Z</time></trkpt><trkpt lat="29.943156810103595" lon="-6.09284313598811"><ele>627.0</ele><time>2026-03-23T11:20:13.876Z</time></trkpt><trkpt lat="29.9430593037729" lon="-6.092909432912398"><ele>627.0</ele><time>2026-03-23T11:20:14.876Z</time></trkpt><trkpt lat="29.942966516149625" lon="-6.092951623061769"><ele>627.0</ele><time>2026-03-23T11:20:15.876Z</time></trkpt><trkpt lat="29.942872182528937" lon="-6.092976269792124"><ele>627.0</ele><time>2026-03-23T11:20:16.876Z</time></trkpt><trkpt lat="29.94277113217495" lon="-6.092998999261497"><ele>627.0</ele><time>2026-03-23T11:20:17.876Z</time></trkpt><trkpt lat="29.94268132855498" lon="-6.093051126277098"><ele>627.0</ele><time>2026-03-23T11:20:18.876Z</time></trkpt><trkpt lat="29.94259245979065" lon="-6.093120576546677"><ele>627.0</ele><time>2026-03-23T11:20:19.876Z</time></trkpt><trkpt lat="29.942491438854976" lon="-6.093183437714366"><ele>627.0</ele><time>2026-03-23T11:20:20.876Z</time></trkpt><trkpt lat="29.942385538401687" lon="-6.093243822278069"><ele>627.0</ele><time>2026-03-23T11:20:21.876Z</time></trkpt><trkpt lat="29.942280834205356" lon="-6.093305506124142"><ele>626.0</ele><time>2026-03-23T11:20:22.876Z</time></trkpt><trkpt lat="29.94218479290159" lon="-6.093378840266606"><ele>625.0</ele><time>2026-03-23T11:20:23.876Z</time></trkpt><trkpt lat="29.942088820437796" lon="-6.093466698572381"><ele>624.0</ele><time>2026-03-23T11:20:24.876Z</time></trkpt><trkpt lat="29.941998472264537" lon="-6.093545101054411"><ele>623.0</ele><time>2026-03-23T11:20:25.876Z</time></trkpt><trkpt lat="29.941910702931754" lon="-6.093630027874063"><ele>623.0</ele><time>2026-03-23T11:20:26.876Z</time></trkpt><trkpt lat="29.941811117503487" lon="-6.093706167720478"><ele>623.0</ele><time>2026-03-23T11:20:27.876Z</time></trkpt><trkpt lat="29.941703055746288" lon="-6.0937741407319885"><ele>623.0</ele><time>2026-03-23T11:20:28.876Z</time></trkpt><trkpt lat="29.94160065316554" lon="-6.093849026213075"><ele>623.0</ele><time>2026-03-23T11:20:29.876Z</time></trkpt><trkpt lat="29.941499568742323" lon="-6.093925964104485"><ele>622.75</ele><time>2026-03-23T11:20:30.876Z</time></trkpt><trkpt lat="29.94139692454049" lon="-6.094005021000601"><ele>622.5</ele><time>2026-03-23T11:20:31.876Z</time></trkpt><trkpt lat="29.941296127745268" lon="-6.094075691894217"><ele>622.25</ele><time>2026-03-23T11:20:32.876Z</time></trkpt><trkpt lat="29.94120751451915" lon="-6.094145790484299"><ele>622.0</ele><time>2026-03-23T11:20:33.876Z</time></trkpt><trkpt lat="29.941114069809387" lon="-6.094208115211159"><ele>622.0</ele><time>2026-03-23T11:20:34.876Z</time></trkpt><trkpt lat="29.94101502643189" lon="-6.09425284444773"><ele>622.0</ele><time>2026-03-23T11:20:35.876Z</time></trkpt><trkpt lat="29.940902581990027" lon="-6.094270515014806"><ele>622.0</ele><time>2026-03-23T11:20:36.876Z</time></trkpt><trkpt lat="29.940787498022654" lon="-6.094286726814257"><ele>622.0</ele><time>2026-03-23T11:20:37.876Z</time></trkpt><trkpt lat="29.940660689205185" lon="-6.094306760764314"><ele>622.5</ele><time>2026-03-23T11:20:38.876Z</time></trkpt><trkpt lat="29.940532941062983" lon="-6.094331810977481"><ele>623.0</ele><time>2026-03-23T11:20:39.876Z</time></trkpt><trkpt lat="29.94041135350886" lon="-6.094365651117315"><ele>623.5</ele><time>2026-03-23T11:20:40.876Z</time></trkpt><trkpt lat="29.94029447826659" lon="-6.094418623248027"><ele>624.0</ele><time>2026-03-23T11:20:41.876Z</time></trkpt><trkpt lat="29.940180140615187" lon="-6.094475476166034"><ele>624.0</ele><time>2026-03-23T11:20:42.876Z</time></trkpt><trkpt lat="29.94006975908813" lon="-6.094512348686517"><ele>624.0</ele><time>2026-03-23T11:20:43.876Z</time></trkpt><trkpt lat="29.93995184153983" lon="-6.09452160295312"><ele>624.0</ele><time>2026-03-23T11:20:44.876Z</time></trkpt><trkpt lat="29.939838341929434" lon="-6.094503012460678"><ele>624.0</ele><time>2026-03-23T11:20:45.876Z</time></trkpt><trkpt lat="29.939722075802862" lon="-6.0944721705039075"><ele>623.75</ele><time>2026-03-23T11:20:46.876Z</time></trkpt><trkpt lat="29.939607704966217" lon="-6.094454924685903"><ele>623.5</ele><time>2026-03-23T11:20:47.876Z</time></trkpt><trkpt lat="29.93948707727429" lon="-6.094472397563644"><ele>623.25</ele><time>2026-03-23T11:20:48.876Z</time></trkpt><trkpt lat="29.93937686255411" lon="-6.094513794875005"><ele>623.0</ele><time>2026-03-23T11:20:49.876Z</time></trkpt><trkpt lat="29.939274987369213" lon="-6.094577051344579"><ele>622.5</ele><time>2026-03-23T11:20:50.876Z</time></trkpt><trkpt lat="29.9391735262605" lon="-6.094653437531404"><ele>622.0</ele><time>2026-03-23T11:20:51.876Z</time></trkpt><trkpt lat="29.939071217338128" lon="-6.0947199243685946"><ele>621.5</ele><time>2026-03-23T11:20:52.876Z</time></trkpt><trkpt lat="29.938964523052544" lon="-6.094772121593835"><ele>621.0</ele><time>2026-03-23T11:20:53.876Z</time></trkpt><trkpt lat="29.938847472817923" lon="-6.094833742525841"><ele>621.0</ele><time>2026-03-23T11:20:54.876Z</time></trkpt><trkpt lat="29.93873076576358" lon="-6.094895993767112"><ele>621.0</ele><time>2026-03-23T11:20:55.876Z</time></trkpt><trkpt lat="29.93861064578982" lon="-6.094952814095343"><ele>621.0</ele><time>2026-03-23T11:20:56.876Z</time></trkpt><trkpt lat="29.938503408572455" lon="-6.0950134050208495"><ele>621.0</ele><time>2026-03-23T11:20:57.876Z</time></trkpt><trkpt lat="29.938404336570706" lon="-6.09506246989954"><ele>620.5</ele><time>2026-03-23T11:20:58.876Z</time></trkpt><trkpt lat="29.938293620552795" lon="-6.095107652155093"><ele>620.0</ele><time>2026-03-23T11:20:59.876Z</time></trkpt><trkpt lat="29.938160014408474" lon="-6.095131444089514"><ele>619.5</ele><time>2026-03-23T11:21:00.876Z</time></trkpt><trkpt lat="29.938026379594305" lon="-6.095171856206857"><ele>619.0</ele><time>2026-03-23T11:21:01.876Z</time></trkpt><trkpt lat="29.93792087937897" lon="-6.095241776978746"><ele>619.0</ele><time>2026-03-23T11:21:02.876Z</time></trkpt><trkpt lat="29.93782352397466" lon="-6.095311520850851"><ele>619.0</ele><time>2026-03-23T11:21:03.876Z</time></trkpt><trkpt lat="29.937734561247975" lon="-6.095372651023863"><ele>619.0</ele><time>2026-03-23T11:21:04.876Z</time></trkpt><trkpt lat="29.937626294766535" lon="-6.095434396745016"><ele>619.0</ele><time>2026-03-23T11:21:05.876Z</time></trkpt><trkpt lat="29.93751614106995" lon="-6.0954821096933856"><ele>619.0</ele><time>2026-03-23T11:21:06.876Z</time></trkpt><trkpt lat="29.93739333564866" lon="-6.095525279431484"><ele>619.0</ele><time>2026-03-23T11:21:07.876Z</time></trkpt><trkpt lat="29.937272158702818" lon="-6.095574984000314"><ele>619.0</ele><time>2026-03-23T11:21:08.876Z</time></trkpt><trkpt lat="29.937156517031646" lon="-6.095626819658753"><ele>619.0</ele><time>2026-03-23T11:21:09.876Z</time></trkpt><trkpt lat="29.937039794219285" lon="-6.095680110438532"><ele>619.0</ele><time>2026-03-23T11:21:10.876Z</time></trkpt><trkpt lat="29.936920842998198" lon="-6.095738173954264"><ele>619.0</ele><time>2026-03-23T11:21:11.876Z</time></trkpt><trkpt lat="29.936803143261184" lon="-6.0957966762597176"><ele>619.0</ele><time>2026-03-23T11:21:12.876Z</time></trkpt><trkpt lat="29.936679889696496" lon="-6.095842109821674"><ele>619.0</ele><time>2026-03-23T11:21:13.876Z</time></trkpt><trkpt lat="29.936551634666152" lon="-6.095871971377582"><ele>619.0</ele><time>2026-03-23T11:21:14.876Z</time></trkpt><trkpt lat="29.936424433374764" lon="-6.095894039688871"><ele>619.0</ele><time>2026-03-23T11:21:15.876Z</time></trkpt><trkpt lat="29.936302898117344" lon="-6.095912462635342"><ele>619.0</ele><time>2026-03-23T11:21:16.876Z</time></trkpt><trkpt lat="29.936185961039797" lon="-6.095954364513945"><ele>619.0</ele><time>2026-03-23T11:21:17.876Z</time></trkpt><trkpt lat="29.93607496260444" lon="-6.096015632262771"><ele>619.0</ele><time>2026-03-23T11:21:18.876Z</time></trkpt><trkpt lat="29.93597418064525" lon="-6.096079680712181"><ele>619.0</ele><time>2026-03-23T11:21:19.876Z</time></trkpt><trkpt lat="29.935884763316018" lon="-6.096161268555848"><ele>619.0</ele><time>2026-03-23T11:21:20.876Z</time></trkpt><trkpt lat="29.935792913939586" lon="-6.096237583600173"><ele>619.0</ele><time>2026-03-23T11:21:21.876Z</time></trkpt><trkpt lat="29.935696146381886" lon="-6.096299084758589"><ele>619.0</ele><time>2026-03-23T11:21:22.876Z</time></trkpt><trkpt lat="29.935598096210907" lon="-6.0963517385732935"><ele>619.0</ele><time>2026-03-23T11:21:23.876Z</time></trkpt><trkpt lat="29.935507570620327" lon="-6.0964227502955515"><ele>619.0</ele><time>2026-03-23T11:21:24.876Z</time></trkpt><trkpt lat="29.93540564300168" lon="-6.096479588809895"><ele>619.0</ele><time>2026-03-23T11:21:25.876Z</time></trkpt><trkpt lat="29.935308789893813" lon="-6.09652554505918"><ele>619.0</ele><time>2026-03-23T11:21:26.875Z</time></trkpt><trkpt lat="29.93521873597988" lon="-6.096589169134597"><ele>618.6</ele><time>2026-03-23T11:21:27.875Z</time></trkpt><trkpt lat="29.935129230152683" lon="-6.096640780620225"><ele>618.2</ele><time>2026-03-23T11:21:28.875Z</time></trkpt><trkpt lat="29.935050518626024" lon="-6.09670996434868"><ele>617.8000000000001</ele><time>2026-03-23T11:21:29.875Z</time></trkpt><trkpt lat="29.934966226202157" lon="-6.09678537896093"><ele>617.4</ele><time>2026-03-23T11:21:30.875Z</time></trkpt><trkpt lat="29.934860530897197" lon="-6.096819434062186"><ele>617.0</ele><time>2026-03-23T11:21:31.875Z</time></trkpt><trkpt lat="29.934739127954384" lon="-6.096839327966725"><ele>616.5</ele><time>2026-03-23T11:21:32.875Z</time></trkpt><trkpt lat="29.93460895351154" lon="-6.096843601449003"><ele>616.0</ele><time>2026-03-23T11:21:33.875Z</time></trkpt><trkpt lat="29.934480283720447" lon="-6.096862033049009"><ele>615.5</ele><time>2026-03-23T11:21:34.875Z</time></trkpt><trkpt lat="29.934352930940914" lon="-6.096860237001053"><ele>615.0</ele><time>2026-03-23T11:21:35.875Z</time></trkpt><trkpt lat="29.934228230298235" lon="-6.096855114387579"><ele>615.0</ele><time>2026-03-23T11:21:36.875Z</time></trkpt><trkpt lat="29.93410721475178" lon="-6.096877154858336"><ele>615.0</ele><time>2026-03-23T11:21:37.875Z</time></trkpt><trkpt lat="29.933988086300893" lon="-6.096917334883411"><ele>615.0</ele><time>2026-03-23T11:21:38.875Z</time></trkpt><trkpt lat="29.933876371180666" lon="-6.096962620158962"><ele>615.0</ele><time>2026-03-23T11:21:39.875Z</time></trkpt><trkpt lat="29.9337535522743" lon="-6.096992384897617"><ele>615.0</ele><time>2026-03-23T11:21:40.875Z</time></trkpt><trkpt lat="29.933628675347" lon="-6.0970093296776575"><ele>615.0</ele><time>2026-03-23T11:21:41.875Z</time></trkpt><trkpt lat="29.93350251234244" lon="-6.09704038697495"><ele>615.0</ele><time>2026-03-23T11:21:42.875Z</time></trkpt><trkpt lat="29.93338404921579" lon="-6.097072071013611"><ele>615.0</ele><time>2026-03-23T11:21:43.875Z</time></trkpt><trkpt lat="29.93325581211015" lon="-6.0970950429066395"><ele>615.0</ele><time>2026-03-23T11:21:44.875Z</time></trkpt><trkpt lat="29.933137314525982" lon="-6.097121939169748"><ele>615.0</ele><time>2026-03-23T11:21:45.875Z</time></trkpt><trkpt lat="29.933018030142748" lon="-6.097155984125356"><ele>615.0</ele><time>2026-03-23T11:21:46.875Z</time></trkpt><trkpt lat="29.93289186961556" lon="-6.097179719390063"><ele>615.0</ele><time>2026-03-23T11:21:47.875Z</time></trkpt><trkpt lat="29.932766430393865" lon="-6.097186056396329"><ele>615.0</ele><time>2026-03-23T11:21:48.874Z</time></trkpt><trkpt lat="29.932651229694166" lon="-6.097179865157922"><ele>615.0</ele><time>2026-03-23T11:21:49.874Z</time></trkpt><trkpt lat="29.93254666149435" lon="-6.097197967017155"><ele>615.0</ele><time>2026-03-23T11:21:50.875Z</time></trkpt><trkpt lat="29.93244434205713" lon="-6.097238320168556"><ele>615.0</ele><time>2026-03-23T11:21:51.874Z</time></trkpt><trkpt lat="29.93234013491692" lon="-6.097297409828755"><ele>615.0</ele><time>2026-03-23T11:21:52.874Z</time></trkpt><trkpt lat="29.93223382701892" lon="-6.097355022001244"><ele>614.5</ele><time>2026-03-23T11:21:53.874Z</time></trkpt><trkpt lat="29.932121505567185" lon="-6.097396255835869"><ele>614.0</ele><time>2026-03-23T11:21:54.875Z</time></trkpt><trkpt lat="29.931999198977135" lon="-6.097424527511413"><ele>613.5</ele><time>2026-03-23T11:21:55.875Z</time></trkpt><trkpt lat="29.93187179249612" lon="-6.097417364331679"><ele>613.0</ele><time>2026-03-23T11:21:56.875Z</time></trkpt><trkpt lat="29.93174165250614" lon="-6.097407060581794"><ele>612.5</ele><time>2026-03-23T11:21:57.875Z</time></trkpt><trkpt lat="29.931617023422493" lon="-6.097384030457305"><ele>612.0</ele><time>2026-03-23T11:21:58.875Z</time></trkpt><trkpt lat="29.931496594655435" lon="-6.097363512049226"><ele>611.5</ele><time>2026-03-23T11:21:59.875Z</time></trkpt><trkpt lat="29.931377865817932" lon="-6.097359549171326"><ele>611.0</ele><time>2026-03-23T11:22:00.875Z</time></trkpt><trkpt lat="29.931253613920717" lon="-6.097357369638069"><ele>611.0</ele><time>2026-03-23T11:22:01.875Z</time></trkpt><trkpt lat="29.931133088892512" lon="-6.0973410419186145"><ele>611.0</ele><time>2026-03-23T11:22:02.875Z</time></trkpt><trkpt lat="29.931011315578495" lon="-6.0973400077818605"><ele>611.0</ele><time>2026-03-23T11:22:03.875Z</time></trkpt><trkpt lat="29.930887300819016" lon="-6.097357940542115"><ele>611.0</ele><time>2026-03-23T11:22:04.875Z</time></trkpt><trkpt lat="29.930756892514058" lon="-6.097373431707698"><ele>611.0</ele><time>2026-03-23T11:22:05.875Z</time></trkpt><trkpt lat="29.93062410430315" lon="-6.09737578499089"><ele>611.0</ele><time>2026-03-23T11:22:06.875Z</time></trkpt><trkpt lat="29.930492521546455" lon="-6.097385601346275"><ele>611.0</ele><time>2026-03-23T11:22:07.875Z</time></trkpt><trkpt lat="29.930358983435326" lon="-6.097406591401294"><ele>611.0</ele><time>2026-03-23T11:22:08.875Z</time></trkpt><trkpt lat="29.93022053812194" lon="-6.097426042936762"><ele>610.75</ele><time>2026-03-23T11:22:09.875Z</time></trkpt><trkpt lat="29.930079202971037" lon="-6.097434409412631"><ele>610.5</ele><time>2026-03-23T11:22:10.875Z</time></trkpt><trkpt lat="29.929948699133092" lon="-6.0974454066248125"><ele>610.25</ele><time>2026-03-23T11:22:11.875Z</time></trkpt><trkpt lat="29.929824385452033" lon="-6.09745832738047"><ele>610.0</ele><time>2026-03-23T11:22:12.875Z</time></trkpt><trkpt lat="29.92969089760016" lon="-6.0974557184326175"><ele>609.75</ele><time>2026-03-23T11:22:13.875Z</time></trkpt><trkpt lat="29.929559073241325" lon="-6.097420214398959"><ele>609.5</ele><time>2026-03-23T11:22:14.875Z</time></trkpt><trkpt lat="29.929424323875974" lon="-6.097380174377606"><ele>609.25</ele><time>2026-03-23T11:22:15.875Z</time></trkpt><trkpt lat="29.92928293796854" lon="-6.097341048338955"><ele>609.0</ele><time>2026-03-23T11:22:16.875Z</time></trkpt><trkpt lat="29.929142122460586" lon="-6.097306007168906"><ele>608.5</ele><time>2026-03-23T11:22:17.875Z</time></trkpt><trkpt lat="29.92900551358092" lon="-6.097279264144662"><ele>608.0</ele><time>2026-03-23T11:22:18.875Z</time></trkpt><trkpt lat="29.928877296936726" lon="-6.09726261897085"><ele>607.5</ele><time>2026-03-23T11:22:19.875Z</time></trkpt><trkpt lat="29.928754086024576" lon="-6.097251185379241"><ele>607.0</ele><time>2026-03-23T11:22:20.875Z</time></trkpt><trkpt lat="29.92862933478908" lon="-6.0972677104039015"><ele>607.0</ele><time>2026-03-23T11:22:21.875Z</time></trkpt><trkpt lat="29.928504546347092" lon="-6.09730095714503"><ele>607.0</ele><time>2026-03-23T11:22:22.875Z</time></trkpt><trkpt lat="29.928378216641455" lon="-6.097332461591056"><ele>607.0</ele><time>2026-03-23T11:22:23.875Z</time></trkpt><trkpt lat="29.928242467067246" lon="-6.097352216100475"><ele>607.0</ele><time>2026-03-23T11:22:24.875Z</time></trkpt><trkpt lat="29.928106721319338" lon="-6.097357964869596"><ele>607.25</ele><time>2026-03-23T11:22:25.875Z</time></trkpt><trkpt lat="29.92796982642342" lon="-6.097350477662685"><ele>607.5</ele><time>2026-03-23T11:22:26.875Z</time></trkpt><trkpt lat="29.9278429165627" lon="-6.097315197715851"><ele>607.75</ele><time>2026-03-23T11:22:27.875Z</time></trkpt><trkpt lat="29.92771388163447" lon="-6.097254372641828"><ele>608.0</ele><time>2026-03-23T11:22:28.875Z</time></trkpt><trkpt lat="29.927578271353976" lon="-6.097207523900033"><ele>608.0</ele><time>2026-03-23T11:22:29.875Z</time></trkpt><trkpt lat="29.927450696424337" lon="-6.097167439120612"><ele>608.0</ele><time>2026-03-23T11:22:30.874Z</time></trkpt><trkpt lat="29.92732058337573" lon="-6.097122182427987"><ele>608.0</ele><time>2026-03-23T11:22:31.874Z</time></trkpt><trkpt lat="29.92719281947036" lon="-6.097063565887496"><ele>608.0</ele><time>2026-03-23T11:22:32.874Z</time></trkpt><trkpt lat="29.92707185031065" lon="-6.097009199235244"><ele>608.0</ele><time>2026-03-23T11:22:33.874Z</time></trkpt><trkpt lat="29.926950871441676" lon="-6.096964914282666"><ele>608.0</ele><time>2026-03-23T11:22:34.874Z</time></trkpt><trkpt lat="29.926840099769286" lon="-6.096939373852501"><ele>608.0</ele><time>2026-03-23T11:22:35.874Z</time></trkpt><trkpt lat="29.926731350034256" lon="-6.09689802784196"><ele>608.0</ele><time>2026-03-23T11:22:36.874Z</time></trkpt><trkpt lat="29.92663118027769" lon="-6.09682800674715"><ele>607.5</ele><time>2026-03-23T11:22:37.874Z</time></trkpt><trkpt lat="29.92653564549213" lon="-6.0967322228617595"><ele>607.0</ele><time>2026-03-23T11:22:38.874Z</time></trkpt><trkpt lat="29.926447162721082" lon="-6.096623512140851"><ele>606.5</ele><time>2026-03-23T11:22:39.874Z</time></trkpt><trkpt lat="29.92635951282232" lon="-6.096529599266494"><ele>606.0</ele><time>2026-03-23T11:22:40.874Z</time></trkpt><trkpt lat="29.926274405737484" lon="-6.096436847618334"><ele>605.75</ele><time>2026-03-23T11:22:41.874Z</time></trkpt><trkpt lat="29.92618806503621" lon="-6.096334487752079"><ele>605.5</ele><time>2026-03-23T11:22:42.874Z</time></trkpt><trkpt lat="29.92610713987751" lon="-6.096229086497856"><ele>605.25</ele><time>2026-03-23T11:22:43.874Z</time></trkpt><trkpt lat="29.92601360224117" lon="-6.096132200055809"><ele>605.0</ele><time>2026-03-23T11:22:44.874Z</time></trkpt><trkpt lat="29.925916411766273" lon="-6.096050961715853"><ele>604.5</ele><time>2026-03-23T11:22:45.874Z</time></trkpt><trkpt lat="29.92579405422545" lon="-6.095983625253171"><ele>604.0</ele><time>2026-03-23T11:22:46.874Z</time></trkpt><trkpt lat="29.925678196555296" lon="-6.0959125785322845"><ele>603.5</ele><time>2026-03-23T11:22:47.874Z</time></trkpt><trkpt lat="29.925557997224097" lon="-6.0958533837095805"><ele>603.0</ele><time>2026-03-23T11:22:48.874Z</time></trkpt><trkpt lat="29.925440533570686" lon="-6.0957930941255585"><ele>603.5</ele><time>2026-03-23T11:22:49.874Z</time></trkpt><trkpt lat="29.925332359408333" lon="-6.095724411682762"><ele>604.0</ele><time>2026-03-23T11:22:50.874Z</time></trkpt><trkpt lat="29.925240541759567" lon="-6.095631692454608"><ele>604.5</ele><time>2026-03-23T11:22:51.874Z</time></trkpt><trkpt lat="29.925165196754012" lon="-6.095522780369155"><ele>605.0</ele><time>2026-03-23T11:22:52.874Z</time></trkpt><trkpt lat="29.92509630774158" lon="-6.0954256757403344"><ele>604.25</ele><time>2026-03-23T11:22:53.874Z</time></trkpt><trkpt lat="29.925012283412382" lon="-6.095345650551361"><ele>603.5</ele><time>2026-03-23T11:22:54.874Z</time></trkpt><trkpt lat="29.924921421887692" lon="-6.095273630008848"><ele>602.75</ele><time>2026-03-23T11:22:55.874Z</time></trkpt><trkpt lat="29.924814987104355" lon="-6.095199252358032"><ele>602.0</ele><time>2026-03-23T11:22:56.874Z</time></trkpt><trkpt lat="29.92468597168713" lon="-6.095128069555679"><ele>602.0</ele><time>2026-03-23T11:22:57.874Z</time></trkpt><trkpt lat="29.924574751807846" lon="-6.095057507578606"><ele>602.0</ele><time>2026-03-23T11:22:58.874Z</time></trkpt><trkpt lat="29.92447055241945" lon="-6.094975394994519"><ele>602.0</ele><time>2026-03-23T11:22:59.874Z</time></trkpt><trkpt lat="29.92437065037645" lon="-6.094870527997647"><ele>602.0</ele><time>2026-03-23T11:23:00.874Z</time></trkpt><trkpt lat="29.924272714554057" lon="-6.094756531814072"><ele>601.25</ele><time>2026-03-23T11:23:01.874Z</time></trkpt><trkpt lat="29.924178513410205" lon="-6.094654364522617"><ele>600.5</ele><time>2026-03-23T11:23:02.874Z</time></trkpt><trkpt lat="29.92408079824212" lon="-6.094555895473375"><ele>599.75</ele><time>2026-03-23T11:23:03.874Z</time></trkpt><trkpt lat="29.9240016499902" lon="-6.094453665240338"><ele>599.0</ele><time>2026-03-23T11:23:04.874Z</time></trkpt><trkpt lat="29.923927645123626" lon="-6.094368699186564"><ele>599.0</ele><time>2026-03-23T11:23:05.874Z</time></trkpt><trkpt lat="29.92385263939869" lon="-6.094293728031898"><ele>599.0</ele><time>2026-03-23T11:23:06.874Z</time></trkpt><trkpt lat="29.923765098873126" lon="-6.094241376782825"><ele>599.0</ele><time>2026-03-23T11:23:07.874Z</time></trkpt><trkpt lat="29.923671481447535" lon="-6.0941922209358586"><ele>599.0</ele><time>2026-03-23T11:23:08.874Z</time></trkpt><trkpt lat="29.923579711007683" lon="-6.094127036203262"><ele>599.0</ele><time>2026-03-23T11:23:09.874Z</time></trkpt><trkpt lat="29.923493736393652" lon="-6.0940328259530006"><ele>598.8</ele><time>2026-03-23T11:23:10.874Z</time></trkpt><trkpt lat="29.923422647836887" lon="-6.093922653681373"><ele>598.5999999999999</ele><time>2026-03-23T11:23:11.874Z</time></trkpt><trkpt lat="29.923364541054966" lon="-6.093804034378614"><ele>598.4</ele><time>2026-03-23T11:23:12.874Z</time></trkpt><trkpt lat="29.92330662343493" lon="-6.093711484485757"><ele>598.1999999999999</ele><time>2026-03-23T11:23:13.874Z</time></trkpt><trkpt lat="29.923243302967617" lon="-6.093643949227843"><ele>598.0</ele><time>2026-03-23T11:23:14.874Z</time></trkpt><trkpt lat="29.92315654606119" lon="-6.093585647344873"><ele>598.0</ele><time>2026-03-23T11:23:15.874Z</time></trkpt><trkpt lat="29.923065879834013" lon="-6.093529803064752"><ele>598.0</ele><time>2026-03-23T11:23:16.874Z</time></trkpt><trkpt lat="29.92297291515559" lon="-6.093474550331789"><ele>598.0</ele><time>2026-03-23T11:23:17.874Z</time></trkpt><trkpt lat="29.922884634344303" lon="-6.09341761282158"><ele>598.0</ele><time>2026-03-23T11:23:18.874Z</time></trkpt><trkpt lat="29.92280670765262" lon="-6.093378384150392"><ele>598.0</ele><time>2026-03-23T11:23:19.874Z</time></trkpt><trkpt lat="29.9227410629824" lon="-6.093338857036438"><ele>598.0</ele><time>2026-03-23T11:23:20.874Z</time></trkpt><trkpt lat="29.922631133778868" lon="-6.093286696081132"><ele>598.0</ele><time>2026-03-23T11:23:22.874Z</time></trkpt><trkpt lat="29.922557960284927" lon="-6.093241987409969"><ele>598.0</ele><time>2026-03-23T11:23:24.874Z</time></trkpt><trkpt lat="29.922476589487193" lon="-6.093199420606669"><ele>598.0</ele><time>2026-03-23T11:23:55.873Z</time></trkpt><trkpt lat="29.922400373066242" lon="-6.093153955543355"><ele>598.0</ele><time>2026-03-23T11:23:56.873Z</time></trkpt><trkpt lat="29.922284549753332" lon="-6.093118199425425"><ele>598.0</ele><time>2026-03-23T11:23:57.873Z</time></trkpt><trkpt lat="29.92213204798072" lon="-6.09310706942013"><ele>598.0</ele><time>2026-03-23T11:23:58.873Z</time></trkpt><trkpt lat="29.921978483366885" lon="-6.093113207396976"><ele>598.0</ele><time>2026-03-23T11:23:59.873Z</time></trkpt><trkpt lat="29.921834907071748" lon="-6.093106300363874"><ele>598.0</ele><time>2026-03-23T11:24:00.873Z</time></trkpt><trkpt lat="29.921703767826585" lon="-6.093067022554133"><ele>598.0</ele><time>2026-03-23T11:24:01.873Z</time></trkpt><trkpt lat="29.921584776681904" lon="-6.092987180651173"><ele>598.0</ele><time>2026-03-23T11:24:02.873Z</time></trkpt><trkpt lat="29.921454643045852" lon="-6.092866247123723"><ele>598.0</ele><time>2026-03-23T11:24:03.873Z</time></trkpt><trkpt lat="29.921300845261747" lon="-6.092770536138864"><ele>598.0</ele><time>2026-03-23T11:24:04.873Z</time></trkpt><trkpt lat="29.921112757106293" lon="-6.092693873189681"><ele>598.0</ele><time>2026-03-23T11:24:05.873Z</time></trkpt><trkpt lat="29.920940316701632" lon="-6.092616298864862"><ele>598.0</ele><time>2026-03-23T11:24:06.873Z</time></trkpt><trkpt lat="29.920758825794437" lon="-6.092568637818716"><ele>597.3333333333334</ele><time>2026-03-23T11:24:07.872Z</time></trkpt><trkpt lat="29.920572803496945" lon="-6.0925251857891105"><ele>596.6666666666666</ele><time>2026-03-23T11:24:08.872Z</time></trkpt><trkpt lat="29.920419884869197" lon="-6.092483218558148"><ele>596.0</ele><time>2026-03-23T11:24:09.872Z</time></trkpt><trkpt lat="29.92028101464195" lon="-6.092474407429012"><ele>596.0</ele><time>2026-03-23T11:24:10.872Z</time></trkpt><trkpt lat="29.920131581373788" lon="-6.092466050073338"><ele>596.0</ele><time>2026-03-23T11:24:11.872Z</time></trkpt><trkpt lat="29.92001117861501" lon="-6.092451019047575"><ele>596.0</ele><time>2026-03-23T11:24:12.872Z</time></trkpt><trkpt lat="29.919907960324746" lon="-6.0924094278205505"><ele>596.0</ele><time>2026-03-23T11:24:13.872Z</time></trkpt><trkpt lat="29.91981000208081" lon="-6.092331193839876"><ele>596.0</ele><time>2026-03-23T11:24:14.872Z</time></trkpt><trkpt lat="29.919713606876964" lon="-6.092214428828997"><ele>596.0</ele><time>2026-03-23T11:24:15.872Z</time></trkpt><trkpt lat="29.919630243583185" lon="-6.09207426115327"><ele>596.0</ele><time>2026-03-23T11:24:16.872Z</time></trkpt><trkpt lat="29.919551967389186" lon="-6.091908804819795"><ele>596.0</ele><time>2026-03-23T11:24:17.872Z</time></trkpt><trkpt lat="29.919480854519723" lon="-6.091751662234216"><ele>596.0</ele><time>2026-03-23T11:24:18.872Z</time></trkpt><trkpt lat="29.919414311720782" lon="-6.091646844138214"><ele>596.0</ele><time>2026-03-23T11:24:19.872Z</time></trkpt><trkpt lat="29.91933410198134" lon="-6.091557159195149"><ele>596.0</ele><time>2026-03-23T11:24:20.872Z</time></trkpt><trkpt lat="29.919236091310097" lon="-6.0914832171600475"><ele>595.0</ele><time>2026-03-23T11:24:21.872Z</time></trkpt><trkpt lat="29.91911362291779" lon="-6.091411294169075"><ele>594.0</ele><time>2026-03-23T11:24:22.872Z</time></trkpt><trkpt lat="29.918936685355987" lon="-6.0913381543275555"><ele>593.0</ele><time>2026-03-23T11:24:23.872Z</time></trkpt><trkpt lat="29.918727237331574" lon="-6.091277758191288"><ele>593.0</ele><time>2026-03-23T11:24:24.872Z</time></trkpt><trkpt lat="29.918501930393838" lon="-6.091205718219674"><ele>593.0</ele><time>2026-03-23T11:24:25.872Z</time></trkpt><trkpt lat="29.918296975169504" lon="-6.091113759857355"><ele>593.3333333333333</ele><time>2026-03-23T11:24:26.872Z</time></trkpt><trkpt lat="29.918124938058526" lon="-6.091023862898975"><ele>593.6666666666666</ele><time>2026-03-23T11:24:27.872Z</time></trkpt><trkpt lat="29.917978335311965" lon="-6.090899400500061"><ele>594.0</ele><time>2026-03-23T11:24:28.872Z</time></trkpt><trkpt lat="29.917817131811933" lon="-6.090763828802642"><ele>594.0</ele><time>2026-03-23T11:24:29.872Z</time></trkpt><trkpt lat="29.917642087569956" lon="-6.090632209460749"><ele>594.0</ele><time>2026-03-23T11:24:30.872Z</time></trkpt><trkpt lat="29.91747495773126" lon="-6.090512133583165"><ele>594.0</ele><time>2026-03-23T11:24:31.872Z</time></trkpt><trkpt lat="29.917339522876603" lon="-6.090409401975735"><ele>593.25</ele><time>2026-03-23T11:24:32.872Z</time></trkpt><trkpt lat="29.917238818687935" lon="-6.0902993268995695"><ele>592.5</ele><time>2026-03-23T11:24:33.872Z</time></trkpt><trkpt lat="29.917138342861183" lon="-6.090201125629712"><ele>591.75</ele><time>2026-03-23T11:24:34.872Z</time></trkpt><trkpt lat="29.91702139189497" lon="-6.09012937899161"><ele>591.0</ele><time>2026-03-23T11:24:35.872Z</time></trkpt><trkpt lat="29.916858698492437" lon="-6.0900609043899765"><ele>591.0</ele><time>2026-03-23T11:24:36.872Z</time></trkpt><trkpt lat="29.91671852390186" lon="-6.0899701626779486"><ele>591.0</ele><time>2026-03-23T11:24:37.872Z</time></trkpt><trkpt lat="29.916583886140984" lon="-6.089852920087957"><ele>591.0</ele><time>2026-03-23T11:24:38.872Z</time></trkpt><trkpt lat="29.916412167726794" lon="-6.089729233603564"><ele>591.0</ele><time>2026-03-23T11:24:39.872Z</time></trkpt><trkpt lat="29.91620632928795" lon="-6.089623653950601"><ele>591.0</ele><time>2026-03-23T11:24:40.872Z</time></trkpt><trkpt lat="29.916015298817868" lon="-6.089551275377799"><ele>591.0</ele><time>2026-03-23T11:24:41.872Z</time></trkpt><trkpt lat="29.915846734742466" lon="-6.089453489839015"><ele>591.0</ele><time>2026-03-23T11:24:42.872Z</time></trkpt><trkpt lat="29.915697779192136" lon="-6.089316172574661"><ele>591.0</ele><time>2026-03-23T11:24:43.872Z</time></trkpt><trkpt lat="29.915531709352415" lon="-6.089186636233231"><ele>591.0</ele><time>2026-03-23T11:24:44.872Z</time></trkpt><trkpt lat="29.915351366237964" lon="-6.089094962744495"><ele>591.0</ele><time>2026-03-23T11:24:45.872Z</time></trkpt><trkpt lat="29.915153337244465" lon="-6.089016407295776"><ele>591.0</ele><time>2026-03-23T11:24:46.872Z</time></trkpt><trkpt lat="29.914925504735848" lon="-6.088935047563068"><ele>591.0</ele><time>2026-03-23T11:24:47.872Z</time></trkpt><trkpt lat="29.914704083749815" lon="-6.088852523948735"><ele>590.3333333333334</ele><time>2026-03-23T11:24:48.872Z</time></trkpt><trkpt lat="29.914505265621123" lon="-6.088756398675391"><ele>589.6666666666667</ele><time>2026-03-23T11:24:49.872Z</time></trkpt><trkpt lat="29.91432522193991" lon="-6.088666417496896"><ele>589.0</ele><time>2026-03-23T11:24:50.872Z</time></trkpt><trkpt lat="29.914144886841754" lon="-6.08859785414053"><ele>588.6666666666667</ele><time>2026-03-23T11:24:51.872Z</time></trkpt><trkpt lat="29.913964019011214" lon="-6.088513841719565"><ele>588.3333333333334</ele><time>2026-03-23T11:24:52.872Z</time></trkpt><trkpt lat="29.913796873030428" lon="-6.088430407400453"><ele>588.0</ele><time>2026-03-23T11:24:53.872Z</time></trkpt><trkpt lat="29.913640178277678" lon="-6.088369334155412"><ele>588.0</ele><time>2026-03-23T11:24:54.872Z</time></trkpt><trkpt lat="29.913491287462232" lon="-6.088340483266307"><ele>588.0</ele><time>2026-03-23T11:24:55.872Z</time></trkpt><trkpt lat="29.913346943217174" lon="-6.088345138223785"><ele>588.0</ele><time>2026-03-23T11:24:56.872Z</time></trkpt><trkpt lat="29.913170212212435" lon="-6.088364881696429"><ele>588.0</ele><time>2026-03-23T11:24:57.872Z</time></trkpt><trkpt lat="29.912979272635955" lon="-6.088395915202611"><ele>588.0</ele><time>2026-03-23T11:24:58.872Z</time></trkpt><trkpt lat="29.912773696946818" lon="-6.088418196126821"><ele>588.0</ele><time>2026-03-23T11:24:59.872Z</time></trkpt><trkpt lat="29.912567405226" lon="-6.088452798965293"><ele>587.3333333333334</ele><time>2026-03-23T11:25:00.872Z</time></trkpt><trkpt lat="29.91238025610239" lon="-6.088484428622936"><ele>586.6666666666667</ele><time>2026-03-23T11:25:01.872Z</time></trkpt><trkpt lat="29.9122382815689" lon="-6.0884971525551705"><ele>586.0</ele><time>2026-03-23T11:25:02.872Z</time></trkpt><trkpt lat="29.912110797343637" lon="-6.088484114007192"><ele>586.0</ele><time>2026-03-23T11:25:03.872Z</time></trkpt><trkpt lat="29.911951833882835" lon="-6.088445101935965"><ele>586.0</ele><time>2026-03-23T11:25:04.872Z</time></trkpt><trkpt lat="29.911758995379753" lon="-6.088432936960068"><ele>586.0</ele><time>2026-03-23T11:25:05.872Z</time></trkpt><trkpt lat="29.911586657257246" lon="-6.08842214502782"><ele>585.3333333333334</ele><time>2026-03-23T11:25:06.872Z</time></trkpt><trkpt lat="29.911424375531748" lon="-6.088376845089162"><ele>584.6666666666666</ele><time>2026-03-23T11:25:07.872Z</time></trkpt><trkpt lat="29.911268883724432" lon="-6.088307877405538"><ele>584.0</ele><time>2026-03-23T11:25:08.872Z</time></trkpt><trkpt lat="29.911102633026445" lon="-6.0882444701376555"><ele>583.6666666666666</ele><time>2026-03-23T11:25:09.872Z</time></trkpt><trkpt lat="29.91095074928922" lon="-6.088204943941008"><ele>583.3333333333334</ele><time>2026-03-23T11:25:10.872Z</time></trkpt><trkpt lat="29.910791208211013" lon="-6.088207803824977"><ele>583.0</ele><time>2026-03-23T11:25:11.872Z</time></trkpt><trkpt lat="29.910611436181664" lon="-6.088206956392219"><ele>583.0</ele><time>2026-03-23T11:25:12.872Z</time></trkpt><trkpt lat="29.910401058607807" lon="-6.088201667708108"><ele>583.0</ele><time>2026-03-23T11:25:13.872Z</time></trkpt><trkpt lat="29.91019650757772" lon="-6.0882089312058785"><ele>583.0</ele><time>2026-03-23T11:25:14.872Z</time></trkpt><trkpt lat="29.910020593050493" lon="-6.088218141129257"><ele>583.0</ele><time>2026-03-23T11:25:15.872Z</time></trkpt><trkpt lat="29.909858636378644" lon="-6.088200104372028"><ele>583.0</ele><time>2026-03-23T11:25:16.872Z</time></trkpt><trkpt lat="29.909680063775983" lon="-6.088134910336546"><ele>583.0</ele><time>2026-03-23T11:25:17.872Z</time></trkpt><trkpt lat="29.90947582460957" lon="-6.088048912978747"><ele>583.0</ele><time>2026-03-23T11:25:18.872Z</time></trkpt><trkpt lat="29.909245047588275" lon="-6.08799437236364"><ele>583.0</ele><time>2026-03-23T11:25:19.872Z</time></trkpt><trkpt lat="29.909015158966167" lon="-6.087975350647377"><ele>582.3333333333334</ele><time>2026-03-23T11:25:20.872Z</time></trkpt><trkpt lat="29.90880697839336" lon="-6.0879556818513505"><ele>581.6666666666666</ele><time>2026-03-23T11:25:21.872Z</time></trkpt><trkpt lat="29.908638584307244" lon="-6.087953727786005"><ele>581.0</ele><time>2026-03-23T11:25:22.872Z</time></trkpt><trkpt lat="29.9084832990352" lon="-6.087963888764955"><ele>581.0</ele><time>2026-03-23T11:25:23.872Z</time></trkpt><trkpt lat="29.908340549666345" lon="-6.087968374403146"><ele>581.0</ele><time>2026-03-23T11:25:24.872Z</time></trkpt><trkpt lat="29.908189966539208" lon="-6.087960878037195"><ele>581.0</ele><time>2026-03-23T11:25:25.872Z</time></trkpt><trkpt lat="29.908037866904696" lon="-6.08795163337674"><ele>581.0</ele><time>2026-03-23T11:25:26.872Z</time></trkpt><trkpt lat="29.9078783594376" lon="-6.087924891095417"><ele>581.0</ele><time>2026-03-23T11:25:27.872Z</time></trkpt><trkpt lat="29.9076675148137" lon="-6.0879077082221915"><ele>581.0</ele><time>2026-03-23T11:25:28.872Z</time></trkpt><trkpt lat="29.907438005190595" lon="-6.0878902169349525"><ele>581.0</ele><time>2026-03-23T11:25:29.872Z</time></trkpt><trkpt lat="29.90723299836892" lon="-6.087895169823697"><ele>580.75</ele><time>2026-03-23T11:25:30.872Z</time></trkpt><trkpt lat="29.907064884630582" lon="-6.087906038781211"><ele>580.5</ele><time>2026-03-23T11:25:31.872Z</time></trkpt><trkpt lat="29.906931256396717" lon="-6.08793091999704"><ele>580.25</ele><time>2026-03-23T11:25:32.872Z</time></trkpt><trkpt lat="29.906814463923162" lon="-6.087934951514688"><ele>580.0</ele><time>2026-03-23T11:25:33.872Z</time></trkpt><trkpt lat="29.90672159363593" lon="-6.087919728676236"><ele>579.6</ele><time>2026-03-23T11:25:34.872Z</time></trkpt><trkpt lat="29.90662353284721" lon="-6.087909543061068"><ele>579.2</ele><time>2026-03-23T11:25:35.872Z</time></trkpt><trkpt lat="29.906517419234845" lon="-6.087905849182932"><ele>578.8</ele><time>2026-03-23T11:25:36.872Z</time></trkpt><trkpt lat="29.906410733837475" lon="-6.0878963552105345"><ele>578.4</ele><time>2026-03-23T11:25:37.872Z</time></trkpt><trkpt lat="29.906311072805572" lon="-6.087892900306288"><ele>578.0</ele><time>2026-03-23T11:25:38.872Z</time></trkpt><trkpt lat="29.9062101839162" lon="-6.087891621992628"><ele>578.0</ele><time>2026-03-23T11:25:39.872Z</time></trkpt><trkpt lat="29.906116589425498" lon="-6.087892658247341"><ele>578.0</ele><time>2026-03-23T11:25:40.872Z</time></trkpt><trkpt lat="29.906043288660054" lon="-6.087894698126759"><ele>578.0</ele><time>2026-03-23T11:25:41.872Z</time></trkpt><trkpt lat="29.9059707003083" lon="-6.087892360581885"><ele>578.0</ele><time>2026-03-23T11:25:42.872Z</time></trkpt><trkpt lat="29.905874248756962" lon="-6.087896327030848"><ele>576.0</ele><time>2026-03-23T11:25:44.872Z</time></trkpt><trkpt lat="29.905797097028362" lon="-6.087905497630814"><ele>576.0</ele><time>2026-03-23T11:25:46.872Z</time></trkpt></trkseg><trkseg><trkpt lat="29.905650381896432" lon="-6.0879573990119065"><ele>576.0</ele><time>2026-03-23T11:40:56.859Z</time></trkpt><trkpt lat="29.90558805321038" lon="-6.088001809572661"><ele>576.0</ele><time>2026-03-23T11:40:57.859Z</time></trkpt><trkpt lat="29.905541360366705" lon="-6.0880607716247255"><ele>576.0</ele><time>2026-03-23T11:40:58.859Z</time></trkpt><trkpt lat="29.90544698657912" lon="-6.088161987022997"><ele>576.0</ele><time>2026-03-23T11:41:00.859Z</time></trkpt><trkpt lat="29.90538469666678" lon="-6.088228529953783"><ele>576.0</ele><time>2026-03-23T11:41:01.859Z</time></trkpt><trkpt lat="29.905318633091905" lon="-6.088288779196707"><ele>576.0</ele><time>2026-03-23T11:41:02.859Z</time></trkpt><trkpt lat="29.90524912374478" lon="-6.088352202677468"><ele>575.8</ele><time>2026-03-23T11:41:03.859Z</time></trkpt><trkpt lat="29.905164766227532" lon="-6.088443481023807"><ele>575.6</ele><time>2026-03-23T11:41:04.859Z</time></trkpt><trkpt lat="29.90508309520572" lon="-6.088534619471794"><ele>575.4</ele><time>2026-03-23T11:41:05.859Z</time></trkpt><trkpt lat="29.90500519399975" lon="-6.088620134278302"><ele>575.2</ele><time>2026-03-23T11:41:06.859Z</time></trkpt><trkpt lat="29.904933513549672" lon="-6.088690272534873"><ele>575.0</ele><time>2026-03-23T11:41:07.859Z</time></trkpt><trkpt lat="29.904861357206496" lon="-6.088763811505772"><ele>575.0</ele><time>2026-03-23T11:41:08.859Z</time></trkpt><trkpt lat="29.90477529886214" lon="-6.0888455984511145"><ele>575.0</ele><time>2026-03-23T11:41:09.859Z</time></trkpt><trkpt lat="29.90470119516844" lon="-6.088917505130694"><ele>575.0</ele><time>2026-03-23T11:41:10.859Z</time></trkpt><trkpt lat="29.90465911187785" lon="-6.088989681651283"><ele>575.0</ele><time>2026-03-23T11:41:11.859Z</time></trkpt><trkpt lat="29.90463592492273" lon="-6.089076762506364"><ele>575.0</ele><time>2026-03-23T11:41:12.859Z</time></trkpt><trkpt lat="29.904622816205702" lon="-6.089162142286122"><ele>575.0</ele><time>2026-03-23T11:41:13.859Z</time></trkpt><trkpt lat="29.90461123434948" lon="-6.089250251955682"><ele>574.8333333333333</ele><time>2026-03-23T11:41:14.859Z</time></trkpt><trkpt lat="29.90460021383491" lon="-6.089339532060342"><ele>574.6666666666666</ele><time>2026-03-23T11:41:15.859Z</time></trkpt><trkpt lat="29.904588741448652" lon="-6.089422548324264"><ele>574.5</ele><time>2026-03-23T11:41:16.859Z</time></trkpt><trkpt lat="29.904578626203744" lon="-6.089509445111277"><ele>574.3333333333334</ele><time>2026-03-23T11:41:17.859Z</time></trkpt><trkpt lat="29.904545986484305" lon="-6.089643577324297"><ele>574.1666666666667</ele><time>2026-03-23T11:41:19.859Z</time></trkpt><trkpt lat="29.904526880537396" lon="-6.089717742367857"><ele>574.0</ele><time>2026-03-23T11:41:20.859Z</time></trkpt><trkpt lat="29.90452056280024" lon="-6.089809507901983"><ele>574.0</ele><time>2026-03-23T11:41:21.859Z</time></trkpt><trkpt lat="29.904519553890033" lon="-6.089903602760203"><ele>574.0</ele><time>2026-03-23T11:41:22.859Z</time></trkpt><trkpt lat="29.90451254307908" lon="-6.089986777929642"><ele>574.0</ele><time>2026-03-23T11:41:23.859Z</time></trkpt><trkpt lat="29.90451170386766" lon="-6.090073670622715"><ele>574.0</ele><time>2026-03-23T11:41:24.859Z</time></trkpt><trkpt lat="29.90452265082958" lon="-6.090165831728457"><ele>574.0</ele><time>2026-03-23T11:41:25.859Z</time></trkpt><trkpt lat="29.904538186472877" lon="-6.090248389605958"><ele>574.0</ele><time>2026-03-23T11:41:26.859Z</time></trkpt><trkpt lat="29.90456427527433" lon="-6.090345742764256"><ele>574.0</ele><time>2026-03-23T11:41:27.859Z</time></trkpt><trkpt lat="29.904591136072025" lon="-6.090429541041305"><ele>574.0</ele><time>2026-03-23T11:41:28.859Z</time></trkpt><trkpt lat="29.90461785312226" lon="-6.090519191739137"><ele>574.0</ele><time>2026-03-23T11:41:29.859Z</time></trkpt><trkpt lat="29.904654106191874" lon="-6.090611578816406"><ele>574.0</ele><time>2026-03-23T11:41:30.859Z</time></trkpt><trkpt lat="29.90469352800105" lon="-6.090708959871962"><ele>574.0</ele><time>2026-03-23T11:41:31.859Z</time></trkpt><trkpt lat="29.904733033303415" lon="-6.090802657771389"><ele>574.0</ele><time>2026-03-23T11:41:32.859Z</time></trkpt><trkpt lat="29.90477320998682" lon="-6.09089152695865"><ele>574.0</ele><time>2026-03-23T11:41:33.859Z</time></trkpt><trkpt lat="29.9048180243985" lon="-6.090982403503594"><ele>574.0</ele><time>2026-03-23T11:41:34.859Z</time></trkpt><trkpt lat="29.9048690337973" lon="-6.091073081853511"><ele>574.0</ele><time>2026-03-23T11:41:35.859Z</time></trkpt><trkpt lat="29.904920296928402" lon="-6.091144302493002"><ele>574.0</ele><time>2026-03-23T11:41:36.859Z</time></trkpt><trkpt lat="29.90496675052712" lon="-6.091221728392679"><ele>574.0</ele><time>2026-03-23T11:41:37.859Z</time></trkpt><trkpt lat="29.90502163919038" lon="-6.091362153434673"><ele>574.0</ele><time>2026-03-23T11:41:39.859Z</time></trkpt><trkpt lat="29.90503547672718" lon="-6.091439732045998"><ele>574.0</ele><time>2026-03-23T11:41:40.859Z</time></trkpt><trkpt lat="29.90505472719764" lon="-6.091523430356512"><ele>574.0</ele><time>2026-03-23T11:41:41.859Z</time></trkpt><trkpt lat="29.905061851235605" lon="-6.0916101210957825"><ele>574.0</ele><time>2026-03-23T11:41:42.859Z</time></trkpt><trkpt lat="29.905067985948875" lon="-6.091698137434333"><ele>574.0</ele><time>2026-03-23T11:41:43.859Z</time></trkpt><trkpt lat="29.905060177933866" lon="-6.091800393477711"><ele>574.0</ele><time>2026-03-23T11:41:44.859Z</time></trkpt><trkpt lat="29.905041390123344" lon="-6.091910317945018"><ele>574.8</ele><time>2026-03-23T11:41:45.859Z</time></trkpt><trkpt lat="29.905012253319335" lon="-6.09201899432291"><ele>575.5999999999999</ele><time>2026-03-23T11:41:46.859Z</time></trkpt><trkpt lat="29.904982145651164" lon="-6.092129852796814"><ele>576.4</ele><time>2026-03-23T11:41:47.859Z</time></trkpt><trkpt lat="29.904952531629625" lon="-6.092254246095256"><ele>577.1999999999999</ele><time>2026-03-23T11:41:48.859Z</time></trkpt><trkpt lat="29.90492460101633" lon="-6.092373858518344"><ele>578.0</ele><time>2026-03-23T11:41:49.859Z</time></trkpt><trkpt lat="29.90489446539353" lon="-6.092503597760472"><ele>579.5</ele><time>2026-03-23T11:41:50.859Z</time></trkpt><trkpt lat="29.904862024770203" lon="-6.092630059491021"><ele>581.0</ele><time>2026-03-23T11:41:51.859Z</time></trkpt><trkpt lat="29.90482968074113" lon="-6.092756563443611"><ele>582.5</ele><time>2026-03-23T11:41:52.859Z</time></trkpt><trkpt lat="29.904799010792352" lon="-6.092886360929209"><ele>584.0</ele><time>2026-03-23T11:41:53.859Z</time></trkpt><trkpt lat="29.904775258777345" lon="-6.093017851214359"><ele>584.0</ele><time>2026-03-23T11:41:54.859Z</time></trkpt><trkpt lat="29.90475126255524" lon="-6.09315353044622"><ele>584.0</ele><time>2026-03-23T11:41:55.859Z</time></trkpt><trkpt lat="29.904728835164878" lon="-6.093291486859164"><ele>584.0</ele><time>2026-03-23T11:41:56.859Z</time></trkpt><trkpt lat="29.904706318953256" lon="-6.093426347814129"><ele>584.0</ele><time>2026-03-23T11:41:57.859Z</time></trkpt><trkpt lat="29.90467917916564" lon="-6.0935713798759625"><ele>585.5</ele><time>2026-03-23T11:41:58.859Z</time></trkpt><trkpt lat="29.90465924534937" lon="-6.093704985494982"><ele>587.0</ele><time>2026-03-23T11:41:59.859Z</time></trkpt><trkpt lat="29.904648346636872" lon="-6.093837884682741"><ele>588.5</ele><time>2026-03-23T11:42:00.859Z</time></trkpt><trkpt lat="29.904639282215356" lon="-6.093976450960718"><ele>590.0</ele><time>2026-03-23T11:42:01.859Z</time></trkpt><trkpt lat="29.90462862479377" lon="-6.094117371238667"><ele>590.5</ele><time>2026-03-23T11:42:02.859Z</time></trkpt><trkpt lat="29.904613649434157" lon="-6.094241951324805"><ele>591.0</ele><time>2026-03-23T11:42:03.859Z</time></trkpt><trkpt lat="29.904598114695876" lon="-6.0943802972337275"><ele>591.5</ele><time>2026-03-23T11:42:04.859Z</time></trkpt><trkpt lat="29.90458799872786" lon="-6.094512129710951"><ele>592.0</ele><time>2026-03-23T11:42:05.859Z</time></trkpt><trkpt lat="29.904585417165546" lon="-6.094646873101076"><ele>592.0</ele><time>2026-03-23T11:42:06.858Z</time></trkpt><trkpt lat="29.90458249843571" lon="-6.094782466128801"><ele>592.0</ele><time>2026-03-23T11:42:07.858Z</time></trkpt><trkpt lat="29.904570691410505" lon="-6.094902779387925"><ele>592.0</ele><time>2026-03-23T11:42:08.858Z</time></trkpt><trkpt lat="29.90454962070143" lon="-6.095015240090281"><ele>592.0</ele><time>2026-03-23T11:42:09.858Z</time></trkpt><trkpt lat="29.904517033772564" lon="-6.095122170714722"><ele>592.0</ele><time>2026-03-23T11:42:10.858Z</time></trkpt><trkpt lat="29.90448997915344" lon="-6.095242470138"><ele>593.25</ele><time>2026-03-23T11:42:11.858Z</time></trkpt><trkpt lat="29.904481885817294" lon="-6.095367925248426"><ele>594.5</ele><time>2026-03-23T11:42:12.858Z</time></trkpt><trkpt lat="29.904485774181094" lon="-6.0955029169402515"><ele>595.75</ele><time>2026-03-23T11:42:13.858Z</time></trkpt><trkpt lat="29.904488334554184" lon="-6.095637009100015"><ele>597.0</ele><time>2026-03-23T11:42:14.858Z</time></trkpt><trkpt lat="29.904482609187493" lon="-6.095775921186109"><ele>598.5</ele><time>2026-03-23T11:42:15.858Z</time></trkpt><trkpt lat="29.90448234667505" lon="-6.095910713202547"><ele>600.0</ele><time>2026-03-23T11:42:16.858Z</time></trkpt><trkpt lat="29.904497189820535" lon="-6.0960528752139425"><ele>601.5</ele><time>2026-03-23T11:42:17.858Z</time></trkpt><trkpt lat="29.904499570348396" lon="-6.096199165433942"><ele>603.0</ele><time>2026-03-23T11:42:18.858Z</time></trkpt><trkpt lat="29.904482797419394" lon="-6.096342521369726"><ele>603.0</ele><time>2026-03-23T11:42:19.858Z</time></trkpt><trkpt lat="29.904447860141925" lon="-6.096501081947351"><ele>603.0</ele><time>2026-03-23T11:42:20.858Z</time></trkpt><trkpt lat="29.90442622407935" lon="-6.096662278365772"><ele>603.0</ele><time>2026-03-23T11:42:21.858Z</time></trkpt><trkpt lat="29.90442251715519" lon="-6.096818536480908"><ele>603.0</ele><time>2026-03-23T11:42:22.858Z</time></trkpt><trkpt lat="29.904418446827158" lon="-6.096969000411699"><ele>603.75</ele><time>2026-03-23T11:42:23.858Z</time></trkpt><trkpt lat="29.90440711042765" lon="-6.097128907878449"><ele>604.5</ele><time>2026-03-23T11:42:24.858Z</time></trkpt><trkpt lat="29.904405995203682" lon="-6.0972692247912095"><ele>605.25</ele><time>2026-03-23T11:42:25.858Z</time></trkpt><trkpt lat="29.904409584118053" lon="-6.097392468847765"><ele>606.0</ele><time>2026-03-23T11:42:26.858Z</time></trkpt><trkpt lat="29.904404710215164" lon="-6.097506420466433"><ele>606.6</ele><time>2026-03-23T11:42:27.858Z</time></trkpt><trkpt lat="29.904398551318057" lon="-6.097618019406194"><ele>607.2</ele><time>2026-03-23T11:42:28.858Z</time></trkpt><trkpt lat="29.904396254505187" lon="-6.097724524021033"><ele>607.8</ele><time>2026-03-23T11:42:29.858Z</time></trkpt><trkpt lat="29.904396173242848" lon="-6.097834691036297"><ele>608.4</ele><time>2026-03-23T11:42:30.858Z</time></trkpt><trkpt lat="29.90439678942156" lon="-6.097939032389405"><ele>609.0</ele><time>2026-03-23T11:42:31.858Z</time></trkpt><trkpt lat="29.90439522084876" lon="-6.098030800185843"><ele>609.0</ele><time>2026-03-23T11:42:32.858Z</time></trkpt><trkpt lat="29.904398640496925" lon="-6.098110079939599"><ele>609.0</ele><time>2026-03-23T11:42:33.858Z</time></trkpt><trkpt lat="29.9044068618862" lon="-6.09822676215892"><ele>609.0</ele><time>2026-03-23T11:42:35.858Z</time></trkpt><trkpt lat="29.904410147138297" lon="-6.098303284451738"><ele>609.0</ele><time>2026-03-23T11:42:37.858Z</time></trkpt><trkpt lat="29.90442279068898" lon="-6.098392410742974"><ele>609.0</ele><time>2026-03-23T11:42:40.858Z</time></trkpt><trkpt lat="29.904443453680607" lon="-6.098496764705089"><ele>609.0</ele><time>2026-03-23T11:42:43.857Z</time></trkpt><trkpt lat="29.904447707793285" lon="-6.09859086460788"><ele>609.5</ele><time>2026-03-23T11:42:46.857Z</time></trkpt><trkpt lat="29.90442666414681" lon="-6.098664439771966"><ele>610.0</ele><time>2026-03-23T11:43:52.857Z</time></trkpt><trkpt lat="29.9044538888668" lon="-6.0987385602568445"><ele>610.5</ele><time>2026-03-23T11:43:55.857Z</time></trkpt><trkpt lat="29.90452973141305" lon="-6.098743730647043"><ele>611.0</ele><time>2026-03-23T11:43:57.857Z</time></trkpt><trkpt lat="29.904620978434263" lon="-6.0987046441599375"><ele>611.5</ele><time>2026-03-23T11:43:59.857Z</time></trkpt><trkpt lat="29.904685867843693" lon="-6.098660892844823"><ele>612.0</ele><time>2026-03-23T11:44:00.857Z</time></trkpt><trkpt lat="29.904761837587372" lon="-6.0986008115916555"><ele>612.0</ele><time>2026-03-23T11:44:01.857Z</time></trkpt><trkpt lat="29.90483555111324" lon="-6.09854151182564"><ele>612.0</ele><time>2026-03-23T11:44:02.857Z</time></trkpt><trkpt lat="29.90489451324028" lon="-6.098490059242703"><ele>612.0</ele><time>2026-03-23T11:44:03.857Z</time></trkpt><trkpt lat="29.904947902374026" lon="-6.098433533650209"><ele>612.0</ele><time>2026-03-23T11:44:04.857Z</time></trkpt><trkpt lat="29.9050236396446" lon="-6.098394588428707"><ele>612.0</ele><time>2026-03-23T11:44:06.857Z</time></trkpt><trkpt lat="29.90509250614374" lon="-6.098448252501993"><ele>612.0</ele><time>2026-03-23T11:44:08.857Z</time></trkpt><trkpt lat="29.90520345712844" lon="-6.098550827017782"><ele>612.25</ele><time>2026-03-23T11:44:10.857Z</time></trkpt><trkpt lat="29.90528981204367" lon="-6.098611381632985"><ele>612.5</ele><time>2026-03-23T11:44:11.857Z</time></trkpt><trkpt lat="29.905398496730946" lon="-6.098684542632918"><ele>612.75</ele><time>2026-03-23T11:44:12.857Z</time></trkpt><trkpt lat="29.90550735691074" lon="-6.098758455931684"><ele>613.0</ele><time>2026-03-23T11:44:13.857Z</time></trkpt><trkpt lat="29.90559378092509" lon="-6.098813394385867"><ele>613.0</ele><time>2026-03-23T11:44:14.857Z</time></trkpt><trkpt lat="29.90569100850995" lon="-6.098864563746794"><ele>613.0</ele><time>2026-03-23T11:44:15.857Z</time></trkpt><trkpt lat="29.905785716912856" lon="-6.098920171017682"><ele>613.0</ele><time>2026-03-23T11:44:16.857Z</time></trkpt><trkpt lat="29.905898426917144" lon="-6.09900568788802"><ele>613.0</ele><time>2026-03-23T11:44:17.857Z</time></trkpt><trkpt lat="29.906004567829246" lon="-6.099097842984398"><ele>612.4</ele><time>2026-03-23T11:44:18.857Z</time></trkpt><trkpt lat="29.906093740822346" lon="-6.099196665832737"><ele>611.8</ele><time>2026-03-23T11:44:19.857Z</time></trkpt><trkpt lat="29.90617891151343" lon="-6.099299395737741"><ele>611.2</ele><time>2026-03-23T11:44:20.857Z</time></trkpt><trkpt lat="29.90624690896624" lon="-6.099387974213846"><ele>610.6</ele><time>2026-03-23T11:44:21.857Z</time></trkpt><trkpt lat="29.906305669946313" lon="-6.0994739236358"><ele>610.0</ele><time>2026-03-23T11:44:22.857Z</time></trkpt><trkpt lat="29.906358695989795" lon="-6.09953956587406"><ele>610.0</ele><time>2026-03-23T11:44:23.857Z</time></trkpt><trkpt lat="29.90642842828906" lon="-6.0995965431607875"><ele>610.0</ele><time>2026-03-23T11:44:24.857Z</time></trkpt><trkpt lat="29.90649922632655" lon="-6.099662265081525"><ele>610.0</ele><time>2026-03-23T11:44:25.857Z</time></trkpt><trkpt lat="29.906557440265505" lon="-6.099733525185108"><ele>610.0</ele><time>2026-03-23T11:44:26.857Z</time></trkpt><trkpt lat="29.906624198002582" lon="-6.099804103835818"><ele>610.0</ele><time>2026-03-23T11:44:27.857Z</time></trkpt><trkpt lat="29.906682132150834" lon="-6.099880892362988"><ele>610.0</ele><time>2026-03-23T11:44:28.857Z</time></trkpt><trkpt lat="29.90673444965183" lon="-6.099977158672353"><ele>608.5</ele><time>2026-03-23T11:44:29.857Z</time></trkpt><trkpt lat="29.90678353952195" lon="-6.100094217715233"><ele>607.0</ele><time>2026-03-23T11:44:30.857Z</time></trkpt><trkpt lat="29.906845353306416" lon="-6.100219631570128"><ele>605.5</ele><time>2026-03-23T11:44:31.857Z</time></trkpt><trkpt lat="29.906921124324185" lon="-6.100344086323717"><ele>604.0</ele><time>2026-03-23T11:44:32.857Z</time></trkpt><trkpt lat="29.906997949945673" lon="-6.100469809171447"><ele>604.0</ele><time>2026-03-23T11:44:33.857Z</time></trkpt><trkpt lat="29.907065954253074" lon="-6.100569045423211"><ele>604.0</ele><time>2026-03-23T11:44:34.857Z</time></trkpt><trkpt lat="29.90714931655533" lon="-6.100669034749893"><ele>604.0</ele><time>2026-03-23T11:44:35.857Z</time></trkpt><trkpt lat="29.907254335337022" lon="-6.100761033048072"><ele>604.0</ele><time>2026-03-23T11:44:36.857Z</time></trkpt><trkpt lat="29.907359147030707" lon="-6.100833542021441"><ele>603.0</ele><time>2026-03-23T11:44:37.857Z</time></trkpt><trkpt lat="29.90742991075646" lon="-6.1009046758411465"><ele>602.0</ele><time>2026-03-23T11:44:38.857Z</time></trkpt><trkpt lat="29.90749085136579" lon="-6.101003560904468"><ele>601.0</ele><time>2026-03-23T11:44:39.857Z</time></trkpt><trkpt lat="29.90756904189568" lon="-6.101114441082819"><ele>600.0</ele><time>2026-03-23T11:44:40.857Z</time></trkpt><trkpt lat="29.90766259348547" lon="-6.101223269198457"><ele>599.0</ele><time>2026-03-23T11:44:41.857Z</time></trkpt><trkpt lat="29.90777624607199" lon="-6.1013001968434954"><ele>598.0</ele><time>2026-03-23T11:44:42.857Z</time></trkpt><trkpt lat="29.907929861454605" lon="-6.101390760911777"><ele>597.0</ele><time>2026-03-23T11:44:43.857Z</time></trkpt><trkpt lat="29.908056402267817" lon="-6.101467725283319"><ele>596.0</ele><time>2026-03-23T11:44:44.857Z</time></trkpt><trkpt lat="29.90815885005118" lon="-6.10154784041593"><ele>595.0</ele><time>2026-03-23T11:44:45.857Z</time></trkpt><trkpt lat="29.908242107802153" lon="-6.101635617224898"><ele>594.0</ele><time>2026-03-23T11:44:46.857Z</time></trkpt><trkpt lat="29.908338872912307" lon="-6.1017284093252915"><ele>593.0</ele><time>2026-03-23T11:44:47.857Z</time></trkpt><trkpt lat="29.908438091261903" lon="-6.101845128888798"><ele>592.0</ele><time>2026-03-23T11:44:48.856Z</time></trkpt><trkpt lat="29.908540241297672" lon="-6.101969420869325"><ele>591.75</ele><time>2026-03-23T11:44:49.856Z</time></trkpt><trkpt lat="29.908650898133978" lon="-6.102105150260939"><ele>591.5</ele><time>2026-03-23T11:44:50.856Z</time></trkpt><trkpt lat="29.908752580347567" lon="-6.102215679945321"><ele>591.25</ele><time>2026-03-23T11:44:51.857Z</time></trkpt><trkpt lat="29.908837750916803" lon="-6.102316245084535"><ele>591.0</ele><time>2026-03-23T11:44:52.857Z</time></trkpt><trkpt lat="29.90891955289894" lon="-6.102402639251951"><ele>589.75</ele><time>2026-03-23T11:44:53.857Z</time></trkpt><trkpt lat="29.908997260780854" lon="-6.102505564796419"><ele>588.5</ele><time>2026-03-23T11:44:54.856Z</time></trkpt><trkpt lat="29.909086915914806" lon="-6.102618266219948"><ele>587.25</ele><time>2026-03-23T11:44:55.856Z</time></trkpt><trkpt lat="29.90918465966164" lon="-6.102735436214498"><ele>586.0</ele><time>2026-03-23T11:44:56.856Z</time></trkpt><trkpt lat="29.909274832220493" lon="-6.102848634307425"><ele>586.0</ele><time>2026-03-23T11:44:57.856Z</time></trkpt><trkpt lat="29.90935761511161" lon="-6.102952761157815"><ele>586.0</ele><time>2026-03-23T11:44:58.856Z</time></trkpt><trkpt lat="29.909449020390525" lon="-6.103076168806301"><ele>586.0</ele><time>2026-03-23T11:44:59.856Z</time></trkpt><trkpt lat="29.909538654934575" lon="-6.1031953109092525"><ele>586.0</ele><time>2026-03-23T11:45:00.856Z</time></trkpt><trkpt lat="29.90963513368895" lon="-6.1033221473802035"><ele>586.6666666666667</ele><time>2026-03-23T11:45:01.856Z</time></trkpt><trkpt lat="29.909728923296594" lon="-6.103461852099731"><ele>587.3333333333334</ele><time>2026-03-23T11:45:02.856Z</time></trkpt><trkpt lat="29.909822129908093" lon="-6.103617738199479"><ele>588.0</ele><time>2026-03-23T11:45:03.856Z</time></trkpt><trkpt lat="29.90991388278744" lon="-6.103765687642678"><ele>588.0</ele><time>2026-03-23T11:45:04.856Z</time></trkpt><trkpt lat="29.910001302174102" lon="-6.103901763936763"><ele>588.0</ele><time>2026-03-23T11:45:05.856Z</time></trkpt><trkpt lat="29.910092968224575" lon="-6.104036609463003"><ele>588.0</ele><time>2026-03-23T11:45:06.856Z</time></trkpt><trkpt lat="29.910201286434994" lon="-6.104177183374241"><ele>588.0</ele><time>2026-03-23T11:45:07.855Z</time></trkpt><trkpt lat="29.910296006343568" lon="-6.1043191682331805"><ele>588.0</ele><time>2026-03-23T11:45:08.855Z</time></trkpt><trkpt lat="29.91037672623373" lon="-6.104458777968279"><ele>588.0</ele><time>2026-03-23T11:45:09.855Z</time></trkpt><trkpt lat="29.910455409635198" lon="-6.104617548309067"><ele>588.0</ele><time>2026-03-23T11:45:10.855Z</time></trkpt><trkpt lat="29.91053310561351" lon="-6.104801218228011"><ele>588.0</ele><time>2026-03-23T11:45:11.855Z</time></trkpt><trkpt lat="29.910599708538793" lon="-6.105001277628519"><ele>588.0</ele><time>2026-03-23T11:45:12.855Z</time></trkpt><trkpt lat="29.91066294385018" lon="-6.105195336606956"><ele>587.6666666666666</ele><time>2026-03-23T11:45:13.855Z</time></trkpt><trkpt lat="29.910725324547432" lon="-6.1053706625534545"><ele>587.3333333333333</ele><time>2026-03-23T11:45:14.855Z</time></trkpt><trkpt lat="29.910789506713225" lon="-6.105538690266173"><ele>587.0</ele><time>2026-03-23T11:45:15.855Z</time></trkpt><trkpt lat="29.910848442350257" lon="-6.10569159415878"><ele>587.3333333333333</ele><time>2026-03-23T11:45:16.855Z</time></trkpt><trkpt lat="29.910902513858286" lon="-6.105851158757269"><ele>587.6666666666666</ele><time>2026-03-23T11:45:17.855Z</time></trkpt><trkpt lat="29.91096000650802" lon="-6.106023265082927"><ele>588.0</ele><time>2026-03-23T11:45:18.855Z</time></trkpt><trkpt lat="29.911015006447094" lon="-6.106203666940911"><ele>588.0</ele><time>2026-03-23T11:45:19.855Z</time></trkpt><trkpt lat="29.91106350731351" lon="-6.106362922279065"><ele>588.0</ele><time>2026-03-23T11:45:20.855Z</time></trkpt><trkpt lat="29.911101057097554" lon="-6.106512039848008"><ele>588.0</ele><time>2026-03-23T11:45:21.855Z</time></trkpt><trkpt lat="29.911134471173046" lon="-6.106666413744547"><ele>588.0</ele><time>2026-03-23T11:45:22.855Z</time></trkpt><trkpt lat="29.911160568797968" lon="-6.106832877166983"><ele>588.0</ele><time>2026-03-23T11:45:23.855Z</time></trkpt><trkpt lat="29.91119764654513" lon="-6.107005803342226"><ele>588.0</ele><time>2026-03-23T11:45:24.855Z</time></trkpt><trkpt lat="29.91125583686333" lon="-6.107168335157063"><ele>588.0</ele><time>2026-03-23T11:45:25.855Z</time></trkpt><trkpt lat="29.911313592655887" lon="-6.107304991081812"><ele>588.0</ele><time>2026-03-23T11:45:26.855Z</time></trkpt><trkpt lat="29.911370389137673" lon="-6.107432730000717"><ele>587.75</ele><time>2026-03-23T11:45:27.855Z</time></trkpt><trkpt lat="29.911419884591112" lon="-6.107566835867731"><ele>587.5</ele><time>2026-03-23T11:45:28.855Z</time></trkpt><trkpt lat="29.911455497816736" lon="-6.10770932080934"><ele>587.25</ele><time>2026-03-23T11:45:29.855Z</time></trkpt><trkpt lat="29.91148945022731" lon="-6.107866504096514"><ele>587.0</ele><time>2026-03-23T11:45:30.855Z</time></trkpt><trkpt lat="29.9115204034193" lon="-6.10802750033335"><ele>587.0</ele><time>2026-03-23T11:45:31.855Z</time></trkpt><trkpt lat="29.91154551878102" lon="-6.108190293307164"><ele>587.0</ele><time>2026-03-23T11:45:32.855Z</time></trkpt><trkpt lat="29.91156519195427" lon="-6.108355431674815"><ele>587.0</ele><time>2026-03-23T11:45:33.855Z</time></trkpt><trkpt lat="29.911584588421764" lon="-6.108530756592325"><ele>587.0</ele><time>2026-03-23T11:45:34.855Z</time></trkpt><trkpt lat="29.9116047017395" lon="-6.108704249410495"><ele>587.0</ele><time>2026-03-23T11:45:35.855Z</time></trkpt><trkpt lat="29.91162460692114" lon="-6.108884018543907"><ele>587.0</ele><time>2026-03-23T11:45:36.855Z</time></trkpt><trkpt lat="29.91164234497861" lon="-6.109064961412042"><ele>587.0</ele><time>2026-03-23T11:45:37.855Z</time></trkpt><trkpt lat="29.91166342985208" lon="-6.1092370538275675"><ele>587.0</ele><time>2026-03-23T11:45:38.855Z</time></trkpt><trkpt lat="29.91170359848862" lon="-6.109426723947668"><ele>587.0</ele><time>2026-03-23T11:45:39.855Z</time></trkpt><trkpt lat="29.91173698170449" lon="-6.109597105454276"><ele>587.0</ele><time>2026-03-23T11:45:40.855Z</time></trkpt><trkpt lat="29.911762957915908" lon="-6.1097624513806625"><ele>587.5</ele><time>2026-03-23T11:45:41.855Z</time></trkpt><trkpt lat="29.91178547242828" lon="-6.109924279545589"><ele>588.0</ele><time>2026-03-23T11:45:42.855Z</time></trkpt><trkpt lat="29.91179697429427" lon="-6.110083993992119"><ele>588.5</ele><time>2026-03-23T11:45:43.855Z</time></trkpt><trkpt lat="29.91181786145434" lon="-6.110252793016805"><ele>589.0</ele><time>2026-03-23T11:45:44.855Z</time></trkpt><trkpt lat="29.911848926251274" lon="-6.110421296233019"><ele>589.0</ele><time>2026-03-23T11:45:45.855Z</time></trkpt><trkpt lat="29.91187732503823" lon="-6.110578254529567"><ele>589.0</ele><time>2026-03-23T11:45:46.855Z</time></trkpt><trkpt lat="29.91190042369392" lon="-6.110736481230426"><ele>589.0</ele><time>2026-03-23T11:45:47.855Z</time></trkpt><trkpt lat="29.911927589537" lon="-6.110892686628393"><ele>589.0</ele><time>2026-03-23T11:45:48.855Z</time></trkpt><trkpt lat="29.911959093720796" lon="-6.111045279374145"><ele>588.25</ele><time>2026-03-23T11:45:49.855Z</time></trkpt><trkpt lat="29.911992820277472" lon="-6.1111970503373625"><ele>587.5</ele><time>2026-03-23T11:45:50.855Z</time></trkpt><trkpt lat="29.912022318894845" lon="-6.111351922281029"><ele>586.75</ele><time>2026-03-23T11:45:51.855Z</time></trkpt><trkpt lat="29.91204860204168" lon="-6.111496495897491"><ele>586.0</ele><time>2026-03-23T11:45:52.855Z</time></trkpt><trkpt lat="29.912072759649778" lon="-6.111634060980749"><ele>585.75</ele><time>2026-03-23T11:45:53.855Z</time></trkpt><trkpt lat="29.912102405534903" lon="-6.111776618171908"><ele>585.5</ele><time>2026-03-23T11:45:54.855Z</time></trkpt><trkpt lat="29.912139593050004" lon="-6.111904082209333"><ele>585.25</ele><time>2026-03-23T11:45:55.855Z</time></trkpt><trkpt lat="29.912184868728954" lon="-6.112026059811595"><ele>585.0</ele><time>2026-03-23T11:45:56.855Z</time></trkpt><trkpt lat="29.912219685079" lon="-6.112145507794383"><ele>585.0</ele><time>2026-03-23T11:45:57.855Z</time></trkpt><trkpt lat="29.912235493643514" lon="-6.112272776009224"><ele>585.0</ele><time>2026-03-23T11:45:58.855Z</time></trkpt><trkpt lat="29.912223658917387" lon="-6.1124067389900905"><ele>585.0</ele><time>2026-03-23T11:45:59.855Z</time></trkpt><trkpt lat="29.912211452421314" lon="-6.112548093009124"><ele>585.0</ele><time>2026-03-23T11:46:00.855Z</time></trkpt><trkpt lat="29.912214467340995" lon="-6.112694531584862"><ele>584.25</ele><time>2026-03-23T11:46:01.855Z</time></trkpt><trkpt lat="29.912238306224125" lon="-6.112835326447815"><ele>583.5</ele><time>2026-03-23T11:46:02.855Z</time></trkpt><trkpt lat="29.91227152780721" lon="-6.112981971003071"><ele>582.75</ele><time>2026-03-23T11:46:03.855Z</time></trkpt><trkpt lat="29.912284999310963" lon="-6.113127623121861"><ele>582.0</ele><time>2026-03-23T11:46:04.855Z</time></trkpt><trkpt lat="29.912278090332407" lon="-6.113294493091055"><ele>582.0</ele><time>2026-03-23T11:46:05.855Z</time></trkpt><trkpt lat="29.912278469551882" lon="-6.113464086264793"><ele>582.0</ele><time>2026-03-23T11:46:06.855Z</time></trkpt><trkpt lat="29.912278498544474" lon="-6.1136301367154156"><ele>582.0</ele><time>2026-03-23T11:46:07.855Z</time></trkpt><trkpt lat="29.912289279158557" lon="-6.113801411285993"><ele>582.0</ele><time>2026-03-23T11:46:08.855Z</time></trkpt><trkpt lat="29.912284453741062" lon="-6.113953849766848"><ele>581.75</ele><time>2026-03-23T11:46:09.855Z</time></trkpt><trkpt lat="29.912267584519842" lon="-6.114116643323385"><ele>581.5</ele><time>2026-03-23T11:46:10.855Z</time></trkpt><trkpt lat="29.912265786760734" lon="-6.114282794055943"><ele>581.25</ele><time>2026-03-23T11:46:11.855Z</time></trkpt><trkpt lat="29.912280447761457" lon="-6.114436973162478"><ele>581.0</ele><time>2026-03-23T11:46:12.855Z</time></trkpt><trkpt lat="29.912282090537357" lon="-6.114585762249597"><ele>581.0</ele><time>2026-03-23T11:46:13.855Z</time></trkpt><trkpt lat="29.912297828784208" lon="-6.114762255213523"><ele>581.0</ele><time>2026-03-23T11:46:14.855Z</time></trkpt><trkpt lat="29.91231970081363" lon="-6.11493276404106"><ele>581.0</ele><time>2026-03-23T11:46:15.855Z</time></trkpt><trkpt lat="29.912327508319162" lon="-6.115087031997493"><ele>581.0</ele><time>2026-03-23T11:46:16.855Z</time></trkpt><trkpt lat="29.91232370280207" lon="-6.115236009566877"><ele>581.5</ele><time>2026-03-23T11:46:17.855Z</time></trkpt><trkpt lat="29.912323203455532" lon="-6.115375797893581"><ele>582.0</ele><time>2026-03-23T11:46:18.855Z</time></trkpt><trkpt lat="29.912322042853592" lon="-6.1155079310813205"><ele>582.5</ele><time>2026-03-23T11:46:19.855Z</time></trkpt><trkpt lat="29.912325810167342" lon="-6.11563418042334"><ele>583.0</ele><time>2026-03-23T11:46:20.855Z</time></trkpt><trkpt lat="29.91231666143978" lon="-6.115756629587004"><ele>583.25</ele><time>2026-03-23T11:46:21.855Z</time></trkpt><trkpt lat="29.912291739815846" lon="-6.115870749599916"><ele>583.5</ele><time>2026-03-23T11:46:22.855Z</time></trkpt><trkpt lat="29.912248048292906" lon="-6.115986463630751"><ele>583.75</ele><time>2026-03-23T11:46:23.855Z</time></trkpt><trkpt lat="29.91218393859984" lon="-6.1161109885215685"><ele>584.0</ele><time>2026-03-23T11:46:24.855Z</time></trkpt><trkpt lat="29.91212069715143" lon="-6.116238623107615"><ele>584.0</ele><time>2026-03-23T11:46:25.855Z</time></trkpt><trkpt lat="29.912074243251688" lon="-6.11639394574534"><ele>584.0</ele><time>2026-03-23T11:46:26.855Z</time></trkpt><trkpt lat="29.91203749776449" lon="-6.116556954205025"><ele>584.0</ele><time>2026-03-23T11:46:27.855Z</time></trkpt><trkpt lat="29.911996509674104" lon="-6.116701655972454"><ele>584.0</ele><time>2026-03-23T11:46:28.855Z</time></trkpt><trkpt lat="29.911960010980227" lon="-6.116847363895646"><ele>584.0</ele><time>2026-03-23T11:46:29.855Z</time></trkpt><trkpt lat="29.911934582358167" lon="-6.116999301447908"><ele>584.0</ele><time>2026-03-23T11:46:30.855Z</time></trkpt><trkpt lat="29.911918603575494" lon="-6.117175042148433"><ele>584.0</ele><time>2026-03-23T11:46:31.855Z</time></trkpt><trkpt lat="29.91190559036347" lon="-6.117359653220942"><ele>584.0</ele><time>2026-03-23T11:46:32.855Z</time></trkpt><trkpt lat="29.911889157281582" lon="-6.117520743609902"><ele>584.0</ele><time>2026-03-23T11:46:33.855Z</time></trkpt><trkpt lat="29.911881525215076" lon="-6.11768109037713"><ele>584.0</ele><time>2026-03-23T11:46:34.855Z</time></trkpt><trkpt lat="29.911883600669718" lon="-6.117826799067381"><ele>584.0</ele><time>2026-03-23T11:46:35.855Z</time></trkpt><trkpt lat="29.911907027329303" lon="-6.117965635029771"><ele>584.0</ele><time>2026-03-23T11:46:36.855Z</time></trkpt><trkpt lat="29.911940668959893" lon="-6.118110821949786"><ele>583.8</ele><time>2026-03-23T11:46:37.855Z</time></trkpt><trkpt lat="29.911966051474643" lon="-6.118240447463319"><ele>583.5999999999999</ele><time>2026-03-23T11:46:38.855Z</time></trkpt><trkpt lat="29.91199521641883" lon="-6.118356027551025"><ele>583.4</ele><time>2026-03-23T11:46:39.855Z</time></trkpt><trkpt lat="29.912020220654565" lon="-6.118463272262254"><ele>583.1999999999999</ele><time>2026-03-23T11:46:40.855Z</time></trkpt><trkpt lat="29.912028291007363" lon="-6.118602100137948"><ele>583.0</ele><time>2026-03-23T11:46:41.855Z</time></trkpt><trkpt lat="29.912003790909484" lon="-6.118733401703168"><ele>583.0</ele><time>2026-03-23T11:46:42.855Z</time></trkpt><trkpt lat="29.9119578029509" lon="-6.118855665230401"><ele>583.0</ele><time>2026-03-23T11:46:43.855Z</time></trkpt><trkpt lat="29.91188549623393" lon="-6.118962386133695"><ele>583.0</ele><time>2026-03-23T11:46:44.855Z</time></trkpt><trkpt lat="29.911814486265705" lon="-6.1190737673031546"><ele>583.0</ele><time>2026-03-23T11:46:45.855Z</time></trkpt><trkpt lat="29.911770135356033" lon="-6.119182615035138"><ele>582.0</ele><time>2026-03-23T11:46:46.855Z</time></trkpt><trkpt lat="29.911750702877207" lon="-6.119318933090452"><ele>581.0</ele><time>2026-03-23T11:46:47.855Z</time></trkpt><trkpt lat="29.911736676314405" lon="-6.119449339850729"><ele>580.0</ele><time>2026-03-23T11:46:48.855Z</time></trkpt><trkpt lat="29.911715044522737" lon="-6.119575954041036"><ele>579.0</ele><time>2026-03-23T11:46:49.855Z</time></trkpt><trkpt lat="29.91168779021002" lon="-6.119691872315079"><ele>579.0</ele><time>2026-03-23T11:46:50.855Z</time></trkpt><trkpt lat="29.911642662171772" lon="-6.119782429517703"><ele>579.0</ele><time>2026-03-23T11:46:51.855Z</time></trkpt><trkpt lat="29.911569891432972" lon="-6.119881383413645"><ele>579.0</ele><time>2026-03-23T11:46:52.854Z</time></trkpt><trkpt lat="29.91148820105463" lon="-6.119965376029446"><ele>579.0</ele><time>2026-03-23T11:46:53.854Z</time></trkpt><trkpt lat="29.911407827924215" lon="-6.120031491162323"><ele>579.0</ele><time>2026-03-23T11:46:54.854Z</time></trkpt><trkpt lat="29.91132724534783" lon="-6.120066828472765"><ele>579.0</ele><time>2026-03-23T11:46:55.854Z</time></trkpt><trkpt lat="29.91124247900679" lon="-6.120092755543413"><ele>579.0</ele><time>2026-03-23T11:46:56.854Z</time></trkpt><trkpt lat="29.911155011283103" lon="-6.120124929794564"><ele>579.0</ele><time>2026-03-23T11:46:57.854Z</time></trkpt><trkpt lat="29.911081986187888" lon="-6.120179385992006"><ele>579.0</ele><time>2026-03-23T11:46:58.854Z</time></trkpt><trkpt lat="29.91102201687103" lon="-6.120266650012805"><ele>579.0</ele><time>2026-03-23T11:46:59.854Z</time></trkpt><trkpt lat="29.910970193095682" lon="-6.120361778842614"><ele>579.0</ele><time>2026-03-23T11:47:00.854Z</time></trkpt><trkpt lat="29.910908480263075" lon="-6.120445312095796"><ele>579.0</ele><time>2026-03-23T11:47:01.854Z</time></trkpt><trkpt lat="29.910817774803448" lon="-6.120526131905619"><ele>579.0</ele><time>2026-03-23T11:47:02.854Z</time></trkpt><trkpt lat="29.91073451909295" lon="-6.1206077382623505"><ele>579.0</ele><time>2026-03-23T11:47:03.854Z</time></trkpt><trkpt lat="29.91065717258656" lon="-6.120689279703982"><ele>579.0</ele><time>2026-03-23T11:47:04.854Z</time></trkpt><trkpt lat="29.910589279754827" lon="-6.120784550243889"><ele>579.2</ele><time>2026-03-23T11:47:05.854Z</time></trkpt><trkpt lat="29.910514624788284" lon="-6.120858714934269"><ele>579.4</ele><time>2026-03-23T11:47:06.854Z</time></trkpt><trkpt lat="29.91044082710266" lon="-6.120918785233937"><ele>579.6</ele><time>2026-03-23T11:47:07.854Z</time></trkpt><trkpt lat="29.910373245053275" lon="-6.12098688906105"><ele>579.8</ele><time>2026-03-23T11:47:08.854Z</time></trkpt><trkpt lat="29.910304059291196" lon="-6.121076436962686"><ele>580.0</ele><time>2026-03-23T11:47:09.854Z</time></trkpt><trkpt lat="29.910252434594454" lon="-6.121186006535528"><ele>580.0</ele><time>2026-03-23T11:47:10.854Z</time></trkpt><trkpt lat="29.910214544673554" lon="-6.121296725325013"><ele>580.0</ele><time>2026-03-23T11:47:11.854Z</time></trkpt><trkpt lat="29.91016983636472" lon="-6.121397101538493"><ele>580.0</ele><time>2026-03-23T11:47:12.854Z</time></trkpt><trkpt lat="29.910109981967203" lon="-6.121490541922697"><ele>580.0</ele><time>2026-03-23T11:47:13.854Z</time></trkpt><trkpt lat="29.910064636329977" lon="-6.121591787772537"><ele>580.0</ele><time>2026-03-23T11:47:14.854Z</time></trkpt><trkpt lat="29.910023258581855" lon="-6.121708034868297"><ele>579.5</ele><time>2026-03-23T11:47:15.854Z</time></trkpt><trkpt lat="29.909968427291133" lon="-6.121831078181985"><ele>579.0</ele><time>2026-03-23T11:47:16.854Z</time></trkpt><trkpt lat="29.909897415085815" lon="-6.121940258738283"><ele>578.5</ele><time>2026-03-23T11:47:17.854Z</time></trkpt><trkpt lat="29.90981643842594" lon="-6.122041923881247"><ele>578.0</ele><time>2026-03-23T11:47:18.854Z</time></trkpt><trkpt lat="29.90973389449705" lon="-6.122115660968899"><ele>578.0</ele><time>2026-03-23T11:47:19.854Z</time></trkpt><trkpt lat="29.90964916962537" lon="-6.122156760489972"><ele>578.0</ele><time>2026-03-23T11:47:20.854Z</time></trkpt><trkpt lat="29.90957252281027" lon="-6.122191153330426"><ele>578.0</ele><time>2026-03-23T11:47:21.854Z</time></trkpt><trkpt lat="29.90951019003376" lon="-6.122233107191681"><ele>578.0</ele><time>2026-03-23T11:47:22.854Z</time></trkpt><trkpt lat="29.909457103104092" lon="-6.122296053659671"><ele>578.0</ele><time>2026-03-23T11:47:23.854Z</time></trkpt><trkpt lat="29.909401717873088" lon="-6.122395903849174"><ele>578.0</ele><time>2026-03-23T11:47:24.854Z</time></trkpt><trkpt lat="29.90930978862214" lon="-6.122509568176343"><ele>578.25</ele><time>2026-03-23T11:47:25.854Z</time></trkpt><trkpt lat="29.909195979925343" lon="-6.122641026933569"><ele>578.5</ele><time>2026-03-23T11:47:26.854Z</time></trkpt><trkpt lat="29.90911046851586" lon="-6.122757895860394"><ele>578.75</ele><time>2026-03-23T11:47:27.854Z</time></trkpt><trkpt lat="29.90904593604544" lon="-6.122880814295989"><ele>579.0</ele><time>2026-03-23T11:47:28.854Z</time></trkpt><trkpt lat="29.908969229831317" lon="-6.122977020861546"><ele>579.0</ele><time>2026-03-23T11:47:29.854Z</time></trkpt><trkpt lat="29.908904670395053" lon="-6.123071770432091"><ele>579.0</ele><time>2026-03-23T11:47:30.854Z</time></trkpt><trkpt lat="29.908864900865222" lon="-6.123166573860044"><ele>579.0</ele><time>2026-03-23T11:47:31.854Z</time></trkpt><trkpt lat="29.908853551338254" lon="-6.123261830386897"><ele>579.0</ele><time>2026-03-23T11:47:32.854Z</time></trkpt><trkpt lat="29.908825182836644" lon="-6.123353318022367"><ele>579.0</ele><time>2026-03-23T11:47:33.854Z</time></trkpt><trkpt lat="29.90878467165428" lon="-6.123447097685689"><ele>578.8</ele><time>2026-03-23T11:47:34.854Z</time></trkpt><trkpt lat="29.908745429241208" lon="-6.123539334254119"><ele>578.5999999999999</ele><time>2026-03-23T11:47:35.854Z</time></trkpt><trkpt lat="29.908727014944404" lon="-6.123648607931128"><ele>578.4</ele><time>2026-03-23T11:47:36.854Z</time></trkpt><trkpt lat="29.908728832900486" lon="-6.12375912907387"><ele>578.1999999999999</ele><time>2026-03-23T11:47:37.854Z</time></trkpt><trkpt lat="29.908755392533394" lon="-6.1238616535744885"><ele>578.0</ele><time>2026-03-23T11:47:38.854Z</time></trkpt><trkpt lat="29.908784171015135" lon="-6.1239576395799915"><ele>577.5</ele><time>2026-03-23T11:47:39.854Z</time></trkpt><trkpt lat="29.90877534488809" lon="-6.124072072607643"><ele>577.0</ele><time>2026-03-23T11:47:40.854Z</time></trkpt><trkpt lat="29.90874987271156" lon="-6.124218656927978"><ele>576.5</ele><time>2026-03-23T11:47:41.854Z</time></trkpt><trkpt lat="29.908728981305458" lon="-6.1243770514071985"><ele>576.0</ele><time>2026-03-23T11:47:42.854Z</time></trkpt><trkpt lat="29.908709378741158" lon="-6.124530902711527"><ele>576.0</ele><time>2026-03-23T11:47:43.854Z</time></trkpt><trkpt lat="29.908686787148657" lon="-6.1246796401065975"><ele>576.0</ele><time>2026-03-23T11:47:44.854Z</time></trkpt><trkpt lat="29.908659599731987" lon="-6.124814097101295"><ele>576.0</ele><time>2026-03-23T11:47:45.854Z</time></trkpt><trkpt lat="29.90862740726312" lon="-6.124949582618431"><ele>576.0</ele><time>2026-03-23T11:47:46.854Z</time></trkpt><trkpt lat="29.908595252627343" lon="-6.125085796291982"><ele>575.25</ele><time>2026-03-23T11:47:47.854Z</time></trkpt><trkpt lat="29.908566554712618" lon="-6.125216242675462"><ele>574.5</ele><time>2026-03-23T11:47:48.854Z</time></trkpt><trkpt lat="29.908538238407303" lon="-6.125347665876989"><ele>573.75</ele><time>2026-03-23T11:47:49.854Z</time></trkpt><trkpt lat="29.908505489277342" lon="-6.125490341249688"><ele>573.0</ele><time>2026-03-23T11:47:50.854Z</time></trkpt><trkpt lat="29.908475517083268" lon="-6.125642140776876"><ele>573.25</ele><time>2026-03-23T11:47:51.854Z</time></trkpt><trkpt lat="29.908449940332687" lon="-6.125784803201728"><ele>573.5</ele><time>2026-03-23T11:47:52.854Z</time></trkpt><trkpt lat="29.90842598781437" lon="-6.1259064555084874"><ele>573.75</ele><time>2026-03-23T11:47:53.854Z</time></trkpt><trkpt lat="29.908394840744876" lon="-6.126044932464887"><ele>574.0</ele><time>2026-03-23T11:47:54.854Z</time></trkpt><trkpt lat="29.908377750796614" lon="-6.12617072259948"><ele>574.0</ele><time>2026-03-23T11:47:55.854Z</time></trkpt><trkpt lat="29.90838676785444" lon="-6.126300441944044"><ele>574.0</ele><time>2026-03-23T11:47:56.854Z</time></trkpt><trkpt lat="29.908382935537965" lon="-6.126435405656228"><ele>574.0</ele><time>2026-03-23T11:47:57.854Z</time></trkpt><trkpt lat="29.90835620969475" lon="-6.126549955865033"><ele>574.0</ele><time>2026-03-23T11:47:58.854Z</time></trkpt><trkpt lat="29.90831269045447" lon="-6.126652949891601"><ele>574.0</ele><time>2026-03-23T11:47:59.854Z</time></trkpt><trkpt lat="29.908265044473545" lon="-6.126728968589829"><ele>574.0</ele><time>2026-03-23T11:48:00.854Z</time></trkpt><trkpt lat="29.908198914938534" lon="-6.126796085058455"><ele>574.0</ele><time>2026-03-23T11:48:01.854Z</time></trkpt><trkpt lat="29.908119491490087" lon="-6.126863274388805"><ele>574.0</ele><time>2026-03-23T11:48:02.854Z</time></trkpt><trkpt lat="29.90804275386889" lon="-6.126937631264836"><ele>574.0</ele><time>2026-03-23T11:48:03.854Z</time></trkpt><trkpt lat="29.9079727622236" lon="-6.1270350107467895"><ele>574.0</ele><time>2026-03-23T11:48:04.854Z</time></trkpt><trkpt lat="29.90790140904921" lon="-6.127152813543019"><ele>574.0</ele><time>2026-03-23T11:48:05.854Z</time></trkpt><trkpt lat="29.907839788489838" lon="-6.127292082666883"><ele>574.0</ele><time>2026-03-23T11:48:06.854Z</time></trkpt><trkpt lat="29.9077992457452" lon="-6.127439189986708"><ele>574.0</ele><time>2026-03-23T11:48:07.853Z</time></trkpt><trkpt lat="29.907777457277582" lon="-6.127589223157882"><ele>574.0</ele><time>2026-03-23T11:48:08.853Z</time></trkpt><trkpt lat="29.90775093538426" lon="-6.127751151071571"><ele>573.75</ele><time>2026-03-23T11:48:09.853Z</time></trkpt><trkpt lat="29.90774033863763" lon="-6.127917178828863"><ele>573.5</ele><time>2026-03-23T11:48:10.853Z</time></trkpt><trkpt lat="29.907762359154923" lon="-6.1280768677369535"><ele>573.25</ele><time>2026-03-23T11:48:11.853Z</time></trkpt><trkpt lat="29.907795634428798" lon="-6.1282457891966216"><ele>573.0</ele><time>2026-03-23T11:48:12.853Z</time></trkpt><trkpt lat="29.90781410956517" lon="-6.128400091866098"><ele>572.8</ele><time>2026-03-23T11:48:13.853Z</time></trkpt><trkpt lat="29.907821206757205" lon="-6.128525838762839"><ele>572.5999999999999</ele><time>2026-03-23T11:48:14.853Z</time></trkpt><trkpt lat="29.90783649826302" lon="-6.128638121569868"><ele>572.4000000000001</ele><time>2026-03-23T11:48:15.853Z</time></trkpt><trkpt lat="29.907855097220835" lon="-6.1287517986950855"><ele>572.2</ele><time>2026-03-23T11:48:16.853Z</time></trkpt><trkpt lat="29.907867024519085" lon="-6.128863574549777"><ele>572.0</ele><time>2026-03-23T11:48:17.853Z</time></trkpt><trkpt lat="29.90788351499477" lon="-6.128959425823617"><ele>571.8000000000001</ele><time>2026-03-23T11:48:18.853Z</time></trkpt><trkpt lat="29.907909387537355" lon="-6.129059659679697"><ele>571.6</ele><time>2026-03-23T11:48:19.853Z</time></trkpt><trkpt lat="29.907924190309515" lon="-6.129166453165891"><ele>571.4000000000001</ele><time>2026-03-23T11:48:20.853Z</time></trkpt><trkpt lat="29.90791193873542" lon="-6.129283684122679"><ele>571.2</ele><time>2026-03-23T11:48:21.853Z</time></trkpt><trkpt lat="29.90788560328261" lon="-6.129395196366931"><ele>571.0</ele><time>2026-03-23T11:48:22.853Z</time></trkpt><trkpt lat="29.907828949911348" lon="-6.129525946028144"><ele>571.0</ele><time>2026-03-23T11:48:23.853Z</time></trkpt><trkpt lat="29.90776718949198" lon="-6.129649043889194"><ele>571.0</ele><time>2026-03-23T11:48:24.853Z</time></trkpt><trkpt lat="29.90770306370427" lon="-6.129752174639166"><ele>571.0</ele><time>2026-03-23T11:48:25.853Z</time></trkpt><trkpt lat="29.907632916768804" lon="-6.129840437473036"><ele>571.0</ele><time>2026-03-23T11:48:26.853Z</time></trkpt><trkpt lat="29.907591692106823" lon="-6.129897408771229"><ele>571.0</ele><time>2026-03-23T11:48:27.853Z</time></trkpt><trkpt lat="29.907562051965467" lon="-6.129972316361482"><ele>570.6</ele><time>2026-03-23T11:48:31.853Z</time></trkpt><trkpt lat="29.907499385028846" lon="-6.130108647118688"><ele>570.2</ele><time>2026-03-23T11:48:33.853Z</time></trkpt><trkpt lat="29.907459026974614" lon="-6.130208427091943"><ele>569.8</ele><time>2026-03-23T11:48:34.853Z</time></trkpt><trkpt lat="29.907418281181005" lon="-6.13031469167342"><ele>569.4</ele><time>2026-03-23T11:48:35.853Z</time></trkpt><trkpt lat="29.907369459393987" lon="-6.130428996044108"><ele>569.0</ele><time>2026-03-23T11:48:36.853Z</time></trkpt><trkpt lat="29.907313659491997" lon="-6.130537931689146"><ele>569.0</ele><time>2026-03-23T11:48:37.853Z</time></trkpt><trkpt lat="29.90725816880581" lon="-6.130649954557762"><ele>569.0</ele><time>2026-03-23T11:48:38.853Z</time></trkpt><trkpt lat="29.90721131937517" lon="-6.130755099271966"><ele>569.0</ele><time>2026-03-23T11:48:39.853Z</time></trkpt><trkpt lat="29.907181212162662" lon="-6.130830593069147"><ele>569.0</ele><time>2026-03-23T11:48:40.853Z</time></trkpt><trkpt lat="29.90715565627594" lon="-6.130905514478319"><ele>569.0</ele><time>2026-03-23T11:48:42.853Z</time></trkpt><trkpt lat="29.907109586635155" lon="-6.130982017161571"><ele>569.0</ele><time>2026-03-23T11:49:52.852Z</time></trkpt><trkpt lat="29.907035426552415" lon="-6.131024147857324"><ele>568.8</ele><time>2026-03-23T11:49:54.852Z</time></trkpt><trkpt lat="29.906932668460705" lon="-6.131016214028902"><ele>568.5999999999999</ele><time>2026-03-23T11:49:56.852Z</time></trkpt><trkpt lat="29.90686621169993" lon="-6.13099283362995"><ele>568.4</ele><time>2026-03-23T11:49:57.852Z</time></trkpt><trkpt lat="29.906815272593242" lon="-6.130883401889598"><ele>568.1999999999999</ele><time>2026-03-23T11:49:58.852Z</time></trkpt><trkpt lat="29.90672458083211" lon="-6.130922331122639"><ele>568.0</ele><time>2026-03-23T11:49:59.852Z</time></trkpt><trkpt lat="29.906650503152793" lon="-6.130880913492601"><ele>568.6</ele><time>2026-03-23T11:50:00.852Z</time></trkpt><trkpt lat="29.906576940969405" lon="-6.130839832372459"><ele>569.1999999999999</ele><time>2026-03-23T11:50:01.852Z</time></trkpt><trkpt lat="29.90648568398276" lon="-6.1307922440916895"><ele>569.8</ele><time>2026-03-23T11:50:02.852Z</time></trkpt><trkpt lat="29.906381468416097" lon="-6.130742735894202"><ele>570.4</ele><time>2026-03-23T11:50:03.852Z</time></trkpt><trkpt lat="29.906255922275914" lon="-6.130664917209872"><ele>571.0</ele><time>2026-03-23T11:50:04.852Z</time></trkpt><trkpt lat="29.906127475245725" lon="-6.130587302104458"><ele>571.0</ele><time>2026-03-23T11:50:05.852Z</time></trkpt><trkpt lat="29.906058655414355" lon="-6.130460939277685"><ele>571.0</ele><time>2026-03-23T11:50:06.852Z</time></trkpt><trkpt lat="29.90593943155583" lon="-6.1304678337232"><ele>571.0</ele><time>2026-03-23T11:50:07.852Z</time></trkpt><trkpt lat="29.90583842857284" lon="-6.1304542496426535"><ele>571.0</ele><time>2026-03-23T11:50:08.852Z</time></trkpt><trkpt lat="29.90571382526515" lon="-6.130461623330117"><ele>571.0</ele><time>2026-03-23T11:50:09.852Z</time></trkpt><trkpt lat="29.9055639056928" lon="-6.130451262254134"><ele>571.0</ele><time>2026-03-23T11:50:10.852Z</time></trkpt><trkpt lat="29.905417377239246" lon="-6.1304408004070625"><ele>571.0</ele><time>2026-03-23T11:50:11.852Z</time></trkpt><trkpt lat="29.90530475177388" lon="-6.13043780155975"><ele>571.0</ele><time>2026-03-23T11:50:12.852Z</time></trkpt><trkpt lat="29.905219117839245" lon="-6.1304181588478555"><ele>571.0</ele><time>2026-03-23T11:50:13.852Z</time></trkpt><trkpt lat="29.90513453396646" lon="-6.130369767714787"><ele>571.0</ele><time>2026-03-23T11:50:14.852Z</time></trkpt><trkpt lat="29.90506086596689" lon="-6.130326082087585"><ele>571.0</ele><time>2026-03-23T11:50:15.852Z</time></trkpt><trkpt lat="29.904929486265416" lon="-6.130337404596024"><ele>571.0</ele><time>2026-03-23T11:50:17.852Z</time></trkpt><trkpt lat="29.90482200482461" lon="-6.130378527630817"><ele>571.0</ele><time>2026-03-23T11:50:18.852Z</time></trkpt><trkpt lat="29.904700055200404" lon="-6.1304356723160165"><ele>571.0</ele><time>2026-03-23T11:50:19.852Z</time></trkpt><trkpt lat="29.90458709984137" lon="-6.130504101432981"><ele>571.0</ele><time>2026-03-23T11:50:20.852Z</time></trkpt><trkpt lat="29.90449668806845" lon="-6.130549257969658"><ele>571.0</ele><time>2026-03-23T11:50:21.852Z</time></trkpt><trkpt lat="29.90440220377341" lon="-6.130579682376768"><ele>571.0</ele><time>2026-03-23T11:50:22.852Z</time></trkpt><trkpt lat="29.90429487859005" lon="-6.130602757312271"><ele>571.0</ele><time>2026-03-23T11:50:23.852Z</time></trkpt><trkpt lat="29.9041868386162" lon="-6.1306237200732845"><ele>571.0</ele><time>2026-03-23T11:50:24.852Z</time></trkpt><trkpt lat="29.9040382820899" lon="-6.130628855990874"><ele>571.0</ele><time>2026-03-23T11:50:25.852Z</time></trkpt><trkpt lat="29.903899270489486" lon="-6.130631859435366"><ele>571.0</ele><time>2026-03-23T11:50:26.852Z</time></trkpt><trkpt lat="29.903796112123192" lon="-6.130609242827684"><ele>571.0</ele><time>2026-03-23T11:50:27.852Z</time></trkpt><trkpt lat="29.90368944873085" lon="-6.130580013643"><ele>571.0</ele><time>2026-03-23T11:50:28.852Z</time></trkpt><trkpt lat="29.90358827448641" lon="-6.130579716063892"><ele>571.0</ele><time>2026-03-23T11:50:29.852Z</time></trkpt><trkpt lat="29.90347424044052" lon="-6.130568057721856"><ele>571.0</ele><time>2026-03-23T11:50:30.852Z</time></trkpt><trkpt lat="29.903368377937433" lon="-6.1305493040454495"><ele>571.0</ele><time>2026-03-23T11:50:31.852Z</time></trkpt><trkpt lat="29.90326635237897" lon="-6.13055161805949"><ele>571.0</ele><time>2026-03-23T11:50:32.852Z</time></trkpt><trkpt lat="29.90316364620127" lon="-6.130559094096424"><ele>571.0</ele><time>2026-03-23T11:50:33.852Z</time></trkpt><trkpt lat="29.90307550093184" lon="-6.130579626889486"><ele>571.0</ele><time>2026-03-23T11:50:34.852Z</time></trkpt><trkpt lat="29.902985860208556" lon="-6.130607638333439"><ele>571.0</ele><time>2026-03-23T11:50:35.852Z</time></trkpt><trkpt lat="29.90289494073362" lon="-6.130631566606779"><ele>571.0</ele><time>2026-03-23T11:50:36.852Z</time></trkpt><trkpt lat="29.90279462040012" lon="-6.130653380660393"><ele>571.0</ele><time>2026-03-23T11:50:37.852Z</time></trkpt><trkpt lat="29.902684771757333" lon="-6.1306561318332085"><ele>571.2</ele><time>2026-03-23T11:50:38.852Z</time></trkpt><trkpt lat="29.902571022615795" lon="-6.130666972004735"><ele>571.4000000000001</ele><time>2026-03-23T11:50:39.852Z</time></trkpt><trkpt lat="29.90246341476069" lon="-6.130684535879249"><ele>571.6</ele><time>2026-03-23T11:50:40.852Z</time></trkpt><trkpt lat="29.90236470662304" lon="-6.130686812393493"><ele>571.8000000000001</ele><time>2026-03-23T11:50:41.852Z</time></trkpt><trkpt lat="29.902277142863532" lon="-6.1306734837410515"><ele>572.0</ele><time>2026-03-23T11:50:42.852Z</time></trkpt><trkpt lat="29.902193984024255" lon="-6.130651592100229"><ele>572.0</ele><time>2026-03-23T11:50:43.852Z</time></trkpt><trkpt lat="29.902101582406118" lon="-6.130637108380496"><ele>572.0</ele><time>2026-03-23T11:50:44.852Z</time></trkpt><trkpt lat="29.902009918660973" lon="-6.130624531252734"><ele>572.0</ele><time>2026-03-23T11:50:45.852Z</time></trkpt><trkpt lat="29.90192370260369" lon="-6.130600284137766"><ele>572.0</ele><time>2026-03-23T11:50:46.852Z</time></trkpt><trkpt lat="29.901845042454994" lon="-6.130574703639768"><ele>572.0</ele><time>2026-03-23T11:50:47.852Z</time></trkpt><trkpt lat="29.901770055539373" lon="-6.130572056083682"><ele>572.0</ele><time>2026-03-23T11:50:48.852Z</time></trkpt><trkpt lat="29.901672350599362" lon="-6.130581247810316"><ele>572.0</ele><time>2026-03-23T11:50:49.852Z</time></trkpt><trkpt lat="29.901556665734336" lon="-6.130571492128504"><ele>572.0</ele><time>2026-03-23T11:50:50.852Z</time></trkpt><trkpt lat="29.90145280224629" lon="-6.130542743724797"><ele>572.0</ele><time>2026-03-23T11:50:51.852Z</time></trkpt><trkpt lat="29.901351443755228" lon="-6.1305079744898645"><ele>572.0</ele><time>2026-03-23T11:50:52.852Z</time></trkpt><trkpt lat="29.90124785421141" lon="-6.130493651695058"><ele>572.0</ele><time>2026-03-23T11:50:53.852Z</time></trkpt><trkpt lat="29.901146019412508" lon="-6.130487409380782"><ele>572.0</ele><time>2026-03-23T11:50:54.852Z</time></trkpt><trkpt lat="29.90104598156765" lon="-6.130469603660784"><ele>572.0</ele><time>2026-03-23T11:50:55.852Z</time></trkpt><trkpt lat="29.90095012550263" lon="-6.1304620259113785"><ele>572.0</ele><time>2026-03-23T11:50:56.852Z</time></trkpt><trkpt lat="29.90085422402636" lon="-6.13045376081339"><ele>572.0</ele><time>2026-03-23T11:50:57.852Z</time></trkpt><trkpt lat="29.900765634449147" lon="-6.130432996145783"><ele>572.0</ele><time>2026-03-23T11:50:58.852Z</time></trkpt><trkpt lat="29.9006755889748" lon="-6.130396857640937"><ele>571.6</ele><time>2026-03-23T11:50:59.852Z</time></trkpt><trkpt lat="29.900582665004784" lon="-6.1303810251990605"><ele>571.2</ele><time>2026-03-23T11:51:00.852Z</time></trkpt><trkpt lat="29.900481615036725" lon="-6.130396702470084"><ele>570.8</ele><time>2026-03-23T11:51:01.852Z</time></trkpt><trkpt lat="29.900373036370798" lon="-6.130381175754607"><ele>570.4</ele><time>2026-03-23T11:51:02.852Z</time></trkpt><trkpt lat="29.900269240163123" lon="-6.1303738754071455"><ele>570.0</ele><time>2026-03-23T11:51:03.852Z</time></trkpt><trkpt lat="29.900176894372105" lon="-6.1303931659139055"><ele>569.8</ele><time>2026-03-23T11:51:04.852Z</time></trkpt><trkpt lat="29.90006913413009" lon="-6.130416682683651"><ele>569.6</ele><time>2026-03-23T11:51:05.852Z</time></trkpt><trkpt lat="29.89996491353129" lon="-6.130417339530667"><ele>569.4</ele><time>2026-03-23T11:51:06.851Z</time></trkpt><trkpt lat="29.89985173803056" lon="-6.130412073979258"><ele>569.2</ele><time>2026-03-23T11:51:07.851Z</time></trkpt><trkpt lat="29.89973696819319" lon="-6.130399160572265"><ele>569.0</ele><time>2026-03-23T11:51:08.851Z</time></trkpt><trkpt lat="29.89959087943188" lon="-6.130378552121194"><ele>569.0</ele><time>2026-03-23T11:51:09.851Z</time></trkpt><trkpt lat="29.899446903613367" lon="-6.130371959992142"><ele>569.0</ele><time>2026-03-23T11:51:10.85Z</time></trkpt><trkpt lat="29.89932169456738" lon="-6.130372308686453"><ele>569.0</ele><time>2026-03-23T11:51:11.85Z</time></trkpt><trkpt lat="29.899228710287495" lon="-6.130378767973625"><ele>569.0</ele><time>2026-03-23T11:51:12.851Z</time></trkpt><trkpt lat="29.89915177112936" lon="-6.130380785194206"><ele>569.0</ele><time>2026-03-23T11:51:13.85Z</time></trkpt><trkpt lat="29.899055253513502" lon="-6.130387826215879"><ele>568.6666666666666</ele><time>2026-03-23T11:51:15.851Z</time></trkpt><trkpt lat="29.898984047770266" lon="-6.130373224125044"><ele>568.3333333333333</ele><time>2026-03-23T11:51:17.851Z</time></trkpt><trkpt lat="29.89888649959267" lon="-6.130333934482183"><ele>568.0</ele><time>2026-03-23T11:51:19.85Z</time></trkpt><trkpt lat="29.898827243534768" lon="-6.130298157517625"><ele>567.6666666666666</ele><time>2026-03-23T11:51:20.85Z</time></trkpt><trkpt lat="29.898754962391273" lon="-6.130277918405708"><ele>567.3333333333334</ele><time>2026-03-23T11:51:21.85Z</time></trkpt><trkpt lat="29.898690943338476" lon="-6.130228612968092"><ele>567.0</ele><time>2026-03-23T11:51:22.85Z</time></trkpt><trkpt lat="29.898628113050364" lon="-6.130202359144754"><ele>567.0</ele><time>2026-03-23T11:51:23.85Z</time></trkpt><trkpt lat="29.898557317875593" lon="-6.130198013368384"><ele>567.0</ele><time>2026-03-23T11:51:24.85Z</time></trkpt><trkpt lat="29.89849723621305" lon="-6.130159597202877"><ele>567.0</ele><time>2026-03-23T11:51:25.85Z</time></trkpt><trkpt lat="29.898430704620942" lon="-6.1301412194768155"><ele>567.0</ele><time>2026-03-23T11:51:26.85Z</time></trkpt><trkpt lat="29.89834905608026" lon="-6.130122067000656"><ele>567.0</ele><time>2026-03-23T11:51:27.85Z</time></trkpt><trkpt lat="29.89826322885879" lon="-6.130094027194412"><ele>567.0</ele><time>2026-03-23T11:51:28.85Z</time></trkpt><trkpt lat="29.898173038512205" lon="-6.130084200408217"><ele>566.5</ele><time>2026-03-23T11:51:29.85Z</time></trkpt><trkpt lat="29.898093209542306" lon="-6.130061831608212"><ele>566.0</ele><time>2026-03-23T11:51:30.85Z</time></trkpt><trkpt lat="29.89801911976894" lon="-6.130022264382235"><ele>565.5</ele><time>2026-03-23T11:51:31.85Z</time></trkpt><trkpt lat="29.897937499677916" lon="-6.13000332844576"><ele>565.0</ele><time>2026-03-23T11:51:32.85Z</time></trkpt><trkpt lat="29.897864109725816" lon="-6.129994416212991"><ele>564.5</ele><time>2026-03-23T11:51:33.85Z</time></trkpt><trkpt lat="29.897793208731528" lon="-6.129973753999622"><ele>564.0</ele><time>2026-03-23T11:51:34.85Z</time></trkpt><trkpt lat="29.89771022708337" lon="-6.129969181907913"><ele>564.0</ele><time>2026-03-23T11:51:35.85Z</time></trkpt><trkpt lat="29.89762809655986" lon="-6.129926598945745"><ele>564.0</ele><time>2026-03-23T11:51:36.85Z</time></trkpt><trkpt lat="29.897545028096236" lon="-6.129891477564109"><ele>564.0</ele><time>2026-03-23T11:51:37.85Z</time></trkpt><trkpt lat="29.897463027294844" lon="-6.1298428366241415"><ele>564.0</ele><time>2026-03-23T11:51:38.85Z</time></trkpt><trkpt lat="29.897389835921903" lon="-6.12979401455875"><ele>564.0</ele><time>2026-03-23T11:51:39.85Z</time></trkpt><trkpt lat="29.89731605921793" lon="-6.129752534326596"><ele>564.0</ele><time>2026-03-23T11:51:40.85Z</time></trkpt><trkpt lat="29.897240402165735" lon="-6.129725996276163"><ele>563.3333333333334</ele><time>2026-03-23T11:51:41.85Z</time></trkpt><trkpt lat="29.897173841988355" lon="-6.12968642669689"><ele>562.6666666666666</ele><time>2026-03-23T11:51:42.85Z</time></trkpt><trkpt lat="29.89710950445116" lon="-6.129626978466326"><ele>562.0</ele><time>2026-03-23T11:51:43.85Z</time></trkpt><trkpt lat="29.89703197026089" lon="-6.129589644243579"><ele>561.3333333333333</ele><time>2026-03-23T11:51:44.85Z</time></trkpt><trkpt lat="29.896969015751345" lon="-6.129550681885855"><ele>560.6666666666666</ele><time>2026-03-23T11:51:45.85Z</time></trkpt><trkpt lat="29.89689565323142" lon="-6.129534882035158"><ele>560.0</ele><time>2026-03-23T11:51:46.85Z</time></trkpt><trkpt lat="29.896825422582527" lon="-6.129507430711452"><ele>559.1666666666666</ele><time>2026-03-23T11:51:47.85Z</time></trkpt><trkpt lat="29.896751559805747" lon="-6.129458611851769"><ele>558.3333333333333</ele><time>2026-03-23T11:51:48.85Z</time></trkpt><trkpt lat="29.896669472506286" lon="-6.129446560549836"><ele>557.5</ele><time>2026-03-23T11:51:49.85Z</time></trkpt><trkpt lat="29.89660007488662" lon="-6.129404250088803"><ele>556.6666666666666</ele><time>2026-03-23T11:51:50.85Z</time></trkpt><trkpt lat="29.89647972534567" lon="-6.1293551060187355"><ele>555.8333333333334</ele><time>2026-03-23T11:51:52.85Z</time></trkpt><trkpt lat="29.896420023560214" lon="-6.129330080730932"><ele>555.0</ele><time>2026-03-23T11:51:53.85Z</time></trkpt><trkpt lat="29.896353364975404" lon="-6.129302294550895"><ele>555.0</ele><time>2026-03-23T11:51:54.85Z</time></trkpt><trkpt lat="29.896285462147294" lon="-6.129272150034245"><ele>555.0</ele><time>2026-03-23T11:51:55.85Z</time></trkpt><trkpt lat="29.89621701492156" lon="-6.129227612877071"><ele>555.0</ele><time>2026-03-23T11:51:56.85Z</time></trkpt><trkpt lat="29.896140362258826" lon="-6.129183759986052"><ele>555.0</ele><time>2026-03-23T11:51:57.85Z</time></trkpt><trkpt lat="29.89605760614224" lon="-6.129135921576271"><ele>555.0</ele><time>2026-03-23T11:51:58.85Z</time></trkpt><trkpt lat="29.895981142813334" lon="-6.1291094668907835"><ele>555.0</ele><time>2026-03-23T11:51:59.85Z</time></trkpt><trkpt lat="29.895885383364828" lon="-6.129056062538828"><ele>554.0</ele><time>2026-03-23T11:52:01.85Z</time></trkpt><trkpt lat="29.89581051821542" lon="-6.129014341219891"><ele>553.0</ele><time>2026-03-23T11:52:02.85Z</time></trkpt><trkpt lat="29.89571084669497" lon="-6.128958795603032"><ele>552.0</ele><time>2026-03-23T11:52:03.85Z</time></trkpt><trkpt lat="29.895601984291606" lon="-6.12889777407107"><ele>551.0</ele><time>2026-03-23T11:52:04.85Z</time></trkpt><trkpt lat="29.89549925655488" lon="-6.128839944379008"><ele>550.0</ele><time>2026-03-23T11:52:05.85Z</time></trkpt><trkpt lat="29.89540331467432" lon="-6.128785934542774"><ele>550.0</ele><time>2026-03-23T11:52:06.85Z</time></trkpt><trkpt lat="29.895308925896806" lon="-6.128750523841707"><ele>550.0</ele><time>2026-03-23T11:52:07.85Z</time></trkpt><trkpt lat="29.89519871968044" lon="-6.128578339993197"><ele>550.0</ele><time>2026-03-23T11:52:08.85Z</time></trkpt><trkpt lat="29.895040637430526" lon="-6.12857137184946"><ele>550.0</ele><time>2026-03-23T11:52:09.85Z</time></trkpt><trkpt lat="29.894937596909482" lon="-6.128587956661781"><ele>549.2</ele><time>2026-03-23T11:52:10.85Z</time></trkpt><trkpt lat="29.894832940577036" lon="-6.128620457799331"><ele>548.4</ele><time>2026-03-23T11:52:11.85Z</time></trkpt><trkpt lat="29.894732264609427" lon="-6.128629311971085"><ele>547.6</ele><time>2026-03-23T11:52:12.85Z</time></trkpt><trkpt lat="29.894639897671276" lon="-6.12862368786749"><ele>546.8</ele><time>2026-03-23T11:52:13.85Z</time></trkpt><trkpt lat="29.894542325612523" lon="-6.128621977950415"><ele>546.0</ele><time>2026-03-23T11:52:14.85Z</time></trkpt><trkpt lat="29.894441206164643" lon="-6.128615374909076"><ele>546.0</ele><time>2026-03-23T11:52:15.85Z</time></trkpt><trkpt lat="29.894326766305536" lon="-6.12862009185391"><ele>546.0</ele><time>2026-03-23T11:52:16.85Z</time></trkpt><trkpt lat="29.894219499072285" lon="-6.128640299893733"><ele>546.0</ele><time>2026-03-23T11:52:17.85Z</time></trkpt><trkpt lat="29.89412896864161" lon="-6.128648292308556"><ele>546.0</ele><time>2026-03-23T11:52:18.85Z</time></trkpt><trkpt lat="29.89403115556579" lon="-6.128654662979928"><ele>546.0</ele><time>2026-03-23T11:52:19.85Z</time></trkpt><trkpt lat="29.893929012484364" lon="-6.128642909873778"><ele>545.6666666666666</ele><time>2026-03-23T11:52:20.85Z</time></trkpt><trkpt lat="29.893831725627884" lon="-6.128627584233407"><ele>545.3333333333334</ele><time>2026-03-23T11:52:21.85Z</time></trkpt><trkpt lat="29.893750293311598" lon="-6.128596938492533"><ele>545.0</ele><time>2026-03-23T11:52:22.85Z</time></trkpt><trkpt lat="29.89367222455987" lon="-6.128546650085413"><ele>544.6666666666667</ele><time>2026-03-23T11:52:23.85Z</time></trkpt><trkpt lat="29.893592445931606" lon="-6.128517600586396"><ele>544.3333333333334</ele><time>2026-03-23T11:52:24.85Z</time></trkpt><trkpt lat="29.893515983628852" lon="-6.128498402099932"><ele>544.0</ele><time>2026-03-23T11:52:25.85Z</time></trkpt><trkpt lat="29.893436040357763" lon="-6.128482513487027"><ele>544.0</ele><time>2026-03-23T11:52:26.85Z</time></trkpt><trkpt lat="29.89335859733065" lon="-6.128460474262925"><ele>544.0</ele><time>2026-03-23T11:52:27.85Z</time></trkpt><trkpt lat="29.893281915865792" lon="-6.128434091682953"><ele>544.0</ele><time>2026-03-23T11:52:28.85Z</time></trkpt><trkpt lat="29.893212298358538" lon="-6.128410825232277"><ele>544.0</ele><time>2026-03-23T11:52:29.85Z</time></trkpt><trkpt lat="29.893139757300247" lon="-6.128362191858383"><ele>544.0</ele><time>2026-03-23T11:52:30.85Z</time></trkpt><trkpt lat="29.89304480753308" lon="-6.128271241769582"><ele>544.0</ele><time>2026-03-23T11:52:31.85Z</time></trkpt><trkpt lat="29.89296834091903" lon="-6.128165649756829"><ele>544.0</ele><time>2026-03-23T11:52:32.85Z</time></trkpt><trkpt lat="29.89292011334878" lon="-6.128068103628953"><ele>544.0</ele><time>2026-03-23T11:52:33.85Z</time></trkpt><trkpt lat="29.892872142603558" lon="-6.127983337116741"><ele>544.0</ele><time>2026-03-23T11:52:34.85Z</time></trkpt><trkpt lat="29.892815978909464" lon="-6.127931303371462"><ele>544.0</ele><time>2026-03-23T11:52:35.85Z</time></trkpt><trkpt lat="29.892731029217718" lon="-6.127886222153812"><ele>544.0</ele><time>2026-03-23T11:52:36.85Z</time></trkpt><trkpt lat="29.89263392133346" lon="-6.127848708901767"><ele>543.4</ele><time>2026-03-23T11:52:37.85Z</time></trkpt><trkpt lat="29.892537749613634" lon="-6.1278158821573925"><ele>542.8</ele><time>2026-03-23T11:52:38.85Z</time></trkpt><trkpt lat="29.89244145124755" lon="-6.127797247223923"><ele>542.2</ele><time>2026-03-23T11:52:39.85Z</time></trkpt><trkpt lat="29.89235635316127" lon="-6.127794149493871"><ele>541.6</ele><time>2026-03-23T11:52:40.85Z</time></trkpt><trkpt lat="29.892272214766095" lon="-6.127778301901465"><ele>541.0</ele><time>2026-03-23T11:52:41.85Z</time></trkpt><trkpt lat="29.892190467738846" lon="-6.1277724322890315"><ele>541.0</ele><time>2026-03-23T11:52:42.85Z</time></trkpt><trkpt lat="29.89209725751489" lon="-6.12775939266863"><ele>541.0</ele><time>2026-03-23T11:52:43.85Z</time></trkpt><trkpt lat="29.892004119674805" lon="-6.12774383424104"><ele>541.0</ele><time>2026-03-23T11:52:44.85Z</time></trkpt><trkpt lat="29.891908843254285" lon="-6.127735469580798"><ele>541.0</ele><time>2026-03-23T11:52:45.85Z</time></trkpt><trkpt lat="29.891821753490074" lon="-6.127734055314703"><ele>541.0</ele><time>2026-03-23T11:52:46.85Z</time></trkpt><trkpt lat="29.891734478817526" lon="-6.127741071422684"><ele>541.4</ele><time>2026-03-23T11:52:47.85Z</time></trkpt><trkpt lat="29.89164191364831" lon="-6.127737896043585"><ele>541.8</ele><time>2026-03-23T11:52:48.85Z</time></trkpt><trkpt lat="29.891541270173327" lon="-6.127727445081336"><ele>542.1999999999999</ele><time>2026-03-23T11:52:49.85Z</time></trkpt><trkpt lat="29.891433599840617" lon="-6.127726968733386"><ele>542.6</ele><time>2026-03-23T11:52:50.85Z</time></trkpt><trkpt lat="29.891308561920383" lon="-6.1277287699738"><ele>543.0</ele><time>2026-03-23T11:52:51.85Z</time></trkpt><trkpt lat="29.891196149996563" lon="-6.127717156244017"><ele>543.0</ele><time>2026-03-23T11:52:52.85Z</time></trkpt><trkpt lat="29.89109602456988" lon="-6.127683305816264"><ele>543.0</ele><time>2026-03-23T11:52:53.85Z</time></trkpt><trkpt lat="29.890999936261895" lon="-6.127637618985736"><ele>543.0</ele><time>2026-03-23T11:52:54.85Z</time></trkpt><trkpt lat="29.890919233491733" lon="-6.127594817021013"><ele>543.0</ele><time>2026-03-23T11:52:55.85Z</time></trkpt><trkpt lat="29.89084015595815" lon="-6.1275441075144155"><ele>543.0</ele><time>2026-03-23T11:52:56.85Z</time></trkpt><trkpt lat="29.890781184402314" lon="-6.127489596482366"><ele>543.0</ele><time>2026-03-23T11:52:57.85Z</time></trkpt><trkpt lat="29.890730694280382" lon="-6.127419690076137"><ele>543.0</ele><time>2026-03-23T11:52:58.85Z</time></trkpt><trkpt lat="29.890665548306128" lon="-6.127357757605506"><ele>543.0</ele><time>2026-03-23T11:52:59.85Z</time></trkpt><trkpt lat="29.89056507065844" lon="-6.1272972223057645"><ele>543.0</ele><time>2026-03-23T11:53:00.85Z</time></trkpt><trkpt lat="29.89045604701461" lon="-6.127229502752439"><ele>543.0</ele><time>2026-03-23T11:53:01.85Z</time></trkpt><trkpt lat="29.89034327004187" lon="-6.1271504996025605"><ele>543.0</ele><time>2026-03-23T11:53:02.85Z</time></trkpt><trkpt lat="29.890243782089332" lon="-6.127080128433639"><ele>543.0</ele><time>2026-03-23T11:53:03.85Z</time></trkpt><trkpt lat="29.89015160366846" lon="-6.127017984236214"><ele>543.0</ele><time>2026-03-23T11:53:04.85Z</time></trkpt><trkpt lat="29.890049658307245" lon="-6.12694895358492"><ele>543.0</ele><time>2026-03-23T11:53:05.85Z</time></trkpt><trkpt lat="29.889956672281283" lon="-6.126883656636749"><ele>543.4</ele><time>2026-03-23T11:53:06.849Z</time></trkpt><trkpt lat="29.889861896280184" lon="-6.126818070081829"><ele>543.8</ele><time>2026-03-23T11:53:07.849Z</time></trkpt><trkpt lat="29.889772952030878" lon="-6.126756171792216"><ele>544.2</ele><time>2026-03-23T11:53:08.849Z</time></trkpt><trkpt lat="29.889691864264126" lon="-6.126700802797506"><ele>544.6</ele><time>2026-03-23T11:53:09.849Z</time></trkpt><trkpt lat="29.889593892843166" lon="-6.126635006702287"><ele>545.0</ele><time>2026-03-23T11:53:10.849Z</time></trkpt><trkpt lat="29.889500706961513" lon="-6.126581130597701"><ele>544.2</ele><time>2026-03-23T11:53:11.849Z</time></trkpt><trkpt lat="29.889422978942026" lon="-6.126522404901104"><ele>543.4</ele><time>2026-03-23T11:53:12.849Z</time></trkpt><trkpt lat="29.8893551380223" lon="-6.126467006974646"><ele>542.6</ele><time>2026-03-23T11:53:13.849Z</time></trkpt><trkpt lat="29.88928267598823" lon="-6.126400802654542"><ele>541.8</ele><time>2026-03-23T11:53:14.849Z</time></trkpt><trkpt lat="29.889191870052645" lon="-6.12632251004023"><ele>541.0</ele><time>2026-03-23T11:53:15.85Z</time></trkpt><trkpt lat="29.88910327383009" lon="-6.126244466800893"><ele>541.0</ele><time>2026-03-23T11:53:16.85Z</time></trkpt><trkpt lat="29.889004149758833" lon="-6.126155083473071"><ele>541.0</ele><time>2026-03-23T11:53:17.85Z</time></trkpt><trkpt lat="29.888901294170722" lon="-6.126068191471856"><ele>541.0</ele><time>2026-03-23T11:53:18.849Z</time></trkpt><trkpt lat="29.88879166645436" lon="-6.125966085595545"><ele>541.0</ele><time>2026-03-23T11:53:19.85Z</time></trkpt><trkpt lat="29.888685091739266" lon="-6.125867758025785"><ele>541.0</ele><time>2026-03-23T11:53:20.85Z</time></trkpt><trkpt lat="29.888594431496692" lon="-6.125786985100315"><ele>541.0</ele><time>2026-03-23T11:53:21.849Z</time></trkpt><trkpt lat="29.888516336436652" lon="-6.125721183141473"><ele>541.0</ele><time>2026-03-23T11:53:22.849Z</time></trkpt><trkpt lat="29.888437038374533" lon="-6.125655940354561"><ele>541.0</ele><time>2026-03-23T11:53:23.849Z</time></trkpt><trkpt lat="29.88835900429657" lon="-6.125594692727206"><ele>541.0</ele><time>2026-03-23T11:53:24.85Z</time></trkpt><trkpt lat="29.888282709140114" lon="-6.125532460760335"><ele>540.2</ele><time>2026-03-23T11:53:25.849Z</time></trkpt><trkpt lat="29.88821481686796" lon="-6.125469823989643"><ele>539.4000000000001</ele><time>2026-03-23T11:53:26.849Z</time></trkpt><trkpt lat="29.888148194165044" lon="-6.125399755659572"><ele>538.6</ele><time>2026-03-23T11:53:27.849Z</time></trkpt><trkpt lat="29.888073427547425" lon="-6.1253352257598985"><ele>537.8000000000001</ele><time>2026-03-23T11:53:28.849Z</time></trkpt><trkpt lat="29.88799688634603" lon="-6.125268951651131"><ele>537.0</ele><time>2026-03-23T11:53:29.849Z</time></trkpt><trkpt lat="29.88792530071277" lon="-6.125202817665369"><ele>537.0</ele><time>2026-03-23T11:53:30.849Z</time></trkpt><trkpt lat="29.88785746213329" lon="-6.125137212713006"><ele>537.0</ele><time>2026-03-23T11:53:31.849Z</time></trkpt><trkpt lat="29.887785021269515" lon="-6.125069554894048"><ele>537.0</ele><time>2026-03-23T11:53:32.849Z</time></trkpt><trkpt lat="29.8877191216819" lon="-6.125000306294831"><ele>537.0</ele><time>2026-03-23T11:53:33.849Z</time></trkpt><trkpt lat="29.887652864506613" lon="-6.124933287750427"><ele>537.0</ele><time>2026-03-23T11:53:34.849Z</time></trkpt><trkpt lat="29.88758586397029" lon="-6.124869709063483"><ele>537.0</ele><time>2026-03-23T11:53:35.849Z</time></trkpt><trkpt lat="29.887517039739645" lon="-6.124815181286742"><ele>537.2</ele><time>2026-03-23T11:53:36.849Z</time></trkpt><trkpt lat="29.887457490127428" lon="-6.124746384727967"><ele>537.4000000000001</ele><time>2026-03-23T11:53:37.849Z</time></trkpt><trkpt lat="29.887399121479785" lon="-6.124665063861511"><ele>537.5999999999999</ele><time>2026-03-23T11:53:38.849Z</time></trkpt><trkpt lat="29.887351779948617" lon="-6.124579935200671"><ele>537.8</ele><time>2026-03-23T11:53:39.849Z</time></trkpt><trkpt lat="29.887288748511402" lon="-6.124503960258378"><ele>538.0</ele><time>2026-03-23T11:53:40.849Z</time></trkpt><trkpt lat="29.887203171729528" lon="-6.124438345979896"><ele>538.0</ele><time>2026-03-23T11:53:41.849Z</time></trkpt><trkpt lat="29.887094290532954" lon="-6.124365183854476"><ele>538.0</ele><time>2026-03-23T11:53:42.849Z</time></trkpt><trkpt lat="29.886999748533814" lon="-6.124303808123691"><ele>538.0</ele><time>2026-03-23T11:53:43.849Z</time></trkpt><trkpt lat="29.88690700028931" lon="-6.124240177581585"><ele>538.0</ele><time>2026-03-23T11:53:44.849Z</time></trkpt><trkpt lat="29.88681336628321" lon="-6.124163422763512"><ele>537.0</ele><time>2026-03-23T11:53:45.849Z</time></trkpt><trkpt lat="29.886696832306427" lon="-6.124072864028795"><ele>536.0</ele><time>2026-03-23T11:53:46.849Z</time></trkpt><trkpt lat="29.886582184693143" lon="-6.123991871605672"><ele>535.0</ele><time>2026-03-23T11:53:47.849Z</time></trkpt><trkpt lat="29.886473374528464" lon="-6.1239257093798205"><ele>534.0</ele><time>2026-03-23T11:53:48.849Z</time></trkpt><trkpt lat="29.8863656522056" lon="-6.123855738931546"><ele>533.8</ele><time>2026-03-23T11:53:49.849Z</time></trkpt><trkpt lat="29.886277785951744" lon="-6.123799287540781"><ele>533.5999999999999</ele><time>2026-03-23T11:53:50.849Z</time></trkpt><trkpt lat="29.88618928690285" lon="-6.123726211226037"><ele>533.4</ele><time>2026-03-23T11:53:51.849Z</time></trkpt><trkpt lat="29.886115780243948" lon="-6.123620473962151"><ele>533.1999999999999</ele><time>2026-03-23T11:53:52.849Z</time></trkpt><trkpt lat="29.88606745858696" lon="-6.123519610279409"><ele>533.0</ele><time>2026-03-23T11:53:53.849Z</time></trkpt><trkpt lat="29.88603245504397" lon="-6.123421215246478"><ele>533.0</ele><time>2026-03-23T11:53:54.849Z</time></trkpt><trkpt lat="29.88598897371623" lon="-6.123316569440132"><ele>533.0</ele><time>2026-03-23T11:53:55.849Z</time></trkpt><trkpt lat="29.88594909825469" lon="-6.1231918381281805"><ele>533.0</ele><time>2026-03-23T11:53:56.849Z</time></trkpt><trkpt lat="29.885893799938952" lon="-6.12307175935598"><ele>533.0</ele><time>2026-03-23T11:53:57.849Z</time></trkpt><trkpt lat="29.885831140418624" lon="-6.1229583262802025"><ele>532.5</ele><time>2026-03-23T11:53:58.849Z</time></trkpt><trkpt lat="29.88576267388781" lon="-6.122840518371261"><ele>532.0</ele><time>2026-03-23T11:53:59.849Z</time></trkpt><trkpt lat="29.885691962024197" lon="-6.122711607238461"><ele>531.5</ele><time>2026-03-23T11:54:00.849Z</time></trkpt><trkpt lat="29.885604519085767" lon="-6.12257484585901"><ele>531.0</ele><time>2026-03-23T11:54:01.849Z</time></trkpt><trkpt lat="29.885511578201307" lon="-6.122431873303156"><ele>531.0</ele><time>2026-03-23T11:54:02.849Z</time></trkpt><trkpt lat="29.885425055378075" lon="-6.122298906556484"><ele>531.0</ele><time>2026-03-23T11:54:03.849Z</time></trkpt><trkpt lat="29.88533682311575" lon="-6.122165729119893"><ele>531.0</ele><time>2026-03-23T11:54:04.849Z</time></trkpt><trkpt lat="29.88526273669813" lon="-6.122039470983181"><ele>531.0</ele><time>2026-03-23T11:54:05.849Z</time></trkpt><trkpt lat="29.885171652470863" lon="-6.121910013257323"><ele>530.75</ele><time>2026-03-23T11:54:06.849Z</time></trkpt><trkpt lat="29.885088227788042" lon="-6.12178548975643"><ele>530.5</ele><time>2026-03-23T11:54:07.849Z</time></trkpt><trkpt lat="29.885016421837552" lon="-6.121677171335589"><ele>530.25</ele><time>2026-03-23T11:54:08.849Z</time></trkpt><trkpt lat="29.88494334998018" lon="-6.121564014240205"><ele>530.0</ele><time>2026-03-23T11:54:09.849Z</time></trkpt><trkpt lat="29.884869624600427" lon="-6.121451717655207"><ele>529.4</ele><time>2026-03-23T11:54:10.849Z</time></trkpt><trkpt lat="29.884795436932933" lon="-6.121346639706066"><ele>528.8</ele><time>2026-03-23T11:54:11.849Z</time></trkpt><trkpt lat="29.88473398037018" lon="-6.121249181193874"><ele>528.2</ele><time>2026-03-23T11:54:12.849Z</time></trkpt><trkpt lat="29.884678189290437" lon="-6.121166312646793"><ele>527.6</ele><time>2026-03-23T11:54:13.849Z</time></trkpt><trkpt lat="29.884624146432667" lon="-6.121106310182823"><ele>527.0</ele><time>2026-03-23T11:54:14.849Z</time></trkpt><trkpt lat="29.88457781598924" lon="-6.12103351053756"><ele>527.0</ele><time>2026-03-23T11:54:15.849Z</time></trkpt><trkpt lat="29.884533236235704" lon="-6.120965081251615"><ele>527.0</ele><time>2026-03-23T11:54:16.849Z</time></trkpt><trkpt lat="29.88449241476737" lon="-6.120901874493192"><ele>527.0</ele><time>2026-03-23T11:54:17.849Z</time></trkpt><trkpt lat="29.884432148444766" lon="-6.12080849071423"><ele>527.0</ele><time>2026-03-23T11:54:19.849Z</time></trkpt><trkpt lat="29.884392967604818" lon="-6.120747779269488"><ele>527.0</ele><time>2026-03-23T11:54:21.849Z</time></trkpt><trkpt lat="29.884146594580315" lon="-6.1209497283294265"><ele>527.2</ele><time>2026-03-23T11:54:25.849Z</time></trkpt><trkpt lat="29.884056565862178" lon="-6.12093263375508"><ele>527.4000000000001</ele><time>2026-03-23T11:54:40.849Z</time></trkpt><trkpt lat="29.884001246035666" lon="-6.1208397430707855"><ele>527.5999999999999</ele><time>2026-03-23T11:54:42.849Z</time></trkpt><trkpt lat="29.883943206177285" lon="-6.120879955243876"><ele>527.8</ele><time>2026-03-23T11:55:55.848Z</time></trkpt><trkpt lat="29.88395609007031" lon="-6.121020761718781"><ele>528.0</ele><time>2026-03-23T11:55:57.848Z</time></trkpt><trkpt lat="29.883925917203396" lon="-6.121125875228517"><ele>528.0</ele><time>2026-03-23T11:55:59.848Z</time></trkpt><trkpt lat="29.8838276489556" lon="-6.121186844393073"><ele>528.0</ele><time>2026-03-23T11:56:01.848Z</time></trkpt><trkpt lat="29.883748766062133" lon="-6.121208075988151"><ele>528.0</ele><time>2026-03-23T11:56:02.848Z</time></trkpt><trkpt lat="29.883682482158328" lon="-6.121252602197524"><ele>528.0</ele><time>2026-03-23T11:56:03.848Z</time></trkpt><trkpt lat="29.883613528907603" lon="-6.121316034909993"><ele>528.0</ele><time>2026-03-23T11:56:04.848Z</time></trkpt><trkpt lat="29.88352867667664" lon="-6.121385797213745"><ele>528.0</ele><time>2026-03-23T11:56:05.847Z</time></trkpt><trkpt lat="29.883449626157116" lon="-6.121452321927701"><ele>528.0</ele><time>2026-03-23T11:56:06.847Z</time></trkpt><trkpt lat="29.883376873630162" lon="-6.1215283658822655"><ele>528.0</ele><time>2026-03-23T11:56:07.847Z</time></trkpt><trkpt lat="29.88329577961282" lon="-6.121608823982235"><ele>528.0</ele><time>2026-03-23T11:56:08.847Z</time></trkpt><trkpt lat="29.883206109272564" lon="-6.121670688338086"><ele>528.0</ele><time>2026-03-23T11:56:09.847Z</time></trkpt><trkpt lat="29.883104415956684" lon="-6.121702427828017"><ele>528.0</ele><time>2026-03-23T11:56:10.847Z</time></trkpt><trkpt lat="29.882988045320705" lon="-6.121721309376728"><ele>528.0</ele><time>2026-03-23T11:56:11.847Z</time></trkpt><trkpt lat="29.882866324480357" lon="-6.121752392401298"><ele>528.0</ele><time>2026-03-23T11:56:12.847Z</time></trkpt><trkpt lat="29.88275080002997" lon="-6.121799955698464"><ele>528.0</ele><time>2026-03-23T11:56:13.847Z</time></trkpt><trkpt lat="29.882651924720985" lon="-6.1218566441549065"><ele>527.0</ele><time>2026-03-23T11:56:14.847Z</time></trkpt><trkpt lat="29.882544387087343" lon="-6.12192868734237"><ele>526.0</ele><time>2026-03-23T11:56:15.847Z</time></trkpt><trkpt lat="29.88242885503768" lon="-6.121999460043992"><ele>525.0</ele><time>2026-03-23T11:56:16.847Z</time></trkpt><trkpt lat="29.882311562363512" lon="-6.122056270626106"><ele>524.0</ele><time>2026-03-23T11:56:17.847Z</time></trkpt><trkpt lat="29.88220288699133" lon="-6.122106083806921"><ele>524.0</ele><time>2026-03-23T11:56:18.847Z</time></trkpt><trkpt lat="29.88208732905412" lon="-6.122159840228201"><ele>524.0</ele><time>2026-03-23T11:56:19.847Z</time></trkpt><trkpt lat="29.881978538838414" lon="-6.122202335370004"><ele>524.0</ele><time>2026-03-23T11:56:20.847Z</time></trkpt><trkpt lat="29.881861846613905" lon="-6.122224786146891"><ele>524.0</ele><time>2026-03-23T11:56:21.847Z</time></trkpt><trkpt lat="29.881733946837173" lon="-6.122247000344782"><ele>524.0</ele><time>2026-03-23T11:56:22.847Z</time></trkpt><trkpt lat="29.88161624236823" lon="-6.122282973115347"><ele>524.0</ele><time>2026-03-23T11:56:23.847Z</time></trkpt><trkpt lat="29.881501202483467" lon="-6.122337384412713"><ele>524.0</ele><time>2026-03-23T11:56:24.847Z</time></trkpt><trkpt lat="29.88139132302756" lon="-6.122383813792983"><ele>524.0</ele><time>2026-03-23T11:56:25.847Z</time></trkpt><trkpt lat="29.88128384823146" lon="-6.122409779442334"><ele>524.0</ele><time>2026-03-23T11:56:26.847Z</time></trkpt><trkpt lat="29.881164327104255" lon="-6.122423080719528"><ele>524.0</ele><time>2026-03-23T11:56:27.847Z</time></trkpt><trkpt lat="29.88103512656947" lon="-6.122439725347695"><ele>524.0</ele><time>2026-03-23T11:56:28.847Z</time></trkpt><trkpt lat="29.880913060936706" lon="-6.122467234458544"><ele>524.0</ele><time>2026-03-23T11:56:29.847Z</time></trkpt><trkpt lat="29.880812520129833" lon="-6.1225006450111925"><ele>523.2</ele><time>2026-03-23T11:56:30.847Z</time></trkpt><trkpt lat="29.88071873831619" lon="-6.122548901654529"><ele>522.4</ele><time>2026-03-23T11:56:31.847Z</time></trkpt><trkpt lat="29.880623489918403" lon="-6.122600405139477"><ele>521.6</ele><time>2026-03-23T11:56:32.847Z</time></trkpt><trkpt lat="29.880522043706286" lon="-6.122671678375905"><ele>520.8</ele><time>2026-03-23T11:56:33.847Z</time></trkpt><trkpt lat="29.880437129022027" lon="-6.122753729244508"><ele>520.0</ele><time>2026-03-23T11:56:34.847Z</time></trkpt><trkpt lat="29.880365386708" lon="-6.122838459917028"><ele>520.0</ele><time>2026-03-23T11:56:35.847Z</time></trkpt><trkpt lat="29.88028127998835" lon="-6.12292170087075"><ele>520.0</ele><time>2026-03-23T11:56:36.847Z</time></trkpt><trkpt lat="29.88018737986726" lon="-6.122994659141956"><ele>520.0</ele><time>2026-03-23T11:56:37.847Z</time></trkpt><trkpt lat="29.880083567889255" lon="-6.1230589734843885"><ele>520.0</ele><time>2026-03-23T11:56:38.847Z</time></trkpt><trkpt lat="29.879967188787937" lon="-6.123117249183742"><ele>520.25</ele><time>2026-03-23T11:56:39.847Z</time></trkpt><trkpt lat="29.879859158205416" lon="-6.123166336058439"><ele>520.5</ele><time>2026-03-23T11:56:40.847Z</time></trkpt><trkpt lat="29.879761473042972" lon="-6.123214454196705"><ele>520.75</ele><time>2026-03-23T11:56:41.847Z</time></trkpt><trkpt lat="29.87966717611514" lon="-6.123270488705847"><ele>521.0</ele><time>2026-03-23T11:56:42.847Z</time></trkpt><trkpt lat="29.87955809463516" lon="-6.1233447715168605"><ele>521.5</ele><time>2026-03-23T11:56:43.847Z</time></trkpt><trkpt lat="29.879442120616538" lon="-6.123426190881792"><ele>522.0</ele><time>2026-03-23T11:56:44.847Z</time></trkpt><trkpt lat="29.879336459925458" lon="-6.123507007810537"><ele>522.5</ele><time>2026-03-23T11:56:45.847Z</time></trkpt><trkpt lat="29.879249887683596" lon="-6.12358362701352"><ele>523.0</ele><time>2026-03-23T11:56:46.847Z</time></trkpt><trkpt lat="29.879159311167633" lon="-6.123660442221659"><ele>523.0</ele><time>2026-03-23T11:56:47.847Z</time></trkpt><trkpt lat="29.879074365388764" lon="-6.123739905617531"><ele>523.0</ele><time>2026-03-23T11:56:48.847Z</time></trkpt><trkpt lat="29.878987419063396" lon="-6.123807257986732"><ele>523.0</ele><time>2026-03-23T11:56:49.847Z</time></trkpt><trkpt lat="29.87890293420174" lon="-6.123863149920932"><ele>523.0</ele><time>2026-03-23T11:56:50.847Z</time></trkpt><trkpt lat="29.878803525064583" lon="-6.123938425839216"><ele>523.0</ele><time>2026-03-23T11:56:51.847Z</time></trkpt><trkpt lat="29.8787011982232" lon="-6.123993694427763"><ele>523.0</ele><time>2026-03-23T11:56:52.847Z</time></trkpt><trkpt lat="29.878606132124034" lon="-6.124047551683303"><ele>523.0</ele><time>2026-03-23T11:56:53.847Z</time></trkpt><trkpt lat="29.878510742192088" lon="-6.1241008589096735"><ele>523.0</ele><time>2026-03-23T11:56:54.847Z</time></trkpt><trkpt lat="29.87841889624224" lon="-6.12416676071275"><ele>523.0</ele><time>2026-03-23T11:56:55.847Z</time></trkpt><trkpt lat="29.878327437969887" lon="-6.124238035097674"><ele>523.0</ele><time>2026-03-23T11:56:56.847Z</time></trkpt><trkpt lat="29.878234648767" lon="-6.124312395598701"><ele>523.0</ele><time>2026-03-23T11:56:57.847Z</time></trkpt><trkpt lat="29.878139707182925" lon="-6.1243891511217505"><ele>523.0</ele><time>2026-03-23T11:56:58.847Z</time></trkpt><trkpt lat="29.878050922329603" lon="-6.124471830107392"><ele>523.0</ele><time>2026-03-23T11:56:59.847Z</time></trkpt><trkpt lat="29.877980342271425" lon="-6.124551273553495"><ele>523.0</ele><time>2026-03-23T11:57:00.847Z</time></trkpt><trkpt lat="29.87792375924457" lon="-6.124622890530922"><ele>523.0</ele><time>2026-03-23T11:57:01.847Z</time></trkpt><trkpt lat="29.877877761448183" lon="-6.124683278518067"><ele>523.0</ele><time>2026-03-23T11:57:02.847Z</time></trkpt><trkpt lat="29.877830053806512" lon="-6.124756766690822"><ele>523.0</ele><time>2026-03-23T11:57:03.847Z</time></trkpt><trkpt lat="29.87777077360969" lon="-6.124828444174826"><ele>523.0</ele><time>2026-03-23T11:57:04.847Z</time></trkpt><trkpt lat="29.877717222823076" lon="-6.124905512838853"><ele>523.0</ele><time>2026-03-23T11:57:05.847Z</time></trkpt><trkpt lat="29.87766417774654" lon="-6.124988657230515"><ele>523.0</ele><time>2026-03-23T11:57:06.847Z</time></trkpt><trkpt lat="29.877619982083576" lon="-6.125087055650492"><ele>523.0</ele><time>2026-03-23T11:57:07.847Z</time></trkpt><trkpt lat="29.877586013148814" lon="-6.125199525071681"><ele>522.8</ele><time>2026-03-23T11:57:08.847Z</time></trkpt><trkpt lat="29.877530446013004" lon="-6.125299629840619"><ele>522.5999999999999</ele><time>2026-03-23T11:57:09.847Z</time></trkpt><trkpt lat="29.877481702955006" lon="-6.125414796851865"><ele>522.4000000000001</ele><time>2026-03-23T11:57:10.847Z</time></trkpt><trkpt lat="29.877434296527362" lon="-6.1255374185156395"><ele>522.2</ele><time>2026-03-23T11:57:11.847Z</time></trkpt><trkpt lat="29.877405777723954" lon="-6.125665641943005"><ele>522.0</ele><time>2026-03-23T11:57:12.847Z</time></trkpt><trkpt lat="29.877376133214426" lon="-6.125781629061368"><ele>522.0</ele><time>2026-03-23T11:57:13.847Z</time></trkpt><trkpt lat="29.877337457055177" lon="-6.125889110265139"><ele>522.0</ele><time>2026-03-23T11:57:14.847Z</time></trkpt><trkpt lat="29.87727313227192" lon="-6.126000394531982"><ele>522.0</ele><time>2026-03-23T11:57:15.847Z</time></trkpt><trkpt lat="29.87717771167178" lon="-6.126109774569988"><ele>522.0</ele><time>2026-03-23T11:57:16.847Z</time></trkpt><trkpt lat="29.87708778016568" lon="-6.126225036623231"><ele>522.0</ele><time>2026-03-23T11:57:17.847Z</time></trkpt><trkpt lat="29.877056205501592" lon="-6.126333889492377"><ele>522.0</ele><time>2026-03-23T11:57:18.847Z</time></trkpt><trkpt lat="29.877041034291814" lon="-6.126459554433042"><ele>522.0</ele><time>2026-03-23T11:57:19.847Z</time></trkpt><trkpt lat="29.877005789408074" lon="-6.126617304717463"><ele>522.0</ele><time>2026-03-23T11:57:20.847Z</time></trkpt><trkpt lat="29.876950318386648" lon="-6.126750250054951"><ele>522.25</ele><time>2026-03-23T11:57:21.847Z</time></trkpt><trkpt lat="29.87687571429659" lon="-6.126849790253994"><ele>522.5</ele><time>2026-03-23T11:57:22.847Z</time></trkpt><trkpt lat="29.87680430383262" lon="-6.126967903022349"><ele>522.75</ele><time>2026-03-23T11:57:23.847Z</time></trkpt><trkpt lat="29.87672636614507" lon="-6.127095089887932"><ele>523.0</ele><time>2026-03-23T11:57:24.847Z</time></trkpt><trkpt lat="29.876650212200868" lon="-6.127206181175003"><ele>522.75</ele><time>2026-03-23T11:57:25.847Z</time></trkpt><trkpt lat="29.876564288817615" lon="-6.127307594414642"><ele>522.5</ele><time>2026-03-23T11:57:26.847Z</time></trkpt><trkpt lat="29.876465978576935" lon="-6.127405493983591"><ele>522.25</ele><time>2026-03-23T11:57:27.847Z</time></trkpt><trkpt lat="29.876382936736945" lon="-6.127517004102705"><ele>522.0</ele><time>2026-03-23T11:57:28.847Z</time></trkpt><trkpt lat="29.8763133870737" lon="-6.127638915928944"><ele>522.0</ele><time>2026-03-23T11:57:29.847Z</time></trkpt><trkpt lat="29.876252835288494" lon="-6.127776118945595"><ele>522.0</ele><time>2026-03-23T11:57:30.847Z</time></trkpt><trkpt lat="29.876191345482024" lon="-6.127908243353491"><ele>522.0</ele><time>2026-03-23T11:57:31.846Z</time></trkpt><trkpt lat="29.87612722950634" lon="-6.128044576699713"><ele>522.0</ele><time>2026-03-23T11:57:32.846Z</time></trkpt><trkpt lat="29.876056082392086" lon="-6.128169135925109"><ele>522.5</ele><time>2026-03-23T11:57:33.847Z</time></trkpt><trkpt lat="29.87599204882396" lon="-6.128290183973513"><ele>523.0</ele><time>2026-03-23T11:57:34.846Z</time></trkpt><trkpt lat="29.87593177698071" lon="-6.1284208928983785"><ele>523.5</ele><time>2026-03-23T11:57:35.846Z</time></trkpt><trkpt lat="29.875876300175065" lon="-6.128551216835578"><ele>524.0</ele><time>2026-03-23T11:57:36.847Z</time></trkpt><trkpt lat="29.875823833157217" lon="-6.128686803632033"><ele>524.0</ele><time>2026-03-23T11:57:37.847Z</time></trkpt><trkpt lat="29.875780786552074" lon="-6.128833367253354"><ele>524.0</ele><time>2026-03-23T11:57:38.847Z</time></trkpt><trkpt lat="29.87575251174667" lon="-6.128994171995362"><ele>524.0</ele><time>2026-03-23T11:57:39.847Z</time></trkpt><trkpt lat="29.875720787424306" lon="-6.129155746442281"><ele>524.0</ele><time>2026-03-23T11:57:40.847Z</time></trkpt><trkpt lat="29.87567703296326" lon="-6.129317122626014"><ele>524.25</ele><time>2026-03-23T11:57:41.847Z</time></trkpt><trkpt lat="29.87562758525115" lon="-6.129481885038128"><ele>524.5</ele><time>2026-03-23T11:57:42.847Z</time></trkpt><trkpt lat="29.875576966544582" lon="-6.129641857602715"><ele>524.75</ele><time>2026-03-23T11:57:43.847Z</time></trkpt><trkpt lat="29.875528006877186" lon="-6.129801060929968"><ele>525.0</ele><time>2026-03-23T11:57:44.847Z</time></trkpt><trkpt lat="29.875476276512156" lon="-6.129954752096038"><ele>525.5</ele><time>2026-03-23T11:57:45.847Z</time></trkpt><trkpt lat="29.875422573731182" lon="-6.130108031134743"><ele>526.0</ele><time>2026-03-23T11:57:46.847Z</time></trkpt><trkpt lat="29.875367357048304" lon="-6.130256741501233"><ele>526.5</ele><time>2026-03-23T11:57:47.847Z</time></trkpt><trkpt lat="29.875309338324055" lon="-6.130397497491958"><ele>527.0</ele><time>2026-03-23T11:57:48.847Z</time></trkpt><trkpt lat="29.87525782680359" lon="-6.13053820739226"><ele>527.0</ele><time>2026-03-23T11:57:49.847Z</time></trkpt><trkpt lat="29.875212663985774" lon="-6.130670597436168"><ele>527.0</ele><time>2026-03-23T11:57:50.847Z</time></trkpt><trkpt lat="29.875180680418733" lon="-6.130812577420745"><ele>527.0</ele><time>2026-03-23T11:57:51.847Z</time></trkpt><trkpt lat="29.87514830242228" lon="-6.130963934502413"><ele>527.0</ele><time>2026-03-23T11:57:52.847Z</time></trkpt><trkpt lat="29.875113981646418" lon="-6.131120993194049"><ele>527.5</ele><time>2026-03-23T11:57:53.847Z</time></trkpt><trkpt lat="29.87507010825912" lon="-6.131283315688327"><ele>528.0</ele><time>2026-03-23T11:57:54.847Z</time></trkpt><trkpt lat="29.875023345787717" lon="-6.131441781084072"><ele>528.5</ele><time>2026-03-23T11:57:55.847Z</time></trkpt><trkpt lat="29.87497606434449" lon="-6.131600135650116"><ele>529.0</ele><time>2026-03-23T11:57:56.847Z</time></trkpt><trkpt lat="29.874932398762326" lon="-6.131763525367589"><ele>529.25</ele><time>2026-03-23T11:57:57.847Z</time></trkpt><trkpt lat="29.874887923481452" lon="-6.131920751412644"><ele>529.5</ele><time>2026-03-23T11:57:58.847Z</time></trkpt><trkpt lat="29.874839988397767" lon="-6.132078164444181"><ele>529.75</ele><time>2026-03-23T11:57:59.847Z</time></trkpt><trkpt lat="29.874790011658714" lon="-6.132230239893862"><ele>530.0</ele><time>2026-03-23T11:58:00.847Z</time></trkpt><trkpt lat="29.8747470532174" lon="-6.132389519495854"><ele>530.25</ele><time>2026-03-23T11:58:01.847Z</time></trkpt><trkpt lat="29.874724990624635" lon="-6.1325554329372505"><ele>530.5</ele><time>2026-03-23T11:58:02.847Z</time></trkpt><trkpt lat="29.874714288153164" lon="-6.132729041633365"><ele>530.75</ele><time>2026-03-23T11:58:03.847Z</time></trkpt><trkpt lat="29.874701574107103" lon="-6.132901608224366"><ele>531.0</ele><time>2026-03-23T11:58:04.847Z</time></trkpt><trkpt lat="29.874682026348104" lon="-6.133073633952728"><ele>530.0</ele><time>2026-03-23T11:58:05.847Z</time></trkpt><trkpt lat="29.874662267471454" lon="-6.133243821591857"><ele>529.0</ele><time>2026-03-23T11:58:06.847Z</time></trkpt><trkpt lat="29.874632271453958" lon="-6.133414591099755"><ele>528.0</ele><time>2026-03-23T11:58:07.847Z</time></trkpt><trkpt lat="29.8745956985096" lon="-6.133582420193661"><ele>528.0</ele><time>2026-03-23T11:58:08.847Z</time></trkpt><trkpt lat="29.874554171956795" lon="-6.133742730753447"><ele>528.0</ele><time>2026-03-23T11:58:09.847Z</time></trkpt><trkpt lat="29.87450847941198" lon="-6.133897484511078"><ele>528.0</ele><time>2026-03-23T11:58:10.847Z</time></trkpt><trkpt lat="29.874458067175038" lon="-6.13404912597209"><ele>528.0</ele><time>2026-03-23T11:58:11.847Z</time></trkpt><trkpt lat="29.874403126716587" lon="-6.134197463368785"><ele>528.0</ele><time>2026-03-23T11:58:12.847Z</time></trkpt><trkpt lat="29.87435228826753" lon="-6.134339571023024"><ele>528.0</ele><time>2026-03-23T11:58:13.847Z</time></trkpt><trkpt lat="29.87429830153875" lon="-6.134471770592309"><ele>528.0</ele><time>2026-03-23T11:58:14.847Z</time></trkpt><trkpt lat="29.87424632562547" lon="-6.134610954196157"><ele>528.0</ele><time>2026-03-23T11:58:15.847Z</time></trkpt><trkpt lat="29.87419279229021" lon="-6.134752158788582"><ele>528.0</ele><time>2026-03-23T11:58:16.847Z</time></trkpt><trkpt lat="29.874143550226787" lon="-6.1348969369205255"><ele>528.0</ele><time>2026-03-23T11:58:17.846Z</time></trkpt><trkpt lat="29.874094598362472" lon="-6.135047481789902"><ele>528.0</ele><time>2026-03-23T11:58:18.846Z</time></trkpt><trkpt lat="29.874055838127642" lon="-6.135208520043726"><ele>528.0</ele><time>2026-03-23T11:58:19.846Z</time></trkpt><trkpt lat="29.87401991989668" lon="-6.135368451296567"><ele>528.0</ele><time>2026-03-23T11:58:20.846Z</time></trkpt><trkpt lat="29.873989905245477" lon="-6.135525206672309"><ele>528.0</ele><time>2026-03-23T11:58:21.846Z</time></trkpt><trkpt lat="29.87395998595602" lon="-6.135686118520622"><ele>528.0</ele><time>2026-03-23T11:58:22.846Z</time></trkpt><trkpt lat="29.873928054038135" lon="-6.135847783278241"><ele>528.0</ele><time>2026-03-23T11:58:23.846Z</time></trkpt><trkpt lat="29.873895765478675" lon="-6.136018850634398"><ele>528.0</ele><time>2026-03-23T11:58:24.846Z</time></trkpt><trkpt lat="29.873855430651048" lon="-6.13619114453238"><ele>528.0</ele><time>2026-03-23T11:58:25.846Z</time></trkpt><trkpt lat="29.873798200112994" lon="-6.136357458539827"><ele>528.0</ele><time>2026-03-23T11:58:26.846Z</time></trkpt><trkpt lat="29.873741752301797" lon="-6.136531612425661"><ele>527.6666666666666</ele><time>2026-03-23T11:58:27.846Z</time></trkpt><trkpt lat="29.873698933392074" lon="-6.13671644433839"><ele>527.3333333333333</ele><time>2026-03-23T11:58:28.846Z</time></trkpt><trkpt lat="29.873657197764434" lon="-6.136902906119049"><ele>527.0</ele><time>2026-03-23T11:58:29.846Z</time></trkpt><trkpt lat="29.873622774122115" lon="-6.137073678758009"><ele>527.0</ele><time>2026-03-23T11:58:30.846Z</time></trkpt><trkpt lat="29.873582711807384" lon="-6.1372385806825305"><ele>527.0</ele><time>2026-03-23T11:58:31.846Z</time></trkpt><trkpt lat="29.87353297039178" lon="-6.137403917169473"><ele>527.0</ele><time>2026-03-23T11:58:32.846Z</time></trkpt><trkpt lat="29.873498754251063" lon="-6.137573039733955"><ele>527.25</ele><time>2026-03-23T11:58:33.846Z</time></trkpt><trkpt lat="29.87348604352417" lon="-6.13774383192628"><ele>527.5</ele><time>2026-03-23T11:58:34.846Z</time></trkpt><trkpt lat="29.87348779649091" lon="-6.137912423296144"><ele>527.75</ele><time>2026-03-23T11:58:35.846Z</time></trkpt><trkpt lat="29.87350100865735" lon="-6.138073317584534"><ele>528.0</ele><time>2026-03-23T11:58:36.846Z</time></trkpt><trkpt lat="29.8735100007446" lon="-6.138226901892565"><ele>527.5</ele><time>2026-03-23T11:58:37.846Z</time></trkpt><trkpt lat="29.873506908374992" lon="-6.138376306427672"><ele>527.0</ele><time>2026-03-23T11:58:38.846Z</time></trkpt><trkpt lat="29.873478580595734" lon="-6.138511143869148"><ele>526.5</ele><time>2026-03-23T11:58:39.846Z</time></trkpt><trkpt lat="29.873410128415948" lon="-6.138650217809326"><ele>526.0</ele><time>2026-03-23T11:58:40.846Z</time></trkpt><trkpt lat="29.873342269645946" lon="-6.138805266576605"><ele>525.6666666666667</ele><time>2026-03-23T11:58:41.846Z</time></trkpt><trkpt lat="29.873260942000538" lon="-6.138960869743228"><ele>525.3333333333334</ele><time>2026-03-23T11:58:42.846Z</time></trkpt><trkpt lat="29.873180087029784" lon="-6.139109985447741"><ele>525.0</ele><time>2026-03-23T11:58:43.846Z</time></trkpt><trkpt lat="29.873115389302132" lon="-6.139268566675885"><ele>525.6666666666666</ele><time>2026-03-23T11:58:44.846Z</time></trkpt><trkpt lat="29.87306801402217" lon="-6.13943538188772"><ele>526.3333333333333</ele><time>2026-03-23T11:58:45.846Z</time></trkpt><trkpt lat="29.87303626235984" lon="-6.139614092180055"><ele>527.0</ele><time>2026-03-23T11:58:46.846Z</time></trkpt><trkpt lat="29.87301560444527" lon="-6.139796036511199"><ele>526.6666666666666</ele><time>2026-03-23T11:58:47.846Z</time></trkpt><trkpt lat="29.87301314487015" lon="-6.139977363775508"><ele>526.3333333333334</ele><time>2026-03-23T11:58:48.846Z</time></trkpt><trkpt lat="29.87301952282677" lon="-6.140154983135871"><ele>526.0</ele><time>2026-03-23T11:58:49.846Z</time></trkpt><trkpt lat="29.873020960989656" lon="-6.140330843195821"><ele>526.0</ele><time>2026-03-23T11:58:50.846Z</time></trkpt><trkpt lat="29.873010357388925" lon="-6.140505555875685"><ele>526.0</ele><time>2026-03-23T11:58:51.846Z</time></trkpt><trkpt lat="29.872988079015723" lon="-6.140681582470845"><ele>526.0</ele><time>2026-03-23T11:58:52.846Z</time></trkpt><trkpt lat="29.872963503008457" lon="-6.14085490284765"><ele>526.6666666666667</ele><time>2026-03-23T11:58:53.846Z</time></trkpt><trkpt lat="29.872939104871946" lon="-6.1410346403860645"><ele>527.3333333333334</ele><time>2026-03-23T11:58:54.846Z</time></trkpt><trkpt lat="29.872910536049126" lon="-6.14121401744001"><ele>528.0</ele><time>2026-03-23T11:58:55.846Z</time></trkpt><trkpt lat="29.87288039107624" lon="-6.141394816923509"><ele>528.25</ele><time>2026-03-23T11:58:56.846Z</time></trkpt><trkpt lat="29.87285194797407" lon="-6.141562224408574"><ele>528.5</ele><time>2026-03-23T11:58:57.846Z</time></trkpt><trkpt lat="29.872829458666338" lon="-6.141720527044507"><ele>528.75</ele><time>2026-03-23T11:58:58.846Z</time></trkpt><trkpt lat="29.872822876002544" lon="-6.14188075030467"><ele>529.0</ele><time>2026-03-23T11:58:59.846Z</time></trkpt><trkpt lat="29.872836507233362" lon="-6.1420288550217474"><ele>529.0</ele><time>2026-03-23T11:59:00.846Z</time></trkpt><trkpt lat="29.8728527940638" lon="-6.142168356937088"><ele>529.0</ele><time>2026-03-23T11:59:01.846Z</time></trkpt><trkpt lat="29.872868928192517" lon="-6.142303749895931"><ele>529.0</ele><time>2026-03-23T11:59:02.846Z</time></trkpt><trkpt lat="29.87286984762054" lon="-6.142436580240468"><ele>529.0</ele><time>2026-03-23T11:59:03.846Z</time></trkpt><trkpt lat="29.872851420533483" lon="-6.142573264677425"><ele>529.0</ele><time>2026-03-23T11:59:04.846Z</time></trkpt><trkpt lat="29.872813853058457" lon="-6.142697269265303"><ele>529.0</ele><time>2026-03-23T11:59:05.846Z</time></trkpt><trkpt lat="29.872760887007022" lon="-6.142807050135918"><ele>529.0</ele><time>2026-03-23T11:59:06.846Z</time></trkpt><trkpt lat="29.87271033401445" lon="-6.142901990600504"><ele>529.0</ele><time>2026-03-23T11:59:07.846Z</time></trkpt><trkpt lat="29.87267107450205" lon="-6.1429975449190115"><ele>529.0</ele><time>2026-03-23T11:59:08.846Z</time></trkpt><trkpt lat="29.87264185320822" lon="-6.143100675900465"><ele>529.0</ele><time>2026-03-23T11:59:09.846Z</time></trkpt><trkpt lat="29.87262311321362" lon="-6.143212514121057"><ele>529.0</ele><time>2026-03-23T11:59:10.846Z</time></trkpt><trkpt lat="29.87260810288824" lon="-6.143308109373981"><ele>529.0</ele><time>2026-03-23T11:59:11.846Z</time></trkpt><trkpt lat="29.872572528530135" lon="-6.143402069063819"><ele>529.0</ele><time>2026-03-23T11:59:12.846Z</time></trkpt><trkpt lat="29.87251590304619" lon="-6.1434879495096455"><ele>529.0</ele><time>2026-03-23T11:59:13.846Z</time></trkpt><trkpt lat="29.872451741699656" lon="-6.143551737164123"><ele>528.6666666666667</ele><time>2026-03-23T11:59:14.846Z</time></trkpt><trkpt lat="29.872392844772445" lon="-6.143596078581526"><ele>528.3333333333334</ele><time>2026-03-23T11:59:15.846Z</time></trkpt><trkpt lat="29.872330315748837" lon="-6.14363896920693"><ele>528.0</ele><time>2026-03-23T11:59:16.846Z</time></trkpt><trkpt lat="29.87223695421191" lon="-6.143715971738409"><ele>527.6666666666666</ele><time>2026-03-23T11:59:18.846Z</time></trkpt><trkpt lat="29.872150332443226" lon="-6.1437685640274715"><ele>527.3333333333333</ele><time>2026-03-23T11:59:20.846Z</time></trkpt><trkpt lat="29.87206822880755" lon="-6.143795868393352"><ele>527.0</ele><time>2026-03-23T11:59:22.846Z</time></trkpt><trkpt lat="29.87199815244917" lon="-6.143797047347411"><ele>527.0</ele><time>2026-03-23T11:59:23.846Z</time></trkpt><trkpt lat="29.871928395795454" lon="-6.143809175877743"><ele>527.0</ele><time>2026-03-23T11:59:24.846Z</time></trkpt><trkpt lat="29.871843822446007" lon="-6.143824699531998"><ele>527.0</ele><time>2026-03-23T11:59:25.846Z</time></trkpt><trkpt lat="29.87175063072346" lon="-6.143840654694656"><ele>527.0</ele><time>2026-03-23T11:59:26.846Z</time></trkpt><trkpt lat="29.87165366967113" lon="-6.143861412717321"><ele>527.0</ele><time>2026-03-23T11:59:27.846Z</time></trkpt><trkpt lat="29.871542919415756" lon="-6.143892384347986"><ele>527.0</ele><time>2026-03-23T11:59:28.846Z</time></trkpt><trkpt lat="29.871395588027184" lon="-6.1439532813584785"><ele>527.0</ele><time>2026-03-23T11:59:29.846Z</time></trkpt><trkpt lat="29.871242839899413" lon="-6.144028494749814"><ele>527.0</ele><time>2026-03-23T11:59:30.846Z</time></trkpt><trkpt lat="29.871082509900596" lon="-6.144113394720357"><ele>527.0</ele><time>2026-03-23T11:59:31.846Z</time></trkpt><trkpt lat="29.870946541327434" lon="-6.144186952575668"><ele>527.0</ele><time>2026-03-23T11:59:32.846Z</time></trkpt><trkpt lat="29.870838651796507" lon="-6.144249928554087"><ele>527.0</ele><time>2026-03-23T11:59:33.845Z</time></trkpt><trkpt lat="29.870739271923863" lon="-6.144315168587618"><ele>527.0</ele><time>2026-03-23T11:59:34.845Z</time></trkpt><trkpt lat="29.87063735902851" lon="-6.1443757240100405"><ele>527.0</ele><time>2026-03-23T11:59:35.845Z</time></trkpt><trkpt lat="29.870529497417646" lon="-6.144419321807612"><ele>527.0</ele><time>2026-03-23T11:59:36.845Z</time></trkpt><trkpt lat="29.8704265920181" lon="-6.14447888584303"><ele>527.0</ele><time>2026-03-23T11:59:37.845Z</time></trkpt><trkpt lat="29.87034756959154" lon="-6.14453044975954"><ele>527.0</ele><time>2026-03-23T11:59:38.845Z</time></trkpt><trkpt lat="29.870263424323852" lon="-6.144572156369231"><ele>527.0</ele><time>2026-03-23T11:59:39.846Z</time></trkpt><trkpt lat="29.870175341319673" lon="-6.144614547584095"><ele>526.25</ele><time>2026-03-23T11:59:40.846Z</time></trkpt><trkpt lat="29.87007755692034" lon="-6.144657996876633"><ele>525.5</ele><time>2026-03-23T11:59:41.846Z</time></trkpt><trkpt lat="29.869964462830026" lon="-6.144711815386058"><ele>524.75</ele><time>2026-03-23T11:59:42.845Z</time></trkpt><trkpt lat="29.869837921538274" lon="-6.144775923039974"><ele>524.0</ele><time>2026-03-23T11:59:43.845Z</time></trkpt><trkpt lat="29.869726088985416" lon="-6.144843611948881"><ele>524.0</ele><time>2026-03-23T11:59:44.845Z</time></trkpt><trkpt lat="29.86962098484634" lon="-6.1449001040557265"><ele>524.0</ele><time>2026-03-23T11:59:45.845Z</time></trkpt><trkpt lat="29.86953161441373" lon="-6.144940503511376"><ele>524.0</ele><time>2026-03-23T11:59:46.845Z</time></trkpt><trkpt lat="29.86943997287883" lon="-6.1449718213649644"><ele>524.0</ele><time>2026-03-23T11:59:47.845Z</time></trkpt><trkpt lat="29.869346981131113" lon="-6.145008873599712"><ele>524.0</ele><time>2026-03-23T11:59:48.845Z</time></trkpt><trkpt lat="29.869250624455844" lon="-6.14504795337323"><ele>524.0</ele><time>2026-03-23T11:59:49.845Z</time></trkpt><trkpt lat="29.869157086465034" lon="-6.145102342998309"><ele>524.0</ele><time>2026-03-23T11:59:50.845Z</time></trkpt><trkpt lat="29.869063469151225" lon="-6.145166322050571"><ele>524.0</ele><time>2026-03-23T11:59:51.845Z</time></trkpt><trkpt lat="29.868960614847666" lon="-6.145224512997052"><ele>524.0</ele><time>2026-03-23T11:59:52.845Z</time></trkpt><trkpt lat="29.868853153116248" lon="-6.145283320708107"><ele>524.0</ele><time>2026-03-23T11:59:53.845Z</time></trkpt><trkpt lat="29.868740684177098" lon="-6.145353449106415"><ele>524.0</ele><time>2026-03-23T11:59:54.845Z</time></trkpt><trkpt lat="29.868609943755516" lon="-6.145430589001258"><ele>524.0</ele><time>2026-03-23T11:59:55.845Z</time></trkpt><trkpt lat="29.86847072886526" lon="-6.145495814386601"><ele>524.0</ele><time>2026-03-23T11:59:56.845Z</time></trkpt><trkpt lat="29.86832975882474" lon="-6.145560263772775"><ele>524.0</ele><time>2026-03-23T11:59:57.845Z</time></trkpt><trkpt lat="29.868192542445918" lon="-6.1456231841365945"><ele>524.0</ele><time>2026-03-23T11:59:58.845Z</time></trkpt><trkpt lat="29.868061921838105" lon="-6.145698515170258"><ele>524.0</ele><time>2026-03-23T11:59:59.845Z</time></trkpt><trkpt lat="29.867934227190258" lon="-6.1457681370730635"><ele>524.0</ele><time>2026-03-23T12:00:00.845Z</time></trkpt><trkpt lat="29.867805756118376" lon="-6.1458369982099015"><ele>524.0</ele><time>2026-03-23T12:00:01.845Z</time></trkpt><trkpt lat="29.867669506430328" lon="-6.145906300627612"><ele>524.5</ele><time>2026-03-23T12:00:02.845Z</time></trkpt><trkpt lat="29.867548673218383" lon="-6.145970245633334"><ele>525.0</ele><time>2026-03-23T12:00:03.845Z</time></trkpt><trkpt lat="29.86743539265835" lon="-6.146044100868206"><ele>525.5</ele><time>2026-03-23T12:00:04.845Z</time></trkpt><trkpt lat="29.867339173467986" lon="-6.146122322622115"><ele>526.0</ele><time>2026-03-23T12:00:05.845Z</time></trkpt><trkpt lat="29.86724645400031" lon="-6.146217916135728"><ele>526.0</ele><time>2026-03-23T12:00:06.845Z</time></trkpt><trkpt lat="29.867162869870814" lon="-6.146336935759914"><ele>526.0</ele><time>2026-03-23T12:00:07.844Z</time></trkpt><trkpt lat="29.86708028725331" lon="-6.146463404311889"><ele>526.0</ele><time>2026-03-23T12:00:08.844Z</time></trkpt><trkpt lat="29.866997842260105" lon="-6.146595224767137"><ele>526.0</ele><time>2026-03-23T12:00:09.844Z</time></trkpt><trkpt lat="29.866907534669686" lon="-6.146728443381261"><ele>526.0</ele><time>2026-03-23T12:00:10.844Z</time></trkpt><trkpt lat="29.866807278688867" lon="-6.146857822758019"><ele>526.0</ele><time>2026-03-23T12:00:11.844Z</time></trkpt><trkpt lat="29.86670939411219" lon="-6.146985686709496"><ele>526.0</ele><time>2026-03-23T12:00:12.844Z</time></trkpt><trkpt lat="29.866624281849596" lon="-6.147114247246054"><ele>526.0</ele><time>2026-03-23T12:00:13.844Z</time></trkpt><trkpt lat="29.866539471342204" lon="-6.147240072305492"><ele>525.75</ele><time>2026-03-23T12:00:14.844Z</time></trkpt><trkpt lat="29.866462695931546" lon="-6.147337603498925"><ele>525.5</ele><time>2026-03-23T12:00:15.844Z</time></trkpt><trkpt lat="29.86638403627927" lon="-6.147444136060836"><ele>525.25</ele><time>2026-03-23T12:00:16.844Z</time></trkpt><trkpt lat="29.8663063383341" lon="-6.147550232579906"><ele>525.0</ele><time>2026-03-23T12:00:17.844Z</time></trkpt><trkpt lat="29.866228912366946" lon="-6.1476577287865535"><ele>525.0</ele><time>2026-03-23T12:00:18.844Z</time></trkpt><trkpt lat="29.866144372198363" lon="-6.147768113702083"><ele>525.0</ele><time>2026-03-23T12:00:19.844Z</time></trkpt><trkpt lat="29.86605550879146" lon="-6.147879228010202"><ele>525.0</ele><time>2026-03-23T12:00:20.844Z</time></trkpt><trkpt lat="29.865964397617248" lon="-6.147995529524717"><ele>525.0</ele><time>2026-03-23T12:00:21.844Z</time></trkpt><trkpt lat="29.865877051364706" lon="-6.148120377939979"><ele>525.25</ele><time>2026-03-23T12:00:22.844Z</time></trkpt><trkpt lat="29.865791966401183" lon="-6.1482539596683665"><ele>525.5</ele><time>2026-03-23T12:00:23.844Z</time></trkpt><trkpt lat="29.865704300242164" lon="-6.148390286721888"><ele>525.75</ele><time>2026-03-23T12:00:24.844Z</time></trkpt><trkpt lat="29.86560901656721" lon="-6.148526516929793"><ele>526.0</ele><time>2026-03-23T12:00:25.844Z</time></trkpt><trkpt lat="29.865513875186934" lon="-6.1486598263927545"><ele>526.0</ele><time>2026-03-23T12:00:26.844Z</time></trkpt><trkpt lat="29.86541375815183" lon="-6.148794393967739"><ele>526.0</ele><time>2026-03-23T12:00:27.844Z</time></trkpt><trkpt lat="29.865311854042595" lon="-6.1489327116040915"><ele>526.0</ele><time>2026-03-23T12:00:28.844Z</time></trkpt><trkpt lat="29.865215087501777" lon="-6.149071987176009"><ele>525.25</ele><time>2026-03-23T12:00:29.844Z</time></trkpt><trkpt lat="29.865122426451098" lon="-6.149208364208765"><ele>524.5</ele><time>2026-03-23T12:00:30.844Z</time></trkpt><trkpt lat="29.86503588716756" lon="-6.149346344463344"><ele>523.75</ele><time>2026-03-23T12:00:31.844Z</time></trkpt><trkpt lat="29.864956609272046" lon="-6.149495266055921"><ele>523.0</ele><time>2026-03-23T12:00:32.844Z</time></trkpt><trkpt lat="29.864886046736405" lon="-6.14965901923458"><ele>523.0</ele><time>2026-03-23T12:00:33.844Z</time></trkpt><trkpt lat="29.86482245486722" lon="-6.149827011144921"><ele>523.0</ele><time>2026-03-23T12:00:34.844Z</time></trkpt><trkpt lat="29.86475374359066" lon="-6.149989293696892"><ele>523.0</ele><time>2026-03-23T12:00:35.844Z</time></trkpt><trkpt lat="29.864681059327584" lon="-6.150151907527891"><ele>523.0</ele><time>2026-03-23T12:00:36.844Z</time></trkpt><trkpt lat="29.864603975815836" lon="-6.150330366718123"><ele>523.0</ele><time>2026-03-23T12:00:37.844Z</time></trkpt><trkpt lat="29.864541104525486" lon="-6.150515842163821"><ele>523.0</ele><time>2026-03-23T12:00:38.844Z</time></trkpt><trkpt lat="29.86447727891965" lon="-6.150683153996907"><ele>523.5</ele><time>2026-03-23T12:00:39.844Z</time></trkpt><trkpt lat="29.864418477349396" lon="-6.150832781950111"><ele>524.0</ele><time>2026-03-23T12:00:40.844Z</time></trkpt><trkpt lat="29.864375878092698" lon="-6.150975726167645"><ele>524.5</ele><time>2026-03-23T12:00:41.844Z</time></trkpt><trkpt lat="29.864343143210935" lon="-6.15113468834266"><ele>525.0</ele><time>2026-03-23T12:00:42.844Z</time></trkpt><trkpt lat="29.864304373863945" lon="-6.151291957666368"><ele>525.0</ele><time>2026-03-23T12:00:43.844Z</time></trkpt><trkpt lat="29.864258361595695" lon="-6.151451458708146"><ele>525.0</ele><time>2026-03-23T12:00:44.844Z</time></trkpt><trkpt lat="29.864212893751393" lon="-6.151586254183176"><ele>525.0</ele><time>2026-03-23T12:00:45.844Z</time></trkpt><trkpt lat="29.864169855851614" lon="-6.151706378977757"><ele>525.0</ele><time>2026-03-23T12:00:46.844Z</time></trkpt><trkpt lat="29.864126306800976" lon="-6.151815747824871"><ele>525.0</ele><time>2026-03-23T12:00:47.844Z</time></trkpt><trkpt lat="29.864088580880725" lon="-6.151928378103688"><ele>525.0</ele><time>2026-03-23T12:00:48.844Z</time></trkpt><trkpt lat="29.864068434239545" lon="-6.152033953601329"><ele>525.0</ele><time>2026-03-23T12:00:49.844Z</time></trkpt><trkpt lat="29.864061528526957" lon="-6.152133365864245"><ele>525.0</ele><time>2026-03-23T12:00:50.844Z</time></trkpt><trkpt lat="29.86404658046763" lon="-6.152234419766301"><ele>525.0</ele><time>2026-03-23T12:00:51.844Z</time></trkpt><trkpt lat="29.864009587124976" lon="-6.152336851128377"><ele>524.5</ele><time>2026-03-23T12:00:52.844Z</time></trkpt><trkpt lat="29.86395144967471" lon="-6.152449881474136"><ele>524.0</ele><time>2026-03-23T12:00:53.844Z</time></trkpt><trkpt lat="29.863891856494284" lon="-6.152568620427945"><ele>523.5</ele><time>2026-03-23T12:00:54.844Z</time></trkpt><trkpt lat="29.863832344594154" lon="-6.152687814361908"><ele>523.0</ele><time>2026-03-23T12:00:55.844Z</time></trkpt><trkpt lat="29.863775248254864" lon="-6.152803321103962"><ele>523.0</ele><time>2026-03-23T12:00:56.844Z</time></trkpt><trkpt lat="29.863705856332764" lon="-6.152923756816831"><ele>523.0</ele><time>2026-03-23T12:00:57.844Z</time></trkpt><trkpt lat="29.863637944723585" lon="-6.153056690515451"><ele>523.0</ele><time>2026-03-23T12:00:58.844Z</time></trkpt><trkpt lat="29.863570435143505" lon="-6.153192006389541"><ele>523.0</ele><time>2026-03-23T12:00:59.844Z</time></trkpt><trkpt lat="29.8635019702844" lon="-6.153323175850086"><ele>522.25</ele><time>2026-03-23T12:01:00.844Z</time></trkpt><trkpt lat="29.863427946471862" lon="-6.153433456206698"><ele>521.5</ele><time>2026-03-23T12:01:01.844Z</time></trkpt><trkpt lat="29.863341893112388" lon="-6.153532146446288"><ele>520.75</ele><time>2026-03-23T12:01:02.844Z</time></trkpt><trkpt lat="29.863244261000652" lon="-6.153624450088333"><ele>520.0</ele><time>2026-03-23T12:01:03.844Z</time></trkpt><trkpt lat="29.863138201380576" lon="-6.153705300402956"><ele>520.0</ele><time>2026-03-23T12:01:04.844Z</time></trkpt><trkpt lat="29.863038075117103" lon="-6.1537990626565175"><ele>520.0</ele><time>2026-03-23T12:01:05.844Z</time></trkpt><trkpt lat="29.862956311037742" lon="-6.1538993212940705"><ele>520.0</ele><time>2026-03-23T12:01:06.844Z</time></trkpt><trkpt lat="29.862883431978066" lon="-6.154012681867714"><ele>520.0</ele><time>2026-03-23T12:01:07.844Z</time></trkpt><trkpt lat="29.862806936981123" lon="-6.154133423171345"><ele>519.0</ele><time>2026-03-23T12:01:08.844Z</time></trkpt><trkpt lat="29.862723273678803" lon="-6.154248993903186"><ele>518.0</ele><time>2026-03-23T12:01:09.844Z</time></trkpt><trkpt lat="29.8626444308209" lon="-6.154369128018688"><ele>517.0</ele><time>2026-03-23T12:01:10.844Z</time></trkpt><trkpt lat="29.862559047364755" lon="-6.1544892521331915"><ele>516.0</ele><time>2026-03-23T12:01:11.844Z</time></trkpt><trkpt lat="29.86248734479312" lon="-6.15460550666139"><ele>515.3333333333334</ele><time>2026-03-23T12:01:12.844Z</time></trkpt><trkpt lat="29.86241442990296" lon="-6.154737849216327"><ele>514.6666666666667</ele><time>2026-03-23T12:01:13.844Z</time></trkpt><trkpt lat="29.862330536178604" lon="-6.154891261044988"><ele>514.0</ele><time>2026-03-23T12:01:14.844Z</time></trkpt><trkpt lat="29.862223502669625" lon="-6.155072286678228"><ele>512.75</ele><time>2026-03-23T12:01:15.844Z</time></trkpt><trkpt lat="29.862123299430138" lon="-6.155245812760166"><ele>511.5</ele><time>2026-03-23T12:01:16.844Z</time></trkpt><trkpt lat="29.862060436631804" lon="-6.155388364731611"><ele>510.25</ele><time>2026-03-23T12:01:17.844Z</time></trkpt><trkpt lat="29.862017387338902" lon="-6.155519630006598"><ele>509.0</ele><time>2026-03-23T12:01:18.844Z</time></trkpt><trkpt lat="29.861988818628713" lon="-6.155653489805057"><ele>509.25</ele><time>2026-03-23T12:01:19.844Z</time></trkpt><trkpt lat="29.861962140135656" lon="-6.155792116148264"><ele>509.5</ele><time>2026-03-23T12:01:20.844Z</time></trkpt><trkpt lat="29.861945703902755" lon="-6.155949100349557"><ele>509.75</ele><time>2026-03-23T12:01:21.844Z</time></trkpt><trkpt lat="29.86194124143518" lon="-6.156101307497415"><ele>510.0</ele><time>2026-03-23T12:01:22.844Z</time></trkpt><trkpt lat="29.86195623283339" lon="-6.156265684526242"><ele>510.0</ele><time>2026-03-23T12:01:23.844Z</time></trkpt><trkpt lat="29.861999274085715" lon="-6.156430363960952"><ele>510.0</ele><time>2026-03-23T12:01:24.844Z</time></trkpt><trkpt lat="29.862033474862404" lon="-6.15658125574158"><ele>510.0</ele><time>2026-03-23T12:01:25.844Z</time></trkpt><trkpt lat="29.862055826934462" lon="-6.156733306977462"><ele>510.0</ele><time>2026-03-23T12:01:26.844Z</time></trkpt><trkpt lat="29.862058068500218" lon="-6.156889485258254"><ele>509.33333333333337</ele><time>2026-03-23T12:01:27.844Z</time></trkpt><trkpt lat="29.862031142540822" lon="-6.157048490513133"><ele>508.6666666666667</ele><time>2026-03-23T12:01:28.844Z</time></trkpt><trkpt lat="29.861976676851864" lon="-6.157213175501585"><ele>508.0</ele><time>2026-03-23T12:01:29.844Z</time></trkpt><trkpt lat="29.861902048577385" lon="-6.1573826305157064"><ele>508.0</ele><time>2026-03-23T12:01:30.844Z</time></trkpt><trkpt lat="29.86183514298088" lon="-6.157552752472838"><ele>508.0</ele><time>2026-03-23T12:01:31.844Z</time></trkpt><trkpt lat="29.86178336736917" lon="-6.157730985225942"><ele>508.0</ele><time>2026-03-23T12:01:32.844Z</time></trkpt><trkpt lat="29.861744835866105" lon="-6.1579006152680416"><ele>508.0</ele><time>2026-03-23T12:01:33.844Z</time></trkpt><trkpt lat="29.86170117060953" lon="-6.158062592821666"><ele>508.0</ele><time>2026-03-23T12:01:34.844Z</time></trkpt><trkpt lat="29.861653957297968" lon="-6.158231984504848"><ele>508.0</ele><time>2026-03-23T12:01:35.844Z</time></trkpt><trkpt lat="29.861607196995962" lon="-6.158382636462328"><ele>508.0</ele><time>2026-03-23T12:01:36.844Z</time></trkpt><trkpt lat="29.86155863671205" lon="-6.158557585952853"><ele>507.6666666666667</ele><time>2026-03-23T12:01:37.844Z</time></trkpt><trkpt lat="29.861502448467363" lon="-6.158740436874446"><ele>507.33333333333337</ele><time>2026-03-23T12:01:38.844Z</time></trkpt><trkpt lat="29.861442913886037" lon="-6.15892520402646"><ele>507.0</ele><time>2026-03-23T12:01:39.844Z</time></trkpt><trkpt lat="29.861396305695195" lon="-6.159102432782464"><ele>507.0</ele><time>2026-03-23T12:01:40.844Z</time></trkpt><trkpt lat="29.86134974968861" lon="-6.159252172029405"><ele>507.0</ele><time>2026-03-23T12:01:41.844Z</time></trkpt><trkpt lat="29.861286655920082" lon="-6.159386881353087"><ele>507.0</ele><time>2026-03-23T12:01:42.844Z</time></trkpt><trkpt lat="29.861191720121766" lon="-6.15948633368879"><ele>507.0</ele><time>2026-03-23T12:01:43.844Z</time></trkpt><trkpt lat="29.86107750878651" lon="-6.159569460594215"><ele>507.66666666666663</ele><time>2026-03-23T12:01:44.844Z</time></trkpt><trkpt lat="29.860945976516273" lon="-6.159645459842243"><ele>508.3333333333333</ele><time>2026-03-23T12:01:45.844Z</time></trkpt><trkpt lat="29.860796056355095" lon="-6.1597154972142105"><ele>509.0</ele><time>2026-03-23T12:01:46.844Z</time></trkpt><trkpt lat="29.860660334184654" lon="-6.159797883787422"><ele>508.25</ele><time>2026-03-23T12:01:47.844Z</time></trkpt><trkpt lat="29.860522998931042" lon="-6.1598855117715825"><ele>507.5</ele><time>2026-03-23T12:01:48.844Z</time></trkpt><trkpt lat="29.8604054941532" lon="-6.159950412097831"><ele>506.75</ele><time>2026-03-23T12:01:49.844Z</time></trkpt><trkpt lat="29.860278922761314" lon="-6.160010122437191"><ele>506.0</ele><time>2026-03-23T12:01:50.844Z</time></trkpt><trkpt lat="29.860149171732903" lon="-6.16005087313984"><ele>505.75</ele><time>2026-03-23T12:01:51.844Z</time></trkpt><trkpt lat="29.8600140976003" lon="-6.160094254340631"><ele>505.5</ele><time>2026-03-23T12:01:52.844Z</time></trkpt><trkpt lat="29.85983734386637" lon="-6.1600379526983815"><ele>505.25</ele><time>2026-03-23T12:01:53.844Z</time></trkpt><trkpt lat="29.85972994750573" lon="-6.160099876106583"><ele>505.0</ele><time>2026-03-23T12:01:54.844Z</time></trkpt><trkpt lat="29.859633302374583" lon="-6.16015535735353"><ele>505.0</ele><time>2026-03-23T12:01:55.844Z</time></trkpt><trkpt lat="29.859535664510936" lon="-6.160211351384422"><ele>505.0</ele><time>2026-03-23T12:01:56.844Z</time></trkpt><trkpt lat="29.8594318890548" lon="-6.160252971248974"><ele>505.0</ele><time>2026-03-23T12:01:57.844Z</time></trkpt><trkpt lat="29.85932539233805" lon="-6.160285713855986"><ele>505.0</ele><time>2026-03-23T12:01:58.844Z</time></trkpt><trkpt lat="29.859240984747874" lon="-6.160311665129537"><ele>505.0</ele><time>2026-03-23T12:01:59.844Z</time></trkpt><trkpt lat="29.859166824407517" lon="-6.160334465860853"><ele>505.00000000000006</ele><time>2026-03-23T12:02:00.844Z</time></trkpt><trkpt lat="29.85910211806308" lon="-6.160354418100848"><ele>505.0</ele><time>2026-03-23T12:02:01.844Z</time></trkpt><trkpt lat="29.85902832211764" lon="-6.160394299433255"><ele>505.0</ele><time>2026-03-23T12:02:02.844Z</time></trkpt><trkpt lat="29.85893296061987" lon="-6.160413661601744"><ele>505.0</ele><time>2026-03-23T12:02:03.844Z</time></trkpt><trkpt lat="29.85885005318773" lon="-6.1604463971290935"><ele>505.00000000000006</ele><time>2026-03-23T12:02:04.844Z</time></trkpt><trkpt lat="29.85875447146616" lon="-6.160462445389186"><ele>505.0</ele><time>2026-03-23T12:02:05.844Z</time></trkpt><trkpt lat="29.85866999353635" lon="-6.160488626504298"><ele>505.0</ele><time>2026-03-23T12:02:06.844Z</time></trkpt><trkpt lat="29.858577016774337" lon="-6.160517441536557"><ele>505.0</ele><time>2026-03-23T12:02:07.844Z</time></trkpt><trkpt lat="29.858469396890296" lon="-6.160550997831212"><ele>505.0</ele><time>2026-03-23T12:02:08.844Z</time></trkpt><trkpt lat="29.858340591981563" lon="-6.1605963359719595"><ele>505.0</ele><time>2026-03-23T12:02:09.844Z</time></trkpt><trkpt lat="29.858197745239952" lon="-6.160646616721124"><ele>505.0</ele><time>2026-03-23T12:02:10.844Z</time></trkpt><trkpt lat="29.858047260907913" lon="-6.16070031433575"><ele>505.0</ele><time>2026-03-23T12:02:11.844Z</time></trkpt><trkpt lat="29.85788974687705" lon="-6.160755897302025"><ele>505.0</ele><time>2026-03-23T12:02:12.844Z</time></trkpt><trkpt lat="29.85773952488242" lon="-6.160809353358743"><ele>504.6666666666667</ele><time>2026-03-23T12:02:13.844Z</time></trkpt><trkpt lat="29.85759242494248" lon="-6.160861698434848"><ele>504.33333333333337</ele><time>2026-03-23T12:02:14.844Z</time></trkpt><trkpt lat="29.857457183968233" lon="-6.160909395146009"><ele>504.0</ele><time>2026-03-23T12:02:15.844Z</time></trkpt><trkpt lat="29.857377247507205" lon="-6.161081213101605"><ele>504.0</ele><time>2026-03-23T12:02:16.844Z</time></trkpt><trkpt lat="29.857244755814133" lon="-6.16109006442354"><ele>504.0</ele><time>2026-03-23T12:02:17.844Z</time></trkpt><trkpt lat="29.85709032791666" lon="-6.161121657926163"><ele>504.0</ele><time>2026-03-23T12:02:18.844Z</time></trkpt><trkpt lat="29.856926908763377" lon="-6.161180238651786"><ele>504.33333333333337</ele><time>2026-03-23T12:02:19.844Z</time></trkpt><trkpt lat="29.856761146285127" lon="-6.161269179125267"><ele>504.6666666666667</ele><time>2026-03-23T12:02:20.844Z</time></trkpt><trkpt lat="29.856585010855472" lon="-6.161388105500495"><ele>505.0</ele><time>2026-03-23T12:02:21.844Z</time></trkpt><trkpt lat="29.856412920426" lon="-6.161531986215578"><ele>503.33333333333337</ele><time>2026-03-23T12:02:22.844Z</time></trkpt><trkpt lat="29.856247381121385" lon="-6.161690693156525"><ele>501.66666666666663</ele><time>2026-03-23T12:02:23.844Z</time></trkpt><trkpt lat="29.856104543519578" lon="-6.161817933498346"><ele>500.0</ele><time>2026-03-23T12:02:24.844Z</time></trkpt><trkpt lat="29.855974621756516" lon="-6.161899818238034"><ele>499.66666666666663</ele><time>2026-03-23T12:02:25.844Z</time></trkpt><trkpt lat="29.85582426754508" lon="-6.161955733032534"><ele>499.33333333333337</ele><time>2026-03-23T12:02:26.844Z</time></trkpt><trkpt lat="29.85564599095249" lon="-6.161996332172216"><ele>499.0</ele><time>2026-03-23T12:02:27.844Z</time></trkpt><trkpt lat="29.855480360692894" lon="-6.162050850299815"><ele>499.0</ele><time>2026-03-23T12:02:28.844Z</time></trkpt><trkpt lat="29.85535071696991" lon="-6.162097656018611"><ele>499.0</ele><time>2026-03-23T12:02:29.844Z</time></trkpt><trkpt lat="29.855240686475874" lon="-6.1621460191357365"><ele>499.0</ele><time>2026-03-23T12:02:30.844Z</time></trkpt><trkpt lat="29.85514472035265" lon="-6.162197818944243"><ele>499.0</ele><time>2026-03-23T12:02:31.844Z</time></trkpt><trkpt lat="29.855054394166977" lon="-6.162283005575224"><ele>499.33333333333337</ele><time>2026-03-23T12:02:32.844Z</time></trkpt><trkpt lat="29.854982679378242" lon="-6.1624247864151425"><ele>499.66666666666663</ele><time>2026-03-23T12:02:33.843Z</time></trkpt><trkpt lat="29.85490692834477" lon="-6.162584827477952"><ele>500.0</ele><time>2026-03-23T12:02:34.843Z</time></trkpt><trkpt lat="29.854824648107765" lon="-6.162773370899152"><ele>500.0</ele><time>2026-03-23T12:02:35.843Z</time></trkpt><trkpt lat="29.854752029157233" lon="-6.162979903670846"><ele>500.0</ele><time>2026-03-23T12:02:36.843Z</time></trkpt><trkpt lat="29.85469770411181" lon="-6.163151218202841"><ele>500.0</ele><time>2026-03-23T12:02:37.843Z</time></trkpt><trkpt lat="29.854658465974023" lon="-6.163295213852834"><ele>500.25</ele><time>2026-03-23T12:02:38.843Z</time></trkpt><trkpt lat="29.85462031015511" lon="-6.163444837250036"><ele>500.5</ele><time>2026-03-23T12:02:39.843Z</time></trkpt><trkpt lat="29.854581407218664" lon="-6.163583976254057"><ele>500.75</ele><time>2026-03-23T12:02:40.843Z</time></trkpt><trkpt lat="29.85455403446937" lon="-6.16371426310591"><ele>501.0</ele><time>2026-03-23T12:02:41.843Z</time></trkpt><trkpt lat="29.854528461491103" lon="-6.163843169212059"><ele>501.0</ele><time>2026-03-23T12:02:42.843Z</time></trkpt><trkpt lat="29.854512132558977" lon="-6.163977993765248"><ele>501.0</ele><time>2026-03-23T12:02:43.843Z</time></trkpt><trkpt lat="29.85450020034906" lon="-6.16410936118901"><ele>501.0</ele><time>2026-03-23T12:02:44.843Z</time></trkpt><trkpt lat="29.854494400907573" lon="-6.164257910386129"><ele>501.0</ele><time>2026-03-23T12:02:45.843Z</time></trkpt><trkpt lat="29.85449444186848" lon="-6.1644045683829285"><ele>500.75</ele><time>2026-03-23T12:02:46.843Z</time></trkpt><trkpt lat="29.854502782254166" lon="-6.164565427699792"><ele>500.5</ele><time>2026-03-23T12:02:47.843Z</time></trkpt><trkpt lat="29.854515967560374" lon="-6.164730934399105"><ele>500.25</ele><time>2026-03-23T12:02:48.843Z</time></trkpt><trkpt lat="29.854564620062142" lon="-6.16487928159563"><ele>500.0</ele><time>2026-03-23T12:02:49.843Z</time></trkpt><trkpt lat="29.854586531464374" lon="-6.165005662185921"><ele>500.0</ele><time>2026-03-23T12:02:50.843Z</time></trkpt><trkpt lat="29.854607683003774" lon="-6.1651274437800465"><ele>500.0</ele><time>2026-03-23T12:02:51.843Z</time></trkpt><trkpt lat="29.854628582802047" lon="-6.16524935677348"><ele>500.0</ele><time>2026-03-23T12:02:52.843Z</time></trkpt><trkpt lat="29.85464901445427" lon="-6.165369534821989"><ele>500.0</ele><time>2026-03-23T12:02:53.843Z</time></trkpt><trkpt lat="29.854670396852512" lon="-6.16549530512496"><ele>500.0</ele><time>2026-03-23T12:02:54.843Z</time></trkpt><trkpt lat="29.854691301987646" lon="-6.165620894009911"><ele>499.66666666666663</ele><time>2026-03-23T12:02:55.843Z</time></trkpt><trkpt lat="29.854699486767228" lon="-6.165805597037608"><ele>499.33333333333337</ele><time>2026-03-23T12:02:56.843Z</time></trkpt><trkpt lat="29.854689676445187" lon="-6.165978579717195"><ele>499.0</ele><time>2026-03-23T12:02:57.843Z</time></trkpt><trkpt lat="29.85467900808453" lon="-6.166141588702982"><ele>499.0</ele><time>2026-03-23T12:02:58.843Z</time></trkpt><trkpt lat="29.854627259274405" lon="-6.166301616926358"><ele>499.0</ele><time>2026-03-23T12:02:59.843Z</time></trkpt><trkpt lat="29.854593608733172" lon="-6.16643209295578"><ele>499.0</ele><time>2026-03-23T12:03:00.843Z</time></trkpt><trkpt lat="29.85455057958076" lon="-6.166603729173382"><ele>499.0</ele><time>2026-03-23T12:03:01.843Z</time></trkpt><trkpt lat="29.854492293716568" lon="-6.166775492094514"><ele>498.33333333333337</ele><time>2026-03-23T12:03:02.843Z</time></trkpt><trkpt lat="29.854406817385964" lon="-6.1669523156517725"><ele>497.66666666666663</ele><time>2026-03-23T12:03:03.843Z</time></trkpt><trkpt lat="29.85432357943461" lon="-6.1671618738391"><ele>497.0</ele><time>2026-03-23T12:03:04.843Z</time></trkpt><trkpt lat="29.854230877885637" lon="-6.167398313653928"><ele>495.66666666666663</ele><time>2026-03-23T12:03:05.843Z</time></trkpt><trkpt lat="29.85419629056798" lon="-6.167618713338697"><ele>494.33333333333337</ele><time>2026-03-23T12:03:06.843Z</time></trkpt><trkpt lat="29.854158106717996" lon="-6.167857832838734"><ele>493.0</ele><time>2026-03-23T12:03:07.843Z</time></trkpt><trkpt lat="29.854124202331686" lon="-6.168072321855919"><ele>494.0</ele><time>2026-03-23T12:03:08.843Z</time></trkpt><trkpt lat="29.854095209576478" lon="-6.168252434321587"><ele>495.0</ele><time>2026-03-23T12:03:09.843Z</time></trkpt><trkpt lat="29.85406742539634" lon="-6.168425301671266"><ele>496.0</ele><time>2026-03-23T12:03:10.843Z</time></trkpt><trkpt lat="29.85404190922204" lon="-6.168587247134938"><ele>496.0</ele><time>2026-03-23T12:03:11.843Z</time></trkpt><trkpt lat="29.85402512018159" lon="-6.16878863149967"><ele>496.0</ele><time>2026-03-23T12:03:12.843Z</time></trkpt><trkpt lat="29.854011581219076" lon="-6.16898486876881"><ele>496.0</ele><time>2026-03-23T12:03:13.843Z</time></trkpt><trkpt lat="29.85399713532273" lon="-6.169194368948402"><ele>496.0</ele><time>2026-03-23T12:03:14.843Z</time></trkpt><trkpt lat="29.853961635589602" lon="-6.169363399275986"><ele>496.0</ele><time>2026-03-23T12:03:15.843Z</time></trkpt><trkpt lat="29.853918486653996" lon="-6.1695693469656545"><ele>496.0</ele><time>2026-03-23T12:03:16.843Z</time></trkpt><trkpt lat="29.853876706128617" lon="-6.169770277928917"><ele>495.33333333333337</ele><time>2026-03-23T12:03:17.843Z</time></trkpt><trkpt lat="29.85383625584699" lon="-6.169964452203356"><ele>494.66666666666663</ele><time>2026-03-23T12:03:18.843Z</time></trkpt><trkpt lat="29.853793732995122" lon="-6.170130783860344"><ele>494.0</ele><time>2026-03-23T12:03:19.843Z</time></trkpt><trkpt lat="29.85374906314496" lon="-6.170309419190269"><ele>494.0</ele><time>2026-03-23T12:03:20.843Z</time></trkpt><trkpt lat="29.853703963706234" lon="-6.170488548415259"><ele>494.0</ele><time>2026-03-23T12:03:21.843Z</time></trkpt><trkpt lat="29.853686237432917" lon="-6.170677958223068"><ele>494.0</ele><time>2026-03-23T12:03:22.843Z</time></trkpt><trkpt lat="29.853671308131553" lon="-6.170876377259839"><ele>493.3333333333333</ele><time>2026-03-23T12:03:23.843Z</time></trkpt><trkpt lat="29.85365257996868" lon="-6.170955217861573"><ele>492.66666666666663</ele><time>2026-03-23T12:03:24.843Z</time></trkpt><trkpt lat="29.85361314470599" lon="-6.171134217002247"><ele>492.0</ele><time>2026-03-23T12:03:25.843Z</time></trkpt><trkpt lat="29.854238499837244" lon="-6.17167247307981"><ele>491.66666666666663</ele><time>2026-03-23T12:03:26.843Z</time></trkpt><trkpt lat="29.854248301974486" lon="-6.171879505280282"><ele>491.3333333333333</ele><time>2026-03-23T12:03:27.843Z</time></trkpt><trkpt lat="29.854260171921595" lon="-6.172086445011361"><ele>491.0</ele><time>2026-03-23T12:03:28.843Z</time></trkpt><trkpt lat="29.854265276983554" lon="-6.172293670498115"><ele>491.66666666666663</ele><time>2026-03-23T12:03:29.843Z</time></trkpt><trkpt lat="29.854266066304863" lon="-6.17250402440951"><ele>492.33333333333337</ele><time>2026-03-23T12:03:30.843Z</time></trkpt><trkpt lat="29.854264775298684" lon="-6.172699569813766"><ele>493.0</ele><time>2026-03-23T12:03:31.843Z</time></trkpt><trkpt lat="29.85425144569697" lon="-6.172882063097991"><ele>493.0</ele><time>2026-03-23T12:03:32.843Z</time></trkpt><trkpt lat="29.85424426306163" lon="-6.173061417678485"><ele>493.0</ele><time>2026-03-23T12:03:33.843Z</time></trkpt><trkpt lat="29.854238196769256" lon="-6.173243450771318"><ele>493.0</ele><time>2026-03-23T12:03:34.843Z</time></trkpt><trkpt lat="29.854234015912237" lon="-6.173434697856731"><ele>493.0</ele><time>2026-03-23T12:03:35.843Z</time></trkpt><trkpt lat="29.854230595839983" lon="-6.173643286593884"><ele>493.0</ele><time>2026-03-23T12:03:36.843Z</time></trkpt><trkpt lat="29.85423828289713" lon="-6.173833353457908"><ele>493.0</ele><time>2026-03-23T12:03:37.843Z</time></trkpt><trkpt lat="29.854248420766506" lon="-6.174004308429707"><ele>494.0</ele><time>2026-03-23T12:03:38.843Z</time></trkpt><trkpt lat="29.85425637120518" lon="-6.174171770315702"><ele>495.0</ele><time>2026-03-23T12:03:39.843Z</time></trkpt><trkpt lat="29.854249343251002" lon="-6.174334288208616"><ele>496.0</ele><time>2026-03-23T12:03:40.843Z</time></trkpt><trkpt lat="29.854219173951485" lon="-6.174524644034456"><ele>496.0</ele><time>2026-03-23T12:03:41.843Z</time></trkpt><trkpt lat="29.854165070422848" lon="-6.174731868514346"><ele>496.0</ele><time>2026-03-23T12:03:42.843Z</time></trkpt><trkpt lat="29.854122883137585" lon="-6.1749328461575175"><ele>496.0</ele><time>2026-03-23T12:03:43.843Z</time></trkpt><trkpt lat="29.854087008458116" lon="-6.175119191779762"><ele>494.6666666666667</ele><time>2026-03-23T12:03:44.843Z</time></trkpt><trkpt lat="29.85403044437093" lon="-6.175290983662179"><ele>493.33333333333337</ele><time>2026-03-23T12:03:45.843Z</time></trkpt><trkpt lat="29.853962166188563" lon="-6.175478906514224"><ele>492.0</ele><time>2026-03-23T12:03:46.842Z</time></trkpt><trkpt lat="29.85390144880807" lon="-6.175644206144642"><ele>491.0</ele><time>2026-03-23T12:03:47.842Z</time></trkpt><trkpt lat="29.853830644654096" lon="-6.175802571496328"><ele>490.0</ele><time>2026-03-23T12:03:48.843Z</time></trkpt><trkpt lat="29.853746627161602" lon="-6.175955108397576"><ele>489.0</ele><time>2026-03-23T12:03:49.843Z</time></trkpt><trkpt lat="29.853664358349416" lon="-6.176116903633706"><ele>489.0</ele><time>2026-03-23T12:03:50.843Z</time></trkpt><trkpt lat="29.85360473619349" lon="-6.176291914965373"><ele>489.0</ele><time>2026-03-23T12:03:51.843Z</time></trkpt><trkpt lat="29.853560165887885" lon="-6.176474660563052"><ele>489.0</ele><time>2026-03-23T12:03:52.843Z</time></trkpt><trkpt lat="29.853521555730392" lon="-6.176668218548517"><ele>488.66666666666663</ele><time>2026-03-23T12:03:53.843Z</time></trkpt><trkpt lat="29.8534882186619" lon="-6.176856269379483"><ele>488.3333333333333</ele><time>2026-03-23T12:03:54.842Z</time></trkpt><trkpt lat="29.853459708219322" lon="-6.1770273734849805"><ele>488.0</ele><time>2026-03-23T12:03:55.843Z</time></trkpt><trkpt lat="29.85343604414521" lon="-6.177202430496423"><ele>488.5</ele><time>2026-03-23T12:03:56.843Z</time></trkpt><trkpt lat="29.85341482088014" lon="-6.177366582842735"><ele>489.0</ele><time>2026-03-23T12:03:57.843Z</time></trkpt><trkpt lat="29.853400458434177" lon="-6.177527531651191"><ele>489.5</ele><time>2026-03-23T12:03:58.843Z</time></trkpt><trkpt lat="29.85339495119651" lon="-6.177679238546775"><ele>490.0</ele><time>2026-03-23T12:03:59.843Z</time></trkpt><trkpt lat="29.85338829696219" lon="-6.177830903032061"><ele>490.0</ele><time>2026-03-23T12:04:00.843Z</time></trkpt><trkpt lat="29.853383334710372" lon="-6.177998105350546"><ele>490.0</ele><time>2026-03-23T12:04:01.843Z</time></trkpt><trkpt lat="29.85338217187447" lon="-6.178164974373787"><ele>490.0</ele><time>2026-03-23T12:04:02.843Z</time></trkpt><trkpt lat="29.85338628876088" lon="-6.1783420978152686"><ele>490.0</ele><time>2026-03-23T12:04:03.843Z</time></trkpt><trkpt lat="29.853385369972578" lon="-6.178510965277289"><ele>489.5</ele><time>2026-03-23T12:04:04.843Z</time></trkpt><trkpt lat="29.853386346942784" lon="-6.1786768144537145"><ele>489.0</ele><time>2026-03-23T12:04:05.843Z</time></trkpt><trkpt lat="29.85338336888152" lon="-6.178837852668275"><ele>488.5</ele><time>2026-03-23T12:04:06.843Z</time></trkpt><trkpt lat="29.85338167301395" lon="-6.1790088999015556"><ele>488.0</ele><time>2026-03-23T12:04:07.843Z</time></trkpt><trkpt lat="29.853380539723336" lon="-6.179174130764809"><ele>487.75</ele><time>2026-03-23T12:04:08.843Z</time></trkpt><trkpt lat="29.853380540225164" lon="-6.179331678221793"><ele>487.5</ele><time>2026-03-23T12:04:09.843Z</time></trkpt><trkpt lat="29.85337473328015" lon="-6.1794990712778635"><ele>487.25</ele><time>2026-03-23T12:04:10.843Z</time></trkpt><trkpt lat="29.853365908718306" lon="-6.179671051972669"><ele>487.0</ele><time>2026-03-23T12:04:11.843Z</time></trkpt><trkpt lat="29.853354037857894" lon="-6.179834621474952"><ele>487.5</ele><time>2026-03-23T12:04:12.843Z</time></trkpt><trkpt lat="29.853333678090188" lon="-6.17999307594669"><ele>488.0</ele><time>2026-03-23T12:04:13.843Z</time></trkpt><trkpt lat="29.853314083792114" lon="-6.1801511752449505"><ele>488.5</ele><time>2026-03-23T12:04:14.843Z</time></trkpt><trkpt lat="29.853297130266018" lon="-6.180314324179134"><ele>489.0</ele><time>2026-03-23T12:04:15.843Z</time></trkpt><trkpt lat="29.85328372644562" lon="-6.180477886457524"><ele>489.0</ele><time>2026-03-23T12:04:16.843Z</time></trkpt><trkpt lat="29.85327095622312" lon="-6.180660117609556"><ele>489.0</ele><time>2026-03-23T12:04:17.843Z</time></trkpt><trkpt lat="29.853249652657063" lon="-6.180863195022098"><ele>489.0</ele><time>2026-03-23T12:04:18.843Z</time></trkpt><trkpt lat="29.85321322755462" lon="-6.181088092846213"><ele>489.5</ele><time>2026-03-23T12:04:19.843Z</time></trkpt><trkpt lat="29.853181179699103" lon="-6.181348655150352"><ele>490.0</ele><time>2026-03-23T12:04:20.843Z</time></trkpt><trkpt lat="29.853157829060294" lon="-6.181602553962381"><ele>490.6666666666667</ele><time>2026-03-23T12:04:21.843Z</time></trkpt><trkpt lat="29.853140854827572" lon="-6.181833696103605"><ele>491.33333333333337</ele><time>2026-03-23T12:04:22.843Z</time></trkpt><trkpt lat="29.853110818418635" lon="-6.182061727427408"><ele>492.0</ele><time>2026-03-23T12:04:23.843Z</time></trkpt><trkpt lat="29.853085715652796" lon="-6.182285578171182"><ele>490.33333333333337</ele><time>2026-03-23T12:04:24.843Z</time></trkpt><trkpt lat="29.853067548540963" lon="-6.182481992845826"><ele>488.6666666666667</ele><time>2026-03-23T12:04:25.843Z</time></trkpt><trkpt lat="29.853052984350068" lon="-6.182674725309071"><ele>487.0</ele><time>2026-03-23T12:04:26.843Z</time></trkpt><trkpt lat="29.853034492471494" lon="-6.182870416296574"><ele>487.0</ele><time>2026-03-23T12:04:27.843Z</time></trkpt><trkpt lat="29.853015871133813" lon="-6.183070042238607"><ele>487.0</ele><time>2026-03-23T12:04:28.843Z</time></trkpt><trkpt lat="29.85299442470984" lon="-6.183278292014705"><ele>487.0</ele><time>2026-03-23T12:04:29.843Z</time></trkpt><trkpt lat="29.852972679647518" lon="-6.183485855741689"><ele>487.0</ele><time>2026-03-23T12:04:30.843Z</time></trkpt><trkpt lat="29.852951691690166" lon="-6.183702341506664"><ele>487.0</ele><time>2026-03-23T12:04:31.843Z</time></trkpt><trkpt lat="29.852933383667455" lon="-6.1839110976843745"><ele>487.0</ele><time>2026-03-23T12:04:32.843Z</time></trkpt><trkpt lat="29.85292590871228" lon="-6.184083065325491"><ele>487.0</ele><time>2026-03-23T12:04:33.843Z</time></trkpt><trkpt lat="29.852924976794508" lon="-6.184238103258707"><ele>487.0</ele><time>2026-03-23T12:04:34.843Z</time></trkpt><trkpt lat="29.852928839635286" lon="-6.184379768921178"><ele>487.0</ele><time>2026-03-23T12:04:35.843Z</time></trkpt><trkpt lat="29.85293304388267" lon="-6.184519259250076"><ele>487.0</ele><time>2026-03-23T12:04:36.843Z</time></trkpt><trkpt lat="29.852925096050697" lon="-6.1846490771121365"><ele>487.0</ele><time>2026-03-23T12:04:37.843Z</time></trkpt><trkpt lat="29.85290424364365" lon="-6.184783820171087"><ele>487.0</ele><time>2026-03-23T12:04:38.843Z</time></trkpt><trkpt lat="29.8528697208014" lon="-6.1849315605004715"><ele>487.0</ele><time>2026-03-23T12:04:39.843Z</time></trkpt><trkpt lat="29.852835789126946" lon="-6.185085381533987"><ele>487.0</ele><time>2026-03-23T12:04:40.843Z</time></trkpt><trkpt lat="29.85280795224435" lon="-6.185224462547793"><ele>487.0</ele><time>2026-03-23T12:04:41.843Z</time></trkpt><trkpt lat="29.852785049484243" lon="-6.185358141449909"><ele>487.0</ele><time>2026-03-23T12:04:42.843Z</time></trkpt><trkpt lat="29.85276342154799" lon="-6.185492395953562"><ele>487.0</ele><time>2026-03-23T12:04:43.843Z</time></trkpt><trkpt lat="29.852747212599677" lon="-6.185631807060759"><ele>487.0</ele><time>2026-03-23T12:04:44.843Z</time></trkpt><trkpt lat="29.852737246716952" lon="-6.185780903322487"><ele>487.25</ele><time>2026-03-23T12:04:45.843Z</time></trkpt><trkpt lat="29.852731307372764" lon="-6.1859449438430305"><ele>487.5</ele><time>2026-03-23T12:04:46.842Z</time></trkpt><trkpt lat="29.85273629566826" lon="-6.186112129391612"><ele>487.75</ele><time>2026-03-23T12:04:47.842Z</time></trkpt><trkpt lat="29.852743002038533" lon="-6.186275902228165"><ele>488.0</ele><time>2026-03-23T12:04:48.842Z</time></trkpt><trkpt lat="29.85274934565996" lon="-6.186434253270724"><ele>488.0</ele><time>2026-03-23T12:04:49.842Z</time></trkpt><trkpt lat="29.8527552126145" lon="-6.186581214879445"><ele>488.0</ele><time>2026-03-23T12:04:50.842Z</time></trkpt><trkpt lat="29.85275965929683" lon="-6.186723737740517"><ele>488.0</ele><time>2026-03-23T12:04:51.842Z</time></trkpt><trkpt lat="29.85275263410653" lon="-6.1868648383692015"><ele>488.0</ele><time>2026-03-23T12:04:52.842Z</time></trkpt><trkpt lat="29.852728574647013" lon="-6.187014108662545"><ele>488.0</ele><time>2026-03-23T12:04:53.842Z</time></trkpt><trkpt lat="29.852697866998835" lon="-6.187157152007744"><ele>488.0</ele><time>2026-03-23T12:04:54.842Z</time></trkpt><trkpt lat="29.852657942831154" lon="-6.187324895426204"><ele>488.0</ele><time>2026-03-23T12:04:55.842Z</time></trkpt><trkpt lat="29.85260524973994" lon="-6.187509815745102"><ele>488.0</ele><time>2026-03-23T12:04:56.842Z</time></trkpt><trkpt lat="29.852556675797953" lon="-6.187701018561223"><ele>487.75</ele><time>2026-03-23T12:04:57.842Z</time></trkpt><trkpt lat="29.85251087236988" lon="-6.187878917079443"><ele>487.5</ele><time>2026-03-23T12:04:58.842Z</time></trkpt><trkpt lat="29.852476102559017" lon="-6.188040182228052"><ele>487.25</ele><time>2026-03-23T12:04:59.842Z</time></trkpt><trkpt lat="29.852447045650006" lon="-6.188199137708315"><ele>487.0</ele><time>2026-03-23T12:05:00.842Z</time></trkpt><trkpt lat="29.85241653435359" lon="-6.188341721742402"><ele>487.5</ele><time>2026-03-23T12:05:01.842Z</time></trkpt><trkpt lat="29.852379492153336" lon="-6.1884845162007105"><ele>488.0</ele><time>2026-03-23T12:05:02.842Z</time></trkpt><trkpt lat="29.85233700117725" lon="-6.188647213777183"><ele>488.5</ele><time>2026-03-23T12:05:03.842Z</time></trkpt><trkpt lat="29.85229184250212" lon="-6.188806523519171"><ele>489.0</ele><time>2026-03-23T12:05:04.842Z</time></trkpt><trkpt lat="29.852238493353088" lon="-6.1889635308297395"><ele>489.0</ele><time>2026-03-23T12:05:05.842Z</time></trkpt><trkpt lat="29.85217943555763" lon="-6.189146586461523"><ele>489.0</ele><time>2026-03-23T12:05:06.842Z</time></trkpt><trkpt lat="29.852110714072353" lon="-6.189310947378031"><ele>489.0</ele><time>2026-03-23T12:05:07.842Z</time></trkpt><trkpt lat="29.85204784593353" lon="-6.1894359494400835"><ele>489.0</ele><time>2026-03-23T12:05:08.842Z</time></trkpt><trkpt lat="29.85199166414129" lon="-6.189529590127926"><ele>489.0</ele><time>2026-03-23T12:05:09.842Z</time></trkpt><trkpt lat="29.851952754194663" lon="-6.1896198069843615"><ele>489.0</ele><time>2026-03-23T12:05:10.842Z</time></trkpt><trkpt lat="29.851919585286396" lon="-6.1896902927387"><ele>489.0</ele><time>2026-03-23T12:05:11.842Z</time></trkpt><trkpt lat="29.85188016251161" lon="-6.189767638501958"><ele>489.0</ele><time>2026-03-23T12:05:13.842Z</time></trkpt><trkpt lat="29.851864871700677" lon="-6.189842777982394"><ele>489.0</ele><time>2026-03-23T12:06:47.84Z</time></trkpt><trkpt lat="29.85183717611342" lon="-6.1899187273793626"><ele>489.3333333333333</ele><time>2026-03-23T12:06:48.84Z</time></trkpt><trkpt lat="29.851820670233124" lon="-6.18999214246965"><ele>489.66666666666663</ele><time>2026-03-23T12:06:49.84Z</time></trkpt><trkpt lat="29.85180790109333" lon="-6.190069403450197"><ele>490.0</ele><time>2026-03-23T12:06:50.84Z</time></trkpt><trkpt lat="29.85179270333238" lon="-6.190143467203094"><ele>490.3333333333333</ele><time>2026-03-23T12:06:51.84Z</time></trkpt><trkpt lat="29.851797921377475" lon="-6.19027709347853"><ele>490.66666666666663</ele><time>2026-03-23T12:06:53.84Z</time></trkpt><trkpt lat="29.851801127947414" lon="-6.190353022856303"><ele>491.0</ele><time>2026-03-23T12:06:54.84Z</time></trkpt><trkpt lat="29.85181807613926" lon="-6.190433237205906"><ele>490.99999999999994</ele><time>2026-03-23T12:06:55.84Z</time></trkpt><trkpt lat="29.85184288836356" lon="-6.190521921798515"><ele>491.0</ele><time>2026-03-23T12:06:56.84Z</time></trkpt><trkpt lat="29.851872907498404" lon="-6.190611217347802"><ele>491.0</ele><time>2026-03-23T12:06:57.84Z</time></trkpt><trkpt lat="29.851901783647953" lon="-6.190695998066382"><ele>491.0</ele><time>2026-03-23T12:06:58.84Z</time></trkpt><trkpt lat="29.851929032289966" lon="-6.190792274756761"><ele>490.99999999999994</ele><time>2026-03-23T12:06:59.84Z</time></trkpt><trkpt lat="29.851958909565393" lon="-6.190902306147907"><ele>491.0</ele><time>2026-03-23T12:07:00.84Z</time></trkpt><trkpt lat="29.851984260831873" lon="-6.191024817823575"><ele>491.0</ele><time>2026-03-23T12:07:01.84Z</time></trkpt><trkpt lat="29.851991026498624" lon="-6.191180504408788"><ele>491.0</ele><time>2026-03-23T12:07:02.84Z</time></trkpt><trkpt lat="29.8519549116235" lon="-6.191355047461047"><ele>491.0</ele><time>2026-03-23T12:07:03.84Z</time></trkpt><trkpt lat="29.85190184667695" lon="-6.191482734734158"><ele>491.0</ele><time>2026-03-23T12:07:04.84Z</time></trkpt><trkpt lat="29.85186469085475" lon="-6.191576566268576"><ele>490.8333333333333</ele><time>2026-03-23T12:07:05.84Z</time></trkpt><trkpt lat="29.851843604646355" lon="-6.191665580399217"><ele>490.66666666666663</ele><time>2026-03-23T12:07:06.84Z</time></trkpt><trkpt lat="29.851831769751822" lon="-6.1917833505837905"><ele>490.5</ele><time>2026-03-23T12:07:08.84Z</time></trkpt><trkpt lat="29.8518251802258" lon="-6.191918443066466"><ele>490.33333333333337</ele><time>2026-03-23T12:07:10.84Z</time></trkpt><trkpt lat="29.85182634739555" lon="-6.1919952478788"><ele>490.1666666666667</ele><time>2026-03-23T12:07:11.84Z</time></trkpt><trkpt lat="29.851822941826626" lon="-6.192070374117015"><ele>490.0</ele><time>2026-03-23T12:07:12.84Z</time></trkpt><trkpt lat="29.851831289954557" lon="-6.192159941345365"><ele>490.00000000000006</ele><time>2026-03-23T12:07:13.84Z</time></trkpt><trkpt lat="29.851838329106975" lon="-6.192248950218966"><ele>490.0</ele><time>2026-03-23T12:07:14.84Z</time></trkpt><trkpt lat="29.851843882411238" lon="-6.192346285910049"><ele>490.0</ele><time>2026-03-23T12:07:15.84Z</time></trkpt><trkpt lat="29.851840965830338" lon="-6.19243469907504"><ele>490.0</ele><time>2026-03-23T12:07:16.84Z</time></trkpt><trkpt lat="29.85183141893734" lon="-6.192529671525625"><ele>490.00000000000006</ele><time>2026-03-23T12:07:17.84Z</time></trkpt><trkpt lat="29.85180252759037" lon="-6.192627516216207"><ele>490.0</ele><time>2026-03-23T12:07:18.84Z</time></trkpt><trkpt lat="29.851774740834838" lon="-6.192748385918921"><ele>489.2</ele><time>2026-03-23T12:07:19.84Z</time></trkpt><trkpt lat="29.851740064759035" lon="-6.192865586644126"><ele>488.4</ele><time>2026-03-23T12:07:20.84Z</time></trkpt><trkpt lat="29.8517279557522" lon="-6.192975405472273"><ele>487.6</ele><time>2026-03-23T12:07:21.84Z</time></trkpt><trkpt lat="29.85172406596777" lon="-6.1930867402665335"><ele>486.8</ele><time>2026-03-23T12:07:22.84Z</time></trkpt><trkpt lat="29.85171169640043" lon="-6.1931987129313635"><ele>486.0</ele><time>2026-03-23T12:07:23.84Z</time></trkpt><trkpt lat="29.851679620886657" lon="-6.193313142495143"><ele>485.25</ele><time>2026-03-23T12:07:24.84Z</time></trkpt><trkpt lat="29.851632946260082" lon="-6.193432362189296"><ele>484.5</ele><time>2026-03-23T12:07:25.84Z</time></trkpt><trkpt lat="29.85157751712459" lon="-6.193537118595981"><ele>483.75</ele><time>2026-03-23T12:07:26.84Z</time></trkpt><trkpt lat="29.8515058651931" lon="-6.1936534792796945"><ele>483.0</ele><time>2026-03-23T12:07:27.84Z</time></trkpt><trkpt lat="29.85142406638246" lon="-6.1937544228100005"><ele>483.0</ele><time>2026-03-23T12:07:28.84Z</time></trkpt><trkpt lat="29.851357773001098" lon="-6.193858619515757"><ele>482.99999999999994</ele><time>2026-03-23T12:07:29.84Z</time></trkpt><trkpt lat="29.85130693864707" lon="-6.1939718573052245"><ele>482.99999999999994</ele><time>2026-03-23T12:07:30.84Z</time></trkpt><trkpt lat="29.851259581575725" lon="-6.19407928663731"><ele>483.0</ele><time>2026-03-23T12:07:31.84Z</time></trkpt><trkpt lat="29.851213488259425" lon="-6.194190000114555"><ele>483.0</ele><time>2026-03-23T12:07:32.84Z</time></trkpt><trkpt lat="29.851164471193666" lon="-6.1942871277917995"><ele>483.4</ele><time>2026-03-23T12:07:33.84Z</time></trkpt><trkpt lat="29.851109777334226" lon="-6.19438213650831"><ele>483.79999999999995</ele><time>2026-03-23T12:07:34.84Z</time></trkpt><trkpt lat="29.851055788264688" lon="-6.194478956498821"><ele>484.2</ele><time>2026-03-23T12:07:35.84Z</time></trkpt><trkpt lat="29.851011490779698" lon="-6.194598742003652"><ele>484.6</ele><time>2026-03-23T12:07:36.84Z</time></trkpt><trkpt lat="29.85095976547938" lon="-6.194688305742383"><ele>485.0</ele><time>2026-03-23T12:07:37.84Z</time></trkpt><trkpt lat="29.850892861886795" lon="-6.194793621589412"><ele>485.8</ele><time>2026-03-23T12:07:38.84Z</time></trkpt><trkpt lat="29.850822874838887" lon="-6.19488437576573"><ele>486.6</ele><time>2026-03-23T12:07:39.84Z</time></trkpt><trkpt lat="29.850765586616948" lon="-6.194993296297657"><ele>487.4</ele><time>2026-03-23T12:07:40.84Z</time></trkpt><trkpt lat="29.850708784593543" lon="-6.195105320707609"><ele>488.2</ele><time>2026-03-23T12:07:41.84Z</time></trkpt><trkpt lat="29.850665181899487" lon="-6.195224592384422"><ele>489.0</ele><time>2026-03-23T12:07:42.84Z</time></trkpt><trkpt lat="29.850603245270236" lon="-6.195363169105264"><ele>489.0</ele><time>2026-03-23T12:07:43.84Z</time></trkpt><trkpt lat="29.850539522418963" lon="-6.195469240344594"><ele>489.0</ele><time>2026-03-23T12:07:44.84Z</time></trkpt><trkpt lat="29.850463130020643" lon="-6.195559289577376"><ele>489.0</ele><time>2026-03-23T12:07:45.84Z</time></trkpt><trkpt lat="29.850377536764025" lon="-6.195645996750296"><ele>489.0</ele><time>2026-03-23T12:07:46.84Z</time></trkpt><trkpt lat="29.85028567405053" lon="-6.195731476422363"><ele>489.0</ele><time>2026-03-23T12:07:47.84Z</time></trkpt><trkpt lat="29.850188775370892" lon="-6.195813617066309"><ele>489.0</ele><time>2026-03-23T12:07:48.84Z</time></trkpt><trkpt lat="29.850095232877123" lon="-6.195894475594468"><ele>489.0</ele><time>2026-03-23T12:07:49.84Z</time></trkpt><trkpt lat="29.85001195494587" lon="-6.195962344483343"><ele>489.0</ele><time>2026-03-23T12:07:50.84Z</time></trkpt><trkpt lat="29.849928461367334" lon="-6.196030517019835"><ele>489.0</ele><time>2026-03-23T12:07:51.84Z</time></trkpt><trkpt lat="29.84983767810602" lon="-6.196095803972699"><ele>489.0</ele><time>2026-03-23T12:07:52.84Z</time></trkpt><trkpt lat="29.84973521379895" lon="-6.196171535590356"><ele>489.0</ele><time>2026-03-23T12:07:53.84Z</time></trkpt><trkpt lat="29.849651279742094" lon="-6.196241884045429"><ele>489.0</ele><time>2026-03-23T12:07:54.839Z</time></trkpt><trkpt lat="29.849576531313545" lon="-6.196329605536848"><ele>489.0</ele><time>2026-03-23T12:07:55.839Z</time></trkpt><trkpt lat="29.849507061956384" lon="-6.196430591903839"><ele>489.0</ele><time>2026-03-23T12:07:56.839Z</time></trkpt><trkpt lat="29.849435631996684" lon="-6.196523368559544"><ele>488.4</ele><time>2026-03-23T12:07:57.84Z</time></trkpt><trkpt lat="29.849374038396718" lon="-6.196603923530476"><ele>487.79999999999995</ele><time>2026-03-23T12:07:58.839Z</time></trkpt><trkpt lat="29.84930188230322" lon="-6.196683755281022"><ele>487.20000000000005</ele><time>2026-03-23T12:07:59.839Z</time></trkpt><trkpt lat="29.849237684426335" lon="-6.196767235681629"><ele>486.6</ele><time>2026-03-23T12:08:00.839Z</time></trkpt><trkpt lat="29.84916345794908" lon="-6.1968587621883415"><ele>486.0</ele><time>2026-03-23T12:08:01.839Z</time></trkpt><trkpt lat="29.84908699621898" lon="-6.196952101915564"><ele>485.75</ele><time>2026-03-23T12:08:02.839Z</time></trkpt><trkpt lat="29.84899880905192" lon="-6.197060970226269"><ele>485.5</ele><time>2026-03-23T12:08:03.839Z</time></trkpt><trkpt lat="29.84891517563834" lon="-6.197154373256617"><ele>485.25</ele><time>2026-03-23T12:08:04.839Z</time></trkpt><trkpt lat="29.84881614784194" lon="-6.197246271624076"><ele>485.0</ele><time>2026-03-23T12:08:05.839Z</time></trkpt><trkpt lat="29.848728160905104" lon="-6.197324540572167"><ele>484.8</ele><time>2026-03-23T12:08:06.84Z</time></trkpt><trkpt lat="29.848648407494935" lon="-6.19740441212097"><ele>484.6</ele><time>2026-03-23T12:08:07.84Z</time></trkpt><trkpt lat="29.84859261102695" lon="-6.197481095899633"><ele>484.4</ele><time>2026-03-23T12:08:08.84Z</time></trkpt><trkpt lat="29.848548630746578" lon="-6.197566058146612"><ele>484.2</ele><time>2026-03-23T12:08:09.84Z</time></trkpt><trkpt lat="29.848495540262387" lon="-6.197668429703614"><ele>484.0</ele><time>2026-03-23T12:08:10.84Z</time></trkpt><trkpt lat="29.848427385026223" lon="-6.197784925092714"><ele>484.0</ele><time>2026-03-23T12:08:11.84Z</time></trkpt><trkpt lat="29.848359416709442" lon="-6.19791435467561"><ele>484.0</ele><time>2026-03-23T12:08:12.84Z</time></trkpt><trkpt lat="29.848313181999014" lon="-6.198035474635452"><ele>484.0</ele><time>2026-03-23T12:08:13.84Z</time></trkpt><trkpt lat="29.848268635813366" lon="-6.198134493937253"><ele>484.0</ele><time>2026-03-23T12:08:14.84Z</time></trkpt><trkpt lat="29.848233824747986" lon="-6.198246298259142"><ele>484.0</ele><time>2026-03-23T12:08:15.84Z</time></trkpt><trkpt lat="29.848203029528513" lon="-6.198338074246241"><ele>484.00000000000006</ele><time>2026-03-23T12:08:16.84Z</time></trkpt><trkpt lat="29.848169769350918" lon="-6.198435679835092"><ele>484.0</ele><time>2026-03-23T12:08:17.839Z</time></trkpt><trkpt lat="29.848147430195397" lon="-6.198527082115823"><ele>484.0</ele><time>2026-03-23T12:08:18.839Z</time></trkpt><trkpt lat="29.848138332395003" lon="-6.1986237368521895"><ele>484.0</ele><time>2026-03-23T12:08:19.839Z</time></trkpt><trkpt lat="29.848143799663664" lon="-6.198705136054528"><ele>484.00000000000006</ele><time>2026-03-23T12:08:20.839Z</time></trkpt><trkpt lat="29.848151128823787" lon="-6.1988008511377215"><ele>484.0</ele><time>2026-03-23T12:08:21.839Z</time></trkpt><trkpt lat="29.848161732884872" lon="-6.1988937023557495"><ele>484.0</ele><time>2026-03-23T12:08:22.839Z</time></trkpt><trkpt lat="29.848165947924308" lon="-6.198982166513306"><ele>484.0</ele><time>2026-03-23T12:08:23.839Z</time></trkpt><trkpt lat="29.848165061830475" lon="-6.199077384782404"><ele>484.0</ele><time>2026-03-23T12:08:24.839Z</time></trkpt><trkpt lat="29.84815394334294" lon="-6.199172767714895"><ele>484.0</ele><time>2026-03-23T12:08:25.839Z</time></trkpt><trkpt lat="29.848136029637526" lon="-6.199276261758442"><ele>484.0</ele><time>2026-03-23T12:08:26.839Z</time></trkpt><trkpt lat="29.848092167944273" lon="-6.199410598763053"><ele>484.2</ele><time>2026-03-23T12:08:27.839Z</time></trkpt><trkpt lat="29.848038805616657" lon="-6.199523003869498"><ele>484.4</ele><time>2026-03-23T12:08:28.839Z</time></trkpt><trkpt lat="29.84801962305795" lon="-6.199627005233721"><ele>484.6</ele><time>2026-03-23T12:08:29.839Z</time></trkpt><trkpt lat="29.848019215651554" lon="-6.199751348802069"><ele>484.8</ele><time>2026-03-23T12:08:30.839Z</time></trkpt><trkpt lat="29.848018180219746" lon="-6.1999024511315595"><ele>485.0</ele><time>2026-03-23T12:08:31.839Z</time></trkpt><trkpt lat="29.848019341383868" lon="-6.200052591611737"><ele>485.0</ele><time>2026-03-23T12:08:32.839Z</time></trkpt><trkpt lat="29.848017736221735" lon="-6.200171165549859"><ele>485.0</ele><time>2026-03-23T12:08:33.839Z</time></trkpt><trkpt lat="29.848036550332885" lon="-6.200287309249797"><ele>485.0</ele><time>2026-03-23T12:08:34.839Z</time></trkpt><trkpt lat="29.848073943228655" lon="-6.200397672737121"><ele>485.0</ele><time>2026-03-23T12:08:35.839Z</time></trkpt><trkpt lat="29.848094740847564" lon="-6.20052057064239"><ele>485.0</ele><time>2026-03-23T12:08:36.839Z</time></trkpt><trkpt lat="29.84810887764405" lon="-6.200635363416771"><ele>484.4</ele><time>2026-03-23T12:08:37.839Z</time></trkpt><trkpt lat="29.848128985079814" lon="-6.20076135848509"><ele>483.8</ele><time>2026-03-23T12:08:38.839Z</time></trkpt><trkpt lat="29.848154700328845" lon="-6.200885430181754"><ele>483.20000000000005</ele><time>2026-03-23T12:08:39.839Z</time></trkpt><trkpt lat="29.848178946596498" lon="-6.201001301188103"><ele>482.6</ele><time>2026-03-23T12:08:40.839Z</time></trkpt><trkpt lat="29.84818433096629" lon="-6.201108686471441"><ele>482.0</ele><time>2026-03-23T12:08:41.839Z</time></trkpt><trkpt lat="29.84817813772252" lon="-6.20121831724824"><ele>482.0</ele><time>2026-03-23T12:08:42.839Z</time></trkpt><trkpt lat="29.848125145791517" lon="-6.201331848998814"><ele>482.00000000000006</ele><time>2026-03-23T12:08:43.839Z</time></trkpt><trkpt lat="29.848057386161045" lon="-6.201453316859866"><ele>482.00000000000006</ele><time>2026-03-23T12:08:44.839Z</time></trkpt><trkpt lat="29.847998409051716" lon="-6.201546195841639"><ele>482.0</ele><time>2026-03-23T12:08:45.839Z</time></trkpt><trkpt lat="29.84795222968942" lon="-6.201623146662317"><ele>482.0</ele><time>2026-03-23T12:08:46.839Z</time></trkpt><trkpt lat="29.847914140468976" lon="-6.201708584076654"><ele>482.16666666666663</ele><time>2026-03-23T12:08:47.839Z</time></trkpt><trkpt lat="29.847859137723013" lon="-6.201764817966051"><ele>482.3333333333333</ele><time>2026-03-23T12:08:48.839Z</time></trkpt><trkpt lat="29.84778641964873" lon="-6.201842323142226"><ele>482.5</ele><time>2026-03-23T12:08:50.839Z</time></trkpt><trkpt lat="29.847738122005143" lon="-6.201900388391964"><ele>482.66666666666663</ele><time>2026-03-23T12:08:52.839Z</time></trkpt><trkpt lat="29.84775792985672" lon="-6.201976843073878"><ele>482.8333333333333</ele><time>2026-03-23T12:08:54.839Z</time></trkpt><trkpt lat="29.847852432210512" lon="-6.201990482806089"><ele>483.0</ele><time>2026-03-23T12:08:56.839Z</time></trkpt><trkpt lat="29.847890738574893" lon="-6.201875581678469"><ele>483.0</ele><time>2026-03-23T12:08:58.839Z</time></trkpt><trkpt lat="29.84780438467948" lon="-6.201819784915589"><ele>483.0</ele><time>2026-03-23T12:09:00.839Z</time></trkpt><trkpt lat="29.847732761494964" lon="-6.201920209439883"><ele>483.0</ele><time>2026-03-23T12:09:02.839Z</time></trkpt><trkpt lat="29.84769863290931" lon="-6.201991896342204"><ele>483.0</ele><time>2026-03-23T12:09:03.839Z</time></trkpt><trkpt lat="29.847662512111057" lon="-6.202069056908387"><ele>483.0</ele><time>2026-03-23T12:09:05.839Z</time></trkpt><trkpt lat="29.84761571191789" lon="-6.202148761701081"><ele>483.0</ele><time>2026-03-23T12:09:14.84Z</time></trkpt><trkpt lat="29.847526067472295" lon="-6.202252994629208"><ele>483.79999999999995</ele><time>2026-03-23T12:09:16.841Z</time></trkpt><trkpt lat="29.84747243890105" lon="-6.202355338854119"><ele>484.59999999999997</ele><time>2026-03-23T12:09:17.841Z</time></trkpt><trkpt lat="29.847436455842907" lon="-6.20246806345173"><ele>485.40000000000003</ele><time>2026-03-23T12:09:18.842Z</time></trkpt><trkpt lat="29.847391628908948" lon="-6.202553842649445"><ele>486.20000000000005</ele><time>2026-03-23T12:09:19.842Z</time></trkpt><trkpt lat="29.84733988987662" lon="-6.202633078268842"><ele>487.0</ele><time>2026-03-23T12:09:20.842Z</time></trkpt><trkpt lat="29.84727237502962" lon="-6.202710307858277"><ele>487.0</ele><time>2026-03-23T12:09:21.842Z</time></trkpt><trkpt lat="29.847189688233502" lon="-6.202772689091275"><ele>487.00000000000006</ele><time>2026-03-23T12:09:22.843Z</time></trkpt><trkpt lat="29.847111583055877" lon="-6.202845593298447"><ele>487.00000000000006</ele><time>2026-03-23T12:09:23.843Z</time></trkpt><trkpt lat="29.84703656141772" lon="-6.202927183203839"><ele>487.0</ele><time>2026-03-23T12:09:24.843Z</time></trkpt><trkpt lat="29.84696378180857" lon="-6.2030004959598735"><ele>487.0</ele><time>2026-03-23T12:09:25.843Z</time></trkpt><trkpt lat="29.84689187747393" lon="-6.203052412394278"><ele>487.00000000000006</ele><time>2026-03-23T12:09:26.843Z</time></trkpt><trkpt lat="29.84683074586888" lon="-6.203090352033375"><ele>487.0</ele><time>2026-03-23T12:09:27.844Z</time></trkpt><trkpt lat="29.846773657206413" lon="-6.203125682718652"><ele>487.0</ele><time>2026-03-23T12:09:28.844Z</time></trkpt><trkpt lat="29.846709773497036" lon="-6.203166563034382"><ele>487.0</ele><time>2026-03-23T12:09:29.844Z</time></trkpt><trkpt lat="29.846647798509988" lon="-6.203214134718057"><ele>487.00000000000006</ele><time>2026-03-23T12:09:30.844Z</time></trkpt><trkpt lat="29.846566604796386" lon="-6.203278198207534"><ele>487.0</ele><time>2026-03-23T12:09:31.844Z</time></trkpt><trkpt lat="29.846488708208856" lon="-6.203336088123098"><ele>487.00000000000006</ele><time>2026-03-23T12:09:32.844Z</time></trkpt><trkpt lat="29.846426782150466" lon="-6.203379580496325"><ele>487.0</ele><time>2026-03-23T12:09:33.844Z</time></trkpt><trkpt lat="29.846374153756468" lon="-6.203423006175686"><ele>487.0</ele><time>2026-03-23T12:09:34.844Z</time></trkpt><trkpt lat="29.846285062452925" lon="-6.2035010115859155"><ele>487.0</ele><time>2026-03-23T12:09:36.845Z</time></trkpt><trkpt lat="29.846224457337797" lon="-6.203542733352167"><ele>487.00000000000006</ele><time>2026-03-23T12:09:37.845Z</time></trkpt><trkpt lat="29.846164883506546" lon="-6.203583321729235"><ele>487.0</ele><time>2026-03-23T12:09:38.845Z</time></trkpt><trkpt lat="29.846062286951" lon="-6.203681254809487"><ele>487.00000000000006</ele><time>2026-03-23T12:09:40.845Z</time></trkpt><trkpt lat="29.846033003053098" lon="-6.203752724564237"><ele>487.0</ele><time>2026-03-23T12:09:41.845Z</time></trkpt><trkpt lat="29.846002589478605" lon="-6.203866670248954"><ele>487.0</ele><time>2026-03-23T12:09:43.845Z</time></trkpt><trkpt lat="29.84597062585015" lon="-6.203944918031454"><ele>487.0</ele><time>2026-03-23T12:09:45.845Z</time></trkpt><trkpt lat="29.845907655597458" lon="-6.204020274867822"><ele>487.00000000000006</ele><time>2026-03-23T12:09:47.845Z</time></trkpt><trkpt lat="29.84580746965036" lon="-6.2040527273201045"><ele>487.0</ele><time>2026-03-23T12:09:49.845Z</time></trkpt><trkpt lat="29.845692754739787" lon="-6.2040430455750775"><ele>486.6</ele><time>2026-03-23T12:09:51.845Z</time></trkpt><trkpt lat="29.845634147634144" lon="-6.2040160291950075"><ele>486.20000000000005</ele><time>2026-03-23T12:09:52.845Z</time></trkpt><trkpt lat="29.845516903767862" lon="-6.203968254922337"><ele>485.8</ele><time>2026-03-23T12:09:54.846Z</time></trkpt><trkpt lat="29.845373643612078" lon="-6.203920003515657"><ele>485.4</ele><time>2026-03-23T12:09:56.846Z</time></trkpt><trkpt lat="29.84527704597259" lon="-6.203894872015787"><ele>485.0</ele><time>2026-03-23T12:09:57.846Z</time></trkpt><trkpt lat="29.8451677101296" lon="-6.203855860179896"><ele>484.0</ele><time>2026-03-23T12:09:58.846Z</time></trkpt><trkpt lat="29.84506612703112" lon="-6.203799555235562"><ele>483.0</ele><time>2026-03-23T12:09:59.846Z</time></trkpt><trkpt lat="29.844966232163227" lon="-6.203723501568882"><ele>482.0</ele><time>2026-03-23T12:10:00.845Z</time></trkpt><trkpt lat="29.84485821808183" lon="-6.2036107349300575"><ele>481.0</ele><time>2026-03-23T12:10:01.845Z</time></trkpt><trkpt lat="29.84475587039617" lon="-6.2034925311163285"><ele>481.0</ele><time>2026-03-23T12:10:02.845Z</time></trkpt><trkpt lat="29.844668401057866" lon="-6.2033568341010055"><ele>481.0</ele><time>2026-03-23T12:10:03.845Z</time></trkpt><trkpt lat="29.844600168354035" lon="-6.203240548483112"><ele>481.0</ele><time>2026-03-23T12:10:04.845Z</time></trkpt><trkpt lat="29.844564729802947" lon="-6.203152376551551"><ele>481.0</ele><time>2026-03-23T12:10:05.845Z</time></trkpt><trkpt lat="29.844544021777754" lon="-6.203076053051392"><ele>481.0</ele><time>2026-03-23T12:10:06.845Z</time></trkpt><trkpt lat="29.844571507888315" lon="-6.202970838872665"><ele>484.0</ele><time>2026-03-23T12:10:08.845Z</time></trkpt><trkpt lat="29.844622214188032" lon="-6.20292276848421"><ele>484.0</ele><time>2026-03-23T12:10:10.845Z</time></trkpt><trkpt lat="29.84470477971574" lon="-6.2028920019048"><ele>484.0</ele><time>2026-03-23T12:10:33.844Z</time></trkpt><trkpt lat="29.84469698688443" lon="-6.202964899429005"><ele>484.0</ele><time>2026-03-23T12:12:50.843Z</time></trkpt><trkpt lat="29.84474914312932" lon="-6.203023575835562"><ele>484.0</ele><time>2026-03-23T12:13:24.843Z</time></trkpt><trkpt lat="29.844808599800217" lon="-6.203068033886346"><ele>484.0</ele><time>2026-03-23T12:13:39.843Z</time></trkpt></trkseg><trkseg><trkpt lat="29.844725341695437" lon="-6.2031835434346325"><ele>481.00000000000006</ele><time>2026-03-24T08:24:09Z</time></trkpt><trkpt lat="29.84477117183166" lon="-6.203247653040968"><ele>481.0</ele><time>2026-03-24T08:24:59Z</time></trkpt><trkpt lat="29.844845117769545" lon="-6.20332082541774"><ele>481.0</ele><time>2026-03-24T08:25:01Z</time></trkpt><trkpt lat="29.84488467472296" lon="-6.203396058817096"><ele>481.0</ele><time>2026-03-24T08:25:03Z</time></trkpt><trkpt lat="29.84495815904555" lon="-6.203498773406316"><ele>481.00000000000006</ele><time>2026-03-24T08:25:05Z</time></trkpt><trkpt lat="29.845021229304763" lon="-6.203563172278975"><ele>481.0</ele><time>2026-03-24T08:25:07Z</time></trkpt><trkpt lat="29.845121653144723" lon="-6.203632596794691"><ele>481.50000000000006</ele><time>2026-03-24T08:25:09Z</time></trkpt><trkpt lat="29.845176572298605" lon="-6.203669291166724"><ele>482.0</ele><time>2026-03-24T08:25:10Z</time></trkpt><trkpt lat="29.845246717503215" lon="-6.203702069624381"><ele>482.5</ele><time>2026-03-24T08:25:11Z</time></trkpt><trkpt lat="29.84532252608496" lon="-6.203737663482123"><ele>483.0</ele><time>2026-03-24T08:25:12Z</time></trkpt><trkpt lat="29.845399336456058" lon="-6.203779623117213"><ele>483.50000000000006</ele><time>2026-03-24T08:25:13Z</time></trkpt><trkpt lat="29.84547341261606" lon="-6.203821134984823"><ele>484.0</ele><time>2026-03-24T08:25:14Z</time></trkpt><trkpt lat="29.845587154420663" lon="-6.203876054119152"><ele>484.00000000000006</ele><time>2026-03-24T08:25:16Z</time></trkpt><trkpt lat="29.845711672241702" lon="-6.203904597170209"><ele>484.0</ele><time>2026-03-24T08:25:18Z</time></trkpt><trkpt lat="29.845779148180608" lon="-6.203932860019725"><ele>484.0</ele><time>2026-03-24T08:25:19Z</time></trkpt><trkpt lat="29.845843275165905" lon="-6.203967977050961"><ele>484.0</ele><time>2026-03-24T08:25:20Z</time></trkpt><trkpt lat="29.84590489935463" lon="-6.204021844742762"><ele>484.00000000000006</ele><time>2026-03-24T08:25:21Z</time></trkpt><trkpt lat="29.845975693880604" lon="-6.204077262521006"><ele>484.0</ele><time>2026-03-24T08:25:22Z</time></trkpt><trkpt lat="29.84604682481211" lon="-6.2041271361526995"><ele>484.0</ele><time>2026-03-24T08:25:23Z</time></trkpt><trkpt lat="29.846121254488356" lon="-6.204185997425094"><ele>484.0</ele><time>2026-03-24T08:25:24Z</time></trkpt><trkpt lat="29.84618982725859" lon="-6.204229929678466"><ele>484.0</ele><time>2026-03-24T08:25:25Z</time></trkpt><trkpt lat="29.84632112050566" lon="-6.204253141305138"><ele>484.0</ele><time>2026-03-24T08:25:27Z</time></trkpt><trkpt lat="29.846393298536196" lon="-6.204264762312922"><ele>484.0</ele><time>2026-03-24T08:25:28Z</time></trkpt><trkpt lat="29.84646974193833" lon="-6.20428496690846"><ele>484.00000000000006</ele><time>2026-03-24T08:25:29Z</time></trkpt><trkpt lat="29.84654758588123" lon="-6.20430101802452"><ele>484.0</ele><time>2026-03-24T08:25:30Z</time></trkpt><trkpt lat="29.84663477917576" lon="-6.204349424260681"><ele>484.0</ele><time>2026-03-24T08:25:31Z</time></trkpt><trkpt lat="29.846718102622052" lon="-6.204399304616247"><ele>484.0</ele><time>2026-03-24T08:25:32Z</time></trkpt><trkpt lat="29.846796986963287" lon="-6.204447970764261"><ele>484.00000000000006</ele><time>2026-03-24T08:25:33Z</time></trkpt><trkpt lat="29.84686375550013" lon="-6.204498352605521"><ele>484.0</ele><time>2026-03-24T08:25:34Z</time></trkpt><trkpt lat="29.846931629996273" lon="-6.204551359113643"><ele>484.6666666666667</ele><time>2026-03-24T08:25:35Z</time></trkpt><trkpt lat="29.846990097313657" lon="-6.204611103806961"><ele>485.33333333333337</ele><time>2026-03-24T08:25:36Z</time></trkpt><trkpt lat="29.84703970694685" lon="-6.204665590964323"><ele>486.0</ele><time>2026-03-24T08:25:37Z</time></trkpt><trkpt lat="29.84709271076773" lon="-6.2047143227933885"><ele>486.66666666666663</ele><time>2026-03-24T08:25:38Z</time></trkpt><trkpt lat="29.847181668885764" lon="-6.204794874908184"><ele>487.3333333333333</ele><time>2026-03-24T08:25:40Z</time></trkpt><trkpt lat="29.8472330933825" lon="-6.2048503388284955"><ele>488.0</ele><time>2026-03-24T08:25:42Z</time></trkpt><trkpt lat="29.847278738627033" lon="-6.204960479993882"><ele>488.25</ele><time>2026-03-24T08:25:45Z</time></trkpt><trkpt lat="29.84732704622289" lon="-6.205074352317844"><ele>488.5</ele><time>2026-03-24T08:25:47Z</time></trkpt><trkpt lat="29.847390338692946" lon="-6.20517723158201"><ele>488.75</ele><time>2026-03-24T08:25:49Z</time></trkpt><trkpt lat="29.847475234591528" lon="-6.2052738902513935"><ele>489.0</ele><time>2026-03-24T08:25:51Z</time></trkpt><trkpt lat="29.847572057838367" lon="-6.205371659016316"><ele>489.0</ele><time>2026-03-24T08:25:53Z</time></trkpt><trkpt lat="29.847621849672063" lon="-6.205421226397275"><ele>489.0</ele><time>2026-03-24T08:25:54Z</time></trkpt><trkpt lat="29.847695080289256" lon="-6.205506551807795"><ele>489.0</ele><time>2026-03-24T08:25:56Z</time></trkpt><trkpt lat="29.847761418024337" lon="-6.205566905349059"><ele>489.0</ele><time>2026-03-24T08:25:58Z</time></trkpt><trkpt lat="29.84784803899057" lon="-6.205616094828343"><ele>489.0</ele><time>2026-03-24T08:26:00Z</time></trkpt><trkpt lat="29.847923463881617" lon="-6.205658425383206"><ele>489.0</ele><time>2026-03-24T08:26:02Z</time></trkpt><trkpt lat="29.848000944169343" lon="-6.205704883536777"><ele>488.8333333333333</ele><time>2026-03-24T08:26:04Z</time></trkpt><trkpt lat="29.848069490523212" lon="-6.205734479664893"><ele>488.66666666666663</ele><time>2026-03-24T08:26:06Z</time></trkpt><trkpt lat="29.848151513423634" lon="-6.205642956650844"><ele>488.5</ele><time>2026-03-24T08:26:16.001Z</time></trkpt><trkpt lat="29.848166622841543" lon="-6.205572074696081"><ele>488.3333333333333</ele><time>2026-03-24T08:26:17.001Z</time></trkpt><trkpt lat="29.848142019280697" lon="-6.205486846717473"><ele>488.16666666666663</ele><time>2026-03-24T08:26:19.001Z</time></trkpt><trkpt lat="29.848077930765715" lon="-6.2054639860631"><ele>488.0</ele><time>2026-03-24T08:26:21.001Z</time></trkpt><trkpt lat="29.848043034703057" lon="-6.205403390964123"><ele>487.66666666666663</ele><time>2026-03-24T08:26:24.001Z</time></trkpt><trkpt lat="29.848016089386093" lon="-6.205336709930308"><ele>487.3333333333333</ele><time>2026-03-24T08:27:44.001Z</time></trkpt><trkpt lat="29.848031276702" lon="-6.205199509970265"><ele>487.0</ele><time>2026-03-24T08:27:47.001Z</time></trkpt><trkpt lat="29.848031304646245" lon="-6.205079201735503"><ele>486.66666666666663</ele><time>2026-03-24T08:27:49.001Z</time></trkpt><trkpt lat="29.848015840271493" lon="-6.205008373730416"><ele>486.3333333333333</ele><time>2026-03-24T08:27:50.001Z</time></trkpt><trkpt lat="29.848005465667626" lon="-6.204921871194673"><ele>486.0</ele><time>2026-03-24T08:27:51.001Z</time></trkpt><trkpt lat="29.84799987354603" lon="-6.204824515188041"><ele>485.8333333333333</ele><time>2026-03-24T08:27:52.001Z</time></trkpt><trkpt lat="29.847997131487535" lon="-6.204735929330282"><ele>485.66666666666663</ele><time>2026-03-24T08:27:53.001Z</time></trkpt><trkpt lat="29.84800187728017" lon="-6.204650241254086"><ele>485.5</ele><time>2026-03-24T08:27:54.001Z</time></trkpt><trkpt lat="29.848010214914126" lon="-6.204559270316796"><ele>485.3333333333333</ele><time>2026-03-24T08:27:55.001Z</time></trkpt><trkpt lat="29.84801642895068" lon="-6.204463606149626"><ele>485.16666666666663</ele><time>2026-03-24T08:27:56.001Z</time></trkpt><trkpt lat="29.848026100206017" lon="-6.204357833044676"><ele>485.0</ele><time>2026-03-24T08:27:57.001Z</time></trkpt><trkpt lat="29.848029105009932" lon="-6.204263761950367"><ele>485.0</ele><time>2026-03-24T08:27:58.001Z</time></trkpt><trkpt lat="29.848033693362538" lon="-6.2041711515010975"><ele>485.0</ele><time>2026-03-24T08:27:59.001Z</time></trkpt><trkpt lat="29.848045405990195" lon="-6.204071957568256"><ele>485.0</ele><time>2026-03-24T08:28:00.001Z</time></trkpt><trkpt lat="29.84805858701707" lon="-6.203959408208022"><ele>485.0</ele><time>2026-03-24T08:28:01.001Z</time></trkpt><trkpt lat="29.848059964503662" lon="-6.203844339999965"><ele>485.0</ele><time>2026-03-24T08:28:02.001Z</time></trkpt><trkpt lat="29.848058021982997" lon="-6.203731596193295"><ele>485.4</ele><time>2026-03-24T08:28:03.001Z</time></trkpt><trkpt lat="29.848059850525566" lon="-6.203617594624179"><ele>485.8</ele><time>2026-03-24T08:28:04.001Z</time></trkpt><trkpt lat="29.84805868897225" lon="-6.203505635867886"><ele>486.20000000000005</ele><time>2026-03-24T08:28:05.001Z</time></trkpt><trkpt lat="29.848061459278725" lon="-6.2033908101329915"><ele>486.6</ele><time>2026-03-24T08:28:06.001Z</time></trkpt><trkpt lat="29.84806521362496" lon="-6.203282851941039"><ele>487.0</ele><time>2026-03-24T08:28:07.001Z</time></trkpt><trkpt lat="29.84806188323733" lon="-6.203173831775534"><ele>486.8</ele><time>2026-03-24T08:28:08.001Z</time></trkpt><trkpt lat="29.84805693319607" lon="-6.203058091480321"><ele>486.6</ele><time>2026-03-24T08:28:09.001Z</time></trkpt><trkpt lat="29.84804807305884" lon="-6.202934531603312"><ele>486.40000000000003</ele><time>2026-03-24T08:28:10.001Z</time></trkpt><trkpt lat="29.84804888675277" lon="-6.202798881745424"><ele>486.20000000000005</ele><time>2026-03-24T08:28:11.001Z</time></trkpt><trkpt lat="29.84805986404101" lon="-6.202669130689985"><ele>486.0</ele><time>2026-03-24T08:28:12.001Z</time></trkpt><trkpt lat="29.84808079707262" lon="-6.20255144351335"><ele>486.0</ele><time>2026-03-24T08:28:13.001Z</time></trkpt><trkpt lat="29.84809286588597" lon="-6.2024347458485085"><ele>486.0</ele><time>2026-03-24T08:28:14.001Z</time></trkpt><trkpt lat="29.848095616983933" lon="-6.2023225050459"><ele>486.0</ele><time>2026-03-24T08:28:15.001Z</time></trkpt><trkpt lat="29.848102944609128" lon="-6.202194056672867"><ele>486.0</ele><time>2026-03-24T08:28:16.001Z</time></trkpt><trkpt lat="29.848106271993853" lon="-6.202076923536201"><ele>486.0</ele><time>2026-03-24T08:28:17.001Z</time></trkpt><trkpt lat="29.848105500866808" lon="-6.201962833760269"><ele>485.4</ele><time>2026-03-24T08:28:18.001Z</time></trkpt><trkpt lat="29.848102942105882" lon="-6.201855041683985"><ele>484.8</ele><time>2026-03-24T08:28:19.001Z</time></trkpt><trkpt lat="29.84810373228802" lon="-6.2017343664931825"><ele>484.19999999999993</ele><time>2026-03-24T08:28:20.001Z</time></trkpt><trkpt lat="29.848097804837913" lon="-6.201621946574782"><ele>483.59999999999997</ele><time>2026-03-24T08:28:21.001Z</time></trkpt><trkpt lat="29.848103472269873" lon="-6.201502834587348"><ele>483.0</ele><time>2026-03-24T08:28:22.001Z</time></trkpt><trkpt lat="29.848104941084934" lon="-6.201395800608401"><ele>482.79999999999995</ele><time>2026-03-24T08:28:23.001Z</time></trkpt><trkpt lat="29.848122928339993" lon="-6.20126790110812"><ele>482.59999999999997</ele><time>2026-03-24T08:28:24.001Z</time></trkpt><trkpt lat="29.84813686152315" lon="-6.201140918649124"><ele>482.40000000000003</ele><time>2026-03-24T08:28:25.001Z</time></trkpt><trkpt lat="29.84814620280946" lon="-6.201013072885861"><ele>482.20000000000005</ele><time>2026-03-24T08:28:26.001Z</time></trkpt><trkpt lat="29.84813818887886" lon="-6.200898229722414"><ele>482.0</ele><time>2026-03-24T08:28:27.001Z</time></trkpt><trkpt lat="29.848112252060385" lon="-6.200772390452324"><ele>482.75</ele><time>2026-03-24T08:28:28.001Z</time></trkpt><trkpt lat="29.848088878980036" lon="-6.200634167953824"><ele>483.5</ele><time>2026-03-24T08:28:29.001Z</time></trkpt><trkpt lat="29.8480584934868" lon="-6.200493535621103"><ele>484.25</ele><time>2026-03-24T08:28:30.001Z</time></trkpt><trkpt lat="29.848040388841344" lon="-6.200368710776295"><ele>485.0</ele><time>2026-03-24T08:28:31.001Z</time></trkpt><trkpt lat="29.84802921740808" lon="-6.200258863742757"><ele>485.0</ele><time>2026-03-24T08:28:32.001Z</time></trkpt><trkpt lat="29.84802024548703" lon="-6.200159067399066"><ele>485.0</ele><time>2026-03-24T08:28:33.001Z</time></trkpt><trkpt lat="29.848010036461453" lon="-6.200072443075232"><ele>485.0</ele><time>2026-03-24T08:28:34.001Z</time></trkpt><trkpt lat="29.84801127561647" lon="-6.199953115684424"><ele>485.0</ele><time>2026-03-24T08:28:35.001Z</time></trkpt><trkpt lat="29.848019043780656" lon="-6.199813534539003"><ele>485.0</ele><time>2026-03-24T08:28:36.001Z</time></trkpt><trkpt lat="29.848023950255012" lon="-6.199677116206664"><ele>485.75</ele><time>2026-03-24T08:28:37.001Z</time></trkpt><trkpt lat="29.84803932581602" lon="-6.199540802340066"><ele>486.5</ele><time>2026-03-24T08:28:38.001Z</time></trkpt><trkpt lat="29.848063820820084" lon="-6.199398550755543"><ele>487.25</ele><time>2026-03-24T08:28:39.001Z</time></trkpt><trkpt lat="29.848102603291846" lon="-6.199257650441889"><ele>488.0</ele><time>2026-03-24T08:28:40.001Z</time></trkpt><trkpt lat="29.848141010598255" lon="-6.199117696075016"><ele>487.0</ele><time>2026-03-24T08:28:41.001Z</time></trkpt><trkpt lat="29.848161045463613" lon="-6.198965642595334"><ele>486.0</ele><time>2026-03-24T08:28:42.001Z</time></trkpt><trkpt lat="29.84814937239014" lon="-6.198808100090495"><ele>485.0</ele><time>2026-03-24T08:28:43.001Z</time></trkpt><trkpt lat="29.848127975070707" lon="-6.198639548803438"><ele>484.0</ele><time>2026-03-24T08:28:44.001Z</time></trkpt><trkpt lat="29.84813813361998" lon="-6.198484042469901"><ele>484.0</ele><time>2026-03-24T08:28:45.001Z</time></trkpt><trkpt lat="29.84816700098251" lon="-6.198344110621383"><ele>484.0</ele><time>2026-03-24T08:28:46.001Z</time></trkpt><trkpt lat="29.8482296745792" lon="-6.198213062752599"><ele>484.0</ele><time>2026-03-24T08:28:47.001Z</time></trkpt><trkpt lat="29.848295472043652" lon="-6.198074592311074"><ele>484.0</ele><time>2026-03-24T08:28:48.001Z</time></trkpt><trkpt lat="29.84834636903235" lon="-6.1979243860865"><ele>484.0</ele><time>2026-03-24T08:28:49.001Z</time></trkpt><trkpt lat="29.848397894375722" lon="-6.197779635679284"><ele>484.0</ele><time>2026-03-24T08:28:50.001Z</time></trkpt><trkpt lat="29.848453936045132" lon="-6.197648280081427"><ele>484.0</ele><time>2026-03-24T08:28:51.001Z</time></trkpt><trkpt lat="29.848510626769354" lon="-6.197533833851491"><ele>484.0</ele><time>2026-03-24T08:28:52.001Z</time></trkpt><trkpt lat="29.848586313995632" lon="-6.197432021744947"><ele>484.25</ele><time>2026-03-24T08:28:53.001Z</time></trkpt><trkpt lat="29.84867175371545" lon="-6.197334010819589"><ele>484.5</ele><time>2026-03-24T08:28:54.001Z</time></trkpt><trkpt lat="29.84875712458142" lon="-6.197246860703719"><ele>484.75</ele><time>2026-03-24T08:28:55.001Z</time></trkpt><trkpt lat="29.84884880875398" lon="-6.197165325988035"><ele>485.0</ele><time>2026-03-24T08:28:56.001Z</time></trkpt><trkpt lat="29.848946167930546" lon="-6.197073924685954"><ele>485.0</ele><time>2026-03-24T08:28:57.001Z</time></trkpt><trkpt lat="29.8490402768741" lon="-6.196961523813497"><ele>485.0</ele><time>2026-03-24T08:28:58.001Z</time></trkpt><trkpt lat="29.849120591443246" lon="-6.196847871148651"><ele>485.0</ele><time>2026-03-24T08:28:59.001Z</time></trkpt><trkpt lat="29.849202564901162" lon="-6.196739600212535"><ele>485.0</ele><time>2026-03-24T08:29:00.001Z</time></trkpt><trkpt lat="29.849296640697872" lon="-6.19663847001513"><ele>485.25</ele><time>2026-03-24T08:29:01.001Z</time></trkpt><trkpt lat="29.84938583329094" lon="-6.196538592730023"><ele>485.5</ele><time>2026-03-24T08:29:02.001Z</time></trkpt><trkpt lat="29.849470099432565" lon="-6.196432609103193"><ele>485.75</ele><time>2026-03-24T08:29:03.001Z</time></trkpt><trkpt lat="29.849547099905227" lon="-6.196324338745298"><ele>486.0</ele><time>2026-03-24T08:29:04.001Z</time></trkpt><trkpt lat="29.849616311648255" lon="-6.1962169006461965"><ele>486.75</ele><time>2026-03-24T08:29:05.001Z</time></trkpt><trkpt lat="29.849695010110388" lon="-6.196120514317653"><ele>487.5</ele><time>2026-03-24T08:29:06.001Z</time></trkpt><trkpt lat="29.84977579097407" lon="-6.19604508283035"><ele>488.25</ele><time>2026-03-24T08:29:07.001Z</time></trkpt><trkpt lat="29.849871636933585" lon="-6.19597660490549"><ele>489.0</ele><time>2026-03-24T08:29:08.001Z</time></trkpt><trkpt lat="29.849986346908654" lon="-6.195903047095534"><ele>489.0</ele><time>2026-03-24T08:29:09.001Z</time></trkpt><trkpt lat="29.850096265872253" lon="-6.195817262918666"><ele>489.0</ele><time>2026-03-24T08:29:10.001Z</time></trkpt><trkpt lat="29.850193706049115" lon="-6.195722010647969"><ele>489.0</ele><time>2026-03-24T08:29:11.001Z</time></trkpt><trkpt lat="29.850295774985756" lon="-6.195617325040697"><ele>489.0</ele><time>2026-03-24T08:29:12.001Z</time></trkpt><trkpt lat="29.85039283844261" lon="-6.195508553830051"><ele>489.0</ele><time>2026-03-24T08:29:13.001Z</time></trkpt><trkpt lat="29.850487944993137" lon="-6.195393884004619"><ele>489.0</ele><time>2026-03-24T08:29:14.001Z</time></trkpt><trkpt lat="29.850576956524577" lon="-6.195269270993973"><ele>489.0</ele><time>2026-03-24T08:29:15.001Z</time></trkpt><trkpt lat="29.850649061717675" lon="-6.195133676810066"><ele>489.0</ele><time>2026-03-24T08:29:16.001Z</time></trkpt><trkpt lat="29.850712441009126" lon="-6.194999287221819"><ele>489.0</ele><time>2026-03-24T08:29:17.001Z</time></trkpt><trkpt lat="29.850780734965635" lon="-6.194872769829829"><ele>489.0</ele><time>2026-03-24T08:29:18.001Z</time></trkpt><trkpt lat="29.850854424982618" lon="-6.194746623633145"><ele>489.0</ele><time>2026-03-24T08:29:19.001Z</time></trkpt><trkpt lat="29.850945967821396" lon="-6.194626803487873"><ele>489.0</ele><time>2026-03-24T08:29:20.001Z</time></trkpt><trkpt lat="29.851021296601555" lon="-6.194522275727203"><ele>488.2</ele><time>2026-03-24T08:29:21.001Z</time></trkpt><trkpt lat="29.851075631510305" lon="-6.194419786467573"><ele>487.4</ele><time>2026-03-24T08:29:22.001Z</time></trkpt><trkpt lat="29.851098120888093" lon="-6.194313055802699"><ele>486.6</ele><time>2026-03-24T08:29:23.001Z</time></trkpt><trkpt lat="29.85111695400021" lon="-6.194192916897632"><ele>485.8</ele><time>2026-03-24T08:29:24.001Z</time></trkpt><trkpt lat="29.851146727584265" lon="-6.194065822089482"><ele>485.0</ele><time>2026-03-24T08:29:25.001Z</time></trkpt><trkpt lat="29.85120368564524" lon="-6.1939360766273985"><ele>484.5</ele><time>2026-03-24T08:29:26.001Z</time></trkpt><trkpt lat="29.85129251180633" lon="-6.1937940001291185"><ele>484.0</ele><time>2026-03-24T08:29:27.001Z</time></trkpt><trkpt lat="29.851370840859275" lon="-6.193679990255674"><ele>483.5</ele><time>2026-03-24T08:29:28.001Z</time></trkpt><trkpt lat="29.851445075550465" lon="-6.193585539651994"><ele>483.0</ele><time>2026-03-24T08:29:29.001Z</time></trkpt><trkpt lat="29.85150882145471" lon="-6.193502090069088"><ele>483.0</ele><time>2026-03-24T08:29:30.001Z</time></trkpt><trkpt lat="29.851573023408818" lon="-6.193423664163626"><ele>482.99999999999994</ele><time>2026-03-24T08:29:31.001Z</time></trkpt><trkpt lat="29.85162723647719" lon="-6.193346739966142"><ele>482.99999999999994</ele><time>2026-03-24T08:29:32.001Z</time></trkpt><trkpt lat="29.85168929133615" lon="-6.1932765349343155"><ele>483.0</ele><time>2026-03-24T08:29:33.001Z</time></trkpt><trkpt lat="29.851766533474258" lon="-6.193206011228244"><ele>483.0</ele><time>2026-03-24T08:29:34.001Z</time></trkpt><trkpt lat="29.851843630840126" lon="-6.19312986440409"><ele>484.25</ele><time>2026-03-24T08:29:35.001Z</time></trkpt><trkpt lat="29.851935435218675" lon="-6.193047840580547"><ele>485.5</ele><time>2026-03-24T08:29:36.001Z</time></trkpt><trkpt lat="29.85203275529358" lon="-6.192951285200711"><ele>486.75</ele><time>2026-03-24T08:29:37.001Z</time></trkpt><trkpt lat="29.852128803144577" lon="-6.192846066791123"><ele>488.0</ele><time>2026-03-24T08:29:38.001Z</time></trkpt><trkpt lat="29.85221652176068" lon="-6.192741508236201"><ele>488.0</ele><time>2026-03-24T08:29:39.001Z</time></trkpt><trkpt lat="29.8522942214994" lon="-6.192632148825699"><ele>488.0</ele><time>2026-03-24T08:29:40.001Z</time></trkpt><trkpt lat="29.852374816141875" lon="-6.192521915732336"><ele>488.0</ele><time>2026-03-24T08:29:41.001Z</time></trkpt><trkpt lat="29.852461330285973" lon="-6.1924182220234"><ele>488.0</ele><time>2026-03-24T08:29:42.001Z</time></trkpt><trkpt lat="29.85254901885139" lon="-6.192313237991484"><ele>488.75</ele><time>2026-03-24T08:29:43.001Z</time></trkpt><trkpt lat="29.852637075534727" lon="-6.192203093694166"><ele>489.5</ele><time>2026-03-24T08:29:44.001Z</time></trkpt><trkpt lat="29.85271801799695" lon="-6.192100730932807"><ele>490.25</ele><time>2026-03-24T08:29:45.001Z</time></trkpt><trkpt lat="29.85280264796255" lon="-6.192012551044207"><ele>491.0</ele><time>2026-03-24T08:29:46.001Z</time></trkpt><trkpt lat="29.85289068881219" lon="-6.19192815166031"><ele>491.0</ele><time>2026-03-24T08:29:47.001Z</time></trkpt><trkpt lat="29.852980275639887" lon="-6.191840888637079"><ele>491.0</ele><time>2026-03-24T08:29:48.001Z</time></trkpt><trkpt lat="29.853070778944147" lon="-6.191752312583736"><ele>491.0</ele><time>2026-03-24T08:29:49.001Z</time></trkpt><trkpt lat="29.853151358231475" lon="-6.191660412376028"><ele>491.0</ele><time>2026-03-24T08:29:50.001Z</time></trkpt><trkpt lat="29.85323582508087" lon="-6.191566984284531"><ele>490.25</ele><time>2026-03-24T08:29:51.001Z</time></trkpt><trkpt lat="29.853315798805728" lon="-6.191465398143248"><ele>489.5</ele><time>2026-03-24T08:29:52.001Z</time></trkpt><trkpt lat="29.853398092244305" lon="-6.191364247340193"><ele>488.75</ele><time>2026-03-24T08:29:53.001Z</time></trkpt><trkpt lat="29.853469807905007" lon="-6.191254656043508"><ele>488.0</ele><time>2026-03-24T08:29:54.001Z</time></trkpt><trkpt lat="29.8535368991426" lon="-6.19114876781316"><ele>487.25</ele><time>2026-03-24T08:29:55.001Z</time></trkpt><trkpt lat="29.853600430461697" lon="-6.191033426856343"><ele>486.5</ele><time>2026-03-24T08:29:56.001Z</time></trkpt><trkpt lat="29.853663100652128" lon="-6.190911890726764"><ele>485.75</ele><time>2026-03-24T08:29:57.001Z</time></trkpt><trkpt lat="29.853719672191044" lon="-6.190802429113488"><ele>485.0</ele><time>2026-03-24T08:29:58.001Z</time></trkpt><trkpt lat="29.853791426050467" lon="-6.1906950953832425"><ele>486.0</ele><time>2026-03-24T08:29:59.001Z</time></trkpt><trkpt lat="29.85386598302865" lon="-6.19061475403009"><ele>487.0</ele><time>2026-03-24T08:30:00.001Z</time></trkpt><trkpt lat="29.85394877473437" lon="-6.190520270729904"><ele>488.0</ele><time>2026-03-24T08:30:01.001Z</time></trkpt><trkpt lat="29.85402812817872" lon="-6.190423491330203"><ele>489.0</ele><time>2026-03-24T08:30:02.001Z</time></trkpt><trkpt lat="29.854103077383744" lon="-6.1903278070122525"><ele>490.0</ele><time>2026-03-24T08:30:03.001Z</time></trkpt><trkpt lat="29.854183875838192" lon="-6.190230650368751"><ele>490.0</ele><time>2026-03-24T08:30:04.001Z</time></trkpt><trkpt lat="29.854271066275444" lon="-6.190136965988069"><ele>490.0</ele><time>2026-03-24T08:30:05.001Z</time></trkpt><trkpt lat="29.854359879174776" lon="-6.190035467752292"><ele>490.0</ele><time>2026-03-24T08:30:06.001Z</time></trkpt><trkpt lat="29.854450334537894" lon="-6.189933007513136"><ele>490.0</ele><time>2026-03-24T08:30:07.001Z</time></trkpt><trkpt lat="29.854537317700114" lon="-6.1898349471549725"><ele>489.0</ele><time>2026-03-24T08:30:08.001Z</time></trkpt><trkpt lat="29.85461897068" lon="-6.189726566372862"><ele>488.0</ele><time>2026-03-24T08:30:09.001Z</time></trkpt><trkpt lat="29.854694252761465" lon="-6.189615709787217"><ele>487.0</ele><time>2026-03-24T08:30:10.001Z</time></trkpt><trkpt lat="29.85477414679498" lon="-6.189506385914225"><ele>486.0</ele><time>2026-03-24T08:30:11.001Z</time></trkpt><trkpt lat="29.854854431159065" lon="-6.189394687531861"><ele>486.0</ele><time>2026-03-24T08:30:12.001Z</time></trkpt><trkpt lat="29.854933450208147" lon="-6.189276541053222"><ele>486.0</ele><time>2026-03-24T08:30:13.001Z</time></trkpt><trkpt lat="29.85500119440974" lon="-6.189149373576829"><ele>486.0</ele><time>2026-03-24T08:30:14.001Z</time></trkpt><trkpt lat="29.855072747583964" lon="-6.189018056789275"><ele>486.0</ele><time>2026-03-24T08:30:15.001Z</time></trkpt><trkpt lat="29.8551460113186" lon="-6.188886988303121"><ele>486.25</ele><time>2026-03-24T08:30:16.001Z</time></trkpt><trkpt lat="29.85522760312739" lon="-6.188764268046115"><ele>486.5</ele><time>2026-03-24T08:30:17.001Z</time></trkpt><trkpt lat="29.855307766292437" lon="-6.188661222033028"><ele>486.75</ele><time>2026-03-24T08:30:18.001Z</time></trkpt><trkpt lat="29.85539772270802" lon="-6.188554020908969"><ele>487.0</ele><time>2026-03-24T08:30:19.001Z</time></trkpt><trkpt lat="29.855491482832534" lon="-6.188430174031236"><ele>487.0</ele><time>2026-03-24T08:30:20.001Z</time></trkpt><trkpt lat="29.855595383459917" lon="-6.18828491185004"><ele>487.0</ele><time>2026-03-24T08:30:21.001Z</time></trkpt><trkpt lat="29.855677777907143" lon="-6.188141408025518"><ele>487.0</ele><time>2026-03-24T08:30:22.001Z</time></trkpt><trkpt lat="29.85573026764535" lon="-6.188012152612045"><ele>487.0</ele><time>2026-03-24T08:30:23.001Z</time></trkpt><trkpt lat="29.855782357985934" lon="-6.187879552342303"><ele>486.75</ele><time>2026-03-24T08:30:24.001Z</time></trkpt><trkpt lat="29.855840997432885" lon="-6.187742541970074"><ele>486.5</ele><time>2026-03-24T08:30:25.001Z</time></trkpt><trkpt lat="29.855894513791828" lon="-6.187631110397724"><ele>486.25</ele><time>2026-03-24T08:30:26.001Z</time></trkpt><trkpt lat="29.85595372677224" lon="-6.1875273246361475"><ele>486.0</ele><time>2026-03-24T08:30:27.001Z</time></trkpt><trkpt lat="29.856008823757637" lon="-6.1874135064396025"><ele>486.5</ele><time>2026-03-24T08:30:28.001Z</time></trkpt><trkpt lat="29.856050404252144" lon="-6.187293158970337"><ele>487.0</ele><time>2026-03-24T08:30:29.001Z</time></trkpt><trkpt lat="29.85609142351881" lon="-6.187147998882344"><ele>487.5</ele><time>2026-03-24T08:30:30.001Z</time></trkpt><trkpt lat="29.856134495924078" lon="-6.18701711970694"><ele>488.0</ele><time>2026-03-24T08:30:31.001Z</time></trkpt><trkpt lat="29.856163384851016" lon="-6.186902653894585"><ele>488.0</ele><time>2026-03-24T08:30:32.001Z</time></trkpt><trkpt lat="29.856188149253313" lon="-6.186785126267684"><ele>488.0</ele><time>2026-03-24T08:30:33.001Z</time></trkpt><trkpt lat="29.85621387758724" lon="-6.1866631957678875"><ele>488.0</ele><time>2026-03-24T08:30:34.001Z</time></trkpt><trkpt lat="29.856244073571283" lon="-6.186529795751814"><ele>488.0</ele><time>2026-03-24T08:30:35.001Z</time></trkpt><trkpt lat="29.856269960630335" lon="-6.186396590074143"><ele>488.75</ele><time>2026-03-24T08:30:36.001Z</time></trkpt><trkpt lat="29.856297023875282" lon="-6.186263442979479"><ele>489.5</ele><time>2026-03-24T08:30:37.001Z</time></trkpt><trkpt lat="29.85633015075015" lon="-6.186120258907438"><ele>490.25</ele><time>2026-03-24T08:30:38.001Z</time></trkpt><trkpt lat="29.85636615101304" lon="-6.185984229147295"><ele>491.0</ele><time>2026-03-24T08:30:39.001Z</time></trkpt><trkpt lat="29.856404139883622" lon="-6.185854696200223"><ele>491.0</ele><time>2026-03-24T08:30:40.001Z</time></trkpt><trkpt lat="29.856435463399343" lon="-6.185732406460933"><ele>491.0</ele><time>2026-03-24T08:30:41.001Z</time></trkpt><trkpt lat="29.856462927343397" lon="-6.185613001547842"><ele>491.0</ele><time>2026-03-24T08:30:42.001Z</time></trkpt><trkpt lat="29.856502594590243" lon="-6.185509519675707"><ele>491.0</ele><time>2026-03-24T08:30:43.001Z</time></trkpt><trkpt lat="29.85653795333097" lon="-6.185396886326791"><ele>491.0</ele><time>2026-03-24T08:30:44.001Z</time></trkpt><trkpt lat="29.856569004360917" lon="-6.185280800171977"><ele>489.75</ele><time>2026-03-24T08:30:45.001Z</time></trkpt><trkpt lat="29.85660646282865" lon="-6.185153517695965"><ele>488.5</ele><time>2026-03-24T08:30:46.001Z</time></trkpt><trkpt lat="29.856647910433466" lon="-6.185015548896927"><ele>487.25</ele><time>2026-03-24T08:30:47.001Z</time></trkpt><trkpt lat="29.856673949146206" lon="-6.184868998031364"><ele>486.0</ele><time>2026-03-24T08:30:48.001Z</time></trkpt><trkpt lat="29.856700710070566" lon="-6.184721081208763"><ele>486.0</ele><time>2026-03-24T08:30:49.001Z</time></trkpt><trkpt lat="29.856728129878963" lon="-6.184570243606736"><ele>486.0</ele><time>2026-03-24T08:30:50.001Z</time></trkpt><trkpt lat="29.856753153167826" lon="-6.1844170426246805"><ele>486.0</ele><time>2026-03-24T08:30:51.001Z</time></trkpt><trkpt lat="29.856780696271457" lon="-6.184267866968856"><ele>486.0</ele><time>2026-03-24T08:30:52.001Z</time></trkpt><trkpt lat="29.85682010964128" lon="-6.1841203815399455"><ele>489.0</ele><time>2026-03-24T08:30:53.001Z</time></trkpt><trkpt lat="29.856852228681216" lon="-6.183977032152775"><ele>492.0</ele><time>2026-03-24T08:30:54.001Z</time></trkpt><trkpt lat="29.856895341559234" lon="-6.1838305292937195"><ele>495.0</ele><time>2026-03-24T08:30:55.001Z</time></trkpt><trkpt lat="29.85694186996196" lon="-6.18368133805286"><ele>498.0</ele><time>2026-03-24T08:30:56.001Z</time></trkpt><trkpt lat="29.856993432138555" lon="-6.183536255375571"><ele>498.0</ele><time>2026-03-24T08:30:57.001Z</time></trkpt><trkpt lat="29.85705322236433" lon="-6.183391756042757"><ele>498.0</ele><time>2026-03-24T08:30:58.001Z</time></trkpt><trkpt lat="29.8571129296332" lon="-6.183247148479283"><ele>498.0</ele><time>2026-03-24T08:30:59.001Z</time></trkpt><trkpt lat="29.857177799715732" lon="-6.183111380025528"><ele>498.0</ele><time>2026-03-24T08:31:00.001Z</time></trkpt><trkpt lat="29.857257571307823" lon="-6.182978236123646"><ele>494.25</ele><time>2026-03-24T08:31:01.001Z</time></trkpt><trkpt lat="29.857336106512125" lon="-6.182849687133322"><ele>490.5</ele><time>2026-03-24T08:31:02.001Z</time></trkpt><trkpt lat="29.857403457239283" lon="-6.182721400952067"><ele>486.75</ele><time>2026-03-24T08:31:03.001Z</time></trkpt><trkpt lat="29.85748457879824" lon="-6.182597363148607"><ele>483.0</ele><time>2026-03-24T08:31:04.001Z</time></trkpt><trkpt lat="29.857572280867053" lon="-6.182477576105389"><ele>484.0</ele><time>2026-03-24T08:31:05.001Z</time></trkpt><trkpt lat="29.85765919419193" lon="-6.182355086438832"><ele>485.0</ele><time>2026-03-24T08:31:06.001Z</time></trkpt><trkpt lat="29.85774464887612" lon="-6.182232133555067"><ele>486.0</ele><time>2026-03-24T08:31:07.001Z</time></trkpt><trkpt lat="29.857825362980556" lon="-6.182116139212297"><ele>487.0</ele><time>2026-03-24T08:31:08.001Z</time></trkpt><trkpt lat="29.85790965663782" lon="-6.182000621964391"><ele>487.0</ele><time>2026-03-24T08:31:09.001Z</time></trkpt><trkpt lat="29.857991493800498" lon="-6.181882610530766"><ele>487.0</ele><time>2026-03-24T08:31:10.001Z</time></trkpt><trkpt lat="29.85808129167964" lon="-6.181764444500026"><ele>487.0</ele><time>2026-03-24T08:31:11.001Z</time></trkpt><trkpt lat="29.858161589299883" lon="-6.181647790729478"><ele>487.0</ele><time>2026-03-24T08:31:12.001Z</time></trkpt><trkpt lat="29.858241711423396" lon="-6.1815470235616115"><ele>488.6</ele><time>2026-03-24T08:31:13.001Z</time></trkpt><trkpt lat="29.858313117969637" lon="-6.181453817042851"><ele>490.20000000000005</ele><time>2026-03-24T08:31:14.001Z</time></trkpt><trkpt lat="29.858378678985805" lon="-6.18137129855924"><ele>491.8</ele><time>2026-03-24T08:31:15.001Z</time></trkpt><trkpt lat="29.858451865727922" lon="-6.181306274857877"><ele>493.4</ele><time>2026-03-24T08:31:16.001Z</time></trkpt><trkpt lat="29.85853661695798" lon="-6.181237525408499"><ele>495.0</ele><time>2026-03-24T08:31:17.001Z</time></trkpt><trkpt lat="29.858634273622176" lon="-6.181152020078855"><ele>495.0</ele><time>2026-03-24T08:31:18.001Z</time></trkpt><trkpt lat="29.85871638960181" lon="-6.181054796894798"><ele>495.0</ele><time>2026-03-24T08:31:19.001Z</time></trkpt><trkpt lat="29.858781521613558" lon="-6.180948726636939"><ele>495.0</ele><time>2026-03-24T08:31:20.001Z</time></trkpt><trkpt lat="29.858847425980162" lon="-6.180840095754997"><ele>495.0</ele><time>2026-03-24T08:31:21.001Z</time></trkpt><trkpt lat="29.858922690251323" lon="-6.180732254540419"><ele>494.5</ele><time>2026-03-24T08:31:22.001Z</time></trkpt><trkpt lat="29.859010798711747" lon="-6.180623926872041"><ele>494.0</ele><time>2026-03-24T08:31:23.001Z</time></trkpt><trkpt lat="29.859099754807367" lon="-6.180516568770131"><ele>493.5</ele><time>2026-03-24T08:31:24.001Z</time></trkpt><trkpt lat="29.85919329236524" lon="-6.18041539174276"><ele>493.0</ele><time>2026-03-24T08:31:25.001Z</time></trkpt><trkpt lat="29.859284501500536" lon="-6.180313805513411"><ele>492.75</ele><time>2026-03-24T08:31:26.001Z</time></trkpt><trkpt lat="29.859369619096004" lon="-6.180205898619897"><ele>492.5</ele><time>2026-03-24T08:31:27.001Z</time></trkpt><trkpt lat="29.859447961513023" lon="-6.180088721578751"><ele>492.25</ele><time>2026-03-24T08:31:28.001Z</time></trkpt><trkpt lat="29.859528668231373" lon="-6.179971511298911"><ele>492.0</ele><time>2026-03-24T08:31:29.001Z</time></trkpt><trkpt lat="29.859610309275556" lon="-6.179853796881638"><ele>490.25</ele><time>2026-03-24T08:31:30.001Z</time></trkpt><trkpt lat="29.859703575731537" lon="-6.179736602741677"><ele>488.5</ele><time>2026-03-24T08:31:31.001Z</time></trkpt><trkpt lat="29.85979682185697" lon="-6.1796214604303525"><ele>486.75</ele><time>2026-03-24T08:31:32.001Z</time></trkpt><trkpt lat="29.859888842746177" lon="-6.179508311545191"><ele>485.0</ele><time>2026-03-24T08:31:33.001Z</time></trkpt><trkpt lat="29.859978535970864" lon="-6.179401184695861"><ele>485.0</ele><time>2026-03-24T08:31:34.001Z</time></trkpt><trkpt lat="29.860073223744397" lon="-6.17929007691505"><ele>485.0</ele><time>2026-03-24T08:31:35.001Z</time></trkpt><trkpt lat="29.86016394235148" lon="-6.179179018237359"><ele>485.0</ele><time>2026-03-24T08:31:36.001Z</time></trkpt><trkpt lat="29.860256894727996" lon="-6.179071867362286"><ele>485.0</ele><time>2026-03-24T08:31:37.001Z</time></trkpt><trkpt lat="29.860338381453165" lon="-6.178969141609111"><ele>486.25</ele><time>2026-03-24T08:31:38.001Z</time></trkpt><trkpt lat="29.8604242464938" lon="-6.17887911336894"><ele>487.5</ele><time>2026-03-24T08:31:39.001Z</time></trkpt><trkpt lat="29.86051602549275" lon="-6.17878661739391"><ele>488.75</ele><time>2026-03-24T08:31:40.001Z</time></trkpt><trkpt lat="29.860618108502653" lon="-6.178702106658627"><ele>490.0</ele><time>2026-03-24T08:31:41.001Z</time></trkpt><trkpt lat="29.86071942271601" lon="-6.178616726763576"><ele>490.0</ele><time>2026-03-24T08:31:42.001Z</time></trkpt><trkpt lat="29.8608254438965" lon="-6.178529699823783"><ele>490.0</ele><time>2026-03-24T08:31:43.001Z</time></trkpt><trkpt lat="29.86094132771688" lon="-6.178427881036845"><ele>490.0</ele><time>2026-03-24T08:31:44.001Z</time></trkpt><trkpt lat="29.86107292603303" lon="-6.1783080935864945"><ele>490.0</ele><time>2026-03-24T08:31:45.001Z</time></trkpt><trkpt lat="29.861214907120218" lon="-6.178171040082603"><ele>489.33333333333337</ele><time>2026-03-24T08:31:46.001Z</time></trkpt><trkpt lat="29.86137241142206" lon="-6.178015260044696"><ele>488.66666666666663</ele><time>2026-03-24T08:31:47.001Z</time></trkpt><trkpt lat="29.861540678882758" lon="-6.177840035941137"><ele>488.0</ele><time>2026-03-24T08:31:48.001Z</time></trkpt><trkpt lat="29.861712036941277" lon="-6.177663275480083"><ele>488.25</ele><time>2026-03-24T08:31:49.001Z</time></trkpt><trkpt lat="29.86184962369453" lon="-6.17753062130509"><ele>488.5</ele><time>2026-03-24T08:31:50.001Z</time></trkpt><trkpt lat="29.861953358959965" lon="-6.177430062326532"><ele>488.75</ele><time>2026-03-24T08:31:51.001Z</time></trkpt><trkpt lat="29.86205528368069" lon="-6.177340745824095"><ele>489.0</ele><time>2026-03-24T08:31:52.001Z</time></trkpt><trkpt lat="29.862152237623086" lon="-6.177261469269938"><ele>489.0</ele><time>2026-03-24T08:31:53.001Z</time></trkpt><trkpt lat="29.86224771639713" lon="-6.177186314203183"><ele>489.0</ele><time>2026-03-24T08:31:54.001Z</time></trkpt><trkpt lat="29.862332999221756" lon="-6.1771114790350525"><ele>489.0</ele><time>2026-03-24T08:31:55.001Z</time></trkpt><trkpt lat="29.862418202620685" lon="-6.17703718924579"><ele>489.0</ele><time>2026-03-24T08:31:56.001Z</time></trkpt><trkpt lat="29.862502091095845" lon="-6.17697735218316"><ele>489.0</ele><time>2026-03-24T08:31:57.001Z</time></trkpt><trkpt lat="29.862586614969384" lon="-6.176929894149232"><ele>489.5</ele><time>2026-03-24T08:31:58.001Z</time></trkpt><trkpt lat="29.86268463470771" lon="-6.1768790475080255"><ele>490.0</ele><time>2026-03-24T08:31:59.001Z</time></trkpt><trkpt lat="29.862775673851736" lon="-6.176803730573972"><ele>490.5</ele><time>2026-03-24T08:32:00.001Z</time></trkpt><trkpt lat="29.862867143912556" lon="-6.176730357036175"><ele>491.0</ele><time>2026-03-24T08:32:01.001Z</time></trkpt><trkpt lat="29.86296538644256" lon="-6.176640127363335"><ele>491.0</ele><time>2026-03-24T08:32:02.001Z</time></trkpt><trkpt lat="29.86306571342889" lon="-6.176539363638881"><ele>491.0</ele><time>2026-03-24T08:32:03.001Z</time></trkpt><trkpt lat="29.863180645848157" lon="-6.17644509056125"><ele>491.0</ele><time>2026-03-24T08:32:04.001Z</time></trkpt><trkpt lat="29.863299149111423" lon="-6.17636156415145"><ele>491.0</ele><time>2026-03-24T08:32:05.001Z</time></trkpt><trkpt lat="29.863412311272292" lon="-6.176282695115929"><ele>490.5</ele><time>2026-03-24T08:32:06.001Z</time></trkpt><trkpt lat="29.863517559437973" lon="-6.176199123790714"><ele>490.0</ele><time>2026-03-24T08:32:07.001Z</time></trkpt><trkpt lat="29.863635708184415" lon="-6.176108750762734"><ele>489.5</ele><time>2026-03-24T08:32:08.001Z</time></trkpt><trkpt lat="29.863740129680615" lon="-6.176028132142425"><ele>489.0</ele><time>2026-03-24T08:32:09.001Z</time></trkpt><trkpt lat="29.8638300187019" lon="-6.1759375866426405"><ele>489.0</ele><time>2026-03-24T08:32:10.001Z</time></trkpt><trkpt lat="29.863902313801688" lon="-6.175834578502816"><ele>489.0</ele><time>2026-03-24T08:32:11.001Z</time></trkpt><trkpt lat="29.863966166185694" lon="-6.175721565462899"><ele>489.0</ele><time>2026-03-24T08:32:12.001Z</time></trkpt><trkpt lat="29.86401544803595" lon="-6.175601666953792"><ele>489.0</ele><time>2026-03-24T08:32:13.001Z</time></trkpt><trkpt lat="29.864074139265913" lon="-6.175486350350203"><ele>489.25</ele><time>2026-03-24T08:32:14.001Z</time></trkpt><trkpt lat="29.86414507914412" lon="-6.175374555380347"><ele>489.5</ele><time>2026-03-24T08:32:15.001Z</time></trkpt><trkpt lat="29.86422596777523" lon="-6.175260183682645"><ele>489.75</ele><time>2026-03-24T08:32:16.001Z</time></trkpt><trkpt lat="29.864325297044957" lon="-6.175176534070006"><ele>490.0</ele><time>2026-03-24T08:32:17.001Z</time></trkpt><trkpt lat="29.86443098752345" lon="-6.175118968259029"><ele>490.0</ele><time>2026-03-24T08:32:18.001Z</time></trkpt><trkpt lat="29.864538409562346" lon="-6.1750575794272855"><ele>490.0</ele><time>2026-03-24T08:32:19.001Z</time></trkpt><trkpt lat="29.86465583378574" lon="-6.17499036832257"><ele>490.0</ele><time>2026-03-24T08:32:20.001Z</time></trkpt><trkpt lat="29.864774459193324" lon="-6.174936855335347"><ele>490.0</ele><time>2026-03-24T08:32:21.001Z</time></trkpt><trkpt lat="29.86489311165398" lon="-6.174891432463839"><ele>490.0</ele><time>2026-03-24T08:32:22.001Z</time></trkpt><trkpt lat="29.865009591674653" lon="-6.174861658799777"><ele>490.0</ele><time>2026-03-24T08:32:23.001Z</time></trkpt><trkpt lat="29.865121707255053" lon="-6.174822414737562"><ele>490.0</ele><time>2026-03-24T08:32:24.001Z</time></trkpt><trkpt lat="29.865210697929054" lon="-6.174767555924826"><ele>490.0</ele><time>2026-03-24T08:32:25.001Z</time></trkpt><trkpt lat="29.865289756672112" lon="-6.174688648713389"><ele>490.0</ele><time>2026-03-24T08:32:26.001Z</time></trkpt><trkpt lat="29.865366769590246" lon="-6.174595475511489"><ele>490.25</ele><time>2026-03-24T08:32:27.001Z</time></trkpt><trkpt lat="29.86544498953075" lon="-6.174492377672454"><ele>490.5</ele><time>2026-03-24T08:32:28.001Z</time></trkpt><trkpt lat="29.865551433402732" lon="-6.174416251402018"><ele>490.75</ele><time>2026-03-24T08:32:29.001Z</time></trkpt><trkpt lat="29.865654910471992" lon="-6.174361025657464"><ele>491.0</ele><time>2026-03-24T08:32:30.001Z</time></trkpt><trkpt lat="29.865757543120615" lon="-6.174296736192728"><ele>491.0</ele><time>2026-03-24T08:32:31.001Z</time></trkpt><trkpt lat="29.86586300169354" lon="-6.174230273786457"><ele>491.0</ele><time>2026-03-24T08:32:32.001Z</time></trkpt><trkpt lat="29.865950885621942" lon="-6.1741722953627995"><ele>491.0</ele><time>2026-03-24T08:32:33.001Z</time></trkpt><trkpt lat="29.866039708276848" lon="-6.174147959983784"><ele>491.0</ele><time>2026-03-24T08:32:34.001Z</time></trkpt><trkpt lat="29.866122136098845" lon="-6.174120953687377"><ele>491.0</ele><time>2026-03-24T08:32:35.001Z</time></trkpt><trkpt lat="29.866197048349928" lon="-6.174100915735913"><ele>491.4285714285714</ele><time>2026-03-24T08:32:36.001Z</time></trkpt><trkpt lat="29.866263322636605" lon="-6.174088093573784"><ele>491.8571428571428</ele><time>2026-03-24T08:32:37.001Z</time></trkpt><trkpt lat="29.866335665220898" lon="-6.174078202229387"><ele>492.2857142857143</ele><time>2026-03-24T08:32:38.001Z</time></trkpt><trkpt lat="29.866407657453802" lon="-6.174071543575976"><ele>492.71428571428567</ele><time>2026-03-24T08:32:39.001Z</time></trkpt><trkpt lat="29.866486775561395" lon="-6.174072491510384"><ele>493.1428571428571</ele><time>2026-03-24T08:32:40.001Z</time></trkpt><trkpt lat="29.866562043756055" lon="-6.17408372018047"><ele>493.57142857142856</ele><time>2026-03-24T08:32:41.001Z</time></trkpt><trkpt lat="29.866633392044285" lon="-6.174086712828349"><ele>494.0</ele><time>2026-03-24T08:32:42.001Z</time></trkpt><trkpt lat="29.86671565932111" lon="-6.174054689872391"><ele>493.66666666666663</ele><time>2026-03-24T08:32:43.001Z</time></trkpt><trkpt lat="29.866786295187772" lon="-6.174011720915902"><ele>493.3333333333333</ele><time>2026-03-24T08:32:44.001Z</time></trkpt><trkpt lat="29.866876048291502" lon="-6.173955158123952"><ele>493.0</ele><time>2026-03-24T08:32:46.001Z</time></trkpt><trkpt lat="29.866941094286002" lon="-6.173911223395727"><ele>492.66666666666663</ele><time>2026-03-24T08:32:48.001Z</time></trkpt><trkpt lat="29.867014547675073" lon="-6.173850486840077"><ele>492.3333333333333</ele><time>2026-03-24T08:32:51.001Z</time></trkpt><trkpt lat="29.86704560144777" lon="-6.173753985612864"><ele>492.0</ele><time>2026-03-24T08:33:57.001Z</time></trkpt><trkpt lat="29.867041346402445" lon="-6.173636631981466"><ele>492.0</ele><time>2026-03-24T08:33:59.001Z</time></trkpt><trkpt lat="29.867027447948594" lon="-6.1735607372738155"><ele>492.0</ele><time>2026-03-24T08:34:00.001Z</time></trkpt><trkpt lat="29.867009696297576" lon="-6.173480422127653"><ele>492.0</ele><time>2026-03-24T08:34:01.001Z</time></trkpt><trkpt lat="29.866991714557127" lon="-6.173391520750278"><ele>492.0</ele><time>2026-03-24T08:34:02.001Z</time></trkpt><trkpt lat="29.86697924530541" lon="-6.173286021060771"><ele>492.0</ele><time>2026-03-24T08:34:03.001Z</time></trkpt><trkpt lat="29.866974630027343" lon="-6.173165643978591"><ele>492.0</ele><time>2026-03-24T08:34:04.001Z</time></trkpt><trkpt lat="29.86697037510437" lon="-6.173010629019829"><ele>491.8</ele><time>2026-03-24T08:34:05.001Z</time></trkpt><trkpt lat="29.866967072844133" lon="-6.172883071278219"><ele>491.6</ele><time>2026-03-24T08:34:06.001Z</time></trkpt><trkpt lat="29.86696092278344" lon="-6.172782541470622"><ele>491.40000000000003</ele><time>2026-03-24T08:34:07.001Z</time></trkpt><trkpt lat="29.86695009887211" lon="-6.172684146013154"><ele>491.20000000000005</ele><time>2026-03-24T08:34:08.001Z</time></trkpt><trkpt lat="29.866960889867016" lon="-6.172597585380014"><ele>491.0</ele><time>2026-03-24T08:34:09.001Z</time></trkpt><trkpt lat="29.867071744799972" lon="-6.172534753854818"><ele>491.0</ele><time>2026-03-24T08:34:10.001Z</time></trkpt><trkpt lat="29.867003578781507" lon="-6.172428678161459"><ele>491.0</ele><time>2026-03-24T08:34:11.001Z</time></trkpt><trkpt lat="29.867024786273277" lon="-6.17235415554493"><ele>491.0</ele><time>2026-03-24T08:34:12.001Z</time></trkpt><trkpt lat="29.86703819508018" lon="-6.172244063533291"><ele>491.0</ele><time>2026-03-24T08:34:14.001Z</time></trkpt><trkpt lat="29.867000346505723" lon="-6.1721361426890144"><ele>491.0</ele><time>2026-03-24T08:34:16.001Z</time></trkpt><trkpt lat="29.866897166381317" lon="-6.1720448237500545"><ele>491.20000000000005</ele><time>2026-03-24T08:34:18.001Z</time></trkpt><trkpt lat="29.866841194589618" lon="-6.172006896345749"><ele>491.40000000000003</ele><time>2026-03-24T08:34:19.001Z</time></trkpt><trkpt lat="29.86674947705425" lon="-6.171923626320247"><ele>491.6</ele><time>2026-03-24T08:34:21.001Z</time></trkpt><trkpt lat="29.86671344425136" lon="-6.171811414351735"><ele>491.8</ele><time>2026-03-24T08:34:23.001Z</time></trkpt><trkpt lat="29.86675369143877" lon="-6.171665745615479"><ele>492.0</ele><time>2026-03-24T08:34:25.001Z</time></trkpt><trkpt lat="29.866782367463912" lon="-6.171589118947968"><ele>492.0</ele><time>2026-03-24T08:34:26.001Z</time></trkpt><trkpt lat="29.866816490256703" lon="-6.171510948335068"><ele>492.0</ele><time>2026-03-24T08:34:27.001Z</time></trkpt><trkpt lat="29.866855459926242" lon="-6.171436070821819"><ele>492.0</ele><time>2026-03-24T08:34:28.001Z</time></trkpt><trkpt lat="29.866900810100383" lon="-6.171359192857953"><ele>492.0</ele><time>2026-03-24T08:34:29.001Z</time></trkpt><trkpt lat="29.86695255815556" lon="-6.17128275713422"><ele>492.0</ele><time>2026-03-24T08:34:30.001Z</time></trkpt><trkpt lat="29.867006196521167" lon="-6.171207856070542"><ele>492.0</ele><time>2026-03-24T08:34:31.001Z</time></trkpt><trkpt lat="29.867059325945515" lon="-6.171126859030245"><ele>492.0</ele><time>2026-03-24T08:34:32.001Z</time></trkpt><trkpt lat="29.86710692848674" lon="-6.171038596673896"><ele>492.0</ele><time>2026-03-24T08:34:33.001Z</time></trkpt><trkpt lat="29.867145751743948" lon="-6.1709512835466915"><ele>492.0</ele><time>2026-03-24T08:34:34.001Z</time></trkpt><trkpt lat="29.867168928200822" lon="-6.170860843076931"><ele>492.0</ele><time>2026-03-24T08:34:35.001Z</time></trkpt><trkpt lat="29.867192145126765" lon="-6.170764803014467"><ele>492.0</ele><time>2026-03-24T08:34:36.001Z</time></trkpt><trkpt lat="29.867204589332516" lon="-6.170683802597323"><ele>492.0</ele><time>2026-03-24T08:34:37.001Z</time></trkpt><trkpt lat="29.867219706532342" lon="-6.170595765300756"><ele>491.8333333333333</ele><time>2026-03-24T08:34:38.001Z</time></trkpt><trkpt lat="29.867232066541728" lon="-6.170514568645426"><ele>491.66666666666663</ele><time>2026-03-24T08:34:39.001Z</time></trkpt><trkpt lat="29.86725069115888" lon="-6.170430363443527"><ele>491.5</ele><time>2026-03-24T08:34:40.001Z</time></trkpt><trkpt lat="29.867271413837532" lon="-6.170338357069006"><ele>491.3333333333333</ele><time>2026-03-24T08:34:41.001Z</time></trkpt><trkpt lat="29.867293297254243" lon="-6.170247557236221"><ele>491.16666666666663</ele><time>2026-03-24T08:34:42.001Z</time></trkpt><trkpt lat="29.867314595828706" lon="-6.170160939051756"><ele>491.0</ele><time>2026-03-24T08:34:43.001Z</time></trkpt><trkpt lat="29.86733010753427" lon="-6.170072463741194"><ele>490.99999999999994</ele><time>2026-03-24T08:34:44.001Z</time></trkpt><trkpt lat="29.867342848872156" lon="-6.169985861935291"><ele>491.0</ele><time>2026-03-24T08:34:45.001Z</time></trkpt><trkpt lat="29.867339929785835" lon="-6.16990358185903"><ele>491.0</ele><time>2026-03-24T08:34:46.001Z</time></trkpt><trkpt lat="29.867333880189033" lon="-6.1698246243581965"><ele>491.0</ele><time>2026-03-24T08:34:47.001Z</time></trkpt><trkpt lat="29.867328584823277" lon="-6.169740768928211"><ele>490.99999999999994</ele><time>2026-03-24T08:34:48.001Z</time></trkpt><trkpt lat="29.867319637765434" lon="-6.169651196513098"><ele>491.0</ele><time>2026-03-24T08:34:49.001Z</time></trkpt><trkpt lat="29.86729869372883" lon="-6.169556711502311"><ele>491.0</ele><time>2026-03-24T08:34:50.001Z</time></trkpt><trkpt lat="29.867271901250806" lon="-6.169457866411892"><ele>491.0</ele><time>2026-03-24T08:34:51.001Z</time></trkpt><trkpt lat="29.86725932710785" lon="-6.169341391749838"><ele>491.0</ele><time>2026-03-24T08:34:52.001Z</time></trkpt><trkpt lat="29.867250751875847" lon="-6.169221949789264"><ele>491.0</ele><time>2026-03-24T08:34:53.001Z</time></trkpt><trkpt lat="29.867234549015425" lon="-6.169106974667844"><ele>491.0</ele><time>2026-03-24T08:34:54.001Z</time></trkpt><trkpt lat="29.86721093851135" lon="-6.168993621929226"><ele>491.25</ele><time>2026-03-24T08:34:55.001Z</time></trkpt><trkpt lat="29.86718046743027" lon="-6.168874498305639"><ele>491.5</ele><time>2026-03-24T08:34:56.001Z</time></trkpt><trkpt lat="29.867151188541143" lon="-6.168727495858687"><ele>491.75</ele><time>2026-03-24T08:34:57.001Z</time></trkpt><trkpt lat="29.867126201515152" lon="-6.1685825261608995"><ele>492.0</ele><time>2026-03-24T08:34:58.001Z</time></trkpt><trkpt lat="29.867103128133245" lon="-6.168444114757175"><ele>492.0</ele><time>2026-03-24T08:34:59.001Z</time></trkpt><trkpt lat="29.86708615517647" lon="-6.1683196280396215"><ele>492.00000000000006</ele><time>2026-03-24T08:35:00.001Z</time></trkpt><trkpt lat="29.867076194084593" lon="-6.168182579395917"><ele>492.00000000000006</ele><time>2026-03-24T08:35:01.001Z</time></trkpt><trkpt lat="29.86706665100293" lon="-6.168055899589425"><ele>492.0</ele><time>2026-03-24T08:35:02.001Z</time></trkpt><trkpt lat="29.867055062627756" lon="-6.16793047751526"><ele>492.0</ele><time>2026-03-24T08:35:03.001Z</time></trkpt><trkpt lat="29.867042577739433" lon="-6.16780463203492"><ele>492.8</ele><time>2026-03-24T08:35:04.001Z</time></trkpt><trkpt lat="29.867030768279324" lon="-6.1677037108216"><ele>493.6</ele><time>2026-03-24T08:35:05.001Z</time></trkpt><trkpt lat="29.867015462432228" lon="-6.1676127599161505"><ele>494.40000000000003</ele><time>2026-03-24T08:35:06.001Z</time></trkpt><trkpt lat="29.866996902609667" lon="-6.167509907895613"><ele>495.20000000000005</ele><time>2026-03-24T08:35:07.001Z</time></trkpt><trkpt lat="29.866982293723257" lon="-6.167420875188964"><ele>496.0</ele><time>2026-03-24T08:35:08.001Z</time></trkpt><trkpt lat="29.86698962493719" lon="-6.167289924684396"><ele>496.0</ele><time>2026-03-24T08:35:10.001Z</time></trkpt><trkpt lat="29.867031281781003" lon="-6.1671803772121905"><ele>496.0</ele><time>2026-03-24T08:35:12.001Z</time></trkpt><trkpt lat="29.86708112817102" lon="-6.1670800546093085"><ele>496.0</ele><time>2026-03-24T08:35:14.001Z</time></trkpt><trkpt lat="29.867136811990047" lon="-6.166977168419355"><ele>496.0</ele><time>2026-03-24T08:35:16.001Z</time></trkpt><trkpt lat="29.867191199800352" lon="-6.166890424957746"><ele>496.0</ele><time>2026-03-24T08:35:18.001Z</time></trkpt><trkpt lat="29.86719900848671" lon="-6.166784493625399"><ele>496.0</ele><time>2026-03-24T08:35:20.001Z</time></trkpt><trkpt lat="29.86711260677725" lon="-6.166697067432691"><ele>496.0</ele><time>2026-03-24T08:35:22.001Z</time></trkpt><trkpt lat="29.86706883364084" lon="-6.166637617819841"><ele>496.0</ele><time>2026-03-24T08:35:23.001Z</time></trkpt><trkpt lat="29.86703531317043" lon="-6.166570042931927"><ele>496.0</ele><time>2026-03-24T08:35:24.001Z</time></trkpt><trkpt lat="29.867017346920857" lon="-6.166417019099821"><ele>496.0</ele><time>2026-03-24T08:35:26.001Z</time></trkpt><trkpt lat="29.867013813325368" lon="-6.166335285341075"><ele>496.0</ele><time>2026-03-24T08:35:27.001Z</time></trkpt><trkpt lat="29.866994721776074" lon="-6.166257355529849"><ele>496.00000000000006</ele><time>2026-03-24T08:35:28.001Z</time></trkpt><trkpt lat="29.86695657827672" lon="-6.166188697776518"><ele>496.0</ele><time>2026-03-24T08:35:29.001Z</time></trkpt><trkpt lat="29.866961447076374" lon="-6.166101385729618"><ele>496.0</ele><time>2026-03-24T08:35:30.001Z</time></trkpt><trkpt lat="29.86699123625861" lon="-6.166003665051764"><ele>496.00000000000006</ele><time>2026-03-24T08:35:31.001Z</time></trkpt><trkpt lat="29.86702564435362" lon="-6.165940842672235"><ele>496.0</ele><time>2026-03-24T08:35:32.001Z</time></trkpt><trkpt lat="29.867071718790214" lon="-6.165880652087777"><ele>496.0</ele><time>2026-03-24T08:35:33.001Z</time></trkpt><trkpt lat="29.867117495547276" lon="-6.165808428186488"><ele>496.0</ele><time>2026-03-24T08:35:34.001Z</time></trkpt><trkpt lat="29.867160088633725" lon="-6.165723707690612"><ele>496.0</ele><time>2026-03-24T08:35:35.001Z</time></trkpt><trkpt lat="29.867161901565783" lon="-6.16560028618344"><ele>496.0</ele><time>2026-03-24T08:35:37.001Z</time></trkpt><trkpt lat="29.86711083288735" lon="-6.165509602589285"><ele>496.0</ele><time>2026-03-24T08:35:39.001Z</time></trkpt><trkpt lat="29.867023861022826" lon="-6.165423347977623"><ele>496.0</ele><time>2026-03-24T08:35:41.001Z</time></trkpt><trkpt lat="29.86696194764621" lon="-6.165395126039142"><ele>496.0</ele><time>2026-03-24T08:35:42.001Z</time></trkpt><trkpt lat="29.86689771048934" lon="-6.165368968590106"><ele>496.00000000000006</ele><time>2026-03-24T08:35:43.001Z</time></trkpt><trkpt lat="29.866830117182968" lon="-6.165340788739333"><ele>496.0</ele><time>2026-03-24T08:35:44.001Z</time></trkpt><trkpt lat="29.86675500972611" lon="-6.165308155588182"><ele>496.0</ele><time>2026-03-24T08:35:45.001Z</time></trkpt><trkpt lat="29.866682210698038" lon="-6.165270037731915"><ele>496.00000000000006</ele><time>2026-03-24T08:35:46.001Z</time></trkpt><trkpt lat="29.866619773411532" lon="-6.165231065280459"><ele>496.0</ele><time>2026-03-24T08:35:47.001Z</time></trkpt><trkpt lat="29.866561359566873" lon="-6.165189112795413"><ele>496.0</ele><time>2026-03-24T08:35:48.001Z</time></trkpt><trkpt lat="29.866517684863688" lon="-6.1651358319851095"><ele>497.20000000000005</ele><time>2026-03-24T08:35:49.001Z</time></trkpt><trkpt lat="29.86646556456271" lon="-6.165007424537873"><ele>498.40000000000003</ele><time>2026-03-24T08:35:51.001Z</time></trkpt><trkpt lat="29.86644569149674" lon="-6.164894690380461"><ele>499.6</ele><time>2026-03-24T08:35:53.001Z</time></trkpt><trkpt lat="29.86643570070435" lon="-6.164784492754264"><ele>500.8</ele><time>2026-03-24T08:35:55.001Z</time></trkpt><trkpt lat="29.866432772277417" lon="-6.164709333999082"><ele>502.0</ele><time>2026-03-24T08:35:57.001Z</time></trkpt><trkpt lat="29.866450627051066" lon="-6.164591681782555"><ele>502.00000000000006</ele><time>2026-03-24T08:36:00.001Z</time></trkpt><trkpt lat="29.86654336979379" lon="-6.1645683496841315"><ele>502.0</ele><time>2026-03-24T08:36:02.001Z</time></trkpt><trkpt lat="29.86660354512613" lon="-6.1645980566604655"><ele>502.0</ele><time>2026-03-24T08:36:03.001Z</time></trkpt><trkpt lat="29.86666063881515" lon="-6.164630434169494"><ele>502.0</ele><time>2026-03-24T08:36:04.001Z</time></trkpt><trkpt lat="29.86672685968005" lon="-6.164657577184252"><ele>502.00000000000006</ele><time>2026-03-24T08:36:05.001Z</time></trkpt><trkpt lat="29.866835726549674" lon="-6.164624884532156"><ele>502.0</ele><time>2026-03-24T08:36:07.001Z</time></trkpt><trkpt lat="29.866914822687335" lon="-6.164531433505195"><ele>501.6</ele><time>2026-03-24T08:36:09.001Z</time></trkpt><trkpt lat="29.866944421296754" lon="-6.164408883687236"><ele>501.20000000000005</ele><time>2026-03-24T08:36:11.001Z</time></trkpt><trkpt lat="29.866941843064676" lon="-6.164306789138793"><ele>500.8</ele><time>2026-03-24T08:36:12.001Z</time></trkpt><trkpt lat="29.866923808205637" lon="-6.164211719569559"><ele>500.4</ele><time>2026-03-24T08:36:13.001Z</time></trkpt><trkpt lat="29.86691172166986" lon="-6.164116976182263"><ele>500.0</ele><time>2026-03-24T08:36:14.001Z</time></trkpt><trkpt lat="29.866903771237812" lon="-6.164021197097842"><ele>499.99999999999994</ele><time>2026-03-24T08:36:15.001Z</time></trkpt><trkpt lat="29.866901542662514" lon="-6.163931544629064"><ele>500.0</ele><time>2026-03-24T08:36:16.001Z</time></trkpt><trkpt lat="29.86690706063834" lon="-6.163839102031121"><ele>500.0</ele><time>2026-03-24T08:36:17.001Z</time></trkpt><trkpt lat="29.866924413820584" lon="-6.163741736543747"><ele>500.0</ele><time>2026-03-24T08:36:18.001Z</time></trkpt><trkpt lat="29.866955904151535" lon="-6.1636420678056"><ele>499.99999999999994</ele><time>2026-03-24T08:36:19.001Z</time></trkpt><trkpt lat="29.866987852677457" lon="-6.16355714032042"><ele>500.0</ele><time>2026-03-24T08:36:20.001Z</time></trkpt><trkpt lat="29.867021910813442" lon="-6.163489597064773"><ele>500.0</ele><time>2026-03-24T08:36:21.001Z</time></trkpt><trkpt lat="29.867075097067996" lon="-6.1633461286391835"><ele>500.0</ele><time>2026-03-24T08:36:23.001Z</time></trkpt><trkpt lat="29.86709519239239" lon="-6.1632596086051405"><ele>500.0</ele><time>2026-03-24T08:36:24.001Z</time></trkpt><trkpt lat="29.86711423840536" lon="-6.16317282349569"><ele>500.0</ele><time>2026-03-24T08:36:25.001Z</time></trkpt><trkpt lat="29.867161394702542" lon="-6.163097992044093"><ele>500.0</ele><time>2026-03-24T08:36:26.001Z</time></trkpt><trkpt lat="29.867231045087152" lon="-6.1630334439611625"><ele>500.16666666666663</ele><time>2026-03-24T08:36:27.001Z</time></trkpt><trkpt lat="29.867312007639146" lon="-6.162981969295092"><ele>500.3333333333333</ele><time>2026-03-24T08:36:28.001Z</time></trkpt><trkpt lat="29.86736575418364" lon="-6.162920075292093"><ele>500.5</ele><time>2026-03-24T08:36:29.001Z</time></trkpt><trkpt lat="29.867376310151222" lon="-6.162833179061026"><ele>500.66666666666663</ele><time>2026-03-24T08:36:30.001Z</time></trkpt><trkpt lat="29.867361974086062" lon="-6.162753471377127"><ele>500.8333333333333</ele><time>2026-03-24T08:36:31.001Z</time></trkpt><trkpt lat="29.867272313389343" lon="-6.16264817629354"><ele>501.0</ele><time>2026-03-24T08:36:33.001Z</time></trkpt><trkpt lat="29.86720556512963" lon="-6.162599014293301"><ele>501.0</ele><time>2026-03-24T08:36:34.001Z</time></trkpt><trkpt lat="29.867147423380786" lon="-6.162539213485982"><ele>501.0</ele><time>2026-03-24T08:36:35.002Z</time></trkpt><trkpt lat="29.867096126635094" lon="-6.16247917952558"><ele>501.0</ele><time>2026-03-24T08:36:36.002Z</time></trkpt><trkpt lat="29.867064283768727" lon="-6.16240688954382"><ele>501.0</ele><time>2026-03-24T08:36:37.002Z</time></trkpt><trkpt lat="29.867059683707712" lon="-6.162329048994219"><ele>501.0</ele><time>2026-03-24T08:36:38.002Z</time></trkpt><trkpt lat="29.867089255749804" lon="-6.162241180881239"><ele>501.0</ele><time>2026-03-24T08:36:39.002Z</time></trkpt><trkpt lat="29.867156893878278" lon="-6.162154736942785"><ele>501.0</ele><time>2026-03-24T08:36:40.002Z</time></trkpt><trkpt lat="29.867228241377447" lon="-6.1620864730051865"><ele>501.0</ele><time>2026-03-24T08:36:41.002Z</time></trkpt><trkpt lat="29.867274687593127" lon="-6.162018258776233"><ele>501.0</ele><time>2026-03-24T08:36:42.002Z</time></trkpt><trkpt lat="29.867293844281434" lon="-6.16194693589363"><ele>501.0</ele><time>2026-03-24T08:36:43.002Z</time></trkpt><trkpt lat="29.867319822415663" lon="-6.161816544312474"><ele>501.0</ele><time>2026-03-24T08:36:45.002Z</time></trkpt><trkpt lat="29.867343574712308" lon="-6.161734498281117"><ele>501.0</ele><time>2026-03-24T08:36:46.002Z</time></trkpt><trkpt lat="29.867388545919383" lon="-6.1616478887846045"><ele>501.0</ele><time>2026-03-24T08:36:47.002Z</time></trkpt><trkpt lat="29.867426901948058" lon="-6.161582693327788"><ele>501.0</ele><time>2026-03-24T08:36:48.002Z</time></trkpt><trkpt lat="29.867469970930895" lon="-6.161522441818001"><ele>501.0</ele><time>2026-03-24T08:36:49.002Z</time></trkpt><trkpt lat="29.867520251207175" lon="-6.161448851845488"><ele>501.0</ele><time>2026-03-24T08:36:50.002Z</time></trkpt><trkpt lat="29.867592364552767" lon="-6.161356471326232"><ele>501.0</ele><time>2026-03-24T08:36:51.002Z</time></trkpt><trkpt lat="29.867635132706212" lon="-6.16125588038341"><ele>501.0</ele><time>2026-03-24T08:36:52.002Z</time></trkpt><trkpt lat="29.86765725783167" lon="-6.161151349533255"><ele>501.1666666666667</ele><time>2026-03-24T08:36:53.002Z</time></trkpt><trkpt lat="29.867664613030133" lon="-6.16106293370608"><ele>501.33333333333337</ele><time>2026-03-24T08:36:54.002Z</time></trkpt><trkpt lat="29.867671691253854" lon="-6.160982659612324"><ele>501.5</ele><time>2026-03-24T08:36:55.002Z</time></trkpt><trkpt lat="29.867691393480264" lon="-6.16090102156491"><ele>501.6666666666667</ele><time>2026-03-24T08:36:56.002Z</time></trkpt><trkpt lat="29.867708314244343" lon="-6.1608219481549575"><ele>501.83333333333337</ele><time>2026-03-24T08:36:57.002Z</time></trkpt><trkpt lat="29.867732570073716" lon="-6.160736826206851"><ele>502.0</ele><time>2026-03-24T08:36:58.002Z</time></trkpt><trkpt lat="29.867765229125222" lon="-6.160630043319132"><ele>502.0</ele><time>2026-03-24T08:36:59.002Z</time></trkpt><trkpt lat="29.867813770675852" lon="-6.160514696502368"><ele>502.00000000000006</ele><time>2026-03-24T08:37:00.002Z</time></trkpt><trkpt lat="29.867869541292727" lon="-6.160422727233514"><ele>502.00000000000006</ele><time>2026-03-24T08:37:01.002Z</time></trkpt><trkpt lat="29.867910334660984" lon="-6.1603365310839076"><ele>502.0</ele><time>2026-03-24T08:37:02.002Z</time></trkpt><trkpt lat="29.867951325374804" lon="-6.160227379415258"><ele>502.0</ele><time>2026-03-24T08:37:03.002Z</time></trkpt><trkpt lat="29.86799725534273" lon="-6.16012127979788"><ele>502.0</ele><time>2026-03-24T08:37:04.002Z</time></trkpt><trkpt lat="29.868041675911094" lon="-6.160014913162253"><ele>502.00000000000006</ele><time>2026-03-24T08:37:05.002Z</time></trkpt><trkpt lat="29.868089069822954" lon="-6.159911209330768"><ele>502.00000000000006</ele><time>2026-03-24T08:37:06.002Z</time></trkpt><trkpt lat="29.868136843095176" lon="-6.159813826992825"><ele>502.0</ele><time>2026-03-24T08:37:07.002Z</time></trkpt><trkpt lat="29.86818486357452" lon="-6.1597172233243835"><ele>502.0</ele><time>2026-03-24T08:37:08.002Z</time></trkpt><trkpt lat="29.868231438402557" lon="-6.159621501242342"><ele>502.00000000000006</ele><time>2026-03-24T08:37:09.002Z</time></trkpt><trkpt lat="29.86827734534079" lon="-6.159526431404729"><ele>502.0</ele><time>2026-03-24T08:37:10.002Z</time></trkpt><trkpt lat="29.86832176083006" lon="-6.159440217790981"><ele>502.0</ele><time>2026-03-24T08:37:11.002Z</time></trkpt><trkpt lat="29.868364847398052" lon="-6.159367009467578"><ele>502.0</ele><time>2026-03-24T08:37:12.002Z</time></trkpt><trkpt lat="29.868417955957725" lon="-6.159285579017557"><ele>502.00000000000006</ele><time>2026-03-24T08:37:13.002Z</time></trkpt><trkpt lat="29.86847938561948" lon="-6.15920237309912"><ele>502.0</ele><time>2026-03-24T08:37:14.002Z</time></trkpt><trkpt lat="29.868531243748983" lon="-6.159117868254821"><ele>501.8</ele><time>2026-03-24T08:37:15.002Z</time></trkpt><trkpt lat="29.868575337635562" lon="-6.159039708253714"><ele>501.6</ele><time>2026-03-24T08:37:16.002Z</time></trkpt><trkpt lat="29.868618168759138" lon="-6.158963747131506"><ele>501.40000000000003</ele><time>2026-03-24T08:37:17.002Z</time></trkpt><trkpt lat="29.868663969470482" lon="-6.15887501524919"><ele>501.20000000000005</ele><time>2026-03-24T08:37:18.002Z</time></trkpt><trkpt lat="29.868714863729206" lon="-6.158775602979153"><ele>501.0</ele><time>2026-03-24T08:37:19.002Z</time></trkpt><trkpt lat="29.868773860865666" lon="-6.158676290191704"><ele>500.8</ele><time>2026-03-24T08:37:20.002Z</time></trkpt><trkpt lat="29.86883260723946" lon="-6.158566556137131"><ele>500.6</ele><time>2026-03-24T08:37:21.002Z</time></trkpt><trkpt lat="29.86887865970842" lon="-6.158473519254311"><ele>500.4</ele><time>2026-03-24T08:37:22.002Z</time></trkpt><trkpt lat="29.86892533480899" lon="-6.158374025643327"><ele>500.2</ele><time>2026-03-24T08:37:23.002Z</time></trkpt><trkpt lat="29.868977849412694" lon="-6.158264481766745"><ele>500.0</ele><time>2026-03-24T08:37:24.002Z</time></trkpt><trkpt lat="29.869025620678183" lon="-6.158169665276571"><ele>500.0</ele><time>2026-03-24T08:37:25.002Z</time></trkpt><trkpt lat="29.869079464468392" lon="-6.158083905711521"><ele>500.0</ele><time>2026-03-24T08:37:26.002Z</time></trkpt><trkpt lat="29.869131771656214" lon="-6.15799598581129"><ele>500.0</ele><time>2026-03-24T08:37:27.002Z</time></trkpt><trkpt lat="29.86916922848432" lon="-6.15789155942532"><ele>500.0</ele><time>2026-03-24T08:37:28.002Z</time></trkpt><trkpt lat="29.869191392892603" lon="-6.157752285973747"><ele>500.0</ele><time>2026-03-24T08:37:29.002Z</time></trkpt><trkpt lat="29.869211340115402" lon="-6.157615770361772"><ele>500.0</ele><time>2026-03-24T08:37:30.002Z</time></trkpt><trkpt lat="29.86925855372243" lon="-6.15748897899796"><ele>500.0</ele><time>2026-03-24T08:37:31.002Z</time></trkpt><trkpt lat="29.86932789989715" lon="-6.157356004092638"><ele>500.0</ele><time>2026-03-24T08:37:32.002Z</time></trkpt><trkpt lat="29.869396772544242" lon="-6.157231421456383"><ele>500.0</ele><time>2026-03-24T08:37:33.002Z</time></trkpt><trkpt lat="29.86946813573331" lon="-6.1571122013267745"><ele>500.66666666666663</ele><time>2026-03-24T08:37:34.002Z</time></trkpt><trkpt lat="29.869552974833894" lon="-6.156980993586992"><ele>501.33333333333337</ele><time>2026-03-24T08:37:35.002Z</time></trkpt><trkpt lat="29.869653550509852" lon="-6.15682862099449"><ele>502.0</ele><time>2026-03-24T08:37:36.002Z</time></trkpt><trkpt lat="29.86975222546864" lon="-6.156680298357795"><ele>502.0</ele><time>2026-03-24T08:37:37.002Z</time></trkpt><trkpt lat="29.86984213567847" lon="-6.156549169176733"><ele>502.0</ele><time>2026-03-24T08:37:38.002Z</time></trkpt><trkpt lat="29.869916110989283" lon="-6.156416259488295"><ele>502.0</ele><time>2026-03-24T08:37:39.002Z</time></trkpt><trkpt lat="29.869980632971476" lon="-6.1562694599241246"><ele>502.0</ele><time>2026-03-24T08:37:40.002Z</time></trkpt><trkpt lat="29.870050098799865" lon="-6.1561488283584715"><ele>502.0</ele><time>2026-03-24T08:37:41.002Z</time></trkpt><trkpt lat="29.870134761724586" lon="-6.156052323362283"><ele>502.00000000000006</ele><time>2026-03-24T08:37:42.002Z</time></trkpt><trkpt lat="29.870218498671882" lon="-6.155963155541575"><ele>502.00000000000006</ele><time>2026-03-24T08:37:43.002Z</time></trkpt><trkpt lat="29.870301908334632" lon="-6.155884071011256"><ele>502.0</ele><time>2026-03-24T08:37:44.002Z</time></trkpt><trkpt lat="29.870384347007636" lon="-6.155812103503763"><ele>502.0</ele><time>2026-03-24T08:37:45.002Z</time></trkpt><trkpt lat="29.870464134252238" lon="-6.1557299540932835"><ele>502.40000000000003</ele><time>2026-03-24T08:37:46.002Z</time></trkpt><trkpt lat="29.87053599186234" lon="-6.15565527255832"><ele>502.80000000000007</ele><time>2026-03-24T08:37:47.002Z</time></trkpt><trkpt lat="29.87061535621516" lon="-6.155588854261191"><ele>503.2</ele><time>2026-03-24T08:37:48.002Z</time></trkpt><trkpt lat="29.87070036590921" lon="-6.155520636018418"><ele>503.6</ele><time>2026-03-24T08:37:49.002Z</time></trkpt><trkpt lat="29.870784461344986" lon="-6.155447890994299"><ele>504.0</ele><time>2026-03-24T08:37:50.002Z</time></trkpt><trkpt lat="29.870839352523888" lon="-6.155361364576491"><ele>504.0</ele><time>2026-03-24T08:37:51.002Z</time></trkpt><trkpt lat="29.870887383026478" lon="-6.155262061015351"><ele>504.0</ele><time>2026-03-24T08:37:52.002Z</time></trkpt><trkpt lat="29.870946148562073" lon="-6.155160343019272"><ele>504.0</ele><time>2026-03-24T08:37:53.002Z</time></trkpt><trkpt lat="29.871017641082798" lon="-6.155061089991916"><ele>504.0</ele><time>2026-03-24T08:37:54.002Z</time></trkpt><trkpt lat="29.87108874593137" lon="-6.154956894918868"><ele>504.0</ele><time>2026-03-24T08:37:55.002Z</time></trkpt><trkpt lat="29.871150900659647" lon="-6.15484939445923"><ele>504.0</ele><time>2026-03-24T08:37:56.002Z</time></trkpt><trkpt lat="29.871197856448365" lon="-6.1547403816711865"><ele>504.0</ele><time>2026-03-24T08:37:57.002Z</time></trkpt><trkpt lat="29.871245815811765" lon="-6.1546145410292326"><ele>504.0</ele><time>2026-03-24T08:37:58.002Z</time></trkpt><trkpt lat="29.87129191309636" lon="-6.1544989314802585"><ele>504.0</ele><time>2026-03-24T08:37:59.002Z</time></trkpt><trkpt lat="29.871349984938668" lon="-6.154390205949266"><ele>504.0</ele><time>2026-03-24T08:38:00.002Z</time></trkpt><trkpt lat="29.87141926420436" lon="-6.15427772877335"><ele>504.0</ele><time>2026-03-24T08:38:01.002Z</time></trkpt><trkpt lat="29.87149310198948" lon="-6.154160144269553"><ele>504.0</ele><time>2026-03-24T08:38:02.002Z</time></trkpt><trkpt lat="29.871573598218657" lon="-6.154038982079172"><ele>504.0</ele><time>2026-03-24T08:38:03.002Z</time></trkpt><trkpt lat="29.871657995140687" lon="-6.153910476450495"><ele>504.0</ele><time>2026-03-24T08:38:04.002Z</time></trkpt><trkpt lat="29.871743094407012" lon="-6.15378844315651"><ele>503.79999999999995</ele><time>2026-03-24T08:38:05.002Z</time></trkpt><trkpt lat="29.87181837731793" lon="-6.1536787852021435"><ele>503.59999999999997</ele><time>2026-03-24T08:38:06.002Z</time></trkpt><trkpt lat="29.871888540633798" lon="-6.153587965774154"><ele>503.4</ele><time>2026-03-24T08:38:07.002Z</time></trkpt><trkpt lat="29.871947926960207" lon="-6.153495732546861"><ele>503.2</ele><time>2026-03-24T08:38:08.002Z</time></trkpt><trkpt lat="29.872011549259465" lon="-6.153376675719529"><ele>503.0</ele><time>2026-03-24T08:38:09.002Z</time></trkpt><trkpt lat="29.872098160353847" lon="-6.153240703388336"><ele>502.79999999999995</ele><time>2026-03-24T08:38:10.002Z</time></trkpt><trkpt lat="29.87216736636595" lon="-6.15314234113381"><ele>502.59999999999997</ele><time>2026-03-24T08:38:11.002Z</time></trkpt><trkpt lat="29.872239016562407" lon="-6.1530386920427595"><ele>502.40000000000003</ele><time>2026-03-24T08:38:12.002Z</time></trkpt><trkpt lat="29.87231341020915" lon="-6.152943699763413"><ele>502.20000000000005</ele><time>2026-03-24T08:38:13.002Z</time></trkpt><trkpt lat="29.87237808821222" lon="-6.1528547966286755"><ele>502.0</ele><time>2026-03-24T08:38:14.002Z</time></trkpt><trkpt lat="29.87243937165703" lon="-6.152778840654827"><ele>502.00000000000006</ele><time>2026-03-24T08:38:15.002Z</time></trkpt><trkpt lat="29.872504365927654" lon="-6.152714911396187"><ele>502.0</ele><time>2026-03-24T08:38:16.002Z</time></trkpt><trkpt lat="29.872570527579715" lon="-6.152658512471668"><ele>502.0</ele><time>2026-03-24T08:38:17.002Z</time></trkpt><trkpt lat="29.87263527982247" lon="-6.152604844287737"><ele>502.0</ele><time>2026-03-24T08:38:18.002Z</time></trkpt><trkpt lat="29.872696840371372" lon="-6.152562107093094"><ele>502.00000000000006</ele><time>2026-03-24T08:38:19.002Z</time></trkpt><trkpt lat="29.872764950812453" lon="-6.152523550935843"><ele>502.0</ele><time>2026-03-24T08:38:20.002Z</time></trkpt><trkpt lat="29.872845804049028" lon="-6.1524852857599495"><ele>502.33333333333337</ele><time>2026-03-24T08:38:21.002Z</time></trkpt><trkpt lat="29.872928445313228" lon="-6.1524350353352775"><ele>502.6666666666667</ele><time>2026-03-24T08:38:22.002Z</time></trkpt><trkpt lat="29.872997872337365" lon="-6.152368499461103"><ele>503.0</ele><time>2026-03-24T08:38:23.002Z</time></trkpt><trkpt lat="29.873034225392743" lon="-6.152287649913821"><ele>503.33333333333337</ele><time>2026-03-24T08:38:24.002Z</time></trkpt><trkpt lat="29.873073977847397" lon="-6.152203002303858"><ele>503.6666666666667</ele><time>2026-03-24T08:38:25.002Z</time></trkpt><trkpt lat="29.87312284692685" lon="-6.1521169986119295"><ele>504.0</ele><time>2026-03-24T08:38:26.002Z</time></trkpt><trkpt lat="29.87316895966869" lon="-6.152020502572235"><ele>504.4</ele><time>2026-03-24T08:38:27.002Z</time></trkpt><trkpt lat="29.873212942692167" lon="-6.151917549920282"><ele>504.79999999999995</ele><time>2026-03-24T08:38:28.002Z</time></trkpt><trkpt lat="29.873253288302134" lon="-6.1518036124526825"><ele>505.20000000000005</ele><time>2026-03-24T08:38:29.002Z</time></trkpt><trkpt lat="29.87329419579341" lon="-6.1516959436149525"><ele>505.6</ele><time>2026-03-24T08:38:30.002Z</time></trkpt><trkpt lat="29.873345717560095" lon="-6.151584685363533"><ele>506.0</ele><time>2026-03-24T08:38:31.002Z</time></trkpt><trkpt lat="29.87341917978997" lon="-6.151483495092132"><ele>506.0</ele><time>2026-03-24T08:38:32.002Z</time></trkpt><trkpt lat="29.87350049217939" lon="-6.151389963206583"><ele>506.0</ele><time>2026-03-24T08:38:33.002Z</time></trkpt><trkpt lat="29.873586528769188" lon="-6.151291056095703"><ele>506.0</ele><time>2026-03-24T08:38:34.002Z</time></trkpt><trkpt lat="29.873671354943184" lon="-6.1511842115076245"><ele>506.0</ele><time>2026-03-24T08:38:35.002Z</time></trkpt><trkpt lat="29.873738515169197" lon="-6.151063493262137"><ele>506.0</ele><time>2026-03-24T08:38:36.002Z</time></trkpt><trkpt lat="29.87379810596134" lon="-6.15093050200641"><ele>506.0</ele><time>2026-03-24T08:38:37.002Z</time></trkpt><trkpt lat="29.87385789705167" lon="-6.150787024144842"><ele>506.0</ele><time>2026-03-24T08:38:38.002Z</time></trkpt><trkpt lat="29.873917620105473" lon="-6.150644804691033"><ele>506.0</ele><time>2026-03-24T08:38:39.002Z</time></trkpt><trkpt lat="29.873973386434" lon="-6.15050279633429"><ele>506.25</ele><time>2026-03-24T08:38:40.002Z</time></trkpt><trkpt lat="29.87402645697128" lon="-6.1503623822795905"><ele>506.5</ele><time>2026-03-24T08:38:41.002Z</time></trkpt><trkpt lat="29.87407635401511" lon="-6.150222349502135"><ele>506.75</ele><time>2026-03-24T08:38:42.002Z</time></trkpt><trkpt lat="29.874117063850576" lon="-6.150087462909349"><ele>507.0</ele><time>2026-03-24T08:38:43.002Z</time></trkpt><trkpt lat="29.874150230502593" lon="-6.149956525219041"><ele>507.0</ele><time>2026-03-24T08:38:44.002Z</time></trkpt><trkpt lat="29.874178101246443" lon="-6.149825690160208"><ele>507.00000000000006</ele><time>2026-03-24T08:38:45.002Z</time></trkpt><trkpt lat="29.874213929239435" lon="-6.149705162887478"><ele>507.00000000000006</ele><time>2026-03-24T08:38:46.002Z</time></trkpt><trkpt lat="29.874242990415706" lon="-6.1495973464977105"><ele>507.0</ele><time>2026-03-24T08:38:47.002Z</time></trkpt><trkpt lat="29.874244102755256" lon="-6.1494750909818885"><ele>507.0</ele><time>2026-03-24T08:38:48.002Z</time></trkpt><trkpt lat="29.874280725847097" lon="-6.149349468223544"><ele>507.0</ele><time>2026-03-24T08:38:49.002Z</time></trkpt><trkpt lat="29.874314377361756" lon="-6.149232117630426"><ele>507.00000000000006</ele><time>2026-03-24T08:38:50.002Z</time></trkpt><trkpt lat="29.874344290118405" lon="-6.149112885431764"><ele>507.00000000000006</ele><time>2026-03-24T08:38:51.002Z</time></trkpt><trkpt lat="29.874370490967202" lon="-6.149002640276234"><ele>507.0</ele><time>2026-03-24T08:38:52.002Z</time></trkpt><trkpt lat="29.874397928732147" lon="-6.148890433319671"><ele>507.0</ele><time>2026-03-24T08:38:53.002Z</time></trkpt><trkpt lat="29.87441598782334" lon="-6.1487488954531475"><ele>507.5</ele><time>2026-03-24T08:38:54.002Z</time></trkpt><trkpt lat="29.874467034764848" lon="-6.148605283839012"><ele>508.0</ele><time>2026-03-24T08:38:55.002Z</time></trkpt><trkpt lat="29.874510524289224" lon="-6.148454564886946"><ele>508.5</ele><time>2026-03-24T08:38:56.002Z</time></trkpt><trkpt lat="29.874547573813565" lon="-6.148318406656704"><ele>509.0</ele><time>2026-03-24T08:38:57.002Z</time></trkpt><trkpt lat="29.8745748246131" lon="-6.148198159112934"><ele>509.0</ele><time>2026-03-24T08:38:58.002Z</time></trkpt><trkpt lat="29.874603454982672" lon="-6.148080242742065"><ele>509.0</ele><time>2026-03-24T08:38:59.002Z</time></trkpt><trkpt lat="29.874629550726816" lon="-6.147962153061218"><ele>509.0</ele><time>2026-03-24T08:39:00.002Z</time></trkpt><trkpt lat="29.874666112596344" lon="-6.147840408324287"><ele>509.0</ele><time>2026-03-24T08:39:01.002Z</time></trkpt><trkpt lat="29.874693290564885" lon="-6.147728994782765"><ele>509.0</ele><time>2026-03-24T08:39:02.002Z</time></trkpt><trkpt lat="29.874725288452673" lon="-6.147621848756916"><ele>509.0</ele><time>2026-03-24T08:39:03.002Z</time></trkpt><trkpt lat="29.874740611966192" lon="-6.147491370503324"><ele>509.0</ele><time>2026-03-24T08:39:04.002Z</time></trkpt><trkpt lat="29.874804063851187" lon="-6.147370949187167"><ele>509.0</ele><time>2026-03-24T08:39:05.002Z</time></trkpt><trkpt lat="29.87483048329115" lon="-6.147253058030751"><ele>509.0</ele><time>2026-03-24T08:39:06.002Z</time></trkpt><trkpt lat="29.874858126724593" lon="-6.147148216878084"><ele>509.0</ele><time>2026-03-24T08:39:07.002Z</time></trkpt><trkpt lat="29.87488891229651" lon="-6.147065298284908"><ele>509.0</ele><time>2026-03-24T08:39:08.002Z</time></trkpt><trkpt lat="29.87494504444232" lon="-6.146988726776511"><ele>509.0</ele><time>2026-03-24T08:39:09.002Z</time></trkpt><trkpt lat="29.875030011872685" lon="-6.146898195400941"><ele>509.0</ele><time>2026-03-24T08:39:10.002Z</time></trkpt><trkpt lat="29.875081584682373" lon="-6.1467847806823395"><ele>509.0</ele><time>2026-03-24T08:39:11.002Z</time></trkpt><trkpt lat="29.87510969146137" lon="-6.146663196468207"><ele>509.0</ele><time>2026-03-24T08:39:12.002Z</time></trkpt><trkpt lat="29.875141336429937" lon="-6.146541531916321"><ele>509.4</ele><time>2026-03-24T08:39:13.002Z</time></trkpt><trkpt lat="29.875172811446316" lon="-6.146419109032599"><ele>509.79999999999995</ele><time>2026-03-24T08:39:14.002Z</time></trkpt><trkpt lat="29.875213267515978" lon="-6.146294296918728"><ele>510.20000000000005</ele><time>2026-03-24T08:39:15.002Z</time></trkpt><trkpt lat="29.87525862488884" lon="-6.146179329738415"><ele>510.6</ele><time>2026-03-24T08:39:16.002Z</time></trkpt><trkpt lat="29.875305099017762" lon="-6.146064898170084"><ele>511.0</ele><time>2026-03-24T08:39:17.002Z</time></trkpt><trkpt lat="29.875352863100098" lon="-6.145942647297858"><ele>511.0</ele><time>2026-03-24T08:39:18.002Z</time></trkpt><trkpt lat="29.875392214681224" lon="-6.1458246107224195"><ele>511.0</ele><time>2026-03-24T08:39:19.002Z</time></trkpt><trkpt lat="29.875430500121304" lon="-6.145706180497861"><ele>511.0</ele><time>2026-03-24T08:39:20.002Z</time></trkpt><trkpt lat="29.87546642872417" lon="-6.145580485300536"><ele>511.0</ele><time>2026-03-24T08:39:21.002Z</time></trkpt><trkpt lat="29.87550789833433" lon="-6.14545100208113"><ele>511.0</ele><time>2026-03-24T08:39:22.002Z</time></trkpt><trkpt lat="29.875551082318907" lon="-6.145309695795324"><ele>511.0</ele><time>2026-03-24T08:39:23.002Z</time></trkpt><trkpt lat="29.875590865864037" lon="-6.145157333175655"><ele>511.0</ele><time>2026-03-24T08:39:24.002Z</time></trkpt><trkpt lat="29.87564199098515" lon="-6.145011960584104"><ele>511.0</ele><time>2026-03-24T08:39:25.002Z</time></trkpt><trkpt lat="29.875704432827305" lon="-6.14487563624294"><ele>511.4</ele><time>2026-03-24T08:39:26.002Z</time></trkpt><trkpt lat="29.875770395038153" lon="-6.144748814893155"><ele>511.8</ele><time>2026-03-24T08:39:27.002Z</time></trkpt><trkpt lat="29.875827263517383" lon="-6.144648164887443"><ele>512.1999999999999</ele><time>2026-03-24T08:39:28.002Z</time></trkpt><trkpt lat="29.875887886186074" lon="-6.144553648502212"><ele>512.6</ele><time>2026-03-24T08:39:29.002Z</time></trkpt><trkpt lat="29.875946164235174" lon="-6.144448411058686"><ele>513.0</ele><time>2026-03-24T08:39:30.002Z</time></trkpt><trkpt lat="29.875999567510316" lon="-6.144330926171011"><ele>513.0</ele><time>2026-03-24T08:39:31.002Z</time></trkpt><trkpt lat="29.876056746645467" lon="-6.144225809287609"><ele>513.0</ele><time>2026-03-24T08:39:32.002Z</time></trkpt><trkpt lat="29.87605510596926" lon="-6.144105473442876"><ele>513.0</ele><time>2026-03-24T08:39:33.002Z</time></trkpt><trkpt lat="29.876056110571305" lon="-6.143986310902347"><ele>513.0</ele><time>2026-03-24T08:39:34.002Z</time></trkpt><trkpt lat="29.876058814800125" lon="-6.143862676571716"><ele>513.0</ele><time>2026-03-24T08:39:35.002Z</time></trkpt><trkpt lat="29.876070623150202" lon="-6.143732505406172"><ele>513.0</ele><time>2026-03-24T08:39:36.002Z</time></trkpt><trkpt lat="29.876085754280243" lon="-6.143610292147913"><ele>513.0</ele><time>2026-03-24T08:39:37.002Z</time></trkpt><trkpt lat="29.876105358823875" lon="-6.143493622548133"><ele>513.0</ele><time>2026-03-24T08:39:38.002Z</time></trkpt><trkpt lat="29.87612711147312" lon="-6.143380403807514"><ele>513.0</ele><time>2026-03-24T08:39:39.002Z</time></trkpt><trkpt lat="29.876137487536933" lon="-6.143256491129329"><ele>513.0</ele><time>2026-03-24T08:39:40.002Z</time></trkpt><trkpt lat="29.87613167946439" lon="-6.143124540938338"><ele>512.4</ele><time>2026-03-24T08:39:41.002Z</time></trkpt><trkpt lat="29.87611459094738" lon="-6.143008384227933"><ele>511.79999999999995</ele><time>2026-03-24T08:39:42.002Z</time></trkpt><trkpt lat="29.87611082188935" lon="-6.142886727934544"><ele>511.2</ele><time>2026-03-24T08:39:43.002Z</time></trkpt><trkpt lat="29.876120310612208" lon="-6.142767525592441"><ele>510.6</ele><time>2026-03-24T08:39:44.002Z</time></trkpt><trkpt lat="29.876142364318078" lon="-6.142665349246894"><ele>510.0</ele><time>2026-03-24T08:39:45.002Z</time></trkpt><trkpt lat="29.87616496665492" lon="-6.14257159061154"><ele>510.0</ele><time>2026-03-24T08:39:46.002Z</time></trkpt><trkpt lat="29.876188467863315" lon="-6.1424682219459745"><ele>510.0</ele><time>2026-03-24T08:39:47.002Z</time></trkpt><trkpt lat="29.87621647947134" lon="-6.142343580837149"><ele>510.0</ele><time>2026-03-24T08:39:48.002Z</time></trkpt><trkpt lat="29.876235500327965" lon="-6.142210239372765"><ele>510.0</ele><time>2026-03-24T08:39:49.002Z</time></trkpt><trkpt lat="29.876249744916148" lon="-6.142075417532801"><ele>510.0</ele><time>2026-03-24T08:39:50.002Z</time></trkpt><trkpt lat="29.87626508936217" lon="-6.1419487407485915"><ele>510.4</ele><time>2026-03-24T08:39:51.002Z</time></trkpt><trkpt lat="29.876274536260492" lon="-6.141810274749507"><ele>510.8</ele><time>2026-03-24T08:39:52.002Z</time></trkpt><trkpt lat="29.876296092354213" lon="-6.141688802440401"><ele>511.20000000000005</ele><time>2026-03-24T08:39:53.002Z</time></trkpt><trkpt lat="29.876341286004212" lon="-6.1415931030699795"><ele>511.6</ele><time>2026-03-24T08:39:54.002Z</time></trkpt><trkpt lat="29.876385536157162" lon="-6.141494983267037"><ele>512.0</ele><time>2026-03-24T08:39:55.002Z</time></trkpt><trkpt lat="29.87641573276082" lon="-6.141414691217434"><ele>512.2857142857142</ele><time>2026-03-24T08:39:56.002Z</time></trkpt><trkpt lat="29.876436184051514" lon="-6.1413367736927595"><ele>512.5714285714286</ele><time>2026-03-24T08:39:57.002Z</time></trkpt><trkpt lat="29.876449508309715" lon="-6.141250779189849"><ele>512.8571428571429</ele><time>2026-03-24T08:39:58.002Z</time></trkpt><trkpt lat="29.876458027319472" lon="-6.14116427652944"><ele>513.1428571428571</ele><time>2026-03-24T08:39:59.002Z</time></trkpt><trkpt lat="29.876470011758272" lon="-6.1410773223883215"><ele>513.4285714285714</ele><time>2026-03-24T08:40:00.002Z</time></trkpt><trkpt lat="29.876475384902406" lon="-6.140996804570285"><ele>513.7142857142857</ele><time>2026-03-24T08:40:01.002Z</time></trkpt><trkpt lat="29.876476802037647" lon="-6.1409046176445905"><ele>514.0</ele><time>2026-03-24T08:40:02.002Z</time></trkpt><trkpt lat="29.87649186118735" lon="-6.1408202332628266"><ele>514.0</ele><time>2026-03-24T08:40:03.002Z</time></trkpt><trkpt lat="29.876519397248597" lon="-6.140730555951291"><ele>514.0</ele><time>2026-03-24T08:40:04.002Z</time></trkpt><trkpt lat="29.87656920737287" lon="-6.140646971339187"><ele>514.0</ele><time>2026-03-24T08:40:05.002Z</time></trkpt><trkpt lat="29.876629257304632" lon="-6.140561521899108"><ele>514.0</ele><time>2026-03-24T08:40:06.002Z</time></trkpt><trkpt lat="29.876674751988933" lon="-6.140468303448679"><ele>514.0</ele><time>2026-03-24T08:40:07.002Z</time></trkpt><trkpt lat="29.87671709245533" lon="-6.140368107731507"><ele>514.0</ele><time>2026-03-24T08:40:08.002Z</time></trkpt><trkpt lat="29.876766894965115" lon="-6.140275616307878"><ele>514.0</ele><time>2026-03-24T08:40:09.002Z</time></trkpt><trkpt lat="29.87682052348219" lon="-6.140168930014351"><ele>514.0</ele><time>2026-03-24T08:40:10.002Z</time></trkpt><trkpt lat="29.876876986273302" lon="-6.140074214526414"><ele>514.0</ele><time>2026-03-24T08:40:11.002Z</time></trkpt><trkpt lat="29.87693303755451" lon="-6.139987534865049"><ele>514.0</ele><time>2026-03-24T08:40:12.002Z</time></trkpt><trkpt lat="29.87698856231176" lon="-6.139896160934058"><ele>514.0</ele><time>2026-03-24T08:40:13.002Z</time></trkpt><trkpt lat="29.877050673803176" lon="-6.139793808105439"><ele>514.0</ele><time>2026-03-24T08:40:14.002Z</time></trkpt><trkpt lat="29.877110999310602" lon="-6.139693643788657"><ele>514.0</ele><time>2026-03-24T08:40:15.002Z</time></trkpt><trkpt lat="29.87715620470468" lon="-6.13960075928346"><ele>514.0</ele><time>2026-03-24T08:40:16.002Z</time></trkpt><trkpt lat="29.877193450741206" lon="-6.139523479759028"><ele>514.0</ele><time>2026-03-24T08:40:17.002Z</time></trkpt><trkpt lat="29.877218739616442" lon="-6.139437474377373"><ele>514.0</ele><time>2026-03-24T08:40:18.002Z</time></trkpt><trkpt lat="29.87725208814544" lon="-6.139331650052527"><ele>514.0</ele><time>2026-03-24T08:40:19.002Z</time></trkpt><trkpt lat="29.877289285707043" lon="-6.139206388882968"><ele>514.0</ele><time>2026-03-24T08:40:20.002Z</time></trkpt><trkpt lat="29.87732670525289" lon="-6.139093288183007"><ele>514.0</ele><time>2026-03-24T08:40:21.002Z</time></trkpt><trkpt lat="29.877374114597323" lon="-6.138988740952074"><ele>514.0</ele><time>2026-03-24T08:40:22.002Z</time></trkpt><trkpt lat="29.877435466427283" lon="-6.138886102600872"><ele>514.2</ele><time>2026-03-24T08:40:23.002Z</time></trkpt><trkpt lat="29.87750137950146" lon="-6.138773816203848"><ele>514.4</ele><time>2026-03-24T08:40:24.002Z</time></trkpt><trkpt lat="29.877569120666482" lon="-6.138657897005468"><ele>514.6</ele><time>2026-03-24T08:40:25.002Z</time></trkpt><trkpt lat="29.87763226662168" lon="-6.138551589430549"><ele>514.8</ele><time>2026-03-24T08:40:26.002Z</time></trkpt><trkpt lat="29.87768947724058" lon="-6.138460128037701"><ele>515.0</ele><time>2026-03-24T08:40:27.002Z</time></trkpt><trkpt lat="29.877743053559275" lon="-6.13837221372905"><ele>514.8</ele><time>2026-03-24T08:40:28.002Z</time></trkpt><trkpt lat="29.87779475333667" lon="-6.138273772306588"><ele>514.6</ele><time>2026-03-24T08:40:29.002Z</time></trkpt><trkpt lat="29.877856123792004" lon="-6.138174637145692"><ele>514.4</ele><time>2026-03-24T08:40:30.002Z</time></trkpt><trkpt lat="29.87791794973862" lon="-6.138084438797532"><ele>514.2</ele><time>2026-03-24T08:40:31.002Z</time></trkpt><trkpt lat="29.877976465440494" lon="-6.137992212996341"><ele>514.0</ele><time>2026-03-24T08:40:32.002Z</time></trkpt><trkpt lat="29.87803737622206" lon="-6.137915609774755"><ele>514.0</ele><time>2026-03-24T08:40:33.002Z</time></trkpt><trkpt lat="29.878092490805564" lon="-6.137836266180845"><ele>514.0</ele><time>2026-03-24T08:40:34.002Z</time></trkpt><trkpt lat="29.878130972399916" lon="-6.137752408031555"><ele>514.0</ele><time>2026-03-24T08:40:35.002Z</time></trkpt><trkpt lat="29.878159128434916" lon="-6.137649640713186"><ele>514.0</ele><time>2026-03-24T08:40:36.002Z</time></trkpt><trkpt lat="29.87818080844621" lon="-6.137532477089882"><ele>514.0</ele><time>2026-03-24T08:40:37.002Z</time></trkpt><trkpt lat="29.878208150267348" lon="-6.137410565758965"><ele>514.8</ele><time>2026-03-24T08:40:38.002Z</time></trkpt><trkpt lat="29.87820602991148" lon="-6.13728219012681"><ele>515.5999999999999</ele><time>2026-03-24T08:40:39.002Z</time></trkpt><trkpt lat="29.878227521548812" lon="-6.137154624033999"><ele>516.4</ele><time>2026-03-24T08:40:40.002Z</time></trkpt><trkpt lat="29.87824634830208" lon="-6.137031688740004"><ele>517.1999999999999</ele><time>2026-03-24T08:40:41.002Z</time></trkpt><trkpt lat="29.87826501150588" lon="-6.136909821436671"><ele>518.0</ele><time>2026-03-24T08:40:42.002Z</time></trkpt><trkpt lat="29.878299662084423" lon="-6.136793105778745"><ele>518.0</ele><time>2026-03-24T08:40:43.002Z</time></trkpt><trkpt lat="29.878299106330534" lon="-6.1366732572598695"><ele>518.0</ele><time>2026-03-24T08:40:44.002Z</time></trkpt><trkpt lat="29.878326115070244" lon="-6.136554909137499"><ele>518.0</ele><time>2026-03-24T08:40:45.002Z</time></trkpt><trkpt lat="29.878325241420715" lon="-6.136434455315932"><ele>518.0</ele><time>2026-03-24T08:40:46.002Z</time></trkpt><trkpt lat="29.878323802946625" lon="-6.136309526357357"><ele>518.0</ele><time>2026-03-24T08:40:47.002Z</time></trkpt><trkpt lat="29.878312787003484" lon="-6.136182945876892"><ele>517.75</ele><time>2026-03-24T08:40:48.002Z</time></trkpt><trkpt lat="29.878292997972274" lon="-6.136041336975982"><ele>517.5</ele><time>2026-03-24T08:40:49.002Z</time></trkpt><trkpt lat="29.878283054796768" lon="-6.135899305854667"><ele>517.25</ele><time>2026-03-24T08:40:50.002Z</time></trkpt><trkpt lat="29.87827723041216" lon="-6.135760695992505"><ele>517.0</ele><time>2026-03-24T08:40:51.002Z</time></trkpt><trkpt lat="29.87826371625669" lon="-6.135633654174264"><ele>517.5</ele><time>2026-03-24T08:40:52.002Z</time></trkpt><trkpt lat="29.878251382791294" lon="-6.135507892481879"><ele>518.0</ele><time>2026-03-24T08:40:53.002Z</time></trkpt><trkpt lat="29.878226495923734" lon="-6.135374820221776"><ele>518.5</ele><time>2026-03-24T08:40:54.002Z</time></trkpt><trkpt lat="29.87820975276669" lon="-6.135229872412665"><ele>519.0</ele><time>2026-03-24T08:40:55.002Z</time></trkpt><trkpt lat="29.878205978460244" lon="-6.13508063218416"><ele>519.0</ele><time>2026-03-24T08:40:56.002Z</time></trkpt><trkpt lat="29.87821144237999" lon="-6.134926836669053"><ele>519.0</ele><time>2026-03-24T08:40:57.002Z</time></trkpt><trkpt lat="29.87821366546225" lon="-6.134777206227891"><ele>519.0</ele><time>2026-03-24T08:40:58.002Z</time></trkpt><trkpt lat="29.878215337914288" lon="-6.134624755769419"><ele>519.0</ele><time>2026-03-24T08:40:59.002Z</time></trkpt><trkpt lat="29.878211261178162" lon="-6.134467680947156"><ele>519.0</ele><time>2026-03-24T08:41:00.002Z</time></trkpt><trkpt lat="29.878196863549555" lon="-6.134313704148134"><ele>519.0</ele><time>2026-03-24T08:41:01.002Z</time></trkpt><trkpt lat="29.8781860918078" lon="-6.134153297598374"><ele>519.0</ele><time>2026-03-24T08:41:02.002Z</time></trkpt><trkpt lat="29.878159551182293" lon="-6.133992563810315"><ele>519.0</ele><time>2026-03-24T08:41:03.002Z</time></trkpt><trkpt lat="29.878147404320565" lon="-6.13383082821831"><ele>519.0</ele><time>2026-03-24T08:41:04.002Z</time></trkpt><trkpt lat="29.87813528327557" lon="-6.133669436235321"><ele>519.0</ele><time>2026-03-24T08:41:05.002Z</time></trkpt><trkpt lat="29.87812353752791" lon="-6.133513041402096"><ele>519.0</ele><time>2026-03-24T08:41:06.002Z</time></trkpt><trkpt lat="29.878111456432457" lon="-6.133354765793546"><ele>519.0</ele><time>2026-03-24T08:41:07.002Z</time></trkpt><trkpt lat="29.878098729038616" lon="-6.133189733915343"><ele>520.0</ele><time>2026-03-24T08:41:08.002Z</time></trkpt><trkpt lat="29.878086266546486" lon="-6.133026058415759"><ele>521.0</ele><time>2026-03-24T08:41:09.002Z</time></trkpt><trkpt lat="29.878101813787378" lon="-6.132847457363979"><ele>522.0</ele><time>2026-03-24T08:41:10.002Z</time></trkpt><trkpt lat="29.878124777262737" lon="-6.132691357072532"><ele>523.0</ele><time>2026-03-24T08:41:11.002Z</time></trkpt><trkpt lat="29.878147531688715" lon="-6.132533870422766"><ele>524.0</ele><time>2026-03-24T08:41:12.002Z</time></trkpt><trkpt lat="29.878171344534977" lon="-6.132372272651184"><ele>525.0</ele><time>2026-03-24T08:41:13.002Z</time></trkpt><trkpt lat="29.878209650665468" lon="-6.13221787489086"><ele>526.0</ele><time>2026-03-24T08:41:14.002Z</time></trkpt><trkpt lat="29.878225880066772" lon="-6.132061828820127"><ele>527.0</ele><time>2026-03-24T08:41:15.002Z</time></trkpt><trkpt lat="29.87826090845372" lon="-6.131916252678258"><ele>527.0</ele><time>2026-03-24T08:41:16.002Z</time></trkpt><trkpt lat="29.878295027150042" lon="-6.131778443291503"><ele>527.0</ele><time>2026-03-24T08:41:17.002Z</time></trkpt><trkpt lat="29.878322487734906" lon="-6.131662817778526"><ele>527.0</ele><time>2026-03-24T08:41:18.002Z</time></trkpt><trkpt lat="29.87831735844702" lon="-6.131545527428355"><ele>527.0</ele><time>2026-03-24T08:41:19.002Z</time></trkpt><trkpt lat="29.878321705357042" lon="-6.131449071239357"><ele>527.0</ele><time>2026-03-24T08:41:20.002Z</time></trkpt><trkpt lat="29.878325389757325" lon="-6.131368293511851"><ele>526.8333333333333</ele><time>2026-03-24T08:41:21.002Z</time></trkpt><trkpt lat="29.87832931966652" lon="-6.131282350081272"><ele>526.6666666666666</ele><time>2026-03-24T08:41:22.002Z</time></trkpt><trkpt lat="29.87829683628443" lon="-6.131214930863453"><ele>526.5</ele><time>2026-03-24T08:41:23.002Z</time></trkpt><trkpt lat="29.878275957533813" lon="-6.131097612871354"><ele>526.3333333333334</ele><time>2026-03-24T08:41:24.002Z</time></trkpt><trkpt lat="29.878270142280126" lon="-6.130993437042576"><ele>526.1666666666667</ele><time>2026-03-24T08:41:25.002Z</time></trkpt><trkpt lat="29.878264444448124" lon="-6.130891364273597"><ele>526.0</ele><time>2026-03-24T08:41:26.002Z</time></trkpt><trkpt lat="29.878268823394155" lon="-6.130780936743422"><ele>525.8</ele><time>2026-03-24T08:41:27.002Z</time></trkpt><trkpt lat="29.878276930321757" lon="-6.1306657159241515"><ele>525.6</ele><time>2026-03-24T08:41:28.002Z</time></trkpt><trkpt lat="29.878276938255777" lon="-6.130546898342957"><ele>525.4</ele><time>2026-03-24T08:41:29.002Z</time></trkpt><trkpt lat="29.878277497653" lon="-6.130429288656656"><ele>525.2</ele><time>2026-03-24T08:41:30.002Z</time></trkpt><trkpt lat="29.878279308117538" lon="-6.1303019193555075"><ele>525.0</ele><time>2026-03-24T08:41:31.002Z</time></trkpt><trkpt lat="29.87827990916515" lon="-6.130169419900197"><ele>525.0</ele><time>2026-03-24T08:41:32.002Z</time></trkpt><trkpt lat="29.878276895123193" lon="-6.1300341364940705"><ele>525.0</ele><time>2026-03-24T08:41:33.002Z</time></trkpt><trkpt lat="29.87827848416342" lon="-6.129896817061481"><ele>525.0</ele><time>2026-03-24T08:41:34.002Z</time></trkpt><trkpt lat="29.878267485994275" lon="-6.129761884607723"><ele>525.0</ele><time>2026-03-24T08:41:35.002Z</time></trkpt><trkpt lat="29.878278927881375" lon="-6.129629487439048"><ele>524.8</ele><time>2026-03-24T08:41:36.002Z</time></trkpt><trkpt lat="29.878279480976833" lon="-6.12950056960529"><ele>524.6</ele><time>2026-03-24T08:41:37.002Z</time></trkpt><trkpt lat="29.87828069672839" lon="-6.129371038928501"><ele>524.4</ele><time>2026-03-24T08:41:38.002Z</time></trkpt><trkpt lat="29.87826875328999" lon="-6.129249840906055"><ele>524.2</ele><time>2026-03-24T08:41:39.002Z</time></trkpt><trkpt lat="29.878285633797642" lon="-6.129135132452958"><ele>524.0</ele><time>2026-03-24T08:41:40.002Z</time></trkpt><trkpt lat="29.87828020402015" lon="-6.129031243793957"><ele>524.0</ele><time>2026-03-24T08:41:41.002Z</time></trkpt><trkpt lat="29.878284466949708" lon="-6.128922619578237"><ele>524.0</ele><time>2026-03-24T08:41:42.002Z</time></trkpt><trkpt lat="29.87827069639914" lon="-6.128814265321941"><ele>524.0</ele><time>2026-03-24T08:41:43.002Z</time></trkpt><trkpt lat="29.87827118534707" lon="-6.128703363407218"><ele>524.0</ele><time>2026-03-24T08:41:44.002Z</time></trkpt><trkpt lat="29.87825615592132" lon="-6.128598773788115"><ele>524.0</ele><time>2026-03-24T08:41:45.002Z</time></trkpt><trkpt lat="29.878241445805987" lon="-6.128478233024569"><ele>524.0</ele><time>2026-03-24T08:41:46.002Z</time></trkpt><trkpt lat="29.878231220023324" lon="-6.128354151939461"><ele>524.0</ele><time>2026-03-24T08:41:47.002Z</time></trkpt><trkpt lat="29.87821924307938" lon="-6.128227144930056"><ele>524.0</ele><time>2026-03-24T08:41:48.002Z</time></trkpt><trkpt lat="29.878206447737657" lon="-6.128103229395509"><ele>524.0</ele><time>2026-03-24T08:41:49.002Z</time></trkpt><trkpt lat="29.87819138078151" lon="-6.127979638957369"><ele>524.0</ele><time>2026-03-24T08:41:50.002Z</time></trkpt><trkpt lat="29.87817694464508" lon="-6.127861224718621"><ele>524.4</ele><time>2026-03-24T08:41:51.002Z</time></trkpt><trkpt lat="29.8781216601964" lon="-6.127781741064311"><ele>524.8</ele><time>2026-03-24T08:41:52.002Z</time></trkpt><trkpt lat="29.878069783442214" lon="-6.127671039961461"><ele>525.2</ele><time>2026-03-24T08:41:53.002Z</time></trkpt><trkpt lat="29.878085132617397" lon="-6.127531734786282"><ele>525.6</ele><time>2026-03-24T08:41:54.002Z</time></trkpt><trkpt lat="29.87807286571655" lon="-6.127408488731201"><ele>526.0</ele><time>2026-03-24T08:41:55.002Z</time></trkpt><trkpt lat="29.878068997362586" lon="-6.127283981030384"><ele>526.0</ele><time>2026-03-24T08:41:56.002Z</time></trkpt><trkpt lat="29.878066952783566" lon="-6.1271630131247194"><ele>526.0</ele><time>2026-03-24T08:41:57.002Z</time></trkpt><trkpt lat="29.878062726109388" lon="-6.127031697142172"><ele>526.0</ele><time>2026-03-24T08:41:58.002Z</time></trkpt><trkpt lat="29.878068857980367" lon="-6.126894658288954"><ele>526.0</ele><time>2026-03-24T08:41:59.002Z</time></trkpt><trkpt lat="29.87807968565918" lon="-6.126738732222816"><ele>526.0</ele><time>2026-03-24T08:42:00.002Z</time></trkpt><trkpt lat="29.878087489576373" lon="-6.126615372692539"><ele>526.0</ele><time>2026-03-24T08:42:01.002Z</time></trkpt><trkpt lat="29.878097612887586" lon="-6.12649157211716"><ele>526.0</ele><time>2026-03-24T08:42:02.002Z</time></trkpt><trkpt lat="29.878101721367862" lon="-6.126366005864765"><ele>526.0</ele><time>2026-03-24T08:42:03.002Z</time></trkpt><trkpt lat="29.87809817271551" lon="-6.126236606353221"><ele>526.0</ele><time>2026-03-24T08:42:04.002Z</time></trkpt><trkpt lat="29.878092961545047" lon="-6.126107685367513"><ele>526.0</ele><time>2026-03-24T08:42:05.002Z</time></trkpt><trkpt lat="29.87810092348472" lon="-6.125971810358499"><ele>526.0</ele><time>2026-03-24T08:42:06.002Z</time></trkpt><trkpt lat="29.878109917208878" lon="-6.125836239766823"><ele>526.0</ele><time>2026-03-24T08:42:07.002Z</time></trkpt><trkpt lat="29.87811889385892" lon="-6.125703087848803"><ele>526.0</ele><time>2026-03-24T08:42:08.002Z</time></trkpt><trkpt lat="29.878102140098942" lon="-6.125570483959207"><ele>525.8</ele><time>2026-03-24T08:42:09.002Z</time></trkpt><trkpt lat="29.87808415575407" lon="-6.125441230402753"><ele>525.6</ele><time>2026-03-24T08:42:10.002Z</time></trkpt><trkpt lat="29.87806700070087" lon="-6.1253197447095244"><ele>525.4</ele><time>2026-03-24T08:42:11.002Z</time></trkpt><trkpt lat="29.87804443111925" lon="-6.125199654679457"><ele>525.2</ele><time>2026-03-24T08:42:12.002Z</time></trkpt><trkpt lat="29.878018721353648" lon="-6.1250796802874765"><ele>525.0</ele><time>2026-03-24T08:42:13.002Z</time></trkpt><trkpt lat="29.87798573436263" lon="-6.124956130239101"><ele>524.5</ele><time>2026-03-24T08:42:14.002Z</time></trkpt><trkpt lat="29.877951501376394" lon="-6.124830755888328"><ele>524.0</ele><time>2026-03-24T08:42:15.002Z</time></trkpt><trkpt lat="29.877918273270996" lon="-6.124709446191149"><ele>523.5</ele><time>2026-03-24T08:42:16.002Z</time></trkpt><trkpt lat="29.877888556296856" lon="-6.124577084784055"><ele>523.0</ele><time>2026-03-24T08:42:17.002Z</time></trkpt><trkpt lat="29.877869602223463" lon="-6.1244391040387995"><ele>523.0</ele><time>2026-03-24T08:42:18.002Z</time></trkpt><trkpt lat="29.877865174241293" lon="-6.124296555917035"><ele>523.0</ele><time>2026-03-24T08:42:19.002Z</time></trkpt><trkpt lat="29.87787570079728" lon="-6.124160188173023"><ele>523.0</ele><time>2026-03-24T08:42:20.002Z</time></trkpt><trkpt lat="29.877900502502467" lon="-6.124035467962009"><ele>523.0</ele><time>2026-03-24T08:42:21.002Z</time></trkpt><trkpt lat="29.87791495039169" lon="-6.123922216662679"><ele>522.5</ele><time>2026-03-24T08:42:22.002Z</time></trkpt><trkpt lat="29.877924428459885" lon="-6.123813207172319"><ele>522.0</ele><time>2026-03-24T08:42:23.002Z</time></trkpt><trkpt lat="29.877942524120964" lon="-6.123715224011581"><ele>521.5</ele><time>2026-03-24T08:42:24.002Z</time></trkpt><trkpt lat="29.87796691850435" lon="-6.12363139103906"><ele>521.0</ele><time>2026-03-24T08:42:25.002Z</time></trkpt><trkpt lat="29.877983213388305" lon="-6.123557628976918"><ele>520.5</ele><time>2026-03-24T08:42:26.002Z</time></trkpt><trkpt lat="29.877996705122563" lon="-6.123451462872078"><ele>520.0</ele><time>2026-03-24T08:42:28.002Z</time></trkpt><trkpt lat="29.87799162386388" lon="-6.123365470451948"><ele>520.0</ele><time>2026-03-24T08:42:30.002Z</time></trkpt><trkpt lat="29.877964905497972" lon="-6.12329934792169"><ele>520.0</ele><time>2026-03-24T08:45:01.001Z</time></trkpt><trkpt lat="29.877882656203884" lon="-6.123287460737176"><ele>520.0</ele><time>2026-03-24T08:45:03.001Z</time></trkpt><trkpt lat="29.877819022451536" lon="-6.123227043069359"><ele>520.0</ele><time>2026-03-24T08:45:05.001Z</time></trkpt><trkpt lat="29.87780562181186" lon="-6.12313421004538"><ele>520.0</ele><time>2026-03-24T08:45:12.001Z</time></trkpt><trkpt lat="29.87784545545154" lon="-6.123018412145784"><ele>520.0</ele><time>2026-03-24T08:45:14.001Z</time></trkpt><trkpt lat="29.87787575339942" lon="-6.122878558302061"><ele>519.6666666666667</ele><time>2026-03-24T08:45:16.001Z</time></trkpt><trkpt lat="29.877870585073115" lon="-6.12279703288684"><ele>519.3333333333334</ele><time>2026-03-24T08:45:17.001Z</time></trkpt><trkpt lat="29.877850544432366" lon="-6.122715136443472"><ele>519.0</ele><time>2026-03-24T08:45:18.001Z</time></trkpt><trkpt lat="29.877813609592593" lon="-6.122652289280079"><ele>518.6666666666666</ele><time>2026-03-24T08:45:19.001Z</time></trkpt><trkpt lat="29.877733934473355" lon="-6.12252542072021"><ele>518.3333333333333</ele><time>2026-03-24T08:45:21.001Z</time></trkpt><trkpt lat="29.877689296282778" lon="-6.122432567253297"><ele>518.0</ele><time>2026-03-24T08:45:22.001Z</time></trkpt><trkpt lat="29.877648779792022" lon="-6.1223423064034295"><ele>518.0</ele><time>2026-03-24T08:45:23.001Z</time></trkpt><trkpt lat="29.8776102777858" lon="-6.1222282146122255"><ele>518.0</ele><time>2026-03-24T08:45:24.001Z</time></trkpt><trkpt lat="29.877572327539696" lon="-6.122090567139637"><ele>518.0</ele><time>2026-03-24T08:45:25.001Z</time></trkpt><trkpt lat="29.87752022460839" lon="-6.121952574134193"><ele>518.0</ele><time>2026-03-24T08:45:26.001Z</time></trkpt><trkpt lat="29.877475633403204" lon="-6.121827600173633"><ele>518.0</ele><time>2026-03-24T08:45:27.001Z</time></trkpt><trkpt lat="29.87744291688555" lon="-6.121713385044767"><ele>518.0</ele><time>2026-03-24T08:45:28.001Z</time></trkpt><trkpt lat="29.87743368097827" lon="-6.121612366499674"><ele>518.0</ele><time>2026-03-24T08:45:29.001Z</time></trkpt><trkpt lat="29.87745322199791" lon="-6.121516135591141"><ele>518.0</ele><time>2026-03-24T08:45:30.001Z</time></trkpt><trkpt lat="29.877498706692418" lon="-6.121406973793624"><ele>518.0</ele><time>2026-03-24T08:45:31.001Z</time></trkpt><trkpt lat="29.877568110631255" lon="-6.121295577700754"><ele>517.6</ele><time>2026-03-24T08:45:32.001Z</time></trkpt><trkpt lat="29.877636295466306" lon="-6.121203751301508"><ele>517.1999999999999</ele><time>2026-03-24T08:45:33.001Z</time></trkpt><trkpt lat="29.877704690403416" lon="-6.1211195492717065"><ele>516.8</ele><time>2026-03-24T08:45:34.001Z</time></trkpt><trkpt lat="29.877777589194576" lon="-6.121044033015136"><ele>516.4</ele><time>2026-03-24T08:45:35.001Z</time></trkpt><trkpt lat="29.87784421318957" lon="-6.12098677643198"><ele>516.0</ele><time>2026-03-24T08:45:36.001Z</time></trkpt><trkpt lat="29.87791133484731" lon="-6.1209517405347755"><ele>516.0</ele><time>2026-03-24T08:45:37.001Z</time></trkpt><trkpt lat="29.877980492298843" lon="-6.120919722928191"><ele>516.0</ele><time>2026-03-24T08:45:38.001Z</time></trkpt><trkpt lat="29.878051119594165" lon="-6.1208762241119326"><ele>516.0</ele><time>2026-03-24T08:45:39.001Z</time></trkpt><trkpt lat="29.878119094810092" lon="-6.1208313503369745"><ele>516.0</ele><time>2026-03-24T08:45:40.001Z</time></trkpt><trkpt lat="29.878199111985296" lon="-6.1207906345227245"><ele>516.0</ele><time>2026-03-24T08:45:41.001Z</time></trkpt><trkpt lat="29.878265261538743" lon="-6.1207200984214944"><ele>516.0</ele><time>2026-03-24T08:45:42.001Z</time></trkpt><trkpt lat="29.878322655095754" lon="-6.120657774835379"><ele>516.0</ele><time>2026-03-24T08:45:43.001Z</time></trkpt><trkpt lat="29.878394272341982" lon="-6.120615172413874"><ele>516.0</ele><time>2026-03-24T08:45:44.001Z</time></trkpt><trkpt lat="29.8784471294112" lon="-6.120518226852624"><ele>516.0</ele><time>2026-03-24T08:45:45.001Z</time></trkpt><trkpt lat="29.87857971435523" lon="-6.120541520589402"><ele>516.0</ele><time>2026-03-24T08:45:46.001Z</time></trkpt><trkpt lat="29.878673767559324" lon="-6.1205409241496636"><ele>516.0</ele><time>2026-03-24T08:45:47.001Z</time></trkpt><trkpt lat="29.878766402298055" lon="-6.120542009228297"><ele>516.3333333333334</ele><time>2026-03-24T08:45:48.001Z</time></trkpt><trkpt lat="29.878856408276015" lon="-6.120529406686086"><ele>516.6666666666666</ele><time>2026-03-24T08:45:49.001Z</time></trkpt><trkpt lat="29.878938352055602" lon="-6.120504082991679"><ele>517.0</ele><time>2026-03-24T08:45:50.001Z</time></trkpt><trkpt lat="29.879018807720254" lon="-6.120475871889515"><ele>517.3333333333333</ele><time>2026-03-24T08:45:51.001Z</time></trkpt><trkpt lat="29.879095332929456" lon="-6.120436396340238"><ele>517.6666666666666</ele><time>2026-03-24T08:45:52.001Z</time></trkpt><trkpt lat="29.879161389388905" lon="-6.12038707724975"><ele>518.0</ele><time>2026-03-24T08:45:53.001Z</time></trkpt><trkpt lat="29.879219241356612" lon="-6.120318955690645"><ele>518.6</ele><time>2026-03-24T08:45:54.001Z</time></trkpt><trkpt lat="29.879278780924803" lon="-6.120246200568703"><ele>519.1999999999999</ele><time>2026-03-24T08:45:55.001Z</time></trkpt><trkpt lat="29.87932598181427" lon="-6.1201640742803125"><ele>519.8</ele><time>2026-03-24T08:45:56.001Z</time></trkpt><trkpt lat="29.87936916022813" lon="-6.120064124297629"><ele>520.4</ele><time>2026-03-24T08:45:57.001Z</time></trkpt><trkpt lat="29.87942144379357" lon="-6.11996750706558"><ele>521.0</ele><time>2026-03-24T08:45:58.001Z</time></trkpt><trkpt lat="29.87947069521329" lon="-6.119879704348569"><ele>521.5</ele><time>2026-03-24T08:45:59.001Z</time></trkpt><trkpt lat="29.879513349465654" lon="-6.119796282586012"><ele>522.0</ele><time>2026-03-24T08:46:00.001Z</time></trkpt><trkpt lat="29.8795446117413" lon="-6.119722284543824"><ele>522.5</ele><time>2026-03-24T08:46:01.001Z</time></trkpt><trkpt lat="29.87961318964374" lon="-6.119622336646468"><ele>523.0</ele><time>2026-03-24T08:46:03.001Z</time></trkpt><trkpt lat="29.879675563773723" lon="-6.119584427835908"><ele>523.5</ele><time>2026-03-24T08:46:04.001Z</time></trkpt><trkpt lat="29.879743748154176" lon="-6.119558487789152"><ele>524.0</ele><time>2026-03-24T08:46:05.001Z</time></trkpt><trkpt lat="29.87981349030207" lon="-6.119542912724653"><ele>524.0</ele><time>2026-03-24T08:46:06.001Z</time></trkpt><trkpt lat="29.87988607998735" lon="-6.119517349990019"><ele>524.0</ele><time>2026-03-24T08:46:07.001Z</time></trkpt><trkpt lat="29.879946365554165" lon="-6.119466606751163"><ele>524.0</ele><time>2026-03-24T08:46:08.001Z</time></trkpt><trkpt lat="29.8800027506594" lon="-6.119394880097579"><ele>524.0</ele><time>2026-03-24T08:46:09.001Z</time></trkpt><trkpt lat="29.880064599435595" lon="-6.119338155701402"><ele>524.0</ele><time>2026-03-24T08:46:10.001Z</time></trkpt><trkpt lat="29.880143670820708" lon="-6.119284559579679"><ele>524.0</ele><time>2026-03-24T08:46:11.001Z</time></trkpt><trkpt lat="29.8802169007245" lon="-6.1192394041095035"><ele>523.0</ele><time>2026-03-24T08:46:12.001Z</time></trkpt><trkpt lat="29.880283465629713" lon="-6.1191753379273255"><ele>522.0</ele><time>2026-03-24T08:46:13.001Z</time></trkpt><trkpt lat="29.880351268157153" lon="-6.119093317928786"><ele>521.0</ele><time>2026-03-24T08:46:14.001Z</time></trkpt><trkpt lat="29.880423616489992" lon="-6.119011119900805"><ele>520.0</ele><time>2026-03-24T08:46:15.001Z</time></trkpt><trkpt lat="29.880508897970117" lon="-6.118931605743707"><ele>519.0</ele><time>2026-03-24T08:46:16.001Z</time></trkpt><trkpt lat="29.880596458904172" lon="-6.1188237728637"><ele>519.0</ele><time>2026-03-24T08:46:17.001Z</time></trkpt><trkpt lat="29.880684710074544" lon="-6.118701859528265"><ele>519.0</ele><time>2026-03-24T08:46:18.001Z</time></trkpt><trkpt lat="29.880801494185725" lon="-6.118595725752208"><ele>519.0</ele><time>2026-03-24T08:46:19.001Z</time></trkpt><trkpt lat="29.880896268824202" lon="-6.118515129406155"><ele>519.0</ele><time>2026-03-24T08:46:20.001Z</time></trkpt><trkpt lat="29.881002947473377" lon="-6.1184598543090445"><ele>520.3333333333334</ele><time>2026-03-24T08:46:21.001Z</time></trkpt><trkpt lat="29.88114377030244" lon="-6.118435635404067"><ele>521.6666666666667</ele><time>2026-03-24T08:46:22.001Z</time></trkpt><trkpt lat="29.881300264728896" lon="-6.118431819808557"><ele>523.0</ele><time>2026-03-24T08:46:23.001Z</time></trkpt><trkpt lat="29.881452136550866" lon="-6.11844528486649"><ele>523.0</ele><time>2026-03-24T08:46:24.001Z</time></trkpt><trkpt lat="29.881577975639615" lon="-6.118426118478374"><ele>523.0</ele><time>2026-03-24T08:46:25.001Z</time></trkpt><trkpt lat="29.88168555309541" lon="-6.118370577697625"><ele>523.0</ele><time>2026-03-24T08:46:26.001Z</time></trkpt><trkpt lat="29.88179500706719" lon="-6.118289502872726"><ele>523.0</ele><time>2026-03-24T08:46:27.001Z</time></trkpt><trkpt lat="29.88191345178049" lon="-6.118206041865104"><ele>523.4</ele><time>2026-03-24T08:46:28.001Z</time></trkpt><trkpt lat="29.88202280304731" lon="-6.118143067840442"><ele>523.8</ele><time>2026-03-24T08:46:29.001Z</time></trkpt><trkpt lat="29.882110645886584" lon="-6.118102571342473"><ele>524.2</ele><time>2026-03-24T08:46:30.001Z</time></trkpt><trkpt lat="29.8821953748802" lon="-6.118069855001785"><ele>524.6</ele><time>2026-03-24T08:46:31.001Z</time></trkpt><trkpt lat="29.88227737366184" lon="-6.11803144654983"><ele>525.0</ele><time>2026-03-24T08:46:32.001Z</time></trkpt><trkpt lat="29.882354602741543" lon="-6.117988113402377"><ele>525.0</ele><time>2026-03-24T08:46:33.001Z</time></trkpt><trkpt lat="29.882434361392797" lon="-6.117939964828849"><ele>525.0</ele><time>2026-03-24T08:46:34.001Z</time></trkpt><trkpt lat="29.882499385380605" lon="-6.117887873987326"><ele>525.0</ele><time>2026-03-24T08:46:35.001Z</time></trkpt><trkpt lat="29.882566433584334" lon="-6.117824555440728"><ele>525.0</ele><time>2026-03-24T08:46:36.001Z</time></trkpt><trkpt lat="29.882624175228653" lon="-6.117759255640013"><ele>525.0</ele><time>2026-03-24T08:46:37.001Z</time></trkpt><trkpt lat="29.88270257872722" lon="-6.117663916914906"><ele>525.4</ele><time>2026-03-24T08:46:39.001Z</time></trkpt><trkpt lat="29.88276717015401" lon="-6.117567275433132"><ele>525.8</ele><time>2026-03-24T08:46:41.001Z</time></trkpt><trkpt lat="29.882811121329784" lon="-6.117430706676137"><ele>526.2</ele><time>2026-03-24T08:46:43.001Z</time></trkpt><trkpt lat="29.882798012552083" lon="-6.117281705665406"><ele>526.6</ele><time>2026-03-24T08:46:45.001Z</time></trkpt><trkpt lat="29.882766682460304" lon="-6.117204798225704"><ele>527.0</ele><time>2026-03-24T08:46:46.001Z</time></trkpt><trkpt lat="29.882717605794856" lon="-6.117128108069841"><ele>527.0</ele><time>2026-03-24T08:46:47.001Z</time></trkpt><trkpt lat="29.88265178091788" lon="-6.117053350270559"><ele>527.0</ele><time>2026-03-24T08:46:48.001Z</time></trkpt><trkpt lat="29.88258266628008" lon="-6.116982234823794"><ele>527.0</ele><time>2026-03-24T08:46:49.001Z</time></trkpt><trkpt lat="29.88251055867932" lon="-6.116912686492062"><ele>527.0</ele><time>2026-03-24T08:46:50.001Z</time></trkpt><trkpt lat="29.882449532301028" lon="-6.116840509600528"><ele>527.0</ele><time>2026-03-24T08:46:51.001Z</time></trkpt><trkpt lat="29.882394192466208" lon="-6.116756958849389"><ele>526.8333333333333</ele><time>2026-03-24T08:46:52.001Z</time></trkpt><trkpt lat="29.88235344176974" lon="-6.116667182012354"><ele>526.6666666666666</ele><time>2026-03-24T08:46:53.001Z</time></trkpt><trkpt lat="29.8823229484753" lon="-6.116582324223186"><ele>526.5</ele><time>2026-03-24T08:46:54.002Z</time></trkpt><trkpt lat="29.882307607143726" lon="-6.11649652583408"><ele>526.3333333333334</ele><time>2026-03-24T08:46:57.001Z</time></trkpt><trkpt lat="29.882277215839224" lon="-6.11640947827316"><ele>526.1666666666667</ele><time>2026-03-24T08:48:17.001Z</time></trkpt><trkpt lat="29.882240240690646" lon="-6.116301666798103"><ele>526.0</ele><time>2026-03-24T08:48:19.001Z</time></trkpt><trkpt lat="29.88220899016592" lon="-6.1161549550419405"><ele>525.6</ele><time>2026-03-24T08:48:21.001Z</time></trkpt><trkpt lat="29.882195741141377" lon="-6.116055143168804"><ele>525.2</ele><time>2026-03-24T08:48:22.001Z</time></trkpt><trkpt lat="29.882088261553" lon="-6.115990164125871"><ele>524.8</ele><time>2026-03-24T08:48:23.001Z</time></trkpt><trkpt lat="29.88211915930929" lon="-6.115875912507513"><ele>524.4</ele><time>2026-03-24T08:48:24.001Z</time></trkpt><trkpt lat="29.882063833603016" lon="-6.115787544253619"><ele>524.0</ele><time>2026-03-24T08:48:25.001Z</time></trkpt><trkpt lat="29.88201967727688" lon="-6.115694534197942"><ele>523.6666666666666</ele><time>2026-03-24T08:48:26.001Z</time></trkpt><trkpt lat="29.88199262925489" lon="-6.115597430505805"><ele>523.3333333333333</ele><time>2026-03-24T08:48:27.001Z</time></trkpt><trkpt lat="29.881972552659406" lon="-6.11550345092511"><ele>523.0</ele><time>2026-03-24T08:48:28.001Z</time></trkpt><trkpt lat="29.88194080949022" lon="-6.115410372857829"><ele>522.6666666666666</ele><time>2026-03-24T08:48:29.001Z</time></trkpt><trkpt lat="29.881905564647052" lon="-6.115328439760893"><ele>522.3333333333334</ele><time>2026-03-24T08:48:30.001Z</time></trkpt><trkpt lat="29.881867388068905" lon="-6.115238327640161"><ele>522.0</ele><time>2026-03-24T08:48:31.001Z</time></trkpt><trkpt lat="29.881839551149383" lon="-6.115153684504767"><ele>522.0</ele><time>2026-03-24T08:48:32.001Z</time></trkpt><trkpt lat="29.881825218046707" lon="-6.11505575285005"><ele>522.0</ele><time>2026-03-24T08:48:33.001Z</time></trkpt><trkpt lat="29.881807520880738" lon="-6.11496103667595"><ele>522.0</ele><time>2026-03-24T08:48:34.001Z</time></trkpt><trkpt lat="29.88178608219676" lon="-6.114862780677402"><ele>522.0</ele><time>2026-03-24T08:48:35.001Z</time></trkpt><trkpt lat="29.881763479234166" lon="-6.114761706193421"><ele>522.0</ele><time>2026-03-24T08:48:36.001Z</time></trkpt><trkpt lat="29.88173225843855" lon="-6.114669719626876"><ele>522.0</ele><time>2026-03-24T08:48:37.001Z</time></trkpt><trkpt lat="29.881689533464804" lon="-6.114568457634397"><ele>522.2</ele><time>2026-03-24T08:48:38.001Z</time></trkpt><trkpt lat="29.88164071279727" lon="-6.114462856734257"><ele>522.4000000000001</ele><time>2026-03-24T08:48:39.001Z</time></trkpt><trkpt lat="29.881601828018354" lon="-6.1143435888041875"><ele>522.5999999999999</ele><time>2026-03-24T08:48:40.001Z</time></trkpt><trkpt lat="29.88157633678053" lon="-6.11421695069256"><ele>522.8</ele><time>2026-03-24T08:48:41.001Z</time></trkpt><trkpt lat="29.88155878053015" lon="-6.114090962539116"><ele>523.0</ele><time>2026-03-24T08:48:42.001Z</time></trkpt><trkpt lat="29.881544018798735" lon="-6.113958145905863"><ele>523.5</ele><time>2026-03-24T08:48:43.001Z</time></trkpt><trkpt lat="29.881536306920992" lon="-6.113814139523938"><ele>524.0</ele><time>2026-03-24T08:48:44.001Z</time></trkpt><trkpt lat="29.88154825827338" lon="-6.113644530709477"><ele>524.5</ele><time>2026-03-24T08:48:45.001Z</time></trkpt><trkpt lat="29.881571063805872" lon="-6.113479069678164"><ele>525.0</ele><time>2026-03-24T08:48:46.001Z</time></trkpt><trkpt lat="29.881588059971328" lon="-6.1133429065700975"><ele>525.0</ele><time>2026-03-24T08:48:47.001Z</time></trkpt><trkpt lat="29.881581762091514" lon="-6.113255610900042"><ele>525.0</ele><time>2026-03-24T08:48:48.001Z</time></trkpt><trkpt lat="29.881554889090513" lon="-6.113168905074004"><ele>525.0</ele><time>2026-03-24T08:48:49.001Z</time></trkpt><trkpt lat="29.88150096786755" lon="-6.113086713010773"><ele>525.0</ele><time>2026-03-24T08:48:50.001Z</time></trkpt><trkpt lat="29.88145566426538" lon="-6.1130094349110164"><ele>525.0</ele><time>2026-03-24T08:48:51.001Z</time></trkpt><trkpt lat="29.88142895212123" lon="-6.11291577398521"><ele>525.0</ele><time>2026-03-24T08:48:52.001Z</time></trkpt><trkpt lat="29.881436200101565" lon="-6.112810429967381"><ele>524.8</ele><time>2026-03-24T08:48:53.001Z</time></trkpt><trkpt lat="29.881454085385965" lon="-6.112704007594421"><ele>524.6</ele><time>2026-03-24T08:48:54.001Z</time></trkpt><trkpt lat="29.88146676703875" lon="-6.112613113424788"><ele>524.4</ele><time>2026-03-24T08:48:55.001Z</time></trkpt><trkpt lat="29.881471111580392" lon="-6.112515903688598"><ele>524.2</ele><time>2026-03-24T08:48:56.001Z</time></trkpt><trkpt lat="29.88147165445305" lon="-6.1124058961077345"><ele>524.0</ele><time>2026-03-24T08:48:57.001Z</time></trkpt><trkpt lat="29.881474352804727" lon="-6.112294058870944"><ele>524.4</ele><time>2026-03-24T08:48:58.001Z</time></trkpt><trkpt lat="29.881471134576955" lon="-6.11217152492188"><ele>524.8</ele><time>2026-03-24T08:48:59.001Z</time></trkpt><trkpt lat="29.881453609459594" lon="-6.112054669446001"><ele>525.2</ele><time>2026-03-24T08:49:00.002Z</time></trkpt><trkpt lat="29.881433702694146" lon="-6.111927038714519"><ele>525.6</ele><time>2026-03-24T08:49:01.002Z</time></trkpt><trkpt lat="29.881411819451795" lon="-6.111806380599121"><ele>526.0</ele><time>2026-03-24T08:49:02.002Z</time></trkpt><trkpt lat="29.881393278046392" lon="-6.111699196982235"><ele>526.0</ele><time>2026-03-24T08:49:03.002Z</time></trkpt><trkpt lat="29.881369655676696" lon="-6.111588064618606"><ele>526.0</ele><time>2026-03-24T08:49:04.002Z</time></trkpt><trkpt lat="29.881341350374072" lon="-6.111475164331334"><ele>526.0</ele><time>2026-03-24T08:49:05.002Z</time></trkpt><trkpt lat="29.881300433460506" lon="-6.111366971171443"><ele>526.0</ele><time>2026-03-24T08:49:06.001Z</time></trkpt><trkpt lat="29.881253032634042" lon="-6.111262719611425"><ele>526.0</ele><time>2026-03-24T08:49:07.002Z</time></trkpt><trkpt lat="29.881210756707517" lon="-6.1111621426810325"><ele>526.6</ele><time>2026-03-24T08:49:08.002Z</time></trkpt><trkpt lat="29.88116517303967" lon="-6.111065151442557"><ele>527.2</ele><time>2026-03-24T08:49:09.002Z</time></trkpt><trkpt lat="29.881132790768802" lon="-6.1109646801072115"><ele>527.8</ele><time>2026-03-24T08:49:10.002Z</time></trkpt><trkpt lat="29.88110834035212" lon="-6.110862980938178"><ele>528.4</ele><time>2026-03-24T08:49:11.002Z</time></trkpt><trkpt lat="29.881088366467754" lon="-6.110749374561753"><ele>529.0</ele><time>2026-03-24T08:49:12.002Z</time></trkpt><trkpt lat="29.88108588385265" lon="-6.110622714118028"><ele>530.25</ele><time>2026-03-24T08:49:13.002Z</time></trkpt><trkpt lat="29.88110091586529" lon="-6.110488100054395"><ele>531.5</ele><time>2026-03-24T08:49:14.002Z</time></trkpt><trkpt lat="29.88112586913869" lon="-6.110352474727496"><ele>532.75</ele><time>2026-03-24T08:49:15.002Z</time></trkpt><trkpt lat="29.8811565773739" lon="-6.110220839478158"><ele>534.0</ele><time>2026-03-24T08:49:16.002Z</time></trkpt><trkpt lat="29.881187455400042" lon="-6.110088570580403"><ele>534.0</ele><time>2026-03-24T08:49:17.002Z</time></trkpt><trkpt lat="29.88122000759608" lon="-6.109947491682712"><ele>534.0</ele><time>2026-03-24T08:49:18.002Z</time></trkpt><trkpt lat="29.881252739206104" lon="-6.109812935987094"><ele>534.0</ele><time>2026-03-24T08:49:19.002Z</time></trkpt><trkpt lat="29.88128379243417" lon="-6.109674254612998"><ele>534.0</ele><time>2026-03-24T08:49:20.002Z</time></trkpt><trkpt lat="29.88132036159734" lon="-6.109541099940458"><ele>534.75</ele><time>2026-03-24T08:49:21.002Z</time></trkpt><trkpt lat="29.881346093642275" lon="-6.109395290710956"><ele>535.5</ele><time>2026-03-24T08:49:22.002Z</time></trkpt><trkpt lat="29.881358374436946" lon="-6.109249341086479"><ele>536.25</ele><time>2026-03-24T08:49:23.002Z</time></trkpt><trkpt lat="29.881369048805325" lon="-6.109101357318627"><ele>537.0</ele><time>2026-03-24T08:49:24.002Z</time></trkpt><trkpt lat="29.881370792138398" lon="-6.1089525838466585"><ele>537.0</ele><time>2026-03-24T08:49:25.002Z</time></trkpt><trkpt lat="29.88137041959314" lon="-6.108806522581239"><ele>537.0</ele><time>2026-03-24T08:49:26.002Z</time></trkpt><trkpt lat="29.881372387749675" lon="-6.108663404956524"><ele>537.0</ele><time>2026-03-24T08:49:27.002Z</time></trkpt><trkpt lat="29.881361980485536" lon="-6.108517443532055"><ele>537.0</ele><time>2026-03-24T08:49:28.002Z</time></trkpt><trkpt lat="29.88134009804198" lon="-6.108370255126427"><ele>537.25</ele><time>2026-03-24T08:49:29.002Z</time></trkpt><trkpt lat="29.881318798727957" lon="-6.1082179746635"><ele>537.5</ele><time>2026-03-24T08:49:30.002Z</time></trkpt><trkpt lat="29.881296412486165" lon="-6.108068197266814"><ele>537.75</ele><time>2026-03-24T08:49:31.002Z</time></trkpt><trkpt lat="29.8812792817925" lon="-6.107922612154637"><ele>538.0</ele><time>2026-03-24T08:49:32.002Z</time></trkpt><trkpt lat="29.881265934725022" lon="-6.107767372903315"><ele>538.0</ele><time>2026-03-24T08:49:33.002Z</time></trkpt><trkpt lat="29.881254995647087" lon="-6.107615795099656"><ele>538.0</ele><time>2026-03-24T08:49:34.002Z</time></trkpt><trkpt lat="29.881244504516232" lon="-6.107464020083888"><ele>538.0</ele><time>2026-03-24T08:49:35.002Z</time></trkpt><trkpt lat="29.881238396741324" lon="-6.10731516859284"><ele>538.0</ele><time>2026-03-24T08:49:36.002Z</time></trkpt><trkpt lat="29.881230140894324" lon="-6.107165938388264"><ele>538.25</ele><time>2026-03-24T08:49:37.002Z</time></trkpt><trkpt lat="29.881216140458527" lon="-6.107016139476046"><ele>538.5</ele><time>2026-03-24T08:49:38.002Z</time></trkpt><trkpt lat="29.881196535525355" lon="-6.106864138952796"><ele>538.75</ele><time>2026-03-24T08:49:39.002Z</time></trkpt><trkpt lat="29.88117355262525" lon="-6.106711841463977"><ele>539.0</ele><time>2026-03-24T08:49:40.002Z</time></trkpt><trkpt lat="29.881149662479014" lon="-6.1065574768043716"><ele>539.0</ele><time>2026-03-24T08:49:41.002Z</time></trkpt><trkpt lat="29.88113450295868" lon="-6.106402753158479"><ele>539.0</ele><time>2026-03-24T08:49:42.002Z</time></trkpt><trkpt lat="29.881122277839218" lon="-6.106248253107483"><ele>539.0</ele><time>2026-03-24T08:49:43.002Z</time></trkpt><trkpt lat="29.88111466885149" lon="-6.106096241445964"><ele>539.0</ele><time>2026-03-24T08:49:44.002Z</time></trkpt><trkpt lat="29.881106807476534" lon="-6.10594017480274"><ele>539.0</ele><time>2026-03-24T08:49:45.002Z</time></trkpt><trkpt lat="29.88109097450436" lon="-6.105786895047872"><ele>539.0</ele><time>2026-03-24T08:49:46.002Z</time></trkpt><trkpt lat="29.881069616626778" lon="-6.105634542467819"><ele>539.0</ele><time>2026-03-24T08:49:47.002Z</time></trkpt><trkpt lat="29.881044575939427" lon="-6.105483524781069"><ele>539.0</ele><time>2026-03-24T08:49:48.002Z</time></trkpt><trkpt lat="29.881014426298936" lon="-6.105323486933121"><ele>539.0</ele><time>2026-03-24T08:49:49.002Z</time></trkpt><trkpt lat="29.88098515015169" lon="-6.10517428893997"><ele>539.0</ele><time>2026-03-24T08:49:50.002Z</time></trkpt><trkpt lat="29.8809639456042" lon="-6.105030991194702"><ele>539.0</ele><time>2026-03-24T08:49:51.002Z</time></trkpt><trkpt lat="29.880948715282702" lon="-6.104892310319252"><ele>539.0</ele><time>2026-03-24T08:49:52.002Z</time></trkpt><trkpt lat="29.880931465879485" lon="-6.104747275055346"><ele>539.0</ele><time>2026-03-24T08:49:53.002Z</time></trkpt><trkpt lat="29.880924445008468" lon="-6.1045998968504716"><ele>539.0</ele><time>2026-03-24T08:49:54.002Z</time></trkpt><trkpt lat="29.88091497987934" lon="-6.104455512583124"><ele>539.0</ele><time>2026-03-24T08:49:55.002Z</time></trkpt><trkpt lat="29.880905729447775" lon="-6.104313490885152"><ele>539.0</ele><time>2026-03-24T08:49:56.002Z</time></trkpt><trkpt lat="29.880885401070227" lon="-6.10417350564611"><ele>539.25</ele><time>2026-03-24T08:49:57.002Z</time></trkpt><trkpt lat="29.880868660810155" lon="-6.1040302127514385"><ele>539.5</ele><time>2026-03-24T08:49:58.002Z</time></trkpt><trkpt lat="29.880860317943444" lon="-6.103874699837427"><ele>539.75</ele><time>2026-03-24T08:49:59.002Z</time></trkpt><trkpt lat="29.880856419833574" lon="-6.103723333144362"><ele>540.0</ele><time>2026-03-24T08:50:00.002Z</time></trkpt><trkpt lat="29.880855206163034" lon="-6.103564847343629"><ele>540.0</ele><time>2026-03-24T08:50:01.002Z</time></trkpt><trkpt lat="29.88084262620104" lon="-6.10340904053348"><ele>540.0</ele><time>2026-03-24T08:50:02.002Z</time></trkpt><trkpt lat="29.88083259792678" lon="-6.1032549943080285"><ele>540.0</ele><time>2026-03-24T08:50:03.002Z</time></trkpt><trkpt lat="29.88081302877929" lon="-6.103100493448467"><ele>540.0</ele><time>2026-03-24T08:50:04.002Z</time></trkpt><trkpt lat="29.880791666783324" lon="-6.102948464510196"><ele>540.5</ele><time>2026-03-24T08:50:05.002Z</time></trkpt><trkpt lat="29.880767141527205" lon="-6.102800587847995"><ele>541.0</ele><time>2026-03-24T08:50:06.002Z</time></trkpt><trkpt lat="29.880735253883067" lon="-6.102646023745911"><ele>541.5</ele><time>2026-03-24T08:50:07.002Z</time></trkpt><trkpt lat="29.880700627140595" lon="-6.1024925895479365"><ele>542.0</ele><time>2026-03-24T08:50:08.002Z</time></trkpt><trkpt lat="29.880673606095108" lon="-6.102342318457139"><ele>542.0</ele><time>2026-03-24T08:50:09.002Z</time></trkpt><trkpt lat="29.88064794706948" lon="-6.10218352618082"><ele>542.0</ele><time>2026-03-24T08:50:10.002Z</time></trkpt><trkpt lat="29.88062454166554" lon="-6.102024204972017"><ele>542.0</ele><time>2026-03-24T08:50:11.002Z</time></trkpt><trkpt lat="29.880599656624" lon="-6.101859799523611"><ele>542.0</ele><time>2026-03-24T08:50:12.002Z</time></trkpt><trkpt lat="29.88057883453657" lon="-6.101704018822719"><ele>542.0</ele><time>2026-03-24T08:50:13.002Z</time></trkpt><trkpt lat="29.88055411299809" lon="-6.101542696428497"><ele>542.0</ele><time>2026-03-24T08:50:14.002Z</time></trkpt><trkpt lat="29.88053112228157" lon="-6.101395477080977"><ele>542.0</ele><time>2026-03-24T08:50:15.002Z</time></trkpt><trkpt lat="29.880514043476328" lon="-6.101249037462879"><ele>542.0</ele><time>2026-03-24T08:50:16.002Z</time></trkpt><trkpt lat="29.88049163188535" lon="-6.1011083029824125"><ele>542.0</ele><time>2026-03-24T08:50:17.002Z</time></trkpt><trkpt lat="29.88046795222896" lon="-6.100968522798881"><ele>542.0</ele><time>2026-03-24T08:50:18.002Z</time></trkpt><trkpt lat="29.88044465902144" lon="-6.10082481978892"><ele>542.0</ele><time>2026-03-24T08:50:19.002Z</time></trkpt><trkpt lat="29.880425621211636" lon="-6.10067844925341"><ele>542.0</ele><time>2026-03-24T08:50:20.002Z</time></trkpt><trkpt lat="29.880410520147066" lon="-6.100528210609728"><ele>542.0</ele><time>2026-03-24T08:50:21.002Z</time></trkpt><trkpt lat="29.880399393977903" lon="-6.100379383142482"><ele>542.0</ele><time>2026-03-24T08:50:22.002Z</time></trkpt><trkpt lat="29.880385273530713" lon="-6.10022795723724"><ele>542.0</ele><time>2026-03-24T08:50:23.002Z</time></trkpt><trkpt lat="29.88036584822128" lon="-6.1000821544781"><ele>542.0</ele><time>2026-03-24T08:50:24.002Z</time></trkpt><trkpt lat="29.880355751445002" lon="-6.0999375347327485"><ele>542.25</ele><time>2026-03-24T08:50:25.002Z</time></trkpt><trkpt lat="29.880346872010286" lon="-6.099796157802379"><ele>542.5</ele><time>2026-03-24T08:50:26.002Z</time></trkpt><trkpt lat="29.88033189059111" lon="-6.099654012392154"><ele>542.75</ele><time>2026-03-24T08:50:27.002Z</time></trkpt><trkpt lat="29.88031018758947" lon="-6.099511597759666"><ele>543.0</ele><time>2026-03-24T08:50:28.002Z</time></trkpt><trkpt lat="29.88029413881215" lon="-6.099370494373036"><ele>543.0</ele><time>2026-03-24T08:50:29.002Z</time></trkpt><trkpt lat="29.880272931682242" lon="-6.099229047391789"><ele>543.0</ele><time>2026-03-24T08:50:30.002Z</time></trkpt><trkpt lat="29.880251461441194" lon="-6.099083982241484"><ele>543.0</ele><time>2026-03-24T08:50:31.002Z</time></trkpt><trkpt lat="29.880228355271967" lon="-6.09893869126479"><ele>543.0</ele><time>2026-03-24T08:50:32.002Z</time></trkpt><trkpt lat="29.880198000326438" lon="-6.098796584574508"><ele>542.75</ele><time>2026-03-24T08:50:33.002Z</time></trkpt><trkpt lat="29.880158791239648" lon="-6.0986515233068745"><ele>542.5</ele><time>2026-03-24T08:50:34.002Z</time></trkpt><trkpt lat="29.88012123776439" lon="-6.098512540362806"><ele>542.25</ele><time>2026-03-24T08:50:35.002Z</time></trkpt><trkpt lat="29.880074291118753" lon="-6.0983697852042305"><ele>542.0</ele><time>2026-03-24T08:50:36.002Z</time></trkpt><trkpt lat="29.880032679309654" lon="-6.09822454770342"><ele>541.75</ele><time>2026-03-24T08:50:37.002Z</time></trkpt><trkpt lat="29.88000229013923" lon="-6.0980827265242095"><ele>541.5</ele><time>2026-03-24T08:50:38.002Z</time></trkpt><trkpt lat="29.879982734828456" lon="-6.09794283996188"><ele>541.25</ele><time>2026-03-24T08:50:39.002Z</time></trkpt><trkpt lat="29.879972108186482" lon="-6.097795272861002"><ele>541.0</ele><time>2026-03-24T08:50:40.002Z</time></trkpt><trkpt lat="29.879952936187607" lon="-6.097653897591336"><ele>541.0</ele><time>2026-03-24T08:50:41.002Z</time></trkpt><trkpt lat="29.879913606543905" lon="-6.097517400938184"><ele>541.0</ele><time>2026-03-24T08:50:42.002Z</time></trkpt><trkpt lat="29.87987085289327" lon="-6.0973763913317915"><ele>541.0</ele><time>2026-03-24T08:50:43.002Z</time></trkpt><trkpt lat="29.879833905205263" lon="-6.097236655715358"><ele>541.0</ele><time>2026-03-24T08:50:44.002Z</time></trkpt><trkpt lat="29.879791451604127" lon="-6.097098432082187"><ele>541.25</ele><time>2026-03-24T08:50:45.002Z</time></trkpt><trkpt lat="29.87975875365176" lon="-6.096956790106361"><ele>541.5</ele><time>2026-03-24T08:50:46.002Z</time></trkpt><trkpt lat="29.879735988798004" lon="-6.0968068018114625"><ele>541.75</ele><time>2026-03-24T08:50:47.002Z</time></trkpt><trkpt lat="29.87972874697929" lon="-6.096648321504948"><ele>542.0</ele><time>2026-03-24T08:50:48.002Z</time></trkpt><trkpt lat="29.879720455800616" lon="-6.096488336132274"><ele>542.25</ele><time>2026-03-24T08:50:49.002Z</time></trkpt><trkpt lat="29.8797130122029" lon="-6.0963284632778505"><ele>542.5</ele><time>2026-03-24T08:50:50.002Z</time></trkpt><trkpt lat="29.87970462267058" lon="-6.096170425084502"><ele>542.75</ele><time>2026-03-24T08:50:51.002Z</time></trkpt><trkpt lat="29.87970277373304" lon="-6.096014413938071"><ele>543.0</ele><time>2026-03-24T08:50:52.002Z</time></trkpt><trkpt lat="29.879704415859802" lon="-6.095870657122791"><ele>543.0</ele><time>2026-03-24T08:50:53.002Z</time></trkpt><trkpt lat="29.879710488812353" lon="-6.095727253463924"><ele>543.0</ele><time>2026-03-24T08:50:54.002Z</time></trkpt><trkpt lat="29.879715007393425" lon="-6.095584459913567"><ele>543.0</ele><time>2026-03-24T08:50:55.002Z</time></trkpt><trkpt lat="29.879718253692882" lon="-6.095439211175656"><ele>543.0</ele><time>2026-03-24T08:50:56.002Z</time></trkpt><trkpt lat="29.879713576613568" lon="-6.095285501213418"><ele>543.0</ele><time>2026-03-24T08:50:57.002Z</time></trkpt><trkpt lat="29.87970190380591" lon="-6.095145627808073"><ele>543.0</ele><time>2026-03-24T08:50:58.002Z</time></trkpt><trkpt lat="29.879684492176793" lon="-6.095012733984413"><ele>543.0</ele><time>2026-03-24T08:50:59.002Z</time></trkpt><trkpt lat="29.87966717534235" lon="-6.094882038723802"><ele>543.0</ele><time>2026-03-24T08:51:00.002Z</time></trkpt><trkpt lat="29.87966195442263" lon="-6.094758657952642"><ele>543.0</ele><time>2026-03-24T08:51:01.002Z</time></trkpt><trkpt lat="29.87966108006148" lon="-6.0946405413044324"><ele>543.0</ele><time>2026-03-24T08:51:02.002Z</time></trkpt><trkpt lat="29.879670985483905" lon="-6.094509309020853"><ele>543.0</ele><time>2026-03-24T08:51:03.001Z</time></trkpt><trkpt lat="29.879683159685083" lon="-6.09436876703501"><ele>543.0</ele><time>2026-03-24T08:51:04.001Z</time></trkpt><trkpt lat="29.87969163474161" lon="-6.094215634636522"><ele>543.0</ele><time>2026-03-24T08:51:05.001Z</time></trkpt><trkpt lat="29.879696429809446" lon="-6.094059342455877"><ele>543.0</ele><time>2026-03-24T08:51:06.001Z</time></trkpt><trkpt lat="29.879698965852114" lon="-6.093916247981447"><ele>543.0</ele><time>2026-03-24T08:51:07.001Z</time></trkpt><trkpt lat="29.87970377406062" lon="-6.093770131998167"><ele>543.0</ele><time>2026-03-24T08:51:08.001Z</time></trkpt><trkpt lat="29.87970658715276" lon="-6.093629012673751"><ele>543.0</ele><time>2026-03-24T08:51:09.002Z</time></trkpt><trkpt lat="29.879706597983688" lon="-6.093491652047767"><ele>543.0</ele><time>2026-03-24T08:51:10.001Z</time></trkpt><trkpt lat="29.879701682784546" lon="-6.093348374155078"><ele>543.0</ele><time>2026-03-24T08:51:11.001Z</time></trkpt><trkpt lat="29.87969150338967" lon="-6.093205819157143"><ele>543.0</ele><time>2026-03-24T08:51:12.001Z</time></trkpt><trkpt lat="29.87968168791128" lon="-6.093059895078943"><ele>543.0</ele><time>2026-03-24T08:51:13.002Z</time></trkpt><trkpt lat="29.87967725613346" lon="-6.09291840712741"><ele>543.0</ele><time>2026-03-24T08:51:14.002Z</time></trkpt><trkpt lat="29.879672989468805" lon="-6.09277911313226"><ele>543.0</ele><time>2026-03-24T08:51:15.001Z</time></trkpt><trkpt lat="29.87965852857847" lon="-6.092635932860103"><ele>543.0</ele><time>2026-03-24T08:51:16.001Z</time></trkpt><trkpt lat="29.87964077229025" lon="-6.092495248384437"><ele>543.0</ele><time>2026-03-24T08:51:17.001Z</time></trkpt><trkpt lat="29.879629787214625" lon="-6.092346635440831"><ele>543.0</ele><time>2026-03-24T08:51:18.001Z</time></trkpt><trkpt lat="29.879621021735403" lon="-6.092201223815664"><ele>543.0</ele><time>2026-03-24T08:51:19.001Z</time></trkpt><trkpt lat="29.87961569207842" lon="-6.092051015918461"><ele>543.0</ele><time>2026-03-24T08:51:20.001Z</time></trkpt><trkpt lat="29.87961505223074" lon="-6.091898355068507"><ele>543.0</ele><time>2026-03-24T08:51:21.001Z</time></trkpt><trkpt lat="29.87962082207495" lon="-6.09174578082447"><ele>543.0</ele><time>2026-03-24T08:51:22.001Z</time></trkpt><trkpt lat="29.879636093179684" lon="-6.091592524652345"><ele>543.0</ele><time>2026-03-24T08:51:23.001Z</time></trkpt><trkpt lat="29.879653421262287" lon="-6.091442759470761"><ele>543.0</ele><time>2026-03-24T08:51:24.001Z</time></trkpt><trkpt lat="29.879666076809386" lon="-6.091297943439713"><ele>543.25</ele><time>2026-03-24T08:51:25.001Z</time></trkpt><trkpt lat="29.87967128789453" lon="-6.0911477689811555"><ele>543.5</ele><time>2026-03-24T08:51:26.001Z</time></trkpt><trkpt lat="29.87967492645885" lon="-6.091000838244307"><ele>543.75</ele><time>2026-03-24T08:51:27.001Z</time></trkpt><trkpt lat="29.87968012174122" lon="-6.090853804993931"><ele>544.0</ele><time>2026-03-24T08:51:28.001Z</time></trkpt><trkpt lat="29.879679192884637" lon="-6.090704851915389"><ele>543.5</ele><time>2026-03-24T08:51:29.001Z</time></trkpt><trkpt lat="29.87969558006292" lon="-6.090543853066193"><ele>543.0</ele><time>2026-03-24T08:51:30.001Z</time></trkpt><trkpt lat="29.879702163075464" lon="-6.090389258785323"><ele>542.5</ele><time>2026-03-24T08:51:31.001Z</time></trkpt><trkpt lat="29.879708153123044" lon="-6.090232177325127"><ele>542.0</ele><time>2026-03-24T08:51:32.001Z</time></trkpt><trkpt lat="29.879720289437305" lon="-6.0900826051762325"><ele>542.0</ele><time>2026-03-24T08:51:33.001Z</time></trkpt><trkpt lat="29.879732403741688" lon="-6.089927210423129"><ele>542.0</ele><time>2026-03-24T08:51:34.001Z</time></trkpt><trkpt lat="29.879741798981964" lon="-6.089771554527234"><ele>542.0</ele><time>2026-03-24T08:51:35.001Z</time></trkpt><trkpt lat="29.87974367763769" lon="-6.0896147697709075"><ele>542.0</ele><time>2026-03-24T08:51:36.001Z</time></trkpt><trkpt lat="29.879742337220833" lon="-6.089466909078939"><ele>542.5</ele><time>2026-03-24T08:51:37.001Z</time></trkpt><trkpt lat="29.879739330430578" lon="-6.089308748784433"><ele>543.0</ele><time>2026-03-24T08:51:38.001Z</time></trkpt><trkpt lat="29.879728838273397" lon="-6.089162527692274"><ele>543.5</ele><time>2026-03-24T08:51:39.001Z</time></trkpt><trkpt lat="29.87971276961659" lon="-6.08901666869029"><ele>544.0</ele><time>2026-03-24T08:51:40.001Z</time></trkpt><trkpt lat="29.879696692709388" lon="-6.088870589133092"><ele>544.0</ele><time>2026-03-24T08:51:41.001Z</time></trkpt><trkpt lat="29.87968482345015" lon="-6.088723144243252"><ele>544.0</ele><time>2026-03-24T08:51:42.001Z</time></trkpt><trkpt lat="29.879676361195575" lon="-6.088580392225695"><ele>544.0</ele><time>2026-03-24T08:51:43.001Z</time></trkpt><trkpt lat="29.87967405023461" lon="-6.088448167408731"><ele>544.0</ele><time>2026-03-24T08:51:44.001Z</time></trkpt><trkpt lat="29.879675935351464" lon="-6.088299685889266"><ele>544.0</ele><time>2026-03-24T08:51:45.001Z</time></trkpt><trkpt lat="29.87967642721864" lon="-6.088146959636483"><ele>544.0</ele><time>2026-03-24T08:51:46.001Z</time></trkpt><trkpt lat="29.879675024968257" lon="-6.087988306579684"><ele>544.0</ele><time>2026-03-24T08:51:47.001Z</time></trkpt><trkpt lat="29.87967119218114" lon="-6.087831096097678"><ele>544.0</ele><time>2026-03-24T08:51:48.001Z</time></trkpt><trkpt lat="29.879663980897792" lon="-6.087674346182142"><ele>544.0</ele><time>2026-03-24T08:51:49.001Z</time></trkpt><trkpt lat="29.87965470710745" lon="-6.087523663699207"><ele>544.0</ele><time>2026-03-24T08:51:50.001Z</time></trkpt><trkpt lat="29.879640956890288" lon="-6.087381322993618"><ele>544.0</ele><time>2026-03-24T08:51:51.001Z</time></trkpt><trkpt lat="29.87963005459759" lon="-6.08722372561214"><ele>544.0</ele><time>2026-03-24T08:51:52.001Z</time></trkpt><trkpt lat="29.879618502151807" lon="-6.087076761301221"><ele>544.0</ele><time>2026-03-24T08:51:53.001Z</time></trkpt><trkpt lat="29.879609359330466" lon="-6.086922190704528"><ele>544.0</ele><time>2026-03-24T08:51:54.001Z</time></trkpt><trkpt lat="29.87959942530737" lon="-6.086786902281993"><ele>544.0</ele><time>2026-03-24T08:51:55.001Z</time></trkpt><trkpt lat="29.87959226277845" lon="-6.086667117803884"><ele>544.0</ele><time>2026-03-24T08:51:56.001Z</time></trkpt><trkpt lat="29.879590254042157" lon="-6.086541501934292"><ele>544.0</ele><time>2026-03-24T08:51:57.001Z</time></trkpt><trkpt lat="29.879584258355738" lon="-6.086407933161215"><ele>544.0</ele><time>2026-03-24T08:51:58.001Z</time></trkpt><trkpt lat="29.879578819798944" lon="-6.086267135510853"><ele>544.0</ele><time>2026-03-24T08:51:59.001Z</time></trkpt><trkpt lat="29.879569083380105" lon="-6.086130603577332"><ele>544.0</ele><time>2026-03-24T08:52:00.001Z</time></trkpt><trkpt lat="29.879565402073442" lon="-6.085989547587092"><ele>544.0</ele><time>2026-03-24T08:52:01.001Z</time></trkpt><trkpt lat="29.879562096460095" lon="-6.0858495775999355"><ele>544.0</ele><time>2026-03-24T08:52:02.001Z</time></trkpt><trkpt lat="29.879555924042037" lon="-6.085720001387682"><ele>544.0</ele><time>2026-03-24T08:52:03.001Z</time></trkpt><trkpt lat="29.87954633387947" lon="-6.085590718363924"><ele>544.0</ele><time>2026-03-24T08:52:04.001Z</time></trkpt><trkpt lat="29.879531563884733" lon="-6.085462652815946"><ele>544.0</ele><time>2026-03-24T08:52:05.001Z</time></trkpt><trkpt lat="29.879513966049778" lon="-6.085329497028001"><ele>544.0</ele><time>2026-03-24T08:52:06.001Z</time></trkpt><trkpt lat="29.879492424940675" lon="-6.085194208365364"><ele>544.0</ele><time>2026-03-24T08:52:07.001Z</time></trkpt><trkpt lat="29.879465334449183" lon="-6.085057277746625"><ele>544.0</ele><time>2026-03-24T08:52:08.001Z</time></trkpt><trkpt lat="29.879434012566964" lon="-6.084913891089041"><ele>543.75</ele><time>2026-03-24T08:52:09.001Z</time></trkpt><trkpt lat="29.879401987937975" lon="-6.084769917182773"><ele>543.5</ele><time>2026-03-24T08:52:10.001Z</time></trkpt><trkpt lat="29.87937199648362" lon="-6.0846294952859505"><ele>543.25</ele><time>2026-03-24T08:52:11.001Z</time></trkpt><trkpt lat="29.879343364809706" lon="-6.084494770661561"><ele>543.0</ele><time>2026-03-24T08:52:12.001Z</time></trkpt><trkpt lat="29.879320064063883" lon="-6.084359582385338"><ele>543.0</ele><time>2026-03-24T08:52:13.001Z</time></trkpt><trkpt lat="29.87930548545083" lon="-6.084223122589433"><ele>543.0</ele><time>2026-03-24T08:52:14.001Z</time></trkpt><trkpt lat="29.879283183942132" lon="-6.084077124368581"><ele>543.0</ele><time>2026-03-24T08:52:15.001Z</time></trkpt><trkpt lat="29.879261904589175" lon="-6.083929137412024"><ele>543.0</ele><time>2026-03-24T08:52:16.001Z</time></trkpt><trkpt lat="29.87924185585902" lon="-6.083771573285254"><ele>543.0</ele><time>2026-03-24T08:52:17.001Z</time></trkpt><trkpt lat="29.879227852156674" lon="-6.083608161736291"><ele>543.0</ele><time>2026-03-24T08:52:18.001Z</time></trkpt><trkpt lat="29.879219080667195" lon="-6.083439237892015"><ele>543.0</ele><time>2026-03-24T08:52:19.001Z</time></trkpt><trkpt lat="29.87922175408377" lon="-6.083271578497949"><ele>543.0</ele><time>2026-03-24T08:52:20.001Z</time></trkpt><trkpt lat="29.879229173007918" lon="-6.083110395414693"><ele>543.0</ele><time>2026-03-24T08:52:21.001Z</time></trkpt><trkpt lat="29.87924029315168" lon="-6.082951418484174"><ele>543.0</ele><time>2026-03-24T08:52:22.001Z</time></trkpt><trkpt lat="29.879247061746696" lon="-6.0827871923296355"><ele>543.0</ele><time>2026-03-24T08:52:23.001Z</time></trkpt><trkpt lat="29.8792469371959" lon="-6.082613933678102"><ele>543.0</ele><time>2026-03-24T08:52:24.001Z</time></trkpt><trkpt lat="29.879255136534958" lon="-6.082453625227913"><ele>543.0</ele><time>2026-03-24T08:52:25.001Z</time></trkpt><trkpt lat="29.8792565555052" lon="-6.082311139738466"><ele>543.0</ele><time>2026-03-24T08:52:26.001Z</time></trkpt><trkpt lat="29.879259361722156" lon="-6.0821756719025135"><ele>543.0</ele><time>2026-03-24T08:52:27.001Z</time></trkpt><trkpt lat="29.879268387938705" lon="-6.082035831242441"><ele>543.0</ele><time>2026-03-24T08:52:28.001Z</time></trkpt><trkpt lat="29.879274499932844" lon="-6.081897190814724"><ele>543.5</ele><time>2026-03-24T08:52:29.001Z</time></trkpt><trkpt lat="29.879279980172416" lon="-6.081758115762847"><ele>544.0</ele><time>2026-03-24T08:52:30.001Z</time></trkpt><trkpt lat="29.879294388870434" lon="-6.081620922352809"><ele>544.5</ele><time>2026-03-24T08:52:31.001Z</time></trkpt><trkpt lat="29.879306162824772" lon="-6.081479792548961"><ele>545.0</ele><time>2026-03-24T08:52:32.001Z</time></trkpt><trkpt lat="29.879313934492096" lon="-6.081324541337524"><ele>545.0</ele><time>2026-03-24T08:52:33.001Z</time></trkpt><trkpt lat="29.879323836929135" lon="-6.081167083105999"><ele>545.0</ele><time>2026-03-24T08:52:34.001Z</time></trkpt><trkpt lat="29.879325688220053" lon="-6.081013935654279"><ele>545.0</ele><time>2026-03-24T08:52:35.001Z</time></trkpt><trkpt lat="29.879325238514962" lon="-6.080861318446343"><ele>545.0</ele><time>2026-03-24T08:52:36.001Z</time></trkpt><trkpt lat="29.879323245289505" lon="-6.080711043649798"><ele>545.0</ele><time>2026-03-24T08:52:37.001Z</time></trkpt><trkpt lat="29.879326327287014" lon="-6.080562191932884"><ele>545.0</ele><time>2026-03-24T08:52:38.001Z</time></trkpt><trkpt lat="29.879338567451708" lon="-6.080402842899221"><ele>545.0</ele><time>2026-03-24T08:52:39.001Z</time></trkpt><trkpt lat="29.879335880162344" lon="-6.080240311937074"><ele>545.0</ele><time>2026-03-24T08:52:40.001Z</time></trkpt><trkpt lat="29.879336015487787" lon="-6.080070430851289"><ele>544.5</ele><time>2026-03-24T08:52:41.001Z</time></trkpt><trkpt lat="29.87933200470029" lon="-6.079907542036807"><ele>544.0</ele><time>2026-03-24T08:52:42.001Z</time></trkpt><trkpt lat="29.87934070639417" lon="-6.079758981572334"><ele>543.5</ele><time>2026-03-24T08:52:43.001Z</time></trkpt><trkpt lat="29.879362248127713" lon="-6.079613534869946"><ele>543.0</ele><time>2026-03-24T08:52:44.001Z</time></trkpt><trkpt lat="29.87938209023687" lon="-6.079459353926057"><ele>543.0</ele><time>2026-03-24T08:52:45.001Z</time></trkpt><trkpt lat="29.879390438910864" lon="-6.079312390171881"><ele>543.0</ele><time>2026-03-24T08:52:46.001Z</time></trkpt><trkpt lat="29.879386520717183" lon="-6.079177391176671"><ele>543.0</ele><time>2026-03-24T08:52:47.001Z</time></trkpt><trkpt lat="29.87937999619982" lon="-6.07902454912574"><ele>543.0</ele><time>2026-03-24T08:52:48.001Z</time></trkpt><trkpt lat="29.879363403114727" lon="-6.078881794155405"><ele>543.25</ele><time>2026-03-24T08:52:49.001Z</time></trkpt><trkpt lat="29.879340659605813" lon="-6.078747265854124"><ele>543.5</ele><time>2026-03-24T08:52:50.001Z</time></trkpt><trkpt lat="29.87931106956783" lon="-6.078606855595437"><ele>543.75</ele><time>2026-03-24T08:52:51.001Z</time></trkpt><trkpt lat="29.87926644551115" lon="-6.078471507593414"><ele>544.0</ele><time>2026-03-24T08:52:52.001Z</time></trkpt><trkpt lat="29.87921627910346" lon="-6.078339745735343"><ele>543.75</ele><time>2026-03-24T08:52:53.002Z</time></trkpt><trkpt lat="29.87916764801303" lon="-6.078210966924059"><ele>543.5</ele><time>2026-03-24T08:52:54.002Z</time></trkpt><trkpt lat="29.879122104544045" lon="-6.078080377924501"><ele>543.25</ele><time>2026-03-24T08:52:55.002Z</time></trkpt><trkpt lat="29.879094852654415" lon="-6.077945717560227"><ele>543.0</ele><time>2026-03-24T08:52:56.002Z</time></trkpt><trkpt lat="29.879074679582974" lon="-6.077802086903944"><ele>543.0</ele><time>2026-03-24T08:52:57.002Z</time></trkpt><trkpt lat="29.87905896630116" lon="-6.0776498821235645"><ele>543.0</ele><time>2026-03-24T08:52:58.002Z</time></trkpt><trkpt lat="29.879037315016063" lon="-6.077504058295048"><ele>543.0</ele><time>2026-03-24T08:52:59.002Z</time></trkpt><trkpt lat="29.8790209652561" lon="-6.077356950684572"><ele>543.0</ele><time>2026-03-24T08:53:00.002Z</time></trkpt><trkpt lat="29.878994447593758" lon="-6.077206181869034"><ele>543.25</ele><time>2026-03-24T08:53:01.002Z</time></trkpt><trkpt lat="29.878961069813265" lon="-6.077057995518316"><ele>543.5</ele><time>2026-03-24T08:53:02.002Z</time></trkpt><trkpt lat="29.87892583481623" lon="-6.076911525648664"><ele>543.75</ele><time>2026-03-24T08:53:03.002Z</time></trkpt><trkpt lat="29.87889637865738" lon="-6.07676400316878"><ele>544.0</ele><time>2026-03-24T08:53:04.002Z</time></trkpt><trkpt lat="29.878865123933675" lon="-6.076621631645353"><ele>543.75</ele><time>2026-03-24T08:53:05.002Z</time></trkpt><trkpt lat="29.878832776158927" lon="-6.076484687586225"><ele>543.5</ele><time>2026-03-24T08:53:06.002Z</time></trkpt><trkpt lat="29.878805957839187" lon="-6.0763472767861995"><ele>543.25</ele><time>2026-03-24T08:53:07.002Z</time></trkpt><trkpt lat="29.878772453110482" lon="-6.076215089465666"><ele>543.0</ele><time>2026-03-24T08:53:08.002Z</time></trkpt><trkpt lat="29.87874527673208" lon="-6.076080932064489"><ele>543.0</ele><time>2026-03-24T08:53:09.002Z</time></trkpt><trkpt lat="29.878719379938893" lon="-6.075951398612898"><ele>543.0</ele><time>2026-03-24T08:53:10.001Z</time></trkpt><trkpt lat="29.878688564904806" lon="-6.075817518911166"><ele>543.0</ele><time>2026-03-24T08:53:11.001Z</time></trkpt><trkpt lat="29.878660293721794" lon="-6.075664091433237"><ele>543.0</ele><time>2026-03-24T08:53:12.002Z</time></trkpt><trkpt lat="29.87864191985626" lon="-6.075524676206409"><ele>543.5</ele><time>2026-03-24T08:53:13.001Z</time></trkpt><trkpt lat="29.878636788823894" lon="-6.0753797296552525"><ele>544.0</ele><time>2026-03-24T08:53:14.001Z</time></trkpt><trkpt lat="29.87864446109774" lon="-6.075238534945127"><ele>544.5</ele><time>2026-03-24T08:53:15.002Z</time></trkpt><trkpt lat="29.878656155175086" lon="-6.075097362135919"><ele>545.0</ele><time>2026-03-24T08:53:16.001Z</time></trkpt><trkpt lat="29.878659616260066" lon="-6.074951206218191"><ele>544.5</ele><time>2026-03-24T08:53:17.001Z</time></trkpt><trkpt lat="29.878647838063372" lon="-6.074805919796045"><ele>544.0</ele><time>2026-03-24T08:53:18.002Z</time></trkpt><trkpt lat="29.878625414571015" lon="-6.074673987769599"><ele>543.5</ele><time>2026-03-24T08:53:19.002Z</time></trkpt><trkpt lat="29.878590461519014" lon="-6.074542441916455"><ele>543.0</ele><time>2026-03-24T08:53:20.002Z</time></trkpt><trkpt lat="29.87855600726566" lon="-6.074405505297399"><ele>543.0</ele><time>2026-03-24T08:53:21.001Z</time></trkpt><trkpt lat="29.878525324523686" lon="-6.074264860899216"><ele>543.0</ele><time>2026-03-24T08:53:22.001Z</time></trkpt><trkpt lat="29.878501301512273" lon="-6.074117564800683"><ele>543.0</ele><time>2026-03-24T08:53:23.001Z</time></trkpt><trkpt lat="29.878483377464807" lon="-6.073967594882011"><ele>543.0</ele><time>2026-03-24T08:53:24.001Z</time></trkpt><trkpt lat="29.878466342768693" lon="-6.073820618499869"><ele>543.0</ele><time>2026-03-24T08:53:25.001Z</time></trkpt><trkpt lat="29.8784501848034" lon="-6.073678014141025"><ele>543.0</ele><time>2026-03-24T08:53:26.001Z</time></trkpt><trkpt lat="29.878430751006654" lon="-6.0735364650111805"><ele>543.0</ele><time>2026-03-24T08:53:27.001Z</time></trkpt><trkpt lat="29.87840925299349" lon="-6.073394429760238"><ele>543.0</ele><time>2026-03-24T08:53:28.001Z</time></trkpt><trkpt lat="29.87838184728474" lon="-6.073251653291964"><ele>542.75</ele><time>2026-03-24T08:53:29.001Z</time></trkpt><trkpt lat="29.878351436984836" lon="-6.0731031598055685"><ele>542.5</ele><time>2026-03-24T08:53:30.001Z</time></trkpt><trkpt lat="29.878327397629427" lon="-6.072962676338413"><ele>542.25</ele><time>2026-03-24T08:53:31.001Z</time></trkpt><trkpt lat="29.87830360723054" lon="-6.0728293948317775"><ele>542.0</ele><time>2026-03-24T08:53:32.001Z</time></trkpt><trkpt lat="29.878280089243574" lon="-6.072692428232253"><ele>542.0</ele><time>2026-03-24T08:53:33.001Z</time></trkpt><trkpt lat="29.87825703845488" lon="-6.072559025327579"><ele>542.0</ele><time>2026-03-24T08:53:34.001Z</time></trkpt><trkpt lat="29.8782331205386" lon="-6.0724210635371545"><ele>542.0</ele><time>2026-03-24T08:53:35.001Z</time></trkpt><trkpt lat="29.878214511972942" lon="-6.07227803468907"><ele>542.0</ele><time>2026-03-24T08:53:36.001Z</time></trkpt><trkpt lat="29.878192222944378" lon="-6.072130540275142"><ele>541.25</ele><time>2026-03-24T08:53:37.001Z</time></trkpt><trkpt lat="29.878168923362143" lon="-6.071987105702223"><ele>540.5</ele><time>2026-03-24T08:53:38.001Z</time></trkpt><trkpt lat="29.878146616897894" lon="-6.07184447223446"><ele>539.75</ele><time>2026-03-24T08:53:39.001Z</time></trkpt><trkpt lat="29.878125652568535" lon="-6.071696941475513"><ele>539.0</ele><time>2026-03-24T08:53:40.001Z</time></trkpt><trkpt lat="29.878102228487105" lon="-6.071542214162034"><ele>539.0</ele><time>2026-03-24T08:53:41.001Z</time></trkpt><trkpt lat="29.878075517714613" lon="-6.071380069891708"><ele>539.0</ele><time>2026-03-24T08:53:42.001Z</time></trkpt><trkpt lat="29.878052450609918" lon="-6.07122866880526"><ele>539.0</ele><time>2026-03-24T08:53:43.001Z</time></trkpt><trkpt lat="29.878030975990228" lon="-6.071081206910152"><ele>539.0</ele><time>2026-03-24T08:53:44.001Z</time></trkpt><trkpt lat="29.878007512712127" lon="-6.070928747057712"><ele>539.0</ele><time>2026-03-24T08:53:45.001Z</time></trkpt><trkpt lat="29.877980817593713" lon="-6.0707761324792635"><ele>539.0</ele><time>2026-03-24T08:53:46.001Z</time></trkpt><trkpt lat="29.877952522068732" lon="-6.070623606558004"><ele>539.0</ele><time>2026-03-24T08:53:47.001Z</time></trkpt><trkpt lat="29.87792879920363" lon="-6.070470032090353"><ele>539.0</ele><time>2026-03-24T08:53:48.001Z</time></trkpt><trkpt lat="29.87791198258063" lon="-6.070307656640412"><ele>539.6666666666666</ele><time>2026-03-24T08:53:49.001Z</time></trkpt><trkpt lat="29.87788247052826" lon="-6.070141460589611"><ele>540.3333333333334</ele><time>2026-03-24T08:53:50.001Z</time></trkpt><trkpt lat="29.877839283501583" lon="-6.069963224713214"><ele>541.0</ele><time>2026-03-24T08:53:51.001Z</time></trkpt><trkpt lat="29.877788784744" lon="-6.069772261886487"><ele>541.0</ele><time>2026-03-24T08:53:52.001Z</time></trkpt><trkpt lat="29.877722590826604" lon="-6.0696094043630255"><ele>541.0</ele><time>2026-03-24T08:53:53.001Z</time></trkpt><trkpt lat="29.877664036377528" lon="-6.069473112069186"><ele>541.0</ele><time>2026-03-24T08:53:54.001Z</time></trkpt><trkpt lat="29.87761185534709" lon="-6.0693429679893915"><ele>541.0</ele><time>2026-03-24T08:53:55.001Z</time></trkpt><trkpt lat="29.877561931757167" lon="-6.0692094220464545"><ele>541.0</ele><time>2026-03-24T08:53:56.001Z</time></trkpt><trkpt lat="29.877537415185987" lon="-6.069065591712291"><ele>541.0</ele><time>2026-03-24T08:53:57.001Z</time></trkpt><trkpt lat="29.877520596616947" lon="-6.0689273139038535"><ele>541.0</ele><time>2026-03-24T08:53:58.001Z</time></trkpt><trkpt lat="29.877494536882516" lon="-6.068792148212021"><ele>541.0</ele><time>2026-03-24T08:53:59.001Z</time></trkpt><trkpt lat="29.877462057943646" lon="-6.068672946403418"><ele>541.0</ele><time>2026-03-24T08:54:00.001Z</time></trkpt><trkpt lat="29.877430150362308" lon="-6.068559875699083"><ele>541.0</ele><time>2026-03-24T08:54:01.001Z</time></trkpt><trkpt lat="29.8774039689288" lon="-6.068446986248727"><ele>541.0</ele><time>2026-03-24T08:54:02.001Z</time></trkpt><trkpt lat="29.877385922558073" lon="-6.0683281926369785"><ele>541.0</ele><time>2026-03-24T08:54:03.001Z</time></trkpt><trkpt lat="29.877377084611624" lon="-6.068187433427773"><ele>541.0</ele><time>2026-03-24T08:54:04.001Z</time></trkpt><trkpt lat="29.877377392678152" lon="-6.068055367566343"><ele>541.25</ele><time>2026-03-24T08:54:05.001Z</time></trkpt><trkpt lat="29.87738237082424" lon="-6.067925142934913"><ele>541.5</ele><time>2026-03-24T08:54:06.001Z</time></trkpt><trkpt lat="29.877388021455083" lon="-6.067796509808247"><ele>541.75</ele><time>2026-03-24T08:54:07.001Z</time></trkpt><trkpt lat="29.87738828552372" lon="-6.067666359955919"><ele>542.0</ele><time>2026-03-24T08:54:08.002Z</time></trkpt><trkpt lat="29.877379361001427" lon="-6.067525042021512"><ele>541.75</ele><time>2026-03-24T08:54:09.002Z</time></trkpt><trkpt lat="29.877357002872028" lon="-6.067379832197815"><ele>541.5</ele><time>2026-03-24T08:54:10.002Z</time></trkpt><trkpt lat="29.877329880205547" lon="-6.067233863410873"><ele>541.25</ele><time>2026-03-24T08:54:11.002Z</time></trkpt><trkpt lat="29.877306975521968" lon="-6.067085771795524"><ele>541.0</ele><time>2026-03-24T08:54:12.002Z</time></trkpt><trkpt lat="29.877283479966017" lon="-6.0669434822384956"><ele>541.0</ele><time>2026-03-24T08:54:13.002Z</time></trkpt><trkpt lat="29.877259886886133" lon="-6.066798820105189"><ele>541.0</ele><time>2026-03-24T08:54:14.002Z</time></trkpt><trkpt lat="29.877228365207507" lon="-6.066654274076655"><ele>541.0</ele><time>2026-03-24T08:54:15.002Z</time></trkpt><trkpt lat="29.877196722160562" lon="-6.066509754091894"><ele>541.0</ele><time>2026-03-24T08:54:16.002Z</time></trkpt><trkpt lat="29.877159162931903" lon="-6.066373491587549"><ele>540.75</ele><time>2026-03-24T08:54:17.002Z</time></trkpt><trkpt lat="29.877114732942406" lon="-6.0662461655945386"><ele>540.5</ele><time>2026-03-24T08:54:18.002Z</time></trkpt><trkpt lat="29.87706809982397" lon="-6.066116367548302"><ele>540.25</ele><time>2026-03-24T08:54:19.002Z</time></trkpt><trkpt lat="29.877024764098994" lon="-6.06598561956961"><ele>540.0</ele><time>2026-03-24T08:54:20.002Z</time></trkpt><trkpt lat="29.876992374501434" lon="-6.065854729182028"><ele>540.0</ele><time>2026-03-24T08:54:21.002Z</time></trkpt><trkpt lat="29.876972371728733" lon="-6.065714155510474"><ele>540.0</ele><time>2026-03-24T08:54:22.002Z</time></trkpt><trkpt lat="29.876957382842384" lon="-6.0655650613154055"><ele>540.0</ele><time>2026-03-24T08:54:23.002Z</time></trkpt><trkpt lat="29.87694320294799" lon="-6.065407174343976"><ele>540.0</ele><time>2026-03-24T08:54:24.002Z</time></trkpt><trkpt lat="29.87693205140561" lon="-6.065245588466271"><ele>540.0</ele><time>2026-03-24T08:54:25.002Z</time></trkpt><trkpt lat="29.87693609068677" lon="-6.065062765593112"><ele>540.0</ele><time>2026-03-24T08:54:26.002Z</time></trkpt><trkpt lat="29.87694597147049" lon="-6.064874733155128"><ele>540.0</ele><time>2026-03-24T08:54:27.002Z</time></trkpt><trkpt lat="29.876949948332673" lon="-6.064710205030788"><ele>540.0</ele><time>2026-03-24T08:54:28.002Z</time></trkpt><trkpt lat="29.876946882340462" lon="-6.064554033787037"><ele>540.0</ele><time>2026-03-24T08:54:29.002Z</time></trkpt><trkpt lat="29.876944760400875" lon="-6.064388226299206"><ele>540.0</ele><time>2026-03-24T08:54:30.002Z</time></trkpt><trkpt lat="29.876940333896194" lon="-6.064212293429588"><ele>540.0</ele><time>2026-03-24T08:54:31.002Z</time></trkpt><trkpt lat="29.87692757476063" lon="-6.064042005331778"><ele>540.0</ele><time>2026-03-24T08:54:32.002Z</time></trkpt><trkpt lat="29.8769016029174" lon="-6.063886552543518"><ele>540.0</ele><time>2026-03-24T08:54:33.002Z</time></trkpt><trkpt lat="29.876868667766807" lon="-6.063733155463715"><ele>540.0</ele><time>2026-03-24T08:54:34.002Z</time></trkpt><trkpt lat="29.876836437077017" lon="-6.063591055292538"><ele>540.0</ele><time>2026-03-24T08:54:35.002Z</time></trkpt><trkpt lat="29.876797170049876" lon="-6.063442062846825"><ele>539.5</ele><time>2026-03-24T08:54:36.002Z</time></trkpt><trkpt lat="29.87675763872938" lon="-6.063283695194413"><ele>539.0</ele><time>2026-03-24T08:54:37.002Z</time></trkpt><trkpt lat="29.87673086259907" lon="-6.063125946516749"><ele>538.5</ele><time>2026-03-24T08:54:38.002Z</time></trkpt><trkpt lat="29.87672112974648" lon="-6.0629707821371"><ele>538.0</ele><time>2026-03-24T08:54:39.002Z</time></trkpt><trkpt lat="29.87670991481257" lon="-6.0628220567834985"><ele>538.0</ele><time>2026-03-24T08:54:40.002Z</time></trkpt><trkpt lat="29.876690648610218" lon="-6.062667799707456"><ele>538.0</ele><time>2026-03-24T08:54:41.002Z</time></trkpt><trkpt lat="29.87666940953377" lon="-6.0625235072264125"><ele>538.0</ele><time>2026-03-24T08:54:42.002Z</time></trkpt><trkpt lat="29.876637408432998" lon="-6.062378596065363"><ele>538.0</ele><time>2026-03-24T08:54:43.002Z</time></trkpt><trkpt lat="29.876602332033844" lon="-6.062227706116374"><ele>537.75</ele><time>2026-03-24T08:54:44.002Z</time></trkpt><trkpt lat="29.876566957849768" lon="-6.062082914780164"><ele>537.5</ele><time>2026-03-24T08:54:45.002Z</time></trkpt><trkpt lat="29.87652984933603" lon="-6.061950076917634"><ele>537.25</ele><time>2026-03-24T08:54:46.002Z</time></trkpt><trkpt lat="29.876505675727525" lon="-6.061802960614975"><ele>537.0</ele><time>2026-03-24T08:54:47.002Z</time></trkpt><trkpt lat="29.87649485511014" lon="-6.0616552985029175"><ele>537.0</ele><time>2026-03-24T08:54:48.002Z</time></trkpt><trkpt lat="29.8764895373026" lon="-6.061522464952425"><ele>537.0</ele><time>2026-03-24T08:54:49.002Z</time></trkpt><trkpt lat="29.876482864325823" lon="-6.061389970599791"><ele>537.0</ele><time>2026-03-24T08:54:50.002Z</time></trkpt><trkpt lat="29.87646063305865" lon="-6.061264616931848"><ele>537.0</ele><time>2026-03-24T08:54:51.002Z</time></trkpt><trkpt lat="29.87642359322977" lon="-6.0611360869653"><ele>537.0</ele><time>2026-03-24T08:54:52.002Z</time></trkpt><trkpt lat="29.87637753178986" lon="-6.061009015794476"><ele>537.0</ele><time>2026-03-24T08:54:53.002Z</time></trkpt><trkpt lat="29.87633790002456" lon="-6.060870913306306"><ele>537.0</ele><time>2026-03-24T08:54:54.002Z</time></trkpt><trkpt lat="29.87629782622776" lon="-6.060728793737332"><ele>537.0</ele><time>2026-03-24T08:54:55.002Z</time></trkpt><trkpt lat="29.876262406073817" lon="-6.0605917385554"><ele>536.75</ele><time>2026-03-24T08:54:56.002Z</time></trkpt><trkpt lat="29.87623270155189" lon="-6.060452386633265"><ele>536.5</ele><time>2026-03-24T08:54:57.002Z</time></trkpt><trkpt lat="29.876210072174832" lon="-6.060306772728071"><ele>536.25</ele><time>2026-03-24T08:54:58.002Z</time></trkpt><trkpt lat="29.87619498167286" lon="-6.06016111014023"><ele>536.0</ele><time>2026-03-24T08:54:59.002Z</time></trkpt><trkpt lat="29.87617930357188" lon="-6.0600204314237605"><ele>535.5</ele><time>2026-03-24T08:55:00.002Z</time></trkpt><trkpt lat="29.876153166294287" lon="-6.059878853267918"><ele>535.0</ele><time>2026-03-24T08:55:01.002Z</time></trkpt><trkpt lat="29.876123131924572" lon="-6.059738492934651"><ele>534.5</ele><time>2026-03-24T08:55:02.002Z</time></trkpt><trkpt lat="29.876097488284014" lon="-6.059594644580451"><ele>534.0</ele><time>2026-03-24T08:55:03.002Z</time></trkpt><trkpt lat="29.876078823604825" lon="-6.05945431461105"><ele>534.0</ele><time>2026-03-24T08:55:04.002Z</time></trkpt><trkpt lat="29.876062844205425" lon="-6.05931955857994"><ele>534.0</ele><time>2026-03-24T08:55:05.002Z</time></trkpt><trkpt lat="29.8760528591295" lon="-6.059194734669288"><ele>534.0</ele><time>2026-03-24T08:55:06.002Z</time></trkpt><trkpt lat="29.87604512461991" lon="-6.059078379472842"><ele>534.0</ele><time>2026-03-24T08:55:07.002Z</time></trkpt><trkpt lat="29.876028652205992" lon="-6.058964704386397"><ele>534.0</ele><time>2026-03-24T08:55:08.002Z</time></trkpt><trkpt lat="29.875988151967036" lon="-6.05886132369752"><ele>533.4</ele><time>2026-03-24T08:55:09.002Z</time></trkpt><trkpt lat="29.87592698906245" lon="-6.058770456012833"><ele>532.8</ele><time>2026-03-24T08:55:10.002Z</time></trkpt><trkpt lat="29.87583923675431" lon="-6.058704407008485"><ele>532.2</ele><time>2026-03-24T08:55:11.002Z</time></trkpt><trkpt lat="29.875747566814322" lon="-6.058646995294782"><ele>531.6</ele><time>2026-03-24T08:55:12.002Z</time></trkpt><trkpt lat="29.87566189946199" lon="-6.058587468084061"><ele>531.0</ele><time>2026-03-24T08:55:13.002Z</time></trkpt><trkpt lat="29.875595426993293" lon="-6.0585038319699365"><ele>531.0</ele><time>2026-03-24T08:55:14.002Z</time></trkpt><trkpt lat="29.875546489476793" lon="-6.0583922599409865"><ele>531.0</ele><time>2026-03-24T08:55:15.002Z</time></trkpt><trkpt lat="29.875509272811044" lon="-6.058279998373843"><ele>531.0</ele><time>2026-03-24T08:55:16.002Z</time></trkpt><trkpt lat="29.875484016082964" lon="-6.058170787406312"><ele>531.0</ele><time>2026-03-24T08:55:17.002Z</time></trkpt><trkpt lat="29.875469720257072" lon="-6.05807010465812"><ele>531.0</ele><time>2026-03-24T08:55:18.002Z</time></trkpt><trkpt lat="29.875433497932903" lon="-6.057969583232818"><ele>531.0</ele><time>2026-03-24T08:55:19.002Z</time></trkpt><trkpt lat="29.875383938987774" lon="-6.057874626956985"><ele>531.0</ele><time>2026-03-24T08:55:20.002Z</time></trkpt><trkpt lat="29.875342392700787" lon="-6.057758443133667"><ele>531.0</ele><time>2026-03-24T08:55:21.002Z</time></trkpt><trkpt lat="29.87531896961103" lon="-6.057643321344963"><ele>531.0</ele><time>2026-03-24T08:55:22.002Z</time></trkpt><trkpt lat="29.875330165011242" lon="-6.057521134688739"><ele>531.0</ele><time>2026-03-24T08:55:23.002Z</time></trkpt><trkpt lat="29.875345064618294" lon="-6.057405769805196"><ele>531.8</ele><time>2026-03-24T08:55:24.002Z</time></trkpt><trkpt lat="29.87536665455115" lon="-6.057304538154757"><ele>532.6</ele><time>2026-03-24T08:55:25.002Z</time></trkpt><trkpt lat="29.875380630246312" lon="-6.057228004656346"><ele>533.4</ele><time>2026-03-24T08:55:26.002Z</time></trkpt><trkpt lat="29.87543409152708" lon="-6.057100924513875"><ele>534.2</ele><time>2026-03-24T08:55:28.002Z</time></trkpt><trkpt lat="29.875488924785543" lon="-6.0570235941324215"><ele>535.0</ele><time>2026-03-24T08:55:29.002Z</time></trkpt><trkpt lat="29.87555518049638" lon="-6.056940497680474"><ele>535.0</ele><time>2026-03-24T08:55:30.002Z</time></trkpt><trkpt lat="29.87562400510311" lon="-6.056849721251301"><ele>535.0</ele><time>2026-03-24T08:55:31.002Z</time></trkpt><trkpt lat="29.875674816444086" lon="-6.056753305685894"><ele>535.0</ele><time>2026-03-24T08:55:32.002Z</time></trkpt><trkpt lat="29.87570989148176" lon="-6.056661872929712"><ele>535.0</ele><time>2026-03-24T08:55:33.002Z</time></trkpt><trkpt lat="29.875759680119565" lon="-6.056553203843991"><ele>535.0</ele><time>2026-03-24T08:55:34.002Z</time></trkpt><trkpt lat="29.87580858441982" lon="-6.056425583635458"><ele>534.75</ele><time>2026-03-24T08:55:35.002Z</time></trkpt><trkpt lat="29.87585365580065" lon="-6.056284292763226"><ele>534.5</ele><time>2026-03-24T08:55:36.002Z</time></trkpt><trkpt lat="29.875888679022864" lon="-6.05613707459747"><ele>534.25</ele><time>2026-03-24T08:55:37.002Z</time></trkpt><trkpt lat="29.875934511455778" lon="-6.055979848394326"><ele>534.0</ele><time>2026-03-24T08:55:38.002Z</time></trkpt><trkpt lat="29.875981487612478" lon="-6.055833526885272"><ele>533.75</ele><time>2026-03-24T08:55:39.002Z</time></trkpt><trkpt lat="29.8760154133671" lon="-6.055691818419283"><ele>533.5</ele><time>2026-03-24T08:55:40.002Z</time></trkpt><trkpt lat="29.8760417070904" lon="-6.055534995246333"><ele>533.25</ele><time>2026-03-24T08:55:41.002Z</time></trkpt><trkpt lat="29.876060772010007" lon="-6.055378118868959"><ele>533.0</ele><time>2026-03-24T08:55:42.002Z</time></trkpt><trkpt lat="29.876079464543118" lon="-6.05523617607287"><ele>533.0</ele><time>2026-03-24T08:55:43.002Z</time></trkpt><trkpt lat="29.87609186044696" lon="-6.055093240714628"><ele>533.0</ele><time>2026-03-24T08:55:44.002Z</time></trkpt><trkpt lat="29.876096380418208" lon="-6.0549532887372335"><ele>533.0</ele><time>2026-03-24T08:55:45.002Z</time></trkpt><trkpt lat="29.876105292562762" lon="-6.054807029688703"><ele>533.0</ele><time>2026-03-24T08:55:46.002Z</time></trkpt><trkpt lat="29.876108387610735" lon="-6.054666284388208"><ele>532.5</ele><time>2026-03-24T08:55:47.002Z</time></trkpt><trkpt lat="29.87610696128943" lon="-6.054525592074912"><ele>532.0</ele><time>2026-03-24T08:55:48.002Z</time></trkpt><trkpt lat="29.876098436523193" lon="-6.054387103729191"><ele>531.5</ele><time>2026-03-24T08:55:49.002Z</time></trkpt><trkpt lat="29.876083557858497" lon="-6.054260896748746"><ele>531.0</ele><time>2026-03-24T08:55:50.002Z</time></trkpt><trkpt lat="29.87605433552542" lon="-6.054143303060793"><ele>531.25</ele><time>2026-03-24T08:55:51.002Z</time></trkpt><trkpt lat="29.876023375316226" lon="-6.0540271860889"><ele>531.5</ele><time>2026-03-24T08:55:52.002Z</time></trkpt><trkpt lat="29.876013564309275" lon="-6.053901600027085"><ele>531.75</ele><time>2026-03-24T08:55:53.002Z</time></trkpt><trkpt lat="29.876018415091924" lon="-6.053755760821895"><ele>532.0</ele><time>2026-03-24T08:55:54.002Z</time></trkpt><trkpt lat="29.87603886295311" lon="-6.053609901319514"><ele>532.0</ele><time>2026-03-24T08:55:55.002Z</time></trkpt><trkpt lat="29.8760493852077" lon="-6.05348619617758"><ele>532.0</ele><time>2026-03-24T08:55:56.003Z</time></trkpt><trkpt lat="29.876056454470852" lon="-6.053380465169884"><ele>532.0</ele><time>2026-03-24T08:55:57.003Z</time></trkpt><trkpt lat="29.876059091066757" lon="-6.053263545643915"><ele>532.0</ele><time>2026-03-24T08:55:58.003Z</time></trkpt><trkpt lat="29.876061467255926" lon="-6.053149864114638"><ele>532.0</ele><time>2026-03-24T08:55:59.003Z</time></trkpt><trkpt lat="29.876062642698404" lon="-6.053036045308387"><ele>532.0</ele><time>2026-03-24T08:56:00.003Z</time></trkpt><trkpt lat="29.876074794577153" lon="-6.052927210250274"><ele>532.0</ele><time>2026-03-24T08:56:01.003Z</time></trkpt><trkpt lat="29.876094439119253" lon="-6.05283279758613"><ele>532.0</ele><time>2026-03-24T08:56:02.003Z</time></trkpt><trkpt lat="29.876094912190162" lon="-6.052724063556716"><ele>532.0</ele><time>2026-03-24T08:56:03.003Z</time></trkpt><trkpt lat="29.8760690380711" lon="-6.052607453393167"><ele>532.0</ele><time>2026-03-24T08:56:04.003Z</time></trkpt><trkpt lat="29.876048780252177" lon="-6.0524805737432015"><ele>532.25</ele><time>2026-03-24T08:56:05.003Z</time></trkpt><trkpt lat="29.876045648926585" lon="-6.052346547296103"><ele>532.5</ele><time>2026-03-24T08:56:06.003Z</time></trkpt><trkpt lat="29.876059439557277" lon="-6.0521998999605655"><ele>532.75</ele><time>2026-03-24T08:56:07.003Z</time></trkpt><trkpt lat="29.876083507363145" lon="-6.052061139501109"><ele>533.0</ele><time>2026-03-24T08:56:08.003Z</time></trkpt><trkpt lat="29.876112049380588" lon="-6.05192064322869"><ele>533.0</ele><time>2026-03-24T08:56:09.003Z</time></trkpt><trkpt lat="29.876134876738007" lon="-6.0517750395908365"><ele>533.0</ele><time>2026-03-24T08:56:10.003Z</time></trkpt><trkpt lat="29.876143721237707" lon="-6.0516246793839805"><ele>533.0</ele><time>2026-03-24T08:56:11.003Z</time></trkpt><trkpt lat="29.876145555572418" lon="-6.051478214825145"><ele>533.0</ele><time>2026-03-24T08:56:12.003Z</time></trkpt><trkpt lat="29.876158929100413" lon="-6.051331354393721"><ele>533.25</ele><time>2026-03-24T08:56:13.003Z</time></trkpt><trkpt lat="29.876179795817208" lon="-6.05118777920703"><ele>533.5</ele><time>2026-03-24T08:56:14.003Z</time></trkpt><trkpt lat="29.876210843721186" lon="-6.0510456273674995"><ele>533.75</ele><time>2026-03-24T08:56:15.003Z</time></trkpt><trkpt lat="29.876250610966373" lon="-6.050904620467713"><ele>534.0</ele><time>2026-03-24T08:56:16.003Z</time></trkpt><trkpt lat="29.87629004223315" lon="-6.050762025514571"><ele>534.25</ele><time>2026-03-24T08:56:17.003Z</time></trkpt><trkpt lat="29.876328411832127" lon="-6.050617053754989"><ele>534.5</ele><time>2026-03-24T08:56:18.003Z</time></trkpt><trkpt lat="29.876358080711377" lon="-6.050473684789175"><ele>534.75</ele><time>2026-03-24T08:56:19.003Z</time></trkpt><trkpt lat="29.8763937235611" lon="-6.05032509252876"><ele>535.0</ele><time>2026-03-24T08:56:20.003Z</time></trkpt><trkpt lat="29.876432123638352" lon="-6.050168492207953"><ele>535.0</ele><time>2026-03-24T08:56:21.003Z</time></trkpt><trkpt lat="29.876468863757676" lon="-6.050009007139804"><ele>535.0</ele><time>2026-03-24T08:56:22.003Z</time></trkpt><trkpt lat="29.876500298600863" lon="-6.049865393622055"><ele>535.0</ele><time>2026-03-24T08:56:23.003Z</time></trkpt><trkpt lat="29.87652327515664" lon="-6.049726025672345"><ele>535.0</ele><time>2026-03-24T08:56:24.003Z</time></trkpt><trkpt lat="29.876543262918904" lon="-6.049585023701593"><ele>534.6</ele><time>2026-03-24T08:56:25.003Z</time></trkpt><trkpt lat="29.876556141331065" lon="-6.049459511477966"><ele>534.2</ele><time>2026-03-24T08:56:26.003Z</time></trkpt><trkpt lat="29.876568361391396" lon="-6.049348651305759"><ele>533.8</ele><time>2026-03-24T08:56:27.003Z</time></trkpt><trkpt lat="29.87660261651429" lon="-6.049247541693282"><ele>533.4</ele><time>2026-03-24T08:56:28.003Z</time></trkpt><trkpt lat="29.876650019786833" lon="-6.049150567691145"><ele>533.0</ele><time>2026-03-24T08:56:29.003Z</time></trkpt><trkpt lat="29.876684095850486" lon="-6.049065098280414"><ele>533.0</ele><time>2026-03-24T08:56:30.003Z</time></trkpt><trkpt lat="29.87670021055278" lon="-6.048948547085972"><ele>533.0</ele><time>2026-03-24T08:56:31.003Z</time></trkpt><trkpt lat="29.876694909079266" lon="-6.0488198939577655"><ele>533.0</ele><time>2026-03-24T08:56:32.003Z</time></trkpt><trkpt lat="29.87669506356932" lon="-6.0486848187533155"><ele>533.0</ele><time>2026-03-24T08:56:33.003Z</time></trkpt><trkpt lat="29.87669179974984" lon="-6.0485642173179155"><ele>533.0</ele><time>2026-03-24T08:56:34.003Z</time></trkpt><trkpt lat="29.876661745393978" lon="-6.048464854410571"><ele>533.0</ele><time>2026-03-24T08:56:35.003Z</time></trkpt><trkpt lat="29.876618533453048" lon="-6.048363804942009"><ele>533.0</ele><time>2026-03-24T08:56:36.003Z</time></trkpt><trkpt lat="29.87654803211243" lon="-6.048262553463879"><ele>533.0</ele><time>2026-03-24T08:56:37.003Z</time></trkpt><trkpt lat="29.87647690374446" lon="-6.048149221229593"><ele>533.0</ele><time>2026-03-24T08:56:38.003Z</time></trkpt><trkpt lat="29.876424276511877" lon="-6.048017605599815"><ele>533.25</ele><time>2026-03-24T08:56:39.003Z</time></trkpt><trkpt lat="29.876372536662934" lon="-6.047893202433686"><ele>533.5</ele><time>2026-03-24T08:56:40.003Z</time></trkpt><trkpt lat="29.87633399374351" lon="-6.047757576800953"><ele>533.75</ele><time>2026-03-24T08:56:41.003Z</time></trkpt><trkpt lat="29.8763056946518" lon="-6.047602696665465"><ele>534.0</ele><time>2026-03-24T08:56:42.003Z</time></trkpt><trkpt lat="29.87628695715656" lon="-6.047444800701056"><ele>533.5</ele><time>2026-03-24T08:56:43.003Z</time></trkpt><trkpt lat="29.876261516831306" lon="-6.04728730909319"><ele>533.0</ele><time>2026-03-24T08:56:44.003Z</time></trkpt><trkpt lat="29.8762485580346" lon="-6.047124382861948"><ele>532.5</ele><time>2026-03-24T08:56:45.003Z</time></trkpt><trkpt lat="29.87623601489672" lon="-6.046966030517154"><ele>532.0</ele><time>2026-03-24T08:56:46.003Z</time></trkpt><trkpt lat="29.876217225272487" lon="-6.046810983147943"><ele>532.0</ele><time>2026-03-24T08:56:47.003Z</time></trkpt><trkpt lat="29.876195265287194" lon="-6.046666310492198"><ele>532.0</ele><time>2026-03-24T08:56:48.003Z</time></trkpt><trkpt lat="29.876169936834668" lon="-6.046515337243258"><ele>532.0</ele><time>2026-03-24T08:56:49.003Z</time></trkpt><trkpt lat="29.876149287929262" lon="-6.046362188070681"><ele>532.0</ele><time>2026-03-24T08:56:50.003Z</time></trkpt><trkpt lat="29.876130008098812" lon="-6.04620573986629"><ele>532.0</ele><time>2026-03-24T08:56:51.003Z</time></trkpt><trkpt lat="29.876107033239556" lon="-6.046046435609419"><ele>532.0</ele><time>2026-03-24T08:56:52.003Z</time></trkpt><trkpt lat="29.87607211600052" lon="-6.045893453292836"><ele>532.0</ele><time>2026-03-24T08:56:53.003Z</time></trkpt><trkpt lat="29.876038892239364" lon="-6.045736562559125"><ele>532.0</ele><time>2026-03-24T08:56:54.003Z</time></trkpt><trkpt lat="29.876008801768258" lon="-6.045582425297418"><ele>532.0</ele><time>2026-03-24T08:56:55.003Z</time></trkpt><trkpt lat="29.875976602701673" lon="-6.045436188806777"><ele>532.0</ele><time>2026-03-24T08:56:56.003Z</time></trkpt><trkpt lat="29.87594632847218" lon="-6.045291719124342"><ele>532.0</ele><time>2026-03-24T08:56:57.003Z</time></trkpt><trkpt lat="29.87591908586407" lon="-6.045144157101781"><ele>532.0</ele><time>2026-03-24T08:56:58.003Z</time></trkpt><trkpt lat="29.87588649210518" lon="-6.045001458113989"><ele>531.25</ele><time>2026-03-24T08:56:59.003Z</time></trkpt><trkpt lat="29.87585560884738" lon="-6.044871645985724"><ele>530.5</ele><time>2026-03-24T08:57:00.003Z</time></trkpt><trkpt lat="29.87582294982103" lon="-6.044743522873998"><ele>529.75</ele><time>2026-03-24T08:57:01.003Z</time></trkpt><trkpt lat="29.87579224662383" lon="-6.044611010723491"><ele>529.0</ele><time>2026-03-24T08:57:02.003Z</time></trkpt><trkpt lat="29.875762526259035" lon="-6.044473555301673"><ele>529.0</ele><time>2026-03-24T08:57:03.003Z</time></trkpt><trkpt lat="29.87572440737022" lon="-6.0443383741693655"><ele>529.0</ele><time>2026-03-24T08:57:04.003Z</time></trkpt><trkpt lat="29.87569429095222" lon="-6.044201494215928"><ele>529.0</ele><time>2026-03-24T08:57:05.003Z</time></trkpt><trkpt lat="29.875663237048045" lon="-6.044055888459707"><ele>529.0</ele><time>2026-03-24T08:57:06.003Z</time></trkpt><trkpt lat="29.87564191510357" lon="-6.043913189097691"><ele>529.25</ele><time>2026-03-24T08:57:07.003Z</time></trkpt><trkpt lat="29.87562065433147" lon="-6.043761994218696"><ele>529.5</ele><time>2026-03-24T08:57:08.003Z</time></trkpt><trkpt lat="29.87558288372385" lon="-6.0436177152132675"><ele>529.75</ele><time>2026-03-24T08:57:09.003Z</time></trkpt><trkpt lat="29.875538427601597" lon="-6.043477841455781"><ele>530.0</ele><time>2026-03-24T08:57:10.003Z</time></trkpt><trkpt lat="29.87550268913699" lon="-6.043344753497396"><ele>530.0</ele><time>2026-03-24T08:57:11.003Z</time></trkpt><trkpt lat="29.875477298313296" lon="-6.043212234651035"><ele>530.0</ele><time>2026-03-24T08:57:12.003Z</time></trkpt><trkpt lat="29.87544787863429" lon="-6.043069909720652"><ele>530.0</ele><time>2026-03-24T08:57:13.003Z</time></trkpt><trkpt lat="29.8754147440182" lon="-6.042935082884748"><ele>530.0</ele><time>2026-03-24T08:57:14.003Z</time></trkpt><trkpt lat="29.875363928685275" lon="-6.042807323464657"><ele>530.0</ele><time>2026-03-24T08:57:15.003Z</time></trkpt><trkpt lat="29.875307113797014" lon="-6.042689490841323"><ele>530.0</ele><time>2026-03-24T08:57:16.003Z</time></trkpt><trkpt lat="29.875252621777975" lon="-6.042573911479032"><ele>530.0</ele><time>2026-03-24T08:57:17.003Z</time></trkpt><trkpt lat="29.875208082757243" lon="-6.042458164582506"><ele>530.0</ele><time>2026-03-24T08:57:18.003Z</time></trkpt><trkpt lat="29.875173505691354" lon="-6.042337561564946"><ele>530.0</ele><time>2026-03-24T08:57:19.003Z</time></trkpt><trkpt lat="29.875131233916314" lon="-6.042223529025991"><ele>530.0</ele><time>2026-03-24T08:57:20.003Z</time></trkpt><trkpt lat="29.875086265908056" lon="-6.0421000963414855"><ele>530.0</ele><time>2026-03-24T08:57:21.002Z</time></trkpt><trkpt lat="29.875041140719585" lon="-6.041981517059439"><ele>530.0</ele><time>2026-03-24T08:57:22.001Z</time></trkpt><trkpt lat="29.87501468704344" lon="-6.0418534434918705"><ele>529.75</ele><time>2026-03-24T08:57:23.001Z</time></trkpt><trkpt lat="29.875011720557797" lon="-6.041714511616418"><ele>529.5</ele><time>2026-03-24T08:57:24.002Z</time></trkpt><trkpt lat="29.87499055228319" lon="-6.041581983973362"><ele>529.25</ele><time>2026-03-24T08:57:25.002Z</time></trkpt><trkpt lat="29.874952232644183" lon="-6.0414362371310935"><ele>529.0</ele><time>2026-03-24T08:57:26.002Z</time></trkpt><trkpt lat="29.874924807328124" lon="-6.041287997873281"><ele>529.0</ele><time>2026-03-24T08:57:27.002Z</time></trkpt><trkpt lat="29.874898721091366" lon="-6.041145164211536"><ele>529.0</ele><time>2026-03-24T08:57:28.002Z</time></trkpt><trkpt lat="29.8748687038217" lon="-6.041014245826969"><ele>529.0</ele><time>2026-03-24T08:57:29.002Z</time></trkpt><trkpt lat="29.8748045761772" lon="-6.0408937872911395"><ele>529.0</ele><time>2026-03-24T08:57:30.002Z</time></trkpt><trkpt lat="29.874734436905307" lon="-6.040793838545452"><ele>529.0</ele><time>2026-03-24T08:57:31.002Z</time></trkpt><trkpt lat="29.874665875217637" lon="-6.040717245710299"><ele>529.0</ele><time>2026-03-24T08:57:32.002Z</time></trkpt><trkpt lat="29.87460316323688" lon="-6.04064023004935"><ele>529.0</ele><time>2026-03-24T08:57:33.002Z</time></trkpt><trkpt lat="29.874551995109147" lon="-6.040552939714643"><ele>529.0</ele><time>2026-03-24T08:57:34.001Z</time></trkpt><trkpt lat="29.874511925931582" lon="-6.0404529797593"><ele>529.0</ele><time>2026-03-24T08:57:35.001Z</time></trkpt><trkpt lat="29.874477639627273" lon="-6.040315596826195"><ele>529.0</ele><time>2026-03-24T08:57:36.001Z</time></trkpt><trkpt lat="29.874441826105617" lon="-6.040192927862342"><ele>529.0</ele><time>2026-03-24T08:57:37.001Z</time></trkpt><trkpt lat="29.874405056686605" lon="-6.040061947368435"><ele>529.0</ele><time>2026-03-24T08:57:38.001Z</time></trkpt><trkpt lat="29.874370489632472" lon="-6.039929402025678"><ele>529.0</ele><time>2026-03-24T08:57:39.001Z</time></trkpt><trkpt lat="29.874327745496736" lon="-6.039773461368934"><ele>529.0</ele><time>2026-03-24T08:57:40.001Z</time></trkpt><trkpt lat="29.874289789907962" lon="-6.039624187415867"><ele>529.0</ele><time>2026-03-24T08:57:41.001Z</time></trkpt><trkpt lat="29.874251978653433" lon="-6.039504498512392"><ele>529.0</ele><time>2026-03-24T08:57:42.001Z</time></trkpt><trkpt lat="29.874214454707843" lon="-6.039400011579637"><ele>529.0</ele><time>2026-03-24T08:57:43.001Z</time></trkpt><trkpt lat="29.87417213923394" lon="-6.0392854116907015"><ele>529.0</ele><time>2026-03-24T08:57:44.001Z</time></trkpt><trkpt lat="29.874139677275014" lon="-6.0391659723167885"><ele>529.0</ele><time>2026-03-24T08:57:45.001Z</time></trkpt><trkpt lat="29.874114776081747" lon="-6.039050961226274"><ele>529.0</ele><time>2026-03-24T08:57:46.001Z</time></trkpt><trkpt lat="29.87409441423096" lon="-6.038938222898129"><ele>529.0</ele><time>2026-03-24T08:57:47.001Z</time></trkpt><trkpt lat="29.874078575818597" lon="-6.038822080941295"><ele>529.0</ele><time>2026-03-24T08:57:48.001Z</time></trkpt><trkpt lat="29.87404936252543" lon="-6.03871084425469"><ele>529.0</ele><time>2026-03-24T08:57:49.001Z</time></trkpt><trkpt lat="29.874017480975187" lon="-6.03859114852594"><ele>529.0</ele><time>2026-03-24T08:57:50.001Z</time></trkpt><trkpt lat="29.873984210663284" lon="-6.038459467912294"><ele>529.0</ele><time>2026-03-24T08:57:51.001Z</time></trkpt><trkpt lat="29.87394236615508" lon="-6.038328321878569"><ele>529.0</ele><time>2026-03-24T08:57:52.001Z</time></trkpt><trkpt lat="29.87390242667403" lon="-6.0381776785267585"><ele>529.25</ele><time>2026-03-24T08:57:53.001Z</time></trkpt><trkpt lat="29.873871235276024" lon="-6.038027719849185"><ele>529.5</ele><time>2026-03-24T08:57:54.001Z</time></trkpt><trkpt lat="29.873844664326096" lon="-6.037872099987545"><ele>529.75</ele><time>2026-03-24T08:57:55.001Z</time></trkpt><trkpt lat="29.873814009394422" lon="-6.037709052785958"><ele>530.0</ele><time>2026-03-24T08:57:56.001Z</time></trkpt><trkpt lat="29.873777038296943" lon="-6.037549489332944"><ele>530.3333333333333</ele><time>2026-03-24T08:57:57.001Z</time></trkpt><trkpt lat="29.873744413459903" lon="-6.0373866860184835"><ele>530.6666666666666</ele><time>2026-03-24T08:57:58.001Z</time></trkpt><trkpt lat="29.873725746200286" lon="-6.037208238956902"><ele>531.0</ele><time>2026-03-24T08:57:59.001Z</time></trkpt><trkpt lat="29.87371714760282" lon="-6.0370252908535464"><ele>531.0</ele><time>2026-03-24T08:58:00.001Z</time></trkpt><trkpt lat="29.87372313754349" lon="-6.036839147873166"><ele>531.0</ele><time>2026-03-24T08:58:01.001Z</time></trkpt><trkpt lat="29.873731790075183" lon="-6.036650089199287"><ele>531.0</ele><time>2026-03-24T08:58:02.001Z</time></trkpt><trkpt lat="29.87374567071366" lon="-6.036471434833725"><ele>530.5</ele><time>2026-03-24T08:58:03.001Z</time></trkpt><trkpt lat="29.87376943621511" lon="-6.036291210172347"><ele>530.0</ele><time>2026-03-24T08:58:04.001Z</time></trkpt><trkpt lat="29.87379491246518" lon="-6.03612515814489"><ele>529.5</ele><time>2026-03-24T08:58:05.001Z</time></trkpt><trkpt lat="29.873799118286968" lon="-6.035969534953017"><ele>529.0</ele><time>2026-03-24T08:58:06.001Z</time></trkpt><trkpt lat="29.87381058918184" lon="-6.035798863158355"><ele>528.75</ele><time>2026-03-24T08:58:07.001Z</time></trkpt><trkpt lat="29.87382246433025" lon="-6.0356349734570856"><ele>528.5</ele><time>2026-03-24T08:58:08.001Z</time></trkpt><trkpt lat="29.87382269583572" lon="-6.035477487586565"><ele>528.25</ele><time>2026-03-24T08:58:09.001Z</time></trkpt><trkpt lat="29.8738185937838" lon="-6.035321350125586"><ele>528.0</ele><time>2026-03-24T08:58:10.001Z</time></trkpt><trkpt lat="29.87382022312149" lon="-6.0351581301067725"><ele>528.0</ele><time>2026-03-24T08:58:11.001Z</time></trkpt><trkpt lat="29.873821027615197" lon="-6.034998058813834"><ele>528.0</ele><time>2026-03-24T08:58:12.001Z</time></trkpt><trkpt lat="29.87382276147133" lon="-6.0348443299225165"><ele>528.0</ele><time>2026-03-24T08:58:13.001Z</time></trkpt><trkpt lat="29.8738278891783" lon="-6.0346827444571725"><ele>528.0</ele><time>2026-03-24T08:58:14.001Z</time></trkpt><trkpt lat="29.873832141074722" lon="-6.034524410377362"><ele>527.5</ele><time>2026-03-24T08:58:15.001Z</time></trkpt><trkpt lat="29.873847000848663" lon="-6.034364101320216"><ele>527.0</ele><time>2026-03-24T08:58:16.001Z</time></trkpt><trkpt lat="29.873873701685746" lon="-6.034206467627123"><ele>526.5</ele><time>2026-03-24T08:58:17.001Z</time></trkpt><trkpt lat="29.873903968181576" lon="-6.034044440897828"><ele>526.0</ele><time>2026-03-24T08:58:18.001Z</time></trkpt><trkpt lat="29.87393405556639" lon="-6.033879500560877"><ele>525.5</ele><time>2026-03-24T08:58:19.001Z</time></trkpt><trkpt lat="29.873967393760594" lon="-6.0337118721553225"><ele>525.0</ele><time>2026-03-24T08:58:20.001Z</time></trkpt><trkpt lat="29.873996243803948" lon="-6.033546119581681"><ele>524.5</ele><time>2026-03-24T08:58:21.001Z</time></trkpt><trkpt lat="29.874020005633778" lon="-6.033384927273149"><ele>524.0</ele><time>2026-03-24T08:58:22.001Z</time></trkpt><trkpt lat="29.87404565976597" lon="-6.033210720569008"><ele>525.25</ele><time>2026-03-24T08:58:23.001Z</time></trkpt><trkpt lat="29.87407748680825" lon="-6.03304155392882"><ele>526.5</ele><time>2026-03-24T08:58:24.001Z</time></trkpt><trkpt lat="29.874107667014158" lon="-6.032876119408802"><ele>527.75</ele><time>2026-03-24T08:58:25.001Z</time></trkpt><trkpt lat="29.87412856293677" lon="-6.032713535544273"><ele>529.0</ele><time>2026-03-24T08:58:26.001Z</time></trkpt><trkpt lat="29.87415088489155" lon="-6.032550067338647"><ele>528.75</ele><time>2026-03-24T08:58:27.001Z</time></trkpt><trkpt lat="29.874176103560533" lon="-6.0323947724628475"><ele>528.5</ele><time>2026-03-24T08:58:28.001Z</time></trkpt><trkpt lat="29.874208547233525" lon="-6.032231473795848"><ele>528.25</ele><time>2026-03-24T08:58:29.001Z</time></trkpt><trkpt lat="29.87424079126854" lon="-6.032080975140129"><ele>528.0</ele><time>2026-03-24T08:58:30.001Z</time></trkpt><trkpt lat="29.874276797481862" lon="-6.031933298542574"><ele>528.0</ele><time>2026-03-24T08:58:31.001Z</time></trkpt><trkpt lat="29.87429456024591" lon="-6.03177778088844"><ele>528.0</ele><time>2026-03-24T08:58:32.001Z</time></trkpt><trkpt lat="29.87431420112507" lon="-6.0316283915840145"><ele>528.0</ele><time>2026-03-24T08:58:33.002Z</time></trkpt><trkpt lat="29.87433182165725" lon="-6.031480169446883"><ele>528.0</ele><time>2026-03-24T08:58:34.002Z</time></trkpt><trkpt lat="29.874347935476944" lon="-6.031334702306283"><ele>528.0</ele><time>2026-03-24T08:58:35.002Z</time></trkpt><trkpt lat="29.874376285717446" lon="-6.031192351015603"><ele>528.0</ele><time>2026-03-24T08:58:36.002Z</time></trkpt><trkpt lat="29.87442174812052" lon="-6.031062708108522"><ele>528.0</ele><time>2026-03-24T08:58:37.002Z</time></trkpt><trkpt lat="29.87446653440822" lon="-6.030958555286808"><ele>528.0</ele><time>2026-03-24T08:58:38.002Z</time></trkpt><trkpt lat="29.874475191676105" lon="-6.030834259440573"><ele>528.0</ele><time>2026-03-24T08:58:39.002Z</time></trkpt><trkpt lat="29.874447198400343" lon="-6.030704661454518"><ele>528.0</ele><time>2026-03-24T08:58:40.002Z</time></trkpt><trkpt lat="29.874400626234863" lon="-6.0305715409304765"><ele>528.0</ele><time>2026-03-24T08:58:41.002Z</time></trkpt><trkpt lat="29.874361402633674" lon="-6.030437509915429"><ele>528.0</ele><time>2026-03-24T08:58:42.002Z</time></trkpt><trkpt lat="29.874329839237536" lon="-6.030284029119417"><ele>528.0</ele><time>2026-03-24T08:58:43.002Z</time></trkpt><trkpt lat="29.874299254461583" lon="-6.030130616499642"><ele>528.0</ele><time>2026-03-24T08:58:44.002Z</time></trkpt><trkpt lat="29.87427582471973" lon="-6.029980430552516"><ele>528.0</ele><time>2026-03-24T08:58:45.002Z</time></trkpt><trkpt lat="29.874266702493365" lon="-6.029844820646575"><ele>528.0</ele><time>2026-03-24T08:58:46.002Z</time></trkpt><trkpt lat="29.874257520413952" lon="-6.029715019181979"><ele>527.75</ele><time>2026-03-24T08:58:47.002Z</time></trkpt><trkpt lat="29.874233601231694" lon="-6.029595724679851"><ele>527.5</ele><time>2026-03-24T08:58:48.002Z</time></trkpt><trkpt lat="29.874193018176822" lon="-6.029467480234199"><ele>527.25</ele><time>2026-03-24T08:58:49.002Z</time></trkpt><trkpt lat="29.874154842209386" lon="-6.029340419142501"><ele>527.0</ele><time>2026-03-24T08:58:50.002Z</time></trkpt><trkpt lat="29.874114635527928" lon="-6.029223530895028"><ele>527.25</ele><time>2026-03-24T08:58:51.002Z</time></trkpt><trkpt lat="29.874077077279242" lon="-6.029088233226843"><ele>527.5</ele><time>2026-03-24T08:58:52.002Z</time></trkpt><trkpt lat="29.874043506762295" lon="-6.028934623560442"><ele>527.75</ele><time>2026-03-24T08:58:53.002Z</time></trkpt><trkpt lat="29.874016666866883" lon="-6.028793103597706"><ele>528.0</ele><time>2026-03-24T08:58:54.002Z</time></trkpt><trkpt lat="29.874001559072155" lon="-6.028654989624551"><ele>528.0</ele><time>2026-03-24T08:58:55.002Z</time></trkpt><trkpt lat="29.873988360468175" lon="-6.0285184778163625"><ele>528.0</ele><time>2026-03-24T08:58:56.002Z</time></trkpt><trkpt lat="29.873976030566972" lon="-6.028369787414141"><ele>528.0</ele><time>2026-03-24T08:58:57.002Z</time></trkpt><trkpt lat="29.873955501269172" lon="-6.02823620650405"><ele>528.0</ele><time>2026-03-24T08:58:58.002Z</time></trkpt><trkpt lat="29.87392924664322" lon="-6.028121644158095"><ele>528.0</ele><time>2026-03-24T08:58:59.002Z</time></trkpt><trkpt lat="29.873866037686597" lon="-6.02802393841376"><ele>528.0</ele><time>2026-03-24T08:59:00.002Z</time></trkpt><trkpt lat="29.87380202123119" lon="-6.027932488014799"><ele>528.0</ele><time>2026-03-24T08:59:01.002Z</time></trkpt><trkpt lat="29.87374292908864" lon="-6.0278286987680065"><ele>528.0</ele><time>2026-03-24T08:59:02.002Z</time></trkpt><trkpt lat="29.87368136047574" lon="-6.027719045682676"><ele>528.0</ele><time>2026-03-24T08:59:03.002Z</time></trkpt><trkpt lat="29.873603976339137" lon="-6.027620337074746"><ele>528.0</ele><time>2026-03-24T08:59:04.002Z</time></trkpt><trkpt lat="29.873524576498465" lon="-6.027525127674398"><ele>528.0</ele><time>2026-03-24T08:59:05.002Z</time></trkpt><trkpt lat="29.873465689961073" lon="-6.0273916051505845"><ele>528.0</ele><time>2026-03-24T08:59:06.002Z</time></trkpt><trkpt lat="29.873425826016817" lon="-6.027240862894911"><ele>528.0</ele><time>2026-03-24T08:59:07.002Z</time></trkpt><trkpt lat="29.873386594788016" lon="-6.027090754415355"><ele>527.75</ele><time>2026-03-24T08:59:08.002Z</time></trkpt><trkpt lat="29.87333651368001" lon="-6.026950188965849"><ele>527.5</ele><time>2026-03-24T08:59:09.002Z</time></trkpt><trkpt lat="29.873275664846666" lon="-6.026807608373159"><ele>527.25</ele><time>2026-03-24T08:59:10.002Z</time></trkpt><trkpt lat="29.87321366878545" lon="-6.026665410312607"><ele>527.0</ele><time>2026-03-24T08:59:11.002Z</time></trkpt><trkpt lat="29.873155509371482" lon="-6.0265331845931875"><ele>527.5</ele><time>2026-03-24T08:59:12.002Z</time></trkpt><trkpt lat="29.873099007178805" lon="-6.0264178495155445"><ele>528.0</ele><time>2026-03-24T08:59:13.002Z</time></trkpt><trkpt lat="29.873029631410933" lon="-6.026306995078075"><ele>528.5</ele><time>2026-03-24T08:59:14.002Z</time></trkpt><trkpt lat="29.872946404348326" lon="-6.0262096547357515"><ele>529.0</ele><time>2026-03-24T08:59:15.002Z</time></trkpt><trkpt lat="29.872848743952556" lon="-6.026110145870355"><ele>529.0</ele><time>2026-03-24T08:59:16.002Z</time></trkpt><trkpt lat="29.872744983009408" lon="-6.026025079717793"><ele>529.0</ele><time>2026-03-24T08:59:17.002Z</time></trkpt><trkpt lat="29.872636764209574" lon="-6.0259311676318195"><ele>529.0</ele><time>2026-03-24T08:59:18.002Z</time></trkpt><trkpt lat="29.872522774570804" lon="-6.025846979251702"><ele>529.0</ele><time>2026-03-24T08:59:19.002Z</time></trkpt><trkpt lat="29.87241684539014" lon="-6.025782262757205"><ele>528.5</ele><time>2026-03-24T08:59:20.002Z</time></trkpt><trkpt lat="29.872316497056453" lon="-6.025726233522502"><ele>528.0</ele><time>2026-03-24T08:59:21.002Z</time></trkpt><trkpt lat="29.872197901607965" lon="-6.025690179455427"><ele>527.5</ele><time>2026-03-24T08:59:22.002Z</time></trkpt><trkpt lat="29.872060251903516" lon="-6.025678665509792"><ele>527.0</ele><time>2026-03-24T08:59:23.002Z</time></trkpt><trkpt lat="29.871944802763696" lon="-6.025645562724138"><ele>527.0</ele><time>2026-03-24T08:59:24.002Z</time></trkpt><trkpt lat="29.871839778778597" lon="-6.025606927764241"><ele>527.0</ele><time>2026-03-24T08:59:25.002Z</time></trkpt><trkpt lat="29.871737924059538" lon="-6.02555462880659"><ele>527.0</ele><time>2026-03-24T08:59:26.002Z</time></trkpt><trkpt lat="29.871639971353357" lon="-6.025481814390275"><ele>527.0</ele><time>2026-03-24T08:59:27.002Z</time></trkpt><trkpt lat="29.87154639259132" lon="-6.025379836037886"><ele>527.0</ele><time>2026-03-24T08:59:28.002Z</time></trkpt><trkpt lat="29.87146053535367" lon="-6.025278677275674"><ele>527.0</ele><time>2026-03-24T08:59:29.002Z</time></trkpt><trkpt lat="29.87137036513729" lon="-6.025177106251168"><ele>527.0</ele><time>2026-03-24T08:59:30.003Z</time></trkpt><trkpt lat="29.871301865059944" lon="-6.0250608828645555"><ele>527.0</ele><time>2026-03-24T08:59:31.002Z</time></trkpt><trkpt lat="29.87122156404482" lon="-6.02495599253039"><ele>526.25</ele><time>2026-03-24T08:59:32.002Z</time></trkpt><trkpt lat="29.87113072802682" lon="-6.024849815986443"><ele>525.5</ele><time>2026-03-24T08:59:33.002Z</time></trkpt><trkpt lat="29.871036988669474" lon="-6.024732396923753"><ele>524.75</ele><time>2026-03-24T08:59:34.001Z</time></trkpt><trkpt lat="29.87093849631495" lon="-6.024626224395851"><ele>524.0</ele><time>2026-03-24T08:59:35.001Z</time></trkpt><trkpt lat="29.870842436061995" lon="-6.024518144408362"><ele>523.75</ele><time>2026-03-24T08:59:36.002Z</time></trkpt><trkpt lat="29.87075020851791" lon="-6.024411076803085"><ele>523.5</ele><time>2026-03-24T08:59:37.002Z</time></trkpt><trkpt lat="29.870650786348406" lon="-6.024305928220294"><ele>523.25</ele><time>2026-03-24T08:59:38.002Z</time></trkpt><trkpt lat="29.870555034118027" lon="-6.024187729566628"><ele>523.0</ele><time>2026-03-24T08:59:39.002Z</time></trkpt><trkpt lat="29.870455984334523" lon="-6.024075334364972"><ele>523.0</ele><time>2026-03-24T08:59:40.002Z</time></trkpt><trkpt lat="29.870337884270086" lon="-6.0239690095795"><ele>523.0</ele><time>2026-03-24T08:59:41.002Z</time></trkpt><trkpt lat="29.870229261525658" lon="-6.023871918782668"><ele>523.0</ele><time>2026-03-24T08:59:42.002Z</time></trkpt><trkpt lat="29.87012847486046" lon="-6.023785327431885"><ele>523.0</ele><time>2026-03-24T08:59:43.002Z</time></trkpt><trkpt lat="29.87003568594776" lon="-6.023702965754329"><ele>523.25</ele><time>2026-03-24T08:59:44.002Z</time></trkpt><trkpt lat="29.869936691767293" lon="-6.023615177586325"><ele>523.5</ele><time>2026-03-24T08:59:45.002Z</time></trkpt><trkpt lat="29.86983686012604" lon="-6.023531298509292"><ele>523.75</ele><time>2026-03-24T08:59:46.002Z</time></trkpt><trkpt lat="29.869736188437287" lon="-6.023435912798542"><ele>524.0</ele><time>2026-03-24T08:59:47.002Z</time></trkpt><trkpt lat="29.86963328851721" lon="-6.023326340262275"><ele>524.25</ele><time>2026-03-24T08:59:48.002Z</time></trkpt><trkpt lat="29.86953600524229" lon="-6.023212863891807"><ele>524.5</ele><time>2026-03-24T08:59:49.002Z</time></trkpt><trkpt lat="29.86945523940238" lon="-6.023104012663686"><ele>524.75</ele><time>2026-03-24T08:59:50.002Z</time></trkpt><trkpt lat="29.869372590920353" lon="-6.022985048554695"><ele>525.0</ele><time>2026-03-24T08:59:51.002Z</time></trkpt><trkpt lat="29.869293770388666" lon="-6.022849925195587"><ele>524.5</ele><time>2026-03-24T08:59:52.002Z</time></trkpt><trkpt lat="29.869223340478023" lon="-6.022721249205469"><ele>524.0</ele><time>2026-03-24T08:59:53.002Z</time></trkpt><trkpt lat="29.869160026143128" lon="-6.022598555819572"><ele>523.5</ele><time>2026-03-24T08:59:54.002Z</time></trkpt><trkpt lat="29.869105012688916" lon="-6.022480169438934"><ele>523.0</ele><time>2026-03-24T08:59:55.002Z</time></trkpt><trkpt lat="29.869060720689866" lon="-6.022351419768041"><ele>523.0</ele><time>2026-03-24T08:59:56.002Z</time></trkpt><trkpt lat="29.86902554043197" lon="-6.022211377907498"><ele>523.0</ele><time>2026-03-24T08:59:57.002Z</time></trkpt><trkpt lat="29.86900657186284" lon="-6.022061727519989"><ele>523.0</ele><time>2026-03-24T08:59:58.002Z</time></trkpt><trkpt lat="29.8689792914059" lon="-6.021915526745938"><ele>523.0</ele><time>2026-03-24T08:59:59.002Z</time></trkpt><trkpt lat="29.86895452778871" lon="-6.021765276623161"><ele>522.75</ele><time>2026-03-24T09:00:00.002Z</time></trkpt><trkpt lat="29.868928784886812" lon="-6.0216184826607115"><ele>522.5</ele><time>2026-03-24T09:00:01.002Z</time></trkpt><trkpt lat="29.868911416755033" lon="-6.02145797031649"><ele>522.25</ele><time>2026-03-24T09:00:02.002Z</time></trkpt><trkpt lat="29.86888251331519" lon="-6.021289305275206"><ele>522.0</ele><time>2026-03-24T09:00:03.002Z</time></trkpt><trkpt lat="29.86885015051671" lon="-6.021118964978803"><ele>522.0</ele><time>2026-03-24T09:00:04.002Z</time></trkpt><trkpt lat="29.86882305930255" lon="-6.020956706248039"><ele>522.0</ele><time>2026-03-24T09:00:05.002Z</time></trkpt><trkpt lat="29.86879679815414" lon="-6.020806876295771"><ele>522.0</ele><time>2026-03-24T09:00:06.002Z</time></trkpt><trkpt lat="29.868767081804886" lon="-6.020659572121205"><ele>522.0</ele><time>2026-03-24T09:00:07.002Z</time></trkpt><trkpt lat="29.868738295189758" lon="-6.020515911473494"><ele>522.25</ele><time>2026-03-24T09:00:08.002Z</time></trkpt><trkpt lat="29.868714971916823" lon="-6.020376735182947"><ele>522.5</ele><time>2026-03-24T09:00:09.002Z</time></trkpt><trkpt lat="29.86868679793892" lon="-6.0202388029788985"><ele>522.75</ele><time>2026-03-24T09:00:10.002Z</time></trkpt><trkpt lat="29.86866014036964" lon="-6.02010439385861"><ele>523.0</ele><time>2026-03-24T09:00:11.002Z</time></trkpt><trkpt lat="29.868629769720318" lon="-6.01996435831053"><ele>523.0</ele><time>2026-03-24T09:00:12.002Z</time></trkpt><trkpt lat="29.86858836085461" lon="-6.019820063355815"><ele>523.0</ele><time>2026-03-24T09:00:13.002Z</time></trkpt><trkpt lat="29.86854359384152" lon="-6.019662083016407"><ele>523.0</ele><time>2026-03-24T09:00:14.002Z</time></trkpt><trkpt lat="29.86850982258133" lon="-6.019482026406955"><ele>523.0</ele><time>2026-03-24T09:00:15.002Z</time></trkpt><trkpt lat="29.868485143983786" lon="-6.019313495907669"><ele>523.0</ele><time>2026-03-24T09:00:16.002Z</time></trkpt><trkpt lat="29.86845134277589" lon="-6.0191546224067105"><ele>523.0</ele><time>2026-03-24T09:00:17.002Z</time></trkpt><trkpt lat="29.8684119629226" lon="-6.018981077650628"><ele>523.0</ele><time>2026-03-24T09:00:18.002Z</time></trkpt><trkpt lat="29.868380216498036" lon="-6.018797716912768"><ele>523.3333333333334</ele><time>2026-03-24T09:00:19.002Z</time></trkpt><trkpt lat="29.868343282298234" lon="-6.018611019263341"><ele>523.6666666666666</ele><time>2026-03-24T09:00:20.002Z</time></trkpt><trkpt lat="29.86829838281596" lon="-6.018432549586025"><ele>524.0</ele><time>2026-03-24T09:00:21.002Z</time></trkpt><trkpt lat="29.868273064616325" lon="-6.018262039837281"><ele>523.0</ele><time>2026-03-24T09:00:22.002Z</time></trkpt><trkpt lat="29.868249623652567" lon="-6.018106907534544"><ele>522.0</ele><time>2026-03-24T09:00:23.002Z</time></trkpt><trkpt lat="29.868226310694414" lon="-6.017955132571601"><ele>521.0</ele><time>2026-03-24T09:00:24.002Z</time></trkpt><trkpt lat="29.86821522975673" lon="-6.017802961323977"><ele>520.0</ele><time>2026-03-24T09:00:25.002Z</time></trkpt><trkpt lat="29.86819348442721" lon="-6.017648071681862"><ele>520.0</ele><time>2026-03-24T09:00:26.002Z</time></trkpt><trkpt lat="29.868166567131123" lon="-6.017503156347571"><ele>520.0</ele><time>2026-03-24T09:00:27.002Z</time></trkpt><trkpt lat="29.868137991047615" lon="-6.017357487683655"><ele>520.0</ele><time>2026-03-24T09:00:28.002Z</time></trkpt><trkpt lat="29.868125633370788" lon="-6.017216833865592"><ele>520.0</ele><time>2026-03-24T09:00:29.002Z</time></trkpt><trkpt lat="29.86812526316176" lon="-6.0170759438448576"><ele>520.5</ele><time>2026-03-24T09:00:30.002Z</time></trkpt><trkpt lat="29.868132277762268" lon="-6.016923299445563"><ele>521.0</ele><time>2026-03-24T09:00:31.002Z</time></trkpt><trkpt lat="29.86814441171399" lon="-6.01675515859271"><ele>521.5</ele><time>2026-03-24T09:00:32.002Z</time></trkpt><trkpt lat="29.868154741175143" lon="-6.016605817033849"><ele>522.0</ele><time>2026-03-24T09:00:33.002Z</time></trkpt><trkpt lat="29.868173653858356" lon="-6.0164477183341605"><ele>522.0</ele><time>2026-03-24T09:00:34.002Z</time></trkpt><trkpt lat="29.868187381808433" lon="-6.016288930449244"><ele>522.0</ele><time>2026-03-24T09:00:35.002Z</time></trkpt><trkpt lat="29.868196207503534" lon="-6.016132197209811"><ele>522.0</ele><time>2026-03-24T09:00:36.002Z</time></trkpt><trkpt lat="29.868207873864737" lon="-6.015972814459089"><ele>522.0</ele><time>2026-03-24T09:00:37.002Z</time></trkpt><trkpt lat="29.868221787735397" lon="-6.015810990684632"><ele>521.5</ele><time>2026-03-24T09:00:38.002Z</time></trkpt><trkpt lat="29.868236824970666" lon="-6.015653159627809"><ele>521.0</ele><time>2026-03-24T09:00:39.002Z</time></trkpt><trkpt lat="29.868252682847313" lon="-6.015492484164845"><ele>520.5</ele><time>2026-03-24T09:00:40.002Z</time></trkpt><trkpt lat="29.86827206658843" lon="-6.015328232229685"><ele>520.0</ele><time>2026-03-24T09:00:41.002Z</time></trkpt><trkpt lat="29.868291221346" lon="-6.0151645994970195"><ele>520.0</ele><time>2026-03-24T09:00:42.002Z</time></trkpt><trkpt lat="29.868313750234748" lon="-6.014989171406221"><ele>520.0</ele><time>2026-03-24T09:00:43.002Z</time></trkpt><trkpt lat="29.86833817039258" lon="-6.014789471804211"><ele>520.0</ele><time>2026-03-24T09:00:44.002Z</time></trkpt><trkpt lat="29.868362127470185" lon="-6.014604894861106"><ele>520.0</ele><time>2026-03-24T09:00:45.002Z</time></trkpt><trkpt lat="29.868383742011478" lon="-6.014438507067188"><ele>520.0</ele><time>2026-03-24T09:00:46.002Z</time></trkpt><trkpt lat="29.86840907816379" lon="-6.014280009617212"><ele>520.0</ele><time>2026-03-24T09:00:47.002Z</time></trkpt><trkpt lat="29.86842735242044" lon="-6.014128663864304"><ele>520.0</ele><time>2026-03-24T09:00:48.002Z</time></trkpt><trkpt lat="29.868437891562817" lon="-6.013993427340105"><ele>520.2</ele><time>2026-03-24T09:00:49.002Z</time></trkpt><trkpt lat="29.86845023573554" lon="-6.013865738782574"><ele>520.4</ele><time>2026-03-24T09:00:50.002Z</time></trkpt><trkpt lat="29.868467961010317" lon="-6.013739739350029"><ele>520.6</ele><time>2026-03-24T09:00:51.002Z</time></trkpt><trkpt lat="29.868485019731512" lon="-6.013626004139825"><ele>520.8</ele><time>2026-03-24T09:00:52.002Z</time></trkpt><trkpt lat="29.868502040562692" lon="-6.013515601764654"><ele>521.0</ele><time>2026-03-24T09:00:53.002Z</time></trkpt><trkpt lat="29.86851754343801" lon="-6.0134067939624085"><ele>521.5</ele><time>2026-03-24T09:00:54.002Z</time></trkpt><trkpt lat="29.868530874744064" lon="-6.013304049418774"><ele>522.0</ele><time>2026-03-24T09:00:55.002Z</time></trkpt><trkpt lat="29.86854669354862" lon="-6.013200152090823"><ele>522.5</ele><time>2026-03-24T09:00:56.002Z</time></trkpt><trkpt lat="29.868562001738187" lon="-6.013109902151259"><ele>523.0</ele><time>2026-03-24T09:00:57.002Z</time></trkpt><trkpt lat="29.868575028768742" lon="-6.013028625578191"><ele>523.5</ele><time>2026-03-24T09:00:58.002Z</time></trkpt><trkpt lat="29.868583943034114" lon="-6.01294434357678"><ele>524.0</ele><time>2026-03-24T09:00:59.002Z</time></trkpt><trkpt lat="29.868593209942585" lon="-6.012868196388384"><ele>524.0</ele><time>2026-03-24T09:01:00.002Z</time></trkpt><trkpt lat="29.868608799367216" lon="-6.012782965852833"><ele>524.0</ele><time>2026-03-24T09:01:01.002Z</time></trkpt><trkpt lat="29.868630180431055" lon="-6.0126916098637775"><ele>524.0</ele><time>2026-03-24T09:01:02.002Z</time></trkpt><trkpt lat="29.868658318708427" lon="-6.012595476198044"><ele>524.0</ele><time>2026-03-24T09:01:03.002Z</time></trkpt><trkpt lat="29.868684174000578" lon="-6.0124816857663745"><ele>524.0</ele><time>2026-03-24T09:01:04.002Z</time></trkpt><trkpt lat="29.86870524775803" lon="-6.012368388622921"><ele>524.0</ele><time>2026-03-24T09:01:05.002Z</time></trkpt><trkpt lat="29.868726510596534" lon="-6.012257092808646"><ele>524.0</ele><time>2026-03-24T09:01:06.002Z</time></trkpt><trkpt lat="29.86874629432065" lon="-6.012143038586747"><ele>524.0</ele><time>2026-03-24T09:01:07.002Z</time></trkpt><trkpt lat="29.868774228392788" lon="-6.012020558449504"><ele>524.0</ele><time>2026-03-24T09:01:08.002Z</time></trkpt><trkpt lat="29.868795405222308" lon="-6.011886029480091"><ele>524.0</ele><time>2026-03-24T09:01:09.002Z</time></trkpt><trkpt lat="29.868825008245864" lon="-6.011728256455968"><ele>523.3333333333333</ele><time>2026-03-24T09:01:10.002Z</time></trkpt><trkpt lat="29.86885915233807" lon="-6.011552814894728"><ele>522.6666666666666</ele><time>2026-03-24T09:01:11.002Z</time></trkpt><trkpt lat="29.86889987497751" lon="-6.011376491421858"><ele>522.0</ele><time>2026-03-24T09:01:12.002Z</time></trkpt><trkpt lat="29.86894951873715" lon="-6.0112030693864025"><ele>522.0</ele><time>2026-03-24T09:01:13.002Z</time></trkpt><trkpt lat="29.869004516446847" lon="-6.011047356332953"><ele>522.0</ele><time>2026-03-24T09:01:14.002Z</time></trkpt><trkpt lat="29.86906241804467" lon="-6.010893086807156"><ele>522.0</ele><time>2026-03-24T09:01:15.002Z</time></trkpt><trkpt lat="29.869148397130534" lon="-6.010730574653815"><ele>522.3333333333334</ele><time>2026-03-24T09:01:16.002Z</time></trkpt><trkpt lat="29.86923287736724" lon="-6.010563358473396"><ele>522.6666666666667</ele><time>2026-03-24T09:01:17.002Z</time></trkpt><trkpt lat="29.869293194103275" lon="-6.0104054739171975"><ele>523.0</ele><time>2026-03-24T09:01:18.002Z</time></trkpt><trkpt lat="29.869332120794017" lon="-6.010245584028647"><ele>522.0</ele><time>2026-03-24T09:01:19.002Z</time></trkpt><trkpt lat="29.86936404205157" lon="-6.010062608536748"><ele>521.0</ele><time>2026-03-24T09:01:20.002Z</time></trkpt><trkpt lat="29.86939498668198" lon="-6.009870810279724"><ele>520.0</ele><time>2026-03-24T09:01:21.002Z</time></trkpt><trkpt lat="29.869422754484145" lon="-6.009673689841686"><ele>520.0</ele><time>2026-03-24T09:01:22.002Z</time></trkpt><trkpt lat="29.86944071475318" lon="-6.009484053746668"><ele>520.0</ele><time>2026-03-24T09:01:23.002Z</time></trkpt><trkpt lat="29.869451079032565" lon="-6.009310868181866"><ele>520.0</ele><time>2026-03-24T09:01:24.002Z</time></trkpt><trkpt lat="29.869449028854916" lon="-6.009147870618757"><ele>520.25</ele><time>2026-03-24T09:01:25.002Z</time></trkpt><trkpt lat="29.869431666528712" lon="-6.008985725621081"><ele>520.5</ele><time>2026-03-24T09:01:26.002Z</time></trkpt><trkpt lat="29.869405460500108" lon="-6.008828961493062"><ele>520.75</ele><time>2026-03-24T09:01:27.002Z</time></trkpt><trkpt lat="29.86937151231932" lon="-6.008668238455509"><ele>521.0</ele><time>2026-03-24T09:01:28.002Z</time></trkpt><trkpt lat="29.86933276741371" lon="-6.008513007596491"><ele>521.0</ele><time>2026-03-24T09:01:29.002Z</time></trkpt><trkpt lat="29.869283892488173" lon="-6.008358592225528"><ele>521.0</ele><time>2026-03-24T09:01:30.002Z</time></trkpt><trkpt lat="29.869227861357352" lon="-6.008199482439041"><ele>521.0</ele><time>2026-03-24T09:01:31.002Z</time></trkpt><trkpt lat="29.86916197613748" lon="-6.008047261404915"><ele>521.0</ele><time>2026-03-24T09:01:32.002Z</time></trkpt><trkpt lat="29.869113056043023" lon="-6.007907112130795"><ele>521.75</ele><time>2026-03-24T09:01:33.002Z</time></trkpt><trkpt lat="29.8690854194548" lon="-6.0077853318845085"><ele>522.5</ele><time>2026-03-24T09:01:34.002Z</time></trkpt><trkpt lat="29.86905254577668" lon="-6.007659419904431"><ele>523.25</ele><time>2026-03-24T09:01:35.002Z</time></trkpt><trkpt lat="29.86900478612808" lon="-6.00750008787217"><ele>524.0</ele><time>2026-03-24T09:01:36.002Z</time></trkpt><trkpt lat="29.86895687540253" lon="-6.0073526015654295"><ele>524.3333333333333</ele><time>2026-03-24T09:01:37.003Z</time></trkpt><trkpt lat="29.868918941053018" lon="-6.007186076945583"><ele>524.6666666666666</ele><time>2026-03-24T09:01:38.003Z</time></trkpt><trkpt lat="29.868877699230787" lon="-6.007015096120714"><ele>525.0</ele><time>2026-03-24T09:01:39.002Z</time></trkpt><trkpt lat="29.868832363520326" lon="-6.006835119506446"><ele>525.0</ele><time>2026-03-24T09:01:40.003Z</time></trkpt><trkpt lat="29.86879422045034" lon="-6.006665902828439"><ele>525.0</ele><time>2026-03-24T09:01:41.003Z</time></trkpt><trkpt lat="29.86875743920408" lon="-6.006568621521401"><ele>525.0</ele><time>2026-03-24T09:01:42.002Z</time></trkpt><trkpt lat="29.868724780421402" lon="-6.006485808653417"><ele>525.0</ele><time>2026-03-24T09:01:43.003Z</time></trkpt><trkpt lat="29.868696793647743" lon="-6.006417118388199"><ele>525.0</ele><time>2026-03-24T09:01:44.003Z</time></trkpt><trkpt lat="29.868666228820302" lon="-6.006353082231609"><ele>525.0</ele><time>2026-03-24T09:01:45.002Z</time></trkpt><trkpt lat="29.868618840919286" lon="-6.006265790219074"><ele>525.0</ele><time>2026-03-24T09:01:46.003Z</time></trkpt><trkpt lat="29.86857947423334" lon="-6.006181672822161"><ele>525.0</ele><time>2026-03-24T09:01:47.003Z</time></trkpt><trkpt lat="29.868542041043103" lon="-6.006098269910043"><ele>525.0</ele><time>2026-03-24T09:01:48.003Z</time></trkpt><trkpt lat="29.86852309644869" lon="-6.005997969043311"><ele>525.0</ele><time>2026-03-24T09:01:49.003Z</time></trkpt><trkpt lat="29.86853560527536" lon="-6.005888271348319"><ele>525.0</ele><time>2026-03-24T09:01:50.003Z</time></trkpt><trkpt lat="29.868557139428315" lon="-6.005798898407364"><ele>525.0</ele><time>2026-03-24T09:01:51.003Z</time></trkpt><trkpt lat="29.868573098456913" lon="-6.005723039074436"><ele>525.0</ele><time>2026-03-24T09:01:52.003Z</time></trkpt><trkpt lat="29.86859468869151" lon="-6.0056137597834836"><ele>525.0</ele><time>2026-03-24T09:01:54.003Z</time></trkpt><trkpt lat="29.868613250311725" lon="-6.005517564420566"><ele>525.0</ele><time>2026-03-24T09:01:56.003Z</time></trkpt><trkpt lat="29.868620508946503" lon="-6.005417061167492"><ele>525.0</ele><time>2026-03-24T09:01:59.003Z</time></trkpt><trkpt lat="29.86867233690984" lon="-6.005297850613046"><ele>525.0</ele><time>2026-03-24T09:04:47.003Z</time></trkpt><trkpt lat="29.86869916108261" lon="-6.005223224876699"><ele>525.0</ele><time>2026-03-24T09:04:48.003Z</time></trkpt><trkpt lat="29.868727201317284" lon="-6.005147921625296"><ele>525.0</ele><time>2026-03-24T09:04:49.003Z</time></trkpt><trkpt lat="29.86874440574083" lon="-6.0050539278728765"><ele>525.0</ele><time>2026-03-24T09:04:50.003Z</time></trkpt><trkpt lat="29.86874280870051" lon="-6.004961131539847"><ele>525.0</ele><time>2026-03-24T09:04:51.003Z</time></trkpt><trkpt lat="29.868741816159087" lon="-6.004866919479615"><ele>525.0</ele><time>2026-03-24T09:04:52.003Z</time></trkpt><trkpt lat="29.868730527280036" lon="-6.004771421797556"><ele>525.2</ele><time>2026-03-24T09:04:53.003Z</time></trkpt><trkpt lat="29.868723162458576" lon="-6.004671941771066"><ele>525.4</ele><time>2026-03-24T09:04:54.003Z</time></trkpt><trkpt lat="29.86872324982729" lon="-6.004577086727444"><ele>525.6</ele><time>2026-03-24T09:04:55.003Z</time></trkpt><trkpt lat="29.868723069122947" lon="-6.004480202576816"><ele>525.8</ele><time>2026-03-24T09:04:56.003Z</time></trkpt><trkpt lat="29.868721547549168" lon="-6.004374948513266"><ele>526.0</ele><time>2026-03-24T09:04:57.003Z</time></trkpt><trkpt lat="29.86872962045443" lon="-6.004251713059864"><ele>526.25</ele><time>2026-03-24T09:04:58.003Z</time></trkpt><trkpt lat="29.868752373376388" lon="-6.004114880512237"><ele>526.5</ele><time>2026-03-24T09:04:59.003Z</time></trkpt><trkpt lat="29.8688015757598" lon="-6.003989734521423"><ele>526.75</ele><time>2026-03-24T09:05:00.003Z</time></trkpt><trkpt lat="29.868871653433054" lon="-6.0038618238640105"><ele>527.0</ele><time>2026-03-24T09:05:01.003Z</time></trkpt><trkpt lat="29.868953260330322" lon="-6.003751858486142"><ele>527.0</ele><time>2026-03-24T09:05:02.003Z</time></trkpt><trkpt lat="29.869039383693405" lon="-6.0036490464802235"><ele>527.0</ele><time>2026-03-24T09:05:03.003Z</time></trkpt><trkpt lat="29.86912424164146" lon="-6.00352298384653"><ele>527.0</ele><time>2026-03-24T09:05:04.003Z</time></trkpt><trkpt lat="29.869206574887524" lon="-6.003383228710696"><ele>527.0</ele><time>2026-03-24T09:05:05.003Z</time></trkpt><trkpt lat="29.869268912118695" lon="-6.003251316250226"><ele>527.5</ele><time>2026-03-24T09:05:06.003Z</time></trkpt><trkpt lat="29.86930889613581" lon="-6.0031277695949745"><ele>528.0</ele><time>2026-03-24T09:05:07.003Z</time></trkpt><trkpt lat="29.869316197085105" lon="-6.003007630120187"><ele>528.5</ele><time>2026-03-24T09:05:08.003Z</time></trkpt><trkpt lat="29.869294364789916" lon="-6.0028725090452575"><ele>529.0</ele><time>2026-03-24T09:05:09.003Z</time></trkpt><trkpt lat="29.869243914442645" lon="-6.002732678927232"><ele>528.6666666666667</ele><time>2026-03-24T09:05:10.003Z</time></trkpt><trkpt lat="29.869168364898453" lon="-6.002587243825053"><ele>528.3333333333334</ele><time>2026-03-24T09:05:11.003Z</time></trkpt><trkpt lat="29.869113739673107" lon="-6.002424186835052"><ele>528.0</ele><time>2026-03-24T09:05:12.003Z</time></trkpt><trkpt lat="29.86909534399673" lon="-6.002230077552605"><ele>528.0</ele><time>2026-03-24T09:05:13.003Z</time></trkpt><trkpt lat="29.869087175031755" lon="-6.002027303391356"><ele>528.0</ele><time>2026-03-24T09:05:14.003Z</time></trkpt><trkpt lat="29.86905592335907" lon="-6.00180432720765"><ele>528.0</ele><time>2026-03-24T09:05:15.003Z</time></trkpt><trkpt lat="29.86903748818529" lon="-6.001581678760429"><ele>528.3333333333334</ele><time>2026-03-24T09:05:16.003Z</time></trkpt><trkpt lat="29.869037080902142" lon="-6.001362967741325"><ele>528.6666666666667</ele><time>2026-03-24T09:05:17.003Z</time></trkpt><trkpt lat="29.86904002405411" lon="-6.00113804612669"><ele>529.0</ele><time>2026-03-24T09:05:18.003Z</time></trkpt><trkpt lat="29.869038525447632" lon="-6.000925203330973"><ele>529.3333333333334</ele><time>2026-03-24T09:05:19.003Z</time></trkpt><trkpt lat="29.86904741804228" lon="-6.0007344906388465"><ele>529.6666666666666</ele><time>2026-03-24T09:05:20.003Z</time></trkpt><trkpt lat="29.869061160035717" lon="-6.000560480980806"><ele>530.0</ele><time>2026-03-24T09:05:21.003Z</time></trkpt><trkpt lat="29.869072127766515" lon="-6.000401284578813"><ele>530.0</ele><time>2026-03-24T09:05:22.003Z</time></trkpt><trkpt lat="29.869079811169062" lon="-6.0002581394442185"><ele>530.0</ele><time>2026-03-24T09:05:23.003Z</time></trkpt><trkpt lat="29.86907714844176" lon="-6.000126414432926"><ele>530.0</ele><time>2026-03-24T09:05:24.003Z</time></trkpt><trkpt lat="29.869054380923565" lon="-5.9999909762765355"><ele>530.0</ele><time>2026-03-24T09:05:25.003Z</time></trkpt><trkpt lat="29.86903526814651" lon="-5.999847524952675"><ele>530.0</ele><time>2026-03-24T09:05:26.003Z</time></trkpt><trkpt lat="29.86901909082682" lon="-5.999685073344818"><ele>530.0</ele><time>2026-03-24T09:05:27.003Z</time></trkpt><trkpt lat="29.869015002803625" lon="-5.999511207194403"><ele>530.0</ele><time>2026-03-24T09:05:28.003Z</time></trkpt><trkpt lat="29.869024211720838" lon="-5.999317561103377"><ele>529.6666666666666</ele><time>2026-03-24T09:05:29.003Z</time></trkpt><trkpt lat="29.869032241162003" lon="-5.999116632004096"><ele>529.3333333333334</ele><time>2026-03-24T09:05:30.003Z</time></trkpt><trkpt lat="29.869047798990415" lon="-5.9989147952753665"><ele>529.0</ele><time>2026-03-24T09:05:31.003Z</time></trkpt><trkpt lat="29.869057682278818" lon="-5.998723617730973"><ele>529.0</ele><time>2026-03-24T09:05:32.003Z</time></trkpt><trkpt lat="29.869064994879217" lon="-5.998530439813223"><ele>529.0</ele><time>2026-03-24T09:05:33.003Z</time></trkpt><trkpt lat="29.869072174296193" lon="-5.9983293246815705"><ele>529.0</ele><time>2026-03-24T09:05:34.003Z</time></trkpt><trkpt lat="29.86907899393945" lon="-5.9981280036781754"><ele>528.0</ele><time>2026-03-24T09:05:35.003Z</time></trkpt><trkpt lat="29.869082816352183" lon="-5.9979379850870815"><ele>527.0</ele><time>2026-03-24T09:05:36.003Z</time></trkpt><trkpt lat="29.869093788519002" lon="-5.997755607778477"><ele>526.0</ele><time>2026-03-24T09:05:37.003Z</time></trkpt><trkpt lat="29.869108599434238" lon="-5.9975708833502885"><ele>526.0</ele><time>2026-03-24T09:05:38.003Z</time></trkpt><trkpt lat="29.869121757842848" lon="-5.9973928641616485"><ele>526.0</ele><time>2026-03-24T09:05:39.003Z</time></trkpt><trkpt lat="29.86913666997689" lon="-5.9972090722434395"><ele>526.0</ele><time>2026-03-24T09:05:40.003Z</time></trkpt><trkpt lat="29.869152267552096" lon="-5.997023263104824"><ele>526.0</ele><time>2026-03-24T09:05:41.003Z</time></trkpt><trkpt lat="29.869165013912298" lon="-5.996837596807945"><ele>526.0</ele><time>2026-03-24T09:05:42.003Z</time></trkpt><trkpt lat="29.86916752579016" lon="-5.996651469165866"><ele>526.0</ele><time>2026-03-24T09:05:43.003Z</time></trkpt><trkpt lat="29.869167685217906" lon="-5.99646824248675"><ele>527.0</ele><time>2026-03-24T09:05:44.002Z</time></trkpt><trkpt lat="29.869162634221027" lon="-5.996286760928397"><ele>528.0</ele><time>2026-03-24T09:05:45.003Z</time></trkpt><trkpt lat="29.86915735228757" lon="-5.996106694356656"><ele>529.0</ele><time>2026-03-24T09:05:46.003Z</time></trkpt><trkpt lat="29.869164412348923" lon="-5.995931361321508"><ele>528.6666666666667</ele><time>2026-03-24T09:05:47.003Z</time></trkpt><trkpt lat="29.86918183085799" lon="-5.995755281055464"><ele>528.3333333333334</ele><time>2026-03-24T09:05:48.002Z</time></trkpt><trkpt lat="29.869208368756013" lon="-5.995557891592128"><ele>528.0</ele><time>2026-03-24T09:05:49.002Z</time></trkpt><trkpt lat="29.86921957690513" lon="-5.9953810795624785"><ele>528.0</ele><time>2026-03-24T09:05:50.003Z</time></trkpt><trkpt lat="29.869221453088574" lon="-5.99522105474719"><ele>528.0</ele><time>2026-03-24T09:05:51.002Z</time></trkpt><trkpt lat="29.869215707974785" lon="-5.995056430056998"><ele>528.0</ele><time>2026-03-24T09:05:52.002Z</time></trkpt><trkpt lat="29.86921131472842" lon="-5.994892835361457"><ele>528.0</ele><time>2026-03-24T09:05:53.002Z</time></trkpt><trkpt lat="29.869206801364367" lon="-5.994735376757957"><ele>528.5</ele><time>2026-03-24T09:05:54.002Z</time></trkpt><trkpt lat="29.8692002403412" lon="-5.994568230088801"><ele>529.0</ele><time>2026-03-24T09:05:55.002Z</time></trkpt><trkpt lat="29.86919663777331" lon="-5.9943969593765205"><ele>529.5</ele><time>2026-03-24T09:05:56.002Z</time></trkpt><trkpt lat="29.869205296767042" lon="-5.994240963560442"><ele>530.0</ele><time>2026-03-24T09:05:57.002Z</time></trkpt><trkpt lat="29.86921873186117" lon="-5.99410117409487"><ele>530.25</ele><time>2026-03-24T09:05:58.002Z</time></trkpt><trkpt lat="29.869228823360274" lon="-5.993955069167047"><ele>530.5</ele><time>2026-03-24T09:05:59.002Z</time></trkpt><trkpt lat="29.86924558259262" lon="-5.993808069585183"><ele>530.75</ele><time>2026-03-24T09:06:00.002Z</time></trkpt><trkpt lat="29.86926379194239" lon="-5.993667323798296"><ele>531.0</ele><time>2026-03-24T09:06:01.002Z</time></trkpt><trkpt lat="29.869278735920993" lon="-5.993513343715509"><ele>530.25</ele><time>2026-03-24T09:06:02.002Z</time></trkpt><trkpt lat="29.869289896442506" lon="-5.993356744101464"><ele>529.5</ele><time>2026-03-24T09:06:03.002Z</time></trkpt><trkpt lat="29.869303257102484" lon="-5.993188370331109"><ele>528.75</ele><time>2026-03-24T09:06:04.002Z</time></trkpt><trkpt lat="29.8693194194752" lon="-5.993004641272936"><ele>528.0</ele><time>2026-03-24T09:06:05.002Z</time></trkpt><trkpt lat="29.8693288071858" lon="-5.992810185103383"><ele>528.0</ele><time>2026-03-24T09:06:06.002Z</time></trkpt><trkpt lat="29.869325973774934" lon="-5.992608561819334"><ele>528.0</ele><time>2026-03-24T09:06:07.002Z</time></trkpt><trkpt lat="29.869343917078496" lon="-5.992397751936921"><ele>528.0</ele><time>2026-03-24T09:06:08.002Z</time></trkpt><trkpt lat="29.869357515394015" lon="-5.99217134268506"><ele>527.3333333333334</ele><time>2026-03-24T09:06:09.002Z</time></trkpt><trkpt lat="29.869372137231817" lon="-5.991943619282609"><ele>526.6666666666667</ele><time>2026-03-24T09:06:10.002Z</time></trkpt><trkpt lat="29.869381688252798" lon="-5.99175092046288"><ele>526.0</ele><time>2026-03-24T09:06:11.002Z</time></trkpt><trkpt lat="29.869387836970915" lon="-5.99158373836717"><ele>526.0</ele><time>2026-03-24T09:06:12.002Z</time></trkpt><trkpt lat="29.869387687860836" lon="-5.991411810294415"><ele>526.0</ele><time>2026-03-24T09:06:13.002Z</time></trkpt><trkpt lat="29.86938834978034" lon="-5.9912434480709"><ele>526.0</ele><time>2026-03-24T09:06:14.002Z</time></trkpt><trkpt lat="29.869390404542266" lon="-5.9910758270202695"><ele>526.0</ele><time>2026-03-24T09:06:15.002Z</time></trkpt><trkpt lat="29.869399483855688" lon="-5.990901173514171"><ele>526.5</ele><time>2026-03-24T09:06:16.002Z</time></trkpt><trkpt lat="29.869402252578624" lon="-5.990735116832857"><ele>527.0</ele><time>2026-03-24T09:06:17.002Z</time></trkpt><trkpt lat="29.869408948711904" lon="-5.990573722264966"><ele>527.5</ele><time>2026-03-24T09:06:18.002Z</time></trkpt><trkpt lat="29.86942223596764" lon="-5.9904128730818655"><ele>528.0</ele><time>2026-03-24T09:06:19.002Z</time></trkpt><trkpt lat="29.869437093889434" lon="-5.9902454700683405"><ele>528.0</ele><time>2026-03-24T09:06:20.002Z</time></trkpt><trkpt lat="29.86945240079846" lon="-5.990078951837652"><ele>528.0</ele><time>2026-03-24T09:06:21.002Z</time></trkpt><trkpt lat="29.869467126655014" lon="-5.989911266538308"><ele>528.0</ele><time>2026-03-24T09:06:22.002Z</time></trkpt><trkpt lat="29.869482664079626" lon="-5.989736455070217"><ele>528.0</ele><time>2026-03-24T09:06:23.002Z</time></trkpt><trkpt lat="29.869495356810564" lon="-5.989555196884753"><ele>528.3333333333334</ele><time>2026-03-24T09:06:24.002Z</time></trkpt><trkpt lat="29.869502262144753" lon="-5.989364414789951"><ele>528.6666666666667</ele><time>2026-03-24T09:06:25.002Z</time></trkpt><trkpt lat="29.869513534588204" lon="-5.989182125983511"><ele>529.0</ele><time>2026-03-24T09:06:26.002Z</time></trkpt><trkpt lat="29.869525793068103" lon="-5.989002430044464"><ele>529.3333333333334</ele><time>2026-03-24T09:06:27.002Z</time></trkpt><trkpt lat="29.86954047306829" lon="-5.988815122951097"><ele>529.6666666666666</ele><time>2026-03-24T09:06:28.002Z</time></trkpt><trkpt lat="29.869558825906218" lon="-5.988623061045148"><ele>530.0</ele><time>2026-03-24T09:06:29.002Z</time></trkpt><trkpt lat="29.8695748971454" lon="-5.98843417867921"><ele>530.6666666666666</ele><time>2026-03-24T09:06:30.002Z</time></trkpt><trkpt lat="29.869589273369083" lon="-5.988238438762563"><ele>531.3333333333334</ele><time>2026-03-24T09:06:31.002Z</time></trkpt><trkpt lat="29.869598449399" lon="-5.988046504374723"><ele>532.0</ele><time>2026-03-24T09:06:32.002Z</time></trkpt><trkpt lat="29.869619913983552" lon="-5.9878458560853955"><ele>532.0</ele><time>2026-03-24T09:06:33.002Z</time></trkpt><trkpt lat="29.869635307592603" lon="-5.987649985982053"><ele>532.0</ele><time>2026-03-24T09:06:34.002Z</time></trkpt><trkpt lat="29.86964489905543" lon="-5.987464284963116"><ele>532.0</ele><time>2026-03-24T09:06:35.002Z</time></trkpt><trkpt lat="29.86964871913704" lon="-5.987279772577205"><ele>532.0</ele><time>2026-03-24T09:06:36.002Z</time></trkpt><trkpt lat="29.869652991618644" lon="-5.9870942223350845"><ele>532.0</ele><time>2026-03-24T09:06:37.002Z</time></trkpt><trkpt lat="29.8696582643043" lon="-5.986906912750461"><ele>532.0</ele><time>2026-03-24T09:06:38.002Z</time></trkpt><trkpt lat="29.869670450846343" lon="-5.986717259431245"><ele>531.0</ele><time>2026-03-24T09:06:39.002Z</time></trkpt><trkpt lat="29.86967968247039" lon="-5.986524975445839"><ele>530.0</ele><time>2026-03-24T09:06:40.002Z</time></trkpt><trkpt lat="29.869686779703475" lon="-5.986333128302234"><ele>529.0</ele><time>2026-03-24T09:06:41.002Z</time></trkpt><trkpt lat="29.869695903429353" lon="-5.986138111868602"><ele>529.0</ele><time>2026-03-24T09:06:42.002Z</time></trkpt><trkpt lat="29.86970185275943" lon="-5.985950016897571"><ele>529.0</ele><time>2026-03-24T09:06:43.002Z</time></trkpt><trkpt lat="29.869706749981372" lon="-5.985764847477157"><ele>529.0</ele><time>2026-03-24T09:06:44.002Z</time></trkpt><trkpt lat="29.86971349040964" lon="-5.985576626786529"><ele>529.0</ele><time>2026-03-24T09:06:45.002Z</time></trkpt><trkpt lat="29.86972276778683" lon="-5.985386429436414"><ele>529.0</ele><time>2026-03-24T09:06:46.002Z</time></trkpt><trkpt lat="29.8697347661075" lon="-5.985191044161921"><ele>529.0</ele><time>2026-03-24T09:06:47.002Z</time></trkpt><trkpt lat="29.86974508949188" lon="-5.984999243195624"><ele>529.0</ele><time>2026-03-24T09:06:48.002Z</time></trkpt><trkpt lat="29.869757356820667" lon="-5.984813285752407"><ele>529.0</ele><time>2026-03-24T09:06:49.002Z</time></trkpt><trkpt lat="29.8697745187139" lon="-5.984630046387363"><ele>529.0</ele><time>2026-03-24T09:06:50.002Z</time></trkpt><trkpt lat="29.869798948454683" lon="-5.984442908080225"><ele>529.0</ele><time>2026-03-24T09:06:51.002Z</time></trkpt><trkpt lat="29.86982791733547" lon="-5.9842596280499345"><ele>529.0</ele><time>2026-03-24T09:06:52.002Z</time></trkpt><trkpt lat="29.8698574239389" lon="-5.984072429375699"><ele>529.0</ele><time>2026-03-24T09:06:53.002Z</time></trkpt><trkpt lat="29.86987889935801" lon="-5.983885546680337"><ele>529.6666666666667</ele><time>2026-03-24T09:06:54.002Z</time></trkpt><trkpt lat="29.869900925249" lon="-5.983702810119964"><ele>530.3333333333334</ele><time>2026-03-24T09:06:55.002Z</time></trkpt><trkpt lat="29.869917053234314" lon="-5.983526219736805"><ele>531.0</ele><time>2026-03-24T09:06:56.002Z</time></trkpt><trkpt lat="29.86993276939314" lon="-5.983348107922496"><ele>531.0</ele><time>2026-03-24T09:06:57.002Z</time></trkpt><trkpt lat="29.869944524897136" lon="-5.983175226304506"><ele>531.0</ele><time>2026-03-24T09:06:58.002Z</time></trkpt><trkpt lat="29.869951783991777" lon="-5.982995248736611"><ele>531.0</ele><time>2026-03-24T09:06:59.002Z</time></trkpt><trkpt lat="29.869960174197878" lon="-5.982810578437587"><ele>531.0</ele><time>2026-03-24T09:07:00.002Z</time></trkpt><trkpt lat="29.86996526589335" lon="-5.982623743277097"><ele>531.0</ele><time>2026-03-24T09:07:01.002Z</time></trkpt><trkpt lat="29.869973977399106" lon="-5.982435381534851"><ele>531.0</ele><time>2026-03-24T09:07:02.002Z</time></trkpt><trkpt lat="29.869990226683218" lon="-5.982244307333524"><ele>530.6666666666666</ele><time>2026-03-24T09:07:03.002Z</time></trkpt><trkpt lat="29.870003606658496" lon="-5.98204846531536"><ele>530.3333333333333</ele><time>2026-03-24T09:07:04.002Z</time></trkpt><trkpt lat="29.870011242764576" lon="-5.981858197439294"><ele>530.0</ele><time>2026-03-24T09:07:05.002Z</time></trkpt><trkpt lat="29.870025503585296" lon="-5.9816701151757785"><ele>530.6666666666666</ele><time>2026-03-24T09:07:06.002Z</time></trkpt><trkpt lat="29.870047130656538" lon="-5.981476791084712"><ele>531.3333333333334</ele><time>2026-03-24T09:07:07.002Z</time></trkpt><trkpt lat="29.870074599258942" lon="-5.9812757567889845"><ele>532.0</ele><time>2026-03-24T09:07:08.002Z</time></trkpt><trkpt lat="29.87009545408266" lon="-5.981075347084033"><ele>531.0</ele><time>2026-03-24T09:07:09.002Z</time></trkpt><trkpt lat="29.870120889019105" lon="-5.9808728313297905"><ele>530.0</ele><time>2026-03-24T09:07:10.002Z</time></trkpt><trkpt lat="29.870152099775773" lon="-5.980673172275424"><ele>529.0</ele><time>2026-03-24T09:07:11.002Z</time></trkpt><trkpt lat="29.870190713967265" lon="-5.980475395999028"><ele>529.0</ele><time>2026-03-24T09:07:12.002Z</time></trkpt><trkpt lat="29.870225449516333" lon="-5.980281347416818"><ele>529.0</ele><time>2026-03-24T09:07:13.002Z</time></trkpt><trkpt lat="29.870257594561096" lon="-5.980080288442647"><ele>529.0</ele><time>2026-03-24T09:07:14.002Z</time></trkpt><trkpt lat="29.87027892604014" lon="-5.979876089697519"><ele>529.0</ele><time>2026-03-24T09:07:15.002Z</time></trkpt><trkpt lat="29.870291618537657" lon="-5.979669017356795"><ele>529.0</ele><time>2026-03-24T09:07:16.002Z</time></trkpt><trkpt lat="29.87029391855556" lon="-5.979463528880676"><ele>529.0</ele><time>2026-03-24T09:07:17.002Z</time></trkpt><trkpt lat="29.87029173264011" lon="-5.979258583729206"><ele>528.3333333333334</ele><time>2026-03-24T09:07:18.002Z</time></trkpt><trkpt lat="29.870285511053652" lon="-5.979054259480215"><ele>527.6666666666666</ele><time>2026-03-24T09:07:19.002Z</time></trkpt><trkpt lat="29.87027749520409" lon="-5.978867172471039"><ele>527.0</ele><time>2026-03-24T09:07:20.002Z</time></trkpt><trkpt lat="29.870276198167637" lon="-5.978706015197814"><ele>527.0</ele><time>2026-03-24T09:07:21.002Z</time></trkpt><trkpt lat="29.870288180775376" lon="-5.978547232490393"><ele>527.0</ele><time>2026-03-24T09:07:22.002Z</time></trkpt><trkpt lat="29.870304499996877" lon="-5.978373224926011"><ele>527.0</ele><time>2026-03-24T09:07:23.002Z</time></trkpt><trkpt lat="29.8703133268313" lon="-5.978186684576487"><ele>527.3333333333333</ele><time>2026-03-24T09:07:24.002Z</time></trkpt><trkpt lat="29.870327300947277" lon="-5.977990325143628"><ele>527.6666666666666</ele><time>2026-03-24T09:07:25.002Z</time></trkpt><trkpt lat="29.870345094378973" lon="-5.977806293542842"><ele>528.0</ele><time>2026-03-24T09:07:26.002Z</time></trkpt><trkpt lat="29.870366474651977" lon="-5.9776204447428185"><ele>529.3333333333334</ele><time>2026-03-24T09:07:27.002Z</time></trkpt><trkpt lat="29.870392003419852" lon="-5.977420991608119"><ele>530.6666666666667</ele><time>2026-03-24T09:07:28.002Z</time></trkpt><trkpt lat="29.87041842216732" lon="-5.977217438938099"><ele>532.0</ele><time>2026-03-24T09:07:29.002Z</time></trkpt><trkpt lat="29.870444924769785" lon="-5.977014649666703"><ele>532.0</ele><time>2026-03-24T09:07:30.002Z</time></trkpt><trkpt lat="29.870476745101815" lon="-5.976815045829971"><ele>532.0</ele><time>2026-03-24T09:07:31.002Z</time></trkpt><trkpt lat="29.87050590925024" lon="-5.9766373078064206"><ele>532.0</ele><time>2026-03-24T09:07:32.002Z</time></trkpt><trkpt lat="29.870534915755837" lon="-5.976471694712335"><ele>530.6666666666667</ele><time>2026-03-24T09:07:33.002Z</time></trkpt><trkpt lat="29.870557537137405" lon="-5.97629686656576"><ele>529.3333333333334</ele><time>2026-03-24T09:07:34.002Z</time></trkpt><trkpt lat="29.870569107572674" lon="-5.97611343315832"><ele>528.0</ele><time>2026-03-24T09:07:35.002Z</time></trkpt><trkpt lat="29.870571452570438" lon="-5.975936977298476"><ele>526.3333333333334</ele><time>2026-03-24T09:07:36.002Z</time></trkpt><trkpt lat="29.870575102718927" lon="-5.975747379462615"><ele>524.6666666666667</ele><time>2026-03-24T09:07:37.002Z</time></trkpt><trkpt lat="29.870567695381535" lon="-5.975547017966987"><ele>523.0</ele><time>2026-03-24T09:07:38.002Z</time></trkpt><trkpt lat="29.870558440622112" lon="-5.975340089375435"><ele>523.0</ele><time>2026-03-24T09:07:39.002Z</time></trkpt><trkpt lat="29.8705602746043" lon="-5.975132156596124"><ele>523.0</ele><time>2026-03-24T09:07:40.002Z</time></trkpt><trkpt lat="29.870562941106446" lon="-5.974923044136101"><ele>523.0</ele><time>2026-03-24T09:07:41.002Z</time></trkpt><trkpt lat="29.870567905117127" lon="-5.974718210971193"><ele>524.6666666666667</ele><time>2026-03-24T09:07:42.002Z</time></trkpt><trkpt lat="29.870570024440152" lon="-5.974512555708907"><ele>526.3333333333334</ele><time>2026-03-24T09:07:43.002Z</time></trkpt><trkpt lat="29.870570533587035" lon="-5.974308595062434"><ele>528.0</ele><time>2026-03-24T09:07:44.002Z</time></trkpt><trkpt lat="29.870567074770676" lon="-5.9741121956637375"><ele>528.6666666666666</ele><time>2026-03-24T09:07:45.002Z</time></trkpt><trkpt lat="29.87055958971353" lon="-5.97390976261988"><ele>529.3333333333333</ele><time>2026-03-24T09:07:46.002Z</time></trkpt><trkpt lat="29.870552695871275" lon="-5.973705237389277"><ele>530.0</ele><time>2026-03-24T09:07:47.002Z</time></trkpt><trkpt lat="29.87055139047268" lon="-5.973503728995361"><ele>529.3333333333333</ele><time>2026-03-24T09:07:48.002Z</time></trkpt><trkpt lat="29.870559638707558" lon="-5.973317798128776"><ele>528.6666666666666</ele><time>2026-03-24T09:07:49.002Z</time></trkpt><trkpt lat="29.87056792199203" lon="-5.973133824515136"><ele>528.0</ele><time>2026-03-24T09:07:50.003Z</time></trkpt><trkpt lat="29.8705710323732" lon="-5.972950586379116"><ele>528.0</ele><time>2026-03-24T09:07:51.002Z</time></trkpt><trkpt lat="29.870570466815774" lon="-5.972757277318325"><ele>528.0</ele><time>2026-03-24T09:07:52.002Z</time></trkpt><trkpt lat="29.870573038842952" lon="-5.972566650042769"><ele>528.0</ele><time>2026-03-24T09:07:53.003Z</time></trkpt><trkpt lat="29.87058209820828" lon="-5.972394901886129"><ele>528.6666666666666</ele><time>2026-03-24T09:07:54.003Z</time></trkpt><trkpt lat="29.87060343243222" lon="-5.972213741559972"><ele>529.3333333333333</ele><time>2026-03-24T09:07:55.003Z</time></trkpt><trkpt lat="29.87063590628778" lon="-5.972032126919228"><ele>530.0</ele><time>2026-03-24T09:07:56.003Z</time></trkpt><trkpt lat="29.870667129871485" lon="-5.9718523292993835"><ele>529.3333333333333</ele><time>2026-03-24T09:07:57.003Z</time></trkpt><trkpt lat="29.870692108087308" lon="-5.971674063775456"><ele>528.6666666666666</ele><time>2026-03-24T09:07:58.003Z</time></trkpt><trkpt lat="29.87070135575626" lon="-5.971489647131665"><ele>528.0</ele><time>2026-03-24T09:07:59.003Z</time></trkpt><trkpt lat="29.870706476928028" lon="-5.971312676617914"><ele>528.0</ele><time>2026-03-24T09:08:00.002Z</time></trkpt><trkpt lat="29.870715350581246" lon="-5.971121676901641"><ele>528.0</ele><time>2026-03-24T09:08:01.002Z</time></trkpt><trkpt lat="29.87071477138822" lon="-5.970921092102184"><ele>528.0</ele><time>2026-03-24T09:08:02.002Z</time></trkpt><trkpt lat="29.870732987598792" lon="-5.970718191594696"><ele>528.3333333333334</ele><time>2026-03-24T09:08:03.003Z</time></trkpt><trkpt lat="29.870754625521187" lon="-5.970511208577801"><ele>528.6666666666667</ele><time>2026-03-24T09:08:04.003Z</time></trkpt><trkpt lat="29.870780736526324" lon="-5.970310521765542"><ele>529.0</ele><time>2026-03-24T09:08:05.003Z</time></trkpt><trkpt lat="29.870806826578878" lon="-5.970115522004104"><ele>529.6666666666667</ele><time>2026-03-24T09:08:06.003Z</time></trkpt><trkpt lat="29.870830781789067" lon="-5.969919173243474"><ele>530.3333333333334</ele><time>2026-03-24T09:08:07.003Z</time></trkpt><trkpt lat="29.870855227321098" lon="-5.969723569627709"><ele>531.0</ele><time>2026-03-24T09:08:08.003Z</time></trkpt><trkpt lat="29.87088696526135" lon="-5.9695243230932284"><ele>531.0</ele><time>2026-03-24T09:08:09.003Z</time></trkpt><trkpt lat="29.87092314640236" lon="-5.9693243276895895"><ele>531.0</ele><time>2026-03-24T09:08:10.003Z</time></trkpt><trkpt lat="29.87096310552896" lon="-5.969144446758106"><ele>531.0</ele><time>2026-03-24T09:08:11.003Z</time></trkpt><trkpt lat="29.871004280546597" lon="-5.968958694283021"><ele>531.6666666666666</ele><time>2026-03-24T09:08:12.003Z</time></trkpt><trkpt lat="29.87104125733314" lon="-5.968781084680739"><ele>532.3333333333333</ele><time>2026-03-24T09:08:13.003Z</time></trkpt><trkpt lat="29.871083161033457" lon="-5.968601295076867"><ele>533.0</ele><time>2026-03-24T09:08:14.003Z</time></trkpt><trkpt lat="29.87112713999801" lon="-5.968421889989597"><ele>532.5</ele><time>2026-03-24T09:08:15.003Z</time></trkpt><trkpt lat="29.871171224975924" lon="-5.968249684424906"><ele>532.0</ele><time>2026-03-24T09:08:16.003Z</time></trkpt><trkpt lat="29.871226561916643" lon="-5.968088252986889"><ele>531.5</ele><time>2026-03-24T09:08:17.003Z</time></trkpt><trkpt lat="29.871284307911527" lon="-5.967940871328018"><ele>531.0</ele><time>2026-03-24T09:08:18.003Z</time></trkpt><trkpt lat="29.871342341137243" lon="-5.967791919132625"><ele>531.0</ele><time>2026-03-24T09:08:19.003Z</time></trkpt><trkpt lat="29.871398327110022" lon="-5.9676473151632425"><ele>531.0</ele><time>2026-03-24T09:08:20.003Z</time></trkpt><trkpt lat="29.87145549852366" lon="-5.967487944152984"><ele>531.0</ele><time>2026-03-24T09:08:21.003Z</time></trkpt><trkpt lat="29.87150951033017" lon="-5.967323580191152"><ele>531.0</ele><time>2026-03-24T09:08:22.003Z</time></trkpt><trkpt lat="29.871566024319325" lon="-5.967153942834114"><ele>531.0</ele><time>2026-03-24T09:08:23.003Z</time></trkpt><trkpt lat="29.871622157819946" lon="-5.96698069897866"><ele>531.0</ele><time>2026-03-24T09:08:24.003Z</time></trkpt><trkpt lat="29.871679453467713" lon="-5.966803267473825"><ele>531.0</ele><time>2026-03-24T09:08:25.003Z</time></trkpt><trkpt lat="29.871738833442155" lon="-5.966630322008251"><ele>532.0</ele><time>2026-03-24T09:08:26.003Z</time></trkpt><trkpt lat="29.87180140821503" lon="-5.966455215233173"><ele>533.0</ele><time>2026-03-24T09:08:27.003Z</time></trkpt><trkpt lat="29.87186067746386" lon="-5.9662781527614195"><ele>534.0</ele><time>2026-03-24T09:08:28.003Z</time></trkpt><trkpt lat="29.8719232556431" lon="-5.966105741852833"><ele>534.0</ele><time>2026-03-24T09:08:29.003Z</time></trkpt><trkpt lat="29.871980661325246" lon="-5.9659375575468205"><ele>534.0</ele><time>2026-03-24T09:08:30.003Z</time></trkpt><trkpt lat="29.87203040943494" lon="-5.96576911888306"><ele>534.0</ele><time>2026-03-24T09:08:31.003Z</time></trkpt><trkpt lat="29.872091547298787" lon="-5.965602816686795"><ele>533.6666666666666</ele><time>2026-03-24T09:08:32.003Z</time></trkpt><trkpt lat="29.872153094383147" lon="-5.965425058164131"><ele>533.3333333333333</ele><time>2026-03-24T09:08:33.003Z</time></trkpt><trkpt lat="29.872215415326135" lon="-5.96524788308156"><ele>533.0</ele><time>2026-03-24T09:08:34.003Z</time></trkpt><trkpt lat="29.872276604069707" lon="-5.965070116252024"><ele>532.0</ele><time>2026-03-24T09:08:35.003Z</time></trkpt><trkpt lat="29.872340631616503" lon="-5.964892372965604"><ele>531.0</ele><time>2026-03-24T09:08:36.003Z</time></trkpt><trkpt lat="29.87241338773987" lon="-5.964707519449251"><ele>530.0</ele><time>2026-03-24T09:08:37.003Z</time></trkpt><trkpt lat="29.872482439184907" lon="-5.964516913870704"><ele>530.0</ele><time>2026-03-24T09:08:38.003Z</time></trkpt><trkpt lat="29.87255635661708" lon="-5.964319616338061"><ele>530.0</ele><time>2026-03-24T09:08:39.003Z</time></trkpt><trkpt lat="29.872642813405076" lon="-5.964114155230325"><ele>530.0</ele><time>2026-03-24T09:08:40.003Z</time></trkpt><trkpt lat="29.872734954729033" lon="-5.963913143852722"><ele>530.3333333333333</ele><time>2026-03-24T09:08:41.003Z</time></trkpt><trkpt lat="29.872828306863465" lon="-5.963719317893975"><ele>530.6666666666666</ele><time>2026-03-24T09:08:42.003Z</time></trkpt><trkpt lat="29.872917288451497" lon="-5.963530485925714"><ele>531.0</ele><time>2026-03-24T09:08:43.003Z</time></trkpt><trkpt lat="29.873000173011448" lon="-5.9633488867992135"><ele>531.0</ele><time>2026-03-24T09:08:44.003Z</time></trkpt><trkpt lat="29.873082657598353" lon="-5.963169781046275"><ele>531.0</ele><time>2026-03-24T09:08:45.003Z</time></trkpt><trkpt lat="29.873159993369786" lon="-5.962990071818732"><ele>531.0</ele><time>2026-03-24T09:08:46.003Z</time></trkpt><trkpt lat="29.873237252341454" lon="-5.962805142788446"><ele>531.0</ele><time>2026-03-24T09:08:47.003Z</time></trkpt><trkpt lat="29.873317699287977" lon="-5.9626192842579515"><ele>531.0</ele><time>2026-03-24T09:08:48.003Z</time></trkpt><trkpt lat="29.873398493545512" lon="-5.9624360612080185"><ele>531.0</ele><time>2026-03-24T09:08:49.003Z</time></trkpt><trkpt lat="29.873483018719167" lon="-5.962259591039124"><ele>532.3333333333334</ele><time>2026-03-24T09:08:50.003Z</time></trkpt><trkpt lat="29.8735689557989" lon="-5.962087928131163"><ele>533.6666666666667</ele><time>2026-03-24T09:08:51.003Z</time></trkpt><trkpt lat="29.87365780799203" lon="-5.961920680042857"><ele>535.0</ele><time>2026-03-24T09:08:52.003Z</time></trkpt><trkpt lat="29.873751649793526" lon="-5.961747670796407"><ele>534.0</ele><time>2026-03-24T09:08:53.003Z</time></trkpt><trkpt lat="29.87384542896944" lon="-5.9615667214495245"><ele>533.0</ele><time>2026-03-24T09:08:54.003Z</time></trkpt><trkpt lat="29.873939102565462" lon="-5.961383154385245"><ele>532.0</ele><time>2026-03-24T09:08:55.003Z</time></trkpt><trkpt lat="29.874033707169144" lon="-5.961200849488871"><ele>532.0</ele><time>2026-03-24T09:08:56.003Z</time></trkpt><trkpt lat="29.874123868364432" lon="-5.961026528754921"><ele>532.0</ele><time>2026-03-24T09:08:57.003Z</time></trkpt><trkpt lat="29.874215538621815" lon="-5.960857333495015"><ele>532.0</ele><time>2026-03-24T09:08:58.003Z</time></trkpt><trkpt lat="29.874312149593706" lon="-5.960686852877491"><ele>532.3333333333334</ele><time>2026-03-24T09:08:59.003Z</time></trkpt><trkpt lat="29.87441948775316" lon="-5.960505370645933"><ele>532.6666666666666</ele><time>2026-03-24T09:09:00.003Z</time></trkpt><trkpt lat="29.874527839694743" lon="-5.9603322617923284"><ele>533.0</ele><time>2026-03-24T09:09:01.003Z</time></trkpt><trkpt lat="29.87463929915799" lon="-5.9601605280928"><ele>533.3333333333333</ele><time>2026-03-24T09:09:02.003Z</time></trkpt><trkpt lat="29.874746528210835" lon="-5.959986842059785"><ele>533.6666666666666</ele><time>2026-03-24T09:09:03.003Z</time></trkpt><trkpt lat="29.87485505924496" lon="-5.959816583481472"><ele>534.0</ele><time>2026-03-24T09:09:04.003Z</time></trkpt><trkpt lat="29.87495874030363" lon="-5.959649071788926"><ele>534.0</ele><time>2026-03-24T09:09:05.003Z</time></trkpt><trkpt lat="29.87505707345937" lon="-5.95948877589446"><ele>534.0</ele><time>2026-03-24T09:09:06.003Z</time></trkpt><trkpt lat="29.875154474683338" lon="-5.95932868484019"><ele>534.0</ele><time>2026-03-24T09:09:07.003Z</time></trkpt><trkpt lat="29.875253928004014" lon="-5.959168107326676"><ele>535.0</ele><time>2026-03-24T09:09:08.003Z</time></trkpt><trkpt lat="29.8753497281533" lon="-5.959009033436763"><ele>536.0</ele><time>2026-03-24T09:09:09.003Z</time></trkpt><trkpt lat="29.875444613417855" lon="-5.9588583370654025"><ele>537.0</ele><time>2026-03-24T09:09:10.003Z</time></trkpt><trkpt lat="29.87553903299321" lon="-5.9587106630373405"><ele>537.0</ele><time>2026-03-24T09:09:11.003Z</time></trkpt><trkpt lat="29.875642513397104" lon="-5.958556093360753"><ele>537.0</ele><time>2026-03-24T09:09:12.003Z</time></trkpt><trkpt lat="29.875748463807433" lon="-5.958394961224218"><ele>537.0</ele><time>2026-03-24T09:09:13.003Z</time></trkpt><trkpt lat="29.87585999837526" lon="-5.958228883720147"><ele>537.0</ele><time>2026-03-24T09:09:14.003Z</time></trkpt><trkpt lat="29.87597313323591" lon="-5.9580557131826035"><ele>537.0</ele><time>2026-03-24T09:09:15.003Z</time></trkpt><trkpt lat="29.876091809938778" lon="-5.957870626051953"><ele>537.0</ele><time>2026-03-24T09:09:16.003Z</time></trkpt><trkpt lat="29.87621691475421" lon="-5.957672783346644"><ele>536.6666666666666</ele><time>2026-03-24T09:09:17.003Z</time></trkpt><trkpt lat="29.87634337448326" lon="-5.957482158170246"><ele>536.3333333333333</ele><time>2026-03-24T09:09:18.003Z</time></trkpt><trkpt lat="29.87645140057034" lon="-5.9573166951925405"><ele>536.0</ele><time>2026-03-24T09:09:19.003Z</time></trkpt><trkpt lat="29.87655848192581" lon="-5.957156359782843"><ele>536.0</ele><time>2026-03-24T09:09:20.003Z</time></trkpt><trkpt lat="29.876667581467977" lon="-5.956992823326055"><ele>536.0</ele><time>2026-03-24T09:09:21.003Z</time></trkpt><trkpt lat="29.876780649039524" lon="-5.956831940441771"><ele>536.0</ele><time>2026-03-24T09:09:22.003Z</time></trkpt><trkpt lat="29.876890423233572" lon="-5.956663419309393"><ele>535.6666666666666</ele><time>2026-03-24T09:09:23.003Z</time></trkpt><trkpt lat="29.876998671212846" lon="-5.956497400218971"><ele>535.3333333333334</ele><time>2026-03-24T09:09:24.003Z</time></trkpt><trkpt lat="29.877103550628103" lon="-5.956331814471455"><ele>535.0</ele><time>2026-03-24T09:09:25.003Z</time></trkpt><trkpt lat="29.877205252681357" lon="-5.956164637303723"><ele>535.0</ele><time>2026-03-24T09:09:26.003Z</time></trkpt><trkpt lat="29.877312085871193" lon="-5.95599286089239"><ele>535.0</ele><time>2026-03-24T09:09:27.003Z</time></trkpt><trkpt lat="29.87742527975542" lon="-5.955815010934208"><ele>535.0</ele><time>2026-03-24T09:09:28.003Z</time></trkpt><trkpt lat="29.877540294555697" lon="-5.955633131883311"><ele>535.3333333333334</ele><time>2026-03-24T09:09:29.003Z</time></trkpt><trkpt lat="29.877646332528013" lon="-5.9554493788531095"><ele>535.6666666666666</ele><time>2026-03-24T09:09:30.003Z</time></trkpt><trkpt lat="29.877744957014023" lon="-5.95526208490996"><ele>536.0</ele><time>2026-03-24T09:09:31.003Z</time></trkpt><trkpt lat="29.877826177452995" lon="-5.955075612097406"><ele>536.3333333333333</ele><time>2026-03-24T09:09:32.003Z</time></trkpt><trkpt lat="29.87790940703022" lon="-5.954892644919989"><ele>536.6666666666666</ele><time>2026-03-24T09:09:33.003Z</time></trkpt><trkpt lat="29.877993483557173" lon="-5.954709508311198"><ele>537.0</ele><time>2026-03-24T09:09:34.003Z</time></trkpt><trkpt lat="29.878080134427393" lon="-5.954520564762"><ele>537.0</ele><time>2026-03-24T09:09:35.003Z</time></trkpt><trkpt lat="29.878164288512306" lon="-5.954328008560577"><ele>537.0</ele><time>2026-03-24T09:09:36.003Z</time></trkpt><trkpt lat="29.87824714942547" lon="-5.954134179316559"><ele>537.0</ele><time>2026-03-24T09:09:37.003Z</time></trkpt><trkpt lat="29.878330980944497" lon="-5.953948760573226"><ele>537.6666666666666</ele><time>2026-03-24T09:09:38.003Z</time></trkpt><trkpt lat="29.878413484851148" lon="-5.95378499665271"><ele>538.3333333333333</ele><time>2026-03-24T09:09:39.003Z</time></trkpt><trkpt lat="29.87849663895433" lon="-5.953624910341512"><ele>539.0</ele><time>2026-03-24T09:09:40.003Z</time></trkpt><trkpt lat="29.878567578076762" lon="-5.953457984560784"><ele>538.6666666666666</ele><time>2026-03-24T09:09:41.003Z</time></trkpt><trkpt lat="29.87863338167051" lon="-5.953286049993404"><ele>538.3333333333334</ele><time>2026-03-24T09:09:42.003Z</time></trkpt><trkpt lat="29.87868739822064" lon="-5.953093096755629"><ele>538.0</ele><time>2026-03-24T09:09:43.003Z</time></trkpt><trkpt lat="29.878756883076754" lon="-5.952909289638482"><ele>538.0</ele><time>2026-03-24T09:09:44.003Z</time></trkpt><trkpt lat="29.878837030893038" lon="-5.952733761183486"><ele>538.0</ele><time>2026-03-24T09:09:45.003Z</time></trkpt><trkpt lat="29.878927079846044" lon="-5.952560551257325"><ele>538.0</ele><time>2026-03-24T09:09:46.003Z</time></trkpt><trkpt lat="29.87902885829023" lon="-5.952376961075096"><ele>538.0</ele><time>2026-03-24T09:09:47.003Z</time></trkpt><trkpt lat="29.879125631435475" lon="-5.9521900539876915"><ele>538.0</ele><time>2026-03-24T09:09:48.003Z</time></trkpt><trkpt lat="29.879213243782594" lon="-5.952003663900935"><ele>538.0</ele><time>2026-03-24T09:09:49.003Z</time></trkpt><trkpt lat="29.879300751987586" lon="-5.951823718970544"><ele>539.3333333333334</ele><time>2026-03-24T09:09:50.003Z</time></trkpt><trkpt lat="29.87939341921871" lon="-5.951649865352248"><ele>540.6666666666666</ele><time>2026-03-24T09:09:51.003Z</time></trkpt><trkpt lat="29.879487838830745" lon="-5.95148344099867"><ele>542.0</ele><time>2026-03-24T09:09:52.003Z</time></trkpt><trkpt lat="29.879582525998128" lon="-5.9513070104582"><ele>542.0</ele><time>2026-03-24T09:09:53.003Z</time></trkpt><trkpt lat="29.87967087042893" lon="-5.9511333424042725"><ele>542.0</ele><time>2026-03-24T09:09:54.003Z</time></trkpt><trkpt lat="29.879754597651733" lon="-5.950958359771729"><ele>542.0</ele><time>2026-03-24T09:09:55.003Z</time></trkpt><trkpt lat="29.879849592588602" lon="-5.950787811864927"><ele>541.6666666666666</ele><time>2026-03-24T09:09:56.003Z</time></trkpt><trkpt lat="29.879945605990464" lon="-5.950624964643347"><ele>541.3333333333334</ele><time>2026-03-24T09:09:57.002Z</time></trkpt><trkpt lat="29.880044540119087" lon="-5.95047029021651"><ele>541.0</ele><time>2026-03-24T09:09:58.002Z</time></trkpt><trkpt lat="29.880131773525385" lon="-5.950310593894141"><ele>541.0</ele><time>2026-03-24T09:09:59.003Z</time></trkpt><trkpt lat="29.880209686975103" lon="-5.950141760854201"><ele>541.0</ele><time>2026-03-24T09:10:00.002Z</time></trkpt><trkpt lat="29.880291619639383" lon="-5.9499579621190195"><ele>541.0</ele><time>2026-03-24T09:10:01.002Z</time></trkpt><trkpt lat="29.880372086870654" lon="-5.949774534305447"><ele>540.3333333333334</ele><time>2026-03-24T09:10:02.003Z</time></trkpt><trkpt lat="29.88045090061126" lon="-5.9495925463575725"><ele>539.6666666666666</ele><time>2026-03-24T09:10:03.003Z</time></trkpt><trkpt lat="29.880522380673945" lon="-5.949408146247112"><ele>539.0</ele><time>2026-03-24T09:10:04.003Z</time></trkpt><trkpt lat="29.8805941073725" lon="-5.9492207839376245"><ele>539.0</ele><time>2026-03-24T09:10:05.003Z</time></trkpt><trkpt lat="29.88067311934998" lon="-5.949024237389424"><ele>539.0</ele><time>2026-03-24T09:10:06.003Z</time></trkpt><trkpt lat="29.88075783591688" lon="-5.9488357666972815"><ele>539.0</ele><time>2026-03-24T09:10:07.003Z</time></trkpt><trkpt lat="29.880843261542907" lon="-5.948661253337044"><ele>538.6666666666666</ele><time>2026-03-24T09:10:08.002Z</time></trkpt><trkpt lat="29.880934592847957" lon="-5.948481441088008"><ele>538.3333333333334</ele><time>2026-03-24T09:10:09.002Z</time></trkpt><trkpt lat="29.881013542649665" lon="-5.948312180537572"><ele>538.0</ele><time>2026-03-24T09:10:10.002Z</time></trkpt><trkpt lat="29.881092444540663" lon="-5.948144811447133"><ele>539.3333333333334</ele><time>2026-03-24T09:10:11.002Z</time></trkpt><trkpt lat="29.88117673073088" lon="-5.947986232892639"><ele>540.6666666666666</ele><time>2026-03-24T09:10:12.002Z</time></trkpt><trkpt lat="29.881264711625576" lon="-5.947825945118171"><ele>542.0</ele><time>2026-03-24T09:10:13.002Z</time></trkpt><trkpt lat="29.8813537410967" lon="-5.947662641829407"><ele>542.3333333333333</ele><time>2026-03-24T09:10:14.002Z</time></trkpt><trkpt lat="29.88144436791549" lon="-5.947503052393979"><ele>542.6666666666666</ele><time>2026-03-24T09:10:15.002Z</time></trkpt><trkpt lat="29.8815393458257" lon="-5.947343188682495"><ele>543.0</ele><time>2026-03-24T09:10:16.002Z</time></trkpt><trkpt lat="29.881627101231686" lon="-5.947185240390314"><ele>543.0</ele><time>2026-03-24T09:10:17.002Z</time></trkpt><trkpt lat="29.8817122388549" lon="-5.947024636674074"><ele>543.0</ele><time>2026-03-24T09:10:18.002Z</time></trkpt><trkpt lat="29.881792969113732" lon="-5.9468566235040985"><ele>543.0</ele><time>2026-03-24T09:10:19.002Z</time></trkpt><trkpt lat="29.881869903982867" lon="-5.946685777455319"><ele>543.0</ele><time>2026-03-24T09:10:20.002Z</time></trkpt><trkpt lat="29.88194392101896" lon="-5.946507543658444"><ele>543.0</ele><time>2026-03-24T09:10:21.002Z</time></trkpt><trkpt lat="29.88202224554971" lon="-5.946337685776041"><ele>543.0</ele><time>2026-03-24T09:10:22.002Z</time></trkpt><trkpt lat="29.882106354596694" lon="-5.946165082766106"><ele>543.0</ele><time>2026-03-24T09:10:23.002Z</time></trkpt><trkpt lat="29.882189684777707" lon="-5.945985995568788"><ele>543.0</ele><time>2026-03-24T09:10:24.002Z</time></trkpt><trkpt lat="29.882284222793132" lon="-5.945806122202337"><ele>543.0</ele><time>2026-03-24T09:10:25.002Z</time></trkpt><trkpt lat="29.882377473573126" lon="-5.945637340233638"><ele>543.0</ele><time>2026-03-24T09:10:26.002Z</time></trkpt><trkpt lat="29.882470877637825" lon="-5.94547388359259"><ele>543.0</ele><time>2026-03-24T09:10:27.002Z</time></trkpt><trkpt lat="29.88256436250383" lon="-5.945312310061244"><ele>543.0</ele><time>2026-03-24T09:10:28.002Z</time></trkpt><trkpt lat="29.88264988710453" lon="-5.945146109683226"><ele>543.0</ele><time>2026-03-24T09:10:29.002Z</time></trkpt><trkpt lat="29.88272726834937" lon="-5.944975061838043"><ele>543.0</ele><time>2026-03-24T09:10:30.002Z</time></trkpt><trkpt lat="29.882797940871843" lon="-5.944795562056438"><ele>543.0</ele><time>2026-03-24T09:10:31.002Z</time></trkpt><trkpt lat="29.882863019519714" lon="-5.9446120458594995"><ele>543.0</ele><time>2026-03-24T09:10:32.002Z</time></trkpt><trkpt lat="29.882923006080492" lon="-5.944421555137743"><ele>543.0</ele><time>2026-03-24T09:10:33.002Z</time></trkpt><trkpt lat="29.882973232158303" lon="-5.94422160825776"><ele>543.0</ele><time>2026-03-24T09:10:34.002Z</time></trkpt><trkpt lat="29.883018682750965" lon="-5.944027360951846"><ele>543.0</ele><time>2026-03-24T09:10:35.002Z</time></trkpt><trkpt lat="29.88306987945159" lon="-5.943825810758702"><ele>543.0</ele><time>2026-03-24T09:10:36.002Z</time></trkpt><trkpt lat="29.88312443564428" lon="-5.943634701119548"><ele>543.0</ele><time>2026-03-24T09:10:37.002Z</time></trkpt><trkpt lat="29.88317403184351" lon="-5.943447785664346"><ele>543.0</ele><time>2026-03-24T09:10:38.002Z</time></trkpt><trkpt lat="29.883235287208795" lon="-5.943263694304279"><ele>543.0</ele><time>2026-03-24T09:10:39.002Z</time></trkpt><trkpt lat="29.88329179254764" lon="-5.943080661857726"><ele>543.0</ele><time>2026-03-24T09:10:40.002Z</time></trkpt><trkpt lat="29.883350272037703" lon="-5.942897246430132"><ele>543.0</ele><time>2026-03-24T09:10:41.002Z</time></trkpt><trkpt lat="29.88340836142384" lon="-5.942711259452973"><ele>543.0</ele><time>2026-03-24T09:10:42.002Z</time></trkpt><trkpt lat="29.883471080250747" lon="-5.942523927795822"><ele>543.0</ele><time>2026-03-24T09:10:43.002Z</time></trkpt><trkpt lat="29.88353422513777" lon="-5.942335562604275"><ele>544.0</ele><time>2026-03-24T09:10:44.002Z</time></trkpt><trkpt lat="29.88358796608768" lon="-5.942148888241504"><ele>545.0</ele><time>2026-03-24T09:10:45.002Z</time></trkpt><trkpt lat="29.88363511823179" lon="-5.941957852335826"><ele>546.0</ele><time>2026-03-24T09:10:46.002Z</time></trkpt><trkpt lat="29.883675202427117" lon="-5.941765630964428"><ele>544.6666666666666</ele><time>2026-03-24T09:10:47.002Z</time></trkpt><trkpt lat="29.8837032343624" lon="-5.941582487724245"><ele>543.3333333333333</ele><time>2026-03-24T09:10:48.002Z</time></trkpt><trkpt lat="29.883726258085893" lon="-5.9414027592291925"><ele>542.0</ele><time>2026-03-24T09:10:49.002Z</time></trkpt><trkpt lat="29.883739859214074" lon="-5.941214610224513"><ele>542.0</ele><time>2026-03-24T09:10:50.002Z</time></trkpt><trkpt lat="29.883761510679808" lon="-5.941018598528919"><ele>542.0</ele><time>2026-03-24T09:10:51.002Z</time></trkpt><trkpt lat="29.88379181920707" lon="-5.940826642004559"><ele>542.0</ele><time>2026-03-24T09:10:52.002Z</time></trkpt><trkpt lat="29.883821317798375" lon="-5.940634381354037"><ele>541.3333333333333</ele><time>2026-03-24T09:10:53.002Z</time></trkpt><trkpt lat="29.883846062271083" lon="-5.9404358505208705"><ele>540.6666666666666</ele><time>2026-03-24T09:10:54.002Z</time></trkpt><trkpt lat="29.88386629983294" lon="-5.940234950588073"><ele>540.0</ele><time>2026-03-24T09:10:55.002Z</time></trkpt><trkpt lat="29.883885993501256" lon="-5.9400360838704245"><ele>541.3333333333334</ele><time>2026-03-24T09:10:56.002Z</time></trkpt><trkpt lat="29.883910886766152" lon="-5.9398339670515625"><ele>542.6666666666667</ele><time>2026-03-24T09:10:57.002Z</time></trkpt><trkpt lat="29.883936540633574" lon="-5.939633874888845"><ele>544.0</ele><time>2026-03-24T09:10:58.002Z</time></trkpt><trkpt lat="29.883964103119382" lon="-5.939430657859919"><ele>544.0</ele><time>2026-03-24T09:10:59.002Z</time></trkpt><trkpt lat="29.883988443251233" lon="-5.939222373377424"><ele>544.0</ele><time>2026-03-24T09:11:00.002Z</time></trkpt><trkpt lat="29.884017162103056" lon="-5.939012586045213"><ele>544.0</ele><time>2026-03-24T09:11:01.002Z</time></trkpt><trkpt lat="29.884044636493854" lon="-5.9388016744771175"><ele>544.6666666666667</ele><time>2026-03-24T09:11:02.002Z</time></trkpt><trkpt lat="29.884072280721455" lon="-5.938590501575616"><ele>545.3333333333334</ele><time>2026-03-24T09:11:03.002Z</time></trkpt><trkpt lat="29.884110632868428" lon="-5.938378443584578"><ele>546.0</ele><time>2026-03-24T09:11:04.002Z</time></trkpt><trkpt lat="29.884151196618863" lon="-5.938171262547185"><ele>546.3333333333334</ele><time>2026-03-24T09:11:05.002Z</time></trkpt><trkpt lat="29.88419440640796" lon="-5.937962087013329"><ele>546.6666666666667</ele><time>2026-03-24T09:11:06.002Z</time></trkpt><trkpt lat="29.884233033165888" lon="-5.9377548577855075"><ele>547.0</ele><time>2026-03-24T09:11:07.002Z</time></trkpt><trkpt lat="29.884272842437902" lon="-5.9375420528777525"><ele>547.0</ele><time>2026-03-24T09:11:08.002Z</time></trkpt><trkpt lat="29.884295206967245" lon="-5.937335028875903"><ele>547.0</ele><time>2026-03-24T09:11:09.002Z</time></trkpt><trkpt lat="29.884303795749112" lon="-5.937138492709514"><ele>547.0</ele><time>2026-03-24T09:11:10.002Z</time></trkpt><trkpt lat="29.884315630417618" lon="-5.936941302672332"><ele>547.0</ele><time>2026-03-24T09:11:11.002Z</time></trkpt><trkpt lat="29.884338338287673" lon="-5.936752590818239"><ele>547.0</ele><time>2026-03-24T09:11:12.002Z</time></trkpt><trkpt lat="29.884380501366255" lon="-5.936571848515942"><ele>547.0</ele><time>2026-03-24T09:11:13.002Z</time></trkpt><trkpt lat="29.88443311336616" lon="-5.9363918779145655"><ele>546.6666666666667</ele><time>2026-03-24T09:11:14.002Z</time></trkpt><trkpt lat="29.884507125381457" lon="-5.936223061849551"><ele>546.3333333333334</ele><time>2026-03-24T09:11:15.002Z</time></trkpt><trkpt lat="29.884585562735584" lon="-5.936055139745626"><ele>546.0</ele><time>2026-03-24T09:11:16.002Z</time></trkpt><trkpt lat="29.884673802545258" lon="-5.93588513371615"><ele>547.3333333333334</ele><time>2026-03-24T09:11:17.002Z</time></trkpt><trkpt lat="29.884766341607623" lon="-5.935718936043251"><ele>548.6666666666667</ele><time>2026-03-24T09:11:18.002Z</time></trkpt><trkpt lat="29.88485847132338" lon="-5.935551120570076"><ele>550.0</ele><time>2026-03-24T09:11:19.002Z</time></trkpt><trkpt lat="29.88495522709745" lon="-5.9353727721022596"><ele>550.0</ele><time>2026-03-24T09:11:20.002Z</time></trkpt><trkpt lat="29.88505778304376" lon="-5.935199554365339"><ele>550.0</ele><time>2026-03-24T09:11:21.002Z</time></trkpt><trkpt lat="29.885158213193648" lon="-5.935044585972391"><ele>550.0</ele><time>2026-03-24T09:11:22.002Z</time></trkpt><trkpt lat="29.885241256981317" lon="-5.934883194742423"><ele>549.0</ele><time>2026-03-24T09:11:23.002Z</time></trkpt><trkpt lat="29.885314611238787" lon="-5.934701985531161"><ele>548.0</ele><time>2026-03-24T09:11:24.002Z</time></trkpt><trkpt lat="29.88538559036096" lon="-5.934514420771742"><ele>547.0</ele><time>2026-03-24T09:11:25.002Z</time></trkpt><trkpt lat="29.8854659487303" lon="-5.934322819322123"><ele>546.6666666666667</ele><time>2026-03-24T09:11:26.002Z</time></trkpt><trkpt lat="29.88554051380264" lon="-5.934135685013585"><ele>546.3333333333334</ele><time>2026-03-24T09:11:27.002Z</time></trkpt><trkpt lat="29.885613630820192" lon="-5.933945526012281"><ele>546.0</ele><time>2026-03-24T09:11:28.002Z</time></trkpt><trkpt lat="29.885692549883203" lon="-5.933753290823653"><ele>546.0</ele><time>2026-03-24T09:11:29.002Z</time></trkpt><trkpt lat="29.885766184570837" lon="-5.933561950934155"><ele>546.0</ele><time>2026-03-24T09:11:30.002Z</time></trkpt><trkpt lat="29.88584874564609" lon="-5.93335925474707"><ele>546.0</ele><time>2026-03-24T09:11:31.002Z</time></trkpt><trkpt lat="29.885927860197583" lon="-5.933157638282828"><ele>547.3333333333334</ele><time>2026-03-24T09:11:32.002Z</time></trkpt><trkpt lat="29.886011319379374" lon="-5.932958694149398"><ele>548.6666666666667</ele><time>2026-03-24T09:11:33.002Z</time></trkpt><trkpt lat="29.88607079393258" lon="-5.932779180762616"><ele>550.0</ele><time>2026-03-24T09:11:34.002Z</time></trkpt><trkpt lat="29.886122507997726" lon="-5.932603070428997"><ele>550.0</ele><time>2026-03-24T09:11:35.002Z</time></trkpt><trkpt lat="29.886170877132532" lon="-5.932434232515712"><ele>550.0</ele><time>2026-03-24T09:11:36.002Z</time></trkpt><trkpt lat="29.88622115579059" lon="-5.932263342446128"><ele>550.0</ele><time>2026-03-24T09:11:37.002Z</time></trkpt><trkpt lat="29.886277377206664" lon="-5.9321028190859275"><ele>550.0</ele><time>2026-03-24T09:11:38.002Z</time></trkpt><trkpt lat="29.886332914998462" lon="-5.931962661319182"><ele>550.0</ele><time>2026-03-24T09:11:39.002Z</time></trkpt><trkpt lat="29.886400211642087" lon="-5.931799407357066"><ele>550.0</ele><time>2026-03-24T09:11:40.002Z</time></trkpt><trkpt lat="29.886470191083575" lon="-5.9316324132362475"><ele>549.0</ele><time>2026-03-24T09:11:41.002Z</time></trkpt><trkpt lat="29.886539760985166" lon="-5.931456751479338"><ele>548.0</ele><time>2026-03-24T09:11:42.002Z</time></trkpt><trkpt lat="29.886599573168876" lon="-5.931280869095356"><ele>547.0</ele><time>2026-03-24T09:11:43.002Z</time></trkpt><trkpt lat="29.88665786714639" lon="-5.931116350380184"><ele>547.0</ele><time>2026-03-24T09:11:44.002Z</time></trkpt><trkpt lat="29.886718478782278" lon="-5.930968461422305"><ele>547.0</ele><time>2026-03-24T09:11:45.002Z</time></trkpt><trkpt lat="29.88678162162622" lon="-5.9308392437287205"><ele>547.0</ele><time>2026-03-24T09:11:46.002Z</time></trkpt><trkpt lat="29.88685814828939" lon="-5.930702718438934"><ele>547.0</ele><time>2026-03-24T09:11:47.002Z</time></trkpt><trkpt lat="29.886914705525992" lon="-5.9305671510711"><ele>547.25</ele><time>2026-03-24T09:11:48.002Z</time></trkpt><trkpt lat="29.88696031564088" lon="-5.930423788114738"><ele>547.5</ele><time>2026-03-24T09:11:49.002Z</time></trkpt><trkpt lat="29.886989512039733" lon="-5.930259961268793"><ele>547.75</ele><time>2026-03-24T09:11:50.002Z</time></trkpt><trkpt lat="29.887012081406198" lon="-5.930097933943554"><ele>548.0</ele><time>2026-03-24T09:11:51.002Z</time></trkpt><trkpt lat="29.88703987654439" lon="-5.929919436214475"><ele>548.0</ele><time>2026-03-24T09:11:52.002Z</time></trkpt><trkpt lat="29.887069168844796" lon="-5.929739888967937"><ele>548.0</ele><time>2026-03-24T09:11:53.002Z</time></trkpt><trkpt lat="29.887094787839178" lon="-5.929555139535502"><ele>548.0</ele><time>2026-03-24T09:11:54.002Z</time></trkpt><trkpt lat="29.88711082140323" lon="-5.929366436766945"><ele>548.3333333333333</ele><time>2026-03-24T09:11:55.002Z</time></trkpt><trkpt lat="29.887120295777454" lon="-5.929179264940505"><ele>548.6666666666666</ele><time>2026-03-24T09:11:56.002Z</time></trkpt><trkpt lat="29.887126608390094" lon="-5.928990986323613"><ele>549.0</ele><time>2026-03-24T09:11:57.002Z</time></trkpt><trkpt lat="29.887130658404246" lon="-5.928795335218762"><ele>549.0</ele><time>2026-03-24T09:11:58.002Z</time></trkpt><trkpt lat="29.8871431901932" lon="-5.928610219323711"><ele>549.0</ele><time>2026-03-24T09:11:59.002Z</time></trkpt><trkpt lat="29.88718264720466" lon="-5.928422369983464"><ele>549.0</ele><time>2026-03-24T09:12:00.002Z</time></trkpt><trkpt lat="29.887229842586752" lon="-5.928231014707335"><ele>550.3333333333334</ele><time>2026-03-24T09:12:01.002Z</time></trkpt><trkpt lat="29.887280796730387" lon="-5.928049193867091"><ele>551.6666666666667</ele><time>2026-03-24T09:12:02.002Z</time></trkpt><trkpt lat="29.88733271536617" lon="-5.927874566360176"><ele>553.0</ele><time>2026-03-24T09:12:03.003Z</time></trkpt><trkpt lat="29.887399064666486" lon="-5.927706754564904"><ele>552.6666666666667</ele><time>2026-03-24T09:12:04.003Z</time></trkpt><trkpt lat="29.887476431837268" lon="-5.9275404068010635"><ele>552.3333333333334</ele><time>2026-03-24T09:12:05.003Z</time></trkpt><trkpt lat="29.887552963607533" lon="-5.927362470027788"><ele>552.0</ele><time>2026-03-24T09:12:06.003Z</time></trkpt><trkpt lat="29.88762939247732" lon="-5.9271814200437545"><ele>552.0</ele><time>2026-03-24T09:12:07.003Z</time></trkpt><trkpt lat="29.887711177830262" lon="-5.927006595709989"><ele>552.0</ele><time>2026-03-24T09:12:08.003Z</time></trkpt><trkpt lat="29.88778236073062" lon="-5.926843044829775"><ele>552.0</ele><time>2026-03-24T09:12:09.003Z</time></trkpt><trkpt lat="29.887848463928275" lon="-5.9266822142345905"><ele>551.3333333333334</ele><time>2026-03-24T09:12:10.003Z</time></trkpt><trkpt lat="29.887916977156557" lon="-5.926521180139579"><ele>550.6666666666667</ele><time>2026-03-24T09:12:11.003Z</time></trkpt><trkpt lat="29.887968391743048" lon="-5.9263540157506105"><ele>550.0</ele><time>2026-03-24T09:12:12.002Z</time></trkpt><trkpt lat="29.888016952617967" lon="-5.9261779856860555"><ele>550.0</ele><time>2026-03-24T09:12:13.002Z</time></trkpt><trkpt lat="29.888064311079045" lon="-5.925993339800072"><ele>550.0</ele><time>2026-03-24T09:12:14.002Z</time></trkpt><trkpt lat="29.88811282643902" lon="-5.925808734122433"><ele>550.0</ele><time>2026-03-24T09:12:15.003Z</time></trkpt><trkpt lat="29.88817347940425" lon="-5.925637129145241"><ele>551.0</ele><time>2026-03-24T09:12:16.003Z</time></trkpt><trkpt lat="29.888236798925853" lon="-5.925458457056046"><ele>552.0</ele><time>2026-03-24T09:12:17.003Z</time></trkpt><trkpt lat="29.88831404981903" lon="-5.925297538957985"><ele>553.0</ele><time>2026-03-24T09:12:18.003Z</time></trkpt><trkpt lat="29.888408808392718" lon="-5.925142542898187"><ele>553.0</ele><time>2026-03-24T09:12:19.003Z</time></trkpt><trkpt lat="29.888490722884764" lon="-5.924987436245643"><ele>553.0</ele><time>2026-03-24T09:12:20.003Z</time></trkpt><trkpt lat="29.888551115096387" lon="-5.924830827880419"><ele>553.0</ele><time>2026-03-24T09:12:21.003Z</time></trkpt><trkpt lat="29.888601229407264" lon="-5.924661246101024"><ele>553.0</ele><time>2026-03-24T09:12:22.003Z</time></trkpt><trkpt lat="29.888641241308456" lon="-5.924484005157645"><ele>553.0</ele><time>2026-03-24T09:12:23.003Z</time></trkpt><trkpt lat="29.88868201206132" lon="-5.924299502456921"><ele>553.0</ele><time>2026-03-24T09:12:24.003Z</time></trkpt><trkpt lat="29.888718307815374" lon="-5.924115106918721"><ele>553.3333333333334</ele><time>2026-03-24T09:12:25.003Z</time></trkpt><trkpt lat="29.888750811944096" lon="-5.923933049340755"><ele>553.6666666666666</ele><time>2026-03-24T09:12:26.003Z</time></trkpt><trkpt lat="29.888790531360822" lon="-5.923757629088782"><ele>554.0</ele><time>2026-03-24T09:12:27.003Z</time></trkpt><trkpt lat="29.8888490945278" lon="-5.9236002469183235"><ele>554.0</ele><time>2026-03-24T09:12:28.003Z</time></trkpt><trkpt lat="29.88890759499089" lon="-5.92345612230339"><ele>554.0</ele><time>2026-03-24T09:12:29.003Z</time></trkpt><trkpt lat="29.88892143314796" lon="-5.923347825186814"><ele>554.0</ele><time>2026-03-24T09:12:30.003Z</time></trkpt><trkpt lat="29.888909650253854" lon="-5.923260850344646"><ele>554.0</ele><time>2026-03-24T09:12:31.003Z</time></trkpt><trkpt lat="29.888889021619136" lon="-5.9231864375665655"><ele>554.0</ele><time>2026-03-24T09:12:32.003Z</time></trkpt><trkpt lat="29.888871204455302" lon="-5.9231144015290935"><ele>554.0</ele><time>2026-03-24T09:12:33.003Z</time></trkpt><trkpt lat="29.8888754164668" lon="-5.923028808685675"><ele>554.0</ele><time>2026-03-24T09:12:34.003Z</time></trkpt><trkpt lat="29.888892090605715" lon="-5.922944016097"><ele>554.0</ele><time>2026-03-24T09:12:35.003Z</time></trkpt><trkpt lat="29.8889199671893" lon="-5.922858614528441"><ele>554.0</ele><time>2026-03-24T09:12:36.003Z</time></trkpt><trkpt lat="29.888964149795466" lon="-5.922758928760322"><ele>554.0</ele><time>2026-03-24T09:12:37.003Z</time></trkpt><trkpt lat="29.889025043123734" lon="-5.9226587544621765"><ele>554.0</ele><time>2026-03-24T09:12:38.003Z</time></trkpt><trkpt lat="29.889106204988583" lon="-5.922557151678544"><ele>554.25</ele><time>2026-03-24T09:12:39.003Z</time></trkpt><trkpt lat="29.889186370336756" lon="-5.922455407333827"><ele>554.5</ele><time>2026-03-24T09:12:40.003Z</time></trkpt><trkpt lat="29.889258840761887" lon="-5.922359771247576"><ele>554.75</ele><time>2026-03-24T09:12:41.003Z</time></trkpt><trkpt lat="29.889332832156807" lon="-5.922269871767458"><ele>555.0</ele><time>2026-03-24T09:12:42.003Z</time></trkpt><trkpt lat="29.88942080097387" lon="-5.922172518519762"><ele>555.0</ele><time>2026-03-24T09:12:43.003Z</time></trkpt><trkpt lat="29.889516573160137" lon="-5.922067137352988"><ele>555.0</ele><time>2026-03-24T09:12:44.003Z</time></trkpt><trkpt lat="29.889615178483858" lon="-5.9219556476444595"><ele>555.0</ele><time>2026-03-24T09:12:45.003Z</time></trkpt><trkpt lat="29.889727878476492" lon="-5.921834704011906"><ele>555.0</ele><time>2026-03-24T09:12:46.003Z</time></trkpt><trkpt lat="29.889846063471957" lon="-5.921707522437387"><ele>555.6666666666666</ele><time>2026-03-24T09:12:47.003Z</time></trkpt><trkpt lat="29.88995981887031" lon="-5.921580544969696"><ele>556.3333333333333</ele><time>2026-03-24T09:12:48.003Z</time></trkpt><trkpt lat="29.89007865379992" lon="-5.921456573987752"><ele>557.0</ele><time>2026-03-24T09:12:49.003Z</time></trkpt><trkpt lat="29.89020438335317" lon="-5.921345240633617"><ele>557.0</ele><time>2026-03-24T09:12:50.003Z</time></trkpt><trkpt lat="29.890328369831487" lon="-5.921232103064672"><ele>557.0</ele><time>2026-03-24T09:12:51.003Z</time></trkpt><trkpt lat="29.890454868835835" lon="-5.921120971420156"><ele>557.0</ele><time>2026-03-24T09:12:52.003Z</time></trkpt><trkpt lat="29.89058791967856" lon="-5.921002043318405"><ele>556.6666666666666</ele><time>2026-03-24T09:12:53.003Z</time></trkpt><trkpt lat="29.89072659948302" lon="-5.920880204217732"><ele>556.3333333333334</ele><time>2026-03-24T09:12:54.003Z</time></trkpt><trkpt lat="29.89086017344557" lon="-5.92076099560442"><ele>556.0</ele><time>2026-03-24T09:12:55.003Z</time></trkpt><trkpt lat="29.890984829544653" lon="-5.920634599697284"><ele>556.6666666666667</ele><time>2026-03-24T09:12:56.003Z</time></trkpt><trkpt lat="29.89110677695749" lon="-5.920509354155673"><ele>557.3333333333334</ele><time>2026-03-24T09:12:57.003Z</time></trkpt><trkpt lat="29.89122916172004" lon="-5.920387193808747"><ele>558.0</ele><time>2026-03-24T09:12:58.003Z</time></trkpt><trkpt lat="29.891343345581493" lon="-5.920273668432908"><ele>558.0</ele><time>2026-03-24T09:12:59.003Z</time></trkpt><trkpt lat="29.891458828929615" lon="-5.92016033119538"><ele>558.0</ele><time>2026-03-24T09:13:00.003Z</time></trkpt><trkpt lat="29.89158045515584" lon="-5.920043711626306"><ele>558.0</ele><time>2026-03-24T09:13:01.003Z</time></trkpt><trkpt lat="29.891709878631264" lon="-5.9199291657835476"><ele>558.0</ele><time>2026-03-24T09:13:02.003Z</time></trkpt><trkpt lat="29.891858486939114" lon="-5.919810969232882"><ele>558.0</ele><time>2026-03-24T09:13:03.003Z</time></trkpt><trkpt lat="29.8920201121883" lon="-5.919668896565078"><ele>558.0</ele><time>2026-03-24T09:13:04.003Z</time></trkpt><trkpt lat="29.892183848253207" lon="-5.919519031346013"><ele>558.0</ele><time>2026-03-24T09:13:05.003Z</time></trkpt><trkpt lat="29.892333122476717" lon="-5.9193844948922125"><ele>558.0</ele><time>2026-03-24T09:13:06.003Z</time></trkpt><trkpt lat="29.892465385150146" lon="-5.919268974848126"><ele>558.0</ele><time>2026-03-24T09:13:07.003Z</time></trkpt><trkpt lat="29.89259557286844" lon="-5.919153117529377"><ele>557.6666666666666</ele><time>2026-03-24T09:13:08.003Z</time></trkpt><trkpt lat="29.892730381915197" lon="-5.919039393652297"><ele>557.3333333333333</ele><time>2026-03-24T09:13:09.003Z</time></trkpt><trkpt lat="29.892878875558008" lon="-5.91893039624821"><ele>557.0</ele><time>2026-03-24T09:13:10.003Z</time></trkpt><trkpt lat="29.89302885820962" lon="-5.9188233235983345"><ele>557.0</ele><time>2026-03-24T09:13:11.003Z</time></trkpt><trkpt lat="29.893183786607615" lon="-5.918716449965574"><ele>557.0</ele><time>2026-03-24T09:13:12.003Z</time></trkpt><trkpt lat="29.893340173666846" lon="-5.918608459507183"><ele>557.0</ele><time>2026-03-24T09:13:13.003Z</time></trkpt><trkpt lat="29.893498955434797" lon="-5.91849838357433"><ele>557.6666666666666</ele><time>2026-03-24T09:13:14.003Z</time></trkpt><trkpt lat="29.89365835523361" lon="-5.918384919504075"><ele>558.3333333333334</ele><time>2026-03-24T09:13:15.003Z</time></trkpt><trkpt lat="29.89380385455258" lon="-5.918276650916054"><ele>559.0</ele><time>2026-03-24T09:13:16.003Z</time></trkpt><trkpt lat="29.89394525247092" lon="-5.918169689128893"><ele>559.0</ele><time>2026-03-24T09:13:17.003Z</time></trkpt><trkpt lat="29.894081994314046" lon="-5.9180621095570345"><ele>559.0</ele><time>2026-03-24T09:13:18.003Z</time></trkpt><trkpt lat="29.89421835290569" lon="-5.917962484180994"><ele>559.0</ele><time>2026-03-24T09:13:19.003Z</time></trkpt><trkpt lat="29.89434718574105" lon="-5.917871830552495"><ele>559.5</ele><time>2026-03-24T09:13:20.003Z</time></trkpt><trkpt lat="29.894468746837756" lon="-5.917780791407402"><ele>560.0</ele><time>2026-03-24T09:13:21.003Z</time></trkpt><trkpt lat="29.894584610285673" lon="-5.917682865113965"><ele>560.5</ele><time>2026-03-24T09:13:22.003Z</time></trkpt><trkpt lat="29.8946942853261" lon="-5.917576908660946"><ele>561.0</ele><time>2026-03-24T09:13:23.003Z</time></trkpt><trkpt lat="29.894793569153435" lon="-5.917473118606805"><ele>561.0</ele><time>2026-03-24T09:13:24.003Z</time></trkpt><trkpt lat="29.89489056437438" lon="-5.917368744792936"><ele>561.0</ele><time>2026-03-24T09:13:25.003Z</time></trkpt><trkpt lat="29.894992080164773" lon="-5.91726531632808"><ele>561.0</ele><time>2026-03-24T09:13:26.003Z</time></trkpt><trkpt lat="29.895096857553288" lon="-5.91716050435701"><ele>561.0</ele><time>2026-03-24T09:13:27.003Z</time></trkpt><trkpt lat="29.89520412703516" lon="-5.91705680161727"><ele>561.0</ele><time>2026-03-24T09:13:28.003Z</time></trkpt><trkpt lat="29.89531361365654" lon="-5.9169462821379355"><ele>561.0</ele><time>2026-03-24T09:13:29.003Z</time></trkpt><trkpt lat="29.895425175290686" lon="-5.916835070035408"><ele>561.0</ele><time>2026-03-24T09:13:30.003Z</time></trkpt><trkpt lat="29.895539480770285" lon="-5.9167209720171385"><ele>561.0</ele><time>2026-03-24T09:13:31.003Z</time></trkpt><trkpt lat="29.8956597059929" lon="-5.916603031719414"><ele>561.0</ele><time>2026-03-24T09:13:32.003Z</time></trkpt><trkpt lat="29.895784887342472" lon="-5.916479811194527"><ele>561.0</ele><time>2026-03-24T09:13:33.003Z</time></trkpt><trkpt lat="29.895916293697827" lon="-5.916344516341119"><ele>561.0</ele><time>2026-03-24T09:13:34.003Z</time></trkpt><trkpt lat="29.896058071298828" lon="-5.916200336698622"><ele>560.6666666666666</ele><time>2026-03-24T09:13:35.003Z</time></trkpt><trkpt lat="29.896207228189226" lon="-5.916049139357536"><ele>560.3333333333333</ele><time>2026-03-24T09:13:36.003Z</time></trkpt><trkpt lat="29.896351125356933" lon="-5.915913581600941"><ele>560.0</ele><time>2026-03-24T09:13:37.003Z</time></trkpt><trkpt lat="29.89649277018726" lon="-5.915780599037408"><ele>560.0</ele><time>2026-03-24T09:13:38.003Z</time></trkpt><trkpt lat="29.89661713503153" lon="-5.915655211904492"><ele>560.0</ele><time>2026-03-24T09:13:39.003Z</time></trkpt><trkpt lat="29.896736390142994" lon="-5.915524079018503"><ele>560.0</ele><time>2026-03-24T09:13:40.003Z</time></trkpt><trkpt lat="29.89684387415734" lon="-5.915392987217661"><ele>560.5</ele><time>2026-03-24T09:13:41.003Z</time></trkpt><trkpt lat="29.896934766805632" lon="-5.915262822889746"><ele>561.0</ele><time>2026-03-24T09:13:42.003Z</time></trkpt><trkpt lat="29.89700918233628" lon="-5.91512808146377"><ele>561.5</ele><time>2026-03-24T09:13:43.003Z</time></trkpt><trkpt lat="29.897074441833528" lon="-5.9149796888818855"><ele>562.0</ele><time>2026-03-24T09:13:44.003Z</time></trkpt><trkpt lat="29.89714145884785" lon="-5.914823651899241"><ele>562.3333333333334</ele><time>2026-03-24T09:13:45.003Z</time></trkpt><trkpt lat="29.8972043433237" lon="-5.9146615601660155"><ele>562.6666666666666</ele><time>2026-03-24T09:13:46.003Z</time></trkpt><trkpt lat="29.897278568859964" lon="-5.91449002775751"><ele>563.0</ele><time>2026-03-24T09:13:47.003Z</time></trkpt><trkpt lat="29.897361517908983" lon="-5.914322687671956"><ele>563.3333333333333</ele><time>2026-03-24T09:13:48.003Z</time></trkpt><trkpt lat="29.89744677615169" lon="-5.914160759532146"><ele>563.6666666666666</ele><time>2026-03-24T09:13:49.003Z</time></trkpt><trkpt lat="29.897532123653665" lon="-5.9140064115424495"><ele>564.0</ele><time>2026-03-24T09:13:50.003Z</time></trkpt><trkpt lat="29.897622503470423" lon="-5.913857753801157"><ele>563.6666666666666</ele><time>2026-03-24T09:13:51.003Z</time></trkpt><trkpt lat="29.897702041876546" lon="-5.913705141884698"><ele>563.3333333333333</ele><time>2026-03-24T09:13:52.003Z</time></trkpt><trkpt lat="29.89777390066262" lon="-5.913534887275357"><ele>563.0</ele><time>2026-03-24T09:13:53.003Z</time></trkpt><trkpt lat="29.897840588936365" lon="-5.913383553314482"><ele>563.0</ele><time>2026-03-24T09:13:54.003Z</time></trkpt><trkpt lat="29.897919699208696" lon="-5.913222563322864"><ele>563.0</ele><time>2026-03-24T09:13:55.003Z</time></trkpt><trkpt lat="29.897999245822202" lon="-5.913059050047952"><ele>563.0</ele><time>2026-03-24T09:13:56.003Z</time></trkpt><trkpt lat="29.89807943571749" lon="-5.912898941021402"><ele>563.0</ele><time>2026-03-24T09:13:57.003Z</time></trkpt><trkpt lat="29.898153829826644" lon="-5.912733035276693"><ele>563.0</ele><time>2026-03-24T09:13:58.003Z</time></trkpt><trkpt lat="29.898228540458383" lon="-5.912568974362604"><ele>563.0</ele><time>2026-03-24T09:13:59.003Z</time></trkpt><trkpt lat="29.89831554252325" lon="-5.912412663146942"><ele>562.6666666666666</ele><time>2026-03-24T09:14:00.003Z</time></trkpt><trkpt lat="29.89841761237308" lon="-5.9122426488334385"><ele>562.3333333333334</ele><time>2026-03-24T09:14:01.003Z</time></trkpt><trkpt lat="29.898502529637813" lon="-5.912082287246126"><ele>562.0</ele><time>2026-03-24T09:14:02.003Z</time></trkpt><trkpt lat="29.898564930834198" lon="-5.91194748174196"><ele>562.2</ele><time>2026-03-24T09:14:03.003Z</time></trkpt><trkpt lat="29.898623213367536" lon="-5.911825654296254"><ele>562.4000000000001</ele><time>2026-03-24T09:14:04.003Z</time></trkpt><trkpt lat="29.898663733550368" lon="-5.911714523709899"><ele>562.5999999999999</ele><time>2026-03-24T09:14:05.003Z</time></trkpt><trkpt lat="29.898680575048008" lon="-5.911596875895852"><ele>562.8</ele><time>2026-03-24T09:14:06.003Z</time></trkpt><trkpt lat="29.898675733110935" lon="-5.911459840987111"><ele>563.0</ele><time>2026-03-24T09:14:07.003Z</time></trkpt><trkpt lat="29.89866889926783" lon="-5.911305224159341"><ele>563.0</ele><time>2026-03-24T09:14:08.002Z</time></trkpt><trkpt lat="29.89866819138844" lon="-5.911158195936294"><ele>563.0</ele><time>2026-03-24T09:14:09.003Z</time></trkpt><trkpt lat="29.898668600302" lon="-5.911032849910292"><ele>563.0</ele><time>2026-03-24T09:14:10.003Z</time></trkpt><trkpt lat="29.898662268931293" lon="-5.910918185871523"><ele>563.0</ele><time>2026-03-24T09:14:11.003Z</time></trkpt><trkpt lat="29.898668556741708" lon="-5.910792159304856"><ele>563.0</ele><time>2026-03-24T09:14:12.003Z</time></trkpt><trkpt lat="29.898673536038515" lon="-5.910655149586835"><ele>563.0</ele><time>2026-03-24T09:14:13.003Z</time></trkpt><trkpt lat="29.898677088291336" lon="-5.910525941291949"><ele>563.0</ele><time>2026-03-24T09:14:14.003Z</time></trkpt><trkpt lat="29.89867480172083" lon="-5.910359510423948"><ele>563.0</ele><time>2026-03-24T09:14:15.003Z</time></trkpt><trkpt lat="29.89867173990068" lon="-5.910190795731465"><ele>563.0</ele><time>2026-03-24T09:14:16.003Z</time></trkpt><trkpt lat="29.898666404811124" lon="-5.910030212009739"><ele>563.25</ele><time>2026-03-24T09:14:17.003Z</time></trkpt><trkpt lat="29.898657671329985" lon="-5.9098856486605005"><ele>563.5</ele><time>2026-03-24T09:14:18.003Z</time></trkpt><trkpt lat="29.898651867856977" lon="-5.909727132062754"><ele>563.75</ele><time>2026-03-24T09:14:19.003Z</time></trkpt><trkpt lat="29.898645884826447" lon="-5.9095616730269285"><ele>564.0</ele><time>2026-03-24T09:14:20.002Z</time></trkpt><trkpt lat="29.8986320253731" lon="-5.909392293112001"><ele>563.75</ele><time>2026-03-24T09:14:21.003Z</time></trkpt><trkpt lat="29.898610891902457" lon="-5.909211887342243"><ele>563.5</ele><time>2026-03-24T09:14:22.003Z</time></trkpt><trkpt lat="29.898591267190383" lon="-5.90904412250006"><ele>563.25</ele><time>2026-03-24T09:14:23.003Z</time></trkpt><trkpt lat="29.89859488330192" lon="-5.908887769368576"><ele>563.0</ele><time>2026-03-24T09:14:24.003Z</time></trkpt><trkpt lat="29.898609029972924" lon="-5.908753392145447"><ele>563.0</ele><time>2026-03-24T09:14:25.003Z</time></trkpt><trkpt lat="29.89863420771855" lon="-5.908623091017544"><ele>563.0</ele><time>2026-03-24T09:14:26.003Z</time></trkpt><trkpt lat="29.898670260987508" lon="-5.908495093194634"><ele>563.0</ele><time>2026-03-24T09:14:27.003Z</time></trkpt><trkpt lat="29.898741172200474" lon="-5.908340971071658"><ele>563.0</ele><time>2026-03-24T09:14:28.003Z</time></trkpt><trkpt lat="29.898836503525253" lon="-5.908218578797734"><ele>563.0</ele><time>2026-03-24T09:14:29.003Z</time></trkpt><trkpt lat="29.898924331560313" lon="-5.9081162874262665"><ele>563.0</ele><time>2026-03-24T09:14:30.003Z</time></trkpt><trkpt lat="29.89900727272858" lon="-5.908036601772611"><ele>563.0</ele><time>2026-03-24T09:14:31.003Z</time></trkpt><trkpt lat="29.89909664840935" lon="-5.907969542012235"><ele>563.0</ele><time>2026-03-24T09:14:32.003Z</time></trkpt><trkpt lat="29.8991904946747" lon="-5.907889410633574"><ele>563.25</ele><time>2026-03-24T09:14:33.003Z</time></trkpt><trkpt lat="29.899275993914628" lon="-5.907803119135268"><ele>563.5</ele><time>2026-03-24T09:14:34.003Z</time></trkpt><trkpt lat="29.899369697625996" lon="-5.907711614425829"><ele>563.75</ele><time>2026-03-24T09:14:35.003Z</time></trkpt><trkpt lat="29.89946367530624" lon="-5.907623829109486"><ele>564.0</ele><time>2026-03-24T09:14:36.003Z</time></trkpt><trkpt lat="29.899548728200013" lon="-5.907530276339592"><ele>564.0</ele><time>2026-03-24T09:14:37.003Z</time></trkpt><trkpt lat="29.899637511809477" lon="-5.907439135493698"><ele>564.0</ele><time>2026-03-24T09:14:38.003Z</time></trkpt><trkpt lat="29.899728518482885" lon="-5.907338627388227"><ele>564.0</ele><time>2026-03-24T09:14:39.003Z</time></trkpt><trkpt lat="29.89983870674072" lon="-5.907224954899778"><ele>564.0</ele><time>2026-03-24T09:14:40.003Z</time></trkpt><trkpt lat="29.899933879495777" lon="-5.9071259361006465"><ele>564.0</ele><time>2026-03-24T09:14:41.003Z</time></trkpt><trkpt lat="29.90001125826438" lon="-5.907024740769387"><ele>564.0</ele><time>2026-03-24T09:14:42.003Z</time></trkpt><trkpt lat="29.900076693773503" lon="-5.906925042953452"><ele>564.0</ele><time>2026-03-24T09:14:43.003Z</time></trkpt><trkpt lat="29.900157758864044" lon="-5.906824386726968"><ele>564.0</ele><time>2026-03-24T09:14:44.003Z</time></trkpt><trkpt lat="29.900242773015272" lon="-5.9067303766503585"><ele>564.25</ele><time>2026-03-24T09:14:45.003Z</time></trkpt><trkpt lat="29.900319639618075" lon="-5.9066203379619955"><ele>564.5</ele><time>2026-03-24T09:14:46.003Z</time></trkpt><trkpt lat="29.900398689903284" lon="-5.906500538617907"><ele>564.75</ele><time>2026-03-24T09:14:47.003Z</time></trkpt><trkpt lat="29.90047401207952" lon="-5.906393979548236"><ele>565.0</ele><time>2026-03-24T09:14:48.003Z</time></trkpt><trkpt lat="29.90055348096555" lon="-5.906288851611064"><ele>565.0</ele><time>2026-03-24T09:14:49.003Z</time></trkpt><trkpt lat="29.90063631440991" lon="-5.906179923661284"><ele>565.0</ele><time>2026-03-24T09:14:50.003Z</time></trkpt><trkpt lat="29.90072505183469" lon="-5.906066011820949"><ele>565.0</ele><time>2026-03-24T09:14:51.003Z</time></trkpt><trkpt lat="29.90080503654807" lon="-5.905965769833435"><ele>565.0</ele><time>2026-03-24T09:14:52.003Z</time></trkpt><trkpt lat="29.90088134782681" lon="-5.905860177108097"><ele>565.25</ele><time>2026-03-24T09:14:53.003Z</time></trkpt><trkpt lat="29.900961112385257" lon="-5.905753566915324"><ele>565.5</ele><time>2026-03-24T09:14:54.003Z</time></trkpt><trkpt lat="29.901041840997962" lon="-5.905641029531957"><ele>565.75</ele><time>2026-03-24T09:14:55.003Z</time></trkpt><trkpt lat="29.90112477501608" lon="-5.90553150575586"><ele>566.0</ele><time>2026-03-24T09:14:56.003Z</time></trkpt><trkpt lat="29.90121031138011" lon="-5.905423574221302"><ele>566.0</ele><time>2026-03-24T09:14:57.003Z</time></trkpt><trkpt lat="29.901295767032302" lon="-5.905316354547154"><ele>566.0</ele><time>2026-03-24T09:14:58.003Z</time></trkpt><trkpt lat="29.90138781278617" lon="-5.905198930150585"><ele>566.0</ele><time>2026-03-24T09:14:59.003Z</time></trkpt><trkpt lat="29.90148485772803" lon="-5.905083545803152"><ele>566.0</ele><time>2026-03-24T09:15:00.003Z</time></trkpt><trkpt lat="29.90157533147399" lon="-5.904971580732464"><ele>565.75</ele><time>2026-03-24T09:15:01.003Z</time></trkpt><trkpt lat="29.90165587733755" lon="-5.904859327477603"><ele>565.5</ele><time>2026-03-24T09:15:02.003Z</time></trkpt><trkpt lat="29.90173820070878" lon="-5.904744105045302"><ele>565.25</ele><time>2026-03-24T09:15:03.003Z</time></trkpt><trkpt lat="29.901820158612647" lon="-5.904625251303291"><ele>565.0</ele><time>2026-03-24T09:15:04.003Z</time></trkpt><trkpt lat="29.901904556395518" lon="-5.904511690496252"><ele>565.5</ele><time>2026-03-24T09:15:05.003Z</time></trkpt><trkpt lat="29.902002770597893" lon="-5.904387135427255"><ele>566.0</ele><time>2026-03-24T09:15:06.003Z</time></trkpt><trkpt lat="29.902106038893997" lon="-5.904255570849625"><ele>566.5</ele><time>2026-03-24T09:15:07.003Z</time></trkpt><trkpt lat="29.902201294345314" lon="-5.904137931208136"><ele>567.0</ele><time>2026-03-24T09:15:08.003Z</time></trkpt><trkpt lat="29.90229855523015" lon="-5.9040130237798465"><ele>567.0</ele><time>2026-03-24T09:15:09.003Z</time></trkpt><trkpt lat="29.90239163621868" lon="-5.903881911244651"><ele>567.0</ele><time>2026-03-24T09:15:10.003Z</time></trkpt><trkpt lat="29.90249975525933" lon="-5.903748098625603"><ele>567.0</ele><time>2026-03-24T09:15:11.003Z</time></trkpt><trkpt lat="29.902596349201307" lon="-5.903624090900293"><ele>567.5</ele><time>2026-03-24T09:15:12.003Z</time></trkpt><trkpt lat="29.90268736405327" lon="-5.903504085344862"><ele>568.0</ele><time>2026-03-24T09:15:13.003Z</time></trkpt><trkpt lat="29.902782147216726" lon="-5.9033752639113635"><ele>568.5</ele><time>2026-03-24T09:15:14.003Z</time></trkpt><trkpt lat="29.902873254772707" lon="-5.903241987215957"><ele>569.0</ele><time>2026-03-24T09:15:15.003Z</time></trkpt><trkpt lat="29.90297288831179" lon="-5.903111994971542"><ele>569.0</ele><time>2026-03-24T09:15:16.003Z</time></trkpt><trkpt lat="29.90307117284897" lon="-5.902990710944271"><ele>569.0</ele><time>2026-03-24T09:15:17.003Z</time></trkpt><trkpt lat="29.903165700172003" lon="-5.902865413025644"><ele>569.0</ele><time>2026-03-24T09:15:18.003Z</time></trkpt><trkpt lat="29.903262434922027" lon="-5.902734942328653"><ele>569.0</ele><time>2026-03-24T09:15:19.003Z</time></trkpt><trkpt lat="29.903368410676045" lon="-5.902608335426759"><ele>568.6666666666666</ele><time>2026-03-24T09:15:20.003Z</time></trkpt><trkpt lat="29.903469770680847" lon="-5.902481507158263"><ele>568.3333333333334</ele><time>2026-03-24T09:15:21.003Z</time></trkpt><trkpt lat="29.903571125629387" lon="-5.902348974667383"><ele>568.0</ele><time>2026-03-24T09:15:22.003Z</time></trkpt><trkpt lat="29.903680932830845" lon="-5.902198189107202"><ele>568.0</ele><time>2026-03-24T09:15:23.003Z</time></trkpt><trkpt lat="29.903784211864174" lon="-5.902056566581801"><ele>568.0</ele><time>2026-03-24T09:15:24.003Z</time></trkpt><trkpt lat="29.90388616617391" lon="-5.901918937981226"><ele>568.0</ele><time>2026-03-24T09:15:25.003Z</time></trkpt><trkpt lat="29.90398946141047" lon="-5.90176532276543"><ele>568.3333333333334</ele><time>2026-03-24T09:15:26.003Z</time></trkpt><trkpt lat="29.90409465522487" lon="-5.90163197606814"><ele>568.6666666666666</ele><time>2026-03-24T09:15:27.003Z</time></trkpt><trkpt lat="29.9041899869555" lon="-5.901492252760157"><ele>569.0</ele><time>2026-03-24T09:15:28.003Z</time></trkpt><trkpt lat="29.90428184877684" lon="-5.901359455990955"><ele>568.75</ele><time>2026-03-24T09:15:29.003Z</time></trkpt><trkpt lat="29.90437636860721" lon="-5.901238726888016"><ele>568.5</ele><time>2026-03-24T09:15:30.003Z</time></trkpt><trkpt lat="29.90447220275892" lon="-5.901108933497707"><ele>568.25</ele><time>2026-03-24T09:15:31.003Z</time></trkpt><trkpt lat="29.904568305982078" lon="-5.900973132057612"><ele>568.0</ele><time>2026-03-24T09:15:32.003Z</time></trkpt><trkpt lat="29.904657979610302" lon="-5.900847257143043"><ele>568.0</ele><time>2026-03-24T09:15:33.003Z</time></trkpt><trkpt lat="29.904747657135307" lon="-5.900723255407974"><ele>568.0</ele><time>2026-03-24T09:15:34.003Z</time></trkpt><trkpt lat="29.904844437863893" lon="-5.900593128349185"><ele>568.0</ele><time>2026-03-24T09:15:35.003Z</time></trkpt><trkpt lat="29.90494534676943" lon="-5.9004608094657875"><ele>568.0</ele><time>2026-03-24T09:15:36.003Z</time></trkpt><trkpt lat="29.905040869021878" lon="-5.9003286695806985"><ele>568.0</ele><time>2026-03-24T09:15:37.003Z</time></trkpt><trkpt lat="29.90513071167934" lon="-5.90019565651914"><ele>568.0</ele><time>2026-03-24T09:15:38.003Z</time></trkpt><trkpt lat="29.905224689689184" lon="-5.900067010343456"><ele>568.0</ele><time>2026-03-24T09:15:39.003Z</time></trkpt><trkpt lat="29.90531698647805" lon="-5.899944022309319"><ele>568.0</ele><time>2026-03-24T09:15:40.003Z</time></trkpt><trkpt lat="29.90540617272912" lon="-5.899817230931719"><ele>568.25</ele><time>2026-03-24T09:15:41.003Z</time></trkpt><trkpt lat="29.905496089823856" lon="-5.899692015567394"><ele>568.5</ele><time>2026-03-24T09:15:42.003Z</time></trkpt><trkpt lat="29.905584995027816" lon="-5.899567344816158"><ele>568.75</ele><time>2026-03-24T09:15:43.003Z</time></trkpt><trkpt lat="29.90568356567451" lon="-5.899438021200625"><ele>569.0</ele><time>2026-03-24T09:15:44.003Z</time></trkpt><trkpt lat="29.905777038631555" lon="-5.899308399854356"><ele>569.0</ele><time>2026-03-24T09:15:45.003Z</time></trkpt><trkpt lat="29.90586443251386" lon="-5.899182488622034"><ele>569.0</ele><time>2026-03-24T09:15:46.003Z</time></trkpt><trkpt lat="29.905946665110708" lon="-5.899062841640413"><ele>569.0</ele><time>2026-03-24T09:15:47.003Z</time></trkpt><trkpt lat="29.906040147343013" lon="-5.898939697136302"><ele>569.0</ele><time>2026-03-24T09:15:48.003Z</time></trkpt><trkpt lat="29.906131106495387" lon="-5.898808826374871"><ele>569.0</ele><time>2026-03-24T09:15:49.003Z</time></trkpt><trkpt lat="29.906227200532033" lon="-5.898678486949267"><ele>569.0</ele><time>2026-03-24T09:15:50.003Z</time></trkpt><trkpt lat="29.906318532992156" lon="-5.898554702595538"><ele>569.0</ele><time>2026-03-24T09:15:51.003Z</time></trkpt><trkpt lat="29.90641101938738" lon="-5.898425656376743"><ele>569.0</ele><time>2026-03-24T09:15:52.003Z</time></trkpt><trkpt lat="29.90649751007263" lon="-5.89829950087125"><ele>568.75</ele><time>2026-03-24T09:15:53.003Z</time></trkpt><trkpt lat="29.90658784796277" lon="-5.898169666773226"><ele>568.5</ele><time>2026-03-24T09:15:54.003Z</time></trkpt><trkpt lat="29.906678295382658" lon="-5.898038529169283"><ele>568.25</ele><time>2026-03-24T09:15:55.003Z</time></trkpt><trkpt lat="29.90676370444623" lon="-5.897919149742224"><ele>568.0</ele><time>2026-03-24T09:15:56.003Z</time></trkpt><trkpt lat="29.9068553288804" lon="-5.897791465427219"><ele>568.0</ele><time>2026-03-24T09:15:57.003Z</time></trkpt><trkpt lat="29.906946855870327" lon="-5.8976691092679605"><ele>568.0</ele><time>2026-03-24T09:15:58.003Z</time></trkpt><trkpt lat="29.90702950392216" lon="-5.897546772638003"><ele>568.0</ele><time>2026-03-24T09:15:59.003Z</time></trkpt><trkpt lat="29.907121165525886" lon="-5.897422660472393"><ele>568.0</ele><time>2026-03-24T09:16:00.003Z</time></trkpt><trkpt lat="29.907204788468754" lon="-5.897308801085604"><ele>568.0</ele><time>2026-03-24T09:16:01.003Z</time></trkpt><trkpt lat="29.907305165700134" lon="-5.897182940628891"><ele>568.0</ele><time>2026-03-24T09:16:02.003Z</time></trkpt><trkpt lat="29.907394121635285" lon="-5.897059355539721"><ele>568.0</ele><time>2026-03-24T09:16:03.003Z</time></trkpt><trkpt lat="29.907489078353127" lon="-5.896931748665997"><ele>568.0</ele><time>2026-03-24T09:16:04.003Z</time></trkpt><trkpt lat="29.90758077160106" lon="-5.896802523981492"><ele>567.6666666666667</ele><time>2026-03-24T09:16:05.003Z</time></trkpt><trkpt lat="29.907680660726065" lon="-5.896666731836921"><ele>567.3333333333334</ele><time>2026-03-24T09:16:06.003Z</time></trkpt><trkpt lat="29.907782973950575" lon="-5.8965217481332495"><ele>567.0</ele><time>2026-03-24T09:16:07.003Z</time></trkpt><trkpt lat="29.90788345962244" lon="-5.896371143111252"><ele>567.0</ele><time>2026-03-24T09:16:08.003Z</time></trkpt><trkpt lat="29.907971673494384" lon="-5.896226870571849"><ele>567.0</ele><time>2026-03-24T09:16:09.003Z</time></trkpt><trkpt lat="29.908055229771314" lon="-5.89608004949061"><ele>567.0</ele><time>2026-03-24T09:16:10.003Z</time></trkpt><trkpt lat="29.908133849936096" lon="-5.895940857878982"><ele>567.0</ele><time>2026-03-24T09:16:11.003Z</time></trkpt><trkpt lat="29.908215741147604" lon="-5.895797856358843"><ele>567.25</ele><time>2026-03-24T09:16:12.003Z</time></trkpt><trkpt lat="29.90829491960933" lon="-5.895658716846862"><ele>567.5</ele><time>2026-03-24T09:16:13.003Z</time></trkpt><trkpt lat="29.908374504343183" lon="-5.895525930626996"><ele>567.75</ele><time>2026-03-24T09:16:14.004Z</time></trkpt><trkpt lat="29.90846240579225" lon="-5.895385987511424"><ele>568.0</ele><time>2026-03-24T09:16:15.002Z</time></trkpt><trkpt lat="29.90854817867255" lon="-5.89525310178719"><ele>568.3333333333334</ele><time>2026-03-24T09:16:16.002Z</time></trkpt><trkpt lat="29.90863581114589" lon="-5.895111302035521"><ele>568.6666666666666</ele><time>2026-03-24T09:16:17.003Z</time></trkpt><trkpt lat="29.908711210971195" lon="-5.894967009342844"><ele>569.0</ele><time>2026-03-24T09:16:18.003Z</time></trkpt><trkpt lat="29.908796442936513" lon="-5.894817337195632"><ele>569.0</ele><time>2026-03-24T09:16:19.003Z</time></trkpt><trkpt lat="29.908876828272657" lon="-5.894667354616772"><ele>569.0</ele><time>2026-03-24T09:16:20.004Z</time></trkpt><trkpt lat="29.908962378448713" lon="-5.894519316483738"><ele>569.0</ele><time>2026-03-24T09:16:21.003Z</time></trkpt><trkpt lat="29.909046382981572" lon="-5.894364696287226"><ele>568.6666666666666</ele><time>2026-03-24T09:16:22.003Z</time></trkpt><trkpt lat="29.909137450863078" lon="-5.894210433072401"><ele>568.3333333333334</ele><time>2026-03-24T09:16:23.003Z</time></trkpt><trkpt lat="29.909220467191414" lon="-5.894061111714256"><ele>568.0</ele><time>2026-03-24T09:16:24.003Z</time></trkpt><trkpt lat="29.90930852805062" lon="-5.893911727355372"><ele>568.0</ele><time>2026-03-24T09:16:25.003Z</time></trkpt><trkpt lat="29.90939390439356" lon="-5.893750384086365"><ele>568.0</ele><time>2026-03-24T09:16:26.003Z</time></trkpt><trkpt lat="29.909486265546285" lon="-5.893591955117888"><ele>568.0</ele><time>2026-03-24T09:16:27.002Z</time></trkpt><trkpt lat="29.909581841000286" lon="-5.893427848476865"><ele>567.6666666666667</ele><time>2026-03-24T09:16:28.002Z</time></trkpt><trkpt lat="29.909673530358507" lon="-5.8932582070455215"><ele>567.3333333333334</ele><time>2026-03-24T09:16:29.002Z</time></trkpt><trkpt lat="29.909768394853092" lon="-5.893089629187766"><ele>567.0</ele><time>2026-03-24T09:16:30.002Z</time></trkpt><trkpt lat="29.909864038840674" lon="-5.892915679793511"><ele>567.0</ele><time>2026-03-24T09:16:31.002Z</time></trkpt><trkpt lat="29.909961879779086" lon="-5.892745487276499"><ele>567.0</ele><time>2026-03-24T09:16:32.002Z</time></trkpt><trkpt lat="29.910055508347444" lon="-5.8925701058170015"><ele>567.0</ele><time>2026-03-24T09:16:33.002Z</time></trkpt><trkpt lat="29.910151182689138" lon="-5.892398057607585"><ele>567.3333333333334</ele><time>2026-03-24T09:16:34.002Z</time></trkpt><trkpt lat="29.9102412783863" lon="-5.892239756644191"><ele>567.6666666666667</ele><time>2026-03-24T09:16:35.002Z</time></trkpt><trkpt lat="29.910335351407273" lon="-5.892058506947982"><ele>568.0</ele><time>2026-03-24T09:16:36.002Z</time></trkpt><trkpt lat="29.91043773844247" lon="-5.891891344620441"><ele>568.0</ele><time>2026-03-24T09:16:37.002Z</time></trkpt><trkpt lat="29.910525560134285" lon="-5.891721527673796"><ele>568.0</ele><time>2026-03-24T09:16:38.002Z</time></trkpt><trkpt lat="29.91062229938712" lon="-5.891569503218833"><ele>568.0</ele><time>2026-03-24T09:16:39.002Z</time></trkpt><trkpt lat="29.91068937416379" lon="-5.891432140527608"><ele>568.0</ele><time>2026-03-24T09:16:40.002Z</time></trkpt><trkpt lat="29.910746501986424" lon="-5.89130198843109"><ele>568.0</ele><time>2026-03-24T09:16:41.002Z</time></trkpt><trkpt lat="29.9107973717178" lon="-5.891190008838797"><ele>568.0</ele><time>2026-03-24T09:16:42.002Z</time></trkpt><trkpt lat="29.910852486908304" lon="-5.891085669721396"><ele>568.0</ele><time>2026-03-24T09:16:43.002Z</time></trkpt><trkpt lat="29.910914016595452" lon="-5.890976150453883"><ele>568.1999999999999</ele><time>2026-03-24T09:16:44.002Z</time></trkpt><trkpt lat="29.91096398095234" lon="-5.890860853758211"><ele>568.4</ele><time>2026-03-24T09:16:45.002Z</time></trkpt><trkpt lat="29.91100050233092" lon="-5.890742099798889"><ele>568.5999999999999</ele><time>2026-03-24T09:16:46.002Z</time></trkpt><trkpt lat="29.911028375744937" lon="-5.890626048618227"><ele>568.8</ele><time>2026-03-24T09:16:47.002Z</time></trkpt><trkpt lat="29.91106708810762" lon="-5.890512566475506"><ele>569.0</ele><time>2026-03-24T09:16:48.002Z</time></trkpt><trkpt lat="29.911113294880437" lon="-5.890410506219277"><ele>569.0</ele><time>2026-03-24T09:16:49.002Z</time></trkpt><trkpt lat="29.91116232566248" lon="-5.8903207766628105"><ele>569.0</ele><time>2026-03-24T09:16:50.002Z</time></trkpt><trkpt lat="29.911203970582516" lon="-5.890221154795513"><ele>569.0</ele><time>2026-03-24T09:16:51.002Z</time></trkpt><trkpt lat="29.91123414116917" lon="-5.890136413485152"><ele>569.0</ele><time>2026-03-24T09:16:52.002Z</time></trkpt><trkpt lat="29.911259173108707" lon="-5.890053113960116"><ele>569.0</ele><time>2026-03-24T09:16:53.002Z</time></trkpt><trkpt lat="29.911296354223364" lon="-5.889964825446317"><ele>569.0</ele><time>2026-03-24T09:16:54.002Z</time></trkpt><trkpt lat="29.911342077035748" lon="-5.88987823581617"><ele>568.0</ele><time>2026-03-24T09:16:55.002Z</time></trkpt><trkpt lat="29.911395627114793" lon="-5.889809429618405"><ele>567.0</ele><time>2026-03-24T09:16:56.002Z</time></trkpt><trkpt lat="29.911455854843044" lon="-5.889777896772586"><ele>566.0</ele><time>2026-03-24T09:16:57.002Z</time></trkpt><trkpt lat="29.911558615537785" lon="-5.88971959796669"><ele>565.0</ele><time>2026-03-24T09:16:59.002Z</time></trkpt><trkpt lat="29.911639977385796" lon="-5.8895988632717415"><ele>564.0</ele><time>2026-03-24T09:17:01.002Z</time></trkpt><trkpt lat="29.911692775480688" lon="-5.889475150463479"><ele>564.0</ele><time>2026-03-24T09:17:03.002Z</time></trkpt><trkpt lat="29.911715665652842" lon="-5.889400146836901"><ele>564.0</ele><time>2026-03-24T09:17:04.002Z</time></trkpt><trkpt lat="29.911752675263912" lon="-5.88930334320077"><ele>564.0</ele><time>2026-03-24T09:17:05.002Z</time></trkpt><trkpt lat="29.91179981823919" lon="-5.889187927929932"><ele>564.0</ele><time>2026-03-24T09:17:06.002Z</time></trkpt><trkpt lat="29.91185752724443" lon="-5.8890634190320545"><ele>564.0</ele><time>2026-03-24T09:17:07.002Z</time></trkpt><trkpt lat="29.911918927673312" lon="-5.888931309538765"><ele>564.5</ele><time>2026-03-24T09:17:08.002Z</time></trkpt><trkpt lat="29.91199429405667" lon="-5.888799093583302"><ele>565.0</ele><time>2026-03-24T09:17:09.002Z</time></trkpt><trkpt lat="29.912065836118" lon="-5.888678146545158"><ele>565.5</ele><time>2026-03-24T09:17:10.002Z</time></trkpt><trkpt lat="29.912141826112993" lon="-5.888579594382862"><ele>566.0</ele><time>2026-03-24T09:17:11.002Z</time></trkpt><trkpt lat="29.912228044847534" lon="-5.8884970497512255"><ele>566.0</ele><time>2026-03-24T09:17:12.002Z</time></trkpt><trkpt lat="29.912327697069944" lon="-5.888427889158683"><ele>566.0</ele><time>2026-03-24T09:17:13.002Z</time></trkpt><trkpt lat="29.91244185597923" lon="-5.888357348419513"><ele>566.0</ele><time>2026-03-24T09:17:14.002Z</time></trkpt><trkpt lat="29.91255475268714" lon="-5.888296371325966"><ele>566.0</ele><time>2026-03-24T09:17:15.002Z</time></trkpt><trkpt lat="29.912686023526838" lon="-5.888252536992652"><ele>566.5</ele><time>2026-03-24T09:17:16.002Z</time></trkpt><trkpt lat="29.912830533940845" lon="-5.888218656297709"><ele>567.0</ele><time>2026-03-24T09:17:17.002Z</time></trkpt><trkpt lat="29.912977974365457" lon="-5.888190604371296"><ele>567.5</ele><time>2026-03-24T09:17:18.003Z</time></trkpt><trkpt lat="29.913123591030242" lon="-5.888154391117441"><ele>568.0</ele><time>2026-03-24T09:17:19.003Z</time></trkpt><trkpt lat="29.913256154305948" lon="-5.888127327126444"><ele>568.0</ele><time>2026-03-24T09:17:20.003Z</time></trkpt><trkpt lat="29.913379308682934" lon="-5.888091807081298"><ele>568.0</ele><time>2026-03-24T09:17:21.003Z</time></trkpt><trkpt lat="29.913509307383382" lon="-5.888043946748544"><ele>568.0</ele><time>2026-03-24T09:17:22.003Z</time></trkpt><trkpt lat="29.913641030296144" lon="-5.8879925988882365"><ele>568.0</ele><time>2026-03-24T09:17:23.003Z</time></trkpt><trkpt lat="29.913782130731466" lon="-5.887941178112667"><ele>568.3333333333334</ele><time>2026-03-24T09:17:24.003Z</time></trkpt><trkpt lat="29.913932828174687" lon="-5.887892701130334"><ele>568.6666666666666</ele><time>2026-03-24T09:17:25.003Z</time></trkpt><trkpt lat="29.914083060836443" lon="-5.8878428079200225"><ele>569.0</ele><time>2026-03-24T09:17:26.003Z</time></trkpt><trkpt lat="29.914233530941853" lon="-5.8877933345820255"><ele>569.0</ele><time>2026-03-24T09:17:27.003Z</time></trkpt><trkpt lat="29.914379572957746" lon="-5.887740515498856"><ele>569.0</ele><time>2026-03-24T09:17:28.003Z</time></trkpt><trkpt lat="29.914517844667" lon="-5.887683099587302"><ele>569.0</ele><time>2026-03-24T09:17:29.003Z</time></trkpt><trkpt lat="29.914633940039813" lon="-5.887625520264547"><ele>569.0</ele><time>2026-03-24T09:17:30.003Z</time></trkpt><trkpt lat="29.91475100059749" lon="-5.887541302816179"><ele>569.0</ele><time>2026-03-24T09:17:31.003Z</time></trkpt><trkpt lat="29.914839641359002" lon="-5.8874403707849785"><ele>569.0</ele><time>2026-03-24T09:17:32.003Z</time></trkpt><trkpt lat="29.914919963873107" lon="-5.887330969808803"><ele>569.0</ele><time>2026-03-24T09:17:33.003Z</time></trkpt><trkpt lat="29.91499460230742" lon="-5.887207497445999"><ele>569.0</ele><time>2026-03-24T09:17:34.003Z</time></trkpt><trkpt lat="29.91507868053519" lon="-5.887076739372715"><ele>569.0</ele><time>2026-03-24T09:17:35.003Z</time></trkpt><trkpt lat="29.915164506317115" lon="-5.886938681270777"><ele>569.0</ele><time>2026-03-24T09:17:36.003Z</time></trkpt><trkpt lat="29.915251345742416" lon="-5.886821858191734"><ele>569.0</ele><time>2026-03-24T09:17:37.003Z</time></trkpt><trkpt lat="29.91534174456232" lon="-5.886703239931086"><ele>569.0</ele><time>2026-03-24T09:17:38.003Z</time></trkpt><trkpt lat="29.91542050968851" lon="-5.886583695448557"><ele>569.25</ele><time>2026-03-24T09:17:39.003Z</time></trkpt><trkpt lat="29.915515702281326" lon="-5.8864541022501555"><ele>569.5</ele><time>2026-03-24T09:17:40.003Z</time></trkpt><trkpt lat="29.915607076521976" lon="-5.886327727609752"><ele>569.75</ele><time>2026-03-24T09:17:41.003Z</time></trkpt><trkpt lat="29.915679687886904" lon="-5.886210544246165"><ele>570.0</ele><time>2026-03-24T09:17:42.003Z</time></trkpt><trkpt lat="29.915757978840574" lon="-5.886090619902959"><ele>570.0</ele><time>2026-03-24T09:17:43.003Z</time></trkpt><trkpt lat="29.915840425766273" lon="-5.885970102141242"><ele>570.0</ele><time>2026-03-24T09:17:44.003Z</time></trkpt><trkpt lat="29.915925597680005" lon="-5.885850654699355"><ele>570.0</ele><time>2026-03-24T09:17:45.003Z</time></trkpt><trkpt lat="29.916004416049265" lon="-5.885740156676679"><ele>570.0</ele><time>2026-03-24T09:17:46.003Z</time></trkpt><trkpt lat="29.9160877025316" lon="-5.885628976494993"><ele>570.5</ele><time>2026-03-24T09:17:47.003Z</time></trkpt><trkpt lat="29.916171539245408" lon="-5.885519837632834"><ele>571.0</ele><time>2026-03-24T09:17:48.003Z</time></trkpt><trkpt lat="29.916244504400247" lon="-5.885416992318024"><ele>571.5</ele><time>2026-03-24T09:17:49.003Z</time></trkpt><trkpt lat="29.91631706917803" lon="-5.885311031151261"><ele>572.0</ele><time>2026-03-24T09:17:50.003Z</time></trkpt><trkpt lat="29.91638177192555" lon="-5.8852078098038865"><ele>572.0</ele><time>2026-03-24T09:17:51.003Z</time></trkpt><trkpt lat="29.91645566682687" lon="-5.885101831714535"><ele>572.0</ele><time>2026-03-24T09:17:52.003Z</time></trkpt><trkpt lat="29.916518110987045" lon="-5.88500811651606"><ele>572.0</ele><time>2026-03-24T09:17:53.003Z</time></trkpt><trkpt lat="29.916582470061478" lon="-5.884924557626734"><ele>572.0</ele><time>2026-03-24T09:17:54.003Z</time></trkpt><trkpt lat="29.916652150416397" lon="-5.884828782293752"><ele>572.0</ele><time>2026-03-24T09:17:55.003Z</time></trkpt><trkpt lat="29.916717497412264" lon="-5.88474010691476"><ele>572.25</ele><time>2026-03-24T09:17:56.003Z</time></trkpt><trkpt lat="29.916786708253674" lon="-5.884639354722467"><ele>572.5</ele><time>2026-03-24T09:17:57.003Z</time></trkpt><trkpt lat="29.916862116117255" lon="-5.884527414041201"><ele>572.75</ele><time>2026-03-24T09:17:58.003Z</time></trkpt><trkpt lat="29.91692874511332" lon="-5.8844095347798"><ele>573.0</ele><time>2026-03-24T09:17:59.003Z</time></trkpt><trkpt lat="29.917005136113552" lon="-5.884285624192521"><ele>572.5</ele><time>2026-03-24T09:18:00.003Z</time></trkpt><trkpt lat="29.917097109345114" lon="-5.884150319227571"><ele>572.0</ele><time>2026-03-24T09:18:01.003Z</time></trkpt><trkpt lat="29.917162959094014" lon="-5.8840182354036825"><ele>571.5</ele><time>2026-03-24T09:18:02.003Z</time></trkpt><trkpt lat="29.917227289478035" lon="-5.883887917554649"><ele>571.0</ele><time>2026-03-24T09:18:03.003Z</time></trkpt><trkpt lat="29.917299088021867" lon="-5.88375332541148"><ele>571.0</ele><time>2026-03-24T09:18:04.003Z</time></trkpt><trkpt lat="29.917387598518214" lon="-5.883624792279168"><ele>571.0</ele><time>2026-03-24T09:18:05.003Z</time></trkpt><trkpt lat="29.917469452597317" lon="-5.8834747842486665"><ele>571.0</ele><time>2026-03-24T09:18:06.003Z</time></trkpt><trkpt lat="29.91754648958726" lon="-5.883336225176064"><ele>571.0</ele><time>2026-03-24T09:18:07.003Z</time></trkpt><trkpt lat="29.917617852879506" lon="-5.883200275011279"><ele>571.5</ele><time>2026-03-24T09:18:08.003Z</time></trkpt><trkpt lat="29.917689100667342" lon="-5.883064277442914"><ele>572.0</ele><time>2026-03-24T09:18:09.003Z</time></trkpt><trkpt lat="29.917756065865813" lon="-5.882933332068644"><ele>572.5</ele><time>2026-03-24T09:18:10.003Z</time></trkpt><trkpt lat="29.917828145132184" lon="-5.882808639225381"><ele>573.0</ele><time>2026-03-24T09:18:11.003Z</time></trkpt><trkpt lat="29.917907199791856" lon="-5.882689202420058"><ele>572.75</ele><time>2026-03-24T09:18:12.003Z</time></trkpt><trkpt lat="29.91798561109803" lon="-5.882553745639046"><ele>572.5</ele><time>2026-03-24T09:18:13.003Z</time></trkpt><trkpt lat="29.918056280001238" lon="-5.882440078663773"><ele>572.25</ele><time>2026-03-24T09:18:14.003Z</time></trkpt><trkpt lat="29.918123376691682" lon="-5.8823320173914"><ele>572.0</ele><time>2026-03-24T09:18:15.003Z</time></trkpt><trkpt lat="29.918188054690656" lon="-5.882207151884798"><ele>572.0</ele><time>2026-03-24T09:18:16.003Z</time></trkpt><trkpt lat="29.918254087090727" lon="-5.882078858763968"><ele>572.0</ele><time>2026-03-24T09:18:17.003Z</time></trkpt><trkpt lat="29.918323486666406" lon="-5.8819569078625715"><ele>572.0</ele><time>2026-03-24T09:18:18.003Z</time></trkpt><trkpt lat="29.918401714109915" lon="-5.881830124998738"><ele>572.0</ele><time>2026-03-24T09:18:19.003Z</time></trkpt><trkpt lat="29.918480487432202" lon="-5.881693355823242"><ele>572.0</ele><time>2026-03-24T09:18:20.004Z</time></trkpt><trkpt lat="29.918577764991223" lon="-5.881540044802149"><ele>572.0</ele><time>2026-03-24T09:18:21.003Z</time></trkpt><trkpt lat="29.91867380762959" lon="-5.881378996716816"><ele>572.0</ele><time>2026-03-24T09:18:22.003Z</time></trkpt><trkpt lat="29.918775616303773" lon="-5.881216492246065"><ele>572.0</ele><time>2026-03-24T09:18:23.003Z</time></trkpt><trkpt lat="29.918869457542105" lon="-5.881072101094585"><ele>572.0</ele><time>2026-03-24T09:18:24.003Z</time></trkpt><trkpt lat="29.918946991748516" lon="-5.880947652405958"><ele>572.0</ele><time>2026-03-24T09:18:25.003Z</time></trkpt><trkpt lat="29.919016042739575" lon="-5.880841838826957"><ele>572.0</ele><time>2026-03-24T09:18:26.003Z</time></trkpt><trkpt lat="29.919075296978406" lon="-5.880741048619254"><ele>572.2</ele><time>2026-03-24T09:18:27.003Z</time></trkpt><trkpt lat="29.91914183426781" lon="-5.8806282930132205"><ele>572.4000000000001</ele><time>2026-03-24T09:18:28.003Z</time></trkpt><trkpt lat="29.919201240560565" lon="-5.880539700983696"><ele>572.5999999999999</ele><time>2026-03-24T09:18:29.003Z</time></trkpt><trkpt lat="29.91923681822431" lon="-5.880477793054737"><ele>572.8</ele><time>2026-03-24T09:18:30.003Z</time></trkpt><trkpt lat="29.919283815433026" lon="-5.880357129664639"><ele>573.0</ele><time>2026-03-24T09:18:32.003Z</time></trkpt><trkpt lat="29.91931496499543" lon="-5.8802441423450915"><ele>573.0</ele><time>2026-03-24T09:18:34.003Z</time></trkpt><trkpt lat="29.919318515300567" lon="-5.880118940388468"><ele>573.0</ele><time>2026-03-24T09:18:36.003Z</time></trkpt><trkpt lat="29.919297126609138" lon="-5.879984709363788"><ele>573.0</ele><time>2026-03-24T09:18:38.003Z</time></trkpt><trkpt lat="29.919250869955356" lon="-5.879887165379601"><ele>573.0</ele><time>2026-03-24T09:18:40.003Z</time></trkpt><trkpt lat="29.91923108546005" lon="-5.879799964047461"><ele>573.0</ele><time>2026-03-24T09:18:42.003Z</time></trkpt><trkpt lat="29.91925566508189" lon="-5.879712248846218"><ele>573.0</ele><time>2026-03-24T09:18:45.003Z</time></trkpt><trkpt lat="29.919283300312106" lon="-5.879630486818553"><ele>573.0</ele><time>2026-03-24T09:18:50.004Z</time></trkpt><trkpt lat="29.919196901847155" lon="-5.879601495780227"><ele>573.0</ele><time>2026-03-24T09:18:52.004Z</time></trkpt><trkpt lat="29.919213972617115" lon="-5.879707198522507"><ele>573.0</ele><time>2026-03-24T09:22:21.004Z</time></trkpt><trkpt lat="29.919265216163875" lon="-5.8797550803570395"><ele>573.0</ele><time>2026-03-24T09:22:22.004Z</time></trkpt><trkpt lat="29.919320545415953" lon="-5.8797981971218665"><ele>573.0</ele><time>2026-03-24T09:22:23.004Z</time></trkpt><trkpt lat="29.919421301961904" lon="-5.8798053260417005"><ele>573.0</ele><time>2026-03-24T09:22:25.004Z</time></trkpt><trkpt lat="29.91951556279492" lon="-5.87970459163861"><ele>573.0</ele><time>2026-03-24T09:22:27.004Z</time></trkpt><trkpt lat="29.919550030426773" lon="-5.879604934572142"><ele>573.0</ele><time>2026-03-24T09:22:28.004Z</time></trkpt><trkpt lat="29.91959030124679" lon="-5.879499608215861"><ele>573.0</ele><time>2026-03-24T09:22:29.004Z</time></trkpt><trkpt lat="29.919636687119205" lon="-5.87942278034401"><ele>573.0</ele><time>2026-03-24T09:22:30.004Z</time></trkpt><trkpt lat="29.91968723902803" lon="-5.879345337785154"><ele>573.1999999999999</ele><time>2026-03-24T09:22:31.004Z</time></trkpt><trkpt lat="29.91973638468792" lon="-5.879262159842809"><ele>573.4</ele><time>2026-03-24T09:22:32.003Z</time></trkpt><trkpt lat="29.91979150268634" lon="-5.879180653231237"><ele>573.5999999999999</ele><time>2026-03-24T09:22:33.004Z</time></trkpt><trkpt lat="29.919848819147063" lon="-5.879090616336828"><ele>573.8</ele><time>2026-03-24T09:22:34.004Z</time></trkpt><trkpt lat="29.919914304837548" lon="-5.8789905648833765"><ele>574.0</ele><time>2026-03-24T09:22:35.004Z</time></trkpt><trkpt lat="29.919996080813053" lon="-5.878880778166039"><ele>573.75</ele><time>2026-03-24T09:22:36.004Z</time></trkpt><trkpt lat="29.920073124673237" lon="-5.87876533879246"><ele>573.5</ele><time>2026-03-24T09:22:37.004Z</time></trkpt><trkpt lat="29.920151706102185" lon="-5.878623975484588"><ele>573.25</ele><time>2026-03-24T09:22:38.004Z</time></trkpt><trkpt lat="29.92022807242817" lon="-5.878475413571088"><ele>573.0</ele><time>2026-03-24T09:22:39.003Z</time></trkpt><trkpt lat="29.920310698118744" lon="-5.878307757667534"><ele>573.0</ele><time>2026-03-24T09:22:40.003Z</time></trkpt><trkpt lat="29.920401738030403" lon="-5.878126004261089"><ele>573.0</ele><time>2026-03-24T09:22:41.004Z</time></trkpt><trkpt lat="29.92050001132589" lon="-5.87793935227516"><ele>573.0</ele><time>2026-03-24T09:22:42.003Z</time></trkpt><trkpt lat="29.920603157396634" lon="-5.87775524775282"><ele>573.6666666666666</ele><time>2026-03-24T09:22:43.003Z</time></trkpt><trkpt lat="29.920710728925457" lon="-5.877576316909161"><ele>574.3333333333333</ele><time>2026-03-24T09:22:44.004Z</time></trkpt><trkpt lat="29.92081597672248" lon="-5.877403359080141"><ele>575.0</ele><time>2026-03-24T09:22:45.004Z</time></trkpt><trkpt lat="29.920921002062983" lon="-5.87723277468525"><ele>575.3333333333333</ele><time>2026-03-24T09:22:46.004Z</time></trkpt><trkpt lat="29.92102528733439" lon="-5.877058344694647"><ele>575.6666666666666</ele><time>2026-03-24T09:22:47.004Z</time></trkpt><trkpt lat="29.92113771930243" lon="-5.876897292274758"><ele>576.0</ele><time>2026-03-24T09:22:48.004Z</time></trkpt><trkpt lat="29.92126324783357" lon="-5.876731308801913"><ele>576.0</ele><time>2026-03-24T09:22:49.004Z</time></trkpt><trkpt lat="29.921382327444267" lon="-5.876575777903854"><ele>576.0</ele><time>2026-03-24T09:22:50.004Z</time></trkpt><trkpt lat="29.921513702873348" lon="-5.876418952897157"><ele>576.0</ele><time>2026-03-24T09:22:51.004Z</time></trkpt><trkpt lat="29.92165099103279" lon="-5.876267400099683"><ele>576.0</ele><time>2026-03-24T09:22:52.004Z</time></trkpt><trkpt lat="29.921781748689718" lon="-5.8761227488369006"><ele>576.0</ele><time>2026-03-24T09:22:53.004Z</time></trkpt><trkpt lat="29.92190896857784" lon="-5.875995159898405"><ele>576.0</ele><time>2026-03-24T09:22:54.004Z</time></trkpt><trkpt lat="29.92202293737864" lon="-5.875882101114432"><ele>576.25</ele><time>2026-03-24T09:22:55.004Z</time></trkpt><trkpt lat="29.922124871733885" lon="-5.875778414697886"><ele>576.5</ele><time>2026-03-24T09:22:56.004Z</time></trkpt><trkpt lat="29.922205385063545" lon="-5.875664532836613"><ele>576.75</ele><time>2026-03-24T09:22:57.004Z</time></trkpt><trkpt lat="29.922276919585716" lon="-5.87552370393295"><ele>577.0</ele><time>2026-03-24T09:22:58.004Z</time></trkpt><trkpt lat="29.922355521067942" lon="-5.875369101875818"><ele>577.0</ele><time>2026-03-24T09:22:59.004Z</time></trkpt><trkpt lat="29.922448650089997" lon="-5.8752206684053245"><ele>577.0</ele><time>2026-03-24T09:23:00.004Z</time></trkpt><trkpt lat="29.92253655552769" lon="-5.875068568516858"><ele>577.0</ele><time>2026-03-24T09:23:01.004Z</time></trkpt><trkpt lat="29.9226260243026" lon="-5.8749191641798175"><ele>577.0</ele><time>2026-03-24T09:23:02.004Z</time></trkpt><trkpt lat="29.9227188631414" lon="-5.874765008973064"><ele>577.0</ele><time>2026-03-24T09:23:03.004Z</time></trkpt><trkpt lat="29.92280112359108" lon="-5.874628719258446"><ele>577.0</ele><time>2026-03-24T09:23:04.004Z</time></trkpt><trkpt lat="29.92286938126319" lon="-5.87451833751201"><ele>577.0</ele><time>2026-03-24T09:23:05.004Z</time></trkpt><trkpt lat="29.92293666392968" lon="-5.874405300244309"><ele>577.0</ele><time>2026-03-24T09:23:06.004Z</time></trkpt><trkpt lat="29.922996592256474" lon="-5.874296216618729"><ele>577.0</ele><time>2026-03-24T09:23:07.004Z</time></trkpt><trkpt lat="29.923061219836868" lon="-5.874184274235849"><ele>577.0</ele><time>2026-03-24T09:23:08.004Z</time></trkpt><trkpt lat="29.923109746384984" lon="-5.87408115815636"><ele>577.0</ele><time>2026-03-24T09:23:09.004Z</time></trkpt><trkpt lat="29.923134118279552" lon="-5.873961787048459"><ele>577.0</ele><time>2026-03-24T09:23:10.004Z</time></trkpt><trkpt lat="29.923164262129696" lon="-5.873830386226874"><ele>577.0</ele><time>2026-03-24T09:23:11.004Z</time></trkpt><trkpt lat="29.923191244263297" lon="-5.87369837296047"><ele>577.0</ele><time>2026-03-24T09:23:12.004Z</time></trkpt><trkpt lat="29.92321874526161" lon="-5.873557913840687"><ele>577.0</ele><time>2026-03-24T09:23:13.004Z</time></trkpt><trkpt lat="29.923268100361945" lon="-5.873405968180336"><ele>577.0</ele><time>2026-03-24T09:23:14.004Z</time></trkpt><trkpt lat="29.923321654559928" lon="-5.873251393709039"><ele>577.0</ele><time>2026-03-24T09:23:15.004Z</time></trkpt><trkpt lat="29.923384330439614" lon="-5.873098074311492"><ele>577.0</ele><time>2026-03-24T09:23:16.004Z</time></trkpt><trkpt lat="29.92345234723405" lon="-5.8729417899598735"><ele>577.0</ele><time>2026-03-24T09:23:17.004Z</time></trkpt><trkpt lat="29.923530700682484" lon="-5.872789317306068"><ele>577.6666666666667</ele><time>2026-03-24T09:23:18.004Z</time></trkpt><trkpt lat="29.923621049123657" lon="-5.872633586911299"><ele>578.3333333333334</ele><time>2026-03-24T09:23:19.004Z</time></trkpt><trkpt lat="29.923720879919546" lon="-5.872475544109642"><ele>579.0</ele><time>2026-03-24T09:23:20.004Z</time></trkpt><trkpt lat="29.923827875354302" lon="-5.87232489756388"><ele>579.0</ele><time>2026-03-24T09:23:21.004Z</time></trkpt><trkpt lat="29.92393369011104" lon="-5.872174903728783"><ele>579.0</ele><time>2026-03-24T09:23:22.004Z</time></trkpt><trkpt lat="29.92403333143352" lon="-5.8720212048137315"><ele>579.0</ele><time>2026-03-24T09:23:23.004Z</time></trkpt><trkpt lat="29.924129283672507" lon="-5.871865395445641"><ele>579.0</ele><time>2026-03-24T09:23:24.004Z</time></trkpt><trkpt lat="29.924217405932193" lon="-5.871709116325141"><ele>579.0</ele><time>2026-03-24T09:23:25.004Z</time></trkpt><trkpt lat="29.92429523562275" lon="-5.871545507147161"><ele>579.0</ele><time>2026-03-24T09:23:26.004Z</time></trkpt><trkpt lat="29.92436641724555" lon="-5.871374788619531"><ele>580.0</ele><time>2026-03-24T09:23:27.004Z</time></trkpt><trkpt lat="29.92443295381553" lon="-5.8711952644601295"><ele>581.0</ele><time>2026-03-24T09:23:28.004Z</time></trkpt><trkpt lat="29.92450685961893" lon="-5.87101887690045"><ele>582.0</ele><time>2026-03-24T09:23:29.004Z</time></trkpt><trkpt lat="29.924596074861196" lon="-5.870847090275966"><ele>582.0</ele><time>2026-03-24T09:23:30.004Z</time></trkpt><trkpt lat="29.924694882681653" lon="-5.870679908216918"><ele>582.0</ele><time>2026-03-24T09:23:31.004Z</time></trkpt><trkpt lat="29.92479443117731" lon="-5.870513705608492"><ele>582.0</ele><time>2026-03-24T09:23:32.004Z</time></trkpt><trkpt lat="29.924897865498682" lon="-5.870346437505321"><ele>582.0</ele><time>2026-03-24T09:23:33.004Z</time></trkpt><trkpt lat="29.924998256789944" lon="-5.8701798007764"><ele>582.0</ele><time>2026-03-24T09:23:34.004Z</time></trkpt><trkpt lat="29.92510706414542" lon="-5.870015518603668"><ele>582.0</ele><time>2026-03-24T09:23:35.004Z</time></trkpt><trkpt lat="29.925208743992652" lon="-5.869853148881932"><ele>582.0</ele><time>2026-03-24T09:23:36.004Z</time></trkpt><trkpt lat="29.925318643304198" lon="-5.869691310273506"><ele>582.0</ele><time>2026-03-24T09:23:37.004Z</time></trkpt><trkpt lat="29.925430565318887" lon="-5.869527074648616"><ele>582.0</ele><time>2026-03-24T09:23:38.004Z</time></trkpt><trkpt lat="29.925543092929235" lon="-5.86936250808809"><ele>582.0</ele><time>2026-03-24T09:23:39.004Z</time></trkpt><trkpt lat="29.92565566705824" lon="-5.869195395321717"><ele>582.0</ele><time>2026-03-24T09:23:40.004Z</time></trkpt><trkpt lat="29.925772142447492" lon="-5.869023594301054"><ele>582.0</ele><time>2026-03-24T09:23:41.004Z</time></trkpt><trkpt lat="29.925888875421332" lon="-5.868857275613129"><ele>582.3333333333334</ele><time>2026-03-24T09:23:42.004Z</time></trkpt><trkpt lat="29.92600424017632" lon="-5.868691796024405"><ele>582.6666666666667</ele><time>2026-03-24T09:23:43.004Z</time></trkpt><trkpt lat="29.926114566866392" lon="-5.868524834097921"><ele>583.0</ele><time>2026-03-24T09:23:44.004Z</time></trkpt><trkpt lat="29.92621466243892" lon="-5.868356760134919"><ele>583.0</ele><time>2026-03-24T09:23:45.004Z</time></trkpt><trkpt lat="29.92632424382785" lon="-5.868188139282263"><ele>583.0</ele><time>2026-03-24T09:23:46.004Z</time></trkpt><trkpt lat="29.92643178882023" lon="-5.868021404462654"><ele>583.0</ele><time>2026-03-24T09:23:47.004Z</time></trkpt><trkpt lat="29.926541478071073" lon="-5.867856195644572"><ele>583.0</ele><time>2026-03-24T09:23:48.004Z</time></trkpt><trkpt lat="29.926652161756678" lon="-5.867695984479641"><ele>583.0</ele><time>2026-03-24T09:23:49.004Z</time></trkpt><trkpt lat="29.926765464189522" lon="-5.867544501086163"><ele>583.0</ele><time>2026-03-24T09:23:50.004Z</time></trkpt><trkpt lat="29.926877030983736" lon="-5.867395957012737"><ele>583.0</ele><time>2026-03-24T09:23:51.004Z</time></trkpt><trkpt lat="29.92698873861306" lon="-5.867252792654301"><ele>583.0</ele><time>2026-03-24T09:23:52.004Z</time></trkpt><trkpt lat="29.92708897940043" lon="-5.8671184106460315"><ele>583.0</ele><time>2026-03-24T09:23:53.004Z</time></trkpt><trkpt lat="29.927178149208174" lon="-5.866992663415135"><ele>583.0</ele><time>2026-03-24T09:23:54.004Z</time></trkpt><trkpt lat="29.927251296372365" lon="-5.8668579113179185"><ele>583.0</ele><time>2026-03-24T09:23:55.004Z</time></trkpt><trkpt lat="29.927334015571194" lon="-5.86670997366098"><ele>583.0</ele><time>2026-03-24T09:23:56.004Z</time></trkpt><trkpt lat="29.92740646609689" lon="-5.866558251976613"><ele>583.0</ele><time>2026-03-24T09:23:57.004Z</time></trkpt><trkpt lat="29.927480885467904" lon="-5.866400021683899"><ele>582.6666666666667</ele><time>2026-03-24T09:23:58.004Z</time></trkpt><trkpt lat="29.92755949765713" lon="-5.866258897079361"><ele>582.3333333333334</ele><time>2026-03-24T09:23:59.004Z</time></trkpt><trkpt lat="29.92764469216519" lon="-5.866105804156865"><ele>582.0</ele><time>2026-03-24T09:24:00.004Z</time></trkpt><trkpt lat="29.92774405488289" lon="-5.865958910906941"><ele>583.25</ele><time>2026-03-24T09:24:01.004Z</time></trkpt><trkpt lat="29.92782611672985" lon="-5.865830377350817"><ele>584.5</ele><time>2026-03-24T09:24:02.004Z</time></trkpt><trkpt lat="29.927899942883567" lon="-5.865701095538353"><ele>585.75</ele><time>2026-03-24T09:24:03.004Z</time></trkpt><trkpt lat="29.927956162764616" lon="-5.8655591352793515"><ele>587.0</ele><time>2026-03-24T09:24:04.004Z</time></trkpt><trkpt lat="29.92800589130523" lon="-5.8654086638727625"><ele>587.0</ele><time>2026-03-24T09:24:05.004Z</time></trkpt><trkpt lat="29.92807625066879" lon="-5.865273477360157"><ele>587.0</ele><time>2026-03-24T09:24:06.004Z</time></trkpt><trkpt lat="29.928138705867077" lon="-5.865151809038368"><ele>587.0</ele><time>2026-03-24T09:24:07.004Z</time></trkpt><trkpt lat="29.928199438977295" lon="-5.8650345297821325"><ele>587.0</ele><time>2026-03-24T09:24:08.004Z</time></trkpt><trkpt lat="29.92827421422975" lon="-5.864927706974226"><ele>587.0</ele><time>2026-03-24T09:24:09.004Z</time></trkpt><trkpt lat="29.928362910397958" lon="-5.864821759895329"><ele>587.0</ele><time>2026-03-24T09:24:10.004Z</time></trkpt><trkpt lat="29.92844530407921" lon="-5.864706910656326"><ele>587.0</ele><time>2026-03-24T09:24:11.004Z</time></trkpt><trkpt lat="29.928522503582645" lon="-5.864566841076298"><ele>587.0</ele><time>2026-03-24T09:24:12.004Z</time></trkpt><trkpt lat="29.928591391262554" lon="-5.864424406732404"><ele>587.25</ele><time>2026-03-24T09:24:13.004Z</time></trkpt><trkpt lat="29.928653032174918" lon="-5.864270350153878"><ele>587.5</ele><time>2026-03-24T09:24:14.004Z</time></trkpt><trkpt lat="29.928720909267295" lon="-5.8641211618594715"><ele>587.75</ele><time>2026-03-24T09:24:15.004Z</time></trkpt><trkpt lat="29.92879906867876" lon="-5.863980742367207"><ele>588.0</ele><time>2026-03-24T09:24:16.004Z</time></trkpt><trkpt lat="29.92889313901306" lon="-5.863842397543147"><ele>588.0</ele><time>2026-03-24T09:24:17.004Z</time></trkpt><trkpt lat="29.928986043352705" lon="-5.863708319845353"><ele>588.0</ele><time>2026-03-24T09:24:18.004Z</time></trkpt><trkpt lat="29.92907989519548" lon="-5.863581993627475"><ele>588.0</ele><time>2026-03-24T09:24:19.004Z</time></trkpt><trkpt lat="29.92917383741505" lon="-5.863461350923218"><ele>588.0</ele><time>2026-03-24T09:24:20.004Z</time></trkpt><trkpt lat="29.929280237385296" lon="-5.863348867004827"><ele>588.0</ele><time>2026-03-24T09:24:21.004Z</time></trkpt><trkpt lat="29.929382021847328" lon="-5.863233505700856"><ele>588.0</ele><time>2026-03-24T09:24:22.004Z</time></trkpt><trkpt lat="29.92946923056586" lon="-5.863106390251147"><ele>588.0</ele><time>2026-03-24T09:24:23.004Z</time></trkpt><trkpt lat="29.929556588883752" lon="-5.862972815439321"><ele>588.0</ele><time>2026-03-24T09:24:24.004Z</time></trkpt><trkpt lat="29.92963770954375" lon="-5.862833879929047"><ele>588.0</ele><time>2026-03-24T09:24:25.004Z</time></trkpt><trkpt lat="29.929715996655982" lon="-5.862693789912191"><ele>588.0</ele><time>2026-03-24T09:24:26.004Z</time></trkpt><trkpt lat="29.929789860633676" lon="-5.862555182899665"><ele>588.0</ele><time>2026-03-24T09:24:27.004Z</time></trkpt><trkpt lat="29.92985645323142" lon="-5.862414479025953"><ele>588.0</ele><time>2026-03-24T09:24:28.004Z</time></trkpt><trkpt lat="29.929922268526198" lon="-5.862261515051372"><ele>588.0</ele><time>2026-03-24T09:24:29.004Z</time></trkpt><trkpt lat="29.929972698896034" lon="-5.862110229248519"><ele>588.0</ele><time>2026-03-24T09:24:30.004Z</time></trkpt><trkpt lat="29.93002787280896" lon="-5.861962551016115"><ele>588.0</ele><time>2026-03-24T09:24:31.004Z</time></trkpt><trkpt lat="29.930105408499912" lon="-5.861833356300337"><ele>588.0</ele><time>2026-03-24T09:24:32.004Z</time></trkpt><trkpt lat="29.93019525115171" lon="-5.861705661158027"><ele>588.5</ele><time>2026-03-24T09:24:33.004Z</time></trkpt><trkpt lat="29.93027571497333" lon="-5.861563514603877"><ele>589.0</ele><time>2026-03-24T09:24:34.004Z</time></trkpt><trkpt lat="29.930344594618866" lon="-5.861417759246095"><ele>589.5</ele><time>2026-03-24T09:24:35.004Z</time></trkpt><trkpt lat="29.930421042223077" lon="-5.8612828538660215"><ele>590.0</ele><time>2026-03-24T09:24:36.004Z</time></trkpt><trkpt lat="29.930512198409627" lon="-5.861159092148725"><ele>590.0</ele><time>2026-03-24T09:24:37.004Z</time></trkpt><trkpt lat="29.93061572023133" lon="-5.86104169541868"><ele>590.0</ele><time>2026-03-24T09:24:38.004Z</time></trkpt><trkpt lat="29.930722372389635" lon="-5.860931389034176"><ele>590.0</ele><time>2026-03-24T09:24:39.004Z</time></trkpt><trkpt lat="29.930827924680756" lon="-5.860812488277283"><ele>590.0</ele><time>2026-03-24T09:24:40.004Z</time></trkpt><trkpt lat="29.930921721724392" lon="-5.860678558640069"><ele>590.0</ele><time>2026-03-24T09:24:41.004Z</time></trkpt><trkpt lat="29.931013280850898" lon="-5.860540108345964"><ele>590.0</ele><time>2026-03-24T09:24:42.004Z</time></trkpt><trkpt lat="29.93109684955732" lon="-5.86039496508086"><ele>590.0</ele><time>2026-03-24T09:24:43.004Z</time></trkpt><trkpt lat="29.93116740732071" lon="-5.860244137770286"><ele>590.25</ele><time>2026-03-24T09:24:44.003Z</time></trkpt><trkpt lat="29.93123636991938" lon="-5.860083044826635"><ele>590.5</ele><time>2026-03-24T09:24:45.003Z</time></trkpt><trkpt lat="29.931309401760657" lon="-5.8599340517683505"><ele>590.75</ele><time>2026-03-24T09:24:46.003Z</time></trkpt><trkpt lat="29.931392612045297" lon="-5.859809568790166"><ele>591.0</ele><time>2026-03-24T09:24:47.003Z</time></trkpt><trkpt lat="29.93149150404586" lon="-5.859707952971219"><ele>591.0</ele><time>2026-03-24T09:24:48.004Z</time></trkpt><trkpt lat="29.931585146774033" lon="-5.859602608653477"><ele>591.0</ele><time>2026-03-24T09:24:49.004Z</time></trkpt><trkpt lat="29.931669700798743" lon="-5.8594745893145115"><ele>591.0</ele><time>2026-03-24T09:24:50.003Z</time></trkpt><trkpt lat="29.93176324638181" lon="-5.859336915158539"><ele>591.0</ele><time>2026-03-24T09:24:51.003Z</time></trkpt><trkpt lat="29.931858706251596" lon="-5.859203224353176"><ele>591.0</ele><time>2026-03-24T09:24:52.003Z</time></trkpt><trkpt lat="29.931941159000583" lon="-5.859068003812852"><ele>591.0</ele><time>2026-03-24T09:24:53.003Z</time></trkpt><trkpt lat="29.932009831784107" lon="-5.8589314425524"><ele>591.0</ele><time>2026-03-24T09:24:54.003Z</time></trkpt><trkpt lat="29.932063794456457" lon="-5.858788180691004"><ele>591.0</ele><time>2026-03-24T09:24:55.003Z</time></trkpt><trkpt lat="29.9321102992975" lon="-5.858650533660812"><ele>591.0</ele><time>2026-03-24T09:24:56.003Z</time></trkpt><trkpt lat="29.93216641387343" lon="-5.858508476543936"><ele>591.0</ele><time>2026-03-24T09:24:57.003Z</time></trkpt><trkpt lat="29.93224243040275" lon="-5.858366226628386"><ele>591.0</ele><time>2026-03-24T09:24:58.003Z</time></trkpt><trkpt lat="29.932338556026725" lon="-5.858238523193341"><ele>591.0</ele><time>2026-03-24T09:24:59.003Z</time></trkpt><trkpt lat="29.932436988100438" lon="-5.858117260880886"><ele>591.25</ele><time>2026-03-24T09:25:00.003Z</time></trkpt><trkpt lat="29.932537025106342" lon="-5.858001337537083"><ele>591.5</ele><time>2026-03-24T09:25:01.003Z</time></trkpt><trkpt lat="29.932645049920353" lon="-5.857901743481424"><ele>591.75</ele><time>2026-03-24T09:25:02.003Z</time></trkpt><trkpt lat="29.93275129656809" lon="-5.8578003232774964"><ele>592.0</ele><time>2026-03-24T09:25:03.003Z</time></trkpt><trkpt lat="29.93283607006551" lon="-5.857701571707207"><ele>592.25</ele><time>2026-03-24T09:25:04.003Z</time></trkpt><trkpt lat="29.9329126879066" lon="-5.857592395002504"><ele>592.5</ele><time>2026-03-24T09:25:05.003Z</time></trkpt><trkpt lat="29.932976371605115" lon="-5.8574749448851"><ele>592.75</ele><time>2026-03-24T09:25:06.003Z</time></trkpt><trkpt lat="29.93302603495331" lon="-5.85735853883811"><ele>593.0</ele><time>2026-03-24T09:25:07.003Z</time></trkpt><trkpt lat="29.93306768346869" lon="-5.857237836362964"><ele>593.0</ele><time>2026-03-24T09:25:08.003Z</time></trkpt><trkpt lat="29.933089850972756" lon="-5.8571036604596864"><ele>593.0</ele><time>2026-03-24T09:25:09.003Z</time></trkpt><trkpt lat="29.933118047196732" lon="-5.856965511833252"><ele>593.0</ele><time>2026-03-24T09:25:10.003Z</time></trkpt><trkpt lat="29.93318294170554" lon="-5.856832426863846"><ele>593.0</ele><time>2026-03-24T09:25:11.003Z</time></trkpt><trkpt lat="29.93327447176064" lon="-5.856719588602971"><ele>593.0</ele><time>2026-03-24T09:25:12.003Z</time></trkpt><trkpt lat="29.933372871260776" lon="-5.856607668673326"><ele>593.0</ele><time>2026-03-24T09:25:13.003Z</time></trkpt><trkpt lat="29.93346843370594" lon="-5.8565030910164415"><ele>593.0</ele><time>2026-03-24T09:25:14.003Z</time></trkpt><trkpt lat="29.933542240755973" lon="-5.856391836269196"><ele>593.0</ele><time>2026-03-24T09:25:15.003Z</time></trkpt><trkpt lat="29.933596481797366" lon="-5.856267548199956"><ele>593.0</ele><time>2026-03-24T09:25:16.003Z</time></trkpt><trkpt lat="29.933646601007776" lon="-5.856128580205156"><ele>593.0</ele><time>2026-03-24T09:25:17.003Z</time></trkpt><trkpt lat="29.933707690139613" lon="-5.855987984624769"><ele>593.0</ele><time>2026-03-24T09:25:18.003Z</time></trkpt><trkpt lat="29.933781001538872" lon="-5.855864899041327"><ele>593.0</ele><time>2026-03-24T09:25:19.003Z</time></trkpt><trkpt lat="29.933870229868248" lon="-5.855754179919426"><ele>593.75</ele><time>2026-03-24T09:25:20.003Z</time></trkpt><trkpt lat="29.93395347692322" lon="-5.855631898669825"><ele>594.5</ele><time>2026-03-24T09:25:21.003Z</time></trkpt><trkpt lat="29.934018732177037" lon="-5.85548233109736"><ele>595.25</ele><time>2026-03-24T09:25:22.003Z</time></trkpt><trkpt lat="29.93406362253987" lon="-5.855342733186545"><ele>596.0</ele><time>2026-03-24T09:25:23.003Z</time></trkpt><trkpt lat="29.93410425994374" lon="-5.855221324541123"><ele>596.0</ele><time>2026-03-24T09:25:24.003Z</time></trkpt><trkpt lat="29.934156517208944" lon="-5.855106635811171"><ele>596.0</ele><time>2026-03-24T09:25:25.003Z</time></trkpt><trkpt lat="29.93422966237123" lon="-5.855001672253576"><ele>596.0</ele><time>2026-03-24T09:25:26.003Z</time></trkpt><trkpt lat="29.934302631753045" lon="-5.854895761647916"><ele>596.0</ele><time>2026-03-24T09:25:27.003Z</time></trkpt><trkpt lat="29.93437551995613" lon="-5.8547736545584375"><ele>596.0</ele><time>2026-03-24T09:25:28.003Z</time></trkpt><trkpt lat="29.934434802487726" lon="-5.854638631709748"><ele>596.0</ele><time>2026-03-24T09:25:29.003Z</time></trkpt><trkpt lat="29.93448035811902" lon="-5.854494190341683"><ele>596.0</ele><time>2026-03-24T09:25:30.003Z</time></trkpt><trkpt lat="29.934538657611505" lon="-5.854356389486754"><ele>596.0</ele><time>2026-03-24T09:25:31.003Z</time></trkpt><trkpt lat="29.934615051813793" lon="-5.854224008718136"><ele>596.0</ele><time>2026-03-24T09:25:32.003Z</time></trkpt><trkpt lat="29.93470870128589" lon="-5.854095625566954"><ele>596.0</ele><time>2026-03-24T09:25:33.003Z</time></trkpt><trkpt lat="29.934813518286845" lon="-5.853973910309166"><ele>596.0</ele><time>2026-03-24T09:25:34.003Z</time></trkpt><trkpt lat="29.934921747199684" lon="-5.853846736729761"><ele>596.0</ele><time>2026-03-24T09:25:35.003Z</time></trkpt><trkpt lat="29.935006794437815" lon="-5.853705921243996"><ele>596.0</ele><time>2026-03-24T09:25:36.003Z</time></trkpt><trkpt lat="29.935084640673846" lon="-5.8535497543151624"><ele>596.0</ele><time>2026-03-24T09:25:37.003Z</time></trkpt><trkpt lat="29.93515913833044" lon="-5.853415831505866"><ele>596.0</ele><time>2026-03-24T09:25:38.003Z</time></trkpt><trkpt lat="29.93525127591849" lon="-5.85330236468906"><ele>596.0</ele><time>2026-03-24T09:25:39.003Z</time></trkpt><trkpt lat="29.935346254858175" lon="-5.853191188697667"><ele>596.0</ele><time>2026-03-24T09:25:40.003Z</time></trkpt><trkpt lat="29.935440191942245" lon="-5.853102279007449"><ele>596.0</ele><time>2026-03-24T09:25:41.003Z</time></trkpt><trkpt lat="29.935594440501355" lon="-5.853070686604526"><ele>596.0</ele><time>2026-03-24T09:25:42.003Z</time></trkpt><trkpt lat="29.935651953560935" lon="-5.8529733498550005"><ele>596.0</ele><time>2026-03-24T09:25:43.003Z</time></trkpt><trkpt lat="29.935652012242524" lon="-5.852819022527369"><ele>596.0</ele><time>2026-03-24T09:25:44.003Z</time></trkpt><trkpt lat="29.93570942614029" lon="-5.852698736879962"><ele>596.0</ele><time>2026-03-24T09:25:45.003Z</time></trkpt><trkpt lat="29.9357645161309" lon="-5.852581254157117"><ele>596.0</ele><time>2026-03-24T09:25:46.003Z</time></trkpt><trkpt lat="29.935812549097054" lon="-5.8524517752585705"><ele>596.0</ele><time>2026-03-24T09:25:47.003Z</time></trkpt><trkpt lat="29.935861608420936" lon="-5.852320621597651"><ele>596.0</ele><time>2026-03-24T09:25:48.003Z</time></trkpt><trkpt lat="29.935908891533927" lon="-5.852180984129341"><ele>596.0</ele><time>2026-03-24T09:25:49.003Z</time></trkpt><trkpt lat="29.935952329449353" lon="-5.852033424174869"><ele>596.0</ele><time>2026-03-24T09:25:50.003Z</time></trkpt><trkpt lat="29.936011114504183" lon="-5.851887042403774"><ele>596.0</ele><time>2026-03-24T09:25:51.003Z</time></trkpt><trkpt lat="29.93607452086144" lon="-5.851746194471947"><ele>596.0</ele><time>2026-03-24T09:25:52.003Z</time></trkpt><trkpt lat="29.9361173975801" lon="-5.851606122964992"><ele>596.0</ele><time>2026-03-24T09:25:53.003Z</time></trkpt><trkpt lat="29.936152300937504" lon="-5.851458168819945"><ele>596.0</ele><time>2026-03-24T09:25:54.003Z</time></trkpt><trkpt lat="29.936179027415115" lon="-5.851302685249672"><ele>596.0</ele><time>2026-03-24T09:25:55.003Z</time></trkpt><trkpt lat="29.936216431711298" lon="-5.851157510989155"><ele>596.0</ele><time>2026-03-24T09:25:56.003Z</time></trkpt><trkpt lat="29.93627184913007" lon="-5.8510128188464465"><ele>596.0</ele><time>2026-03-24T09:25:57.003Z</time></trkpt><trkpt lat="29.93634597696498" lon="-5.850862446964401"><ele>596.0</ele><time>2026-03-24T09:25:58.003Z</time></trkpt><trkpt lat="29.936440330536424" lon="-5.850728066706679"><ele>596.0</ele><time>2026-03-24T09:25:59.003Z</time></trkpt><trkpt lat="29.936541038905162" lon="-5.850607039170075"><ele>595.75</ele><time>2026-03-24T09:26:00.003Z</time></trkpt><trkpt lat="29.936637488010117" lon="-5.850484441890387"><ele>595.5</ele><time>2026-03-24T09:26:01.003Z</time></trkpt><trkpt lat="29.936731675983516" lon="-5.850374255159384"><ele>595.25</ele><time>2026-03-24T09:26:02.003Z</time></trkpt><trkpt lat="29.936836773918266" lon="-5.850276140071437"><ele>595.0</ele><time>2026-03-24T09:26:03.003Z</time></trkpt><trkpt lat="29.936966042569207" lon="-5.85018305159868"><ele>595.0</ele><time>2026-03-24T09:26:04.003Z</time></trkpt><trkpt lat="29.937078864207034" lon="-5.850075222201058"><ele>595.0</ele><time>2026-03-24T09:26:05.003Z</time></trkpt><trkpt lat="29.937165341870088" lon="-5.849953071824453"><ele>595.0</ele><time>2026-03-24T09:26:06.003Z</time></trkpt><trkpt lat="29.937228519009917" lon="-5.8498333547964005"><ele>595.0</ele><time>2026-03-24T09:26:07.003Z</time></trkpt><trkpt lat="29.93729469397578" lon="-5.849698863139319"><ele>595.0</ele><time>2026-03-24T09:26:08.003Z</time></trkpt><trkpt lat="29.937362105981354" lon="-5.849565352243996"><ele>595.0</ele><time>2026-03-24T09:26:09.003Z</time></trkpt><trkpt lat="29.93742997090609" lon="-5.849415062340285"><ele>595.0</ele><time>2026-03-24T09:26:10.003Z</time></trkpt><trkpt lat="29.937500856635893" lon="-5.849261699353421"><ele>595.0</ele><time>2026-03-24T09:26:11.003Z</time></trkpt><trkpt lat="29.937580656167576" lon="-5.849119160667007"><ele>595.5</ele><time>2026-03-24T09:26:12.003Z</time></trkpt><trkpt lat="29.93767435881838" lon="-5.8489874224561955"><ele>596.0</ele><time>2026-03-24T09:26:13.003Z</time></trkpt><trkpt lat="29.937768418532276" lon="-5.848872493434815"><ele>596.5</ele><time>2026-03-24T09:26:14.003Z</time></trkpt><trkpt lat="29.937868312968146" lon="-5.848758921393547"><ele>597.0</ele><time>2026-03-24T09:26:15.003Z</time></trkpt><trkpt lat="29.937974621086415" lon="-5.8486697310834845"><ele>597.0</ele><time>2026-03-24T09:26:16.003Z</time></trkpt><trkpt lat="29.93807815911091" lon="-5.848616373203822"><ele>597.0</ele><time>2026-03-24T09:26:17.003Z</time></trkpt><trkpt lat="29.938169441891002" lon="-5.8485821939093485"><ele>597.0</ele><time>2026-03-24T09:26:18.003Z</time></trkpt><trkpt lat="29.93825381797793" lon="-5.848551455179381"><ele>597.0</ele><time>2026-03-24T09:26:19.003Z</time></trkpt><trkpt lat="29.938322814402802" lon="-5.848499903326549"><ele>597.0</ele><time>2026-03-24T09:26:20.003Z</time></trkpt><trkpt lat="29.93837109637433" lon="-5.848423692349947"><ele>596.6</ele><time>2026-03-24T09:26:21.003Z</time></trkpt><trkpt lat="29.938415313848385" lon="-5.848308040115113"><ele>596.2</ele><time>2026-03-24T09:26:22.003Z</time></trkpt><trkpt lat="29.938479031821124" lon="-5.848183699291422"><ele>595.8</ele><time>2026-03-24T09:26:23.003Z</time></trkpt><trkpt lat="29.938541924699777" lon="-5.8480744203656965"><ele>595.4</ele><time>2026-03-24T09:26:24.003Z</time></trkpt><trkpt lat="29.938580710214918" lon="-5.84796738499036"><ele>595.0</ele><time>2026-03-24T09:26:25.003Z</time></trkpt><trkpt lat="29.938599969305592" lon="-5.847844115414661"><ele>595.0</ele><time>2026-03-24T09:26:26.003Z</time></trkpt><trkpt lat="29.938610744811943" lon="-5.847714530981178"><ele>595.0</ele><time>2026-03-24T09:26:27.003Z</time></trkpt><trkpt lat="29.93863455326131" lon="-5.847585486070335"><ele>595.0</ele><time>2026-03-24T09:26:28.003Z</time></trkpt><trkpt lat="29.938664435348795" lon="-5.847477612271172"><ele>595.0</ele><time>2026-03-24T09:26:29.003Z</time></trkpt><trkpt lat="29.938702830675787" lon="-5.847387750097749"><ele>595.0</ele><time>2026-03-24T09:26:30.003Z</time></trkpt><trkpt lat="29.938757916137313" lon="-5.847288934538499"><ele>594.75</ele><time>2026-03-24T09:26:31.003Z</time></trkpt><trkpt lat="29.938824291317424" lon="-5.847169844579218"><ele>594.5</ele><time>2026-03-24T09:26:32.003Z</time></trkpt><trkpt lat="29.93890829821209" lon="-5.847054442494223"><ele>594.25</ele><time>2026-03-24T09:26:33.003Z</time></trkpt><trkpt lat="29.93899149450864" lon="-5.846948572923824"><ele>594.0</ele><time>2026-03-24T09:26:34.003Z</time></trkpt><trkpt lat="29.939093122738214" lon="-5.846840074744303"><ele>594.0</ele><time>2026-03-24T09:26:35.003Z</time></trkpt><trkpt lat="29.93918750085704" lon="-5.846720922372825"><ele>594.0</ele><time>2026-03-24T09:26:36.003Z</time></trkpt><trkpt lat="29.939264846846243" lon="-5.846591751812939"><ele>594.0</ele><time>2026-03-24T09:26:37.003Z</time></trkpt><trkpt lat="29.93933664921927" lon="-5.846458229868951"><ele>594.0</ele><time>2026-03-24T09:26:38.003Z</time></trkpt><trkpt lat="29.93941402114513" lon="-5.846326125669865"><ele>593.75</ele><time>2026-03-24T09:26:39.003Z</time></trkpt><trkpt lat="29.939499296865083" lon="-5.846198468421482"><ele>593.5</ele><time>2026-03-24T09:26:40.003Z</time></trkpt><trkpt lat="29.939583163597987" lon="-5.846080368346307"><ele>593.25</ele><time>2026-03-24T09:26:41.003Z</time></trkpt><trkpt lat="29.939657309767025" lon="-5.845971010804861"><ele>593.0</ele><time>2026-03-24T09:26:42.003Z</time></trkpt><trkpt lat="29.939719459550957" lon="-5.845862789856219"><ele>593.0</ele><time>2026-03-24T09:26:43.003Z</time></trkpt><trkpt lat="29.93977308303205" lon="-5.845743132507912"><ele>593.0</ele><time>2026-03-24T09:26:44.004Z</time></trkpt><trkpt lat="29.939813485687704" lon="-5.845608109471463"><ele>593.0</ele><time>2026-03-24T09:26:45.003Z</time></trkpt><trkpt lat="29.939867575489394" lon="-5.8454615784731905"><ele>593.0</ele><time>2026-03-24T09:26:46.003Z</time></trkpt><trkpt lat="29.93993247813297" lon="-5.845319227633154"><ele>593.0</ele><time>2026-03-24T09:26:47.003Z</time></trkpt><trkpt lat="29.939995610565617" lon="-5.845179114297964"><ele>593.0</ele><time>2026-03-24T09:26:48.003Z</time></trkpt><trkpt lat="29.940064614940198" lon="-5.845041890474528"><ele>593.0</ele><time>2026-03-24T09:26:49.003Z</time></trkpt><trkpt lat="29.94013915959488" lon="-5.844910695016793"><ele>593.0</ele><time>2026-03-24T09:26:50.004Z</time></trkpt><trkpt lat="29.940222799056865" lon="-5.84478653667773"><ele>593.75</ele><time>2026-03-24T09:26:51.003Z</time></trkpt><trkpt lat="29.940310628445182" lon="-5.844675419900895"><ele>594.5</ele><time>2026-03-24T09:26:52.003Z</time></trkpt><trkpt lat="29.940381706347903" lon="-5.844568460450747"><ele>595.25</ele><time>2026-03-24T09:26:53.003Z</time></trkpt><trkpt lat="29.940435330629253" lon="-5.844434572284349"><ele>596.0</ele><time>2026-03-24T09:26:54.003Z</time></trkpt><trkpt lat="29.940485904501227" lon="-5.844286243241638"><ele>596.25</ele><time>2026-03-24T09:26:55.003Z</time></trkpt><trkpt lat="29.940546403731727" lon="-5.844132620704978"><ele>596.5</ele><time>2026-03-24T09:26:56.003Z</time></trkpt><trkpt lat="29.940600986707544" lon="-5.84397928208181"><ele>596.75</ele><time>2026-03-24T09:26:57.004Z</time></trkpt><trkpt lat="29.940648858210317" lon="-5.843823311889171"><ele>597.0</ele><time>2026-03-24T09:26:58.004Z</time></trkpt><trkpt lat="29.940691556565046" lon="-5.8436640778069275"><ele>597.0</ele><time>2026-03-24T09:26:59.004Z</time></trkpt><trkpt lat="29.940732187828104" lon="-5.843512158008153"><ele>597.0</ele><time>2026-03-24T09:27:00.004Z</time></trkpt><trkpt lat="29.940775863073398" lon="-5.843363904216774"><ele>597.0</ele><time>2026-03-24T09:27:01.004Z</time></trkpt><trkpt lat="29.940822211292563" lon="-5.84321079180445"><ele>597.0</ele><time>2026-03-24T09:27:02.004Z</time></trkpt><trkpt lat="29.940864814487654" lon="-5.843040005598931"><ele>597.0</ele><time>2026-03-24T09:27:03.004Z</time></trkpt><trkpt lat="29.940912603046634" lon="-5.842860174473385"><ele>597.0</ele><time>2026-03-24T09:27:04.004Z</time></trkpt><trkpt lat="29.940953165042632" lon="-5.842672437046475"><ele>597.0</ele><time>2026-03-24T09:27:05.004Z</time></trkpt><trkpt lat="29.940996487837182" lon="-5.84249529829756"><ele>597.0</ele><time>2026-03-24T09:27:06.004Z</time></trkpt><trkpt lat="29.94104459609393" lon="-5.842316777464135"><ele>597.0</ele><time>2026-03-24T09:27:07.004Z</time></trkpt><trkpt lat="29.941088267233624" lon="-5.842147642799814"><ele>597.0</ele><time>2026-03-24T09:27:08.004Z</time></trkpt><trkpt lat="29.94113383327838" lon="-5.841984690547041"><ele>597.0</ele><time>2026-03-24T09:27:09.004Z</time></trkpt><trkpt lat="29.941182905376497" lon="-5.84182514019584"><ele>597.0</ele><time>2026-03-24T09:27:10.004Z</time></trkpt><trkpt lat="29.941243675793565" lon="-5.841678562183339"><ele>597.0</ele><time>2026-03-24T09:27:11.004Z</time></trkpt><trkpt lat="29.941323868741097" lon="-5.841530962270926"><ele>597.0</ele><time>2026-03-24T09:27:12.004Z</time></trkpt><trkpt lat="29.94141601465271" lon="-5.841382311828596"><ele>596.6666666666666</ele><time>2026-03-24T09:27:13.004Z</time></trkpt><trkpt lat="29.941509257597872" lon="-5.841237329626965"><ele>596.3333333333333</ele><time>2026-03-24T09:27:14.004Z</time></trkpt><trkpt lat="29.94160668912207" lon="-5.841094186943963"><ele>596.0</ele><time>2026-03-24T09:27:15.004Z</time></trkpt><trkpt lat="29.941707201783323" lon="-5.840958876650212"><ele>596.0</ele><time>2026-03-24T09:27:16.004Z</time></trkpt><trkpt lat="29.94181371314039" lon="-5.840823208098609"><ele>596.0</ele><time>2026-03-24T09:27:17.004Z</time></trkpt><trkpt lat="29.94192382696123" lon="-5.840689623452536"><ele>596.0</ele><time>2026-03-24T09:27:18.004Z</time></trkpt><trkpt lat="29.9420343522047" lon="-5.840558357098922"><ele>596.0</ele><time>2026-03-24T09:27:19.004Z</time></trkpt><trkpt lat="29.942139429965287" lon="-5.840420736813306"><ele>596.0</ele><time>2026-03-24T09:27:20.004Z</time></trkpt><trkpt lat="29.942235815992106" lon="-5.840278129976224"><ele>596.0</ele><time>2026-03-24T09:27:21.004Z</time></trkpt><trkpt lat="29.942328990891863" lon="-5.840134600473363"><ele>596.3333333333333</ele><time>2026-03-24T09:27:22.004Z</time></trkpt><trkpt lat="29.942418645834422" lon="-5.839993235065172"><ele>596.6666666666666</ele><time>2026-03-24T09:27:23.004Z</time></trkpt><trkpt lat="29.942498476813963" lon="-5.839850353328406"><ele>597.0</ele><time>2026-03-24T09:27:24.004Z</time></trkpt><trkpt lat="29.94257450579839" lon="-5.83969991293826"><ele>596.75</ele><time>2026-03-24T09:27:25.004Z</time></trkpt><trkpt lat="29.942630124551712" lon="-5.83954807433704"><ele>596.5</ele><time>2026-03-24T09:27:26.004Z</time></trkpt><trkpt lat="29.942656429447794" lon="-5.839399423081861"><ele>596.25</ele><time>2026-03-24T09:27:27.004Z</time></trkpt><trkpt lat="29.94266944418919" lon="-5.83924439987302"><ele>596.0</ele><time>2026-03-24T09:27:28.004Z</time></trkpt><trkpt lat="29.94268677600922" lon="-5.839081742599917"><ele>596.0</ele><time>2026-03-24T09:27:29.004Z</time></trkpt><trkpt lat="29.942718592620952" lon="-5.83892408079519"><ele>596.0</ele><time>2026-03-24T09:27:30.004Z</time></trkpt><trkpt lat="29.942763021942728" lon="-5.838753489503554"><ele>596.0</ele><time>2026-03-24T09:27:31.004Z</time></trkpt><trkpt lat="29.942806606412095" lon="-5.838586822977096"><ele>596.0</ele><time>2026-03-24T09:27:32.004Z</time></trkpt><trkpt lat="29.942840813771348" lon="-5.838414696687082"><ele>596.0</ele><time>2026-03-24T09:27:33.004Z</time></trkpt><trkpt lat="29.94287856547999" lon="-5.838246974009606"><ele>596.0</ele><time>2026-03-24T09:27:34.004Z</time></trkpt><trkpt lat="29.942929756334262" lon="-5.838075942129936"><ele>596.0</ele><time>2026-03-24T09:27:35.004Z</time></trkpt><trkpt lat="29.942986585028628" lon="-5.83790285498095"><ele>596.0</ele><time>2026-03-24T09:27:36.004Z</time></trkpt><trkpt lat="29.943042443263984" lon="-5.837733798609343"><ele>596.0</ele><time>2026-03-24T09:27:37.004Z</time></trkpt><trkpt lat="29.94309494276405" lon="-5.83756749748582"><ele>596.0</ele><time>2026-03-24T09:27:38.004Z</time></trkpt><trkpt lat="29.943129445251817" lon="-5.83740995061479"><ele>595.75</ele><time>2026-03-24T09:27:39.004Z</time></trkpt><trkpt lat="29.94317138457492" lon="-5.837246562203587"><ele>595.5</ele><time>2026-03-24T09:27:40.004Z</time></trkpt><trkpt lat="29.94322294645258" lon="-5.8371039751690805"><ele>595.25</ele><time>2026-03-24T09:27:41.004Z</time></trkpt><trkpt lat="29.943282577192072" lon="-5.836969246701537"><ele>595.0</ele><time>2026-03-24T09:27:42.004Z</time></trkpt><trkpt lat="29.943345586165997" lon="-5.836837266899391"><ele>595.3333333333334</ele><time>2026-03-24T09:27:43.004Z</time></trkpt><trkpt lat="29.943400280451865" lon="-5.836686405164015"><ele>595.6666666666666</ele><time>2026-03-24T09:27:44.004Z</time></trkpt><trkpt lat="29.94344879448865" lon="-5.836524963800083"><ele>596.0</ele><time>2026-03-24T09:27:45.004Z</time></trkpt><trkpt lat="29.94350329743448" lon="-5.836351196739565"><ele>596.0</ele><time>2026-03-24T09:27:46.004Z</time></trkpt><trkpt lat="29.9435733572448" lon="-5.836181138446158"><ele>596.0</ele><time>2026-03-24T09:27:47.004Z</time></trkpt><trkpt lat="29.943655651157627" lon="-5.836011984685402"><ele>596.0</ele><time>2026-03-24T09:27:48.004Z</time></trkpt><trkpt lat="29.943748665386078" lon="-5.835842671280065"><ele>595.3333333333333</ele><time>2026-03-24T09:27:49.004Z</time></trkpt><trkpt lat="29.943842802958784" lon="-5.835678944254997"><ele>594.6666666666666</ele><time>2026-03-24T09:27:50.004Z</time></trkpt><trkpt lat="29.9439123599334" lon="-5.83552770892982"><ele>594.0</ele><time>2026-03-24T09:27:51.004Z</time></trkpt><trkpt lat="29.94396879737141" lon="-5.835371862925519"><ele>594.0</ele><time>2026-03-24T09:27:52.004Z</time></trkpt><trkpt lat="29.944013858597653" lon="-5.835224078482332"><ele>594.0</ele><time>2026-03-24T09:27:53.004Z</time></trkpt><trkpt lat="29.94406191806261" lon="-5.835075215291568"><ele>594.0</ele><time>2026-03-24T09:27:54.004Z</time></trkpt><trkpt lat="29.944118733480487" lon="-5.834927833850573"><ele>594.0</ele><time>2026-03-24T09:27:55.004Z</time></trkpt><trkpt lat="29.944178568223805" lon="-5.834782911058009"><ele>593.5</ele><time>2026-03-24T09:27:56.004Z</time></trkpt><trkpt lat="29.944233354958882" lon="-5.834632172295312"><ele>593.0</ele><time>2026-03-24T09:27:57.004Z</time></trkpt><trkpt lat="29.94428997391982" lon="-5.83448248408164"><ele>592.5</ele><time>2026-03-24T09:27:58.004Z</time></trkpt><trkpt lat="29.94435036351718" lon="-5.834343763797895"><ele>592.0</ele><time>2026-03-24T09:27:59.004Z</time></trkpt><trkpt lat="29.9444117582841" lon="-5.834197796884659"><ele>592.0</ele><time>2026-03-24T09:28:00.004Z</time></trkpt><trkpt lat="29.94446436672197" lon="-5.834038700640665"><ele>592.0</ele><time>2026-03-24T09:28:01.004Z</time></trkpt><trkpt lat="29.944506587158042" lon="-5.833870917292148"><ele>592.0</ele><time>2026-03-24T09:28:02.004Z</time></trkpt><trkpt lat="29.944541718556472" lon="-5.833712646466112"><ele>592.0</ele><time>2026-03-24T09:28:03.004Z</time></trkpt><trkpt lat="29.94457730266709" lon="-5.833561982163921"><ele>592.0</ele><time>2026-03-24T09:28:04.004Z</time></trkpt><trkpt lat="29.944625432067483" lon="-5.8334182278419835"><ele>592.0</ele><time>2026-03-24T09:28:05.004Z</time></trkpt><trkpt lat="29.944695687637154" lon="-5.833262306986156"><ele>592.0</ele><time>2026-03-24T09:28:06.004Z</time></trkpt><trkpt lat="29.944771240381385" lon="-5.833106162169869"><ele>592.0</ele><time>2026-03-24T09:28:07.004Z</time></trkpt><trkpt lat="29.944852044144458" lon="-5.832968095619163"><ele>592.0</ele><time>2026-03-24T09:28:08.004Z</time></trkpt><trkpt lat="29.944910172808342" lon="-5.832825185867481"><ele>592.0</ele><time>2026-03-24T09:28:09.004Z</time></trkpt><trkpt lat="29.944936530481456" lon="-5.832686569873964"><ele>592.0</ele><time>2026-03-24T09:28:10.004Z</time></trkpt><trkpt lat="29.9449617190887" lon="-5.83253645747126"><ele>592.0</ele><time>2026-03-24T09:28:11.004Z</time></trkpt><trkpt lat="29.944962369307643" lon="-5.832366109233876"><ele>591.6666666666667</ele><time>2026-03-24T09:28:12.004Z</time></trkpt><trkpt lat="29.944970866482524" lon="-5.832196202055782"><ele>591.3333333333334</ele><time>2026-03-24T09:28:13.004Z</time></trkpt><trkpt lat="29.944994676853355" lon="-5.83202921126748"><ele>591.0</ele><time>2026-03-24T09:28:14.004Z</time></trkpt><trkpt lat="29.945028590892115" lon="-5.8318524463428165"><ele>591.0</ele><time>2026-03-24T09:28:15.004Z</time></trkpt><trkpt lat="29.94507407088702" lon="-5.831678061259876"><ele>591.0</ele><time>2026-03-24T09:28:16.004Z</time></trkpt><trkpt lat="29.9451289292038" lon="-5.831506884175682"><ele>591.0</ele><time>2026-03-24T09:28:17.004Z</time></trkpt><trkpt lat="29.945190299142048" lon="-5.831337047060692"><ele>591.0</ele><time>2026-03-24T09:28:18.004Z</time></trkpt><trkpt lat="29.945253690311922" lon="-5.83116890717775"><ele>591.0</ele><time>2026-03-24T09:28:19.004Z</time></trkpt><trkpt lat="29.94531123124496" lon="-5.8310032071229"><ele>591.0</ele><time>2026-03-24T09:28:20.004Z</time></trkpt><trkpt lat="29.94536346544998" lon="-5.830834328661915"><ele>590.75</ele><time>2026-03-24T09:28:21.004Z</time></trkpt><trkpt lat="29.945403538117038" lon="-5.8306641021239844"><ele>590.5</ele><time>2026-03-24T09:28:22.004Z</time></trkpt><trkpt lat="29.945436797528412" lon="-5.830499336971463"><ele>590.25</ele><time>2026-03-24T09:28:23.004Z</time></trkpt><trkpt lat="29.945480561149285" lon="-5.830336059130199"><ele>590.0</ele><time>2026-03-24T09:28:24.004Z</time></trkpt><trkpt lat="29.945537585295686" lon="-5.830168562744327"><ele>590.0</ele><time>2026-03-24T09:28:25.004Z</time></trkpt><trkpt lat="29.945603429104892" lon="-5.8300224453985745"><ele>590.0</ele><time>2026-03-24T09:28:26.004Z</time></trkpt><trkpt lat="29.94567502655637" lon="-5.829888429638682"><ele>590.0</ele><time>2026-03-24T09:28:27.004Z</time></trkpt><trkpt lat="29.945750921555494" lon="-5.829752692322806"><ele>590.0</ele><time>2026-03-24T09:28:28.004Z</time></trkpt><trkpt lat="29.945826078123773" lon="-5.829622330152953"><ele>590.0</ele><time>2026-03-24T09:28:29.004Z</time></trkpt><trkpt lat="29.945881074276738" lon="-5.829491904415413"><ele>590.0</ele><time>2026-03-24T09:28:30.004Z</time></trkpt><trkpt lat="29.945917555033855" lon="-5.829365614808296"><ele>590.0</ele><time>2026-03-24T09:28:31.004Z</time></trkpt><trkpt lat="29.94593825960452" lon="-5.8292462958291225"><ele>590.0</ele><time>2026-03-24T09:28:32.004Z</time></trkpt><trkpt lat="29.945967207340598" lon="-5.829140638877894"><ele>590.0</ele><time>2026-03-24T09:28:33.004Z</time></trkpt><trkpt lat="29.94599235067133" lon="-5.8290465198101105"><ele>590.0</ele><time>2026-03-24T09:28:34.004Z</time></trkpt><trkpt lat="29.9460234242845" lon="-5.828951167586471"><ele>590.0</ele><time>2026-03-24T09:28:35.004Z</time></trkpt><trkpt lat="29.94605433444431" lon="-5.82885520201519"><ele>590.0</ele><time>2026-03-24T09:28:36.004Z</time></trkpt><trkpt lat="29.946082474747026" lon="-5.828754602125818"><ele>590.0</ele><time>2026-03-24T09:28:37.004Z</time></trkpt><trkpt lat="29.946112989930842" lon="-5.828651308167874"><ele>590.0</ele><time>2026-03-24T09:28:38.004Z</time></trkpt><trkpt lat="29.94614491390143" lon="-5.828539196167976"><ele>589.8</ele><time>2026-03-24T09:28:39.004Z</time></trkpt><trkpt lat="29.946176102945632" lon="-5.82843434926048"><ele>589.6</ele><time>2026-03-24T09:28:40.004Z</time></trkpt><trkpt lat="29.946206654359965" lon="-5.82832469775577"><ele>589.4</ele><time>2026-03-24T09:28:41.004Z</time></trkpt><trkpt lat="29.946242475322347" lon="-5.828206558471721"><ele>589.2</ele><time>2026-03-24T09:28:42.004Z</time></trkpt><trkpt lat="29.946280949658195" lon="-5.828072655874943"><ele>589.0</ele><time>2026-03-24T09:28:43.004Z</time></trkpt><trkpt lat="29.946320181904458" lon="-5.8279427073613626"><ele>589.0</ele><time>2026-03-24T09:28:44.004Z</time></trkpt><trkpt lat="29.946361534922342" lon="-5.827799585795874"><ele>589.0</ele><time>2026-03-24T09:28:45.004Z</time></trkpt><trkpt lat="29.94640632596579" lon="-5.827655543261496"><ele>589.0</ele><time>2026-03-24T09:28:46.004Z</time></trkpt><trkpt lat="29.946445304776546" lon="-5.827515080722125"><ele>589.0</ele><time>2026-03-24T09:28:47.004Z</time></trkpt><trkpt lat="29.94648619400573" lon="-5.827376948524675"><ele>589.25</ele><time>2026-03-24T09:28:48.004Z</time></trkpt><trkpt lat="29.94653045415702" lon="-5.827236020514897"><ele>589.5</ele><time>2026-03-24T09:28:49.004Z</time></trkpt><trkpt lat="29.946574505488" lon="-5.827075790042106"><ele>589.75</ele><time>2026-03-24T09:28:50.004Z</time></trkpt><trkpt lat="29.946627600000085" lon="-5.826896797847112"><ele>590.0</ele><time>2026-03-24T09:28:51.004Z</time></trkpt><trkpt lat="29.946684432884727" lon="-5.826709794484867"><ele>589.3333333333333</ele><time>2026-03-24T09:28:52.004Z</time></trkpt><trkpt lat="29.94673756545547" lon="-5.8265252280852105"><ele>588.6666666666666</ele><time>2026-03-24T09:28:53.004Z</time></trkpt><trkpt lat="29.946793542411775" lon="-5.826336788017957"><ele>588.0</ele><time>2026-03-24T09:28:54.004Z</time></trkpt><trkpt lat="29.946840397732235" lon="-5.826164923093738"><ele>588.0</ele><time>2026-03-24T09:28:55.004Z</time></trkpt><trkpt lat="29.946892170584555" lon="-5.826002173100213"><ele>588.0</ele><time>2026-03-24T09:28:56.004Z</time></trkpt><trkpt lat="29.946938030152758" lon="-5.825829173887325"><ele>588.0</ele><time>2026-03-24T09:28:57.004Z</time></trkpt><trkpt lat="29.9469904987329" lon="-5.825656148394641"><ele>588.0</ele><time>2026-03-24T09:28:58.004Z</time></trkpt><trkpt lat="29.947045438398856" lon="-5.825471294504171"><ele>588.0</ele><time>2026-03-24T09:28:59.004Z</time></trkpt><trkpt lat="29.94709638714529" lon="-5.825287590394318"><ele>588.0</ele><time>2026-03-24T09:29:00.004Z</time></trkpt><trkpt lat="29.9471437581837" lon="-5.825115805880267"><ele>588.3333333333334</ele><time>2026-03-24T09:29:01.004Z</time></trkpt><trkpt lat="29.947185404266204" lon="-5.824947377005146"><ele>588.6666666666667</ele><time>2026-03-24T09:29:02.004Z</time></trkpt><trkpt lat="29.94722579398399" lon="-5.8247683739473555"><ele>589.0</ele><time>2026-03-24T09:29:03.004Z</time></trkpt><trkpt lat="29.947254842003083" lon="-5.824588831789905"><ele>589.0</ele><time>2026-03-24T09:29:04.004Z</time></trkpt><trkpt lat="29.94728539053397" lon="-5.82441675117066"><ele>589.0</ele><time>2026-03-24T09:29:05.004Z</time></trkpt><trkpt lat="29.947317814971" lon="-5.824243452534551"><ele>589.0</ele><time>2026-03-24T09:29:06.004Z</time></trkpt><trkpt lat="29.947354681028308" lon="-5.824064414189321"><ele>589.3333333333334</ele><time>2026-03-24T09:29:07.004Z</time></trkpt><trkpt lat="29.947399209542457" lon="-5.823892703477869"><ele>589.6666666666666</ele><time>2026-03-24T09:29:08.004Z</time></trkpt><trkpt lat="29.947452831623497" lon="-5.823716568566077"><ele>590.0</ele><time>2026-03-24T09:29:09.004Z</time></trkpt><trkpt lat="29.947506399040137" lon="-5.823544422054373"><ele>589.6666666666666</ele><time>2026-03-24T09:29:10.004Z</time></trkpt><trkpt lat="29.947572465170765" lon="-5.823377355356362"><ele>589.3333333333334</ele><time>2026-03-24T09:29:11.004Z</time></trkpt><trkpt lat="29.94764302594355" lon="-5.823217592853176"><ele>589.0</ele><time>2026-03-24T09:29:12.004Z</time></trkpt><trkpt lat="29.947710839444788" lon="-5.823069235795206"><ele>589.0</ele><time>2026-03-24T09:29:13.004Z</time></trkpt><trkpt lat="29.947771518547842" lon="-5.822932594473019"><ele>589.0</ele><time>2026-03-24T09:29:14.004Z</time></trkpt><trkpt lat="29.947827479666625" lon="-5.822804335531511"><ele>589.0</ele><time>2026-03-24T09:29:15.004Z</time></trkpt><trkpt lat="29.947888334690134" lon="-5.822684388250982"><ele>589.0</ele><time>2026-03-24T09:29:16.004Z</time></trkpt><trkpt lat="29.94793553130333" lon="-5.8225637072117005"><ele>588.75</ele><time>2026-03-24T09:29:17.004Z</time></trkpt><trkpt lat="29.947978687343205" lon="-5.8224397102215715"><ele>588.5</ele><time>2026-03-24T09:29:18.004Z</time></trkpt><trkpt lat="29.948014012943208" lon="-5.822301618993139"><ele>588.25</ele><time>2026-03-24T09:29:19.004Z</time></trkpt><trkpt lat="29.94806082890823" lon="-5.822158987648447"><ele>588.0</ele><time>2026-03-24T09:29:20.004Z</time></trkpt><trkpt lat="29.948143723997244" lon="-5.8220139249052085"><ele>588.0</ele><time>2026-03-24T09:29:21.004Z</time></trkpt><trkpt lat="29.948243631002654" lon="-5.821883996818696"><ele>588.0</ele><time>2026-03-24T09:29:22.004Z</time></trkpt><trkpt lat="29.94830921121229" lon="-5.821770712847655"><ele>588.0</ele><time>2026-03-24T09:29:23.004Z</time></trkpt><trkpt lat="29.948350103044277" lon="-5.821673399397383"><ele>588.0</ele><time>2026-03-24T09:29:24.004Z</time></trkpt><trkpt lat="29.94839916862591" lon="-5.82158939351506"><ele>588.0</ele><time>2026-03-24T09:29:25.004Z</time></trkpt><trkpt lat="29.948455511276293" lon="-5.821517522224562"><ele>588.0</ele><time>2026-03-24T09:29:26.004Z</time></trkpt><trkpt lat="29.948515145649964" lon="-5.821415927013466"><ele>588.0</ele><time>2026-03-24T09:29:27.004Z</time></trkpt><trkpt lat="29.94860509026047" lon="-5.821308713955627"><ele>588.0</ele><time>2026-03-24T09:29:28.004Z</time></trkpt><trkpt lat="29.94870343539956" lon="-5.8211872565110925"><ele>588.0</ele><time>2026-03-24T09:29:29.004Z</time></trkpt><trkpt lat="29.94877656192635" lon="-5.821077887184087"><ele>588.0</ele><time>2026-03-24T09:29:30.004Z</time></trkpt><trkpt lat="29.948849345312922" lon="-5.820966934623452"><ele>588.0</ele><time>2026-03-24T09:29:31.004Z</time></trkpt><trkpt lat="29.948919509910333" lon="-5.820836000633578"><ele>588.0</ele><time>2026-03-24T09:29:32.004Z</time></trkpt><trkpt lat="29.948994352537436" lon="-5.820726486577616"><ele>588.0</ele><time>2026-03-24T09:29:33.004Z</time></trkpt><trkpt lat="29.94908661031845" lon="-5.820609761597349"><ele>588.0</ele><time>2026-03-24T09:29:34.004Z</time></trkpt><trkpt lat="29.949177172070232" lon="-5.820487035238322"><ele>588.0</ele><time>2026-03-24T09:29:35.004Z</time></trkpt><trkpt lat="29.949262712417077" lon="-5.820362831100412"><ele>588.0</ele><time>2026-03-24T09:29:36.004Z</time></trkpt><trkpt lat="29.949350928542064" lon="-5.820237901402327"><ele>587.75</ele><time>2026-03-24T09:29:37.004Z</time></trkpt><trkpt lat="29.94944346431022" lon="-5.820121933229176"><ele>587.5</ele><time>2026-03-24T09:29:38.004Z</time></trkpt><trkpt lat="29.949544276715176" lon="-5.820021714150064"><ele>587.25</ele><time>2026-03-24T09:29:39.004Z</time></trkpt><trkpt lat="29.94965947623515" lon="-5.819936625814218"><ele>587.0</ele><time>2026-03-24T09:29:40.004Z</time></trkpt><trkpt lat="29.94979171917651" lon="-5.819850457437176"><ele>587.0</ele><time>2026-03-24T09:29:41.004Z</time></trkpt><trkpt lat="29.949916716691167" lon="-5.819774712774011"><ele>587.0</ele><time>2026-03-24T09:29:42.004Z</time></trkpt><trkpt lat="29.95004038960956" lon="-5.819693612718606"><ele>587.0</ele><time>2026-03-24T09:29:43.004Z</time></trkpt><trkpt lat="29.95013365014968" lon="-5.819607316149868"><ele>587.0</ele><time>2026-03-24T09:29:44.004Z</time></trkpt><trkpt lat="29.950213301253925" lon="-5.819497088972378"><ele>587.25</ele><time>2026-03-24T09:29:45.004Z</time></trkpt><trkpt lat="29.950300630698653" lon="-5.8193787136536645"><ele>587.5</ele><time>2026-03-24T09:29:46.004Z</time></trkpt><trkpt lat="29.950399235849137" lon="-5.8192543379691966"><ele>587.75</ele><time>2026-03-24T09:29:47.004Z</time></trkpt><trkpt lat="29.95048176291417" lon="-5.8191298082193486"><ele>588.0</ele><time>2026-03-24T09:29:48.004Z</time></trkpt><trkpt lat="29.95055871108873" lon="-5.8190041712365534"><ele>588.0</ele><time>2026-03-24T09:29:49.004Z</time></trkpt><trkpt lat="29.950637580672723" lon="-5.818880231373259"><ele>588.0</ele><time>2026-03-24T09:29:50.004Z</time></trkpt><trkpt lat="29.95072306684286" lon="-5.8187677535862665"><ele>588.0</ele><time>2026-03-24T09:29:51.004Z</time></trkpt><trkpt lat="29.950803198876745" lon="-5.818653545953309"><ele>588.0</ele><time>2026-03-24T09:29:52.004Z</time></trkpt><trkpt lat="29.95088310301656" lon="-5.818531670130893"><ele>588.25</ele><time>2026-03-24T09:29:53.004Z</time></trkpt><trkpt lat="29.95096692269924" lon="-5.818405022604224"><ele>588.5</ele><time>2026-03-24T09:29:54.004Z</time></trkpt><trkpt lat="29.95106160406034" lon="-5.818282279792756"><ele>588.75</ele><time>2026-03-24T09:29:55.004Z</time></trkpt><trkpt lat="29.951159862033194" lon="-5.8181760233663775"><ele>589.0</ele><time>2026-03-24T09:29:56.004Z</time></trkpt><trkpt lat="29.95124650976999" lon="-5.818069973593421"><ele>589.0</ele><time>2026-03-24T09:29:57.004Z</time></trkpt><trkpt lat="29.95132240688048" lon="-5.81793653682659"><ele>589.0</ele><time>2026-03-24T09:29:58.004Z</time></trkpt><trkpt lat="29.951390151098337" lon="-5.817778322302989"><ele>589.0</ele><time>2026-03-24T09:29:59.004Z</time></trkpt><trkpt lat="29.951449902193193" lon="-5.817631679471462"><ele>589.0</ele><time>2026-03-24T09:30:00.004Z</time></trkpt><trkpt lat="29.951510604863454" lon="-5.817489003291285"><ele>588.5</ele><time>2026-03-24T09:30:01.004Z</time></trkpt><trkpt lat="29.951581054495485" lon="-5.81735702535039"><ele>588.0</ele><time>2026-03-24T09:30:02.004Z</time></trkpt><trkpt lat="29.951675976975576" lon="-5.817237723572168"><ele>587.5</ele><time>2026-03-24T09:30:03.004Z</time></trkpt><trkpt lat="29.951778033323627" lon="-5.817126972094408"><ele>587.0</ele><time>2026-03-24T09:30:04.004Z</time></trkpt><trkpt lat="29.951865755783622" lon="-5.817022828856127"><ele>587.0</ele><time>2026-03-24T09:30:05.004Z</time></trkpt><trkpt lat="29.951958643406112" lon="-5.81692034497081"><ele>587.0</ele><time>2026-03-24T09:30:06.004Z</time></trkpt><trkpt lat="29.952054277993117" lon="-5.816806922674855"><ele>587.0</ele><time>2026-03-24T09:30:07.004Z</time></trkpt><trkpt lat="29.9521476251819" lon="-5.816675280031729"><ele>587.0</ele><time>2026-03-24T09:30:08.004Z</time></trkpt><trkpt lat="29.95223981340187" lon="-5.816536546672508"><ele>586.3333333333333</ele><time>2026-03-24T09:30:09.004Z</time></trkpt><trkpt lat="29.95233307485383" lon="-5.816398413242737"><ele>585.6666666666666</ele><time>2026-03-24T09:30:10.004Z</time></trkpt><trkpt lat="29.95243015330709" lon="-5.816252167224922"><ele>585.0</ele><time>2026-03-24T09:30:11.004Z</time></trkpt><trkpt lat="29.952532580136914" lon="-5.816119585275238"><ele>585.0</ele><time>2026-03-24T09:30:12.004Z</time></trkpt><trkpt lat="29.952640479843677" lon="-5.816022405914642"><ele>585.0</ele><time>2026-03-24T09:30:13.004Z</time></trkpt><trkpt lat="29.95275728198823" lon="-5.81593613524481"><ele>585.0</ele><time>2026-03-24T09:30:14.004Z</time></trkpt><trkpt lat="29.952871720562218" lon="-5.815848298548177"><ele>585.0</ele><time>2026-03-24T09:30:15.004Z</time></trkpt><trkpt lat="29.952980910842456" lon="-5.815748506751542"><ele>585.0</ele><time>2026-03-24T09:30:16.004Z</time></trkpt><trkpt lat="29.953089584997237" lon="-5.815636972095604"><ele>585.0</ele><time>2026-03-24T09:30:17.004Z</time></trkpt><trkpt lat="29.95320172593101" lon="-5.815520895896335"><ele>585.0</ele><time>2026-03-24T09:30:18.004Z</time></trkpt><trkpt lat="29.95330406864087" lon="-5.815398160215114"><ele>585.0</ele><time>2026-03-24T09:30:19.004Z</time></trkpt><trkpt lat="29.953411418347553" lon="-5.815264233648421"><ele>585.25</ele><time>2026-03-24T09:30:20.004Z</time></trkpt><trkpt lat="29.953503027017746" lon="-5.81513445068838"><ele>585.5</ele><time>2026-03-24T09:30:21.004Z</time></trkpt><trkpt lat="29.953584262228578" lon="-5.814990426431848"><ele>585.75</ele><time>2026-03-24T09:30:22.004Z</time></trkpt><trkpt lat="29.9536707598774" lon="-5.8148454930346"><ele>586.0</ele><time>2026-03-24T09:30:23.004Z</time></trkpt><trkpt lat="29.953760413698387" lon="-5.814716855580917"><ele>586.0</ele><time>2026-03-24T09:30:24.004Z</time></trkpt><trkpt lat="29.953857431107348" lon="-5.814586494830053"><ele>586.0</ele><time>2026-03-24T09:30:25.004Z</time></trkpt><trkpt lat="29.953965479355343" lon="-5.814450721654416"><ele>586.0</ele><time>2026-03-24T09:30:26.004Z</time></trkpt><trkpt lat="29.95407715796211" lon="-5.814312658899441"><ele>585.6666666666667</ele><time>2026-03-24T09:30:27.004Z</time></trkpt><trkpt lat="29.954192407452442" lon="-5.814168156367756"><ele>585.3333333333334</ele><time>2026-03-24T09:30:28.004Z</time></trkpt><trkpt lat="29.95430553876722" lon="-5.814023947388289"><ele>585.0</ele><time>2026-03-24T09:30:29.004Z</time></trkpt><trkpt lat="29.954417227160352" lon="-5.813877354452822"><ele>585.0</ele><time>2026-03-24T09:30:30.004Z</time></trkpt><trkpt lat="29.954530720735928" lon="-5.813727211918279"><ele>585.0</ele><time>2026-03-24T09:30:31.004Z</time></trkpt><trkpt lat="29.954646892443485" lon="-5.81357068126803"><ele>585.0</ele><time>2026-03-24T09:30:32.004Z</time></trkpt><trkpt lat="29.95475917228716" lon="-5.813416605382991"><ele>585.3333333333334</ele><time>2026-03-24T09:30:33.004Z</time></trkpt><trkpt lat="29.9548663082039" lon="-5.813259725152143"><ele>585.6666666666667</ele><time>2026-03-24T09:30:34.004Z</time></trkpt><trkpt lat="29.954968270963832" lon="-5.813095543326403"><ele>586.0</ele><time>2026-03-24T09:30:35.004Z</time></trkpt><trkpt lat="29.955069031629485" lon="-5.812929171428658"><ele>585.3333333333334</ele><time>2026-03-24T09:30:36.004Z</time></trkpt><trkpt lat="29.95515801417657" lon="-5.812761862916418"><ele>584.6666666666666</ele><time>2026-03-24T09:30:37.004Z</time></trkpt><trkpt lat="29.955233384840845" lon="-5.812590466843776"><ele>584.0</ele><time>2026-03-24T09:30:38.004Z</time></trkpt><trkpt lat="29.955300856190345" lon="-5.812419645262484"><ele>584.0</ele><time>2026-03-24T09:30:39.004Z</time></trkpt><trkpt lat="29.955369318618924" lon="-5.812253303062789"><ele>584.0</ele><time>2026-03-24T09:30:40.004Z</time></trkpt><trkpt lat="29.955439051600695" lon="-5.812088841040286"><ele>584.0</ele><time>2026-03-24T09:30:41.004Z</time></trkpt><trkpt lat="29.955507227178067" lon="-5.811922682999605"><ele>583.75</ele><time>2026-03-24T09:30:42.004Z</time></trkpt><trkpt lat="29.955573389593745" lon="-5.8117657195719765"><ele>583.5</ele><time>2026-03-24T09:30:43.004Z</time></trkpt><trkpt lat="29.95565443736963" lon="-5.811624048301796"><ele>583.25</ele><time>2026-03-24T09:30:44.004Z</time></trkpt><trkpt lat="29.955750423689274" lon="-5.811502685441656"><ele>583.0</ele><time>2026-03-24T09:30:45.004Z</time></trkpt><trkpt lat="29.955834469733375" lon="-5.811401259892205"><ele>582.8</ele><time>2026-03-24T09:30:46.004Z</time></trkpt><trkpt lat="29.95591118274823" lon="-5.81130440158212"><ele>582.5999999999999</ele><time>2026-03-24T09:30:47.004Z</time></trkpt><trkpt lat="29.955979414951425" lon="-5.811213765086028"><ele>582.4000000000001</ele><time>2026-03-24T09:30:48.004Z</time></trkpt><trkpt lat="29.956047548362957" lon="-5.811115755043476"><ele>582.2</ele><time>2026-03-24T09:30:49.004Z</time></trkpt><trkpt lat="29.956115258352373" lon="-5.811012997692109"><ele>582.0</ele><time>2026-03-24T09:30:50.004Z</time></trkpt><trkpt lat="29.95618464699277" lon="-5.810910718696841"><ele>581.8000000000001</ele><time>2026-03-24T09:30:51.004Z</time></trkpt><trkpt lat="29.95625203956064" lon="-5.810816355715068"><ele>581.6</ele><time>2026-03-24T09:30:52.004Z</time></trkpt><trkpt lat="29.95632221584062" lon="-5.810720380675837"><ele>581.4000000000001</ele><time>2026-03-24T09:30:53.004Z</time></trkpt><trkpt lat="29.956390300371044" lon="-5.810620234313913"><ele>581.2</ele><time>2026-03-24T09:30:54.004Z</time></trkpt><trkpt lat="29.956461026144186" lon="-5.810519700570535"><ele>581.0</ele><time>2026-03-24T09:30:55.004Z</time></trkpt><trkpt lat="29.956532568714234" lon="-5.810415592688735"><ele>581.0</ele><time>2026-03-24T09:30:56.005Z</time></trkpt><trkpt lat="29.956604327937814" lon="-5.810315953993053"><ele>581.0</ele><time>2026-03-24T09:30:57.004Z</time></trkpt><trkpt lat="29.956678037096793" lon="-5.810224388514875"><ele>581.0</ele><time>2026-03-24T09:30:58.004Z</time></trkpt><trkpt lat="29.956757208278415" lon="-5.81012545537789"><ele>581.0</ele><time>2026-03-24T09:30:59.004Z</time></trkpt><trkpt lat="29.956840686691066" lon="-5.810022751339479"><ele>581.0</ele><time>2026-03-24T09:31:00.004Z</time></trkpt><trkpt lat="29.95691768660223" lon="-5.809917118085783"><ele>581.0</ele><time>2026-03-24T09:31:01.004Z</time></trkpt><trkpt lat="29.956997201384265" lon="-5.809806825916183"><ele>581.0</ele><time>2026-03-24T09:31:02.005Z</time></trkpt><trkpt lat="29.957073904939133" lon="-5.8097009898540515"><ele>581.0</ele><time>2026-03-24T09:31:03.004Z</time></trkpt><trkpt lat="29.95715632187165" lon="-5.809593984558037"><ele>581.0</ele><time>2026-03-24T09:31:04.004Z</time></trkpt><trkpt lat="29.9572545552946" lon="-5.809477840177838"><ele>581.0</ele><time>2026-03-24T09:31:05.005Z</time></trkpt><trkpt lat="29.957344837362342" lon="-5.809344059370027"><ele>581.0</ele><time>2026-03-24T09:31:06.004Z</time></trkpt><trkpt lat="29.957443806292172" lon="-5.809203942290019"><ele>581.0</ele><time>2026-03-24T09:31:07.004Z</time></trkpt><trkpt lat="29.9575397908021" lon="-5.809070568102128"><ele>582.3333333333333</ele><time>2026-03-24T09:31:08.004Z</time></trkpt><trkpt lat="29.957636893930335" lon="-5.808932078076708"><ele>583.6666666666666</ele><time>2026-03-24T09:31:09.004Z</time></trkpt><trkpt lat="29.95773315585541" lon="-5.808797797465791"><ele>585.0</ele><time>2026-03-24T09:31:10.004Z</time></trkpt><trkpt lat="29.957836979268155" lon="-5.80865864997505"><ele>585.0</ele><time>2026-03-24T09:31:11.004Z</time></trkpt><trkpt lat="29.957937802562693" lon="-5.808517165217788"><ele>585.0</ele><time>2026-03-24T09:31:12.004Z</time></trkpt><trkpt lat="29.95802945191504" lon="-5.808384911546794"><ele>585.0</ele><time>2026-03-24T09:31:13.004Z</time></trkpt><trkpt lat="29.95812549748742" lon="-5.808245638485123"><ele>584.6666666666666</ele><time>2026-03-24T09:31:14.004Z</time></trkpt><trkpt lat="29.958230538095744" lon="-5.808098967134889"><ele>584.3333333333333</ele><time>2026-03-24T09:31:15.004Z</time></trkpt><trkpt lat="29.9583474190445" lon="-5.807956258924654"><ele>584.0</ele><time>2026-03-24T09:31:16.004Z</time></trkpt><trkpt lat="29.958457251500008" lon="-5.807808652590752"><ele>584.0</ele><time>2026-03-24T09:31:17.004Z</time></trkpt><trkpt lat="29.958563305801974" lon="-5.807662554406309"><ele>584.0</ele><time>2026-03-24T09:31:18.004Z</time></trkpt><trkpt lat="29.958671771496324" lon="-5.807522206338657"><ele>584.0</ele><time>2026-03-24T09:31:19.004Z</time></trkpt><trkpt lat="29.958779064153244" lon="-5.8073803707746405"><ele>583.6666666666666</ele><time>2026-03-24T09:31:20.004Z</time></trkpt><trkpt lat="29.95888704171857" lon="-5.807234669074594"><ele>583.3333333333334</ele><time>2026-03-24T09:31:21.004Z</time></trkpt><trkpt lat="29.958989579692958" lon="-5.8070916044750485"><ele>583.0</ele><time>2026-03-24T09:31:22.004Z</time></trkpt><trkpt lat="29.959095710893656" lon="-5.8069465447715585"><ele>582.6666666666667</ele><time>2026-03-24T09:31:23.004Z</time></trkpt><trkpt lat="29.9592000674967" lon="-5.806803689238058"><ele>582.3333333333334</ele><time>2026-03-24T09:31:24.004Z</time></trkpt><trkpt lat="29.95930941274485" lon="-5.8066560558527645"><ele>582.0</ele><time>2026-03-24T09:31:25.004Z</time></trkpt><trkpt lat="29.959421679284418" lon="-5.8065011681849095"><ele>582.0</ele><time>2026-03-24T09:31:26.004Z</time></trkpt><trkpt lat="29.959529738158743" lon="-5.80635022629868"><ele>582.0</ele><time>2026-03-24T09:31:27.004Z</time></trkpt><trkpt lat="29.959638566747675" lon="-5.806195989703207"><ele>582.0</ele><time>2026-03-24T09:31:28.004Z</time></trkpt><trkpt lat="29.95974742945464" lon="-5.806043978869613"><ele>582.3333333333334</ele><time>2026-03-24T09:31:29.004Z</time></trkpt><trkpt lat="29.95986020705456" lon="-5.805892562229959"><ele>582.6666666666667</ele><time>2026-03-24T09:31:30.004Z</time></trkpt><trkpt lat="29.95996662283226" lon="-5.80574361842553"><ele>583.0</ele><time>2026-03-24T09:31:31.004Z</time></trkpt><trkpt lat="29.960080322647475" lon="-5.805581232306421"><ele>583.0</ele><time>2026-03-24T09:31:32.004Z</time></trkpt><trkpt lat="29.96018890312266" lon="-5.805430139716811"><ele>583.0</ele><time>2026-03-24T09:31:33.004Z</time></trkpt><trkpt lat="29.96029735838568" lon="-5.805286775608373"><ele>583.0</ele><time>2026-03-24T09:31:34.004Z</time></trkpt><trkpt lat="29.96040009135456" lon="-5.80514831805311"><ele>582.3333333333334</ele><time>2026-03-24T09:31:35.004Z</time></trkpt><trkpt lat="29.960500708741943" lon="-5.805004417121964"><ele>581.6666666666666</ele><time>2026-03-24T09:31:36.004Z</time></trkpt><trkpt lat="29.960601800221774" lon="-5.804857265180721"><ele>581.0</ele><time>2026-03-24T09:31:37.004Z</time></trkpt><trkpt lat="29.96070646038545" lon="-5.804713830926441"><ele>581.0</ele><time>2026-03-24T09:31:38.004Z</time></trkpt><trkpt lat="29.96081559772975" lon="-5.804569254741133"><ele>581.0</ele><time>2026-03-24T09:31:39.004Z</time></trkpt><trkpt lat="29.960919572675056" lon="-5.8044246376116595"><ele>581.0</ele><time>2026-03-24T09:31:40.004Z</time></trkpt><trkpt lat="29.961016397973967" lon="-5.804287632243299"><ele>580.6666666666666</ele><time>2026-03-24T09:31:41.004Z</time></trkpt><trkpt lat="29.961119229739968" lon="-5.8041455492306"><ele>580.3333333333334</ele><time>2026-03-24T09:31:42.004Z</time></trkpt><trkpt lat="29.961221284417363" lon="-5.804009583436026"><ele>580.0</ele><time>2026-03-24T09:31:43.004Z</time></trkpt><trkpt lat="29.96132580966304" lon="-5.803883264005528"><ele>580.0</ele><time>2026-03-24T09:31:44.004Z</time></trkpt><trkpt lat="29.96141873687626" lon="-5.803758002020891"><ele>580.0</ele><time>2026-03-24T09:31:45.004Z</time></trkpt><trkpt lat="29.961497144238145" lon="-5.803648266768284"><ele>580.0</ele><time>2026-03-24T09:31:46.004Z</time></trkpt><trkpt lat="29.961570407981434" lon="-5.803539670406582"><ele>580.0</ele><time>2026-03-24T09:31:47.004Z</time></trkpt><trkpt lat="29.961646931239905" lon="-5.803417079803846"><ele>580.0</ele><time>2026-03-24T09:31:48.004Z</time></trkpt><trkpt lat="29.96169700341248" lon="-5.803275156533737"><ele>580.0</ele><time>2026-03-24T09:31:49.004Z</time></trkpt><trkpt lat="29.961726670644513" lon="-5.803098818935899"><ele>580.0</ele><time>2026-03-24T09:31:50.004Z</time></trkpt><trkpt lat="29.961763221007757" lon="-5.802930562436869"><ele>580.0</ele><time>2026-03-24T09:31:51.004Z</time></trkpt><trkpt lat="29.961806881623808" lon="-5.802760637376934"><ele>579.6666666666667</ele><time>2026-03-24T09:31:52.004Z</time></trkpt><trkpt lat="29.96187108305187" lon="-5.80258775026002"><ele>579.3333333333334</ele><time>2026-03-24T09:31:53.004Z</time></trkpt><trkpt lat="29.961930237195855" lon="-5.80242136298766"><ele>579.0</ele><time>2026-03-24T09:31:54.004Z</time></trkpt><trkpt lat="29.961989265000263" lon="-5.802239428217021"><ele>579.0</ele><time>2026-03-24T09:31:55.004Z</time></trkpt><trkpt lat="29.96205498364131" lon="-5.80206449803546"><ele>579.0</ele><time>2026-03-24T09:31:56.004Z</time></trkpt><trkpt lat="29.962116960693248" lon="-5.801885104695787"><ele>579.0</ele><time>2026-03-24T09:31:57.004Z</time></trkpt><trkpt lat="29.962175384314108" lon="-5.801709081801804"><ele>580.6666666666666</ele><time>2026-03-24T09:31:58.004Z</time></trkpt><trkpt lat="29.96222903162659" lon="-5.80153376358219"><ele>582.3333333333333</ele><time>2026-03-24T09:31:59.004Z</time></trkpt><trkpt lat="29.962283669073813" lon="-5.801355775542425"><ele>584.0</ele><time>2026-03-24T09:32:00.004Z</time></trkpt><trkpt lat="29.96235193498258" lon="-5.801164772927436"><ele>582.3333333333333</ele><time>2026-03-24T09:32:01.004Z</time></trkpt><trkpt lat="29.962421925002392" lon="-5.800979804704603"><ele>580.6666666666666</ele><time>2026-03-24T09:32:02.004Z</time></trkpt><trkpt lat="29.96248292402063" lon="-5.800793811044335"><ele>579.0</ele><time>2026-03-24T09:32:03.004Z</time></trkpt><trkpt lat="29.96254456849421" lon="-5.800609345232604"><ele>579.0</ele><time>2026-03-24T09:32:04.004Z</time></trkpt><trkpt lat="29.962607203684684" lon="-5.8004314401192945"><ele>579.0</ele><time>2026-03-24T09:32:05.004Z</time></trkpt><trkpt lat="29.9626650696457" lon="-5.800243267911943"><ele>579.0</ele><time>2026-03-24T09:32:06.004Z</time></trkpt><trkpt lat="29.962710269074645" lon="-5.80005868492987"><ele>579.6666666666666</ele><time>2026-03-24T09:32:07.004Z</time></trkpt><trkpt lat="29.96273770458227" lon="-5.799867498855479"><ele>580.3333333333333</ele><time>2026-03-24T09:32:08.004Z</time></trkpt><trkpt lat="29.962765076088104" lon="-5.799671484282175"><ele>581.0</ele><time>2026-03-24T09:32:09.004Z</time></trkpt><trkpt lat="29.962810802380396" lon="-5.799502109704062"><ele>581.0</ele><time>2026-03-24T09:32:10.004Z</time></trkpt><trkpt lat="29.96286306881884" lon="-5.799355121712714"><ele>581.0</ele><time>2026-03-24T09:32:11.004Z</time></trkpt><trkpt lat="29.96292265598281" lon="-5.799231128105028"><ele>581.0</ele><time>2026-03-24T09:32:12.004Z</time></trkpt><trkpt lat="29.96296930975729" lon="-5.799103254722"><ele>581.0</ele><time>2026-03-24T09:32:13.004Z</time></trkpt><trkpt lat="29.963016439387133" lon="-5.798948224717038"><ele>581.3333333333333</ele><time>2026-03-24T09:32:14.004Z</time></trkpt><trkpt lat="29.963069444196634" lon="-5.7987779257819785"><ele>581.6666666666666</ele><time>2026-03-24T09:32:15.004Z</time></trkpt><trkpt lat="29.963143522630755" lon="-5.798616222582359"><ele>582.0</ele><time>2026-03-24T09:32:16.004Z</time></trkpt><trkpt lat="29.96322449757296" lon="-5.798474424411111"><ele>581.5</ele><time>2026-03-24T09:32:17.004Z</time></trkpt><trkpt lat="29.963307121729837" lon="-5.798333615617414"><ele>581.0</ele><time>2026-03-24T09:32:18.004Z</time></trkpt><trkpt lat="29.963376064126468" lon="-5.798180804720583"><ele>580.5</ele><time>2026-03-24T09:32:19.004Z</time></trkpt><trkpt lat="29.96342976053861" lon="-5.7980204940714115"><ele>580.0</ele><time>2026-03-24T09:32:20.004Z</time></trkpt><trkpt lat="29.963489118865255" lon="-5.797850670478718"><ele>580.0</ele><time>2026-03-24T09:32:21.004Z</time></trkpt><trkpt lat="29.963550307340757" lon="-5.79767257566378"><ele>580.0</ele><time>2026-03-24T09:32:22.004Z</time></trkpt><trkpt lat="29.96361249676862" lon="-5.797495116611696"><ele>580.0</ele><time>2026-03-24T09:32:23.004Z</time></trkpt><trkpt lat="29.963672778573372" lon="-5.797327929760003"><ele>579.6666666666667</ele><time>2026-03-24T09:32:24.004Z</time></trkpt><trkpt lat="29.963732197895308" lon="-5.797145162118703"><ele>579.3333333333334</ele><time>2026-03-24T09:32:25.004Z</time></trkpt><trkpt lat="29.96379211124847" lon="-5.796964281065481"><ele>579.0</ele><time>2026-03-24T09:32:26.004Z</time></trkpt><trkpt lat="29.963850087746117" lon="-5.7967818940193325"><ele>579.0</ele><time>2026-03-24T09:32:27.004Z</time></trkpt><trkpt lat="29.963917802663435" lon="-5.796599180353981"><ele>579.0</ele><time>2026-03-24T09:32:28.004Z</time></trkpt><trkpt lat="29.963985999214724" lon="-5.796393456542725"><ele>579.0</ele><time>2026-03-24T09:32:29.004Z</time></trkpt><trkpt lat="29.96404425788651" lon="-5.796197865208739"><ele>578.6666666666666</ele><time>2026-03-24T09:32:30.004Z</time></trkpt><trkpt lat="29.964124387494714" lon="-5.795985547145976"><ele>578.3333333333333</ele><time>2026-03-24T09:32:31.004Z</time></trkpt><trkpt lat="29.96420999301753" lon="-5.79576583635777"><ele>578.0</ele><time>2026-03-24T09:32:32.004Z</time></trkpt><trkpt lat="29.964295804626786" lon="-5.79556684352492"><ele>578.0</ele><time>2026-03-24T09:32:33.004Z</time></trkpt><trkpt lat="29.9643781289711" lon="-5.795371290699134"><ele>578.0</ele><time>2026-03-24T09:32:34.004Z</time></trkpt><trkpt lat="29.96445017226137" lon="-5.795184618067098"><ele>578.0</ele><time>2026-03-24T09:32:35.004Z</time></trkpt><trkpt lat="29.96451061823092" lon="-5.795011469866076"><ele>578.0</ele><time>2026-03-24T09:32:36.004Z</time></trkpt><trkpt lat="29.964573425785122" lon="-5.794832538774929"><ele>578.0</ele><time>2026-03-24T09:32:37.004Z</time></trkpt><trkpt lat="29.964638887072105" lon="-5.794643393550802"><ele>578.0</ele><time>2026-03-24T09:32:38.004Z</time></trkpt><trkpt lat="29.964704514845636" lon="-5.794447741712269"><ele>578.3333333333333</ele><time>2026-03-24T09:32:39.004Z</time></trkpt><trkpt lat="29.964768458436755" lon="-5.794256329249731"><ele>578.6666666666666</ele><time>2026-03-24T09:32:40.004Z</time></trkpt><trkpt lat="29.96483410146784" lon="-5.7940708455007925"><ele>579.0</ele><time>2026-03-24T09:32:41.004Z</time></trkpt><trkpt lat="29.96490428475205" lon="-5.793880102444285"><ele>579.0</ele><time>2026-03-24T09:32:42.004Z</time></trkpt><trkpt lat="29.964974993464025" lon="-5.793686291112007"><ele>579.0</ele><time>2026-03-24T09:32:43.004Z</time></trkpt><trkpt lat="29.96504270680774" lon="-5.7934916975438355"><ele>579.0</ele><time>2026-03-24T09:32:44.004Z</time></trkpt><trkpt lat="29.96511194814392" lon="-5.79329543283908"><ele>578.3333333333334</ele><time>2026-03-24T09:32:45.004Z</time></trkpt><trkpt lat="29.965180673851467" lon="-5.793096965047216"><ele>577.6666666666667</ele><time>2026-03-24T09:32:46.004Z</time></trkpt><trkpt lat="29.965243573605946" lon="-5.792893701627452"><ele>577.0</ele><time>2026-03-24T09:32:47.004Z</time></trkpt><trkpt lat="29.965312314014085" lon="-5.7926994925811846"><ele>577.3333333333334</ele><time>2026-03-24T09:32:48.004Z</time></trkpt><trkpt lat="29.965385075829502" lon="-5.79250404148277"><ele>577.6666666666666</ele><time>2026-03-24T09:32:49.004Z</time></trkpt><trkpt lat="29.96546539824937" lon="-5.7923102650582345"><ele>578.0</ele><time>2026-03-24T09:32:50.004Z</time></trkpt><trkpt lat="29.96554196349682" lon="-5.79211635781282"><ele>578.0</ele><time>2026-03-24T09:32:51.004Z</time></trkpt><trkpt lat="29.965618871195982" lon="-5.791917652438546"><ele>578.0</ele><time>2026-03-24T09:32:52.004Z</time></trkpt><trkpt lat="29.96569393391732" lon="-5.791727882124149"><ele>578.0</ele><time>2026-03-24T09:32:53.004Z</time></trkpt><trkpt lat="29.965773283686122" lon="-5.7915307097176125"><ele>578.3333333333333</ele><time>2026-03-24T09:32:54.004Z</time></trkpt><trkpt lat="29.96585374143666" lon="-5.7913370988426065"><ele>578.6666666666666</ele><time>2026-03-24T09:32:55.004Z</time></trkpt><trkpt lat="29.965940834708107" lon="-5.791139717876906"><ele>579.0</ele><time>2026-03-24T09:32:56.004Z</time></trkpt><trkpt lat="29.966032420924343" lon="-5.790945068345706"><ele>579.6666666666666</ele><time>2026-03-24T09:32:57.004Z</time></trkpt><trkpt lat="29.966128316578462" lon="-5.790746557326292"><ele>580.3333333333333</ele><time>2026-03-24T09:32:58.004Z</time></trkpt><trkpt lat="29.966228445834986" lon="-5.790554421596871"><ele>581.0</ele><time>2026-03-24T09:32:59.004Z</time></trkpt><trkpt lat="29.96632772818983" lon="-5.79037247968072"><ele>581.0</ele><time>2026-03-24T09:33:00.004Z</time></trkpt><trkpt lat="29.96642078505722" lon="-5.790193712844787"><ele>581.0</ele><time>2026-03-24T09:33:01.004Z</time></trkpt><trkpt lat="29.966513468982146" lon="-5.79001257602069"><ele>581.0</ele><time>2026-03-24T09:33:02.005Z</time></trkpt><trkpt lat="29.966612291507765" lon="-5.789831918780435"><ele>580.6666666666666</ele><time>2026-03-24T09:33:03.004Z</time></trkpt><trkpt lat="29.966712783103528" lon="-5.789654180028889"><ele>580.3333333333334</ele><time>2026-03-24T09:33:04.004Z</time></trkpt><trkpt lat="29.96680801321175" lon="-5.789474410341268"><ele>580.0</ele><time>2026-03-24T09:33:05.004Z</time></trkpt><trkpt lat="29.966905187941318" lon="-5.78929045848403"><ele>580.0</ele><time>2026-03-24T09:33:06.004Z</time></trkpt><trkpt lat="29.967005402623492" lon="-5.789102806612265"><ele>580.0</ele><time>2026-03-24T09:33:07.004Z</time></trkpt><trkpt lat="29.967099682698585" lon="-5.788925613625365"><ele>580.0</ele><time>2026-03-24T09:33:08.005Z</time></trkpt><trkpt lat="29.967196947303798" lon="-5.788742990219864"><ele>580.0</ele><time>2026-03-24T09:33:09.005Z</time></trkpt><trkpt lat="29.967291738777345" lon="-5.7885603331290625"><ele>580.0</ele><time>2026-03-24T09:33:10.005Z</time></trkpt><trkpt lat="29.967374967091718" lon="-5.788382702687111"><ele>580.0</ele><time>2026-03-24T09:33:11.004Z</time></trkpt><trkpt lat="29.967461008457494" lon="-5.7882112185374694"><ele>580.0</ele><time>2026-03-24T09:33:12.004Z</time></trkpt><trkpt lat="29.96755076162769" lon="-5.788038952301275"><ele>580.0</ele><time>2026-03-24T09:33:13.004Z</time></trkpt><trkpt lat="29.967633656256407" lon="-5.787865396116124"><ele>580.0</ele><time>2026-03-24T09:33:14.004Z</time></trkpt><trkpt lat="29.967713813603943" lon="-5.787676083321976"><ele>580.6666666666667</ele><time>2026-03-24T09:33:15.004Z</time></trkpt><trkpt lat="29.96779371164698" lon="-5.787485692226084"><ele>581.3333333333334</ele><time>2026-03-24T09:33:16.004Z</time></trkpt><trkpt lat="29.967858597051503" lon="-5.787314709652819"><ele>582.0</ele><time>2026-03-24T09:33:17.004Z</time></trkpt><trkpt lat="29.96791622031543" lon="-5.787144473118375"><ele>582.0</ele><time>2026-03-24T09:33:18.004Z</time></trkpt><trkpt lat="29.967974688886642" lon="-5.78696071667936"><ele>582.0</ele><time>2026-03-24T09:33:19.004Z</time></trkpt><trkpt lat="29.968038619561934" lon="-5.786769771161638"><ele>582.0</ele><time>2026-03-24T09:33:20.004Z</time></trkpt><trkpt lat="29.968107813259888" lon="-5.786575159561379"><ele>582.0</ele><time>2026-03-24T09:33:21.004Z</time></trkpt><trkpt lat="29.968183837834115" lon="-5.786367091700326"><ele>582.0</ele><time>2026-03-24T09:33:22.004Z</time></trkpt><trkpt lat="29.96825780808388" lon="-5.786156663547873"><ele>582.0</ele><time>2026-03-24T09:33:23.004Z</time></trkpt><trkpt lat="29.968330606192634" lon="-5.785946801748597"><ele>581.6666666666666</ele><time>2026-03-24T09:33:24.004Z</time></trkpt><trkpt lat="29.96840073704705" lon="-5.785743501785401"><ele>581.3333333333333</ele><time>2026-03-24T09:33:25.004Z</time></trkpt><trkpt lat="29.968467425325723" lon="-5.785551868200227"><ele>581.0</ele><time>2026-03-24T09:33:26.004Z</time></trkpt><trkpt lat="29.968542027922986" lon="-5.785351120692237"><ele>581.3333333333333</ele><time>2026-03-24T09:33:27.004Z</time></trkpt><trkpt lat="29.968610000518666" lon="-5.785138602458324"><ele>581.6666666666666</ele><time>2026-03-24T09:33:28.004Z</time></trkpt><trkpt lat="29.968681371065756" lon="-5.784929225811023"><ele>582.0</ele><time>2026-03-24T09:33:29.004Z</time></trkpt><trkpt lat="29.9687588057386" lon="-5.7847233549222254"><ele>582.0</ele><time>2026-03-24T09:33:30.004Z</time></trkpt><trkpt lat="29.96882904604933" lon="-5.784526548012919"><ele>582.0</ele><time>2026-03-24T09:33:31.004Z</time></trkpt><trkpt lat="29.968904609331027" lon="-5.784325575966907"><ele>582.0</ele><time>2026-03-24T09:33:32.004Z</time></trkpt><trkpt lat="29.968966953640038" lon="-5.784129585864473"><ele>582.0</ele><time>2026-03-24T09:33:33.004Z</time></trkpt><trkpt lat="29.969032197344557" lon="-5.783932427374747"><ele>582.0</ele><time>2026-03-24T09:33:34.004Z</time></trkpt><trkpt lat="29.9690994646702" lon="-5.783738143862072"><ele>582.0</ele><time>2026-03-24T09:33:35.004Z</time></trkpt><trkpt lat="29.969163434163548" lon="-5.783551274579991"><ele>582.0</ele><time>2026-03-24T09:33:36.004Z</time></trkpt><trkpt lat="29.969222896837582" lon="-5.783365397570802"><ele>582.0</ele><time>2026-03-24T09:33:37.004Z</time></trkpt><trkpt lat="29.969284332174706" lon="-5.783175433936276"><ele>582.0</ele><time>2026-03-24T09:33:38.004Z</time></trkpt><trkpt lat="29.969340936446564" lon="-5.782999422072712"><ele>582.0</ele><time>2026-03-24T09:33:39.004Z</time></trkpt><trkpt lat="29.969397676142364" lon="-5.782819020869442"><ele>582.0</ele><time>2026-03-24T09:33:40.004Z</time></trkpt><trkpt lat="29.969453751617962" lon="-5.782646009990363"><ele>582.0</ele><time>2026-03-24T09:33:41.004Z</time></trkpt><trkpt lat="29.969516370613917" lon="-5.782464678084399"><ele>581.6666666666666</ele><time>2026-03-24T09:33:42.004Z</time></trkpt><trkpt lat="29.969581363390667" lon="-5.782277460586363"><ele>581.3333333333333</ele><time>2026-03-24T09:33:43.004Z</time></trkpt><trkpt lat="29.96964622403976" lon="-5.782088879610157"><ele>581.0</ele><time>2026-03-24T09:33:44.004Z</time></trkpt><trkpt lat="29.969711272174663" lon="-5.781899520806014"><ele>580.3333333333333</ele><time>2026-03-24T09:33:45.004Z</time></trkpt><trkpt lat="29.969776701161916" lon="-5.781732253294179"><ele>579.6666666666666</ele><time>2026-03-24T09:33:46.004Z</time></trkpt><trkpt lat="29.969843129902106" lon="-5.781572803737869"><ele>579.0</ele><time>2026-03-24T09:33:47.004Z</time></trkpt><trkpt lat="29.969906962390706" lon="-5.781414423883232"><ele>579.0</ele><time>2026-03-24T09:33:48.004Z</time></trkpt><trkpt lat="29.96998243742987" lon="-5.781240504384896"><ele>579.0</ele><time>2026-03-24T09:33:49.004Z</time></trkpt><trkpt lat="29.97005515660909" lon="-5.7810782121938695"><ele>579.0</ele><time>2026-03-24T09:33:50.004Z</time></trkpt><trkpt lat="29.970136258887372" lon="-5.780907227398011"><ele>578.6666666666666</ele><time>2026-03-24T09:33:51.004Z</time></trkpt><trkpt lat="29.970224204923934" lon="-5.780732243401728"><ele>578.3333333333333</ele><time>2026-03-24T09:33:52.004Z</time></trkpt><trkpt lat="29.970311997557715" lon="-5.780560079964016"><ele>578.0</ele><time>2026-03-24T09:33:53.004Z</time></trkpt><trkpt lat="29.970404402152973" lon="-5.780382264634098"><ele>578.0</ele><time>2026-03-24T09:33:54.004Z</time></trkpt><trkpt lat="29.970485992824464" lon="-5.780208556790319"><ele>578.0</ele><time>2026-03-24T09:33:55.004Z</time></trkpt><trkpt lat="29.970560663460603" lon="-5.780041816291505"><ele>578.0</ele><time>2026-03-24T09:33:56.004Z</time></trkpt><trkpt lat="29.970623283222015" lon="-5.779884225316205"><ele>578.0</ele><time>2026-03-24T09:33:57.004Z</time></trkpt><trkpt lat="29.97068954361527" lon="-5.77973068510737"><ele>578.0</ele><time>2026-03-24T09:33:58.004Z</time></trkpt><trkpt lat="29.970756414170772" lon="-5.77959307971098"><ele>578.0</ele><time>2026-03-24T09:33:59.004Z</time></trkpt><trkpt lat="29.970832231163936" lon="-5.779457516124405"><ele>578.0</ele><time>2026-03-24T09:34:00.004Z</time></trkpt><trkpt lat="29.970901835516067" lon="-5.779324513984551"><ele>578.0</ele><time>2026-03-24T09:34:01.004Z</time></trkpt><trkpt lat="29.97096867499179" lon="-5.779206750564509"><ele>578.0</ele><time>2026-03-24T09:34:02.004Z</time></trkpt><trkpt lat="29.971038929135688" lon="-5.779096538299145"><ele>578.0</ele><time>2026-03-24T09:34:03.004Z</time></trkpt><trkpt lat="29.97111271479463" lon="-5.778980571869062"><ele>578.0</ele><time>2026-03-24T09:34:04.004Z</time></trkpt><trkpt lat="29.971192259211044" lon="-5.778862120524002"><ele>578.0</ele><time>2026-03-24T09:34:05.004Z</time></trkpt><trkpt lat="29.9712782773583" lon="-5.778729476266989"><ele>578.0</ele><time>2026-03-24T09:34:06.004Z</time></trkpt><trkpt lat="29.971356531940085" lon="-5.778593606115721"><ele>578.0</ele><time>2026-03-24T09:34:07.004Z</time></trkpt><trkpt lat="29.9714187050471" lon="-5.778463834952864"><ele>578.0</ele><time>2026-03-24T09:34:08.004Z</time></trkpt><trkpt lat="29.971474980672628" lon="-5.778316636301989"><ele>578.0</ele><time>2026-03-24T09:34:09.004Z</time></trkpt><trkpt lat="29.971533853735007" lon="-5.778152606189089"><ele>578.0</ele><time>2026-03-24T09:34:10.004Z</time></trkpt><trkpt lat="29.971585447581823" lon="-5.777995664901034"><ele>578.0</ele><time>2026-03-24T09:34:11.004Z</time></trkpt><trkpt lat="29.97164234423886" lon="-5.777857800820326"><ele>578.0</ele><time>2026-03-24T09:34:12.004Z</time></trkpt><trkpt lat="29.971702724237293" lon="-5.777740384391182"><ele>578.0</ele><time>2026-03-24T09:34:13.004Z</time></trkpt><trkpt lat="29.971759490362142" lon="-5.777610170342272"><ele>578.0</ele><time>2026-03-24T09:34:14.004Z</time></trkpt><trkpt lat="29.97182442492931" lon="-5.777463921860471"><ele>578.0</ele><time>2026-03-24T09:34:15.004Z</time></trkpt><trkpt lat="29.97189417326051" lon="-5.777310509606269"><ele>578.0</ele><time>2026-03-24T09:34:16.004Z</time></trkpt><trkpt lat="29.971967942183724" lon="-5.7771754111118145"><ele>578.0</ele><time>2026-03-24T09:34:17.004Z</time></trkpt><trkpt lat="29.972038980159937" lon="-5.777050095302892"><ele>578.0</ele><time>2026-03-24T09:34:18.004Z</time></trkpt><trkpt lat="29.972108143029228" lon="-5.776933689009657"><ele>578.0</ele><time>2026-03-24T09:34:19.004Z</time></trkpt><trkpt lat="29.972171922509194" lon="-5.776801295923803"><ele>578.0</ele><time>2026-03-24T09:34:20.004Z</time></trkpt><trkpt lat="29.972248049043227" lon="-5.776662098955301"><ele>577.6666666666666</ele><time>2026-03-24T09:34:21.004Z</time></trkpt><trkpt lat="29.972332052733226" lon="-5.776513273311546"><ele>577.3333333333334</ele><time>2026-03-24T09:34:22.004Z</time></trkpt><trkpt lat="29.9724192708337" lon="-5.776364060883455"><ele>577.0</ele><time>2026-03-24T09:34:23.004Z</time></trkpt><trkpt lat="29.972504787601032" lon="-5.776210163022997"><ele>577.0</ele><time>2026-03-24T09:34:24.004Z</time></trkpt><trkpt lat="29.972582333033426" lon="-5.776052095874594"><ele>577.0</ele><time>2026-03-24T09:34:25.004Z</time></trkpt><trkpt lat="29.97265346930059" lon="-5.775905944577937"><ele>577.0</ele><time>2026-03-24T09:34:26.004Z</time></trkpt><trkpt lat="29.9727215004002" lon="-5.775768702308129"><ele>577.0</ele><time>2026-03-24T09:34:27.004Z</time></trkpt><trkpt lat="29.972792489772377" lon="-5.775631871974862"><ele>577.0</ele><time>2026-03-24T09:34:28.004Z</time></trkpt><trkpt lat="29.972863254359567" lon="-5.7754877804935125"><ele>577.0</ele><time>2026-03-24T09:34:29.004Z</time></trkpt><trkpt lat="29.97293667850999" lon="-5.7753321050638915"><ele>577.0</ele><time>2026-03-24T09:34:30.004Z</time></trkpt><trkpt lat="29.973016656440816" lon="-5.7751768876114085"><ele>576.3333333333334</ele><time>2026-03-24T09:34:31.004Z</time></trkpt><trkpt lat="29.973096327749605" lon="-5.775013880116794"><ele>575.6666666666666</ele><time>2026-03-24T09:34:32.004Z</time></trkpt><trkpt lat="29.97317866467646" lon="-5.774846814643414"><ele>575.0</ele><time>2026-03-24T09:34:33.004Z</time></trkpt><trkpt lat="29.973261613103528" lon="-5.774670210225408"><ele>575.0</ele><time>2026-03-24T09:34:34.004Z</time></trkpt><trkpt lat="29.973342855077128" lon="-5.774499992270814"><ele>575.0</ele><time>2026-03-24T09:34:35.004Z</time></trkpt><trkpt lat="29.97342840336669" lon="-5.774324120644065"><ele>575.0</ele><time>2026-03-24T09:34:36.004Z</time></trkpt><trkpt lat="29.9735101175473" lon="-5.774157185920107"><ele>575.0</ele><time>2026-03-24T09:34:37.004Z</time></trkpt><trkpt lat="29.973592024332202" lon="-5.773990107342967"><ele>575.0</ele><time>2026-03-24T09:34:38.004Z</time></trkpt><trkpt lat="29.973675248991455" lon="-5.773821002856401"><ele>575.0</ele><time>2026-03-24T09:34:39.004Z</time></trkpt><trkpt lat="29.973759464026273" lon="-5.773653196255894"><ele>574.6666666666666</ele><time>2026-03-24T09:34:40.004Z</time></trkpt><trkpt lat="29.973844125681445" lon="-5.773483997789878"><ele>574.3333333333334</ele><time>2026-03-24T09:34:41.004Z</time></trkpt><trkpt lat="29.973928852608058" lon="-5.773319529417383"><ele>574.0</ele><time>2026-03-24T09:34:42.004Z</time></trkpt><trkpt lat="29.9740200076636" lon="-5.773164667791754"><ele>574.0</ele><time>2026-03-24T09:34:43.004Z</time></trkpt><trkpt lat="29.974146194270006" lon="-5.773033816933723"><ele>574.0</ele><time>2026-03-24T09:34:44.004Z</time></trkpt><trkpt lat="29.97425744201497" lon="-5.772902363627576"><ele>574.0</ele><time>2026-03-24T09:34:45.004Z</time></trkpt><trkpt lat="29.97436782814936" lon="-5.772795749110603"><ele>574.0</ele><time>2026-03-24T09:34:46.004Z</time></trkpt><trkpt lat="29.974461637999422" lon="-5.772700617968694"><ele>574.0</ele><time>2026-03-24T09:34:47.004Z</time></trkpt><trkpt lat="29.974583952323403" lon="-5.772680898331223"><ele>574.0</ele><time>2026-03-24T09:34:48.004Z</time></trkpt><trkpt lat="29.974703891739924" lon="-5.772630693363455"><ele>574.0</ele><time>2026-03-24T09:34:49.004Z</time></trkpt><trkpt lat="29.974820221607164" lon="-5.772573135679917"><ele>574.0</ele><time>2026-03-24T09:34:50.004Z</time></trkpt><trkpt lat="29.974918698430017" lon="-5.772545045892839"><ele>574.0</ele><time>2026-03-24T09:34:51.004Z</time></trkpt><trkpt lat="29.975011239611543" lon="-5.772513153257789"><ele>574.0</ele><time>2026-03-24T09:34:52.004Z</time></trkpt><trkpt lat="29.97508316732499" lon="-5.772480781470409"><ele>574.0</ele><time>2026-03-24T09:34:53.004Z</time></trkpt><trkpt lat="29.97514483886522" lon="-5.772453470848131"><ele>574.0</ele><time>2026-03-24T09:34:54.004Z</time></trkpt><trkpt lat="29.975256813985034" lon="-5.772380005991133"><ele>574.4</ele><time>2026-03-24T09:34:56.004Z</time></trkpt><trkpt lat="29.975321949939897" lon="-5.772315836007523"><ele>574.8</ele><time>2026-03-24T09:34:57.004Z</time></trkpt><trkpt lat="29.975383380362832" lon="-5.7722342223803444"><ele>575.2</ele><time>2026-03-24T09:34:58.004Z</time></trkpt><trkpt lat="29.975460796956796" lon="-5.7721386115270645"><ele>575.6</ele><time>2026-03-24T09:34:59.004Z</time></trkpt><trkpt lat="29.975525531459315" lon="-5.772058087431292"><ele>576.0</ele><time>2026-03-24T09:35:00.004Z</time></trkpt><trkpt lat="29.975608928663863" lon="-5.772014656296167"><ele>576.0</ele><time>2026-03-24T09:35:01.004Z</time></trkpt><trkpt lat="29.97568326657711" lon="-5.771984113912955"><ele>576.0</ele><time>2026-03-24T09:35:02.004Z</time></trkpt><trkpt lat="29.975744008663867" lon="-5.771964921431312"><ele>576.0</ele><time>2026-03-24T09:35:03.004Z</time></trkpt><trkpt lat="29.975805003960797" lon="-5.771944653835733"><ele>576.0</ele><time>2026-03-24T09:35:04.004Z</time></trkpt><trkpt lat="29.975881439658764" lon="-5.771913866807098"><ele>576.0</ele><time>2026-03-24T09:35:05.004Z</time></trkpt><trkpt lat="29.975969977544658" lon="-5.771880258347282"><ele>576.0</ele><time>2026-03-24T09:35:06.004Z</time></trkpt><trkpt lat="29.97606087469508" lon="-5.771847149735071"><ele>577.0</ele><time>2026-03-24T09:35:07.004Z</time></trkpt><trkpt lat="29.976163937851428" lon="-5.77181518598431"><ele>578.0</ele><time>2026-03-24T09:35:08.004Z</time></trkpt><trkpt lat="29.976288180688684" lon="-5.771791415222297"><ele>579.0</ele><time>2026-03-24T09:35:09.005Z</time></trkpt><trkpt lat="29.97642689997268" lon="-5.7717591494501725"><ele>580.0</ele><time>2026-03-24T09:35:10.005Z</time></trkpt><trkpt lat="29.976579086694773" lon="-5.771725088705941"><ele>581.0</ele><time>2026-03-24T09:35:11.004Z</time></trkpt><trkpt lat="29.97674081316558" lon="-5.771684687767428"><ele>582.0</ele><time>2026-03-24T09:35:12.005Z</time></trkpt><trkpt lat="29.976912439297667" lon="-5.771640153808527"><ele>583.0</ele><time>2026-03-24T09:35:13.005Z</time></trkpt><trkpt lat="29.977069231664384" lon="-5.771598922045188"><ele>583.0</ele><time>2026-03-24T09:35:14.005Z</time></trkpt><trkpt lat="29.977198001414475" lon="-5.771566637921821"><ele>583.0</ele><time>2026-03-24T09:35:15.005Z</time></trkpt><trkpt lat="29.97732669063051" lon="-5.771529050182886"><ele>583.0</ele><time>2026-03-24T09:35:16.005Z</time></trkpt><trkpt lat="29.977464476687654" lon="-5.771492254314354"><ele>583.0</ele><time>2026-03-24T09:35:17.005Z</time></trkpt><trkpt lat="29.97760338865398" lon="-5.7714531683098205"><ele>582.5</ele><time>2026-03-24T09:35:18.004Z</time></trkpt><trkpt lat="29.977746507797455" lon="-5.771411228666997"><ele>582.0</ele><time>2026-03-24T09:35:19.004Z</time></trkpt><trkpt lat="29.977891423837765" lon="-5.771362375746465"><ele>581.5</ele><time>2026-03-24T09:35:20.005Z</time></trkpt><trkpt lat="29.978034205171074" lon="-5.771318497419601"><ele>581.0</ele><time>2026-03-24T09:35:21.004Z</time></trkpt><trkpt lat="29.97818014862443" lon="-5.771280973840771"><ele>581.0</ele><time>2026-03-24T09:35:22.004Z</time></trkpt><trkpt lat="29.978340883610546" lon="-5.771232991903006"><ele>581.0</ele><time>2026-03-24T09:35:23.004Z</time></trkpt><trkpt lat="29.978506234271784" lon="-5.771184330305663"><ele>581.0</ele><time>2026-03-24T09:35:24.004Z</time></trkpt><trkpt lat="29.97867563180125" lon="-5.771134460227512"><ele>579.6666666666666</ele><time>2026-03-24T09:35:25.004Z</time></trkpt><trkpt lat="29.97884279572381" lon="-5.771087814183872"><ele>578.3333333333334</ele><time>2026-03-24T09:35:26.004Z</time></trkpt><trkpt lat="29.979000532063264" lon="-5.771040558290581"><ele>577.0</ele><time>2026-03-24T09:35:27.004Z</time></trkpt><trkpt lat="29.97916221330219" lon="-5.770998551705237"><ele>577.0</ele><time>2026-03-24T09:35:28.004Z</time></trkpt><trkpt lat="29.97933670491045" lon="-5.770948688091825"><ele>577.0</ele><time>2026-03-24T09:35:29.004Z</time></trkpt><trkpt lat="29.979513441857872" lon="-5.7709048980904205"><ele>577.0</ele><time>2026-03-24T09:35:30.004Z</time></trkpt><trkpt lat="29.979717870432932" lon="-5.770850310240363"><ele>577.0</ele><time>2026-03-24T09:35:31.004Z</time></trkpt><trkpt lat="29.97992996228459" lon="-5.770798916846122"><ele>577.0</ele><time>2026-03-24T09:35:32.004Z</time></trkpt><trkpt lat="29.980126731151955" lon="-5.770739496424849"><ele>577.0</ele><time>2026-03-24T09:35:33.004Z</time></trkpt><trkpt lat="29.98033053888096" lon="-5.77068758887271"><ele>578.0</ele><time>2026-03-24T09:35:34.004Z</time></trkpt><trkpt lat="29.98052787996106" lon="-5.7706328021829405"><ele>579.0</ele><time>2026-03-24T09:35:35.004Z</time></trkpt><trkpt lat="29.980728933383226" lon="-5.770580168735887"><ele>580.0</ele><time>2026-03-24T09:35:36.004Z</time></trkpt><trkpt lat="29.980931051095297" lon="-5.770530013383787"><ele>580.3333333333334</ele><time>2026-03-24T09:35:37.004Z</time></trkpt><trkpt lat="29.98113223745843" lon="-5.7704699864740086"><ele>580.6666666666666</ele><time>2026-03-24T09:35:38.004Z</time></trkpt><trkpt lat="29.981330294034404" lon="-5.770411610092306"><ele>581.0</ele><time>2026-03-24T09:35:39.004Z</time></trkpt><trkpt lat="29.98152512218681" lon="-5.770355842162162"><ele>579.6666666666666</ele><time>2026-03-24T09:35:40.004Z</time></trkpt><trkpt lat="29.98169727848347" lon="-5.770305816094736"><ele>578.3333333333334</ele><time>2026-03-24T09:35:41.004Z</time></trkpt><trkpt lat="29.981853987888424" lon="-5.770261869537891"><ele>577.0</ele><time>2026-03-24T09:35:42.004Z</time></trkpt><trkpt lat="29.98199439271071" lon="-5.770220807493745"><ele>578.3333333333334</ele><time>2026-03-24T09:35:43.004Z</time></trkpt><trkpt lat="29.982155101420474" lon="-5.770185662232927"><ele>579.6666666666666</ele><time>2026-03-24T09:35:44.004Z</time></trkpt><trkpt lat="29.98230733102182" lon="-5.770141854283056"><ele>581.0</ele><time>2026-03-24T09:35:45.004Z</time></trkpt><trkpt lat="29.982467110819663" lon="-5.770108261494158"><ele>579.6666666666666</ele><time>2026-03-24T09:35:46.004Z</time></trkpt><trkpt lat="29.982627976622393" lon="-5.770078548178305"><ele>578.3333333333334</ele><time>2026-03-24T09:35:47.004Z</time></trkpt><trkpt lat="29.982786673467345" lon="-5.770051961247084"><ele>577.0</ele><time>2026-03-24T09:35:48.004Z</time></trkpt><trkpt lat="29.9829468302206" lon="-5.770026306722544"><ele>577.0</ele><time>2026-03-24T09:35:49.004Z</time></trkpt><trkpt lat="29.98311358839032" lon="-5.769993770533834"><ele>577.0</ele><time>2026-03-24T09:35:50.004Z</time></trkpt><trkpt lat="29.98328102814342" lon="-5.769960388577466"><ele>577.0</ele><time>2026-03-24T09:35:51.004Z</time></trkpt><trkpt lat="29.98344945159031" lon="-5.769925747083815"><ele>578.0</ele><time>2026-03-24T09:35:52.004Z</time></trkpt><trkpt lat="29.983618367918293" lon="-5.76989162350309"><ele>579.0</ele><time>2026-03-24T09:35:53.004Z</time></trkpt><trkpt lat="29.983785909229038" lon="-5.769862158387185"><ele>580.0</ele><time>2026-03-24T09:35:54.004Z</time></trkpt><trkpt lat="29.98395016228577" lon="-5.769830836397843"><ele>580.0</ele><time>2026-03-24T09:35:55.004Z</time></trkpt><trkpt lat="29.98410987340193" lon="-5.769799039589349"><ele>580.0</ele><time>2026-03-24T09:35:56.004Z</time></trkpt><trkpt lat="29.984268436254705" lon="-5.769769639357043"><ele>580.0</ele><time>2026-03-24T09:35:57.004Z</time></trkpt><trkpt lat="29.984438708765808" lon="-5.769746705052031"><ele>580.6666666666667</ele><time>2026-03-24T09:35:58.004Z</time></trkpt><trkpt lat="29.984611720001915" lon="-5.769725886598138"><ele>581.3333333333334</ele><time>2026-03-24T09:35:59.004Z</time></trkpt><trkpt lat="29.984783418915978" lon="-5.7697131172136595"><ele>582.0</ele><time>2026-03-24T09:36:00.004Z</time></trkpt><trkpt lat="29.98495859763392" lon="-5.769680144926445"><ele>582.0</ele><time>2026-03-24T09:36:01.004Z</time></trkpt><trkpt lat="29.98513811624832" lon="-5.769670856385443"><ele>582.0</ele><time>2026-03-24T09:36:02.004Z</time></trkpt><trkpt lat="29.985308867676526" lon="-5.7696693185958905"><ele>582.0</ele><time>2026-03-24T09:36:03.004Z</time></trkpt><trkpt lat="29.98547246675305" lon="-5.76965630048019"><ele>582.0</ele><time>2026-03-24T09:36:04.004Z</time></trkpt><trkpt lat="29.985638903805604" lon="-5.769637204174491"><ele>582.0</ele><time>2026-03-24T09:36:05.004Z</time></trkpt><trkpt lat="29.985798068249597" lon="-5.7696084926931235"><ele>582.0</ele><time>2026-03-24T09:36:06.004Z</time></trkpt><trkpt lat="29.985953468792474" lon="-5.769574642528274"><ele>580.3333333333334</ele><time>2026-03-24T09:36:07.004Z</time></trkpt><trkpt lat="29.98610883507773" lon="-5.769524178569586"><ele>578.6666666666667</ele><time>2026-03-24T09:36:08.004Z</time></trkpt><trkpt lat="29.98626533709565" lon="-5.769496159089989"><ele>577.0</ele><time>2026-03-24T09:36:09.004Z</time></trkpt><trkpt lat="29.986434902425295" lon="-5.76945141615549"><ele>577.0</ele><time>2026-03-24T09:36:10.004Z</time></trkpt><trkpt lat="29.986601151260864" lon="-5.769425649439425"><ele>577.0</ele><time>2026-03-24T09:36:11.004Z</time></trkpt><trkpt lat="29.986764930413038" lon="-5.769410510656356"><ele>577.0</ele><time>2026-03-24T09:36:12.004Z</time></trkpt><trkpt lat="29.986938088773538" lon="-5.769391766979853"><ele>579.0</ele><time>2026-03-24T09:36:13.004Z</time></trkpt><trkpt lat="29.98711643548212" lon="-5.7693802853173946"><ele>581.0</ele><time>2026-03-24T09:36:14.004Z</time></trkpt><trkpt lat="29.987296856118842" lon="-5.769371129255094"><ele>583.0</ele><time>2026-03-24T09:36:15.004Z</time></trkpt><trkpt lat="29.98748158959554" lon="-5.769362878735625"><ele>583.0</ele><time>2026-03-24T09:36:16.004Z</time></trkpt><trkpt lat="29.987668668108203" lon="-5.769358164843699"><ele>583.0</ele><time>2026-03-24T09:36:17.004Z</time></trkpt><trkpt lat="29.987849611088556" lon="-5.769365907616075"><ele>583.0</ele><time>2026-03-24T09:36:18.004Z</time></trkpt><trkpt lat="29.988044980390193" lon="-5.769360322995203"><ele>583.0</ele><time>2026-03-24T09:36:19.004Z</time></trkpt><trkpt lat="29.988232878844208" lon="-5.769345985611836"><ele>583.0</ele><time>2026-03-24T09:36:20.004Z</time></trkpt><trkpt lat="29.988431374757486" lon="-5.769300494282755"><ele>583.0</ele><time>2026-03-24T09:36:21.004Z</time></trkpt><trkpt lat="29.98861204483446" lon="-5.76928042684725"><ele>583.0</ele><time>2026-03-24T09:36:22.004Z</time></trkpt><trkpt lat="29.988798154611242" lon="-5.769256879786737"><ele>583.0</ele><time>2026-03-24T09:36:23.004Z</time></trkpt><trkpt lat="29.988974021607262" lon="-5.769226994155034"><ele>583.0</ele><time>2026-03-24T09:36:24.004Z</time></trkpt><trkpt lat="29.989157220118248" lon="-5.769213741050166"><ele>583.0</ele><time>2026-03-24T09:36:25.004Z</time></trkpt><trkpt lat="29.98931584143022" lon="-5.769180713840687"><ele>583.0</ele><time>2026-03-24T09:36:26.004Z</time></trkpt><trkpt lat="29.989471837055447" lon="-5.769148961529897"><ele>583.0</ele><time>2026-03-24T09:36:27.004Z</time></trkpt><trkpt lat="29.98963743113574" lon="-5.769118613395724"><ele>583.0</ele><time>2026-03-24T09:36:28.004Z</time></trkpt><trkpt lat="29.98979314667736" lon="-5.769080828365232"><ele>583.0</ele><time>2026-03-24T09:36:29.004Z</time></trkpt><trkpt lat="29.98994672709409" lon="-5.769052659980472"><ele>583.0</ele><time>2026-03-24T09:36:30.004Z</time></trkpt><trkpt lat="29.990100305121633" lon="-5.7690233108708595"><ele>584.3333333333334</ele><time>2026-03-24T09:36:31.004Z</time></trkpt><trkpt lat="29.990256270633136" lon="-5.768974448110789"><ele>585.6666666666666</ele><time>2026-03-24T09:36:32.004Z</time></trkpt><trkpt lat="29.99042367326108" lon="-5.768934327973618"><ele>587.0</ele><time>2026-03-24T09:36:33.004Z</time></trkpt><trkpt lat="29.990592511446714" lon="-5.768888338203105"><ele>587.0</ele><time>2026-03-24T09:36:34.004Z</time></trkpt><trkpt lat="29.990760067552102" lon="-5.76884191935004"><ele>587.0</ele><time>2026-03-24T09:36:35.004Z</time></trkpt><trkpt lat="29.990921986198785" lon="-5.7687958147318295"><ele>587.0</ele><time>2026-03-24T09:36:36.004Z</time></trkpt><trkpt lat="29.991089277941864" lon="-5.768749830615903"><ele>586.0</ele><time>2026-03-24T09:36:37.004Z</time></trkpt><trkpt lat="29.991255040858245" lon="-5.768699110480665"><ele>585.0</ele><time>2026-03-24T09:36:38.004Z</time></trkpt><trkpt lat="29.991420993789426" lon="-5.768648653592284"><ele>584.0</ele><time>2026-03-24T09:36:39.004Z</time></trkpt><trkpt lat="29.991574166437456" lon="-5.768590122276438"><ele>584.3333333333333</ele><time>2026-03-24T09:36:40.004Z</time></trkpt><trkpt lat="29.991738167955823" lon="-5.7685312390961645"><ele>584.6666666666666</ele><time>2026-03-24T09:36:41.004Z</time></trkpt><trkpt lat="29.991893643640108" lon="-5.768465990693584"><ele>585.0</ele><time>2026-03-24T09:36:42.004Z</time></trkpt><trkpt lat="29.99205153863353" lon="-5.768411032424178"><ele>585.6666666666666</ele><time>2026-03-24T09:36:43.004Z</time></trkpt><trkpt lat="29.99220108925438" lon="-5.768363192498722"><ele>586.3333333333333</ele><time>2026-03-24T09:36:44.004Z</time></trkpt><trkpt lat="29.992355115080212" lon="-5.768305843121999"><ele>587.0</ele><time>2026-03-24T09:36:45.004Z</time></trkpt><trkpt lat="29.992516010667554" lon="-5.768242136079429"><ele>587.0</ele><time>2026-03-24T09:36:46.004Z</time></trkpt><trkpt lat="29.99267636880725" lon="-5.76817544068984"><ele>587.0</ele><time>2026-03-24T09:36:47.004Z</time></trkpt><trkpt lat="29.992840640105236" lon="-5.76812081367027"><ele>587.0</ele><time>2026-03-24T09:36:48.004Z</time></trkpt><trkpt lat="29.993002889225576" lon="-5.7680534713356755"><ele>587.0</ele><time>2026-03-24T09:36:49.004Z</time></trkpt><trkpt lat="29.99316909718475" lon="-5.7679811278655615"><ele>587.0</ele><time>2026-03-24T09:36:50.004Z</time></trkpt><trkpt lat="29.993330844124788" lon="-5.767917814566602"><ele>587.0</ele><time>2026-03-24T09:36:51.004Z</time></trkpt><trkpt lat="29.993491440042963" lon="-5.767867716351066"><ele>586.6666666666666</ele><time>2026-03-24T09:36:52.004Z</time></trkpt><trkpt lat="29.993637610011003" lon="-5.767815901388803"><ele>586.3333333333334</ele><time>2026-03-24T09:36:53.004Z</time></trkpt><trkpt lat="29.993784331569053" lon="-5.767740099586678"><ele>586.0</ele><time>2026-03-24T09:36:54.004Z</time></trkpt><trkpt lat="29.993930476887048" lon="-5.767668533061173"><ele>586.0</ele><time>2026-03-24T09:36:55.004Z</time></trkpt><trkpt lat="29.994070408612142" lon="-5.767605875252618"><ele>586.0</ele><time>2026-03-24T09:36:56.004Z</time></trkpt><trkpt lat="29.99420347711898" lon="-5.767554212131557"><ele>586.0</ele><time>2026-03-24T09:36:57.004Z</time></trkpt><trkpt lat="29.994334370544937" lon="-5.767512978160859"><ele>586.0</ele><time>2026-03-24T09:36:58.004Z</time></trkpt><trkpt lat="29.99446740148475" lon="-5.7674873880975035"><ele>586.0</ele><time>2026-03-24T09:36:59.004Z</time></trkpt><trkpt lat="29.994592365703046" lon="-5.767474397829434"><ele>586.0</ele><time>2026-03-24T09:37:00.004Z</time></trkpt><trkpt lat="29.99472693456823" lon="-5.767468667446211"><ele>586.0</ele><time>2026-03-24T09:37:01.004Z</time></trkpt><trkpt lat="29.994871463084376" lon="-5.767467282270072"><ele>586.0</ele><time>2026-03-24T09:37:02.004Z</time></trkpt><trkpt lat="29.995021716594184" lon="-5.767460668563135"><ele>585.0</ele><time>2026-03-24T09:37:03.004Z</time></trkpt><trkpt lat="29.99517342887453" lon="-5.767450161505085"><ele>584.0</ele><time>2026-03-24T09:37:04.004Z</time></trkpt><trkpt lat="29.995334526812997" lon="-5.767450678460159"><ele>583.0</ele><time>2026-03-24T09:37:05.004Z</time></trkpt><trkpt lat="29.995512513126464" lon="-5.767444952698929"><ele>583.0</ele><time>2026-03-24T09:37:06.004Z</time></trkpt><trkpt lat="29.99570961558438" lon="-5.767432734080888"><ele>583.0</ele><time>2026-03-24T09:37:07.004Z</time></trkpt><trkpt lat="29.995910526482312" lon="-5.767426017125778"><ele>583.0</ele><time>2026-03-24T09:37:08.004Z</time></trkpt><trkpt lat="29.996097291690962" lon="-5.76741458076349"><ele>583.6666666666667</ele><time>2026-03-24T09:37:09.004Z</time></trkpt><trkpt lat="29.996271105293204" lon="-5.767404232418188"><ele>584.3333333333334</ele><time>2026-03-24T09:37:10.004Z</time></trkpt><trkpt lat="29.996438306953618" lon="-5.767397205338275"><ele>585.0</ele><time>2026-03-24T09:37:11.004Z</time></trkpt><trkpt lat="29.99661323171309" lon="-5.76739058034986"><ele>585.3333333333334</ele><time>2026-03-24T09:37:12.004Z</time></trkpt><trkpt lat="29.996788292701424" lon="-5.767382295290506"><ele>585.6666666666667</ele><time>2026-03-24T09:37:13.004Z</time></trkpt><trkpt lat="29.99695463783749" lon="-5.767373562750872"><ele>586.0</ele><time>2026-03-24T09:37:14.004Z</time></trkpt><trkpt lat="29.997116836028983" lon="-5.767364484961322"><ele>586.0</ele><time>2026-03-24T09:37:15.005Z</time></trkpt><trkpt lat="29.997275285618237" lon="-5.767355809089666"><ele>586.0</ele><time>2026-03-24T09:37:16.005Z</time></trkpt><trkpt lat="29.997432425160586" lon="-5.7673494319726"><ele>586.0</ele><time>2026-03-24T09:37:17.004Z</time></trkpt><trkpt lat="29.997589474006297" lon="-5.767343987526864"><ele>586.3333333333334</ele><time>2026-03-24T09:37:18.005Z</time></trkpt><trkpt lat="29.997751281306993" lon="-5.7673367710492185"><ele>586.6666666666666</ele><time>2026-03-24T09:37:19.005Z</time></trkpt><trkpt lat="29.997918570825163" lon="-5.76732863244179"><ele>587.0</ele><time>2026-03-24T09:37:20.005Z</time></trkpt><trkpt lat="29.998087997594975" lon="-5.767320120301524"><ele>587.0</ele><time>2026-03-24T09:37:21.005Z</time></trkpt><trkpt lat="29.99825198268812" lon="-5.7673079733005554"><ele>587.0</ele><time>2026-03-24T09:37:22.005Z</time></trkpt><trkpt lat="29.998424714480247" lon="-5.7673040329893706"><ele>587.0</ele><time>2026-03-24T09:37:23.005Z</time></trkpt><trkpt lat="29.99859883315649" lon="-5.767298986810434"><ele>587.6666666666666</ele><time>2026-03-24T09:37:24.005Z</time></trkpt><trkpt lat="29.998778013989117" lon="-5.767288790265007"><ele>588.3333333333334</ele><time>2026-03-24T09:37:25.005Z</time></trkpt><trkpt lat="29.99896451962745" lon="-5.767283005976501"><ele>589.0</ele><time>2026-03-24T09:37:26.004Z</time></trkpt><trkpt lat="29.999150960162083" lon="-5.767276941245962"><ele>589.3333333333334</ele><time>2026-03-24T09:37:27.004Z</time></trkpt><trkpt lat="29.999335596277945" lon="-5.767266429068043"><ele>589.6666666666666</ele><time>2026-03-24T09:37:28.004Z</time></trkpt><trkpt lat="29.99951997079785" lon="-5.767257012746736"><ele>590.0</ele><time>2026-03-24T09:37:29.004Z</time></trkpt><trkpt lat="29.99970739792879" lon="-5.767253720373453"><ele>590.0</ele><time>2026-03-24T09:37:30.004Z</time></trkpt><trkpt lat="29.999896962193127" lon="-5.767245487078942"><ele>590.0</ele><time>2026-03-24T09:37:31.004Z</time></trkpt><trkpt lat="30.000078878740236" lon="-5.767231390112508"><ele>590.0</ele><time>2026-03-24T09:37:32.004Z</time></trkpt><trkpt lat="30.000254504039948" lon="-5.7672168831674675"><ele>590.0</ele><time>2026-03-24T09:37:33.004Z</time></trkpt><trkpt lat="30.00041776529749" lon="-5.767198409677481"><ele>590.0</ele><time>2026-03-24T09:37:34.004Z</time></trkpt><trkpt lat="30.000586664025576" lon="-5.7671767578360456"><ele>590.0</ele><time>2026-03-24T09:37:35.004Z</time></trkpt><trkpt lat="30.000753889086575" lon="-5.767145694755592"><ele>590.0</ele><time>2026-03-24T09:37:36.004Z</time></trkpt><trkpt lat="30.00091099974698" lon="-5.767119491517513"><ele>590.0</ele><time>2026-03-24T09:37:37.004Z</time></trkpt><trkpt lat="30.001047866993652" lon="-5.767096503562569"><ele>590.0</ele><time>2026-03-24T09:37:38.004Z</time></trkpt><trkpt lat="30.001182981169883" lon="-5.76707480374925"><ele>590.0</ele><time>2026-03-24T09:37:39.004Z</time></trkpt><trkpt lat="30.001326604730444" lon="-5.767052842758785"><ele>590.0</ele><time>2026-03-24T09:37:40.004Z</time></trkpt><trkpt lat="30.001487535653766" lon="-5.767028794113614"><ele>590.0</ele><time>2026-03-24T09:37:41.004Z</time></trkpt><trkpt lat="30.001650713262084" lon="-5.767002014022667"><ele>590.0</ele><time>2026-03-24T09:37:42.004Z</time></trkpt><trkpt lat="30.001821569561255" lon="-5.766969158723851"><ele>590.0</ele><time>2026-03-24T09:37:43.004Z</time></trkpt><trkpt lat="30.001989717716572" lon="-5.766940518908353"><ele>590.0</ele><time>2026-03-24T09:37:44.004Z</time></trkpt><trkpt lat="30.002154941055252" lon="-5.766912324624863"><ele>590.0</ele><time>2026-03-24T09:37:45.004Z</time></trkpt><trkpt lat="30.002321929133814" lon="-5.7668839255421425"><ele>590.3333333333333</ele><time>2026-03-24T09:37:46.004Z</time></trkpt><trkpt lat="30.002491397151925" lon="-5.766851858316173"><ele>590.6666666666666</ele><time>2026-03-24T09:37:47.004Z</time></trkpt><trkpt lat="30.002666462216506" lon="-5.766817098175189"><ele>591.0</ele><time>2026-03-24T09:37:48.004Z</time></trkpt><trkpt lat="30.002845565174592" lon="-5.766781972988731"><ele>591.0</ele><time>2026-03-24T09:37:49.004Z</time></trkpt><trkpt lat="30.003025547635556" lon="-5.766740766671594"><ele>591.0</ele><time>2026-03-24T09:37:50.004Z</time></trkpt><trkpt lat="30.003212652100903" lon="-5.7666998547726465"><ele>591.0</ele><time>2026-03-24T09:37:51.004Z</time></trkpt><trkpt lat="30.003400955008775" lon="-5.766660132004717"><ele>591.0</ele><time>2026-03-24T09:37:52.004Z</time></trkpt><trkpt lat="30.003584173090214" lon="-5.766635428628972"><ele>591.0</ele><time>2026-03-24T09:37:53.004Z</time></trkpt><trkpt lat="30.00376796594116" lon="-5.76662080155699"><ele>591.0</ele><time>2026-03-24T09:37:54.004Z</time></trkpt><trkpt lat="30.003961680768505" lon="-5.766620268545916"><ele>591.0</ele><time>2026-03-24T09:37:55.004Z</time></trkpt><trkpt lat="30.004162133339708" lon="-5.766626990152071"><ele>591.0</ele><time>2026-03-24T09:37:56.004Z</time></trkpt><trkpt lat="30.004366364756642" lon="-5.766632707005461"><ele>591.0</ele><time>2026-03-24T09:37:57.004Z</time></trkpt><trkpt lat="30.00457453547568" lon="-5.766635022909579"><ele>591.3333333333334</ele><time>2026-03-24T09:37:58.004Z</time></trkpt><trkpt lat="30.004783407685277" lon="-5.766634119250482"><ele>591.6666666666667</ele><time>2026-03-24T09:37:59.004Z</time></trkpt><trkpt lat="30.004984925271966" lon="-5.766625630241551"><ele>592.0</ele><time>2026-03-24T09:38:00.005Z</time></trkpt><trkpt lat="30.00519813888355" lon="-5.766623993825301"><ele>591.0</ele><time>2026-03-24T09:38:01.005Z</time></trkpt><trkpt lat="30.00539834428404" lon="-5.766618518708966"><ele>590.0</ele><time>2026-03-24T09:38:02.005Z</time></trkpt><trkpt lat="30.005588635328966" lon="-5.766617781638462"><ele>589.0</ele><time>2026-03-24T09:38:03.005Z</time></trkpt><trkpt lat="30.005785243457566" lon="-5.766605041342548"><ele>590.0</ele><time>2026-03-24T09:38:04.005Z</time></trkpt><trkpt lat="30.00597402413613" lon="-5.766593382668224"><ele>591.0</ele><time>2026-03-24T09:38:05.005Z</time></trkpt><trkpt lat="30.006144313542748" lon="-5.766587672581185"><ele>592.0</ele><time>2026-03-24T09:38:06.005Z</time></trkpt><trkpt lat="30.00629939491123" lon="-5.766581352592992"><ele>592.0</ele><time>2026-03-24T09:38:07.005Z</time></trkpt><trkpt lat="30.006446750683132" lon="-5.7665830894646835"><ele>592.0</ele><time>2026-03-24T09:38:08.005Z</time></trkpt><trkpt lat="30.006582544982102" lon="-5.766581799417688"><ele>592.0</ele><time>2026-03-24T09:38:09.005Z</time></trkpt><trkpt lat="30.006711819571915" lon="-5.766589268651367"><ele>592.0</ele><time>2026-03-24T09:38:10.005Z</time></trkpt><trkpt lat="30.006843955308007" lon="-5.766584650342192"><ele>592.0</ele><time>2026-03-24T09:38:11.005Z</time></trkpt><trkpt lat="30.00698457422666" lon="-5.76657531037622"><ele>592.0</ele><time>2026-03-24T09:38:12.005Z</time></trkpt><trkpt lat="30.00713567841651" lon="-5.766560228009951"><ele>592.0</ele><time>2026-03-24T09:38:13.005Z</time></trkpt><trkpt lat="30.007290192301852" lon="-5.766550114934332"><ele>592.0</ele><time>2026-03-24T09:38:14.005Z</time></trkpt><trkpt lat="30.00743080032769" lon="-5.766526476150564"><ele>592.25</ele><time>2026-03-24T09:38:15.005Z</time></trkpt><trkpt lat="30.00756788141841" lon="-5.766481990735677"><ele>592.5</ele><time>2026-03-24T09:38:16.005Z</time></trkpt><trkpt lat="30.00770552887175" lon="-5.7664314266635"><ele>592.75</ele><time>2026-03-24T09:38:17.005Z</time></trkpt><trkpt lat="30.00784772020205" lon="-5.766388778540444"><ele>593.0</ele><time>2026-03-24T09:38:18.005Z</time></trkpt><trkpt lat="30.007983209392478" lon="-5.766333782771357"><ele>593.0</ele><time>2026-03-24T09:38:19.005Z</time></trkpt><trkpt lat="30.00812573180688" lon="-5.766281484334601"><ele>593.0</ele><time>2026-03-24T09:38:20.005Z</time></trkpt><trkpt lat="30.00827566990648" lon="-5.766232132511745"><ele>593.0</ele><time>2026-03-24T09:38:21.005Z</time></trkpt><trkpt lat="30.008426404259506" lon="-5.766174497909724"><ele>593.3333333333333</ele><time>2026-03-24T09:38:22.005Z</time></trkpt><trkpt lat="30.00858370949091" lon="-5.766123090900986"><ele>593.6666666666666</ele><time>2026-03-24T09:38:23.005Z</time></trkpt><trkpt lat="30.008729544474154" lon="-5.766073735714761"><ele>594.0</ele><time>2026-03-24T09:38:24.005Z</time></trkpt><trkpt lat="30.008882111217765" lon="-5.766020241943909"><ele>594.0</ele><time>2026-03-24T09:38:25.005Z</time></trkpt><trkpt lat="30.009030948648782" lon="-5.765974117078466"><ele>594.0</ele><time>2026-03-24T09:38:26.005Z</time></trkpt><trkpt lat="30.00918164568233" lon="-5.765929187020263"><ele>594.0</ele><time>2026-03-24T09:38:27.005Z</time></trkpt><trkpt lat="30.009333831355264" lon="-5.765877542390082"><ele>594.25</ele><time>2026-03-24T09:38:28.005Z</time></trkpt><trkpt lat="30.00947698340665" lon="-5.765816272672548"><ele>594.5</ele><time>2026-03-24T09:38:29.005Z</time></trkpt><trkpt lat="30.009619603187545" lon="-5.765763997663956"><ele>594.75</ele><time>2026-03-24T09:38:30.005Z</time></trkpt><trkpt lat="30.009754382328428" lon="-5.765715200948821"><ele>595.0</ele><time>2026-03-24T09:38:31.005Z</time></trkpt><trkpt lat="30.009897859145166" lon="-5.765658505624885"><ele>594.75</ele><time>2026-03-24T09:38:32.005Z</time></trkpt><trkpt lat="30.010036302794695" lon="-5.765587593495456"><ele>594.5</ele><time>2026-03-24T09:38:33.005Z</time></trkpt><trkpt lat="30.010163433836638" lon="-5.76551452993511"><ele>594.25</ele><time>2026-03-24T09:38:34.005Z</time></trkpt><trkpt lat="30.010274364771938" lon="-5.7654491116583175"><ele>594.0</ele><time>2026-03-24T09:38:35.005Z</time></trkpt><trkpt lat="30.010379703647867" lon="-5.765364627870854"><ele>594.0</ele><time>2026-03-24T09:38:36.005Z</time></trkpt><trkpt lat="30.010486584563346" lon="-5.765276170825533"><ele>594.0</ele><time>2026-03-24T09:38:37.005Z</time></trkpt><trkpt lat="30.010583783837244" lon="-5.765189317408854"><ele>594.0</ele><time>2026-03-24T09:38:38.005Z</time></trkpt><trkpt lat="30.010677090545745" lon="-5.765108229246839"><ele>594.0</ele><time>2026-03-24T09:38:39.005Z</time></trkpt><trkpt lat="30.010774513912356" lon="-5.765028620524044"><ele>594.25</ele><time>2026-03-24T09:38:40.005Z</time></trkpt><trkpt lat="30.010864154872838" lon="-5.76494401972943"><ele>594.5</ele><time>2026-03-24T09:38:41.005Z</time></trkpt><trkpt lat="30.010961635553848" lon="-5.764858627243863"><ele>594.75</ele><time>2026-03-24T09:38:42.005Z</time></trkpt><trkpt lat="30.011066701357713" lon="-5.764766796567018"><ele>595.0</ele><time>2026-03-24T09:38:43.005Z</time></trkpt><trkpt lat="30.011167141588363" lon="-5.764656987744666"><ele>595.0</ele><time>2026-03-24T09:38:44.005Z</time></trkpt><trkpt lat="30.011257907815825" lon="-5.764546941884696"><ele>595.0</ele><time>2026-03-24T09:38:45.005Z</time></trkpt><trkpt lat="30.011346382875335" lon="-5.764429549511325"><ele>595.0</ele><time>2026-03-24T09:38:46.005Z</time></trkpt><trkpt lat="30.011434939476565" lon="-5.764316237688835"><ele>595.0</ele><time>2026-03-24T09:38:47.005Z</time></trkpt><trkpt lat="30.011534552120782" lon="-5.764200952225179"><ele>595.0</ele><time>2026-03-24T09:38:48.005Z</time></trkpt><trkpt lat="30.01162777310609" lon="-5.764086505294391"><ele>595.0</ele><time>2026-03-24T09:38:49.005Z</time></trkpt><trkpt lat="30.011720012131523" lon="-5.7639739271917305"><ele>595.0</ele><time>2026-03-24T09:38:50.005Z</time></trkpt><trkpt lat="30.01179516731" lon="-5.763865515708594"><ele>595.0</ele><time>2026-03-24T09:38:51.005Z</time></trkpt><trkpt lat="30.011866233692224" lon="-5.763770601721668"><ele>595.0</ele><time>2026-03-24T09:38:52.005Z</time></trkpt><trkpt lat="30.011952461223252" lon="-5.763691617935984"><ele>595.0</ele><time>2026-03-24T09:38:53.005Z</time></trkpt><trkpt lat="30.012061721947795" lon="-5.76364222107016"><ele>595.0</ele><time>2026-03-24T09:38:54.005Z</time></trkpt><trkpt lat="30.012203877188444" lon="-5.763629986526299"><ele>595.0</ele><time>2026-03-24T09:38:55.005Z</time></trkpt><trkpt lat="30.012340497353005" lon="-5.763637760358069"><ele>595.0</ele><time>2026-03-24T09:38:56.005Z</time></trkpt><trkpt lat="30.012481345174912" lon="-5.76365910040859"><ele>595.0</ele><time>2026-03-24T09:38:57.005Z</time></trkpt><trkpt lat="30.012620019635136" lon="-5.763681387631969"><ele>595.0</ele><time>2026-03-24T09:38:58.005Z</time></trkpt><trkpt lat="30.012755115978756" lon="-5.763686368507219"><ele>595.0</ele><time>2026-03-24T09:38:59.005Z</time></trkpt><trkpt lat="30.01289258401153" lon="-5.763688325070474"><ele>595.0</ele><time>2026-03-24T09:39:00.005Z</time></trkpt><trkpt lat="30.013032089328583" lon="-5.763687343895328"><ele>595.0</ele><time>2026-03-24T09:39:01.005Z</time></trkpt><trkpt lat="30.01316896282704" lon="-5.763678206929107"><ele>595.0</ele><time>2026-03-24T09:39:02.005Z</time></trkpt><trkpt lat="30.013304475608223" lon="-5.763667440678053"><ele>595.0</ele><time>2026-03-24T09:39:03.005Z</time></trkpt><trkpt lat="30.013444152079813" lon="-5.763662756535929"><ele>595.25</ele><time>2026-03-24T09:39:04.005Z</time></trkpt><trkpt lat="30.01358174218721" lon="-5.763662606010249"><ele>595.5</ele><time>2026-03-24T09:39:05.005Z</time></trkpt><trkpt lat="30.013717331046482" lon="-5.763655492277937"><ele>595.75</ele><time>2026-03-24T09:39:06.005Z</time></trkpt><trkpt lat="30.013844358530232" lon="-5.7636316300094546"><ele>596.0</ele><time>2026-03-24T09:39:07.005Z</time></trkpt><trkpt lat="30.01395624960535" lon="-5.76358036151168"><ele>596.0</ele><time>2026-03-24T09:39:08.005Z</time></trkpt><trkpt lat="30.01407486995599" lon="-5.763530554865193"><ele>596.0</ele><time>2026-03-24T09:39:09.005Z</time></trkpt><trkpt lat="30.014205169487074" lon="-5.7634676709259836"><ele>596.0</ele><time>2026-03-24T09:39:10.005Z</time></trkpt><trkpt lat="30.014339177647614" lon="-5.763411609114096"><ele>596.0</ele><time>2026-03-24T09:39:11.005Z</time></trkpt><trkpt lat="30.014478314156307" lon="-5.7633536495932915"><ele>596.6666666666666</ele><time>2026-03-24T09:39:12.005Z</time></trkpt><trkpt lat="30.014623344817853" lon="-5.763284588385786"><ele>597.3333333333334</ele><time>2026-03-24T09:39:13.005Z</time></trkpt><trkpt lat="30.0147662989438" lon="-5.763205081655492"><ele>598.0</ele><time>2026-03-24T09:39:14.005Z</time></trkpt><trkpt lat="30.014903173639585" lon="-5.763120656538922"><ele>598.0</ele><time>2026-03-24T09:39:15.005Z</time></trkpt><trkpt lat="30.015025426317187" lon="-5.763029049061557"><ele>598.0</ele><time>2026-03-24T09:39:16.005Z</time></trkpt><trkpt lat="30.01513776791296" lon="-5.762926616375638"><ele>598.0</ele><time>2026-03-24T09:39:17.005Z</time></trkpt><trkpt lat="30.015254923435812" lon="-5.762812675154141"><ele>598.0</ele><time>2026-03-24T09:39:18.005Z</time></trkpt><trkpt lat="30.015375387318404" lon="-5.762690634078684"><ele>597.3333333333334</ele><time>2026-03-24T09:39:19.005Z</time></trkpt><trkpt lat="30.01549753786557" lon="-5.762569124030796"><ele>596.6666666666666</ele><time>2026-03-24T09:39:20.005Z</time></trkpt><trkpt lat="30.015617424897286" lon="-5.7624516995384765"><ele>596.0</ele><time>2026-03-24T09:39:21.005Z</time></trkpt><trkpt lat="30.01573089853818" lon="-5.762330720444705"><ele>596.6666666666666</ele><time>2026-03-24T09:39:22.005Z</time></trkpt><trkpt lat="30.01584059957739" lon="-5.762201718417514"><ele>597.3333333333334</ele><time>2026-03-24T09:39:23.005Z</time></trkpt><trkpt lat="30.015940762372225" lon="-5.762086000761301"><ele>598.0</ele><time>2026-03-24T09:39:24.005Z</time></trkpt><trkpt lat="30.0160477018112" lon="-5.7619621567525545"><ele>598.0</ele><time>2026-03-24T09:39:25.005Z</time></trkpt><trkpt lat="30.016152677460077" lon="-5.761825320678806"><ele>598.0</ele><time>2026-03-24T09:39:26.005Z</time></trkpt><trkpt lat="30.01626107095085" lon="-5.761679867086465"><ele>598.0</ele><time>2026-03-24T09:39:27.005Z</time></trkpt><trkpt lat="30.016369065558695" lon="-5.761539690642515"><ele>598.0</ele><time>2026-03-24T09:39:28.005Z</time></trkpt><trkpt lat="30.016480497563904" lon="-5.761392356904009"><ele>598.0</ele><time>2026-03-24T09:39:29.005Z</time></trkpt><trkpt lat="30.01659674218764" lon="-5.761254059962781"><ele>598.0</ele><time>2026-03-24T09:39:30.005Z</time></trkpt><trkpt lat="30.016713910927326" lon="-5.76112393751981"><ele>597.6666666666667</ele><time>2026-03-24T09:39:31.005Z</time></trkpt><trkpt lat="30.016816652991242" lon="-5.760998813959866"><ele>597.3333333333334</ele><time>2026-03-24T09:39:32.004Z</time></trkpt><trkpt lat="30.01692269664111" lon="-5.76086599634028"><ele>597.0</ele><time>2026-03-24T09:39:33.005Z</time></trkpt><trkpt lat="30.017028997194664" lon="-5.760737258366144"><ele>597.0</ele><time>2026-03-24T09:39:34.005Z</time></trkpt><trkpt lat="30.01712525559673" lon="-5.760618847052058"><ele>597.0</ele><time>2026-03-24T09:39:35.005Z</time></trkpt><trkpt lat="30.017223259393276" lon="-5.760500408987409"><ele>597.0</ele><time>2026-03-24T09:39:36.005Z</time></trkpt><trkpt lat="30.017318143007078" lon="-5.760387365900534"><ele>597.0</ele><time>2026-03-24T09:39:37.005Z</time></trkpt><trkpt lat="30.017412653982642" lon="-5.760275110750709"><ele>597.0</ele><time>2026-03-24T09:39:38.005Z</time></trkpt><trkpt lat="30.017507225463113" lon="-5.760165396278941"><ele>597.0</ele><time>2026-03-24T09:39:39.005Z</time></trkpt><trkpt lat="30.017595828931036" lon="-5.76006592950058"><ele>597.0</ele><time>2026-03-24T09:39:40.005Z</time></trkpt><trkpt lat="30.017671160240102" lon="-5.759953326903823"><ele>597.0</ele><time>2026-03-24T09:39:41.005Z</time></trkpt><trkpt lat="30.017729522981995" lon="-5.759845460539127"><ele>597.0</ele><time>2026-03-24T09:39:42.005Z</time></trkpt><trkpt lat="30.017782478027048" lon="-5.7597529410730095"><ele>597.0</ele><time>2026-03-24T09:39:43.005Z</time></trkpt><trkpt lat="30.017822107332286" lon="-5.7596607657097945"><ele>597.0</ele><time>2026-03-24T09:39:44.005Z</time></trkpt><trkpt lat="30.01786551896515" lon="-5.75955545880107"><ele>597.0</ele><time>2026-03-24T09:39:45.005Z</time></trkpt><trkpt lat="30.0178868451487" lon="-5.759448294038946"><ele>597.0</ele><time>2026-03-24T09:39:46.005Z</time></trkpt><trkpt lat="30.01789385444595" lon="-5.759340134440833"><ele>597.1666666666666</ele><time>2026-03-24T09:39:47.005Z</time></trkpt><trkpt lat="30.01789993499325" lon="-5.759232046263482"><ele>597.3333333333334</ele><time>2026-03-24T09:39:48.005Z</time></trkpt><trkpt lat="30.017913686258417" lon="-5.759136856543553"><ele>597.5</ele><time>2026-03-24T09:39:49.005Z</time></trkpt><trkpt lat="30.01793687153401" lon="-5.7590682339800665"><ele>597.6666666666667</ele><time>2026-03-24T09:39:50.005Z</time></trkpt><trkpt lat="30.017968278666476" lon="-5.759001692510606"><ele>597.8333333333334</ele><time>2026-03-24T09:39:51.005Z</time></trkpt><trkpt lat="30.018022020130118" lon="-5.758925244472301"><ele>598.0</ele><time>2026-03-24T09:39:52.005Z</time></trkpt><trkpt lat="30.018095099460776" lon="-5.7588599727607654"><ele>598.0</ele><time>2026-03-24T09:39:53.005Z</time></trkpt><trkpt lat="30.018167689004578" lon="-5.758796363583239"><ele>598.0</ele><time>2026-03-24T09:39:54.005Z</time></trkpt><trkpt lat="30.018234240479664" lon="-5.758727491821766"><ele>598.0</ele><time>2026-03-24T09:39:55.005Z</time></trkpt><trkpt lat="30.018307900208633" lon="-5.75863826625147"><ele>598.0</ele><time>2026-03-24T09:39:56.005Z</time></trkpt><trkpt lat="30.01837692027363" lon="-5.758553146998526"><ele>598.0</ele><time>2026-03-24T09:39:57.005Z</time></trkpt><trkpt lat="30.018442535889427" lon="-5.758481427436242"><ele>598.0</ele><time>2026-03-24T09:39:58.005Z</time></trkpt><trkpt lat="30.01851456203302" lon="-5.758439775473935"><ele>598.0</ele><time>2026-03-24T09:39:59.005Z</time></trkpt><trkpt lat="30.018579579485614" lon="-5.758429892075445"><ele>598.0</ele><time>2026-03-24T09:40:00.005Z</time></trkpt><trkpt lat="30.018663440418184" lon="-5.758438451334048"><ele>598.0</ele><time>2026-03-24T09:40:01.005Z</time></trkpt><trkpt lat="30.01874555358073" lon="-5.758456048586951"><ele>598.0</ele><time>2026-03-24T09:40:02.005Z</time></trkpt><trkpt lat="30.01883017480832" lon="-5.758480068481404"><ele>598.0</ele><time>2026-03-24T09:40:03.005Z</time></trkpt><trkpt lat="30.01891830079783" lon="-5.75850797901099"><ele>598.0</ele><time>2026-03-24T09:40:04.005Z</time></trkpt><trkpt lat="30.0189882109604" lon="-5.758528408442395"><ele>598.0</ele><time>2026-03-24T09:40:05.005Z</time></trkpt><trkpt lat="30.019065439566248" lon="-5.758551745387587"><ele>598.0</ele><time>2026-03-24T09:40:07.005Z</time></trkpt><trkpt lat="30.019135078210372" lon="-5.758563025118297"><ele>598.0</ele><time>2026-03-24T09:40:09.005Z</time></trkpt><trkpt lat="30.0191974146497" lon="-5.758517546643075"><ele>598.0</ele><time>2026-03-24T09:40:39.005Z</time></trkpt><trkpt lat="30.0191665300712" lon="-5.758452322185878"><ele>598.0</ele><time>2026-03-24T09:43:15.005Z</time></trkpt><trkpt lat="30.01923921615557" lon="-5.758493433671837"><ele>598.0</ele><time>2026-03-24T09:45:28.005Z</time></trkpt><trkpt lat="30.019302400827698" lon="-5.75856384786428"><ele>597.8333333333334</ele><time>2026-03-24T09:45:30.005Z</time></trkpt><trkpt lat="30.01936155308464" lon="-5.758621844854565"><ele>597.6666666666667</ele><time>2026-03-24T09:45:31.005Z</time></trkpt><trkpt lat="30.01943394117402" lon="-5.7586643782303355"><ele>597.5</ele><time>2026-03-24T09:45:32.005Z</time></trkpt><trkpt lat="30.01950772000416" lon="-5.758690809546922"><ele>597.3333333333334</ele><time>2026-03-24T09:45:33.005Z</time></trkpt><trkpt lat="30.01959450919772" lon="-5.758710792490601"><ele>597.1666666666666</ele><time>2026-03-24T09:45:34.005Z</time></trkpt><trkpt lat="30.019687004192313" lon="-5.75873250031542"><ele>597.0</ele><time>2026-03-24T09:45:35.005Z</time></trkpt><trkpt lat="30.01978610946586" lon="-5.758750676828145"><ele>597.0</ele><time>2026-03-24T09:45:36.005Z</time></trkpt><trkpt lat="30.01989163852817" lon="-5.758781670059763"><ele>597.0</ele><time>2026-03-24T09:45:37.005Z</time></trkpt><trkpt lat="30.019997232594445" lon="-5.75880699692246"><ele>597.0</ele><time>2026-03-24T09:45:38.005Z</time></trkpt><trkpt lat="30.020097096032924" lon="-5.758830576946317"><ele>597.0</ele><time>2026-03-24T09:45:39.005Z</time></trkpt><trkpt lat="30.020181906606425" lon="-5.758853742559318"><ele>597.0</ele><time>2026-03-24T09:45:40.005Z</time></trkpt><trkpt lat="30.02028085019066" lon="-5.758881223114166"><ele>597.5</ele><time>2026-03-24T09:45:41.005Z</time></trkpt><trkpt lat="30.02038594513512" lon="-5.758910700238088"><ele>598.0</ele><time>2026-03-24T09:45:42.005Z</time></trkpt><trkpt lat="30.020490681966738" lon="-5.7589432409808605"><ele>598.5</ele><time>2026-03-24T09:45:43.005Z</time></trkpt><trkpt lat="30.020606256969423" lon="-5.758978079366682"><ele>599.0</ele><time>2026-03-24T09:45:44.005Z</time></trkpt><trkpt lat="30.0207223234274" lon="-5.759008068031806"><ele>599.25</ele><time>2026-03-24T09:45:45.005Z</time></trkpt><trkpt lat="30.020841363933837" lon="-5.759038392960298"><ele>599.5</ele><time>2026-03-24T09:45:46.004Z</time></trkpt><trkpt lat="30.02097932447991" lon="-5.75907590522537"><ele>599.75</ele><time>2026-03-24T09:45:47.004Z</time></trkpt><trkpt lat="30.021125067755932" lon="-5.759115188047673"><ele>600.0</ele><time>2026-03-24T09:45:48.004Z</time></trkpt><trkpt lat="30.021264044390627" lon="-5.759140005146645"><ele>600.0</ele><time>2026-03-24T09:45:49.005Z</time></trkpt><trkpt lat="30.021396724380228" lon="-5.759146403126538"><ele>600.0</ele><time>2026-03-24T09:45:50.005Z</time></trkpt><trkpt lat="30.02152431812245" lon="-5.759137412384713"><ele>600.0</ele><time>2026-03-24T09:45:51.005Z</time></trkpt><trkpt lat="30.02163711817391" lon="-5.759118236201476"><ele>600.0</ele><time>2026-03-24T09:45:52.005Z</time></trkpt><trkpt lat="30.02175674940751" lon="-5.759090190213222"><ele>600.0</ele><time>2026-03-24T09:45:53.005Z</time></trkpt><trkpt lat="30.021852135581433" lon="-5.759045899590579"><ele>600.0</ele><time>2026-03-24T09:45:54.005Z</time></trkpt><trkpt lat="30.021954977122842" lon="-5.759013895234325"><ele>600.0</ele><time>2026-03-24T09:45:55.005Z</time></trkpt><trkpt lat="30.02206577867042" lon="-5.758977971053466"><ele>600.0</ele><time>2026-03-24T09:45:56.005Z</time></trkpt><trkpt lat="30.022183043566415" lon="-5.758939569005944"><ele>600.0</ele><time>2026-03-24T09:45:57.005Z</time></trkpt><trkpt lat="30.022302557825185" lon="-5.758895543834506"><ele>600.0</ele><time>2026-03-24T09:45:58.005Z</time></trkpt><trkpt lat="30.02242265502343" lon="-5.758856028588302"><ele>600.0</ele><time>2026-03-24T09:45:59.005Z</time></trkpt><trkpt lat="30.02253337593037" lon="-5.758818895114554"><ele>600.0</ele><time>2026-03-24T09:46:00.005Z</time></trkpt><trkpt lat="30.022641519856702" lon="-5.7587786466624555"><ele>600.0</ele><time>2026-03-24T09:46:01.005Z</time></trkpt><trkpt lat="30.02275618811933" lon="-5.758735409151401"><ele>600.0</ele><time>2026-03-24T09:46:02.005Z</time></trkpt><trkpt lat="30.0228751458534" lon="-5.758703637652295"><ele>600.0</ele><time>2026-03-24T09:46:03.005Z</time></trkpt><trkpt lat="30.02299556628586" lon="-5.75867210585065"><ele>600.0</ele><time>2026-03-24T09:46:04.005Z</time></trkpt><trkpt lat="30.02310852958691" lon="-5.758638112181626"><ele>600.0</ele><time>2026-03-24T09:46:05.005Z</time></trkpt><trkpt lat="30.023221747337494" lon="-5.7586068540494"><ele>600.0</ele><time>2026-03-24T09:46:06.005Z</time></trkpt><trkpt lat="30.02332156010122" lon="-5.7585796364991"><ele>600.0</ele><time>2026-03-24T09:46:07.005Z</time></trkpt><trkpt lat="30.023416113787988" lon="-5.758565380196372"><ele>600.0</ele><time>2026-03-24T09:46:08.005Z</time></trkpt><trkpt lat="30.023526329194624" lon="-5.758561000163981"><ele>600.0</ele><time>2026-03-24T09:46:09.005Z</time></trkpt><trkpt lat="30.023651904701914" lon="-5.758584634201731"><ele>600.0</ele><time>2026-03-24T09:46:10.005Z</time></trkpt><trkpt lat="30.023785306729863" lon="-5.758624251495548"><ele>600.0</ele><time>2026-03-24T09:46:11.005Z</time></trkpt><trkpt lat="30.02390773797979" lon="-5.75866320070524"><ele>600.0</ele><time>2026-03-24T09:46:12.005Z</time></trkpt><trkpt lat="30.02402797864074" lon="-5.758699277828319"><ele>600.0</ele><time>2026-03-24T09:46:13.005Z</time></trkpt><trkpt lat="30.024150154601884" lon="-5.758731254847114"><ele>600.0</ele><time>2026-03-24T09:46:14.005Z</time></trkpt><trkpt lat="30.024274197796057" lon="-5.758769430631106"><ele>600.25</ele><time>2026-03-24T09:46:15.005Z</time></trkpt><trkpt lat="30.024394120404693" lon="-5.758807465661051"><ele>600.5</ele><time>2026-03-24T09:46:16.005Z</time></trkpt><trkpt lat="30.02451937909396" lon="-5.758835937844154"><ele>600.75</ele><time>2026-03-24T09:46:17.005Z</time></trkpt><trkpt lat="30.02464295713422" lon="-5.758863028862901"><ele>601.0</ele><time>2026-03-24T09:46:18.005Z</time></trkpt><trkpt lat="30.024773293957043" lon="-5.758895318835272"><ele>601.0</ele><time>2026-03-24T09:46:19.005Z</time></trkpt><trkpt lat="30.02491135118672" lon="-5.758926579604934"><ele>601.0</ele><time>2026-03-24T09:46:20.005Z</time></trkpt><trkpt lat="30.025048482080383" lon="-5.7589575198982565"><ele>601.0</ele><time>2026-03-24T09:46:21.005Z</time></trkpt><trkpt lat="30.025177467149444" lon="-5.7589838131329625"><ele>601.0</ele><time>2026-03-24T09:46:22.005Z</time></trkpt><trkpt lat="30.02530907945178" lon="-5.759018117907441"><ele>601.5</ele><time>2026-03-24T09:46:23.005Z</time></trkpt><trkpt lat="30.02544152765098" lon="-5.75904481509191"><ele>602.0</ele><time>2026-03-24T09:46:24.005Z</time></trkpt><trkpt lat="30.025556094001256" lon="-5.759061519957465"><ele>602.5</ele><time>2026-03-24T09:46:25.005Z</time></trkpt><trkpt lat="30.025672394420745" lon="-5.759072013135746"><ele>603.0</ele><time>2026-03-24T09:46:26.005Z</time></trkpt><trkpt lat="30.025796718641573" lon="-5.759061415117662"><ele>602.75</ele><time>2026-03-24T09:46:27.005Z</time></trkpt><trkpt lat="30.025922238032493" lon="-5.759037206765869"><ele>602.5</ele><time>2026-03-24T09:46:28.005Z</time></trkpt><trkpt lat="30.02605258811145" lon="-5.759005918566426"><ele>602.25</ele><time>2026-03-24T09:46:29.005Z</time></trkpt><trkpt lat="30.026182253111404" lon="-5.7589660926082695"><ele>602.0</ele><time>2026-03-24T09:46:30.005Z</time></trkpt><trkpt lat="30.026308609326374" lon="-5.758933318250564"><ele>602.0</ele><time>2026-03-24T09:46:31.005Z</time></trkpt><trkpt lat="30.02643550958341" lon="-5.758896539674386"><ele>602.0</ele><time>2026-03-24T09:46:32.005Z</time></trkpt><trkpt lat="30.026562321935558" lon="-5.758866397591329"><ele>602.0</ele><time>2026-03-24T09:46:33.005Z</time></trkpt><trkpt lat="30.026690897279124" lon="-5.758834387822731"><ele>602.0</ele><time>2026-03-24T09:46:34.005Z</time></trkpt><trkpt lat="30.026819489017516" lon="-5.758798663657361"><ele>602.5</ele><time>2026-03-24T09:46:35.005Z</time></trkpt><trkpt lat="30.026952566166447" lon="-5.758762139387048"><ele>603.0</ele><time>2026-03-24T09:46:36.005Z</time></trkpt><trkpt lat="30.02708033462651" lon="-5.758724858568453"><ele>603.5</ele><time>2026-03-24T09:46:37.005Z</time></trkpt><trkpt lat="30.02719905472218" lon="-5.758690785225969"><ele>604.0</ele><time>2026-03-24T09:46:38.005Z</time></trkpt><trkpt lat="30.027316359647582" lon="-5.758660188824133"><ele>604.0</ele><time>2026-03-24T09:46:39.005Z</time></trkpt><trkpt lat="30.027431700656695" lon="-5.758633797172545"><ele>604.0</ele><time>2026-03-24T09:46:40.005Z</time></trkpt><trkpt lat="30.027550176615264" lon="-5.758600037716655"><ele>604.0</ele><time>2026-03-24T09:46:41.005Z</time></trkpt><trkpt lat="30.027654272384993" lon="-5.758570325386426"><ele>604.0</ele><time>2026-03-24T09:46:42.005Z</time></trkpt><trkpt lat="30.027769026832225" lon="-5.758540433433077"><ele>604.0</ele><time>2026-03-24T09:46:43.005Z</time></trkpt><trkpt lat="30.02789532162931" lon="-5.758509696251349"><ele>604.0</ele><time>2026-03-24T09:46:44.005Z</time></trkpt><trkpt lat="30.02802043198576" lon="-5.758471723692992"><ele>604.0</ele><time>2026-03-24T09:46:45.005Z</time></trkpt><trkpt lat="30.028151839615663" lon="-5.758430227988486"><ele>604.0</ele><time>2026-03-24T09:46:46.005Z</time></trkpt><trkpt lat="30.028279084865893" lon="-5.75839011658998"><ele>604.0</ele><time>2026-03-24T09:46:47.005Z</time></trkpt><trkpt lat="30.02840944767326" lon="-5.75835845126013"><ele>604.0</ele><time>2026-03-24T09:46:48.005Z</time></trkpt><trkpt lat="30.02853077779649" lon="-5.758331021398559"><ele>604.0</ele><time>2026-03-24T09:46:49.005Z</time></trkpt><trkpt lat="30.028638943977437" lon="-5.758305185519379"><ele>604.0</ele><time>2026-03-24T09:46:50.005Z</time></trkpt><trkpt lat="30.028719131397906" lon="-5.758277653299823"><ele>604.0</ele><time>2026-03-24T09:46:51.005Z</time></trkpt><trkpt lat="30.028789420898676" lon="-5.758248593424876"><ele>604.0</ele><time>2026-03-24T09:46:52.005Z</time></trkpt><trkpt lat="30.028880917840915" lon="-5.758216138779173"><ele>604.0</ele><time>2026-03-24T09:46:53.005Z</time></trkpt><trkpt lat="30.02896868819795" lon="-5.7581891235472344"><ele>604.0</ele><time>2026-03-24T09:46:54.005Z</time></trkpt><trkpt lat="30.029047881824642" lon="-5.758162769374459"><ele>604.0</ele><time>2026-03-24T09:46:55.005Z</time></trkpt><trkpt lat="30.029142235169463" lon="-5.758141782385794"><ele>604.0</ele><time>2026-03-24T09:46:56.005Z</time></trkpt><trkpt lat="30.029236125442225" lon="-5.7581016287197535"><ele>604.2</ele><time>2026-03-24T09:46:57.005Z</time></trkpt><trkpt lat="30.029319989952032" lon="-5.758070884000503"><ele>604.4</ele><time>2026-03-24T09:46:58.005Z</time></trkpt><trkpt lat="30.029424058859036" lon="-5.7580580315854135"><ele>604.6</ele><time>2026-03-24T09:46:59.005Z</time></trkpt><trkpt lat="30.029527387622096" lon="-5.758025963772883"><ele>604.8</ele><time>2026-03-24T09:47:00.005Z</time></trkpt><trkpt lat="30.029636512694143" lon="-5.757993442218428"><ele>605.0</ele><time>2026-03-24T09:47:01.005Z</time></trkpt><trkpt lat="30.029739087473562" lon="-5.757961847994198"><ele>605.0</ele><time>2026-03-24T09:47:02.005Z</time></trkpt><trkpt lat="30.02982739391694" lon="-5.757931852313715"><ele>605.0</ele><time>2026-03-24T09:47:03.005Z</time></trkpt><trkpt lat="30.029910704642077" lon="-5.7579030589151445"><ele>605.0</ele><time>2026-03-24T09:47:04.005Z</time></trkpt><trkpt lat="30.02998863110922" lon="-5.757865927515209"><ele>605.0</ele><time>2026-03-24T09:47:05.005Z</time></trkpt><trkpt lat="30.03006088284771" lon="-5.757818251248713"><ele>605.0</ele><time>2026-03-24T09:47:06.005Z</time></trkpt><trkpt lat="30.0301384628665" lon="-5.757757814311634"><ele>605.0</ele><time>2026-03-24T09:47:07.005Z</time></trkpt><trkpt lat="30.030209679190616" lon="-5.757690946985195"><ele>605.0</ele><time>2026-03-24T09:47:08.005Z</time></trkpt><trkpt lat="30.03028441784544" lon="-5.757631658279324"><ele>605.0</ele><time>2026-03-24T09:47:09.005Z</time></trkpt><trkpt lat="30.030352480942035" lon="-5.7575844469856365"><ele>605.0</ele><time>2026-03-24T09:47:10.005Z</time></trkpt><trkpt lat="30.030441740257572" lon="-5.7575406919582255"><ele>605.0</ele><time>2026-03-24T09:47:11.005Z</time></trkpt><trkpt lat="30.03052469181474" lon="-5.757491520998404"><ele>605.0</ele><time>2026-03-24T09:47:12.005Z</time></trkpt><trkpt lat="30.03060655670318" lon="-5.757433440028303"><ele>605.0</ele><time>2026-03-24T09:47:13.005Z</time></trkpt><trkpt lat="30.030692378944263" lon="-5.757366484150237"><ele>605.0</ele><time>2026-03-24T09:47:14.005Z</time></trkpt><trkpt lat="30.030784437376976" lon="-5.757307657569688"><ele>605.0</ele><time>2026-03-24T09:47:15.005Z</time></trkpt><trkpt lat="30.030880653467594" lon="-5.757229335140215"><ele>605.0</ele><time>2026-03-24T09:47:16.005Z</time></trkpt><trkpt lat="30.030980122575006" lon="-5.757141963642817"><ele>605.0</ele><time>2026-03-24T09:47:17.005Z</time></trkpt><trkpt lat="30.03108468067682" lon="-5.757060640017878"><ele>605.0</ele><time>2026-03-24T09:47:18.005Z</time></trkpt><trkpt lat="30.03118005976123" lon="-5.756993217093547"><ele>605.0</ele><time>2026-03-24T09:47:19.005Z</time></trkpt><trkpt lat="30.03126563737189" lon="-5.7569107582167875"><ele>605.0</ele><time>2026-03-24T09:47:20.005Z</time></trkpt><trkpt lat="30.031354057432573" lon="-5.756846038312062"><ele>605.0</ele><time>2026-03-24T09:47:21.005Z</time></trkpt><trkpt lat="30.031444610674253" lon="-5.756784175649859"><ele>605.0</ele><time>2026-03-24T09:47:22.005Z</time></trkpt><trkpt lat="30.031533602377127" lon="-5.756723830795654"><ele>605.0</ele><time>2026-03-24T09:47:23.005Z</time></trkpt><trkpt lat="30.03162919167415" lon="-5.756659372880939"><ele>605.0</ele><time>2026-03-24T09:47:24.005Z</time></trkpt><trkpt lat="30.031726772675018" lon="-5.756589748820743"><ele>605.0</ele><time>2026-03-24T09:47:25.005Z</time></trkpt><trkpt lat="30.031806689131475" lon="-5.7565194094701875"><ele>605.0</ele><time>2026-03-24T09:47:26.005Z</time></trkpt><trkpt lat="30.03189586665333" lon="-5.756441083752459"><ele>605.0</ele><time>2026-03-24T09:47:27.005Z</time></trkpt><trkpt lat="30.032001316378935" lon="-5.756355694411846"><ele>605.0</ele><time>2026-03-24T09:47:28.005Z</time></trkpt><trkpt lat="30.032099147534286" lon="-5.756280502485939"><ele>605.0</ele><time>2026-03-24T09:47:29.005Z</time></trkpt><trkpt lat="30.03219526288173" lon="-5.7562029574322136"><ele>605.0</ele><time>2026-03-24T09:47:30.005Z</time></trkpt><trkpt lat="30.032311189988068" lon="-5.7561243127960156"><ele>605.0</ele><time>2026-03-24T09:47:31.005Z</time></trkpt><trkpt lat="30.032408162802252" lon="-5.756050282976416"><ele>605.0</ele><time>2026-03-24T09:47:32.005Z</time></trkpt><trkpt lat="30.032514464324077" lon="-5.755969568268574"><ele>605.0</ele><time>2026-03-24T09:47:33.005Z</time></trkpt><trkpt lat="30.032626580152158" lon="-5.75589240813011"><ele>605.5</ele><time>2026-03-24T09:47:34.005Z</time></trkpt><trkpt lat="30.032724514073838" lon="-5.755813399153607"><ele>606.0</ele><time>2026-03-24T09:47:35.005Z</time></trkpt><trkpt lat="30.032845593806098" lon="-5.755725315745334"><ele>606.5</ele><time>2026-03-24T09:47:36.005Z</time></trkpt><trkpt lat="30.032949323504894" lon="-5.755643089075898"><ele>607.0</ele><time>2026-03-24T09:47:37.005Z</time></trkpt><trkpt lat="30.033055766156643" lon="-5.7555613435945085"><ele>607.0</ele><time>2026-03-24T09:47:38.005Z</time></trkpt><trkpt lat="30.033157110521334" lon="-5.755483376449202"><ele>607.0</ele><time>2026-03-24T09:47:39.005Z</time></trkpt><trkpt lat="30.03324204065057" lon="-5.755397262079913"><ele>607.0</ele><time>2026-03-24T09:47:40.005Z</time></trkpt><trkpt lat="30.033323591342384" lon="-5.755309546350541"><ele>607.0</ele><time>2026-03-24T09:47:41.005Z</time></trkpt><trkpt lat="30.033409483550695" lon="-5.755222452174937"><ele>606.5</ele><time>2026-03-24T09:47:42.005Z</time></trkpt><trkpt lat="30.033500704241586" lon="-5.755135769464668"><ele>606.0</ele><time>2026-03-24T09:47:43.005Z</time></trkpt><trkpt lat="30.033588832098875" lon="-5.7550415434727205"><ele>605.5</ele><time>2026-03-24T09:47:44.005Z</time></trkpt><trkpt lat="30.03367686225599" lon="-5.754941231584384"><ele>605.0</ele><time>2026-03-24T09:47:45.005Z</time></trkpt><trkpt lat="30.033767852351602" lon="-5.754847272819725"><ele>605.0</ele><time>2026-03-24T09:47:46.004Z</time></trkpt><trkpt lat="30.033859278441692" lon="-5.754749751892732"><ele>605.0</ele><time>2026-03-24T09:47:47.004Z</time></trkpt><trkpt lat="30.03394900958595" lon="-5.7546531880331875"><ele>605.0</ele><time>2026-03-24T09:47:48.005Z</time></trkpt><trkpt lat="30.0340349388591" lon="-5.754558979584029"><ele>605.0</ele><time>2026-03-24T09:47:49.004Z</time></trkpt><trkpt lat="30.034118533784294" lon="-5.7544712528778375"><ele>605.0</ele><time>2026-03-24T09:47:50.004Z</time></trkpt><trkpt lat="30.03420732534841" lon="-5.754388251685267"><ele>605.0</ele><time>2026-03-24T09:47:51.005Z</time></trkpt><trkpt lat="30.034293650750747" lon="-5.754294330220096"><ele>605.0</ele><time>2026-03-24T09:47:52.004Z</time></trkpt><trkpt lat="30.034380963901338" lon="-5.754198461531181"><ele>605.0</ele><time>2026-03-24T09:47:53.004Z</time></trkpt><trkpt lat="30.034475623408124" lon="-5.754102294386215"><ele>604.5</ele><time>2026-03-24T09:47:54.004Z</time></trkpt><trkpt lat="30.03456794431367" lon="-5.7540022679157055"><ele>604.0</ele><time>2026-03-24T09:47:55.004Z</time></trkpt><trkpt lat="30.034664075811826" lon="-5.753904620262724"><ele>603.5</ele><time>2026-03-24T09:47:56.004Z</time></trkpt><trkpt lat="30.034770949361466" lon="-5.753807194284459"><ele>603.0</ele><time>2026-03-24T09:47:57.004Z</time></trkpt><trkpt lat="30.034878269797375" lon="-5.753702491275095"><ele>603.75</ele><time>2026-03-24T09:47:58.004Z</time></trkpt><trkpt lat="30.034976729397123" lon="-5.753602677332234"><ele>604.5</ele><time>2026-03-24T09:47:59.004Z</time></trkpt><trkpt lat="30.035074584185196" lon="-5.753505372167386"><ele>605.25</ele><time>2026-03-24T09:48:00.004Z</time></trkpt><trkpt lat="30.035183383909267" lon="-5.753406616561331"><ele>606.0</ele><time>2026-03-24T09:48:01.004Z</time></trkpt><trkpt lat="30.035276965957813" lon="-5.753301396860985"><ele>606.5</ele><time>2026-03-24T09:48:02.004Z</time></trkpt><trkpt lat="30.035378710955694" lon="-5.7532001712890715"><ele>607.0</ele><time>2026-03-24T09:48:03.004Z</time></trkpt><trkpt lat="30.03548454807503" lon="-5.753105962938553"><ele>607.5</ele><time>2026-03-24T09:48:04.004Z</time></trkpt><trkpt lat="30.035595161389477" lon="-5.753016947806439"><ele>608.0</ele><time>2026-03-24T09:48:05.004Z</time></trkpt><trkpt lat="30.035710560692618" lon="-5.7529216619019214"><ele>608.25</ele><time>2026-03-24T09:48:06.004Z</time></trkpt><trkpt lat="30.035823376136424" lon="-5.752817737416635"><ele>608.5</ele><time>2026-03-24T09:48:07.004Z</time></trkpt><trkpt lat="30.035942518587145" lon="-5.752715620892939"><ele>608.75</ele><time>2026-03-24T09:48:08.004Z</time></trkpt><trkpt lat="30.03606536371251" lon="-5.752625009276242"><ele>609.0</ele><time>2026-03-24T09:48:09.004Z</time></trkpt><trkpt lat="30.036187836103515" lon="-5.752532112703598"><ele>609.0</ele><time>2026-03-24T09:48:10.004Z</time></trkpt><trkpt lat="30.036318410076674" lon="-5.752448739285279"><ele>609.0</ele><time>2026-03-24T09:48:11.004Z</time></trkpt><trkpt lat="30.036449623270865" lon="-5.752348746062709"><ele>609.0</ele><time>2026-03-24T09:48:12.004Z</time></trkpt><trkpt lat="30.036575980485164" lon="-5.752244665571791"><ele>609.3333333333334</ele><time>2026-03-24T09:48:13.004Z</time></trkpt><trkpt lat="30.036702305803676" lon="-5.752146608923338"><ele>609.6666666666667</ele><time>2026-03-24T09:48:14.004Z</time></trkpt><trkpt lat="30.036833444219987" lon="-5.752049428039195"><ele>610.0</ele><time>2026-03-24T09:48:15.004Z</time></trkpt><trkpt lat="30.036957106388922" lon="-5.751958306104442"><ele>610.0</ele><time>2026-03-24T09:48:16.004Z</time></trkpt><trkpt lat="30.03707883649791" lon="-5.751876075501513"><ele>610.0</ele><time>2026-03-24T09:48:17.004Z</time></trkpt><trkpt lat="30.037188384250204" lon="-5.75179006764673"><ele>610.0</ele><time>2026-03-24T09:48:18.004Z</time></trkpt><trkpt lat="30.037294057626244" lon="-5.7517008146476005"><ele>610.0</ele><time>2026-03-24T09:48:19.004Z</time></trkpt><trkpt lat="30.037397208421165" lon="-5.751610946368696"><ele>610.0</ele><time>2026-03-24T09:48:20.004Z</time></trkpt><trkpt lat="30.037487052376296" lon="-5.751515480121693"><ele>610.0</ele><time>2026-03-24T09:48:21.004Z</time></trkpt><trkpt lat="30.037584759214266" lon="-5.751431843721327"><ele>610.0</ele><time>2026-03-24T09:48:22.004Z</time></trkpt><trkpt lat="30.037682957027826" lon="-5.75135658288252"><ele>610.0</ele><time>2026-03-24T09:48:23.004Z</time></trkpt><trkpt lat="30.03777678817173" lon="-5.751265769922142"><ele>610.0</ele><time>2026-03-24T09:48:24.004Z</time></trkpt><trkpt lat="30.037874857213406" lon="-5.751174082249517"><ele>610.0</ele><time>2026-03-24T09:48:25.004Z</time></trkpt><trkpt lat="30.03797825158935" lon="-5.751082391850019"><ele>610.0</ele><time>2026-03-24T09:48:26.004Z</time></trkpt><trkpt lat="30.038082467980914" lon="-5.750994901760125"><ele>610.0</ele><time>2026-03-24T09:48:27.004Z</time></trkpt><trkpt lat="30.03817764085528" lon="-5.750905230470265"><ele>610.2</ele><time>2026-03-24T09:48:28.004Z</time></trkpt><trkpt lat="30.038273849385966" lon="-5.750833530798184"><ele>610.4</ele><time>2026-03-24T09:48:29.004Z</time></trkpt><trkpt lat="30.038351218932675" lon="-5.750763137621303"><ele>610.6</ele><time>2026-03-24T09:48:30.004Z</time></trkpt><trkpt lat="30.038426318922195" lon="-5.750696282058565"><ele>610.8</ele><time>2026-03-24T09:48:31.004Z</time></trkpt><trkpt lat="30.038492901985034" lon="-5.750623748869833"><ele>611.0</ele><time>2026-03-24T09:48:32.004Z</time></trkpt><trkpt lat="30.0385721333765" lon="-5.750537469154991"><ele>611.0</ele><time>2026-03-24T09:48:33.004Z</time></trkpt><trkpt lat="30.038665307926085" lon="-5.750472071233438"><ele>611.0</ele><time>2026-03-24T09:48:34.004Z</time></trkpt><trkpt lat="30.038761222497083" lon="-5.750420738489633"><ele>611.0</ele><time>2026-03-24T09:48:35.004Z</time></trkpt><trkpt lat="30.038859211207996" lon="-5.750347050469071"><ele>611.0</ele><time>2026-03-24T09:48:36.004Z</time></trkpt><trkpt lat="30.038954330943078" lon="-5.750267396564236"><ele>611.0</ele><time>2026-03-24T09:48:37.004Z</time></trkpt><trkpt lat="30.039057230583694" lon="-5.7501847830191934"><ele>611.5</ele><time>2026-03-24T09:48:38.004Z</time></trkpt><trkpt lat="30.039163119494233" lon="-5.750109861594949"><ele>612.0</ele><time>2026-03-24T09:48:39.004Z</time></trkpt><trkpt lat="30.039267692596415" lon="-5.750050630190561"><ele>612.5</ele><time>2026-03-24T09:48:40.004Z</time></trkpt><trkpt lat="30.03937830309246" lon="-5.749988827810221"><ele>613.0</ele><time>2026-03-24T09:48:41.004Z</time></trkpt><trkpt lat="30.03947816000189" lon="-5.749932923503118"><ele>613.0</ele><time>2026-03-24T09:48:42.004Z</time></trkpt><trkpt lat="30.039565089133745" lon="-5.7498668489197"><ele>613.0</ele><time>2026-03-24T09:48:43.004Z</time></trkpt><trkpt lat="30.039655131724686" lon="-5.749810421781469"><ele>613.0</ele><time>2026-03-24T09:48:44.004Z</time></trkpt><trkpt lat="30.03973767023054" lon="-5.749762166602154"><ele>613.0</ele><time>2026-03-24T09:48:45.004Z</time></trkpt><trkpt lat="30.039811571080385" lon="-5.749714611559778"><ele>613.0</ele><time>2026-03-24T09:48:46.004Z</time></trkpt><trkpt lat="30.03987253557196" lon="-5.74967170788357"><ele>613.0</ele><time>2026-03-24T09:48:47.004Z</time></trkpt><trkpt lat="30.03994572674345" lon="-5.749609105399776"><ele>613.0</ele><time>2026-03-24T09:48:48.004Z</time></trkpt><trkpt lat="30.040033817904156" lon="-5.7495454308193255"><ele>613.0</ele><time>2026-03-24T09:48:49.004Z</time></trkpt><trkpt lat="30.04013151862279" lon="-5.74949691872977"><ele>613.0</ele><time>2026-03-24T09:48:50.004Z</time></trkpt><trkpt lat="30.040235324635002" lon="-5.749462815696927"><ele>613.0</ele><time>2026-03-24T09:48:51.004Z</time></trkpt><trkpt lat="30.040340264301758" lon="-5.749435540672168"><ele>613.1666666666667</ele><time>2026-03-24T09:48:52.004Z</time></trkpt><trkpt lat="30.04043389306899" lon="-5.749420619743678"><ele>613.3333333333334</ele><time>2026-03-24T09:48:53.004Z</time></trkpt><trkpt lat="30.040526836276825" lon="-5.749416428394306"><ele>613.5</ele><time>2026-03-24T09:48:54.004Z</time></trkpt><trkpt lat="30.040616035525613" lon="-5.749406481866007"><ele>613.6666666666666</ele><time>2026-03-24T09:48:55.004Z</time></trkpt><trkpt lat="30.040702773567222" lon="-5.749402762305259"><ele>613.8333333333333</ele><time>2026-03-24T09:48:56.004Z</time></trkpt><trkpt lat="30.040780424700053" lon="-5.749388645223087"><ele>614.0</ele><time>2026-03-24T09:48:57.004Z</time></trkpt><trkpt lat="30.040859106403797" lon="-5.74937468899487"><ele>614.2</ele><time>2026-03-24T09:48:58.004Z</time></trkpt><trkpt lat="30.040945343837457" lon="-5.749364778337997"><ele>614.4</ele><time>2026-03-24T09:48:59.004Z</time></trkpt><trkpt lat="30.041029373571426" lon="-5.74934908811233"><ele>614.6</ele><time>2026-03-24T09:49:00.004Z</time></trkpt><trkpt lat="30.04112442911938" lon="-5.749336693428279"><ele>614.8</ele><time>2026-03-24T09:49:01.004Z</time></trkpt><trkpt lat="30.041220042452775" lon="-5.749321566194142"><ele>615.0</ele><time>2026-03-24T09:49:02.004Z</time></trkpt><trkpt lat="30.041322534281484" lon="-5.749301901169695"><ele>615.0</ele><time>2026-03-24T09:49:03.004Z</time></trkpt><trkpt lat="30.04142445560572" lon="-5.749280141383714"><ele>615.0</ele><time>2026-03-24T09:49:04.004Z</time></trkpt><trkpt lat="30.04154224736275" lon="-5.749260891067265"><ele>615.0</ele><time>2026-03-24T09:49:05.004Z</time></trkpt><trkpt lat="30.04165041671833" lon="-5.749237275087117"><ele>615.0</ele><time>2026-03-24T09:49:06.004Z</time></trkpt><trkpt lat="30.04176024412022" lon="-5.749218187284902"><ele>615.0</ele><time>2026-03-24T09:49:07.004Z</time></trkpt><trkpt lat="30.041881502845392" lon="-5.74919328880263"><ele>615.5</ele><time>2026-03-24T09:49:08.004Z</time></trkpt><trkpt lat="30.042012335263962" lon="-5.749166678478719"><ele>616.0</ele><time>2026-03-24T09:49:09.004Z</time></trkpt><trkpt lat="30.042131670984215" lon="-5.749144874575402"><ele>616.5</ele><time>2026-03-24T09:49:10.004Z</time></trkpt><trkpt lat="30.04223810492122" lon="-5.749125701008413"><ele>617.0</ele><time>2026-03-24T09:49:11.004Z</time></trkpt><trkpt lat="30.04234459714396" lon="-5.749099447962953"><ele>617.0</ele><time>2026-03-24T09:49:12.004Z</time></trkpt><trkpt lat="30.042450570783476" lon="-5.749059526831895"><ele>617.0</ele><time>2026-03-24T09:49:13.004Z</time></trkpt><trkpt lat="30.04256834085319" lon="-5.748996385293432"><ele>617.0</ele><time>2026-03-24T09:49:14.004Z</time></trkpt><trkpt lat="30.0427088863233" lon="-5.7489280699393275"><ele>617.0</ele><time>2026-03-24T09:49:15.004Z</time></trkpt><trkpt lat="30.04285290131959" lon="-5.7488579462826035"><ele>616.75</ele><time>2026-03-24T09:49:16.004Z</time></trkpt><trkpt lat="30.04297303310016" lon="-5.748798423775742"><ele>616.5</ele><time>2026-03-24T09:49:17.004Z</time></trkpt><trkpt lat="30.043083675559654" lon="-5.748758865306755"><ele>616.25</ele><time>2026-03-24T09:49:18.004Z</time></trkpt><trkpt lat="30.043186082244777" lon="-5.748724372030137"><ele>616.0</ele><time>2026-03-24T09:49:19.004Z</time></trkpt><trkpt lat="30.04328321906885" lon="-5.748676602080636"><ele>616.25</ele><time>2026-03-24T09:49:20.004Z</time></trkpt><trkpt lat="30.043381859111367" lon="-5.748617843822751"><ele>616.5</ele><time>2026-03-24T09:49:21.004Z</time></trkpt><trkpt lat="30.043484134513875" lon="-5.7485696442160945"><ele>616.75</ele><time>2026-03-24T09:49:22.004Z</time></trkpt><trkpt lat="30.043585786458024" lon="-5.748510944543881"><ele>617.0</ele><time>2026-03-24T09:49:23.004Z</time></trkpt><trkpt lat="30.04368971343423" lon="-5.748448482430163"><ele>617.3333333333333</ele><time>2026-03-24T09:49:24.004Z</time></trkpt><trkpt lat="30.043784103655476" lon="-5.748387338234019"><ele>617.6666666666666</ele><time>2026-03-24T09:49:25.004Z</time></trkpt><trkpt lat="30.043858892860325" lon="-5.748338646880291"><ele>618.0</ele><time>2026-03-24T09:49:26.004Z</time></trkpt><trkpt lat="30.04391884557988" lon="-5.748297554792748"><ele>618.3333333333334</ele><time>2026-03-24T09:49:27.004Z</time></trkpt><trkpt lat="30.043988099862535" lon="-5.748258891365679"><ele>618.6666666666667</ele><time>2026-03-24T09:49:28.004Z</time></trkpt><trkpt lat="30.044055108214593" lon="-5.748222393777173"><ele>619.0</ele><time>2026-03-24T09:49:29.004Z</time></trkpt><trkpt lat="30.04412462481291" lon="-5.7481766859734496"><ele>619.0</ele><time>2026-03-24T09:49:30.004Z</time></trkpt><trkpt lat="30.044221136824735" lon="-5.748124566193542"><ele>619.0</ele><time>2026-03-24T09:49:31.004Z</time></trkpt><trkpt lat="30.0443039011441" lon="-5.7480746091666"><ele>619.0</ele><time>2026-03-24T09:49:32.004Z</time></trkpt><trkpt lat="30.044393420262804" lon="-5.748026804214226"><ele>619.0</ele><time>2026-03-24T09:49:33.004Z</time></trkpt><trkpt lat="30.044492956694114" lon="-5.747974032340082"><ele>619.0</ele><time>2026-03-24T09:49:34.004Z</time></trkpt><trkpt lat="30.044593706201056" lon="-5.747913965426616"><ele>619.0</ele><time>2026-03-24T09:49:35.004Z</time></trkpt><trkpt lat="30.044690051464322" lon="-5.74785206651818"><ele>619.0</ele><time>2026-03-24T09:49:36.004Z</time></trkpt><trkpt lat="30.044797877969156" lon="-5.747796277084885"><ele>619.0</ele><time>2026-03-24T09:49:37.004Z</time></trkpt><trkpt lat="30.044897792824976" lon="-5.747735515134787"><ele>619.0</ele><time>2026-03-24T09:49:38.004Z</time></trkpt><trkpt lat="30.044999065318425" lon="-5.7476721495073715"><ele>619.5</ele><time>2026-03-24T09:49:39.004Z</time></trkpt><trkpt lat="30.045107438459542" lon="-5.7476093848483005"><ele>620.0</ele><time>2026-03-24T09:49:40.004Z</time></trkpt><trkpt lat="30.045212644640852" lon="-5.7475381663250955"><ele>620.5</ele><time>2026-03-24T09:49:41.005Z</time></trkpt><trkpt lat="30.04532923212158" lon="-5.747467950848937"><ele>621.0</ele><time>2026-03-24T09:49:42.005Z</time></trkpt><trkpt lat="30.045448665605853" lon="-5.747399276170012"><ele>621.0</ele><time>2026-03-24T09:49:43.005Z</time></trkpt><trkpt lat="30.045558565292158" lon="-5.747329708796066"><ele>621.0</ele><time>2026-03-24T09:49:44.005Z</time></trkpt><trkpt lat="30.04566534079042" lon="-5.747263656490228"><ele>621.0</ele><time>2026-03-24T09:49:45.005Z</time></trkpt><trkpt lat="30.045771174541542" lon="-5.747200627268873"><ele>621.0</ele><time>2026-03-24T09:49:46.005Z</time></trkpt><trkpt lat="30.045860243283304" lon="-5.747144627012329"><ele>621.25</ele><time>2026-03-24T09:49:47.005Z</time></trkpt><trkpt lat="30.04595216410215" lon="-5.747070118683491"><ele>621.5</ele><time>2026-03-24T09:49:48.004Z</time></trkpt><trkpt lat="30.046053691527895" lon="-5.746997730298697"><ele>621.75</ele><time>2026-03-24T09:49:49.005Z</time></trkpt><trkpt lat="30.046157599489995" lon="-5.746917368461498"><ele>622.0</ele><time>2026-03-24T09:49:50.005Z</time></trkpt><trkpt lat="30.046261948554527" lon="-5.746833355142057"><ele>622.0</ele><time>2026-03-24T09:49:51.005Z</time></trkpt><trkpt lat="30.046369597087107" lon="-5.746748358192704"><ele>622.0</ele><time>2026-03-24T09:49:52.005Z</time></trkpt><trkpt lat="30.046477394675623" lon="-5.746646076391604"><ele>622.0</ele><time>2026-03-24T09:49:53.005Z</time></trkpt><trkpt lat="30.046592795207065" lon="-5.746537691733378"><ele>622.0</ele><time>2026-03-24T09:49:54.005Z</time></trkpt><trkpt lat="30.04670560203286" lon="-5.746434998436418"><ele>622.75</ele><time>2026-03-24T09:49:55.004Z</time></trkpt><trkpt lat="30.046817970207734" lon="-5.746332262889748"><ele>623.5</ele><time>2026-03-24T09:49:56.004Z</time></trkpt><trkpt lat="30.046928920544186" lon="-5.746224168499855"><ele>624.25</ele><time>2026-03-24T09:49:57.005Z</time></trkpt><trkpt lat="30.047035758250495" lon="-5.746111700510259"><ele>625.0</ele><time>2026-03-24T09:49:58.004Z</time></trkpt><trkpt lat="30.047148303970516" lon="-5.745995947009307"><ele>625.0</ele><time>2026-03-24T09:49:59.004Z</time></trkpt><trkpt lat="30.047231740523305" lon="-5.745881496615854"><ele>625.0</ele><time>2026-03-24T09:50:00.005Z</time></trkpt><trkpt lat="30.04731535393163" lon="-5.745760336406879"><ele>625.0</ele><time>2026-03-24T09:50:01.005Z</time></trkpt><trkpt lat="30.047389879887" lon="-5.745642415101116"><ele>625.0</ele><time>2026-03-24T09:50:02.005Z</time></trkpt><trkpt lat="30.04745737004201" lon="-5.745531125411985"><ele>625.25</ele><time>2026-03-24T09:50:03.005Z</time></trkpt><trkpt lat="30.047525406050504" lon="-5.745408986735101"><ele>625.5</ele><time>2026-03-24T09:50:04.005Z</time></trkpt><trkpt lat="30.047585063948183" lon="-5.745289575629532"><ele>625.75</ele><time>2026-03-24T09:50:05.005Z</time></trkpt><trkpt lat="30.047645034028236" lon="-5.745173892601782"><ele>626.0</ele><time>2026-03-24T09:50:06.005Z</time></trkpt><trkpt lat="30.047706640934848" lon="-5.745058510273711"><ele>626.0</ele><time>2026-03-24T09:50:07.005Z</time></trkpt><trkpt lat="30.047753780706703" lon="-5.744944138105177"><ele>626.0</ele><time>2026-03-24T09:50:08.005Z</time></trkpt><trkpt lat="30.047807736967304" lon="-5.744816074666973"><ele>626.0</ele><time>2026-03-24T09:50:09.005Z</time></trkpt><trkpt lat="30.04785497436822" lon="-5.744692372851039"><ele>626.0</ele><time>2026-03-24T09:50:10.005Z</time></trkpt><trkpt lat="30.047891520086594" lon="-5.744573985511659"><ele>626.0</ele><time>2026-03-24T09:50:11.005Z</time></trkpt><trkpt lat="30.047922560543153" lon="-5.744439688932211"><ele>626.0</ele><time>2026-03-24T09:50:12.005Z</time></trkpt><trkpt lat="30.04794677605901" lon="-5.744301459094686"><ele>626.0</ele><time>2026-03-24T09:50:13.005Z</time></trkpt><trkpt lat="30.047977044494303" lon="-5.744177746935103"><ele>626.0</ele><time>2026-03-24T09:50:14.005Z</time></trkpt><trkpt lat="30.04799826363341" lon="-5.744077599926482"><ele>626.0</ele><time>2026-03-24T09:50:15.005Z</time></trkpt><trkpt lat="30.048017374272412" lon="-5.743978380187831"><ele>626.0</ele><time>2026-03-24T09:50:16.005Z</time></trkpt><trkpt lat="30.048029307654737" lon="-5.743883014567506"><ele>626.0</ele><time>2026-03-24T09:50:17.005Z</time></trkpt><trkpt lat="30.048054343277887" lon="-5.743773238788516"><ele>626.0</ele><time>2026-03-24T09:50:18.005Z</time></trkpt><trkpt lat="30.048102661341357" lon="-5.743664055496395"><ele>626.0</ele><time>2026-03-24T09:50:19.005Z</time></trkpt><trkpt lat="30.048175360411218" lon="-5.743569747549274"><ele>626.0</ele><time>2026-03-24T09:50:20.005Z</time></trkpt><trkpt lat="30.048259316637342" lon="-5.743485240702088"><ele>626.25</ele><time>2026-03-24T09:50:21.005Z</time></trkpt><trkpt lat="30.0483602577844" lon="-5.743412673978363"><ele>626.5</ele><time>2026-03-24T09:50:22.005Z</time></trkpt><trkpt lat="30.04846336890408" lon="-5.743321607812539"><ele>626.75</ele><time>2026-03-24T09:50:23.005Z</time></trkpt><trkpt lat="30.048557969290478" lon="-5.7432226116506575"><ele>627.0</ele><time>2026-03-24T09:50:24.005Z</time></trkpt><trkpt lat="30.04864985867262" lon="-5.743135376066489"><ele>627.0</ele><time>2026-03-24T09:50:25.005Z</time></trkpt><trkpt lat="30.0487405749173" lon="-5.743047674085919"><ele>627.0</ele><time>2026-03-24T09:50:26.005Z</time></trkpt><trkpt lat="30.04882386825373" lon="-5.74296130558885"><ele>627.0</ele><time>2026-03-24T09:50:27.005Z</time></trkpt><trkpt lat="30.048920891506093" lon="-5.742873979943273"><ele>627.0</ele><time>2026-03-24T09:50:28.005Z</time></trkpt><trkpt lat="30.04900651133711" lon="-5.742778926851401"><ele>627.0</ele><time>2026-03-24T09:50:29.005Z</time></trkpt><trkpt lat="30.049094124458897" lon="-5.74268071651638"><ele>627.0</ele><time>2026-03-24T09:50:30.005Z</time></trkpt><trkpt lat="30.049188228771794" lon="-5.7425928411625025"><ele>627.0</ele><time>2026-03-24T09:50:31.005Z</time></trkpt><trkpt lat="30.049279238850495" lon="-5.742504297365967"><ele>627.0</ele><time>2026-03-24T09:50:32.005Z</time></trkpt><trkpt lat="30.04936907655342" lon="-5.742418884109648"><ele>627.75</ele><time>2026-03-24T09:50:33.005Z</time></trkpt><trkpt lat="30.049471906513308" lon="-5.742336553259709"><ele>628.5</ele><time>2026-03-24T09:50:34.005Z</time></trkpt><trkpt lat="30.049574403584778" lon="-5.74227042558874"><ele>629.25</ele><time>2026-03-24T09:50:35.005Z</time></trkpt><trkpt lat="30.049685459829192" lon="-5.742224291251544"><ele>630.0</ele><time>2026-03-24T09:50:36.005Z</time></trkpt><trkpt lat="30.049785095135178" lon="-5.742186060600058"><ele>630.0</ele><time>2026-03-24T09:50:37.005Z</time></trkpt><trkpt lat="30.04988057122505" lon="-5.742141799988456"><ele>630.0</ele><time>2026-03-24T09:50:38.005Z</time></trkpt><trkpt lat="30.049978732023103" lon="-5.74210034904072"><ele>630.0</ele><time>2026-03-24T09:50:39.005Z</time></trkpt><trkpt lat="30.05007662836414" lon="-5.74205924505213"><ele>630.0</ele><time>2026-03-24T09:50:40.005Z</time></trkpt><trkpt lat="30.050180432023478" lon="-5.742005827777798"><ele>630.0</ele><time>2026-03-24T09:50:41.005Z</time></trkpt><trkpt lat="30.05027888752752" lon="-5.741953360450405"><ele>630.2</ele><time>2026-03-24T09:50:42.005Z</time></trkpt><trkpt lat="30.050383370427507" lon="-5.741891347795802"><ele>630.4</ele><time>2026-03-24T09:50:43.005Z</time></trkpt><trkpt lat="30.050469915595148" lon="-5.741841290978169"><ele>630.6</ele><time>2026-03-24T09:50:44.005Z</time></trkpt><trkpt lat="30.05054641714395" lon="-5.741800051623622"><ele>630.8</ele><time>2026-03-24T09:50:45.005Z</time></trkpt><trkpt lat="30.050619799166054" lon="-5.741767642272021"><ele>631.0</ele><time>2026-03-24T09:50:46.005Z</time></trkpt><trkpt lat="30.0507076668803" lon="-5.74171895126224"><ele>631.0</ele><time>2026-03-24T09:50:47.005Z</time></trkpt><trkpt lat="30.05078593029982" lon="-5.741653648923802"><ele>631.0</ele><time>2026-03-24T09:50:48.005Z</time></trkpt><trkpt lat="30.050855589483117" lon="-5.741585747664788"><ele>631.0</ele><time>2026-03-24T09:50:49.005Z</time></trkpt><trkpt lat="30.05091704351263" lon="-5.7415058358129984"><ele>631.0</ele><time>2026-03-24T09:50:50.005Z</time></trkpt><trkpt lat="30.050978907409657" lon="-5.741436768865273"><ele>631.0</ele><time>2026-03-24T09:50:51.005Z</time></trkpt><trkpt lat="30.051038993125218" lon="-5.7413676093360255"><ele>632.2</ele><time>2026-03-24T09:50:52.005Z</time></trkpt><trkpt lat="30.051105666338113" lon="-5.741292683830923"><ele>633.4000000000001</ele><time>2026-03-24T09:50:53.005Z</time></trkpt><trkpt lat="30.051174945495934" lon="-5.741212224275568"><ele>634.6</ele><time>2026-03-24T09:50:54.005Z</time></trkpt><trkpt lat="30.051244020985983" lon="-5.741140886804144"><ele>635.8000000000001</ele><time>2026-03-24T09:50:55.005Z</time></trkpt><trkpt lat="30.05131892124354" lon="-5.741085593006092"><ele>637.0</ele><time>2026-03-24T09:50:56.005Z</time></trkpt><trkpt lat="30.0513971979641" lon="-5.741049854317424"><ele>637.1666666666667</ele><time>2026-03-24T09:50:57.005Z</time></trkpt><trkpt lat="30.051464852839256" lon="-5.741013822303224"><ele>637.3333333333334</ele><time>2026-03-24T09:50:58.005Z</time></trkpt><trkpt lat="30.051511530387494" lon="-5.740958010248331"><ele>637.5</ele><time>2026-03-24T09:50:59.005Z</time></trkpt><trkpt lat="30.05152360138094" lon="-5.740877084654999"><ele>637.6666666666666</ele><time>2026-03-24T09:51:00.005Z</time></trkpt><trkpt lat="30.05153812060058" lon="-5.7407943634031975"><ele>637.8333333333333</ele><time>2026-03-24T09:51:01.005Z</time></trkpt><trkpt lat="30.05159212237023" lon="-5.740742969553986"><ele>638.0</ele><time>2026-03-24T09:51:03.005Z</time></trkpt><trkpt lat="30.051688832822794" lon="-5.7406913142451"><ele>638.0</ele><time>2026-03-24T09:51:05.005Z</time></trkpt><trkpt lat="30.051722813422472" lon="-5.7406164917592175"><ele>638.0</ele><time>2026-03-24T09:51:06.005Z</time></trkpt><trkpt lat="30.0517456635093" lon="-5.740548710567351"><ele>638.0</ele><time>2026-03-24T09:51:07.005Z</time></trkpt><trkpt lat="30.051808924124952" lon="-5.74047812044429"><ele>638.0</ele><time>2026-03-24T09:51:09.005Z</time></trkpt><trkpt lat="30.05186596640407" lon="-5.740445935470375"><ele>638.0</ele><time>2026-03-24T09:51:10.005Z</time></trkpt><trkpt lat="30.05194633074445" lon="-5.740394830793978"><ele>638.0</ele><time>2026-03-24T09:51:11.005Z</time></trkpt><trkpt lat="30.052036547392543" lon="-5.7403442844321"><ele>638.0</ele><time>2026-03-24T09:51:12.005Z</time></trkpt><trkpt lat="30.052092262182807" lon="-5.74029531912605"><ele>638.0</ele><time>2026-03-24T09:51:13.005Z</time></trkpt><trkpt lat="30.052108949862887" lon="-5.740171937747273"><ele>638.0</ele><time>2026-03-24T09:51:15.005Z</time></trkpt><trkpt lat="30.052150883772185" lon="-5.740065150590119"><ele>638.0</ele><time>2026-03-24T09:51:17.005Z</time></trkpt><trkpt lat="30.05220335410403" lon="-5.7400220696029045"><ele>638.0</ele><time>2026-03-24T09:51:18.005Z</time></trkpt><trkpt lat="30.052266593797135" lon="-5.739982543950414"><ele>638.0</ele><time>2026-03-24T09:51:19.005Z</time></trkpt><trkpt lat="30.052340648247217" lon="-5.7399308665836735"><ele>637.6</ele><time>2026-03-24T09:51:20.005Z</time></trkpt><trkpt lat="30.05241607957881" lon="-5.739862028977131"><ele>637.1999999999999</ele><time>2026-03-24T09:51:21.005Z</time></trkpt><trkpt lat="30.052483816610923" lon="-5.739788718033491"><ele>636.8</ele><time>2026-03-24T09:51:22.005Z</time></trkpt><trkpt lat="30.052556316258435" lon="-5.739702999725575"><ele>636.4</ele><time>2026-03-24T09:51:23.005Z</time></trkpt><trkpt lat="30.052629320270178" lon="-5.739626916053533"><ele>636.0</ele><time>2026-03-24T09:51:24.005Z</time></trkpt><trkpt lat="30.052700408481222" lon="-5.739576625560936"><ele>636.0</ele><time>2026-03-24T09:51:25.005Z</time></trkpt><trkpt lat="30.05276755634968" lon="-5.73954102862885"><ele>636.0</ele><time>2026-03-24T09:51:26.005Z</time></trkpt><trkpt lat="30.052835885607536" lon="-5.7395153600522955"><ele>636.0</ele><time>2026-03-24T09:51:27.005Z</time></trkpt><trkpt lat="30.05291718009725" lon="-5.739486527821801"><ele>636.0</ele><time>2026-03-24T09:51:28.005Z</time></trkpt><trkpt lat="30.05299089839955" lon="-5.739463079190845"><ele>636.0</ele><time>2026-03-24T09:51:29.005Z</time></trkpt><trkpt lat="30.053122998160777" lon="-5.739452744855605"><ele>636.0</ele><time>2026-03-24T09:51:31.005Z</time></trkpt><trkpt lat="30.053230341903586" lon="-5.739450077875528"><ele>636.2</ele><time>2026-03-24T09:51:33.005Z</time></trkpt><trkpt lat="30.053371107569205" lon="-5.739434600043933"><ele>636.4000000000001</ele><time>2026-03-24T09:51:35.005Z</time></trkpt><trkpt lat="30.05345318285319" lon="-5.73942188252142"><ele>636.6</ele><time>2026-03-24T09:51:36.005Z</time></trkpt><trkpt lat="30.05353559382619" lon="-5.739419720323203"><ele>636.8000000000001</ele><time>2026-03-24T09:51:37.005Z</time></trkpt><trkpt lat="30.053629120027658" lon="-5.739405489335416"><ele>637.0</ele><time>2026-03-24T09:51:38.005Z</time></trkpt><trkpt lat="30.053718138534272" lon="-5.739382792030147"><ele>637.0</ele><time>2026-03-24T09:51:39.005Z</time></trkpt><trkpt lat="30.05379160191293" lon="-5.739360549625529"><ele>637.0</ele><time>2026-03-24T09:51:40.005Z</time></trkpt><trkpt lat="30.053865610535592" lon="-5.739339514549876"><ele>637.0</ele><time>2026-03-24T09:51:41.005Z</time></trkpt><trkpt lat="30.053928338105568" lon="-5.739305421950456"><ele>637.0</ele><time>2026-03-24T09:51:42.005Z</time></trkpt><trkpt lat="30.053980043162564" lon="-5.739250828652705"><ele>637.0</ele><time>2026-03-24T09:51:43.005Z</time></trkpt><trkpt lat="30.05401433461285" lon="-5.739180313844631"><ele>637.0</ele><time>2026-03-24T09:51:44.005Z</time></trkpt><trkpt lat="30.054029841989465" lon="-5.739071887992151"><ele>637.0</ele><time>2026-03-24T09:51:45.005Z</time></trkpt><trkpt lat="30.054067825847945" lon="-5.738958288606245"><ele>637.0</ele><time>2026-03-24T09:51:46.005Z</time></trkpt><trkpt lat="30.054126279426118" lon="-5.73888546929225"><ele>637.0</ele><time>2026-03-24T09:51:47.005Z</time></trkpt><trkpt lat="30.05419875953961" lon="-5.73883266555791"><ele>637.0</ele><time>2026-03-24T09:51:48.005Z</time></trkpt><trkpt lat="30.054283664509367" lon="-5.738775374250062"><ele>637.0</ele><time>2026-03-24T09:51:49.005Z</time></trkpt><trkpt lat="30.05435729803239" lon="-5.738724432081063"><ele>637.1666666666667</ele><time>2026-03-24T09:51:50.005Z</time></trkpt><trkpt lat="30.054427567189773" lon="-5.738665596015863"><ele>637.3333333333334</ele><time>2026-03-24T09:51:51.005Z</time></trkpt><trkpt lat="30.05448861978852" lon="-5.738595563279143"><ele>637.5</ele><time>2026-03-24T09:51:52.005Z</time></trkpt><trkpt lat="30.054543114683717" lon="-5.738521864590335"><ele>637.6666666666666</ele><time>2026-03-24T09:51:53.005Z</time></trkpt><trkpt lat="30.05460361654388" lon="-5.73845126233851"><ele>637.8333333333333</ele><time>2026-03-24T09:51:54.005Z</time></trkpt><trkpt lat="30.05467129763249" lon="-5.738376884452422"><ele>638.0</ele><time>2026-03-24T09:51:55.005Z</time></trkpt><trkpt lat="30.054751592191472" lon="-5.738301126124427"><ele>638.5</ele><time>2026-03-24T09:51:56.005Z</time></trkpt><trkpt lat="30.054846379270753" lon="-5.738221497089437"><ele>639.0</ele><time>2026-03-24T09:51:57.005Z</time></trkpt><trkpt lat="30.054972899215272" lon="-5.738117636144534"><ele>639.5</ele><time>2026-03-24T09:51:58.005Z</time></trkpt><trkpt lat="30.055105048703354" lon="-5.738022165414795"><ele>640.0</ele><time>2026-03-24T09:51:59.005Z</time></trkpt><trkpt lat="30.055227689602372" lon="-5.737940065107173"><ele>640.25</ele><time>2026-03-24T09:52:00.005Z</time></trkpt><trkpt lat="30.05534282468612" lon="-5.7378530886684285"><ele>640.5</ele><time>2026-03-24T09:52:01.005Z</time></trkpt><trkpt lat="30.05544780294601" lon="-5.737786894859416"><ele>640.75</ele><time>2026-03-24T09:52:02.005Z</time></trkpt><trkpt lat="30.05554425591593" lon="-5.737725396163718"><ele>641.0</ele><time>2026-03-24T09:52:03.005Z</time></trkpt><trkpt lat="30.05561755299549" lon="-5.737661304347995"><ele>641.0</ele><time>2026-03-24T09:52:04.005Z</time></trkpt><trkpt lat="30.0556818079158" lon="-5.737585283298195"><ele>641.0</ele><time>2026-03-24T09:52:05.005Z</time></trkpt><trkpt lat="30.055746477595086" lon="-5.7375167747823115"><ele>641.0</ele><time>2026-03-24T09:52:06.004Z</time></trkpt><trkpt lat="30.055816080506393" lon="-5.737461679824647"><ele>641.0</ele><time>2026-03-24T09:52:07.004Z</time></trkpt><trkpt lat="30.05589414100505" lon="-5.737401069215529"><ele>641.0</ele><time>2026-03-24T09:52:08.004Z</time></trkpt><trkpt lat="30.055983785755938" lon="-5.737335519039644"><ele>641.75</ele><time>2026-03-24T09:52:09.004Z</time></trkpt><trkpt lat="30.056083734904664" lon="-5.737261454978101"><ele>642.5</ele><time>2026-03-24T09:52:10.004Z</time></trkpt><trkpt lat="30.05618823224172" lon="-5.737171187516916"><ele>643.25</ele><time>2026-03-24T09:52:11.004Z</time></trkpt><trkpt lat="30.056285787942073" lon="-5.737104007033017"><ele>644.0</ele><time>2026-03-24T09:52:12.004Z</time></trkpt><trkpt lat="30.05637536596828" lon="-5.737043447976121"><ele>644.0</ele><time>2026-03-24T09:52:13.004Z</time></trkpt><trkpt lat="30.05647492755515" lon="-5.736975046229846"><ele>644.0</ele><time>2026-03-24T09:52:14.004Z</time></trkpt><trkpt lat="30.05657765085581" lon="-5.736913041798929"><ele>644.0</ele><time>2026-03-24T09:52:15.004Z</time></trkpt><trkpt lat="30.056682804604336" lon="-5.73684821851568"><ele>644.0</ele><time>2026-03-24T09:52:16.004Z</time></trkpt><trkpt lat="30.056785650066185" lon="-5.736778778053323"><ele>644.5</ele><time>2026-03-24T09:52:17.004Z</time></trkpt><trkpt lat="30.05688864505361" lon="-5.736696380927573"><ele>645.0</ele><time>2026-03-24T09:52:18.004Z</time></trkpt><trkpt lat="30.056983577048975" lon="-5.736621407013711"><ele>645.5</ele><time>2026-03-24T09:52:19.004Z</time></trkpt><trkpt lat="30.05707691932324" lon="-5.736551456837967"><ele>646.0</ele><time>2026-03-24T09:52:20.004Z</time></trkpt><trkpt lat="30.057167408487366" lon="-5.736484621317872"><ele>646.0</ele><time>2026-03-24T09:52:21.004Z</time></trkpt><trkpt lat="30.057248701342253" lon="-5.736419654462546"><ele>646.0</ele><time>2026-03-24T09:52:22.004Z</time></trkpt><trkpt lat="30.05733345996143" lon="-5.73635166494348"><ele>646.0</ele><time>2026-03-24T09:52:23.004Z</time></trkpt><trkpt lat="30.05742361204875" lon="-5.736279773430714"><ele>646.0</ele><time>2026-03-24T09:52:24.004Z</time></trkpt><trkpt lat="30.057516543828378" lon="-5.736212034404096"><ele>646.0</ele><time>2026-03-24T09:52:25.004Z</time></trkpt><trkpt lat="30.05762316361591" lon="-5.736133404087914"><ele>647.0</ele><time>2026-03-24T09:52:26.004Z</time></trkpt><trkpt lat="30.057730631639988" lon="-5.7360429333114"><ele>648.0</ele><time>2026-03-24T09:52:27.004Z</time></trkpt><trkpt lat="30.057845551304393" lon="-5.735947063236601"><ele>649.0</ele><time>2026-03-24T09:52:28.004Z</time></trkpt><trkpt lat="30.057952824795034" lon="-5.735849957188944"><ele>650.0</ele><time>2026-03-24T09:52:29.004Z</time></trkpt><trkpt lat="30.058062189859665" lon="-5.735760008508046"><ele>650.0</ele><time>2026-03-24T09:52:30.004Z</time></trkpt><trkpt lat="30.058179492980155" lon="-5.7356687597647555"><ele>650.0</ele><time>2026-03-24T09:52:31.004Z</time></trkpt><trkpt lat="30.058291698682535" lon="-5.735575055830537"><ele>650.0</ele><time>2026-03-24T09:52:32.004Z</time></trkpt><trkpt lat="30.05839859003685" lon="-5.735487177502248"><ele>650.0</ele><time>2026-03-24T09:52:33.004Z</time></trkpt><trkpt lat="30.058498714175823" lon="-5.735402280442914"><ele>650.25</ele><time>2026-03-24T09:52:34.004Z</time></trkpt><trkpt lat="30.058600439651837" lon="-5.735319807743407"><ele>650.5</ele><time>2026-03-24T09:52:35.004Z</time></trkpt><trkpt lat="30.058707036729583" lon="-5.735239593927092"><ele>650.75</ele><time>2026-03-24T09:52:36.004Z</time></trkpt><trkpt lat="30.058809414009584" lon="-5.735153880197591"><ele>651.0</ele><time>2026-03-24T09:52:37.004Z</time></trkpt><trkpt lat="30.058907951871518" lon="-5.735068501139921"><ele>651.25</ele><time>2026-03-24T09:52:38.004Z</time></trkpt><trkpt lat="30.059005234232902" lon="-5.734986522208543"><ele>651.5</ele><time>2026-03-24T09:52:39.004Z</time></trkpt><trkpt lat="30.059090464852744" lon="-5.7349049382086275"><ele>651.75</ele><time>2026-03-24T09:52:40.004Z</time></trkpt><trkpt lat="30.05917525056846" lon="-5.734822732066996"><ele>652.0</ele><time>2026-03-24T09:52:41.004Z</time></trkpt><trkpt lat="30.059264206984523" lon="-5.734740081935467"><ele>652.4000000000001</ele><time>2026-03-24T09:52:42.004Z</time></trkpt><trkpt lat="30.059348489112047" lon="-5.734663544313891"><ele>652.8000000000001</ele><time>2026-03-24T09:52:43.004Z</time></trkpt><trkpt lat="30.05943336859668" lon="-5.734584983604795"><ele>653.2</ele><time>2026-03-24T09:52:44.004Z</time></trkpt><trkpt lat="30.059504243059965" lon="-5.734520335155399"><ele>653.6</ele><time>2026-03-24T09:52:45.004Z</time></trkpt><trkpt lat="30.059561707514376" lon="-5.734455319701631"><ele>654.0</ele><time>2026-03-24T09:52:46.004Z</time></trkpt><trkpt lat="30.05960588771826" lon="-5.734380878266827"><ele>654.0</ele><time>2026-03-24T09:52:47.004Z</time></trkpt><trkpt lat="30.059634249478723" lon="-5.734303246604708"><ele>654.0</ele><time>2026-03-24T09:52:48.004Z</time></trkpt><trkpt lat="30.059653832155824" lon="-5.734227074825759"><ele>654.0</ele><time>2026-03-24T09:52:49.004Z</time></trkpt><trkpt lat="30.059679438821796" lon="-5.7341596601471085"><ele>654.0</ele><time>2026-03-24T09:52:50.004Z</time></trkpt><trkpt lat="30.059768682370276" lon="-5.734086349583509"><ele>654.0</ele><time>2026-03-24T09:52:52.004Z</time></trkpt><trkpt lat="30.059784371924426" lon="-5.734014221475906"><ele>654.0</ele><time>2026-03-24T09:52:55.004Z</time></trkpt><trkpt lat="30.059744037275095" lon="-5.7339473142971515"><ele>654.0</ele><time>2026-03-24T09:54:21.004Z</time></trkpt><trkpt lat="30.059719626119342" lon="-5.73384218408252"><ele>654.0</ele><time>2026-03-24T09:54:23.004Z</time></trkpt><trkpt lat="30.05970029084678" lon="-5.733755861293529"><ele>654.0</ele><time>2026-03-24T09:54:25.004Z</time></trkpt><trkpt lat="30.059677704786512" lon="-5.733675047842677"><ele>654.0</ele><time>2026-03-24T09:54:27.004Z</time></trkpt><trkpt lat="30.059653815421218" lon="-5.733576735066045"><ele>654.0</ele><time>2026-03-24T09:54:30.004Z</time></trkpt><trkpt lat="30.059644158995372" lon="-5.733498499599163"><ele>654.0</ele><time>2026-03-24T09:55:48.004Z</time></trkpt><trkpt lat="30.05962847484651" lon="-5.733425628016399"><ele>654.4000000000001</ele><time>2026-03-24T09:55:49.004Z</time></trkpt><trkpt lat="30.059607193837277" lon="-5.733337163818316"><ele>654.8</ele><time>2026-03-24T09:55:50.004Z</time></trkpt><trkpt lat="30.05958489583083" lon="-5.733226915343391"><ele>655.2</ele><time>2026-03-24T09:55:51.004Z</time></trkpt><trkpt lat="30.059562879865158" lon="-5.733096086269325"><ele>655.5999999999999</ele><time>2026-03-24T09:55:52.004Z</time></trkpt><trkpt lat="30.059540947973126" lon="-5.732967641502705"><ele>656.0</ele><time>2026-03-24T09:55:53.004Z</time></trkpt><trkpt lat="30.05951866467655" lon="-5.73285776283164"><ele>656.0</ele><time>2026-03-24T09:55:54.004Z</time></trkpt><trkpt lat="30.0594938581499" lon="-5.732739060411625"><ele>656.0</ele><time>2026-03-24T09:55:55.004Z</time></trkpt><trkpt lat="30.05946522634762" lon="-5.732606329548177"><ele>656.0</ele><time>2026-03-24T09:55:56.004Z</time></trkpt><trkpt lat="30.05943454018165" lon="-5.732463484004654"><ele>656.0</ele><time>2026-03-24T09:55:57.004Z</time></trkpt><trkpt lat="30.059398567518425" lon="-5.732324389828659"><ele>657.5</ele><time>2026-03-24T09:55:58.004Z</time></trkpt><trkpt lat="30.05935908440171" lon="-5.732170741083805"><ele>659.0</ele><time>2026-03-24T09:55:59.004Z</time></trkpt><trkpt lat="30.059324913103413" lon="-5.732021842827302"><ele>660.5</ele><time>2026-03-24T09:56:00.004Z</time></trkpt><trkpt lat="30.059288001480176" lon="-5.7318596684024365"><ele>662.0</ele><time>2026-03-24T09:56:01.004Z</time></trkpt><trkpt lat="30.059257247692962" lon="-5.731697177782025"><ele>663.75</ele><time>2026-03-24T09:56:02.004Z</time></trkpt><trkpt lat="30.059220158184953" lon="-5.731533320462378"><ele>665.5</ele><time>2026-03-24T09:56:03.004Z</time></trkpt><trkpt lat="30.05918215287796" lon="-5.731373728401714"><ele>667.25</ele><time>2026-03-24T09:56:04.004Z</time></trkpt><trkpt lat="30.059139541012033" lon="-5.731203997837668"><ele>669.0</ele><time>2026-03-24T09:56:05.004Z</time></trkpt><trkpt lat="30.05909757421767" lon="-5.73102724523908"><ele>670.3333333333334</ele><time>2026-03-24T09:56:06.005Z</time></trkpt><trkpt lat="30.05905144041533" lon="-5.73085285696604"><ele>671.6666666666667</ele><time>2026-03-24T09:56:07.005Z</time></trkpt><trkpt lat="30.05900713151128" lon="-5.730674682448759"><ele>673.0</ele><time>2026-03-24T09:56:08.005Z</time></trkpt><trkpt lat="30.058967994170867" lon="-5.730511030601909"><ele>673.0</ele><time>2026-03-24T09:56:09.005Z</time></trkpt><trkpt lat="30.05892953979056" lon="-5.730352290731707"><ele>673.0</ele><time>2026-03-24T09:56:10.005Z</time></trkpt><trkpt lat="30.058892675607726" lon="-5.730189422004783"><ele>673.0</ele><time>2026-03-24T09:56:11.005Z</time></trkpt><trkpt lat="30.058854795407242" lon="-5.730036366278482"><ele>673.0</ele><time>2026-03-24T09:56:12.005Z</time></trkpt><trkpt lat="30.058813743287896" lon="-5.729870876501344"><ele>673.3333333333334</ele><time>2026-03-24T09:56:13.005Z</time></trkpt><trkpt lat="30.05876659514124" lon="-5.729707560124332"><ele>673.6666666666666</ele><time>2026-03-24T09:56:14.005Z</time></trkpt><trkpt lat="30.058697927584983" lon="-5.729534854695839"><ele>674.0</ele><time>2026-03-24T09:56:15.005Z</time></trkpt><trkpt lat="30.058627924811034" lon="-5.729357644295962"><ele>674.3333333333333</ele><time>2026-03-24T09:56:16.004Z</time></trkpt><trkpt lat="30.05856098431109" lon="-5.7291814615909695"><ele>674.6666666666666</ele><time>2026-03-24T09:56:17.004Z</time></trkpt><trkpt lat="30.058493312136036" lon="-5.729006294311194"><ele>675.0</ele><time>2026-03-24T09:56:18.004Z</time></trkpt><trkpt lat="30.058423946078385" lon="-5.728817941510601"><ele>675.0</ele><time>2026-03-24T09:56:19.005Z</time></trkpt><trkpt lat="30.05837069011344" lon="-5.728629345165659"><ele>675.0</ele><time>2026-03-24T09:56:20.005Z</time></trkpt><trkpt lat="30.05831456226602" lon="-5.728435814478087"><ele>675.0</ele><time>2026-03-24T09:56:21.005Z</time></trkpt><trkpt lat="30.05826284191513" lon="-5.728247431678939"><ele>675.6666666666666</ele><time>2026-03-24T09:56:22.005Z</time></trkpt><trkpt lat="30.058202505029485" lon="-5.728053274514267"><ele>676.3333333333333</ele><time>2026-03-24T09:56:23.005Z</time></trkpt><trkpt lat="30.058146328466567" lon="-5.727873895439073"><ele>677.0</ele><time>2026-03-24T09:56:24.005Z</time></trkpt><trkpt lat="30.05808664555519" lon="-5.727707444354192"><ele>677.5</ele><time>2026-03-24T09:56:25.005Z</time></trkpt><trkpt lat="30.058027919879418" lon="-5.727544558787206"><ele>678.0</ele><time>2026-03-24T09:56:26.005Z</time></trkpt><trkpt lat="30.05797210153928" lon="-5.727381994640348"><ele>678.5</ele><time>2026-03-24T09:56:27.005Z</time></trkpt><trkpt lat="30.057919454050314" lon="-5.727226344149637"><ele>679.0</ele><time>2026-03-24T09:56:28.005Z</time></trkpt><trkpt lat="30.05785468521247" lon="-5.727061016896798"><ele>677.6666666666667</ele><time>2026-03-24T09:56:29.005Z</time></trkpt><trkpt lat="30.05778242986822" lon="-5.726889238712133"><ele>676.3333333333334</ele><time>2026-03-24T09:56:30.005Z</time></trkpt><trkpt lat="30.05770439446477" lon="-5.726708163427009"><ele>675.0</ele><time>2026-03-24T09:56:31.005Z</time></trkpt><trkpt lat="30.05762442237169" lon="-5.726527728066581"><ele>675.0</ele><time>2026-03-24T09:56:32.005Z</time></trkpt><trkpt lat="30.05754904347258" lon="-5.72635529412483"><ele>675.0</ele><time>2026-03-24T09:56:33.005Z</time></trkpt><trkpt lat="30.057477042037153" lon="-5.726186126581644"><ele>675.0</ele><time>2026-03-24T09:56:34.005Z</time></trkpt><trkpt lat="30.05740072739573" lon="-5.726007703426631"><ele>674.6666666666666</ele><time>2026-03-24T09:56:35.005Z</time></trkpt><trkpt lat="30.057326743530652" lon="-5.725824749119771"><ele>674.3333333333333</ele><time>2026-03-24T09:56:36.005Z</time></trkpt><trkpt lat="30.057252282409497" lon="-5.725629185814696"><ele>674.0</ele><time>2026-03-24T09:56:37.005Z</time></trkpt><trkpt lat="30.057181725554944" lon="-5.725417509567788"><ele>674.6666666666666</ele><time>2026-03-24T09:56:38.005Z</time></trkpt><trkpt lat="30.05711574043548" lon="-5.725213783730564"><ele>675.3333333333334</ele><time>2026-03-24T09:56:39.005Z</time></trkpt><trkpt lat="30.057056981179276" lon="-5.725009697676795"><ele>676.0</ele><time>2026-03-24T09:56:40.005Z</time></trkpt><trkpt lat="30.05699808068029" lon="-5.7248032075447215"><ele>676.0</ele><time>2026-03-24T09:56:41.005Z</time></trkpt><trkpt lat="30.056942173827448" lon="-5.724602301654539"><ele>676.0</ele><time>2026-03-24T09:56:42.005Z</time></trkpt><trkpt lat="30.0568878250286" lon="-5.724402101611077"><ele>676.0</ele><time>2026-03-24T09:56:43.005Z</time></trkpt><trkpt lat="30.056837550152032" lon="-5.724198844034662"><ele>676.6666666666667</ele><time>2026-03-24T09:56:44.005Z</time></trkpt><trkpt lat="30.056789240795172" lon="-5.724001136924467"><ele>677.3333333333334</ele><time>2026-03-24T09:56:45.005Z</time></trkpt><trkpt lat="30.056741099954937" lon="-5.723797325637465"><ele>678.0</ele><time>2026-03-24T09:56:46.005Z</time></trkpt><trkpt lat="30.056691764299433" lon="-5.723587230795736"><ele>678.6666666666666</ele><time>2026-03-24T09:56:47.005Z</time></trkpt><trkpt lat="30.056644828890455" lon="-5.723372452880616"><ele>679.3333333333333</ele><time>2026-03-24T09:56:48.005Z</time></trkpt><trkpt lat="30.05659839104665" lon="-5.7231522280036335"><ele>680.0</ele><time>2026-03-24T09:56:49.005Z</time></trkpt><trkpt lat="30.05655082276468" lon="-5.7229409773041695"><ele>680.3333333333333</ele><time>2026-03-24T09:56:50.005Z</time></trkpt><trkpt lat="30.05650324090578" lon="-5.722736896640002"><ele>680.6666666666666</ele><time>2026-03-24T09:56:51.005Z</time></trkpt><trkpt lat="30.056455887269674" lon="-5.722535088947446"><ele>681.0</ele><time>2026-03-24T09:56:52.005Z</time></trkpt><trkpt lat="30.05640974006682" lon="-5.722343725938229"><ele>681.0</ele><time>2026-03-24T09:56:53.005Z</time></trkpt><trkpt lat="30.056347901254814" lon="-5.722141981668001"><ele>681.0</ele><time>2026-03-24T09:56:54.005Z</time></trkpt><trkpt lat="30.056283670244767" lon="-5.721932263169959"><ele>681.0</ele><time>2026-03-24T09:56:55.005Z</time></trkpt><trkpt lat="30.056221032045684" lon="-5.721714759702907"><ele>680.0</ele><time>2026-03-24T09:56:56.005Z</time></trkpt><trkpt lat="30.056159421379085" lon="-5.721497716098393"><ele>679.0</ele><time>2026-03-24T09:56:57.005Z</time></trkpt><trkpt lat="30.056102442849966" lon="-5.721287633818551"><ele>678.0</ele><time>2026-03-24T09:56:58.005Z</time></trkpt><trkpt lat="30.056043608879737" lon="-5.721077700106834"><ele>676.6666666666666</ele><time>2026-03-24T09:56:59.005Z</time></trkpt><trkpt lat="30.055988646270546" lon="-5.720877451375132"><ele>675.3333333333333</ele><time>2026-03-24T09:57:00.005Z</time></trkpt><trkpt lat="30.055935655500203" lon="-5.720673599455475"><ele>674.0</ele><time>2026-03-24T09:57:01.005Z</time></trkpt><trkpt lat="30.055882937161698" lon="-5.720468427371205"><ele>674.0</ele><time>2026-03-24T09:57:02.005Z</time></trkpt><trkpt lat="30.05583060750728" lon="-5.7202539165449355"><ele>674.0</ele><time>2026-03-24T09:57:03.005Z</time></trkpt><trkpt lat="30.055777514279146" lon="-5.72002634866954"><ele>674.0</ele><time>2026-03-24T09:57:04.005Z</time></trkpt><trkpt lat="30.05573188624139" lon="-5.7198233456015055"><ele>674.25</ele><time>2026-03-24T09:57:05.005Z</time></trkpt><trkpt lat="30.055687549669592" lon="-5.71965886737578"><ele>674.5</ele><time>2026-03-24T09:57:06.005Z</time></trkpt><trkpt lat="30.05564189024364" lon="-5.719514720199092"><ele>674.75</ele><time>2026-03-24T09:57:07.005Z</time></trkpt><trkpt lat="30.055607188276454" lon="-5.719390778137563"><ele>675.0</ele><time>2026-03-24T09:57:08.005Z</time></trkpt><trkpt lat="30.05556317809252" lon="-5.719250469234853"><ele>675.0</ele><time>2026-03-24T09:57:09.005Z</time></trkpt><trkpt lat="30.055529948360288" lon="-5.719106088408177"><ele>675.0</ele><time>2026-03-24T09:57:10.005Z</time></trkpt><trkpt lat="30.055494860825007" lon="-5.718984444333639"><ele>675.0</ele><time>2026-03-24T09:57:11.005Z</time></trkpt><trkpt lat="30.05546359727567" lon="-5.718882393908782"><ele>675.0</ele><time>2026-03-24T09:57:12.005Z</time></trkpt><trkpt lat="30.05543059073943" lon="-5.7187905438444675"><ele>675.0</ele><time>2026-03-24T09:57:13.005Z</time></trkpt><trkpt lat="30.055409535562053" lon="-5.718700162363753"><ele>675.0</ele><time>2026-03-24T09:57:14.005Z</time></trkpt><trkpt lat="30.055385276085737" lon="-5.7186052779630625"><ele>675.0</ele><time>2026-03-24T09:57:15.005Z</time></trkpt><trkpt lat="30.055366055343868" lon="-5.718516405432626"><ele>675.0</ele><time>2026-03-24T09:57:16.005Z</time></trkpt><trkpt lat="30.055337939466007" lon="-5.718437407971703"><ele>675.0</ele><time>2026-03-24T09:57:17.005Z</time></trkpt><trkpt lat="30.055314791187424" lon="-5.718357865583425"><ele>675.0</ele><time>2026-03-24T09:57:18.005Z</time></trkpt><trkpt lat="30.055292097086262" lon="-5.718282480148348"><ele>675.0</ele><time>2026-03-24T09:57:19.005Z</time></trkpt><trkpt lat="30.055264612137698" lon="-5.718197287790966"><ele>674.75</ele><time>2026-03-24T09:57:20.005Z</time></trkpt><trkpt lat="30.055244745357633" lon="-5.718088911881055"><ele>674.5</ele><time>2026-03-24T09:57:21.005Z</time></trkpt><trkpt lat="30.055221578518136" lon="-5.717963982590087"><ele>674.25</ele><time>2026-03-24T09:57:22.005Z</time></trkpt><trkpt lat="30.055199435503745" lon="-5.7178222559480325"><ele>674.0</ele><time>2026-03-24T09:57:23.005Z</time></trkpt><trkpt lat="30.05517755962917" lon="-5.7176826176258855"><ele>673.5</ele><time>2026-03-24T09:57:24.005Z</time></trkpt><trkpt lat="30.055143857663253" lon="-5.717528618791139"><ele>673.0</ele><time>2026-03-24T09:57:25.005Z</time></trkpt><trkpt lat="30.05510763946385" lon="-5.717357437046349"><ele>672.5</ele><time>2026-03-24T09:57:26.005Z</time></trkpt><trkpt lat="30.055070108815894" lon="-5.717182577094278"><ele>672.0</ele><time>2026-03-24T09:57:27.005Z</time></trkpt><trkpt lat="30.055028616556882" lon="-5.717001299313091"><ele>672.6666666666666</ele><time>2026-03-24T09:57:28.005Z</time></trkpt><trkpt lat="30.054991873067976" lon="-5.716825843477159"><ele>673.3333333333333</ele><time>2026-03-24T09:57:29.005Z</time></trkpt><trkpt lat="30.05496103162825" lon="-5.71666772487516"><ele>674.0</ele><time>2026-03-24T09:57:30.005Z</time></trkpt><trkpt lat="30.05492615860923" lon="-5.716492647772239"><ele>674.0</ele><time>2026-03-24T09:57:31.005Z</time></trkpt><trkpt lat="30.054887667936995" lon="-5.71631694868315"><ele>674.0</ele><time>2026-03-24T09:57:32.005Z</time></trkpt><trkpt lat="30.054852250052104" lon="-5.716134428016572"><ele>674.0</ele><time>2026-03-24T09:57:33.005Z</time></trkpt><trkpt lat="30.054820483439638" lon="-5.715952714225318"><ele>674.0</ele><time>2026-03-24T09:57:34.005Z</time></trkpt><trkpt lat="30.05478905639025" lon="-5.715774999470571"><ele>674.0</ele><time>2026-03-24T09:57:35.005Z</time></trkpt><trkpt lat="30.054756137278822" lon="-5.71559775320182"><ele>674.0</ele><time>2026-03-24T09:57:36.005Z</time></trkpt><trkpt lat="30.05472453033753" lon="-5.715416263977511"><ele>674.0</ele><time>2026-03-24T09:57:37.005Z</time></trkpt><trkpt lat="30.054679915731604" lon="-5.7152479259112265"><ele>674.0</ele><time>2026-03-24T09:57:38.005Z</time></trkpt><trkpt lat="30.05461540019577" lon="-5.715083075119593"><ele>674.0</ele><time>2026-03-24T09:57:39.005Z</time></trkpt><trkpt lat="30.054543792465683" lon="-5.71492067805086"><ele>673.6666666666666</ele><time>2026-03-24T09:57:40.005Z</time></trkpt><trkpt lat="30.054470861158066" lon="-5.714748835873734"><ele>673.3333333333334</ele><time>2026-03-24T09:57:41.005Z</time></trkpt><trkpt lat="30.05439649334219" lon="-5.714580728817635"><ele>673.0</ele><time>2026-03-24T09:57:42.005Z</time></trkpt><trkpt lat="30.054316270096763" lon="-5.71440270633024"><ele>672.6666666666667</ele><time>2026-03-24T09:57:43.005Z</time></trkpt><trkpt lat="30.05424369148224" lon="-5.714222892075527"><ele>672.3333333333334</ele><time>2026-03-24T09:57:44.005Z</time></trkpt><trkpt lat="30.05417455244206" lon="-5.7140372671816495"><ele>672.0</ele><time>2026-03-24T09:57:45.005Z</time></trkpt><trkpt lat="30.054100348559466" lon="-5.713848917742211"><ele>672.0</ele><time>2026-03-24T09:57:46.005Z</time></trkpt><trkpt lat="30.054029957171053" lon="-5.713660375524673"><ele>672.0</ele><time>2026-03-24T09:57:47.005Z</time></trkpt><trkpt lat="30.05395330454663" lon="-5.713476535278167"><ele>672.0</ele><time>2026-03-24T09:57:48.005Z</time></trkpt><trkpt lat="30.053878120797286" lon="-5.71330408973059"><ele>672.3333333333334</ele><time>2026-03-24T09:57:49.005Z</time></trkpt><trkpt lat="30.05381305085459" lon="-5.713139915918904"><ele>672.6666666666667</ele><time>2026-03-24T09:57:50.005Z</time></trkpt><trkpt lat="30.05374442850324" lon="-5.71297128661096"><ele>673.0</ele><time>2026-03-24T09:57:51.005Z</time></trkpt><trkpt lat="30.05367671498117" lon="-5.712809681256409"><ele>672.3333333333334</ele><time>2026-03-24T09:57:52.005Z</time></trkpt><trkpt lat="30.053603000692284" lon="-5.712634908198438"><ele>671.6666666666666</ele><time>2026-03-24T09:57:53.005Z</time></trkpt><trkpt lat="30.05353509335086" lon="-5.712459630317573"><ele>671.0</ele><time>2026-03-24T09:57:54.005Z</time></trkpt><trkpt lat="30.05347700947419" lon="-5.7122825095488245"><ele>671.0</ele><time>2026-03-24T09:57:55.005Z</time></trkpt><trkpt lat="30.053429111871818" lon="-5.712113138763032"><ele>671.0</ele><time>2026-03-24T09:57:56.005Z</time></trkpt><trkpt lat="30.05339140193471" lon="-5.711950017460077"><ele>671.0</ele><time>2026-03-24T09:57:57.005Z</time></trkpt><trkpt lat="30.053367967136236" lon="-5.711793932528253"><ele>671.0</ele><time>2026-03-24T09:57:58.005Z</time></trkpt><trkpt lat="30.053347074435358" lon="-5.711616918111317"><ele>670.6666666666666</ele><time>2026-03-24T09:57:59.005Z</time></trkpt><trkpt lat="30.053324988165283" lon="-5.711439126643523"><ele>670.3333333333334</ele><time>2026-03-24T09:58:00.005Z</time></trkpt><trkpt lat="30.05329036994686" lon="-5.711257042012438"><ele>670.0</ele><time>2026-03-24T09:58:01.005Z</time></trkpt><trkpt lat="30.05323529440426" lon="-5.71108319560537"><ele>670.3333333333334</ele><time>2026-03-24T09:58:02.005Z</time></trkpt><trkpt lat="30.053178159616795" lon="-5.710911343896379"><ele>670.6666666666666</ele><time>2026-03-24T09:58:03.005Z</time></trkpt><trkpt lat="30.053114453057674" lon="-5.7107428883477676"><ele>671.0</ele><time>2026-03-24T09:58:04.005Z</time></trkpt><trkpt lat="30.0530484452703" lon="-5.7105778367206765"><ele>671.0</ele><time>2026-03-24T09:58:05.005Z</time></trkpt><trkpt lat="30.05298603097158" lon="-5.7104219354479175"><ele>671.0</ele><time>2026-03-24T09:58:06.005Z</time></trkpt><trkpt lat="30.052922013172505" lon="-5.710246113466449"><ele>671.0</ele><time>2026-03-24T09:58:07.005Z</time></trkpt><trkpt lat="30.0528551508074" lon="-5.710066287352343"><ele>671.0</ele><time>2026-03-24T09:58:08.005Z</time></trkpt><trkpt lat="30.0527855573995" lon="-5.709890760263406"><ele>671.0</ele><time>2026-03-24T09:58:09.005Z</time></trkpt><trkpt lat="30.052708008903878" lon="-5.709715237463955"><ele>671.0</ele><time>2026-03-24T09:58:10.005Z</time></trkpt><trkpt lat="30.052621595382703" lon="-5.70955299059345"><ele>670.6666666666666</ele><time>2026-03-24T09:58:11.005Z</time></trkpt><trkpt lat="30.052534512709272" lon="-5.7093950429623845"><ele>670.3333333333334</ele><time>2026-03-24T09:58:12.005Z</time></trkpt><trkpt lat="30.052446763334157" lon="-5.709235167046388"><ele>670.0</ele><time>2026-03-24T09:58:13.004Z</time></trkpt><trkpt lat="30.05236619725244" lon="-5.709078774037681"><ele>670.0</ele><time>2026-03-24T09:58:14.004Z</time></trkpt><trkpt lat="30.052291496628335" lon="-5.708907966701471"><ele>670.0</ele><time>2026-03-24T09:58:15.004Z</time></trkpt><trkpt lat="30.05223495738083" lon="-5.708726760029344"><ele>670.0</ele><time>2026-03-24T09:58:16.005Z</time></trkpt><trkpt lat="30.05219900398636" lon="-5.708538129383381"><ele>670.3333333333334</ele><time>2026-03-24T09:58:17.005Z</time></trkpt><trkpt lat="30.052173747516267" lon="-5.708353858063597"><ele>670.6666666666666</ele><time>2026-03-24T09:58:18.005Z</time></trkpt><trkpt lat="30.052142728294687" lon="-5.708171128037502"><ele>671.0</ele><time>2026-03-24T09:58:19.004Z</time></trkpt><trkpt lat="30.052105351963295" lon="-5.7079770421332405"><ele>671.0</ele><time>2026-03-24T09:58:20.004Z</time></trkpt><trkpt lat="30.05206326804887" lon="-5.70778626425603"><ele>671.0</ele><time>2026-03-24T09:58:21.004Z</time></trkpt><trkpt lat="30.052022413849482" lon="-5.707606313179512"><ele>671.0</ele><time>2026-03-24T09:58:22.004Z</time></trkpt><trkpt lat="30.05196408929661" lon="-5.707427920642832"><ele>671.0</ele><time>2026-03-24T09:58:23.004Z</time></trkpt><trkpt lat="30.051895991862764" lon="-5.707254866053952"><ele>671.0</ele><time>2026-03-24T09:58:24.005Z</time></trkpt><trkpt lat="30.051826635731178" lon="-5.7070925403664665"><ele>671.0</ele><time>2026-03-24T09:58:25.005Z</time></trkpt><trkpt lat="30.051759393102312" lon="-5.706927362665708"><ele>671.0</ele><time>2026-03-24T09:58:26.005Z</time></trkpt><trkpt lat="30.051708492231693" lon="-5.706757250785135"><ele>671.0</ele><time>2026-03-24T09:58:27.005Z</time></trkpt><trkpt lat="30.051661062686485" lon="-5.706575387151985"><ele>671.0</ele><time>2026-03-24T09:58:28.005Z</time></trkpt><trkpt lat="30.051631617516186" lon="-5.706387335973995"><ele>671.0</ele><time>2026-03-24T09:58:29.005Z</time></trkpt><trkpt lat="30.051609779752898" lon="-5.7062063503974585"><ele>671.0</ele><time>2026-03-24T09:58:30.005Z</time></trkpt><trkpt lat="30.051591022940418" lon="-5.706021004478238"><ele>671.0</ele><time>2026-03-24T09:58:31.005Z</time></trkpt><trkpt lat="30.051567261272965" lon="-5.705845933442087"><ele>671.0</ele><time>2026-03-24T09:58:32.005Z</time></trkpt><trkpt lat="30.051529888196203" lon="-5.705663384316867"><ele>671.0</ele><time>2026-03-24T09:58:33.005Z</time></trkpt><trkpt lat="30.05148886717253" lon="-5.7054779700187845"><ele>671.0</ele><time>2026-03-24T09:58:34.005Z</time></trkpt><trkpt lat="30.051437266413362" lon="-5.705300636144228"><ele>671.3333333333333</ele><time>2026-03-24T09:58:35.005Z</time></trkpt><trkpt lat="30.051384445691887" lon="-5.705136347493388"><ele>671.6666666666666</ele><time>2026-03-24T09:58:36.005Z</time></trkpt><trkpt lat="30.051322831988607" lon="-5.704955584787044"><ele>672.0</ele><time>2026-03-24T09:58:37.005Z</time></trkpt><trkpt lat="30.051284170898573" lon="-5.70479171128036"><ele>672.0</ele><time>2026-03-24T09:58:38.005Z</time></trkpt><trkpt lat="30.05123133584198" lon="-5.704615920769186"><ele>672.0</ele><time>2026-03-24T09:58:39.005Z</time></trkpt><trkpt lat="30.051183492599026" lon="-5.704444980092737"><ele>672.0</ele><time>2026-03-24T09:58:40.005Z</time></trkpt><trkpt lat="30.051128049034844" lon="-5.7042600019237675"><ele>671.0</ele><time>2026-03-24T09:58:41.005Z</time></trkpt><trkpt lat="30.051078806416506" lon="-5.704085123020383"><ele>670.0</ele><time>2026-03-24T09:58:42.005Z</time></trkpt><trkpt lat="30.051022709028928" lon="-5.703913359862488"><ele>669.0</ele><time>2026-03-24T09:58:43.005Z</time></trkpt><trkpt lat="30.050973888284606" lon="-5.703762546567538"><ele>669.0</ele><time>2026-03-24T09:58:44.005Z</time></trkpt><trkpt lat="30.05093112638687" lon="-5.703618708280516"><ele>669.0</ele><time>2026-03-24T09:58:45.005Z</time></trkpt><trkpt lat="30.050886225950553" lon="-5.703466669308848"><ele>669.0</ele><time>2026-03-24T09:58:46.005Z</time></trkpt><trkpt lat="30.05084258295843" lon="-5.703324884108244"><ele>669.0</ele><time>2026-03-24T09:58:47.005Z</time></trkpt><trkpt lat="30.050793109423257" lon="-5.703198946556439"><ele>669.25</ele><time>2026-03-24T09:58:48.005Z</time></trkpt><trkpt lat="30.05074491331492" lon="-5.703069615394994"><ele>669.5</ele><time>2026-03-24T09:58:49.005Z</time></trkpt><trkpt lat="30.05069345537094" lon="-5.702928044673215"><ele>669.75</ele><time>2026-03-24T09:58:50.005Z</time></trkpt><trkpt lat="30.0506434113282" lon="-5.702792740936042"><ele>670.0</ele><time>2026-03-24T09:58:51.005Z</time></trkpt><trkpt lat="30.05058891495563" lon="-5.702649464052578"><ele>670.0</ele><time>2026-03-24T09:58:52.005Z</time></trkpt><trkpt lat="30.050548973628114" lon="-5.702526690829438"><ele>670.0</ele><time>2026-03-24T09:58:53.005Z</time></trkpt><trkpt lat="30.050525644245646" lon="-5.702438609536456"><ele>670.0</ele><time>2026-03-24T09:58:54.005Z</time></trkpt><trkpt lat="30.050496427727992" lon="-5.702353690824085"><ele>670.0</ele><time>2026-03-24T09:58:55.005Z</time></trkpt><trkpt lat="30.050462997911534" lon="-5.702264098984124"><ele>670.0</ele><time>2026-03-24T09:58:56.005Z</time></trkpt><trkpt lat="30.050426911629703" lon="-5.702175011245653"><ele>670.0</ele><time>2026-03-24T09:58:57.005Z</time></trkpt><trkpt lat="30.050395997994407" lon="-5.702093621371117"><ele>670.0</ele><time>2026-03-24T09:58:58.005Z</time></trkpt><trkpt lat="30.050346698567953" lon="-5.701977502031831"><ele>670.0</ele><time>2026-03-24T09:59:00.005Z</time></trkpt><trkpt lat="30.050294079300752" lon="-5.701847112010249"><ele>670.0</ele><time>2026-03-24T09:59:02.005Z</time></trkpt><trkpt lat="30.05026157292839" lon="-5.701766086333426"><ele>670.0</ele><time>2026-03-24T09:59:03.005Z</time></trkpt><trkpt lat="30.050241076679807" lon="-5.701676462609607"><ele>670.0</ele><time>2026-03-24T09:59:04.005Z</time></trkpt><trkpt lat="30.05022330596413" lon="-5.701582938549424"><ele>670.1666666666667</ele><time>2026-03-24T09:59:05.005Z</time></trkpt><trkpt lat="30.050203521549268" lon="-5.701485410138034"><ele>670.3333333333334</ele><time>2026-03-24T09:59:06.005Z</time></trkpt><trkpt lat="30.050182502284105" lon="-5.701393965903624"><ele>670.5</ele><time>2026-03-24T09:59:07.005Z</time></trkpt><trkpt lat="30.0501641811557" lon="-5.7012961342439965"><ele>670.6666666666666</ele><time>2026-03-24T09:59:08.005Z</time></trkpt><trkpt lat="30.050131906436366" lon="-5.701209848799602"><ele>670.8333333333333</ele><time>2026-03-24T09:59:09.005Z</time></trkpt><trkpt lat="30.050098931873535" lon="-5.701121313199524"><ele>671.0</ele><time>2026-03-24T09:59:10.005Z</time></trkpt><trkpt lat="30.050083121852015" lon="-5.70103966239624"><ele>671.1999999999999</ele><time>2026-03-24T09:59:11.005Z</time></trkpt><trkpt lat="30.05006035745206" lon="-5.700955723347463"><ele>671.4</ele><time>2026-03-24T09:59:12.005Z</time></trkpt><trkpt lat="30.050032671536762" lon="-5.700832484951446"><ele>671.6</ele><time>2026-03-24T09:59:13.005Z</time></trkpt><trkpt lat="30.04999486296605" lon="-5.700692041482177"><ele>671.8</ele><time>2026-03-24T09:59:14.005Z</time></trkpt><trkpt lat="30.049967458049704" lon="-5.700540408356094"><ele>672.0</ele><time>2026-03-24T09:59:15.005Z</time></trkpt><trkpt lat="30.049935499496186" lon="-5.700398198255275"><ele>672.0</ele><time>2026-03-24T09:59:16.005Z</time></trkpt><trkpt lat="30.049908208842275" lon="-5.700258444510449"><ele>672.0</ele><time>2026-03-24T09:59:17.005Z</time></trkpt><trkpt lat="30.04986364616841" lon="-5.700112216253777"><ele>672.0</ele><time>2026-03-24T09:59:18.005Z</time></trkpt><trkpt lat="30.04982084884106" lon="-5.699965498122547"><ele>672.0</ele><time>2026-03-24T09:59:19.005Z</time></trkpt><trkpt lat="30.04978089034261" lon="-5.699822162805407"><ele>671.75</ele><time>2026-03-24T09:59:20.005Z</time></trkpt><trkpt lat="30.04974221873296" lon="-5.699671624879342"><ele>671.5</ele><time>2026-03-24T09:59:21.005Z</time></trkpt><trkpt lat="30.04972049100761" lon="-5.699524327005618"><ele>671.25</ele><time>2026-03-24T09:59:22.005Z</time></trkpt><trkpt lat="30.04971148505854" lon="-5.699373466652005"><ele>671.0</ele><time>2026-03-24T09:59:23.005Z</time></trkpt><trkpt lat="30.04971200321828" lon="-5.699217651972509"><ele>670.75</ele><time>2026-03-24T09:59:24.005Z</time></trkpt><trkpt lat="30.049708331836268" lon="-5.69905376408172"><ele>670.5</ele><time>2026-03-24T09:59:25.005Z</time></trkpt><trkpt lat="30.049705566331504" lon="-5.698897128931181"><ele>670.25</ele><time>2026-03-24T09:59:26.005Z</time></trkpt><trkpt lat="30.04969534914133" lon="-5.69875092929474"><ele>670.0</ele><time>2026-03-24T09:59:27.005Z</time></trkpt><trkpt lat="30.049683202077272" lon="-5.698609482107676"><ele>669.5</ele><time>2026-03-24T09:59:28.005Z</time></trkpt><trkpt lat="30.049658566556808" lon="-5.698463878163418"><ele>669.0</ele><time>2026-03-24T09:59:29.005Z</time></trkpt><trkpt lat="30.049643858980552" lon="-5.698320005657514"><ele>668.5</ele><time>2026-03-24T09:59:30.005Z</time></trkpt><trkpt lat="30.049616742381726" lon="-5.698156154325482"><ele>668.0</ele><time>2026-03-24T09:59:31.005Z</time></trkpt><trkpt lat="30.04958415227591" lon="-5.697985730928239"><ele>668.0</ele><time>2026-03-24T09:59:32.005Z</time></trkpt><trkpt lat="30.049555987015776" lon="-5.697821454777117"><ele>668.0</ele><time>2026-03-24T09:59:33.005Z</time></trkpt><trkpt lat="30.0495223090424" lon="-5.697652103446674"><ele>668.0</ele><time>2026-03-24T09:59:34.005Z</time></trkpt><trkpt lat="30.049490994209748" lon="-5.697484359326416"><ele>668.0</ele><time>2026-03-24T09:59:35.005Z</time></trkpt><trkpt lat="30.049455301124258" lon="-5.697323823373394"><ele>667.5</ele><time>2026-03-24T09:59:36.005Z</time></trkpt><trkpt lat="30.04941650063432" lon="-5.697172152843438"><ele>667.0</ele><time>2026-03-24T09:59:37.005Z</time></trkpt><trkpt lat="30.04937571332638" lon="-5.697017252361784"><ele>666.5</ele><time>2026-03-24T09:59:38.005Z</time></trkpt><trkpt lat="30.049330649438648" lon="-5.696862981305786"><ele>666.0</ele><time>2026-03-24T09:59:39.005Z</time></trkpt><trkpt lat="30.049285733733836" lon="-5.696708049505026"><ele>665.75</ele><time>2026-03-24T09:59:40.005Z</time></trkpt><trkpt lat="30.049241510549745" lon="-5.696554370099387"><ele>665.5</ele><time>2026-03-24T09:59:41.005Z</time></trkpt><trkpt lat="30.049199950211538" lon="-5.696416890495149"><ele>665.25</ele><time>2026-03-24T09:59:42.005Z</time></trkpt><trkpt lat="30.04913569545487" lon="-5.696265531787835"><ele>665.0</ele><time>2026-03-24T09:59:43.005Z</time></trkpt><trkpt lat="30.049074845271747" lon="-5.696126432088064"><ele>665.25</ele><time>2026-03-24T09:59:44.005Z</time></trkpt><trkpt lat="30.049006756638928" lon="-5.696000798665827"><ele>665.5</ele><time>2026-03-24T09:59:45.005Z</time></trkpt><trkpt lat="30.048929279408906" lon="-5.695882467794883"><ele>665.75</ele><time>2026-03-24T09:59:46.005Z</time></trkpt><trkpt lat="30.04883380219224" lon="-5.695768833722758"><ele>666.0</ele><time>2026-03-24T09:59:47.005Z</time></trkpt><trkpt lat="30.04875025273944" lon="-5.695644540830693"><ele>666.0</ele><time>2026-03-24T09:59:48.005Z</time></trkpt><trkpt lat="30.048645901421377" lon="-5.695517212359344"><ele>666.0</ele><time>2026-03-24T09:59:49.005Z</time></trkpt><trkpt lat="30.04856140840304" lon="-5.695406020708565"><ele>666.0</ele><time>2026-03-24T09:59:50.005Z</time></trkpt><trkpt lat="30.04847343091675" lon="-5.695299647374969"><ele>666.0</ele><time>2026-03-24T09:59:51.005Z</time></trkpt><trkpt lat="30.04839476719819" lon="-5.69519387086301"><ele>665.5</ele><time>2026-03-24T09:59:52.005Z</time></trkpt><trkpt lat="30.04833032609967" lon="-5.695083952075787"><ele>665.0</ele><time>2026-03-24T09:59:53.005Z</time></trkpt><trkpt lat="30.048275061805885" lon="-5.694945867701163"><ele>664.5</ele><time>2026-03-24T09:59:54.005Z</time></trkpt><trkpt lat="30.04819223918104" lon="-5.694786087329847"><ele>664.0</ele><time>2026-03-24T09:59:55.005Z</time></trkpt><trkpt lat="30.04812481727255" lon="-5.694630146066952"><ele>664.5</ele><time>2026-03-24T09:59:56.005Z</time></trkpt><trkpt lat="30.04806031080509" lon="-5.6944787069687255"><ele>665.0</ele><time>2026-03-24T09:59:57.005Z</time></trkpt><trkpt lat="30.047999853766733" lon="-5.694321237753068"><ele>665.5</ele><time>2026-03-24T09:59:58.005Z</time></trkpt><trkpt lat="30.047936924910132" lon="-5.694162992408638"><ele>666.0</ele><time>2026-03-24T09:59:59.005Z</time></trkpt><trkpt lat="30.04788947641295" lon="-5.694028585084447"><ele>666.0</ele><time>2026-03-24T10:00:00.005Z</time></trkpt><trkpt lat="30.04783496656008" lon="-5.693884056319862"><ele>666.0</ele><time>2026-03-24T10:00:01.005Z</time></trkpt><trkpt lat="30.04779163602365" lon="-5.693727367134023"><ele>666.0</ele><time>2026-03-24T10:00:02.005Z</time></trkpt><trkpt lat="30.04776145869614" lon="-5.693563486344013"><ele>666.0</ele><time>2026-03-24T10:00:03.005Z</time></trkpt><trkpt lat="30.04772136642494" lon="-5.6934200895758815"><ele>665.75</ele><time>2026-03-24T10:00:04.005Z</time></trkpt><trkpt lat="30.04766717597632" lon="-5.693263337788891"><ele>665.5</ele><time>2026-03-24T10:00:05.005Z</time></trkpt><trkpt lat="30.04760956436441" lon="-5.693105675266041"><ele>665.25</ele><time>2026-03-24T10:00:06.005Z</time></trkpt><trkpt lat="30.047557205060976" lon="-5.692954046363328"><ele>665.0</ele><time>2026-03-24T10:00:07.005Z</time></trkpt><trkpt lat="30.04751725735981" lon="-5.692821291903589"><ele>664.5</ele><time>2026-03-24T10:00:08.005Z</time></trkpt><trkpt lat="30.047485279332914" lon="-5.692702554440035"><ele>664.0</ele><time>2026-03-24T10:00:09.005Z</time></trkpt><trkpt lat="30.047452877796214" lon="-5.692559581370945"><ele>663.5</ele><time>2026-03-24T10:00:10.005Z</time></trkpt><trkpt lat="30.047428230200733" lon="-5.69240340720279"><ele>663.0</ele><time>2026-03-24T10:00:11.005Z</time></trkpt><trkpt lat="30.047399020158217" lon="-5.692237253344732"><ele>663.75</ele><time>2026-03-24T10:00:12.005Z</time></trkpt><trkpt lat="30.047371044355422" lon="-5.692082394143705"><ele>664.5</ele><time>2026-03-24T10:00:13.005Z</time></trkpt><trkpt lat="30.047338596874123" lon="-5.691942385496114"><ele>665.25</ele><time>2026-03-24T10:00:14.005Z</time></trkpt><trkpt lat="30.04730226528503" lon="-5.69180521917475"><ele>666.0</ele><time>2026-03-24T10:00:15.005Z</time></trkpt><trkpt lat="30.047262355727415" lon="-5.691675190106917"><ele>666.0</ele><time>2026-03-24T10:00:16.005Z</time></trkpt><trkpt lat="30.047212433795682" lon="-5.691532268821841"><ele>666.0</ele><time>2026-03-24T10:00:17.005Z</time></trkpt><trkpt lat="30.047171985495318" lon="-5.6913901859464735"><ele>666.0</ele><time>2026-03-24T10:00:18.005Z</time></trkpt><trkpt lat="30.047132031430436" lon="-5.691244379535657"><ele>666.0</ele><time>2026-03-24T10:00:19.005Z</time></trkpt><trkpt lat="30.04707854144226" lon="-5.691092223490307"><ele>665.25</ele><time>2026-03-24T10:00:20.005Z</time></trkpt><trkpt lat="30.0470161989765" lon="-5.690938080030477"><ele>664.5</ele><time>2026-03-24T10:00:21.004Z</time></trkpt><trkpt lat="30.046952800910997" lon="-5.690793396970058"><ele>663.75</ele><time>2026-03-24T10:00:22.004Z</time></trkpt><trkpt lat="30.046887317394727" lon="-5.690645806493763"><ele>663.0</ele><time>2026-03-24T10:00:23.004Z</time></trkpt><trkpt lat="30.04681833171137" lon="-5.690496154959605"><ele>663.0</ele><time>2026-03-24T10:00:24.004Z</time></trkpt><trkpt lat="30.046751442948768" lon="-5.690343223570805"><ele>663.0</ele><time>2026-03-24T10:00:25.004Z</time></trkpt><trkpt lat="30.046701586110018" lon="-5.690187189301037"><ele>663.0</ele><time>2026-03-24T10:00:26.004Z</time></trkpt><trkpt lat="30.04665228855224" lon="-5.690028757486624"><ele>663.0</ele><time>2026-03-24T10:00:27.005Z</time></trkpt><trkpt lat="30.046597616549857" lon="-5.689865664866674"><ele>664.0</ele><time>2026-03-24T10:00:28.004Z</time></trkpt><trkpt lat="30.046542753255412" lon="-5.689696525753719"><ele>665.0</ele><time>2026-03-24T10:00:29.004Z</time></trkpt><trkpt lat="30.04649581073207" lon="-5.689538585361433"><ele>666.0</ele><time>2026-03-24T10:00:30.004Z</time></trkpt><trkpt lat="30.04643606816604" lon="-5.689372106818288"><ele>666.0</ele><time>2026-03-24T10:00:31.004Z</time></trkpt><trkpt lat="30.04637582642952" lon="-5.689209594571711"><ele>666.0</ele><time>2026-03-24T10:00:32.004Z</time></trkpt><trkpt lat="30.046311718816312" lon="-5.689044352210856"><ele>666.0</ele><time>2026-03-24T10:00:33.004Z</time></trkpt><trkpt lat="30.04624906540867" lon="-5.688873933296145"><ele>666.0</ele><time>2026-03-24T10:00:34.004Z</time></trkpt><trkpt lat="30.04618873335152" lon="-5.688706697495535"><ele>666.0</ele><time>2026-03-24T10:00:35.004Z</time></trkpt><trkpt lat="30.046125493824174" lon="-5.688534518467883"><ele>666.0</ele><time>2026-03-24T10:00:36.004Z</time></trkpt><trkpt lat="30.046063989747207" lon="-5.688354959893676"><ele>665.6666666666666</ele><time>2026-03-24T10:00:37.004Z</time></trkpt><trkpt lat="30.04601228786343" lon="-5.688178109370292"><ele>665.3333333333333</ele><time>2026-03-24T10:00:38.004Z</time></trkpt><trkpt lat="30.04596542870395" lon="-5.688004970179748"><ele>665.0</ele><time>2026-03-24T10:00:39.004Z</time></trkpt><trkpt lat="30.045916693234968" lon="-5.687834406859857"><ele>665.0</ele><time>2026-03-24T10:00:40.004Z</time></trkpt><trkpt lat="30.045866933756827" lon="-5.687669604479147"><ele>665.0</ele><time>2026-03-24T10:00:41.004Z</time></trkpt><trkpt lat="30.04581255191477" lon="-5.687502514289836"><ele>665.0</ele><time>2026-03-24T10:00:42.004Z</time></trkpt><trkpt lat="30.04576161289775" lon="-5.687340006265074"><ele>665.0</ele><time>2026-03-24T10:00:43.004Z</time></trkpt><trkpt lat="30.045702093794286" lon="-5.68717559485069"><ele>665.0</ele><time>2026-03-24T10:00:44.004Z</time></trkpt><trkpt lat="30.0456339393133" lon="-5.687018917155807"><ele>665.0</ele><time>2026-03-24T10:00:45.004Z</time></trkpt><trkpt lat="30.04556354091092" lon="-5.686869991154399"><ele>665.0</ele><time>2026-03-24T10:00:46.004Z</time></trkpt><trkpt lat="30.04550087076824" lon="-5.68672799324399"><ele>665.0</ele><time>2026-03-24T10:00:47.004Z</time></trkpt><trkpt lat="30.045431459784446" lon="-5.686584515617555"><ele>665.0</ele><time>2026-03-24T10:00:48.004Z</time></trkpt><trkpt lat="30.045365076280174" lon="-5.686441904193993"><ele>665.0</ele><time>2026-03-24T10:00:49.004Z</time></trkpt><trkpt lat="30.04530532218689" lon="-5.686296363856129"><ele>665.0</ele><time>2026-03-24T10:00:50.004Z</time></trkpt><trkpt lat="30.045264444573693" lon="-5.686162722708168"><ele>665.0</ele><time>2026-03-24T10:00:51.004Z</time></trkpt><trkpt lat="30.045218368707395" lon="-5.686033199601876"><ele>665.0</ele><time>2026-03-24T10:00:52.004Z</time></trkpt><trkpt lat="30.0451613260634" lon="-5.685888908033552"><ele>665.0</ele><time>2026-03-24T10:00:53.004Z</time></trkpt><trkpt lat="30.04509250430566" lon="-5.685739639355819"><ele>664.6666666666666</ele><time>2026-03-24T10:00:54.004Z</time></trkpt><trkpt lat="30.045010321932796" lon="-5.685583896805979"><ele>664.3333333333334</ele><time>2026-03-24T10:00:55.004Z</time></trkpt><trkpt lat="30.044929852719896" lon="-5.685426610500522"><ele>664.0</ele><time>2026-03-24T10:00:56.004Z</time></trkpt><trkpt lat="30.044855030348682" lon="-5.6852944593301356"><ele>664.0</ele><time>2026-03-24T10:00:57.004Z</time></trkpt><trkpt lat="30.04479318510777" lon="-5.685196010745432"><ele>664.0</ele><time>2026-03-24T10:00:58.004Z</time></trkpt><trkpt lat="30.04473467933173" lon="-5.685104305298929"><ele>664.0</ele><time>2026-03-24T10:00:59.004Z</time></trkpt><trkpt lat="30.044688630983163" lon="-5.685007926319543"><ele>664.0</ele><time>2026-03-24T10:01:00.004Z</time></trkpt><trkpt lat="30.04464149354842" lon="-5.684900531361589"><ele>664.0</ele><time>2026-03-24T10:01:01.004Z</time></trkpt><trkpt lat="30.044603950705035" lon="-5.684794389500064"><ele>664.0</ele><time>2026-03-24T10:01:02.004Z</time></trkpt><trkpt lat="30.04457076838469" lon="-5.684664006885748"><ele>664.0</ele><time>2026-03-24T10:01:03.004Z</time></trkpt><trkpt lat="30.0445526055519" lon="-5.684513042678515"><ele>664.0</ele><time>2026-03-24T10:01:04.004Z</time></trkpt><trkpt lat="30.044539366741418" lon="-5.684359389623946"><ele>664.0</ele><time>2026-03-24T10:01:05.004Z</time></trkpt><trkpt lat="30.044526252292066" lon="-5.684214771970797"><ele>663.4000000000001</ele><time>2026-03-24T10:01:06.004Z</time></trkpt><trkpt lat="30.044505675347196" lon="-5.684096347357746"><ele>662.8</ele><time>2026-03-24T10:01:07.004Z</time></trkpt><trkpt lat="30.044480762533016" lon="-5.683972724131659"><ele>662.2</ele><time>2026-03-24T10:01:08.004Z</time></trkpt><trkpt lat="30.044444921888015" lon="-5.683866514268248"><ele>661.5999999999999</ele><time>2026-03-24T10:01:09.004Z</time></trkpt><trkpt lat="30.044388538767393" lon="-5.683736707567511"><ele>661.0</ele><time>2026-03-24T10:01:10.004Z</time></trkpt><trkpt lat="30.044314789822533" lon="-5.683601851360523"><ele>660.75</ele><time>2026-03-24T10:01:11.004Z</time></trkpt><trkpt lat="30.044241899112595" lon="-5.683474008643648"><ele>660.5</ele><time>2026-03-24T10:01:12.004Z</time></trkpt><trkpt lat="30.044181895204996" lon="-5.683357448491737"><ele>660.25</ele><time>2026-03-24T10:01:13.004Z</time></trkpt><trkpt lat="30.04412081521338" lon="-5.683225550492069"><ele>660.0</ele><time>2026-03-24T10:01:14.004Z</time></trkpt><trkpt lat="30.0440587940814" lon="-5.6830988709993475"><ele>660.25</ele><time>2026-03-24T10:01:15.004Z</time></trkpt><trkpt lat="30.043994424827513" lon="-5.682964152404053"><ele>660.5</ele><time>2026-03-24T10:01:16.004Z</time></trkpt><trkpt lat="30.043918321124128" lon="-5.682828768552055"><ele>660.75</ele><time>2026-03-24T10:01:17.004Z</time></trkpt><trkpt lat="30.043836423344683" lon="-5.682710405624826"><ele>661.0</ele><time>2026-03-24T10:01:18.004Z</time></trkpt><trkpt lat="30.043738427585296" lon="-5.682605626137968"><ele>661.0</ele><time>2026-03-24T10:01:19.004Z</time></trkpt><trkpt lat="30.043639702066113" lon="-5.682524778305944"><ele>661.0</ele><time>2026-03-24T10:01:20.004Z</time></trkpt><trkpt lat="30.043533890517615" lon="-5.68244622223917"><ele>661.0</ele><time>2026-03-24T10:01:21.004Z</time></trkpt><trkpt lat="30.043438482032695" lon="-5.6823604859716665"><ele>661.0</ele><time>2026-03-24T10:01:22.004Z</time></trkpt><trkpt lat="30.043351776267507" lon="-5.682254825709411"><ele>661.0</ele><time>2026-03-24T10:01:23.004Z</time></trkpt><trkpt lat="30.04327366004962" lon="-5.682114512149439"><ele>661.0</ele><time>2026-03-24T10:01:24.004Z</time></trkpt><trkpt lat="30.043185012210646" lon="-5.681972052860843"><ele>661.0</ele><time>2026-03-24T10:01:25.004Z</time></trkpt><trkpt lat="30.04309702815126" lon="-5.6818375006774104"><ele>661.0</ele><time>2026-03-24T10:01:26.004Z</time></trkpt><trkpt lat="30.043027329744525" lon="-5.681727956331931"><ele>660.5999999999999</ele><time>2026-03-24T10:01:27.004Z</time></trkpt><trkpt lat="30.042973357683362" lon="-5.681645920490923"><ele>660.2</ele><time>2026-03-24T10:01:28.004Z</time></trkpt><trkpt lat="30.042910410822575" lon="-5.681552139320162"><ele>659.8</ele><time>2026-03-24T10:01:29.004Z</time></trkpt><trkpt lat="30.042840197211714" lon="-5.681439885375233"><ele>659.4000000000001</ele><time>2026-03-24T10:01:30.004Z</time></trkpt><trkpt lat="30.042754761234423" lon="-5.681325747790612"><ele>659.0</ele><time>2026-03-24T10:01:31.004Z</time></trkpt><trkpt lat="30.042660271475423" lon="-5.681213444352786"><ele>659.5</ele><time>2026-03-24T10:01:32.004Z</time></trkpt><trkpt lat="30.042566373654473" lon="-5.681093487669338"><ele>660.0</ele><time>2026-03-24T10:01:33.004Z</time></trkpt><trkpt lat="30.042471280804083" lon="-5.680979109911976"><ele>660.5</ele><time>2026-03-24T10:01:34.004Z</time></trkpt><trkpt lat="30.042383767460297" lon="-5.680873883684256"><ele>661.0</ele><time>2026-03-24T10:01:35.004Z</time></trkpt><trkpt lat="30.042307446064445" lon="-5.680784597926861"><ele>661.0</ele><time>2026-03-24T10:01:36.004Z</time></trkpt><trkpt lat="30.04223510230751" lon="-5.6806843243655525"><ele>661.0</ele><time>2026-03-24T10:01:37.004Z</time></trkpt><trkpt lat="30.042155958191948" lon="-5.680562104210664"><ele>661.0</ele><time>2026-03-24T10:01:38.004Z</time></trkpt><trkpt lat="30.042065659869984" lon="-5.680432858571683"><ele>661.0</ele><time>2026-03-24T10:01:39.004Z</time></trkpt><trkpt lat="30.041978316633198" lon="-5.680312264407448"><ele>660.5</ele><time>2026-03-24T10:01:40.004Z</time></trkpt><trkpt lat="30.04188217827675" lon="-5.6801884333497"><ele>660.0</ele><time>2026-03-24T10:01:41.004Z</time></trkpt><trkpt lat="30.041781749986534" lon="-5.6800673492590334"><ele>659.5</ele><time>2026-03-24T10:01:42.004Z</time></trkpt><trkpt lat="30.04167338465948" lon="-5.679936662287762"><ele>659.0</ele><time>2026-03-24T10:01:43.004Z</time></trkpt><trkpt lat="30.04157077996831" lon="-5.679798116303701"><ele>658.6666666666666</ele><time>2026-03-24T10:01:44.004Z</time></trkpt><trkpt lat="30.041471614166902" lon="-5.679658426224731"><ele>658.3333333333334</ele><time>2026-03-24T10:01:45.004Z</time></trkpt><trkpt lat="30.041376486971963" lon="-5.6795059633326055"><ele>658.0</ele><time>2026-03-24T10:01:46.004Z</time></trkpt><trkpt lat="30.041281617859134" lon="-5.679337025722606"><ele>657.6666666666667</ele><time>2026-03-24T10:01:47.004Z</time></trkpt><trkpt lat="30.04118803102975" lon="-5.679176018409852"><ele>657.3333333333334</ele><time>2026-03-24T10:01:48.004Z</time></trkpt><trkpt lat="30.04108878128305" lon="-5.679006175057892"><ele>657.0</ele><time>2026-03-24T10:01:49.004Z</time></trkpt><trkpt lat="30.040993386077364" lon="-5.678838612865281"><ele>657.0</ele><time>2026-03-24T10:01:50.004Z</time></trkpt><trkpt lat="30.040897822585077" lon="-5.67867985597279"><ele>657.0</ele><time>2026-03-24T10:01:51.004Z</time></trkpt><trkpt lat="30.04081122105859" lon="-5.678526038437923"><ele>657.0</ele><time>2026-03-24T10:01:52.004Z</time></trkpt><trkpt lat="30.040731760783697" lon="-5.6783647233118195"><ele>657.3333333333334</ele><time>2026-03-24T10:01:53.004Z</time></trkpt><trkpt lat="30.040656587794736" lon="-5.6782005481704685"><ele>657.6666666666667</ele><time>2026-03-24T10:01:54.004Z</time></trkpt><trkpt lat="30.04058700018254" lon="-5.678043696038819"><ele>658.0</ele><time>2026-03-24T10:01:55.004Z</time></trkpt><trkpt lat="30.04051972495523" lon="-5.677898622080537"><ele>657.5</ele><time>2026-03-24T10:01:56.004Z</time></trkpt><trkpt lat="30.040443760404898" lon="-5.677767226990714"><ele>657.0</ele><time>2026-03-24T10:01:57.004Z</time></trkpt><trkpt lat="30.04035293310411" lon="-5.677628984337746"><ele>656.5</ele><time>2026-03-24T10:01:58.004Z</time></trkpt><trkpt lat="30.040247980162597" lon="-5.677487179434602"><ele>656.0</ele><time>2026-03-24T10:01:59.004Z</time></trkpt><trkpt lat="30.04014166416647" lon="-5.67734625547397"><ele>656.0</ele><time>2026-03-24T10:02:00.004Z</time></trkpt><trkpt lat="30.040026792209712" lon="-5.677202195857877"><ele>656.0</ele><time>2026-03-24T10:02:01.004Z</time></trkpt><trkpt lat="30.039912445727623" lon="-5.677062861027856"><ele>656.0</ele><time>2026-03-24T10:02:02.004Z</time></trkpt><trkpt lat="30.039793975749937" lon="-5.676926279884851"><ele>655.3333333333333</ele><time>2026-03-24T10:02:03.004Z</time></trkpt><trkpt lat="30.03967630794494" lon="-5.67678223788977"><ele>654.6666666666666</ele><time>2026-03-24T10:02:04.004Z</time></trkpt><trkpt lat="30.039560096250625" lon="-5.676635759502121"><ele>654.0</ele><time>2026-03-24T10:02:05.004Z</time></trkpt><trkpt lat="30.039453687481274" lon="-5.676490633660352"><ele>654.0</ele><time>2026-03-24T10:02:06.004Z</time></trkpt><trkpt lat="30.039347368689615" lon="-5.676348227332426"><ele>654.0</ele><time>2026-03-24T10:02:07.004Z</time></trkpt><trkpt lat="30.039236701387814" lon="-5.676208626717241"><ele>654.0</ele><time>2026-03-24T10:02:08.004Z</time></trkpt><trkpt lat="30.03913012912579" lon="-5.676059692069342"><ele>654.3333333333334</ele><time>2026-03-24T10:02:09.004Z</time></trkpt><trkpt lat="30.039028769146167" lon="-5.675898902687538"><ele>654.6666666666667</ele><time>2026-03-24T10:02:10.004Z</time></trkpt><trkpt lat="30.038934955492987" lon="-5.67573815240902"><ele>655.0</ele><time>2026-03-24T10:02:11.004Z</time></trkpt><trkpt lat="30.038850469092342" lon="-5.675576669534075"><ele>655.0</ele><time>2026-03-24T10:02:12.004Z</time></trkpt><trkpt lat="30.038771860559592" lon="-5.675411928277547"><ele>655.0</ele><time>2026-03-24T10:02:13.004Z</time></trkpt><trkpt lat="30.038710899766542" lon="-5.67525073834328"><ele>655.0</ele><time>2026-03-24T10:02:14.004Z</time></trkpt><trkpt lat="30.038658664148507" lon="-5.675078637860615"><ele>655.0</ele><time>2026-03-24T10:02:15.004Z</time></trkpt><trkpt lat="30.03859921399343" lon="-5.674897003133019"><ele>655.0</ele><time>2026-03-24T10:02:16.004Z</time></trkpt><trkpt lat="30.03853168629637" lon="-5.674727318979141"><ele>655.0</ele><time>2026-03-24T10:02:17.004Z</time></trkpt><trkpt lat="30.038463170550546" lon="-5.674561375138019"><ele>654.3333333333334</ele><time>2026-03-24T10:02:18.004Z</time></trkpt><trkpt lat="30.038395988222273" lon="-5.674388510762854"><ele>653.6666666666666</ele><time>2026-03-24T10:02:19.004Z</time></trkpt><trkpt lat="30.03832259689213" lon="-5.67420769670954"><ele>653.0</ele><time>2026-03-24T10:02:20.004Z</time></trkpt><trkpt lat="30.03824223201062" lon="-5.674027138030265"><ele>653.0</ele><time>2026-03-24T10:02:21.004Z</time></trkpt><trkpt lat="30.038160247924424" lon="-5.673857406341788"><ele>653.0</ele><time>2026-03-24T10:02:22.004Z</time></trkpt><trkpt lat="30.038078666533053" lon="-5.673694061425392"><ele>653.0</ele><time>2026-03-24T10:02:23.004Z</time></trkpt><trkpt lat="30.037995110514682" lon="-5.673531219557338"><ele>652.3333333333333</ele><time>2026-03-24T10:02:24.004Z</time></trkpt><trkpt lat="30.037916437334488" lon="-5.673376949385974"><ele>651.6666666666666</ele><time>2026-03-24T10:02:25.004Z</time></trkpt><trkpt lat="30.03784141845938" lon="-5.673207663528971"><ele>651.0</ele><time>2026-03-24T10:02:26.004Z</time></trkpt><trkpt lat="30.0377599156273" lon="-5.673033451498583"><ele>651.0</ele><time>2026-03-24T10:02:27.004Z</time></trkpt><trkpt lat="30.037675075108435" lon="-5.672862516440216"><ele>651.0</ele><time>2026-03-24T10:02:28.005Z</time></trkpt><trkpt lat="30.037582588462083" lon="-5.672683024977514"><ele>651.0</ele><time>2026-03-24T10:02:29.005Z</time></trkpt><trkpt lat="30.037499446620554" lon="-5.672521230104724"><ele>651.0</ele><time>2026-03-24T10:02:30.005Z</time></trkpt><trkpt lat="30.03740197993943" lon="-5.672352686043886"><ele>651.0</ele><time>2026-03-24T10:02:31.004Z</time></trkpt><trkpt lat="30.0373093311864" lon="-5.672197740239306"><ele>651.0</ele><time>2026-03-24T10:02:32.004Z</time></trkpt><trkpt lat="30.037216722507218" lon="-5.672045790008081"><ele>651.0</ele><time>2026-03-24T10:02:33.004Z</time></trkpt><trkpt lat="30.037123722273112" lon="-5.671901935925069"><ele>651.0</ele><time>2026-03-24T10:02:34.004Z</time></trkpt><trkpt lat="30.037016413410893" lon="-5.671750506628185"><ele>651.0</ele><time>2026-03-24T10:02:35.004Z</time></trkpt><trkpt lat="30.03690453369199" lon="-5.671601026125336"><ele>651.0</ele><time>2026-03-24T10:02:36.004Z</time></trkpt><trkpt lat="30.03679611452069" lon="-5.671462125646565"><ele>651.0</ele><time>2026-03-24T10:02:37.004Z</time></trkpt><trkpt lat="30.036690940141302" lon="-5.671329377331393"><ele>651.0</ele><time>2026-03-24T10:02:38.004Z</time></trkpt><trkpt lat="30.036580649472036" lon="-5.671189177239344"><ele>651.0</ele><time>2026-03-24T10:02:39.004Z</time></trkpt><trkpt lat="30.036469533640332" lon="-5.671036162931112"><ele>651.0</ele><time>2026-03-24T10:02:40.004Z</time></trkpt><trkpt lat="30.03636243885691" lon="-5.670885701226138"><ele>651.0</ele><time>2026-03-24T10:02:41.004Z</time></trkpt><trkpt lat="30.036247563565254" lon="-5.670746434040543"><ele>651.0</ele><time>2026-03-24T10:02:42.004Z</time></trkpt><trkpt lat="30.036130962734735" lon="-5.670601871799631"><ele>651.0</ele><time>2026-03-24T10:02:43.004Z</time></trkpt><trkpt lat="30.036014038627254" lon="-5.67045882921405"><ele>651.0</ele><time>2026-03-24T10:02:44.004Z</time></trkpt><trkpt lat="30.035897126796254" lon="-5.670316274538731"><ele>650.6666666666666</ele><time>2026-03-24T10:02:45.004Z</time></trkpt><trkpt lat="30.03578868025156" lon="-5.670166483847787"><ele>650.3333333333333</ele><time>2026-03-24T10:02:46.004Z</time></trkpt><trkpt lat="30.035686345466637" lon="-5.67000399881505"><ele>650.0</ele><time>2026-03-24T10:02:47.004Z</time></trkpt><trkpt lat="30.035595125507545" lon="-5.669836720495191"><ele>650.0</ele><time>2026-03-24T10:02:48.004Z</time></trkpt><trkpt lat="30.035509037826515" lon="-5.669671086366476"><ele>650.0</ele><time>2026-03-24T10:02:49.004Z</time></trkpt><trkpt lat="30.03542096008082" lon="-5.669511488406317"><ele>650.0</ele><time>2026-03-24T10:02:50.004Z</time></trkpt><trkpt lat="30.03532670588158" lon="-5.669349257382055"><ele>650.0</ele><time>2026-03-24T10:02:51.004Z</time></trkpt><trkpt lat="30.035237588189677" lon="-5.669182526227047"><ele>650.0</ele><time>2026-03-24T10:02:52.004Z</time></trkpt><trkpt lat="30.03515202561866" lon="-5.669021892909298"><ele>650.0</ele><time>2026-03-24T10:02:53.004Z</time></trkpt><trkpt lat="30.035066400098305" lon="-5.668858843037097"><ele>650.0</ele><time>2026-03-24T10:02:54.004Z</time></trkpt><trkpt lat="30.034979983661323" lon="-5.668695557386961"><ele>650.0</ele><time>2026-03-24T10:02:55.004Z</time></trkpt><trkpt lat="30.034884952724315" lon="-5.668532317799622"><ele>650.0</ele><time>2026-03-24T10:02:56.004Z</time></trkpt><trkpt lat="30.034793503009528" lon="-5.668360019718236"><ele>649.6666666666666</ele><time>2026-03-24T10:02:57.004Z</time></trkpt><trkpt lat="30.034696874144192" lon="-5.66817145016774"><ele>649.3333333333334</ele><time>2026-03-24T10:02:58.004Z</time></trkpt><trkpt lat="30.03460686899229" lon="-5.667989214422883"><ele>649.0</ele><time>2026-03-24T10:02:59.004Z</time></trkpt><trkpt lat="30.034516215779874" lon="-5.667801732849713"><ele>648.3333333333334</ele><time>2026-03-24T10:03:00.004Z</time></trkpt><trkpt lat="30.034425622693423" lon="-5.66762186563348"><ele>647.6666666666666</ele><time>2026-03-24T10:03:01.004Z</time></trkpt><trkpt lat="30.03433299206373" lon="-5.667448457071349"><ele>647.0</ele><time>2026-03-24T10:03:02.004Z</time></trkpt><trkpt lat="30.034235264722845" lon="-5.667280761685772"><ele>647.0</ele><time>2026-03-24T10:03:03.004Z</time></trkpt><trkpt lat="30.034133699477223" lon="-5.66710605352363"><ele>647.0</ele><time>2026-03-24T10:03:04.004Z</time></trkpt><trkpt lat="30.034032812058232" lon="-5.666929899356541"><ele>647.0</ele><time>2026-03-24T10:03:05.004Z</time></trkpt><trkpt lat="30.033944984212933" lon="-5.666750027192403"><ele>646.6666666666666</ele><time>2026-03-24T10:03:06.004Z</time></trkpt><trkpt lat="30.033865170638837" lon="-5.666578006315163"><ele>646.3333333333334</ele><time>2026-03-24T10:03:07.004Z</time></trkpt><trkpt lat="30.033796706160974" lon="-5.666410794973147"><ele>646.0</ele><time>2026-03-24T10:03:08.004Z</time></trkpt><trkpt lat="30.033722903803746" lon="-5.666241284773392"><ele>645.3333333333334</ele><time>2026-03-24T10:03:09.004Z</time></trkpt><trkpt lat="30.033635347653913" lon="-5.6660617889094125"><ele>644.6666666666666</ele><time>2026-03-24T10:03:10.004Z</time></trkpt><trkpt lat="30.033550509805963" lon="-5.665884914938937"><ele>644.0</ele><time>2026-03-24T10:03:11.004Z</time></trkpt><trkpt lat="30.033481057383753" lon="-5.665727040613809"><ele>644.0</ele><time>2026-03-24T10:03:12.004Z</time></trkpt><trkpt lat="30.03340892356819" lon="-5.6655714237254955"><ele>644.0</ele><time>2026-03-24T10:03:13.004Z</time></trkpt><trkpt lat="30.033341761587288" lon="-5.665403218294858"><ele>644.0</ele><time>2026-03-24T10:03:14.004Z</time></trkpt><trkpt lat="30.033279646784983" lon="-5.665229951737291"><ele>644.3333333333333</ele><time>2026-03-24T10:03:15.004Z</time></trkpt><trkpt lat="30.033218168033287" lon="-5.665056153087094"><ele>644.6666666666666</ele><time>2026-03-24T10:03:16.004Z</time></trkpt><trkpt lat="30.033137530750466" lon="-5.664886507532751"><ele>645.0</ele><time>2026-03-24T10:03:17.004Z</time></trkpt><trkpt lat="30.03305089085151" lon="-5.664706612862645"><ele>645.0</ele><time>2026-03-24T10:03:18.004Z</time></trkpt><trkpt lat="30.032965154854423" lon="-5.664537069891655"><ele>645.0</ele><time>2026-03-24T10:03:19.004Z</time></trkpt><trkpt lat="30.03287771204064" lon="-5.66439206460021"><ele>645.0</ele><time>2026-03-24T10:03:20.004Z</time></trkpt><trkpt lat="30.032806287756674" lon="-5.664281591196585"><ele>645.0</ele><time>2026-03-24T10:03:21.004Z</time></trkpt><trkpt lat="30.03272552351587" lon="-5.664171754370869"><ele>644.75</ele><time>2026-03-24T10:03:22.004Z</time></trkpt><trkpt lat="30.032644006370166" lon="-5.66409091634806"><ele>644.5</ele><time>2026-03-24T10:03:23.004Z</time></trkpt><trkpt lat="30.032539337592894" lon="-5.664020583894221"><ele>644.25</ele><time>2026-03-24T10:03:24.004Z</time></trkpt><trkpt lat="30.03244006486048" lon="-5.663928775687273"><ele>644.0</ele><time>2026-03-24T10:03:25.004Z</time></trkpt><trkpt lat="30.03237398892417" lon="-5.663817747142616"><ele>644.0</ele><time>2026-03-24T10:03:26.004Z</time></trkpt><trkpt lat="30.03232923266643" lon="-5.6637083394169245"><ele>644.0</ele><time>2026-03-24T10:03:27.004Z</time></trkpt><trkpt lat="30.032296165094543" lon="-5.663614793069743"><ele>644.0</ele><time>2026-03-24T10:03:28.003Z</time></trkpt><trkpt lat="30.032256666573993" lon="-5.663522936543575"><ele>644.0</ele><time>2026-03-24T10:03:29.003Z</time></trkpt><trkpt lat="30.032213978144682" lon="-5.663446501040128"><ele>644.0</ele><time>2026-03-24T10:03:30.002Z</time></trkpt><trkpt lat="30.03216061191177" lon="-5.663346350831055"><ele>644.0</ele><time>2026-03-24T10:03:31.001Z</time></trkpt><trkpt lat="30.03210235199199" lon="-5.663242722970479"><ele>644.0</ele><time>2026-03-24T10:03:32.001Z</time></trkpt><trkpt lat="30.03203869938303" lon="-5.663135479364616"><ele>644.0</ele><time>2026-03-24T10:03:33Z</time></trkpt><trkpt lat="30.031963929645393" lon="-5.663016227883647"><ele>644.0</ele><time>2026-03-24T10:03:34Z</time></trkpt><trkpt lat="30.03188417542332" lon="-5.662890149343857"><ele>644.0</ele><time>2026-03-24T10:03:35Z</time></trkpt><trkpt lat="30.03180506780444" lon="-5.662764912445238"><ele>644.0</ele><time>2026-03-24T10:03:35.999Z</time></trkpt><trkpt lat="30.03172871237887" lon="-5.662642369936852"><ele>644.0</ele><time>2026-03-24T10:03:36.999Z</time></trkpt><trkpt lat="30.031652569549873" lon="-5.662522496354687"><ele>644.0</ele><time>2026-03-24T10:03:37.998Z</time></trkpt><trkpt lat="30.031578489918694" lon="-5.66240404428659"><ele>644.0</ele><time>2026-03-24T10:03:38.998Z</time></trkpt><trkpt lat="30.031499554389416" lon="-5.662261797486998"><ele>644.0</ele><time>2026-03-24T10:03:39.998Z</time></trkpt><trkpt lat="30.03140907444737" lon="-5.662120919276561"><ele>644.0</ele><time>2026-03-24T10:03:40.998Z</time></trkpt><trkpt lat="30.031342126185805" lon="-5.6619912794012714"><ele>644.0</ele><time>2026-03-24T10:03:41.997Z</time></trkpt><trkpt lat="30.031270284048485" lon="-5.661872810164088"><ele>644.0</ele><time>2026-03-24T10:03:42.997Z</time></trkpt><trkpt lat="30.031209739814447" lon="-5.661756113424741"><ele>644.0</ele><time>2026-03-24T10:03:43.997Z</time></trkpt><trkpt lat="30.031148591381175" lon="-5.661640748737119"><ele>644.0</ele><time>2026-03-24T10:03:44.997Z</time></trkpt><trkpt lat="30.031087925679085" lon="-5.661523638201163"><ele>644.0</ele><time>2026-03-24T10:03:45.996Z</time></trkpt><trkpt lat="30.031009603696557" lon="-5.661393342081035"><ele>644.0</ele><time>2026-03-24T10:03:46.996Z</time></trkpt><trkpt lat="30.030912249198032" lon="-5.6612533019347255"><ele>644.0</ele><time>2026-03-24T10:03:47.996Z</time></trkpt><trkpt lat="30.03078742757892" lon="-5.661089754787519"><ele>644.0</ele><time>2026-03-24T10:03:48.996Z</time></trkpt><trkpt lat="30.030651736740435" lon="-5.660922782734332"><ele>642.6666666666666</ele><time>2026-03-24T10:03:49.996Z</time></trkpt><trkpt lat="30.030511085964516" lon="-5.660763493250297"><ele>641.3333333333334</ele><time>2026-03-24T10:03:50.996Z</time></trkpt><trkpt lat="30.030392678077185" lon="-5.660648082434229"><ele>640.0</ele><time>2026-03-24T10:03:51.995Z</time></trkpt><trkpt lat="30.030280912193696" lon="-5.660550001994647"><ele>640.0</ele><time>2026-03-24T10:03:52.995Z</time></trkpt><trkpt lat="30.030168064299605" lon="-5.6604536307634294"><ele>640.0</ele><time>2026-03-24T10:03:53.995Z</time></trkpt><trkpt lat="30.030064919657" lon="-5.660374776688848"><ele>640.0</ele><time>2026-03-24T10:03:54.995Z</time></trkpt><trkpt lat="30.029974244737094" lon="-5.66030575940825"><ele>640.0</ele><time>2026-03-24T10:03:55.995Z</time></trkpt><trkpt lat="30.029894324141615" lon="-5.660239277188754"><ele>640.25</ele><time>2026-03-24T10:03:56.995Z</time></trkpt><trkpt lat="30.029795781147055" lon="-5.6601649847127895"><ele>640.5</ele><time>2026-03-24T10:03:57.995Z</time></trkpt><trkpt lat="30.029681184414304" lon="-5.660079650516839"><ele>640.75</ele><time>2026-03-24T10:03:58.995Z</time></trkpt><trkpt lat="30.029580093426492" lon="-5.65999656063623"><ele>641.0</ele><time>2026-03-24T10:03:59.995Z</time></trkpt><trkpt lat="30.029486488647468" lon="-5.6599164293007025"><ele>641.0</ele><time>2026-03-24T10:04:00.994Z</time></trkpt><trkpt lat="30.029397852354396" lon="-5.659848550432003"><ele>641.0</ele><time>2026-03-24T10:04:01.994Z</time></trkpt><trkpt lat="30.02930918906986" lon="-5.659782973502688"><ele>641.0</ele><time>2026-03-24T10:04:02.994Z</time></trkpt><trkpt lat="30.0292248315881" lon="-5.659720450507011"><ele>641.0</ele><time>2026-03-24T10:04:03.994Z</time></trkpt><trkpt lat="30.029148051088114" lon="-5.659654341481115"><ele>641.0</ele><time>2026-03-24T10:04:04.994Z</time></trkpt><trkpt lat="30.029067951893374" lon="-5.659580874924012"><ele>641.0</ele><time>2026-03-24T10:04:05.994Z</time></trkpt><trkpt lat="30.028990311307275" lon="-5.659510073612428"><ele>641.0</ele><time>2026-03-24T10:04:06.994Z</time></trkpt><trkpt lat="30.028912683409626" lon="-5.659435647195699"><ele>641.0</ele><time>2026-03-24T10:04:07.994Z</time></trkpt><trkpt lat="30.028831987840174" lon="-5.659361590982435"><ele>641.0</ele><time>2026-03-24T10:04:08.994Z</time></trkpt><trkpt lat="30.02875759445069" lon="-5.659271304242817"><ele>641.0</ele><time>2026-03-24T10:04:09.994Z</time></trkpt><trkpt lat="30.028689454780107" lon="-5.659177129264391"><ele>641.0</ele><time>2026-03-24T10:04:10.994Z</time></trkpt><trkpt lat="30.0286137724599" lon="-5.659069067634886"><ele>641.0</ele><time>2026-03-24T10:04:11.994Z</time></trkpt><trkpt lat="30.02853956783575" lon="-5.658963837648245"><ele>641.0</ele><time>2026-03-24T10:04:12.994Z</time></trkpt><trkpt lat="30.028466028221132" lon="-5.658860026086893"><ele>641.0</ele><time>2026-03-24T10:04:13.994Z</time></trkpt><trkpt lat="30.02839811184872" lon="-5.658765309026763"><ele>641.0</ele><time>2026-03-24T10:04:14.994Z</time></trkpt><trkpt lat="30.028323674578612" lon="-5.658664860534044"><ele>641.0</ele><time>2026-03-24T10:04:15.994Z</time></trkpt><trkpt lat="30.028250457657734" lon="-5.658561885956309"><ele>641.0</ele><time>2026-03-24T10:04:16.994Z</time></trkpt><trkpt lat="30.02816566011941" lon="-5.658467527875862"><ele>641.0</ele><time>2026-03-24T10:04:17.994Z</time></trkpt><trkpt lat="30.028061378227974" lon="-5.658379028965795"><ele>641.25</ele><time>2026-03-24T10:04:18.994Z</time></trkpt><trkpt lat="30.02795248530878" lon="-5.658286880961499"><ele>641.5</ele><time>2026-03-24T10:04:19.994Z</time></trkpt><trkpt lat="30.02784121145058" lon="-5.658185883933744"><ele>641.75</ele><time>2026-03-24T10:04:20.994Z</time></trkpt><trkpt lat="30.02773780756417" lon="-5.658092437686436"><ele>642.0</ele><time>2026-03-24T10:04:21.994Z</time></trkpt><trkpt lat="30.027634625734624" lon="-5.658005107167491"><ele>642.0</ele><time>2026-03-24T10:04:22.994Z</time></trkpt><trkpt lat="30.027519544568943" lon="-5.65791362681506"><ele>642.0</ele><time>2026-03-24T10:04:23.994Z</time></trkpt><trkpt lat="30.027411053208645" lon="-5.657837424431243"><ele>642.0</ele><time>2026-03-24T10:04:24.994Z</time></trkpt><trkpt lat="30.027298458829158" lon="-5.657761008296792"><ele>642.0</ele><time>2026-03-24T10:04:25.994Z</time></trkpt><trkpt lat="30.027199236507624" lon="-5.657671857988462"><ele>641.75</ele><time>2026-03-24T10:04:26.993Z</time></trkpt><trkpt lat="30.02709933854338" lon="-5.657580014444098"><ele>641.5</ele><time>2026-03-24T10:04:27.993Z</time></trkpt><trkpt lat="30.026997409920927" lon="-5.657492123611541"><ele>641.25</ele><time>2026-03-24T10:04:28.993Z</time></trkpt><trkpt lat="30.02689750070879" lon="-5.657405557239106"><ele>641.0</ele><time>2026-03-24T10:04:29.994Z</time></trkpt><trkpt lat="30.026795968636613" lon="-5.657309461919199"><ele>641.0</ele><time>2026-03-24T10:04:30.994Z</time></trkpt><trkpt lat="30.02669898781561" lon="-5.6572059825204315"><ele>641.0</ele><time>2026-03-24T10:04:31.994Z</time></trkpt><trkpt lat="30.026608375853918" lon="-5.657091032804472"><ele>641.0</ele><time>2026-03-24T10:04:32.994Z</time></trkpt><trkpt lat="30.026526146050415" lon="-5.656965449615506"><ele>641.0</ele><time>2026-03-24T10:04:33.994Z</time></trkpt><trkpt lat="30.026447271676993" lon="-5.656838939725107"><ele>640.5</ele><time>2026-03-24T10:04:34.994Z</time></trkpt><trkpt lat="30.026362038537904" lon="-5.656712738990275"><ele>640.0</ele><time>2026-03-24T10:04:35.994Z</time></trkpt><trkpt lat="30.026282962517104" lon="-5.656602479478822"><ele>639.5</ele><time>2026-03-24T10:04:36.994Z</time></trkpt><trkpt lat="30.026197961877745" lon="-5.656502658607068"><ele>639.0</ele><time>2026-03-24T10:04:37.994Z</time></trkpt><trkpt lat="30.02612576254477" lon="-5.656398948423871"><ele>639.0</ele><time>2026-03-24T10:04:38.994Z</time></trkpt><trkpt lat="30.02607650447916" lon="-5.656297203171924"><ele>639.0</ele><time>2026-03-24T10:04:39.993Z</time></trkpt><trkpt lat="30.026037023171288" lon="-5.656205352604279"><ele>639.0</ele><time>2026-03-24T10:04:40.993Z</time></trkpt><trkpt lat="30.025996819562415" lon="-5.656112219938307"><ele>639.0</ele><time>2026-03-24T10:04:41.994Z</time></trkpt><trkpt lat="30.025965886175307" lon="-5.656009985949567"><ele>639.0</ele><time>2026-03-24T10:04:42.993Z</time></trkpt><trkpt lat="30.02596783854867" lon="-5.65590057060453"><ele>639.1666666666666</ele><time>2026-03-24T10:04:43.993Z</time></trkpt><trkpt lat="30.025996207793465" lon="-5.655780027087189"><ele>639.3333333333334</ele><time>2026-03-24T10:04:44.993Z</time></trkpt><trkpt lat="30.026022054718425" lon="-5.65566973448279"><ele>639.5</ele><time>2026-03-24T10:04:45.993Z</time></trkpt><trkpt lat="30.026040376992785" lon="-5.6555750358543495"><ele>639.6666666666667</ele><time>2026-03-24T10:04:46.993Z</time></trkpt><trkpt lat="30.026053230818896" lon="-5.655494726211262"><ele>639.8333333333334</ele><time>2026-03-24T10:04:47.993Z</time></trkpt><trkpt lat="30.02606232384905" lon="-5.655419686690035"><ele>640.0</ele><time>2026-03-24T10:04:48.993Z</time></trkpt><trkpt lat="30.026033961421252" lon="-5.655278936709028"><ele>639.6666666666667</ele><time>2026-03-24T10:04:50.993Z</time></trkpt><trkpt lat="30.025987488734565" lon="-5.655227271305045"><ele>639.3333333333334</ele><time>2026-03-24T10:04:51.993Z</time></trkpt><trkpt lat="30.02592480755822" lon="-5.655183390306217"><ele>639.0</ele><time>2026-03-24T10:04:52.993Z</time></trkpt><trkpt lat="30.02586698935512" lon="-5.655125466970453"><ele>638.6666666666666</ele><time>2026-03-24T10:04:53.993Z</time></trkpt><trkpt lat="30.025818600846485" lon="-5.65505670155146"><ele>638.3333333333333</ele><time>2026-03-24T10:04:54.993Z</time></trkpt><trkpt lat="30.02577291407799" lon="-5.654980874554204"><ele>638.0</ele><time>2026-03-24T10:04:55.993Z</time></trkpt><trkpt lat="30.02572866777561" lon="-5.654899016597022"><ele>638.0</ele><time>2026-03-24T10:04:56.993Z</time></trkpt><trkpt lat="30.025686527252564" lon="-5.654820939750883"><ele>638.0</ele><time>2026-03-24T10:04:57.993Z</time></trkpt><trkpt lat="30.025641678022065" lon="-5.65474573767399"><ele>638.0</ele><time>2026-03-24T10:04:58.993Z</time></trkpt><trkpt lat="30.02559920368553" lon="-5.654676811589006"><ele>638.0</ele><time>2026-03-24T10:04:59.993Z</time></trkpt><trkpt lat="30.02556021089031" lon="-5.654611714363091"><ele>638.0</ele><time>2026-03-24T10:05:00.993Z</time></trkpt><trkpt lat="30.02550273856476" lon="-5.654499397806644"><ele>638.0</ele><time>2026-03-24T10:05:02.993Z</time></trkpt><trkpt lat="30.025438422596146" lon="-5.654434462491437"><ele>638.0</ele><time>2026-03-24T10:05:04.993Z</time></trkpt><trkpt lat="30.02538626152226" lon="-5.6543879774977786"><ele>638.0</ele><time>2026-03-24T10:05:06.993Z</time></trkpt><trkpt lat="30.025333604998913" lon="-5.654330855882384"><ele>638.0</ele><time>2026-03-24T10:05:08.993Z</time></trkpt><trkpt lat="30.025279854310682" lon="-5.6542760955630005"><ele>638.0</ele><time>2026-03-24T10:05:11.993Z</time></trkpt><trkpt lat="30.025228783337166" lon="-5.654227070779418"><ele>638.0</ele><time>2026-03-24T10:05:14.993Z</time></trkpt><trkpt lat="30.025177892379254" lon="-5.654163491224006"><ele>638.0</ele><time>2026-03-24T10:05:17.993Z</time></trkpt><trkpt lat="30.025122077066904" lon="-5.654073337857527"><ele>638.0</ele><time>2026-03-24T10:05:19.993Z</time></trkpt><trkpt lat="30.02508764005213" lon="-5.654007551538499"><ele>638.0</ele><time>2026-03-24T10:05:20.993Z</time></trkpt><trkpt lat="30.025051624265444" lon="-5.653940889570761"><ele>638.0</ele><time>2026-03-24T10:05:21.993Z</time></trkpt><trkpt lat="30.024994146559322" lon="-5.653875690625655"><ele>638.0</ele><time>2026-03-24T10:05:22.993Z</time></trkpt><trkpt lat="30.02492352661645" lon="-5.65381218607585"><ele>638.0</ele><time>2026-03-24T10:05:23.993Z</time></trkpt><trkpt lat="30.024846265974556" lon="-5.653743729113769"><ele>638.0</ele><time>2026-03-24T10:05:24.993Z</time></trkpt><trkpt lat="30.02476077795633" lon="-5.6536589457386315"><ele>638.0</ele><time>2026-03-24T10:05:25.993Z</time></trkpt><trkpt lat="30.02468241977072" lon="-5.653575570521853"><ele>638.0</ele><time>2026-03-24T10:05:26.993Z</time></trkpt><trkpt lat="30.024604582291346" lon="-5.653495864502028"><ele>638.0</ele><time>2026-03-24T10:05:27.993Z</time></trkpt><trkpt lat="30.02452160173113" lon="-5.65341410868028"><ele>638.0</ele><time>2026-03-24T10:05:28.993Z</time></trkpt><trkpt lat="30.02443734573067" lon="-5.6533263588238425"><ele>638.0</ele><time>2026-03-24T10:05:29.993Z</time></trkpt><trkpt lat="30.024352731702937" lon="-5.653232080277419"><ele>638.0</ele><time>2026-03-24T10:05:30.993Z</time></trkpt><trkpt lat="30.024260881090726" lon="-5.653125980482196"><ele>638.0</ele><time>2026-03-24T10:05:31.993Z</time></trkpt><trkpt lat="30.024160668121155" lon="-5.653015048963601"><ele>638.0</ele><time>2026-03-24T10:05:32.993Z</time></trkpt><trkpt lat="30.024062489642656" lon="-5.652898492260252"><ele>638.0</ele><time>2026-03-24T10:05:33.993Z</time></trkpt><trkpt lat="30.023967396121108" lon="-5.652783330308749"><ele>638.0</ele><time>2026-03-24T10:05:34.993Z</time></trkpt><trkpt lat="30.023873373848307" lon="-5.652673590455874"><ele>638.0</ele><time>2026-03-24T10:05:35.993Z</time></trkpt><trkpt lat="30.02377626596726" lon="-5.65256115688828"><ele>638.0</ele><time>2026-03-24T10:05:36.993Z</time></trkpt><trkpt lat="30.02368091445707" lon="-5.65244699604327"><ele>638.0</ele><time>2026-03-24T10:05:37.993Z</time></trkpt><trkpt lat="30.023576916480096" lon="-5.6523284578437885"><ele>638.0</ele><time>2026-03-24T10:05:38.993Z</time></trkpt><trkpt lat="30.023466956728015" lon="-5.652203581790685"><ele>638.0</ele><time>2026-03-24T10:05:39.993Z</time></trkpt><trkpt lat="30.023344794186475" lon="-5.652059089759094"><ele>638.0</ele><time>2026-03-24T10:05:40.993Z</time></trkpt><trkpt lat="30.023193120105788" lon="-5.65191155688856"><ele>638.0</ele><time>2026-03-24T10:05:41.993Z</time></trkpt><trkpt lat="30.023046791817293" lon="-5.651758252528871"><ele>638.3333333333333</ele><time>2026-03-24T10:05:42.993Z</time></trkpt><trkpt lat="30.022894345636587" lon="-5.651605820828905"><ele>638.6666666666666</ele><time>2026-03-24T10:05:43.993Z</time></trkpt><trkpt lat="30.02275264087267" lon="-5.651461534470639"><ele>639.0</ele><time>2026-03-24T10:05:44.993Z</time></trkpt><trkpt lat="30.022606373973247" lon="-5.651316161127219"><ele>638.6666666666666</ele><time>2026-03-24T10:05:45.993Z</time></trkpt><trkpt lat="30.02246186440703" lon="-5.651169792409719"><ele>638.3333333333333</ele><time>2026-03-24T10:05:46.993Z</time></trkpt><trkpt lat="30.022318525935546" lon="-5.6510205531347895"><ele>638.0</ele><time>2026-03-24T10:05:47.993Z</time></trkpt><trkpt lat="30.02217029707519" lon="-5.650866031425095"><ele>637.0</ele><time>2026-03-24T10:05:48.993Z</time></trkpt><trkpt lat="30.022024009573506" lon="-5.6507142706568905"><ele>636.0</ele><time>2026-03-24T10:05:49.993Z</time></trkpt><trkpt lat="30.021881369139297" lon="-5.6505582432319414"><ele>635.0</ele><time>2026-03-24T10:05:50.993Z</time></trkpt><trkpt lat="30.021738572438025" lon="-5.650399608218133"><ele>635.3333333333333</ele><time>2026-03-24T10:05:51.993Z</time></trkpt><trkpt lat="30.02161547020692" lon="-5.650265965646866"><ele>635.6666666666666</ele><time>2026-03-24T10:05:52.993Z</time></trkpt><trkpt lat="30.0214905360158" lon="-5.6501378388462955"><ele>636.0</ele><time>2026-03-24T10:05:53.993Z</time></trkpt><trkpt lat="30.02137108137136" lon="-5.650009407403164"><ele>636.0</ele><time>2026-03-24T10:05:54.993Z</time></trkpt><trkpt lat="30.021246205465577" lon="-5.649874357056478"><ele>636.0</ele><time>2026-03-24T10:05:55.993Z</time></trkpt><trkpt lat="30.02111725487086" lon="-5.64973998183217"><ele>636.0</ele><time>2026-03-24T10:05:56.993Z</time></trkpt><trkpt lat="30.02098497653372" lon="-5.6496014097934255"><ele>636.0</ele><time>2026-03-24T10:05:57.993Z</time></trkpt><trkpt lat="30.02084772819012" lon="-5.649460404816114"><ele>636.0</ele><time>2026-03-24T10:05:58.993Z</time></trkpt><trkpt lat="30.020710877840074" lon="-5.649322658310875"><ele>636.0</ele><time>2026-03-24T10:05:59.993Z</time></trkpt><trkpt lat="30.02056512579477" lon="-5.649181625509868"><ele>636.3333333333334</ele><time>2026-03-24T10:06:00.993Z</time></trkpt><trkpt lat="30.020419036868685" lon="-5.649045009358715"><ele>636.6666666666667</ele><time>2026-03-24T10:06:01.993Z</time></trkpt><trkpt lat="30.020272060137014" lon="-5.648907764071961"><ele>637.0</ele><time>2026-03-24T10:06:02.993Z</time></trkpt><trkpt lat="30.02012909437061" lon="-5.648777690084683"><ele>637.0</ele><time>2026-03-24T10:06:03.993Z</time></trkpt><trkpt lat="30.019991343692773" lon="-5.648647185306497"><ele>637.0</ele><time>2026-03-24T10:06:04.993Z</time></trkpt><trkpt lat="30.01985598418062" lon="-5.648522584584739"><ele>637.0</ele><time>2026-03-24T10:06:05.993Z</time></trkpt><trkpt lat="30.019715957934192" lon="-5.648393473599685"><ele>636.6666666666667</ele><time>2026-03-24T10:06:06.993Z</time></trkpt><trkpt lat="30.01958078102412" lon="-5.648272828633471"><ele>636.3333333333334</ele><time>2026-03-24T10:06:07.993Z</time></trkpt><trkpt lat="30.01945127754586" lon="-5.6481550955167625"><ele>636.0</ele><time>2026-03-24T10:06:08.993Z</time></trkpt><trkpt lat="30.01933483416215" lon="-5.64805029893866"><ele>636.0</ele><time>2026-03-24T10:06:09.993Z</time></trkpt><trkpt lat="30.019224246357712" lon="-5.647955636920201"><ele>636.0</ele><time>2026-03-24T10:06:10.993Z</time></trkpt><trkpt lat="30.019127957847672" lon="-5.647867324038483"><ele>636.0</ele><time>2026-03-24T10:06:11.993Z</time></trkpt><trkpt lat="30.019034005575882" lon="-5.6477929855297955"><ele>636.0</ele><time>2026-03-24T10:06:12.993Z</time></trkpt><trkpt lat="30.018945310403026" lon="-5.647708378768684"><ele>635.8</ele><time>2026-03-24T10:06:13.993Z</time></trkpt><trkpt lat="30.018858681127647" lon="-5.647642606705818"><ele>635.6</ele><time>2026-03-24T10:06:14.993Z</time></trkpt><trkpt lat="30.01878253619396" lon="-5.647584286468527"><ele>635.4</ele><time>2026-03-24T10:06:15.993Z</time></trkpt><trkpt lat="30.01870137484443" lon="-5.647519288452739"><ele>635.2</ele><time>2026-03-24T10:06:16.993Z</time></trkpt><trkpt lat="30.018606360542407" lon="-5.647458454577646"><ele>635.0</ele><time>2026-03-24T10:06:17.993Z</time></trkpt><trkpt lat="30.018510431609688" lon="-5.647382320010611"><ele>635.0</ele><time>2026-03-24T10:06:18.993Z</time></trkpt><trkpt lat="30.018396531205095" lon="-5.647303219732523"><ele>635.0</ele><time>2026-03-24T10:06:19.993Z</time></trkpt><trkpt lat="30.018270586568487" lon="-5.647206632506026"><ele>635.0</ele><time>2026-03-24T10:06:20.993Z</time></trkpt><trkpt lat="30.018134773649802" lon="-5.647106696782845"><ele>635.0</ele><time>2026-03-24T10:06:21.993Z</time></trkpt><trkpt lat="30.017985773631874" lon="-5.646994990019036"><ele>635.3333333333333</ele><time>2026-03-24T10:06:22.993Z</time></trkpt><trkpt lat="30.017842415838423" lon="-5.64688224829003"><ele>635.6666666666666</ele><time>2026-03-24T10:06:23.993Z</time></trkpt><trkpt lat="30.01771121241887" lon="-5.6467738923524955"><ele>636.0</ele><time>2026-03-24T10:06:24.993Z</time></trkpt><trkpt lat="30.01759924311754" lon="-5.646670902278942"><ele>636.0</ele><time>2026-03-24T10:06:25.993Z</time></trkpt><trkpt lat="30.0174915461706" lon="-5.64656929397042"><ele>636.0</ele><time>2026-03-24T10:06:26.993Z</time></trkpt><trkpt lat="30.01739422480203" lon="-5.646472067234357"><ele>636.0</ele><time>2026-03-24T10:06:27.993Z</time></trkpt><trkpt lat="30.017311947445332" lon="-5.646376960381688"><ele>636.0</ele><time>2026-03-24T10:06:28.993Z</time></trkpt><trkpt lat="30.017236682006324" lon="-5.64629190646193"><ele>635.8</ele><time>2026-03-24T10:06:29.993Z</time></trkpt><trkpt lat="30.017174679621522" lon="-5.646206549221566"><ele>635.6</ele><time>2026-03-24T10:06:30.993Z</time></trkpt><trkpt lat="30.01711954563984" lon="-5.646120644603852"><ele>635.4</ele><time>2026-03-24T10:06:31.993Z</time></trkpt><trkpt lat="30.01707297011671" lon="-5.6460170915764065"><ele>635.2</ele><time>2026-03-24T10:06:32.993Z</time></trkpt><trkpt lat="30.017031507574373" lon="-5.645912684780875"><ele>635.0</ele><time>2026-03-24T10:06:33.993Z</time></trkpt><trkpt lat="30.016990383364377" lon="-5.645792937667588"><ele>634.5</ele><time>2026-03-24T10:06:34.993Z</time></trkpt><trkpt lat="30.016940305272012" lon="-5.645669733620456"><ele>634.0</ele><time>2026-03-24T10:06:35.993Z</time></trkpt><trkpt lat="30.01688334496168" lon="-5.645531072461305"><ele>633.5</ele><time>2026-03-24T10:06:36.994Z</time></trkpt><trkpt lat="30.016807657950043" lon="-5.645397866064104"><ele>633.0</ele><time>2026-03-24T10:06:37.994Z</time></trkpt><trkpt lat="30.01673828004624" lon="-5.645272152726792"><ele>633.0</ele><time>2026-03-24T10:06:38.993Z</time></trkpt><trkpt lat="30.01668524508318" lon="-5.645151309127434"><ele>633.0</ele><time>2026-03-24T10:06:39.993Z</time></trkpt><trkpt lat="30.0166418032383" lon="-5.645021360156175"><ele>633.0</ele><time>2026-03-24T10:06:40.993Z</time></trkpt><trkpt lat="30.016601092499123" lon="-5.644890796471252"><ele>633.0</ele><time>2026-03-24T10:06:41.994Z</time></trkpt><trkpt lat="30.01655454867513" lon="-5.6447657014973895"><ele>633.0</ele><time>2026-03-24T10:06:42.994Z</time></trkpt><trkpt lat="30.016493279550097" lon="-5.644634148997327"><ele>633.0</ele><time>2026-03-24T10:06:43.994Z</time></trkpt><trkpt lat="30.01641787955737" lon="-5.644514317339717"><ele>633.0</ele><time>2026-03-24T10:06:44.993Z</time></trkpt><trkpt lat="30.016341953943144" lon="-5.644394841404265"><ele>633.0</ele><time>2026-03-24T10:06:45.993Z</time></trkpt><trkpt lat="30.016265514218468" lon="-5.644282394599346"><ele>632.75</ele><time>2026-03-24T10:06:46.993Z</time></trkpt><trkpt lat="30.01618757179114" lon="-5.644163650147887"><ele>632.5</ele><time>2026-03-24T10:06:47.993Z</time></trkpt><trkpt lat="30.01610985513487" lon="-5.644049200406596"><ele>632.25</ele><time>2026-03-24T10:06:48.993Z</time></trkpt><trkpt lat="30.0160358494221" lon="-5.643937861328046"><ele>632.0</ele><time>2026-03-24T10:06:49.993Z</time></trkpt><trkpt lat="30.015955295271674" lon="-5.643817289413446"><ele>632.0</ele><time>2026-03-24T10:06:50.993Z</time></trkpt><trkpt lat="30.015879791915292" lon="-5.643699002288061"><ele>632.0</ele><time>2026-03-24T10:06:51.993Z</time></trkpt><trkpt lat="30.015803176475696" lon="-5.643579518241738"><ele>632.0</ele><time>2026-03-24T10:06:52.993Z</time></trkpt><trkpt lat="30.015730310388044" lon="-5.643458798159789"><ele>632.0</ele><time>2026-03-24T10:06:53.993Z</time></trkpt><trkpt lat="30.01564663613243" lon="-5.6433357706689335"><ele>631.25</ele><time>2026-03-24T10:06:54.993Z</time></trkpt><trkpt lat="30.015560425454108" lon="-5.643213672553659"><ele>630.5</ele><time>2026-03-24T10:06:55.993Z</time></trkpt><trkpt lat="30.01547452665837" lon="-5.643086351295225"><ele>629.75</ele><time>2026-03-24T10:06:56.993Z</time></trkpt><trkpt lat="30.015392741709043" lon="-5.642958261034626"><ele>629.0</ele><time>2026-03-24T10:06:57.993Z</time></trkpt><trkpt lat="30.01531256734101" lon="-5.642835288124754"><ele>629.6666666666666</ele><time>2026-03-24T10:06:58.993Z</time></trkpt><trkpt lat="30.015224080700186" lon="-5.6426997017482465"><ele>630.3333333333334</ele><time>2026-03-24T10:06:59.993Z</time></trkpt><trkpt lat="30.015121188484578" lon="-5.64254426546496"><ele>631.0</ele><time>2026-03-24T10:07:00.993Z</time></trkpt><trkpt lat="30.015012415785357" lon="-5.642383907717294"><ele>630.6666666666667</ele><time>2026-03-24T10:07:01.993Z</time></trkpt><trkpt lat="30.01491085319725" lon="-5.642236238675768"><ele>630.3333333333334</ele><time>2026-03-24T10:07:02.993Z</time></trkpt><trkpt lat="30.014811521139475" lon="-5.642093567620992"><ele>630.0</ele><time>2026-03-24T10:07:03.993Z</time></trkpt><trkpt lat="30.014708887943364" lon="-5.641940249033221"><ele>630.0</ele><time>2026-03-24T10:07:04.993Z</time></trkpt><trkpt lat="30.014608604139173" lon="-5.641778712993766"><ele>630.0</ele><time>2026-03-24T10:07:05.993Z</time></trkpt><trkpt lat="30.01450415366805" lon="-5.641620467737284"><ele>630.0</ele><time>2026-03-24T10:07:06.993Z</time></trkpt><trkpt lat="30.01437078101465" lon="-5.641513613386811"><ele>630.0</ele><time>2026-03-24T10:07:07.993Z</time></trkpt><trkpt lat="30.014282945256255" lon="-5.641376217033882"><ele>630.0</ele><time>2026-03-24T10:07:08.993Z</time></trkpt><trkpt lat="30.014205099113294" lon="-5.641258217805872"><ele>630.0</ele><time>2026-03-24T10:07:09.993Z</time></trkpt><trkpt lat="30.014130732627144" lon="-5.641146470206087"><ele>630.0</ele><time>2026-03-24T10:07:10.993Z</time></trkpt><trkpt lat="30.01406900915849" lon="-5.641028039924293"><ele>630.5</ele><time>2026-03-24T10:07:11.993Z</time></trkpt><trkpt lat="30.013984374184307" lon="-5.6408989971478825"><ele>631.0</ele><time>2026-03-24T10:07:12.993Z</time></trkpt><trkpt lat="30.013882697724828" lon="-5.640772600538321"><ele>631.5</ele><time>2026-03-24T10:07:13.993Z</time></trkpt><trkpt lat="30.013803488087415" lon="-5.64062309150935"><ele>632.0</ele><time>2026-03-24T10:07:14.993Z</time></trkpt><trkpt lat="30.01369915603477" lon="-5.6404956832772"><ele>632.0</ele><time>2026-03-24T10:07:15.993Z</time></trkpt><trkpt lat="30.01361618715924" lon="-5.640341058760756"><ele>632.0</ele><time>2026-03-24T10:07:16.993Z</time></trkpt><trkpt lat="30.013522537508333" lon="-5.64020084242873"><ele>632.0</ele><time>2026-03-24T10:07:17.993Z</time></trkpt><trkpt lat="30.01343343276135" lon="-5.640062519168672"><ele>632.0</ele><time>2026-03-24T10:07:18.993Z</time></trkpt><trkpt lat="30.013341472765557" lon="-5.6399223533688705"><ele>632.0</ele><time>2026-03-24T10:07:19.993Z</time></trkpt><trkpt lat="30.013247605310113" lon="-5.639785484828751"><ele>632.0</ele><time>2026-03-24T10:07:20.993Z</time></trkpt><trkpt lat="30.01315846207361" lon="-5.639651835029438"><ele>632.0</ele><time>2026-03-24T10:07:21.993Z</time></trkpt><trkpt lat="30.013078982942115" lon="-5.639517297663661"><ele>632.0</ele><time>2026-03-24T10:07:22.993Z</time></trkpt><trkpt lat="30.012989322042355" lon="-5.639379975415309"><ele>632.0</ele><time>2026-03-24T10:07:23.993Z</time></trkpt><trkpt lat="30.012905540455932" lon="-5.639253509355136"><ele>632.0</ele><time>2026-03-24T10:07:24.993Z</time></trkpt><trkpt lat="30.01281930380476" lon="-5.639118704001662"><ele>632.0</ele><time>2026-03-24T10:07:25.993Z</time></trkpt><trkpt lat="30.012734592970883" lon="-5.6389820247827815"><ele>632.0</ele><time>2026-03-24T10:07:26.993Z</time></trkpt><trkpt lat="30.012645434080117" lon="-5.638846905384138"><ele>632.0</ele><time>2026-03-24T10:07:27.993Z</time></trkpt><trkpt lat="30.012556340148276" lon="-5.63871287233414"><ele>632.0</ele><time>2026-03-24T10:07:28.993Z</time></trkpt><trkpt lat="30.012470922700437" lon="-5.638582537988314"><ele>631.0</ele><time>2026-03-24T10:07:29.993Z</time></trkpt><trkpt lat="30.012384895533582" lon="-5.638450648488827"><ele>630.0</ele><time>2026-03-24T10:07:30.993Z</time></trkpt><trkpt lat="30.012297630265614" lon="-5.638318178616417"><ele>629.0</ele><time>2026-03-24T10:07:31.993Z</time></trkpt><trkpt lat="30.01219555838281" lon="-5.638195568700399"><ele>628.0</ele><time>2026-03-24T10:07:32.993Z</time></trkpt><trkpt lat="30.01210861977756" lon="-5.638069571941739"><ele>628.0</ele><time>2026-03-24T10:07:33.993Z</time></trkpt><trkpt lat="30.012018321907355" lon="-5.637938723869115"><ele>628.0</ele><time>2026-03-24T10:07:34.993Z</time></trkpt><trkpt lat="30.01193190898278" lon="-5.637813046077697"><ele>628.0</ele><time>2026-03-24T10:07:35.993Z</time></trkpt><trkpt lat="30.01184302197324" lon="-5.637683766135163"><ele>628.0</ele><time>2026-03-24T10:07:36.993Z</time></trkpt><trkpt lat="30.011756103113562" lon="-5.637557347081458"><ele>628.0</ele><time>2026-03-24T10:07:37.993Z</time></trkpt><trkpt lat="30.01166786518535" lon="-5.63742900541986"><ele>628.0</ele><time>2026-03-24T10:07:38.993Z</time></trkpt><trkpt lat="30.01157780527414" lon="-5.637298151692861"><ele>628.0</ele><time>2026-03-24T10:07:39.993Z</time></trkpt><trkpt lat="30.01148867018299" lon="-5.637169142427296"><ele>628.0</ele><time>2026-03-24T10:07:40.993Z</time></trkpt><trkpt lat="30.011398332568604" lon="-5.637039595029694"><ele>628.25</ele><time>2026-03-24T10:07:41.993Z</time></trkpt><trkpt lat="30.011307078523487" lon="-5.636908826203851"><ele>628.5</ele><time>2026-03-24T10:07:42.993Z</time></trkpt><trkpt lat="30.01121482350004" lon="-5.63677662311349"><ele>628.75</ele><time>2026-03-24T10:07:43.993Z</time></trkpt><trkpt lat="30.011118957968378" lon="-5.636639246011677"><ele>629.0</ele><time>2026-03-24T10:07:44.993Z</time></trkpt><trkpt lat="30.011026055681455" lon="-5.636504924708974"><ele>629.0</ele><time>2026-03-24T10:07:45.993Z</time></trkpt><trkpt lat="30.010933730178085" lon="-5.636372463151779"><ele>629.0</ele><time>2026-03-24T10:07:46.993Z</time></trkpt><trkpt lat="30.0108429702964" lon="-5.636242247950934"><ele>629.0</ele><time>2026-03-24T10:07:47.993Z</time></trkpt><trkpt lat="30.010754043564667" lon="-5.636117867568021"><ele>629.0</ele><time>2026-03-24T10:07:48.993Z</time></trkpt><trkpt lat="30.01066819104118" lon="-5.635998450871703"><ele>628.5</ele><time>2026-03-24T10:07:49.993Z</time></trkpt><trkpt lat="30.010583246921318" lon="-5.635879970608468"><ele>628.0</ele><time>2026-03-24T10:07:50.993Z</time></trkpt><trkpt lat="30.01049779023488" lon="-5.63576076397544"><ele>627.5</ele><time>2026-03-24T10:07:51.993Z</time></trkpt><trkpt lat="30.010406544965313" lon="-5.635633472563063"><ele>627.0</ele><time>2026-03-24T10:07:52.993Z</time></trkpt><trkpt lat="30.010317021787888" lon="-5.635508824857165"><ele>627.0</ele><time>2026-03-24T10:07:53.993Z</time></trkpt><trkpt lat="30.010227212681798" lon="-5.635383862270029"><ele>627.0</ele><time>2026-03-24T10:07:54.993Z</time></trkpt><trkpt lat="30.010135394315668" lon="-5.635256103986627"><ele>627.0</ele><time>2026-03-24T10:07:55.993Z</time></trkpt><trkpt lat="30.010045781889463" lon="-5.6351312811502074"><ele>627.0</ele><time>2026-03-24T10:07:56.993Z</time></trkpt><trkpt lat="30.009961126142173" lon="-5.635013256209675"><ele>627.25</ele><time>2026-03-24T10:07:57.993Z</time></trkpt><trkpt lat="30.009873407887426" lon="-5.634890961617723"><ele>627.5</ele><time>2026-03-24T10:07:58.993Z</time></trkpt><trkpt lat="30.009792442855726" lon="-5.634778081614051"><ele>627.75</ele><time>2026-03-24T10:07:59.993Z</time></trkpt><trkpt lat="30.00970811954728" lon="-5.6346605201528925"><ele>628.0</ele><time>2026-03-24T10:08:00.993Z</time></trkpt><trkpt lat="30.009627258341993" lon="-5.634547000301614"><ele>628.0</ele><time>2026-03-24T10:08:01.993Z</time></trkpt><trkpt lat="30.00954612773" lon="-5.634432964745226"><ele>628.0</ele><time>2026-03-24T10:08:02.993Z</time></trkpt><trkpt lat="30.009461835703657" lon="-5.634314485501914"><ele>628.0</ele><time>2026-03-24T10:08:03.993Z</time></trkpt><trkpt lat="30.009379708232704" lon="-5.634199239959882"><ele>628.0</ele><time>2026-03-24T10:08:04.993Z</time></trkpt><trkpt lat="30.0092970810591" lon="-5.634083803272375"><ele>628.0</ele><time>2026-03-24T10:08:05.993Z</time></trkpt><trkpt lat="30.00921211702892" lon="-5.633965101895027"><ele>628.0</ele><time>2026-03-24T10:08:06.993Z</time></trkpt><trkpt lat="30.00912237953736" lon="-5.633839731506249"><ele>628.0</ele><time>2026-03-24T10:08:07.993Z</time></trkpt><trkpt lat="30.009030608807763" lon="-5.633711520587276"><ele>628.0</ele><time>2026-03-24T10:08:08.993Z</time></trkpt><trkpt lat="30.00893166464441" lon="-5.633573287838738"><ele>627.0</ele><time>2026-03-24T10:08:09.993Z</time></trkpt><trkpt lat="30.008823336577237" lon="-5.633455104216288"><ele>626.0</ele><time>2026-03-24T10:08:10.993Z</time></trkpt><trkpt lat="30.008693834285335" lon="-5.633345865072579"><ele>625.0</ele><time>2026-03-24T10:08:11.993Z</time></trkpt><trkpt lat="30.00856678353066" lon="-5.6332386938141"><ele>625.0</ele><time>2026-03-24T10:08:12.993Z</time></trkpt><trkpt lat="30.0084415336751" lon="-5.6331319715699175"><ele>625.0</ele><time>2026-03-24T10:08:13.993Z</time></trkpt><trkpt lat="30.00831370566534" lon="-5.63301954762481"><ele>625.0</ele><time>2026-03-24T10:08:14.993Z</time></trkpt><trkpt lat="30.008179426921217" lon="-5.632901450271012"><ele>625.6666666666667</ele><time>2026-03-24T10:08:15.993Z</time></trkpt><trkpt lat="30.008044883480334" lon="-5.63278312016688"><ele>626.3333333333334</ele><time>2026-03-24T10:08:16.993Z</time></trkpt><trkpt lat="30.007904199271373" lon="-5.632659389255718"><ele>627.0</ele><time>2026-03-24T10:08:17.993Z</time></trkpt><trkpt lat="30.007757448813535" lon="-5.632531006930503"><ele>627.0</ele><time>2026-03-24T10:08:18.993Z</time></trkpt><trkpt lat="30.00761085713019" lon="-5.632401404609959"><ele>627.0</ele><time>2026-03-24T10:08:19.993Z</time></trkpt><trkpt lat="30.00746317814451" lon="-5.63227073247706"><ele>627.0</ele><time>2026-03-24T10:08:20.993Z</time></trkpt><trkpt lat="30.00731533919831" lon="-5.6321399735349225"><ele>626.6666666666666</ele><time>2026-03-24T10:08:21.993Z</time></trkpt><trkpt lat="30.007169250941956" lon="-5.6320109375534555"><ele>626.3333333333333</ele><time>2026-03-24T10:08:22.993Z</time></trkpt><trkpt lat="30.00702750237395" lon="-5.631886328750527"><ele>626.0</ele><time>2026-03-24T10:08:23.993Z</time></trkpt><trkpt lat="30.00689163533313" lon="-5.63176689043574"><ele>626.0</ele><time>2026-03-24T10:08:24.993Z</time></trkpt><trkpt lat="30.006755003020604" lon="-5.631646779285262"><ele>626.0</ele><time>2026-03-24T10:08:25.993Z</time></trkpt><trkpt lat="30.006613644800314" lon="-5.631515514688598"><ele>626.0</ele><time>2026-03-24T10:08:26.993Z</time></trkpt><trkpt lat="30.00647647844984" lon="-5.631386750591587"><ele>626.3333333333333</ele><time>2026-03-24T10:08:27.993Z</time></trkpt><trkpt lat="30.00635129395013" lon="-5.631231581453322"><ele>626.6666666666666</ele><time>2026-03-24T10:08:28.993Z</time></trkpt><trkpt lat="30.006236183157387" lon="-5.63108157412554"><ele>627.0</ele><time>2026-03-24T10:08:29.993Z</time></trkpt><trkpt lat="30.00612147596291" lon="-5.630932092784648"><ele>627.0</ele><time>2026-03-24T10:08:30.993Z</time></trkpt><trkpt lat="30.006008955350413" lon="-5.630774078109107"><ele>627.0</ele><time>2026-03-24T10:08:31.993Z</time></trkpt><trkpt lat="30.005900549528864" lon="-5.630616800833574"><ele>627.0</ele><time>2026-03-24T10:08:32.993Z</time></trkpt><trkpt lat="30.005794311240336" lon="-5.630462400868414"><ele>627.0</ele><time>2026-03-24T10:08:33.993Z</time></trkpt><trkpt lat="30.005688761030623" lon="-5.63030900068798"><ele>627.0</ele><time>2026-03-24T10:08:34.993Z</time></trkpt><trkpt lat="30.005585102062327" lon="-5.630158351667907"><ele>627.0</ele><time>2026-03-24T10:08:35.993Z</time></trkpt><trkpt lat="30.005476947730784" lon="-5.62999995265313"><ele>627.0</ele><time>2026-03-24T10:08:36.993Z</time></trkpt><trkpt lat="30.005373316297167" lon="-5.62984862187974"><ele>627.0</ele><time>2026-03-24T10:08:37.993Z</time></trkpt><trkpt lat="30.00526422184692" lon="-5.629690306980788"><ele>627.0</ele><time>2026-03-24T10:08:38.993Z</time></trkpt><trkpt lat="30.005158040403497" lon="-5.629536219126177"><ele>626.6666666666666</ele><time>2026-03-24T10:08:39.993Z</time></trkpt><trkpt lat="30.00504891426413" lon="-5.629377741087508"><ele>626.3333333333333</ele><time>2026-03-24T10:08:40.993Z</time></trkpt><trkpt lat="30.004938303236756" lon="-5.629217021474417"><ele>626.0</ele><time>2026-03-24T10:08:41.993Z</time></trkpt><trkpt lat="30.00482414206208" lon="-5.629051144065028"><ele>625.6666666666666</ele><time>2026-03-24T10:08:42.993Z</time></trkpt><trkpt lat="30.004708373385345" lon="-5.628882859266743"><ele>625.3333333333334</ele><time>2026-03-24T10:08:43.993Z</time></trkpt><trkpt lat="30.00458900015252" lon="-5.628709233427037"><ele>625.0</ele><time>2026-03-24T10:08:44.993Z</time></trkpt><trkpt lat="30.004467219893147" lon="-5.628532106614478"><ele>625.0</ele><time>2026-03-24T10:08:45.993Z</time></trkpt><trkpt lat="30.004340646818587" lon="-5.628348008773464"><ele>625.0</ele><time>2026-03-24T10:08:46.993Z</time></trkpt><trkpt lat="30.004213978592833" lon="-5.628163772506655"><ele>625.0</ele><time>2026-03-24T10:08:47.994Z</time></trkpt><trkpt lat="30.004081779126025" lon="-5.627970521658438"><ele>624.3333333333334</ele><time>2026-03-24T10:08:48.993Z</time></trkpt><trkpt lat="30.003947020718154" lon="-5.627774194585845"><ele>623.6666666666666</ele><time>2026-03-24T10:08:49.993Z</time></trkpt><trkpt lat="30.003805752077017" lon="-5.627568689004381"><ele>623.0</ele><time>2026-03-24T10:08:50.993Z</time></trkpt><trkpt lat="30.003662196098677" lon="-5.627364338154458"><ele>623.0</ele><time>2026-03-24T10:08:51.993Z</time></trkpt><trkpt lat="30.003516526800112" lon="-5.627157883646572"><ele>623.0</ele><time>2026-03-24T10:08:52.993Z</time></trkpt><trkpt lat="30.00337671851557" lon="-5.626959735788317"><ele>623.0</ele><time>2026-03-24T10:08:53.993Z</time></trkpt><trkpt lat="30.00325443797355" lon="-5.626786766544307"><ele>623.0</ele><time>2026-03-24T10:08:54.993Z</time></trkpt><trkpt lat="30.003139111999296" lon="-5.6266230765087855"><ele>623.0</ele><time>2026-03-24T10:08:55.993Z</time></trkpt><trkpt lat="30.0030236681738" lon="-5.626459641989032"><ele>623.0</ele><time>2026-03-24T10:08:56.993Z</time></trkpt><trkpt lat="30.002911448919935" lon="-5.626300772510779"><ele>623.0</ele><time>2026-03-24T10:08:57.993Z</time></trkpt><trkpt lat="30.00280153131382" lon="-5.626145283810872"><ele>623.0</ele><time>2026-03-24T10:08:58.993Z</time></trkpt><trkpt lat="30.002697753605656" lon="-5.625998536382096"><ele>623.6666666666666</ele><time>2026-03-24T10:08:59.993Z</time></trkpt><trkpt lat="30.00259288357425" lon="-5.625850244320769"><ele>624.3333333333334</ele><time>2026-03-24T10:09:00.993Z</time></trkpt><trkpt lat="30.002487086244557" lon="-5.6256959904603345"><ele>625.0</ele><time>2026-03-24T10:09:01.993Z</time></trkpt><trkpt lat="30.002385633964913" lon="-5.625543535358721"><ele>625.0</ele><time>2026-03-24T10:09:02.993Z</time></trkpt><trkpt lat="30.002287606069352" lon="-5.625392037667853"><ele>625.0</ele><time>2026-03-24T10:09:03.993Z</time></trkpt><trkpt lat="30.00219460748505" lon="-5.625236026861883"><ele>625.0</ele><time>2026-03-24T10:09:04.993Z</time></trkpt><trkpt lat="30.00209698528547" lon="-5.625063659968852"><ele>624.3333333333334</ele><time>2026-03-24T10:09:05.993Z</time></trkpt><trkpt lat="30.002007438244163" lon="-5.624879817453485"><ele>623.6666666666666</ele><time>2026-03-24T10:09:06.993Z</time></trkpt><trkpt lat="30.001912820731228" lon="-5.624685763680312"><ele>623.0</ele><time>2026-03-24T10:09:07.993Z</time></trkpt><trkpt lat="30.001815811908788" lon="-5.624486686839285"><ele>623.0</ele><time>2026-03-24T10:09:08.993Z</time></trkpt><trkpt lat="30.001719344660223" lon="-5.624288721363991"><ele>623.0</ele><time>2026-03-24T10:09:09.993Z</time></trkpt><trkpt lat="30.00162503367381" lon="-5.624095180891481"><ele>623.0</ele><time>2026-03-24T10:09:10.993Z</time></trkpt><trkpt lat="30.001532165933302" lon="-5.623904535693696"><ele>622.6666666666666</ele><time>2026-03-24T10:09:11.993Z</time></trkpt><trkpt lat="30.001439376541246" lon="-5.623714043228689"><ele>622.3333333333334</ele><time>2026-03-24T10:09:12.993Z</time></trkpt><trkpt lat="30.00134807514137" lon="-5.623526605596658"><ele>622.0</ele><time>2026-03-24T10:09:13.993Z</time></trkpt><trkpt lat="30.00125428125243" lon="-5.623333355671933"><ele>621.6666666666667</ele><time>2026-03-24T10:09:14.993Z</time></trkpt><trkpt lat="30.0011615873103" lon="-5.623142110737649"><ele>621.3333333333334</ele><time>2026-03-24T10:09:15.993Z</time></trkpt><trkpt lat="30.001070251615673" lon="-5.622953924374221"><ele>621.0</ele><time>2026-03-24T10:09:16.993Z</time></trkpt><trkpt lat="30.000980262321253" lon="-5.6227689334747"><ele>621.0</ele><time>2026-03-24T10:09:17.993Z</time></trkpt><trkpt lat="30.000891532948405" lon="-5.622586885588601"><ele>621.0</ele><time>2026-03-24T10:09:18.993Z</time></trkpt><trkpt lat="30.000799542813738" lon="-5.622398638172654"><ele>621.0</ele><time>2026-03-24T10:09:19.993Z</time></trkpt><trkpt lat="30.00071374974148" lon="-5.622223072164041"><ele>621.3333333333334</ele><time>2026-03-24T10:09:20.993Z</time></trkpt><trkpt lat="30.000624449686473" lon="-5.622039048837652"><ele>621.6666666666667</ele><time>2026-03-24T10:09:21.993Z</time></trkpt><trkpt lat="30.000534793992607" lon="-5.621854377490977"><ele>622.0</ele><time>2026-03-24T10:09:22.993Z</time></trkpt><trkpt lat="30.000443079734513" lon="-5.621666060527007"><ele>621.6666666666667</ele><time>2026-03-24T10:09:23.993Z</time></trkpt><trkpt lat="30.000351898625283" lon="-5.621478819250552"><ele>621.3333333333334</ele><time>2026-03-24T10:09:24.993Z</time></trkpt><trkpt lat="30.000259812704606" lon="-5.621289097867278"><ele>621.0</ele><time>2026-03-24T10:09:25.993Z</time></trkpt><trkpt lat="30.00016837671859" lon="-5.621101578077102"><ele>621.0</ele><time>2026-03-24T10:09:26.993Z</time></trkpt><trkpt lat="30.000072548339322" lon="-5.62090615748866"><ele>621.0</ele><time>2026-03-24T10:09:27.993Z</time></trkpt><trkpt lat="29.999980745732213" lon="-5.620717051947716"><ele>621.0</ele><time>2026-03-24T10:09:28.993Z</time></trkpt><trkpt lat="29.999887787952254" lon="-5.620525566328111"><ele>621.0</ele><time>2026-03-24T10:09:29.993Z</time></trkpt><trkpt lat="29.999801229568686" lon="-5.620322148807257"><ele>621.0</ele><time>2026-03-24T10:09:30.993Z</time></trkpt><trkpt lat="29.99972144353587" lon="-5.620115812743565"><ele>621.0</ele><time>2026-03-24T10:09:31.993Z</time></trkpt><trkpt lat="29.99963587542731" lon="-5.6198942459465435"><ele>620.6666666666666</ele><time>2026-03-24T10:09:32.993Z</time></trkpt><trkpt lat="29.99956155541588" lon="-5.61967439484547"><ele>620.3333333333333</ele><time>2026-03-24T10:09:33.993Z</time></trkpt><trkpt lat="29.999473021218964" lon="-5.619490906031704"><ele>620.0</ele><time>2026-03-24T10:09:34.993Z</time></trkpt><trkpt lat="29.99939422689691" lon="-5.619326576395338"><ele>620.0</ele><time>2026-03-24T10:09:35.993Z</time></trkpt><trkpt lat="29.99932511370602" lon="-5.619192152796242"><ele>620.0</ele><time>2026-03-24T10:09:36.993Z</time></trkpt><trkpt lat="29.999262005753653" lon="-5.619067046400452"><ele>620.0</ele><time>2026-03-24T10:09:37.993Z</time></trkpt><trkpt lat="29.999204838672785" lon="-5.618948090033356"><ele>620.0</ele><time>2026-03-24T10:09:38.993Z</time></trkpt><trkpt lat="29.999166154911386" lon="-5.618836032219672"><ele>620.2</ele><time>2026-03-24T10:09:39.993Z</time></trkpt><trkpt lat="29.99912807086089" lon="-5.618759348483522"><ele>620.4</ele><time>2026-03-24T10:09:40.993Z</time></trkpt><trkpt lat="29.999056224057252" lon="-5.6186563790672315"><ele>620.6</ele><time>2026-03-24T10:09:42.993Z</time></trkpt><trkpt lat="29.99900783210759" lon="-5.618562930169617"><ele>620.8</ele><time>2026-03-24T10:09:44.993Z</time></trkpt><trkpt lat="29.998946505900584" lon="-5.6184444785095495"><ele>621.0</ele><time>2026-03-24T10:09:46.993Z</time></trkpt><trkpt lat="29.99888292789905" lon="-5.6183225026213925"><ele>621.0</ele><time>2026-03-24T10:09:48.993Z</time></trkpt><trkpt lat="29.998832711162592" lon="-5.618226856309565"><ele>621.0</ele><time>2026-03-24T10:09:50.993Z</time></trkpt><trkpt lat="29.998772005772683" lon="-5.6181112326245115"><ele>621.0</ele><time>2026-03-24T10:09:52.993Z</time></trkpt><trkpt lat="29.999033054483554" lon="-5.617793047616665"><ele>620.8</ele><time>2026-03-24T10:09:54.993Z</time></trkpt><trkpt lat="29.999039571199194" lon="-5.617718620934638"><ele>620.6</ele><time>2026-03-24T10:09:55.993Z</time></trkpt><trkpt lat="29.999036797004635" lon="-5.617590315450132"><ele>620.4</ele><time>2026-03-24T10:09:57.993Z</time></trkpt><trkpt lat="29.999077623874694" lon="-5.61748070696019"><ele>620.2</ele><time>2026-03-24T10:09:59.993Z</time></trkpt><trkpt lat="29.99904350388791" lon="-5.617369837609728"><ele>620.0</ele><time>2026-03-24T10:10:01.993Z</time></trkpt><trkpt lat="29.998989996803434" lon="-5.61731050525195"><ele>620.0</ele><time>2026-03-24T10:10:02.993Z</time></trkpt><trkpt lat="29.99891117321563" lon="-5.617249254138375"><ele>620.0</ele><time>2026-03-24T10:10:03.993Z</time></trkpt><trkpt lat="29.99882538727757" lon="-5.61717552135405"><ele>620.0</ele><time>2026-03-24T10:10:04.993Z</time></trkpt><trkpt lat="29.99872390593721" lon="-5.617068615053177"><ele>620.0</ele><time>2026-03-24T10:10:05.993Z</time></trkpt><trkpt lat="29.99859844977346" lon="-5.616936509953218"><ele>620.3333333333333</ele><time>2026-03-24T10:10:06.993Z</time></trkpt><trkpt lat="29.99847071932303" lon="-5.616789547467324"><ele>620.6666666666666</ele><time>2026-03-24T10:10:07.993Z</time></trkpt><trkpt lat="29.99834711633305" lon="-5.616646386364922"><ele>621.0</ele><time>2026-03-24T10:10:08.993Z</time></trkpt><trkpt lat="29.998230187608105" lon="-5.616507413382894"><ele>620.3333333333334</ele><time>2026-03-24T10:10:09.993Z</time></trkpt><trkpt lat="29.998122146569173" lon="-5.616370018500881"><ele>619.6666666666667</ele><time>2026-03-24T10:10:10.993Z</time></trkpt><trkpt lat="29.998015850513355" lon="-5.616234354465905"><ele>619.0</ele><time>2026-03-24T10:10:11.993Z</time></trkpt><trkpt lat="29.99790882810171" lon="-5.616104798791622"><ele>619.0</ele><time>2026-03-24T10:10:12.993Z</time></trkpt><trkpt lat="29.99781012793376" lon="-5.615983997665726"><ele>619.0</ele><time>2026-03-24T10:10:13.993Z</time></trkpt><trkpt lat="29.997710277517843" lon="-5.61586418617127"><ele>619.0</ele><time>2026-03-24T10:10:14.993Z</time></trkpt><trkpt lat="29.997612361342647" lon="-5.615745027158669"><ele>619.0</ele><time>2026-03-24T10:10:15.993Z</time></trkpt><trkpt lat="29.99753581212672" lon="-5.615640615586615"><ele>619.0</ele><time>2026-03-24T10:10:16.993Z</time></trkpt><trkpt lat="29.99748254811349" lon="-5.615549189248592"><ele>619.0</ele><time>2026-03-24T10:10:17.993Z</time></trkpt><trkpt lat="29.997450513457675" lon="-5.615466411759256"><ele>619.0</ele><time>2026-03-24T10:10:18.993Z</time></trkpt><trkpt lat="29.99742975216113" lon="-5.615393004401043"><ele>619.0</ele><time>2026-03-24T10:10:19.993Z</time></trkpt><trkpt lat="29.997412877739375" lon="-5.615316169942893"><ele>619.0</ele><time>2026-03-24T10:10:20.993Z</time></trkpt><trkpt lat="29.99739903711954" lon="-5.615238943123284"><ele>619.0</ele><time>2026-03-24T10:10:21.993Z</time></trkpt><trkpt lat="29.9973731791974" lon="-5.615091102426454"><ele>618.6666666666667</ele><time>2026-03-24T10:10:23.993Z</time></trkpt><trkpt lat="29.997353686716533" lon="-5.614997147265693"><ele>618.3333333333334</ele><time>2026-03-24T10:10:24.993Z</time></trkpt><trkpt lat="29.99733149794211" lon="-5.614897032727628"><ele>618.0</ele><time>2026-03-24T10:10:25.993Z</time></trkpt><trkpt lat="29.997308590922813" lon="-5.614797278440227"><ele>617.6666666666666</ele><time>2026-03-24T10:10:26.993Z</time></trkpt><trkpt lat="29.997288325539504" lon="-5.614691633380797"><ele>617.3333333333333</ele><time>2026-03-24T10:10:27.993Z</time></trkpt><trkpt lat="29.99726603663275" lon="-5.614589844969647"><ele>617.0</ele><time>2026-03-24T10:10:28.993Z</time></trkpt><trkpt lat="29.997240326832344" lon="-5.614488419886094"><ele>616.75</ele><time>2026-03-24T10:10:29.993Z</time></trkpt><trkpt lat="29.99720178734968" lon="-5.614367725158646"><ele>616.5</ele><time>2026-03-24T10:10:30.993Z</time></trkpt><trkpt lat="29.99715172812645" lon="-5.614240960944223"><ele>616.25</ele><time>2026-03-24T10:10:31.993Z</time></trkpt><trkpt lat="29.99710004780649" lon="-5.614118923878724"><ele>616.0</ele><time>2026-03-24T10:10:32.993Z</time></trkpt><trkpt lat="29.99705231205099" lon="-5.613995619707246"><ele>616.0</ele><time>2026-03-24T10:10:33.993Z</time></trkpt><trkpt lat="29.99699579789867" lon="-5.613858647346088"><ele>616.0</ele><time>2026-03-24T10:10:34.993Z</time></trkpt><trkpt lat="29.996932790289726" lon="-5.613702491285175"><ele>616.0</ele><time>2026-03-24T10:10:35.993Z</time></trkpt><trkpt lat="29.996878497987097" lon="-5.613548827176172"><ele>616.0</ele><time>2026-03-24T10:10:36.993Z</time></trkpt><trkpt lat="29.996825399581827" lon="-5.6134026239816945"><ele>616.5</ele><time>2026-03-24T10:10:37.993Z</time></trkpt><trkpt lat="29.996778269854328" lon="-5.613251157191316"><ele>617.0</ele><time>2026-03-24T10:10:38.993Z</time></trkpt><trkpt lat="29.99673835245799" lon="-5.613102311628703"><ele>617.5</ele><time>2026-03-24T10:10:39.993Z</time></trkpt><trkpt lat="29.99669810360084" lon="-5.6129580771997265"><ele>618.0</ele><time>2026-03-24T10:10:40.993Z</time></trkpt><trkpt lat="29.99665767286632" lon="-5.6128208347529505"><ele>618.0</ele><time>2026-03-24T10:10:41.993Z</time></trkpt><trkpt lat="29.996615386795057" lon="-5.612691054236985"><ele>618.0</ele><time>2026-03-24T10:10:42.993Z</time></trkpt><trkpt lat="29.9965748321945" lon="-5.612567580876485"><ele>618.0</ele><time>2026-03-24T10:10:43.993Z</time></trkpt><trkpt lat="29.99653231826899" lon="-5.61244541562999"><ele>618.0</ele><time>2026-03-24T10:10:44.993Z</time></trkpt><trkpt lat="29.996480891383257" lon="-5.612309287405392"><ele>618.0</ele><time>2026-03-24T10:10:45.993Z</time></trkpt><trkpt lat="29.99643033560336" lon="-5.612169776585563"><ele>618.0</ele><time>2026-03-24T10:10:46.993Z</time></trkpt><trkpt lat="29.996384458391216" lon="-5.612035532519292"><ele>618.0</ele><time>2026-03-24T10:10:47.993Z</time></trkpt><trkpt lat="29.996331006805807" lon="-5.611896987405841"><ele>618.0</ele><time>2026-03-24T10:10:48.992Z</time></trkpt><trkpt lat="29.99628649693873" lon="-5.611768708807795"><ele>618.0</ele><time>2026-03-24T10:10:49.992Z</time></trkpt><trkpt lat="29.99624296826608" lon="-5.611635356562149"><ele>618.0</ele><time>2026-03-24T10:10:50.993Z</time></trkpt><trkpt lat="29.99619837470554" lon="-5.611509859809551"><ele>618.0</ele><time>2026-03-24T10:10:51.993Z</time></trkpt><trkpt lat="29.996144956639334" lon="-5.6113799008868614"><ele>618.0</ele><time>2026-03-24T10:10:52.993Z</time></trkpt><trkpt lat="29.996073223555683" lon="-5.61124709002116"><ele>618.0</ele><time>2026-03-24T10:10:53.992Z</time></trkpt><trkpt lat="29.995985387778582" lon="-5.6111038549699215"><ele>618.0</ele><time>2026-03-24T10:10:54.993Z</time></trkpt><trkpt lat="29.995884177554423" lon="-5.610956343136502"><ele>618.0</ele><time>2026-03-24T10:10:55.993Z</time></trkpt><trkpt lat="29.995778161553066" lon="-5.610805423058517"><ele>617.3333333333334</ele><time>2026-03-24T10:10:56.993Z</time></trkpt><trkpt lat="29.995669775612967" lon="-5.610634000466594"><ele>616.6666666666667</ele><time>2026-03-24T10:10:57.993Z</time></trkpt><trkpt lat="29.995570627319342" lon="-5.610455564252463"><ele>616.0</ele><time>2026-03-24T10:10:58.993Z</time></trkpt><trkpt lat="29.995484458764324" lon="-5.610286557892603"><ele>616.0</ele><time>2026-03-24T10:10:59.993Z</time></trkpt><trkpt lat="29.995406293381286" lon="-5.610106630623764"><ele>616.0</ele><time>2026-03-24T10:11:00.992Z</time></trkpt><trkpt lat="29.99532289340851" lon="-5.609917979800497"><ele>616.0</ele><time>2026-03-24T10:11:01.992Z</time></trkpt><trkpt lat="29.995216384051755" lon="-5.609728459657469"><ele>616.0</ele><time>2026-03-24T10:11:02.992Z</time></trkpt><trkpt lat="29.99509060724259" lon="-5.609529180107076"><ele>616.0</ele><time>2026-03-24T10:11:03.992Z</time></trkpt><trkpt lat="29.994988902077928" lon="-5.609360432435948"><ele>616.0</ele><time>2026-03-24T10:11:04.992Z</time></trkpt><trkpt lat="29.994913957074644" lon="-5.609191698862763"><ele>616.6666666666667</ele><time>2026-03-24T10:11:05.992Z</time></trkpt><trkpt lat="29.9948568887387" lon="-5.609033975971326"><ele>617.3333333333334</ele><time>2026-03-24T10:11:06.992Z</time></trkpt><trkpt lat="29.994804560291854" lon="-5.608856449282229"><ele>618.0</ele><time>2026-03-24T10:11:07.992Z</time></trkpt><trkpt lat="29.994766614270258" lon="-5.608671980397671"><ele>618.0</ele><time>2026-03-24T10:11:08.992Z</time></trkpt><trkpt lat="29.994737812476618" lon="-5.608502947806244"><ele>618.0</ele><time>2026-03-24T10:11:09.992Z</time></trkpt><trkpt lat="29.994715899893542" lon="-5.6083319250005905"><ele>618.0</ele><time>2026-03-24T10:11:10.992Z</time></trkpt><trkpt lat="29.99469087150816" lon="-5.6081677709082"><ele>618.0</ele><time>2026-03-24T10:11:11.992Z</time></trkpt><trkpt lat="29.994656008729482" lon="-5.608013631052881"><ele>618.0</ele><time>2026-03-24T10:11:12.992Z</time></trkpt><trkpt lat="29.99462631583209" lon="-5.607862631614948"><ele>618.0</ele><time>2026-03-24T10:11:13.992Z</time></trkpt><trkpt lat="29.994592745281224" lon="-5.6077007353789226"><ele>618.0</ele><time>2026-03-24T10:11:14.992Z</time></trkpt><trkpt lat="29.994555088718336" lon="-5.6075286763058925"><ele>618.0</ele><time>2026-03-24T10:11:15.992Z</time></trkpt><trkpt lat="29.9945069332524" lon="-5.60733380063961"><ele>617.3333333333334</ele><time>2026-03-24T10:11:16.992Z</time></trkpt><trkpt lat="29.99443159443938" lon="-5.607154964959672"><ele>616.6666666666667</ele><time>2026-03-24T10:11:17.992Z</time></trkpt><trkpt lat="29.994361379053725" lon="-5.60698641919673"><ele>616.0</ele><time>2026-03-24T10:11:18.992Z</time></trkpt><trkpt lat="29.994294263195872" lon="-5.606822873716584"><ele>616.0</ele><time>2026-03-24T10:11:19.992Z</time></trkpt><trkpt lat="29.994230064248253" lon="-5.60665311686406"><ele>616.0</ele><time>2026-03-24T10:11:20.992Z</time></trkpt><trkpt lat="29.994166803622058" lon="-5.606485063615522"><ele>616.0</ele><time>2026-03-24T10:11:21.992Z</time></trkpt><trkpt lat="29.994100606301195" lon="-5.606324411716692"><ele>616.0</ele><time>2026-03-24T10:11:22.992Z</time></trkpt><trkpt lat="29.994035602585683" lon="-5.606161518196884"><ele>616.0</ele><time>2026-03-24T10:11:23.992Z</time></trkpt><trkpt lat="29.99397145300377" lon="-5.606001368402138"><ele>616.0</ele><time>2026-03-24T10:11:24.992Z</time></trkpt><trkpt lat="29.99390528007102" lon="-5.605842399459276"><ele>616.0</ele><time>2026-03-24T10:11:25.992Z</time></trkpt><trkpt lat="29.993840328554768" lon="-5.605679036486581"><ele>616.0</ele><time>2026-03-24T10:11:26.992Z</time></trkpt><trkpt lat="29.993772616765998" lon="-5.605513827328664"><ele>616.0</ele><time>2026-03-24T10:11:27.992Z</time></trkpt><trkpt lat="29.993703776296126" lon="-5.605342188576042"><ele>616.0</ele><time>2026-03-24T10:11:28.992Z</time></trkpt><trkpt lat="29.993632653011293" lon="-5.6051798237759645"><ele>616.0</ele><time>2026-03-24T10:11:29.992Z</time></trkpt><trkpt lat="29.99356165501074" lon="-5.605011876922931"><ele>616.0</ele><time>2026-03-24T10:11:30.992Z</time></trkpt><trkpt lat="29.993497172545112" lon="-5.604845418950622"><ele>616.0</ele><time>2026-03-24T10:11:31.992Z</time></trkpt><trkpt lat="29.993429942303198" lon="-5.604682080908277"><ele>616.0</ele><time>2026-03-24T10:11:32.992Z</time></trkpt><trkpt lat="29.993367710472118" lon="-5.604520244361063"><ele>616.0</ele><time>2026-03-24T10:11:33.992Z</time></trkpt><trkpt lat="29.993302550213258" lon="-5.604360665189821"><ele>615.6666666666667</ele><time>2026-03-24T10:11:34.992Z</time></trkpt><trkpt lat="29.99323919913716" lon="-5.604205202398343"><ele>615.3333333333334</ele><time>2026-03-24T10:11:35.992Z</time></trkpt><trkpt lat="29.993175377599677" lon="-5.604046881611195"><ele>615.0</ele><time>2026-03-24T10:11:36.992Z</time></trkpt><trkpt lat="29.99311364813924" lon="-5.603885784045236"><ele>615.0</ele><time>2026-03-24T10:11:37.992Z</time></trkpt><trkpt lat="29.99305471027404" lon="-5.603719891112189"><ele>615.0</ele><time>2026-03-24T10:11:38.992Z</time></trkpt><trkpt lat="29.99300109653268" lon="-5.60355551748357"><ele>615.0</ele><time>2026-03-24T10:11:39.992Z</time></trkpt><trkpt lat="29.992946387630987" lon="-5.603383187230464"><ele>614.6666666666666</ele><time>2026-03-24T10:11:40.992Z</time></trkpt><trkpt lat="29.99289590664689" lon="-5.603212544010651"><ele>614.3333333333333</ele><time>2026-03-24T10:11:41.992Z</time></trkpt><trkpt lat="29.992841790278508" lon="-5.603035509216323"><ele>614.0</ele><time>2026-03-24T10:11:42.992Z</time></trkpt><trkpt lat="29.992791068774956" lon="-5.602855599858025"><ele>614.0</ele><time>2026-03-24T10:11:43.992Z</time></trkpt><trkpt lat="29.992741575450804" lon="-5.602671897134589"><ele>614.0</ele><time>2026-03-24T10:11:44.992Z</time></trkpt><trkpt lat="29.99269008591795" lon="-5.602489337339282"><ele>614.0</ele><time>2026-03-24T10:11:45.992Z</time></trkpt><trkpt lat="29.99263646307412" lon="-5.60230864007483"><ele>614.0</ele><time>2026-03-24T10:11:46.992Z</time></trkpt><trkpt lat="29.99257828267866" lon="-5.602130013210865"><ele>614.0</ele><time>2026-03-24T10:11:47.992Z</time></trkpt><trkpt lat="29.992513703093703" lon="-5.601947760753818"><ele>614.0</ele><time>2026-03-24T10:11:48.992Z</time></trkpt><trkpt lat="29.992449679818826" lon="-5.601776694804972"><ele>614.0</ele><time>2026-03-24T10:11:49.992Z</time></trkpt><trkpt lat="29.99238154758597" lon="-5.601603709397532"><ele>614.0</ele><time>2026-03-24T10:11:50.992Z</time></trkpt><trkpt lat="29.992321766960398" lon="-5.60142433461156"><ele>614.0</ele><time>2026-03-24T10:11:51.992Z</time></trkpt><trkpt lat="29.992266562580635" lon="-5.601252263195773"><ele>614.0</ele><time>2026-03-24T10:11:52.992Z</time></trkpt><trkpt lat="29.992210681900108" lon="-5.601081045770672"><ele>614.0</ele><time>2026-03-24T10:11:53.992Z</time></trkpt><trkpt lat="29.99214897519412" lon="-5.600901808542196"><ele>614.0</ele><time>2026-03-24T10:11:54.992Z</time></trkpt><trkpt lat="29.992088068024994" lon="-5.600737162033312"><ele>614.0</ele><time>2026-03-24T10:11:55.992Z</time></trkpt><trkpt lat="29.992026281910107" lon="-5.600564115361329"><ele>614.0</ele><time>2026-03-24T10:11:56.992Z</time></trkpt><trkpt lat="29.99197231533813" lon="-5.60039319871849"><ele>614.0</ele><time>2026-03-24T10:11:57.992Z</time></trkpt><trkpt lat="29.99192659866031" lon="-5.600220296258402"><ele>613.6666666666666</ele><time>2026-03-24T10:11:58.992Z</time></trkpt><trkpt lat="29.99188671679068" lon="-5.600043140520208"><ele>613.3333333333334</ele><time>2026-03-24T10:11:59.992Z</time></trkpt><trkpt lat="29.991849765495946" lon="-5.599854389138948"><ele>613.0</ele><time>2026-03-24T10:12:00.992Z</time></trkpt><trkpt lat="29.991818878556533" lon="-5.5996668937679015"><ele>613.3333333333334</ele><time>2026-03-24T10:12:01.992Z</time></trkpt><trkpt lat="29.991791188850957" lon="-5.599479819341436"><ele>613.6666666666666</ele><time>2026-03-24T10:12:02.992Z</time></trkpt><trkpt lat="29.991764162783277" lon="-5.599301200826958"><ele>614.0</ele><time>2026-03-24T10:12:03.992Z</time></trkpt><trkpt lat="29.991742621488214" lon="-5.599131303986753"><ele>614.0</ele><time>2026-03-24T10:12:04.992Z</time></trkpt><trkpt lat="29.99171203875967" lon="-5.598956282629077"><ele>614.0</ele><time>2026-03-24T10:12:05.992Z</time></trkpt><trkpt lat="29.9916861449551" lon="-5.598778511744449"><ele>614.0</ele><time>2026-03-24T10:12:06.992Z</time></trkpt><trkpt lat="29.991658884237523" lon="-5.598584365434615"><ele>613.3333333333333</ele><time>2026-03-24T10:12:07.992Z</time></trkpt><trkpt lat="29.991635252443277" lon="-5.59838703496293"><ele>612.6666666666666</ele><time>2026-03-24T10:12:08.992Z</time></trkpt><trkpt lat="29.99161564492378" lon="-5.598193820643025"><ele>612.0</ele><time>2026-03-24T10:12:09.992Z</time></trkpt><trkpt lat="29.99158772868718" lon="-5.598008132684452"><ele>612.3333333333334</ele><time>2026-03-24T10:12:10.992Z</time></trkpt><trkpt lat="29.99155946487295" lon="-5.597824155772468"><ele>612.6666666666667</ele><time>2026-03-24T10:12:11.992Z</time></trkpt><trkpt lat="29.99153146128716" lon="-5.597635559721501"><ele>613.0</ele><time>2026-03-24T10:12:12.992Z</time></trkpt><trkpt lat="29.991506355158375" lon="-5.5974467958960235"><ele>613.0</ele><time>2026-03-24T10:12:13.992Z</time></trkpt><trkpt lat="29.99148180201273" lon="-5.5972553968765855"><ele>613.0</ele><time>2026-03-24T10:12:14.992Z</time></trkpt><trkpt lat="29.99145580071358" lon="-5.597066172730461"><ele>613.0</ele><time>2026-03-24T10:12:15.992Z</time></trkpt><trkpt lat="29.99143521927839" lon="-5.596873595251275"><ele>612.6666666666667</ele><time>2026-03-24T10:12:16.992Z</time></trkpt><trkpt lat="29.991418718612707" lon="-5.596692068074634"><ele>612.3333333333334</ele><time>2026-03-24T10:12:17.992Z</time></trkpt><trkpt lat="29.991395560346657" lon="-5.596491726038374"><ele>612.0</ele><time>2026-03-24T10:12:18.992Z</time></trkpt><trkpt lat="29.991376428613478" lon="-5.596299461595136"><ele>611.6666666666666</ele><time>2026-03-24T10:12:19.992Z</time></trkpt><trkpt lat="29.991356338817216" lon="-5.596109918946567"><ele>611.3333333333333</ele><time>2026-03-24T10:12:20.992Z</time></trkpt><trkpt lat="29.991336589591654" lon="-5.595912682153051"><ele>611.0</ele><time>2026-03-24T10:12:21.992Z</time></trkpt><trkpt lat="29.99131319200982" lon="-5.59572382703259"><ele>611.0</ele><time>2026-03-24T10:12:22.992Z</time></trkpt><trkpt lat="29.991285439997252" lon="-5.595533069714963"><ele>611.0</ele><time>2026-03-24T10:12:23.992Z</time></trkpt><trkpt lat="29.991252482905956" lon="-5.595343394314661"><ele>611.0</ele><time>2026-03-24T10:12:24.992Z</time></trkpt><trkpt lat="29.991212257906206" lon="-5.595154806113717"><ele>611.3333333333333</ele><time>2026-03-24T10:12:25.992Z</time></trkpt><trkpt lat="29.99116856567792" lon="-5.594959169819034"><ele>611.6666666666666</ele><time>2026-03-24T10:12:26.992Z</time></trkpt><trkpt lat="29.991116826691474" lon="-5.594757897909348"><ele>612.0</ele><time>2026-03-24T10:12:27.992Z</time></trkpt><trkpt lat="29.99106574051043" lon="-5.594551882080906"><ele>612.0</ele><time>2026-03-24T10:12:28.992Z</time></trkpt><trkpt lat="29.991015364154833" lon="-5.594372900751013"><ele>612.0</ele><time>2026-03-24T10:12:29.992Z</time></trkpt><trkpt lat="29.990969346293483" lon="-5.594188664654142"><ele>612.0</ele><time>2026-03-24T10:12:30.992Z</time></trkpt><trkpt lat="29.990927647271306" lon="-5.59400499927408"><ele>612.0</ele><time>2026-03-24T10:12:31.992Z</time></trkpt><trkpt lat="29.990884144442525" lon="-5.593817809294669"><ele>612.0</ele><time>2026-03-24T10:12:32.992Z</time></trkpt><trkpt lat="29.990842056190047" lon="-5.593629682620031"><ele>612.0</ele><time>2026-03-24T10:12:33.992Z</time></trkpt><trkpt lat="29.990802249044037" lon="-5.593435224852804"><ele>611.6666666666666</ele><time>2026-03-24T10:12:34.992Z</time></trkpt><trkpt lat="29.990769141802556" lon="-5.593239293774348"><ele>611.3333333333333</ele><time>2026-03-24T10:12:35.992Z</time></trkpt><trkpt lat="29.99073681393003" lon="-5.593040768380181"><ele>611.0</ele><time>2026-03-24T10:12:36.992Z</time></trkpt><trkpt lat="29.990703223233755" lon="-5.59284817032689"><ele>611.3333333333333</ele><time>2026-03-24T10:12:37.992Z</time></trkpt><trkpt lat="29.990676516149694" lon="-5.592651776626253"><ele>611.6666666666666</ele><time>2026-03-24T10:12:38.992Z</time></trkpt><trkpt lat="29.990654111051175" lon="-5.592454698130016"><ele>612.0</ele><time>2026-03-24T10:12:39.992Z</time></trkpt><trkpt lat="29.990629447251365" lon="-5.5922589475627325"><ele>612.0</ele><time>2026-03-24T10:12:40.992Z</time></trkpt><trkpt lat="29.99061223125168" lon="-5.59206215226765"><ele>612.0</ele><time>2026-03-24T10:12:41.992Z</time></trkpt><trkpt lat="29.99059229566725" lon="-5.591871169540798"><ele>612.0</ele><time>2026-03-24T10:12:42.992Z</time></trkpt><trkpt lat="29.990570571437303" lon="-5.591676067804205"><ele>612.0</ele><time>2026-03-24T10:12:43.992Z</time></trkpt><trkpt lat="29.990551009118914" lon="-5.591480482728162"><ele>612.0</ele><time>2026-03-24T10:12:44.992Z</time></trkpt><trkpt lat="29.990532769977527" lon="-5.591280862896307"><ele>612.0</ele><time>2026-03-24T10:12:45.992Z</time></trkpt><trkpt lat="29.990515659258186" lon="-5.591080191362591"><ele>611.6666666666666</ele><time>2026-03-24T10:12:46.992Z</time></trkpt><trkpt lat="29.990503407228022" lon="-5.590879197005519"><ele>611.3333333333333</ele><time>2026-03-24T10:12:47.992Z</time></trkpt><trkpt lat="29.99049469072698" lon="-5.590690602174897"><ele>611.0</ele><time>2026-03-24T10:12:48.992Z</time></trkpt><trkpt lat="29.99047413757945" lon="-5.5904869437134"><ele>611.0</ele><time>2026-03-24T10:12:49.992Z</time></trkpt><trkpt lat="29.9904612099003" lon="-5.590283834898736"><ele>611.0</ele><time>2026-03-24T10:12:50.992Z</time></trkpt><trkpt lat="29.990447629502555" lon="-5.590085796659456"><ele>611.0</ele><time>2026-03-24T10:12:51.992Z</time></trkpt><trkpt lat="29.990436489312117" lon="-5.58987364643388"><ele>611.0</ele><time>2026-03-24T10:12:52.992Z</time></trkpt><trkpt lat="29.990435588647202" lon="-5.589665163190365"><ele>611.0</ele><time>2026-03-24T10:12:53.992Z</time></trkpt><trkpt lat="29.990423363293946" lon="-5.589448157518894"><ele>611.0</ele><time>2026-03-24T10:12:54.992Z</time></trkpt><trkpt lat="29.990413026099006" lon="-5.589207359588028"><ele>611.3333333333333</ele><time>2026-03-24T10:12:55.992Z</time></trkpt><trkpt lat="29.99042376756014" lon="-5.5889744167757"><ele>611.6666666666666</ele><time>2026-03-24T10:12:56.993Z</time></trkpt><trkpt lat="29.99044801032045" lon="-5.58876731974661"><ele>612.0</ele><time>2026-03-24T10:12:57.992Z</time></trkpt><trkpt lat="29.990469912541272" lon="-5.58857362298846"><ele>611.3333333333334</ele><time>2026-03-24T10:12:58.992Z</time></trkpt><trkpt lat="29.990497169035557" lon="-5.588382421749516"><ele>610.6666666666667</ele><time>2026-03-24T10:12:59.993Z</time></trkpt><trkpt lat="29.990516837218856" lon="-5.588179048576876"><ele>610.0</ele><time>2026-03-24T10:13:00.992Z</time></trkpt><trkpt lat="29.99053411579427" lon="-5.5879685083183555"><ele>609.6666666666667</ele><time>2026-03-24T10:13:01.992Z</time></trkpt><trkpt lat="29.990545267845135" lon="-5.587752441147702"><ele>609.3333333333334</ele><time>2026-03-24T10:13:02.992Z</time></trkpt><trkpt lat="29.990568577904348" lon="-5.587531450202659"><ele>609.0</ele><time>2026-03-24T10:13:03.993Z</time></trkpt><trkpt lat="29.990592941147305" lon="-5.587324859094688"><ele>609.0</ele><time>2026-03-24T10:13:04.993Z</time></trkpt><trkpt lat="29.990622309159154" lon="-5.587138189877524"><ele>609.0</ele><time>2026-03-24T10:13:05.992Z</time></trkpt><trkpt lat="29.990631273485" lon="-5.586957501253087"><ele>609.0</ele><time>2026-03-24T10:13:06.992Z</time></trkpt><trkpt lat="29.990652685689728" lon="-5.586771978986195"><ele>609.0</ele><time>2026-03-24T10:13:07.992Z</time></trkpt><trkpt lat="29.990690345937345" lon="-5.586588079309777"><ele>609.0</ele><time>2026-03-24T10:13:08.992Z</time></trkpt><trkpt lat="29.99072819042865" lon="-5.586424476734001"><ele>609.0</ele><time>2026-03-24T10:13:09.992Z</time></trkpt><trkpt lat="29.990759877437032" lon="-5.586277812367304"><ele>609.0</ele><time>2026-03-24T10:13:10.992Z</time></trkpt><trkpt lat="29.990799681873675" lon="-5.586143344674171"><ele>609.25</ele><time>2026-03-24T10:13:11.992Z</time></trkpt><trkpt lat="29.990845657255544" lon="-5.5860039470492975"><ele>609.5</ele><time>2026-03-24T10:13:12.992Z</time></trkpt><trkpt lat="29.99089185461413" lon="-5.585863396231381"><ele>609.75</ele><time>2026-03-24T10:13:13.992Z</time></trkpt><trkpt lat="29.990939057272733" lon="-5.585715776617447"><ele>610.0</ele><time>2026-03-24T10:13:14.992Z</time></trkpt><trkpt lat="29.99097680575836" lon="-5.58557083757787"><ele>610.0</ele><time>2026-03-24T10:13:15.992Z</time></trkpt><trkpt lat="29.991006148026432" lon="-5.585422992862412"><ele>610.0</ele><time>2026-03-24T10:13:16.992Z</time></trkpt><trkpt lat="29.99102517855366" lon="-5.5852854980226"><ele>610.0</ele><time>2026-03-24T10:13:17.992Z</time></trkpt><trkpt lat="29.991043974008804" lon="-5.585155144655107"><ele>610.0</ele><time>2026-03-24T10:13:18.992Z</time></trkpt><trkpt lat="29.991048311704574" lon="-5.585038626003622"><ele>609.8</ele><time>2026-03-24T10:13:19.992Z</time></trkpt><trkpt lat="29.99106578190748" lon="-5.584912297618451"><ele>609.6</ele><time>2026-03-24T10:13:20.992Z</time></trkpt><trkpt lat="29.991082248935204" lon="-5.584793931342492"><ele>609.4</ele><time>2026-03-24T10:13:21.992Z</time></trkpt><trkpt lat="29.9910998011943" lon="-5.584692089508921"><ele>609.2</ele><time>2026-03-24T10:13:22.992Z</time></trkpt><trkpt lat="29.991117935175808" lon="-5.584582633384456"><ele>609.0</ele><time>2026-03-24T10:13:23.992Z</time></trkpt><trkpt lat="29.99113095321742" lon="-5.584486955702247"><ele>609.0</ele><time>2026-03-24T10:13:24.992Z</time></trkpt><trkpt lat="29.991142007499747" lon="-5.58440797747668"><ele>609.0</ele><time>2026-03-24T10:13:25.992Z</time></trkpt><trkpt lat="29.99114686690205" lon="-5.584285690201318"><ele>609.0</ele><time>2026-03-24T10:13:27.992Z</time></trkpt><trkpt lat="29.99108291657711" lon="-5.584210842966589"><ele>609.0</ele><time>2026-03-24T10:13:29.992Z</time></trkpt><trkpt lat="29.991012405381465" lon="-5.584173825832965"><ele>609.0</ele><time>2026-03-24T10:13:30.992Z</time></trkpt><trkpt lat="29.990938920674477" lon="-5.584140541686558"><ele>609.0</ele><time>2026-03-24T10:13:31.992Z</time></trkpt><trkpt lat="29.990857871391377" lon="-5.584110157165054"><ele>609.0</ele><time>2026-03-24T10:13:32.992Z</time></trkpt><trkpt lat="29.99077778129556" lon="-5.584085676025244"><ele>609.0</ele><time>2026-03-24T10:13:33.992Z</time></trkpt><trkpt lat="29.99069562399516" lon="-5.584083450279618"><ele>609.0</ele><time>2026-03-24T10:13:34.992Z</time></trkpt><trkpt lat="29.99061408634665" lon="-5.584103567307251"><ele>609.0</ele><time>2026-03-24T10:13:35.992Z</time></trkpt><trkpt lat="29.990531379119567" lon="-5.584148932098674"><ele>609.0</ele><time>2026-03-24T10:13:36.992Z</time></trkpt><trkpt lat="29.990455955893225" lon="-5.584195238253313"><ele>609.0</ele><time>2026-03-24T10:13:37.992Z</time></trkpt><trkpt lat="29.990376479337034" lon="-5.584234383939755"><ele>609.0</ele><time>2026-03-24T10:13:38.992Z</time></trkpt><trkpt lat="29.99031073239359" lon="-5.584256102425097"><ele>609.0</ele><time>2026-03-24T10:13:39.992Z</time></trkpt><trkpt lat="29.990244502672045" lon="-5.584277112013502"><ele>609.0</ele><time>2026-03-24T10:13:40.992Z</time></trkpt><trkpt lat="29.990136076303227" lon="-5.58431005229686"><ele>609.0</ele><time>2026-03-24T10:13:42.992Z</time></trkpt><trkpt lat="29.990032052550415" lon="-5.584316121255928"><ele>609.0</ele><time>2026-03-24T10:13:44.992Z</time></trkpt><trkpt lat="29.98995920895927" lon="-5.584318376904121"><ele>609.0</ele><time>2026-03-24T10:13:46.992Z</time></trkpt><trkpt lat="29.989875328008917" lon="-5.58432803348195"><ele>609.0</ele><time>2026-03-24T10:13:49.992Z</time></trkpt><trkpt lat="29.98981884815738" lon="-5.584367795257988"><ele>609.0</ele><time>2026-03-24T10:14:09.992Z</time></trkpt><trkpt lat="29.989780795621567" lon="-5.584442192668081"><ele>609.0</ele><time>2026-03-24T10:14:12.992Z</time></trkpt><trkpt lat="29.989748778293574" lon="-5.584524027319122"><ele>609.0</ele><time>2026-03-24T10:14:15.992Z</time></trkpt><trkpt lat="29.98971537271115" lon="-5.5845857951619005"><ele>609.0</ele><time>2026-03-24T10:14:21.992Z</time></trkpt><trkpt lat="29.989712282497443" lon="-5.584460751069023"><ele>609.0</ele><time>2026-03-24T10:17:14.992Z</time></trkpt><trkpt lat="29.989669297681147" lon="-5.584515656413832"><ele>609.0</ele><time>2026-03-24T10:18:10.991Z</time></trkpt><trkpt lat="29.98960163301752" lon="-5.584530427681178"><ele>609.0</ele><time>2026-03-24T10:19:02.988Z</time></trkpt><trkpt lat="29.989523688452607" lon="-5.584488371658214"><ele>609.0</ele><time>2026-03-24T10:23:58.986Z</time></trkpt><trkpt lat="29.989437088230982" lon="-5.584369678086594"><ele>609.0</ele><time>2026-03-24T10:24:00.986Z</time></trkpt><trkpt lat="29.98943784571321" lon="-5.584293027754552"><ele>609.0</ele><time>2026-03-24T10:24:01.986Z</time></trkpt><trkpt lat="29.98948107373575" lon="-5.584204030056507"><ele>609.0</ele><time>2026-03-24T10:24:03.986Z</time></trkpt><trkpt lat="29.98956158520533" lon="-5.58414730366209"><ele>609.0</ele><time>2026-03-24T10:24:05.986Z</time></trkpt><trkpt lat="29.989636253898542" lon="-5.584155832209927"><ele>609.0</ele><time>2026-03-24T10:24:06.986Z</time></trkpt><trkpt lat="29.989740338194277" lon="-5.584178821844487"><ele>609.0</ele><time>2026-03-24T10:24:07.986Z</time></trkpt><trkpt lat="29.98986872006348" lon="-5.584209540827473"><ele>609.0</ele><time>2026-03-24T10:24:08.986Z</time></trkpt><trkpt lat="29.990009514524516" lon="-5.5842287493954545"><ele>609.0</ele><time>2026-03-24T10:24:09.986Z</time></trkpt><trkpt lat="29.990138875594607" lon="-5.584227673807066"><ele>609.0</ele><time>2026-03-24T10:24:10.986Z</time></trkpt><trkpt lat="29.990242970367255" lon="-5.584214212328336"><ele>609.0</ele><time>2026-03-24T10:24:11.986Z</time></trkpt><trkpt lat="29.990350438675947" lon="-5.584185276138683"><ele>609.0</ele><time>2026-03-24T10:24:12.986Z</time></trkpt><trkpt lat="29.990458739513965" lon="-5.584129071012479"><ele>609.0</ele><time>2026-03-24T10:24:13.986Z</time></trkpt><trkpt lat="29.990565128907704" lon="-5.584063701183191"><ele>609.0</ele><time>2026-03-24T10:24:14.986Z</time></trkpt><trkpt lat="29.99066114763253" lon="-5.583984386095224"><ele>609.0</ele><time>2026-03-24T10:24:15.986Z</time></trkpt><trkpt lat="29.990748919753017" lon="-5.583891868285589"><ele>609.0</ele><time>2026-03-24T10:24:16.986Z</time></trkpt><trkpt lat="29.990838287772572" lon="-5.583816623334698"><ele>609.0</ele><time>2026-03-24T10:24:17.986Z</time></trkpt><trkpt lat="29.99093775610735" lon="-5.583744220320292"><ele>609.0</ele><time>2026-03-24T10:24:18.986Z</time></trkpt><trkpt lat="29.991027396340165" lon="-5.583654923152062"><ele>609.0</ele><time>2026-03-24T10:24:19.986Z</time></trkpt><trkpt lat="29.991091301911066" lon="-5.583563663806541"><ele>609.0</ele><time>2026-03-24T10:24:20.986Z</time></trkpt><trkpt lat="29.99113917179943" lon="-5.5834738654451215"><ele>609.0</ele><time>2026-03-24T10:24:21.986Z</time></trkpt><trkpt lat="29.991182985940124" lon="-5.583383659405037"><ele>608.6</ele><time>2026-03-24T10:24:22.986Z</time></trkpt><trkpt lat="29.99122922429061" lon="-5.583287612861899"><ele>608.2</ele><time>2026-03-24T10:24:23.986Z</time></trkpt><trkpt lat="29.991274469792057" lon="-5.583194716059133"><ele>607.8000000000001</ele><time>2026-03-24T10:24:24.986Z</time></trkpt><trkpt lat="29.991318204050852" lon="-5.583098784425814"><ele>607.4</ele><time>2026-03-24T10:24:25.986Z</time></trkpt><trkpt lat="29.991366699700325" lon="-5.58299605532128"><ele>607.0</ele><time>2026-03-24T10:24:26.986Z</time></trkpt><trkpt lat="29.991417745909967" lon="-5.582890263261927"><ele>607.5</ele><time>2026-03-24T10:24:27.986Z</time></trkpt><trkpt lat="29.991466587777804" lon="-5.582778165572521"><ele>608.0</ele><time>2026-03-24T10:24:28.986Z</time></trkpt><trkpt lat="29.9915168870677" lon="-5.582657206138248"><ele>608.5</ele><time>2026-03-24T10:24:29.986Z</time></trkpt><trkpt lat="29.991570782987118" lon="-5.5825296920659815"><ele>609.0</ele><time>2026-03-24T10:24:30.986Z</time></trkpt><trkpt lat="29.991629313584973" lon="-5.582396630194757"><ele>609.0</ele><time>2026-03-24T10:24:31.986Z</time></trkpt><trkpt lat="29.99169188420123" lon="-5.582257187417902"><ele>609.0</ele><time>2026-03-24T10:24:32.986Z</time></trkpt><trkpt lat="29.9917552773927" lon="-5.582114093799298"><ele>609.0</ele><time>2026-03-24T10:24:33.986Z</time></trkpt><trkpt lat="29.991818896113692" lon="-5.581966811797289"><ele>609.0</ele><time>2026-03-24T10:24:34.986Z</time></trkpt><trkpt lat="29.99188380341973" lon="-5.581815789624625"><ele>609.0</ele><time>2026-03-24T10:24:35.986Z</time></trkpt><trkpt lat="29.99195115057935" lon="-5.581662528207085"><ele>609.0</ele><time>2026-03-24T10:24:36.986Z</time></trkpt><trkpt lat="29.992023609345004" lon="-5.581506903232742"><ele>609.0</ele><time>2026-03-24T10:24:37.986Z</time></trkpt><trkpt lat="29.992098153575593" lon="-5.581350172591958"><ele>609.0</ele><time>2026-03-24T10:24:38.986Z</time></trkpt><trkpt lat="29.992169558188245" lon="-5.5811954397035715"><ele>609.0</ele><time>2026-03-24T10:24:39.986Z</time></trkpt><trkpt lat="29.992239932329838" lon="-5.58103762819092"><ele>609.0</ele><time>2026-03-24T10:24:40.986Z</time></trkpt><trkpt lat="29.99231173633241" lon="-5.580877849924405"><ele>608.6666666666666</ele><time>2026-03-24T10:24:41.986Z</time></trkpt><trkpt lat="29.99238466899813" lon="-5.580715759354768"><ele>608.3333333333333</ele><time>2026-03-24T10:24:42.986Z</time></trkpt><trkpt lat="29.992456910451534" lon="-5.580557075268539"><ele>608.0</ele><time>2026-03-24T10:24:43.986Z</time></trkpt><trkpt lat="29.99252757473822" lon="-5.580401782566805"><ele>608.25</ele><time>2026-03-24T10:24:44.986Z</time></trkpt><trkpt lat="29.992597180618326" lon="-5.580247720488152"><ele>608.5</ele><time>2026-03-24T10:24:45.986Z</time></trkpt><trkpt lat="29.992658555205093" lon="-5.580104826863761"><ele>608.75</ele><time>2026-03-24T10:24:46.986Z</time></trkpt><trkpt lat="29.992713061936616" lon="-5.579976647729189"><ele>609.0</ele><time>2026-03-24T10:24:47.986Z</time></trkpt><trkpt lat="29.992761898351798" lon="-5.579862758457858"><ele>609.0</ele><time>2026-03-24T10:24:48.986Z</time></trkpt><trkpt lat="29.99281124653831" lon="-5.579751609522856"><ele>609.0</ele><time>2026-03-24T10:24:49.986Z</time></trkpt><trkpt lat="29.99286046225552" lon="-5.579652009403302"><ele>609.0</ele><time>2026-03-24T10:24:50.986Z</time></trkpt><trkpt lat="29.992900135441616" lon="-5.579557910777441"><ele>609.0</ele><time>2026-03-24T10:24:51.986Z</time></trkpt><trkpt lat="29.99293992959277" lon="-5.57946619186048"><ele>609.0</ele><time>2026-03-24T10:24:52.986Z</time></trkpt><trkpt lat="29.992980414927068" lon="-5.579376266978804"><ele>609.2</ele><time>2026-03-24T10:24:53.986Z</time></trkpt><trkpt lat="29.993024746213543" lon="-5.579290850365162"><ele>609.4</ele><time>2026-03-24T10:24:54.986Z</time></trkpt><trkpt lat="29.993080796755095" lon="-5.579208248150812"><ele>609.6</ele><time>2026-03-24T10:24:55.986Z</time></trkpt><trkpt lat="29.993160134798707" lon="-5.579136370749163"><ele>609.8</ele><time>2026-03-24T10:24:56.986Z</time></trkpt><trkpt lat="29.993237002845685" lon="-5.579093536638773"><ele>610.0</ele><time>2026-03-24T10:24:57.986Z</time></trkpt><trkpt lat="29.99333475229658" lon="-5.579043175414749"><ele>609.8</ele><time>2026-03-24T10:24:58.986Z</time></trkpt><trkpt lat="29.99342623417911" lon="-5.578980174582753"><ele>609.6</ele><time>2026-03-24T10:24:59.986Z</time></trkpt><trkpt lat="29.993527115723847" lon="-5.5789065967667915"><ele>609.4</ele><time>2026-03-24T10:25:00.986Z</time></trkpt><trkpt lat="29.99361788452089" lon="-5.578847341180662"><ele>609.2</ele><time>2026-03-24T10:25:01.986Z</time></trkpt><trkpt lat="29.993703864077947" lon="-5.578803538613772"><ele>609.0</ele><time>2026-03-24T10:25:02.986Z</time></trkpt><trkpt lat="29.993789434324157" lon="-5.578761177310707"><ele>609.0</ele><time>2026-03-24T10:25:03.986Z</time></trkpt><trkpt lat="29.99387184049119" lon="-5.578723558632725"><ele>609.0</ele><time>2026-03-24T10:25:04.986Z</time></trkpt><trkpt lat="29.993966315123714" lon="-5.578686969945903"><ele>609.0</ele><time>2026-03-24T10:25:05.986Z</time></trkpt><trkpt lat="29.99407115423232" lon="-5.578653672882282"><ele>609.0</ele><time>2026-03-24T10:25:06.986Z</time></trkpt><trkpt lat="29.99418509899472" lon="-5.5786261214007045"><ele>609.0</ele><time>2026-03-24T10:25:07.986Z</time></trkpt><trkpt lat="29.994305205962554" lon="-5.578603457960008"><ele>609.0</ele><time>2026-03-24T10:25:08.986Z</time></trkpt><trkpt lat="29.994430966921918" lon="-5.57857750722812"><ele>609.0</ele><time>2026-03-24T10:25:09.986Z</time></trkpt><trkpt lat="29.994562068976197" lon="-5.578543257034625"><ele>609.0</ele><time>2026-03-24T10:25:10.986Z</time></trkpt><trkpt lat="29.99469458776921" lon="-5.5785130369315254"><ele>609.0</ele><time>2026-03-24T10:25:11.986Z</time></trkpt><trkpt lat="29.99482880910278" lon="-5.578480406531993"><ele>609.0</ele><time>2026-03-24T10:25:12.986Z</time></trkpt><trkpt lat="29.99496414109229" lon="-5.578445013453489"><ele>609.0</ele><time>2026-03-24T10:25:13.986Z</time></trkpt><trkpt lat="29.99509930060853" lon="-5.578408961930721"><ele>609.0</ele><time>2026-03-24T10:25:14.986Z</time></trkpt><trkpt lat="29.995240377611804" lon="-5.578371327989618"><ele>609.0</ele><time>2026-03-24T10:25:15.986Z</time></trkpt><trkpt lat="29.995378066242917" lon="-5.5783379826866355"><ele>609.25</ele><time>2026-03-24T10:25:16.986Z</time></trkpt><trkpt lat="29.995517276276267" lon="-5.578308253207675"><ele>609.5</ele><time>2026-03-24T10:25:17.986Z</time></trkpt><trkpt lat="29.995658414743783" lon="-5.578267962343192"><ele>609.75</ele><time>2026-03-24T10:25:18.986Z</time></trkpt><trkpt lat="29.995797256998518" lon="-5.578233300128976"><ele>610.0</ele><time>2026-03-24T10:25:19.986Z</time></trkpt><trkpt lat="29.99593394317567" lon="-5.578198718940727"><ele>610.3333333333334</ele><time>2026-03-24T10:25:20.986Z</time></trkpt><trkpt lat="29.99608411928927" lon="-5.578158999223334"><ele>610.6666666666666</ele><time>2026-03-24T10:25:21.986Z</time></trkpt><trkpt lat="29.99624547155584" lon="-5.578120589304336"><ele>611.0</ele><time>2026-03-24T10:25:22.986Z</time></trkpt><trkpt lat="29.996418726138852" lon="-5.578080665450172"><ele>611.0</ele><time>2026-03-24T10:25:23.986Z</time></trkpt><trkpt lat="29.99659547069892" lon="-5.57804014256317"><ele>611.0</ele><time>2026-03-24T10:25:24.986Z</time></trkpt><trkpt lat="29.99677464505892" lon="-5.577996067784883"><ele>611.0</ele><time>2026-03-24T10:25:25.986Z</time></trkpt><trkpt lat="29.996947812070772" lon="-5.577957743315174"><ele>610.6666666666666</ele><time>2026-03-24T10:25:26.986Z</time></trkpt><trkpt lat="29.99712220874241" lon="-5.577911347581936"><ele>610.3333333333334</ele><time>2026-03-24T10:25:27.986Z</time></trkpt><trkpt lat="29.997295084133235" lon="-5.577866884778984"><ele>610.0</ele><time>2026-03-24T10:25:28.986Z</time></trkpt><trkpt lat="29.997461932713986" lon="-5.577822364088429"><ele>610.0</ele><time>2026-03-24T10:25:29.985Z</time></trkpt><trkpt lat="29.997633948922626" lon="-5.57777403755004"><ele>610.0</ele><time>2026-03-24T10:25:30.985Z</time></trkpt><trkpt lat="29.997792553830816" lon="-5.577736820094687"><ele>610.0</ele><time>2026-03-24T10:25:31.985Z</time></trkpt><trkpt lat="29.99796433517485" lon="-5.577695110944956"><ele>610.0</ele><time>2026-03-24T10:25:32.985Z</time></trkpt><trkpt lat="29.998131299605934" lon="-5.577654081958069"><ele>610.0</ele><time>2026-03-24T10:25:33.985Z</time></trkpt><trkpt lat="29.998303829041927" lon="-5.577609660902301"><ele>610.0</ele><time>2026-03-24T10:25:34.985Z</time></trkpt><trkpt lat="29.998480003857008" lon="-5.577558801804003"><ele>610.0</ele><time>2026-03-24T10:25:35.986Z</time></trkpt><trkpt lat="29.998661305151813" lon="-5.577512969091036"><ele>610.0</ele><time>2026-03-24T10:25:36.985Z</time></trkpt><trkpt lat="29.99884898617039" lon="-5.5774657438423025"><ele>610.0</ele><time>2026-03-24T10:25:37.985Z</time></trkpt><trkpt lat="29.999036766982826" lon="-5.577422509364107"><ele>610.0</ele><time>2026-03-24T10:25:38.985Z</time></trkpt><trkpt lat="29.99922934992895" lon="-5.577377969277464"><ele>610.0</ele><time>2026-03-24T10:25:39.985Z</time></trkpt><trkpt lat="29.99941993638301" lon="-5.57733500437083"><ele>610.0</ele><time>2026-03-24T10:25:40.985Z</time></trkpt><trkpt lat="29.999607944635894" lon="-5.57728615551327"><ele>610.0</ele><time>2026-03-24T10:25:41.985Z</time></trkpt><trkpt lat="29.999787992482013" lon="-5.577240955376942"><ele>610.0</ele><time>2026-03-24T10:25:42.985Z</time></trkpt><trkpt lat="29.999969101096593" lon="-5.577192269327409"><ele>610.0</ele><time>2026-03-24T10:25:43.985Z</time></trkpt><trkpt lat="30.000148348805425" lon="-5.5771469001336555"><ele>610.0</ele><time>2026-03-24T10:25:44.985Z</time></trkpt><trkpt lat="30.00033315804723" lon="-5.5770997116099785"><ele>610.0</ele><time>2026-03-24T10:25:45.985Z</time></trkpt><trkpt lat="30.00051774879" lon="-5.577051484929418"><ele>610.0</ele><time>2026-03-24T10:25:46.985Z</time></trkpt><trkpt lat="30.00070350759325" lon="-5.5770007998175375"><ele>609.6666666666667</ele><time>2026-03-24T10:25:47.985Z</time></trkpt><trkpt lat="30.000892493013094" lon="-5.576951975892191"><ele>609.3333333333334</ele><time>2026-03-24T10:25:48.985Z</time></trkpt><trkpt lat="30.00108136558063" lon="-5.576905908708186"><ele>609.0</ele><time>2026-03-24T10:25:49.985Z</time></trkpt><trkpt lat="30.00125846089785" lon="-5.576864047134209"><ele>609.0</ele><time>2026-03-24T10:25:50.984Z</time></trkpt><trkpt lat="30.001432503721237" lon="-5.576819227378482"><ele>609.0</ele><time>2026-03-24T10:25:51.984Z</time></trkpt><trkpt lat="30.001602068124487" lon="-5.57677713060102"><ele>609.0</ele><time>2026-03-24T10:25:52.984Z</time></trkpt><trkpt lat="30.001776718721167" lon="-5.576734238072417"><ele>609.3333333333334</ele><time>2026-03-24T10:25:53.984Z</time></trkpt><trkpt lat="30.001953266409917" lon="-5.576690912099092"><ele>609.6666666666667</ele><time>2026-03-24T10:25:54.984Z</time></trkpt><trkpt lat="30.002125567153545" lon="-5.576648139703095"><ele>610.0</ele><time>2026-03-24T10:25:55.984Z</time></trkpt><trkpt lat="30.00229474372589" lon="-5.576604097652924"><ele>610.0</ele><time>2026-03-24T10:25:56.984Z</time></trkpt><trkpt lat="30.002459753257927" lon="-5.576560004800006"><ele>610.0</ele><time>2026-03-24T10:25:57.984Z</time></trkpt><trkpt lat="30.00261462761894" lon="-5.576511738280821"><ele>610.0</ele><time>2026-03-24T10:25:58.984Z</time></trkpt><trkpt lat="30.002767112323607" lon="-5.576465716083622"><ele>610.3333333333334</ele><time>2026-03-24T10:25:59.984Z</time></trkpt><trkpt lat="30.0029139828527" lon="-5.576417611029803"><ele>610.6666666666666</ele><time>2026-03-24T10:26:00.984Z</time></trkpt><trkpt lat="30.003062921640144" lon="-5.57637184266625"><ele>611.0</ele><time>2026-03-24T10:26:01.984Z</time></trkpt><trkpt lat="30.003219370160718" lon="-5.576320191854824"><ele>611.0</ele><time>2026-03-24T10:26:02.984Z</time></trkpt><trkpt lat="30.00337631068088" lon="-5.576268976351584"><ele>611.0</ele><time>2026-03-24T10:26:03.984Z</time></trkpt><trkpt lat="30.003531544025" lon="-5.576216777988258"><ele>611.0</ele><time>2026-03-24T10:26:04.984Z</time></trkpt><trkpt lat="30.00368517755462" lon="-5.576162721843471"><ele>611.0</ele><time>2026-03-24T10:26:05.984Z</time></trkpt><trkpt lat="30.00383892491251" lon="-5.576107734066775"><ele>611.0</ele><time>2026-03-24T10:26:06.984Z</time></trkpt><trkpt lat="30.00399567786917" lon="-5.57605333013241"><ele>611.0</ele><time>2026-03-24T10:26:07.984Z</time></trkpt><trkpt lat="30.004156191512273" lon="-5.575997001715362"><ele>611.0</ele><time>2026-03-24T10:26:08.984Z</time></trkpt><trkpt lat="30.004322491585864" lon="-5.575939700805018"><ele>611.0</ele><time>2026-03-24T10:26:09.984Z</time></trkpt><trkpt lat="30.00449154483879" lon="-5.575877668869247"><ele>611.0</ele><time>2026-03-24T10:26:10.984Z</time></trkpt><trkpt lat="30.004667690528006" lon="-5.575813006959176"><ele>611.0</ele><time>2026-03-24T10:26:11.984Z</time></trkpt><trkpt lat="30.004848402355506" lon="-5.575747467046385"><ele>611.0</ele><time>2026-03-24T10:26:12.984Z</time></trkpt><trkpt lat="30.005031631898806" lon="-5.575682309303775"><ele>611.0</ele><time>2026-03-24T10:26:13.984Z</time></trkpt><trkpt lat="30.005215460609712" lon="-5.575619164642458"><ele>611.0</ele><time>2026-03-24T10:26:14.984Z</time></trkpt><trkpt lat="30.005405199986672" lon="-5.575555477768813"><ele>611.0</ele><time>2026-03-24T10:26:15.984Z</time></trkpt><trkpt lat="30.00559586816624" lon="-5.575487499590598"><ele>611.0</ele><time>2026-03-24T10:26:16.984Z</time></trkpt><trkpt lat="30.005802319338834" lon="-5.575413479575561"><ele>610.6666666666666</ele><time>2026-03-24T10:26:17.984Z</time></trkpt><trkpt lat="30.006026218517288" lon="-5.5753414151983876"><ele>610.3333333333334</ele><time>2026-03-24T10:26:18.984Z</time></trkpt><trkpt lat="30.00623146113015" lon="-5.575272727993294"><ele>610.0</ele><time>2026-03-24T10:26:19.984Z</time></trkpt><trkpt lat="30.006421281356275" lon="-5.575205952463125"><ele>610.0</ele><time>2026-03-24T10:26:20.984Z</time></trkpt><trkpt lat="30.006609603246822" lon="-5.575137359306496"><ele>610.0</ele><time>2026-03-24T10:26:21.984Z</time></trkpt><trkpt lat="30.00679375263368" lon="-5.575069091828727"><ele>610.0</ele><time>2026-03-24T10:26:22.984Z</time></trkpt><trkpt lat="30.006976363871956" lon="-5.5750019091323315"><ele>610.3333333333334</ele><time>2026-03-24T10:26:23.984Z</time></trkpt><trkpt lat="30.007163592109737" lon="-5.5749370453198"><ele>610.6666666666666</ele><time>2026-03-24T10:26:24.984Z</time></trkpt><trkpt lat="30.00735221797124" lon="-5.574873809649733"><ele>611.0</ele><time>2026-03-24T10:26:25.984Z</time></trkpt><trkpt lat="30.007541012858194" lon="-5.574811453311219"><ele>611.0</ele><time>2026-03-24T10:26:26.984Z</time></trkpt><trkpt lat="30.007713861062683" lon="-5.574750381426176"><ele>611.0</ele><time>2026-03-24T10:26:27.984Z</time></trkpt><trkpt lat="30.007877173544745" lon="-5.574693551716052"><ele>611.0</ele><time>2026-03-24T10:26:28.984Z</time></trkpt><trkpt lat="30.008032279490806" lon="-5.574640921697983"><ele>611.0</ele><time>2026-03-24T10:26:29.984Z</time></trkpt><trkpt lat="30.00817952089828" lon="-5.5745883154662375"><ele>611.0</ele><time>2026-03-24T10:26:30.984Z</time></trkpt><trkpt lat="30.00831359950142" lon="-5.574539854473257"><ele>611.0</ele><time>2026-03-24T10:26:31.984Z</time></trkpt><trkpt lat="30.00843880599658" lon="-5.574493556244335"><ele>611.0</ele><time>2026-03-24T10:26:32.984Z</time></trkpt><trkpt lat="30.00855645485468" lon="-5.574450738048101"><ele>611.2</ele><time>2026-03-24T10:26:33.984Z</time></trkpt><trkpt lat="30.0086601524978" lon="-5.574411987903465"><ele>611.4000000000001</ele><time>2026-03-24T10:26:34.984Z</time></trkpt><trkpt lat="30.008752325612775" lon="-5.574372844514095"><ele>611.6</ele><time>2026-03-24T10:26:35.984Z</time></trkpt><trkpt lat="30.00883957459967" lon="-5.574335956739768"><ele>611.8000000000001</ele><time>2026-03-24T10:26:36.984Z</time></trkpt><trkpt lat="30.008917967746466" lon="-5.574297395233736"><ele>612.0</ele><time>2026-03-24T10:26:37.984Z</time></trkpt><trkpt lat="30.008988616213465" lon="-5.5742584878530606"><ele>612.0</ele><time>2026-03-24T10:26:38.984Z</time></trkpt><trkpt lat="30.009050104791662" lon="-5.574224153725623"><ele>612.0</ele><time>2026-03-24T10:26:39.984Z</time></trkpt><trkpt lat="30.009108635219345" lon="-5.574188744145042"><ele>612.0</ele><time>2026-03-24T10:26:40.984Z</time></trkpt><trkpt lat="30.009201318937727" lon="-5.574102331112611"><ele>612.0</ele><time>2026-03-24T10:26:42.984Z</time></trkpt><trkpt lat="30.009212104829338" lon="-5.573957056707952"><ele>612.0</ele><time>2026-03-24T10:26:44.984Z</time></trkpt><trkpt lat="30.009177708329602" lon="-5.573858995468783"><ele>612.0</ele><time>2026-03-24T10:26:45.984Z</time></trkpt><trkpt lat="30.009158439269257" lon="-5.57372472977995"><ele>612.0</ele><time>2026-03-24T10:26:46.984Z</time></trkpt><trkpt lat="30.00912347978059" lon="-5.573587031913667"><ele>612.0</ele><time>2026-03-24T10:26:47.984Z</time></trkpt><trkpt lat="30.0090850933362" lon="-5.573436290051231"><ele>612.0</ele><time>2026-03-24T10:26:48.984Z</time></trkpt><trkpt lat="30.009044899068325" lon="-5.573278449095547"><ele>612.25</ele><time>2026-03-24T10:26:49.984Z</time></trkpt><trkpt lat="30.009004163739547" lon="-5.573118483207895"><ele>612.5</ele><time>2026-03-24T10:26:50.984Z</time></trkpt><trkpt lat="30.00896128688779" lon="-5.572950107933536"><ele>612.75</ele><time>2026-03-24T10:26:51.984Z</time></trkpt><trkpt lat="30.00892001301698" lon="-5.572788017205769"><ele>613.0</ele><time>2026-03-24T10:26:52.984Z</time></trkpt><trkpt lat="30.00887941133575" lon="-5.572628563291817"><ele>613.0</ele><time>2026-03-24T10:26:53.984Z</time></trkpt><trkpt lat="30.008838017324884" lon="-5.572465844391866"><ele>613.0</ele><time>2026-03-24T10:26:54.984Z</time></trkpt><trkpt lat="30.008794552114338" lon="-5.572294432935044"><ele>613.0</ele><time>2026-03-24T10:26:55.984Z</time></trkpt><trkpt lat="30.008752016419162" lon="-5.572126687115937"><ele>612.5</ele><time>2026-03-24T10:26:56.984Z</time></trkpt><trkpt lat="30.008711349383493" lon="-5.571966452810303"><ele>612.0</ele><time>2026-03-24T10:26:57.984Z</time></trkpt><trkpt lat="30.008670165927633" lon="-5.571804229935985"><ele>611.5</ele><time>2026-03-24T10:26:58.984Z</time></trkpt><trkpt lat="30.008629209977062" lon="-5.571643378328301"><ele>611.0</ele><time>2026-03-24T10:26:59.984Z</time></trkpt><trkpt lat="30.008587326203717" lon="-5.571473040822213"><ele>611.0</ele><time>2026-03-24T10:27:00.984Z</time></trkpt><trkpt lat="30.008554614867972" lon="-5.571301090723622"><ele>611.0</ele><time>2026-03-24T10:27:01.984Z</time></trkpt><trkpt lat="30.008520797819124" lon="-5.571124254759419"><ele>611.0</ele><time>2026-03-24T10:27:02.984Z</time></trkpt><trkpt lat="30.008486326757673" lon="-5.570944045955202"><ele>611.6666666666666</ele><time>2026-03-24T10:27:03.984Z</time></trkpt><trkpt lat="30.00845229607741" lon="-5.570765258639311"><ele>612.3333333333334</ele><time>2026-03-24T10:27:04.984Z</time></trkpt><trkpt lat="30.008416998562073" lon="-5.57058828208478"><ele>613.0</ele><time>2026-03-24T10:27:05.984Z</time></trkpt><trkpt lat="30.00838045764885" lon="-5.570410615583721"><ele>613.0</ele><time>2026-03-24T10:27:06.984Z</time></trkpt><trkpt lat="30.0083453616301" lon="-5.570239187630508"><ele>613.0</ele><time>2026-03-24T10:27:07.984Z</time></trkpt><trkpt lat="30.008312530895406" lon="-5.570076311490681"><ele>613.0</ele><time>2026-03-24T10:27:08.984Z</time></trkpt><trkpt lat="30.008269550650407" lon="-5.569906003842742"><ele>612.0</ele><time>2026-03-24T10:27:09.984Z</time></trkpt><trkpt lat="30.008220416420365" lon="-5.56972636306752"><ele>611.0</ele><time>2026-03-24T10:27:10.984Z</time></trkpt><trkpt lat="30.008174178350853" lon="-5.56955632083036"><ele>610.0</ele><time>2026-03-24T10:27:11.984Z</time></trkpt><trkpt lat="30.008129399496852" lon="-5.569392847039577"><ele>610.0</ele><time>2026-03-24T10:27:12.984Z</time></trkpt><trkpt lat="30.008086312249734" lon="-5.569235548922356"><ele>610.0</ele><time>2026-03-24T10:27:13.984Z</time></trkpt><trkpt lat="30.00804256041586" lon="-5.569076582965535"><ele>610.0</ele><time>2026-03-24T10:27:14.984Z</time></trkpt><trkpt lat="30.00799924336205" lon="-5.56891953276549"><ele>610.0</ele><time>2026-03-24T10:27:15.984Z</time></trkpt><trkpt lat="30.007957649098728" lon="-5.56876985601624"><ele>610.25</ele><time>2026-03-24T10:27:16.984Z</time></trkpt><trkpt lat="30.007916551815534" lon="-5.568622322278311"><ele>610.5</ele><time>2026-03-24T10:27:17.984Z</time></trkpt><trkpt lat="30.007873956906682" lon="-5.568469997422403"><ele>610.75</ele><time>2026-03-24T10:27:18.984Z</time></trkpt><trkpt lat="30.007903321520836" lon="-5.5682881164194304"><ele>611.0</ele><time>2026-03-24T10:27:19.984Z</time></trkpt><trkpt lat="30.00783945061071" lon="-5.568123648718366"><ele>611.0</ele><time>2026-03-24T10:27:20.984Z</time></trkpt><trkpt lat="30.007773468363325" lon="-5.567959007756662"><ele>611.0</ele><time>2026-03-24T10:27:21.984Z</time></trkpt><trkpt lat="30.007708751843687" lon="-5.567805015124095"><ele>611.0</ele><time>2026-03-24T10:27:22.984Z</time></trkpt><trkpt lat="30.007657415787" lon="-5.567658837346072"><ele>611.0</ele><time>2026-03-24T10:27:23.984Z</time></trkpt><trkpt lat="30.007608617976924" lon="-5.5675049635736125"><ele>611.0</ele><time>2026-03-24T10:27:24.984Z</time></trkpt><trkpt lat="30.00755648288841" lon="-5.5673438860947675"><ele>611.0</ele><time>2026-03-24T10:27:25.984Z</time></trkpt><trkpt lat="30.007496950604246" lon="-5.5671769047807755"><ele>611.0</ele><time>2026-03-24T10:27:26.984Z</time></trkpt><trkpt lat="30.007431461798244" lon="-5.566999405605082"><ele>611.0</ele><time>2026-03-24T10:27:27.984Z</time></trkpt><trkpt lat="30.007379600192756" lon="-5.566804154696552"><ele>611.0</ele><time>2026-03-24T10:27:28.984Z</time></trkpt><trkpt lat="30.007293383501313" lon="-5.5666303962310595"><ele>611.0</ele><time>2026-03-24T10:27:29.984Z</time></trkpt><trkpt lat="30.00725531042607" lon="-5.566431820645011"><ele>611.0</ele><time>2026-03-24T10:27:30.984Z</time></trkpt><trkpt lat="30.007224202131574" lon="-5.566231152213687"><ele>611.0</ele><time>2026-03-24T10:27:31.984Z</time></trkpt><trkpt lat="30.0071906848248" lon="-5.566012243699581"><ele>611.0</ele><time>2026-03-24T10:27:32.984Z</time></trkpt><trkpt lat="30.0071608791916" lon="-5.565820031139262"><ele>611.0</ele><time>2026-03-24T10:27:33.984Z</time></trkpt><trkpt lat="30.00713200917533" lon="-5.565632373537347"><ele>611.0</ele><time>2026-03-24T10:27:34.984Z</time></trkpt><trkpt lat="30.007108286972805" lon="-5.56544803883477"><ele>611.0</ele><time>2026-03-24T10:27:35.985Z</time></trkpt><trkpt lat="30.00708581321738" lon="-5.565273405321957"><ele>610.75</ele><time>2026-03-24T10:27:36.985Z</time></trkpt><trkpt lat="30.007063696046668" lon="-5.565094166851622"><ele>610.5</ele><time>2026-03-24T10:27:37.985Z</time></trkpt><trkpt lat="30.00704406694958" lon="-5.5649315589612405"><ele>610.25</ele><time>2026-03-24T10:27:38.984Z</time></trkpt><trkpt lat="30.007023676932942" lon="-5.564759463350501"><ele>610.0</ele><time>2026-03-24T10:27:39.984Z</time></trkpt><trkpt lat="30.00700247360792" lon="-5.564590442103755"><ele>610.0</ele><time>2026-03-24T10:27:40.984Z</time></trkpt><trkpt lat="30.00697673711381" lon="-5.564417099200439"><ele>610.0</ele><time>2026-03-24T10:27:41.984Z</time></trkpt><trkpt lat="30.006941182799928" lon="-5.5642587131358745"><ele>610.0</ele><time>2026-03-24T10:27:42.984Z</time></trkpt><trkpt lat="30.006892928934658" lon="-5.5641037893293"><ele>610.0</ele><time>2026-03-24T10:27:43.984Z</time></trkpt><trkpt lat="30.00682230360933" lon="-5.563973012862506"><ele>610.0</ele><time>2026-03-24T10:27:44.984Z</time></trkpt><trkpt lat="30.006734553209093" lon="-5.563815461383576"><ele>610.0</ele><time>2026-03-24T10:27:45.984Z</time></trkpt><trkpt lat="30.006637781248354" lon="-5.5636358514087565"><ele>610.0</ele><time>2026-03-24T10:27:46.984Z</time></trkpt><trkpt lat="30.006577091161564" lon="-5.5634493373516465"><ele>610.0</ele><time>2026-03-24T10:27:47.985Z</time></trkpt><trkpt lat="30.0065481193352" lon="-5.5632324200909675"><ele>610.0</ele><time>2026-03-24T10:27:48.984Z</time></trkpt><trkpt lat="30.006518489644446" lon="-5.563025420737623"><ele>610.0</ele><time>2026-03-24T10:27:49.984Z</time></trkpt><trkpt lat="30.006495043728265" lon="-5.562826964700195"><ele>609.6666666666667</ele><time>2026-03-24T10:27:50.984Z</time></trkpt><trkpt lat="30.006471036485763" lon="-5.562623757331265"><ele>609.3333333333334</ele><time>2026-03-24T10:27:51.984Z</time></trkpt><trkpt lat="30.006449018984902" lon="-5.562433782476999"><ele>609.0</ele><time>2026-03-24T10:27:52.984Z</time></trkpt><trkpt lat="30.00643162939902" lon="-5.562245295664376"><ele>609.0</ele><time>2026-03-24T10:27:53.984Z</time></trkpt><trkpt lat="30.00641741703097" lon="-5.562065879436329"><ele>609.0</ele><time>2026-03-24T10:27:54.984Z</time></trkpt><trkpt lat="30.006403508698234" lon="-5.561890301282769"><ele>609.0</ele><time>2026-03-24T10:27:55.984Z</time></trkpt><trkpt lat="30.00638991398297" lon="-5.561718682310223"><ele>609.75</ele><time>2026-03-24T10:27:56.984Z</time></trkpt><trkpt lat="30.00637658270771" lon="-5.561545558956652"><ele>610.5</ele><time>2026-03-24T10:27:57.984Z</time></trkpt><trkpt lat="30.006364079586703" lon="-5.561381797350502"><ele>611.25</ele><time>2026-03-24T10:27:58.984Z</time></trkpt><trkpt lat="30.00633727601947" lon="-5.561240186636013"><ele>612.0</ele><time>2026-03-24T10:27:59.984Z</time></trkpt><trkpt lat="30.006298964455645" lon="-5.561093194467582"><ele>612.0</ele><time>2026-03-24T10:28:00.984Z</time></trkpt><trkpt lat="30.006237241494862" lon="-5.5609540048483"><ele>612.0</ele><time>2026-03-24T10:28:01.984Z</time></trkpt><trkpt lat="30.00615257088539" lon="-5.560785363964195"><ele>612.0</ele><time>2026-03-24T10:28:02.984Z</time></trkpt><trkpt lat="30.006090283703656" lon="-5.560602053066066"><ele>612.0</ele><time>2026-03-24T10:28:03.984Z</time></trkpt><trkpt lat="30.00607854699213" lon="-5.560408101365345"><ele>612.0</ele><time>2026-03-24T10:28:04.984Z</time></trkpt><trkpt lat="30.006065954527237" lon="-5.5602247525419894"><ele>612.0</ele><time>2026-03-24T10:28:05.984Z</time></trkpt><trkpt lat="30.006053366718916" lon="-5.560034482696819"><ele>612.0</ele><time>2026-03-24T10:28:06.984Z</time></trkpt><trkpt lat="30.00603923049057" lon="-5.559828578448563"><ele>612.0</ele><time>2026-03-24T10:28:07.984Z</time></trkpt><trkpt lat="30.00602586328784" lon="-5.559639631064234"><ele>612.0</ele><time>2026-03-24T10:28:08.984Z</time></trkpt><trkpt lat="30.005999317911627" lon="-5.559448238095544"><ele>612.0</ele><time>2026-03-24T10:28:09.984Z</time></trkpt><trkpt lat="30.00597264325965" lon="-5.559255913013205"><ele>612.0</ele><time>2026-03-24T10:28:10.984Z</time></trkpt><trkpt lat="30.00593832645504" lon="-5.559084411802422"><ele>612.0</ele><time>2026-03-24T10:28:11.984Z</time></trkpt><trkpt lat="30.005897820364698" lon="-5.5588978178937305"><ele>612.0</ele><time>2026-03-24T10:28:12.984Z</time></trkpt><trkpt lat="30.005854418862096" lon="-5.558701858836463"><ele>612.0</ele><time>2026-03-24T10:28:13.984Z</time></trkpt><trkpt lat="30.005809867602398" lon="-5.558512474893388"><ele>612.0</ele><time>2026-03-24T10:28:14.984Z</time></trkpt><trkpt lat="30.005757770570117" lon="-5.5583365404015455"><ele>611.6666666666666</ele><time>2026-03-24T10:28:15.984Z</time></trkpt><trkpt lat="30.00570525863481" lon="-5.558156921780896"><ele>611.3333333333333</ele><time>2026-03-24T10:28:16.984Z</time></trkpt><trkpt lat="30.005651228185254" lon="-5.557969430330933"><ele>611.0</ele><time>2026-03-24T10:28:17.984Z</time></trkpt><trkpt lat="30.005586671398632" lon="-5.557777255464378"><ele>611.0</ele><time>2026-03-24T10:28:18.984Z</time></trkpt><trkpt lat="30.005516990272817" lon="-5.557568767603927"><ele>611.0</ele><time>2026-03-24T10:28:19.984Z</time></trkpt><trkpt lat="30.005449496858994" lon="-5.557364708942906"><ele>611.0</ele><time>2026-03-24T10:28:20.984Z</time></trkpt><trkpt lat="30.005380805451676" lon="-5.5571794231727605"><ele>611.25</ele><time>2026-03-24T10:28:21.984Z</time></trkpt><trkpt lat="30.005314478838287" lon="-5.557013335590325"><ele>611.5</ele><time>2026-03-24T10:28:22.984Z</time></trkpt><trkpt lat="30.00525679310889" lon="-5.556868885574039"><ele>611.75</ele><time>2026-03-24T10:28:23.984Z</time></trkpt><trkpt lat="30.0052036341178" lon="-5.55675539163543"><ele>612.0</ele><time>2026-03-24T10:28:24.984Z</time></trkpt><trkpt lat="30.005140804548756" lon="-5.5566370608532045"><ele>612.0</ele><time>2026-03-24T10:28:25.984Z</time></trkpt><trkpt lat="30.005055918537153" lon="-5.5565498894869805"><ele>612.0</ele><time>2026-03-24T10:28:26.984Z</time></trkpt><trkpt lat="30.004945258755615" lon="-5.556489726229034"><ele>612.0</ele><time>2026-03-24T10:28:27.984Z</time></trkpt><trkpt lat="30.004853991653327" lon="-5.556402846667018"><ele>612.0</ele><time>2026-03-24T10:28:28.984Z</time></trkpt><trkpt lat="30.004784821486172" lon="-5.556260946197129"><ele>612.3333333333334</ele><time>2026-03-24T10:28:29.984Z</time></trkpt><trkpt lat="30.004699911980282" lon="-5.556112665491357"><ele>612.6666666666667</ele><time>2026-03-24T10:28:30.984Z</time></trkpt><trkpt lat="30.004607231814457" lon="-5.555951863943161"><ele>613.0</ele><time>2026-03-24T10:28:31.984Z</time></trkpt><trkpt lat="30.00451611790494" lon="-5.55580319147616"><ele>613.0</ele><time>2026-03-24T10:28:32.984Z</time></trkpt><trkpt lat="30.004425426160882" lon="-5.555645867386838"><ele>613.0</ele><time>2026-03-24T10:28:33.984Z</time></trkpt><trkpt lat="30.004339221512794" lon="-5.555480257604176"><ele>613.0</ele><time>2026-03-24T10:28:34.984Z</time></trkpt><trkpt lat="30.004242319818776" lon="-5.55531854563583"><ele>613.0</ele><time>2026-03-24T10:28:35.984Z</time></trkpt><trkpt lat="30.00417557982014" lon="-5.555142584953698"><ele>613.0</ele><time>2026-03-24T10:28:36.984Z</time></trkpt><trkpt lat="30.004106217970754" lon="-5.554961635961694"><ele>613.0</ele><time>2026-03-24T10:28:37.984Z</time></trkpt><trkpt lat="30.004039187906393" lon="-5.554784282136623"><ele>612.6666666666667</ele><time>2026-03-24T10:28:38.984Z</time></trkpt><trkpt lat="30.003962985480886" lon="-5.554616754642706"><ele>612.3333333333334</ele><time>2026-03-24T10:28:39.984Z</time></trkpt><trkpt lat="30.00386914676034" lon="-5.5544609424984515"><ele>612.0</ele><time>2026-03-24T10:28:40.984Z</time></trkpt><trkpt lat="30.003772864143425" lon="-5.554298726616264"><ele>613.3333333333334</ele><time>2026-03-24T10:28:41.984Z</time></trkpt><trkpt lat="30.00368986316406" lon="-5.554122582505611"><ele>614.6666666666667</ele><time>2026-03-24T10:28:42.984Z</time></trkpt><trkpt lat="30.00359584208851" lon="-5.553961152312269"><ele>616.0</ele><time>2026-03-24T10:28:43.984Z</time></trkpt><trkpt lat="30.003508645025637" lon="-5.553800977646713"><ele>616.0</ele><time>2026-03-24T10:28:44.984Z</time></trkpt><trkpt lat="30.003417798297352" lon="-5.553636006560306"><ele>616.0</ele><time>2026-03-24T10:28:45.984Z</time></trkpt><trkpt lat="30.00331160564637" lon="-5.5534797267694005"><ele>616.0</ele><time>2026-03-24T10:28:46.984Z</time></trkpt><trkpt lat="30.00321842660138" lon="-5.553314233190972"><ele>615.0</ele><time>2026-03-24T10:28:47.984Z</time></trkpt><trkpt lat="30.003128005472025" lon="-5.553144232533717"><ele>614.0</ele><time>2026-03-24T10:28:48.984Z</time></trkpt><trkpt lat="30.00303957102156" lon="-5.552964947777047"><ele>613.0</ele><time>2026-03-24T10:28:49.984Z</time></trkpt><trkpt lat="30.00295075892821" lon="-5.552787351310508"><ele>613.0</ele><time>2026-03-24T10:28:50.984Z</time></trkpt><trkpt lat="30.002874635453555" lon="-5.552606863508449"><ele>613.0</ele><time>2026-03-24T10:28:51.984Z</time></trkpt><trkpt lat="30.002807314116186" lon="-5.552430026571593"><ele>613.0</ele><time>2026-03-24T10:28:52.984Z</time></trkpt><trkpt lat="30.00273751297938" lon="-5.552247863923595"><ele>613.0</ele><time>2026-03-24T10:28:53.984Z</time></trkpt><trkpt lat="30.002661830107133" lon="-5.552070992278567"><ele>613.0</ele><time>2026-03-24T10:28:54.984Z</time></trkpt><trkpt lat="30.002587318701657" lon="-5.55189634248374"><ele>613.0</ele><time>2026-03-24T10:28:55.984Z</time></trkpt><trkpt lat="30.002516815102645" lon="-5.55173181716392"><ele>613.0</ele><time>2026-03-24T10:28:56.984Z</time></trkpt><trkpt lat="30.002450221116348" lon="-5.551582098415797"><ele>613.0</ele><time>2026-03-24T10:28:57.984Z</time></trkpt><trkpt lat="30.00238177849221" lon="-5.551430126352232"><ele>613.0</ele><time>2026-03-24T10:28:58.984Z</time></trkpt><trkpt lat="30.00231031455622" lon="-5.551294476848341"><ele>613.0</ele><time>2026-03-24T10:28:59.984Z</time></trkpt><trkpt lat="30.002234457611433" lon="-5.551161772081927"><ele>613.0</ele><time>2026-03-24T10:29:00.984Z</time></trkpt><trkpt lat="30.002174328037825" lon="-5.5510575906320465"><ele>613.0</ele><time>2026-03-24T10:29:01.984Z</time></trkpt><trkpt lat="30.002099038871414" lon="-5.5509453471054035"><ele>613.0</ele><time>2026-03-24T10:29:02.984Z</time></trkpt><trkpt lat="30.00202390146068" lon="-5.550835197189408"><ele>613.0</ele><time>2026-03-24T10:29:03.984Z</time></trkpt><trkpt lat="30.001944962360977" lon="-5.550721670773002"><ele>613.0</ele><time>2026-03-24T10:29:04.984Z</time></trkpt><trkpt lat="30.00187669105006" lon="-5.550588344845364"><ele>613.0</ele><time>2026-03-24T10:29:05.984Z</time></trkpt><trkpt lat="30.001816854681017" lon="-5.550461192598894"><ele>613.0</ele><time>2026-03-24T10:29:06.984Z</time></trkpt><trkpt lat="30.001763605155986" lon="-5.550356579486163"><ele>613.0</ele><time>2026-03-24T10:29:07.984Z</time></trkpt><trkpt lat="30.0017201726813" lon="-5.550254128238242"><ele>613.3333333333334</ele><time>2026-03-24T10:29:08.984Z</time></trkpt><trkpt lat="30.0017053144619" lon="-5.55016514651516"><ele>613.6666666666667</ele><time>2026-03-24T10:29:09.984Z</time></trkpt><trkpt lat="30.001688725854102" lon="-5.550072809617893"><ele>614.0</ele><time>2026-03-24T10:29:10.984Z</time></trkpt><trkpt lat="30.0016469608941" lon="-5.549986595604712"><ele>614.3333333333334</ele><time>2026-03-24T10:29:11.984Z</time></trkpt><trkpt lat="30.00161477609574" lon="-5.549878811759729"><ele>614.6666666666666</ele><time>2026-03-24T10:29:12.984Z</time></trkpt><trkpt lat="30.001590253735134" lon="-5.549780310495964"><ele>615.0</ele><time>2026-03-24T10:29:13.984Z</time></trkpt><trkpt lat="30.001523752009224" lon="-5.549688626786673"><ele>615.0</ele><time>2026-03-24T10:29:14.984Z</time></trkpt><trkpt lat="30.00147141233015" lon="-5.549602359436938"><ele>615.0</ele><time>2026-03-24T10:29:15.984Z</time></trkpt><trkpt lat="30.001426608601708" lon="-5.549514497679932"><ele>615.0</ele><time>2026-03-24T10:29:16.984Z</time></trkpt><trkpt lat="30.001398783559534" lon="-5.549446958134663"><ele>615.0</ele><time>2026-03-24T10:29:17.984Z</time></trkpt><trkpt lat="30.001337125373112" lon="-5.549371392253725"><ele>615.0</ele><time>2026-03-24T10:29:19.984Z</time></trkpt><trkpt lat="30.001268649493014" lon="-5.549279981142959"><ele>615.0</ele><time>2026-03-24T10:29:21.984Z</time></trkpt><trkpt lat="30.00116736312028" lon="-5.549327847027986"><ele>614.8333333333334</ele><time>2026-03-24T10:29:22.984Z</time></trkpt><trkpt lat="30.001065300398817" lon="-5.549363691251815"><ele>614.6666666666666</ele><time>2026-03-24T10:29:24.984Z</time></trkpt><trkpt lat="30.000990929545566" lon="-5.549356106919084"><ele>614.5</ele><time>2026-03-24T10:29:27.984Z</time></trkpt><trkpt lat="30.00089898014303" lon="-5.5492652391499036"><ele>614.3333333333333</ele><time>2026-03-24T10:29:29.984Z</time></trkpt><trkpt lat="30.00087432177652" lon="-5.549196249683407"><ele>614.1666666666666</ele><time>2026-03-24T10:29:30.984Z</time></trkpt><trkpt lat="30.00084873339218" lon="-5.549125547010553"><ele>614.0</ele><time>2026-03-24T10:29:31.984Z</time></trkpt><trkpt lat="30.00083314839428" lon="-5.549035885158821"><ele>614.0</ele><time>2026-03-24T10:29:32.984Z</time></trkpt><trkpt lat="30.000798728484554" lon="-5.548951767873129"><ele>614.0</ele><time>2026-03-24T10:29:33.984Z</time></trkpt><trkpt lat="30.00076349558763" lon="-5.548861853121359"><ele>614.0</ele><time>2026-03-24T10:29:34.984Z</time></trkpt><trkpt lat="30.000732138172758" lon="-5.548770424137111"><ele>614.0</ele><time>2026-03-24T10:29:35.984Z</time></trkpt><trkpt lat="30.000699524610333" lon="-5.548676071902186"><ele>614.0</ele><time>2026-03-24T10:29:36.984Z</time></trkpt><trkpt lat="30.00065985885697" lon="-5.548567944100119"><ele>614.0</ele><time>2026-03-24T10:29:37.984Z</time></trkpt><trkpt lat="30.000613844204405" lon="-5.548462836126417"><ele>614.0</ele><time>2026-03-24T10:29:38.984Z</time></trkpt><trkpt lat="30.000567986135458" lon="-5.5483772255446855"><ele>614.0</ele><time>2026-03-24T10:29:39.984Z</time></trkpt><trkpt lat="30.000519838199896" lon="-5.548293437272303"><ele>614.0</ele><time>2026-03-24T10:29:40.984Z</time></trkpt><trkpt lat="30.00047247788216" lon="-5.548213126179921"><ele>614.0</ele><time>2026-03-24T10:29:41.984Z</time></trkpt><trkpt lat="30.0004085619213" lon="-5.548144047568022"><ele>614.0</ele><time>2026-03-24T10:29:42.983Z</time></trkpt><trkpt lat="30.00035665791421" lon="-5.548070563488414"><ele>614.0</ele><time>2026-03-24T10:29:43.983Z</time></trkpt><trkpt lat="30.000317470153266" lon="-5.547987216144511"><ele>614.0</ele><time>2026-03-24T10:29:44.984Z</time></trkpt><trkpt lat="30.00026442636563" lon="-5.547921322113898"><ele>614.0</ele><time>2026-03-24T10:29:45.983Z</time></trkpt><trkpt lat="30.0002138328738" lon="-5.547849148605517"><ele>614.0</ele><time>2026-03-24T10:29:46.983Z</time></trkpt><trkpt lat="30.000169751275077" lon="-5.547773713376014"><ele>614.0</ele><time>2026-03-24T10:29:47.984Z</time></trkpt><trkpt lat="30.000133517004947" lon="-5.547694772152663"><ele>614.0</ele><time>2026-03-24T10:29:48.983Z</time></trkpt><trkpt lat="30.00009073589426" lon="-5.547630243924325"><ele>614.0</ele><time>2026-03-24T10:29:49.983Z</time></trkpt><trkpt lat="30.000056083402733" lon="-5.547543595474994"><ele>614.0</ele><time>2026-03-24T10:29:50.984Z</time></trkpt><trkpt lat="30.000034096901274" lon="-5.547466191695636"><ele>614.0</ele><time>2026-03-24T10:29:51.984Z</time></trkpt><trkpt lat="30.000010994371838" lon="-5.547387318106442"><ele>614.0</ele><time>2026-03-24T10:29:52.984Z</time></trkpt><trkpt lat="29.999985411330492" lon="-5.547298020119972"><ele>614.0</ele><time>2026-03-24T10:29:53.983Z</time></trkpt><trkpt lat="29.999960189590674" lon="-5.547206379991144"><ele>614.0</ele><time>2026-03-24T10:29:54.984Z</time></trkpt><trkpt lat="29.99993720312056" lon="-5.54712286150843"><ele>614.0</ele><time>2026-03-24T10:29:55.984Z</time></trkpt><trkpt lat="29.999913778781753" lon="-5.547037750985123"><ele>614.2</ele><time>2026-03-24T10:29:56.984Z</time></trkpt><trkpt lat="29.999888108197275" lon="-5.5469441926402"><ele>614.4</ele><time>2026-03-24T10:29:57.984Z</time></trkpt><trkpt lat="29.999855531320332" lon="-5.546853625846656"><ele>614.6</ele><time>2026-03-24T10:29:58.984Z</time></trkpt><trkpt lat="29.99982200658874" lon="-5.5467580760382145"><ele>614.8</ele><time>2026-03-24T10:29:59.984Z</time></trkpt><trkpt lat="29.99978582201259" lon="-5.546654890967291"><ele>615.0</ele><time>2026-03-24T10:30:00.984Z</time></trkpt><trkpt lat="29.999750208678627" lon="-5.5465533347971805"><ele>615.0</ele><time>2026-03-24T10:30:01.984Z</time></trkpt><trkpt lat="29.99971288446424" lon="-5.546448168771164"><ele>615.0</ele><time>2026-03-24T10:30:02.984Z</time></trkpt><trkpt lat="29.999672570643284" lon="-5.546343939314496"><ele>615.0</ele><time>2026-03-24T10:30:03.984Z</time></trkpt><trkpt lat="29.99962348030802" lon="-5.546236543129596"><ele>615.0</ele><time>2026-03-24T10:30:04.984Z</time></trkpt><trkpt lat="29.999588604582126" lon="-5.546121447392535"><ele>615.0</ele><time>2026-03-24T10:30:05.984Z</time></trkpt><trkpt lat="29.999532286335622" lon="-5.546006778116188"><ele>615.0</ele><time>2026-03-24T10:30:06.984Z</time></trkpt><trkpt lat="29.999480994229035" lon="-5.545885679119608"><ele>615.0</ele><time>2026-03-24T10:30:07.984Z</time></trkpt><trkpt lat="29.999415578385737" lon="-5.545780951993628"><ele>615.0</ele><time>2026-03-24T10:30:08.984Z</time></trkpt><trkpt lat="29.999361918171058" lon="-5.545663483482968"><ele>615.0</ele><time>2026-03-24T10:30:09.984Z</time></trkpt><trkpt lat="29.999322291588815" lon="-5.545539065534106"><ele>615.0</ele><time>2026-03-24T10:30:10.984Z</time></trkpt><trkpt lat="29.999266346436414" lon="-5.545421674939538"><ele>615.0</ele><time>2026-03-24T10:30:11.984Z</time></trkpt><trkpt lat="29.999213196562476" lon="-5.54530563991888"><ele>615.0</ele><time>2026-03-24T10:30:12.984Z</time></trkpt><trkpt lat="29.999160136175515" lon="-5.545195828274603"><ele>615.0</ele><time>2026-03-24T10:30:13.984Z</time></trkpt><trkpt lat="29.999105786353656" lon="-5.545089954060143"><ele>615.0</ele><time>2026-03-24T10:30:14.984Z</time></trkpt><trkpt lat="29.99904777021035" lon="-5.544980026467596"><ele>614.8</ele><time>2026-03-24T10:30:15.984Z</time></trkpt><trkpt lat="29.998999274311895" lon="-5.544868995509761"><ele>614.6</ele><time>2026-03-24T10:30:16.984Z</time></trkpt><trkpt lat="29.998951047666335" lon="-5.54475918920057"><ele>614.4</ele><time>2026-03-24T10:30:17.984Z</time></trkpt><trkpt lat="29.99890770426363" lon="-5.544653838612013"><ele>614.2</ele><time>2026-03-24T10:30:18.984Z</time></trkpt><trkpt lat="29.998869686789956" lon="-5.544545544219835"><ele>614.0</ele><time>2026-03-24T10:30:19.984Z</time></trkpt><trkpt lat="29.9988344645331" lon="-5.544429712331218"><ele>614.0</ele><time>2026-03-24T10:30:20.984Z</time></trkpt><trkpt lat="29.99877935698787" lon="-5.544323651183183"><ele>614.0</ele><time>2026-03-24T10:30:21.984Z</time></trkpt><trkpt lat="29.99875434436144" lon="-5.5442023232639555"><ele>614.0</ele><time>2026-03-24T10:30:22.984Z</time></trkpt><trkpt lat="29.998786416233493" lon="-5.5440834832057195"><ele>614.0</ele><time>2026-03-24T10:30:23.984Z</time></trkpt><trkpt lat="29.998797263040586" lon="-5.543972203232164"><ele>614.0</ele><time>2026-03-24T10:30:24.984Z</time></trkpt><trkpt lat="29.9987872562996" lon="-5.543887117781319"><ele>614.0</ele><time>2026-03-24T10:30:25.984Z</time></trkpt><trkpt lat="29.998776704756526" lon="-5.543770173179015"><ele>614.0</ele><time>2026-03-24T10:30:27.984Z</time></trkpt><trkpt lat="29.99876678478454" lon="-5.543674192535458"><ele>614.0</ele><time>2026-03-24T10:30:30.984Z</time></trkpt><trkpt lat="29.998758314283805" lon="-5.5435956483920155"><ele>614.0</ele><time>2026-03-24T10:30:34.984Z</time></trkpt><trkpt lat="29.998895481716602" lon="-5.543451740816972"><ele>614.0</ele><time>2026-03-24T10:31:31.984Z</time></trkpt><trkpt lat="29.998962199780358" lon="-5.543389699403534"><ele>613.75</ele><time>2026-03-24T10:31:32.984Z</time></trkpt><trkpt lat="29.99905111018998" lon="-5.543307692758289"><ele>613.5</ele><time>2026-03-24T10:31:33.984Z</time></trkpt><trkpt lat="29.99914959337394" lon="-5.5432167446191425"><ele>613.25</ele><time>2026-03-24T10:31:34.984Z</time></trkpt><trkpt lat="29.999257134281308" lon="-5.543117932110008"><ele>613.0</ele><time>2026-03-24T10:31:35.984Z</time></trkpt><trkpt lat="29.999356262794816" lon="-5.543026849217801"><ele>613.0</ele><time>2026-03-24T10:31:36.984Z</time></trkpt><trkpt lat="29.999451160421046" lon="-5.542939653835867"><ele>613.0</ele><time>2026-03-24T10:31:37.984Z</time></trkpt><trkpt lat="29.999553068770048" lon="-5.542863068048966"><ele>613.0</ele><time>2026-03-24T10:31:38.984Z</time></trkpt><trkpt lat="29.999647886560403" lon="-5.542760831041393"><ele>613.0</ele><time>2026-03-24T10:31:39.984Z</time></trkpt><trkpt lat="29.999752261750775" lon="-5.542664065423577"><ele>613.25</ele><time>2026-03-24T10:31:40.984Z</time></trkpt><trkpt lat="29.999857221057155" lon="-5.542568329155436"><ele>613.5</ele><time>2026-03-24T10:31:41.984Z</time></trkpt><trkpt lat="29.999964721773868" lon="-5.542473715578284"><ele>613.75</ele><time>2026-03-24T10:31:42.984Z</time></trkpt><trkpt lat="30.000077372944517" lon="-5.542379725403338"><ele>614.0</ele><time>2026-03-24T10:31:43.984Z</time></trkpt><trkpt lat="30.00019397961285" lon="-5.542292109577741"><ele>614.0</ele><time>2026-03-24T10:31:44.984Z</time></trkpt><trkpt lat="30.000306522493965" lon="-5.542207856232926"><ele>614.0</ele><time>2026-03-24T10:31:45.984Z</time></trkpt><trkpt lat="30.000419895152472" lon="-5.54212088796486"><ele>614.0</ele><time>2026-03-24T10:31:46.984Z</time></trkpt><trkpt lat="30.000546246691354" lon="-5.542028130261699"><ele>614.0</ele><time>2026-03-24T10:31:47.983Z</time></trkpt><trkpt lat="30.000675223185954" lon="-5.541941427826028"><ele>614.5</ele><time>2026-03-24T10:31:48.983Z</time></trkpt><trkpt lat="30.000802493765747" lon="-5.541853137821565"><ele>615.0</ele><time>2026-03-24T10:31:49.983Z</time></trkpt><trkpt lat="30.00091123170412" lon="-5.541749996028963"><ele>615.5</ele><time>2026-03-24T10:31:50.983Z</time></trkpt><trkpt lat="30.001028188114336" lon="-5.5416648308095215"><ele>616.0</ele><time>2026-03-24T10:31:51.983Z</time></trkpt><trkpt lat="30.00115743841335" lon="-5.5415687405434495"><ele>616.0</ele><time>2026-03-24T10:31:52.983Z</time></trkpt><trkpt lat="30.001285796307464" lon="-5.541485145302396"><ele>616.0</ele><time>2026-03-24T10:31:53.983Z</time></trkpt><trkpt lat="30.001410365918726" lon="-5.541405236594765"><ele>616.0</ele><time>2026-03-24T10:31:54.984Z</time></trkpt><trkpt lat="30.00152608144351" lon="-5.541308579376871"><ele>616.0</ele><time>2026-03-24T10:31:55.984Z</time></trkpt><trkpt lat="30.001648752798765" lon="-5.541207472720445"><ele>614.6666666666667</ele><time>2026-03-24T10:31:56.983Z</time></trkpt><trkpt lat="30.001780351067172" lon="-5.541112805848405"><ele>613.3333333333334</ele><time>2026-03-24T10:31:57.984Z</time></trkpt><trkpt lat="30.001915446728002" lon="-5.541036995484167"><ele>612.0</ele><time>2026-03-24T10:31:58.984Z</time></trkpt><trkpt lat="30.002053828984632" lon="-5.540984351295545"><ele>612.0</ele><time>2026-03-24T10:31:59.983Z</time></trkpt><trkpt lat="30.002194240031173" lon="-5.540944704548417"><ele>612.0</ele><time>2026-03-24T10:32:00.983Z</time></trkpt><trkpt lat="30.002306155124487" lon="-5.540875092937221"><ele>612.0</ele><time>2026-03-24T10:32:01.983Z</time></trkpt><trkpt lat="30.002411898503112" lon="-5.54080892501299"><ele>612.0</ele><time>2026-03-24T10:32:02.983Z</time></trkpt><trkpt lat="30.002524296757535" lon="-5.540737254979442"><ele>612.25</ele><time>2026-03-24T10:32:03.983Z</time></trkpt><trkpt lat="30.00262618423874" lon="-5.540649134713655"><ele>612.5</ele><time>2026-03-24T10:32:04.983Z</time></trkpt><trkpt lat="30.002741296176275" lon="-5.54054735390994"><ele>612.75</ele><time>2026-03-24T10:32:05.983Z</time></trkpt><trkpt lat="30.002859894515005" lon="-5.540436906020849"><ele>613.0</ele><time>2026-03-24T10:32:06.983Z</time></trkpt><trkpt lat="30.002986782833542" lon="-5.540341971247177"><ele>613.0</ele><time>2026-03-24T10:32:07.983Z</time></trkpt><trkpt lat="30.003090626416622" lon="-5.540214454557273"><ele>613.0</ele><time>2026-03-24T10:32:08.983Z</time></trkpt><trkpt lat="30.003194246754713" lon="-5.540109410904285"><ele>613.0</ele><time>2026-03-24T10:32:09.983Z</time></trkpt><trkpt lat="30.003305793728046" lon="-5.539996772497857"><ele>613.0</ele><time>2026-03-24T10:32:10.983Z</time></trkpt><trkpt lat="30.003420696466296" lon="-5.539875235486326"><ele>612.6666666666667</ele><time>2026-03-24T10:32:11.983Z</time></trkpt><trkpt lat="30.00354152172168" lon="-5.539755096718381"><ele>612.3333333333334</ele><time>2026-03-24T10:32:12.983Z</time></trkpt><trkpt lat="30.00366021185506" lon="-5.539650802306725"><ele>612.0</ele><time>2026-03-24T10:32:13.983Z</time></trkpt><trkpt lat="30.003791295805495" lon="-5.5395652008726834"><ele>612.0</ele><time>2026-03-24T10:32:14.983Z</time></trkpt><trkpt lat="30.003922496776745" lon="-5.53947653609182"><ele>612.0</ele><time>2026-03-24T10:32:15.983Z</time></trkpt><trkpt lat="30.004037912097395" lon="-5.539397896011447"><ele>612.0</ele><time>2026-03-24T10:32:16.983Z</time></trkpt><trkpt lat="30.004157582163764" lon="-5.539309600483114"><ele>612.0</ele><time>2026-03-24T10:32:17.983Z</time></trkpt><trkpt lat="30.00426538048724" lon="-5.539225815045784"><ele>612.25</ele><time>2026-03-24T10:32:18.983Z</time></trkpt><trkpt lat="30.004363079691323" lon="-5.539146491259059"><ele>612.5</ele><time>2026-03-24T10:32:19.983Z</time></trkpt><trkpt lat="30.00446607080017" lon="-5.5390646541050135"><ele>612.75</ele><time>2026-03-24T10:32:20.983Z</time></trkpt><trkpt lat="30.0045724048734" lon="-5.5389818048118284"><ele>613.0</ele><time>2026-03-24T10:32:21.983Z</time></trkpt><trkpt lat="30.004681771026085" lon="-5.538903306709434"><ele>613.0</ele><time>2026-03-24T10:32:22.983Z</time></trkpt><trkpt lat="30.00475931307654" lon="-5.538778622459413"><ele>613.0</ele><time>2026-03-24T10:32:23.983Z</time></trkpt><trkpt lat="30.004855068017896" lon="-5.538682815320524"><ele>613.0</ele><time>2026-03-24T10:32:24.983Z</time></trkpt><trkpt lat="30.00493428304135" lon="-5.538559785721059"><ele>613.0</ele><time>2026-03-24T10:32:25.983Z</time></trkpt><trkpt lat="30.00501492193892" lon="-5.538427868045803"><ele>613.0</ele><time>2026-03-24T10:32:26.983Z</time></trkpt><trkpt lat="30.00509388685291" lon="-5.538297375812864"><ele>613.0</ele><time>2026-03-24T10:32:27.983Z</time></trkpt><trkpt lat="30.005169781123662" lon="-5.538165100797701"><ele>613.0</ele><time>2026-03-24T10:32:28.983Z</time></trkpt><trkpt lat="30.005242115633234" lon="-5.538030154399382"><ele>613.0</ele><time>2026-03-24T10:32:29.983Z</time></trkpt><trkpt lat="30.00529272497499" lon="-5.537881211468188"><ele>613.0</ele><time>2026-03-24T10:32:30.983Z</time></trkpt><trkpt lat="30.005356958862276" lon="-5.537738452416176"><ele>613.0</ele><time>2026-03-24T10:32:31.983Z</time></trkpt><trkpt lat="30.005418527609706" lon="-5.5375919429797005"><ele>613.0</ele><time>2026-03-24T10:32:32.983Z</time></trkpt><trkpt lat="30.005474997863878" lon="-5.537444337477036"><ele>613.0</ele><time>2026-03-24T10:32:33.983Z</time></trkpt><trkpt lat="30.00552659108931" lon="-5.537309598127045"><ele>613.0</ele><time>2026-03-24T10:32:34.983Z</time></trkpt><trkpt lat="30.005577383351774" lon="-5.537168337759185"><ele>613.0</ele><time>2026-03-24T10:32:35.983Z</time></trkpt><trkpt lat="30.00561870313025" lon="-5.537023967569584"><ele>613.0</ele><time>2026-03-24T10:32:36.983Z</time></trkpt><trkpt lat="30.005664121372366" lon="-5.536895917117104"><ele>613.0</ele><time>2026-03-24T10:32:37.983Z</time></trkpt><trkpt lat="30.005679681656915" lon="-5.536754195938844"><ele>612.75</ele><time>2026-03-24T10:32:38.983Z</time></trkpt><trkpt lat="30.005683752840373" lon="-5.536603764965202"><ele>612.5</ele><time>2026-03-24T10:32:39.983Z</time></trkpt><trkpt lat="30.005682717261756" lon="-5.53644958501238"><ele>612.25</ele><time>2026-03-24T10:32:40.983Z</time></trkpt><trkpt lat="30.005683665846927" lon="-5.53629714500506"><ele>612.0</ele><time>2026-03-24T10:32:41.983Z</time></trkpt><trkpt lat="30.00568153390142" lon="-5.536158729899779"><ele>612.0</ele><time>2026-03-24T10:32:42.983Z</time></trkpt><trkpt lat="30.00565604437507" lon="-5.536026114059318"><ele>612.0</ele><time>2026-03-24T10:32:43.983Z</time></trkpt><trkpt lat="30.005636884720424" lon="-5.535909257144194"><ele>612.0</ele><time>2026-03-24T10:32:44.983Z</time></trkpt><trkpt lat="30.005608258586626" lon="-5.5357796011572855"><ele>612.0</ele><time>2026-03-24T10:32:45.983Z</time></trkpt><trkpt lat="30.00557704061981" lon="-5.53563776246141"><ele>612.0</ele><time>2026-03-24T10:32:46.983Z</time></trkpt><trkpt lat="30.00554797687531" lon="-5.5354905245353985"><ele>612.0</ele><time>2026-03-24T10:32:47.983Z</time></trkpt><trkpt lat="30.005504546423822" lon="-5.535342895560325"><ele>612.0</ele><time>2026-03-24T10:32:48.983Z</time></trkpt><trkpt lat="30.00546535200563" lon="-5.535192266853507"><ele>612.0</ele><time>2026-03-24T10:32:49.983Z</time></trkpt><trkpt lat="30.005427443094916" lon="-5.535041717238765"><ele>611.75</ele><time>2026-03-24T10:32:50.983Z</time></trkpt><trkpt lat="30.00539343551816" lon="-5.5348930459783485"><ele>611.5</ele><time>2026-03-24T10:32:51.983Z</time></trkpt><trkpt lat="30.005355703533716" lon="-5.534744890317644"><ele>611.25</ele><time>2026-03-24T10:32:52.983Z</time></trkpt><trkpt lat="30.005323110022616" lon="-5.5346011710819205"><ele>611.0</ele><time>2026-03-24T10:32:53.983Z</time></trkpt><trkpt lat="30.00529351970549" lon="-5.534462136017005"><ele>611.0</ele><time>2026-03-24T10:32:54.983Z</time></trkpt><trkpt lat="30.005257972349078" lon="-5.534318460736862"><ele>611.0</ele><time>2026-03-24T10:32:55.983Z</time></trkpt><trkpt lat="30.005227336262855" lon="-5.534173434468656"><ele>611.0</ele><time>2026-03-24T10:32:56.983Z</time></trkpt><trkpt lat="30.00518782725259" lon="-5.534034154715526"><ele>611.0</ele><time>2026-03-24T10:32:57.983Z</time></trkpt><trkpt lat="30.005115578362723" lon="-5.533907939514261"><ele>611.0</ele><time>2026-03-24T10:32:58.983Z</time></trkpt><trkpt lat="30.005054994954627" lon="-5.533775296736466"><ele>611.0</ele><time>2026-03-24T10:32:59.983Z</time></trkpt><trkpt lat="30.00499192822684" lon="-5.5336334315032385"><ele>611.0</ele><time>2026-03-24T10:33:00.983Z</time></trkpt><trkpt lat="30.004941332643227" lon="-5.533482450270178"><ele>611.0</ele><time>2026-03-24T10:33:01.983Z</time></trkpt><trkpt lat="30.004871104120657" lon="-5.533340240597776"><ele>610.75</ele><time>2026-03-24T10:33:02.983Z</time></trkpt><trkpt lat="30.00482098126785" lon="-5.533196847802664"><ele>610.5</ele><time>2026-03-24T10:33:03.983Z</time></trkpt><trkpt lat="30.004778039870438" lon="-5.533045327031676"><ele>610.25</ele><time>2026-03-24T10:33:04.983Z</time></trkpt><trkpt lat="30.004736984255807" lon="-5.5328968740514775"><ele>610.0</ele><time>2026-03-24T10:33:05.983Z</time></trkpt><trkpt lat="30.00471188094918" lon="-5.532738415332457"><ele>610.0</ele><time>2026-03-24T10:33:06.983Z</time></trkpt><trkpt lat="30.004692066226223" lon="-5.532581784667698"><ele>610.0</ele><time>2026-03-24T10:33:07.983Z</time></trkpt><trkpt lat="30.00467980102161" lon="-5.532420401642303"><ele>610.0</ele><time>2026-03-24T10:33:08.983Z</time></trkpt><trkpt lat="30.00466896153898" lon="-5.532256274280565"><ele>610.0</ele><time>2026-03-24T10:33:09.983Z</time></trkpt><trkpt lat="30.004652491472218" lon="-5.532082773865023"><ele>610.0</ele><time>2026-03-24T10:33:10.983Z</time></trkpt><trkpt lat="30.004632696546818" lon="-5.531899027012332"><ele>610.0</ele><time>2026-03-24T10:33:11.983Z</time></trkpt><trkpt lat="30.00459262445253" lon="-5.5317257716384285"><ele>610.0</ele><time>2026-03-24T10:33:12.983Z</time></trkpt><trkpt lat="30.004547158827823" lon="-5.5315597936989365"><ele>610.0</ele><time>2026-03-24T10:33:13.983Z</time></trkpt><trkpt lat="30.004496260843627" lon="-5.531404624213391"><ele>610.0</ele><time>2026-03-24T10:33:14.983Z</time></trkpt><trkpt lat="30.004448156557885" lon="-5.531259879924383"><ele>610.0</ele><time>2026-03-24T10:33:15.983Z</time></trkpt><trkpt lat="30.004399807585173" lon="-5.531124433670878"><ele>610.0</ele><time>2026-03-24T10:33:16.983Z</time></trkpt><trkpt lat="30.004365297218254" lon="-5.5309997110831635"><ele>610.25</ele><time>2026-03-24T10:33:17.983Z</time></trkpt><trkpt lat="30.00433286019989" lon="-5.5308836438972335"><ele>610.5</ele><time>2026-03-24T10:33:18.983Z</time></trkpt><trkpt lat="30.004371389265643" lon="-5.53076446183922"><ele>610.75</ele><time>2026-03-24T10:33:19.983Z</time></trkpt><trkpt lat="30.004419782717093" lon="-5.530644421968709"><ele>611.0</ele><time>2026-03-24T10:33:20.983Z</time></trkpt><trkpt lat="30.004505843456997" lon="-5.5305379815063365"><ele>611.0</ele><time>2026-03-24T10:33:21.983Z</time></trkpt><trkpt lat="30.00461620543564" lon="-5.530435644582522"><ele>611.0</ele><time>2026-03-24T10:33:22.983Z</time></trkpt><trkpt lat="30.004717611069175" lon="-5.530332939931118"><ele>611.0</ele><time>2026-03-24T10:33:23.983Z</time></trkpt><trkpt lat="30.004795552720093" lon="-5.5302117551409555"><ele>611.0</ele><time>2026-03-24T10:33:24.983Z</time></trkpt><trkpt lat="30.004866241235362" lon="-5.530097670781587"><ele>611.25</ele><time>2026-03-24T10:33:25.983Z</time></trkpt><trkpt lat="30.004933360205335" lon="-5.529983851018264"><ele>611.5</ele><time>2026-03-24T10:33:26.983Z</time></trkpt><trkpt lat="30.005009360455528" lon="-5.529877269221297"><ele>611.75</ele><time>2026-03-24T10:33:27.983Z</time></trkpt><trkpt lat="30.005087146257615" lon="-5.529769430353407"><ele>612.0</ele><time>2026-03-24T10:33:28.983Z</time></trkpt><trkpt lat="30.00516471864101" lon="-5.5296545770919705"><ele>611.75</ele><time>2026-03-24T10:33:29.983Z</time></trkpt><trkpt lat="30.00524479828059" lon="-5.529537541698139"><ele>611.5</ele><time>2026-03-24T10:33:30.983Z</time></trkpt><trkpt lat="30.00532332659393" lon="-5.529419404642727"><ele>611.25</ele><time>2026-03-24T10:33:31.983Z</time></trkpt><trkpt lat="30.00540420423901" lon="-5.529296365094176"><ele>611.0</ele><time>2026-03-24T10:33:32.983Z</time></trkpt><trkpt lat="30.005482459925734" lon="-5.52916864181766"><ele>611.0</ele><time>2026-03-24T10:33:33.983Z</time></trkpt><trkpt lat="30.005554490124467" lon="-5.529040010281562"><ele>611.0</ele><time>2026-03-24T10:33:34.983Z</time></trkpt><trkpt lat="30.005631354888035" lon="-5.528915079550051"><ele>611.0</ele><time>2026-03-24T10:33:35.983Z</time></trkpt><trkpt lat="30.005728345979232" lon="-5.52879756549698"><ele>611.0</ele><time>2026-03-24T10:33:36.983Z</time></trkpt><trkpt lat="30.005841225254034" lon="-5.528687334724153"><ele>611.75</ele><time>2026-03-24T10:33:37.983Z</time></trkpt><trkpt lat="30.005940851056472" lon="-5.52859201226669"><ele>612.5</ele><time>2026-03-24T10:33:38.983Z</time></trkpt><trkpt lat="30.006035045024664" lon="-5.528490796305515"><ele>613.25</ele><time>2026-03-24T10:33:39.983Z</time></trkpt><trkpt lat="30.006119696790837" lon="-5.528385699537258"><ele>614.0</ele><time>2026-03-24T10:33:40.983Z</time></trkpt><trkpt lat="30.00620394142807" lon="-5.528273923160118"><ele>614.0</ele><time>2026-03-24T10:33:41.983Z</time></trkpt><trkpt lat="30.006291792684433" lon="-5.528168649616991"><ele>614.0</ele><time>2026-03-24T10:33:42.983Z</time></trkpt><trkpt lat="30.006376300504634" lon="-5.5280730706923"><ele>614.0</ele><time>2026-03-24T10:33:43.983Z</time></trkpt><trkpt lat="30.006475219906182" lon="-5.527977751432469"><ele>614.0</ele><time>2026-03-24T10:33:44.983Z</time></trkpt><trkpt lat="30.006573619283916" lon="-5.527877276846066"><ele>614.25</ele><time>2026-03-24T10:33:45.983Z</time></trkpt><trkpt lat="30.006681228307013" lon="-5.527777927583496"><ele>614.5</ele><time>2026-03-24T10:33:46.983Z</time></trkpt><trkpt lat="30.006781248585792" lon="-5.527678727794475"><ele>614.75</ele><time>2026-03-24T10:33:47.983Z</time></trkpt><trkpt lat="30.006855940140824" lon="-5.527570503492231"><ele>615.0</ele><time>2026-03-24T10:33:48.983Z</time></trkpt><trkpt lat="30.006935840579214" lon="-5.527470328343437"><ele>615.0</ele><time>2026-03-24T10:33:49.983Z</time></trkpt><trkpt lat="30.00701717978979" lon="-5.527361684572011"><ele>615.0</ele><time>2026-03-24T10:33:50.983Z</time></trkpt><trkpt lat="30.00710327104164" lon="-5.527247679480739"><ele>615.0</ele><time>2026-03-24T10:33:51.983Z</time></trkpt><trkpt lat="30.00718917672559" lon="-5.527142504786858"><ele>615.0</ele><time>2026-03-24T10:33:52.983Z</time></trkpt><trkpt lat="30.00726811714441" lon="-5.527045698975506"><ele>615.0</ele><time>2026-03-24T10:33:53.983Z</time></trkpt><trkpt lat="30.00734367402232" lon="-5.526948169291511"><ele>615.0</ele><time>2026-03-24T10:33:54.983Z</time></trkpt><trkpt lat="30.00741839823118" lon="-5.526851983879557"><ele>615.0</ele><time>2026-03-24T10:33:55.983Z</time></trkpt><trkpt lat="30.00749224706555" lon="-5.5267574856285355"><ele>615.0</ele><time>2026-03-24T10:33:56.983Z</time></trkpt><trkpt lat="30.007567894133352" lon="-5.526656919514645"><ele>615.0</ele><time>2026-03-24T10:33:57.983Z</time></trkpt><trkpt lat="30.00765070571422" lon="-5.526557137228789"><ele>615.0</ele><time>2026-03-24T10:33:58.983Z</time></trkpt><trkpt lat="30.007729062655056" lon="-5.526456462089473"><ele>615.0</ele><time>2026-03-24T10:33:59.983Z</time></trkpt><trkpt lat="30.007804563315887" lon="-5.526352448246699"><ele>615.0</ele><time>2026-03-24T10:34:00.983Z</time></trkpt><trkpt lat="30.00786628701055" lon="-5.526244574711445"><ele>615.25</ele><time>2026-03-24T10:34:01.983Z</time></trkpt><trkpt lat="30.00792083367468" lon="-5.526124405522572"><ele>615.5</ele><time>2026-03-24T10:34:02.983Z</time></trkpt><trkpt lat="30.00795939780799" lon="-5.525995441072133"><ele>615.75</ele><time>2026-03-24T10:34:03.983Z</time></trkpt><trkpt lat="30.00799255945377" lon="-5.525854836931092"><ele>616.0</ele><time>2026-03-24T10:34:04.983Z</time></trkpt><trkpt lat="30.008029344878754" lon="-5.525699560184235"><ele>616.0</ele><time>2026-03-24T10:34:05.982Z</time></trkpt><trkpt lat="30.008096828688256" lon="-5.525553353458615"><ele>616.0</ele><time>2026-03-24T10:34:06.983Z</time></trkpt><trkpt lat="30.0081887072374" lon="-5.525446935522527"><ele>616.0</ele><time>2026-03-24T10:34:07.983Z</time></trkpt><trkpt lat="30.008296507541136" lon="-5.525383150809203"><ele>616.0</ele><time>2026-03-24T10:34:08.983Z</time></trkpt><trkpt lat="30.008413988318896" lon="-5.525342107282853"><ele>615.25</ele><time>2026-03-24T10:34:09.983Z</time></trkpt><trkpt lat="30.008520979988415" lon="-5.5252948135058455"><ele>614.5</ele><time>2026-03-24T10:34:10.983Z</time></trkpt><trkpt lat="30.0086116818493" lon="-5.525218552610997"><ele>613.75</ele><time>2026-03-24T10:34:11.983Z</time></trkpt><trkpt lat="30.008705478315093" lon="-5.525138627753739"><ele>613.0</ele><time>2026-03-24T10:34:12.983Z</time></trkpt><trkpt lat="30.008808859052944" lon="-5.525063333867591"><ele>613.0</ele><time>2026-03-24T10:34:13.983Z</time></trkpt><trkpt lat="30.008886211928147" lon="-5.524955201915682"><ele>613.0</ele><time>2026-03-24T10:34:14.983Z</time></trkpt><trkpt lat="30.00897040679963" lon="-5.52485405876163"><ele>613.0</ele><time>2026-03-24T10:34:15.983Z</time></trkpt><trkpt lat="30.009055378677708" lon="-5.524750951464358"><ele>613.0</ele><time>2026-03-24T10:34:16.983Z</time></trkpt><trkpt lat="30.00914557626375" lon="-5.524650333308784"><ele>613.0</ele><time>2026-03-24T10:34:17.983Z</time></trkpt><trkpt lat="30.00923008849941" lon="-5.524554408395332"><ele>613.0</ele><time>2026-03-24T10:34:18.983Z</time></trkpt><trkpt lat="30.0093030522087" lon="-5.524465486659891"><ele>613.0</ele><time>2026-03-24T10:34:19.983Z</time></trkpt><trkpt lat="30.00935995012564" lon="-5.524368788784603"><ele>613.0</ele><time>2026-03-24T10:34:20.983Z</time></trkpt><trkpt lat="30.009404403863076" lon="-5.524269028795733"><ele>613.0</ele><time>2026-03-24T10:34:21.983Z</time></trkpt><trkpt lat="30.009443840913637" lon="-5.524170139802386"><ele>613.0</ele><time>2026-03-24T10:34:22.983Z</time></trkpt><trkpt lat="30.00949802962463" lon="-5.524077637396766"><ele>613.0</ele><time>2026-03-24T10:34:23.983Z</time></trkpt><trkpt lat="30.009564476478594" lon="-5.523993907706996"><ele>613.0</ele><time>2026-03-24T10:34:24.983Z</time></trkpt><trkpt lat="30.00963702744313" lon="-5.523920307508876"><ele>613.0</ele><time>2026-03-24T10:34:25.983Z</time></trkpt><trkpt lat="30.009728981573165" lon="-5.523866102525624"><ele>613.0</ele><time>2026-03-24T10:34:26.983Z</time></trkpt><trkpt lat="30.0098402790626" lon="-5.52383474935216"><ele>613.0</ele><time>2026-03-24T10:34:27.983Z</time></trkpt><trkpt lat="30.00996629136262" lon="-5.523803326891864"><ele>613.0</ele><time>2026-03-24T10:34:28.983Z</time></trkpt><trkpt lat="30.010101348352485" lon="-5.523755353294904"><ele>613.0</ele><time>2026-03-24T10:34:29.983Z</time></trkpt><trkpt lat="30.01023151655" lon="-5.523693905089524"><ele>613.0</ele><time>2026-03-24T10:34:30.983Z</time></trkpt><trkpt lat="30.010337534894035" lon="-5.523595686913318"><ele>613.0</ele><time>2026-03-24T10:34:31.983Z</time></trkpt><trkpt lat="30.010441561937036" lon="-5.5235020385430476"><ele>613.0</ele><time>2026-03-24T10:34:32.983Z</time></trkpt><trkpt lat="30.010539790448878" lon="-5.523404685303638"><ele>613.0</ele><time>2026-03-24T10:34:33.983Z</time></trkpt><trkpt lat="30.010639862745066" lon="-5.5233134009221585"><ele>613.0</ele><time>2026-03-24T10:34:34.983Z</time></trkpt><trkpt lat="30.01073177342641" lon="-5.523205489995585"><ele>613.0</ele><time>2026-03-24T10:34:35.983Z</time></trkpt><trkpt lat="30.01082309408187" lon="-5.5231187955109515"><ele>613.0</ele><time>2026-03-24T10:34:36.983Z</time></trkpt><trkpt lat="30.010923180531716" lon="-5.523051308788268"><ele>613.0</ele><time>2026-03-24T10:34:37.983Z</time></trkpt><trkpt lat="30.011009190674415" lon="-5.522966059473109"><ele>613.0</ele><time>2026-03-24T10:34:38.983Z</time></trkpt><trkpt lat="30.011103222606543" lon="-5.522873111671259"><ele>612.75</ele><time>2026-03-24T10:34:39.983Z</time></trkpt><trkpt lat="30.011182124117195" lon="-5.5227805075267185"><ele>612.5</ele><time>2026-03-24T10:34:40.983Z</time></trkpt><trkpt lat="30.01126510044562" lon="-5.5226830867621075"><ele>612.25</ele><time>2026-03-24T10:34:41.982Z</time></trkpt><trkpt lat="30.011354090131604" lon="-5.522595852503848"><ele>612.0</ele><time>2026-03-24T10:34:42.982Z</time></trkpt><trkpt lat="30.01141354701146" lon="-5.522491769960303"><ele>612.0</ele><time>2026-03-24T10:34:43.982Z</time></trkpt><trkpt lat="30.01148257434876" lon="-5.522401937129554"><ele>612.0</ele><time>2026-03-24T10:34:44.981Z</time></trkpt><trkpt lat="30.011571749995607" lon="-5.522318483202761"><ele>612.0</ele><time>2026-03-24T10:34:45.981Z</time></trkpt><trkpt lat="30.011690755825413" lon="-5.522235244718875"><ele>612.0</ele><time>2026-03-24T10:34:46.981Z</time></trkpt><trkpt lat="30.011806526732897" lon="-5.5221678774455905"><ele>612.0</ele><time>2026-03-24T10:34:47.98Z</time></trkpt><trkpt lat="30.011859121227925" lon="-5.522060043700597"><ele>612.0</ele><time>2026-03-24T10:34:48.98Z</time></trkpt><trkpt lat="30.011903150506566" lon="-5.521944361614759"><ele>612.0</ele><time>2026-03-24T10:34:49.98Z</time></trkpt><trkpt lat="30.011942862266135" lon="-5.5217982680417625"><ele>612.0</ele><time>2026-03-24T10:34:50.98Z</time></trkpt><trkpt lat="30.011963458533486" lon="-5.521650637735131"><ele>612.0</ele><time>2026-03-24T10:34:51.979Z</time></trkpt><trkpt lat="30.01195099172813" lon="-5.521532033572801"><ele>612.0</ele><time>2026-03-24T10:34:52.979Z</time></trkpt><trkpt lat="30.011923353869122" lon="-5.521424317427165"><ele>612.0</ele><time>2026-03-24T10:34:53.979Z</time></trkpt><trkpt lat="30.01188500944381" lon="-5.52132391520522"><ele>612.0</ele><time>2026-03-24T10:34:54.979Z</time></trkpt><trkpt lat="30.011838714504396" lon="-5.521194637041792"><ele>612.0</ele><time>2026-03-24T10:34:55.979Z</time></trkpt><trkpt lat="30.011792369265912" lon="-5.521050576385186"><ele>612.0</ele><time>2026-03-24T10:34:56.978Z</time></trkpt><trkpt lat="30.011758649388337" lon="-5.520903411960318"><ele>612.0</ele><time>2026-03-24T10:34:57.978Z</time></trkpt><trkpt lat="30.011716983128103" lon="-5.52075182199231"><ele>612.0</ele><time>2026-03-24T10:34:58.978Z</time></trkpt><trkpt lat="30.01168847514433" lon="-5.520602363172313"><ele>612.0</ele><time>2026-03-24T10:34:59.978Z</time></trkpt><trkpt lat="30.011656386126152" lon="-5.520442050938458"><ele>611.75</ele><time>2026-03-24T10:35:00.978Z</time></trkpt><trkpt lat="30.01161796669477" lon="-5.520302586581463"><ele>611.5</ele><time>2026-03-24T10:35:01.978Z</time></trkpt><trkpt lat="30.011568753236563" lon="-5.520160959393216"><ele>611.25</ele><time>2026-03-24T10:35:02.978Z</time></trkpt><trkpt lat="30.011521806759024" lon="-5.520021414140314"><ele>611.0</ele><time>2026-03-24T10:35:03.978Z</time></trkpt><trkpt lat="30.011461832303812" lon="-5.519882907390783"><ele>611.0</ele><time>2026-03-24T10:35:04.977Z</time></trkpt><trkpt lat="30.011415333278787" lon="-5.519733521215852"><ele>611.0</ele><time>2026-03-24T10:35:05.977Z</time></trkpt><trkpt lat="30.01136209643669" lon="-5.5195931790342945"><ele>611.0</ele><time>2026-03-24T10:35:06.977Z</time></trkpt><trkpt lat="30.011317252957237" lon="-5.5194510118289335"><ele>611.0</ele><time>2026-03-24T10:35:07.977Z</time></trkpt><trkpt lat="30.01127964015716" lon="-5.519306267815379"><ele>610.75</ele><time>2026-03-24T10:35:08.977Z</time></trkpt><trkpt lat="30.011256243839426" lon="-5.519158988340506"><ele>610.5</ele><time>2026-03-24T10:35:09.977Z</time></trkpt><trkpt lat="30.01124730698313" lon="-5.51901900556831"><ele>610.25</ele><time>2026-03-24T10:35:10.977Z</time></trkpt><trkpt lat="30.01124796322023" lon="-5.518871207160243"><ele>610.0</ele><time>2026-03-24T10:35:11.977Z</time></trkpt><trkpt lat="30.01124524093173" lon="-5.518717737671625"><ele>609.75</ele><time>2026-03-24T10:35:12.977Z</time></trkpt><trkpt lat="30.01123527836914" lon="-5.51854981026909"><ele>609.5</ele><time>2026-03-24T10:35:13.977Z</time></trkpt><trkpt lat="30.01122556322211" lon="-5.5183859330436675"><ele>609.25</ele><time>2026-03-24T10:35:14.977Z</time></trkpt><trkpt lat="30.01121479330454" lon="-5.5182335465338435"><ele>609.0</ele><time>2026-03-24T10:35:15.977Z</time></trkpt><trkpt lat="30.011198789555678" lon="-5.5180930454894"><ele>609.0</ele><time>2026-03-24T10:35:16.977Z</time></trkpt><trkpt lat="30.01117446963278" lon="-5.5179452462407195"><ele>609.0</ele><time>2026-03-24T10:35:17.977Z</time></trkpt><trkpt lat="30.01114500551944" lon="-5.517787728371934"><ele>609.0</ele><time>2026-03-24T10:35:18.977Z</time></trkpt><trkpt lat="30.011106097354" lon="-5.517626877608476"><ele>609.0</ele><time>2026-03-24T10:35:19.977Z</time></trkpt><trkpt lat="30.011046579349383" lon="-5.517475036517349"><ele>609.0</ele><time>2026-03-24T10:35:20.977Z</time></trkpt><trkpt lat="30.01097689468901" lon="-5.517326773404353"><ele>609.0</ele><time>2026-03-24T10:35:21.976Z</time></trkpt><trkpt lat="30.010915336135632" lon="-5.517167156993718"><ele>609.0</ele><time>2026-03-24T10:35:22.976Z</time></trkpt><trkpt lat="30.01086167113112" lon="-5.517012273531886"><ele>609.0</ele><time>2026-03-24T10:35:23.976Z</time></trkpt><trkpt lat="30.01080991617028" lon="-5.51685038385372"><ele>609.6666666666666</ele><time>2026-03-24T10:35:24.976Z</time></trkpt><trkpt lat="30.01075522245098" lon="-5.516682169040254"><ele>610.3333333333333</ele><time>2026-03-24T10:35:25.976Z</time></trkpt><trkpt lat="30.010687759252818" lon="-5.516519858117892"><ele>611.0</ele><time>2026-03-24T10:35:26.976Z</time></trkpt><trkpt lat="30.010619452606985" lon="-5.516363725753635"><ele>610.5</ele><time>2026-03-24T10:35:27.976Z</time></trkpt><trkpt lat="30.010560598330404" lon="-5.516219770371052"><ele>610.0</ele><time>2026-03-24T10:35:28.976Z</time></trkpt><trkpt lat="30.01050094197374" lon="-5.5160930134938"><ele>609.5</ele><time>2026-03-24T10:35:29.976Z</time></trkpt><trkpt lat="30.010440561418722" lon="-5.515976685658713"><ele>609.0</ele><time>2026-03-24T10:35:30.976Z</time></trkpt><trkpt lat="30.010386529050045" lon="-5.515846161842489"><ele>609.0</ele><time>2026-03-24T10:35:31.976Z</time></trkpt><trkpt lat="30.01034462456877" lon="-5.515728063269298"><ele>609.0</ele><time>2026-03-24T10:35:32.976Z</time></trkpt><trkpt lat="30.010290794577013" lon="-5.515613341722086"><ele>609.0</ele><time>2026-03-24T10:35:33.976Z</time></trkpt><trkpt lat="30.010269885545515" lon="-5.51550647863608"><ele>609.0</ele><time>2026-03-24T10:35:34.976Z</time></trkpt><trkpt lat="30.010276575934263" lon="-5.5154149984560075"><ele>609.0</ele><time>2026-03-24T10:35:35.976Z</time></trkpt><trkpt lat="30.010302473781724" lon="-5.515330095422386"><ele>608.8571428571429</ele><time>2026-03-24T10:35:36.976Z</time></trkpt><trkpt lat="30.01033511234462" lon="-5.515250365344355"><ele>608.7142857142858</ele><time>2026-03-24T10:35:37.976Z</time></trkpt><trkpt lat="30.01037044043639" lon="-5.515169988587864"><ele>608.5714285714286</ele><time>2026-03-24T10:35:38.976Z</time></trkpt><trkpt lat="30.010391214377556" lon="-5.515086526582342"><ele>608.4285714285714</ele><time>2026-03-24T10:35:39.976Z</time></trkpt><trkpt lat="30.010388014410545" lon="-5.515007619830384"><ele>608.2857142857143</ele><time>2026-03-24T10:35:40.976Z</time></trkpt><trkpt lat="30.010357894364677" lon="-5.51493528712584"><ele>608.1428571428571</ele><time>2026-03-24T10:35:41.976Z</time></trkpt><trkpt lat="30.010313049131245" lon="-5.5148719488225035"><ele>608.0</ele><time>2026-03-24T10:35:42.976Z</time></trkpt><trkpt lat="30.010267123348065" lon="-5.514816816506993"><ele>608.0</ele><time>2026-03-24T10:35:43.976Z</time></trkpt><trkpt lat="30.01018919855671" lon="-5.514735562462933"><ele>608.0</ele><time>2026-03-24T10:35:45.976Z</time></trkpt><trkpt lat="30.010141802767848" lon="-5.514668025763732"><ele>608.0</ele><time>2026-03-24T10:35:47.976Z</time></trkpt><trkpt lat="30.010103977856012" lon="-5.514554253420347"><ele>608.0</ele><time>2026-03-24T10:35:49.976Z</time></trkpt><trkpt lat="30.010014844443948" lon="-5.51442827950548"><ele>608.0</ele><time>2026-03-24T10:35:51.976Z</time></trkpt><trkpt lat="30.00997922329174" lon="-5.514319034010451"><ele>607.8333333333333</ele><time>2026-03-24T10:35:53.976Z</time></trkpt><trkpt lat="30.009977003383927" lon="-5.514210339945352"><ele>607.6666666666666</ele><time>2026-03-24T10:35:55.976Z</time></trkpt><trkpt lat="30.009988729059188" lon="-5.514118771005399"><ele>607.5</ele><time>2026-03-24T10:35:56.976Z</time></trkpt><trkpt lat="30.009994765395987" lon="-5.5140327634877595"><ele>607.3333333333334</ele><time>2026-03-24T10:35:57.976Z</time></trkpt><trkpt lat="30.01000695042997" lon="-5.513930470292258"><ele>607.1666666666667</ele><time>2026-03-24T10:35:58.976Z</time></trkpt><trkpt lat="30.010016196109863" lon="-5.513839280138363"><ele>607.0</ele><time>2026-03-24T10:35:59.975Z</time></trkpt><trkpt lat="30.010027318473472" lon="-5.51372762990886"><ele>607.0</ele><time>2026-03-24T10:36:00.976Z</time></trkpt><trkpt lat="30.010035663370513" lon="-5.513627407426644"><ele>607.0</ele><time>2026-03-24T10:36:01.976Z</time></trkpt><trkpt lat="30.010045679264476" lon="-5.513531133808302"><ele>607.0</ele><time>2026-03-24T10:36:02.975Z</time></trkpt><trkpt lat="30.010056534493902" lon="-5.513435670721767"><ele>607.0</ele><time>2026-03-24T10:36:03.975Z</time></trkpt><trkpt lat="30.010071018599188" lon="-5.513334898527075"><ele>607.0</ele><time>2026-03-24T10:36:04.975Z</time></trkpt><trkpt lat="30.01009101784134" lon="-5.513238754541577"><ele>607.0</ele><time>2026-03-24T10:36:05.976Z</time></trkpt><trkpt lat="30.01011907376753" lon="-5.513146626321936"><ele>607.0</ele><time>2026-03-24T10:36:06.975Z</time></trkpt><trkpt lat="30.01016365779758" lon="-5.513052422033308"><ele>607.0</ele><time>2026-03-24T10:36:07.975Z</time></trkpt><trkpt lat="30.010228374780006" lon="-5.512961640693455"><ele>607.0</ele><time>2026-03-24T10:36:08.976Z</time></trkpt><trkpt lat="30.010308103733923" lon="-5.5128821211902626"><ele>607.0</ele><time>2026-03-24T10:36:09.976Z</time></trkpt><trkpt lat="30.010403841968014" lon="-5.512823619368276"><ele>607.0</ele><time>2026-03-24T10:36:10.976Z</time></trkpt><trkpt lat="30.010507338343352" lon="-5.51277849343187"><ele>608.2</ele><time>2026-03-24T10:36:11.975Z</time></trkpt><trkpt lat="30.010592511133932" lon="-5.512731918775984"><ele>609.4000000000001</ele><time>2026-03-24T10:36:12.976Z</time></trkpt><trkpt lat="30.010660012140697" lon="-5.512671471017101"><ele>610.5999999999999</ele><time>2026-03-24T10:36:13.976Z</time></trkpt><trkpt lat="30.010714646686118" lon="-5.512593653408822"><ele>611.8</ele><time>2026-03-24T10:36:14.976Z</time></trkpt><trkpt lat="30.010754911982247" lon="-5.512496227762859"><ele>613.0</ele><time>2026-03-24T10:36:15.976Z</time></trkpt><trkpt lat="30.010795391291" lon="-5.512399396157482"><ele>613.0</ele><time>2026-03-24T10:36:16.976Z</time></trkpt><trkpt lat="30.010849554287873" lon="-5.512327692647092"><ele>613.0</ele><time>2026-03-24T10:36:17.976Z</time></trkpt><trkpt lat="30.010929985545364" lon="-5.512293119728162"><ele>613.0</ele><time>2026-03-24T10:36:18.976Z</time></trkpt><trkpt lat="30.01102311060248" lon="-5.512286027845542"><ele>613.0</ele><time>2026-03-24T10:36:19.976Z</time></trkpt><trkpt lat="30.011123895054013" lon="-5.512294429991202"><ele>613.0</ele><time>2026-03-24T10:36:20.976Z</time></trkpt><trkpt lat="30.0112039468545" lon="-5.512317353727045"><ele>613.0</ele><time>2026-03-24T10:36:21.976Z</time></trkpt><trkpt lat="30.011267795897666" lon="-5.512332157331028"><ele>613.0</ele><time>2026-03-24T10:36:22.976Z</time></trkpt><trkpt lat="30.011352195289472" lon="-5.512331820529775"><ele>613.0</ele><time>2026-03-24T10:36:24.976Z</time></trkpt><trkpt lat="30.011416205429768" lon="-5.5123357689594625"><ele>613.0</ele><time>2026-03-24T10:37:22.976Z</time></trkpt><trkpt lat="30.011543349931582" lon="-5.512386571803504"><ele>613.0</ele><time>2026-03-24T10:37:24.976Z</time></trkpt><trkpt lat="30.011634689130027" lon="-5.512412699157833"><ele>613.0</ele><time>2026-03-24T10:37:25.976Z</time></trkpt><trkpt lat="30.011742228812572" lon="-5.512411282836564"><ele>613.25</ele><time>2026-03-24T10:37:26.976Z</time></trkpt><trkpt lat="30.011852321472958" lon="-5.512424299742214"><ele>613.5</ele><time>2026-03-24T10:37:27.976Z</time></trkpt><trkpt lat="30.011989677474432" lon="-5.512440718749286"><ele>613.75</ele><time>2026-03-24T10:37:28.976Z</time></trkpt><trkpt lat="30.012140832485525" lon="-5.512464646075571"><ele>614.0</ele><time>2026-03-24T10:37:29.976Z</time></trkpt><trkpt lat="30.012323575207883" lon="-5.512519120771212"><ele>614.6666666666666</ele><time>2026-03-24T10:37:30.976Z</time></trkpt><trkpt lat="30.01252044760721" lon="-5.512556254782666"><ele>615.3333333333334</ele><time>2026-03-24T10:37:31.976Z</time></trkpt><trkpt lat="30.012687231782067" lon="-5.512602313148586"><ele>616.0</ele><time>2026-03-24T10:37:32.976Z</time></trkpt><trkpt lat="30.012837357567683" lon="-5.512636330475105"><ele>616.0</ele><time>2026-03-24T10:37:33.976Z</time></trkpt><trkpt lat="30.012974040430667" lon="-5.512673532976834"><ele>616.0</ele><time>2026-03-24T10:37:34.976Z</time></trkpt><trkpt lat="30.01310674651514" lon="-5.512691171283178"><ele>616.0</ele><time>2026-03-24T10:37:35.976Z</time></trkpt><trkpt lat="30.013250445109968" lon="-5.51272467339252"><ele>616.0</ele><time>2026-03-24T10:37:36.976Z</time></trkpt><trkpt lat="30.013387340668288" lon="-5.512756101958232"><ele>615.5</ele><time>2026-03-24T10:37:37.976Z</time></trkpt><trkpt lat="30.01350857641785" lon="-5.5127757089144405"><ele>615.0</ele><time>2026-03-24T10:37:38.976Z</time></trkpt><trkpt lat="30.013624928655393" lon="-5.512791650538211"><ele>614.5</ele><time>2026-03-24T10:37:39.976Z</time></trkpt><trkpt lat="30.013733434015247" lon="-5.512806289233547"><ele>614.0</ele><time>2026-03-24T10:37:40.976Z</time></trkpt><trkpt lat="30.013847982320083" lon="-5.512840648215446"><ele>614.0</ele><time>2026-03-24T10:37:41.976Z</time></trkpt><trkpt lat="30.01397383188043" lon="-5.5128462514433405"><ele>614.0</ele><time>2026-03-24T10:37:42.976Z</time></trkpt><trkpt lat="30.01411896305542" lon="-5.512844595182497"><ele>614.0</ele><time>2026-03-24T10:37:43.976Z</time></trkpt><trkpt lat="30.014272089383308" lon="-5.512846165087295"><ele>614.0</ele><time>2026-03-24T10:37:44.976Z</time></trkpt><trkpt lat="30.014418627021303" lon="-5.512854705216217"><ele>614.5</ele><time>2026-03-24T10:37:45.976Z</time></trkpt><trkpt lat="30.0145794285873" lon="-5.51287203799959"><ele>615.0</ele><time>2026-03-24T10:37:46.976Z</time></trkpt><trkpt lat="30.01472198684675" lon="-5.512894537471232"><ele>615.5</ele><time>2026-03-24T10:37:47.976Z</time></trkpt><trkpt lat="30.01485540216108" lon="-5.512913172277197"><ele>616.0</ele><time>2026-03-24T10:37:48.976Z</time></trkpt><trkpt lat="30.01496991510802" lon="-5.512910900438712"><ele>616.0</ele><time>2026-03-24T10:37:49.976Z</time></trkpt><trkpt lat="30.015083097950036" lon="-5.512911695218645"><ele>616.0</ele><time>2026-03-24T10:37:50.976Z</time></trkpt><trkpt lat="30.015162778631286" lon="-5.512886806767164"><ele>616.0</ele><time>2026-03-24T10:37:51.976Z</time></trkpt><trkpt lat="30.015231033500484" lon="-5.512896405784312"><ele>616.0</ele><time>2026-03-24T10:37:52.976Z</time></trkpt><trkpt lat="30.015269969107823" lon="-5.5127329548995"><ele>616.0</ele><time>2026-03-24T10:37:53.976Z</time></trkpt><trkpt lat="30.015303221952884" lon="-5.512620315701249"><ele>616.2</ele><time>2026-03-24T10:37:54.976Z</time></trkpt><trkpt lat="30.015350298913948" lon="-5.5125320976915795"><ele>616.4000000000001</ele><time>2026-03-24T10:37:55.976Z</time></trkpt><trkpt lat="30.015439623481896" lon="-5.512470859791256"><ele>616.6</ele><time>2026-03-24T10:37:56.976Z</time></trkpt><trkpt lat="30.015541507339638" lon="-5.512470634179367"><ele>616.8000000000001</ele><time>2026-03-24T10:37:57.976Z</time></trkpt><trkpt lat="30.015656276596793" lon="-5.512510705439831"><ele>617.0</ele><time>2026-03-24T10:37:58.976Z</time></trkpt><trkpt lat="30.015789913106055" lon="-5.512565293145571"><ele>617.6666666666666</ele><time>2026-03-24T10:37:59.976Z</time></trkpt><trkpt lat="30.015937801324103" lon="-5.512612535906348"><ele>618.3333333333334</ele><time>2026-03-24T10:38:00.976Z</time></trkpt><trkpt lat="30.01609905449496" lon="-5.512651576704887"><ele>619.0</ele><time>2026-03-24T10:38:01.976Z</time></trkpt><trkpt lat="30.016268386623366" lon="-5.512686573023418"><ele>619.0</ele><time>2026-03-24T10:38:02.976Z</time></trkpt><trkpt lat="30.0164566189807" lon="-5.512714328396812"><ele>619.0</ele><time>2026-03-24T10:38:03.976Z</time></trkpt><trkpt lat="30.016651318236597" lon="-5.512742801733955"><ele>619.0</ele><time>2026-03-24T10:38:04.976Z</time></trkpt><trkpt lat="30.016850209741815" lon="-5.512776447535463"><ele>619.0</ele><time>2026-03-24T10:38:05.976Z</time></trkpt><trkpt lat="30.017054751008647" lon="-5.5128275891463705"><ele>619.0</ele><time>2026-03-24T10:38:06.975Z</time></trkpt><trkpt lat="30.017253101700966" lon="-5.51287875227139"><ele>619.0</ele><time>2026-03-24T10:38:07.975Z</time></trkpt><trkpt lat="30.017451288873268" lon="-5.5129325990212905"><ele>618.6666666666667</ele><time>2026-03-24T10:38:08.976Z</time></trkpt><trkpt lat="30.01765003737782" lon="-5.512975077577492"><ele>618.3333333333334</ele><time>2026-03-24T10:38:09.975Z</time></trkpt><trkpt lat="30.01784646290664" lon="-5.513006461578302"><ele>618.0</ele><time>2026-03-24T10:38:10.975Z</time></trkpt><trkpt lat="30.01803089318211" lon="-5.513020068857542"><ele>618.0</ele><time>2026-03-24T10:38:11.976Z</time></trkpt><trkpt lat="30.01822123401212" lon="-5.5130125559935275"><ele>618.0</ele><time>2026-03-24T10:38:12.975Z</time></trkpt><trkpt lat="30.018413908749743" lon="-5.5129822536256965"><ele>618.0</ele><time>2026-03-24T10:38:13.975Z</time></trkpt><trkpt lat="30.0186077478853" lon="-5.512939413811925"><ele>618.0</ele><time>2026-03-24T10:38:14.975Z</time></trkpt><trkpt lat="30.018794410355913" lon="-5.512887453809078"><ele>618.0</ele><time>2026-03-24T10:38:15.975Z</time></trkpt><trkpt lat="30.018967525953084" lon="-5.512862350117113"><ele>618.0</ele><time>2026-03-24T10:38:16.975Z</time></trkpt><trkpt lat="30.019138151210786" lon="-5.5128952495563315"><ele>618.25</ele><time>2026-03-24T10:38:17.975Z</time></trkpt><trkpt lat="30.019293596113954" lon="-5.512914966416104"><ele>618.5</ele><time>2026-03-24T10:38:18.975Z</time></trkpt><trkpt lat="30.019438269126788" lon="-5.512929215385636"><ele>618.75</ele><time>2026-03-24T10:38:19.975Z</time></trkpt><trkpt lat="30.01957207970712" lon="-5.5129543875229485"><ele>619.0</ele><time>2026-03-24T10:38:20.975Z</time></trkpt><trkpt lat="30.019689411287057" lon="-5.512898342887003"><ele>619.0</ele><time>2026-03-24T10:38:21.975Z</time></trkpt><trkpt lat="30.019798550421555" lon="-5.5127540814990335"><ele>619.0</ele><time>2026-03-24T10:38:22.975Z</time></trkpt><trkpt lat="30.01993751005253" lon="-5.512745225434811"><ele>619.0</ele><time>2026-03-24T10:38:23.975Z</time></trkpt><trkpt lat="30.02009038709212" lon="-5.512761263537219"><ele>617.75</ele><time>2026-03-24T10:38:24.975Z</time></trkpt><trkpt lat="30.02024458242382" lon="-5.512774924468117"><ele>616.5</ele><time>2026-03-24T10:38:25.975Z</time></trkpt><trkpt lat="30.020398266895757" lon="-5.512788540159543"><ele>615.25</ele><time>2026-03-24T10:38:26.975Z</time></trkpt><trkpt lat="30.0205340490564" lon="-5.512800556949582"><ele>614.0</ele><time>2026-03-24T10:38:27.975Z</time></trkpt><trkpt lat="30.02065975462673" lon="-5.512811486333753"><ele>614.0</ele><time>2026-03-24T10:38:28.975Z</time></trkpt><trkpt lat="30.02077122507178" lon="-5.51282117806391"><ele>614.0</ele><time>2026-03-24T10:38:29.975Z</time></trkpt><trkpt lat="30.020889704978238" lon="-5.512831479161879"><ele>614.0</ele><time>2026-03-24T10:38:30.975Z</time></trkpt><trkpt lat="30.02099694663091" lon="-5.5128556234285755"><ele>614.0</ele><time>2026-03-24T10:38:31.975Z</time></trkpt><trkpt lat="30.0210937885655" lon="-5.512830635336258"><ele>614.0</ele><time>2026-03-24T10:38:32.975Z</time></trkpt><trkpt lat="30.02117747232102" lon="-5.512764828258179"><ele>614.5</ele><time>2026-03-24T10:38:33.975Z</time></trkpt><trkpt lat="30.021243587239177" lon="-5.512665239814037"><ele>615.0</ele><time>2026-03-24T10:38:34.975Z</time></trkpt><trkpt lat="30.021358364078054" lon="-5.5125966022042645"><ele>615.5</ele><time>2026-03-24T10:38:35.975Z</time></trkpt><trkpt lat="30.021493216401684" lon="-5.512598685791337"><ele>616.0</ele><time>2026-03-24T10:38:36.975Z</time></trkpt><trkpt lat="30.021639113505753" lon="-5.512650450872854"><ele>617.0</ele><time>2026-03-24T10:38:37.975Z</time></trkpt><trkpt lat="30.0217969346502" lon="-5.512680189447382"><ele>618.0</ele><time>2026-03-24T10:38:38.975Z</time></trkpt><trkpt lat="30.021939486755947" lon="-5.512699943715356"><ele>619.0</ele><time>2026-03-24T10:38:39.975Z</time></trkpt><trkpt lat="30.022080081857556" lon="-5.512717328417639"><ele>620.0</ele><time>2026-03-24T10:38:40.975Z</time></trkpt><trkpt lat="30.02221645697183" lon="-5.512736747175097"><ele>620.0</ele><time>2026-03-24T10:38:41.975Z</time></trkpt><trkpt lat="30.022345731534124" lon="-5.512754968804324"><ele>620.0</ele><time>2026-03-24T10:38:42.975Z</time></trkpt><trkpt lat="30.022463957110098" lon="-5.512774372153086"><ele>620.0</ele><time>2026-03-24T10:38:43.975Z</time></trkpt><trkpt lat="30.02256897348578" lon="-5.512803078507034"><ele>620.0</ele><time>2026-03-24T10:38:44.975Z</time></trkpt><trkpt lat="30.022685092231985" lon="-5.512818443569629"><ele>620.0</ele><time>2026-03-24T10:38:45.975Z</time></trkpt><trkpt lat="30.02275469275677" lon="-5.512886987326252"><ele>620.0</ele><time>2026-03-24T10:38:46.975Z</time></trkpt><trkpt lat="30.022754220284067" lon="-5.513043365240842"><ele>620.0</ele><time>2026-03-24T10:38:47.975Z</time></trkpt><trkpt lat="30.022756931207766" lon="-5.513146532010726"><ele>620.0</ele><time>2026-03-24T10:38:48.975Z</time></trkpt><trkpt lat="30.022792669735754" lon="-5.513226923423924"><ele>620.0</ele><time>2026-03-24T10:38:49.975Z</time></trkpt><trkpt lat="30.022839844444768" lon="-5.5132945781309255"><ele>620.0</ele><time>2026-03-24T10:38:50.975Z</time></trkpt><trkpt lat="30.022937992828695" lon="-5.513312018465888"><ele>620.0</ele><time>2026-03-24T10:38:51.975Z</time></trkpt><trkpt lat="30.02304284552663" lon="-5.513321525060858"><ele>620.0</ele><time>2026-03-24T10:38:52.975Z</time></trkpt><trkpt lat="30.023157037713247" lon="-5.513313832781754"><ele>620.0</ele><time>2026-03-24T10:38:53.975Z</time></trkpt><trkpt lat="30.02328094519778" lon="-5.51333921810905"><ele>620.0</ele><time>2026-03-24T10:38:54.975Z</time></trkpt><trkpt lat="30.023405265642264" lon="-5.513382458279177"><ele>620.25</ele><time>2026-03-24T10:38:55.975Z</time></trkpt><trkpt lat="30.023528550566926" lon="-5.513447073917258"><ele>620.5</ele><time>2026-03-24T10:38:56.975Z</time></trkpt><trkpt lat="30.02365614692594" lon="-5.513476683078618"><ele>620.75</ele><time>2026-03-24T10:38:57.975Z</time></trkpt><trkpt lat="30.023782348359873" lon="-5.5135132329644385"><ele>621.0</ele><time>2026-03-24T10:38:58.975Z</time></trkpt><trkpt lat="30.023907928699042" lon="-5.513549821625153"><ele>621.0</ele><time>2026-03-24T10:38:59.975Z</time></trkpt><trkpt lat="30.02403288638718" lon="-5.5135819765253995"><ele>621.0</ele><time>2026-03-24T10:39:00.975Z</time></trkpt><trkpt lat="30.024162971756823" lon="-5.513600549215132"><ele>621.0</ele><time>2026-03-24T10:39:01.975Z</time></trkpt><trkpt lat="30.02429778407558" lon="-5.5136017203981815"><ele>621.0</ele><time>2026-03-24T10:39:02.975Z</time></trkpt><trkpt lat="30.024434265494556" lon="-5.5136003506263265"><ele>621.0</ele><time>2026-03-24T10:39:03.975Z</time></trkpt><trkpt lat="30.024570633541654" lon="-5.513598028572227"><ele>621.0</ele><time>2026-03-24T10:39:04.975Z</time></trkpt><trkpt lat="30.024708679353452" lon="-5.513596361980852"><ele>621.0</ele><time>2026-03-24T10:39:05.975Z</time></trkpt><trkpt lat="30.02484612438471" lon="-5.513596349093073"><ele>621.0</ele><time>2026-03-24T10:39:06.975Z</time></trkpt><trkpt lat="30.024977898185575" lon="-5.513596419777567"><ele>620.75</ele><time>2026-03-24T10:39:07.975Z</time></trkpt><trkpt lat="30.025102068314364" lon="-5.513597906664338"><ele>620.5</ele><time>2026-03-24T10:39:08.975Z</time></trkpt><trkpt lat="30.025229657292787" lon="-5.513601305647738"><ele>620.25</ele><time>2026-03-24T10:39:09.975Z</time></trkpt><trkpt lat="30.02535824524373" lon="-5.513605346925855"><ele>620.0</ele><time>2026-03-24T10:39:10.975Z</time></trkpt><trkpt lat="30.02549339495156" lon="-5.513611709773729"><ele>620.0</ele><time>2026-03-24T10:39:11.975Z</time></trkpt><trkpt lat="30.025629618760206" lon="-5.513622228535019"><ele>620.0</ele><time>2026-03-24T10:39:12.975Z</time></trkpt><trkpt lat="30.025759797915768" lon="-5.5136332856766925"><ele>620.0</ele><time>2026-03-24T10:39:13.975Z</time></trkpt><trkpt lat="30.02588709880977" lon="-5.5136286989805"><ele>620.0</ele><time>2026-03-24T10:39:14.975Z</time></trkpt><trkpt lat="30.026007745991862" lon="-5.513643572449272"><ele>620.25</ele><time>2026-03-24T10:39:15.975Z</time></trkpt><trkpt lat="30.026127637594136" lon="-5.5136818628896895"><ele>620.5</ele><time>2026-03-24T10:39:16.975Z</time></trkpt><trkpt lat="30.026251068557684" lon="-5.513698673756695"><ele>620.75</ele><time>2026-03-24T10:39:17.975Z</time></trkpt><trkpt lat="30.0263736943971" lon="-5.513724255679992"><ele>621.0</ele><time>2026-03-24T10:39:18.975Z</time></trkpt><trkpt lat="30.02649105064758" lon="-5.513751904266508"><ele>621.0</ele><time>2026-03-24T10:39:19.975Z</time></trkpt><trkpt lat="30.026609007418436" lon="-5.513779326830557"><ele>621.0</ele><time>2026-03-24T10:39:20.975Z</time></trkpt><trkpt lat="30.026729387934882" lon="-5.513805605968038"><ele>621.0</ele><time>2026-03-24T10:39:21.975Z</time></trkpt><trkpt lat="30.026853318326815" lon="-5.513831181971776"><ele>621.0</ele><time>2026-03-24T10:39:22.975Z</time></trkpt><trkpt lat="30.026981336982686" lon="-5.513849195459572"><ele>621.0</ele><time>2026-03-24T10:39:23.975Z</time></trkpt><trkpt lat="30.027108950853478" lon="-5.51386536153031"><ele>621.0</ele><time>2026-03-24T10:39:24.975Z</time></trkpt><trkpt lat="30.027229436076915" lon="-5.513910762823356"><ele>621.0</ele><time>2026-03-24T10:39:25.975Z</time></trkpt><trkpt lat="30.027347580985992" lon="-5.513957977095398"><ele>621.0</ele><time>2026-03-24T10:39:26.975Z</time></trkpt><trkpt lat="30.027455406692564" lon="-5.514029131489273"><ele>621.5</ele><time>2026-03-24T10:39:27.975Z</time></trkpt><trkpt lat="30.027554043325953" lon="-5.514101118398461"><ele>622.0</ele><time>2026-03-24T10:39:28.975Z</time></trkpt><trkpt lat="30.027661797265445" lon="-5.514139064395768"><ele>622.5</ele><time>2026-03-24T10:39:29.975Z</time></trkpt><trkpt lat="30.02777602237118" lon="-5.514151734586631"><ele>623.0</ele><time>2026-03-24T10:39:30.975Z</time></trkpt><trkpt lat="30.02790193621909" lon="-5.514129064691727"><ele>623.0</ele><time>2026-03-24T10:39:31.975Z</time></trkpt><trkpt lat="30.028024380105897" lon="-5.514085889056789"><ele>623.0</ele><time>2026-03-24T10:39:32.975Z</time></trkpt><trkpt lat="30.028142541067513" lon="-5.514012076205694"><ele>623.0</ele><time>2026-03-24T10:39:33.975Z</time></trkpt><trkpt lat="30.02828188437775" lon="-5.513972147829724"><ele>623.0</ele><time>2026-03-24T10:39:34.975Z</time></trkpt><trkpt lat="30.028417959654874" lon="-5.513922341861033"><ele>623.25</ele><time>2026-03-24T10:39:35.975Z</time></trkpt><trkpt lat="30.028545378528907" lon="-5.513889138422784"><ele>623.5</ele><time>2026-03-24T10:39:36.975Z</time></trkpt><trkpt lat="30.028665047061946" lon="-5.513859336860066"><ele>623.75</ele><time>2026-03-24T10:39:37.975Z</time></trkpt><trkpt lat="30.02877995888412" lon="-5.513823085348971"><ele>624.0</ele><time>2026-03-24T10:39:38.975Z</time></trkpt><trkpt lat="30.02889240856016" lon="-5.513783640141699"><ele>624.0</ele><time>2026-03-24T10:39:39.975Z</time></trkpt><trkpt lat="30.029001511624422" lon="-5.513743511924338"><ele>624.0</ele><time>2026-03-24T10:39:40.975Z</time></trkpt><trkpt lat="30.029108763354795" lon="-5.513701738450122"><ele>624.0</ele><time>2026-03-24T10:39:41.975Z</time></trkpt><trkpt lat="30.02920715127493" lon="-5.513662324470104"><ele>624.0</ele><time>2026-03-24T10:39:42.975Z</time></trkpt><trkpt lat="30.029313897509876" lon="-5.513620584257603"><ele>624.0</ele><time>2026-03-24T10:39:43.975Z</time></trkpt><trkpt lat="30.029414554787678" lon="-5.513579811202074"><ele>623.8</ele><time>2026-03-24T10:39:44.975Z</time></trkpt><trkpt lat="30.029503689381674" lon="-5.513546010865582"><ele>623.5999999999999</ele><time>2026-03-24T10:39:45.975Z</time></trkpt><trkpt lat="30.02959067882004" lon="-5.513516942031735"><ele>623.4</ele><time>2026-03-24T10:39:46.975Z</time></trkpt><trkpt lat="30.029685087943403" lon="-5.513481419801198"><ele>623.1999999999999</ele><time>2026-03-24T10:39:47.975Z</time></trkpt><trkpt lat="30.02976962479927" lon="-5.513443996233937"><ele>623.0</ele><time>2026-03-24T10:39:48.975Z</time></trkpt><trkpt lat="30.02984835403078" lon="-5.513405433482316"><ele>623.0</ele><time>2026-03-24T10:39:49.975Z</time></trkpt><trkpt lat="30.029929864568654" lon="-5.513359083334519"><ele>623.0</ele><time>2026-03-24T10:39:50.975Z</time></trkpt><trkpt lat="30.030009405594452" lon="-5.513305697137147"><ele>623.0</ele><time>2026-03-24T10:39:51.975Z</time></trkpt><trkpt lat="30.03008900510382" lon="-5.5132440809734105"><ele>623.0</ele><time>2026-03-24T10:39:52.975Z</time></trkpt><trkpt lat="30.030156750665427" lon="-5.5131723720731625"><ele>623.0</ele><time>2026-03-24T10:39:53.975Z</time></trkpt><trkpt lat="30.03023081658096" lon="-5.513117663483509"><ele>623.4</ele><time>2026-03-24T10:39:54.975Z</time></trkpt><trkpt lat="30.03031476143878" lon="-5.513056668426328"><ele>623.8</ele><time>2026-03-24T10:39:55.975Z</time></trkpt><trkpt lat="30.030410001711054" lon="-5.513018416840126"><ele>624.2</ele><time>2026-03-24T10:39:56.975Z</time></trkpt><trkpt lat="30.03052768210989" lon="-5.512996218250109"><ele>624.6</ele><time>2026-03-24T10:39:57.975Z</time></trkpt><trkpt lat="30.0306453662122" lon="-5.512983692116104"><ele>625.0</ele><time>2026-03-24T10:39:58.975Z</time></trkpt><trkpt lat="30.030751871613777" lon="-5.51300593609233"><ele>625.3333333333334</ele><time>2026-03-24T10:39:59.975Z</time></trkpt><trkpt lat="30.0308389691214" lon="-5.513041479821079"><ele>625.6666666666667</ele><time>2026-03-24T10:40:00.975Z</time></trkpt><trkpt lat="30.030916852837905" lon="-5.51304196856139"><ele>626.0</ele><time>2026-03-24T10:40:01.975Z</time></trkpt><trkpt lat="30.03099663864861" lon="-5.513031959283391"><ele>626.3333333333334</ele><time>2026-03-24T10:40:02.975Z</time></trkpt><trkpt lat="30.03108592530615" lon="-5.513016888617482"><ele>626.6666666666666</ele><time>2026-03-24T10:40:03.975Z</time></trkpt><trkpt lat="30.03118224753976" lon="-5.512997363327282"><ele>627.0</ele><time>2026-03-24T10:40:04.975Z</time></trkpt><trkpt lat="30.031270373723416" lon="-5.51297537068357"><ele>627.0</ele><time>2026-03-24T10:40:05.975Z</time></trkpt><trkpt lat="30.031352001105418" lon="-5.512943442410762"><ele>627.0</ele><time>2026-03-24T10:40:06.975Z</time></trkpt><trkpt lat="30.031429145157162" lon="-5.512916646969411"><ele>627.0</ele><time>2026-03-24T10:40:07.975Z</time></trkpt><trkpt lat="30.031500225707457" lon="-5.512898447583028"><ele>627.0</ele><time>2026-03-24T10:40:08.975Z</time></trkpt><trkpt lat="30.03157518709119" lon="-5.512908193847878"><ele>627.0</ele><time>2026-03-24T10:40:09.975Z</time></trkpt><trkpt lat="30.031712465132586" lon="-5.513058395309895"><ele>627.0</ele><time>2026-03-24T10:40:12.975Z</time></trkpt><trkpt lat="30.031722218113963" lon="-5.5131329584247135"><ele>627.0</ele><time>2026-03-24T10:40:13.975Z</time></trkpt><trkpt lat="30.031733307837687" lon="-5.513211605982477"><ele>627.0</ele><time>2026-03-24T10:40:14.975Z</time></trkpt><trkpt lat="30.031768730296108" lon="-5.513323819289934"><ele>627.0</ele><time>2026-03-24T10:40:16.974Z</time></trkpt><trkpt lat="30.031899993445005" lon="-5.513336448417547"><ele>627.0</ele><time>2026-03-24T10:40:18.974Z</time></trkpt><trkpt lat="30.03198980504296" lon="-5.5133269261188484"><ele>627.0</ele><time>2026-03-24T10:40:19.974Z</time></trkpt><trkpt lat="30.03208726319862" lon="-5.513330427174417"><ele>627.0</ele><time>2026-03-24T10:40:20.975Z</time></trkpt><trkpt lat="30.032190828619363" lon="-5.513349689033741"><ele>627.0</ele><time>2026-03-24T10:40:21.974Z</time></trkpt><trkpt lat="30.032306891189894" lon="-5.513373583958854"><ele>627.0</ele><time>2026-03-24T10:40:22.974Z</time></trkpt><trkpt lat="30.032443721299842" lon="-5.513380733486748"><ele>626.25</ele><time>2026-03-24T10:40:23.974Z</time></trkpt><trkpt lat="30.032579566798994" lon="-5.513366407688177"><ele>625.5</ele><time>2026-03-24T10:40:24.975Z</time></trkpt><trkpt lat="30.032700012137045" lon="-5.513346844546286"><ele>624.75</ele><time>2026-03-24T10:40:25.975Z</time></trkpt><trkpt lat="30.03281595775769" lon="-5.513327584457938"><ele>624.0</ele><time>2026-03-24T10:40:26.975Z</time></trkpt><trkpt lat="30.03291521778278" lon="-5.51330552440001"><ele>624.0</ele><time>2026-03-24T10:40:27.975Z</time></trkpt><trkpt lat="30.0330002613334" lon="-5.513287225420086"><ele>624.0</ele><time>2026-03-24T10:40:28.975Z</time></trkpt><trkpt lat="30.033082389728943" lon="-5.513262250392359"><ele>624.0</ele><time>2026-03-24T10:40:29.975Z</time></trkpt><trkpt lat="30.033167766213225" lon="-5.513228510941417"><ele>624.0</ele><time>2026-03-24T10:40:30.975Z</time></trkpt><trkpt lat="30.03325723705024" lon="-5.513197467657189"><ele>624.0</ele><time>2026-03-24T10:40:31.975Z</time></trkpt><trkpt lat="30.033349252715738" lon="-5.513153928365883"><ele>624.4</ele><time>2026-03-24T10:40:32.975Z</time></trkpt><trkpt lat="30.033446337986625" lon="-5.5131152177935"><ele>624.8</ele><time>2026-03-24T10:40:33.975Z</time></trkpt><trkpt lat="30.033545218096645" lon="-5.513082297353412"><ele>625.2</ele><time>2026-03-24T10:40:34.975Z</time></trkpt><trkpt lat="30.033657536806356" lon="-5.513058343051173"><ele>625.6</ele><time>2026-03-24T10:40:35.975Z</time></trkpt><trkpt lat="30.033775834802846" lon="-5.513047926031047"><ele>626.0</ele><time>2026-03-24T10:40:36.975Z</time></trkpt><trkpt lat="30.03389788549013" lon="-5.513027790792096"><ele>626.0</ele><time>2026-03-24T10:40:37.975Z</time></trkpt><trkpt lat="30.034013901222437" lon="-5.513009441569101"><ele>626.0</ele><time>2026-03-24T10:40:38.975Z</time></trkpt><trkpt lat="30.034135691643478" lon="-5.51298347915281"><ele>626.0</ele><time>2026-03-24T10:40:39.975Z</time></trkpt><trkpt lat="30.034260415681413" lon="-5.512967715115632"><ele>626.0</ele><time>2026-03-24T10:40:40.975Z</time></trkpt><trkpt lat="30.03438701930492" lon="-5.512954801780111"><ele>625.8</ele><time>2026-03-24T10:40:41.975Z</time></trkpt><trkpt lat="30.034506481905193" lon="-5.51294004483915"><ele>625.6</ele><time>2026-03-24T10:40:42.975Z</time></trkpt><trkpt lat="30.0346186405344" lon="-5.51293417333445"><ele>625.4</ele><time>2026-03-24T10:40:43.975Z</time></trkpt><trkpt lat="30.034728952493232" lon="-5.512918701830078"><ele>625.2</ele><time>2026-03-24T10:40:44.975Z</time></trkpt><trkpt lat="30.034831711072517" lon="-5.512888769066375"><ele>625.0</ele><time>2026-03-24T10:40:45.975Z</time></trkpt><trkpt lat="30.03492309967861" lon="-5.512837931693319"><ele>624.6</ele><time>2026-03-24T10:40:46.975Z</time></trkpt><trkpt lat="30.035019419322765" lon="-5.512809274714361"><ele>624.2</ele><time>2026-03-24T10:40:47.975Z</time></trkpt><trkpt lat="30.035118624024946" lon="-5.512782184522755"><ele>623.8</ele><time>2026-03-24T10:40:48.975Z</time></trkpt><trkpt lat="30.035228506983756" lon="-5.512753162277364"><ele>623.4</ele><time>2026-03-24T10:40:49.975Z</time></trkpt><trkpt lat="30.03534407923249" lon="-5.512733115081249"><ele>623.0</ele><time>2026-03-24T10:40:50.975Z</time></trkpt><trkpt lat="30.035462734985185" lon="-5.512713936864897"><ele>623.0</ele><time>2026-03-24T10:40:51.975Z</time></trkpt><trkpt lat="30.03558908222514" lon="-5.512695472989785"><ele>623.0</ele><time>2026-03-24T10:40:52.975Z</time></trkpt><trkpt lat="30.035719771536712" lon="-5.512672921001491"><ele>623.0</ele><time>2026-03-24T10:40:53.975Z</time></trkpt><trkpt lat="30.035856430886728" lon="-5.512647473722942"><ele>623.0</ele><time>2026-03-24T10:40:54.975Z</time></trkpt><trkpt lat="30.036000749188577" lon="-5.512624717076013"><ele>623.6666666666666</ele><time>2026-03-24T10:40:55.975Z</time></trkpt><trkpt lat="30.036147438338947" lon="-5.5126002136852845"><ele>624.3333333333334</ele><time>2026-03-24T10:40:56.975Z</time></trkpt><trkpt lat="30.03629744131823" lon="-5.5125736855103575"><ele>625.0</ele><time>2026-03-24T10:40:57.975Z</time></trkpt><trkpt lat="30.03644477055195" lon="-5.512512745133841"><ele>625.0</ele><time>2026-03-24T10:40:58.975Z</time></trkpt><trkpt lat="30.036601242893106" lon="-5.512465914763115"><ele>625.0</ele><time>2026-03-24T10:40:59.975Z</time></trkpt><trkpt lat="30.036752121637907" lon="-5.512420571600791"><ele>625.0</ele><time>2026-03-24T10:41:00.975Z</time></trkpt><trkpt lat="30.036889028690332" lon="-5.5123750592656"><ele>624.5</ele><time>2026-03-24T10:41:01.975Z</time></trkpt><trkpt lat="30.037031410481298" lon="-5.512323943930488"><ele>624.0</ele><time>2026-03-24T10:41:02.975Z</time></trkpt><trkpt lat="30.037177828183673" lon="-5.512271540562842"><ele>623.5</ele><time>2026-03-24T10:41:03.975Z</time></trkpt><trkpt lat="30.037309673559264" lon="-5.5122236373792655"><ele>623.0</ele><time>2026-03-24T10:41:04.975Z</time></trkpt><trkpt lat="30.03743863304157" lon="-5.512207116783238"><ele>623.0</ele><time>2026-03-24T10:41:05.975Z</time></trkpt><trkpt lat="30.037548934321524" lon="-5.512160251407173"><ele>623.0</ele><time>2026-03-24T10:41:06.975Z</time></trkpt><trkpt lat="30.037662785374735" lon="-5.512124885643604"><ele>623.0</ele><time>2026-03-24T10:41:07.975Z</time></trkpt><trkpt lat="30.03777017880083" lon="-5.512110751999509"><ele>623.0</ele><time>2026-03-24T10:41:08.975Z</time></trkpt><trkpt lat="30.037874631192178" lon="-5.512083040254181"><ele>623.0</ele><time>2026-03-24T10:41:09.975Z</time></trkpt><trkpt lat="30.037994391885388" lon="-5.512168236721203"><ele>623.0</ele><time>2026-03-24T10:41:10.975Z</time></trkpt><trkpt lat="30.038095819079324" lon="-5.512222703152477"><ele>623.0</ele><time>2026-03-24T10:41:11.975Z</time></trkpt><trkpt lat="30.038193652741644" lon="-5.512272893908189"><ele>623.0</ele><time>2026-03-24T10:41:12.975Z</time></trkpt><trkpt lat="30.038309508490958" lon="-5.512309052857937"><ele>623.0</ele><time>2026-03-24T10:41:13.975Z</time></trkpt><trkpt lat="30.038401479176464" lon="-5.512378760769304"><ele>623.0</ele><time>2026-03-24T10:41:14.975Z</time></trkpt><trkpt lat="30.038468536285254" lon="-5.512467746312661"><ele>623.0</ele><time>2026-03-24T10:41:15.975Z</time></trkpt><trkpt lat="30.03853267158413" lon="-5.512549865502831"><ele>623.0</ele><time>2026-03-24T10:41:16.975Z</time></trkpt><trkpt lat="30.03859264973413" lon="-5.512636328588762"><ele>623.0</ele><time>2026-03-24T10:41:17.975Z</time></trkpt><trkpt lat="30.038673786605347" lon="-5.512663692979599"><ele>623.0</ele><time>2026-03-24T10:41:18.975Z</time></trkpt><trkpt lat="30.038762635501133" lon="-5.512659338117153"><ele>623.0</ele><time>2026-03-24T10:41:19.975Z</time></trkpt><trkpt lat="30.03885261950045" lon="-5.512598567529049"><ele>623.0</ele><time>2026-03-24T10:41:20.975Z</time></trkpt><trkpt lat="30.038962285552543" lon="-5.5125549417383715"><ele>623.0</ele><time>2026-03-24T10:41:21.975Z</time></trkpt><trkpt lat="30.03910021485739" lon="-5.512539343066254"><ele>623.0</ele><time>2026-03-24T10:41:22.975Z</time></trkpt><trkpt lat="30.039233678651197" lon="-5.512482387132196"><ele>623.3333333333333</ele><time>2026-03-24T10:41:23.975Z</time></trkpt><trkpt lat="30.039384687493893" lon="-5.5124462049980085"><ele>623.6666666666666</ele><time>2026-03-24T10:41:24.975Z</time></trkpt><trkpt lat="30.039536089786843" lon="-5.512416235928651"><ele>624.0</ele><time>2026-03-24T10:41:25.975Z</time></trkpt><trkpt lat="30.03968127955507" lon="-5.512401901501076"><ele>624.0</ele><time>2026-03-24T10:41:26.975Z</time></trkpt><trkpt lat="30.039825687412534" lon="-5.512374601112674"><ele>624.0</ele><time>2026-03-24T10:41:27.975Z</time></trkpt><trkpt lat="30.039974946019885" lon="-5.51235460309684"><ele>624.0</ele><time>2026-03-24T10:41:28.975Z</time></trkpt><trkpt lat="30.040114215389345" lon="-5.512326852643389"><ele>624.0</ele><time>2026-03-24T10:41:29.975Z</time></trkpt><trkpt lat="30.040258975555115" lon="-5.512295677967806"><ele>624.0</ele><time>2026-03-24T10:41:30.975Z</time></trkpt><trkpt lat="30.04039833307776" lon="-5.512262329478511"><ele>624.0</ele><time>2026-03-24T10:41:31.975Z</time></trkpt><trkpt lat="30.04054286031447" lon="-5.512221586714743"><ele>624.0</ele><time>2026-03-24T10:41:32.975Z</time></trkpt><trkpt lat="30.04068852106479" lon="-5.512174117474541"><ele>624.0</ele><time>2026-03-24T10:41:33.975Z</time></trkpt><trkpt lat="30.040829758423783" lon="-5.5121256050283955"><ele>624.75</ele><time>2026-03-24T10:41:34.975Z</time></trkpt><trkpt lat="30.04096570939466" lon="-5.51207906071847"><ele>625.5</ele><time>2026-03-24T10:41:35.975Z</time></trkpt><trkpt lat="30.04110010164096" lon="-5.51202639322147"><ele>626.25</ele><time>2026-03-24T10:41:36.975Z</time></trkpt><trkpt lat="30.041230134833608" lon="-5.511973916139435"><ele>627.0</ele><time>2026-03-24T10:41:37.975Z</time></trkpt><trkpt lat="30.041340870532583" lon="-5.511904754022795"><ele>627.0</ele><time>2026-03-24T10:41:38.975Z</time></trkpt><trkpt lat="30.041455058189594" lon="-5.511852965832404"><ele>627.0</ele><time>2026-03-24T10:41:39.975Z</time></trkpt><trkpt lat="30.04157237674591" lon="-5.511821415413009"><ele>627.0</ele><time>2026-03-24T10:41:40.975Z</time></trkpt><trkpt lat="30.04172130711998" lon="-5.511828310967041"><ele>627.0</ele><time>2026-03-24T10:41:41.975Z</time></trkpt><trkpt lat="30.04188120827364" lon="-5.51181277062616"><ele>626.5</ele><time>2026-03-24T10:41:42.975Z</time></trkpt><trkpt lat="30.042012130034802" lon="-5.511796969061548"><ele>626.0</ele><time>2026-03-24T10:41:43.975Z</time></trkpt><trkpt lat="30.042141691660145" lon="-5.511786537063061"><ele>625.5</ele><time>2026-03-24T10:41:44.975Z</time></trkpt><trkpt lat="30.042281556111984" lon="-5.511779945340592"><ele>625.0</ele><time>2026-03-24T10:41:45.975Z</time></trkpt><trkpt lat="30.042427822286747" lon="-5.511776004573852"><ele>625.25</ele><time>2026-03-24T10:41:46.975Z</time></trkpt><trkpt lat="30.042570401958695" lon="-5.51176606254016"><ele>625.5</ele><time>2026-03-24T10:41:47.975Z</time></trkpt><trkpt lat="30.042712294401415" lon="-5.511753438169939"><ele>625.75</ele><time>2026-03-24T10:41:48.975Z</time></trkpt><trkpt lat="30.042849583117903" lon="-5.5117367503943475"><ele>626.0</ele><time>2026-03-24T10:41:49.975Z</time></trkpt><trkpt lat="30.04298412508922" lon="-5.511715887758011"><ele>626.0</ele><time>2026-03-24T10:41:50.975Z</time></trkpt><trkpt lat="30.04311342074784" lon="-5.511696355558538"><ele>626.0</ele><time>2026-03-24T10:41:51.975Z</time></trkpt><trkpt lat="30.04324065176423" lon="-5.511683352142593"><ele>626.0</ele><time>2026-03-24T10:41:52.975Z</time></trkpt><trkpt lat="30.043360483464863" lon="-5.511671684816046"><ele>626.0</ele><time>2026-03-24T10:41:53.975Z</time></trkpt><trkpt lat="30.04347292478152" lon="-5.511659355161035"><ele>625.8</ele><time>2026-03-24T10:41:54.975Z</time></trkpt><trkpt lat="30.043578236450394" lon="-5.511640321399564"><ele>625.6</ele><time>2026-03-24T10:41:55.975Z</time></trkpt><trkpt lat="30.04367516258139" lon="-5.511618989099399"><ele>625.4</ele><time>2026-03-24T10:41:56.975Z</time></trkpt><trkpt lat="30.04376951701771" lon="-5.511608591952917"><ele>625.2</ele><time>2026-03-24T10:41:57.975Z</time></trkpt><trkpt lat="30.043864236158036" lon="-5.511598325819972"><ele>625.0</ele><time>2026-03-24T10:41:58.975Z</time></trkpt><trkpt lat="30.043941958862003" lon="-5.511588969568879"><ele>625.0</ele><time>2026-03-24T10:41:59.975Z</time></trkpt><trkpt lat="30.044029564001022" lon="-5.511583579860632"><ele>625.0</ele><time>2026-03-24T10:42:00.975Z</time></trkpt><trkpt lat="30.044113064622113" lon="-5.511584014669077"><ele>625.0</ele><time>2026-03-24T10:42:01.975Z</time></trkpt><trkpt lat="30.044214431970122" lon="-5.511581252566974"><ele>625.0</ele><time>2026-03-24T10:42:02.975Z</time></trkpt><trkpt lat="30.04430868416111" lon="-5.51158629138434"><ele>625.0</ele><time>2026-03-24T10:42:03.975Z</time></trkpt><trkpt lat="30.044400588222434" lon="-5.511583696577468"><ele>625.5</ele><time>2026-03-24T10:42:04.975Z</time></trkpt><trkpt lat="30.044513336583247" lon="-5.511588201938593"><ele>626.0</ele><time>2026-03-24T10:42:05.975Z</time></trkpt><trkpt lat="30.044634465292287" lon="-5.5115892088410545"><ele>626.5</ele><time>2026-03-24T10:42:06.975Z</time></trkpt><trkpt lat="30.044755032606638" lon="-5.5115748803883"><ele>627.0</ele><time>2026-03-24T10:42:07.975Z</time></trkpt><trkpt lat="30.044855477534117" lon="-5.511538730218902"><ele>627.0</ele><time>2026-03-24T10:42:08.974Z</time></trkpt><trkpt lat="30.04494765944107" lon="-5.511470461748257"><ele>627.0</ele><time>2026-03-24T10:42:09.974Z</time></trkpt><trkpt lat="30.04505625437352" lon="-5.511415861453973"><ele>627.0</ele><time>2026-03-24T10:42:10.974Z</time></trkpt><trkpt lat="30.045177447015753" lon="-5.5113757974071165"><ele>627.0</ele><time>2026-03-24T10:42:11.974Z</time></trkpt><trkpt lat="30.04531370685863" lon="-5.511363102830007"><ele>627.0</ele><time>2026-03-24T10:42:12.974Z</time></trkpt><trkpt lat="30.045445711908027" lon="-5.511337617330268"><ele>627.0</ele><time>2026-03-24T10:42:13.974Z</time></trkpt><trkpt lat="30.04557471247008" lon="-5.511327035810405"><ele>627.0</ele><time>2026-03-24T10:42:14.974Z</time></trkpt><trkpt lat="30.045687320940118" lon="-5.511313046131846"><ele>627.0</ele><time>2026-03-24T10:42:15.974Z</time></trkpt><trkpt lat="30.04579585226798" lon="-5.511298271346648"><ele>627.0</ele><time>2026-03-24T10:42:16.974Z</time></trkpt><trkpt lat="30.04590420537498" lon="-5.511277558545761"><ele>627.0</ele><time>2026-03-24T10:42:17.974Z</time></trkpt><trkpt lat="30.046020104736474" lon="-5.511243598058064"><ele>627.0</ele><time>2026-03-24T10:42:18.974Z</time></trkpt><trkpt lat="30.04613654021604" lon="-5.511196194306168"><ele>627.0</ele><time>2026-03-24T10:42:19.974Z</time></trkpt><trkpt lat="30.04625492767862" lon="-5.511143089901803"><ele>627.0</ele><time>2026-03-24T10:42:20.974Z</time></trkpt><trkpt lat="30.046385322967193" lon="-5.511093882617868"><ele>627.0</ele><time>2026-03-24T10:42:21.974Z</time></trkpt><trkpt lat="30.046544262119134" lon="-5.511116397681275"><ele>627.0</ele><time>2026-03-24T10:42:22.974Z</time></trkpt><trkpt lat="30.046708724272236" lon="-5.511121513826143"><ele>627.0</ele><time>2026-03-24T10:42:23.974Z</time></trkpt><trkpt lat="30.0468811600916" lon="-5.511118655695096"><ele>627.0</ele><time>2026-03-24T10:42:24.974Z</time></trkpt><trkpt lat="30.04704407173334" lon="-5.511110635003323"><ele>627.0</ele><time>2026-03-24T10:42:25.974Z</time></trkpt><trkpt lat="30.04720154168184" lon="-5.511094522886282"><ele>627.0</ele><time>2026-03-24T10:42:26.974Z</time></trkpt><trkpt lat="30.04734941641528" lon="-5.5110684279923055"><ele>627.0</ele><time>2026-03-24T10:42:27.974Z</time></trkpt><trkpt lat="30.04748268497745" lon="-5.511042279553234"><ele>627.0</ele><time>2026-03-24T10:42:28.974Z</time></trkpt><trkpt lat="30.047608493635728" lon="-5.510996682588126"><ele>627.0</ele><time>2026-03-24T10:42:29.974Z</time></trkpt><trkpt lat="30.04775233842313" lon="-5.510962699531701"><ele>627.0</ele><time>2026-03-24T10:42:30.974Z</time></trkpt><trkpt lat="30.04790477697891" lon="-5.510969279584153"><ele>627.0</ele><time>2026-03-24T10:42:31.974Z</time></trkpt><trkpt lat="30.04804006211386" lon="-5.5110039267464375"><ele>627.0</ele><time>2026-03-24T10:42:32.974Z</time></trkpt><trkpt lat="30.04817647131469" lon="-5.511020744195569"><ele>627.0</ele><time>2026-03-24T10:42:33.974Z</time></trkpt><trkpt lat="30.04830700098874" lon="-5.511036456644427"><ele>627.0</ele><time>2026-03-24T10:42:34.974Z</time></trkpt><trkpt lat="30.048438382626404" lon="-5.511051056355789"><ele>627.0</ele><time>2026-03-24T10:42:35.974Z</time></trkpt><trkpt lat="30.048582346906088" lon="-5.51106336069674"><ele>627.0</ele><time>2026-03-24T10:42:36.974Z</time></trkpt><trkpt lat="30.04872320211123" lon="-5.511063429323559"><ele>627.0</ele><time>2026-03-24T10:42:37.974Z</time></trkpt><trkpt lat="30.04885493972184" lon="-5.5110547433956745"><ele>627.0</ele><time>2026-03-24T10:42:38.974Z</time></trkpt><trkpt lat="30.048975977037742" lon="-5.511036442341194"><ele>627.0</ele><time>2026-03-24T10:42:39.974Z</time></trkpt><trkpt lat="30.04909146780424" lon="-5.511015101985502"><ele>627.0</ele><time>2026-03-24T10:42:40.974Z</time></trkpt><trkpt lat="30.049193436105593" lon="-5.510979404403613"><ele>627.0</ele><time>2026-03-24T10:42:41.974Z</time></trkpt><trkpt lat="30.04928660493216" lon="-5.510919312365714"><ele>626.5</ele><time>2026-03-24T10:42:42.974Z</time></trkpt><trkpt lat="30.049375227113785" lon="-5.510838886862419"><ele>626.0</ele><time>2026-03-24T10:42:43.974Z</time></trkpt><trkpt lat="30.049468523530454" lon="-5.510745964998838"><ele>625.5</ele><time>2026-03-24T10:42:44.974Z</time></trkpt><trkpt lat="30.049580726751245" lon="-5.510671719144139"><ele>625.0</ele><time>2026-03-24T10:42:45.974Z</time></trkpt><trkpt lat="30.049702553308634" lon="-5.510617508587361"><ele>625.0</ele><time>2026-03-24T10:42:46.974Z</time></trkpt><trkpt lat="30.0498204788376" lon="-5.510585913849734"><ele>625.0</ele><time>2026-03-24T10:42:47.974Z</time></trkpt><trkpt lat="30.04994050623107" lon="-5.510556313551508"><ele>625.0</ele><time>2026-03-24T10:42:48.974Z</time></trkpt><trkpt lat="30.050057580263" lon="-5.51052578039344"><ele>625.0</ele><time>2026-03-24T10:42:49.974Z</time></trkpt><trkpt lat="30.050168747998637" lon="-5.51048669944465"><ele>625.0</ele><time>2026-03-24T10:42:50.974Z</time></trkpt><trkpt lat="30.05027764266205" lon="-5.510444736035471"><ele>625.0</ele><time>2026-03-24T10:42:51.974Z</time></trkpt><trkpt lat="30.050403304571077" lon="-5.510418223564996"><ele>625.0</ele><time>2026-03-24T10:42:52.974Z</time></trkpt><trkpt lat="30.050525479000164" lon="-5.510413017415009"><ele>625.0</ele><time>2026-03-24T10:42:53.974Z</time></trkpt><trkpt lat="30.05064475009389" lon="-5.510439310442364"><ele>625.0</ele><time>2026-03-24T10:42:54.974Z</time></trkpt><trkpt lat="30.050761749298832" lon="-5.510498793770743"><ele>625.0</ele><time>2026-03-24T10:42:55.974Z</time></trkpt><trkpt lat="30.05086827834409" lon="-5.510560894068026"><ele>625.0</ele><time>2026-03-24T10:42:56.974Z</time></trkpt><trkpt lat="30.05097024705284" lon="-5.51061785216347"><ele>625.0</ele><time>2026-03-24T10:42:57.974Z</time></trkpt><trkpt lat="30.051074397288655" lon="-5.510667228926172"><ele>625.6</ele><time>2026-03-24T10:42:58.974Z</time></trkpt><trkpt lat="30.051179225643633" lon="-5.510712439541604"><ele>626.2</ele><time>2026-03-24T10:42:59.974Z</time></trkpt><trkpt lat="30.051286356936156" lon="-5.510750675473032"><ele>626.8</ele><time>2026-03-24T10:43:00.974Z</time></trkpt><trkpt lat="30.051390033428948" lon="-5.510784627026761"><ele>627.4</ele><time>2026-03-24T10:43:01.974Z</time></trkpt><trkpt lat="30.051498247924886" lon="-5.510822057826516"><ele>628.0</ele><time>2026-03-24T10:43:02.974Z</time></trkpt><trkpt lat="30.0516122743987" lon="-5.510863818999692"><ele>627.75</ele><time>2026-03-24T10:43:03.974Z</time></trkpt><trkpt lat="30.051728486371506" lon="-5.5109019798485654"><ele>627.5</ele><time>2026-03-24T10:43:04.974Z</time></trkpt><trkpt lat="30.05184247142083" lon="-5.510932970418105"><ele>627.25</ele><time>2026-03-24T10:43:05.974Z</time></trkpt><trkpt lat="30.05195269516538" lon="-5.510955804378374"><ele>627.0</ele><time>2026-03-24T10:43:06.974Z</time></trkpt><trkpt lat="30.052062464682148" lon="-5.51097690094352"><ele>627.0</ele><time>2026-03-24T10:43:07.974Z</time></trkpt><trkpt lat="30.052174957464693" lon="-5.510987234396074"><ele>627.0</ele><time>2026-03-24T10:43:08.974Z</time></trkpt><trkpt lat="30.05229746920646" lon="-5.510988162359861"><ele>627.0</ele><time>2026-03-24T10:43:09.974Z</time></trkpt><trkpt lat="30.052421164388228" lon="-5.510965487111506"><ele>627.0</ele><time>2026-03-24T10:43:10.974Z</time></trkpt><trkpt lat="30.05254442952808" lon="-5.510941752462651"><ele>627.0</ele><time>2026-03-24T10:43:11.974Z</time></trkpt><trkpt lat="30.05266996451805" lon="-5.510916697801506"><ele>627.0</ele><time>2026-03-24T10:43:12.974Z</time></trkpt><trkpt lat="30.05279809341167" lon="-5.510890133540025"><ele>627.0</ele><time>2026-03-24T10:43:13.974Z</time></trkpt><trkpt lat="30.052926296675686" lon="-5.510840152674519"><ele>627.0</ele><time>2026-03-24T10:43:14.974Z</time></trkpt><trkpt lat="30.053051753564137" lon="-5.510807666471783"><ele>627.0</ele><time>2026-03-24T10:43:15.974Z</time></trkpt><trkpt lat="30.05318387563709" lon="-5.510774957805337"><ele>627.0</ele><time>2026-03-24T10:43:16.974Z</time></trkpt><trkpt lat="30.053318423151687" lon="-5.510747348516397"><ele>627.0</ele><time>2026-03-24T10:43:17.974Z</time></trkpt><trkpt lat="30.053442780298123" lon="-5.510701685167483"><ele>627.0</ele><time>2026-03-24T10:43:18.974Z</time></trkpt><trkpt lat="30.05358062290831" lon="-5.510679137580576"><ele>627.0</ele><time>2026-03-24T10:43:19.974Z</time></trkpt><trkpt lat="30.053718763536185" lon="-5.510652984011202"><ele>627.0</ele><time>2026-03-24T10:43:20.974Z</time></trkpt><trkpt lat="30.053861882035278" lon="-5.510624001239449"><ele>627.0</ele><time>2026-03-24T10:43:21.974Z</time></trkpt><trkpt lat="30.05400237435336" lon="-5.510589426175767"><ele>627.0</ele><time>2026-03-24T10:43:22.974Z</time></trkpt><trkpt lat="30.05413532534944" lon="-5.510553322754107"><ele>627.0</ele><time>2026-03-24T10:43:23.974Z</time></trkpt><trkpt lat="30.05427911305686" lon="-5.510534222472612"><ele>627.0</ele><time>2026-03-24T10:43:24.974Z</time></trkpt><trkpt lat="30.05440216800183" lon="-5.510494196414713"><ele>627.0</ele><time>2026-03-24T10:43:25.974Z</time></trkpt><trkpt lat="30.05452009380153" lon="-5.510450012255883"><ele>627.0</ele><time>2026-03-24T10:43:26.974Z</time></trkpt><trkpt lat="30.054642992886677" lon="-5.510397103295509"><ele>627.0</ele><time>2026-03-24T10:43:27.974Z</time></trkpt><trkpt lat="30.05476553463913" lon="-5.5103338045028805"><ele>627.0</ele><time>2026-03-24T10:43:28.974Z</time></trkpt><trkpt lat="30.054889651388738" lon="-5.510265704444421"><ele>627.0</ele><time>2026-03-24T10:43:29.974Z</time></trkpt><trkpt lat="30.0550178518029" lon="-5.510191718551038"><ele>627.0</ele><time>2026-03-24T10:43:30.974Z</time></trkpt><trkpt lat="30.055146668800436" lon="-5.510134133258406"><ele>626.5</ele><time>2026-03-24T10:43:31.974Z</time></trkpt><trkpt lat="30.055281034952724" lon="-5.510081427724989"><ele>626.0</ele><time>2026-03-24T10:43:32.974Z</time></trkpt><trkpt lat="30.055416787314407" lon="-5.51003706658975"><ele>625.5</ele><time>2026-03-24T10:43:33.974Z</time></trkpt><trkpt lat="30.055561544524497" lon="-5.509998951998144"><ele>625.0</ele><time>2026-03-24T10:43:34.974Z</time></trkpt><trkpt lat="30.055703346003135" lon="-5.509966205847126"><ele>625.25</ele><time>2026-03-24T10:43:35.974Z</time></trkpt><trkpt lat="30.055845419901907" lon="-5.509940058804566"><ele>625.5</ele><time>2026-03-24T10:43:36.974Z</time></trkpt><trkpt lat="30.05598646520072" lon="-5.509918516622923"><ele>625.75</ele><time>2026-03-24T10:43:37.974Z</time></trkpt><trkpt lat="30.056121274555135" lon="-5.509896093570978"><ele>626.0</ele><time>2026-03-24T10:43:38.974Z</time></trkpt><trkpt lat="30.056256018499518" lon="-5.509875132552103"><ele>626.0</ele><time>2026-03-24T10:43:39.974Z</time></trkpt><trkpt lat="30.05638428468775" lon="-5.509856264366275"><ele>626.0</ele><time>2026-03-24T10:43:40.974Z</time></trkpt><trkpt lat="30.05650240804442" lon="-5.509832936813364"><ele>626.0</ele><time>2026-03-24T10:43:41.974Z</time></trkpt><trkpt lat="30.05661830500658" lon="-5.509802350461834"><ele>626.0</ele><time>2026-03-24T10:43:42.974Z</time></trkpt><trkpt lat="30.05674911685544" lon="-5.509787706037088"><ele>626.0</ele><time>2026-03-24T10:43:43.974Z</time></trkpt><trkpt lat="30.056864861036313" lon="-5.509705983919491"><ele>626.0</ele><time>2026-03-24T10:43:44.974Z</time></trkpt><trkpt lat="30.056969133774434" lon="-5.509641841429136"><ele>626.0</ele><time>2026-03-24T10:43:45.974Z</time></trkpt><trkpt lat="30.057063991125272" lon="-5.509572282612978"><ele>626.0</ele><time>2026-03-24T10:43:46.974Z</time></trkpt><trkpt lat="30.05715228180248" lon="-5.509504547550274"><ele>626.25</ele><time>2026-03-24T10:43:47.974Z</time></trkpt><trkpt lat="30.057245759574087" lon="-5.509437872409855"><ele>626.5</ele><time>2026-03-24T10:43:48.974Z</time></trkpt><trkpt lat="30.057345050012845" lon="-5.509369268236474"><ele>626.75</ele><time>2026-03-24T10:43:49.974Z</time></trkpt><trkpt lat="30.057443845995724" lon="-5.5092944916753614"><ele>627.0</ele><time>2026-03-24T10:43:50.974Z</time></trkpt><trkpt lat="30.057546443917012" lon="-5.509222333963355"><ele>627.0</ele><time>2026-03-24T10:43:51.974Z</time></trkpt><trkpt lat="30.057652638055117" lon="-5.509149289586188"><ele>627.0</ele><time>2026-03-24T10:43:52.974Z</time></trkpt><trkpt lat="30.057761150205074" lon="-5.50907465851902"><ele>627.0</ele><time>2026-03-24T10:43:53.974Z</time></trkpt><trkpt lat="30.057876087957805" lon="-5.509000133749194"><ele>627.0</ele><time>2026-03-24T10:43:54.974Z</time></trkpt><trkpt lat="30.0579950628534" lon="-5.50892371110734"><ele>627.0</ele><time>2026-03-24T10:43:55.974Z</time></trkpt><trkpt lat="30.058115291540943" lon="-5.508846291659721"><ele>627.0</ele><time>2026-03-24T10:43:56.974Z</time></trkpt><trkpt lat="30.05823038840484" lon="-5.508758956755766"><ele>627.0</ele><time>2026-03-24T10:43:57.974Z</time></trkpt><trkpt lat="30.058347230724056" lon="-5.508666665996685"><ele>627.0</ele><time>2026-03-24T10:43:58.974Z</time></trkpt><trkpt lat="30.058457645847763" lon="-5.508567806200707"><ele>627.25</ele><time>2026-03-24T10:43:59.974Z</time></trkpt><trkpt lat="30.058568102307706" lon="-5.508457013884118"><ele>627.5</ele><time>2026-03-24T10:44:00.974Z</time></trkpt><trkpt lat="30.058671494998915" lon="-5.508337074028887"><ele>627.75</ele><time>2026-03-24T10:44:01.974Z</time></trkpt><trkpt lat="30.05876850580531" lon="-5.5082210520153065"><ele>628.0</ele><time>2026-03-24T10:44:02.974Z</time></trkpt><trkpt lat="30.058866127324585" lon="-5.508101859728527"><ele>628.0</ele><time>2026-03-24T10:44:03.974Z</time></trkpt><trkpt lat="30.05895861126477" lon="-5.507976833716739"><ele>628.0</ele><time>2026-03-24T10:44:04.974Z</time></trkpt><trkpt lat="30.059047222342056" lon="-5.5078480019533576"><ele>628.0</ele><time>2026-03-24T10:44:05.974Z</time></trkpt><trkpt lat="30.059126140475048" lon="-5.507718038353247"><ele>628.0</ele><time>2026-03-24T10:44:06.974Z</time></trkpt><trkpt lat="30.05919346388468" lon="-5.507581902538679"><ele>628.25</ele><time>2026-03-24T10:44:07.974Z</time></trkpt><trkpt lat="30.059246142304055" lon="-5.507443545836853"><ele>628.5</ele><time>2026-03-24T10:44:08.974Z</time></trkpt><trkpt lat="30.059306921819754" lon="-5.507313816400814"><ele>628.75</ele><time>2026-03-24T10:44:09.974Z</time></trkpt><trkpt lat="30.05928969431077" lon="-5.507159306993182"><ele>629.0</ele><time>2026-03-24T10:44:10.974Z</time></trkpt><trkpt lat="30.059326135718944" lon="-5.507037229118591"><ele>629.0</ele><time>2026-03-24T10:44:11.974Z</time></trkpt><trkpt lat="30.05941825058638" lon="-5.506921701605604"><ele>629.0</ele><time>2026-03-24T10:44:12.974Z</time></trkpt><trkpt lat="30.059545164911867" lon="-5.506866102916185"><ele>629.0</ele><time>2026-03-24T10:44:13.974Z</time></trkpt><trkpt lat="30.059670937904933" lon="-5.50681301180632"><ele>629.0</ele><time>2026-03-24T10:44:14.974Z</time></trkpt><trkpt lat="30.05979103089764" lon="-5.506748396116883"><ele>629.0</ele><time>2026-03-24T10:44:15.974Z</time></trkpt><trkpt lat="30.059912688755958" lon="-5.50667670850169"><ele>629.0</ele><time>2026-03-24T10:44:16.974Z</time></trkpt><trkpt lat="30.060040412449027" lon="-5.506602963895979"><ele>629.0</ele><time>2026-03-24T10:44:17.974Z</time></trkpt><trkpt lat="30.060171188072257" lon="-5.506531742561769"><ele>629.0</ele><time>2026-03-24T10:44:18.974Z</time></trkpt><trkpt lat="30.06029313606491" lon="-5.5064568998048085"><ele>629.0</ele><time>2026-03-24T10:44:19.974Z</time></trkpt><trkpt lat="30.060428431081625" lon="-5.506409961656518"><ele>629.0</ele><time>2026-03-24T10:44:20.974Z</time></trkpt><trkpt lat="30.060556819049815" lon="-5.506375643260646"><ele>629.0</ele><time>2026-03-24T10:44:21.974Z</time></trkpt><trkpt lat="30.0606797031414" lon="-5.506348535586042"><ele>629.0</ele><time>2026-03-24T10:44:22.974Z</time></trkpt><trkpt lat="30.060792252228655" lon="-5.506297955032587"><ele>629.0</ele><time>2026-03-24T10:44:23.973Z</time></trkpt><trkpt lat="30.06089465191559" lon="-5.506236945447712"><ele>629.0</ele><time>2026-03-24T10:44:24.973Z</time></trkpt><trkpt lat="30.060998221209655" lon="-5.506153135648699"><ele>629.0</ele><time>2026-03-24T10:44:25.973Z</time></trkpt><trkpt lat="30.061105430222888" lon="-5.5060633882846615"><ele>629.0</ele><time>2026-03-24T10:44:26.973Z</time></trkpt><trkpt lat="30.061209950048113" lon="-5.5059738427040585"><ele>629.0</ele><time>2026-03-24T10:44:27.973Z</time></trkpt><trkpt lat="30.061317227148407" lon="-5.505887145634055"><ele>629.0</ele><time>2026-03-24T10:44:28.973Z</time></trkpt><trkpt lat="30.06143327963037" lon="-5.505806338467575"><ele>629.0</ele><time>2026-03-24T10:44:29.974Z</time></trkpt><trkpt lat="30.06154460106079" lon="-5.505725364860732"><ele>629.0</ele><time>2026-03-24T10:44:30.974Z</time></trkpt><trkpt lat="30.061647871509404" lon="-5.505644071408153"><ele>628.6</ele><time>2026-03-24T10:44:31.974Z</time></trkpt><trkpt lat="30.061750980578612" lon="-5.505563069444079"><ele>628.2</ele><time>2026-03-24T10:44:32.974Z</time></trkpt><trkpt lat="30.06184382572153" lon="-5.505485584946036"><ele>627.8000000000001</ele><time>2026-03-24T10:44:33.973Z</time></trkpt><trkpt lat="30.061924956825074" lon="-5.5054232774166625"><ele>627.4</ele><time>2026-03-24T10:44:34.973Z</time></trkpt><trkpt lat="30.061987684093904" lon="-5.505379069154795"><ele>627.0</ele><time>2026-03-24T10:44:35.974Z</time></trkpt><trkpt lat="30.062059869211048" lon="-5.505323592234053"><ele>627.2</ele><time>2026-03-24T10:44:37.974Z</time></trkpt><trkpt lat="30.062110516386145" lon="-5.505262569544288"><ele>627.4000000000001</ele><time>2026-03-24T10:44:40.974Z</time></trkpt><trkpt lat="30.062174679619883" lon="-5.505208132929685"><ele>627.5999999999999</ele><time>2026-03-24T10:44:43.974Z</time></trkpt><trkpt lat="30.062251262335245" lon="-5.505184990126578"><ele>627.8</ele><time>2026-03-24T10:44:46.974Z</time></trkpt><trkpt lat="30.06235388573977" lon="-5.505150198152206"><ele>628.0</ele><time>2026-03-24T10:44:54.974Z</time></trkpt><trkpt lat="30.06246822801326" lon="-5.505119477727515"><ele>628.0</ele><time>2026-03-24T10:44:56.974Z</time></trkpt><trkpt lat="30.062535742107677" lon="-5.50509453703347"><ele>628.0</ele><time>2026-03-24T10:44:57.974Z</time></trkpt><trkpt lat="30.062624006970417" lon="-5.505061877648519"><ele>628.0</ele><time>2026-03-24T10:44:58.974Z</time></trkpt><trkpt lat="30.062710005550013" lon="-5.505035438850142"><ele>628.0</ele><time>2026-03-24T10:44:59.974Z</time></trkpt><trkpt lat="30.062796638569473" lon="-5.505013904947101"><ele>628.0</ele><time>2026-03-24T10:45:00.974Z</time></trkpt><trkpt lat="30.062867756297248" lon="-5.504994101496345"><ele>628.0</ele><time>2026-03-24T10:45:01.974Z</time></trkpt><trkpt lat="30.062939739161685" lon="-5.504976844482761"><ele>628.0</ele><time>2026-03-24T10:45:02.974Z</time></trkpt><trkpt lat="30.063031822917214" lon="-5.504959882135794"><ele>628.0</ele><time>2026-03-24T10:45:03.974Z</time></trkpt><trkpt lat="30.063141968286644" lon="-5.504947708125122"><ele>628.0</ele><time>2026-03-24T10:45:04.974Z</time></trkpt><trkpt lat="30.06328055109813" lon="-5.504924691703818"><ele>628.0</ele><time>2026-03-24T10:45:05.974Z</time></trkpt><trkpt lat="30.063415955698876" lon="-5.504861831935088"><ele>628.0</ele><time>2026-03-24T10:45:06.974Z</time></trkpt><trkpt lat="30.063525410186053" lon="-5.504806478239378"><ele>628.0</ele><time>2026-03-24T10:45:07.974Z</time></trkpt><trkpt lat="30.063629322644257" lon="-5.504768867906589"><ele>628.0</ele><time>2026-03-24T10:45:08.974Z</time></trkpt><trkpt lat="30.063700023799242" lon="-5.504689907221849"><ele>628.0</ele><time>2026-03-24T10:45:09.974Z</time></trkpt><trkpt lat="30.063781082919803" lon="-5.504652266363955"><ele>628.0</ele><time>2026-03-24T10:45:10.974Z</time></trkpt><trkpt lat="30.063862958366062" lon="-5.504590518043922"><ele>628.1999999999999</ele><time>2026-03-24T10:45:11.974Z</time></trkpt><trkpt lat="30.06395357413269" lon="-5.5045499746942825"><ele>628.4</ele><time>2026-03-24T10:45:12.974Z</time></trkpt><trkpt lat="30.06405072491083" lon="-5.50452330674267"><ele>628.5999999999999</ele><time>2026-03-24T10:45:13.974Z</time></trkpt><trkpt lat="30.064156332191466" lon="-5.50451342588537"><ele>628.8</ele><time>2026-03-24T10:45:14.974Z</time></trkpt><trkpt lat="30.064262296973553" lon="-5.504482206281208"><ele>629.0</ele><time>2026-03-24T10:45:15.974Z</time></trkpt><trkpt lat="30.064356116508144" lon="-5.504440870842369"><ele>629.0</ele><time>2026-03-24T10:45:16.974Z</time></trkpt><trkpt lat="30.064443414444245" lon="-5.50439908165753"><ele>629.0</ele><time>2026-03-24T10:45:17.974Z</time></trkpt><trkpt lat="30.0645285241323" lon="-5.50436888433706"><ele>629.0</ele><time>2026-03-24T10:45:18.974Z</time></trkpt><trkpt lat="30.064619992595297" lon="-5.50436757837822"><ele>629.0</ele><time>2026-03-24T10:45:19.974Z</time></trkpt><trkpt lat="30.064722331422374" lon="-5.5043981569386995"><ele>629.0</ele><time>2026-03-24T10:45:20.973Z</time></trkpt><trkpt lat="30.064825927206716" lon="-5.504422642601397"><ele>629.0</ele><time>2026-03-24T10:45:21.973Z</time></trkpt><trkpt lat="30.06492822467412" lon="-5.504411413518661"><ele>629.0</ele><time>2026-03-24T10:45:22.973Z</time></trkpt><trkpt lat="30.065025261258178" lon="-5.504404035107035"><ele>629.0</ele><time>2026-03-24T10:45:23.973Z</time></trkpt><trkpt lat="30.06511836711359" lon="-5.504398243198775"><ele>629.0</ele><time>2026-03-24T10:45:24.973Z</time></trkpt><trkpt lat="30.06519531704786" lon="-5.5043225538157445"><ele>629.0</ele><time>2026-03-24T10:45:25.973Z</time></trkpt><trkpt lat="30.0652836222807" lon="-5.504246821135158"><ele>629.5</ele><time>2026-03-24T10:45:26.973Z</time></trkpt><trkpt lat="30.065387476036047" lon="-5.5041775194171185"><ele>630.0</ele><time>2026-03-24T10:45:27.973Z</time></trkpt><trkpt lat="30.065494865108406" lon="-5.504104980877449"><ele>630.5</ele><time>2026-03-24T10:45:28.973Z</time></trkpt><trkpt lat="30.06559185446127" lon="-5.504036114816745"><ele>631.0</ele><time>2026-03-24T10:45:29.973Z</time></trkpt><trkpt lat="30.06570347064775" lon="-5.503985041645443"><ele>631.0</ele><time>2026-03-24T10:45:30.973Z</time></trkpt><trkpt lat="30.065818439990228" lon="-5.50393293801048"><ele>631.0</ele><time>2026-03-24T10:45:31.973Z</time></trkpt><trkpt lat="30.06591486651724" lon="-5.50389200055501"><ele>631.0</ele><time>2026-03-24T10:45:32.973Z</time></trkpt><trkpt lat="30.066010985039572" lon="-5.503853416052025"><ele>631.0</ele><time>2026-03-24T10:45:33.973Z</time></trkpt><trkpt lat="30.066109160745395" lon="-5.50381876914145"><ele>631.0</ele><time>2026-03-24T10:45:34.973Z</time></trkpt><trkpt lat="30.06620720498799" lon="-5.503800869733533"><ele>631.0</ele><time>2026-03-24T10:45:35.973Z</time></trkpt><trkpt lat="30.066303881973372" lon="-5.5037892779803945"><ele>631.0</ele><time>2026-03-24T10:45:36.973Z</time></trkpt><trkpt lat="30.066393761415235" lon="-5.50377742080624"><ele>631.0</ele><time>2026-03-24T10:45:37.973Z</time></trkpt><trkpt lat="30.06647770993401" lon="-5.503741528785865"><ele>631.0</ele><time>2026-03-24T10:45:38.973Z</time></trkpt><trkpt lat="30.066563758224266" lon="-5.503681593588471"><ele>631.0</ele><time>2026-03-24T10:45:39.973Z</time></trkpt><trkpt lat="30.066645597210165" lon="-5.50360736257431"><ele>631.2</ele><time>2026-03-24T10:45:40.973Z</time></trkpt><trkpt lat="30.066731990634448" lon="-5.503531118868259"><ele>631.4000000000001</ele><time>2026-03-24T10:45:41.973Z</time></trkpt><trkpt lat="30.066810931554475" lon="-5.503445999086598"><ele>631.6</ele><time>2026-03-24T10:45:42.973Z</time></trkpt><trkpt lat="30.066902412488894" lon="-5.503374912414754"><ele>631.8000000000001</ele><time>2026-03-24T10:45:43.973Z</time></trkpt><trkpt lat="30.06699416209755" lon="-5.503305605678591"><ele>632.0</ele><time>2026-03-24T10:45:44.973Z</time></trkpt><trkpt lat="30.06708651650164" lon="-5.503240066551936"><ele>632.0</ele><time>2026-03-24T10:45:45.973Z</time></trkpt><trkpt lat="30.067175872677087" lon="-5.503176789249726"><ele>632.0</ele><time>2026-03-24T10:45:46.973Z</time></trkpt><trkpt lat="30.067268179336903" lon="-5.503117465939147"><ele>632.0</ele><time>2026-03-24T10:45:47.973Z</time></trkpt><trkpt lat="30.067365999942247" lon="-5.5030604274502"><ele>632.0</ele><time>2026-03-24T10:45:48.973Z</time></trkpt><trkpt lat="30.067458849182202" lon="-5.503005772034379"><ele>632.0</ele><time>2026-03-24T10:45:49.973Z</time></trkpt><trkpt lat="30.067551748609024" lon="-5.502948367746913"><ele>632.2</ele><time>2026-03-24T10:45:50.973Z</time></trkpt><trkpt lat="30.06763774291958" lon="-5.50288362887605"><ele>632.4000000000001</ele><time>2026-03-24T10:45:51.973Z</time></trkpt><trkpt lat="30.067725389542225" lon="-5.5028256186385685"><ele>632.5999999999999</ele><time>2026-03-24T10:45:52.973Z</time></trkpt><trkpt lat="30.06781925907153" lon="-5.5027615498270075"><ele>632.8</ele><time>2026-03-24T10:45:53.973Z</time></trkpt><trkpt lat="30.06791121546883" lon="-5.502691290932474"><ele>633.0</ele><time>2026-03-24T10:45:54.973Z</time></trkpt><trkpt lat="30.068011502543303" lon="-5.502619326116983"><ele>633.0</ele><time>2026-03-24T10:45:55.973Z</time></trkpt><trkpt lat="30.068109231524765" lon="-5.502556553654375"><ele>633.0</ele><time>2026-03-24T10:45:56.973Z</time></trkpt><trkpt lat="30.068207535455283" lon="-5.502496817870214"><ele>633.0</ele><time>2026-03-24T10:45:57.973Z</time></trkpt><trkpt lat="30.068300934288125" lon="-5.5024375212039205"><ele>633.0</ele><time>2026-03-24T10:45:58.973Z</time></trkpt><trkpt lat="30.068390071818886" lon="-5.5023789115175346"><ele>633.0</ele><time>2026-03-24T10:45:59.973Z</time></trkpt><trkpt lat="30.06847395131718" lon="-5.502312001482722"><ele>632.6</ele><time>2026-03-24T10:46:00.973Z</time></trkpt><trkpt lat="30.06856131621739" lon="-5.502255140076653"><ele>632.1999999999999</ele><time>2026-03-24T10:46:01.973Z</time></trkpt><trkpt lat="30.068647343054113" lon="-5.502198106618168"><ele>631.8</ele><time>2026-03-24T10:46:02.973Z</time></trkpt><trkpt lat="30.068731942330714" lon="-5.502148702640925"><ele>631.4</ele><time>2026-03-24T10:46:03.973Z</time></trkpt><trkpt lat="30.068821827448176" lon="-5.502105523874838"><ele>631.0</ele><time>2026-03-24T10:46:04.973Z</time></trkpt><trkpt lat="30.06891849094693" lon="-5.502068757250669"><ele>631.0</ele><time>2026-03-24T10:46:05.973Z</time></trkpt><trkpt lat="30.069014072494014" lon="-5.502056646553398"><ele>631.0</ele><time>2026-03-24T10:46:06.973Z</time></trkpt><trkpt lat="30.06909562881128" lon="-5.50205803431598"><ele>631.0</ele><time>2026-03-24T10:46:07.973Z</time></trkpt><trkpt lat="30.069168615878002" lon="-5.502055296505926"><ele>631.0</ele><time>2026-03-24T10:46:08.973Z</time></trkpt><trkpt lat="30.06923279983489" lon="-5.502051574862787"><ele>631.0</ele><time>2026-03-24T10:46:09.973Z</time></trkpt><trkpt lat="30.069339550720066" lon="-5.5020351464799635"><ele>631.0</ele><time>2026-03-24T10:46:11.973Z</time></trkpt><trkpt lat="30.069458951618273" lon="-5.502035600924047"><ele>631.0</ele><time>2026-03-24T10:46:13.973Z</time></trkpt><trkpt lat="30.069523992661214" lon="-5.502033530051638"><ele>631.0</ele><time>2026-03-24T10:46:14.973Z</time></trkpt><trkpt lat="30.069588735190944" lon="-5.502019785483056"><ele>631.0</ele><time>2026-03-24T10:46:15.973Z</time></trkpt><trkpt lat="30.06965422219642" lon="-5.501996152919611"><ele>631.0</ele><time>2026-03-24T10:46:16.973Z</time></trkpt><trkpt lat="30.069721868601146" lon="-5.501973994991822"><ele>631.0</ele><time>2026-03-24T10:46:17.973Z</time></trkpt><trkpt lat="30.069798434100164" lon="-5.501947300861966"><ele>631.0</ele><time>2026-03-24T10:46:18.973Z</time></trkpt><trkpt lat="30.069864813902814" lon="-5.501909769100748"><ele>631.0</ele><time>2026-03-24T10:46:19.973Z</time></trkpt><trkpt lat="30.069941288482195" lon="-5.501859950465255"><ele>631.0</ele><time>2026-03-24T10:46:20.973Z</time></trkpt><trkpt lat="30.070013722019677" lon="-5.501805331322087"><ele>631.0</ele><time>2026-03-24T10:46:21.973Z</time></trkpt><trkpt lat="30.070085886134613" lon="-5.5017619457101485"><ele>631.0</ele><time>2026-03-24T10:46:22.973Z</time></trkpt><trkpt lat="30.070166266624362" lon="-5.501707126047616"><ele>631.0</ele><time>2026-03-24T10:46:23.973Z</time></trkpt><trkpt lat="30.070251397452324" lon="-5.501655042638409"><ele>631.0</ele><time>2026-03-24T10:46:24.973Z</time></trkpt><trkpt lat="30.070326718699906" lon="-5.501622504570359"><ele>631.0</ele><time>2026-03-24T10:46:25.973Z</time></trkpt><trkpt lat="30.07040037240397" lon="-5.501589969123935"><ele>631.0</ele><time>2026-03-24T10:46:26.973Z</time></trkpt><trkpt lat="30.070466520015383" lon="-5.501535956856244"><ele>631.0</ele><time>2026-03-24T10:46:27.973Z</time></trkpt><trkpt lat="30.070545498417296" lon="-5.501493849445333"><ele>631.0</ele><time>2026-03-24T10:46:28.973Z</time></trkpt><trkpt lat="30.07063629182553" lon="-5.5014741575691275"><ele>631.0</ele><time>2026-03-24T10:46:29.973Z</time></trkpt><trkpt lat="30.07072166132309" lon="-5.5014439016942465"><ele>631.0</ele><time>2026-03-24T10:46:30.973Z</time></trkpt><trkpt lat="30.07081119663321" lon="-5.50141510702237"><ele>631.0</ele><time>2026-03-24T10:46:31.973Z</time></trkpt><trkpt lat="30.070907711320316" lon="-5.501380752403719"><ele>630.8</ele><time>2026-03-24T10:46:32.973Z</time></trkpt><trkpt lat="30.071003198770573" lon="-5.501352577850187"><ele>630.6</ele><time>2026-03-24T10:46:33.973Z</time></trkpt><trkpt lat="30.07108891591761" lon="-5.501294018901116"><ele>630.4</ele><time>2026-03-24T10:46:34.973Z</time></trkpt><trkpt lat="30.071184139766206" lon="-5.501273069492004"><ele>630.2</ele><time>2026-03-24T10:46:35.973Z</time></trkpt><trkpt lat="30.071271061821783" lon="-5.5012282390027885"><ele>630.0</ele><time>2026-03-24T10:46:36.973Z</time></trkpt><trkpt lat="30.071343940428015" lon="-5.501167710503581"><ele>630.0</ele><time>2026-03-24T10:46:37.973Z</time></trkpt><trkpt lat="30.071424295361037" lon="-5.501114592169826"><ele>630.0</ele><time>2026-03-24T10:46:38.973Z</time></trkpt><trkpt lat="30.071498942465812" lon="-5.5010652769016515"><ele>630.0</ele><time>2026-03-24T10:46:39.973Z</time></trkpt><trkpt lat="30.071589595061212" lon="-5.50102363383484"><ele>630.0</ele><time>2026-03-24T10:46:40.973Z</time></trkpt><trkpt lat="30.071672487536276" lon="-5.500962925670261"><ele>630.0</ele><time>2026-03-24T10:46:41.973Z</time></trkpt><trkpt lat="30.07175604279563" lon="-5.500901987170948"><ele>629.6</ele><time>2026-03-24T10:46:42.973Z</time></trkpt><trkpt lat="30.071851868774004" lon="-5.500840433790046"><ele>629.2</ele><time>2026-03-24T10:46:43.973Z</time></trkpt><trkpt lat="30.071945347203247" lon="-5.50078672578841"><ele>628.8</ele><time>2026-03-24T10:46:44.973Z</time></trkpt><trkpt lat="30.072007720196897" lon="-5.500719434860566"><ele>628.4</ele><time>2026-03-24T10:46:45.973Z</time></trkpt><trkpt lat="30.072099471045064" lon="-5.5006794559074175"><ele>628.0</ele><time>2026-03-24T10:46:46.973Z</time></trkpt><trkpt lat="30.072180141591264" lon="-5.500619101645667"><ele>628.0</ele><time>2026-03-24T10:46:47.973Z</time></trkpt><trkpt lat="30.072250728161134" lon="-5.500559819309218"><ele>628.0</ele><time>2026-03-24T10:46:48.973Z</time></trkpt><trkpt lat="30.072314908060907" lon="-5.500515866522768"><ele>628.0</ele><time>2026-03-24T10:46:49.973Z</time></trkpt><trkpt lat="30.07236962359391" lon="-5.50045412415502"><ele>628.0</ele><time>2026-03-24T10:46:50.973Z</time></trkpt><trkpt lat="30.072425609565837" lon="-5.50036807971163"><ele>628.0</ele><time>2026-03-24T10:46:51.973Z</time></trkpt><trkpt lat="30.072465893805834" lon="-5.500279659380573"><ele>628.0</ele><time>2026-03-24T10:46:52.973Z</time></trkpt><trkpt lat="30.07250535087621" lon="-5.500184532331094"><ele>628.4</ele><time>2026-03-24T10:46:53.973Z</time></trkpt><trkpt lat="30.072574482623804" lon="-5.500114256221331"><ele>628.8</ele><time>2026-03-24T10:46:54.973Z</time></trkpt><trkpt lat="30.072646745184063" lon="-5.50006837365176"><ele>629.2</ele><time>2026-03-24T10:46:55.973Z</time></trkpt><trkpt lat="30.072734074755303" lon="-5.5000240030201715"><ele>629.6</ele><time>2026-03-24T10:46:56.973Z</time></trkpt><trkpt lat="30.072826528850275" lon="-5.499994609795104"><ele>630.0</ele><time>2026-03-24T10:46:57.973Z</time></trkpt><trkpt lat="30.072914346610006" lon="-5.499973221106604"><ele>630.0</ele><time>2026-03-24T10:46:58.973Z</time></trkpt><trkpt lat="30.073000959817747" lon="-5.499949357977465"><ele>630.0</ele><time>2026-03-24T10:46:59.973Z</time></trkpt><trkpt lat="30.073079845966973" lon="-5.499906957757808"><ele>630.0</ele><time>2026-03-24T10:47:00.973Z</time></trkpt><trkpt lat="30.07315670977461" lon="-5.499859851227799"><ele>630.0</ele><time>2026-03-24T10:47:01.973Z</time></trkpt><trkpt lat="30.073257912761992" lon="-5.499813213270135"><ele>630.0</ele><time>2026-03-24T10:47:02.973Z</time></trkpt><trkpt lat="30.07337237332001" lon="-5.499783762129139"><ele>630.0</ele><time>2026-03-24T10:47:03.973Z</time></trkpt><trkpt lat="30.073481522833195" lon="-5.499774921886566"><ele>630.0</ele><time>2026-03-24T10:47:04.973Z</time></trkpt><trkpt lat="30.07357291568191" lon="-5.499766199327041"><ele>630.0</ele><time>2026-03-24T10:47:05.973Z</time></trkpt><trkpt lat="30.073658534538872" lon="-5.499758318919971"><ele>630.0</ele><time>2026-03-24T10:47:06.973Z</time></trkpt><trkpt lat="30.073736450269468" lon="-5.499742063819107"><ele>630.0</ele><time>2026-03-24T10:47:07.973Z</time></trkpt><trkpt lat="30.073822760579233" lon="-5.499724186359113"><ele>630.0</ele><time>2026-03-24T10:47:08.973Z</time></trkpt><trkpt lat="30.073911630814308" lon="-5.499710543096939"><ele>630.0</ele><time>2026-03-24T10:47:09.973Z</time></trkpt><trkpt lat="30.07400779808679" lon="-5.4996954208937"><ele>630.0</ele><time>2026-03-24T10:47:10.973Z</time></trkpt><trkpt lat="30.07409877622339" lon="-5.499681677310271"><ele>630.0</ele><time>2026-03-24T10:47:11.973Z</time></trkpt><trkpt lat="30.07419893808182" lon="-5.499667332726991"><ele>630.0</ele><time>2026-03-24T10:47:12.973Z</time></trkpt><trkpt lat="30.074284785887105" lon="-5.49966242856906"><ele>630.0</ele><time>2026-03-24T10:47:13.973Z</time></trkpt><trkpt lat="30.074405468518187" lon="-5.499650497172829"><ele>630.0</ele><time>2026-03-24T10:47:14.973Z</time></trkpt><trkpt lat="30.0745191968698" lon="-5.499637990649993"><ele>630.0</ele><time>2026-03-24T10:47:15.973Z</time></trkpt><trkpt lat="30.074640155957557" lon="-5.499629784521973"><ele>630.0</ele><time>2026-03-24T10:47:16.973Z</time></trkpt><trkpt lat="30.074762842005608" lon="-5.499598636798577"><ele>630.0</ele><time>2026-03-24T10:47:17.973Z</time></trkpt><trkpt lat="30.07486978937081" lon="-5.4995732707346185"><ele>630.0</ele><time>2026-03-24T10:47:18.973Z</time></trkpt><trkpt lat="30.07495728651384" lon="-5.499563980298137"><ele>630.0</ele><time>2026-03-24T10:47:19.973Z</time></trkpt><trkpt lat="30.075028677332995" lon="-5.499562510244713"><ele>630.0</ele><time>2026-03-24T10:47:20.973Z</time></trkpt><trkpt lat="30.07510309816186" lon="-5.499563538342956"><ele>630.0</ele><time>2026-03-24T10:47:21.973Z</time></trkpt><trkpt lat="30.07519363612282" lon="-5.499556333332913"><ele>630.0</ele><time>2026-03-24T10:47:22.973Z</time></trkpt><trkpt lat="30.075290000917228" lon="-5.499546546412961"><ele>630.0</ele><time>2026-03-24T10:47:23.973Z</time></trkpt><trkpt lat="30.075378920598958" lon="-5.499540184649056"><ele>630.0</ele><time>2026-03-24T10:47:24.973Z</time></trkpt><trkpt lat="30.075458298898862" lon="-5.499536729459318"><ele>630.0</ele><time>2026-03-24T10:47:25.973Z</time></trkpt><trkpt lat="30.07553001738262" lon="-5.499535565459389"><ele>630.0</ele><time>2026-03-24T10:47:26.973Z</time></trkpt><trkpt lat="30.07560411265923" lon="-5.499511058033222"><ele>630.0</ele><time>2026-03-24T10:47:27.973Z</time></trkpt><trkpt lat="30.07567185794742" lon="-5.499460752431376"><ele>630.0</ele><time>2026-03-24T10:47:28.973Z</time></trkpt><trkpt lat="30.075744436220965" lon="-5.499418511015937"><ele>630.2</ele><time>2026-03-24T10:47:29.973Z</time></trkpt><trkpt lat="30.07582541974673" lon="-5.499392549390031"><ele>630.4</ele><time>2026-03-24T10:47:30.973Z</time></trkpt><trkpt lat="30.07590908592906" lon="-5.4993604678277626"><ele>630.6</ele><time>2026-03-24T10:47:31.973Z</time></trkpt><trkpt lat="30.07598388039774" lon="-5.49935233168147"><ele>630.8</ele><time>2026-03-24T10:47:32.973Z</time></trkpt><trkpt lat="30.07611429825557" lon="-5.499363218396868"><ele>631.0</ele><time>2026-03-24T10:47:34.973Z</time></trkpt><trkpt lat="30.0761931701491" lon="-5.499376989261731"><ele>631.0</ele><time>2026-03-24T10:47:35.973Z</time></trkpt><trkpt lat="30.076258501249118" lon="-5.499368294224984"><ele>631.0</ele><time>2026-03-24T10:47:36.973Z</time></trkpt><trkpt lat="30.07637496164658" lon="-5.49936551979015"><ele>631.0</ele><time>2026-03-24T10:47:38.973Z</time></trkpt><trkpt lat="30.076439765548383" lon="-5.499365211873397"><ele>631.0</ele><time>2026-03-24T10:47:39.973Z</time></trkpt><trkpt lat="30.076504310826955" lon="-5.499369696971297"><ele>631.0</ele><time>2026-03-24T10:47:40.973Z</time></trkpt><trkpt lat="30.07657896930948" lon="-5.4993527910044095"><ele>631.0</ele><time>2026-03-24T10:47:41.973Z</time></trkpt><trkpt lat="30.076666716379222" lon="-5.4993126856361485"><ele>630.8</ele><time>2026-03-24T10:47:42.973Z</time></trkpt><trkpt lat="30.07675820617121" lon="-5.499276637219466"><ele>630.6</ele><time>2026-03-24T10:47:43.973Z</time></trkpt><trkpt lat="30.076847840523545" lon="-5.499269646163458"><ele>630.4</ele><time>2026-03-24T10:47:44.973Z</time></trkpt><trkpt lat="30.07694515463613" lon="-5.4992899284736145"><ele>630.2</ele><time>2026-03-24T10:47:45.973Z</time></trkpt><trkpt lat="30.077037981691397" lon="-5.499280352525021"><ele>630.0</ele><time>2026-03-24T10:47:46.973Z</time></trkpt><trkpt lat="30.077122233330712" lon="-5.499260642751167"><ele>630.0</ele><time>2026-03-24T10:47:47.973Z</time></trkpt><trkpt lat="30.077209316134994" lon="-5.499244140104775"><ele>630.0</ele><time>2026-03-24T10:47:48.973Z</time></trkpt><trkpt lat="30.077288635792232" lon="-5.499230188082412"><ele>630.0</ele><time>2026-03-24T10:47:49.973Z</time></trkpt><trkpt lat="30.07737438889739" lon="-5.499220167177903"><ele>630.0</ele><time>2026-03-24T10:47:50.973Z</time></trkpt><trkpt lat="30.07745734012359" lon="-5.499237712419305"><ele>630.0</ele><time>2026-03-24T10:47:51.973Z</time></trkpt><trkpt lat="30.07754845631877" lon="-5.499267654129373"><ele>630.0</ele><time>2026-03-24T10:47:52.973Z</time></trkpt><trkpt lat="30.07763618308469" lon="-5.499272417524818"><ele>630.0</ele><time>2026-03-24T10:47:53.973Z</time></trkpt><trkpt lat="30.07772531892091" lon="-5.499260006818139"><ele>630.0</ele><time>2026-03-24T10:47:54.973Z</time></trkpt><trkpt lat="30.077797694098297" lon="-5.499240900864987"><ele>630.0</ele><time>2026-03-24T10:47:55.973Z</time></trkpt><trkpt lat="30.077888053440965" lon="-5.499228790428198"><ele>630.0</ele><time>2026-03-24T10:47:56.973Z</time></trkpt><trkpt lat="30.07798617167348" lon="-5.499242371102308"><ele>630.0</ele><time>2026-03-24T10:47:57.973Z</time></trkpt><trkpt lat="30.07808612963483" lon="-5.499256347165991"><ele>630.0</ele><time>2026-03-24T10:47:58.973Z</time></trkpt><trkpt lat="30.078196875785167" lon="-5.499263170876143"><ele>630.0</ele><time>2026-03-24T10:47:59.973Z</time></trkpt><trkpt lat="30.078302404773098" lon="-5.499246637433181"><ele>630.0</ele><time>2026-03-24T10:48:00.973Z</time></trkpt><trkpt lat="30.078397159637365" lon="-5.499214639985114"><ele>630.0</ele><time>2026-03-24T10:48:01.973Z</time></trkpt><trkpt lat="30.078475714670084" lon="-5.499183574205214"><ele>630.0</ele><time>2026-03-24T10:48:02.973Z</time></trkpt><trkpt lat="30.07854506451674" lon="-5.4991738449664656"><ele>630.0</ele><time>2026-03-24T10:48:03.973Z</time></trkpt><trkpt lat="30.07861321435053" lon="-5.499177396524066"><ele>630.0</ele><time>2026-03-24T10:48:04.973Z</time></trkpt><trkpt lat="30.078684252363242" lon="-5.49920235056519"><ele>630.0</ele><time>2026-03-24T10:48:05.973Z</time></trkpt><trkpt lat="30.078756110159226" lon="-5.49923639225802"><ele>630.0</ele><time>2026-03-24T10:48:06.973Z</time></trkpt><trkpt lat="30.078827406683207" lon="-5.499263299998226"><ele>630.0</ele><time>2026-03-24T10:48:07.973Z</time></trkpt><trkpt lat="30.07890042207554" lon="-5.4992850487310685"><ele>630.0</ele><time>2026-03-24T10:48:08.973Z</time></trkpt><trkpt lat="30.078983414369855" lon="-5.499317936487053"><ele>630.0</ele><time>2026-03-24T10:48:09.973Z</time></trkpt><trkpt lat="30.079072023044194" lon="-5.4993649979528145"><ele>630.0</ele><time>2026-03-24T10:48:10.973Z</time></trkpt><trkpt lat="30.079162866665083" lon="-5.499394300018733"><ele>630.0</ele><time>2026-03-24T10:48:11.973Z</time></trkpt><trkpt lat="30.0792519533396" lon="-5.499403091558179"><ele>630.0</ele><time>2026-03-24T10:48:12.973Z</time></trkpt><trkpt lat="30.07934133205078" lon="-5.49940036500645"><ele>630.0</ele><time>2026-03-24T10:48:13.973Z</time></trkpt><trkpt lat="30.079430322295792" lon="-5.4993925701744235"><ele>630.2</ele><time>2026-03-24T10:48:14.973Z</time></trkpt><trkpt lat="30.079517405992853" lon="-5.499387357777816"><ele>630.4</ele><time>2026-03-24T10:48:15.973Z</time></trkpt><trkpt lat="30.079610212720684" lon="-5.49937936110372"><ele>630.6</ele><time>2026-03-24T10:48:16.973Z</time></trkpt><trkpt lat="30.07972480918072" lon="-5.499377993703678"><ele>630.8</ele><time>2026-03-24T10:48:17.972Z</time></trkpt><trkpt lat="30.079826555511854" lon="-5.499383623875461"><ele>631.0</ele><time>2026-03-24T10:48:18.972Z</time></trkpt><trkpt lat="30.07994403311993" lon="-5.499399294879428"><ele>631.0</ele><time>2026-03-24T10:48:19.972Z</time></trkpt><trkpt lat="30.08006050942221" lon="-5.499408352116202"><ele>631.0</ele><time>2026-03-24T10:48:20.972Z</time></trkpt><trkpt lat="30.080177456303918" lon="-5.4994151151088655"><ele>631.0</ele><time>2026-03-24T10:48:21.972Z</time></trkpt><trkpt lat="30.08030239319757" lon="-5.499412676929486"><ele>631.0</ele><time>2026-03-24T10:48:22.972Z</time></trkpt><trkpt lat="30.080429729834947" lon="-5.499395309988396"><ele>631.0</ele><time>2026-03-24T10:48:23.972Z</time></trkpt><trkpt lat="30.08055645454694" lon="-5.499383918957901"><ele>631.0</ele><time>2026-03-24T10:48:24.972Z</time></trkpt><trkpt lat="30.080673087285046" lon="-5.499400011283235"><ele>631.0</ele><time>2026-03-24T10:48:25.972Z</time></trkpt><trkpt lat="30.080773116767535" lon="-5.499441424920079"><ele>631.0</ele><time>2026-03-24T10:48:26.972Z</time></trkpt><trkpt lat="30.080879612104123" lon="-5.4994669220071986"><ele>631.0</ele><time>2026-03-24T10:48:27.972Z</time></trkpt><trkpt lat="30.080985349863457" lon="-5.4994623604005985"><ele>631.0</ele><time>2026-03-24T10:48:28.972Z</time></trkpt><trkpt lat="30.08109291410413" lon="-5.4994736257581645"><ele>631.0</ele><time>2026-03-24T10:48:29.972Z</time></trkpt><trkpt lat="30.081202681269666" lon="-5.499495348622381"><ele>631.0</ele><time>2026-03-24T10:48:30.972Z</time></trkpt><trkpt lat="30.081310124007004" lon="-5.499508900561231"><ele>631.0</ele><time>2026-03-24T10:48:31.972Z</time></trkpt><trkpt lat="30.081394079858534" lon="-5.499521786767501"><ele>631.0</ele><time>2026-03-24T10:48:32.972Z</time></trkpt><trkpt lat="30.0814717308691" lon="-5.499559875623048"><ele>631.0</ele><time>2026-03-24T10:48:33.972Z</time></trkpt><trkpt lat="30.081572045125093" lon="-5.499572745570076"><ele>631.0</ele><time>2026-03-24T10:48:34.972Z</time></trkpt><trkpt lat="30.08168232212149" lon="-5.499579529513678"><ele>631.0</ele><time>2026-03-24T10:48:35.972Z</time></trkpt><trkpt lat="30.081781428645243" lon="-5.499586039087685"><ele>631.0</ele><time>2026-03-24T10:48:36.972Z</time></trkpt><trkpt lat="30.08186661680236" lon="-5.499593505600987"><ele>631.0</ele><time>2026-03-24T10:48:37.972Z</time></trkpt><trkpt lat="30.08196898547718" lon="-5.49955465772974"><ele>631.0</ele><time>2026-03-24T10:48:39.972Z</time></trkpt><trkpt lat="30.082029579004605" lon="-5.499493918150661"><ele>631.0</ele><time>2026-03-24T10:48:40.972Z</time></trkpt><trkpt lat="30.082146996150577" lon="-5.499495433389307"><ele>631.0</ele><time>2026-03-24T10:48:42.972Z</time></trkpt><trkpt lat="30.082194267818892" lon="-5.499571423775851"><ele>631.0</ele><time>2026-03-24T10:48:43.972Z</time></trkpt><trkpt lat="30.082255820734176" lon="-5.49964348215253"><ele>631.0</ele><time>2026-03-24T10:48:44.972Z</time></trkpt><trkpt lat="30.08234657532458" lon="-5.499663795671705"><ele>631.0</ele><time>2026-03-24T10:48:45.972Z</time></trkpt><trkpt lat="30.082469087448438" lon="-5.4996620421417735"><ele>631.0</ele><time>2026-03-24T10:48:46.972Z</time></trkpt><trkpt lat="30.08261486564853" lon="-5.499673363564948"><ele>631.0</ele><time>2026-03-24T10:48:47.972Z</time></trkpt><trkpt lat="30.0827771329129" lon="-5.499701495291708"><ele>630.6666666666667</ele><time>2026-03-24T10:48:48.972Z</time></trkpt><trkpt lat="30.082954343836853" lon="-5.499741848497977"><ele>630.3333333333334</ele><time>2026-03-24T10:48:49.972Z</time></trkpt><trkpt lat="30.083104173807772" lon="-5.499787144040521"><ele>630.0</ele><time>2026-03-24T10:48:50.972Z</time></trkpt><trkpt lat="30.083215138074618" lon="-5.499828853924601"><ele>629.4</ele><time>2026-03-24T10:48:51.972Z</time></trkpt><trkpt lat="30.083319103263616" lon="-5.499861562672634"><ele>628.8</ele><time>2026-03-24T10:48:52.972Z</time></trkpt><trkpt lat="30.083410333939913" lon="-5.499890741533227"><ele>628.2</ele><time>2026-03-24T10:48:53.972Z</time></trkpt><trkpt lat="30.08350059344713" lon="-5.499923858128694"><ele>627.6</ele><time>2026-03-24T10:48:54.972Z</time></trkpt><trkpt lat="30.083597479761913" lon="-5.49995969703026"><ele>627.0</ele><time>2026-03-24T10:48:55.972Z</time></trkpt><trkpt lat="30.08370602632808" lon="-5.499971530082469"><ele>627.0</ele><time>2026-03-24T10:48:56.972Z</time></trkpt><trkpt lat="30.083813699488744" lon="-5.499961845776908"><ele>627.0</ele><time>2026-03-24T10:48:57.972Z</time></trkpt><trkpt lat="30.083912421120317" lon="-5.499955171144987"><ele>627.0</ele><time>2026-03-24T10:48:58.972Z</time></trkpt><trkpt lat="30.083999146240895" lon="-5.499923865031621"><ele>627.0</ele><time>2026-03-24T10:48:59.972Z</time></trkpt><trkpt lat="30.084102150207563" lon="-5.499887219620262"><ele>627.0</ele><time>2026-03-24T10:49:00.972Z</time></trkpt><trkpt lat="30.08420828020538" lon="-5.499862750517068"><ele>627.2857142857143</ele><time>2026-03-24T10:49:01.972Z</time></trkpt><trkpt lat="30.08429597134131" lon="-5.499855218151656"><ele>627.5714285714286</ele><time>2026-03-24T10:49:02.972Z</time></trkpt><trkpt lat="30.084359538218663" lon="-5.499855205684717"><ele>627.8571428571429</ele><time>2026-03-24T10:49:03.972Z</time></trkpt><trkpt lat="30.08442147631409" lon="-5.499838743092018"><ele>628.1428571428571</ele><time>2026-03-24T10:49:04.972Z</time></trkpt><trkpt lat="30.08449393094747" lon="-5.499842116018554"><ele>628.4285714285714</ele><time>2026-03-24T10:49:05.972Z</time></trkpt><trkpt lat="30.084565553142202" lon="-5.499851594371403"><ele>628.7142857142857</ele><time>2026-03-24T10:49:06.972Z</time></trkpt><trkpt lat="30.084634653384068" lon="-5.4998579896825355"><ele>629.0</ele><time>2026-03-24T10:49:07.972Z</time></trkpt><trkpt lat="30.084749424786626" lon="-5.499928002646578"><ele>629.0</ele><time>2026-03-24T10:49:09.972Z</time></trkpt><trkpt lat="30.084823347802235" lon="-5.499972424887053"><ele>629.0</ele><time>2026-03-24T10:49:10.972Z</time></trkpt><trkpt lat="30.084892482243255" lon="-5.500005290592657"><ele>629.0</ele><time>2026-03-24T10:49:11.972Z</time></trkpt><trkpt lat="30.08496718244946" lon="-5.500045424506043"><ele>629.0</ele><time>2026-03-24T10:49:12.972Z</time></trkpt><trkpt lat="30.085040099562573" lon="-5.500059973370404"><ele>629.0</ele><time>2026-03-24T10:49:13.972Z</time></trkpt><trkpt lat="30.08512834182354" lon="-5.500079285717809"><ele>629.0</ele><time>2026-03-24T10:49:14.972Z</time></trkpt><trkpt lat="30.085210939353004" lon="-5.500077438941188"><ele>629.4</ele><time>2026-03-24T10:49:15.972Z</time></trkpt><trkpt lat="30.085331739464902" lon="-5.500117443761343"><ele>629.8</ele><time>2026-03-24T10:49:17.972Z</time></trkpt><trkpt lat="30.085409415603188" lon="-5.500156654044447"><ele>630.2</ele><time>2026-03-24T10:49:18.972Z</time></trkpt><trkpt lat="30.08549555259346" lon="-5.500178710389255"><ele>630.6</ele><time>2026-03-24T10:49:19.972Z</time></trkpt><trkpt lat="30.08557666756575" lon="-5.500177809059571"><ele>631.0</ele><time>2026-03-24T10:49:20.972Z</time></trkpt><trkpt lat="30.085663260571472" lon="-5.5001690139822"><ele>631.0</ele><time>2026-03-24T10:49:21.972Z</time></trkpt><trkpt lat="30.085756213662613" lon="-5.500155711851579"><ele>631.0</ele><time>2026-03-24T10:49:22.972Z</time></trkpt><trkpt lat="30.085844650455055" lon="-5.500151614580204"><ele>631.0</ele><time>2026-03-24T10:49:23.972Z</time></trkpt><trkpt lat="30.085935842908018" lon="-5.500171508495961"><ele>631.0</ele><time>2026-03-24T10:49:24.972Z</time></trkpt><trkpt lat="30.08603028008308" lon="-5.500187792310565"><ele>631.0</ele><time>2026-03-24T10:49:25.972Z</time></trkpt><trkpt lat="30.08613247241497" lon="-5.500206223821526"><ele>631.4</ele><time>2026-03-24T10:49:26.972Z</time></trkpt><trkpt lat="30.08623011773941" lon="-5.5002155576704945"><ele>631.8</ele><time>2026-03-24T10:49:27.972Z</time></trkpt><trkpt lat="30.086335221243573" lon="-5.500223020889658"><ele>632.1999999999999</ele><time>2026-03-24T10:49:28.972Z</time></trkpt><trkpt lat="30.086440226821047" lon="-5.50022918611736"><ele>632.6</ele><time>2026-03-24T10:49:29.972Z</time></trkpt><trkpt lat="30.086532632658287" lon="-5.500243827331908"><ele>633.0</ele><time>2026-03-24T10:49:30.972Z</time></trkpt><trkpt lat="30.086632925220655" lon="-5.500252787618351"><ele>633.0</ele><time>2026-03-24T10:49:31.972Z</time></trkpt><trkpt lat="30.086728149017606" lon="-5.500258860179407"><ele>633.0</ele><time>2026-03-24T10:49:32.972Z</time></trkpt><trkpt lat="30.08683034199853" lon="-5.500274038299577"><ele>633.0</ele><time>2026-03-24T10:49:33.972Z</time></trkpt><trkpt lat="30.08692692123436" lon="-5.500297505171549"><ele>633.0</ele><time>2026-03-24T10:49:34.972Z</time></trkpt><trkpt lat="30.087025952756964" lon="-5.500332233460163"><ele>633.0</ele><time>2026-03-24T10:49:35.972Z</time></trkpt><trkpt lat="30.08712982204434" lon="-5.500373073259098"><ele>633.0</ele><time>2026-03-24T10:49:36.972Z</time></trkpt><trkpt lat="30.08721007475286" lon="-5.500407585182215"><ele>633.0</ele><time>2026-03-24T10:49:37.972Z</time></trkpt><trkpt lat="30.087298221906238" lon="-5.500435028187109"><ele>633.0</ele><time>2026-03-24T10:49:38.972Z</time></trkpt><trkpt lat="30.08737940106618" lon="-5.500454182155795"><ele>633.0</ele><time>2026-03-24T10:49:39.972Z</time></trkpt><trkpt lat="30.08745130044986" lon="-5.500471405958719"><ele>633.0</ele><time>2026-03-24T10:49:40.972Z</time></trkpt><trkpt lat="30.087533503073203" lon="-5.500501827308411"><ele>633.0</ele><time>2026-03-24T10:49:41.972Z</time></trkpt><trkpt lat="30.087616725430287" lon="-5.500538314918017"><ele>632.6</ele><time>2026-03-24T10:49:42.972Z</time></trkpt><trkpt lat="30.087700947007402" lon="-5.500570283642042"><ele>632.1999999999999</ele><time>2026-03-24T10:49:43.972Z</time></trkpt><trkpt lat="30.087802723679264" lon="-5.500615896315808"><ele>631.8</ele><time>2026-03-24T10:49:44.972Z</time></trkpt><trkpt lat="30.0878968946971" lon="-5.500643801177591"><ele>631.4</ele><time>2026-03-24T10:49:45.972Z</time></trkpt><trkpt lat="30.08799266529903" lon="-5.500660339160724"><ele>631.0</ele><time>2026-03-24T10:49:46.972Z</time></trkpt><trkpt lat="30.08808606342117" lon="-5.500679968203749"><ele>631.0</ele><time>2026-03-24T10:49:47.972Z</time></trkpt><trkpt lat="30.08817234271711" lon="-5.500684096109037"><ele>631.0</ele><time>2026-03-24T10:49:48.972Z</time></trkpt><trkpt lat="30.08825322113305" lon="-5.500670351954166"><ele>631.0</ele><time>2026-03-24T10:49:49.972Z</time></trkpt><trkpt lat="30.088329477139684" lon="-5.500646951373936"><ele>631.0</ele><time>2026-03-24T10:49:50.972Z</time></trkpt><trkpt lat="30.08840682432033" lon="-5.500631183611106"><ele>631.0</ele><time>2026-03-24T10:49:51.972Z</time></trkpt><trkpt lat="30.088491901155685" lon="-5.500633638502811"><ele>631.0</ele><time>2026-03-24T10:49:52.972Z</time></trkpt><trkpt lat="30.08858080241926" lon="-5.500661827105253"><ele>631.0</ele><time>2026-03-24T10:49:53.972Z</time></trkpt><trkpt lat="30.088661582067438" lon="-5.500713334447338"><ele>631.0</ele><time>2026-03-24T10:49:54.972Z</time></trkpt><trkpt lat="30.088737422288013" lon="-5.500761619983312"><ele>631.0</ele><time>2026-03-24T10:49:55.972Z</time></trkpt><trkpt lat="30.08881833167699" lon="-5.500811088934485"><ele>631.0</ele><time>2026-03-24T10:49:56.972Z</time></trkpt><trkpt lat="30.088892999854238" lon="-5.500844635871027"><ele>631.0</ele><time>2026-03-24T10:49:57.972Z</time></trkpt><trkpt lat="30.08897590493929" lon="-5.500869803158527"><ele>631.0</ele><time>2026-03-24T10:49:58.972Z</time></trkpt><trkpt lat="30.08905670183374" lon="-5.500886519977091"><ele>631.4</ele><time>2026-03-24T10:49:59.972Z</time></trkpt><trkpt lat="30.089140123623753" lon="-5.500895991098633"><ele>631.8</ele><time>2026-03-24T10:50:00.972Z</time></trkpt><trkpt lat="30.089240479523014" lon="-5.5009091478365955"><ele>632.1999999999999</ele><time>2026-03-24T10:50:01.972Z</time></trkpt><trkpt lat="30.089339934337406" lon="-5.500911509996904"><ele>632.6</ele><time>2026-03-24T10:50:02.972Z</time></trkpt><trkpt lat="30.08944093815876" lon="-5.500907272014"><ele>633.0</ele><time>2026-03-24T10:50:03.972Z</time></trkpt><trkpt lat="30.089543488015924" lon="-5.500910722428511"><ele>633.0</ele><time>2026-03-24T10:50:04.972Z</time></trkpt><trkpt lat="30.089631031937248" lon="-5.500922402384046"><ele>633.0</ele><time>2026-03-24T10:50:05.972Z</time></trkpt><trkpt lat="30.08969588720752" lon="-5.500926029360842"><ele>633.0</ele><time>2026-03-24T10:50:06.972Z</time></trkpt><trkpt lat="30.089760723717863" lon="-5.500931620901532"><ele>633.0</ele><time>2026-03-24T10:50:07.972Z</time></trkpt><trkpt lat="30.089886740104323" lon="-5.500936746360808"><ele>633.0</ele><time>2026-03-24T10:50:09.972Z</time></trkpt><trkpt lat="30.089954733095826" lon="-5.500968753041985"><ele>633.0</ele><time>2026-03-24T10:50:10.972Z</time></trkpt><trkpt lat="30.090028268428945" lon="-5.501017115933436"><ele>633.0</ele><time>2026-03-24T10:50:11.972Z</time></trkpt><trkpt lat="30.090104129299068" lon="-5.501050381465702"><ele>633.0</ele><time>2026-03-24T10:50:12.972Z</time></trkpt><trkpt lat="30.090197883173385" lon="-5.501048992160393"><ele>633.0</ele><time>2026-03-24T10:50:13.972Z</time></trkpt><trkpt lat="30.090289914307377" lon="-5.501039731352879"><ele>633.0</ele><time>2026-03-24T10:50:14.972Z</time></trkpt><trkpt lat="30.090388016450866" lon="-5.5010198746731875"><ele>633.0</ele><time>2026-03-24T10:50:15.972Z</time></trkpt><trkpt lat="30.090483282591933" lon="-5.500991307545726"><ele>633.0</ele><time>2026-03-24T10:50:16.972Z</time></trkpt><trkpt lat="30.0905741288895" lon="-5.500972818419618"><ele>633.0</ele><time>2026-03-24T10:50:17.972Z</time></trkpt><trkpt lat="30.09068032464021" lon="-5.500972262470747"><ele>633.0</ele><time>2026-03-24T10:50:18.972Z</time></trkpt><trkpt lat="30.09077409930976" lon="-5.500976452495768"><ele>633.0</ele><time>2026-03-24T10:50:19.972Z</time></trkpt><trkpt lat="30.090879272313035" lon="-5.500971710528249"><ele>633.0</ele><time>2026-03-24T10:50:20.972Z</time></trkpt><trkpt lat="30.090973491466716" lon="-5.500977832304127"><ele>632.5</ele><time>2026-03-24T10:50:21.972Z</time></trkpt><trkpt lat="30.091065943794945" lon="-5.500989866713599"><ele>632.0</ele><time>2026-03-24T10:50:22.972Z</time></trkpt><trkpt lat="30.091152695906388" lon="-5.500997590076927"><ele>631.5</ele><time>2026-03-24T10:50:23.972Z</time></trkpt><trkpt lat="30.09123333944666" lon="-5.501006846251591"><ele>631.0</ele><time>2026-03-24T10:50:24.972Z</time></trkpt><trkpt lat="30.091307615106516" lon="-5.501030494779834"><ele>630.5</ele><time>2026-03-24T10:50:25.972Z</time></trkpt><trkpt lat="30.091384130481835" lon="-5.501033474154667"><ele>630.0</ele><time>2026-03-24T10:50:26.972Z</time></trkpt><trkpt lat="30.091467096268644" lon="-5.501021760813479"><ele>630.0</ele><time>2026-03-24T10:50:27.972Z</time></trkpt><trkpt lat="30.091549672461902" lon="-5.501009481574199"><ele>630.0</ele><time>2026-03-24T10:50:28.972Z</time></trkpt><trkpt lat="30.09162444303883" lon="-5.5010110601264595"><ele>630.0</ele><time>2026-03-24T10:50:29.972Z</time></trkpt><trkpt lat="30.091691217024366" lon="-5.500999282027645"><ele>630.0</ele><time>2026-03-24T10:50:30.972Z</time></trkpt><trkpt lat="30.091782254260465" lon="-5.500991352645415"><ele>630.0</ele><time>2026-03-24T10:50:31.972Z</time></trkpt><trkpt lat="30.091866987910663" lon="-5.500985770207467"><ele>630.0</ele><time>2026-03-24T10:50:32.972Z</time></trkpt><trkpt lat="30.091965825225568" lon="-5.5010282589303605"><ele>630.4</ele><time>2026-03-24T10:50:34.972Z</time></trkpt><trkpt lat="30.092087189830426" lon="-5.501082779278182"><ele>630.8</ele><time>2026-03-24T10:50:36.972Z</time></trkpt><trkpt lat="30.092149894556744" lon="-5.5011134468410585"><ele>631.2</ele><time>2026-03-24T10:50:37.972Z</time></trkpt><trkpt lat="30.092228603409406" lon="-5.501148781620428"><ele>631.6</ele><time>2026-03-24T10:50:38.972Z</time></trkpt><trkpt lat="30.09231029094716" lon="-5.501189089773884"><ele>632.0</ele><time>2026-03-24T10:50:39.972Z</time></trkpt><trkpt lat="30.09238467579997" lon="-5.501228173162528"><ele>632.0</ele><time>2026-03-24T10:50:40.972Z</time></trkpt><trkpt lat="30.092470576831932" lon="-5.501252045833701"><ele>632.0</ele><time>2026-03-24T10:50:41.971Z</time></trkpt><trkpt lat="30.092547330615574" lon="-5.501268900504279"><ele>632.0</ele><time>2026-03-24T10:50:42.971Z</time></trkpt><trkpt lat="30.092628280499028" lon="-5.501292372166596"><ele>632.0</ele><time>2026-03-24T10:50:43.971Z</time></trkpt><trkpt lat="30.09270672585853" lon="-5.50131190322485"><ele>632.0</ele><time>2026-03-24T10:50:44.971Z</time></trkpt><trkpt lat="30.09279555786604" lon="-5.501333839517353"><ele>632.0</ele><time>2026-03-24T10:50:45.971Z</time></trkpt><trkpt lat="30.092876139135818" lon="-5.5013542847628525"><ele>632.0</ele><time>2026-03-24T10:50:46.971Z</time></trkpt><trkpt lat="30.0929513379411" lon="-5.501366960908703"><ele>632.0</ele><time>2026-03-24T10:50:47.97Z</time></trkpt><trkpt lat="30.093062513928974" lon="-5.5013553819482635"><ele>632.0</ele><time>2026-03-24T10:50:49.97Z</time></trkpt><trkpt lat="30.09312697875982" lon="-5.5013682366768375"><ele>632.0</ele><time>2026-03-24T10:53:02.965Z</time></trkpt><trkpt lat="30.093186759464807" lon="-5.501393849681889"><ele>632.0</ele><time>2026-03-24T10:53:04.965Z</time></trkpt><trkpt lat="30.093245841030402" lon="-5.5014755627306915"><ele>632.0</ele><time>2026-03-24T10:53:06.965Z</time></trkpt><trkpt lat="30.0933527309467" lon="-5.501556362860919"><ele>632.2</ele><time>2026-03-24T10:53:08.965Z</time></trkpt><trkpt lat="30.09342532192834" lon="-5.501605325155612"><ele>632.4000000000001</ele><time>2026-03-24T10:53:09.965Z</time></trkpt><trkpt lat="30.093513094904274" lon="-5.501633651852659"><ele>632.5999999999999</ele><time>2026-03-24T10:53:10.965Z</time></trkpt><trkpt lat="30.093600794328452" lon="-5.501631168449887"><ele>632.8</ele><time>2026-03-24T10:53:11.965Z</time></trkpt><trkpt lat="30.0936963331804" lon="-5.501621172617279"><ele>633.0</ele><time>2026-03-24T10:53:12.964Z</time></trkpt><trkpt lat="30.09378957961537" lon="-5.501625358799695"><ele>633.0</ele><time>2026-03-24T10:53:13.964Z</time></trkpt><trkpt lat="30.093881302603858" lon="-5.501637819018883"><ele>633.0</ele><time>2026-03-24T10:53:14.964Z</time></trkpt><trkpt lat="30.09397999971845" lon="-5.501655773056819"><ele>633.0</ele><time>2026-03-24T10:53:15.964Z</time></trkpt><trkpt lat="30.09405835515867" lon="-5.501686061537"><ele>633.0</ele><time>2026-03-24T10:53:16.964Z</time></trkpt><trkpt lat="30.094134444831898" lon="-5.501705233486115"><ele>633.0</ele><time>2026-03-24T10:53:17.964Z</time></trkpt><trkpt lat="30.094208793682824" lon="-5.501716168131918"><ele>633.0</ele><time>2026-03-24T10:53:18.964Z</time></trkpt><trkpt lat="30.094279049568613" lon="-5.501690851469092"><ele>633.0</ele><time>2026-03-24T10:53:19.964Z</time></trkpt><trkpt lat="30.094348575594754" lon="-5.501650450492427"><ele>633.0</ele><time>2026-03-24T10:53:20.964Z</time></trkpt><trkpt lat="30.09441146574077" lon="-5.50159407637451"><ele>633.0</ele><time>2026-03-24T10:53:21.964Z</time></trkpt><trkpt lat="30.09448753316166" lon="-5.501558185061481"><ele>633.0</ele><time>2026-03-24T10:53:22.964Z</time></trkpt><trkpt lat="30.094583801459397" lon="-5.501557758872735"><ele>633.0</ele><time>2026-03-24T10:53:23.964Z</time></trkpt><trkpt lat="30.094682778044792" lon="-5.501553193364787"><ele>633.0</ele><time>2026-03-24T10:53:24.964Z</time></trkpt><trkpt lat="30.09477547895471" lon="-5.5015232930123"><ele>633.0</ele><time>2026-03-24T10:53:25.964Z</time></trkpt><trkpt lat="30.094869332475653" lon="-5.501489479792072"><ele>633.0</ele><time>2026-03-24T10:53:26.964Z</time></trkpt><trkpt lat="30.09495953350251" lon="-5.501459409267693"><ele>633.0</ele><time>2026-03-24T10:53:27.964Z</time></trkpt><trkpt lat="30.095046929614902" lon="-5.501448103441049"><ele>633.0</ele><time>2026-03-24T10:53:28.964Z</time></trkpt><trkpt lat="30.09513683229117" lon="-5.501431690068319"><ele>633.0</ele><time>2026-03-24T10:53:29.964Z</time></trkpt><trkpt lat="30.09524046977038" lon="-5.501416522188568"><ele>632.6</ele><time>2026-03-24T10:53:30.964Z</time></trkpt><trkpt lat="30.09534067525059" lon="-5.501399446244551"><ele>632.1999999999999</ele><time>2026-03-24T10:53:31.964Z</time></trkpt><trkpt lat="30.095444775493434" lon="-5.501397192198628"><ele>631.8</ele><time>2026-03-24T10:53:32.964Z</time></trkpt><trkpt lat="30.095541125747605" lon="-5.501396816940396"><ele>631.4</ele><time>2026-03-24T10:53:33.964Z</time></trkpt><trkpt lat="30.0956505854913" lon="-5.501386344664445"><ele>631.0</ele><time>2026-03-24T10:53:34.964Z</time></trkpt><trkpt lat="30.095743789546102" lon="-5.501369178898437"><ele>631.2</ele><time>2026-03-24T10:53:35.964Z</time></trkpt><trkpt lat="30.095837779072358" lon="-5.501354848684338"><ele>631.4000000000001</ele><time>2026-03-24T10:53:36.964Z</time></trkpt><trkpt lat="30.095927750393578" lon="-5.5013578056816215"><ele>631.6</ele><time>2026-03-24T10:53:37.964Z</time></trkpt><trkpt lat="30.09601996301247" lon="-5.501380841723717"><ele>631.8000000000001</ele><time>2026-03-24T10:53:38.964Z</time></trkpt><trkpt lat="30.09610506652478" lon="-5.501416770576244"><ele>632.0</ele><time>2026-03-24T10:53:39.964Z</time></trkpt><trkpt lat="30.096190433591694" lon="-5.501455093831734"><ele>632.0</ele><time>2026-03-24T10:53:40.964Z</time></trkpt><trkpt lat="30.0962791580695" lon="-5.501479868152479"><ele>632.0</ele><time>2026-03-24T10:53:41.964Z</time></trkpt><trkpt lat="30.09636503761594" lon="-5.501473154459652"><ele>632.0</ele><time>2026-03-24T10:53:42.964Z</time></trkpt><trkpt lat="30.096445564010164" lon="-5.50145965948335"><ele>632.0</ele><time>2026-03-24T10:53:43.964Z</time></trkpt><trkpt lat="30.096526437402055" lon="-5.501490466785141"><ele>632.0</ele><time>2026-03-24T10:53:44.964Z</time></trkpt><trkpt lat="30.096615839621403" lon="-5.5015200903696355"><ele>632.0</ele><time>2026-03-24T10:53:45.964Z</time></trkpt><trkpt lat="30.09670915724451" lon="-5.501531625366596"><ele>632.1666666666666</ele><time>2026-03-24T10:53:46.964Z</time></trkpt><trkpt lat="30.09679808992" lon="-5.501550735693874"><ele>632.3333333333333</ele><time>2026-03-24T10:53:47.964Z</time></trkpt><trkpt lat="30.096879633730925" lon="-5.501568681268509"><ele>632.5</ele><time>2026-03-24T10:53:48.964Z</time></trkpt><trkpt lat="30.096969799760803" lon="-5.501581169469097"><ele>632.6666666666666</ele><time>2026-03-24T10:53:49.964Z</time></trkpt><trkpt lat="30.097058995042417" lon="-5.501578224098909"><ele>632.8333333333334</ele><time>2026-03-24T10:53:50.964Z</time></trkpt><trkpt lat="30.097135989108327" lon="-5.501603574223632"><ele>633.0</ele><time>2026-03-24T10:53:51.964Z</time></trkpt><trkpt lat="30.097247779182524" lon="-5.501618554053703"><ele>633.0</ele><time>2026-03-24T10:53:53.964Z</time></trkpt><trkpt lat="30.097366989050204" lon="-5.5016212972735214"><ele>633.0</ele><time>2026-03-24T10:53:55.964Z</time></trkpt><trkpt lat="30.0974659566249" lon="-5.501652296945113"><ele>633.0</ele><time>2026-03-24T10:53:57.964Z</time></trkpt><trkpt lat="30.09756823650534" lon="-5.501711319917871"><ele>633.0</ele><time>2026-03-24T10:53:59.964Z</time></trkpt><trkpt lat="30.097627357415334" lon="-5.501745468980057"><ele>633.0</ele><time>2026-03-24T10:54:00.964Z</time></trkpt><trkpt lat="30.09768000032255" lon="-5.501803945498393"><ele>632.6666666666666</ele><time>2026-03-24T10:54:03.964Z</time></trkpt><trkpt lat="30.097632818926876" lon="-5.501853592144504"><ele>632.3333333333334</ele><time>2026-03-24T10:54:06.964Z</time></trkpt><trkpt lat="30.09757034748977" lon="-5.501816275562992"><ele>632.0</ele><time>2026-03-24T10:54:18.964Z</time></trkpt><trkpt lat="30.097522875444618" lon="-5.501742886837242"><ele>631.6666666666667</ele><time>2026-03-24T10:54:20.964Z</time></trkpt><trkpt lat="30.09750129078352" lon="-5.501607252071429"><ele>631.3333333333334</ele><time>2026-03-24T10:54:22.964Z</time></trkpt><trkpt lat="30.097521485485597" lon="-5.501504256008523"><ele>631.0</ele><time>2026-03-24T10:54:24.964Z</time></trkpt><trkpt lat="30.097554530105665" lon="-5.501374320026008"><ele>631.2</ele><time>2026-03-24T10:54:26.964Z</time></trkpt><trkpt lat="30.097528859544465" lon="-5.501230480160794"><ele>631.4000000000001</ele><time>2026-03-24T10:54:28.964Z</time></trkpt><trkpt lat="30.097516848924762" lon="-5.501139104970096"><ele>631.6</ele><time>2026-03-24T10:54:29.964Z</time></trkpt><trkpt lat="30.097510075477334" lon="-5.5010335749859305"><ele>631.8000000000001</ele><time>2026-03-24T10:54:30.964Z</time></trkpt><trkpt lat="30.097488898424672" lon="-5.500926220230417"><ele>632.0</ele><time>2026-03-24T10:54:31.964Z</time></trkpt><trkpt lat="30.09745554596341" lon="-5.500820186891002"><ele>631.8000000000001</ele><time>2026-03-24T10:54:32.964Z</time></trkpt><trkpt lat="30.09741519677387" lon="-5.500703317144719"><ele>631.6</ele><time>2026-03-24T10:54:33.964Z</time></trkpt><trkpt lat="30.097378514440265" lon="-5.5005908712530855"><ele>631.4000000000001</ele><time>2026-03-24T10:54:34.964Z</time></trkpt><trkpt lat="30.09735249392469" lon="-5.500481371039475"><ele>631.2</ele><time>2026-03-24T10:54:35.964Z</time></trkpt><trkpt lat="30.097322938949855" lon="-5.500380244518326"><ele>631.0</ele><time>2026-03-24T10:54:36.964Z</time></trkpt><trkpt lat="30.097291729531772" lon="-5.500283534138448"><ele>631.0</ele><time>2026-03-24T10:54:37.964Z</time></trkpt><trkpt lat="30.09725463829208" lon="-5.500185625674521"><ele>631.0</ele><time>2026-03-24T10:54:38.964Z</time></trkpt><trkpt lat="30.097217767079943" lon="-5.500099932766603"><ele>631.0</ele><time>2026-03-24T10:54:39.964Z</time></trkpt><trkpt lat="30.097180433818753" lon="-5.500018542130984"><ele>631.0</ele><time>2026-03-24T10:54:40.964Z</time></trkpt><trkpt lat="30.09713733648587" lon="-5.499927847581566"><ele>631.0</ele><time>2026-03-24T10:54:41.964Z</time></trkpt><trkpt lat="30.09707328714616" lon="-5.499827112485961"><ele>631.0</ele><time>2026-03-24T10:54:42.964Z</time></trkpt><trkpt lat="30.09699492619331" lon="-5.499738391271656"><ele>631.0</ele><time>2026-03-24T10:54:43.964Z</time></trkpt><trkpt lat="30.096898017695676" lon="-5.499673895045851"><ele>631.0</ele><time>2026-03-24T10:54:44.964Z</time></trkpt><trkpt lat="30.09681077061123" lon="-5.499627335221841"><ele>631.0</ele><time>2026-03-24T10:54:45.964Z</time></trkpt><trkpt lat="30.09673711781517" lon="-5.499580667332516"><ele>631.0</ele><time>2026-03-24T10:54:46.964Z</time></trkpt><trkpt lat="30.096665998571392" lon="-5.499448246888557"><ele>631.0</ele><time>2026-03-24T10:54:48.964Z</time></trkpt><trkpt lat="30.0966112059117" lon="-5.499378002938676"><ele>631.0</ele><time>2026-03-24T10:54:49.964Z</time></trkpt><trkpt lat="30.096541703900005" lon="-5.49933593163977"><ele>631.0</ele><time>2026-03-24T10:54:50.964Z</time></trkpt><trkpt lat="30.096469284410077" lon="-5.4993239026093095"><ele>631.0</ele><time>2026-03-24T10:54:51.964Z</time></trkpt><trkpt lat="30.0963692219636" lon="-5.499298309403017"><ele>631.0</ele><time>2026-03-24T10:54:52.964Z</time></trkpt><trkpt lat="30.09627545148916" lon="-5.499266992501574"><ele>631.0</ele><time>2026-03-24T10:54:53.964Z</time></trkpt><trkpt lat="30.096212991866167" lon="-5.499226764039903"><ele>631.0</ele><time>2026-03-24T10:54:54.964Z</time></trkpt><trkpt lat="30.09617823837123" lon="-5.499078586295339"><ele>631.0</ele><time>2026-03-24T10:54:56.964Z</time></trkpt><trkpt lat="30.096208650949322" lon="-5.498982719983325"><ele>631.0</ele><time>2026-03-24T10:54:57.964Z</time></trkpt><trkpt lat="30.096261174107816" lon="-5.498873459060559"><ele>631.0</ele><time>2026-03-24T10:54:58.964Z</time></trkpt><trkpt lat="30.09631714554917" lon="-5.4987638117047295"><ele>631.0</ele><time>2026-03-24T10:54:59.963Z</time></trkpt><trkpt lat="30.09637337615255" lon="-5.498664703887193"><ele>631.3333333333334</ele><time>2026-03-24T10:55:00.963Z</time></trkpt><trkpt lat="30.096414804450315" lon="-5.498566090332335"><ele>631.6666666666667</ele><time>2026-03-24T10:55:01.963Z</time></trkpt><trkpt lat="30.096453946875766" lon="-5.498472961926214"><ele>632.0</ele><time>2026-03-24T10:55:02.964Z</time></trkpt><trkpt lat="30.096488204315122" lon="-5.498385343876845"><ele>632.3333333333334</ele><time>2026-03-24T10:55:03.963Z</time></trkpt><trkpt lat="30.09651156790838" lon="-5.498288932864246"><ele>632.6666666666666</ele><time>2026-03-24T10:55:04.963Z</time></trkpt><trkpt lat="30.096521709399752" lon="-5.498200454458938"><ele>633.0</ele><time>2026-03-24T10:55:05.964Z</time></trkpt><trkpt lat="30.096523439523686" lon="-5.4981118954934765"><ele>633.0</ele><time>2026-03-24T10:55:06.964Z</time></trkpt><trkpt lat="30.09651885474683" lon="-5.498031382543077"><ele>633.0</ele><time>2026-03-24T10:55:07.964Z</time></trkpt><trkpt lat="30.09652060838165" lon="-5.497957135710327"><ele>633.0</ele><time>2026-03-24T10:55:08.964Z</time></trkpt><trkpt lat="30.096612549748762" lon="-5.497844030215087"><ele>633.0</ele><time>2026-03-24T10:55:10.964Z</time></trkpt><trkpt lat="30.09668408766993" lon="-5.497787336475299"><ele>633.0</ele><time>2026-03-24T10:55:11.964Z</time></trkpt><trkpt lat="30.09674571666523" lon="-5.497730931952623"><ele>633.0</ele><time>2026-03-24T10:55:12.964Z</time></trkpt><trkpt lat="30.096801480456158" lon="-5.497669766133098"><ele>632.8</ele><time>2026-03-24T10:55:13.964Z</time></trkpt><trkpt lat="30.09686430565102" lon="-5.49754657911269"><ele>632.5999999999999</ele><time>2026-03-24T10:55:15.964Z</time></trkpt><trkpt lat="30.09687855890771" lon="-5.4974548951844096"><ele>632.4000000000001</ele><time>2026-03-24T10:55:16.964Z</time></trkpt><trkpt lat="30.09687816960548" lon="-5.497358281379835"><ele>632.2</ele><time>2026-03-24T10:55:17.964Z</time></trkpt><trkpt lat="30.096860436946955" lon="-5.497265961076837"><ele>632.0</ele><time>2026-03-24T10:55:18.964Z</time></trkpt><trkpt lat="30.0968259971128" lon="-5.497180976548391"><ele>632.0</ele><time>2026-03-24T10:55:19.964Z</time></trkpt><trkpt lat="30.096785060752648" lon="-5.4970880135197655"><ele>632.0</ele><time>2026-03-24T10:55:20.964Z</time></trkpt><trkpt lat="30.096733001897842" lon="-5.4969992480030125"><ele>632.0</ele><time>2026-03-24T10:55:21.964Z</time></trkpt><trkpt lat="30.096686796892147" lon="-5.496908612814021"><ele>632.0</ele><time>2026-03-24T10:55:22.964Z</time></trkpt><trkpt lat="30.096640589794944" lon="-5.496793372204346"><ele>632.0</ele><time>2026-03-24T10:55:23.964Z</time></trkpt><trkpt lat="30.09658694753397" lon="-5.496682553575444"><ele>632.25</ele><time>2026-03-24T10:55:24.964Z</time></trkpt><trkpt lat="30.09654091782166" lon="-5.496567646209505"><ele>632.5</ele><time>2026-03-24T10:55:25.964Z</time></trkpt><trkpt lat="30.096499391109766" lon="-5.496451348369116"><ele>632.75</ele><time>2026-03-24T10:55:26.964Z</time></trkpt><trkpt lat="30.096455324444864" lon="-5.496324115821252"><ele>633.0</ele><time>2026-03-24T10:55:27.964Z</time></trkpt><trkpt lat="30.09641359298436" lon="-5.4961879463884635"><ele>633.0</ele><time>2026-03-24T10:55:28.964Z</time></trkpt><trkpt lat="30.096370619224533" lon="-5.496057932315169"><ele>633.0</ele><time>2026-03-24T10:55:29.964Z</time></trkpt><trkpt lat="30.096331415678936" lon="-5.495926225463619"><ele>633.0</ele><time>2026-03-24T10:55:30.964Z</time></trkpt><trkpt lat="30.096288597479322" lon="-5.495783443978769"><ele>633.0</ele><time>2026-03-24T10:55:31.964Z</time></trkpt><trkpt lat="30.096249426650672" lon="-5.495646862994317"><ele>633.0</ele><time>2026-03-24T10:55:32.964Z</time></trkpt><trkpt lat="30.09620956764808" lon="-5.495541100841064"><ele>633.0</ele><time>2026-03-24T10:55:33.964Z</time></trkpt><trkpt lat="30.096173819186976" lon="-5.495464715419948"><ele>633.0</ele><time>2026-03-24T10:55:35.964Z</time></trkpt><trkpt lat="30.096214593996336" lon="-5.495386782951914"><ele>633.0</ele><time>2026-03-24T10:55:38.964Z</time></trkpt><trkpt lat="30.096270690708625" lon="-5.495344866543831"><ele>633.0</ele><time>2026-03-24T10:55:40.964Z</time></trkpt><trkpt lat="30.096347866057116" lon="-5.495261617886047"><ele>633.0</ele><time>2026-03-24T10:55:42.964Z</time></trkpt><trkpt lat="30.096400312607262" lon="-5.495209169971008"><ele>633.0</ele><time>2026-03-24T10:55:43.964Z</time></trkpt><trkpt lat="30.096481550240707" lon="-5.495136315705783"><ele>633.0</ele><time>2026-03-24T10:55:44.964Z</time></trkpt><trkpt lat="30.09655681512381" lon="-5.495037281294614"><ele>633.0</ele><time>2026-03-24T10:55:45.964Z</time></trkpt><trkpt lat="30.096629639995953" lon="-5.494905866501687"><ele>633.0</ele><time>2026-03-24T10:55:46.964Z</time></trkpt><trkpt lat="30.09670921666921" lon="-5.494792964684915"><ele>633.0</ele><time>2026-03-24T10:55:47.964Z</time></trkpt><trkpt lat="30.09678406567749" lon="-5.494694957790757"><ele>633.0</ele><time>2026-03-24T10:55:48.964Z</time></trkpt><trkpt lat="30.09685192784844" lon="-5.494601207372101"><ele>633.0</ele><time>2026-03-24T10:55:49.964Z</time></trkpt><trkpt lat="30.096917602956914" lon="-5.49450595959592"><ele>633.0</ele><time>2026-03-24T10:55:50.964Z</time></trkpt><trkpt lat="30.09698631215949" lon="-5.494405267364229"><ele>633.0</ele><time>2026-03-24T10:55:51.964Z</time></trkpt><trkpt lat="30.097056279091387" lon="-5.494313499502311"><ele>633.25</ele><time>2026-03-24T10:55:52.964Z</time></trkpt><trkpt lat="30.097126208348158" lon="-5.49421855120803"><ele>633.5</ele><time>2026-03-24T10:55:53.964Z</time></trkpt><trkpt lat="30.097204074211607" lon="-5.494114831254135"><ele>633.75</ele><time>2026-03-24T10:55:54.964Z</time></trkpt><trkpt lat="30.097278058616958" lon="-5.494013793489983"><ele>634.0</ele><time>2026-03-24T10:55:55.964Z</time></trkpt><trkpt lat="30.09734853319331" lon="-5.493905832553149"><ele>634.0</ele><time>2026-03-24T10:55:56.964Z</time></trkpt><trkpt lat="30.09742045501036" lon="-5.493805000550265"><ele>634.0</ele><time>2026-03-24T10:55:57.964Z</time></trkpt><trkpt lat="30.097496400381722" lon="-5.493694197411437"><ele>634.0</ele><time>2026-03-24T10:55:58.964Z</time></trkpt><trkpt lat="30.097565697696087" lon="-5.493595551573268"><ele>634.0</ele><time>2026-03-24T10:55:59.964Z</time></trkpt><trkpt lat="30.09764220036796" lon="-5.4934884590776925"><ele>634.0</ele><time>2026-03-24T10:56:00.964Z</time></trkpt><trkpt lat="30.09772253254247" lon="-5.493379541805395"><ele>634.0</ele><time>2026-03-24T10:56:01.964Z</time></trkpt><trkpt lat="30.097796392357786" lon="-5.493281540091848"><ele>634.0</ele><time>2026-03-24T10:56:02.964Z</time></trkpt><trkpt lat="30.097857911160958" lon="-5.493188371757285"><ele>634.0</ele><time>2026-03-24T10:56:03.964Z</time></trkpt><trkpt lat="30.09791972432962" lon="-5.4931001517179086"><ele>634.0</ele><time>2026-03-24T10:56:04.964Z</time></trkpt><trkpt lat="30.097984869930958" lon="-5.493003683383909"><ele>634.0</ele><time>2026-03-24T10:56:05.964Z</time></trkpt><trkpt lat="30.098057921238397" lon="-5.492902240221921"><ele>634.0</ele><time>2026-03-24T10:56:06.964Z</time></trkpt><trkpt lat="30.098122544464058" lon="-5.492807844707544"><ele>634.0</ele><time>2026-03-24T10:56:07.964Z</time></trkpt><trkpt lat="30.098184847391888" lon="-5.492726497855557"><ele>634.0</ele><time>2026-03-24T10:56:08.964Z</time></trkpt><trkpt lat="30.098237690806005" lon="-5.49265099344427"><ele>634.0</ele><time>2026-03-24T10:56:09.963Z</time></trkpt><trkpt lat="30.09828843218702" lon="-5.4925738768650465"><ele>634.0</ele><time>2026-03-24T10:56:10.963Z</time></trkpt><trkpt lat="30.098336753513628" lon="-5.492491202311514"><ele>634.0</ele><time>2026-03-24T10:56:11.963Z</time></trkpt><trkpt lat="30.098390977632747" lon="-5.492409880145145"><ele>634.0</ele><time>2026-03-24T10:56:12.963Z</time></trkpt><trkpt lat="30.098445759847834" lon="-5.492335845616092"><ele>634.0</ele><time>2026-03-24T10:56:13.963Z</time></trkpt><trkpt lat="30.09850612969106" lon="-5.492254400909736"><ele>634.0</ele><time>2026-03-24T10:56:14.963Z</time></trkpt><trkpt lat="30.098569098808174" lon="-5.492174330224131"><ele>634.0</ele><time>2026-03-24T10:56:15.963Z</time></trkpt><trkpt lat="30.09862581155127" lon="-5.492089632974129"><ele>634.0</ele><time>2026-03-24T10:56:16.963Z</time></trkpt><trkpt lat="30.098681489443116" lon="-5.492003507702766"><ele>634.0</ele><time>2026-03-24T10:56:17.963Z</time></trkpt><trkpt lat="30.098756531909416" lon="-5.491914043302192"><ele>634.0</ele><time>2026-03-24T10:56:18.963Z</time></trkpt><trkpt lat="30.09882497181126" lon="-5.491815992162718"><ele>634.0</ele><time>2026-03-24T10:56:19.963Z</time></trkpt><trkpt lat="30.098907602345992" lon="-5.491698288423287"><ele>634.0</ele><time>2026-03-24T10:56:20.963Z</time></trkpt><trkpt lat="30.098993775749843" lon="-5.49157788631204"><ele>634.0</ele><time>2026-03-24T10:56:21.963Z</time></trkpt><trkpt lat="30.099074705654612" lon="-5.491461358773282"><ele>634.0</ele><time>2026-03-24T10:56:22.963Z</time></trkpt><trkpt lat="30.099155284363288" lon="-5.491346350890454"><ele>634.0</ele><time>2026-03-24T10:56:23.963Z</time></trkpt><trkpt lat="30.099240137775002" lon="-5.4912309546391205"><ele>634.0</ele><time>2026-03-24T10:56:24.963Z</time></trkpt><trkpt lat="30.099323957628894" lon="-5.491117563634914"><ele>634.4</ele><time>2026-03-24T10:56:25.963Z</time></trkpt><trkpt lat="30.09939597466311" lon="-5.491008689363398"><ele>634.8</ele><time>2026-03-24T10:56:26.963Z</time></trkpt><trkpt lat="30.09946064042071" lon="-5.490919998576141"><ele>635.2</ele><time>2026-03-24T10:56:27.963Z</time></trkpt><trkpt lat="30.09952030080319" lon="-5.490837457138583"><ele>635.6</ele><time>2026-03-24T10:56:28.963Z</time></trkpt><trkpt lat="30.099564076632255" lon="-5.490762809379386"><ele>636.0</ele><time>2026-03-24T10:56:29.963Z</time></trkpt><trkpt lat="30.0996159272585" lon="-5.490703209013576"><ele>636.0</ele><time>2026-03-24T10:56:30.963Z</time></trkpt><trkpt lat="30.09967167521443" lon="-5.490666357283979"><ele>636.0</ele><time>2026-03-24T10:56:31.963Z</time></trkpt><trkpt lat="30.099731882356277" lon="-5.490644754491082"><ele>636.0</ele><time>2026-03-24T10:56:32.963Z</time></trkpt><trkpt lat="30.099801716897495" lon="-5.49063916838994"><ele>636.0</ele><time>2026-03-24T10:56:33.963Z</time></trkpt><trkpt lat="30.099873102804565" lon="-5.490655301280465"><ele>636.0</ele><time>2026-03-24T10:56:34.963Z</time></trkpt><trkpt lat="30.099962351216224" lon="-5.490683899785579"><ele>636.0</ele><time>2026-03-24T10:56:35.963Z</time></trkpt><trkpt lat="30.10006284136703" lon="-5.490704749751582"><ele>636.0</ele><time>2026-03-24T10:56:36.963Z</time></trkpt><trkpt lat="30.100166314742467" lon="-5.490726743227047"><ele>636.0</ele><time>2026-03-24T10:56:37.963Z</time></trkpt><trkpt lat="30.100275724758717" lon="-5.490743791940398"><ele>636.0</ele><time>2026-03-24T10:56:38.963Z</time></trkpt><trkpt lat="30.100387609468466" lon="-5.490763364849517"><ele>636.0</ele><time>2026-03-24T10:56:39.963Z</time></trkpt><trkpt lat="30.10049844394777" lon="-5.490783171264129"><ele>636.0</ele><time>2026-03-24T10:56:40.963Z</time></trkpt><trkpt lat="30.100600476463292" lon="-5.490802708969912"><ele>636.0</ele><time>2026-03-24T10:56:41.963Z</time></trkpt><trkpt lat="30.100707203140125" lon="-5.490822151385659"><ele>636.0</ele><time>2026-03-24T10:56:42.963Z</time></trkpt><trkpt lat="30.1008115320835" lon="-5.490835200661562"><ele>636.0</ele><time>2026-03-24T10:56:43.963Z</time></trkpt><trkpt lat="30.100908465700826" lon="-5.490854558409353"><ele>636.0</ele><time>2026-03-24T10:56:44.963Z</time></trkpt><trkpt lat="30.101017834691728" lon="-5.490868824090059"><ele>636.0</ele><time>2026-03-24T10:56:45.963Z</time></trkpt><trkpt lat="30.101150533254675" lon="-5.490887992371445"><ele>636.0</ele><time>2026-03-24T10:56:46.963Z</time></trkpt><trkpt lat="30.101270418517167" lon="-5.490910789361603"><ele>636.0</ele><time>2026-03-24T10:56:47.963Z</time></trkpt><trkpt lat="30.10137828942508" lon="-5.490939241401976"><ele>636.0</ele><time>2026-03-24T10:56:48.963Z</time></trkpt><trkpt lat="30.101466085347692" lon="-5.490956750090404"><ele>636.0</ele><time>2026-03-24T10:56:49.963Z</time></trkpt><trkpt lat="30.101545551113436" lon="-5.490966620663433"><ele>636.0</ele><time>2026-03-24T10:56:50.963Z</time></trkpt><trkpt lat="30.10162647317824" lon="-5.490979564281409"><ele>636.2</ele><time>2026-03-24T10:56:51.963Z</time></trkpt><trkpt lat="30.101702256050476" lon="-5.490991453828602"><ele>636.4000000000001</ele><time>2026-03-24T10:56:52.963Z</time></trkpt><trkpt lat="30.101795333525313" lon="-5.491001659613873"><ele>636.6</ele><time>2026-03-24T10:56:53.963Z</time></trkpt><trkpt lat="30.10190252214153" lon="-5.49101917487505"><ele>636.8000000000001</ele><time>2026-03-24T10:56:54.963Z</time></trkpt><trkpt lat="30.102012581494645" lon="-5.491045438963397"><ele>637.0</ele><time>2026-03-24T10:56:55.963Z</time></trkpt><trkpt lat="30.102119834558668" lon="-5.491062159659829"><ele>637.0</ele><time>2026-03-24T10:56:56.963Z</time></trkpt><trkpt lat="30.102219132244564" lon="-5.49107920198647"><ele>637.0</ele><time>2026-03-24T10:56:57.963Z</time></trkpt><trkpt lat="30.10232737811163" lon="-5.491101296298466"><ele>637.0</ele><time>2026-03-24T10:56:58.963Z</time></trkpt><trkpt lat="30.102430166634324" lon="-5.491117023434843"><ele>637.0</ele><time>2026-03-24T10:56:59.963Z</time></trkpt><trkpt lat="30.102541926312163" lon="-5.491130297922307"><ele>637.0</ele><time>2026-03-24T10:57:00.963Z</time></trkpt><trkpt lat="30.10265668661488" lon="-5.491145410316053"><ele>637.25</ele><time>2026-03-24T10:57:01.963Z</time></trkpt><trkpt lat="30.102768958246052" lon="-5.491162272272561"><ele>637.5</ele><time>2026-03-24T10:57:02.963Z</time></trkpt><trkpt lat="30.102880275828902" lon="-5.491180959983747"><ele>637.75</ele><time>2026-03-24T10:57:03.963Z</time></trkpt><trkpt lat="30.102997983334582" lon="-5.491200913143037"><ele>638.0</ele><time>2026-03-24T10:57:04.963Z</time></trkpt><trkpt lat="30.103106393864508" lon="-5.4912189044580195"><ele>638.0</ele><time>2026-03-24T10:57:05.962Z</time></trkpt><trkpt lat="30.103216079573883" lon="-5.491236259448078"><ele>638.0</ele><time>2026-03-24T10:57:06.962Z</time></trkpt><trkpt lat="30.103327214966495" lon="-5.491256514393783"><ele>638.0</ele><time>2026-03-24T10:57:07.963Z</time></trkpt><trkpt lat="30.103444386063174" lon="-5.491281292517791"><ele>638.0</ele><time>2026-03-24T10:57:08.962Z</time></trkpt><trkpt lat="30.103570819783304" lon="-5.491302713454634"><ele>637.75</ele><time>2026-03-24T10:57:09.962Z</time></trkpt><trkpt lat="30.103701969196315" lon="-5.491323691959778"><ele>637.5</ele><time>2026-03-24T10:57:10.963Z</time></trkpt><trkpt lat="30.103841126972924" lon="-5.491347548129394"><ele>637.25</ele><time>2026-03-24T10:57:11.962Z</time></trkpt><trkpt lat="30.10398208218751" lon="-5.491375687761716"><ele>637.0</ele><time>2026-03-24T10:57:12.962Z</time></trkpt><trkpt lat="30.104123921076813" lon="-5.491401244782641"><ele>636.75</ele><time>2026-03-24T10:57:13.962Z</time></trkpt><trkpt lat="30.104267053913627" lon="-5.491430306587545"><ele>636.5</ele><time>2026-03-24T10:57:14.962Z</time></trkpt><trkpt lat="30.10440722264968" lon="-5.4914576577545855"><ele>636.25</ele><time>2026-03-24T10:57:15.962Z</time></trkpt><trkpt lat="30.104533116269327" lon="-5.491481125260655"><ele>636.0</ele><time>2026-03-24T10:57:16.962Z</time></trkpt><trkpt lat="30.10466990187986" lon="-5.49150210883216"><ele>636.0</ele><time>2026-03-24T10:57:17.962Z</time></trkpt><trkpt lat="30.104813597005375" lon="-5.491528816854689"><ele>636.0</ele><time>2026-03-24T10:57:18.962Z</time></trkpt><trkpt lat="30.104958944503387" lon="-5.491557269506497"><ele>636.0</ele><time>2026-03-24T10:57:19.962Z</time></trkpt><trkpt lat="30.105096775913427" lon="-5.491579772841299"><ele>636.0</ele><time>2026-03-24T10:57:20.962Z</time></trkpt><trkpt lat="30.105227359689295" lon="-5.49159976281812"><ele>636.5</ele><time>2026-03-24T10:57:21.962Z</time></trkpt><trkpt lat="30.105346077184333" lon="-5.491619455450682"><ele>637.0</ele><time>2026-03-24T10:57:22.962Z</time></trkpt><trkpt lat="30.105463473740983" lon="-5.4916390023246935"><ele>637.5</ele><time>2026-03-24T10:57:23.962Z</time></trkpt><trkpt lat="30.1055793188121" lon="-5.491657790718372"><ele>638.0</ele><time>2026-03-24T10:57:24.962Z</time></trkpt><trkpt lat="30.105706428561998" lon="-5.491675534141103"><ele>637.6</ele><time>2026-03-24T10:57:25.962Z</time></trkpt><trkpt lat="30.10582264725893" lon="-5.491698879442891"><ele>637.1999999999999</ele><time>2026-03-24T10:57:26.962Z</time></trkpt><trkpt lat="30.105927753053397" lon="-5.491714800079998"><ele>636.8</ele><time>2026-03-24T10:57:27.962Z</time></trkpt><trkpt lat="30.106024473253534" lon="-5.491733148646558"><ele>636.4</ele><time>2026-03-24T10:57:28.962Z</time></trkpt><trkpt lat="30.106098379066363" lon="-5.491749602564741"><ele>636.0</ele><time>2026-03-24T10:57:29.962Z</time></trkpt><trkpt lat="30.106170230899995" lon="-5.491767940800278"><ele>636.0</ele><time>2026-03-24T10:57:30.962Z</time></trkpt><trkpt lat="30.106254198260125" lon="-5.491789801834882"><ele>636.0</ele><time>2026-03-24T10:57:31.962Z</time></trkpt><trkpt lat="30.106322254366013" lon="-5.491807682235637"><ele>636.0</ele><time>2026-03-24T10:57:32.962Z</time></trkpt><trkpt lat="30.1063970174719" lon="-5.491828548515064"><ele>636.0</ele><time>2026-03-24T10:57:33.962Z</time></trkpt><trkpt lat="30.106480481064867" lon="-5.491845392358206"><ele>636.0</ele><time>2026-03-24T10:57:34.962Z</time></trkpt><trkpt lat="30.106583284563666" lon="-5.491861677818918"><ele>636.0</ele><time>2026-03-24T10:57:35.962Z</time></trkpt><trkpt lat="30.106692975647103" lon="-5.4918654449897915"><ele>635.2</ele><time>2026-03-24T10:57:36.962Z</time></trkpt><trkpt lat="30.10681303136449" lon="-5.4918960600793385"><ele>634.4000000000001</ele><time>2026-03-24T10:57:37.962Z</time></trkpt><trkpt lat="30.106904428343707" lon="-5.491926377740772"><ele>633.6</ele><time>2026-03-24T10:57:38.962Z</time></trkpt><trkpt lat="30.10697995612224" lon="-5.491962753834219"><ele>632.8000000000001</ele><time>2026-03-24T10:57:39.962Z</time></trkpt><trkpt lat="30.10704421626106" lon="-5.491989963124514"><ele>632.0</ele><time>2026-03-24T10:57:40.962Z</time></trkpt><trkpt lat="30.10723822067189" lon="-5.49196167451498"><ele>632.0000000000001</ele><time>2026-03-24T10:57:49.962Z</time></trkpt><trkpt lat="30.107257455627217" lon="-5.4920357580770185"><ele>632.0</ele><time>2026-03-24T10:57:59.962Z</time></trkpt><trkpt lat="30.107304603605716" lon="-5.4921080985270265"><ele>632.0</ele><time>2026-03-24T10:58:02.962Z</time></trkpt><trkpt lat="30.10736977133351" lon="-5.492123217986896"><ele>632.0</ele><time>2026-03-24T10:58:04.962Z</time></trkpt><trkpt lat="30.107436853300378" lon="-5.492095937134794"><ele>632.0</ele><time>2026-03-24T10:58:06.962Z</time></trkpt><trkpt lat="30.10750005584393" lon="-5.492083483022976"><ele>632.0000000000001</ele><time>2026-03-24T10:58:08.962Z</time></trkpt><trkpt lat="30.107569220920784" lon="-5.492050226567759"><ele>632.0</ele><time>2026-03-24T10:58:11.962Z</time></trkpt><trkpt lat="30.107593213057925" lon="-5.492121947001617"><ele>632.0</ele><time>2026-03-24T10:58:15.962Z</time></trkpt><trkpt lat="30.107532856976004" lon="-5.492194464165545"><ele>632.0</ele><time>2026-03-24T10:58:17.962Z</time></trkpt><trkpt lat="30.107440698779964" lon="-5.492170652909234"><ele>632.0</ele><time>2026-03-24T10:58:19.962Z</time></trkpt><trkpt lat="30.10736638467966" lon="-5.492128790643609"><ele>632.0</ele><time>2026-03-24T10:58:21.962Z</time></trkpt><trkpt lat="30.107274173844534" lon="-5.4921046785368475"><ele>632.0</ele><time>2026-03-24T10:58:23.962Z</time></trkpt><trkpt lat="30.107197874698656" lon="-5.492053582054653"><ele>632.0</ele><time>2026-03-24T10:58:26.962Z</time></trkpt><trkpt lat="30.107181179535125" lon="-5.491977211529061"><ele>632.0</ele><time>2026-03-24T10:58:29.962Z</time></trkpt><trkpt lat="30.107237752747842" lon="-5.491900313056954"><ele>632.0</ele><time>2026-03-24T10:58:31.962Z</time></trkpt><trkpt lat="30.107304879973565" lon="-5.491788136399269"><ele>632.0</ele><time>2026-03-24T10:58:33.962Z</time></trkpt><trkpt lat="30.107352540127195" lon="-5.491652003056808"><ele>632.0</ele><time>2026-03-24T10:58:35.962Z</time></trkpt><trkpt lat="30.107371983834508" lon="-5.49157171727288"><ele>632.0</ele><time>2026-03-24T10:58:36.962Z</time></trkpt><trkpt lat="30.10739997212648" lon="-5.491487106382798"><ele>633.0</ele><time>2026-03-24T10:58:37.962Z</time></trkpt><trkpt lat="30.10743976359032" lon="-5.491397390643467"><ele>634.0</ele><time>2026-03-24T10:58:38.962Z</time></trkpt><trkpt lat="30.107475152923666" lon="-5.491305084544373"><ele>635.0</ele><time>2026-03-24T10:58:39.962Z</time></trkpt><trkpt lat="30.107512165369876" lon="-5.491192279954341"><ele>636.0</ele><time>2026-03-24T10:58:40.962Z</time></trkpt><trkpt lat="30.107542712490172" lon="-5.491074163170976"><ele>637.0</ele><time>2026-03-24T10:58:41.962Z</time></trkpt><trkpt lat="30.107565591323887" lon="-5.490946950851343"><ele>637.5</ele><time>2026-03-24T10:58:42.962Z</time></trkpt><trkpt lat="30.107580200273066" lon="-5.490805474123327"><ele>638.0</ele><time>2026-03-24T10:58:43.962Z</time></trkpt><trkpt lat="30.107596422369504" lon="-5.490639666894455"><ele>638.5</ele><time>2026-03-24T10:58:44.962Z</time></trkpt><trkpt lat="30.107617066785277" lon="-5.49046002608256"><ele>639.0</ele><time>2026-03-24T10:58:45.962Z</time></trkpt><trkpt lat="30.10763429974922" lon="-5.490274216359818"><ele>639.75</ele><time>2026-03-24T10:58:46.962Z</time></trkpt><trkpt lat="30.107652972383892" lon="-5.490103256543167"><ele>640.5</ele><time>2026-03-24T10:58:47.962Z</time></trkpt><trkpt lat="30.107692142645522" lon="-5.489944871861992"><ele>641.25</ele><time>2026-03-24T10:58:48.962Z</time></trkpt><trkpt lat="30.107748183986168" lon="-5.489800533131388"><ele>642.0</ele><time>2026-03-24T10:58:49.962Z</time></trkpt><trkpt lat="30.10780547430318" lon="-5.489671911061582"><ele>641.75</ele><time>2026-03-24T10:58:50.962Z</time></trkpt><trkpt lat="30.107855139883622" lon="-5.489532234638568"><ele>641.5</ele><time>2026-03-24T10:58:51.962Z</time></trkpt><trkpt lat="30.107917429665125" lon="-5.48937978942787"><ele>641.25</ele><time>2026-03-24T10:58:52.962Z</time></trkpt><trkpt lat="30.10798832461065" lon="-5.48922563557909"><ele>641.0</ele><time>2026-03-24T10:58:53.962Z</time></trkpt><trkpt lat="30.10806445685492" lon="-5.489057899361939"><ele>641.0</ele><time>2026-03-24T10:58:54.962Z</time></trkpt><trkpt lat="30.108143939426824" lon="-5.488889889733988"><ele>641.0</ele><time>2026-03-24T10:58:55.962Z</time></trkpt><trkpt lat="30.108220409619623" lon="-5.488721050831825"><ele>641.0</ele><time>2026-03-24T10:58:56.962Z</time></trkpt><trkpt lat="30.108287721428063" lon="-5.488571399431257"><ele>642.0</ele><time>2026-03-24T10:58:57.962Z</time></trkpt><trkpt lat="30.108353026360767" lon="-5.488419790347916"><ele>643.0</ele><time>2026-03-24T10:58:58.962Z</time></trkpt><trkpt lat="30.108422374198998" lon="-5.488276345473624"><ele>644.0</ele><time>2026-03-24T10:58:59.962Z</time></trkpt><trkpt lat="30.108487890615862" lon="-5.488137650880227"><ele>645.0</ele><time>2026-03-24T10:59:00.962Z</time></trkpt><trkpt lat="30.10855901662048" lon="-5.487993798607466"><ele>644.75</ele><time>2026-03-24T10:59:01.962Z</time></trkpt><trkpt lat="30.10862286253155" lon="-5.487849145285226"><ele>644.5</ele><time>2026-03-24T10:59:02.962Z</time></trkpt><trkpt lat="30.10866849967368" lon="-5.487707310568982"><ele>644.25</ele><time>2026-03-24T10:59:03.962Z</time></trkpt><trkpt lat="30.10870969461107" lon="-5.4875722171592916"><ele>644.0</ele><time>2026-03-24T10:59:04.962Z</time></trkpt><trkpt lat="30.1087425887021" lon="-5.48743798355355"><ele>644.0</ele><time>2026-03-24T10:59:05.962Z</time></trkpt><trkpt lat="30.1087813775773" lon="-5.4873322990790765"><ele>644.0</ele><time>2026-03-24T10:59:06.962Z</time></trkpt><trkpt lat="30.10881358790784" lon="-5.4872250944593945"><ele>644.0</ele><time>2026-03-24T10:59:08.962Z</time></trkpt><trkpt lat="30.108780819297955" lon="-5.487121529143708"><ele>644.0</ele><time>2026-03-24T10:59:10.962Z</time></trkpt><trkpt lat="30.108740482101275" lon="-5.487053178792976"><ele>644.0</ele><time>2026-03-24T10:59:11.962Z</time></trkpt><trkpt lat="30.108706374872593" lon="-5.486973393453032"><ele>644.0</ele><time>2026-03-24T10:59:12.962Z</time></trkpt><trkpt lat="30.108681256523948" lon="-5.486866782181417"><ele>643.8333333333333</ele><time>2026-03-24T10:59:13.962Z</time></trkpt><trkpt lat="30.108657999496643" lon="-5.486754636936594"><ele>643.6666666666666</ele><time>2026-03-24T10:59:14.962Z</time></trkpt><trkpt lat="30.10864379248369" lon="-5.486641135211116"><ele>643.5</ele><time>2026-03-24T10:59:15.962Z</time></trkpt><trkpt lat="30.108636860641052" lon="-5.486537097073711"><ele>643.3333333333334</ele><time>2026-03-24T10:59:16.962Z</time></trkpt><trkpt lat="30.108638500510576" lon="-5.486450939268398"><ele>643.1666666666667</ele><time>2026-03-24T10:59:17.962Z</time></trkpt><trkpt lat="30.10864424207805" lon="-5.486367970663185"><ele>643.0</ele><time>2026-03-24T10:59:18.962Z</time></trkpt><trkpt lat="30.108660930221895" lon="-5.486284792179651"><ele>643.8</ele><time>2026-03-24T10:59:19.962Z</time></trkpt><trkpt lat="30.10869507071733" lon="-5.4861916225563405"><ele>644.5999999999999</ele><time>2026-03-24T10:59:20.962Z</time></trkpt><trkpt lat="30.108728541153642" lon="-5.486076929524783"><ele>645.4000000000001</ele><time>2026-03-24T10:59:21.962Z</time></trkpt><trkpt lat="30.10876329935732" lon="-5.48594777000846"><ele>646.2</ele><time>2026-03-24T10:59:22.962Z</time></trkpt><trkpt lat="30.108801979159924" lon="-5.485822783973425"><ele>647.0</ele><time>2026-03-24T10:59:23.962Z</time></trkpt><trkpt lat="30.108844981197123" lon="-5.485699713828155"><ele>647.0</ele><time>2026-03-24T10:59:24.962Z</time></trkpt><trkpt lat="30.108878301611124" lon="-5.485558264768395"><ele>647.0</ele><time>2026-03-24T10:59:25.962Z</time></trkpt><trkpt lat="30.108895457236716" lon="-5.4854191798963665"><ele>647.0</ele><time>2026-03-24T10:59:26.962Z</time></trkpt><trkpt lat="30.108917046094675" lon="-5.4852983884231215"><ele>647.0</ele><time>2026-03-24T10:59:27.962Z</time></trkpt><trkpt lat="30.108954209037144" lon="-5.485178223220966"><ele>647.2</ele><time>2026-03-24T10:59:28.962Z</time></trkpt><trkpt lat="30.109009477305875" lon="-5.485083881995257"><ele>647.4000000000001</ele><time>2026-03-24T10:59:29.962Z</time></trkpt><trkpt lat="30.10905735715382" lon="-5.484969606290914"><ele>647.5999999999999</ele><time>2026-03-24T10:59:30.962Z</time></trkpt><trkpt lat="30.109105477911307" lon="-5.4848559167359"><ele>647.8</ele><time>2026-03-24T10:59:31.962Z</time></trkpt><trkpt lat="30.109159252041604" lon="-5.484741775526365"><ele>648.0</ele><time>2026-03-24T10:59:32.962Z</time></trkpt><trkpt lat="30.109224290228642" lon="-5.484623849781865"><ele>649.25</ele><time>2026-03-24T10:59:33.962Z</time></trkpt><trkpt lat="30.10929579499906" lon="-5.484504251996565"><ele>650.5</ele><time>2026-03-24T10:59:34.962Z</time></trkpt><trkpt lat="30.10936550016983" lon="-5.48437873617701"><ele>651.75</ele><time>2026-03-24T10:59:35.962Z</time></trkpt><trkpt lat="30.109429345802855" lon="-5.484252705044108"><ele>653.0</ele><time>2026-03-24T10:59:36.962Z</time></trkpt><trkpt lat="30.109485219272436" lon="-5.4841302747186065"><ele>653.0</ele><time>2026-03-24T10:59:37.962Z</time></trkpt><trkpt lat="30.10954459097195" lon="-5.484010228662692"><ele>653.0</ele><time>2026-03-24T10:59:38.962Z</time></trkpt><trkpt lat="30.109609408354633" lon="-5.483891942800209"><ele>653.0</ele><time>2026-03-24T10:59:39.962Z</time></trkpt><trkpt lat="30.10967376172441" lon="-5.48376946767308"><ele>653.0</ele><time>2026-03-24T10:59:40.962Z</time></trkpt><trkpt lat="30.10973797271809" lon="-5.483637382005355"><ele>653.25</ele><time>2026-03-24T10:59:41.962Z</time></trkpt><trkpt lat="30.109811263745456" lon="-5.483501372575701"><ele>653.5</ele><time>2026-03-24T10:59:42.962Z</time></trkpt><trkpt lat="30.109869624914957" lon="-5.483377153345766"><ele>653.75</ele><time>2026-03-24T10:59:43.962Z</time></trkpt><trkpt lat="30.109918958346384" lon="-5.483273694051664"><ele>654.0</ele><time>2026-03-24T10:59:44.962Z</time></trkpt><trkpt lat="30.109969339586865" lon="-5.483173032396893"><ele>654.2</ele><time>2026-03-24T10:59:45.962Z</time></trkpt><trkpt lat="30.110026075260237" lon="-5.483061326925973"><ele>654.4000000000001</ele><time>2026-03-24T10:59:46.962Z</time></trkpt><trkpt lat="30.110081607690407" lon="-5.482955716909774"><ele>654.6</ele><time>2026-03-24T10:59:47.962Z</time></trkpt><trkpt lat="30.110135057121116" lon="-5.482858810607154"><ele>654.8</ele><time>2026-03-24T10:59:48.962Z</time></trkpt><trkpt lat="30.110191181379154" lon="-5.482759150010453"><ele>655.0</ele><time>2026-03-24T10:59:49.962Z</time></trkpt><trkpt lat="30.110254498090125" lon="-5.482649095343109"><ele>655.0</ele><time>2026-03-24T10:59:50.962Z</time></trkpt><trkpt lat="30.110314709140916" lon="-5.482536483092693"><ele>655.0</ele><time>2026-03-24T10:59:51.962Z</time></trkpt><trkpt lat="30.110354567385393" lon="-5.4824145194778175"><ele>655.0</ele><time>2026-03-24T10:59:52.962Z</time></trkpt><trkpt lat="30.110392422702443" lon="-5.482288228193943"><ele>655.0</ele><time>2026-03-24T10:59:53.962Z</time></trkpt><trkpt lat="30.110447612324002" lon="-5.482148353864525"><ele>655.5</ele><time>2026-03-24T10:59:54.962Z</time></trkpt><trkpt lat="30.11051993228992" lon="-5.482019493912297"><ele>656.0</ele><time>2026-03-24T10:59:55.962Z</time></trkpt><trkpt lat="30.110598320527615" lon="-5.481887292941241"><ele>656.5</ele><time>2026-03-24T10:59:56.962Z</time></trkpt><trkpt lat="30.1106552159619" lon="-5.481766229995915"><ele>657.0</ele><time>2026-03-24T10:59:57.962Z</time></trkpt><trkpt lat="30.110702768560987" lon="-5.481679679164144"><ele>657.1666666666666</ele><time>2026-03-24T10:59:58.962Z</time></trkpt><trkpt lat="30.110743681229398" lon="-5.481609280459339"><ele>657.3333333333334</ele><time>2026-03-24T10:59:59.962Z</time></trkpt><trkpt lat="30.110778634984698" lon="-5.481540300045482"><ele>657.5</ele><time>2026-03-24T11:00:00.962Z</time></trkpt><trkpt lat="30.11083566059965" lon="-5.481439865477622"><ele>657.6666666666667</ele><time>2026-03-24T11:00:02.962Z</time></trkpt><trkpt lat="30.110859708147785" lon="-5.481359501445629"><ele>657.8333333333334</ele><time>2026-03-24T11:00:04.962Z</time></trkpt><trkpt lat="30.11087691361835" lon="-5.481275190500666"><ele>658.0</ele><time>2026-03-24T11:01:31.962Z</time></trkpt><trkpt lat="30.11082909440749" lon="-5.481203214571144"><ele>658.0</ele><time>2026-03-24T11:01:34.962Z</time></trkpt><trkpt lat="30.110756374957724" lon="-5.48114535984854"><ele>658.0</ele><time>2026-03-24T11:01:36.962Z</time></trkpt><trkpt lat="30.110688056198775" lon="-5.481069527509256"><ele>658.0</ele><time>2026-03-24T11:01:38.962Z</time></trkpt><trkpt lat="30.11071346828137" lon="-5.480965870125314"><ele>658.0</ele><time>2026-03-24T11:01:41.962Z</time></trkpt><trkpt lat="30.110767310440224" lon="-5.48091551152187"><ele>658.0</ele><time>2026-03-24T11:01:42.962Z</time></trkpt><trkpt lat="30.110838050100114" lon="-5.480850410073945"><ele>658.0</ele><time>2026-03-24T11:01:43.962Z</time></trkpt><trkpt lat="30.11092997830471" lon="-5.480768143103148"><ele>658.0</ele><time>2026-03-24T11:01:44.962Z</time></trkpt><trkpt lat="30.11102965216874" lon="-5.480672342620588"><ele>658.0</ele><time>2026-03-24T11:01:45.962Z</time></trkpt><trkpt lat="30.111142008166873" lon="-5.4805680957593585"><ele>658.0</ele><time>2026-03-24T11:01:46.962Z</time></trkpt><trkpt lat="30.11125282608247" lon="-5.480469884847619"><ele>658.0</ele><time>2026-03-24T11:01:47.961Z</time></trkpt><trkpt lat="30.111363511635055" lon="-5.480375217355382"><ele>658.0</ele><time>2026-03-24T11:01:48.961Z</time></trkpt><trkpt lat="30.111462577320655" lon="-5.480303708871181"><ele>658.0</ele><time>2026-03-24T11:01:49.961Z</time></trkpt><trkpt lat="30.111562721094057" lon="-5.480227363850304"><ele>658.0</ele><time>2026-03-24T11:01:50.961Z</time></trkpt><trkpt lat="30.111661254644055" lon="-5.480146026025854"><ele>658.0</ele><time>2026-03-24T11:01:51.961Z</time></trkpt><trkpt lat="30.11177360013104" lon="-5.480057716884467"><ele>658.0</ele><time>2026-03-24T11:01:52.961Z</time></trkpt><trkpt lat="30.111908173843982" lon="-5.479970953904478"><ele>658.0</ele><time>2026-03-24T11:01:53.961Z</time></trkpt><trkpt lat="30.112059063577988" lon="-5.4798802643012365"><ele>658.0</ele><time>2026-03-24T11:01:54.961Z</time></trkpt><trkpt lat="30.112225910127716" lon="-5.479795660098287"><ele>658.0</ele><time>2026-03-24T11:01:55.961Z</time></trkpt><trkpt lat="30.11239176873135" lon="-5.479707359522792"><ele>658.0</ele><time>2026-03-24T11:01:56.961Z</time></trkpt><trkpt lat="30.112595833688147" lon="-5.479624446131751"><ele>658.0</ele><time>2026-03-24T11:01:57.961Z</time></trkpt><trkpt lat="30.11278726238288" lon="-5.479532988871506"><ele>659.0</ele><time>2026-03-24T11:01:58.961Z</time></trkpt><trkpt lat="30.112984962101358" lon="-5.47944385120911"><ele>660.0</ele><time>2026-03-24T11:01:59.961Z</time></trkpt><trkpt lat="30.11320629680318" lon="-5.4793487454434215"><ele>661.0</ele><time>2026-03-24T11:02:00.961Z</time></trkpt><trkpt lat="30.113406571309326" lon="-5.479259659028071"><ele>661.6666666666667</ele><time>2026-03-24T11:02:01.961Z</time></trkpt><trkpt lat="30.113592355800918" lon="-5.4791788463770885"><ele>662.3333333333334</ele><time>2026-03-24T11:02:02.961Z</time></trkpt><trkpt lat="30.113768944508273" lon="-5.479102681975326"><ele>663.0</ele><time>2026-03-24T11:02:03.961Z</time></trkpt><trkpt lat="30.113942481163065" lon="-5.479024577607768"><ele>663.6666666666666</ele><time>2026-03-24T11:02:04.961Z</time></trkpt><trkpt lat="30.114121853485223" lon="-5.478949530749105"><ele>664.3333333333333</ele><time>2026-03-24T11:02:05.961Z</time></trkpt><trkpt lat="30.114304661571854" lon="-5.4788742841206926"><ele>665.0</ele><time>2026-03-24T11:02:06.961Z</time></trkpt><trkpt lat="30.114490671481207" lon="-5.478797723628598"><ele>665.0</ele><time>2026-03-24T11:02:07.961Z</time></trkpt><trkpt lat="30.114676501481014" lon="-5.478718405985231"><ele>665.0</ele><time>2026-03-24T11:02:08.961Z</time></trkpt><trkpt lat="30.114858516061926" lon="-5.478638147913593"><ele>665.0</ele><time>2026-03-24T11:02:09.961Z</time></trkpt><trkpt lat="30.115030542999182" lon="-5.47855778908835"><ele>665.3333333333333</ele><time>2026-03-24T11:02:10.961Z</time></trkpt><trkpt lat="30.115204799945165" lon="-5.478478089032981"><ele>665.6666666666666</ele><time>2026-03-24T11:02:11.961Z</time></trkpt><trkpt lat="30.11537555456711" lon="-5.478398300364229"><ele>666.0</ele><time>2026-03-24T11:02:12.961Z</time></trkpt><trkpt lat="30.11554268234679" lon="-5.4783212445293366"><ele>666.0</ele><time>2026-03-24T11:02:13.961Z</time></trkpt><trkpt lat="30.115714467245404" lon="-5.478247418959019"><ele>666.0</ele><time>2026-03-24T11:02:14.961Z</time></trkpt><trkpt lat="30.11588649967852" lon="-5.478185964028292"><ele>666.0</ele><time>2026-03-24T11:02:15.961Z</time></trkpt><trkpt lat="30.116056429559457" lon="-5.478140833352039"><ele>666.6666666666666</ele><time>2026-03-24T11:02:16.961Z</time></trkpt><trkpt lat="30.116226299770876" lon="-5.4781087524281755"><ele>667.3333333333333</ele><time>2026-03-24T11:02:17.961Z</time></trkpt><trkpt lat="30.116390416268352" lon="-5.478096123700213"><ele>668.0</ele><time>2026-03-24T11:02:18.961Z</time></trkpt><trkpt lat="30.116557913393144" lon="-5.478103479614105"><ele>667.0</ele><time>2026-03-24T11:02:19.961Z</time></trkpt><trkpt lat="30.116736190200687" lon="-5.478134021133883"><ele>666.0</ele><time>2026-03-24T11:02:20.961Z</time></trkpt><trkpt lat="30.11691968992992" lon="-5.478190182608595"><ele>665.0</ele><time>2026-03-24T11:02:21.961Z</time></trkpt><trkpt lat="30.11709301051028" lon="-5.478259627665905"><ele>665.0</ele><time>2026-03-24T11:02:22.961Z</time></trkpt><trkpt lat="30.11726709069249" lon="-5.478336575854601"><ele>665.0</ele><time>2026-03-24T11:02:23.961Z</time></trkpt><trkpt lat="30.117444623157475" lon="-5.4784210214604006"><ele>665.0</ele><time>2026-03-24T11:02:24.961Z</time></trkpt><trkpt lat="30.117631462967182" lon="-5.478513691099729"><ele>665.0</ele><time>2026-03-24T11:02:25.961Z</time></trkpt><trkpt lat="30.117823263419716" lon="-5.478605766172507"><ele>665.0</ele><time>2026-03-24T11:02:26.961Z</time></trkpt><trkpt lat="30.11799426128621" lon="-5.478682527862951"><ele>665.0</ele><time>2026-03-24T11:02:27.961Z</time></trkpt><trkpt lat="30.118159821371627" lon="-5.478750656541487"><ele>665.0</ele><time>2026-03-24T11:02:28.961Z</time></trkpt><trkpt lat="30.11831987604037" lon="-5.4787937220110114"><ele>665.0</ele><time>2026-03-24T11:02:29.961Z</time></trkpt><trkpt lat="30.118487076057207" lon="-5.478823260524083"><ele>665.0</ele><time>2026-03-24T11:02:30.961Z</time></trkpt><trkpt lat="30.118662520410695" lon="-5.478824409591777"><ele>665.0</ele><time>2026-03-24T11:02:31.961Z</time></trkpt><trkpt lat="30.118857386180398" lon="-5.478815434692823"><ele>665.0</ele><time>2026-03-24T11:02:32.961Z</time></trkpt><trkpt lat="30.119053478889036" lon="-5.478800748135714"><ele>665.0</ele><time>2026-03-24T11:02:33.961Z</time></trkpt><trkpt lat="30.119253944242857" lon="-5.478786352641144"><ele>666.6666666666666</ele><time>2026-03-24T11:02:34.961Z</time></trkpt><trkpt lat="30.119446340552688" lon="-5.47877259006452"><ele>668.3333333333334</ele><time>2026-03-24T11:02:35.961Z</time></trkpt><trkpt lat="30.119637202859487" lon="-5.478759336528698"><ele>670.0</ele><time>2026-03-24T11:02:36.961Z</time></trkpt><trkpt lat="30.1198372223767" lon="-5.4787453209645385"><ele>675.0</ele><time>2026-03-24T11:02:37.961Z</time></trkpt><trkpt lat="30.120029707674" lon="-5.478731663965235"><ele>680.0</ele><time>2026-03-24T11:02:38.961Z</time></trkpt><trkpt lat="30.120210538612195" lon="-5.478720982726563"><ele>685.0</ele><time>2026-03-24T11:02:39.961Z</time></trkpt><trkpt lat="30.120390131381924" lon="-5.478709436271482"><ele>685.0</ele><time>2026-03-24T11:02:40.961Z</time></trkpt><trkpt lat="30.12058094637323" lon="-5.478696711646244"><ele>685.0</ele><time>2026-03-24T11:02:41.961Z</time></trkpt><trkpt lat="30.120774466261313" lon="-5.478682137878088"><ele>685.0</ele><time>2026-03-24T11:02:42.961Z</time></trkpt><trkpt lat="30.120958639629546" lon="-5.478669256022789"><ele>686.0</ele><time>2026-03-24T11:02:43.961Z</time></trkpt><trkpt lat="30.121135156487792" lon="-5.478658736696436"><ele>687.0</ele><time>2026-03-24T11:02:44.961Z</time></trkpt><trkpt lat="30.121310666156997" lon="-5.478648189401603"><ele>688.0</ele><time>2026-03-24T11:02:45.961Z</time></trkpt><trkpt lat="30.121488436900275" lon="-5.478627656489498"><ele>688.6666666666667</ele><time>2026-03-24T11:02:46.961Z</time></trkpt><trkpt lat="30.121656886794717" lon="-5.478582221738305"><ele>689.3333333333334</ele><time>2026-03-24T11:02:47.961Z</time></trkpt><trkpt lat="30.12182335835987" lon="-5.478521876960916"><ele>690.0</ele><time>2026-03-24T11:02:48.961Z</time></trkpt><trkpt lat="30.121986072144622" lon="-5.478442701794548"><ele>690.0</ele><time>2026-03-24T11:02:49.961Z</time></trkpt><trkpt lat="30.12214525678265" lon="-5.478362123324061"><ele>690.0</ele><time>2026-03-24T11:02:50.961Z</time></trkpt><trkpt lat="30.122311589711874" lon="-5.478270037473313"><ele>690.0</ele><time>2026-03-24T11:02:51.961Z</time></trkpt><trkpt lat="30.122477008872483" lon="-5.4781780123760955"><ele>691.3333333333334</ele><time>2026-03-24T11:02:52.961Z</time></trkpt><trkpt lat="30.122646609910195" lon="-5.478090983972093"><ele>692.6666666666667</ele><time>2026-03-24T11:02:53.961Z</time></trkpt><trkpt lat="30.1228169318018" lon="-5.478008099636823"><ele>694.0</ele><time>2026-03-24T11:02:54.961Z</time></trkpt><trkpt lat="30.122992802459926" lon="-5.477917223782715"><ele>696.0</ele><time>2026-03-24T11:02:55.961Z</time></trkpt><trkpt lat="30.123169523639266" lon="-5.477823645141825"><ele>698.0</ele><time>2026-03-24T11:02:56.961Z</time></trkpt><trkpt lat="30.12332643925226" lon="-5.477740221212168"><ele>700.0</ele><time>2026-03-24T11:02:57.961Z</time></trkpt><trkpt lat="30.123474218908004" lon="-5.477665432045431"><ele>700.0</ele><time>2026-03-24T11:02:58.961Z</time></trkpt><trkpt lat="30.123605267383777" lon="-5.477598426336694"><ele>700.0</ele><time>2026-03-24T11:02:59.961Z</time></trkpt><trkpt lat="30.123759524137746" lon="-5.477533782935863"><ele>700.0</ele><time>2026-03-24T11:03:00.961Z</time></trkpt><trkpt lat="30.123922515970573" lon="-5.477497645852757"><ele>701.0</ele><time>2026-03-24T11:03:01.961Z</time></trkpt><trkpt lat="30.124099845578662" lon="-5.47748355062232"><ele>702.0</ele><time>2026-03-24T11:03:02.961Z</time></trkpt><trkpt lat="30.124281990421284" lon="-5.477485500960025"><ele>703.0</ele><time>2026-03-24T11:03:03.961Z</time></trkpt><trkpt lat="30.124461503401434" lon="-5.477491748097999"><ele>703.0</ele><time>2026-03-24T11:03:04.961Z</time></trkpt><trkpt lat="30.124638744631522" lon="-5.477499215060313"><ele>703.0</ele><time>2026-03-24T11:03:05.961Z</time></trkpt><trkpt lat="30.124818702558787" lon="-5.477508495802116"><ele>703.0</ele><time>2026-03-24T11:03:06.961Z</time></trkpt><trkpt lat="30.124999071442573" lon="-5.47751891080645"><ele>703.6666666666667</ele><time>2026-03-24T11:03:07.961Z</time></trkpt><trkpt lat="30.12518423754398" lon="-5.4775358621210835"><ele>704.3333333333334</ele><time>2026-03-24T11:03:08.961Z</time></trkpt><trkpt lat="30.125370435331764" lon="-5.47755007338685"><ele>705.0</ele><time>2026-03-24T11:03:09.961Z</time></trkpt><trkpt lat="30.1255635072632" lon="-5.477565143176006"><ele>706.3333333333334</ele><time>2026-03-24T11:03:10.961Z</time></trkpt><trkpt lat="30.125757147432996" lon="-5.477581168793825"><ele>707.6666666666667</ele><time>2026-03-24T11:03:11.961Z</time></trkpt><trkpt lat="30.12594894847311" lon="-5.477595150515437"><ele>709.0</ele><time>2026-03-24T11:03:12.961Z</time></trkpt><trkpt lat="30.126142070670394" lon="-5.477610438928027"><ele>709.0</ele><time>2026-03-24T11:03:13.961Z</time></trkpt><trkpt lat="30.126334553345814" lon="-5.477628993486227"><ele>709.0</ele><time>2026-03-24T11:03:14.961Z</time></trkpt><trkpt lat="30.1265228301903" lon="-5.477643142081298"><ele>709.0</ele><time>2026-03-24T11:03:15.961Z</time></trkpt><trkpt lat="30.126705586319257" lon="-5.477654865920549"><ele>711.3333333333334</ele><time>2026-03-24T11:03:16.96Z</time></trkpt><trkpt lat="30.126881640512135" lon="-5.477670011905509"><ele>713.6666666666666</ele><time>2026-03-24T11:03:17.96Z</time></trkpt><trkpt lat="30.127054642041966" lon="-5.4776875775593314"><ele>716.0</ele><time>2026-03-24T11:03:18.96Z</time></trkpt><trkpt lat="30.12722612530652" lon="-5.477706778920488"><ele>716.0</ele><time>2026-03-24T11:03:19.961Z</time></trkpt><trkpt lat="30.127387667939274" lon="-5.477726612079426"><ele>716.0</ele><time>2026-03-24T11:03:20.96Z</time></trkpt><trkpt lat="30.12753280848615" lon="-5.477744776261658"><ele>716.0</ele><time>2026-03-24T11:03:21.96Z</time></trkpt><trkpt lat="30.127664424514343" lon="-5.477756490869983"><ele>716.0</ele><time>2026-03-24T11:03:22.961Z</time></trkpt><trkpt lat="30.12778827892528" lon="-5.477764371001928"><ele>717.0</ele><time>2026-03-24T11:03:23.961Z</time></trkpt><trkpt lat="30.12790747729518" lon="-5.477785639350177"><ele>718.0</ele><time>2026-03-24T11:03:24.961Z</time></trkpt><trkpt lat="30.12803107400203" lon="-5.4778198354895835"><ele>719.0</ele><time>2026-03-24T11:03:25.961Z</time></trkpt><trkpt lat="30.1281527406596" lon="-5.477860496346277"><ele>720.0</ele><time>2026-03-24T11:03:26.96Z</time></trkpt><trkpt lat="30.128278125201938" lon="-5.477903968783756"><ele>721.0</ele><time>2026-03-24T11:03:27.96Z</time></trkpt><trkpt lat="30.128406387335446" lon="-5.477951474285243"><ele>722.0</ele><time>2026-03-24T11:03:28.96Z</time></trkpt><trkpt lat="30.12851969316251" lon="-5.478004567687246"><ele>723.0</ele><time>2026-03-24T11:03:29.961Z</time></trkpt><trkpt lat="30.12861420560848" lon="-5.478084483097494"><ele>724.0</ele><time>2026-03-24T11:03:30.961Z</time></trkpt><trkpt lat="30.128689976535966" lon="-5.478183189596349"><ele>724.0</ele><time>2026-03-24T11:03:31.961Z</time></trkpt><trkpt lat="30.128756882030682" lon="-5.4782837899452925"><ele>724.0</ele><time>2026-03-24T11:03:32.961Z</time></trkpt><trkpt lat="30.128822057592163" lon="-5.478390008864396"><ele>724.0</ele><time>2026-03-24T11:03:33.961Z</time></trkpt><trkpt lat="30.128897773472996" lon="-5.478500138260093"><ele>724.0</ele><time>2026-03-24T11:03:34.961Z</time></trkpt><trkpt lat="30.128979854485674" lon="-5.478597393750286"><ele>724.25</ele><time>2026-03-24T11:03:35.961Z</time></trkpt><trkpt lat="30.12907182523144" lon="-5.4786817489786435"><ele>724.5</ele><time>2026-03-24T11:03:36.961Z</time></trkpt><trkpt lat="30.129174115522662" lon="-5.478753585217086"><ele>724.75</ele><time>2026-03-24T11:03:37.961Z</time></trkpt><trkpt lat="30.129276077953413" lon="-5.478820362615564"><ele>725.0</ele><time>2026-03-24T11:03:38.961Z</time></trkpt><trkpt lat="30.129383133896784" lon="-5.478890276783453"><ele>722.0</ele><time>2026-03-24T11:03:39.961Z</time></trkpt><trkpt lat="30.129489897685744" lon="-5.478961941822247"><ele>719.0</ele><time>2026-03-24T11:03:40.961Z</time></trkpt><trkpt lat="30.129603508255357" lon="-5.479033338762793"><ele>716.0</ele><time>2026-03-24T11:03:41.961Z</time></trkpt><trkpt lat="30.129727607345163" lon="-5.479094445939382"><ele>713.0</ele><time>2026-03-24T11:03:42.961Z</time></trkpt><trkpt lat="30.129850572292305" lon="-5.479167521699165"><ele>711.75</ele><time>2026-03-24T11:03:43.961Z</time></trkpt><trkpt lat="30.129977787959643" lon="-5.479235233718406"><ele>710.5</ele><time>2026-03-24T11:03:44.961Z</time></trkpt><trkpt lat="30.130109805435023" lon="-5.479318634525107"><ele>709.25</ele><time>2026-03-24T11:03:45.961Z</time></trkpt><trkpt lat="30.130233077067544" lon="-5.479402158791385"><ele>708.0</ele><time>2026-03-24T11:03:46.961Z</time></trkpt><trkpt lat="30.13035190340746" lon="-5.479486778277362"><ele>708.0</ele><time>2026-03-24T11:03:47.961Z</time></trkpt><trkpt lat="30.130470461171356" lon="-5.479573883501839"><ele>708.0</ele><time>2026-03-24T11:03:48.961Z</time></trkpt><trkpt lat="30.13058610322705" lon="-5.4796617771541705"><ele>708.0</ele><time>2026-03-24T11:03:49.961Z</time></trkpt><trkpt lat="30.130702316450343" lon="-5.479752287020442"><ele>708.0</ele><time>2026-03-24T11:03:50.961Z</time></trkpt><trkpt lat="30.130818372369678" lon="-5.479836882316995"><ele>704.25</ele><time>2026-03-24T11:03:51.961Z</time></trkpt><trkpt lat="30.130934484792956" lon="-5.479909729048187"><ele>700.5</ele><time>2026-03-24T11:03:52.961Z</time></trkpt><trkpt lat="30.131047973099808" lon="-5.479986267991983"><ele>696.75</ele><time>2026-03-24T11:03:53.961Z</time></trkpt><trkpt lat="30.13116737823735" lon="-5.480045163164314"><ele>693.0</ele><time>2026-03-24T11:03:54.961Z</time></trkpt><trkpt lat="30.131294191589856" lon="-5.480071843975075"><ele>693.0</ele><time>2026-03-24T11:03:55.961Z</time></trkpt><trkpt lat="30.131428575544465" lon="-5.480067277213359"><ele>693.0</ele><time>2026-03-24T11:03:56.961Z</time></trkpt><trkpt lat="30.131558090435934" lon="-5.4800521513383975"><ele>693.0</ele><time>2026-03-24T11:03:57.961Z</time></trkpt><trkpt lat="30.131677666588352" lon="-5.48005185505607"><ele>693.0</ele><time>2026-03-24T11:03:58.961Z</time></trkpt><trkpt lat="30.13178787335523" lon="-5.480071994319976"><ele>693.5</ele><time>2026-03-24T11:03:59.961Z</time></trkpt><trkpt lat="30.131898644520998" lon="-5.480116370275505"><ele>694.0</ele><time>2026-03-24T11:04:00.961Z</time></trkpt><trkpt lat="30.13199123679362" lon="-5.48020444558399"><ele>694.5</ele><time>2026-03-24T11:04:01.961Z</time></trkpt><trkpt lat="30.132068199173997" lon="-5.480320407185246"><ele>695.0</ele><time>2026-03-24T11:04:02.961Z</time></trkpt><trkpt lat="30.132141176508757" lon="-5.480454297205166"><ele>692.75</ele><time>2026-03-24T11:04:03.961Z</time></trkpt><trkpt lat="30.132220436618866" lon="-5.480595588943109"><ele>690.5</ele><time>2026-03-24T11:04:04.961Z</time></trkpt><trkpt lat="30.13229447536589" lon="-5.480714773421719"><ele>688.25</ele><time>2026-03-24T11:04:05.961Z</time></trkpt><trkpt lat="30.13237168381983" lon="-5.480828666290355"><ele>686.0</ele><time>2026-03-24T11:04:06.961Z</time></trkpt><trkpt lat="30.132461654482146" lon="-5.480913331616637"><ele>686.0</ele><time>2026-03-24T11:04:07.961Z</time></trkpt><trkpt lat="30.132566827477394" lon="-5.480970419593539"><ele>686.0</ele><time>2026-03-24T11:04:08.961Z</time></trkpt><trkpt lat="30.132670257848172" lon="-5.480980869310746"><ele>686.0</ele><time>2026-03-24T11:04:09.961Z</time></trkpt><trkpt lat="30.132782132518166" lon="-5.480963837352901"><ele>686.0</ele><time>2026-03-24T11:04:10.961Z</time></trkpt><trkpt lat="30.13289891924415" lon="-5.480920424480473"><ele>686.0</ele><time>2026-03-24T11:04:11.961Z</time></trkpt><trkpt lat="30.133019643531597" lon="-5.480837732681518"><ele>686.0</ele><time>2026-03-24T11:04:12.961Z</time></trkpt><trkpt lat="30.13314448185013" lon="-5.480720762795882"><ele>686.0</ele><time>2026-03-24T11:04:13.961Z</time></trkpt><trkpt lat="30.133262558485225" lon="-5.480615587950452"><ele>683.25</ele><time>2026-03-24T11:04:14.961Z</time></trkpt><trkpt lat="30.133372267406568" lon="-5.480518483279292"><ele>680.5</ele><time>2026-03-24T11:04:15.961Z</time></trkpt><trkpt lat="30.133483820769612" lon="-5.48042949012127"><ele>677.75</ele><time>2026-03-24T11:04:16.961Z</time></trkpt><trkpt lat="30.13358639391813" lon="-5.480346141553291"><ele>675.0</ele><time>2026-03-24T11:04:17.961Z</time></trkpt><trkpt lat="30.133691570388365" lon="-5.4802678969102"><ele>676.5</ele><time>2026-03-24T11:04:18.961Z</time></trkpt><trkpt lat="30.13379671083883" lon="-5.480200509118725"><ele>678.0</ele><time>2026-03-24T11:04:19.961Z</time></trkpt><trkpt lat="30.13390321502817" lon="-5.480135539888065"><ele>679.5</ele><time>2026-03-24T11:04:20.961Z</time></trkpt><trkpt lat="30.134003946133344" lon="-5.480073495617983"><ele>681.0</ele><time>2026-03-24T11:04:21.961Z</time></trkpt><trkpt lat="30.134098677242957" lon="-5.4800144370920885"><ele>681.0</ele><time>2026-03-24T11:04:22.961Z</time></trkpt><trkpt lat="30.13419480964488" lon="-5.479959311916872"><ele>681.0</ele><time>2026-03-24T11:04:23.961Z</time></trkpt><trkpt lat="30.134279978703056" lon="-5.479911467355292"><ele>681.0</ele><time>2026-03-24T11:04:24.961Z</time></trkpt><trkpt lat="30.134358799496223" lon="-5.479884623454466"><ele>681.0</ele><time>2026-03-24T11:04:25.961Z</time></trkpt><trkpt lat="30.134432977600827" lon="-5.479896017645946"><ele>681.0</ele><time>2026-03-24T11:04:26.961Z</time></trkpt><trkpt lat="30.134504007513545" lon="-5.479943274364329"><ele>681.0</ele><time>2026-03-24T11:04:27.961Z</time></trkpt><trkpt lat="30.13454071149313" lon="-5.480028266964561"><ele>681.0</ele><time>2026-03-24T11:04:28.961Z</time></trkpt><trkpt lat="30.13453993791707" lon="-5.480125823660595"><ele>681.0</ele><time>2026-03-24T11:04:29.961Z</time></trkpt><trkpt lat="30.134495308410738" lon="-5.480212678816573"><ele>681.0</ele><time>2026-03-24T11:04:30.961Z</time></trkpt><trkpt lat="30.134400408367892" lon="-5.480283106211843"><ele>681.0</ele><time>2026-03-24T11:04:31.961Z</time></trkpt><trkpt lat="30.134279493865535" lon="-5.480357542811755"><ele>681.0</ele><time>2026-03-24T11:04:32.961Z</time></trkpt><trkpt lat="30.134138292716404" lon="-5.480455325910278"><ele>679.0</ele><time>2026-03-24T11:04:33.961Z</time></trkpt><trkpt lat="30.133997407252252" lon="-5.480551357240218"><ele>677.0</ele><time>2026-03-24T11:04:34.961Z</time></trkpt><trkpt lat="30.133867095730242" lon="-5.48065962894909"><ele>675.0</ele><time>2026-03-24T11:04:35.961Z</time></trkpt><trkpt lat="30.133751766472304" lon="-5.480772323061774"><ele>675.0</ele><time>2026-03-24T11:04:36.961Z</time></trkpt><trkpt lat="30.13364335165661" lon="-5.480886705147533"><ele>675.0</ele><time>2026-03-24T11:04:37.961Z</time></trkpt><trkpt lat="30.13354664607528" lon="-5.481003129166952"><ele>675.0</ele><time>2026-03-24T11:04:38.961Z</time></trkpt><trkpt lat="30.13345307737032" lon="-5.4811214674612705"><ele>675.0</ele><time>2026-03-24T11:04:39.961Z</time></trkpt><trkpt lat="30.133374162417994" lon="-5.481244768333742"><ele>670.5</ele><time>2026-03-24T11:04:40.961Z</time></trkpt><trkpt lat="30.133324001021013" lon="-5.481386225899613"><ele>666.0</ele><time>2026-03-24T11:04:41.961Z</time></trkpt><trkpt lat="30.133297461282684" lon="-5.481543485756616"><ele>661.5</ele><time>2026-03-24T11:04:42.961Z</time></trkpt><trkpt lat="30.1333250294488" lon="-5.481710270854456"><ele>657.0</ele><time>2026-03-24T11:04:43.961Z</time></trkpt><trkpt lat="30.13337782042203" lon="-5.481887774813211"><ele>657.0</ele><time>2026-03-24T11:04:44.961Z</time></trkpt><trkpt lat="30.13344653068559" lon="-5.482092752700989"><ele>657.0</ele><time>2026-03-24T11:04:45.96Z</time></trkpt><trkpt lat="30.13351090416484" lon="-5.482315395094433"><ele>657.0</ele><time>2026-03-24T11:04:46.96Z</time></trkpt><trkpt lat="30.133573498333305" lon="-5.482524720532873"><ele>655.6666666666666</ele><time>2026-03-24T11:04:47.96Z</time></trkpt><trkpt lat="30.133631984424685" lon="-5.482720236413675"><ele>654.3333333333333</ele><time>2026-03-24T11:04:48.96Z</time></trkpt><trkpt lat="30.133688977915536" lon="-5.482903272738965"><ele>653.0</ele><time>2026-03-24T11:04:49.96Z</time></trkpt><trkpt lat="30.133745880392688" lon="-5.483083417294984"><ele>653.0</ele><time>2026-03-24T11:04:50.96Z</time></trkpt><trkpt lat="30.13379998867364" lon="-5.483254846820739"><ele>653.0</ele><time>2026-03-24T11:04:51.96Z</time></trkpt><trkpt lat="30.13384828527039" lon="-5.4834152398024445"><ele>653.0</ele><time>2026-03-24T11:04:52.96Z</time></trkpt><trkpt lat="30.1338880622376" lon="-5.483557163051871"><ele>653.0</ele><time>2026-03-24T11:04:53.96Z</time></trkpt><trkpt lat="30.133912048681697" lon="-5.483695995434881"><ele>652.5</ele><time>2026-03-24T11:04:54.96Z</time></trkpt><trkpt lat="30.133923943013706" lon="-5.483835152804907"><ele>652.0</ele><time>2026-03-24T11:04:55.96Z</time></trkpt><trkpt lat="30.133911014270662" lon="-5.483963779948429"><ele>651.5</ele><time>2026-03-24T11:04:56.96Z</time></trkpt><trkpt lat="30.133871025027737" lon="-5.484083264143191"><ele>651.0</ele><time>2026-03-24T11:04:57.96Z</time></trkpt><trkpt lat="30.133789559526274" lon="-5.484232170318868"><ele>651.0</ele><time>2026-03-24T11:04:58.96Z</time></trkpt><trkpt lat="30.13369981637749" lon="-5.484374508366592"><ele>651.0</ele><time>2026-03-24T11:04:59.96Z</time></trkpt><trkpt lat="30.133599252495895" lon="-5.4845309672990705"><ele>651.0</ele><time>2026-03-24T11:05:00.96Z</time></trkpt><trkpt lat="30.133498651820446" lon="-5.484683801810691"><ele>654.0</ele><time>2026-03-24T11:05:01.96Z</time></trkpt><trkpt lat="30.1334032962084" lon="-5.4848363129232345"><ele>657.0</ele><time>2026-03-24T11:05:02.96Z</time></trkpt><trkpt lat="30.13331396893646" lon="-5.4849867898441795"><ele>660.0</ele><time>2026-03-24T11:05:03.96Z</time></trkpt><trkpt lat="30.133232060550352" lon="-5.485134102810478"><ele>657.0</ele><time>2026-03-24T11:05:04.96Z</time></trkpt><trkpt lat="30.13314954484507" lon="-5.485284672260882"><ele>654.0</ele><time>2026-03-24T11:05:05.96Z</time></trkpt><trkpt lat="30.133077500928756" lon="-5.485446711323006"><ele>651.0</ele><time>2026-03-24T11:05:06.96Z</time></trkpt><trkpt lat="30.1330195476553" lon="-5.4856223693804935"><ele>651.0</ele><time>2026-03-24T11:05:07.96Z</time></trkpt><trkpt lat="30.13296971226515" lon="-5.485805550168554"><ele>651.0</ele><time>2026-03-24T11:05:08.96Z</time></trkpt><trkpt lat="30.13292350085198" lon="-5.48599859813617"><ele>651.0</ele><time>2026-03-24T11:05:09.96Z</time></trkpt><trkpt lat="30.132877585446103" lon="-5.486198851240645"><ele>650.0</ele><time>2026-03-24T11:05:10.96Z</time></trkpt><trkpt lat="30.13283599548941" lon="-5.486394988626675"><ele>649.0</ele><time>2026-03-24T11:05:11.96Z</time></trkpt><trkpt lat="30.1327956609917" lon="-5.48658686628237"><ele>648.0</ele><time>2026-03-24T11:05:12.96Z</time></trkpt><trkpt lat="30.13275785118956" lon="-5.486769840550733"><ele>648.0</ele><time>2026-03-24T11:05:13.96Z</time></trkpt><trkpt lat="30.13272411918091" lon="-5.486934119584708"><ele>648.0</ele><time>2026-03-24T11:05:14.96Z</time></trkpt><trkpt lat="30.132693544593742" lon="-5.487093006890097"><ele>648.0</ele><time>2026-03-24T11:05:15.96Z</time></trkpt><trkpt lat="30.132669459846813" lon="-5.487245955475856"><ele>648.0</ele><time>2026-03-24T11:05:16.96Z</time></trkpt><trkpt lat="30.13265426442037" lon="-5.487387079798977"><ele>648.0</ele><time>2026-03-24T11:05:17.96Z</time></trkpt><trkpt lat="30.13265118276834" lon="-5.487516164865892"><ele>648.0</ele><time>2026-03-24T11:05:18.96Z</time></trkpt><trkpt lat="30.1326665021687" lon="-5.487640716906591"><ele>648.0</ele><time>2026-03-24T11:05:19.96Z</time></trkpt><trkpt lat="30.132692840422617" lon="-5.487779784697235"><ele>648.0</ele><time>2026-03-24T11:05:20.96Z</time></trkpt><trkpt lat="30.132728204685385" lon="-5.4879117394393075"><ele>646.75</ele><time>2026-03-24T11:05:21.959Z</time></trkpt><trkpt lat="30.13277331424358" lon="-5.488047053890465"><ele>645.5</ele><time>2026-03-24T11:05:22.959Z</time></trkpt><trkpt lat="30.132825615823528" lon="-5.488183964495123"><ele>644.25</ele><time>2026-03-24T11:05:23.959Z</time></trkpt><trkpt lat="30.13288028745049" lon="-5.488329701954307"><ele>643.0</ele><time>2026-03-24T11:05:24.96Z</time></trkpt><trkpt lat="30.13293741000702" lon="-5.4884743630074375"><ele>643.0</ele><time>2026-03-24T11:05:25.96Z</time></trkpt><trkpt lat="30.132994058045977" lon="-5.488619306199523"><ele>643.0</ele><time>2026-03-24T11:05:26.96Z</time></trkpt><trkpt lat="30.13304860374217" lon="-5.488769219181065"><ele>643.0</ele><time>2026-03-24T11:05:27.96Z</time></trkpt><trkpt lat="30.13310348337925" lon="-5.4889236124405905"><ele>643.0</ele><time>2026-03-24T11:05:28.96Z</time></trkpt><trkpt lat="30.133160821033147" lon="-5.48907614639149"><ele>648.0</ele><time>2026-03-24T11:05:29.96Z</time></trkpt><trkpt lat="30.133222437965834" lon="-5.489235950032498"><ele>653.0</ele><time>2026-03-24T11:05:30.96Z</time></trkpt><trkpt lat="30.1332838553265" lon="-5.489398915910945"><ele>658.0</ele><time>2026-03-24T11:05:31.96Z</time></trkpt><trkpt lat="30.133351187887524" lon="-5.489559806478304"><ele>654.0</ele><time>2026-03-24T11:05:32.96Z</time></trkpt><trkpt lat="30.133426069655755" lon="-5.489711465941337"><ele>650.0</ele><time>2026-03-24T11:05:33.96Z</time></trkpt><trkpt lat="30.133508377317927" lon="-5.489859769542922"><ele>646.0</ele><time>2026-03-24T11:05:34.959Z</time></trkpt><trkpt lat="30.13360580825524" lon="-5.489998591412717"><ele>646.0</ele><time>2026-03-24T11:05:35.959Z</time></trkpt><trkpt lat="30.133721172334916" lon="-5.49011760522256"><ele>646.0</ele><time>2026-03-24T11:05:36.959Z</time></trkpt><trkpt lat="30.1338476456153" lon="-5.490226933144198"><ele>646.0</ele><time>2026-03-24T11:05:37.959Z</time></trkpt><trkpt lat="30.133983583301333" lon="-5.490322868852981"><ele>645.6666666666667</ele><time>2026-03-24T11:05:38.959Z</time></trkpt><trkpt lat="30.134126957712972" lon="-5.490422045805796"><ele>645.3333333333334</ele><time>2026-03-24T11:05:39.959Z</time></trkpt><trkpt lat="30.13426933548734" lon="-5.490530953164371"><ele>645.0</ele><time>2026-03-24T11:05:40.959Z</time></trkpt><trkpt lat="30.134404582356794" lon="-5.49064756878772"><ele>645.0</ele><time>2026-03-24T11:05:41.959Z</time></trkpt><trkpt lat="30.134537931551932" lon="-5.490772166203031"><ele>645.0</ele><time>2026-03-24T11:05:42.959Z</time></trkpt><trkpt lat="30.134679653951505" lon="-5.490881429018253"><ele>645.0</ele><time>2026-03-24T11:05:43.959Z</time></trkpt><trkpt lat="30.134823068464133" lon="-5.490993698881152"><ele>644.0</ele><time>2026-03-24T11:05:44.959Z</time></trkpt><trkpt lat="30.13496593525602" lon="-5.491121017655603"><ele>643.0</ele><time>2026-03-24T11:05:45.959Z</time></trkpt><trkpt lat="30.135105957350085" lon="-5.491257340476297"><ele>642.0</ele><time>2026-03-24T11:05:46.959Z</time></trkpt><trkpt lat="30.135239501146845" lon="-5.491395178599868"><ele>642.0</ele><time>2026-03-24T11:05:47.959Z</time></trkpt><trkpt lat="30.135362240765307" lon="-5.491525467929238"><ele>642.0</ele><time>2026-03-24T11:05:48.959Z</time></trkpt><trkpt lat="30.13546961078666" lon="-5.491652315086172"><ele>642.0</ele><time>2026-03-24T11:05:49.959Z</time></trkpt><trkpt lat="30.135568495353805" lon="-5.49178004429852"><ele>642.0</ele><time>2026-03-24T11:05:50.959Z</time></trkpt><trkpt lat="30.135664240843" lon="-5.491920228532104"><ele>642.0</ele><time>2026-03-24T11:05:51.959Z</time></trkpt><trkpt lat="30.135764312016384" lon="-5.4920602633551034"><ele>642.0</ele><time>2026-03-24T11:05:52.959Z</time></trkpt><trkpt lat="30.135872973716868" lon="-5.492201423500077"><ele>645.3333333333334</ele><time>2026-03-24T11:05:53.959Z</time></trkpt><trkpt lat="30.135993378217336" lon="-5.492340967700772"><ele>648.6666666666667</ele><time>2026-03-24T11:05:54.96Z</time></trkpt><trkpt lat="30.13612666163382" lon="-5.492469588858707"><ele>652.0</ele><time>2026-03-24T11:05:55.96Z</time></trkpt><trkpt lat="30.136265107540716" lon="-5.492593408446751"><ele>652.0</ele><time>2026-03-24T11:05:56.96Z</time></trkpt><trkpt lat="30.13640390384528" lon="-5.492723433686317"><ele>652.0</ele><time>2026-03-24T11:05:57.96Z</time></trkpt><trkpt lat="30.136548027071665" lon="-5.492853383315872"><ele>652.0</ele><time>2026-03-24T11:05:58.96Z</time></trkpt><trkpt lat="30.136697193406803" lon="-5.4929844197403925"><ele>651.6666666666667</ele><time>2026-03-24T11:05:59.96Z</time></trkpt><trkpt lat="30.136846358641304" lon="-5.493117590470575"><ele>651.3333333333334</ele><time>2026-03-24T11:06:00.96Z</time></trkpt><trkpt lat="30.136996894896864" lon="-5.493254224251011"><ele>651.0</ele><time>2026-03-24T11:06:01.96Z</time></trkpt><trkpt lat="30.13714891878311" lon="-5.493394546105976"><ele>651.0</ele><time>2026-03-24T11:06:02.96Z</time></trkpt><trkpt lat="30.137299761155806" lon="-5.493540429350631"><ele>651.0</ele><time>2026-03-24T11:06:03.96Z</time></trkpt><trkpt lat="30.13744943345338" lon="-5.49369021097372"><ele>651.0</ele><time>2026-03-24T11:06:04.96Z</time></trkpt><trkpt lat="30.137605406480674" lon="-5.4938314016323355"><ele>649.6666666666666</ele><time>2026-03-24T11:06:05.96Z</time></trkpt><trkpt lat="30.137765623751726" lon="-5.493973197884918"><ele>648.3333333333333</ele><time>2026-03-24T11:06:06.96Z</time></trkpt><trkpt lat="30.137919818753485" lon="-5.494111523414039"><ele>647.0</ele><time>2026-03-24T11:06:07.96Z</time></trkpt><trkpt lat="30.13807761461746" lon="-5.494246432115502"><ele>644.6666666666666</ele><time>2026-03-24T11:06:08.96Z</time></trkpt><trkpt lat="30.138241046850275" lon="-5.494374938500691"><ele>642.3333333333334</ele><time>2026-03-24T11:06:09.96Z</time></trkpt><trkpt lat="30.13840553982341" lon="-5.494508246070757"><ele>640.0</ele><time>2026-03-24T11:06:10.96Z</time></trkpt><trkpt lat="30.138569984862972" lon="-5.494640597624435"><ele>640.0</ele><time>2026-03-24T11:06:11.96Z</time></trkpt><trkpt lat="30.1387349503583" lon="-5.494769954335329"><ele>640.0</ele><time>2026-03-24T11:06:12.96Z</time></trkpt><trkpt lat="30.13889674377738" lon="-5.494903375261305"><ele>640.0</ele><time>2026-03-24T11:06:13.96Z</time></trkpt><trkpt lat="30.139057677090992" lon="-5.4950375976710495"><ele>641.0</ele><time>2026-03-24T11:06:14.96Z</time></trkpt><trkpt lat="30.139216630881418" lon="-5.495171932666512"><ele>642.0</ele><time>2026-03-24T11:06:15.96Z</time></trkpt><trkpt lat="30.13937318976467" lon="-5.495306639149914"><ele>643.0</ele><time>2026-03-24T11:06:16.96Z</time></trkpt><trkpt lat="30.13951772114944" lon="-5.495448028087473"><ele>643.0</ele><time>2026-03-24T11:06:17.96Z</time></trkpt><trkpt lat="30.13966147251513" lon="-5.495586460102227"><ele>643.0</ele><time>2026-03-24T11:06:18.96Z</time></trkpt><trkpt lat="30.139802605597403" lon="-5.495721199570276"><ele>643.0</ele><time>2026-03-24T11:06:19.96Z</time></trkpt><trkpt lat="30.139938366640493" lon="-5.4958649415162"><ele>644.3333333333334</ele><time>2026-03-24T11:06:20.96Z</time></trkpt><trkpt lat="30.140074383967352" lon="-5.496016429887358"><ele>645.6666666666666</ele><time>2026-03-24T11:06:21.96Z</time></trkpt><trkpt lat="30.140209926492584" lon="-5.496164484739525"><ele>647.0</ele><time>2026-03-24T11:06:22.96Z</time></trkpt><trkpt lat="30.140339714635875" lon="-5.4963333968754355"><ele>647.0</ele><time>2026-03-24T11:06:23.96Z</time></trkpt><trkpt lat="30.140466092117446" lon="-5.496492491575748"><ele>647.0</ele><time>2026-03-24T11:06:24.96Z</time></trkpt><trkpt lat="30.14058035952088" lon="-5.496658993828445"><ele>647.0</ele><time>2026-03-24T11:06:25.96Z</time></trkpt><trkpt lat="30.14069596873964" lon="-5.49682793851486"><ele>647.6666666666666</ele><time>2026-03-24T11:06:26.96Z</time></trkpt><trkpt lat="30.14080732359572" lon="-5.496997363742397"><ele>648.3333333333334</ele><time>2026-03-24T11:06:27.96Z</time></trkpt><trkpt lat="30.140925651358764" lon="-5.497168006388631"><ele>649.0</ele><time>2026-03-24T11:06:28.96Z</time></trkpt><trkpt lat="30.141048290008502" lon="-5.497338485297486"><ele>649.0</ele><time>2026-03-24T11:06:29.96Z</time></trkpt><trkpt lat="30.14117565619529" lon="-5.4975188164318105"><ele>649.0</ele><time>2026-03-24T11:06:30.96Z</time></trkpt><trkpt lat="30.141304359168696" lon="-5.497692884711561"><ele>649.0</ele><time>2026-03-24T11:06:31.96Z</time></trkpt><trkpt lat="30.141431843078507" lon="-5.4978661034119645"><ele>650.6666666666667</ele><time>2026-03-24T11:06:32.96Z</time></trkpt><trkpt lat="30.14157139480273" lon="-5.498018494920899"><ele>652.3333333333334</ele><time>2026-03-24T11:06:33.96Z</time></trkpt><trkpt lat="30.141699035507052" lon="-5.4981791321373645"><ele>654.0</ele><time>2026-03-24T11:06:34.96Z</time></trkpt><trkpt lat="30.141829272694064" lon="-5.498335856950665"><ele>654.0</ele><time>2026-03-24T11:06:35.96Z</time></trkpt><trkpt lat="30.141962553433935" lon="-5.498498040053728"><ele>654.0</ele><time>2026-03-24T11:06:36.96Z</time></trkpt><trkpt lat="30.142092853485934" lon="-5.49865681407673"><ele>654.0</ele><time>2026-03-24T11:06:37.96Z</time></trkpt><trkpt lat="30.142226623903284" lon="-5.498821211392289"><ele>653.3333333333334</ele><time>2026-03-24T11:06:38.96Z</time></trkpt><trkpt lat="30.142359811646084" lon="-5.498991363159157"><ele>652.6666666666667</ele><time>2026-03-24T11:06:39.96Z</time></trkpt><trkpt lat="30.14249128906365" lon="-5.49916946606653"><ele>652.0</ele><time>2026-03-24T11:06:40.96Z</time></trkpt><trkpt lat="30.14261715282155" lon="-5.499373353711783"><ele>649.5</ele><time>2026-03-24T11:06:41.96Z</time></trkpt><trkpt lat="30.142738379145577" lon="-5.499594224579999"><ele>647.0</ele><time>2026-03-24T11:06:42.96Z</time></trkpt><trkpt lat="30.142864118297613" lon="-5.499822502158289"><ele>647.0</ele><time>2026-03-24T11:06:43.96Z</time></trkpt><trkpt lat="30.14297776331027" lon="-5.5000137040327495"><ele>647.0</ele><time>2026-03-24T11:06:44.96Z</time></trkpt><trkpt lat="30.143096814014072" lon="-5.500199923860198"><ele>647.0</ele><time>2026-03-24T11:06:45.96Z</time></trkpt><trkpt lat="30.143220443515972" lon="-5.5003864428554206"><ele>647.6666666666666</ele><time>2026-03-24T11:06:46.96Z</time></trkpt><trkpt lat="30.143347920030777" lon="-5.500576179708906"><ele>648.3333333333334</ele><time>2026-03-24T11:06:47.96Z</time></trkpt><trkpt lat="30.143466645647067" lon="-5.500765509273944"><ele>649.0</ele><time>2026-03-24T11:06:48.959Z</time></trkpt><trkpt lat="30.143586242707777" lon="-5.500948136337254"><ele>649.0</ele><time>2026-03-24T11:06:49.959Z</time></trkpt><trkpt lat="30.143691699345883" lon="-5.501134239509098"><ele>649.0</ele><time>2026-03-24T11:06:50.959Z</time></trkpt><trkpt lat="30.143826452408877" lon="-5.501289542800969"><ele>649.0</ele><time>2026-03-24T11:06:51.959Z</time></trkpt><trkpt lat="30.143952045755317" lon="-5.501442342723755"><ele>649.3333333333334</ele><time>2026-03-24T11:06:52.959Z</time></trkpt><trkpt lat="30.14408042187895" lon="-5.501594182771545"><ele>649.6666666666666</ele><time>2026-03-24T11:06:53.959Z</time></trkpt><trkpt lat="30.14422193047511" lon="-5.50175515120839"><ele>650.0</ele><time>2026-03-24T11:06:54.959Z</time></trkpt><trkpt lat="30.144364602188304" lon="-5.501914850959619"><ele>650.0</ele><time>2026-03-24T11:06:55.959Z</time></trkpt><trkpt lat="30.144506960555614" lon="-5.502070082713592"><ele>650.0</ele><time>2026-03-24T11:06:56.959Z</time></trkpt><trkpt lat="30.144650014015536" lon="-5.502223068162848"><ele>650.0</ele><time>2026-03-24T11:06:57.959Z</time></trkpt><trkpt lat="30.144793952943413" lon="-5.502359350103234"><ele>650.6666666666666</ele><time>2026-03-24T11:06:58.959Z</time></trkpt><trkpt lat="30.144943566780146" lon="-5.50249333536812"><ele>651.3333333333334</ele><time>2026-03-24T11:06:59.959Z</time></trkpt><trkpt lat="30.145091631482416" lon="-5.5026218152519775"><ele>652.0</ele><time>2026-03-24T11:07:00.959Z</time></trkpt><trkpt lat="30.145239824601447" lon="-5.502746744246251"><ele>652.0</ele><time>2026-03-24T11:07:01.959Z</time></trkpt><trkpt lat="30.145390208528912" lon="-5.50287370719345"><ele>652.0</ele><time>2026-03-24T11:07:02.959Z</time></trkpt><trkpt lat="30.145530387281404" lon="-5.503008053219548"><ele>652.0</ele><time>2026-03-24T11:07:03.959Z</time></trkpt><trkpt lat="30.145651983985843" lon="-5.503154578711071"><ele>653.0</ele><time>2026-03-24T11:07:04.959Z</time></trkpt><trkpt lat="30.14576305658075" lon="-5.503328095361343"><ele>654.0</ele><time>2026-03-24T11:07:05.959Z</time></trkpt><trkpt lat="30.14584564621806" lon="-5.503505495537848"><ele>655.0</ele><time>2026-03-24T11:07:06.959Z</time></trkpt><trkpt lat="30.14592861232073" lon="-5.503667249695996"><ele>651.6666666666667</ele><time>2026-03-24T11:07:07.959Z</time></trkpt><trkpt lat="30.146005247232637" lon="-5.503819144455694"><ele>648.3333333333334</ele><time>2026-03-24T11:07:08.959Z</time></trkpt><trkpt lat="30.146090684857807" lon="-5.50395513755347"><ele>645.0</ele><time>2026-03-24T11:07:09.959Z</time></trkpt><trkpt lat="30.146213523282427" lon="-5.504062015267492"><ele>645.0</ele><time>2026-03-24T11:07:10.959Z</time></trkpt><trkpt lat="30.146355183006403" lon="-5.5041661064112395"><ele>645.0</ele><time>2026-03-24T11:07:11.959Z</time></trkpt><trkpt lat="30.14650499989632" lon="-5.504273554032202"><ele>645.0</ele><time>2026-03-24T11:07:12.959Z</time></trkpt><trkpt lat="30.146660190550552" lon="-5.50438520580749"><ele>644.6666666666666</ele><time>2026-03-24T11:07:13.959Z</time></trkpt><trkpt lat="30.146821316168353" lon="-5.504499159624088"><ele>644.3333333333333</ele><time>2026-03-24T11:07:14.959Z</time></trkpt><trkpt lat="30.146981942576346" lon="-5.504612718743838"><ele>644.0</ele><time>2026-03-24T11:07:15.959Z</time></trkpt><trkpt lat="30.14714139098362" lon="-5.504725810487663"><ele>644.0</ele><time>2026-03-24T11:07:16.959Z</time></trkpt><trkpt lat="30.147304291172247" lon="-5.504841360102945"><ele>644.0</ele><time>2026-03-24T11:07:17.959Z</time></trkpt><trkpt lat="30.147466161168033" lon="-5.504957298281893"><ele>644.0</ele><time>2026-03-24T11:07:18.959Z</time></trkpt><trkpt lat="30.147629071355684" lon="-5.5050711271135375"><ele>647.3333333333333</ele><time>2026-03-24T11:07:19.959Z</time></trkpt><trkpt lat="30.147791940833212" lon="-5.50518297727933"><ele>650.6666666666666</ele><time>2026-03-24T11:07:20.959Z</time></trkpt><trkpt lat="30.147952184043636" lon="-5.505288733906205"><ele>654.0</ele><time>2026-03-24T11:07:21.959Z</time></trkpt><trkpt lat="30.148114557063295" lon="-5.505398032393213"><ele>652.3333333333334</ele><time>2026-03-24T11:07:22.959Z</time></trkpt><trkpt lat="30.148276837421147" lon="-5.505507860469944"><ele>650.6666666666667</ele><time>2026-03-24T11:07:23.959Z</time></trkpt><trkpt lat="30.1484551501146" lon="-5.505629470590527"><ele>649.0</ele><time>2026-03-24T11:07:24.959Z</time></trkpt><trkpt lat="30.14863978062325" lon="-5.5057618448405545"><ele>649.0</ele><time>2026-03-24T11:07:25.959Z</time></trkpt><trkpt lat="30.14882437547471" lon="-5.5058985392986886"><ele>649.0</ele><time>2026-03-24T11:07:26.959Z</time></trkpt><trkpt lat="30.148987706324263" lon="-5.506013761358359"><ele>649.0</ele><time>2026-03-24T11:07:27.959Z</time></trkpt><trkpt lat="30.149151597965247" lon="-5.506127649232321"><ele>650.0</ele><time>2026-03-24T11:07:28.96Z</time></trkpt><trkpt lat="30.1493052819459" lon="-5.506234573938878"><ele>651.0</ele><time>2026-03-24T11:07:29.96Z</time></trkpt><trkpt lat="30.149450540220585" lon="-5.506335883244069"><ele>652.0</ele><time>2026-03-24T11:07:30.959Z</time></trkpt><trkpt lat="30.14959280826844" lon="-5.506434334107222"><ele>652.0</ele><time>2026-03-24T11:07:31.959Z</time></trkpt><trkpt lat="30.149731962070696" lon="-5.506534017722243"><ele>652.0</ele><time>2026-03-24T11:07:32.959Z</time></trkpt><trkpt lat="30.149866906135284" lon="-5.506637669962535"><ele>652.0</ele><time>2026-03-24T11:07:33.96Z</time></trkpt><trkpt lat="30.149995306862987" lon="-5.506754007396803"><ele>652.0</ele><time>2026-03-24T11:07:34.959Z</time></trkpt><trkpt lat="30.150115567826674" lon="-5.50690036768426"><ele>652.0</ele><time>2026-03-24T11:07:35.959Z</time></trkpt><trkpt lat="30.15021260644108" lon="-5.507066347116001"><ele>652.0</ele><time>2026-03-24T11:07:36.96Z</time></trkpt><trkpt lat="30.15032009746464" lon="-5.507225476240858"><ele>651.3333333333334</ele><time>2026-03-24T11:07:37.959Z</time></trkpt><trkpt lat="30.150410278803065" lon="-5.507381129193231"><ele>650.6666666666666</ele><time>2026-03-24T11:07:38.959Z</time></trkpt><trkpt lat="30.150494202486822" lon="-5.50754680539718"><ele>650.0</ele><time>2026-03-24T11:07:39.959Z</time></trkpt><trkpt lat="30.150577905792908" lon="-5.507720036840327"><ele>650.0</ele><time>2026-03-24T11:07:40.96Z</time></trkpt><trkpt lat="30.150666622137564" lon="-5.507893842137776"><ele>650.0</ele><time>2026-03-24T11:07:41.96Z</time></trkpt><trkpt lat="30.15076521238815" lon="-5.508067934151565"><ele>650.0</ele><time>2026-03-24T11:07:42.96Z</time></trkpt><trkpt lat="30.150868808055176" lon="-5.508243417879341"><ele>650.0</ele><time>2026-03-24T11:07:43.96Z</time></trkpt><trkpt lat="30.150981297959838" lon="-5.508418315418295"><ele>650.0</ele><time>2026-03-24T11:07:44.96Z</time></trkpt><trkpt lat="30.151102084179826" lon="-5.508592735649091"><ele>650.0</ele><time>2026-03-24T11:07:45.96Z</time></trkpt><trkpt lat="30.151241808589628" lon="-5.508758516333422"><ele>651.3333333333333</ele><time>2026-03-24T11:07:46.96Z</time></trkpt><trkpt lat="30.151375505561816" lon="-5.508938597117655"><ele>652.6666666666666</ele><time>2026-03-24T11:07:47.96Z</time></trkpt><trkpt lat="30.15149510231809" lon="-5.509141178604455"><ele>654.0</ele><time>2026-03-24T11:07:48.96Z</time></trkpt><trkpt lat="30.15162980727168" lon="-5.509319844724274"><ele>654.0</ele><time>2026-03-24T11:07:49.96Z</time></trkpt><trkpt lat="30.1517638301186" lon="-5.509490404915618"><ele>654.0</ele><time>2026-03-24T11:07:50.96Z</time></trkpt><trkpt lat="30.151899038538595" lon="-5.50965893323645"><ele>654.0</ele><time>2026-03-24T11:07:51.96Z</time></trkpt><trkpt lat="30.152059546516703" lon="-5.509798524708978"><ele>653.0</ele><time>2026-03-24T11:07:52.96Z</time></trkpt><trkpt lat="30.15223416304568" lon="-5.509932766656732"><ele>652.0</ele><time>2026-03-24T11:07:53.96Z</time></trkpt><trkpt lat="30.15240670778578" lon="-5.510062978634002"><ele>651.0</ele><time>2026-03-24T11:07:54.96Z</time></trkpt><trkpt lat="30.152572001179802" lon="-5.510185291166392"><ele>651.0</ele><time>2026-03-24T11:07:55.96Z</time></trkpt><trkpt lat="30.152727581099565" lon="-5.510302584910484"><ele>651.0</ele><time>2026-03-24T11:07:56.959Z</time></trkpt><trkpt lat="30.1528799159481" lon="-5.510417819523363"><ele>651.0</ele><time>2026-03-24T11:07:57.959Z</time></trkpt><trkpt lat="30.15303396270824" lon="-5.510535632189934"><ele>650.6666666666666</ele><time>2026-03-24T11:07:58.959Z</time></trkpt><trkpt lat="30.153187239172528" lon="-5.510657224776609"><ele>650.3333333333333</ele><time>2026-03-24T11:07:59.959Z</time></trkpt><trkpt lat="30.153337935466176" lon="-5.5107875307528325"><ele>650.0</ele><time>2026-03-24T11:08:00.959Z</time></trkpt><trkpt lat="30.15347936271235" lon="-5.5109135490844965"><ele>650.0</ele><time>2026-03-24T11:08:01.959Z</time></trkpt><trkpt lat="30.1536230453528" lon="-5.511044819742024"><ele>650.0</ele><time>2026-03-24T11:08:02.959Z</time></trkpt><trkpt lat="30.153763101765424" lon="-5.511173767141432"><ele>650.0</ele><time>2026-03-24T11:08:03.959Z</time></trkpt><trkpt lat="30.15390478699357" lon="-5.511305326468914"><ele>648.6666666666666</ele><time>2026-03-24T11:08:04.959Z</time></trkpt><trkpt lat="30.154043298183268" lon="-5.511434109886879"><ele>647.3333333333334</ele><time>2026-03-24T11:08:05.959Z</time></trkpt><trkpt lat="30.15418194166475" lon="-5.511557110290503"><ele>646.0</ele><time>2026-03-24T11:08:06.959Z</time></trkpt><trkpt lat="30.154320776065784" lon="-5.5116707095615265"><ele>646.0</ele><time>2026-03-24T11:08:07.959Z</time></trkpt><trkpt lat="30.15447178714493" lon="-5.511780212127641"><ele>646.0</ele><time>2026-03-24T11:08:08.959Z</time></trkpt><trkpt lat="30.154622626785805" lon="-5.511877853748909"><ele>646.0</ele><time>2026-03-24T11:08:09.959Z</time></trkpt><trkpt lat="30.154776132461016" lon="-5.511973559002916"><ele>646.0</ele><time>2026-03-24T11:08:10.959Z</time></trkpt><trkpt lat="30.154934767996536" lon="-5.5120616832578255"><ele>646.0</ele><time>2026-03-24T11:08:11.959Z</time></trkpt><trkpt lat="30.155097719483777" lon="-5.512142688418211"><ele>646.0</ele><time>2026-03-24T11:08:12.959Z</time></trkpt><trkpt lat="30.155265291694217" lon="-5.512221464826193"><ele>646.0</ele><time>2026-03-24T11:08:13.959Z</time></trkpt><trkpt lat="30.15543221994739" lon="-5.512302358788888"><ele>646.0</ele><time>2026-03-24T11:08:14.959Z</time></trkpt><trkpt lat="30.155596956708624" lon="-5.512386706177531"><ele>646.0</ele><time>2026-03-24T11:08:15.959Z</time></trkpt><trkpt lat="30.15575917904347" lon="-5.512470573938078"><ele>648.0</ele><time>2026-03-24T11:08:16.959Z</time></trkpt><trkpt lat="30.155920361609358" lon="-5.512552863355349"><ele>650.0</ele><time>2026-03-24T11:08:17.959Z</time></trkpt><trkpt lat="30.156081810017852" lon="-5.512636158969949"><ele>652.0</ele><time>2026-03-24T11:08:18.959Z</time></trkpt><trkpt lat="30.15624056518531" lon="-5.512713612343783"><ele>652.0</ele><time>2026-03-24T11:08:19.959Z</time></trkpt><trkpt lat="30.156407219607047" lon="-5.51279430045379"><ele>652.0</ele><time>2026-03-24T11:08:20.959Z</time></trkpt><trkpt lat="30.156577895971807" lon="-5.512875277689494"><ele>652.0</ele><time>2026-03-24T11:08:21.959Z</time></trkpt><trkpt lat="30.15674698762043" lon="-5.512955503053494"><ele>650.0</ele><time>2026-03-24T11:08:22.959Z</time></trkpt><trkpt lat="30.156917220712565" lon="-5.513044926809404"><ele>648.0</ele><time>2026-03-24T11:08:23.959Z</time></trkpt><trkpt lat="30.157085388312158" lon="-5.513141138443509"><ele>646.0</ele><time>2026-03-24T11:08:24.959Z</time></trkpt><trkpt lat="30.15724657131821" lon="-5.513243983275683"><ele>648.3333333333334</ele><time>2026-03-24T11:08:25.959Z</time></trkpt><trkpt lat="30.157404314106373" lon="-5.513346377840667"><ele>650.6666666666666</ele><time>2026-03-24T11:08:26.959Z</time></trkpt><trkpt lat="30.157561802268592" lon="-5.513460635992022"><ele>653.0</ele><time>2026-03-24T11:08:27.959Z</time></trkpt><trkpt lat="30.15771355258696" lon="-5.513578555468124"><ele>653.0</ele><time>2026-03-24T11:08:28.959Z</time></trkpt><trkpt lat="30.157849937115376" lon="-5.5137105826071435"><ele>653.0</ele><time>2026-03-24T11:08:29.959Z</time></trkpt><trkpt lat="30.157996085463417" lon="-5.513807921262964"><ele>653.0</ele><time>2026-03-24T11:08:30.959Z</time></trkpt><trkpt lat="30.15814650515722" lon="-5.513882311983585"><ele>651.6666666666666</ele><time>2026-03-24T11:08:31.959Z</time></trkpt><trkpt lat="30.158309788667545" lon="-5.513939508145537"><ele>650.3333333333334</ele><time>2026-03-24T11:08:32.959Z</time></trkpt><trkpt lat="30.158487147635082" lon="-5.513938852776414"><ele>649.0</ele><time>2026-03-24T11:08:33.959Z</time></trkpt><trkpt lat="30.15867381807848" lon="-5.513960150149186"><ele>649.0</ele><time>2026-03-24T11:08:34.959Z</time></trkpt><trkpt lat="30.158866711574753" lon="-5.514000488561474"><ele>649.0</ele><time>2026-03-24T11:08:35.959Z</time></trkpt><trkpt lat="30.159056666003483" lon="-5.5140805193922215"><ele>649.0</ele><time>2026-03-24T11:08:36.959Z</time></trkpt><trkpt lat="30.159233976714855" lon="-5.51417741385955"><ele>650.3333333333334</ele><time>2026-03-24T11:08:37.959Z</time></trkpt><trkpt lat="30.159407612843648" lon="-5.514274191278014"><ele>651.6666666666666</ele><time>2026-03-24T11:08:38.959Z</time></trkpt><trkpt lat="30.159580510434647" lon="-5.514367337123112"><ele>653.0</ele><time>2026-03-24T11:08:39.959Z</time></trkpt><trkpt lat="30.15975847053847" lon="-5.514457951246273"><ele>653.3333333333333</ele><time>2026-03-24T11:08:40.959Z</time></trkpt><trkpt lat="30.159929737021788" lon="-5.514567262139686"><ele>653.6666666666666</ele><time>2026-03-24T11:08:41.959Z</time></trkpt><trkpt lat="30.16009108872308" lon="-5.514696652879567"><ele>654.0</ele><time>2026-03-24T11:08:42.959Z</time></trkpt><trkpt lat="30.160240757284264" lon="-5.514834827799414"><ele>654.0</ele><time>2026-03-24T11:08:43.959Z</time></trkpt><trkpt lat="30.16038811078485" lon="-5.514969698408287"><ele>654.0</ele><time>2026-03-24T11:08:44.959Z</time></trkpt><trkpt lat="30.160541273393584" lon="-5.515081547375322"><ele>654.0</ele><time>2026-03-24T11:08:45.959Z</time></trkpt><trkpt lat="30.160713540399005" lon="-5.515185758014465"><ele>654.6666666666666</ele><time>2026-03-24T11:08:46.959Z</time></trkpt><trkpt lat="30.160885273381158" lon="-5.515285639277761"><ele>655.3333333333333</ele><time>2026-03-24T11:08:47.959Z</time></trkpt><trkpt lat="30.1610615249389" lon="-5.515385787714898"><ele>656.0</ele><time>2026-03-24T11:08:48.959Z</time></trkpt><trkpt lat="30.161235617891393" lon="-5.515476066994827"><ele>653.3333333333333</ele><time>2026-03-24T11:08:49.959Z</time></trkpt><trkpt lat="30.161412785865625" lon="-5.515550004747432"><ele>650.6666666666666</ele><time>2026-03-24T11:08:50.959Z</time></trkpt><trkpt lat="30.161586260238266" lon="-5.515611692014995"><ele>648.0</ele><time>2026-03-24T11:08:51.959Z</time></trkpt><trkpt lat="30.16175835024794" lon="-5.515676694706995"><ele>648.0</ele><time>2026-03-24T11:08:52.959Z</time></trkpt><trkpt lat="30.161921087438092" lon="-5.515767402153806"><ele>648.0</ele><time>2026-03-24T11:08:53.959Z</time></trkpt><trkpt lat="30.162092413810917" lon="-5.515853337477786"><ele>648.0</ele><time>2026-03-24T11:08:54.959Z</time></trkpt><trkpt lat="30.16227031494296" lon="-5.51595551759181"><ele>648.0</ele><time>2026-03-24T11:08:55.959Z</time></trkpt><trkpt lat="30.162444578804486" lon="-5.5160615531072965"><ele>648.0</ele><time>2026-03-24T11:08:56.959Z</time></trkpt><trkpt lat="30.16262352571712" lon="-5.516172029139939"><ele>648.0</ele><time>2026-03-24T11:08:57.959Z</time></trkpt><trkpt lat="30.162806292498505" lon="-5.516279512153807"><ele>648.0</ele><time>2026-03-24T11:08:58.959Z</time></trkpt><trkpt lat="30.162997291707725" lon="-5.516364785943384"><ele>648.0</ele><time>2026-03-24T11:08:59.959Z</time></trkpt><trkpt lat="30.1631780904681" lon="-5.516470312093092"><ele>648.0</ele><time>2026-03-24T11:09:00.959Z</time></trkpt><trkpt lat="30.16335711804826" lon="-5.516577665776324"><ele>649.3333333333334</ele><time>2026-03-24T11:09:01.959Z</time></trkpt><trkpt lat="30.163534118850716" lon="-5.516684387311754"><ele>650.6666666666667</ele><time>2026-03-24T11:09:02.959Z</time></trkpt><trkpt lat="30.163705086690555" lon="-5.516788899856939"><ele>652.0</ele><time>2026-03-24T11:09:03.959Z</time></trkpt><trkpt lat="30.163874767237434" lon="-5.516884230706026"><ele>651.6666666666667</ele><time>2026-03-24T11:09:04.959Z</time></trkpt><trkpt lat="30.16405273222838" lon="-5.516967348995888"><ele>651.3333333333334</ele><time>2026-03-24T11:09:05.959Z</time></trkpt><trkpt lat="30.164234386919574" lon="-5.517041997317254"><ele>651.0</ele><time>2026-03-24T11:09:06.959Z</time></trkpt><trkpt lat="30.164419705673886" lon="-5.5171136135134375"><ele>651.0</ele><time>2026-03-24T11:09:07.959Z</time></trkpt><trkpt lat="30.164600981888796" lon="-5.517173842939884"><ele>651.0</ele><time>2026-03-24T11:09:08.959Z</time></trkpt><trkpt lat="30.164786217506368" lon="-5.517219293538763"><ele>651.0</ele><time>2026-03-24T11:09:09.959Z</time></trkpt><trkpt lat="30.164963641018552" lon="-5.5172591290634605"><ele>652.0</ele><time>2026-03-24T11:09:10.959Z</time></trkpt><trkpt lat="30.16514304042589" lon="-5.517296203431713"><ele>653.0</ele><time>2026-03-24T11:09:11.959Z</time></trkpt><trkpt lat="30.165331238963798" lon="-5.517333715939613"><ele>654.0</ele><time>2026-03-24T11:09:12.959Z</time></trkpt><trkpt lat="30.165511886779637" lon="-5.517380736952745"><ele>655.3333333333334</ele><time>2026-03-24T11:09:13.959Z</time></trkpt><trkpt lat="30.16569679429331" lon="-5.517433653639077"><ele>656.6666666666667</ele><time>2026-03-24T11:09:14.959Z</time></trkpt><trkpt lat="30.16587928428735" lon="-5.517489876095148"><ele>658.0</ele><time>2026-03-24T11:09:15.959Z</time></trkpt><trkpt lat="30.166064273313125" lon="-5.517549814744794"><ele>658.0</ele><time>2026-03-24T11:09:16.959Z</time></trkpt><trkpt lat="30.166252152508687" lon="-5.517623934673466"><ele>658.0</ele><time>2026-03-24T11:09:17.959Z</time></trkpt><trkpt lat="30.166435894428876" lon="-5.517710620707707"><ele>658.0</ele><time>2026-03-24T11:09:18.959Z</time></trkpt><trkpt lat="30.16661064784029" lon="-5.517792273488399"><ele>657.3333333333334</ele><time>2026-03-24T11:09:19.959Z</time></trkpt><trkpt lat="30.16678101646232" lon="-5.517890460158939"><ele>656.6666666666666</ele><time>2026-03-24T11:09:20.959Z</time></trkpt><trkpt lat="30.16694734672933" lon="-5.518000270861694"><ele>656.0</ele><time>2026-03-24T11:09:21.959Z</time></trkpt><trkpt lat="30.167115579618944" lon="-5.518112366914393"><ele>656.0</ele><time>2026-03-24T11:09:22.959Z</time></trkpt><trkpt lat="30.167290982174986" lon="-5.518233188029939"><ele>656.0</ele><time>2026-03-24T11:09:23.959Z</time></trkpt><trkpt lat="30.16747005483721" lon="-5.518355706794445"><ele>656.0</ele><time>2026-03-24T11:09:24.959Z</time></trkpt><trkpt lat="30.167651649486718" lon="-5.5184791076909905"><ele>657.3333333333333</ele><time>2026-03-24T11:09:25.959Z</time></trkpt><trkpt lat="30.1678178472943" lon="-5.518616894299112"><ele>658.6666666666666</ele><time>2026-03-24T11:09:26.959Z</time></trkpt><trkpt lat="30.167984158617486" lon="-5.5187391056356425"><ele>660.0</ele><time>2026-03-24T11:09:27.959Z</time></trkpt><trkpt lat="30.168157113253415" lon="-5.518849156288167"><ele>661.3333333333334</ele><time>2026-03-24T11:09:28.959Z</time></trkpt><trkpt lat="30.168302787569566" lon="-5.5190015902457485"><ele>662.6666666666667</ele><time>2026-03-24T11:09:29.959Z</time></trkpt><trkpt lat="30.168459046694252" lon="-5.519136999616369"><ele>664.0</ele><time>2026-03-24T11:09:30.959Z</time></trkpt><trkpt lat="30.168607520411207" lon="-5.519287902430393"><ele>664.0</ele><time>2026-03-24T11:09:31.959Z</time></trkpt><trkpt lat="30.168750905894406" lon="-5.519446428713365"><ele>664.0</ele><time>2026-03-24T11:09:32.959Z</time></trkpt><trkpt lat="30.168890493818544" lon="-5.519607940585905"><ele>664.0</ele><time>2026-03-24T11:09:33.958Z</time></trkpt><trkpt lat="30.169025975442196" lon="-5.519774557372542"><ele>664.6666666666667</ele><time>2026-03-24T11:09:34.958Z</time></trkpt><trkpt lat="30.169159384053412" lon="-5.519950886442005"><ele>665.3333333333334</ele><time>2026-03-24T11:09:35.959Z</time></trkpt><trkpt lat="30.169280515444658" lon="-5.520128832243527"><ele>666.0</ele><time>2026-03-24T11:09:36.958Z</time></trkpt><trkpt lat="30.16939864439864" lon="-5.520311806428961"><ele>664.0</ele><time>2026-03-24T11:09:37.958Z</time></trkpt><trkpt lat="30.169510809930433" lon="-5.520497942809192"><ele>662.0</ele><time>2026-03-24T11:09:38.958Z</time></trkpt><trkpt lat="30.16962184589034" lon="-5.520682490747194"><ele>660.0</ele><time>2026-03-24T11:09:39.959Z</time></trkpt><trkpt lat="30.169732305444082" lon="-5.52086927871108"><ele>660.0</ele><time>2026-03-24T11:09:40.959Z</time></trkpt><trkpt lat="30.169840586165684" lon="-5.521053312947991"><ele>660.0</ele><time>2026-03-24T11:09:41.958Z</time></trkpt><trkpt lat="30.169947400291445" lon="-5.521241800449232"><ele>660.0</ele><time>2026-03-24T11:09:42.958Z</time></trkpt><trkpt lat="30.17005517555178" lon="-5.52143201507159"><ele>660.3333333333334</ele><time>2026-03-24T11:09:43.958Z</time></trkpt><trkpt lat="30.1701652614595" lon="-5.521626489416959"><ele>660.6666666666667</ele><time>2026-03-24T11:09:44.958Z</time></trkpt><trkpt lat="30.170277926643088" lon="-5.521818672825501"><ele>661.0</ele><time>2026-03-24T11:09:45.958Z</time></trkpt><trkpt lat="30.170388605476386" lon="-5.522014802888557"><ele>660.0</ele><time>2026-03-24T11:09:46.958Z</time></trkpt><trkpt lat="30.170498111426042" lon="-5.522208546917125"><ele>659.0</ele><time>2026-03-24T11:09:47.958Z</time></trkpt><trkpt lat="30.17060959501535" lon="-5.52240083730484"><ele>658.0</ele><time>2026-03-24T11:09:48.958Z</time></trkpt><trkpt lat="30.170721352275375" lon="-5.522593142668047"><ele>659.6666666666667</ele><time>2026-03-24T11:09:49.958Z</time></trkpt><trkpt lat="30.17083214547234" lon="-5.52278545181217"><ele>661.3333333333334</ele><time>2026-03-24T11:09:50.958Z</time></trkpt><trkpt lat="30.17093577731587" lon="-5.522973104631704"><ele>663.0</ele><time>2026-03-24T11:09:51.958Z</time></trkpt><trkpt lat="30.171038089133155" lon="-5.523155629749179"><ele>663.0</ele><time>2026-03-24T11:09:52.958Z</time></trkpt><trkpt lat="30.17114024351778" lon="-5.523337460581559"><ele>663.0</ele><time>2026-03-24T11:09:53.958Z</time></trkpt><trkpt lat="30.171241044779567" lon="-5.523517970473972"><ele>663.0</ele><time>2026-03-24T11:09:54.958Z</time></trkpt><trkpt lat="30.17134596058917" lon="-5.523705119391337"><ele>664.0</ele><time>2026-03-24T11:09:55.958Z</time></trkpt><trkpt lat="30.17145787749046" lon="-5.523898624549813"><ele>665.0</ele><time>2026-03-24T11:09:56.958Z</time></trkpt><trkpt lat="30.171561331721193" lon="-5.524088880769966"><ele>666.0</ele><time>2026-03-24T11:09:57.958Z</time></trkpt><trkpt lat="30.171660192286062" lon="-5.524272716926264"><ele>666.0</ele><time>2026-03-24T11:09:58.958Z</time></trkpt><trkpt lat="30.17176538465987" lon="-5.524444214962891"><ele>666.0</ele><time>2026-03-24T11:09:59.958Z</time></trkpt><trkpt lat="30.171886989464728" lon="-5.5245993625928325"><ele>666.0</ele><time>2026-03-24T11:10:00.958Z</time></trkpt><trkpt lat="30.172008535927144" lon="-5.524754648570693"><ele>665.0</ele><time>2026-03-24T11:10:01.958Z</time></trkpt><trkpt lat="30.172143231098268" lon="-5.524902883824019"><ele>664.0</ele><time>2026-03-24T11:10:02.958Z</time></trkpt><trkpt lat="30.17228561838392" lon="-5.525044660746107"><ele>663.0</ele><time>2026-03-24T11:10:03.958Z</time></trkpt><trkpt lat="30.172430639192243" lon="-5.525186210137216"><ele>663.0</ele><time>2026-03-24T11:10:04.958Z</time></trkpt><trkpt lat="30.172581620529193" lon="-5.525325923049299"><ele>663.0</ele><time>2026-03-24T11:10:05.958Z</time></trkpt><trkpt lat="30.172735599543255" lon="-5.525468455628785"><ele>663.0</ele><time>2026-03-24T11:10:06.958Z</time></trkpt><trkpt lat="30.17289714929238" lon="-5.525600858929375"><ele>661.3333333333334</ele><time>2026-03-24T11:10:07.958Z</time></trkpt><trkpt lat="30.173068443202425" lon="-5.525731566296483"><ele>659.6666666666667</ele><time>2026-03-24T11:10:08.958Z</time></trkpt><trkpt lat="30.173247362801963" lon="-5.52584446408955"><ele>658.0</ele><time>2026-03-24T11:10:09.958Z</time></trkpt><trkpt lat="30.173436334489946" lon="-5.525956477066096"><ele>658.0</ele><time>2026-03-24T11:10:10.958Z</time></trkpt><trkpt lat="30.17362673378424" lon="-5.526070527772636"><ele>658.0</ele><time>2026-03-24T11:10:11.958Z</time></trkpt><trkpt lat="30.173821322177716" lon="-5.526192453911963"><ele>658.0</ele><time>2026-03-24T11:10:12.958Z</time></trkpt><trkpt lat="30.174015683595318" lon="-5.526318206840352"><ele>656.6666666666667</ele><time>2026-03-24T11:10:13.958Z</time></trkpt><trkpt lat="30.174203661474" lon="-5.526447707968661"><ele>655.3333333333334</ele><time>2026-03-24T11:10:14.958Z</time></trkpt><trkpt lat="30.174384051517375" lon="-5.52657493221553"><ele>654.0</ele><time>2026-03-24T11:10:15.958Z</time></trkpt><trkpt lat="30.174562849655445" lon="-5.526700864841462"><ele>654.0</ele><time>2026-03-24T11:10:16.958Z</time></trkpt><trkpt lat="30.174737107255684" lon="-5.52682179433985"><ele>654.0</ele><time>2026-03-24T11:10:17.958Z</time></trkpt><trkpt lat="30.17490955772095" lon="-5.526941110442152"><ele>654.0</ele><time>2026-03-24T11:10:18.958Z</time></trkpt><trkpt lat="30.175081929119056" lon="-5.527059642935295"><ele>653.0</ele><time>2026-03-24T11:10:19.958Z</time></trkpt><trkpt lat="30.175253077563056" lon="-5.527175560992459"><ele>652.0</ele><time>2026-03-24T11:10:20.958Z</time></trkpt><trkpt lat="30.175425122303647" lon="-5.527289346590033"><ele>651.0</ele><time>2026-03-24T11:10:21.958Z</time></trkpt><trkpt lat="30.175602157830244" lon="-5.5274020652732725"><ele>652.0</ele><time>2026-03-24T11:10:22.958Z</time></trkpt><trkpt lat="30.17578701817811" lon="-5.5275084277417665"><ele>653.0</ele><time>2026-03-24T11:10:23.958Z</time></trkpt><trkpt lat="30.17597968109365" lon="-5.5276101235893735"><ele>654.0</ele><time>2026-03-24T11:10:24.958Z</time></trkpt><trkpt lat="30.17618011330854" lon="-5.527706605292316"><ele>654.0</ele><time>2026-03-24T11:10:25.958Z</time></trkpt><trkpt lat="30.176376690946874" lon="-5.527794988242652"><ele>654.0</ele><time>2026-03-24T11:10:26.958Z</time></trkpt><trkpt lat="30.176564300454412" lon="-5.5278751644855015"><ele>654.0</ele><time>2026-03-24T11:10:27.958Z</time></trkpt><trkpt lat="30.17673989356675" lon="-5.527974630911356"><ele>653.0</ele><time>2026-03-24T11:10:28.958Z</time></trkpt><trkpt lat="30.176887396091427" lon="-5.528097963140064"><ele>652.0</ele><time>2026-03-24T11:10:29.958Z</time></trkpt><trkpt lat="30.177016698256754" lon="-5.528248287158306"><ele>651.0</ele><time>2026-03-24T11:10:30.958Z</time></trkpt><trkpt lat="30.177157352595458" lon="-5.5284005792061865"><ele>651.0</ele><time>2026-03-24T11:10:31.958Z</time></trkpt><trkpt lat="30.177294804970185" lon="-5.5285708372278215"><ele>651.0</ele><time>2026-03-24T11:10:32.958Z</time></trkpt><trkpt lat="30.17741739256949" lon="-5.528743869698604"><ele>651.0</ele><time>2026-03-24T11:10:33.958Z</time></trkpt><trkpt lat="30.177527917833196" lon="-5.528906295808332"><ele>650.3333333333334</ele><time>2026-03-24T11:10:34.958Z</time></trkpt><trkpt lat="30.17763363517619" lon="-5.529055587393224"><ele>649.6666666666667</ele><time>2026-03-24T11:10:35.958Z</time></trkpt><trkpt lat="30.177741014902924" lon="-5.529199907745542"><ele>649.0</ele><time>2026-03-24T11:10:36.958Z</time></trkpt><trkpt lat="30.177846410136176" lon="-5.529342066871003"><ele>649.0</ele><time>2026-03-24T11:10:37.958Z</time></trkpt><trkpt lat="30.177947003089024" lon="-5.529478430257951"><ele>649.0</ele><time>2026-03-24T11:10:38.958Z</time></trkpt><trkpt lat="30.17804698410594" lon="-5.529611455122292"><ele>649.0</ele><time>2026-03-24T11:10:39.958Z</time></trkpt><trkpt lat="30.17814619874932" lon="-5.529743868495847"><ele>647.3333333333334</ele><time>2026-03-24T11:10:40.958Z</time></trkpt><trkpt lat="30.178240742528235" lon="-5.52987291286848"><ele>645.6666666666666</ele><time>2026-03-24T11:10:41.958Z</time></trkpt><trkpt lat="30.17834058563982" lon="-5.530010554966195"><ele>644.0</ele><time>2026-03-24T11:10:42.958Z</time></trkpt><trkpt lat="30.17846368903078" lon="-5.530134788614024"><ele>644.0</ele><time>2026-03-24T11:10:43.958Z</time></trkpt><trkpt lat="30.178579246712022" lon="-5.5302732692728265"><ele>644.0</ele><time>2026-03-24T11:10:44.958Z</time></trkpt><trkpt lat="30.178704600651177" lon="-5.530411173717783"><ele>644.0</ele><time>2026-03-24T11:10:45.958Z</time></trkpt><trkpt lat="30.178840424370378" lon="-5.530546576189666"><ele>645.3333333333333</ele><time>2026-03-24T11:10:46.958Z</time></trkpt><trkpt lat="30.178986153157908" lon="-5.530671846937111"><ele>646.6666666666666</ele><time>2026-03-24T11:10:47.958Z</time></trkpt><trkpt lat="30.179134716429036" lon="-5.530800726425386"><ele>648.0</ele><time>2026-03-24T11:10:48.958Z</time></trkpt><trkpt lat="30.17925962183168" lon="-5.5309720373848945"><ele>648.6666666666666</ele><time>2026-03-24T11:10:49.958Z</time></trkpt><trkpt lat="30.17940966365142" lon="-5.5310994004874985"><ele>649.3333333333333</ele><time>2026-03-24T11:10:50.958Z</time></trkpt><trkpt lat="30.179554925705748" lon="-5.531228112062982"><ele>650.0</ele><time>2026-03-24T11:10:51.958Z</time></trkpt><trkpt lat="30.179690528107177" lon="-5.531350763743605"><ele>650.0</ele><time>2026-03-24T11:10:52.958Z</time></trkpt><trkpt lat="30.17981838722173" lon="-5.531470365948229"><ele>650.0</ele><time>2026-03-24T11:10:53.958Z</time></trkpt><trkpt lat="30.17994941311618" lon="-5.531584707449344"><ele>650.0</ele><time>2026-03-24T11:10:54.958Z</time></trkpt><trkpt lat="30.18008714689482" lon="-5.531701078253518"><ele>650.0</ele><time>2026-03-24T11:10:55.958Z</time></trkpt><trkpt lat="30.18022544799017" lon="-5.531825089764944"><ele>650.0</ele><time>2026-03-24T11:10:56.958Z</time></trkpt><trkpt lat="30.18035377698399" lon="-5.531956708180998"><ele>650.0</ele><time>2026-03-24T11:10:57.958Z</time></trkpt><trkpt lat="30.180459339449573" lon="-5.53210110195517"><ele>650.0</ele><time>2026-03-24T11:10:58.958Z</time></trkpt><trkpt lat="30.18055481593373" lon="-5.532235747892785"><ele>650.0</ele><time>2026-03-24T11:10:59.958Z</time></trkpt><trkpt lat="30.18064331687204" lon="-5.532385079330197"><ele>650.0</ele><time>2026-03-24T11:11:00.958Z</time></trkpt><trkpt lat="30.180730094006954" lon="-5.532530299135083"><ele>650.0</ele><time>2026-03-24T11:11:01.958Z</time></trkpt><trkpt lat="30.180817268449317" lon="-5.532681169651941"><ele>650.0</ele><time>2026-03-24T11:11:02.958Z</time></trkpt><trkpt lat="30.180904102667927" lon="-5.5328285631149825"><ele>650.0</ele><time>2026-03-24T11:11:03.958Z</time></trkpt><trkpt lat="30.180992431503352" lon="-5.532979660904603"><ele>650.3333333333333</ele><time>2026-03-24T11:11:04.958Z</time></trkpt><trkpt lat="30.181082229365202" lon="-5.533130454538393"><ele>650.6666666666666</ele><time>2026-03-24T11:11:05.958Z</time></trkpt><trkpt lat="30.18117411274802" lon="-5.53329226724628"><ele>651.0</ele><time>2026-03-24T11:11:06.958Z</time></trkpt><trkpt lat="30.1812709516768" lon="-5.533454207545193"><ele>651.0</ele><time>2026-03-24T11:11:07.958Z</time></trkpt><trkpt lat="30.18138242067937" lon="-5.533602272140159"><ele>651.0</ele><time>2026-03-24T11:11:08.958Z</time></trkpt><trkpt lat="30.181484326820623" lon="-5.533761051097246"><ele>651.0</ele><time>2026-03-24T11:11:09.958Z</time></trkpt><trkpt lat="30.181588808259715" lon="-5.533927495526335"><ele>652.0</ele><time>2026-03-24T11:11:10.958Z</time></trkpt><trkpt lat="30.18168231020502" lon="-5.534100841905468"><ele>653.0</ele><time>2026-03-24T11:11:11.958Z</time></trkpt><trkpt lat="30.18177956792839" lon="-5.53428273850532"><ele>654.0</ele><time>2026-03-24T11:11:12.958Z</time></trkpt><trkpt lat="30.181866205715643" lon="-5.534461607646258"><ele>653.0</ele><time>2026-03-24T11:11:13.958Z</time></trkpt><trkpt lat="30.18196908939581" lon="-5.534626288048911"><ele>652.0</ele><time>2026-03-24T11:11:14.958Z</time></trkpt><trkpt lat="30.1820727318986" lon="-5.534789908414751"><ele>651.0</ele><time>2026-03-24T11:11:15.958Z</time></trkpt><trkpt lat="30.182178909900408" lon="-5.534954445855067"><ele>651.0</ele><time>2026-03-24T11:11:16.958Z</time></trkpt><trkpt lat="30.182307907896323" lon="-5.535107580026651"><ele>651.0</ele><time>2026-03-24T11:11:17.958Z</time></trkpt><trkpt lat="30.18241911402384" lon="-5.5352607929472155"><ele>651.0</ele><time>2026-03-24T11:11:18.958Z</time></trkpt><trkpt lat="30.182520466074973" lon="-5.535401109333397"><ele>650.75</ele><time>2026-03-24T11:11:19.958Z</time></trkpt><trkpt lat="30.182616160343283" lon="-5.535533921146305"><ele>650.5</ele><time>2026-03-24T11:11:20.958Z</time></trkpt><trkpt lat="30.18269692446777" lon="-5.5356728280431415"><ele>650.25</ele><time>2026-03-24T11:11:21.958Z</time></trkpt><trkpt lat="30.182784383858596" lon="-5.535788441199272"><ele>650.0</ele><time>2026-03-24T11:11:22.958Z</time></trkpt><trkpt lat="30.18287860606892" lon="-5.535882265683448"><ele>650.0</ele><time>2026-03-24T11:11:23.958Z</time></trkpt><trkpt lat="30.18296692783784" lon="-5.535997134512649"><ele>650.0</ele><time>2026-03-24T11:11:24.958Z</time></trkpt><trkpt lat="30.183059071932284" lon="-5.536124320678362"><ele>650.0</ele><time>2026-03-24T11:11:25.958Z</time></trkpt><trkpt lat="30.18316034454873" lon="-5.536256450971446"><ele>650.0</ele><time>2026-03-24T11:11:26.958Z</time></trkpt><trkpt lat="30.183267565032452" lon="-5.536404367991376"><ele>650.6666666666666</ele><time>2026-03-24T11:11:27.958Z</time></trkpt><trkpt lat="30.183380899390915" lon="-5.536549514482695"><ele>651.3333333333334</ele><time>2026-03-24T11:11:28.958Z</time></trkpt><trkpt lat="30.18349952101081" lon="-5.536702109299431"><ele>652.0</ele><time>2026-03-24T11:11:29.958Z</time></trkpt><trkpt lat="30.183611567661472" lon="-5.536856989449325"><ele>652.0</ele><time>2026-03-24T11:11:30.958Z</time></trkpt><trkpt lat="30.183707764901722" lon="-5.536989651519391"><ele>652.0</ele><time>2026-03-24T11:11:31.958Z</time></trkpt><trkpt lat="30.183806140196552" lon="-5.537120879537103"><ele>652.0</ele><time>2026-03-24T11:11:32.958Z</time></trkpt><trkpt lat="30.183912197100504" lon="-5.5372549020705115"><ele>651.6666666666667</ele><time>2026-03-24T11:11:33.958Z</time></trkpt><trkpt lat="30.18401959600043" lon="-5.537388099585729"><ele>651.3333333333334</ele><time>2026-03-24T11:11:34.958Z</time></trkpt><trkpt lat="30.184130208989828" lon="-5.537531568475715"><ele>651.0</ele><time>2026-03-24T11:11:35.958Z</time></trkpt><trkpt lat="30.18423665725029" lon="-5.537672364206629"><ele>651.0</ele><time>2026-03-24T11:11:36.958Z</time></trkpt><trkpt lat="30.184335027175013" lon="-5.537817546924653"><ele>651.0</ele><time>2026-03-24T11:11:37.958Z</time></trkpt><trkpt lat="30.184434946354898" lon="-5.537947377112459"><ele>651.0</ele><time>2026-03-24T11:11:38.958Z</time></trkpt><trkpt lat="30.18453086204559" lon="-5.538088844580271"><ele>651.0</ele><time>2026-03-24T11:11:39.957Z</time></trkpt><trkpt lat="30.18462121730378" lon="-5.538227541554757"><ele>651.0</ele><time>2026-03-24T11:11:40.957Z</time></trkpt><trkpt lat="30.184711969575474" lon="-5.5383475585886455"><ele>651.0</ele><time>2026-03-24T11:11:41.958Z</time></trkpt><trkpt lat="30.18476944006727" lon="-5.538500720872222"><ele>651.0</ele><time>2026-03-24T11:11:42.957Z</time></trkpt><trkpt lat="30.184828370229546" lon="-5.53864351861139"><ele>651.25</ele><time>2026-03-24T11:11:43.957Z</time></trkpt><trkpt lat="30.184883775543064" lon="-5.538791151623148"><ele>651.5</ele><time>2026-03-24T11:11:44.958Z</time></trkpt><trkpt lat="30.18493354229141" lon="-5.5389453570818565"><ele>651.75</ele><time>2026-03-24T11:11:45.958Z</time></trkpt><trkpt lat="30.1849772619677" lon="-5.539107048220234"><ele>652.0</ele><time>2026-03-24T11:11:46.958Z</time></trkpt><trkpt lat="30.185033451062246" lon="-5.5392670278400296"><ele>652.0</ele><time>2026-03-24T11:11:47.959Z</time></trkpt><trkpt lat="30.185061690710995" lon="-5.5394391226038495"><ele>652.0</ele><time>2026-03-24T11:11:48.957Z</time></trkpt><trkpt lat="30.185063413825308" lon="-5.539614716675634"><ele>652.0</ele><time>2026-03-24T11:11:49.957Z</time></trkpt><trkpt lat="30.1850831663473" lon="-5.539787361296632"><ele>652.3333333333334</ele><time>2026-03-24T11:11:50.957Z</time></trkpt><trkpt lat="30.185100485093137" lon="-5.539961604633112"><ele>652.6666666666666</ele><time>2026-03-24T11:11:51.958Z</time></trkpt><trkpt lat="30.18513638334527" lon="-5.540136751749663"><ele>653.0</ele><time>2026-03-24T11:11:52.958Z</time></trkpt><trkpt lat="30.185140090912185" lon="-5.540315548287662"><ele>653.6666666666666</ele><time>2026-03-24T11:11:53.958Z</time></trkpt><trkpt lat="30.185170899388197" lon="-5.540492285131175"><ele>654.3333333333334</ele><time>2026-03-24T11:11:54.958Z</time></trkpt><trkpt lat="30.185189561430033" lon="-5.5406797257671485"><ele>655.0</ele><time>2026-03-24T11:11:55.958Z</time></trkpt><trkpt lat="30.18520880497146" lon="-5.5408725196500415"><ele>655.0</ele><time>2026-03-24T11:11:56.958Z</time></trkpt><trkpt lat="30.18522832517116" lon="-5.541067146243866"><ele>655.0</ele><time>2026-03-24T11:11:57.958Z</time></trkpt><trkpt lat="30.18524809724867" lon="-5.5412680248547845"><ele>655.0</ele><time>2026-03-24T11:11:58.958Z</time></trkpt><trkpt lat="30.18527058381199" lon="-5.541461702703798"><ele>654.3333333333334</ele><time>2026-03-24T11:11:59.958Z</time></trkpt><trkpt lat="30.185291129261934" lon="-5.541651811442607"><ele>653.6666666666666</ele><time>2026-03-24T11:12:00.958Z</time></trkpt><trkpt lat="30.185310010628616" lon="-5.541833355257151"><ele>653.0</ele><time>2026-03-24T11:12:01.958Z</time></trkpt><trkpt lat="30.185325470827138" lon="-5.542013093828045"><ele>653.0</ele><time>2026-03-24T11:12:02.958Z</time></trkpt><trkpt lat="30.185343279458102" lon="-5.542193912551647"><ele>653.0</ele><time>2026-03-24T11:12:03.958Z</time></trkpt><trkpt lat="30.185362217805288" lon="-5.54237797789095"><ele>653.0</ele><time>2026-03-24T11:12:04.958Z</time></trkpt><trkpt lat="30.185381357682022" lon="-5.542562050120755"><ele>653.0</ele><time>2026-03-24T11:12:05.958Z</time></trkpt><trkpt lat="30.18540092115857" lon="-5.5427440112674535"><ele>653.0</ele><time>2026-03-24T11:12:06.958Z</time></trkpt><trkpt lat="30.185420874602553" lon="-5.542916125066392"><ele>653.0</ele><time>2026-03-24T11:12:07.958Z</time></trkpt><trkpt lat="30.18544017027066" lon="-5.543084249752945"><ele>653.25</ele><time>2026-03-24T11:12:08.958Z</time></trkpt><trkpt lat="30.18546050888781" lon="-5.543248738232079"><ele>653.5</ele><time>2026-03-24T11:12:09.958Z</time></trkpt><trkpt lat="30.18547913911912" lon="-5.543413038333629"><ele>653.75</ele><time>2026-03-24T11:12:10.958Z</time></trkpt><trkpt lat="30.185496630486337" lon="-5.543586829543872"><ele>654.0</ele><time>2026-03-24T11:12:11.958Z</time></trkpt><trkpt lat="30.185517246181327" lon="-5.543766689413341"><ele>654.3333333333334</ele><time>2026-03-24T11:12:12.958Z</time></trkpt><trkpt lat="30.185535978332027" lon="-5.543952565064401"><ele>654.6666666666667</ele><time>2026-03-24T11:12:13.958Z</time></trkpt><trkpt lat="30.18555434670576" lon="-5.5441396677164185"><ele>655.0</ele><time>2026-03-24T11:12:14.958Z</time></trkpt><trkpt lat="30.185574711408677" lon="-5.5443310120489855"><ele>655.0</ele><time>2026-03-24T11:12:15.958Z</time></trkpt><trkpt lat="30.18559423342097" lon="-5.544526231133405"><ele>655.0</ele><time>2026-03-24T11:12:16.958Z</time></trkpt><trkpt lat="30.185614818963145" lon="-5.544724912432756"><ele>655.0</ele><time>2026-03-24T11:12:17.958Z</time></trkpt><trkpt lat="30.185636732007023" lon="-5.544929155257244"><ele>655.0</ele><time>2026-03-24T11:12:18.958Z</time></trkpt><trkpt lat="30.18566020072711" lon="-5.545137058944129"><ele>655.0</ele><time>2026-03-24T11:12:19.958Z</time></trkpt><trkpt lat="30.185686186895914" lon="-5.545348503831676"><ele>655.0</ele><time>2026-03-24T11:12:20.958Z</time></trkpt><trkpt lat="30.185717230917714" lon="-5.545561594486952"><ele>655.0</ele><time>2026-03-24T11:12:21.958Z</time></trkpt><trkpt lat="30.185753082148295" lon="-5.545772273084504"><ele>655.0</ele><time>2026-03-24T11:12:22.958Z</time></trkpt><trkpt lat="30.1857946921277" lon="-5.545984743210712"><ele>655.0</ele><time>2026-03-24T11:12:23.958Z</time></trkpt><trkpt lat="30.185840547834598" lon="-5.546190693936395"><ele>654.6666666666667</ele><time>2026-03-24T11:12:24.958Z</time></trkpt><trkpt lat="30.185891174311003" lon="-5.546394287728882"><ele>654.3333333333334</ele><time>2026-03-24T11:12:25.958Z</time></trkpt><trkpt lat="30.185943693365207" lon="-5.546594772973397"><ele>654.0</ele><time>2026-03-24T11:12:26.958Z</time></trkpt><trkpt lat="30.18600253039598" lon="-5.546788616639859"><ele>654.0</ele><time>2026-03-24T11:12:27.958Z</time></trkpt><trkpt lat="30.18606661036514" lon="-5.5469843593607715"><ele>654.0</ele><time>2026-03-24T11:12:28.958Z</time></trkpt><trkpt lat="30.18613477735535" lon="-5.54717497079435"><ele>654.0</ele><time>2026-03-24T11:12:29.958Z</time></trkpt><trkpt lat="30.18620539719972" lon="-5.547367580844611"><ele>654.0</ele><time>2026-03-24T11:12:30.958Z</time></trkpt><trkpt lat="30.186279042406234" lon="-5.547556118632365"><ele>654.0</ele><time>2026-03-24T11:12:31.958Z</time></trkpt><trkpt lat="30.186354454113868" lon="-5.547746196917808"><ele>654.0</ele><time>2026-03-24T11:12:32.958Z</time></trkpt><trkpt lat="30.186429703594253" lon="-5.547937825617342"><ele>654.6666666666666</ele><time>2026-03-24T11:12:33.958Z</time></trkpt><trkpt lat="30.186505483102717" lon="-5.548130122387733"><ele>655.3333333333333</ele><time>2026-03-24T11:12:34.958Z</time></trkpt><trkpt lat="30.18658390397416" lon="-5.54832334617883"><ele>656.0</ele><time>2026-03-24T11:12:35.958Z</time></trkpt><trkpt lat="30.186663273668458" lon="-5.548506129627934"><ele>656.0</ele><time>2026-03-24T11:12:36.958Z</time></trkpt><trkpt lat="30.18674059460329" lon="-5.54869224108258"><ele>656.0</ele><time>2026-03-24T11:12:37.958Z</time></trkpt><trkpt lat="30.186812887570547" lon="-5.548873492198928"><ele>656.0</ele><time>2026-03-24T11:12:38.958Z</time></trkpt><trkpt lat="30.18688351394079" lon="-5.549042180656237"><ele>656.25</ele><time>2026-03-24T11:12:39.958Z</time></trkpt><trkpt lat="30.18694626378928" lon="-5.549193505571791"><ele>656.5</ele><time>2026-03-24T11:12:40.958Z</time></trkpt><trkpt lat="30.187019248673977" lon="-5.5493332513332865"><ele>656.75</ele><time>2026-03-24T11:12:41.958Z</time></trkpt><trkpt lat="30.187076575678123" lon="-5.549472490495742"><ele>657.0</ele><time>2026-03-24T11:12:42.958Z</time></trkpt><trkpt lat="30.187122581240548" lon="-5.54962132755014"><ele>657.0</ele><time>2026-03-24T11:12:43.958Z</time></trkpt><trkpt lat="30.18719267876591" lon="-5.549746610234395"><ele>657.0</ele><time>2026-03-24T11:12:44.958Z</time></trkpt><trkpt lat="30.18725330207478" lon="-5.5498962007916095"><ele>657.0</ele><time>2026-03-24T11:12:45.958Z</time></trkpt><trkpt lat="30.187314501557292" lon="-5.550042208281794"><ele>657.0</ele><time>2026-03-24T11:12:46.958Z</time></trkpt><trkpt lat="30.187386141816066" lon="-5.550210428660351"><ele>656.3333333333334</ele><time>2026-03-24T11:12:47.958Z</time></trkpt><trkpt lat="30.187459890589064" lon="-5.550376837827604"><ele>655.6666666666667</ele><time>2026-03-24T11:12:48.958Z</time></trkpt><trkpt lat="30.187537692104474" lon="-5.5505381912601095"><ele>655.0</ele><time>2026-03-24T11:12:49.958Z</time></trkpt><trkpt lat="30.187613670828537" lon="-5.5507070075485165"><ele>655.0</ele><time>2026-03-24T11:12:50.958Z</time></trkpt><trkpt lat="30.187703692255443" lon="-5.550869133045484"><ele>655.0</ele><time>2026-03-24T11:12:51.958Z</time></trkpt><trkpt lat="30.187799638293374" lon="-5.551029169542007"><ele>655.0</ele><time>2026-03-24T11:12:52.958Z</time></trkpt><trkpt lat="30.187904439594252" lon="-5.551189282900602"><ele>655.3333333333334</ele><time>2026-03-24T11:12:53.958Z</time></trkpt><trkpt lat="30.188015526671826" lon="-5.551344727871681"><ele>655.6666666666666</ele><time>2026-03-24T11:12:54.958Z</time></trkpt><trkpt lat="30.188134642154054" lon="-5.551500589131027"><ele>656.0</ele><time>2026-03-24T11:12:55.958Z</time></trkpt><trkpt lat="30.188258875178956" lon="-5.5516490913243315"><ele>656.3333333333333</ele><time>2026-03-24T11:12:56.958Z</time></trkpt><trkpt lat="30.188383684044723" lon="-5.551790567650038"><ele>656.6666666666666</ele><time>2026-03-24T11:12:57.958Z</time></trkpt><trkpt lat="30.188520285653578" lon="-5.5519317932844405"><ele>657.0</ele><time>2026-03-24T11:12:58.958Z</time></trkpt><trkpt lat="30.18866110804618" lon="-5.552066444755039"><ele>657.0</ele><time>2026-03-24T11:12:59.958Z</time></trkpt><trkpt lat="30.18882067411922" lon="-5.552178191436253"><ele>657.0</ele><time>2026-03-24T11:13:00.958Z</time></trkpt><trkpt lat="30.188973703322887" lon="-5.552295673180583"><ele>657.0</ele><time>2026-03-24T11:13:01.958Z</time></trkpt><trkpt lat="30.189115696426445" lon="-5.552397821421823"><ele>657.3333333333334</ele><time>2026-03-24T11:13:02.958Z</time></trkpt><trkpt lat="30.18925080329699" lon="-5.55249500567031"><ele>657.6666666666667</ele><time>2026-03-24T11:13:03.958Z</time></trkpt><trkpt lat="30.18938344476406" lon="-5.552590930330564"><ele>658.0</ele><time>2026-03-24T11:13:04.958Z</time></trkpt><trkpt lat="30.189511989226844" lon="-5.552683675720831"><ele>658.0</ele><time>2026-03-24T11:13:05.958Z</time></trkpt><trkpt lat="30.18964063816151" lon="-5.552797466270091"><ele>658.0</ele><time>2026-03-24T11:13:06.958Z</time></trkpt><trkpt lat="30.189805193311795" lon="-5.552880897927377"><ele>658.0</ele><time>2026-03-24T11:13:07.958Z</time></trkpt><trkpt lat="30.18995939050411" lon="-5.552993106343965"><ele>657.6666666666667</ele><time>2026-03-24T11:13:08.958Z</time></trkpt><trkpt lat="30.19012020683292" lon="-5.5531056458425985"><ele>657.3333333333334</ele><time>2026-03-24T11:13:09.958Z</time></trkpt><trkpt lat="30.190287606971708" lon="-5.553220141129986"><ele>657.0</ele><time>2026-03-24T11:13:10.958Z</time></trkpt><trkpt lat="30.19045898949896" lon="-5.553334992482983"><ele>657.0</ele><time>2026-03-24T11:13:11.958Z</time></trkpt><trkpt lat="30.190631003565706" lon="-5.55345342853236"><ele>657.0</ele><time>2026-03-24T11:13:12.958Z</time></trkpt><trkpt lat="30.19080535895382" lon="-5.553576804126722"><ele>657.0</ele><time>2026-03-24T11:13:13.958Z</time></trkpt><trkpt lat="30.190981272651737" lon="-5.553697911092701"><ele>657.0</ele><time>2026-03-24T11:13:14.958Z</time></trkpt><trkpt lat="30.19115979639728" lon="-5.553820226304349"><ele>657.0</ele><time>2026-03-24T11:13:15.958Z</time></trkpt><trkpt lat="30.191338534901078" lon="-5.553945224872265"><ele>657.0</ele><time>2026-03-24T11:13:16.958Z</time></trkpt><trkpt lat="30.191518117130578" lon="-5.554067987896967"><ele>656.6666666666666</ele><time>2026-03-24T11:13:17.958Z</time></trkpt><trkpt lat="30.191698133846828" lon="-5.554192626135383"><ele>656.3333333333333</ele><time>2026-03-24T11:13:18.958Z</time></trkpt><trkpt lat="30.191876862845753" lon="-5.5543161035126145"><ele>656.0</ele><time>2026-03-24T11:13:19.958Z</time></trkpt><trkpt lat="30.19205336107429" lon="-5.554436592633942"><ele>656.3333333333333</ele><time>2026-03-24T11:13:20.958Z</time></trkpt><trkpt lat="30.19222872421817" lon="-5.554558447325039"><ele>656.6666666666666</ele><time>2026-03-24T11:13:21.958Z</time></trkpt><trkpt lat="30.192400371298664" lon="-5.554684678299892"><ele>657.0</ele><time>2026-03-24T11:13:22.958Z</time></trkpt><trkpt lat="30.19257225612236" lon="-5.554804223431745"><ele>657.3333333333334</ele><time>2026-03-24T11:13:23.958Z</time></trkpt><trkpt lat="30.19274129090568" lon="-5.55492173079736"><ele>657.6666666666667</ele><time>2026-03-24T11:13:24.958Z</time></trkpt><trkpt lat="30.192907698158976" lon="-5.555037262052501"><ele>658.0</ele><time>2026-03-24T11:13:25.958Z</time></trkpt><trkpt lat="30.19308235005799" lon="-5.555135757201544"><ele>658.0</ele><time>2026-03-24T11:13:26.958Z</time></trkpt><trkpt lat="30.19324924971748" lon="-5.555249269159547"><ele>658.0</ele><time>2026-03-24T11:13:27.958Z</time></trkpt><trkpt lat="30.19341454601093" lon="-5.555361917400747"><ele>658.0</ele><time>2026-03-24T11:13:28.958Z</time></trkpt><trkpt lat="30.19358026516479" lon="-5.555475120624689"><ele>658.0</ele><time>2026-03-24T11:13:29.958Z</time></trkpt><trkpt lat="30.193741998915108" lon="-5.55558560138306"><ele>658.0</ele><time>2026-03-24T11:13:30.958Z</time></trkpt><trkpt lat="30.193902816652553" lon="-5.555695456414947"><ele>658.0</ele><time>2026-03-24T11:13:31.958Z</time></trkpt><trkpt lat="30.194061691120233" lon="-5.5558046855298135"><ele>657.6666666666667</ele><time>2026-03-24T11:13:32.958Z</time></trkpt><trkpt lat="30.19421985898137" lon="-5.555915269137526"><ele>657.3333333333334</ele><time>2026-03-24T11:13:33.958Z</time></trkpt><trkpt lat="30.19437852045165" lon="-5.556026197907481"><ele>657.0</ele><time>2026-03-24T11:13:34.958Z</time></trkpt><trkpt lat="30.1945373364647" lon="-5.556137325523943"><ele>657.3333333333334</ele><time>2026-03-24T11:13:35.958Z</time></trkpt><trkpt lat="30.194688304077907" lon="-5.556264037039505"><ele>657.6666666666667</ele><time>2026-03-24T11:13:36.958Z</time></trkpt><trkpt lat="30.194850614717115" lon="-5.556373852354139"><ele>658.0</ele><time>2026-03-24T11:13:37.958Z</time></trkpt><trkpt lat="30.195012665208687" lon="-5.556483993352837"><ele>657.3333333333334</ele><time>2026-03-24T11:13:38.958Z</time></trkpt><trkpt lat="30.19517507946434" lon="-5.556594393825885"><ele>656.6666666666666</ele><time>2026-03-24T11:13:39.958Z</time></trkpt><trkpt lat="30.19533655129236" lon="-5.556704980194687"><ele>656.0</ele><time>2026-03-24T11:13:40.958Z</time></trkpt><trkpt lat="30.195499604858952" lon="-5.556817992968602"><ele>656.0</ele><time>2026-03-24T11:13:41.958Z</time></trkpt><trkpt lat="30.19566454979388" lon="-5.556926343217438"><ele>656.0</ele><time>2026-03-24T11:13:42.958Z</time></trkpt><trkpt lat="30.1958275681378" lon="-5.557043033541452"><ele>656.0</ele><time>2026-03-24T11:13:43.958Z</time></trkpt><trkpt lat="30.19599031290603" lon="-5.557158732354886"><ele>656.6666666666666</ele><time>2026-03-24T11:13:44.957Z</time></trkpt><trkpt lat="30.196140444587382" lon="-5.557263113234509"><ele>657.3333333333334</ele><time>2026-03-24T11:13:45.957Z</time></trkpt><trkpt lat="30.196287624899917" lon="-5.557369646495312"><ele>658.0</ele><time>2026-03-24T11:13:46.957Z</time></trkpt><trkpt lat="30.1964273612414" lon="-5.557459682733248"><ele>658.6666666666667</ele><time>2026-03-24T11:13:47.958Z</time></trkpt><trkpt lat="30.196579309593393" lon="-5.5575312572621645"><ele>659.3333333333334</ele><time>2026-03-24T11:13:48.958Z</time></trkpt><trkpt lat="30.196728378928906" lon="-5.557621231085544"><ele>660.0</ele><time>2026-03-24T11:13:49.958Z</time></trkpt><trkpt lat="30.1968738222293" lon="-5.557709501520485"><ele>660.0</ele><time>2026-03-24T11:13:50.957Z</time></trkpt><trkpt lat="30.197025467535813" lon="-5.5578005996153905"><ele>660.0</ele><time>2026-03-24T11:13:51.957Z</time></trkpt><trkpt lat="30.197178265156943" lon="-5.55789238996787"><ele>660.0</ele><time>2026-03-24T11:13:52.957Z</time></trkpt><trkpt lat="30.197333981992415" lon="-5.5579763287051085"><ele>659.3333333333334</ele><time>2026-03-24T11:13:53.957Z</time></trkpt><trkpt lat="30.197493260670587" lon="-5.558058884782125"><ele>658.6666666666667</ele><time>2026-03-24T11:13:54.957Z</time></trkpt><trkpt lat="30.197644731809625" lon="-5.558157446341037"><ele>658.0</ele><time>2026-03-24T11:13:55.957Z</time></trkpt><trkpt lat="30.19780142429847" lon="-5.558238963579426"><ele>658.0</ele><time>2026-03-24T11:13:56.958Z</time></trkpt><trkpt lat="30.197962014404215" lon="-5.558321490145888"><ele>658.0</ele><time>2026-03-24T11:13:57.957Z</time></trkpt><trkpt lat="30.198118886901348" lon="-5.558403029690609"><ele>658.0</ele><time>2026-03-24T11:13:58.957Z</time></trkpt><trkpt lat="30.198273550101195" lon="-5.558484678025316"><ele>658.3333333333334</ele><time>2026-03-24T11:13:59.957Z</time></trkpt><trkpt lat="30.198429796067558" lon="-5.55856660944952"><ele>658.6666666666666</ele><time>2026-03-24T11:14:00.957Z</time></trkpt><trkpt lat="30.19858457420755" lon="-5.558646762036219"><ele>659.0</ele><time>2026-03-24T11:14:01.957Z</time></trkpt><trkpt lat="30.198745126295883" lon="-5.558710502438776"><ele>659.0</ele><time>2026-03-24T11:14:02.957Z</time></trkpt><trkpt lat="30.198900794365812" lon="-5.558791447374989"><ele>659.0</ele><time>2026-03-24T11:14:03.957Z</time></trkpt><trkpt lat="30.19905768488007" lon="-5.558873415167491"><ele>659.0</ele><time>2026-03-24T11:14:04.957Z</time></trkpt><trkpt lat="30.199216319245494" lon="-5.5589562713903895"><ele>659.0</ele><time>2026-03-24T11:14:05.957Z</time></trkpt><trkpt lat="30.199375692246253" lon="-5.559038755206021"><ele>659.0</ele><time>2026-03-24T11:14:06.957Z</time></trkpt><trkpt lat="30.199530122822477" lon="-5.559135545190116"><ele>659.0</ele><time>2026-03-24T11:14:07.957Z</time></trkpt><trkpt lat="30.199692718958453" lon="-5.5592181478831915"><ele>659.3333333333333</ele><time>2026-03-24T11:14:08.957Z</time></trkpt><trkpt lat="30.199856186471248" lon="-5.559305508744863"><ele>659.6666666666666</ele><time>2026-03-24T11:14:09.957Z</time></trkpt><trkpt lat="30.20002221129689" lon="-5.559391207944507"><ele>660.0</ele><time>2026-03-24T11:14:10.957Z</time></trkpt><trkpt lat="30.20018108854775" lon="-5.55947324697541"><ele>660.0</ele><time>2026-03-24T11:14:11.957Z</time></trkpt><trkpt lat="30.20033791876522" lon="-5.559529543710129"><ele>660.0</ele><time>2026-03-24T11:14:12.957Z</time></trkpt><trkpt lat="30.200481131388326" lon="-5.559599602894745"><ele>660.0</ele><time>2026-03-24T11:14:13.957Z</time></trkpt><trkpt lat="30.200618127769154" lon="-5.559666749147686"><ele>659.6666666666666</ele><time>2026-03-24T11:14:14.957Z</time></trkpt><trkpt lat="30.20074879547327" lon="-5.559746821826416"><ele>659.3333333333333</ele><time>2026-03-24T11:14:15.957Z</time></trkpt><trkpt lat="30.200879843105096" lon="-5.559830377551273"><ele>659.0</ele><time>2026-03-24T11:14:16.957Z</time></trkpt><trkpt lat="30.201007524003174" lon="-5.559944660017439"><ele>659.0</ele><time>2026-03-24T11:14:17.957Z</time></trkpt><trkpt lat="30.201150137851123" lon="-5.56003426755796"><ele>659.0</ele><time>2026-03-24T11:14:18.957Z</time></trkpt><trkpt lat="30.20126983609567" lon="-5.5601345369249815"><ele>659.0</ele><time>2026-03-24T11:14:19.957Z</time></trkpt><trkpt lat="30.20138073133592" lon="-5.56024211299605"><ele>659.0</ele><time>2026-03-24T11:14:20.957Z</time></trkpt><trkpt lat="30.201462648146297" lon="-5.560357294187545"><ele>659.0</ele><time>2026-03-24T11:14:21.957Z</time></trkpt><trkpt lat="30.201551601004635" lon="-5.5604641005796855"><ele>659.0</ele><time>2026-03-24T11:14:22.957Z</time></trkpt><trkpt lat="30.201636024175126" lon="-5.56058221127994"><ele>659.0</ele><time>2026-03-24T11:14:23.957Z</time></trkpt><trkpt lat="30.201717927118885" lon="-5.560708621201171"><ele>659.0</ele><time>2026-03-24T11:14:24.957Z</time></trkpt><trkpt lat="30.201787884460906" lon="-5.560845310626495"><ele>659.0</ele><time>2026-03-24T11:14:25.957Z</time></trkpt><trkpt lat="30.201842449342116" lon="-5.560957630654524"><ele>659.0</ele><time>2026-03-24T11:14:26.957Z</time></trkpt><trkpt lat="30.201883418155674" lon="-5.5610203731232755"><ele>659.0</ele><time>2026-03-24T11:14:27.957Z</time></trkpt><trkpt lat="30.20193420231236" lon="-5.561113711542263"><ele>659.0</ele><time>2026-03-24T11:14:29.957Z</time></trkpt><trkpt lat="30.201971430916814" lon="-5.561178534639222"><ele>659.0</ele><time>2026-03-24T11:14:32.957Z</time></trkpt><trkpt lat="30.201873537667296" lon="-5.56111004449563"><ele>659.0</ele><time>2026-03-24T11:20:32.954Z</time></trkpt><trkpt lat="30.201824339755607" lon="-5.561006438643662"><ele>659.0</ele><time>2026-03-24T11:20:33.954Z</time></trkpt><trkpt lat="30.201782334901196" lon="-5.560916214669503"><ele>659.0</ele><time>2026-03-24T11:20:34.954Z</time></trkpt><trkpt lat="30.201737347609637" lon="-5.560824362202714"><ele>659.0</ele><time>2026-03-24T11:20:35.954Z</time></trkpt><trkpt lat="30.201694561032088" lon="-5.560739164562881"><ele>659.0</ele><time>2026-03-24T11:20:36.954Z</time></trkpt><trkpt lat="30.20164393597987" lon="-5.560644829228906"><ele>659.0</ele><time>2026-03-24T11:20:37.954Z</time></trkpt><trkpt lat="30.201583518911438" lon="-5.560541073557523"><ele>659.0</ele><time>2026-03-24T11:20:38.954Z</time></trkpt><trkpt lat="30.20152066508613" lon="-5.560449734902199"><ele>659.0</ele><time>2026-03-24T11:20:39.954Z</time></trkpt><trkpt lat="30.201461700060403" lon="-5.560372998929768"><ele>659.0</ele><time>2026-03-24T11:20:40.954Z</time></trkpt><trkpt lat="30.201407388012043" lon="-5.560309058191039"><ele>659.0</ele><time>2026-03-24T11:20:41.954Z</time></trkpt><trkpt lat="30.201336068441968" lon="-5.560235117486664"><ele>659.0</ele><time>2026-03-24T11:20:42.954Z</time></trkpt><trkpt lat="30.201242563168048" lon="-5.560152395167563"><ele>659.0</ele><time>2026-03-24T11:20:43.954Z</time></trkpt><trkpt lat="30.201160983967654" lon="-5.560078126636201"><ele>659.0</ele><time>2026-03-24T11:20:44.954Z</time></trkpt><trkpt lat="30.201091585831765" lon="-5.560019100474696"><ele>659.0</ele><time>2026-03-24T11:20:45.954Z</time></trkpt><trkpt lat="30.20102645658319" lon="-5.5599706209084365"><ele>659.0</ele><time>2026-03-24T11:20:46.954Z</time></trkpt><trkpt lat="30.2009654531687" lon="-5.559923976443701"><ele>659.0</ele><time>2026-03-24T11:20:47.954Z</time></trkpt><trkpt lat="30.200888433097184" lon="-5.55987716844473"><ele>659.0</ele><time>2026-03-24T11:20:48.954Z</time></trkpt><trkpt lat="30.200820741536976" lon="-5.559823957109065"><ele>659.0</ele><time>2026-03-24T11:20:49.954Z</time></trkpt><trkpt lat="30.200743359897206" lon="-5.55978117870592"><ele>659.0</ele><time>2026-03-24T11:20:50.954Z</time></trkpt><trkpt lat="30.200668746894127" lon="-5.559741032912496"><ele>659.0</ele><time>2026-03-24T11:20:51.954Z</time></trkpt><trkpt lat="30.200598288187702" lon="-5.559705796213685"><ele>658.8333333333333</ele><time>2026-03-24T11:20:52.954Z</time></trkpt><trkpt lat="30.200518239033993" lon="-5.559663385730938"><ele>658.6666666666666</ele><time>2026-03-24T11:20:53.954Z</time></trkpt><trkpt lat="30.200446464583024" lon="-5.559629714613629"><ele>658.5</ele><time>2026-03-24T11:20:54.954Z</time></trkpt><trkpt lat="30.200378120752376" lon="-5.5596007868871755"><ele>658.3333333333334</ele><time>2026-03-24T11:20:55.954Z</time></trkpt><trkpt lat="30.200311893715362" lon="-5.5595672746899885"><ele>658.1666666666667</ele><time>2026-03-24T11:20:56.954Z</time></trkpt><trkpt lat="30.20024609272814" lon="-5.559537857227632"><ele>658.0</ele><time>2026-03-24T11:20:57.954Z</time></trkpt><trkpt lat="30.20013952145718" lon="-5.559480239865059"><ele>658.4</ele><time>2026-03-24T11:20:59.954Z</time></trkpt><trkpt lat="30.200095584115488" lon="-5.55940738680336"><ele>658.8</ele><time>2026-03-24T11:21:01.954Z</time></trkpt><trkpt lat="30.200105059785574" lon="-5.559304192325272"><ele>659.2</ele><time>2026-03-24T11:21:04.954Z</time></trkpt><trkpt lat="30.200119832737048" lon="-5.559230568325096"><ele>659.6</ele><time>2026-03-24T11:21:15.954Z</time></trkpt><trkpt lat="30.2001499132345" lon="-5.559124729878557"><ele>660.0</ele><time>2026-03-24T11:21:17.954Z</time></trkpt><trkpt lat="30.200161604804734" lon="-5.5589725926396705"><ele>660.0</ele><time>2026-03-24T11:21:19.954Z</time></trkpt><trkpt lat="30.200177328759427" lon="-5.558877565734599"><ele>660.0</ele><time>2026-03-24T11:21:20.954Z</time></trkpt><trkpt lat="30.20019504988807" lon="-5.558746748043591"><ele>660.0</ele><time>2026-03-24T11:21:21.954Z</time></trkpt><trkpt lat="30.200212018357597" lon="-5.5585895050720415"><ele>660.0</ele><time>2026-03-24T11:21:22.954Z</time></trkpt><trkpt lat="30.200239025703656" lon="-5.558440728629654"><ele>659.0</ele><time>2026-03-24T11:21:23.954Z</time></trkpt><trkpt lat="30.200277593904808" lon="-5.558252201673567"><ele>658.0</ele><time>2026-03-24T11:21:24.954Z</time></trkpt><trkpt lat="30.200310175386978" lon="-5.55807121735436"><ele>657.0</ele><time>2026-03-24T11:21:25.954Z</time></trkpt><trkpt lat="30.20036092334955" lon="-5.557920272065016"><ele>657.5</ele><time>2026-03-24T11:21:26.954Z</time></trkpt><trkpt lat="30.200421171339638" lon="-5.55778438780845"><ele>658.0</ele><time>2026-03-24T11:21:27.954Z</time></trkpt><trkpt lat="30.20045425904163" lon="-5.557626045863126"><ele>658.5</ele><time>2026-03-24T11:21:28.954Z</time></trkpt><trkpt lat="30.200464339228134" lon="-5.5574409385989"><ele>659.0</ele><time>2026-03-24T11:21:29.954Z</time></trkpt><trkpt lat="30.2004913780679" lon="-5.55724477903225"><ele>659.0</ele><time>2026-03-24T11:21:30.954Z</time></trkpt><trkpt lat="30.2005304972287" lon="-5.557070785639199"><ele>659.0</ele><time>2026-03-24T11:21:31.954Z</time></trkpt><trkpt lat="30.200585984062343" lon="-5.556906225666914"><ele>659.0</ele><time>2026-03-24T11:21:32.954Z</time></trkpt><trkpt lat="30.200655707502186" lon="-5.556709308135994"><ele>659.0</ele><time>2026-03-24T11:21:33.954Z</time></trkpt><trkpt lat="30.200713198334633" lon="-5.556512573947083"><ele>659.0</ele><time>2026-03-24T11:21:34.954Z</time></trkpt><trkpt lat="30.20075798378432" lon="-5.556324439814854"><ele>659.0</ele><time>2026-03-24T11:21:35.954Z</time></trkpt><trkpt lat="30.20079547345102" lon="-5.55614599539009"><ele>659.0</ele><time>2026-03-24T11:21:36.954Z</time></trkpt><trkpt lat="30.20083276315052" lon="-5.555975854493132"><ele>659.0</ele><time>2026-03-24T11:21:37.954Z</time></trkpt><trkpt lat="30.20086312208182" lon="-5.555821611333261"><ele>659.0</ele><time>2026-03-24T11:21:38.954Z</time></trkpt><trkpt lat="30.20089123007103" lon="-5.555676461715278"><ele>659.0</ele><time>2026-03-24T11:21:39.954Z</time></trkpt><trkpt lat="30.20091021548516" lon="-5.555535104090083"><ele>659.0</ele><time>2026-03-24T11:21:40.954Z</time></trkpt><trkpt lat="30.20092155781143" lon="-5.555394500308514"><ele>659.0</ele><time>2026-03-24T11:21:41.954Z</time></trkpt><trkpt lat="30.200927838731875" lon="-5.555270984175495"><ele>659.0</ele><time>2026-03-24T11:21:42.954Z</time></trkpt><trkpt lat="30.200937082841307" lon="-5.555143098499879"><ele>659.0</ele><time>2026-03-24T11:21:43.954Z</time></trkpt><trkpt lat="30.20095599892514" lon="-5.5550082081124215"><ele>659.0</ele><time>2026-03-24T11:21:44.954Z</time></trkpt><trkpt lat="30.200974101951008" lon="-5.554869214182529"><ele>659.0</ele><time>2026-03-24T11:21:45.954Z</time></trkpt><trkpt lat="30.20099611414158" lon="-5.554735758930671"><ele>659.0</ele><time>2026-03-24T11:21:46.954Z</time></trkpt><trkpt lat="30.201017108700768" lon="-5.554600981090653"><ele>659.0</ele><time>2026-03-24T11:21:47.954Z</time></trkpt><trkpt lat="30.2010436060361" lon="-5.554458834730227"><ele>659.0</ele><time>2026-03-24T11:21:48.954Z</time></trkpt><trkpt lat="30.201072654997496" lon="-5.554309881405957"><ele>659.0</ele><time>2026-03-24T11:21:49.953Z</time></trkpt><trkpt lat="30.201100005399038" lon="-5.554165798343631"><ele>659.0</ele><time>2026-03-24T11:21:50.953Z</time></trkpt><trkpt lat="30.201126809555106" lon="-5.55402410935358"><ele>659.0</ele><time>2026-03-24T11:21:51.952Z</time></trkpt><trkpt lat="30.20115219905322" lon="-5.553879017684886"><ele>659.0</ele><time>2026-03-24T11:21:52.952Z</time></trkpt><trkpt lat="30.201179624777435" lon="-5.5537346103980045"><ele>659.0</ele><time>2026-03-24T11:21:53.952Z</time></trkpt><trkpt lat="30.20120948500248" lon="-5.553583390142782"><ele>659.0</ele><time>2026-03-24T11:21:54.951Z</time></trkpt><trkpt lat="30.201232316851765" lon="-5.55343293383958"><ele>659.0</ele><time>2026-03-24T11:21:55.951Z</time></trkpt><trkpt lat="30.201252098002215" lon="-5.5532699715985885"><ele>659.25</ele><time>2026-03-24T11:21:56.951Z</time></trkpt><trkpt lat="30.201271324376716" lon="-5.553106139606224"><ele>659.5</ele><time>2026-03-24T11:21:57.951Z</time></trkpt><trkpt lat="30.20129836521605" lon="-5.552940059937838"><ele>659.75</ele><time>2026-03-24T11:21:58.95Z</time></trkpt><trkpt lat="30.201320578588902" lon="-5.552783530197793"><ele>660.0</ele><time>2026-03-24T11:21:59.95Z</time></trkpt><trkpt lat="30.20133109434746" lon="-5.5526167263467725"><ele>659.5</ele><time>2026-03-24T11:22:00.95Z</time></trkpt><trkpt lat="30.20132344780235" lon="-5.552454452057518"><ele>659.0</ele><time>2026-03-24T11:22:01.95Z</time></trkpt><trkpt lat="30.201317959166868" lon="-5.552297933611204"><ele>658.5</ele><time>2026-03-24T11:22:02.949Z</time></trkpt><trkpt lat="30.201339845538" lon="-5.552138673797186"><ele>658.0</ele><time>2026-03-24T11:22:03.949Z</time></trkpt><trkpt lat="30.201377640323667" lon="-5.551975370987422"><ele>657.75</ele><time>2026-03-24T11:22:04.949Z</time></trkpt><trkpt lat="30.201419985624558" lon="-5.551817248512451"><ele>657.5</ele><time>2026-03-24T11:22:05.949Z</time></trkpt><trkpt lat="30.201457114388575" lon="-5.551664971967847"><ele>657.25</ele><time>2026-03-24T11:22:06.949Z</time></trkpt><trkpt lat="30.201483527682377" lon="-5.551519819729746"><ele>657.0</ele><time>2026-03-24T11:22:07.949Z</time></trkpt><trkpt lat="30.201520161183815" lon="-5.551377059363948"><ele>657.0</ele><time>2026-03-24T11:22:08.949Z</time></trkpt><trkpt lat="30.201567977646828" lon="-5.551238806552767"><ele>657.0</ele><time>2026-03-24T11:22:09.948Z</time></trkpt><trkpt lat="30.201634442311722" lon="-5.551102343160409"><ele>657.0</ele><time>2026-03-24T11:22:10.948Z</time></trkpt><trkpt lat="30.201708070637878" lon="-5.550979116532183"><ele>657.0</ele><time>2026-03-24T11:22:11.948Z</time></trkpt><trkpt lat="30.2017743433334" lon="-5.550863423174496"><ele>656.25</ele><time>2026-03-24T11:22:12.948Z</time></trkpt><trkpt lat="30.201832734672653" lon="-5.550743624756666"><ele>655.5</ele><time>2026-03-24T11:22:13.948Z</time></trkpt><trkpt lat="30.201900937099357" lon="-5.550627327877888"><ele>654.75</ele><time>2026-03-24T11:22:14.948Z</time></trkpt><trkpt lat="30.20196524891102" lon="-5.55051278449608"><ele>654.0</ele><time>2026-03-24T11:22:15.948Z</time></trkpt><trkpt lat="30.2020126283865" lon="-5.550387109767274"><ele>654.0</ele><time>2026-03-24T11:22:16.948Z</time></trkpt><trkpt lat="30.20205679892386" lon="-5.550267420442562"><ele>654.0</ele><time>2026-03-24T11:22:17.947Z</time></trkpt><trkpt lat="30.202112453286976" lon="-5.550164075932273"><ele>654.0</ele><time>2026-03-24T11:22:18.947Z</time></trkpt><trkpt lat="30.202180686814128" lon="-5.550081694150656"><ele>654.0</ele><time>2026-03-24T11:22:19.947Z</time></trkpt><trkpt lat="30.202232837904205" lon="-5.550008012691472"><ele>654.0</ele><time>2026-03-24T11:22:20.947Z</time></trkpt><trkpt lat="30.202284603850533" lon="-5.549893107387325"><ele>654.0</ele><time>2026-03-24T11:22:22.947Z</time></trkpt><trkpt lat="30.202306100577328" lon="-5.549776893406554"><ele>654.0</ele><time>2026-03-24T11:22:24.947Z</time></trkpt><trkpt lat="30.202330232660703" lon="-5.549622112580349"><ele>654.0</ele><time>2026-03-24T11:22:26.947Z</time></trkpt><trkpt lat="30.202325398773326" lon="-5.549527497616186"><ele>654.0</ele><time>2026-03-24T11:22:27.946Z</time></trkpt><trkpt lat="30.20230346373182" lon="-5.549426086999242"><ele>654.0</ele><time>2026-03-24T11:22:28.946Z</time></trkpt><trkpt lat="30.20228715064345" lon="-5.549338908392266"><ele>654.2</ele><time>2026-03-24T11:22:29.946Z</time></trkpt><trkpt lat="30.202284209915504" lon="-5.549231390399821"><ele>654.4000000000001</ele><time>2026-03-24T11:22:30.946Z</time></trkpt><trkpt lat="30.202297125826384" lon="-5.549124830961786"><ele>654.6</ele><time>2026-03-24T11:22:31.946Z</time></trkpt><trkpt lat="30.202294425202986" lon="-5.549016646675007"><ele>654.8</ele><time>2026-03-24T11:22:32.946Z</time></trkpt><trkpt lat="30.20227971868493" lon="-5.5489053148865155"><ele>655.0</ele><time>2026-03-24T11:22:33.946Z</time></trkpt><trkpt lat="30.202258839850018" lon="-5.548816552821183"><ele>655.0</ele><time>2026-03-24T11:22:34.946Z</time></trkpt><trkpt lat="30.20226108790589" lon="-5.548689793373215"><ele>655.0</ele><time>2026-03-24T11:22:36.946Z</time></trkpt><trkpt lat="30.202305724754403" lon="-5.54863071750197"><ele>655.0</ele><time>2026-03-24T11:22:37.946Z</time></trkpt><trkpt lat="30.202378861148308" lon="-5.548584727535652"><ele>655.0</ele><time>2026-03-24T11:22:38.946Z</time></trkpt><trkpt lat="30.20247427024583" lon="-5.548556379553403"><ele>655.0</ele><time>2026-03-24T11:22:39.946Z</time></trkpt><trkpt lat="30.20258512569628" lon="-5.548524202523989"><ele>655.25</ele><time>2026-03-24T11:22:40.946Z</time></trkpt><trkpt lat="30.20269045696034" lon="-5.548483857080187"><ele>655.5</ele><time>2026-03-24T11:22:41.946Z</time></trkpt><trkpt lat="30.202797203056175" lon="-5.548448580486513"><ele>655.75</ele><time>2026-03-24T11:22:42.946Z</time></trkpt><trkpt lat="30.202908524659875" lon="-5.548412830388528"><ele>656.0</ele><time>2026-03-24T11:22:43.946Z</time></trkpt><trkpt lat="30.203018922996694" lon="-5.548378906269068"><ele>656.0</ele><time>2026-03-24T11:22:44.946Z</time></trkpt><trkpt lat="30.203130946189557" lon="-5.548361454234326"><ele>656.0</ele><time>2026-03-24T11:22:45.946Z</time></trkpt><trkpt lat="30.203237310261784" lon="-5.54835192258236"><ele>656.0</ele><time>2026-03-24T11:22:46.946Z</time></trkpt><trkpt lat="30.203325469290217" lon="-5.548350007673203"><ele>656.0</ele><time>2026-03-24T11:22:47.946Z</time></trkpt><trkpt lat="30.203421217426847" lon="-5.548370531564452"><ele>656.0</ele><time>2026-03-24T11:22:48.946Z</time></trkpt><trkpt lat="30.203547014026537" lon="-5.548407493488082"><ele>656.0</ele><time>2026-03-24T11:22:49.946Z</time></trkpt><trkpt lat="30.203695999499388" lon="-5.54842015923505"><ele>656.0</ele><time>2026-03-24T11:22:50.946Z</time></trkpt><trkpt lat="30.203820795659684" lon="-5.548422860971966"><ele>656.0</ele><time>2026-03-24T11:22:51.946Z</time></trkpt><trkpt lat="30.203930706372674" lon="-5.54842444917992"><ele>656.0</ele><time>2026-03-24T11:22:52.946Z</time></trkpt><trkpt lat="30.20403180635925" lon="-5.548423313478954"><ele>655.8</ele><time>2026-03-24T11:22:53.946Z</time></trkpt><trkpt lat="30.20413562368308" lon="-5.548415586124919"><ele>655.5999999999999</ele><time>2026-03-24T11:22:54.946Z</time></trkpt><trkpt lat="30.20424075362611" lon="-5.548395448411922"><ele>655.4</ele><time>2026-03-24T11:22:55.946Z</time></trkpt><trkpt lat="30.204344484423604" lon="-5.548347723289149"><ele>655.2</ele><time>2026-03-24T11:22:56.946Z</time></trkpt><trkpt lat="30.204449847467906" lon="-5.548278930815065"><ele>655.0</ele><time>2026-03-24T11:22:57.946Z</time></trkpt><trkpt lat="30.204562109133587" lon="-5.548208509279397"><ele>655.0</ele><time>2026-03-24T11:22:58.946Z</time></trkpt><trkpt lat="30.204673712190342" lon="-5.54814700055525"><ele>655.0</ele><time>2026-03-24T11:22:59.946Z</time></trkpt><trkpt lat="30.20478418924602" lon="-5.54809056840747"><ele>655.0</ele><time>2026-03-24T11:23:00.946Z</time></trkpt><trkpt lat="30.204896755429242" lon="-5.548037713726973"><ele>655.0</ele><time>2026-03-24T11:23:01.946Z</time></trkpt><trkpt lat="30.2050101034724" lon="-5.547977962235964"><ele>655.0</ele><time>2026-03-24T11:23:02.946Z</time></trkpt><trkpt lat="30.205114518206607" lon="-5.547912932197698"><ele>655.0</ele><time>2026-03-24T11:23:03.946Z</time></trkpt><trkpt lat="30.2052168232196" lon="-5.547845980967084"><ele>655.0</ele><time>2026-03-24T11:23:04.946Z</time></trkpt><trkpt lat="30.20531215167359" lon="-5.547793706068702"><ele>655.0</ele><time>2026-03-24T11:23:05.946Z</time></trkpt><trkpt lat="30.20540172514363" lon="-5.547756160245082"><ele>655.0</ele><time>2026-03-24T11:23:06.946Z</time></trkpt><trkpt lat="30.205490511001116" lon="-5.547734901247992"><ele>655.3333333333334</ele><time>2026-03-24T11:23:07.946Z</time></trkpt><trkpt lat="30.205596743540767" lon="-5.5477255855218335"><ele>655.6666666666667</ele><time>2026-03-24T11:23:08.946Z</time></trkpt><trkpt lat="30.205669094586142" lon="-5.54770642303474"><ele>656.0</ele><time>2026-03-24T11:23:09.946Z</time></trkpt><trkpt lat="30.205725069518003" lon="-5.547669754870779"><ele>656.3333333333334</ele><time>2026-03-24T11:23:10.946Z</time></trkpt><trkpt lat="30.205770257422405" lon="-5.547612996582774"><ele>656.6666666666666</ele><time>2026-03-24T11:23:11.946Z</time></trkpt><trkpt lat="30.205791462126996" lon="-5.547535682473655"><ele>657.0</ele><time>2026-03-24T11:23:12.946Z</time></trkpt><trkpt lat="30.205808577931936" lon="-5.547443551826193"><ele>657.4000000000001</ele><time>2026-03-24T11:23:13.946Z</time></trkpt><trkpt lat="30.205832866816024" lon="-5.547353451014956"><ele>657.8000000000001</ele><time>2026-03-24T11:23:14.946Z</time></trkpt><trkpt lat="30.205871169793816" lon="-5.547281799947825"><ele>658.2</ele><time>2026-03-24T11:23:15.946Z</time></trkpt><trkpt lat="30.205961587641184" lon="-5.547211472250019"><ele>658.6</ele><time>2026-03-24T11:23:16.946Z</time></trkpt><trkpt lat="30.206087752950243" lon="-5.547157575030758"><ele>659.0</ele><time>2026-03-24T11:23:17.946Z</time></trkpt><trkpt lat="30.206214329514683" lon="-5.547092377094833"><ele>659.25</ele><time>2026-03-24T11:23:18.946Z</time></trkpt><trkpt lat="30.206340977579067" lon="-5.547020721043398"><ele>659.5</ele><time>2026-03-24T11:23:19.946Z</time></trkpt><trkpt lat="30.206455872803065" lon="-5.546945051716553"><ele>659.75</ele><time>2026-03-24T11:23:20.946Z</time></trkpt><trkpt lat="30.206567670070257" lon="-5.546863932632521"><ele>660.0</ele><time>2026-03-24T11:23:21.946Z</time></trkpt><trkpt lat="30.206679498036284" lon="-5.546777304760242"><ele>660.0</ele><time>2026-03-24T11:23:22.946Z</time></trkpt><trkpt lat="30.206792083084856" lon="-5.546689280178918"><ele>660.0</ele><time>2026-03-24T11:23:23.946Z</time></trkpt><trkpt lat="30.206915082252387" lon="-5.546599308858738"><ele>660.0</ele><time>2026-03-24T11:23:24.946Z</time></trkpt><trkpt lat="30.207035428721817" lon="-5.546513045651622"><ele>660.0</ele><time>2026-03-24T11:23:25.946Z</time></trkpt><trkpt lat="30.20715452126482" lon="-5.546426683854655"><ele>660.0</ele><time>2026-03-24T11:23:26.946Z</time></trkpt><trkpt lat="30.20726699811397" lon="-5.546348291968091"><ele>660.0</ele><time>2026-03-24T11:23:27.946Z</time></trkpt><trkpt lat="30.20737244805653" lon="-5.546278114260122"><ele>660.0</ele><time>2026-03-24T11:23:28.946Z</time></trkpt><trkpt lat="30.207477644609018" lon="-5.546201121714878"><ele>660.0</ele><time>2026-03-24T11:23:29.946Z</time></trkpt><trkpt lat="30.207584549059636" lon="-5.54612327332185"><ele>660.4</ele><time>2026-03-24T11:23:30.946Z</time></trkpt><trkpt lat="30.207688709569762" lon="-5.5460475616818234"><ele>660.8</ele><time>2026-03-24T11:23:31.946Z</time></trkpt><trkpt lat="30.207790766174263" lon="-5.545988009634135"><ele>661.2</ele><time>2026-03-24T11:23:32.946Z</time></trkpt><trkpt lat="30.207878331366565" lon="-5.5459383099690776"><ele>661.6</ele><time>2026-03-24T11:23:33.946Z</time></trkpt><trkpt lat="30.207959586048236" lon="-5.545899580768669"><ele>662.0</ele><time>2026-03-24T11:23:34.946Z</time></trkpt><trkpt lat="30.208036242592925" lon="-5.545862479867157"><ele>662.0</ele><time>2026-03-24T11:23:35.946Z</time></trkpt><trkpt lat="30.208108979660576" lon="-5.545826329104848"><ele>662.0</ele><time>2026-03-24T11:23:36.946Z</time></trkpt><trkpt lat="30.208185241239345" lon="-5.545783837864087"><ele>662.0</ele><time>2026-03-24T11:23:37.946Z</time></trkpt><trkpt lat="30.20826185326074" lon="-5.54573448901406"><ele>662.0</ele><time>2026-03-24T11:23:38.946Z</time></trkpt><trkpt lat="30.20833954978983" lon="-5.545680901737302"><ele>662.0</ele><time>2026-03-24T11:23:39.946Z</time></trkpt><trkpt lat="30.208428800015422" lon="-5.545629622792909"><ele>662.0</ele><time>2026-03-24T11:23:40.946Z</time></trkpt><trkpt lat="30.208530555429576" lon="-5.545573961472415"><ele>662.25</ele><time>2026-03-24T11:23:41.946Z</time></trkpt><trkpt lat="30.208638622725456" lon="-5.545512730199453"><ele>662.5</ele><time>2026-03-24T11:23:42.946Z</time></trkpt><trkpt lat="30.20874205431253" lon="-5.545448200569719"><ele>662.75</ele><time>2026-03-24T11:23:43.946Z</time></trkpt><trkpt lat="30.208866729357787" lon="-5.545399992100603"><ele>663.0</ele><time>2026-03-24T11:23:44.946Z</time></trkpt><trkpt lat="30.20897476288296" lon="-5.545357049619161"><ele>662.8333333333334</ele><time>2026-03-24T11:23:45.946Z</time></trkpt><trkpt lat="30.209070493364784" lon="-5.545314107063691"><ele>662.6666666666666</ele><time>2026-03-24T11:23:46.946Z</time></trkpt><trkpt lat="30.20914703034954" lon="-5.545273831326798"><ele>662.5</ele><time>2026-03-24T11:23:47.946Z</time></trkpt><trkpt lat="30.20921103670691" lon="-5.545238775028675"><ele>662.3333333333333</ele><time>2026-03-24T11:23:48.946Z</time></trkpt><trkpt lat="30.209274559286623" lon="-5.545206102720367"><ele>662.1666666666666</ele><time>2026-03-24T11:23:49.946Z</time></trkpt><trkpt lat="30.209335160024043" lon="-5.545180041396613"><ele>662.0</ele><time>2026-03-24T11:23:50.946Z</time></trkpt><trkpt lat="30.209393889645348" lon="-5.545145144006293"><ele>662.0</ele><time>2026-03-24T11:23:51.946Z</time></trkpt><trkpt lat="30.209458674962516" lon="-5.545103901773396"><ele>662.0</ele><time>2026-03-24T11:23:52.946Z</time></trkpt><trkpt lat="30.209532182191726" lon="-5.545062458527472"><ele>662.0</ele><time>2026-03-24T11:23:53.946Z</time></trkpt><trkpt lat="30.209603813423836" lon="-5.545022242547068"><ele>662.0</ele><time>2026-03-24T11:23:54.946Z</time></trkpt><trkpt lat="30.209682253103107" lon="-5.5450022141004585"><ele>662.0</ele><time>2026-03-24T11:23:55.946Z</time></trkpt><trkpt lat="30.20978967153892" lon="-5.545000326371253"><ele>662.0</ele><time>2026-03-24T11:23:56.946Z</time></trkpt><trkpt lat="30.20992148864435" lon="-5.54498160772257"><ele>661.75</ele><time>2026-03-24T11:23:57.946Z</time></trkpt><trkpt lat="30.210060554952754" lon="-5.544948505479155"><ele>661.5</ele><time>2026-03-24T11:23:58.946Z</time></trkpt><trkpt lat="30.210215101101127" lon="-5.544927804719994"><ele>661.25</ele><time>2026-03-24T11:23:59.946Z</time></trkpt><trkpt lat="30.210351317235176" lon="-5.544921363552779"><ele>661.0</ele><time>2026-03-24T11:24:00.945Z</time></trkpt><trkpt lat="30.210454397807272" lon="-5.54489995362668"><ele>661.0</ele><time>2026-03-24T11:24:01.945Z</time></trkpt><trkpt lat="30.210541490843553" lon="-5.544848242292489"><ele>661.0</ele><time>2026-03-24T11:24:02.945Z</time></trkpt><trkpt lat="30.21060848618446" lon="-5.544778620224998"><ele>661.0</ele><time>2026-03-24T11:24:03.945Z</time></trkpt><trkpt lat="30.210671769270288" lon="-5.544707261813375"><ele>661.0</ele><time>2026-03-24T11:24:04.945Z</time></trkpt><trkpt lat="30.21074040981331" lon="-5.544651673910124"><ele>661.0</ele><time>2026-03-24T11:24:05.945Z</time></trkpt><trkpt lat="30.21080173840088" lon="-5.544595665612113"><ele>661.0</ele><time>2026-03-24T11:24:06.945Z</time></trkpt><trkpt lat="30.210860839559068" lon="-5.544550314684158"><ele>661.4</ele><time>2026-03-24T11:24:07.945Z</time></trkpt><trkpt lat="30.210943885002603" lon="-5.544528534429994"><ele>661.8</ele><time>2026-03-24T11:24:08.945Z</time></trkpt><trkpt lat="30.21104612630789" lon="-5.544517128482772"><ele>662.1999999999999</ele><time>2026-03-24T11:24:09.945Z</time></trkpt><trkpt lat="30.21114891601871" lon="-5.544503507228031"><ele>662.5999999999999</ele><time>2026-03-24T11:24:10.945Z</time></trkpt><trkpt lat="30.211251156577628" lon="-5.544465494962402"><ele>663.0</ele><time>2026-03-24T11:24:11.945Z</time></trkpt><trkpt lat="30.21135784760024" lon="-5.544424785457485"><ele>663.0</ele><time>2026-03-24T11:24:12.945Z</time></trkpt><trkpt lat="30.211433888280084" lon="-5.544376410222053"><ele>663.0</ele><time>2026-03-24T11:24:13.945Z</time></trkpt><trkpt lat="30.211497951620505" lon="-5.544349132463102"><ele>663.0</ele><time>2026-03-24T11:24:14.945Z</time></trkpt><trkpt lat="30.211571277850158" lon="-5.5443552599180235"><ele>663.0</ele><time>2026-03-24T11:24:15.945Z</time></trkpt><trkpt lat="30.21165561863302" lon="-5.544365345113533"><ele>663.0</ele><time>2026-03-24T11:24:16.945Z</time></trkpt><trkpt lat="30.2117579386502" lon="-5.544329604311447"><ele>663.0</ele><time>2026-03-24T11:24:17.946Z</time></trkpt><trkpt lat="30.21186791592589" lon="-5.5442575900880415"><ele>663.25</ele><time>2026-03-24T11:24:18.945Z</time></trkpt><trkpt lat="30.211988123780944" lon="-5.544181628994804"><ele>663.5</ele><time>2026-03-24T11:24:19.945Z</time></trkpt><trkpt lat="30.212113767504267" lon="-5.544119312990468"><ele>663.75</ele><time>2026-03-24T11:24:20.946Z</time></trkpt><trkpt lat="30.21224306191221" lon="-5.54406504602619"><ele>664.0</ele><time>2026-03-24T11:24:21.945Z</time></trkpt><trkpt lat="30.21237658269673" lon="-5.5440121273633185"><ele>664.0</ele><time>2026-03-24T11:24:22.945Z</time></trkpt><trkpt lat="30.212514778701834" lon="-5.54395494766946"><ele>664.0</ele><time>2026-03-24T11:24:23.946Z</time></trkpt><trkpt lat="30.2126406268766" lon="-5.543883144851538"><ele>664.0</ele><time>2026-03-24T11:24:24.945Z</time></trkpt><trkpt lat="30.212757696753016" lon="-5.543802251678673"><ele>664.0</ele><time>2026-03-24T11:24:25.945Z</time></trkpt><trkpt lat="30.212881428911718" lon="-5.5437331970994785"><ele>664.0</ele><time>2026-03-24T11:24:26.945Z</time></trkpt><trkpt lat="30.213006089318437" lon="-5.543659158901908"><ele>664.0</ele><time>2026-03-24T11:24:27.945Z</time></trkpt><trkpt lat="30.213124620118418" lon="-5.543576727698936"><ele>664.0</ele><time>2026-03-24T11:24:28.945Z</time></trkpt><trkpt lat="30.213249830297126" lon="-5.54350784460957"><ele>664.0</ele><time>2026-03-24T11:24:29.945Z</time></trkpt><trkpt lat="30.21338063625281" lon="-5.543452507003471"><ele>664.75</ele><time>2026-03-24T11:24:30.945Z</time></trkpt><trkpt lat="30.213506279594522" lon="-5.543393127263877"><ele>665.5</ele><time>2026-03-24T11:24:31.945Z</time></trkpt><trkpt lat="30.213631538595052" lon="-5.543332336325622"><ele>666.25</ele><time>2026-03-24T11:24:32.945Z</time></trkpt><trkpt lat="30.213759701862784" lon="-5.543275715804144"><ele>667.0</ele><time>2026-03-24T11:24:33.945Z</time></trkpt><trkpt lat="30.213887005922313" lon="-5.543222831371824"><ele>666.25</ele><time>2026-03-24T11:24:34.945Z</time></trkpt><trkpt lat="30.214011038110787" lon="-5.543156047611012"><ele>665.5</ele><time>2026-03-24T11:24:35.945Z</time></trkpt><trkpt lat="30.214136846652547" lon="-5.5430895011293915"><ele>664.75</ele><time>2026-03-24T11:24:36.945Z</time></trkpt><trkpt lat="30.214266222589988" lon="-5.543022512708463"><ele>664.0</ele><time>2026-03-24T11:24:37.945Z</time></trkpt><trkpt lat="30.214394358893635" lon="-5.542952213972358"><ele>664.0</ele><time>2026-03-24T11:24:38.945Z</time></trkpt><trkpt lat="30.214520395717013" lon="-5.542878558100915"><ele>664.0</ele><time>2026-03-24T11:24:39.945Z</time></trkpt><trkpt lat="30.214647066391912" lon="-5.542799104232648"><ele>664.0</ele><time>2026-03-24T11:24:40.945Z</time></trkpt><trkpt lat="30.214766326896825" lon="-5.5427216255230976"><ele>664.0</ele><time>2026-03-24T11:24:41.945Z</time></trkpt><trkpt lat="30.21488577062466" lon="-5.542647764119982"><ele>664.0</ele><time>2026-03-24T11:24:42.945Z</time></trkpt><trkpt lat="30.215004299205123" lon="-5.542579542620375"><ele>664.0</ele><time>2026-03-24T11:24:43.945Z</time></trkpt><trkpt lat="30.21512483643036" lon="-5.542518417091804"><ele>664.0</ele><time>2026-03-24T11:24:44.945Z</time></trkpt><trkpt lat="30.215250538889794" lon="-5.542465110008379"><ele>664.0</ele><time>2026-03-24T11:24:45.945Z</time></trkpt><trkpt lat="30.21537533236852" lon="-5.54241674511531"><ele>664.0</ele><time>2026-03-24T11:24:46.945Z</time></trkpt><trkpt lat="30.21550883182619" lon="-5.5423803169734756"><ele>664.0</ele><time>2026-03-24T11:24:47.945Z</time></trkpt><trkpt lat="30.21563989204358" lon="-5.542361041623944"><ele>664.0</ele><time>2026-03-24T11:24:48.945Z</time></trkpt><trkpt lat="30.21576731867066" lon="-5.542347499582515"><ele>664.0</ele><time>2026-03-24T11:24:49.945Z</time></trkpt><trkpt lat="30.2158947317414" lon="-5.542340655876041"><ele>664.25</ele><time>2026-03-24T11:24:50.945Z</time></trkpt><trkpt lat="30.216024354826377" lon="-5.5423491760037535"><ele>664.5</ele><time>2026-03-24T11:24:51.945Z</time></trkpt><trkpt lat="30.21615154604376" lon="-5.542352184593923"><ele>664.75</ele><time>2026-03-24T11:24:52.945Z</time></trkpt><trkpt lat="30.216287011799498" lon="-5.542356109976358"><ele>665.0</ele><time>2026-03-24T11:24:53.945Z</time></trkpt><trkpt lat="30.21640920078473" lon="-5.542354499639003"><ele>665.0</ele><time>2026-03-24T11:24:54.945Z</time></trkpt><trkpt lat="30.216539287043027" lon="-5.542338810019724"><ele>665.0</ele><time>2026-03-24T11:24:55.945Z</time></trkpt><trkpt lat="30.216657977962363" lon="-5.542318812591228"><ele>665.0</ele><time>2026-03-24T11:24:56.945Z</time></trkpt><trkpt lat="30.216783452356054" lon="-5.542304439797022"><ele>665.0</ele><time>2026-03-24T11:24:57.945Z</time></trkpt><trkpt lat="30.21690682424576" lon="-5.54230834211812"><ele>665.0</ele><time>2026-03-24T11:24:58.945Z</time></trkpt><trkpt lat="30.21703426326014" lon="-5.542330132433217"><ele>665.0</ele><time>2026-03-24T11:24:59.945Z</time></trkpt><trkpt lat="30.217172946228633" lon="-5.542365737624578"><ele>665.0</ele><time>2026-03-24T11:25:00.945Z</time></trkpt><trkpt lat="30.217306569866984" lon="-5.5424033954894"><ele>665.0</ele><time>2026-03-24T11:25:01.945Z</time></trkpt><trkpt lat="30.217445160078313" lon="-5.542449079477837"><ele>665.25</ele><time>2026-03-24T11:25:02.945Z</time></trkpt><trkpt lat="30.217578845441636" lon="-5.542502646909185"><ele>665.5</ele><time>2026-03-24T11:25:03.945Z</time></trkpt><trkpt lat="30.217712679722787" lon="-5.5425542764604145"><ele>665.75</ele><time>2026-03-24T11:25:04.945Z</time></trkpt><trkpt lat="30.217845656902405" lon="-5.542599694778624"><ele>666.0</ele><time>2026-03-24T11:25:05.945Z</time></trkpt><trkpt lat="30.2179708597041" lon="-5.542623714986091"><ele>666.0</ele><time>2026-03-24T11:25:06.945Z</time></trkpt><trkpt lat="30.21807633162452" lon="-5.542655931295377"><ele>666.0</ele><time>2026-03-24T11:25:07.945Z</time></trkpt><trkpt lat="30.218170804508965" lon="-5.5426798499924885"><ele>666.0</ele><time>2026-03-24T11:25:08.945Z</time></trkpt><trkpt lat="30.218258248000716" lon="-5.542715026369138"><ele>666.0</ele><time>2026-03-24T11:25:09.945Z</time></trkpt><trkpt lat="30.218326959725605" lon="-5.54275860567822"><ele>666.0</ele><time>2026-03-24T11:25:10.945Z</time></trkpt><trkpt lat="30.218389992768735" lon="-5.542817607957115"><ele>666.1666666666666</ele><time>2026-03-24T11:25:11.945Z</time></trkpt><trkpt lat="30.218445731815205" lon="-5.542891398688933"><ele>666.3333333333334</ele><time>2026-03-24T11:25:12.945Z</time></trkpt><trkpt lat="30.21849646593493" lon="-5.542958834579683"><ele>666.5</ele><time>2026-03-24T11:25:13.945Z</time></trkpt><trkpt lat="30.21856070789147" lon="-5.542997547407311"><ele>666.6666666666667</ele><time>2026-03-24T11:25:14.945Z</time></trkpt><trkpt lat="30.21863597258697" lon="-5.543024112246183"><ele>666.8333333333334</ele><time>2026-03-24T11:25:15.945Z</time></trkpt><trkpt lat="30.218738681698234" lon="-5.54306136658784"><ele>667.0</ele><time>2026-03-24T11:25:16.945Z</time></trkpt><trkpt lat="30.218846858154148" lon="-5.543094666710626"><ele>667.0</ele><time>2026-03-24T11:25:17.945Z</time></trkpt><trkpt lat="30.21895291621003" lon="-5.54313252663864"><ele>667.0</ele><time>2026-03-24T11:25:18.945Z</time></trkpt><trkpt lat="30.21905737477055" lon="-5.543153029433414"><ele>667.0</ele><time>2026-03-24T11:25:19.945Z</time></trkpt><trkpt lat="30.219173452987807" lon="-5.5431666255423995"><ele>667.0</ele><time>2026-03-24T11:25:20.945Z</time></trkpt><trkpt lat="30.21927912867728" lon="-5.54321248106062"><ele>667.0</ele><time>2026-03-24T11:25:21.945Z</time></trkpt><trkpt lat="30.21938939829057" lon="-5.543255844163812"><ele>666.75</ele><time>2026-03-24T11:25:22.945Z</time></trkpt><trkpt lat="30.21950351288927" lon="-5.543294835065174"><ele>666.5</ele><time>2026-03-24T11:25:23.945Z</time></trkpt><trkpt lat="30.21961849417346" lon="-5.54332420695742"><ele>666.25</ele><time>2026-03-24T11:25:24.945Z</time></trkpt><trkpt lat="30.219736575450604" lon="-5.5433330411433746"><ele>666.0</ele><time>2026-03-24T11:25:25.945Z</time></trkpt><trkpt lat="30.219845425900186" lon="-5.5433257745923585"><ele>666.5</ele><time>2026-03-24T11:25:26.945Z</time></trkpt><trkpt lat="30.219943734827446" lon="-5.543318749164781"><ele>667.0</ele><time>2026-03-24T11:25:27.945Z</time></trkpt><trkpt lat="30.220056527726396" lon="-5.543316969658153"><ele>667.5</ele><time>2026-03-24T11:25:28.945Z</time></trkpt><trkpt lat="30.220172773935104" lon="-5.543310671077837"><ele>668.0</ele><time>2026-03-24T11:25:29.945Z</time></trkpt><trkpt lat="30.220303975518828" lon="-5.543297976115145"><ele>668.0</ele><time>2026-03-24T11:25:30.945Z</time></trkpt><trkpt lat="30.220436230239887" lon="-5.5432810225951705"><ele>668.0</ele><time>2026-03-24T11:25:31.945Z</time></trkpt><trkpt lat="30.220567064369202" lon="-5.543257488548491"><ele>668.0</ele><time>2026-03-24T11:25:32.945Z</time></trkpt><trkpt lat="30.220702029057623" lon="-5.543232491756313"><ele>668.0</ele><time>2026-03-24T11:25:33.945Z</time></trkpt><trkpt lat="30.22083801313091" lon="-5.543211284409959"><ele>668.0</ele><time>2026-03-24T11:25:34.945Z</time></trkpt><trkpt lat="30.220975433772054" lon="-5.543189746256092"><ele>668.0</ele><time>2026-03-24T11:25:35.945Z</time></trkpt><trkpt lat="30.221102670831446" lon="-5.54316724666054"><ele>668.0</ele><time>2026-03-24T11:25:36.945Z</time></trkpt><trkpt lat="30.221218649668526" lon="-5.54315140158155"><ele>668.0</ele><time>2026-03-24T11:25:37.945Z</time></trkpt><trkpt lat="30.221319629834948" lon="-5.543133274563352"><ele>668.0</ele><time>2026-03-24T11:25:38.945Z</time></trkpt><trkpt lat="30.221413414731874" lon="-5.5431292767571785"><ele>668.0</ele><time>2026-03-24T11:25:39.945Z</time></trkpt><trkpt lat="30.22151042701897" lon="-5.543127306767912"><ele>668.0</ele><time>2026-03-24T11:25:40.945Z</time></trkpt><trkpt lat="30.22160222052252" lon="-5.5431005994327"><ele>668.0</ele><time>2026-03-24T11:25:41.945Z</time></trkpt><trkpt lat="30.22170173266979" lon="-5.543070889710691"><ele>668.0</ele><time>2026-03-24T11:25:42.945Z</time></trkpt><trkpt lat="30.22181145481163" lon="-5.543056684530317"><ele>668.25</ele><time>2026-03-24T11:25:43.945Z</time></trkpt><trkpt lat="30.22192629656568" lon="-5.543033876290779"><ele>668.5</ele><time>2026-03-24T11:25:44.945Z</time></trkpt><trkpt lat="30.222051316440957" lon="-5.543006485917503"><ele>668.75</ele><time>2026-03-24T11:25:45.945Z</time></trkpt><trkpt lat="30.222170865251762" lon="-5.542966376145087"><ele>669.0</ele><time>2026-03-24T11:25:46.945Z</time></trkpt><trkpt lat="30.222285977317686" lon="-5.542897985445065"><ele>669.0</ele><time>2026-03-24T11:25:47.945Z</time></trkpt><trkpt lat="30.222393136535207" lon="-5.542837114378247"><ele>669.0</ele><time>2026-03-24T11:25:48.945Z</time></trkpt><trkpt lat="30.222502390501372" lon="-5.542792832280443"><ele>669.0</ele><time>2026-03-24T11:25:49.945Z</time></trkpt><trkpt lat="30.222617676527182" lon="-5.542771258472414"><ele>669.0</ele><time>2026-03-24T11:25:50.945Z</time></trkpt><trkpt lat="30.222722933331205" lon="-5.54274004677011"><ele>669.0</ele><time>2026-03-24T11:25:51.945Z</time></trkpt><trkpt lat="30.222820433601765" lon="-5.542679589988909"><ele>669.0</ele><time>2026-03-24T11:25:52.945Z</time></trkpt><trkpt lat="30.22292629798164" lon="-5.542616730426491"><ele>669.0</ele><time>2026-03-24T11:25:53.945Z</time></trkpt><trkpt lat="30.2230362964037" lon="-5.542544966403132"><ele>669.0</ele><time>2026-03-24T11:25:54.945Z</time></trkpt><trkpt lat="30.223149598850235" lon="-5.542468028204631"><ele>668.75</ele><time>2026-03-24T11:25:55.945Z</time></trkpt><trkpt lat="30.223261100039682" lon="-5.542382706799784"><ele>668.5</ele><time>2026-03-24T11:25:56.945Z</time></trkpt><trkpt lat="30.223379092243896" lon="-5.542298394720308"><ele>668.25</ele><time>2026-03-24T11:25:57.945Z</time></trkpt><trkpt lat="30.223496822568936" lon="-5.542209765772489"><ele>668.0</ele><time>2026-03-24T11:25:58.945Z</time></trkpt><trkpt lat="30.223618331164776" lon="-5.5421237566516695"><ele>668.5</ele><time>2026-03-24T11:25:59.945Z</time></trkpt><trkpt lat="30.223729206748022" lon="-5.542040224442499"><ele>669.0</ele><time>2026-03-24T11:26:00.945Z</time></trkpt><trkpt lat="30.223821918861432" lon="-5.541945737339522"><ele>669.5</ele><time>2026-03-24T11:26:01.945Z</time></trkpt><trkpt lat="30.223928202499277" lon="-5.541852310519438"><ele>670.0</ele><time>2026-03-24T11:26:02.945Z</time></trkpt><trkpt lat="30.22403987210908" lon="-5.541778806125944"><ele>670.0</ele><time>2026-03-24T11:26:03.945Z</time></trkpt><trkpt lat="30.224153674295486" lon="-5.541713054245576"><ele>670.0</ele><time>2026-03-24T11:26:04.945Z</time></trkpt><trkpt lat="30.224265214477967" lon="-5.5416546183167945"><ele>670.0</ele><time>2026-03-24T11:26:05.945Z</time></trkpt><trkpt lat="30.22437762015958" lon="-5.54161191858427"><ele>670.0</ele><time>2026-03-24T11:26:06.945Z</time></trkpt><trkpt lat="30.224485135153863" lon="-5.5415941674791975"><ele>670.0</ele><time>2026-03-24T11:26:07.945Z</time></trkpt><trkpt lat="30.22459087765906" lon="-5.5415851242476455"><ele>670.0</ele><time>2026-03-24T11:26:08.945Z</time></trkpt><trkpt lat="30.22470489537037" lon="-5.541575397541851"><ele>670.0</ele><time>2026-03-24T11:26:09.945Z</time></trkpt><trkpt lat="30.224820941872864" lon="-5.541562701685451"><ele>670.0</ele><time>2026-03-24T11:26:10.945Z</time></trkpt><trkpt lat="30.22494563353736" lon="-5.5415460098863365"><ele>670.0</ele><time>2026-03-24T11:26:11.945Z</time></trkpt><trkpt lat="30.225072732296464" lon="-5.541520438777035"><ele>670.0</ele><time>2026-03-24T11:26:12.945Z</time></trkpt><trkpt lat="30.225189171833975" lon="-5.5414954887774135"><ele>670.0</ele><time>2026-03-24T11:26:13.945Z</time></trkpt><trkpt lat="30.225292379450966" lon="-5.541452374957911"><ele>670.0</ele><time>2026-03-24T11:26:14.945Z</time></trkpt><trkpt lat="30.22539336127376" lon="-5.541394657416282"><ele>670.0</ele><time>2026-03-24T11:26:15.945Z</time></trkpt><trkpt lat="30.225484641394754" lon="-5.541325543023491"><ele>670.0</ele><time>2026-03-24T11:26:16.945Z</time></trkpt><trkpt lat="30.22558369789531" lon="-5.5412590408370175"><ele>670.0</ele><time>2026-03-24T11:26:17.945Z</time></trkpt><trkpt lat="30.22568541987601" lon="-5.541206601264333"><ele>670.0</ele><time>2026-03-24T11:26:18.945Z</time></trkpt><trkpt lat="30.22579626512102" lon="-5.541187795778365"><ele>670.0</ele><time>2026-03-24T11:26:19.945Z</time></trkpt><trkpt lat="30.22589892190207" lon="-5.541190609488298"><ele>670.4</ele><time>2026-03-24T11:26:20.945Z</time></trkpt><trkpt lat="30.22599197721031" lon="-5.541191154690596"><ele>670.8</ele><time>2026-03-24T11:26:21.944Z</time></trkpt><trkpt lat="30.226081847112766" lon="-5.541206906283736"><ele>671.2</ele><time>2026-03-24T11:26:22.944Z</time></trkpt><trkpt lat="30.226184346581235" lon="-5.541208421413098"><ele>671.6</ele><time>2026-03-24T11:26:23.945Z</time></trkpt><trkpt lat="30.226295628518745" lon="-5.541178519788698"><ele>672.0</ele><time>2026-03-24T11:26:24.945Z</time></trkpt><trkpt lat="30.22641933063973" lon="-5.541144040666773"><ele>672.0</ele><time>2026-03-24T11:26:25.945Z</time></trkpt><trkpt lat="30.22655427022891" lon="-5.541104105769359"><ele>672.0</ele><time>2026-03-24T11:26:26.945Z</time></trkpt><trkpt lat="30.22669841006788" lon="-5.541059017788542"><ele>672.0</ele><time>2026-03-24T11:26:27.944Z</time></trkpt><trkpt lat="30.22684282806155" lon="-5.541011205921081"><ele>672.0</ele><time>2026-03-24T11:26:28.944Z</time></trkpt><trkpt lat="30.226965016753876" lon="-5.540959472905618"><ele>672.0</ele><time>2026-03-24T11:26:29.945Z</time></trkpt><trkpt lat="30.227091223849012" lon="-5.540903858594709"><ele>672.0</ele><time>2026-03-24T11:26:30.944Z</time></trkpt><trkpt lat="30.227230816307944" lon="-5.540849393297406"><ele>672.0</ele><time>2026-03-24T11:26:31.944Z</time></trkpt><trkpt lat="30.22736827835112" lon="-5.5408046687061505"><ele>672.0</ele><time>2026-03-24T11:26:32.944Z</time></trkpt><trkpt lat="30.22750351982397" lon="-5.540743943824171"><ele>672.0</ele><time>2026-03-24T11:26:33.945Z</time></trkpt><trkpt lat="30.227643681606942" lon="-5.540691145052712"><ele>672.0</ele><time>2026-03-24T11:26:34.945Z</time></trkpt><trkpt lat="30.227780021083188" lon="-5.540654016557789"><ele>672.0</ele><time>2026-03-24T11:26:35.945Z</time></trkpt><trkpt lat="30.2279074722918" lon="-5.540606394461594"><ele>672.0</ele><time>2026-03-24T11:26:36.944Z</time></trkpt><trkpt lat="30.228029374131644" lon="-5.540539368834084"><ele>672.0</ele><time>2026-03-24T11:26:37.944Z</time></trkpt><trkpt lat="30.22815556004184" lon="-5.540460022222627"><ele>672.0</ele><time>2026-03-24T11:26:38.944Z</time></trkpt><trkpt lat="30.228279486376067" lon="-5.540379231258488"><ele>672.0</ele><time>2026-03-24T11:26:39.944Z</time></trkpt><trkpt lat="30.22839285090598" lon="-5.540305086748875"><ele>672.0</ele><time>2026-03-24T11:26:40.944Z</time></trkpt><trkpt lat="30.228495983929704" lon="-5.540234645120704"><ele>672.0</ele><time>2026-03-24T11:26:41.944Z</time></trkpt><trkpt lat="30.228604367258004" lon="-5.540164917591981"><ele>672.0</ele><time>2026-03-24T11:26:42.944Z</time></trkpt><trkpt lat="30.228710240302735" lon="-5.540089410811186"><ele>672.0</ele><time>2026-03-24T11:26:43.944Z</time></trkpt><trkpt lat="30.22882343328251" lon="-5.540010999771927"><ele>672.0</ele><time>2026-03-24T11:26:44.944Z</time></trkpt><trkpt lat="30.22893974491277" lon="-5.539937273658389"><ele>672.5</ele><time>2026-03-24T11:26:45.944Z</time></trkpt><trkpt lat="30.2290521642005" lon="-5.539860198097933"><ele>673.0</ele><time>2026-03-24T11:26:46.944Z</time></trkpt><trkpt lat="30.229172831758817" lon="-5.539778616278247"><ele>673.5</ele><time>2026-03-24T11:26:47.944Z</time></trkpt><trkpt lat="30.22929346842591" lon="-5.539695041676997"><ele>674.0</ele><time>2026-03-24T11:26:48.944Z</time></trkpt><trkpt lat="30.22940989510397" lon="-5.539611402681626"><ele>674.0</ele><time>2026-03-24T11:26:49.944Z</time></trkpt><trkpt lat="30.22954289264556" lon="-5.539543241419547"><ele>674.0</ele><time>2026-03-24T11:26:50.944Z</time></trkpt><trkpt lat="30.2296700159581" lon="-5.539490861262896"><ele>674.0</ele><time>2026-03-24T11:26:51.944Z</time></trkpt><trkpt lat="30.229787791394337" lon="-5.53942021422411"><ele>674.0</ele><time>2026-03-24T11:26:52.944Z</time></trkpt><trkpt lat="30.22991210369047" lon="-5.53933672815796"><ele>674.25</ele><time>2026-03-24T11:26:53.944Z</time></trkpt><trkpt lat="30.23004140711528" lon="-5.539265065679086"><ele>674.5</ele><time>2026-03-24T11:26:54.944Z</time></trkpt><trkpt lat="30.230154157848265" lon="-5.539188095061065"><ele>674.75</ele><time>2026-03-24T11:26:55.944Z</time></trkpt><trkpt lat="30.23025418695883" lon="-5.539117712777626"><ele>675.0</ele><time>2026-03-24T11:26:56.944Z</time></trkpt><trkpt lat="30.230350402976246" lon="-5.5390443058150645"><ele>675.0</ele><time>2026-03-24T11:26:57.944Z</time></trkpt><trkpt lat="30.230449270107336" lon="-5.538966201159431"><ele>675.0</ele><time>2026-03-24T11:26:58.944Z</time></trkpt><trkpt lat="30.23055409266383" lon="-5.538880960498676"><ele>675.0</ele><time>2026-03-24T11:26:59.944Z</time></trkpt><trkpt lat="30.230661656333247" lon="-5.538789646347398"><ele>675.0</ele><time>2026-03-24T11:27:00.944Z</time></trkpt><trkpt lat="30.23077408067252" lon="-5.538679455426086"><ele>675.75</ele><time>2026-03-24T11:27:01.944Z</time></trkpt><trkpt lat="30.230878578894444" lon="-5.538572060160016"><ele>676.5</ele><time>2026-03-24T11:27:02.944Z</time></trkpt><trkpt lat="30.230972745041885" lon="-5.538467859328888"><ele>677.25</ele><time>2026-03-24T11:27:03.944Z</time></trkpt><trkpt lat="30.231064583787234" lon="-5.5383501914550175"><ele>678.0</ele><time>2026-03-24T11:27:04.944Z</time></trkpt><trkpt lat="30.231165762338033" lon="-5.538241407298107"><ele>678.0</ele><time>2026-03-24T11:27:05.944Z</time></trkpt><trkpt lat="30.23127113160782" lon="-5.538145599594645"><ele>678.0</ele><time>2026-03-24T11:27:06.944Z</time></trkpt><trkpt lat="30.2313697650081" lon="-5.538049195243456"><ele>678.0</ele><time>2026-03-24T11:27:07.944Z</time></trkpt><trkpt lat="30.23145560169547" lon="-5.5379558682807275"><ele>678.0</ele><time>2026-03-24T11:27:08.944Z</time></trkpt><trkpt lat="30.23154029929593" lon="-5.537862083215239"><ele>677.5</ele><time>2026-03-24T11:27:09.944Z</time></trkpt><trkpt lat="30.23163021570369" lon="-5.537754243011794"><ele>677.0</ele><time>2026-03-24T11:27:10.944Z</time></trkpt><trkpt lat="30.231714025702857" lon="-5.537630665955339"><ele>676.5</ele><time>2026-03-24T11:27:11.944Z</time></trkpt><trkpt lat="30.231795520405107" lon="-5.537502730396396"><ele>676.0</ele><time>2026-03-24T11:27:12.944Z</time></trkpt><trkpt lat="30.23187588163057" lon="-5.537395212775624"><ele>676.0</ele><time>2026-03-24T11:27:13.944Z</time></trkpt><trkpt lat="30.231943372103984" lon="-5.537317686997613"><ele>676.0</ele><time>2026-03-24T11:27:14.944Z</time></trkpt><trkpt lat="30.232004182148394" lon="-5.53725263274938"><ele>676.0</ele><time>2026-03-24T11:27:15.944Z</time></trkpt><trkpt lat="30.23206460272668" lon="-5.537188069745578"><ele>676.0</ele><time>2026-03-24T11:27:16.944Z</time></trkpt><trkpt lat="30.23212172067709" lon="-5.537122412483191"><ele>676.0</ele><time>2026-03-24T11:27:17.944Z</time></trkpt><trkpt lat="30.232181784728983" lon="-5.537042184597323"><ele>676.0</ele><time>2026-03-24T11:27:18.944Z</time></trkpt><trkpt lat="30.23226436799202" lon="-5.536951045185113"><ele>676.5</ele><time>2026-03-24T11:27:19.944Z</time></trkpt><trkpt lat="30.232352829264588" lon="-5.536855884566345"><ele>677.0</ele><time>2026-03-24T11:27:20.944Z</time></trkpt><trkpt lat="30.232436634766273" lon="-5.536750221204092"><ele>677.5</ele><time>2026-03-24T11:27:21.944Z</time></trkpt><trkpt lat="30.23253146800813" lon="-5.5366413362993745"><ele>678.0</ele><time>2026-03-24T11:27:22.944Z</time></trkpt><trkpt lat="30.232632669773416" lon="-5.536530283508992"><ele>678.0</ele><time>2026-03-24T11:27:23.944Z</time></trkpt><trkpt lat="30.232732381467482" lon="-5.536418076590289"><ele>678.0</ele><time>2026-03-24T11:27:24.944Z</time></trkpt><trkpt lat="30.232841676233768" lon="-5.536310315824147"><ele>678.0</ele><time>2026-03-24T11:27:25.944Z</time></trkpt><trkpt lat="30.232952877996645" lon="-5.536211846656528"><ele>678.0</ele><time>2026-03-24T11:27:26.944Z</time></trkpt><trkpt lat="30.233063557339413" lon="-5.536115263675118"><ele>677.75</ele><time>2026-03-24T11:27:27.944Z</time></trkpt><trkpt lat="30.233172774640078" lon="-5.536007260462937"><ele>677.5</ele><time>2026-03-24T11:27:28.944Z</time></trkpt><trkpt lat="30.233284323735454" lon="-5.535900929923065"><ele>677.25</ele><time>2026-03-24T11:27:29.944Z</time></trkpt><trkpt lat="30.23339022106611" lon="-5.535800209761142"><ele>677.0</ele><time>2026-03-24T11:27:30.944Z</time></trkpt><trkpt lat="30.23348727617507" lon="-5.535713016782565"><ele>677.0</ele><time>2026-03-24T11:27:31.944Z</time></trkpt><trkpt lat="30.233579644295293" lon="-5.535628141313177"><ele>677.0</ele><time>2026-03-24T11:27:32.944Z</time></trkpt><trkpt lat="30.233664410977077" lon="-5.5355485448617205"><ele>677.0</ele><time>2026-03-24T11:27:33.944Z</time></trkpt><trkpt lat="30.23375836628238" lon="-5.535476651933281"><ele>677.0</ele><time>2026-03-24T11:27:34.944Z</time></trkpt><trkpt lat="30.233855558582853" lon="-5.535419175310257"><ele>677.0</ele><time>2026-03-24T11:27:35.944Z</time></trkpt><trkpt lat="30.23395358261822" lon="-5.535371465801721"><ele>677.0</ele><time>2026-03-24T11:27:36.944Z</time></trkpt><trkpt lat="30.234058671808608" lon="-5.535331035995923"><ele>677.0</ele><time>2026-03-24T11:27:37.944Z</time></trkpt><trkpt lat="30.234179257095455" lon="-5.535303439237611"><ele>677.0</ele><time>2026-03-24T11:27:38.944Z</time></trkpt><trkpt lat="30.234299966921693" lon="-5.535274106875632"><ele>677.0</ele><time>2026-03-24T11:27:39.944Z</time></trkpt><trkpt lat="30.234417109341752" lon="-5.53523735522461"><ele>677.0</ele><time>2026-03-24T11:27:40.944Z</time></trkpt><trkpt lat="30.234527985722266" lon="-5.535202081387595"><ele>677.0</ele><time>2026-03-24T11:27:41.944Z</time></trkpt><trkpt lat="30.234627764600457" lon="-5.535159642226131"><ele>677.0</ele><time>2026-03-24T11:27:42.944Z</time></trkpt><trkpt lat="30.23472933578309" lon="-5.535125084395142"><ele>677.0</ele><time>2026-03-24T11:27:43.944Z</time></trkpt><trkpt lat="30.23484204341185" lon="-5.53508749507148"><ele>677.0</ele><time>2026-03-24T11:27:44.944Z</time></trkpt><trkpt lat="30.234945068205768" lon="-5.53505224450329"><ele>677.0</ele><time>2026-03-24T11:27:45.944Z</time></trkpt><trkpt lat="30.23503957482026" lon="-5.535011359229879"><ele>677.0</ele><time>2026-03-24T11:27:46.944Z</time></trkpt><trkpt lat="30.235143136639564" lon="-5.534960569138534"><ele>677.0</ele><time>2026-03-24T11:27:47.944Z</time></trkpt><trkpt lat="30.23524948158543" lon="-5.534917418687962"><ele>677.0</ele><time>2026-03-24T11:27:48.944Z</time></trkpt><trkpt lat="30.235356882533765" lon="-5.534871738867969"><ele>677.0</ele><time>2026-03-24T11:27:49.944Z</time></trkpt><trkpt lat="30.235468630090885" lon="-5.5348313076866775"><ele>677.0</ele><time>2026-03-24T11:27:50.944Z</time></trkpt><trkpt lat="30.235570777033082" lon="-5.534790101244832"><ele>677.0</ele><time>2026-03-24T11:27:51.944Z</time></trkpt><trkpt lat="30.2356706795673" lon="-5.534740995023911"><ele>677.0</ele><time>2026-03-24T11:27:52.944Z</time></trkpt><trkpt lat="30.23577238246676" lon="-5.534704153328528"><ele>677.0</ele><time>2026-03-24T11:27:53.944Z</time></trkpt><trkpt lat="30.235870897350903" lon="-5.534682380424382"><ele>677.0</ele><time>2026-03-24T11:27:54.944Z</time></trkpt><trkpt lat="30.235967382562592" lon="-5.5346836335423655"><ele>677.6</ele><time>2026-03-24T11:27:55.944Z</time></trkpt><trkpt lat="30.236058474890083" lon="-5.534676874729263"><ele>678.2</ele><time>2026-03-24T11:27:56.944Z</time></trkpt><trkpt lat="30.236136059292544" lon="-5.5346528547593765"><ele>678.8</ele><time>2026-03-24T11:27:57.944Z</time></trkpt><trkpt lat="30.236218936073588" lon="-5.53463728802989"><ele>679.4</ele><time>2026-03-24T11:27:58.944Z</time></trkpt><trkpt lat="30.23632023160836" lon="-5.534636348211042"><ele>680.0</ele><time>2026-03-24T11:27:59.944Z</time></trkpt><trkpt lat="30.236435077036237" lon="-5.53464587850467"><ele>680.25</ele><time>2026-03-24T11:28:00.944Z</time></trkpt><trkpt lat="30.236570227902245" lon="-5.534652650277758"><ele>680.5</ele><time>2026-03-24T11:28:01.944Z</time></trkpt><trkpt lat="30.23671022879441" lon="-5.534640974906339"><ele>680.75</ele><time>2026-03-24T11:28:02.944Z</time></trkpt><trkpt lat="30.236852732457542" lon="-5.53462464982222"><ele>681.0</ele><time>2026-03-24T11:28:03.944Z</time></trkpt><trkpt lat="30.236968376736485" lon="-5.5346103386225405"><ele>681.0</ele><time>2026-03-24T11:28:04.944Z</time></trkpt><trkpt lat="30.237080474897393" lon="-5.5345938422243135"><ele>681.0</ele><time>2026-03-24T11:28:05.944Z</time></trkpt><trkpt lat="30.237194830189885" lon="-5.534569459755393"><ele>681.0</ele><time>2026-03-24T11:28:06.944Z</time></trkpt><trkpt lat="30.237313954138372" lon="-5.534545509249642"><ele>681.0</ele><time>2026-03-24T11:28:07.944Z</time></trkpt><trkpt lat="30.23741974236975" lon="-5.534518064623636"><ele>681.25</ele><time>2026-03-24T11:28:08.944Z</time></trkpt><trkpt lat="30.237527622050965" lon="-5.53449109585719"><ele>681.5</ele><time>2026-03-24T11:28:09.944Z</time></trkpt><trkpt lat="30.23763691601625" lon="-5.534475068982856"><ele>681.75</ele><time>2026-03-24T11:28:10.944Z</time></trkpt><trkpt lat="30.237754475820562" lon="-5.534459697472165"><ele>682.0</ele><time>2026-03-24T11:28:11.944Z</time></trkpt><trkpt lat="30.23787513790558" lon="-5.534425050509809"><ele>682.0</ele><time>2026-03-24T11:28:12.944Z</time></trkpt><trkpt lat="30.237982628645284" lon="-5.534394949919918"><ele>682.0</ele><time>2026-03-24T11:28:13.944Z</time></trkpt><trkpt lat="30.2380830600231" lon="-5.534377327683225"><ele>682.0</ele><time>2026-03-24T11:28:14.944Z</time></trkpt><trkpt lat="30.238173284709436" lon="-5.534371627084406"><ele>682.0</ele><time>2026-03-24T11:28:15.944Z</time></trkpt><trkpt lat="30.23827188639879" lon="-5.534364954300377"><ele>682.0</ele><time>2026-03-24T11:28:16.944Z</time></trkpt><trkpt lat="30.23836156778546" lon="-5.534340239522656"><ele>681.6666666666667</ele><time>2026-03-24T11:28:17.944Z</time></trkpt><trkpt lat="30.238441392382278" lon="-5.534311732881566"><ele>681.3333333333334</ele><time>2026-03-24T11:28:18.944Z</time></trkpt><trkpt lat="30.238520780735243" lon="-5.534278514366126"><ele>681.0</ele><time>2026-03-24T11:28:19.944Z</time></trkpt><trkpt lat="30.238602584355057" lon="-5.534249073318806"><ele>680.6666666666666</ele><time>2026-03-24T11:28:20.944Z</time></trkpt><trkpt lat="30.238680672937043" lon="-5.534200479401273"><ele>680.3333333333333</ele><time>2026-03-24T11:28:21.944Z</time></trkpt><trkpt lat="30.238747571921614" lon="-5.534148568275796"><ele>680.0</ele><time>2026-03-24T11:28:22.944Z</time></trkpt><trkpt lat="30.238825940610567" lon="-5.534141799806659"><ele>680.0</ele><time>2026-03-24T11:28:23.944Z</time></trkpt><trkpt lat="30.238910710570035" lon="-5.5341535473756025"><ele>680.0</ele><time>2026-03-24T11:28:24.944Z</time></trkpt><trkpt lat="30.239016175695927" lon="-5.534161905550808"><ele>680.0</ele><time>2026-03-24T11:28:25.944Z</time></trkpt><trkpt lat="30.239123865123947" lon="-5.5341515110144615"><ele>680.0</ele><time>2026-03-24T11:28:26.944Z</time></trkpt><trkpt lat="30.239225622476354" lon="-5.53413832747878"><ele>680.0</ele><time>2026-03-24T11:28:27.944Z</time></trkpt><trkpt lat="30.239322633032135" lon="-5.5341152496204185"><ele>679.75</ele><time>2026-03-24T11:28:28.944Z</time></trkpt><trkpt lat="30.239418364373172" lon="-5.534091149010418"><ele>679.5</ele><time>2026-03-24T11:28:29.944Z</time></trkpt><trkpt lat="30.23952905942477" lon="-5.534104939429248"><ele>679.25</ele><time>2026-03-24T11:28:30.944Z</time></trkpt><trkpt lat="30.239671843252804" lon="-5.534130108572241"><ele>679.0</ele><time>2026-03-24T11:28:31.944Z</time></trkpt><trkpt lat="30.23981005325148" lon="-5.534139542324472"><ele>679.6</ele><time>2026-03-24T11:28:32.944Z</time></trkpt><trkpt lat="30.239924536940777" lon="-5.534134257669508"><ele>680.2</ele><time>2026-03-24T11:28:33.943Z</time></trkpt><trkpt lat="30.24002517651908" lon="-5.534117642718241"><ele>680.8000000000001</ele><time>2026-03-24T11:28:34.943Z</time></trkpt><trkpt lat="30.240117855072434" lon="-5.534104056400145"><ele>681.4000000000001</ele><time>2026-03-24T11:28:35.944Z</time></trkpt><trkpt lat="30.24020562163287" lon="-5.5341152122936395"><ele>682.0</ele><time>2026-03-24T11:28:36.944Z</time></trkpt><trkpt lat="30.24029512724311" lon="-5.5341244567714485"><ele>682.0</ele><time>2026-03-24T11:28:37.944Z</time></trkpt><trkpt lat="30.240376166012" lon="-5.534109359541625"><ele>682.0</ele><time>2026-03-24T11:28:38.944Z</time></trkpt><trkpt lat="30.240454907874167" lon="-5.534075243874865"><ele>682.0</ele><time>2026-03-24T11:28:39.943Z</time></trkpt><trkpt lat="30.24055577446722" lon="-5.534041981008141"><ele>682.0</ele><time>2026-03-24T11:28:40.943Z</time></trkpt><trkpt lat="30.24065533056736" lon="-5.53402588340105"><ele>682.0</ele><time>2026-03-24T11:28:41.943Z</time></trkpt><trkpt lat="30.24075640742024" lon="-5.534009435143291"><ele>682.0</ele><time>2026-03-24T11:28:42.943Z</time></trkpt><trkpt lat="30.2408561239358" lon="-5.533993483363716"><ele>682.0</ele><time>2026-03-24T11:28:43.943Z</time></trkpt><trkpt lat="30.240959496453527" lon="-5.533978974181354"><ele>682.0</ele><time>2026-03-24T11:28:44.943Z</time></trkpt><trkpt lat="30.241066141430423" lon="-5.5339586992135965"><ele>682.0</ele><time>2026-03-24T11:28:45.943Z</time></trkpt><trkpt lat="30.241157630032703" lon="-5.533940881486305"><ele>682.0</ele><time>2026-03-24T11:28:46.943Z</time></trkpt><trkpt lat="30.24123792755117" lon="-5.533915897883527"><ele>682.0</ele><time>2026-03-24T11:28:47.943Z</time></trkpt><trkpt lat="30.24131991298924" lon="-5.533888567724281"><ele>682.0</ele><time>2026-03-24T11:28:48.943Z</time></trkpt><trkpt lat="30.241401724975926" lon="-5.533882767393836"><ele>682.0</ele><time>2026-03-24T11:28:49.943Z</time></trkpt><trkpt lat="30.241468052251626" lon="-5.533902634987361"><ele>682.0</ele><time>2026-03-24T11:28:50.943Z</time></trkpt><trkpt lat="30.241585117228887" lon="-5.533958041595944"><ele>682.0</ele><time>2026-03-24T11:28:52.943Z</time></trkpt><trkpt lat="30.241653608056517" lon="-5.533984276743056"><ele>682.0</ele><time>2026-03-24T11:28:53.943Z</time></trkpt><trkpt lat="30.241720947057097" lon="-5.533998704281453"><ele>682.0</ele><time>2026-03-24T11:28:54.943Z</time></trkpt><trkpt lat="30.241781427813823" lon="-5.534028299177165"><ele>682.0</ele><time>2026-03-24T11:28:55.943Z</time></trkpt><trkpt lat="30.241847936856256" lon="-5.5341248296691345"><ele>682.0</ele><time>2026-03-24T11:28:57.943Z</time></trkpt><trkpt lat="30.241866648295726" lon="-5.5342038663263535"><ele>682.0</ele><time>2026-03-24T11:28:58.943Z</time></trkpt><trkpt lat="30.24188564433492" lon="-5.534298785170218"><ele>682.0</ele><time>2026-03-24T11:28:59.943Z</time></trkpt><trkpt lat="30.24189967668973" lon="-5.534395305959204"><ele>682.0</ele><time>2026-03-24T11:29:00.943Z</time></trkpt><trkpt lat="30.241916235641096" lon="-5.534493102842156"><ele>681.6666666666667</ele><time>2026-03-24T11:29:01.943Z</time></trkpt><trkpt lat="30.241930218123247" lon="-5.534596016254719"><ele>681.3333333333334</ele><time>2026-03-24T11:29:03.943Z</time></trkpt><trkpt lat="30.24192548548898" lon="-5.53468206897331"><ele>681.0</ele><time>2026-03-24T11:29:50.943Z</time></trkpt><trkpt lat="30.241933206907586" lon="-5.53481091413041"><ele>680.6666666666666</ele><time>2026-03-24T11:29:52.943Z</time></trkpt><trkpt lat="30.24193725890203" lon="-5.5348954276811915"><ele>680.3333333333333</ele><time>2026-03-24T11:29:53.943Z</time></trkpt><trkpt lat="30.24194676136099" lon="-5.534981017543144"><ele>680.0</ele><time>2026-03-24T11:29:54.943Z</time></trkpt><trkpt lat="30.241955194876507" lon="-5.535055086593105"><ele>680.0</ele><time>2026-03-24T11:29:55.943Z</time></trkpt><trkpt lat="30.241970855969722" lon="-5.535135611300282"><ele>680.0</ele><time>2026-03-24T11:29:56.943Z</time></trkpt><trkpt lat="30.241998942375233" lon="-5.535201520864908"><ele>680.0</ele><time>2026-03-24T11:29:57.943Z</time></trkpt><trkpt lat="30.242043210767264" lon="-5.535261619937923"><ele>680.0</ele><time>2026-03-24T11:29:58.943Z</time></trkpt><trkpt lat="30.24209915161774" lon="-5.535305471130474"><ele>680.0</ele><time>2026-03-24T11:29:59.943Z</time></trkpt><trkpt lat="30.242166314245296" lon="-5.53534413315681"><ele>680.0</ele><time>2026-03-24T11:30:00.943Z</time></trkpt><trkpt lat="30.242244790203202" lon="-5.53537847771262"><ele>680.0</ele><time>2026-03-24T11:30:01.943Z</time></trkpt><trkpt lat="30.24231456485892" lon="-5.535423583694661"><ele>680.5</ele><time>2026-03-24T11:30:02.943Z</time></trkpt><trkpt lat="30.242377534057105" lon="-5.53548279838384"><ele>681.0</ele><time>2026-03-24T11:30:03.943Z</time></trkpt><trkpt lat="30.242450269617294" lon="-5.535547241601802"><ele>681.5</ele><time>2026-03-24T11:30:04.943Z</time></trkpt><trkpt lat="30.242519216015413" lon="-5.535598659901848"><ele>682.0</ele><time>2026-03-24T11:30:05.943Z</time></trkpt><trkpt lat="30.242584608040396" lon="-5.535648597938295"><ele>682.5</ele><time>2026-03-24T11:30:06.943Z</time></trkpt><trkpt lat="30.242648704905584" lon="-5.535695201732251"><ele>683.0</ele><time>2026-03-24T11:30:07.943Z</time></trkpt><trkpt lat="30.242745834863523" lon="-5.535728244178918"><ele>683.0</ele><time>2026-03-24T11:30:09.943Z</time></trkpt><trkpt lat="30.24276122965263" lon="-5.535804908121791"><ele>683.0</ele><time>2026-03-24T11:30:13.943Z</time></trkpt><trkpt lat="30.242671965891887" lon="-5.535873181940763"><ele>683.0</ele><time>2026-03-24T11:30:15.943Z</time></trkpt><trkpt lat="30.24258014158758" lon="-5.53596564144505"><ele>683.0</ele><time>2026-03-24T11:30:17.943Z</time></trkpt><trkpt lat="30.242481402103582" lon="-5.53607706233419"><ele>683.0</ele><time>2026-03-24T11:30:19.943Z</time></trkpt><trkpt lat="30.242437729104477" lon="-5.536153663135903"><ele>683.2</ele><time>2026-03-24T11:30:20.943Z</time></trkpt><trkpt lat="30.242396157060934" lon="-5.536247404571417"><ele>683.4</ele><time>2026-03-24T11:30:21.943Z</time></trkpt><trkpt lat="30.242372935457723" lon="-5.536359158865193"><ele>683.6</ele><time>2026-03-24T11:30:22.943Z</time></trkpt><trkpt lat="30.242363921234308" lon="-5.536483534390872"><ele>683.8000000000001</ele><time>2026-03-24T11:30:23.943Z</time></trkpt><trkpt lat="30.242368434445577" lon="-5.536605840592284"><ele>684.0</ele><time>2026-03-24T11:30:24.943Z</time></trkpt><trkpt lat="30.242362723055237" lon="-5.536723067510472"><ele>684.0</ele><time>2026-03-24T11:30:25.943Z</time></trkpt><trkpt lat="30.24232993101265" lon="-5.5368389530478295"><ele>684.0</ele><time>2026-03-24T11:30:26.943Z</time></trkpt><trkpt lat="30.242268264428084" lon="-5.5369514279587175"><ele>684.0</ele><time>2026-03-24T11:30:27.943Z</time></trkpt><trkpt lat="30.242185019360594" lon="-5.53704489168847"><ele>684.0</ele><time>2026-03-24T11:30:28.943Z</time></trkpt><trkpt lat="30.24208901675469" lon="-5.53710360980969"><ele>684.0</ele><time>2026-03-24T11:30:29.943Z</time></trkpt><trkpt lat="30.24197685080459" lon="-5.537164694563052"><ele>684.25</ele><time>2026-03-24T11:30:30.943Z</time></trkpt><trkpt lat="30.241859515730063" lon="-5.5372309982757715"><ele>684.5</ele><time>2026-03-24T11:30:31.943Z</time></trkpt><trkpt lat="30.24174357709566" lon="-5.537296092398036"><ele>684.75</ele><time>2026-03-24T11:30:32.944Z</time></trkpt><trkpt lat="30.241620035036565" lon="-5.537365215983369"><ele>685.0</ele><time>2026-03-24T11:30:33.943Z</time></trkpt><trkpt lat="30.2414981770085" lon="-5.537433274997795"><ele>684.0</ele><time>2026-03-24T11:30:34.943Z</time></trkpt><trkpt lat="30.241382793231725" lon="-5.537507594042342"><ele>683.0</ele><time>2026-03-24T11:30:35.943Z</time></trkpt><trkpt lat="30.241269766503432" lon="-5.537575496493321"><ele>682.0</ele><time>2026-03-24T11:30:36.944Z</time></trkpt><trkpt lat="30.241160158154987" lon="-5.537641637518957"><ele>681.0</ele><time>2026-03-24T11:30:37.944Z</time></trkpt><trkpt lat="30.241060604375523" lon="-5.5377058498800125"><ele>681.0</ele><time>2026-03-24T11:30:38.944Z</time></trkpt><trkpt lat="30.240966518541903" lon="-5.537768907320745"><ele>681.0</ele><time>2026-03-24T11:30:39.943Z</time></trkpt><trkpt lat="30.24087152340558" lon="-5.537830672261622"><ele>681.0</ele><time>2026-03-24T11:30:40.943Z</time></trkpt><trkpt lat="30.240752803592613" lon="-5.537883883313374"><ele>681.0</ele><time>2026-03-24T11:30:41.944Z</time></trkpt><trkpt lat="30.240627631740484" lon="-5.53793715253718"><ele>681.5</ele><time>2026-03-24T11:30:42.943Z</time></trkpt><trkpt lat="30.24049412843879" lon="-5.537986469546116"><ele>682.0</ele><time>2026-03-24T11:30:43.943Z</time></trkpt><trkpt lat="30.240370682865873" lon="-5.538042578818332"><ele>682.5</ele><time>2026-03-24T11:30:44.943Z</time></trkpt><trkpt lat="30.24025214736174" lon="-5.538102956615107"><ele>683.0</ele><time>2026-03-24T11:30:45.943Z</time></trkpt><trkpt lat="30.240131556136415" lon="-5.538166136335772"><ele>683.0</ele><time>2026-03-24T11:30:46.943Z</time></trkpt><trkpt lat="30.240013470844367" lon="-5.538239533297956"><ele>683.0</ele><time>2026-03-24T11:30:47.943Z</time></trkpt><trkpt lat="30.239887538553305" lon="-5.538316638297325"><ele>683.0</ele><time>2026-03-24T11:30:48.943Z</time></trkpt><trkpt lat="30.239760292050942" lon="-5.538392980590072"><ele>683.0</ele><time>2026-03-24T11:30:49.943Z</time></trkpt><trkpt lat="30.239630829600625" lon="-5.538476035573358"><ele>683.25</ele><time>2026-03-24T11:30:50.943Z</time></trkpt><trkpt lat="30.23950012834556" lon="-5.538561037424645"><ele>683.5</ele><time>2026-03-24T11:30:51.943Z</time></trkpt><trkpt lat="30.239368512794478" lon="-5.538641883132493"><ele>683.75</ele><time>2026-03-24T11:30:52.943Z</time></trkpt><trkpt lat="30.23923762120717" lon="-5.53872212420027"><ele>684.0</ele><time>2026-03-24T11:30:53.943Z</time></trkpt><trkpt lat="30.239105183706364" lon="-5.538801671088519"><ele>684.0</ele><time>2026-03-24T11:30:54.943Z</time></trkpt><trkpt lat="30.23897839918267" lon="-5.538878050114904"><ele>684.0</ele><time>2026-03-24T11:30:55.943Z</time></trkpt><trkpt lat="30.238842591801347" lon="-5.538960508948804"><ele>684.0</ele><time>2026-03-24T11:30:56.943Z</time></trkpt><trkpt lat="30.2387077562289" lon="-5.539035033608807"><ele>684.0</ele><time>2026-03-24T11:30:57.943Z</time></trkpt><trkpt lat="30.23856210494304" lon="-5.53909488427584"><ele>682.6666666666666</ele><time>2026-03-24T11:30:58.943Z</time></trkpt><trkpt lat="30.23841354903956" lon="-5.539156463144945"><ele>681.3333333333333</ele><time>2026-03-24T11:30:59.943Z</time></trkpt><trkpt lat="30.23825764480709" lon="-5.539242634787439"><ele>680.0</ele><time>2026-03-24T11:31:00.943Z</time></trkpt><trkpt lat="30.238103690062992" lon="-5.539335110110785"><ele>680.0</ele><time>2026-03-24T11:31:01.943Z</time></trkpt><trkpt lat="30.237947329278647" lon="-5.539422833991951"><ele>680.0</ele><time>2026-03-24T11:31:02.943Z</time></trkpt><trkpt lat="30.23778985326636" lon="-5.539500387054069"><ele>680.0</ele><time>2026-03-24T11:31:03.943Z</time></trkpt><trkpt lat="30.237628134091057" lon="-5.539579641490908"><ele>679.3333333333333</ele><time>2026-03-24T11:31:04.943Z</time></trkpt><trkpt lat="30.23746610547918" lon="-5.5396550083451634"><ele>678.6666666666666</ele><time>2026-03-24T11:31:05.943Z</time></trkpt><trkpt lat="30.23730247071368" lon="-5.539725372931821"><ele>678.0</ele><time>2026-03-24T11:31:06.943Z</time></trkpt><trkpt lat="30.237136707045703" lon="-5.539800494686106"><ele>677.6666666666666</ele><time>2026-03-24T11:31:07.943Z</time></trkpt><trkpt lat="30.236976471816632" lon="-5.539880488116042"><ele>677.3333333333333</ele><time>2026-03-24T11:31:08.943Z</time></trkpt><trkpt lat="30.23681627288233" lon="-5.539957965097905"><ele>677.0</ele><time>2026-03-24T11:31:09.943Z</time></trkpt><trkpt lat="30.23665387781678" lon="-5.540035206341866"><ele>677.0</ele><time>2026-03-24T11:31:10.943Z</time></trkpt><trkpt lat="30.23649128922146" lon="-5.540119471198473"><ele>677.0</ele><time>2026-03-24T11:31:11.943Z</time></trkpt><trkpt lat="30.236329782003345" lon="-5.540202301807266"><ele>677.0</ele><time>2026-03-24T11:31:12.943Z</time></trkpt><trkpt lat="30.236171299413495" lon="-5.540281509460523"><ele>677.0</ele><time>2026-03-24T11:31:13.943Z</time></trkpt><trkpt lat="30.236012386620093" lon="-5.540362507401497"><ele>677.0</ele><time>2026-03-24T11:31:14.943Z</time></trkpt><trkpt lat="30.23585381245051" lon="-5.5404445015262285"><ele>677.0</ele><time>2026-03-24T11:31:15.943Z</time></trkpt><trkpt lat="30.23569273944321" lon="-5.540522845255422"><ele>677.3333333333333</ele><time>2026-03-24T11:31:16.943Z</time></trkpt><trkpt lat="30.235540585146378" lon="-5.540590126792154"><ele>677.6666666666666</ele><time>2026-03-24T11:31:17.943Z</time></trkpt><trkpt lat="30.23538699457187" lon="-5.540651654451486"><ele>678.0</ele><time>2026-03-24T11:31:18.943Z</time></trkpt><trkpt lat="30.235235542642318" lon="-5.540694996419097"><ele>678.0</ele><time>2026-03-24T11:31:19.943Z</time></trkpt><trkpt lat="30.235074053346747" lon="-5.5407481815704225"><ele>678.0</ele><time>2026-03-24T11:31:20.943Z</time></trkpt><trkpt lat="30.234916958204774" lon="-5.540816418738215"><ele>678.0</ele><time>2026-03-24T11:31:21.943Z</time></trkpt><trkpt lat="30.234764650373076" lon="-5.540895662975148"><ele>677.6666666666666</ele><time>2026-03-24T11:31:22.943Z</time></trkpt><trkpt lat="30.23461925666386" lon="-5.540973100619453"><ele>677.3333333333333</ele><time>2026-03-24T11:31:23.943Z</time></trkpt><trkpt lat="30.234465845771858" lon="-5.541050303317859"><ele>677.0</ele><time>2026-03-24T11:31:24.943Z</time></trkpt><trkpt lat="30.234316130533987" lon="-5.54111511955411"><ele>677.0</ele><time>2026-03-24T11:31:25.943Z</time></trkpt><trkpt lat="30.234183807858283" lon="-5.541178222793259"><ele>677.0</ele><time>2026-03-24T11:31:26.943Z</time></trkpt><trkpt lat="30.234066907745405" lon="-5.54124566556783"><ele>677.0</ele><time>2026-03-24T11:31:27.943Z</time></trkpt><trkpt lat="30.233943771628546" lon="-5.541314034922967"><ele>677.0</ele><time>2026-03-24T11:31:28.943Z</time></trkpt><trkpt lat="30.233820280682227" lon="-5.5413831514925995"><ele>677.0</ele><time>2026-03-24T11:31:29.943Z</time></trkpt><trkpt lat="30.233682039801277" lon="-5.541450129004641"><ele>677.0</ele><time>2026-03-24T11:31:30.943Z</time></trkpt><trkpt lat="30.23355774852363" lon="-5.541513483213603"><ele>677.0</ele><time>2026-03-24T11:31:31.943Z</time></trkpt><trkpt lat="30.233421938218047" lon="-5.541573968987262"><ele>677.0</ele><time>2026-03-24T11:31:32.943Z</time></trkpt><trkpt lat="30.233270175379513" lon="-5.5416353345100315"><ele>676.6666666666666</ele><time>2026-03-24T11:31:33.943Z</time></trkpt><trkpt lat="30.233123662638178" lon="-5.5416917552775296"><ele>676.3333333333334</ele><time>2026-03-24T11:31:34.943Z</time></trkpt><trkpt lat="30.232977897336966" lon="-5.54175062611941"><ele>676.0</ele><time>2026-03-24T11:31:35.943Z</time></trkpt><trkpt lat="30.23284290945832" lon="-5.541807819347862"><ele>676.0</ele><time>2026-03-24T11:31:36.943Z</time></trkpt><trkpt lat="30.232708796514004" lon="-5.541853466843619"><ele>676.0</ele><time>2026-03-24T11:31:37.943Z</time></trkpt><trkpt lat="30.23257449506611" lon="-5.541900686433207"><ele>676.0</ele><time>2026-03-24T11:31:38.943Z</time></trkpt><trkpt lat="30.23245182832401" lon="-5.541961506390088"><ele>676.0</ele><time>2026-03-24T11:31:39.943Z</time></trkpt><trkpt lat="30.232326547269324" lon="-5.542040142997367"><ele>675.25</ele><time>2026-03-24T11:31:40.943Z</time></trkpt><trkpt lat="30.23220773709107" lon="-5.54210996368736"><ele>674.5</ele><time>2026-03-24T11:31:41.943Z</time></trkpt><trkpt lat="30.2320913860484" lon="-5.542191668216515"><ele>673.75</ele><time>2026-03-24T11:31:42.943Z</time></trkpt><trkpt lat="30.23199058339259" lon="-5.5422753872021255"><ele>673.0</ele><time>2026-03-24T11:31:43.943Z</time></trkpt><trkpt lat="30.231898262255424" lon="-5.542372004971562"><ele>673.0</ele><time>2026-03-24T11:31:44.943Z</time></trkpt><trkpt lat="30.231805020161836" lon="-5.542470998825969"><ele>673.0</ele><time>2026-03-24T11:31:45.943Z</time></trkpt><trkpt lat="30.231713043388805" lon="-5.542597063202487"><ele>673.0</ele><time>2026-03-24T11:31:46.943Z</time></trkpt><trkpt lat="30.23162525515868" lon="-5.542740547994414"><ele>673.0</ele><time>2026-03-24T11:31:47.943Z</time></trkpt><trkpt lat="30.231556879867505" lon="-5.542892106382948"><ele>673.3333333333334</ele><time>2026-03-24T11:31:48.943Z</time></trkpt><trkpt lat="30.231496597197715" lon="-5.54305639054595"><ele>673.6666666666666</ele><time>2026-03-24T11:31:49.943Z</time></trkpt><trkpt lat="30.231449466785968" lon="-5.543225541888008"><ele>674.0</ele><time>2026-03-24T11:31:50.943Z</time></trkpt><trkpt lat="30.231400460661735" lon="-5.543407018511236"><ele>674.0</ele><time>2026-03-24T11:31:51.943Z</time></trkpt><trkpt lat="30.23135622188386" lon="-5.543597469883851"><ele>674.0</ele><time>2026-03-24T11:31:52.943Z</time></trkpt><trkpt lat="30.231318664869185" lon="-5.543791327161457"><ele>674.0</ele><time>2026-03-24T11:31:53.943Z</time></trkpt><trkpt lat="30.231278939788204" lon="-5.543989470035929"><ele>674.3333333333333</ele><time>2026-03-24T11:31:54.943Z</time></trkpt><trkpt lat="30.231234961595675" lon="-5.544186803228854"><ele>674.6666666666666</ele><time>2026-03-24T11:31:55.943Z</time></trkpt><trkpt lat="30.231190970818083" lon="-5.5443865535338395"><ele>675.0</ele><time>2026-03-24T11:31:56.943Z</time></trkpt><trkpt lat="30.23115601545346" lon="-5.544579573862699"><ele>675.3333333333334</ele><time>2026-03-24T11:31:57.943Z</time></trkpt><trkpt lat="30.231151905039383" lon="-5.544755856655325"><ele>675.6666666666667</ele><time>2026-03-24T11:31:58.943Z</time></trkpt><trkpt lat="30.231173407835367" lon="-5.544943008055655"><ele>676.0</ele><time>2026-03-24T11:31:59.943Z</time></trkpt><trkpt lat="30.23121563943322" lon="-5.545137377315657"><ele>676.0</ele><time>2026-03-24T11:32:00.943Z</time></trkpt><trkpt lat="30.23124726497325" lon="-5.545331309601805"><ele>676.0</ele><time>2026-03-24T11:32:01.943Z</time></trkpt><trkpt lat="30.231277627841433" lon="-5.545520765367076"><ele>676.0</ele><time>2026-03-24T11:32:02.943Z</time></trkpt><trkpt lat="30.231305714499666" lon="-5.545719057557839"><ele>675.3333333333334</ele><time>2026-03-24T11:32:03.943Z</time></trkpt><trkpt lat="30.231336951367872" lon="-5.5459106547171615"><ele>674.6666666666666</ele><time>2026-03-24T11:32:04.943Z</time></trkpt><trkpt lat="30.23137256512695" lon="-5.546096970586467"><ele>674.0</ele><time>2026-03-24T11:32:05.943Z</time></trkpt><trkpt lat="30.231415143409823" lon="-5.546284225266954"><ele>673.6666666666666</ele><time>2026-03-24T11:32:06.943Z</time></trkpt><trkpt lat="30.231461756403792" lon="-5.5464636094711715"><ele>673.3333333333334</ele><time>2026-03-24T11:32:07.943Z</time></trkpt><trkpt lat="30.23151137207631" lon="-5.54663345966019"><ele>673.0</ele><time>2026-03-24T11:32:08.943Z</time></trkpt><trkpt lat="30.231564111334595" lon="-5.5467977260840025"><ele>672.3333333333334</ele><time>2026-03-24T11:32:09.943Z</time></trkpt><trkpt lat="30.23162838527566" lon="-5.546970425231226"><ele>671.6666666666666</ele><time>2026-03-24T11:32:10.943Z</time></trkpt><trkpt lat="30.231704746522148" lon="-5.547129526378376"><ele>671.0</ele><time>2026-03-24T11:32:11.943Z</time></trkpt><trkpt lat="30.231779367573047" lon="-5.547278142364393"><ele>671.0</ele><time>2026-03-24T11:32:12.943Z</time></trkpt><trkpt lat="30.231864962834617" lon="-5.547430415670491"><ele>671.0</ele><time>2026-03-24T11:32:13.943Z</time></trkpt><trkpt lat="30.23195424977347" lon="-5.547584141277896"><ele>671.0</ele><time>2026-03-24T11:32:14.943Z</time></trkpt><trkpt lat="30.232037014688803" lon="-5.547735141397013"><ele>670.6666666666666</ele><time>2026-03-24T11:32:15.943Z</time></trkpt><trkpt lat="30.232113908776057" lon="-5.547886307250033"><ele>670.3333333333334</ele><time>2026-03-24T11:32:16.943Z</time></trkpt><trkpt lat="30.232184171021178" lon="-5.548051238927688"><ele>670.0</ele><time>2026-03-24T11:32:17.943Z</time></trkpt><trkpt lat="30.2322483830296" lon="-5.548234474248274"><ele>670.0</ele><time>2026-03-24T11:32:18.943Z</time></trkpt><trkpt lat="30.232312017116968" lon="-5.548428391062493"><ele>670.0</ele><time>2026-03-24T11:32:19.943Z</time></trkpt><trkpt lat="30.232369027715244" lon="-5.548619146132338"><ele>670.0</ele><time>2026-03-24T11:32:20.943Z</time></trkpt><trkpt lat="30.232420044370155" lon="-5.548818508694422"><ele>669.0</ele><time>2026-03-24T11:32:21.943Z</time></trkpt><trkpt lat="30.23246278028831" lon="-5.549021642840032"><ele>668.0</ele><time>2026-03-24T11:32:22.943Z</time></trkpt><trkpt lat="30.23250976130587" lon="-5.549231679535909"><ele>667.0</ele><time>2026-03-24T11:32:23.942Z</time></trkpt><trkpt lat="30.232560713202737" lon="-5.549444245298642"><ele>667.3333333333334</ele><time>2026-03-24T11:32:24.942Z</time></trkpt><trkpt lat="30.232612877851157" lon="-5.549647462839513"><ele>667.6666666666666</ele><time>2026-03-24T11:32:25.942Z</time></trkpt><trkpt lat="30.232661191330653" lon="-5.549839340252476"><ele>668.0</ele><time>2026-03-24T11:32:26.942Z</time></trkpt><trkpt lat="30.232711204371913" lon="-5.550030016071754"><ele>668.0</ele><time>2026-03-24T11:32:27.942Z</time></trkpt><trkpt lat="30.232757792987098" lon="-5.550223281494397"><ele>668.0</ele><time>2026-03-24T11:32:28.942Z</time></trkpt><trkpt lat="30.232805084566166" lon="-5.550414982010462"><ele>668.0</ele><time>2026-03-24T11:32:29.942Z</time></trkpt><trkpt lat="30.232842200572108" lon="-5.550610815724332"><ele>669.3333333333333</ele><time>2026-03-24T11:32:30.942Z</time></trkpt><trkpt lat="30.23288755005992" lon="-5.550789465293132"><ele>670.6666666666666</ele><time>2026-03-24T11:32:31.942Z</time></trkpt><trkpt lat="30.23294607957166" lon="-5.550960145765932"><ele>672.0</ele><time>2026-03-24T11:32:32.942Z</time></trkpt><trkpt lat="30.233005759231006" lon="-5.551137487047484"><ele>673.0</ele><time>2026-03-24T11:32:33.942Z</time></trkpt><trkpt lat="30.23305796464047" lon="-5.551320425338749"><ele>674.0</ele><time>2026-03-24T11:32:34.942Z</time></trkpt><trkpt lat="30.233098599057683" lon="-5.55150330748509"><ele>675.0</ele><time>2026-03-24T11:32:35.942Z</time></trkpt><trkpt lat="30.233127094143594" lon="-5.551698318770173"><ele>673.3333333333334</ele><time>2026-03-24T11:32:36.942Z</time></trkpt><trkpt lat="30.23315314116789" lon="-5.551903246027546"><ele>671.6666666666667</ele><time>2026-03-24T11:32:37.942Z</time></trkpt><trkpt lat="30.233183314181172" lon="-5.55209971724654"><ele>670.0</ele><time>2026-03-24T11:32:38.942Z</time></trkpt><trkpt lat="30.233220850517114" lon="-5.552282510568068"><ele>670.0</ele><time>2026-03-24T11:32:39.942Z</time></trkpt><trkpt lat="30.23325934322424" lon="-5.5524651754809335"><ele>670.0</ele><time>2026-03-24T11:32:40.942Z</time></trkpt><trkpt lat="30.23330294202199" lon="-5.552655922702823"><ele>670.0</ele><time>2026-03-24T11:32:41.942Z</time></trkpt><trkpt lat="30.233343993544697" lon="-5.552846327996826"><ele>670.3333333333334</ele><time>2026-03-24T11:32:42.942Z</time></trkpt><trkpt lat="30.233376963879028" lon="-5.553034077217541"><ele>670.6666666666666</ele><time>2026-03-24T11:32:43.942Z</time></trkpt><trkpt lat="30.233402541526903" lon="-5.553228799052575"><ele>671.0</ele><time>2026-03-24T11:32:44.943Z</time></trkpt><trkpt lat="30.233416899420934" lon="-5.5534180598873855"><ele>671.0</ele><time>2026-03-24T11:32:45.942Z</time></trkpt><trkpt lat="30.23342462818376" lon="-5.553617993610127"><ele>671.0</ele><time>2026-03-24T11:32:46.942Z</time></trkpt><trkpt lat="30.233425189272317" lon="-5.553818417624062"><ele>671.0</ele><time>2026-03-24T11:32:47.942Z</time></trkpt><trkpt lat="30.233424092022254" lon="-5.554023005813668"><ele>671.0</ele><time>2026-03-24T11:32:48.942Z</time></trkpt><trkpt lat="30.23342217714726" lon="-5.554228270949481"><ele>671.0</ele><time>2026-03-24T11:32:49.942Z</time></trkpt><trkpt lat="30.233423460594462" lon="-5.55442708401318"><ele>671.0</ele><time>2026-03-24T11:32:50.942Z</time></trkpt><trkpt lat="30.23343118856363" lon="-5.554628855449382"><ele>670.6666666666666</ele><time>2026-03-24T11:32:51.942Z</time></trkpt><trkpt lat="30.23342879317494" lon="-5.554822501814996"><ele>670.3333333333334</ele><time>2026-03-24T11:32:52.942Z</time></trkpt><trkpt lat="30.233412886444064" lon="-5.55502101086015"><ele>670.0</ele><time>2026-03-24T11:32:53.942Z</time></trkpt><trkpt lat="30.233396671005178" lon="-5.555208206470091"><ele>669.0</ele><time>2026-03-24T11:32:54.942Z</time></trkpt><trkpt lat="30.23337377880173" lon="-5.555380876152559"><ele>668.0</ele><time>2026-03-24T11:32:55.942Z</time></trkpt><trkpt lat="30.233345245832748" lon="-5.55554011054352"><ele>667.0</ele><time>2026-03-24T11:32:56.942Z</time></trkpt><trkpt lat="30.23331167511824" lon="-5.555693723377693"><ele>666.0</ele><time>2026-03-24T11:32:57.942Z</time></trkpt><trkpt lat="30.233269597249084" lon="-5.555849855861589"><ele>666.0</ele><time>2026-03-24T11:32:58.942Z</time></trkpt><trkpt lat="30.23321784801613" lon="-5.556004033049802"><ele>666.0</ele><time>2026-03-24T11:32:59.942Z</time></trkpt><trkpt lat="30.233157989902104" lon="-5.556155225923251"><ele>666.0</ele><time>2026-03-24T11:33:00.942Z</time></trkpt><trkpt lat="30.233093591502403" lon="-5.556292826856651"><ele>666.0</ele><time>2026-03-24T11:33:01.942Z</time></trkpt><trkpt lat="30.233016175117104" lon="-5.556434969045741"><ele>665.3333333333334</ele><time>2026-03-24T11:33:02.942Z</time></trkpt><trkpt lat="30.232933073233987" lon="-5.556578050546635"><ele>664.6666666666667</ele><time>2026-03-24T11:33:03.942Z</time></trkpt><trkpt lat="30.232843194175963" lon="-5.556719408949477"><ele>664.0</ele><time>2026-03-24T11:33:04.942Z</time></trkpt><trkpt lat="30.232749066113016" lon="-5.556867612274926"><ele>664.0</ele><time>2026-03-24T11:33:05.942Z</time></trkpt><trkpt lat="30.232645083654827" lon="-5.5570159931202365"><ele>664.0</ele><time>2026-03-24T11:33:06.942Z</time></trkpt><trkpt lat="30.232530208874767" lon="-5.5571598666398065"><ele>664.0</ele><time>2026-03-24T11:33:07.942Z</time></trkpt><trkpt lat="30.23241744902824" lon="-5.557300890532027"><ele>664.3333333333334</ele><time>2026-03-24T11:33:08.942Z</time></trkpt><trkpt lat="30.23229989587659" lon="-5.557445031482885"><ele>664.6666666666666</ele><time>2026-03-24T11:33:09.942Z</time></trkpt><trkpt lat="30.232178300919085" lon="-5.557590805379261"><ele>665.0</ele><time>2026-03-24T11:33:10.942Z</time></trkpt><trkpt lat="30.23205494444265" lon="-5.557740470220131"><ele>665.3333333333333</ele><time>2026-03-24T11:33:11.942Z</time></trkpt><trkpt lat="30.23192835110545" lon="-5.557889277770882"><ele>665.6666666666666</ele><time>2026-03-24T11:33:12.942Z</time></trkpt><trkpt lat="30.231812399747767" lon="-5.558033159668901"><ele>666.0</ele><time>2026-03-24T11:33:13.942Z</time></trkpt><trkpt lat="30.231704124658116" lon="-5.5581946252405094"><ele>666.0</ele><time>2026-03-24T11:33:14.942Z</time></trkpt><trkpt lat="30.23160145973564" lon="-5.558375625611153"><ele>666.0</ele><time>2026-03-24T11:33:15.942Z</time></trkpt><trkpt lat="30.231502430452817" lon="-5.558572129315565"><ele>666.0</ele><time>2026-03-24T11:33:16.942Z</time></trkpt><trkpt lat="30.231407121282814" lon="-5.558789134633674"><ele>665.3333333333334</ele><time>2026-03-24T11:33:17.942Z</time></trkpt><trkpt lat="30.23131277174444" lon="-5.559014437354362"><ele>664.6666666666667</ele><time>2026-03-24T11:33:18.942Z</time></trkpt><trkpt lat="30.23121678179491" lon="-5.559226887610977"><ele>664.0</ele><time>2026-03-24T11:33:19.942Z</time></trkpt><trkpt lat="30.231114137320212" lon="-5.5594390938730225"><ele>663.6666666666667</ele><time>2026-03-24T11:33:20.942Z</time></trkpt><trkpt lat="30.231008665447074" lon="-5.5596381650211555"><ele>663.3333333333334</ele><time>2026-03-24T11:33:21.942Z</time></trkpt><trkpt lat="30.230904667630107" lon="-5.559821234906101"><ele>663.0</ele><time>2026-03-24T11:33:22.942Z</time></trkpt><trkpt lat="30.23080124190775" lon="-5.560000657139712"><ele>663.0</ele><time>2026-03-24T11:33:23.942Z</time></trkpt><trkpt lat="30.230702285344147" lon="-5.560179211275496"><ele>663.0</ele><time>2026-03-24T11:33:24.942Z</time></trkpt><trkpt lat="30.23060385626403" lon="-5.560353250079441"><ele>663.0</ele><time>2026-03-24T11:33:25.942Z</time></trkpt><trkpt lat="30.230497300766668" lon="-5.5605103150120465"><ele>662.6666666666666</ele><time>2026-03-24T11:33:26.942Z</time></trkpt><trkpt lat="30.230375218060633" lon="-5.560661764860806"><ele>662.3333333333333</ele><time>2026-03-24T11:33:27.942Z</time></trkpt><trkpt lat="30.230245245008632" lon="-5.560798873469694"><ele>662.0</ele><time>2026-03-24T11:33:28.942Z</time></trkpt><trkpt lat="30.230114068916087" lon="-5.560924834272711"><ele>662.0</ele><time>2026-03-24T11:33:29.942Z</time></trkpt><trkpt lat="30.229986450513525" lon="-5.561047704885924"><ele>662.0</ele><time>2026-03-24T11:33:30.942Z</time></trkpt><trkpt lat="30.22985540715245" lon="-5.561170674242241"><ele>662.0</ele><time>2026-03-24T11:33:31.942Z</time></trkpt><trkpt lat="30.229714824907266" lon="-5.561293763357648"><ele>662.3333333333333</ele><time>2026-03-24T11:33:32.942Z</time></trkpt><trkpt lat="30.229571883458295" lon="-5.561419503425301"><ele>662.6666666666666</ele><time>2026-03-24T11:33:33.942Z</time></trkpt><trkpt lat="30.22943732589525" lon="-5.56154679820408"><ele>663.0</ele><time>2026-03-24T11:33:34.942Z</time></trkpt><trkpt lat="30.229314220608405" lon="-5.561686137844342"><ele>663.0</ele><time>2026-03-24T11:33:35.942Z</time></trkpt><trkpt lat="30.229209993133438" lon="-5.561823467029059"><ele>663.0</ele><time>2026-03-24T11:33:36.942Z</time></trkpt><trkpt lat="30.229102617959736" lon="-5.56196458080269"><ele>663.0</ele><time>2026-03-24T11:33:37.942Z</time></trkpt><trkpt lat="30.22899445657947" lon="-5.562108434342735"><ele>662.6666666666666</ele><time>2026-03-24T11:33:38.942Z</time></trkpt><trkpt lat="30.228888575090025" lon="-5.562237982895705"><ele>662.3333333333333</ele><time>2026-03-24T11:33:39.942Z</time></trkpt><trkpt lat="30.228776424694185" lon="-5.56236919624587"><ele>662.0</ele><time>2026-03-24T11:33:40.942Z</time></trkpt><trkpt lat="30.228660737397146" lon="-5.56249914359182"><ele>662.0</ele><time>2026-03-24T11:33:41.942Z</time></trkpt><trkpt lat="30.228545120262808" lon="-5.562629886428275"><ele>662.0</ele><time>2026-03-24T11:33:42.942Z</time></trkpt><trkpt lat="30.228434437236317" lon="-5.562771384010725"><ele>662.0</ele><time>2026-03-24T11:33:43.942Z</time></trkpt><trkpt lat="30.22832386692319" lon="-5.562922867451241"><ele>662.0</ele><time>2026-03-24T11:33:44.942Z</time></trkpt><trkpt lat="30.228211547615597" lon="-5.563075769608742"><ele>662.0</ele><time>2026-03-24T11:33:45.942Z</time></trkpt><trkpt lat="30.228101922063654" lon="-5.563225772162107"><ele>662.0</ele><time>2026-03-24T11:33:46.942Z</time></trkpt><trkpt lat="30.228003233863394" lon="-5.5633599030453045"><ele>662.0</ele><time>2026-03-24T11:33:47.942Z</time></trkpt><trkpt lat="30.22791232962841" lon="-5.5634946783489525"><ele>662.0</ele><time>2026-03-24T11:33:48.942Z</time></trkpt><trkpt lat="30.22782387075749" lon="-5.563622831608926"><ele>662.0</ele><time>2026-03-24T11:33:49.942Z</time></trkpt><trkpt lat="30.227732451696273" lon="-5.563739487207414"><ele>662.0</ele><time>2026-03-24T11:33:50.942Z</time></trkpt><trkpt lat="30.227638485904713" lon="-5.563835734284029"><ele>661.75</ele><time>2026-03-24T11:33:51.942Z</time></trkpt><trkpt lat="30.227532975970338" lon="-5.563905475920294"><ele>661.5</ele><time>2026-03-24T11:33:52.942Z</time></trkpt><trkpt lat="30.227421754965107" lon="-5.5639636864863045"><ele>661.25</ele><time>2026-03-24T11:33:53.942Z</time></trkpt><trkpt lat="30.22732349525162" lon="-5.564022233219861"><ele>661.0</ele><time>2026-03-24T11:33:54.942Z</time></trkpt><trkpt lat="30.22723907373365" lon="-5.564076025191292"><ele>661.0</ele><time>2026-03-24T11:33:55.942Z</time></trkpt><trkpt lat="30.22715996883477" lon="-5.564129297157669"><ele>661.0</ele><time>2026-03-24T11:33:56.942Z</time></trkpt><trkpt lat="30.227075019890453" lon="-5.564191136063517"><ele>661.0</ele><time>2026-03-24T11:33:57.942Z</time></trkpt><trkpt lat="30.22699212933207" lon="-5.564251712405908"><ele>661.0</ele><time>2026-03-24T11:33:58.942Z</time></trkpt><trkpt lat="30.226900166281112" lon="-5.564320596091805"><ele>661.0</ele><time>2026-03-24T11:33:59.942Z</time></trkpt><trkpt lat="30.2268172564211" lon="-5.564402393448843"><ele>661.0</ele><time>2026-03-24T11:34:00.942Z</time></trkpt><trkpt lat="30.22673593590311" lon="-5.564499478243403"><ele>661.0</ele><time>2026-03-24T11:34:01.942Z</time></trkpt><trkpt lat="30.226659842510784" lon="-5.5646146080072585"><ele>661.0</ele><time>2026-03-24T11:34:02.942Z</time></trkpt><trkpt lat="30.226569648302416" lon="-5.564735615094029"><ele>661.0</ele><time>2026-03-24T11:34:03.942Z</time></trkpt><trkpt lat="30.226470791431346" lon="-5.5648656831446806"><ele>660.0</ele><time>2026-03-24T11:34:04.942Z</time></trkpt><trkpt lat="30.226379543125518" lon="-5.564986778126814"><ele>659.0</ele><time>2026-03-24T11:34:05.942Z</time></trkpt><trkpt lat="30.226299558898162" lon="-5.565095571408038"><ele>658.0</ele><time>2026-03-24T11:34:06.942Z</time></trkpt><trkpt lat="30.226220293618553" lon="-5.5651987580027615"><ele>657.0</ele><time>2026-03-24T11:34:07.942Z</time></trkpt><trkpt lat="30.226150361559363" lon="-5.565314686897365"><ele>657.6</ele><time>2026-03-24T11:34:08.942Z</time></trkpt><trkpt lat="30.226089070773718" lon="-5.56543518601775"><ele>658.2</ele><time>2026-03-24T11:34:09.942Z</time></trkpt><trkpt lat="30.22602323539848" lon="-5.565540506200795"><ele>658.8</ele><time>2026-03-24T11:34:10.942Z</time></trkpt><trkpt lat="30.225968028562388" lon="-5.565606989756076"><ele>659.4</ele><time>2026-03-24T11:34:11.942Z</time></trkpt><trkpt lat="30.225881523038897" lon="-5.565671692970275"><ele>660.0</ele><time>2026-03-24T11:34:12.942Z</time></trkpt><trkpt lat="30.225780024858206" lon="-5.565730045318133"><ele>660.0</ele><time>2026-03-24T11:34:13.942Z</time></trkpt><trkpt lat="30.225674235000106" lon="-5.565793099827347"><ele>660.0</ele><time>2026-03-24T11:34:14.942Z</time></trkpt><trkpt lat="30.22556882929217" lon="-5.565867096821005"><ele>660.0</ele><time>2026-03-24T11:34:15.942Z</time></trkpt><trkpt lat="30.225466119314508" lon="-5.565947339847372"><ele>660.0</ele><time>2026-03-24T11:34:16.942Z</time></trkpt><trkpt lat="30.22535334330943" lon="-5.5660298526166825"><ele>660.0</ele><time>2026-03-24T11:34:17.942Z</time></trkpt><trkpt lat="30.22523405520178" lon="-5.566099122546106"><ele>660.0</ele><time>2026-03-24T11:34:18.942Z</time></trkpt><trkpt lat="30.225113830998158" lon="-5.566168957038014"><ele>660.0</ele><time>2026-03-24T11:34:19.942Z</time></trkpt><trkpt lat="30.22499887239238" lon="-5.566260360819619"><ele>660.0</ele><time>2026-03-24T11:34:20.942Z</time></trkpt><trkpt lat="30.2248894055401" lon="-5.566366775613896"><ele>660.25</ele><time>2026-03-24T11:34:21.942Z</time></trkpt><trkpt lat="30.224777119740498" lon="-5.566482279358505"><ele>660.5</ele><time>2026-03-24T11:34:22.942Z</time></trkpt><trkpt lat="30.224672309939084" lon="-5.566581679770949"><ele>660.75</ele><time>2026-03-24T11:34:23.942Z</time></trkpt><trkpt lat="30.22458408852329" lon="-5.566670559869263"><ele>661.0</ele><time>2026-03-24T11:34:24.942Z</time></trkpt><trkpt lat="30.22450469720472" lon="-5.566762162495259"><ele>661.0</ele><time>2026-03-24T11:34:25.942Z</time></trkpt><trkpt lat="30.224424585546416" lon="-5.566846101124446"><ele>661.0</ele><time>2026-03-24T11:34:26.942Z</time></trkpt><trkpt lat="30.22433265355111" lon="-5.5669262891742886"><ele>661.0</ele><time>2026-03-24T11:34:27.942Z</time></trkpt><trkpt lat="30.22424209379034" lon="-5.567014156584837"><ele>661.0</ele><time>2026-03-24T11:34:28.942Z</time></trkpt><trkpt lat="30.22417324668308" lon="-5.567119750271518"><ele>660.75</ele><time>2026-03-24T11:34:29.942Z</time></trkpt><trkpt lat="30.224097705333133" lon="-5.567240953635561"><ele>660.5</ele><time>2026-03-24T11:34:30.942Z</time></trkpt><trkpt lat="30.223998476530618" lon="-5.567341153235713"><ele>660.25</ele><time>2026-03-24T11:34:31.942Z</time></trkpt><trkpt lat="30.2238689311871" lon="-5.567421498606037"><ele>660.0</ele><time>2026-03-24T11:34:32.942Z</time></trkpt><trkpt lat="30.22372381801701" lon="-5.567475857671513"><ele>660.6666666666666</ele><time>2026-03-24T11:34:33.942Z</time></trkpt><trkpt lat="30.22357193931936" lon="-5.567528636918738"><ele>661.3333333333333</ele><time>2026-03-24T11:34:34.942Z</time></trkpt><trkpt lat="30.22342499237634" lon="-5.567568732118342"><ele>662.0</ele><time>2026-03-24T11:34:35.942Z</time></trkpt><trkpt lat="30.223286798229037" lon="-5.567599354826662"><ele>662.0</ele><time>2026-03-24T11:34:36.942Z</time></trkpt><trkpt lat="30.223157366937496" lon="-5.5676281792142355"><ele>662.0</ele><time>2026-03-24T11:34:37.942Z</time></trkpt><trkpt lat="30.22302223272041" lon="-5.567667348819644"><ele>662.0</ele><time>2026-03-24T11:34:38.942Z</time></trkpt><trkpt lat="30.22287946174464" lon="-5.567697161342878"><ele>662.0</ele><time>2026-03-24T11:34:39.942Z</time></trkpt><trkpt lat="30.22275282942437" lon="-5.567732938218006"><ele>662.0</ele><time>2026-03-24T11:34:40.942Z</time></trkpt><trkpt lat="30.22264274730139" lon="-5.567778224451004"><ele>662.0</ele><time>2026-03-24T11:34:41.942Z</time></trkpt><trkpt lat="30.222541687435452" lon="-5.567850924276485"><ele>662.0</ele><time>2026-03-24T11:34:42.942Z</time></trkpt><trkpt lat="30.222437522785327" lon="-5.567936493403974"><ele>662.0</ele><time>2026-03-24T11:34:43.942Z</time></trkpt><trkpt lat="30.222328091076605" lon="-5.568013597681526"><ele>661.5</ele><time>2026-03-24T11:34:44.942Z</time></trkpt><trkpt lat="30.222208279712035" lon="-5.568080350745739"><ele>661.0</ele><time>2026-03-24T11:34:45.941Z</time></trkpt><trkpt lat="30.222096033882128" lon="-5.568147235837937"><ele>660.5</ele><time>2026-03-24T11:34:46.941Z</time></trkpt><trkpt lat="30.22199562725269" lon="-5.568226830113604"><ele>660.0</ele><time>2026-03-24T11:34:47.941Z</time></trkpt><trkpt lat="30.22190619113273" lon="-5.568325616562949"><ele>660.0</ele><time>2026-03-24T11:34:48.941Z</time></trkpt><trkpt lat="30.221834006429837" lon="-5.5684479815980445"><ele>660.0</ele><time>2026-03-24T11:34:49.941Z</time></trkpt><trkpt lat="30.221766656831495" lon="-5.5685837639051625"><ele>660.0</ele><time>2026-03-24T11:34:50.942Z</time></trkpt><trkpt lat="30.22170120311497" lon="-5.568726477018618"><ele>660.0</ele><time>2026-03-24T11:34:51.941Z</time></trkpt><trkpt lat="30.221652313200003" lon="-5.568877086059905"><ele>660.6666666666666</ele><time>2026-03-24T11:34:52.941Z</time></trkpt><trkpt lat="30.221620051458387" lon="-5.569041532069941"><ele>661.3333333333333</ele><time>2026-03-24T11:34:53.942Z</time></trkpt><trkpt lat="30.221587605401073" lon="-5.569213846076081"><ele>662.0</ele><time>2026-03-24T11:34:54.941Z</time></trkpt><trkpt lat="30.221553547526348" lon="-5.569392189489909"><ele>662.0</ele><time>2026-03-24T11:34:55.941Z</time></trkpt><trkpt lat="30.22151831578061" lon="-5.569572642118648"><ele>662.0</ele><time>2026-03-24T11:34:56.941Z</time></trkpt><trkpt lat="30.221492329937924" lon="-5.5697541949289535"><ele>662.0</ele><time>2026-03-24T11:34:57.941Z</time></trkpt><trkpt lat="30.221475804630238" lon="-5.56993200730009"><ele>662.0</ele><time>2026-03-24T11:34:58.941Z</time></trkpt><trkpt lat="30.22147463720757" lon="-5.57009723570331"><ele>662.0</ele><time>2026-03-24T11:34:59.941Z</time></trkpt><trkpt lat="30.221468622098875" lon="-5.570254639289823"><ele>662.0</ele><time>2026-03-24T11:35:00.941Z</time></trkpt><trkpt lat="30.221458566398184" lon="-5.57039703803034"><ele>662.0</ele><time>2026-03-24T11:35:01.941Z</time></trkpt><trkpt lat="30.221436738039273" lon="-5.57053106598453"><ele>662.0</ele><time>2026-03-24T11:35:02.941Z</time></trkpt><trkpt lat="30.221400529322693" lon="-5.57066935888185"><ele>662.0</ele><time>2026-03-24T11:35:03.941Z</time></trkpt><trkpt lat="30.22134156117288" lon="-5.5708212949898535"><ele>662.0</ele><time>2026-03-24T11:35:04.941Z</time></trkpt><trkpt lat="30.221281393589372" lon="-5.570978968162447"><ele>662.0</ele><time>2026-03-24T11:35:05.941Z</time></trkpt><trkpt lat="30.221227154859815" lon="-5.571136351804988"><ele>661.75</ele><time>2026-03-24T11:35:06.941Z</time></trkpt><trkpt lat="30.221194179077198" lon="-5.5712999676869215"><ele>661.5</ele><time>2026-03-24T11:35:07.941Z</time></trkpt><trkpt lat="30.22116285070194" lon="-5.571447539347586"><ele>661.25</ele><time>2026-03-24T11:35:08.941Z</time></trkpt><trkpt lat="30.221116636852447" lon="-5.571584935856316"><ele>661.0</ele><time>2026-03-24T11:35:09.941Z</time></trkpt><trkpt lat="30.221058995520714" lon="-5.571715399318677"><ele>661.0</ele><time>2026-03-24T11:35:10.941Z</time></trkpt><trkpt lat="30.221007861296012" lon="-5.57186076296586"><ele>661.0</ele><time>2026-03-24T11:35:11.941Z</time></trkpt><trkpt lat="30.220956485952335" lon="-5.572014238742244"><ele>661.0</ele><time>2026-03-24T11:35:12.941Z</time></trkpt><trkpt lat="30.220912364320164" lon="-5.572173546485957"><ele>661.0</ele><time>2026-03-24T11:35:13.941Z</time></trkpt><trkpt lat="30.22087884988222" lon="-5.572338451820905"><ele>661.0</ele><time>2026-03-24T11:35:14.941Z</time></trkpt><trkpt lat="30.22084918450122" lon="-5.572494025814548"><ele>661.0</ele><time>2026-03-24T11:35:15.941Z</time></trkpt><trkpt lat="30.220815130232104" lon="-5.572632464532844"><ele>661.0</ele><time>2026-03-24T11:35:16.941Z</time></trkpt><trkpt lat="30.220768854514382" lon="-5.572754370980989"><ele>661.0</ele><time>2026-03-24T11:35:17.941Z</time></trkpt><trkpt lat="30.220705578248737" lon="-5.572875534319772"><ele>661.0</ele><time>2026-03-24T11:35:18.941Z</time></trkpt><trkpt lat="30.22064441566142" lon="-5.573002470585162"><ele>661.0</ele><time>2026-03-24T11:35:19.941Z</time></trkpt><trkpt lat="30.22059978846209" lon="-5.573131387637998"><ele>661.0</ele><time>2026-03-24T11:35:20.941Z</time></trkpt><trkpt lat="30.22056762209558" lon="-5.573247872505189"><ele>661.0</ele><time>2026-03-24T11:35:21.941Z</time></trkpt><trkpt lat="30.220525999726984" lon="-5.573353344605683"><ele>661.0</ele><time>2026-03-24T11:35:22.941Z</time></trkpt><trkpt lat="30.220468668250824" lon="-5.573466036093434"><ele>661.0</ele><time>2026-03-24T11:35:23.941Z</time></trkpt><trkpt lat="30.2204053787934" lon="-5.573592443224974"><ele>661.0</ele><time>2026-03-24T11:35:24.941Z</time></trkpt><trkpt lat="30.220343566789573" lon="-5.573710400595828"><ele>661.0</ele><time>2026-03-24T11:35:25.941Z</time></trkpt><trkpt lat="30.22027040579039" lon="-5.573837083710712"><ele>661.25</ele><time>2026-03-24T11:35:26.941Z</time></trkpt><trkpt lat="30.220200854184363" lon="-5.573962567421236"><ele>661.5</ele><time>2026-03-24T11:35:27.941Z</time></trkpt><trkpt lat="30.220140584908467" lon="-5.5740910984253125"><ele>661.75</ele><time>2026-03-24T11:35:28.941Z</time></trkpt><trkpt lat="30.22010058067252" lon="-5.574212889524519"><ele>662.0</ele><time>2026-03-24T11:35:29.941Z</time></trkpt><trkpt lat="30.220068410724586" lon="-5.574342467297298"><ele>662.0</ele><time>2026-03-24T11:35:30.941Z</time></trkpt><trkpt lat="30.220035324565423" lon="-5.574476753456073"><ele>662.0</ele><time>2026-03-24T11:35:31.941Z</time></trkpt><trkpt lat="30.219987601092306" lon="-5.574620288550243"><ele>662.0</ele><time>2026-03-24T11:35:32.941Z</time></trkpt><trkpt lat="30.21993047037498" lon="-5.574765733824268"><ele>662.0</ele><time>2026-03-24T11:35:33.941Z</time></trkpt><trkpt lat="30.219875323912508" lon="-5.574895308662402"><ele>662.0</ele><time>2026-03-24T11:35:34.941Z</time></trkpt><trkpt lat="30.21982613279958" lon="-5.575017985955797"><ele>662.0</ele><time>2026-03-24T11:35:35.941Z</time></trkpt><trkpt lat="30.219780113756613" lon="-5.575132784282762"><ele>662.0</ele><time>2026-03-24T11:35:36.941Z</time></trkpt><trkpt lat="30.219747450200945" lon="-5.575233207020182"><ele>662.0</ele><time>2026-03-24T11:35:37.941Z</time></trkpt><trkpt lat="30.219731059895036" lon="-5.575309812656966"><ele>662.0</ele><time>2026-03-24T11:35:38.941Z</time></trkpt><trkpt lat="30.219726851454947" lon="-5.575404398485197"><ele>662.0</ele><time>2026-03-24T11:35:40.941Z</time></trkpt><trkpt lat="30.219776466833878" lon="-5.575523386231427"><ele>662.0</ele><time>2026-03-24T11:35:42.941Z</time></trkpt><trkpt lat="30.219838519190706" lon="-5.5755652554364845"><ele>662.0</ele><time>2026-03-24T11:35:43.941Z</time></trkpt><trkpt lat="30.219902577717356" lon="-5.575596057867112"><ele>662.0</ele><time>2026-03-24T11:35:44.941Z</time></trkpt><trkpt lat="30.21997143597507" lon="-5.575638565871249"><ele>662.0</ele><time>2026-03-24T11:35:45.941Z</time></trkpt><trkpt lat="30.220046523536674" lon="-5.575690019104237"><ele>662.0</ele><time>2026-03-24T11:35:46.941Z</time></trkpt><trkpt lat="30.220130348533427" lon="-5.575743251079067"><ele>662.0</ele><time>2026-03-24T11:35:47.941Z</time></trkpt><trkpt lat="30.220216502991338" lon="-5.575794503411203"><ele>662.0</ele><time>2026-03-24T11:35:48.941Z</time></trkpt><trkpt lat="30.220304266187927" lon="-5.575850504804712"><ele>662.0</ele><time>2026-03-24T11:35:49.941Z</time></trkpt><trkpt lat="30.22039196034878" lon="-5.575903270900165"><ele>662.0</ele><time>2026-03-24T11:35:50.941Z</time></trkpt><trkpt lat="30.220495007177934" lon="-5.575972517036837"><ele>662.0</ele><time>2026-03-24T11:35:51.941Z</time></trkpt><trkpt lat="30.220610494888415" lon="-5.5760686631967165"><ele>662.5</ele><time>2026-03-24T11:35:52.941Z</time></trkpt><trkpt lat="30.22073043108288" lon="-5.576178269964416"><ele>663.0</ele><time>2026-03-24T11:35:53.941Z</time></trkpt><trkpt lat="30.220842107615542" lon="-5.576276087361305"><ele>663.5</ele><time>2026-03-24T11:35:54.941Z</time></trkpt><trkpt lat="30.220945200044543" lon="-5.576367936945158"><ele>664.0</ele><time>2026-03-24T11:35:55.941Z</time></trkpt><trkpt lat="30.221042439298678" lon="-5.576464570543635"><ele>664.0</ele><time>2026-03-24T11:35:56.941Z</time></trkpt><trkpt lat="30.22112661530865" lon="-5.576579058437499"><ele>664.0</ele><time>2026-03-24T11:35:57.941Z</time></trkpt><trkpt lat="30.2212230029327" lon="-5.576693313539051"><ele>664.0</ele><time>2026-03-24T11:35:58.941Z</time></trkpt><trkpt lat="30.221337134318382" lon="-5.576795385068257"><ele>664.0</ele><time>2026-03-24T11:35:59.941Z</time></trkpt><trkpt lat="30.221463251091762" lon="-5.576906585762646"><ele>663.75</ele><time>2026-03-24T11:36:00.941Z</time></trkpt><trkpt lat="30.221578559276296" lon="-5.577006939424046"><ele>663.5</ele><time>2026-03-24T11:36:01.941Z</time></trkpt><trkpt lat="30.22169291076195" lon="-5.57711751425122"><ele>663.25</ele><time>2026-03-24T11:36:02.941Z</time></trkpt><trkpt lat="30.221799830190857" lon="-5.577222305485152"><ele>663.0</ele><time>2026-03-24T11:36:03.941Z</time></trkpt><trkpt lat="30.221901525422176" lon="-5.577314215782455"><ele>663.0</ele><time>2026-03-24T11:36:04.941Z</time></trkpt><trkpt lat="30.22200655154977" lon="-5.577409289753154"><ele>663.0</ele><time>2026-03-24T11:36:05.941Z</time></trkpt><trkpt lat="30.222110052083192" lon="-5.577520717310377"><ele>663.0</ele><time>2026-03-24T11:36:06.941Z</time></trkpt><trkpt lat="30.222224583303348" lon="-5.577634586053767"><ele>663.0</ele><time>2026-03-24T11:36:07.941Z</time></trkpt><trkpt lat="30.222351513335337" lon="-5.577748791117175"><ele>663.0</ele><time>2026-03-24T11:36:08.941Z</time></trkpt><trkpt lat="30.222477844644107" lon="-5.57786183819971"><ele>663.0</ele><time>2026-03-24T11:36:09.941Z</time></trkpt><trkpt lat="30.222599564777983" lon="-5.577984413064496"><ele>663.0</ele><time>2026-03-24T11:36:10.941Z</time></trkpt><trkpt lat="30.222727843122215" lon="-5.5781259040830875"><ele>663.0</ele><time>2026-03-24T11:36:11.941Z</time></trkpt><trkpt lat="30.22286747814992" lon="-5.578276751981946"><ele>663.0</ele><time>2026-03-24T11:36:12.941Z</time></trkpt><trkpt lat="30.222988882670396" lon="-5.578404376508317"><ele>663.0</ele><time>2026-03-24T11:36:13.941Z</time></trkpt><trkpt lat="30.223097941208078" lon="-5.57851952541334"><ele>663.25</ele><time>2026-03-24T11:36:14.941Z</time></trkpt><trkpt lat="30.223201794689388" lon="-5.578623895496746"><ele>663.5</ele><time>2026-03-24T11:36:15.941Z</time></trkpt><trkpt lat="30.223302706972557" lon="-5.578724383688177"><ele>663.75</ele><time>2026-03-24T11:36:16.941Z</time></trkpt><trkpt lat="30.223409920698927" lon="-5.578826487383387"><ele>664.0</ele><time>2026-03-24T11:36:17.941Z</time></trkpt><trkpt lat="30.22351791317156" lon="-5.5789265531487"><ele>664.5</ele><time>2026-03-24T11:36:18.941Z</time></trkpt><trkpt lat="30.223627331517307" lon="-5.579036097610282"><ele>665.0</ele><time>2026-03-24T11:36:19.941Z</time></trkpt><trkpt lat="30.22372696062432" lon="-5.579144662714118"><ele>665.5</ele><time>2026-03-24T11:36:20.941Z</time></trkpt><trkpt lat="30.22382150695422" lon="-5.579253730731483"><ele>666.0</ele><time>2026-03-24T11:36:21.941Z</time></trkpt><trkpt lat="30.223917854519776" lon="-5.579362838507412"><ele>665.5</ele><time>2026-03-24T11:36:22.941Z</time></trkpt><trkpt lat="30.224009897518776" lon="-5.579486533119831"><ele>665.0</ele><time>2026-03-24T11:36:23.941Z</time></trkpt><trkpt lat="30.22410175503519" lon="-5.579611929847424"><ele>664.5</ele><time>2026-03-24T11:36:24.941Z</time></trkpt><trkpt lat="30.22420935839784" lon="-5.5797219111723715"><ele>664.0</ele><time>2026-03-24T11:36:25.941Z</time></trkpt><trkpt lat="30.224326717321993" lon="-5.579818509120324"><ele>664.0</ele><time>2026-03-24T11:36:26.941Z</time></trkpt><trkpt lat="30.224438093386023" lon="-5.579919189310767"><ele>664.0</ele><time>2026-03-24T11:36:27.941Z</time></trkpt><trkpt lat="30.2245422421602" lon="-5.580018246134703"><ele>664.0</ele><time>2026-03-24T11:36:28.94Z</time></trkpt><trkpt lat="30.224643917564546" lon="-5.580114084140113"><ele>664.0</ele><time>2026-03-24T11:36:29.94Z</time></trkpt><trkpt lat="30.224733342536062" lon="-5.580218212334438"><ele>664.0</ele><time>2026-03-24T11:36:30.94Z</time></trkpt><trkpt lat="30.224811828887237" lon="-5.580335705093574"><ele>664.0</ele><time>2026-03-24T11:36:31.94Z</time></trkpt><trkpt lat="30.22489748285754" lon="-5.580442616219153"><ele>664.0</ele><time>2026-03-24T11:36:32.94Z</time></trkpt><trkpt lat="30.22500492449106" lon="-5.580525944158526"><ele>664.0</ele><time>2026-03-24T11:36:33.94Z</time></trkpt><trkpt lat="30.22511312784544" lon="-5.580599949996223"><ele>664.25</ele><time>2026-03-24T11:36:34.94Z</time></trkpt><trkpt lat="30.225223953103484" lon="-5.580681805543607"><ele>664.5</ele><time>2026-03-24T11:36:35.94Z</time></trkpt><trkpt lat="30.225332819841096" lon="-5.5807673742826465"><ele>664.75</ele><time>2026-03-24T11:36:36.94Z</time></trkpt><trkpt lat="30.22544459224442" lon="-5.580860550257061"><ele>665.0</ele><time>2026-03-24T11:36:37.94Z</time></trkpt><trkpt lat="30.225543527175162" lon="-5.580949145367221"><ele>665.0</ele><time>2026-03-24T11:36:38.94Z</time></trkpt><trkpt lat="30.22565157868233" lon="-5.581048516926563"><ele>665.0</ele><time>2026-03-24T11:36:39.94Z</time></trkpt><trkpt lat="30.2257678302097" lon="-5.581139641576188"><ele>665.0</ele><time>2026-03-24T11:36:40.94Z</time></trkpt><trkpt lat="30.225875085375748" lon="-5.5812233083503315"><ele>665.0</ele><time>2026-03-24T11:36:41.94Z</time></trkpt><trkpt lat="30.22597807013633" lon="-5.581324513588163"><ele>665.0</ele><time>2026-03-24T11:36:42.94Z</time></trkpt><trkpt lat="30.226078639969913" lon="-5.581456618741502"><ele>665.0</ele><time>2026-03-24T11:36:43.94Z</time></trkpt><trkpt lat="30.226178319597366" lon="-5.581578298252166"><ele>665.0</ele><time>2026-03-24T11:36:44.94Z</time></trkpt><trkpt lat="30.226280537866305" lon="-5.581681397901122"><ele>665.0</ele><time>2026-03-24T11:36:45.94Z</time></trkpt><trkpt lat="30.22638399544564" lon="-5.581779318482585"><ele>664.75</ele><time>2026-03-24T11:36:46.94Z</time></trkpt><trkpt lat="30.226481845306527" lon="-5.581887032413237"><ele>664.5</ele><time>2026-03-24T11:36:47.94Z</time></trkpt><trkpt lat="30.226581907200522" lon="-5.581984705241764"><ele>664.25</ele><time>2026-03-24T11:36:48.94Z</time></trkpt><trkpt lat="30.226686981208246" lon="-5.582074559055268"><ele>664.0</ele><time>2026-03-24T11:36:49.94Z</time></trkpt><trkpt lat="30.226805502853573" lon="-5.5821498893753665"><ele>664.5</ele><time>2026-03-24T11:36:50.94Z</time></trkpt><trkpt lat="30.22692295299182" lon="-5.582205650868928"><ele>665.0</ele><time>2026-03-24T11:36:51.941Z</time></trkpt><trkpt lat="30.227035770367642" lon="-5.58228676687162"><ele>665.5</ele><time>2026-03-24T11:36:52.941Z</time></trkpt><trkpt lat="30.227140224055837" lon="-5.58238158186344"><ele>666.0</ele><time>2026-03-24T11:36:53.941Z</time></trkpt><trkpt lat="30.22724952062272" lon="-5.58247408618145"><ele>665.75</ele><time>2026-03-24T11:36:54.941Z</time></trkpt><trkpt lat="30.22736507725443" lon="-5.5825632790281965"><ele>665.5</ele><time>2026-03-24T11:36:55.941Z</time></trkpt><trkpt lat="30.227478165133807" lon="-5.582672849118033"><ele>665.25</ele><time>2026-03-24T11:36:56.941Z</time></trkpt><trkpt lat="30.227582893115827" lon="-5.582775358538601"><ele>665.0</ele><time>2026-03-24T11:36:57.94Z</time></trkpt><trkpt lat="30.227686379197706" lon="-5.582861132225309"><ele>665.0</ele><time>2026-03-24T11:36:58.94Z</time></trkpt><trkpt lat="30.227794410320627" lon="-5.582936670266523"><ele>665.0</ele><time>2026-03-24T11:36:59.941Z</time></trkpt><trkpt lat="30.227904521140413" lon="-5.583015207529774"><ele>665.0</ele><time>2026-03-24T11:37:00.941Z</time></trkpt><trkpt lat="30.228014919218754" lon="-5.583099017323233"><ele>665.0</ele><time>2026-03-24T11:37:01.941Z</time></trkpt><trkpt lat="30.228128196199933" lon="-5.583185062272406"><ele>665.0</ele><time>2026-03-24T11:37:02.941Z</time></trkpt><trkpt lat="30.228238514786415" lon="-5.583274432285853"><ele>665.0</ele><time>2026-03-24T11:37:03.941Z</time></trkpt><trkpt lat="30.228328135199806" lon="-5.583374212073632"><ele>665.0</ele><time>2026-03-24T11:37:04.941Z</time></trkpt><trkpt lat="30.228419783125712" lon="-5.583478035559731"><ele>665.0</ele><time>2026-03-24T11:37:05.941Z</time></trkpt><trkpt lat="30.22852416867193" lon="-5.583581365286176"><ele>664.6666666666666</ele><time>2026-03-24T11:37:06.941Z</time></trkpt><trkpt lat="30.22864152646817" lon="-5.583702470956378"><ele>664.3333333333334</ele><time>2026-03-24T11:37:07.941Z</time></trkpt><trkpt lat="30.228760979899775" lon="-5.583829194856133"><ele>664.0</ele><time>2026-03-24T11:37:08.941Z</time></trkpt><trkpt lat="30.22887035769134" lon="-5.583942067625866"><ele>664.25</ele><time>2026-03-24T11:37:09.941Z</time></trkpt><trkpt lat="30.22898346405343" lon="-5.584062748657256"><ele>664.5</ele><time>2026-03-24T11:37:10.941Z</time></trkpt><trkpt lat="30.229090523277513" lon="-5.584178140240715"><ele>664.75</ele><time>2026-03-24T11:37:11.941Z</time></trkpt><trkpt lat="30.22919915933727" lon="-5.584280088733689"><ele>665.0</ele><time>2026-03-24T11:37:12.941Z</time></trkpt><trkpt lat="30.229298114121164" lon="-5.58438563786083"><ele>665.0</ele><time>2026-03-24T11:37:13.941Z</time></trkpt><trkpt lat="30.229388849393366" lon="-5.584490193514315"><ele>665.0</ele><time>2026-03-24T11:37:14.941Z</time></trkpt><trkpt lat="30.229483516348576" lon="-5.584597994484874"><ele>665.0</ele><time>2026-03-24T11:37:15.941Z</time></trkpt><trkpt lat="30.229590087652667" lon="-5.584697861574481"><ele>665.0</ele><time>2026-03-24T11:37:16.941Z</time></trkpt><trkpt lat="30.229695011908994" lon="-5.584784640682884"><ele>665.0</ele><time>2026-03-24T11:37:17.941Z</time></trkpt><trkpt lat="30.229785265839233" lon="-5.584878805765865"><ele>665.0</ele><time>2026-03-24T11:37:18.941Z</time></trkpt><trkpt lat="30.22986481689342" lon="-5.584981896306493"><ele>665.0</ele><time>2026-03-24T11:37:19.941Z</time></trkpt><trkpt lat="30.22993555319579" lon="-5.585076042854008"><ele>665.0</ele><time>2026-03-24T11:37:20.941Z</time></trkpt><trkpt lat="30.230005451232305" lon="-5.585170505504271"><ele>665.0</ele><time>2026-03-24T11:37:21.941Z</time></trkpt><trkpt lat="30.230074496917272" lon="-5.585276975904703"><ele>665.0</ele><time>2026-03-24T11:37:22.941Z</time></trkpt><trkpt lat="30.230128996600754" lon="-5.5853985684022724"><ele>665.0</ele><time>2026-03-24T11:37:23.941Z</time></trkpt><trkpt lat="30.230186238865997" lon="-5.585527734540017"><ele>665.0</ele><time>2026-03-24T11:37:24.941Z</time></trkpt><trkpt lat="30.230252453888593" lon="-5.58562904384"><ele>665.0</ele><time>2026-03-24T11:37:25.941Z</time></trkpt><trkpt lat="30.230337414042445" lon="-5.585708576539087"><ele>665.0</ele><time>2026-03-24T11:37:26.941Z</time></trkpt><trkpt lat="30.230435373705873" lon="-5.585778447139354"><ele>665.0</ele><time>2026-03-24T11:37:27.941Z</time></trkpt><trkpt lat="30.23054170507816" lon="-5.585860500776212"><ele>665.0</ele><time>2026-03-24T11:37:28.941Z</time></trkpt><trkpt lat="30.2306493652717" lon="-5.5859546967554214"><ele>665.0</ele><time>2026-03-24T11:37:29.941Z</time></trkpt><trkpt lat="30.23076573370195" lon="-5.586045970160776"><ele>665.0</ele><time>2026-03-24T11:37:30.941Z</time></trkpt><trkpt lat="30.23089316829214" lon="-5.5861225033799435"><ele>665.0</ele><time>2026-03-24T11:37:31.941Z</time></trkpt><trkpt lat="30.231020784258007" lon="-5.586205190132431"><ele>665.0</ele><time>2026-03-24T11:37:32.941Z</time></trkpt><trkpt lat="30.231134192836002" lon="-5.5862944747588426"><ele>664.75</ele><time>2026-03-24T11:37:33.941Z</time></trkpt><trkpt lat="30.23124594954088" lon="-5.586374136944277"><ele>664.5</ele><time>2026-03-24T11:37:34.941Z</time></trkpt><trkpt lat="30.231346222177496" lon="-5.586461115209024"><ele>664.25</ele><time>2026-03-24T11:37:35.941Z</time></trkpt><trkpt lat="30.2314474128444" lon="-5.586556863450709"><ele>664.0</ele><time>2026-03-24T11:37:36.941Z</time></trkpt><trkpt lat="30.231565964411285" lon="-5.586653964951604"><ele>664.0</ele><time>2026-03-24T11:37:37.941Z</time></trkpt><trkpt lat="30.2317025200282" lon="-5.586734851648324"><ele>664.0</ele><time>2026-03-24T11:37:38.941Z</time></trkpt><trkpt lat="30.23186543345393" lon="-5.586793544858294"><ele>664.0</ele><time>2026-03-24T11:37:39.941Z</time></trkpt><trkpt lat="30.23202101226507" lon="-5.586850090345964"><ele>664.0</ele><time>2026-03-24T11:37:40.941Z</time></trkpt><trkpt lat="30.232160535803384" lon="-5.586919999280222"><ele>664.0</ele><time>2026-03-24T11:37:41.941Z</time></trkpt><trkpt lat="30.23230411010075" lon="-5.587003083021344"><ele>664.0</ele><time>2026-03-24T11:37:42.941Z</time></trkpt><trkpt lat="30.23244594340089" lon="-5.587080643050133"><ele>664.25</ele><time>2026-03-24T11:37:43.941Z</time></trkpt><trkpt lat="30.23257870747568" lon="-5.587140514571831"><ele>664.5</ele><time>2026-03-24T11:37:44.941Z</time></trkpt><trkpt lat="30.232717169643244" lon="-5.587201023293134"><ele>664.75</ele><time>2026-03-24T11:37:45.941Z</time></trkpt><trkpt lat="30.23285754411885" lon="-5.587272009805751"><ele>665.0</ele><time>2026-03-24T11:37:46.941Z</time></trkpt><trkpt lat="30.23299509716005" lon="-5.587327046893152"><ele>665.0</ele><time>2026-03-24T11:37:47.94Z</time></trkpt><trkpt lat="30.233118227891186" lon="-5.587381011515928"><ele>665.0</ele><time>2026-03-24T11:37:48.94Z</time></trkpt><trkpt lat="30.233243598383407" lon="-5.587438831304619"><ele>665.0</ele><time>2026-03-24T11:37:49.94Z</time></trkpt><trkpt lat="30.233374387265837" lon="-5.587491172413658"><ele>665.0</ele><time>2026-03-24T11:37:50.939Z</time></trkpt><trkpt lat="30.2335062873616" lon="-5.587549343994255"><ele>665.25</ele><time>2026-03-24T11:37:51.939Z</time></trkpt><trkpt lat="30.233628757987894" lon="-5.587607142477611"><ele>665.5</ele><time>2026-03-24T11:37:52.939Z</time></trkpt><trkpt lat="30.23375305429136" lon="-5.587660232233515"><ele>665.75</ele><time>2026-03-24T11:37:53.938Z</time></trkpt><trkpt lat="30.23387084989862" lon="-5.5877121926007804"><ele>666.0</ele><time>2026-03-24T11:37:54.938Z</time></trkpt><trkpt lat="30.233980278760157" lon="-5.587759094413551"><ele>666.0</ele><time>2026-03-24T11:37:55.938Z</time></trkpt><trkpt lat="30.234092286719942" lon="-5.587803877332343"><ele>666.0</ele><time>2026-03-24T11:37:56.938Z</time></trkpt><trkpt lat="30.23421708687213" lon="-5.587859014262257"><ele>666.0</ele><time>2026-03-24T11:37:57.937Z</time></trkpt><trkpt lat="30.234343882732706" lon="-5.587921158754671"><ele>666.0</ele><time>2026-03-24T11:37:58.937Z</time></trkpt><trkpt lat="30.23447987830251" lon="-5.587986680055855"><ele>666.0</ele><time>2026-03-24T11:37:59.937Z</time></trkpt><trkpt lat="30.234617821947662" lon="-5.588056409416078"><ele>666.0</ele><time>2026-03-24T11:38:00.937Z</time></trkpt><trkpt lat="30.2347512941777" lon="-5.58812918892911"><ele>666.0</ele><time>2026-03-24T11:38:01.937Z</time></trkpt><trkpt lat="30.23486890638375" lon="-5.588174833474941"><ele>666.0</ele><time>2026-03-24T11:38:02.936Z</time></trkpt><trkpt lat="30.235004137591165" lon="-5.58820809836136"><ele>666.0</ele><time>2026-03-24T11:38:03.936Z</time></trkpt><trkpt lat="30.23514187401659" lon="-5.588260801024967"><ele>666.0</ele><time>2026-03-24T11:38:04.936Z</time></trkpt><trkpt lat="30.235271241969183" lon="-5.588338033846046"><ele>666.0</ele><time>2026-03-24T11:38:05.936Z</time></trkpt><trkpt lat="30.23539650030025" lon="-5.5884156397872236"><ele>666.0</ele><time>2026-03-24T11:38:06.936Z</time></trkpt><trkpt lat="30.235517863491417" lon="-5.58849551988674"><ele>666.0</ele><time>2026-03-24T11:38:07.936Z</time></trkpt><trkpt lat="30.235622400572638" lon="-5.588570214575539"><ele>666.0</ele><time>2026-03-24T11:38:08.936Z</time></trkpt><trkpt lat="30.23571264680631" lon="-5.588642516739971"><ele>666.0</ele><time>2026-03-24T11:38:09.935Z</time></trkpt><trkpt lat="30.23579305217828" lon="-5.588704775468116"><ele>666.0</ele><time>2026-03-24T11:38:10.935Z</time></trkpt><trkpt lat="30.235862957972227" lon="-5.5887620393596835"><ele>666.0</ele><time>2026-03-24T11:38:11.935Z</time></trkpt><trkpt lat="30.235923475501373" lon="-5.588807975704946"><ele>666.3333333333334</ele><time>2026-03-24T11:38:12.935Z</time></trkpt><trkpt lat="30.23600486502058" lon="-5.588860845453521"><ele>666.6666666666666</ele><time>2026-03-24T11:38:14.935Z</time></trkpt><trkpt lat="30.23605308916178" lon="-5.588910366034355"><ele>667.0</ele><time>2026-03-24T11:38:16.935Z</time></trkpt><trkpt lat="30.236050859579105" lon="-5.588994731928001"><ele>667.3333333333333</ele><time>2026-03-24T11:38:19.935Z</time></trkpt><trkpt lat="30.235981091317562" lon="-5.589053431691136"><ele>667.6666666666666</ele><time>2026-03-24T11:38:21.935Z</time></trkpt><trkpt lat="30.23591484238215" lon="-5.589083555133629"><ele>668.0</ele><time>2026-03-24T11:38:22.934Z</time></trkpt><trkpt lat="30.235834722044693" lon="-5.5891466283575"><ele>668.0</ele><time>2026-03-24T11:38:24.934Z</time></trkpt><trkpt lat="30.235774129777866" lon="-5.589197415527239"><ele>668.0</ele><time>2026-03-24T11:38:26.934Z</time></trkpt><trkpt lat="30.235714602085604" lon="-5.589247667789988"><ele>668.0</ele><time>2026-03-24T11:38:30.934Z</time></trkpt><trkpt lat="30.235658779733026" lon="-5.589294929511998"><ele>668.0</ele><time>2026-03-24T11:38:35.934Z</time></trkpt><trkpt lat="30.235630264242925" lon="-5.589367823544176"><ele>668.0</ele><time>2026-03-24T11:39:14.933Z</time></trkpt><trkpt lat="30.235637149992332" lon="-5.5894487402868185"><ele>668.0</ele><time>2026-03-24T11:39:15.933Z</time></trkpt><trkpt lat="30.23565745152747" lon="-5.5895497687195945"><ele>668.0</ele><time>2026-03-24T11:39:16.933Z</time></trkpt><trkpt lat="30.235676289392423" lon="-5.589656036558331"><ele>667.5999999999999</ele><time>2026-03-24T11:39:17.933Z</time></trkpt><trkpt lat="30.235700532241758" lon="-5.589771504180514"><ele>667.1999999999999</ele><time>2026-03-24T11:39:18.933Z</time></trkpt><trkpt lat="30.235723889815482" lon="-5.58988349511164"><ele>666.8</ele><time>2026-03-24T11:39:19.933Z</time></trkpt><trkpt lat="30.23574272363284" lon="-5.589991716373953"><ele>666.4</ele><time>2026-03-24T11:39:20.933Z</time></trkpt><trkpt lat="30.235762240476994" lon="-5.590101632960573"><ele>666.0</ele><time>2026-03-24T11:39:21.933Z</time></trkpt><trkpt lat="30.23577198185843" lon="-5.590207348898611"><ele>666.0</ele><time>2026-03-24T11:39:22.933Z</time></trkpt><trkpt lat="30.235782854058073" lon="-5.590325046082402"><ele>666.0</ele><time>2026-03-24T11:39:23.933Z</time></trkpt><trkpt lat="30.235809283308456" lon="-5.590455826480181"><ele>666.0</ele><time>2026-03-24T11:39:24.933Z</time></trkpt><trkpt lat="30.235838226667866" lon="-5.590598205437542"><ele>666.0</ele><time>2026-03-24T11:39:25.933Z</time></trkpt><trkpt lat="30.23587599054266" lon="-5.5907593353085305"><ele>665.75</ele><time>2026-03-24T11:39:26.933Z</time></trkpt><trkpt lat="30.235914157974406" lon="-5.5909275855573615"><ele>665.5</ele><time>2026-03-24T11:39:27.933Z</time></trkpt><trkpt lat="30.235968796007878" lon="-5.591074444131474"><ele>665.25</ele><time>2026-03-24T11:39:28.933Z</time></trkpt><trkpt lat="30.236034668587344" lon="-5.591211939249264"><ele>665.0</ele><time>2026-03-24T11:39:29.933Z</time></trkpt><trkpt lat="30.236116440222844" lon="-5.591358184668404"><ele>666.0</ele><time>2026-03-24T11:39:30.933Z</time></trkpt><trkpt lat="30.236202209721455" lon="-5.591518176900496"><ele>667.0</ele><time>2026-03-24T11:39:31.933Z</time></trkpt><trkpt lat="30.236275412310416" lon="-5.5916744414051465"><ele>668.0</ele><time>2026-03-24T11:39:32.933Z</time></trkpt><trkpt lat="30.23633968401676" lon="-5.5918180451382735"><ele>668.0</ele><time>2026-03-24T11:39:33.933Z</time></trkpt><trkpt lat="30.23640119469973" lon="-5.591957349369575"><ele>668.0</ele><time>2026-03-24T11:39:34.933Z</time></trkpt><trkpt lat="30.2364606672358" lon="-5.592090471978125"><ele>668.0</ele><time>2026-03-24T11:39:35.933Z</time></trkpt><trkpt lat="30.23652169072242" lon="-5.5922260552357015"><ele>668.0</ele><time>2026-03-24T11:39:36.933Z</time></trkpt><trkpt lat="30.23657614121341" lon="-5.592362037735434"><ele>667.25</ele><time>2026-03-24T11:39:37.933Z</time></trkpt><trkpt lat="30.236622302765834" lon="-5.592489536381856"><ele>666.5</ele><time>2026-03-24T11:39:38.933Z</time></trkpt><trkpt lat="30.236676567315286" lon="-5.592607270797661"><ele>665.75</ele><time>2026-03-24T11:39:39.933Z</time></trkpt><trkpt lat="30.236732781360157" lon="-5.592713884940701"><ele>665.0</ele><time>2026-03-24T11:39:40.933Z</time></trkpt><trkpt lat="30.23680162807999" lon="-5.592817898707446"><ele>665.4</ele><time>2026-03-24T11:39:41.933Z</time></trkpt><trkpt lat="30.236865295217733" lon="-5.592930958345753"><ele>665.8</ele><time>2026-03-24T11:39:42.933Z</time></trkpt><trkpt lat="30.236912227407775" lon="-5.5930425024540416"><ele>666.2</ele><time>2026-03-24T11:39:43.933Z</time></trkpt><trkpt lat="30.236951265321025" lon="-5.593159646280472"><ele>666.6</ele><time>2026-03-24T11:39:44.933Z</time></trkpt><trkpt lat="30.23698318479005" lon="-5.59328123786982"><ele>667.0</ele><time>2026-03-24T11:39:45.933Z</time></trkpt><trkpt lat="30.237022808076162" lon="-5.593384910731416"><ele>667.0</ele><time>2026-03-24T11:39:46.933Z</time></trkpt><trkpt lat="30.237057553175568" lon="-5.593496726221287"><ele>667.0</ele><time>2026-03-24T11:39:47.933Z</time></trkpt><trkpt lat="30.23709006558509" lon="-5.593631335522927"><ele>667.0</ele><time>2026-03-24T11:39:48.933Z</time></trkpt><trkpt lat="30.237128956289133" lon="-5.5937454829752085"><ele>667.0</ele><time>2026-03-24T11:39:49.933Z</time></trkpt><trkpt lat="30.23717414370561" lon="-5.593873731092716"><ele>667.0</ele><time>2026-03-24T11:39:50.933Z</time></trkpt><trkpt lat="30.23721480401325" lon="-5.5939971913057125"><ele>667.0</ele><time>2026-03-24T11:39:51.933Z</time></trkpt><trkpt lat="30.23724566275801" lon="-5.594115909053788"><ele>667.0</ele><time>2026-03-24T11:39:52.933Z</time></trkpt><trkpt lat="30.237275154682635" lon="-5.594230901519437"><ele>667.0</ele><time>2026-03-24T11:39:53.933Z</time></trkpt><trkpt lat="30.23729724230052" lon="-5.5943641237571935"><ele>667.0</ele><time>2026-03-24T11:39:54.933Z</time></trkpt><trkpt lat="30.23731440771819" lon="-5.594476425491898"><ele>667.0</ele><time>2026-03-24T11:39:55.933Z</time></trkpt><trkpt lat="30.237333903415536" lon="-5.594592101524034"><ele>667.2</ele><time>2026-03-24T11:39:56.933Z</time></trkpt><trkpt lat="30.23735061837451" lon="-5.594714081860697"><ele>667.4000000000001</ele><time>2026-03-24T11:39:57.933Z</time></trkpt><trkpt lat="30.23736354953816" lon="-5.5948235884622886"><ele>667.5999999999999</ele><time>2026-03-24T11:39:58.933Z</time></trkpt><trkpt lat="30.237372557195997" lon="-5.594921861552227"><ele>667.8</ele><time>2026-03-24T11:39:59.933Z</time></trkpt><trkpt lat="30.237383783476332" lon="-5.595020187126774"><ele>668.0</ele><time>2026-03-24T11:40:00.933Z</time></trkpt><trkpt lat="30.237410472832355" lon="-5.595126687855102"><ele>668.0</ele><time>2026-03-24T11:40:01.933Z</time></trkpt><trkpt lat="30.23745092960552" lon="-5.5952366530620825"><ele>668.0</ele><time>2026-03-24T11:40:02.933Z</time></trkpt><trkpt lat="30.237488242999884" lon="-5.595349239053586"><ele>668.0</ele><time>2026-03-24T11:40:03.933Z</time></trkpt><trkpt lat="30.23752098524917" lon="-5.595471966496381"><ele>668.0</ele><time>2026-03-24T11:40:04.933Z</time></trkpt><trkpt lat="30.237551584634943" lon="-5.59559664722723"><ele>668.0</ele><time>2026-03-24T11:40:05.933Z</time></trkpt><trkpt lat="30.237579285110954" lon="-5.595725274902783"><ele>668.2</ele><time>2026-03-24T11:40:06.933Z</time></trkpt><trkpt lat="30.23760666034845" lon="-5.595849442648302"><ele>668.4</ele><time>2026-03-24T11:40:07.933Z</time></trkpt><trkpt lat="30.23763687698042" lon="-5.595955761548403"><ele>668.6</ele><time>2026-03-24T11:40:08.933Z</time></trkpt><trkpt lat="30.23767105153511" lon="-5.596050096422546"><ele>668.8000000000001</ele><time>2026-03-24T11:40:09.933Z</time></trkpt><trkpt lat="30.237694854684733" lon="-5.596160646470884"><ele>669.0</ele><time>2026-03-24T11:40:10.933Z</time></trkpt><trkpt lat="30.23772649186308" lon="-5.596282330580797"><ele>669.0</ele><time>2026-03-24T11:40:11.933Z</time></trkpt><trkpt lat="30.237757864238347" lon="-5.59640622832151"><ele>669.0</ele><time>2026-03-24T11:40:12.933Z</time></trkpt><trkpt lat="30.237789219204014" lon="-5.596520644931439"><ele>669.0</ele><time>2026-03-24T11:40:13.933Z</time></trkpt><trkpt lat="30.23781161561385" lon="-5.59662112333272"><ele>669.0</ele><time>2026-03-24T11:40:14.933Z</time></trkpt><trkpt lat="30.237841047229704" lon="-5.596720547970159"><ele>669.0</ele><time>2026-03-24T11:40:15.933Z</time></trkpt><trkpt lat="30.237872441473975" lon="-5.5968306595396085"><ele>669.0</ele><time>2026-03-24T11:40:16.933Z</time></trkpt><trkpt lat="30.237894754318898" lon="-5.596950397269518"><ele>669.0</ele><time>2026-03-24T11:40:17.933Z</time></trkpt><trkpt lat="30.23790859616584" lon="-5.597081002989346"><ele>669.0</ele><time>2026-03-24T11:40:18.933Z</time></trkpt><trkpt lat="30.237915247880093" lon="-5.5972239930332774"><ele>669.0</ele><time>2026-03-24T11:40:19.933Z</time></trkpt><trkpt lat="30.237901990591343" lon="-5.597366532860273"><ele>668.8000000000001</ele><time>2026-03-24T11:40:20.933Z</time></trkpt><trkpt lat="30.237889660018023" lon="-5.59749511280067"><ele>668.6</ele><time>2026-03-24T11:40:21.933Z</time></trkpt><trkpt lat="30.23788722356113" lon="-5.597614801614485"><ele>668.4</ele><time>2026-03-24T11:40:22.933Z</time></trkpt><trkpt lat="30.237900210375226" lon="-5.597725869971821"><ele>668.2</ele><time>2026-03-24T11:40:23.933Z</time></trkpt><trkpt lat="30.237923005363875" lon="-5.597838939970127"><ele>668.0</ele><time>2026-03-24T11:40:24.933Z</time></trkpt><trkpt lat="30.237942110043438" lon="-5.597966854212849"><ele>667.8</ele><time>2026-03-24T11:40:25.933Z</time></trkpt><trkpt lat="30.237959695876107" lon="-5.5980926912219795"><ele>667.5999999999999</ele><time>2026-03-24T11:40:26.933Z</time></trkpt><trkpt lat="30.237971871754116" lon="-5.5982157668989405"><ele>667.4000000000001</ele><time>2026-03-24T11:40:27.933Z</time></trkpt><trkpt lat="30.23798278618273" lon="-5.598353212713197"><ele>667.2</ele><time>2026-03-24T11:40:28.933Z</time></trkpt><trkpt lat="30.237998424855764" lon="-5.598461124483621"><ele>667.0</ele><time>2026-03-24T11:40:29.933Z</time></trkpt><trkpt lat="30.238013407972765" lon="-5.598576375855972"><ele>667.8333333333334</ele><time>2026-03-24T11:40:30.933Z</time></trkpt><trkpt lat="30.23801777316206" lon="-5.598702104123915"><ele>668.6666666666667</ele><time>2026-03-24T11:40:31.933Z</time></trkpt><trkpt lat="30.238020060557517" lon="-5.598805271858801"><ele>669.5</ele><time>2026-03-24T11:40:32.933Z</time></trkpt><trkpt lat="30.23801829268407" lon="-5.598907625047028"><ele>670.3333333333334</ele><time>2026-03-24T11:40:33.933Z</time></trkpt><trkpt lat="30.238018240217208" lon="-5.599001360349273"><ele>671.1666666666666</ele><time>2026-03-24T11:40:34.933Z</time></trkpt><trkpt lat="30.238014966778607" lon="-5.599088537987874"><ele>672.0</ele><time>2026-03-24T11:40:35.933Z</time></trkpt><trkpt lat="30.238008409518216" lon="-5.599172803107507"><ele>672.0</ele><time>2026-03-24T11:40:36.933Z</time></trkpt><trkpt lat="30.23798357944752" lon="-5.599256966919049"><ele>672.0</ele><time>2026-03-24T11:40:37.933Z</time></trkpt><trkpt lat="30.237954187755868" lon="-5.599339398590895"><ele>672.0</ele><time>2026-03-24T11:40:38.933Z</time></trkpt><trkpt lat="30.237922735032452" lon="-5.59941298452129"><ele>672.0</ele><time>2026-03-24T11:40:39.933Z</time></trkpt><trkpt lat="30.237884978971717" lon="-5.599474494423867"><ele>672.0</ele><time>2026-03-24T11:40:40.933Z</time></trkpt><trkpt lat="30.237849085909158" lon="-5.599534406930751"><ele>672.0</ele><time>2026-03-24T11:40:41.933Z</time></trkpt><trkpt lat="30.237768580178667" lon="-5.599648353548333"><ele>671.8333333333334</ele><time>2026-03-24T11:40:43.933Z</time></trkpt><trkpt lat="30.237703634126586" lon="-5.59971110612599"><ele>671.6666666666666</ele><time>2026-03-24T11:40:44.933Z</time></trkpt><trkpt lat="30.237629866859788" lon="-5.59974912135349"><ele>671.5</ele><time>2026-03-24T11:40:45.933Z</time></trkpt><trkpt lat="30.237501995345987" lon="-5.599773587919054"><ele>671.3333333333333</ele><time>2026-03-24T11:40:47.933Z</time></trkpt><trkpt lat="30.23743810604116" lon="-5.599791564424856"><ele>671.1666666666666</ele><time>2026-03-24T11:40:48.933Z</time></trkpt><trkpt lat="30.237364102246243" lon="-5.599845049495204"><ele>671.0</ele><time>2026-03-24T11:40:49.933Z</time></trkpt><trkpt lat="30.237320148430687" lon="-5.599925447062644"><ele>671.0</ele><time>2026-03-24T11:40:50.933Z</time></trkpt><trkpt lat="30.237291302876567" lon="-5.600025767295047"><ele>671.0</ele><time>2026-03-24T11:40:51.933Z</time></trkpt><trkpt lat="30.237281578919298" lon="-5.600137626528733"><ele>671.0</ele><time>2026-03-24T11:40:52.933Z</time></trkpt><trkpt lat="30.237301873567" lon="-5.600258498560826"><ele>671.0</ele><time>2026-03-24T11:40:53.933Z</time></trkpt><trkpt lat="30.237329423370433" lon="-5.600372359700231"><ele>671.0</ele><time>2026-03-24T11:40:54.933Z</time></trkpt><trkpt lat="30.23734753028329" lon="-5.600492341189243"><ele>670.8</ele><time>2026-03-24T11:40:55.933Z</time></trkpt><trkpt lat="30.237369421074277" lon="-5.600625128011059"><ele>670.5999999999999</ele><time>2026-03-24T11:40:56.933Z</time></trkpt><trkpt lat="30.23738474741918" lon="-5.60075604954063"><ele>670.4</ele><time>2026-03-24T11:40:57.933Z</time></trkpt><trkpt lat="30.23739481322045" lon="-5.600872380626285"><ele>670.2</ele><time>2026-03-24T11:40:58.933Z</time></trkpt><trkpt lat="30.237412269049535" lon="-5.600972735076848"><ele>670.0</ele><time>2026-03-24T11:40:59.933Z</time></trkpt><trkpt lat="30.237427195794247" lon="-5.6010773864200765"><ele>670.4</ele><time>2026-03-24T11:41:00.933Z</time></trkpt><trkpt lat="30.23744263718293" lon="-5.601176703695815"><ele>670.8</ele><time>2026-03-24T11:41:01.933Z</time></trkpt><trkpt lat="30.237460705058616" lon="-5.601280903506769"><ele>671.2</ele><time>2026-03-24T11:41:02.933Z</time></trkpt><trkpt lat="30.237478978974952" lon="-5.601388918436251"><ele>671.6</ele><time>2026-03-24T11:41:03.932Z</time></trkpt><trkpt lat="30.23750493328746" lon="-5.601498826108159"><ele>672.0</ele><time>2026-03-24T11:41:04.932Z</time></trkpt><trkpt lat="30.2375227490153" lon="-5.601618059392162"><ele>672.0</ele><time>2026-03-24T11:41:05.932Z</time></trkpt><trkpt lat="30.23754160776472" lon="-5.601732348365007"><ele>672.0</ele><time>2026-03-24T11:41:06.932Z</time></trkpt><trkpt lat="30.23756279622488" lon="-5.601832511214071"><ele>672.0</ele><time>2026-03-24T11:41:07.932Z</time></trkpt><trkpt lat="30.237582388790802" lon="-5.601935280217728"><ele>672.0</ele><time>2026-03-24T11:41:08.933Z</time></trkpt><trkpt lat="30.23760334208061" lon="-5.602043090311354"><ele>672.0</ele><time>2026-03-24T11:41:09.932Z</time></trkpt><trkpt lat="30.237616802967075" lon="-5.602172520184147"><ele>671.5</ele><time>2026-03-24T11:41:10.932Z</time></trkpt><trkpt lat="30.237614402132586" lon="-5.602319589125732"><ele>671.0</ele><time>2026-03-24T11:41:11.932Z</time></trkpt><trkpt lat="30.237601246426628" lon="-5.602470279340352"><ele>670.5</ele><time>2026-03-24T11:41:12.932Z</time></trkpt><trkpt lat="30.237574083324873" lon="-5.602643613909909"><ele>670.0</ele><time>2026-03-24T11:41:13.932Z</time></trkpt><trkpt lat="30.23753406020441" lon="-5.602840958397873"><ele>670.0</ele><time>2026-03-24T11:41:14.932Z</time></trkpt><trkpt lat="30.23748587866648" lon="-5.6030277051813755"><ele>670.0</ele><time>2026-03-24T11:41:15.932Z</time></trkpt><trkpt lat="30.237437120597924" lon="-5.6031832037396425"><ele>670.0</ele><time>2026-03-24T11:41:16.932Z</time></trkpt><trkpt lat="30.237396845506233" lon="-5.6033276682665925"><ele>670.0</ele><time>2026-03-24T11:41:17.932Z</time></trkpt><trkpt lat="30.237356725646112" lon="-5.603489682884902"><ele>670.0</ele><time>2026-03-24T11:41:18.932Z</time></trkpt><trkpt lat="30.23731735766466" lon="-5.603651965048155"><ele>670.0</ele><time>2026-03-24T11:41:19.932Z</time></trkpt><trkpt lat="30.2372621069792" lon="-5.603810395585627"><ele>670.0</ele><time>2026-03-24T11:41:20.932Z</time></trkpt><trkpt lat="30.23720372233537" lon="-5.603963518516998"><ele>670.0</ele><time>2026-03-24T11:41:21.932Z</time></trkpt><trkpt lat="30.237172619876677" lon="-5.604101823909917"><ele>670.0</ele><time>2026-03-24T11:41:22.932Z</time></trkpt><trkpt lat="30.237147552560632" lon="-5.6042263807992505"><ele>670.0</ele><time>2026-03-24T11:41:23.932Z</time></trkpt><trkpt lat="30.237120362354535" lon="-5.604348153572913"><ele>670.0</ele><time>2026-03-24T11:41:24.932Z</time></trkpt><trkpt lat="30.237088671934455" lon="-5.604469758534988"><ele>670.0</ele><time>2026-03-24T11:41:25.932Z</time></trkpt><trkpt lat="30.23706141628105" lon="-5.604584651048885"><ele>670.0</ele><time>2026-03-24T11:41:26.932Z</time></trkpt><trkpt lat="30.23703624534508" lon="-5.6046911794835514"><ele>670.6</ele><time>2026-03-24T11:41:27.932Z</time></trkpt><trkpt lat="30.2370195213404" lon="-5.604815068940577"><ele>671.2</ele><time>2026-03-24T11:41:28.932Z</time></trkpt><trkpt lat="30.23700240321772" lon="-5.604917963437271"><ele>671.8</ele><time>2026-03-24T11:41:29.932Z</time></trkpt><trkpt lat="30.23697434574366" lon="-5.605019747562446"><ele>672.4</ele><time>2026-03-24T11:41:30.932Z</time></trkpt><trkpt lat="30.236926151174636" lon="-5.605120332472972"><ele>673.0</ele><time>2026-03-24T11:41:31.932Z</time></trkpt><trkpt lat="30.236858649669973" lon="-5.605216582881046"><ele>673.0</ele><time>2026-03-24T11:41:32.932Z</time></trkpt><trkpt lat="30.23678642432412" lon="-5.605317250102156"><ele>673.0</ele><time>2026-03-24T11:41:33.932Z</time></trkpt><trkpt lat="30.236724933502654" lon="-5.6054086397380365"><ele>673.0</ele><time>2026-03-24T11:41:34.932Z</time></trkpt><trkpt lat="30.236666548467298" lon="-5.6054905911809"><ele>673.0</ele><time>2026-03-24T11:41:35.932Z</time></trkpt><trkpt lat="30.236616434177392" lon="-5.605558683760185"><ele>673.0</ele><time>2026-03-24T11:41:36.932Z</time></trkpt><trkpt lat="30.236563762901323" lon="-5.605628023997108"><ele>673.3333333333334</ele><time>2026-03-24T11:41:37.932Z</time></trkpt><trkpt lat="30.236518006458574" lon="-5.605697458853457"><ele>673.6666666666667</ele><time>2026-03-24T11:41:38.932Z</time></trkpt><trkpt lat="30.23646151190688" lon="-5.6057696299149224"><ele>674.0</ele><time>2026-03-24T11:41:39.932Z</time></trkpt><trkpt lat="30.236407032186857" lon="-5.605837715076374"><ele>674.3333333333334</ele><time>2026-03-24T11:41:40.932Z</time></trkpt><trkpt lat="30.236351054623558" lon="-5.605912719680334"><ele>674.6666666666666</ele><time>2026-03-24T11:41:41.932Z</time></trkpt><trkpt lat="30.23629949343099" lon="-5.6059811891304605"><ele>675.0</ele><time>2026-03-24T11:41:42.932Z</time></trkpt><trkpt lat="30.236251372059748" lon="-5.606040576197793"><ele>675.1666666666666</ele><time>2026-03-24T11:41:43.932Z</time></trkpt><trkpt lat="30.23620185591083" lon="-5.606105807877864"><ele>675.3333333333334</ele><time>2026-03-24T11:41:44.932Z</time></trkpt><trkpt lat="30.236145584831775" lon="-5.606180749179706"><ele>675.5</ele><time>2026-03-24T11:41:45.932Z</time></trkpt><trkpt lat="30.236086855309953" lon="-5.606259320721549"><ele>675.6666666666667</ele><time>2026-03-24T11:41:46.932Z</time></trkpt><trkpt lat="30.236029433361796" lon="-5.606339355648004"><ele>675.8333333333334</ele><time>2026-03-24T11:41:47.932Z</time></trkpt><trkpt lat="30.235975008126605" lon="-5.606419564391987"><ele>676.0</ele><time>2026-03-24T11:41:48.932Z</time></trkpt><trkpt lat="30.23592404074883" lon="-5.60650297223807"><ele>675.8333333333334</ele><time>2026-03-24T11:41:49.932Z</time></trkpt><trkpt lat="30.23586630051067" lon="-5.60659074971067"><ele>675.6666666666667</ele><time>2026-03-24T11:41:50.932Z</time></trkpt><trkpt lat="30.23581787964531" lon="-5.606662762026792"><ele>675.5</ele><time>2026-03-24T11:41:51.932Z</time></trkpt><trkpt lat="30.235776049422693" lon="-5.606735428181683"><ele>675.3333333333334</ele><time>2026-03-24T11:41:52.932Z</time></trkpt><trkpt lat="30.235732323034583" lon="-5.606818654497095"><ele>675.1666666666666</ele><time>2026-03-24T11:41:53.932Z</time></trkpt><trkpt lat="30.23569996312752" lon="-5.606911837758801"><ele>675.0</ele><time>2026-03-24T11:41:54.932Z</time></trkpt><trkpt lat="30.235675054293964" lon="-5.607013058391181"><ele>675.0</ele><time>2026-03-24T11:41:55.932Z</time></trkpt><trkpt lat="30.235656206415193" lon="-5.607120807832396"><ele>675.0</ele><time>2026-03-24T11:41:56.932Z</time></trkpt><trkpt lat="30.23564434289109" lon="-5.607221965733167"><ele>675.0</ele><time>2026-03-24T11:41:57.932Z</time></trkpt><trkpt lat="30.235638031638878" lon="-5.6073150189117005"><ele>675.0</ele><time>2026-03-24T11:41:58.932Z</time></trkpt><trkpt lat="30.235633805479065" lon="-5.607408248501896"><ele>675.0</ele><time>2026-03-24T11:41:59.932Z</time></trkpt><trkpt lat="30.235633126548272" lon="-5.607490979603231"><ele>675.0</ele><time>2026-03-24T11:42:00.932Z</time></trkpt><trkpt lat="30.235648804954092" lon="-5.607568234820687"><ele>675.0</ele><time>2026-03-24T11:42:01.932Z</time></trkpt><trkpt lat="30.23568315778588" lon="-5.607646571935608"><ele>675.0</ele><time>2026-03-24T11:42:02.932Z</time></trkpt><trkpt lat="30.23573559608287" lon="-5.607740226857448"><ele>675.0</ele><time>2026-03-24T11:42:03.932Z</time></trkpt><trkpt lat="30.23578879343119" lon="-5.607845609754684"><ele>675.0</ele><time>2026-03-24T11:42:04.932Z</time></trkpt><trkpt lat="30.235850112644506" lon="-5.607960670862345"><ele>675.0</ele><time>2026-03-24T11:42:05.932Z</time></trkpt><trkpt lat="30.235915246191013" lon="-5.608083525230858"><ele>674.25</ele><time>2026-03-24T11:42:06.932Z</time></trkpt><trkpt lat="30.235992000422137" lon="-5.608207031809837"><ele>673.5</ele><time>2026-03-24T11:42:07.932Z</time></trkpt><trkpt lat="30.236064351043666" lon="-5.608324387968426"><ele>672.75</ele><time>2026-03-24T11:42:08.932Z</time></trkpt><trkpt lat="30.23612557408193" lon="-5.608427272349423"><ele>672.0</ele><time>2026-03-24T11:42:09.932Z</time></trkpt><trkpt lat="30.236185851875216" lon="-5.608533262032574"><ele>672.0</ele><time>2026-03-24T11:42:10.932Z</time></trkpt><trkpt lat="30.236239142942573" lon="-5.608633509042048"><ele>672.0</ele><time>2026-03-24T11:42:11.932Z</time></trkpt><trkpt lat="30.23628605506675" lon="-5.608725516986282"><ele>672.0</ele><time>2026-03-24T11:42:12.932Z</time></trkpt><trkpt lat="30.236330502871432" lon="-5.608811493561917"><ele>672.0</ele><time>2026-03-24T11:42:13.932Z</time></trkpt><trkpt lat="30.23637183545078" lon="-5.6088873955307585"><ele>672.0</ele><time>2026-03-24T11:42:14.932Z</time></trkpt><trkpt lat="30.23640964058549" lon="-5.608957401712629"><ele>672.0</ele><time>2026-03-24T11:42:15.932Z</time></trkpt><trkpt lat="30.236455103404857" lon="-5.609066888067613"><ele>672.0</ele><time>2026-03-24T11:42:17.932Z</time></trkpt><trkpt lat="30.236477433924065" lon="-5.609136397093772"><ele>672.0</ele><time>2026-03-24T11:42:19.932Z</time></trkpt><trkpt lat="30.236482166922293" lon="-5.609234398421117"><ele>672.0</ele><time>2026-03-24T11:43:21.931Z</time></trkpt><trkpt lat="30.23641441152579" lon="-5.60926462743128"><ele>672.0</ele><time>2026-03-24T11:43:23.931Z</time></trkpt><trkpt lat="30.236325560571682" lon="-5.609197362108768"><ele>672.0</ele><time>2026-03-24T11:43:25.931Z</time></trkpt><trkpt lat="30.23627992087296" lon="-5.609120141343044"><ele>672.0</ele><time>2026-03-24T11:43:26.931Z</time></trkpt><trkpt lat="30.23624676795539" lon="-5.60904707898439"><ele>672.0</ele><time>2026-03-24T11:43:27.931Z</time></trkpt><trkpt lat="30.236194246811767" lon="-5.60893079357476"><ele>672.0</ele><time>2026-03-24T11:43:29.931Z</time></trkpt><trkpt lat="30.236147783670724" lon="-5.608863561676937"><ele>672.0</ele><time>2026-03-24T11:43:30.931Z</time></trkpt><trkpt lat="30.236095291947656" lon="-5.608785537729603"><ele>672.0</ele><time>2026-03-24T11:43:31.931Z</time></trkpt><trkpt lat="30.23602336566156" lon="-5.608685520865134"><ele>672.0</ele><time>2026-03-24T11:43:32.931Z</time></trkpt><trkpt lat="30.235932208259257" lon="-5.608548014028621"><ele>672.0</ele><time>2026-03-24T11:43:33.931Z</time></trkpt><trkpt lat="30.23583426698843" lon="-5.608411623094482"><ele>672.0</ele><time>2026-03-24T11:43:34.931Z</time></trkpt><trkpt lat="30.235730808366096" lon="-5.608295839461145"><ele>672.0</ele><time>2026-03-24T11:43:35.931Z</time></trkpt><trkpt lat="30.23562600669438" lon="-5.6082290011286196"><ele>672.0</ele><time>2026-03-24T11:43:36.931Z</time></trkpt><trkpt lat="30.23552159973636" lon="-5.608206399556183"><ele>671.75</ele><time>2026-03-24T11:43:37.931Z</time></trkpt><trkpt lat="30.235407081995504" lon="-5.608221270148059"><ele>671.5</ele><time>2026-03-24T11:43:38.931Z</time></trkpt><trkpt lat="30.23527859998233" lon="-5.608270968619417"><ele>671.25</ele><time>2026-03-24T11:43:39.931Z</time></trkpt><trkpt lat="30.23513268757069" lon="-5.608358092547162"><ele>671.0</ele><time>2026-03-24T11:43:40.931Z</time></trkpt><trkpt lat="30.23499347842242" lon="-5.608466453176024"><ele>671.0</ele><time>2026-03-24T11:43:41.931Z</time></trkpt><trkpt lat="30.234866947733256" lon="-5.608581045653874"><ele>671.0</ele><time>2026-03-24T11:43:42.931Z</time></trkpt><trkpt lat="30.234739468863218" lon="-5.608706443075812"><ele>671.0</ele><time>2026-03-24T11:43:43.931Z</time></trkpt><trkpt lat="30.234607358004006" lon="-5.608853633264743"><ele>672.6666666666666</ele><time>2026-03-24T11:43:44.931Z</time></trkpt><trkpt lat="30.234460786191978" lon="-5.609030383646704"><ele>674.3333333333334</ele><time>2026-03-24T11:43:45.931Z</time></trkpt><trkpt lat="30.234296985643557" lon="-5.6092196642828025"><ele>676.0</ele><time>2026-03-24T11:43:46.931Z</time></trkpt><trkpt lat="30.234131297423975" lon="-5.609423223457347"><ele>675.0</ele><time>2026-03-24T11:43:47.931Z</time></trkpt><trkpt lat="30.233975715884288" lon="-5.609628432749973"><ele>674.0</ele><time>2026-03-24T11:43:48.931Z</time></trkpt><trkpt lat="30.233813641853605" lon="-5.609851263658668"><ele>673.0</ele><time>2026-03-24T11:43:49.931Z</time></trkpt><trkpt lat="30.23364934100144" lon="-5.610090413481987"><ele>672.0</ele><time>2026-03-24T11:43:50.931Z</time></trkpt><trkpt lat="30.233488244665992" lon="-5.610340172095639"><ele>672.0</ele><time>2026-03-24T11:43:51.931Z</time></trkpt><trkpt lat="30.233338218164203" lon="-5.610551792598175"><ele>672.0</ele><time>2026-03-24T11:43:52.931Z</time></trkpt><trkpt lat="30.233199614174662" lon="-5.610710539023923"><ele>672.0</ele><time>2026-03-24T11:43:53.931Z</time></trkpt><trkpt lat="30.23299224666535" lon="-5.610762960892777"><ele>672.0</ele><time>2026-03-24T11:43:54.931Z</time></trkpt><trkpt lat="30.232866192044384" lon="-5.610920618835584"><ele>672.0</ele><time>2026-03-24T11:43:55.931Z</time></trkpt><trkpt lat="30.23274550099979" lon="-5.611072164689087"><ele>672.0</ele><time>2026-03-24T11:43:56.931Z</time></trkpt><trkpt lat="30.232636538208386" lon="-5.611209827780254"><ele>672.0</ele><time>2026-03-24T11:43:57.931Z</time></trkpt><trkpt lat="30.232532268802125" lon="-5.611342850089218"><ele>672.0</ele><time>2026-03-24T11:43:58.931Z</time></trkpt><trkpt lat="30.23243213562122" lon="-5.611470912807525"><ele>672.0</ele><time>2026-03-24T11:43:59.931Z</time></trkpt><trkpt lat="30.2323321102987" lon="-5.611598837571893"><ele>672.5</ele><time>2026-03-24T11:44:00.931Z</time></trkpt><trkpt lat="30.23224469695807" lon="-5.611710632592001"><ele>673.0</ele><time>2026-03-24T11:44:01.931Z</time></trkpt><trkpt lat="30.23215863733791" lon="-5.611814395727982"><ele>673.5</ele><time>2026-03-24T11:44:02.931Z</time></trkpt><trkpt lat="30.232088981089014" lon="-5.611909320581367"><ele>674.0</ele><time>2026-03-24T11:44:03.931Z</time></trkpt><trkpt lat="30.232034390597292" lon="-5.612000869492108"><ele>674.0</ele><time>2026-03-24T11:44:04.931Z</time></trkpt><trkpt lat="30.231996502920794" lon="-5.612101408729844"><ele>674.0</ele><time>2026-03-24T11:44:05.931Z</time></trkpt><trkpt lat="30.23196141389709" lon="-5.612181712822181"><ele>674.0</ele><time>2026-03-24T11:44:06.931Z</time></trkpt><trkpt lat="30.23198349097743" lon="-5.612332332670491"><ele>674.0</ele><time>2026-03-24T11:44:08.931Z</time></trkpt><trkpt lat="30.23203631157283" lon="-5.612445875924582"><ele>674.0</ele><time>2026-03-24T11:44:09.931Z</time></trkpt><trkpt lat="30.23210656293471" lon="-5.612575272552911"><ele>674.0</ele><time>2026-03-24T11:44:10.931Z</time></trkpt><trkpt lat="30.232179832586386" lon="-5.612711877567075"><ele>674.0</ele><time>2026-03-24T11:44:11.931Z</time></trkpt><trkpt lat="30.232247628347885" lon="-5.612847778247475"><ele>674.0</ele><time>2026-03-24T11:44:12.931Z</time></trkpt><trkpt lat="30.232299360421933" lon="-5.612980476947342"><ele>674.0</ele><time>2026-03-24T11:44:13.931Z</time></trkpt><trkpt lat="30.23235640274785" lon="-5.6131116532986765"><ele>674.0</ele><time>2026-03-24T11:44:14.931Z</time></trkpt><trkpt lat="30.23241623791541" lon="-5.613255710248906"><ele>674.0</ele><time>2026-03-24T11:44:15.931Z</time></trkpt><trkpt lat="30.232485312480446" lon="-5.613405940026853"><ele>674.0</ele><time>2026-03-24T11:44:16.931Z</time></trkpt><trkpt lat="30.23256280945974" lon="-5.613579544054487"><ele>674.3333333333333</ele><time>2026-03-24T11:44:17.931Z</time></trkpt><trkpt lat="30.232641100798393" lon="-5.613767442056763"><ele>674.6666666666666</ele><time>2026-03-24T11:44:18.931Z</time></trkpt><trkpt lat="30.232727560346646" lon="-5.6139615145398425"><ele>675.0</ele><time>2026-03-24T11:44:19.931Z</time></trkpt><trkpt lat="30.23281939666262" lon="-5.614164808931101"><ele>675.0</ele><time>2026-03-24T11:44:20.931Z</time></trkpt><trkpt lat="30.232911977303754" lon="-5.614367414987321"><ele>675.0</ele><time>2026-03-24T11:44:21.931Z</time></trkpt><trkpt lat="30.233005752819956" lon="-5.614565834855738"><ele>675.0</ele><time>2026-03-24T11:44:22.931Z</time></trkpt><trkpt lat="30.233088948742573" lon="-5.614748011354252"><ele>674.0</ele><time>2026-03-24T11:44:23.931Z</time></trkpt><trkpt lat="30.233167591666916" lon="-5.61493638733346"><ele>673.0</ele><time>2026-03-24T11:44:24.931Z</time></trkpt><trkpt lat="30.233243616238635" lon="-5.615116778836642"><ele>672.0</ele><time>2026-03-24T11:44:25.931Z</time></trkpt><trkpt lat="30.233327216281594" lon="-5.615298719559595"><ele>672.3333333333334</ele><time>2026-03-24T11:44:26.931Z</time></trkpt><trkpt lat="30.23340343767521" lon="-5.615473999242112"><ele>672.6666666666667</ele><time>2026-03-24T11:44:27.931Z</time></trkpt><trkpt lat="30.23348898642147" lon="-5.615652181467776"><ele>673.0</ele><time>2026-03-24T11:44:28.931Z</time></trkpt><trkpt lat="30.233567188067543" lon="-5.615833823404857"><ele>673.0</ele><time>2026-03-24T11:44:29.931Z</time></trkpt><trkpt lat="30.23365645778259" lon="-5.616023688699528"><ele>673.0</ele><time>2026-03-24T11:44:30.931Z</time></trkpt><trkpt lat="30.233740390981218" lon="-5.6162109853472435"><ele>673.0</ele><time>2026-03-24T11:44:31.931Z</time></trkpt><trkpt lat="30.23382235276845" lon="-5.6164018377429255"><ele>673.3333333333334</ele><time>2026-03-24T11:44:32.931Z</time></trkpt><trkpt lat="30.233908171049446" lon="-5.6165968773717"><ele>673.6666666666666</ele><time>2026-03-24T11:44:33.931Z</time></trkpt><trkpt lat="30.23399890243812" lon="-5.616793251009252"><ele>674.0</ele><time>2026-03-24T11:44:34.931Z</time></trkpt><trkpt lat="30.234092826219005" lon="-5.616993165896446"><ele>674.3333333333333</ele><time>2026-03-24T11:44:35.931Z</time></trkpt><trkpt lat="30.23418645454513" lon="-5.61719598181289"><ele>674.6666666666666</ele><time>2026-03-24T11:44:36.931Z</time></trkpt><trkpt lat="30.234278568818997" lon="-5.617402384312639"><ele>675.0</ele><time>2026-03-24T11:44:37.931Z</time></trkpt><trkpt lat="30.234370151153296" lon="-5.617610631189964"><ele>675.3333333333334</ele><time>2026-03-24T11:44:38.931Z</time></trkpt><trkpt lat="30.234461638852444" lon="-5.617821888548749"><ele>675.6666666666667</ele><time>2026-03-24T11:44:39.931Z</time></trkpt><trkpt lat="30.234555416929712" lon="-5.618034429579234"><ele>676.0</ele><time>2026-03-24T11:44:40.931Z</time></trkpt><trkpt lat="30.23464694735026" lon="-5.6182445665194445"><ele>676.0</ele><time>2026-03-24T11:44:41.93Z</time></trkpt><trkpt lat="30.23473792795886" lon="-5.618450084711911"><ele>676.0</ele><time>2026-03-24T11:44:42.93Z</time></trkpt><trkpt lat="30.234827868473367" lon="-5.618650347195077"><ele>676.0</ele><time>2026-03-24T11:44:43.93Z</time></trkpt><trkpt lat="30.234914951614066" lon="-5.618850364700508"><ele>675.0</ele><time>2026-03-24T11:44:44.93Z</time></trkpt><trkpt lat="30.235003927858823" lon="-5.619052727196216"><ele>674.0</ele><time>2026-03-24T11:44:45.93Z</time></trkpt><trkpt lat="30.23509444117098" lon="-5.619257765253951"><ele>673.0</ele><time>2026-03-24T11:44:46.93Z</time></trkpt><trkpt lat="30.235188191993238" lon="-5.619464586210099"><ele>673.3333333333334</ele><time>2026-03-24T11:44:47.93Z</time></trkpt><trkpt lat="30.235283668951837" lon="-5.619671061342176"><ele>673.6666666666666</ele><time>2026-03-24T11:44:48.93Z</time></trkpt><trkpt lat="30.23537565238421" lon="-5.619879942431096"><ele>674.0</ele><time>2026-03-24T11:44:49.93Z</time></trkpt><trkpt lat="30.235477628545787" lon="-5.6200932608503695"><ele>674.0</ele><time>2026-03-24T11:44:50.93Z</time></trkpt><trkpt lat="30.23557400924845" lon="-5.620305314235899"><ele>674.0</ele><time>2026-03-24T11:44:51.93Z</time></trkpt><trkpt lat="30.23566798999195" lon="-5.620517329291595"><ele>674.0</ele><time>2026-03-24T11:44:52.93Z</time></trkpt><trkpt lat="30.23576544581994" lon="-5.620734178707227"><ele>674.0</ele><time>2026-03-24T11:44:53.93Z</time></trkpt><trkpt lat="30.235859583585444" lon="-5.620946775251274"><ele>674.0</ele><time>2026-03-24T11:44:54.93Z</time></trkpt><trkpt lat="30.23595709163565" lon="-5.621160284126535"><ele>674.0</ele><time>2026-03-24T11:44:55.93Z</time></trkpt><trkpt lat="30.236052230714883" lon="-5.621378388424444"><ele>674.3333333333333</ele><time>2026-03-24T11:44:56.93Z</time></trkpt><trkpt lat="30.23614734651032" lon="-5.621595206626041"><ele>674.6666666666666</ele><time>2026-03-24T11:44:57.93Z</time></trkpt><trkpt lat="30.23624668691652" lon="-5.621812181976374"><ele>675.0</ele><time>2026-03-24T11:44:58.93Z</time></trkpt><trkpt lat="30.23634421539361" lon="-5.622030328792779"><ele>675.0</ele><time>2026-03-24T11:44:59.93Z</time></trkpt><trkpt lat="30.236436817347656" lon="-5.622247078022536"><ele>675.0</ele><time>2026-03-24T11:45:00.93Z</time></trkpt><trkpt lat="30.236533395657034" lon="-5.622464738549638"><ele>675.0</ele><time>2026-03-24T11:45:01.93Z</time></trkpt><trkpt lat="30.236630387263578" lon="-5.622682454550035"><ele>675.0</ele><time>2026-03-24T11:45:02.93Z</time></trkpt><trkpt lat="30.236729376041687" lon="-5.62290262588677"><ele>675.0</ele><time>2026-03-24T11:45:03.93Z</time></trkpt><trkpt lat="30.236830156980435" lon="-5.623123114556933"><ele>675.0</ele><time>2026-03-24T11:45:04.93Z</time></trkpt><trkpt lat="30.236929058637116" lon="-5.623340159257952"><ele>675.0</ele><time>2026-03-24T11:45:05.93Z</time></trkpt><trkpt lat="30.237032760302153" lon="-5.623561676411602"><ele>675.0</ele><time>2026-03-24T11:45:06.93Z</time></trkpt><trkpt lat="30.2371354625213" lon="-5.623786926546965"><ele>675.0</ele><time>2026-03-24T11:45:07.93Z</time></trkpt><trkpt lat="30.237230974760532" lon="-5.624001773123033"><ele>675.3333333333334</ele><time>2026-03-24T11:45:08.93Z</time></trkpt><trkpt lat="30.23732719106938" lon="-5.62421540223943"><ele>675.6666666666667</ele><time>2026-03-24T11:45:09.93Z</time></trkpt><trkpt lat="30.237426443148955" lon="-5.6244307688207025"><ele>676.0</ele><time>2026-03-24T11:45:10.93Z</time></trkpt><trkpt lat="30.237521485449356" lon="-5.624646663816701"><ele>676.0</ele><time>2026-03-24T11:45:11.93Z</time></trkpt><trkpt lat="30.237616737411816" lon="-5.624861608900321"><ele>676.0</ele><time>2026-03-24T11:45:12.93Z</time></trkpt><trkpt lat="30.237712147567375" lon="-5.62508309284973"><ele>676.0</ele><time>2026-03-24T11:45:13.93Z</time></trkpt><trkpt lat="30.237808490673412" lon="-5.625308312491036"><ele>676.3333333333334</ele><time>2026-03-24T11:45:14.931Z</time></trkpt><trkpt lat="30.23789947188584" lon="-5.625520510015616"><ele>676.6666666666666</ele><time>2026-03-24T11:45:15.931Z</time></trkpt><trkpt lat="30.237990393034735" lon="-5.625732323109005"><ele>677.0</ele><time>2026-03-24T11:45:16.931Z</time></trkpt><trkpt lat="30.23808183760435" lon="-5.625946082851622"><ele>676.0</ele><time>2026-03-24T11:45:17.931Z</time></trkpt><trkpt lat="30.23817394763843" lon="-5.626166899294786"><ele>675.0</ele><time>2026-03-24T11:45:18.93Z</time></trkpt><trkpt lat="30.238267049377164" lon="-5.626386453738349"><ele>674.0</ele><time>2026-03-24T11:45:19.93Z</time></trkpt><trkpt lat="30.23836039879013" lon="-5.626611799923823"><ele>674.0</ele><time>2026-03-24T11:45:20.931Z</time></trkpt><trkpt lat="30.238455610821983" lon="-5.626830437166965"><ele>674.0</ele><time>2026-03-24T11:45:21.93Z</time></trkpt><trkpt lat="30.23854795272968" lon="-5.627039349759181"><ele>674.0</ele><time>2026-03-24T11:45:22.93Z</time></trkpt><trkpt lat="30.238639947612032" lon="-5.627252136592689"><ele>674.6666666666666</ele><time>2026-03-24T11:45:23.93Z</time></trkpt><trkpt lat="30.238729649842654" lon="-5.6274646680716645"><ele>675.3333333333334</ele><time>2026-03-24T11:45:24.931Z</time></trkpt><trkpt lat="30.238817993542618" lon="-5.62767500112687"><ele>676.0</ele><time>2026-03-24T11:45:25.931Z</time></trkpt><trkpt lat="30.23890614765322" lon="-5.627880128584338"><ele>676.3333333333334</ele><time>2026-03-24T11:45:26.93Z</time></trkpt><trkpt lat="30.238997010589344" lon="-5.62808901110884"><ele>676.6666666666666</ele><time>2026-03-24T11:45:27.931Z</time></trkpt><trkpt lat="30.239091368662592" lon="-5.628299782893338"><ele>677.0</ele><time>2026-03-24T11:45:28.931Z</time></trkpt><trkpt lat="30.239184532611745" lon="-5.628515095395008"><ele>677.3333333333333</ele><time>2026-03-24T11:45:29.931Z</time></trkpt><trkpt lat="30.239276742864945" lon="-5.628730765210315"><ele>677.6666666666666</ele><time>2026-03-24T11:45:30.931Z</time></trkpt><trkpt lat="30.2393690364141" lon="-5.628944240845485"><ele>678.0</ele><time>2026-03-24T11:45:31.931Z</time></trkpt><trkpt lat="30.239458433565964" lon="-5.629155283731271"><ele>678.0</ele><time>2026-03-24T11:45:32.931Z</time></trkpt><trkpt lat="30.23954426077612" lon="-5.629365181543564"><ele>678.0</ele><time>2026-03-24T11:45:33.931Z</time></trkpt><trkpt lat="30.23963178218677" lon="-5.629569962024251"><ele>678.0</ele><time>2026-03-24T11:45:34.931Z</time></trkpt><trkpt lat="30.239721817946222" lon="-5.629776574993468"><ele>678.3333333333334</ele><time>2026-03-24T11:45:35.931Z</time></trkpt><trkpt lat="30.239810608751107" lon="-5.629988200562368"><ele>678.6666666666667</ele><time>2026-03-24T11:45:36.931Z</time></trkpt><trkpt lat="30.239900024224855" lon="-5.630196534528989"><ele>679.0</ele><time>2026-03-24T11:45:37.931Z</time></trkpt><trkpt lat="30.239989169857697" lon="-5.6304050327773165"><ele>679.3333333333334</ele><time>2026-03-24T11:45:38.931Z</time></trkpt><trkpt lat="30.2400789875279" lon="-5.630620149228801"><ele>679.6666666666666</ele><time>2026-03-24T11:45:39.931Z</time></trkpt><trkpt lat="30.240169529309412" lon="-5.630833907864409"><ele>680.0</ele><time>2026-03-24T11:45:40.931Z</time></trkpt><trkpt lat="30.24026235984477" lon="-5.631050953861247"><ele>680.0</ele><time>2026-03-24T11:45:41.931Z</time></trkpt><trkpt lat="30.24034886415115" lon="-5.631255353268843"><ele>680.0</ele><time>2026-03-24T11:45:42.931Z</time></trkpt><trkpt lat="30.240433541474246" lon="-5.6314501904490735"><ele>680.0</ele><time>2026-03-24T11:45:43.931Z</time></trkpt><trkpt lat="30.240518172288017" lon="-5.631639725535901"><ele>680.0</ele><time>2026-03-24T11:45:44.931Z</time></trkpt><trkpt lat="30.240603303498546" lon="-5.631834147172177"><ele>680.0</ele><time>2026-03-24T11:45:45.931Z</time></trkpt><trkpt lat="30.240686961943986" lon="-5.632025764038687"><ele>680.0</ele><time>2026-03-24T11:45:46.931Z</time></trkpt><trkpt lat="30.240765956418517" lon="-5.632221284786048"><ele>679.6666666666666</ele><time>2026-03-24T11:45:47.931Z</time></trkpt><trkpt lat="30.240843882335977" lon="-5.632421441190685"><ele>679.3333333333334</ele><time>2026-03-24T11:45:48.931Z</time></trkpt><trkpt lat="30.24091682543069" lon="-5.632632858995766"><ele>679.0</ele><time>2026-03-24T11:45:49.931Z</time></trkpt><trkpt lat="30.240979308873523" lon="-5.6328481991557995"><ele>679.0</ele><time>2026-03-24T11:45:50.931Z</time></trkpt><trkpt lat="30.24103763193777" lon="-5.633062208695189"><ele>679.0</ele><time>2026-03-24T11:45:51.931Z</time></trkpt><trkpt lat="30.24109265052518" lon="-5.633282176471674"><ele>679.0</ele><time>2026-03-24T11:45:52.931Z</time></trkpt><trkpt lat="30.241145635805672" lon="-5.633505886543962"><ele>679.0</ele><time>2026-03-24T11:45:53.931Z</time></trkpt><trkpt lat="30.241197836686787" lon="-5.633729307391894"><ele>679.0</ele><time>2026-03-24T11:45:54.931Z</time></trkpt><trkpt lat="30.241247517511102" lon="-5.633953155582608"><ele>679.0</ele><time>2026-03-24T11:45:55.931Z</time></trkpt><trkpt lat="30.241294813235484" lon="-5.6341752775440535"><ele>679.0</ele><time>2026-03-24T11:45:56.931Z</time></trkpt><trkpt lat="30.24133912508743" lon="-5.634382120622481"><ele>679.0</ele><time>2026-03-24T11:45:57.931Z</time></trkpt><trkpt lat="30.241379961714276" lon="-5.634575555668152"><ele>679.0</ele><time>2026-03-24T11:45:58.931Z</time></trkpt><trkpt lat="30.24141668862703" lon="-5.634754876712849"><ele>678.6666666666667</ele><time>2026-03-24T11:45:59.931Z</time></trkpt><trkpt lat="30.241458578867025" lon="-5.634938726761577"><ele>678.3333333333334</ele><time>2026-03-24T11:46:00.931Z</time></trkpt><trkpt lat="30.241504393222815" lon="-5.635128749709985"><ele>678.0</ele><time>2026-03-24T11:46:01.931Z</time></trkpt><trkpt lat="30.241550346451515" lon="-5.635330605706625"><ele>677.6666666666666</ele><time>2026-03-24T11:46:02.931Z</time></trkpt><trkpt lat="30.241597039137446" lon="-5.635552993902026"><ele>677.3333333333333</ele><time>2026-03-24T11:46:03.931Z</time></trkpt><trkpt lat="30.241647553067956" lon="-5.635778761876336"><ele>677.0</ele><time>2026-03-24T11:46:04.931Z</time></trkpt><trkpt lat="30.241701997731916" lon="-5.636009164201946"><ele>678.0</ele><time>2026-03-24T11:46:05.931Z</time></trkpt><trkpt lat="30.241757671528926" lon="-5.636238705777981"><ele>679.0</ele><time>2026-03-24T11:46:06.931Z</time></trkpt><trkpt lat="30.241818319746248" lon="-5.63646325516665"><ele>680.0</ele><time>2026-03-24T11:46:07.931Z</time></trkpt><trkpt lat="30.241892775956405" lon="-5.636694764865345"><ele>680.0</ele><time>2026-03-24T11:46:08.931Z</time></trkpt><trkpt lat="30.241973148632184" lon="-5.6369328637357015"><ele>680.0</ele><time>2026-03-24T11:46:09.931Z</time></trkpt><trkpt lat="30.24205645125918" lon="-5.6371757942432135"><ele>680.0</ele><time>2026-03-24T11:46:10.931Z</time></trkpt><trkpt lat="30.242142248747317" lon="-5.637420113217803"><ele>679.5</ele><time>2026-03-24T11:46:11.931Z</time></trkpt><trkpt lat="30.24222830394693" lon="-5.6376678734607735"><ele>679.0</ele><time>2026-03-24T11:46:12.931Z</time></trkpt><trkpt lat="30.242311039296325" lon="-5.637904746401357"><ele>679.0</ele><time>2026-03-24T11:46:13.931Z</time></trkpt><trkpt lat="30.242394207359858" lon="-5.638135875201954"><ele>679.0</ele><time>2026-03-24T11:46:14.931Z</time></trkpt><trkpt lat="30.242475914898137" lon="-5.638363060563609"><ele>679.0</ele><time>2026-03-24T11:46:15.931Z</time></trkpt><trkpt lat="30.242554665667907" lon="-5.6385796065264815"><ele>679.0</ele><time>2026-03-24T11:46:16.931Z</time></trkpt><trkpt lat="30.242633245811916" lon="-5.638794841637214"><ele>679.0</ele><time>2026-03-24T11:46:17.931Z</time></trkpt><trkpt lat="30.242707277183726" lon="-5.638995521032443"><ele>679.0</ele><time>2026-03-24T11:46:18.931Z</time></trkpt><trkpt lat="30.242779360638036" lon="-5.639189826323115"><ele>679.0</ele><time>2026-03-24T11:46:19.931Z</time></trkpt><trkpt lat="30.242852703492495" lon="-5.63939647157102"><ele>679.0</ele><time>2026-03-24T11:46:20.931Z</time></trkpt><trkpt lat="30.242926465764036" lon="-5.639592084882918"><ele>679.0</ele><time>2026-03-24T11:46:21.931Z</time></trkpt><trkpt lat="30.243004566724615" lon="-5.639794759291803"><ele>679.0</ele><time>2026-03-24T11:46:22.931Z</time></trkpt><trkpt lat="30.243078804667476" lon="-5.6400029150789175"><ele>679.0</ele><time>2026-03-24T11:46:23.931Z</time></trkpt><trkpt lat="30.24315616851744" lon="-5.640217125607045"><ele>679.0</ele><time>2026-03-24T11:46:24.931Z</time></trkpt><trkpt lat="30.2432388320852" lon="-5.640438212080853"><ele>679.3333333333334</ele><time>2026-03-24T11:46:25.931Z</time></trkpt><trkpt lat="30.24332504023897" lon="-5.640661008453049"><ele>679.6666666666666</ele><time>2026-03-24T11:46:26.931Z</time></trkpt><trkpt lat="30.2434090468071" lon="-5.640885351061296"><ele>680.0</ele><time>2026-03-24T11:46:27.931Z</time></trkpt><trkpt lat="30.243481591561192" lon="-5.64109474089338"><ele>680.3333333333333</ele><time>2026-03-24T11:46:28.93Z</time></trkpt><trkpt lat="30.243555751194805" lon="-5.6412919379025945"><ele>680.6666666666666</ele><time>2026-03-24T11:46:29.93Z</time></trkpt><trkpt lat="30.243628584882" lon="-5.641482007592259"><ele>681.0</ele><time>2026-03-24T11:46:30.93Z</time></trkpt><trkpt lat="30.24370018884747" lon="-5.641672576187662"><ele>681.0</ele><time>2026-03-24T11:46:31.93Z</time></trkpt><trkpt lat="30.243774988716083" lon="-5.64187390325709"><ele>681.0</ele><time>2026-03-24T11:46:32.93Z</time></trkpt><trkpt lat="30.2438503574655" lon="-5.642071867470938"><ele>681.0</ele><time>2026-03-24T11:46:33.93Z</time></trkpt><trkpt lat="30.243927327949837" lon="-5.642268530360364"><ele>680.6666666666666</ele><time>2026-03-24T11:46:34.93Z</time></trkpt><trkpt lat="30.244006069106184" lon="-5.642472156442268"><ele>680.3333333333333</ele><time>2026-03-24T11:46:35.93Z</time></trkpt><trkpt lat="30.24408276179809" lon="-5.64268188154141"><ele>680.0</ele><time>2026-03-24T11:46:36.93Z</time></trkpt><trkpt lat="30.244163116918322" lon="-5.642898513504643"><ele>680.0</ele><time>2026-03-24T11:46:37.93Z</time></trkpt><trkpt lat="30.244245123436755" lon="-5.643119097709571"><ele>680.0</ele><time>2026-03-24T11:46:38.93Z</time></trkpt><trkpt lat="30.244326375924455" lon="-5.643338253934999"><ele>680.0</ele><time>2026-03-24T11:46:39.93Z</time></trkpt><trkpt lat="30.244407258868694" lon="-5.643558701505974"><ele>679.6666666666666</ele><time>2026-03-24T11:46:40.93Z</time></trkpt><trkpt lat="30.244490140746652" lon="-5.6437814068385475"><ele>679.3333333333334</ele><time>2026-03-24T11:46:41.93Z</time></trkpt><trkpt lat="30.24457230983934" lon="-5.644002555457416"><ele>679.0</ele><time>2026-03-24T11:46:42.93Z</time></trkpt><trkpt lat="30.244654028221305" lon="-5.644226354418627"><ele>679.0</ele><time>2026-03-24T11:46:43.93Z</time></trkpt><trkpt lat="30.244737248821604" lon="-5.644447560494254"><ele>679.0</ele><time>2026-03-24T11:46:44.93Z</time></trkpt><trkpt lat="30.244820220064145" lon="-5.644668057962574"><ele>679.0</ele><time>2026-03-24T11:46:45.93Z</time></trkpt><trkpt lat="30.244900856099605" lon="-5.644887162236707"><ele>679.6666666666667</ele><time>2026-03-24T11:46:46.93Z</time></trkpt><trkpt lat="30.2449830046338" lon="-5.645104735580312"><ele>680.3333333333334</ele><time>2026-03-24T11:46:47.93Z</time></trkpt><trkpt lat="30.245063669765216" lon="-5.645323266509048"><ele>681.0</ele><time>2026-03-24T11:46:48.93Z</time></trkpt><trkpt lat="30.245142676866923" lon="-5.645538255350342"><ele>681.0</ele><time>2026-03-24T11:46:49.93Z</time></trkpt><trkpt lat="30.245225170224998" lon="-5.645749765878521"><ele>681.0</ele><time>2026-03-24T11:46:50.93Z</time></trkpt><trkpt lat="30.24531078946519" lon="-5.645967805664316"><ele>681.0</ele><time>2026-03-24T11:46:51.93Z</time></trkpt><trkpt lat="30.24539833366029" lon="-5.64619315367437"><ele>681.0</ele><time>2026-03-24T11:46:52.93Z</time></trkpt><trkpt lat="30.245483219640217" lon="-5.646419491095417"><ele>681.0</ele><time>2026-03-24T11:46:53.93Z</time></trkpt><trkpt lat="30.245570901447994" lon="-5.646647039092312"><ele>681.0</ele><time>2026-03-24T11:46:54.93Z</time></trkpt><trkpt lat="30.245658585531714" lon="-5.646877383194924"><ele>680.0</ele><time>2026-03-24T11:46:55.93Z</time></trkpt><trkpt lat="30.245745960939647" lon="-5.647101551320998"><ele>679.0</ele><time>2026-03-24T11:46:56.93Z</time></trkpt><trkpt lat="30.245831965276782" lon="-5.6473280079840595"><ele>678.0</ele><time>2026-03-24T11:46:57.93Z</time></trkpt><trkpt lat="30.245912406748722" lon="-5.64754488563005"><ele>678.0</ele><time>2026-03-24T11:46:58.93Z</time></trkpt><trkpt lat="30.245994565488534" lon="-5.64776326121037"><ele>678.0</ele><time>2026-03-24T11:46:59.93Z</time></trkpt><trkpt lat="30.24607333871431" lon="-5.647973842164989"><ele>678.0</ele><time>2026-03-24T11:47:00.93Z</time></trkpt><trkpt lat="30.246152691382427" lon="-5.648185371964683"><ele>678.0</ele><time>2026-03-24T11:47:01.93Z</time></trkpt><trkpt lat="30.24623233445394" lon="-5.648396896801304"><ele>678.0</ele><time>2026-03-24T11:47:02.93Z</time></trkpt><trkpt lat="30.246309529219374" lon="-5.648610826629498"><ele>678.0</ele><time>2026-03-24T11:47:03.93Z</time></trkpt><trkpt lat="30.246385333500523" lon="-5.648820808508268"><ele>678.0</ele><time>2026-03-24T11:47:04.93Z</time></trkpt><trkpt lat="30.246464442022468" lon="-5.649031148123406"><ele>678.0</ele><time>2026-03-24T11:47:05.93Z</time></trkpt><trkpt lat="30.246545624049183" lon="-5.649248094086667"><ele>678.0</ele><time>2026-03-24T11:47:06.93Z</time></trkpt><trkpt lat="30.246626642687406" lon="-5.649465974860853"><ele>678.3333333333334</ele><time>2026-03-24T11:47:07.93Z</time></trkpt><trkpt lat="30.246706428632" lon="-5.649681598716339"><ele>678.6666666666667</ele><time>2026-03-24T11:47:08.93Z</time></trkpt><trkpt lat="30.246786758272137" lon="-5.64988918499039"><ele>679.0</ele><time>2026-03-24T11:47:09.93Z</time></trkpt><trkpt lat="30.246862997033155" lon="-5.6500962842518865"><ele>679.6666666666667</ele><time>2026-03-24T11:47:10.93Z</time></trkpt><trkpt lat="30.246937188063804" lon="-5.650297176289575"><ele>680.3333333333334</ele><time>2026-03-24T11:47:11.93Z</time></trkpt><trkpt lat="30.24701097851114" lon="-5.650498560810072"><ele>681.0</ele><time>2026-03-24T11:47:12.93Z</time></trkpt><trkpt lat="30.24708843693553" lon="-5.650702925146796"><ele>681.0</ele><time>2026-03-24T11:47:13.93Z</time></trkpt><trkpt lat="30.24716820231809" lon="-5.650909405877079"><ele>681.0</ele><time>2026-03-24T11:47:14.93Z</time></trkpt><trkpt lat="30.247243565076722" lon="-5.651111947617768"><ele>681.0</ele><time>2026-03-24T11:47:15.93Z</time></trkpt><trkpt lat="30.247321139834963" lon="-5.651315135545033"><ele>681.6666666666666</ele><time>2026-03-24T11:47:16.93Z</time></trkpt><trkpt lat="30.247394980430474" lon="-5.651514110505331"><ele>682.3333333333333</ele><time>2026-03-24T11:47:17.93Z</time></trkpt><trkpt lat="30.247469538855324" lon="-5.651711575264988"><ele>683.0</ele><time>2026-03-24T11:47:18.93Z</time></trkpt><trkpt lat="30.247543059674637" lon="-5.651910289448711"><ele>682.3333333333333</ele><time>2026-03-24T11:47:19.93Z</time></trkpt><trkpt lat="30.24761458450713" lon="-5.652106023566659"><ele>681.6666666666666</ele><time>2026-03-24T11:47:20.93Z</time></trkpt><trkpt lat="30.24768909711496" lon="-5.6523002151171235"><ele>681.0</ele><time>2026-03-24T11:47:21.93Z</time></trkpt><trkpt lat="30.247761303778134" lon="-5.652504030464033"><ele>681.0</ele><time>2026-03-24T11:47:22.93Z</time></trkpt><trkpt lat="30.247832575703313" lon="-5.652701431913318"><ele>681.0</ele><time>2026-03-24T11:47:23.93Z</time></trkpt><trkpt lat="30.247906308049224" lon="-5.652900014194605"><ele>681.0</ele><time>2026-03-24T11:47:24.93Z</time></trkpt><trkpt lat="30.247981463529424" lon="-5.65309859909844"><ele>681.0</ele><time>2026-03-24T11:47:25.93Z</time></trkpt><trkpt lat="30.248059533820634" lon="-5.653303569710333"><ele>681.0</ele><time>2026-03-24T11:47:26.93Z</time></trkpt><trkpt lat="30.248138662207698" lon="-5.653513365383832"><ele>681.0</ele><time>2026-03-24T11:47:27.93Z</time></trkpt><trkpt lat="30.24821956987501" lon="-5.653725733725084"><ele>681.6666666666666</ele><time>2026-03-24T11:47:28.93Z</time></trkpt><trkpt lat="30.248302191734215" lon="-5.653942919345654"><ele>682.3333333333333</ele><time>2026-03-24T11:47:29.929Z</time></trkpt><trkpt lat="30.24838401712241" lon="-5.654167338547376"><ele>683.0</ele><time>2026-03-24T11:47:30.93Z</time></trkpt><trkpt lat="30.248466442545272" lon="-5.654388188810211"><ele>683.3333333333333</ele><time>2026-03-24T11:47:31.93Z</time></trkpt><trkpt lat="30.24854884544938" lon="-5.654603956594351"><ele>683.6666666666666</ele><time>2026-03-24T11:47:32.93Z</time></trkpt><trkpt lat="30.248628602505235" lon="-5.654817621799"><ele>684.0</ele><time>2026-03-24T11:47:33.93Z</time></trkpt><trkpt lat="30.248705594966328" lon="-5.655023314102727"><ele>684.0</ele><time>2026-03-24T11:47:34.93Z</time></trkpt><trkpt lat="30.248780470642934" lon="-5.655225336149301"><ele>684.0</ele><time>2026-03-24T11:47:35.93Z</time></trkpt><trkpt lat="30.248855807579574" lon="-5.6554240712779995"><ele>684.0</ele><time>2026-03-24T11:47:36.93Z</time></trkpt><trkpt lat="30.24893221677177" lon="-5.655624627418458"><ele>684.3333333333334</ele><time>2026-03-24T11:47:37.93Z</time></trkpt><trkpt lat="30.249007810556034" lon="-5.655825200852746"><ele>684.6666666666667</ele><time>2026-03-24T11:47:38.93Z</time></trkpt><trkpt lat="30.249083043750783" lon="-5.656032247378602"><ele>685.0</ele><time>2026-03-24T11:47:39.93Z</time></trkpt><trkpt lat="30.249159625985147" lon="-5.656240523192688"><ele>685.0</ele><time>2026-03-24T11:47:40.93Z</time></trkpt><trkpt lat="30.249237398160645" lon="-5.656449880761823"><ele>685.0</ele><time>2026-03-24T11:47:41.93Z</time></trkpt><trkpt lat="30.249315218320135" lon="-5.656662615837635"><ele>685.0</ele><time>2026-03-24T11:47:42.93Z</time></trkpt><trkpt lat="30.249394023000534" lon="-5.6568754903144995"><ele>684.6666666666667</ele><time>2026-03-24T11:47:43.93Z</time></trkpt><trkpt lat="30.249474312252058" lon="-5.657086051795358"><ele>684.3333333333334</ele><time>2026-03-24T11:47:44.93Z</time></trkpt><trkpt lat="30.249552745483765" lon="-5.657298129970411"><ele>684.0</ele><time>2026-03-24T11:47:45.93Z</time></trkpt><trkpt lat="30.24963388855237" lon="-5.657510005985241"><ele>684.0</ele><time>2026-03-24T11:47:46.93Z</time></trkpt><trkpt lat="30.249713689988788" lon="-5.657729207548519"><ele>684.0</ele><time>2026-03-24T11:47:47.93Z</time></trkpt><trkpt lat="30.24979715906597" lon="-5.657947174500904"><ele>684.0</ele><time>2026-03-24T11:47:48.93Z</time></trkpt><trkpt lat="30.24988006968414" lon="-5.658170477808606"><ele>684.3333333333334</ele><time>2026-03-24T11:47:49.93Z</time></trkpt><trkpt lat="30.24996439300371" lon="-5.65839842517269"><ele>684.6666666666667</ele><time>2026-03-24T11:47:50.93Z</time></trkpt><trkpt lat="30.25005154607707" lon="-5.6586285334750706"><ele>685.0</ele><time>2026-03-24T11:47:51.93Z</time></trkpt><trkpt lat="30.250138090578947" lon="-5.658861253592638"><ele>684.6666666666667</ele><time>2026-03-24T11:47:52.93Z</time></trkpt><trkpt lat="30.25022288294532" lon="-5.659094488666826"><ele>684.3333333333334</ele><time>2026-03-24T11:47:53.93Z</time></trkpt><trkpt lat="30.25030971232491" lon="-5.6593210444122155"><ele>684.0</ele><time>2026-03-24T11:47:54.93Z</time></trkpt><trkpt lat="30.250396973556327" lon="-5.659548964398492"><ele>684.0</ele><time>2026-03-24T11:47:55.93Z</time></trkpt><trkpt lat="30.25048602684934" lon="-5.659773916913659"><ele>684.0</ele><time>2026-03-24T11:47:56.93Z</time></trkpt><trkpt lat="30.25057904351469" lon="-5.65999658085619"><ele>684.0</ele><time>2026-03-24T11:47:57.93Z</time></trkpt><trkpt lat="30.250676469723835" lon="-5.660218204380582"><ele>684.6666666666666</ele><time>2026-03-24T11:47:58.93Z</time></trkpt><trkpt lat="30.25076891895911" lon="-5.660421401114314"><ele>685.3333333333333</ele><time>2026-03-24T11:47:59.93Z</time></trkpt><trkpt lat="30.250860982182836" lon="-5.6606104674954985"><ele>686.0</ele><time>2026-03-24T11:48:00.93Z</time></trkpt><trkpt lat="30.25096682424172" lon="-5.660807807793133"><ele>686.0</ele><time>2026-03-24T11:48:01.93Z</time></trkpt><trkpt lat="30.251076383920697" lon="-5.661014452962755"><ele>686.0</ele><time>2026-03-24T11:48:02.93Z</time></trkpt><trkpt lat="30.251191070864344" lon="-5.661221401023033"><ele>686.0</ele><time>2026-03-24T11:48:03.93Z</time></trkpt><trkpt lat="30.25130327571672" lon="-5.661429789331863"><ele>685.6666666666666</ele><time>2026-03-24T11:48:04.93Z</time></trkpt><trkpt lat="30.251411943443923" lon="-5.661637265315679"><ele>685.3333333333334</ele><time>2026-03-24T11:48:05.93Z</time></trkpt><trkpt lat="30.251523536472966" lon="-5.661849739097612"><ele>685.0</ele><time>2026-03-24T11:48:06.93Z</time></trkpt><trkpt lat="30.251637099129976" lon="-5.6620619531581164"><ele>684.6666666666667</ele><time>2026-03-24T11:48:07.93Z</time></trkpt><trkpt lat="30.251751463427393" lon="-5.662273411775868"><ele>684.3333333333334</ele><time>2026-03-24T11:48:08.93Z</time></trkpt><trkpt lat="30.251866527931277" lon="-5.662487748136774"><ele>684.0</ele><time>2026-03-24T11:48:09.93Z</time></trkpt><trkpt lat="30.251984907662965" lon="-5.662713679566231"><ele>684.3333333333334</ele><time>2026-03-24T11:48:10.93Z</time></trkpt><trkpt lat="30.252106032287944" lon="-5.6629372791756785"><ele>684.6666666666667</ele><time>2026-03-24T11:48:11.93Z</time></trkpt><trkpt lat="30.25221397321231" lon="-5.663137838558657"><ele>685.0</ele><time>2026-03-24T11:48:12.93Z</time></trkpt><trkpt lat="30.252315077630158" lon="-5.663325929741836"><ele>685.0</ele><time>2026-03-24T11:48:13.93Z</time></trkpt><trkpt lat="30.2524101472949" lon="-5.663505749406935"><ele>685.0</ele><time>2026-03-24T11:48:14.93Z</time></trkpt><trkpt lat="30.252512028595437" lon="-5.663691994690114"><ele>685.0</ele><time>2026-03-24T11:48:15.93Z</time></trkpt><trkpt lat="30.252616475171944" lon="-5.663877969389522"><ele>685.0</ele><time>2026-03-24T11:48:16.93Z</time></trkpt><trkpt lat="30.252724584171684" lon="-5.66407772442248"><ele>685.0</ele><time>2026-03-24T11:48:17.93Z</time></trkpt><trkpt lat="30.252830332507273" lon="-5.664276299092401"><ele>685.0</ele><time>2026-03-24T11:48:18.93Z</time></trkpt><trkpt lat="30.252932468569973" lon="-5.664471929093529"><ele>685.3333333333334</ele><time>2026-03-24T11:48:19.93Z</time></trkpt><trkpt lat="30.253038218855185" lon="-5.664670843429773"><ele>685.6666666666666</ele><time>2026-03-24T11:48:20.93Z</time></trkpt><trkpt lat="30.253141480679435" lon="-5.664864648424823"><ele>686.0</ele><time>2026-03-24T11:48:21.929Z</time></trkpt><trkpt lat="30.25324400872775" lon="-5.665059794736617"><ele>685.6666666666666</ele><time>2026-03-24T11:48:22.929Z</time></trkpt><trkpt lat="30.253342045969134" lon="-5.665255116641632"><ele>685.3333333333334</ele><time>2026-03-24T11:48:23.929Z</time></trkpt><trkpt lat="30.253438298650817" lon="-5.665448319773554"><ele>685.0</ele><time>2026-03-24T11:48:24.929Z</time></trkpt><trkpt lat="30.25352920540767" lon="-5.665643394860007"><ele>685.0</ele><time>2026-03-24T11:48:25.929Z</time></trkpt><trkpt lat="30.253619281093183" lon="-5.665845530077489"><ele>685.0</ele><time>2026-03-24T11:48:26.929Z</time></trkpt><trkpt lat="30.253702397349365" lon="-5.666052181716121"><ele>685.0</ele><time>2026-03-24T11:48:27.929Z</time></trkpt><trkpt lat="30.25377369356612" lon="-5.666262978779308"><ele>685.6666666666667</ele><time>2026-03-24T11:48:28.929Z</time></trkpt><trkpt lat="30.253836659433148" lon="-5.66647147812474"><ele>686.3333333333334</ele><time>2026-03-24T11:48:29.929Z</time></trkpt><trkpt lat="30.25389525088549" lon="-5.6666887024968124"><ele>687.0</ele><time>2026-03-24T11:48:30.929Z</time></trkpt><trkpt lat="30.253945874911818" lon="-5.666903751080681"><ele>687.0</ele><time>2026-03-24T11:48:31.929Z</time></trkpt><trkpt lat="30.253994884408215" lon="-5.6671269481847375"><ele>687.0</ele><time>2026-03-24T11:48:32.929Z</time></trkpt><trkpt lat="30.25404213937811" lon="-5.667349948797061"><ele>687.0</ele><time>2026-03-24T11:48:33.929Z</time></trkpt><trkpt lat="30.254085842686916" lon="-5.667577370937521"><ele>688.0</ele><time>2026-03-24T11:48:34.929Z</time></trkpt><trkpt lat="30.2541272180896" lon="-5.667802035421192"><ele>689.0</ele><time>2026-03-24T11:48:35.929Z</time></trkpt><trkpt lat="30.254172543682493" lon="-5.668018432771282"><ele>690.0</ele><time>2026-03-24T11:48:36.929Z</time></trkpt><trkpt lat="30.25421589586939" lon="-5.668232838417679"><ele>690.0</ele><time>2026-03-24T11:48:37.929Z</time></trkpt><trkpt lat="30.254256264211552" lon="-5.668446063326438"><ele>690.0</ele><time>2026-03-24T11:48:38.929Z</time></trkpt><trkpt lat="30.2542947272007" lon="-5.668658720739417"><ele>690.0</ele><time>2026-03-24T11:48:39.929Z</time></trkpt><trkpt lat="30.254338451469117" lon="-5.668869254163041"><ele>689.6666666666666</ele><time>2026-03-24T11:48:40.929Z</time></trkpt><trkpt lat="30.25438445690183" lon="-5.669077695613108"><ele>689.3333333333333</ele><time>2026-03-24T11:48:41.929Z</time></trkpt><trkpt lat="30.254429819168717" lon="-5.669287777612941"><ele>689.0</ele><time>2026-03-24T11:48:42.929Z</time></trkpt><trkpt lat="30.25447098013087" lon="-5.669500352614364"><ele>689.0</ele><time>2026-03-24T11:48:43.929Z</time></trkpt><trkpt lat="30.254512142711995" lon="-5.669709712647273"><ele>689.0</ele><time>2026-03-24T11:48:44.929Z</time></trkpt><trkpt lat="30.25455308298003" lon="-5.6699155743481295"><ele>689.0</ele><time>2026-03-24T11:48:45.929Z</time></trkpt><trkpt lat="30.254594320675256" lon="-5.670122815399165"><ele>688.6666666666666</ele><time>2026-03-24T11:48:46.929Z</time></trkpt><trkpt lat="30.25463619064627" lon="-5.670328627412055"><ele>688.3333333333334</ele><time>2026-03-24T11:48:47.929Z</time></trkpt><trkpt lat="30.254675873853355" lon="-5.670534806745974"><ele>688.0</ele><time>2026-03-24T11:48:48.929Z</time></trkpt><trkpt lat="30.254717334122514" lon="-5.670739888892623"><ele>688.0</ele><time>2026-03-24T11:48:49.929Z</time></trkpt><trkpt lat="30.25476147773138" lon="-5.670948412253079"><ele>688.0</ele><time>2026-03-24T11:48:50.929Z</time></trkpt><trkpt lat="30.254808071041733" lon="-5.671157399877642"><ele>688.0</ele><time>2026-03-24T11:48:51.929Z</time></trkpt><trkpt lat="30.25485380734875" lon="-5.671353145027448"><ele>688.0</ele><time>2026-03-24T11:48:52.929Z</time></trkpt><trkpt lat="30.25490087873536" lon="-5.671540598931098"><ele>688.0</ele><time>2026-03-24T11:48:53.929Z</time></trkpt><trkpt lat="30.254958570064844" lon="-5.671735271197548"><ele>688.0</ele><time>2026-03-24T11:48:54.929Z</time></trkpt><trkpt lat="30.255012761576317" lon="-5.671925786970247"><ele>687.3333333333334</ele><time>2026-03-24T11:48:55.929Z</time></trkpt><trkpt lat="30.255070548873515" lon="-5.672103954713253"><ele>686.6666666666666</ele><time>2026-03-24T11:48:56.929Z</time></trkpt><trkpt lat="30.255124911956838" lon="-5.672268876214507"><ele>686.0</ele><time>2026-03-24T11:48:57.929Z</time></trkpt><trkpt lat="30.255178003581825" lon="-5.67243019050385"><ele>686.0</ele><time>2026-03-24T11:48:58.929Z</time></trkpt><trkpt lat="30.25523473072003" lon="-5.672587410918671"><ele>686.0</ele><time>2026-03-24T11:48:59.929Z</time></trkpt><trkpt lat="30.255291115545756" lon="-5.672741108971394"><ele>686.0</ele><time>2026-03-24T11:49:00.929Z</time></trkpt><trkpt lat="30.255344910995483" lon="-5.67289058793949"><ele>686.0</ele><time>2026-03-24T11:49:01.929Z</time></trkpt><trkpt lat="30.25539954964963" lon="-5.673038449744123"><ele>686.5</ele><time>2026-03-24T11:49:02.929Z</time></trkpt><trkpt lat="30.255450548344406" lon="-5.673191776742628"><ele>687.0</ele><time>2026-03-24T11:49:03.929Z</time></trkpt><trkpt lat="30.255504934660237" lon="-5.673309679585761"><ele>687.5</ele><time>2026-03-24T11:49:04.929Z</time></trkpt><trkpt lat="30.255554571082648" lon="-5.673443048060567"><ele>688.0</ele><time>2026-03-24T11:49:05.929Z</time></trkpt><trkpt lat="30.255602427919165" lon="-5.67357314407519"><ele>688.0</ele><time>2026-03-24T11:49:06.929Z</time></trkpt><trkpt lat="30.2556494278766" lon="-5.673707255592766"><ele>688.0</ele><time>2026-03-24T11:49:07.929Z</time></trkpt><trkpt lat="30.255698496029186" lon="-5.673844976324821"><ele>688.0</ele><time>2026-03-24T11:49:08.929Z</time></trkpt><trkpt lat="30.25574926676673" lon="-5.673989508320227"><ele>688.0</ele><time>2026-03-24T11:49:09.929Z</time></trkpt><trkpt lat="30.255803674887588" lon="-5.6741400052994315"><ele>688.0</ele><time>2026-03-24T11:49:10.929Z</time></trkpt><trkpt lat="30.255864202725217" lon="-5.674295121150781"><ele>688.0</ele><time>2026-03-24T11:49:11.929Z</time></trkpt><trkpt lat="30.25592782958833" lon="-5.674462893097569"><ele>688.0</ele><time>2026-03-24T11:49:12.929Z</time></trkpt><trkpt lat="30.2559945943092" lon="-5.674644566385708"><ele>688.0</ele><time>2026-03-24T11:49:13.929Z</time></trkpt><trkpt lat="30.256056109496985" lon="-5.674812272747213"><ele>688.0</ele><time>2026-03-24T11:49:14.929Z</time></trkpt><trkpt lat="30.25611641228181" lon="-5.674978008425487"><ele>688.0</ele><time>2026-03-24T11:49:15.929Z</time></trkpt><trkpt lat="30.2561758381661" lon="-5.675139598252519"><ele>687.75</ele><time>2026-03-24T11:49:16.929Z</time></trkpt><trkpt lat="30.256231281211193" lon="-5.675296348726079"><ele>687.5</ele><time>2026-03-24T11:49:17.929Z</time></trkpt><trkpt lat="30.256284622689183" lon="-5.675449503893203"><ele>687.25</ele><time>2026-03-24T11:49:18.929Z</time></trkpt><trkpt lat="30.256339741554324" lon="-5.67560357390605"><ele>687.0</ele><time>2026-03-24T11:49:19.929Z</time></trkpt><trkpt lat="30.25640050018623" lon="-5.675765721787143"><ele>687.3333333333334</ele><time>2026-03-24T11:49:20.929Z</time></trkpt><trkpt lat="30.256463594665412" lon="-5.675933135782337"><ele>687.6666666666667</ele><time>2026-03-24T11:49:21.929Z</time></trkpt><trkpt lat="30.25652327447192" lon="-5.676102636078309"><ele>688.0</ele><time>2026-03-24T11:49:22.929Z</time></trkpt><trkpt lat="30.256583804312537" lon="-5.676275276895024"><ele>688.0</ele><time>2026-03-24T11:49:23.929Z</time></trkpt><trkpt lat="30.256645567733813" lon="-5.676448091946698"><ele>688.0</ele><time>2026-03-24T11:49:24.929Z</time></trkpt><trkpt lat="30.256706991189624" lon="-5.6766220429230145"><ele>688.0</ele><time>2026-03-24T11:49:25.929Z</time></trkpt><trkpt lat="30.256762044874716" lon="-5.676782379802224"><ele>688.5</ele><time>2026-03-24T11:49:26.929Z</time></trkpt><trkpt lat="30.256818140542244" lon="-5.676937733010756"><ele>689.0</ele><time>2026-03-24T11:49:27.929Z</time></trkpt><trkpt lat="30.25687296063013" lon="-5.6770807498463185"><ele>689.5</ele><time>2026-03-24T11:49:28.929Z</time></trkpt><trkpt lat="30.256919817567454" lon="-5.677226124761362"><ele>690.0</ele><time>2026-03-24T11:49:29.929Z</time></trkpt><trkpt lat="30.25696622638135" lon="-5.677368827513515"><ele>690.0</ele><time>2026-03-24T11:49:30.928Z</time></trkpt><trkpt lat="30.257013487304377" lon="-5.677514583251238"><ele>690.0</ele><time>2026-03-24T11:49:31.928Z</time></trkpt><trkpt lat="30.257062373531465" lon="-5.677662384456784"><ele>690.0</ele><time>2026-03-24T11:49:32.929Z</time></trkpt><trkpt lat="30.25710989301547" lon="-5.6778069037061725"><ele>690.0</ele><time>2026-03-24T11:49:33.929Z</time></trkpt><trkpt lat="30.257145737106605" lon="-5.67793391306895"><ele>690.0</ele><time>2026-03-24T11:49:34.929Z</time></trkpt><trkpt lat="30.257176610849438" lon="-5.678048994667582"><ele>690.0</ele><time>2026-03-24T11:49:35.929Z</time></trkpt><trkpt lat="30.25720685649058" lon="-5.678148634496533"><ele>690.0</ele><time>2026-03-24T11:49:36.929Z</time></trkpt><trkpt lat="30.25723246072161" lon="-5.678244435014369"><ele>690.0</ele><time>2026-03-24T11:49:37.929Z</time></trkpt><trkpt lat="30.25725636350551" lon="-5.678330514358067"><ele>690.0</ele><time>2026-03-24T11:49:38.929Z</time></trkpt><trkpt lat="30.257279052722012" lon="-5.67841522301948"><ele>690.0</ele><time>2026-03-24T11:49:39.929Z</time></trkpt><trkpt lat="30.25730397717413" lon="-5.678503122682052"><ele>690.0</ele><time>2026-03-24T11:49:40.929Z</time></trkpt><trkpt lat="30.257332746509093" lon="-5.678601214914182"><ele>690.0</ele><time>2026-03-24T11:49:41.929Z</time></trkpt><trkpt lat="30.257363745000347" lon="-5.678715507537907"><ele>690.0</ele><time>2026-03-24T11:49:42.929Z</time></trkpt><trkpt lat="30.25739377848286" lon="-5.678819760664134"><ele>690.0</ele><time>2026-03-24T11:49:43.929Z</time></trkpt><trkpt lat="30.25742333841289" lon="-5.678922540832816"><ele>690.0</ele><time>2026-03-24T11:49:44.929Z</time></trkpt><trkpt lat="30.25745762809674" lon="-5.679040791268897"><ele>690.0</ele><time>2026-03-24T11:49:45.929Z</time></trkpt><trkpt lat="30.257492413752693" lon="-5.679151284897994"><ele>690.0</ele><time>2026-03-24T11:49:46.929Z</time></trkpt><trkpt lat="30.257524668101624" lon="-5.679243882812547"><ele>690.0</ele><time>2026-03-24T11:49:47.929Z</time></trkpt><trkpt lat="30.257556856302855" lon="-5.679335530817267"><ele>690.0</ele><time>2026-03-24T11:49:48.929Z</time></trkpt><trkpt lat="30.257590109990858" lon="-5.6794423852769995"><ele>690.0</ele><time>2026-03-24T11:49:49.929Z</time></trkpt><trkpt lat="30.257628737727824" lon="-5.679553814137596"><ele>689.6666666666666</ele><time>2026-03-24T11:49:50.929Z</time></trkpt><trkpt lat="30.25766358226803" lon="-5.6796560938738345"><ele>689.3333333333334</ele><time>2026-03-24T11:49:51.929Z</time></trkpt><trkpt lat="30.257699429106335" lon="-5.679751251834136"><ele>689.0</ele><time>2026-03-24T11:49:52.929Z</time></trkpt><trkpt lat="30.25773702612146" lon="-5.6798365960176085"><ele>688.6666666666667</ele><time>2026-03-24T11:49:53.929Z</time></trkpt><trkpt lat="30.257772761862743" lon="-5.679918976924024"><ele>688.3333333333334</ele><time>2026-03-24T11:49:54.929Z</time></trkpt><trkpt lat="30.25780703050356" lon="-5.680000165653109"><ele>688.0</ele><time>2026-03-24T11:49:55.929Z</time></trkpt><trkpt lat="30.2578426217417" lon="-5.680085410426866"><ele>688.0</ele><time>2026-03-24T11:49:56.929Z</time></trkpt><trkpt lat="30.257880517711666" lon="-5.680171597682831"><ele>688.0</ele><time>2026-03-24T11:49:57.929Z</time></trkpt><trkpt lat="30.257924478401407" lon="-5.680258943810158"><ele>688.0</ele><time>2026-03-24T11:49:58.929Z</time></trkpt><trkpt lat="30.257975284635435" lon="-5.680357324468519"><ele>688.0</ele><time>2026-03-24T11:49:59.929Z</time></trkpt><trkpt lat="30.25802952726844" lon="-5.680457153121202"><ele>688.0</ele><time>2026-03-24T11:50:00.929Z</time></trkpt><trkpt lat="30.2580809234692" lon="-5.680555414909069"><ele>687.8</ele><time>2026-03-24T11:50:01.929Z</time></trkpt><trkpt lat="30.258130191439392" lon="-5.680651963672591"><ele>687.5999999999999</ele><time>2026-03-24T11:50:02.929Z</time></trkpt><trkpt lat="30.258176724781475" lon="-5.680744734985053"><ele>687.4000000000001</ele><time>2026-03-24T11:50:03.929Z</time></trkpt><trkpt lat="30.258220515534745" lon="-5.680833313794099"><ele>687.2</ele><time>2026-03-24T11:50:04.929Z</time></trkpt><trkpt lat="30.25826605477783" lon="-5.680920131203382"><ele>687.0</ele><time>2026-03-24T11:50:05.929Z</time></trkpt><trkpt lat="30.258313318844593" lon="-5.681006929971827"><ele>687.0</ele><time>2026-03-24T11:50:06.929Z</time></trkpt><trkpt lat="30.258358911319185" lon="-5.681096199276346"><ele>687.0</ele><time>2026-03-24T11:50:07.929Z</time></trkpt><trkpt lat="30.258405183238878" lon="-5.6811885893141145"><ele>687.0</ele><time>2026-03-24T11:50:08.929Z</time></trkpt><trkpt lat="30.258455089545794" lon="-5.681292746424965"><ele>687.0</ele><time>2026-03-24T11:50:09.929Z</time></trkpt><trkpt lat="30.258502424948034" lon="-5.681383051937383"><ele>687.0</ele><time>2026-03-24T11:50:10.929Z</time></trkpt><trkpt lat="30.258553168025113" lon="-5.681476342179593"><ele>686.8</ele><time>2026-03-24T11:50:11.929Z</time></trkpt><trkpt lat="30.25860242961613" lon="-5.681569516857501"><ele>686.6</ele><time>2026-03-24T11:50:12.929Z</time></trkpt><trkpt lat="30.25864518815229" lon="-5.6816641774543974"><ele>686.4</ele><time>2026-03-24T11:50:13.929Z</time></trkpt><trkpt lat="30.258695816557918" lon="-5.681764925032267"><ele>686.1999999999999</ele><time>2026-03-24T11:50:14.929Z</time></trkpt><trkpt lat="30.258750079766887" lon="-5.681868629630914"><ele>686.0</ele><time>2026-03-24T11:50:15.929Z</time></trkpt><trkpt lat="30.25880672935067" lon="-5.681982231542088"><ele>686.0</ele><time>2026-03-24T11:50:16.929Z</time></trkpt><trkpt lat="30.258864129875814" lon="-5.682096333446637"><ele>686.0</ele><time>2026-03-24T11:50:17.929Z</time></trkpt><trkpt lat="30.258922080460515" lon="-5.682209433795112"><ele>686.0</ele><time>2026-03-24T11:50:18.929Z</time></trkpt><trkpt lat="30.25898174613102" lon="-5.682328942593037"><ele>686.0</ele><time>2026-03-24T11:50:19.929Z</time></trkpt><trkpt lat="30.259043905219023" lon="-5.682448941666073"><ele>686.0</ele><time>2026-03-24T11:50:20.929Z</time></trkpt><trkpt lat="30.25910528670925" lon="-5.682571011011988"><ele>686.0</ele><time>2026-03-24T11:50:21.929Z</time></trkpt><trkpt lat="30.2591642969097" lon="-5.682689238641898"><ele>686.0</ele><time>2026-03-24T11:50:22.929Z</time></trkpt><trkpt lat="30.25922221601331" lon="-5.682800651402907"><ele>686.0</ele><time>2026-03-24T11:50:23.929Z</time></trkpt><trkpt lat="30.259276338579003" lon="-5.682906685221814"><ele>686.0</ele><time>2026-03-24T11:50:24.929Z</time></trkpt><trkpt lat="30.2593310776715" lon="-5.683008156031264"><ele>686.0</ele><time>2026-03-24T11:50:25.929Z</time></trkpt><trkpt lat="30.25938662215488" lon="-5.683112728894212"><ele>686.0</ele><time>2026-03-24T11:50:26.929Z</time></trkpt><trkpt lat="30.259441474565186" lon="-5.683211274671199"><ele>686.0</ele><time>2026-03-24T11:50:27.929Z</time></trkpt><trkpt lat="30.259492398241687" lon="-5.6832966657358925"><ele>686.0</ele><time>2026-03-24T11:50:28.929Z</time></trkpt><trkpt lat="30.259531826956575" lon="-5.683362905387902"><ele>686.0</ele><time>2026-03-24T11:50:29.929Z</time></trkpt><trkpt lat="30.259603658050672" lon="-5.683459087217064"><ele>686.0</ele><time>2026-03-24T11:50:31.929Z</time></trkpt><trkpt lat="30.259680284089182" lon="-5.683550144169459"><ele>686.0</ele><time>2026-03-24T11:50:33.929Z</time></trkpt><trkpt lat="30.25972829300762" lon="-5.683597321865031"><ele>686.0</ele><time>2026-03-24T11:50:34.929Z</time></trkpt><trkpt lat="30.25978332717205" lon="-5.683717767820926"><ele>686.0</ele><time>2026-03-24T11:50:36.929Z</time></trkpt><trkpt lat="30.259770873279823" lon="-5.683859129460512"><ele>686.0</ele><time>2026-03-24T11:50:38.929Z</time></trkpt><trkpt lat="30.25973979644904" lon="-5.683942085496954"><ele>686.0</ele><time>2026-03-24T11:50:39.929Z</time></trkpt><trkpt lat="30.259767890227806" lon="-5.684045171605475"><ele>686.0</ele><time>2026-03-24T11:50:40.929Z</time></trkpt><trkpt lat="30.259775377803766" lon="-5.684144050784669"><ele>686.0</ele><time>2026-03-24T11:50:41.929Z</time></trkpt><trkpt lat="30.259783973543822" lon="-5.684241835989265"><ele>686.0</ele><time>2026-03-24T11:50:42.929Z</time></trkpt><trkpt lat="30.25977727352868" lon="-5.684338179233564"><ele>686.0</ele><time>2026-03-24T11:50:43.929Z</time></trkpt><trkpt lat="30.259814716454123" lon="-5.684443255025604"><ele>686.6666666666666</ele><time>2026-03-24T11:50:44.929Z</time></trkpt><trkpt lat="30.25983122683459" lon="-5.6845513906346445"><ele>687.3333333333333</ele><time>2026-03-24T11:50:45.929Z</time></trkpt><trkpt lat="30.25984642978126" lon="-5.684648819903336"><ele>688.0</ele><time>2026-03-24T11:50:46.929Z</time></trkpt><trkpt lat="30.25986089779412" lon="-5.684733797473836"><ele>688.6666666666666</ele><time>2026-03-24T11:50:47.929Z</time></trkpt><trkpt lat="30.259874311941157" lon="-5.68480627521438"><ele>689.3333333333334</ele><time>2026-03-24T11:50:48.929Z</time></trkpt><trkpt lat="30.25988963300533" lon="-5.6849303066440635"><ele>690.0</ele><time>2026-03-24T11:50:50.929Z</time></trkpt><trkpt lat="30.259902092278622" lon="-5.685019472277349"><ele>690.0</ele><time>2026-03-24T11:50:52.929Z</time></trkpt><trkpt lat="30.25989874028272" lon="-5.685097349520102"><ele>690.0</ele><time>2026-03-24T11:50:54.929Z</time></trkpt><trkpt lat="30.259914401323307" lon="-5.685172315943965"><ele>690.0</ele><time>2026-03-24T11:50:57.929Z</time></trkpt><trkpt lat="30.25985434647896" lon="-5.685196560369641"><ele>690.0</ele><time>2026-03-24T11:54:19.918Z</time></trkpt><trkpt lat="30.259912569277105" lon="-5.685158140554173"><ele>690.0</ele><time>2026-03-24T12:01:50.912Z</time></trkpt><trkpt lat="30.259852982744242" lon="-5.6852019275704455"><ele>690.0</ele><time>2026-03-24T12:04:27.909Z</time></trkpt></trkseg><trkseg><trkpt lat="30.260015225574087" lon="-5.6849979056397775"><ele>690.0</ele><time>2026-03-24T14:00:18.004Z</time></trkpt><trkpt lat="30.259989312764027" lon="-5.684923268980651"><ele>690.0</ele><time>2026-03-24T14:00:19.004Z</time></trkpt><trkpt lat="30.259932629360105" lon="-5.68482220152725"><ele>690.0</ele><time>2026-03-24T14:00:20.004Z</time></trkpt><trkpt lat="30.259899463924587" lon="-5.684661267386745"><ele>690.0</ele><time>2026-03-24T14:00:22.004Z</time></trkpt><trkpt lat="30.25988263743112" lon="-5.684566624706299"><ele>690.0</ele><time>2026-03-24T14:00:23.004Z</time></trkpt><trkpt lat="30.259868295652826" lon="-5.68446534596454"><ele>689.2</ele><time>2026-03-24T14:00:24.004Z</time></trkpt><trkpt lat="30.25985216247171" lon="-5.684363213986115"><ele>688.4</ele><time>2026-03-24T14:00:25.004Z</time></trkpt><trkpt lat="30.259721384301315" lon="-5.684242205403758"><ele>687.5999999999999</ele><time>2026-03-24T14:00:26.004Z</time></trkpt><trkpt lat="30.25973031226634" lon="-5.684152334006773"><ele>686.8</ele><time>2026-03-24T14:00:27.004Z</time></trkpt><trkpt lat="30.259690322455636" lon="-5.684059335058205"><ele>686.0</ele><time>2026-03-24T14:00:28.004Z</time></trkpt><trkpt lat="30.259660978267043" lon="-5.683948250217169"><ele>686.0</ele><time>2026-03-24T14:00:29.004Z</time></trkpt><trkpt lat="30.25961534688293" lon="-5.683852410085765"><ele>686.0</ele><time>2026-03-24T14:00:30.004Z</time></trkpt><trkpt lat="30.259564033634728" lon="-5.683746697744798"><ele>686.0</ele><time>2026-03-24T14:00:31.004Z</time></trkpt><trkpt lat="30.259524918103402" lon="-5.683650520086491"><ele>686.0</ele><time>2026-03-24T14:00:32.004Z</time></trkpt><trkpt lat="30.25950760558217" lon="-5.683567341291701"><ele>686.0</ele><time>2026-03-24T14:00:33.004Z</time></trkpt><trkpt lat="30.25949756619575" lon="-5.683482236666838"><ele>686.0</ele><time>2026-03-24T14:00:34.004Z</time></trkpt><trkpt lat="30.259485817588278" lon="-5.683400252484336"><ele>686.0</ele><time>2026-03-24T14:00:35.004Z</time></trkpt><trkpt lat="30.25946944893397" lon="-5.683311459524284"><ele>686.0</ele><time>2026-03-24T14:00:36.004Z</time></trkpt><trkpt lat="30.259436712195903" lon="-5.683228541264091"><ele>686.0</ele><time>2026-03-24T14:00:37.004Z</time></trkpt><trkpt lat="30.259403128764593" lon="-5.683145482941949"><ele>686.0</ele><time>2026-03-24T14:00:38.004Z</time></trkpt><trkpt lat="30.25935943780134" lon="-5.6830663683101275"><ele>686.0</ele><time>2026-03-24T14:00:39.004Z</time></trkpt><trkpt lat="30.25931182920519" lon="-5.682960913018262"><ele>686.0</ele><time>2026-03-24T14:00:40.004Z</time></trkpt><trkpt lat="30.259247178688867" lon="-5.682831465633002"><ele>686.0</ele><time>2026-03-24T14:00:41.005Z</time></trkpt><trkpt lat="30.259168024400374" lon="-5.682689983126499"><ele>686.0</ele><time>2026-03-24T14:00:42.005Z</time></trkpt><trkpt lat="30.25909257159538" lon="-5.682535190436343"><ele>686.0</ele><time>2026-03-24T14:00:43.005Z</time></trkpt><trkpt lat="30.259017769635552" lon="-5.682396879642584"><ele>686.0</ele><time>2026-03-24T14:00:44.005Z</time></trkpt><trkpt lat="30.258937988929645" lon="-5.682244497916198"><ele>686.0</ele><time>2026-03-24T14:00:45.005Z</time></trkpt><trkpt lat="30.258850910508034" lon="-5.682075902044893"><ele>686.0</ele><time>2026-03-24T14:00:46.005Z</time></trkpt><trkpt lat="30.25875192018993" lon="-5.681889584885589"><ele>686.0</ele><time>2026-03-24T14:00:47.005Z</time></trkpt><trkpt lat="30.25866140882379" lon="-5.681711557422167"><ele>685.6666666666666</ele><time>2026-03-24T14:00:48.005Z</time></trkpt><trkpt lat="30.25855932644596" lon="-5.681522724189228"><ele>685.3333333333334</ele><time>2026-03-24T14:00:49.005Z</time></trkpt><trkpt lat="30.258466271539127" lon="-5.681353755067195"><ele>685.0</ele><time>2026-03-24T14:00:50.005Z</time></trkpt><trkpt lat="30.25837356388253" lon="-5.681173072493391"><ele>685.3333333333334</ele><time>2026-03-24T14:00:51.005Z</time></trkpt><trkpt lat="30.258277655092634" lon="-5.680983532315899"><ele>685.6666666666666</ele><time>2026-03-24T14:00:52.005Z</time></trkpt><trkpt lat="30.25819368699357" lon="-5.680803727446488"><ele>686.0</ele><time>2026-03-24T14:00:53.005Z</time></trkpt><trkpt lat="30.258105919795938" lon="-5.680626118819635"><ele>686.0</ele><time>2026-03-24T14:00:54.005Z</time></trkpt><trkpt lat="30.25802499459339" lon="-5.680458542202057"><ele>686.0</ele><time>2026-03-24T14:00:55.005Z</time></trkpt><trkpt lat="30.25793492190394" lon="-5.680276189631038"><ele>686.0</ele><time>2026-03-24T14:00:56.005Z</time></trkpt><trkpt lat="30.257856588621486" lon="-5.680102068672619"><ele>686.6666666666666</ele><time>2026-03-24T14:00:57.005Z</time></trkpt><trkpt lat="30.257781563004936" lon="-5.67992867787806"><ele>687.3333333333334</ele><time>2026-03-24T14:00:58.005Z</time></trkpt><trkpt lat="30.257720268996867" lon="-5.6797691192120725"><ele>688.0</ele><time>2026-03-24T14:00:59.005Z</time></trkpt><trkpt lat="30.25766139350902" lon="-5.67961564745625"><ele>688.6666666666667</ele><time>2026-03-24T14:01:00.005Z</time></trkpt><trkpt lat="30.257598439915743" lon="-5.679433771896987"><ele>689.3333333333334</ele><time>2026-03-24T14:01:01.005Z</time></trkpt><trkpt lat="30.25753820922384" lon="-5.6792525462234495"><ele>690.0</ele><time>2026-03-24T14:01:02.005Z</time></trkpt><trkpt lat="30.257481573310766" lon="-5.679078690891504"><ele>690.0</ele><time>2026-03-24T14:01:03.005Z</time></trkpt><trkpt lat="30.25742402363146" lon="-5.678894860548631"><ele>690.0</ele><time>2026-03-24T14:01:04.005Z</time></trkpt><trkpt lat="30.25736812677621" lon="-5.678708866643298"><ele>690.0</ele><time>2026-03-24T14:01:05.005Z</time></trkpt><trkpt lat="30.25730839648197" lon="-5.678516326022726"><ele>690.0</ele><time>2026-03-24T14:01:06.005Z</time></trkpt><trkpt lat="30.257198409184216" lon="-5.6783437511468495"><ele>690.0</ele><time>2026-03-24T14:01:07.005Z</time></trkpt><trkpt lat="30.25713691369826" lon="-5.678142238235801"><ele>690.0</ele><time>2026-03-24T14:01:08.005Z</time></trkpt><trkpt lat="30.257077444796547" lon="-5.677947366229301"><ele>690.0</ele><time>2026-03-24T14:01:09.005Z</time></trkpt><trkpt lat="30.257017696593685" lon="-5.677756925335968"><ele>690.0</ele><time>2026-03-24T14:01:10.005Z</time></trkpt><trkpt lat="30.256953945016473" lon="-5.677573778542479"><ele>690.0</ele><time>2026-03-24T14:01:11.005Z</time></trkpt><trkpt lat="30.256888799787422" lon="-5.677382899390841"><ele>690.0</ele><time>2026-03-24T14:01:12.005Z</time></trkpt><trkpt lat="30.25682746492539" lon="-5.677191249996807"><ele>690.0</ele><time>2026-03-24T14:01:13.005Z</time></trkpt><trkpt lat="30.256766836449184" lon="-5.677001228507073"><ele>690.0</ele><time>2026-03-24T14:01:14.005Z</time></trkpt><trkpt lat="30.256704983916215" lon="-5.676806034925051"><ele>689.3333333333334</ele><time>2026-03-24T14:01:15.005Z</time></trkpt><trkpt lat="30.256642534360257" lon="-5.676608957276351"><ele>688.6666666666667</ele><time>2026-03-24T14:01:16.005Z</time></trkpt><trkpt lat="30.256580057023132" lon="-5.676411791844123"><ele>688.0</ele><time>2026-03-24T14:01:17.005Z</time></trkpt><trkpt lat="30.25651164474527" lon="-5.6762273952731155"><ele>687.6666666666667</ele><time>2026-03-24T14:01:18.005Z</time></trkpt><trkpt lat="30.256441667540226" lon="-5.676034379802736"><ele>687.3333333333334</ele><time>2026-03-24T14:01:19.005Z</time></trkpt><trkpt lat="30.256372824191462" lon="-5.675844491819293"><ele>687.0</ele><time>2026-03-24T14:01:20.005Z</time></trkpt><trkpt lat="30.256308003064618" lon="-5.675664963919691"><ele>687.0</ele><time>2026-03-24T14:01:21.005Z</time></trkpt><trkpt lat="30.256238446613818" lon="-5.675468783074349"><ele>687.0</ele><time>2026-03-24T14:01:22.005Z</time></trkpt><trkpt lat="30.256171591160424" lon="-5.675274967216506"><ele>687.0</ele><time>2026-03-24T14:01:23.005Z</time></trkpt><trkpt lat="30.25610534387346" lon="-5.675083676249507"><ele>687.3333333333334</ele><time>2026-03-24T14:01:24.005Z</time></trkpt><trkpt lat="30.256040143351722" lon="-5.674895880213365"><ele>687.6666666666667</ele><time>2026-03-24T14:01:25.005Z</time></trkpt><trkpt lat="30.25596993345084" lon="-5.674712633699593"><ele>688.0</ele><time>2026-03-24T14:01:26.005Z</time></trkpt><trkpt lat="30.255899715648127" lon="-5.6745265652444425"><ele>688.0</ele><time>2026-03-24T14:01:27.005Z</time></trkpt><trkpt lat="30.255831068112663" lon="-5.674345470134646"><ele>688.0</ele><time>2026-03-24T14:01:28.005Z</time></trkpt><trkpt lat="30.25576008277146" lon="-5.674158207779429"><ele>688.0</ele><time>2026-03-24T14:01:29.005Z</time></trkpt><trkpt lat="30.25569446020572" lon="-5.673985035783357"><ele>688.0</ele><time>2026-03-24T14:01:30.005Z</time></trkpt><trkpt lat="30.25562559963428" lon="-5.673801004612949"><ele>688.0</ele><time>2026-03-24T14:01:31.005Z</time></trkpt><trkpt lat="30.255558765613188" lon="-5.673625145263944"><ele>688.0</ele><time>2026-03-24T14:01:32.005Z</time></trkpt><trkpt lat="30.255491352228066" lon="-5.673447761430072"><ele>688.0</ele><time>2026-03-24T14:01:33.005Z</time></trkpt><trkpt lat="30.255425585350856" lon="-5.67326330139508"><ele>688.0</ele><time>2026-03-24T14:01:34.005Z</time></trkpt><trkpt lat="30.255359406269314" lon="-5.673077922273983"><ele>688.0</ele><time>2026-03-24T14:01:35.005Z</time></trkpt><trkpt lat="30.255296084359735" lon="-5.672900546612777"><ele>687.3333333333334</ele><time>2026-03-24T14:01:36.005Z</time></trkpt><trkpt lat="30.255232734692846" lon="-5.672723093186022"><ele>686.6666666666666</ele><time>2026-03-24T14:01:37.005Z</time></trkpt><trkpt lat="30.25516806568922" lon="-5.672541944058242"><ele>686.0</ele><time>2026-03-24T14:01:38.005Z</time></trkpt><trkpt lat="30.25510318260886" lon="-5.672360195266982"><ele>686.0</ele><time>2026-03-24T14:01:39.005Z</time></trkpt><trkpt lat="30.25503874965084" lon="-5.672181810987366"><ele>686.0</ele><time>2026-03-24T14:01:40.005Z</time></trkpt><trkpt lat="30.254974995732113" lon="-5.67200259806978"><ele>686.0</ele><time>2026-03-24T14:01:41.005Z</time></trkpt><trkpt lat="30.254914221046874" lon="-5.671813727013952"><ele>686.6666666666666</ele><time>2026-03-24T14:01:42.005Z</time></trkpt><trkpt lat="30.25485947469222" lon="-5.671621587263056"><ele>687.3333333333334</ele><time>2026-03-24T14:01:43.005Z</time></trkpt><trkpt lat="30.25481289048552" lon="-5.671421724801835"><ele>688.0</ele><time>2026-03-24T14:01:44.005Z</time></trkpt><trkpt lat="30.254768804832985" lon="-5.671229544288757"><ele>688.0</ele><time>2026-03-24T14:01:45.005Z</time></trkpt><trkpt lat="30.254724815520277" lon="-5.671037783708028"><ele>688.0</ele><time>2026-03-24T14:01:46.005Z</time></trkpt><trkpt lat="30.25468262056629" lon="-5.670853958820499"><ele>688.0</ele><time>2026-03-24T14:01:47.005Z</time></trkpt><trkpt lat="30.25464078515178" lon="-5.670672124870126"><ele>688.0</ele><time>2026-03-24T14:01:48.005Z</time></trkpt><trkpt lat="30.25459877526572" lon="-5.670489840404939"><ele>688.0</ele><time>2026-03-24T14:01:49.005Z</time></trkpt><trkpt lat="30.254557105207407" lon="-5.670312383435307"><ele>688.0</ele><time>2026-03-24T14:01:50.005Z</time></trkpt><trkpt lat="30.254518814176148" lon="-5.670138298424917"><ele>688.25</ele><time>2026-03-24T14:01:51.005Z</time></trkpt><trkpt lat="30.25448667615262" lon="-5.669975758067456"><ele>688.5</ele><time>2026-03-24T14:01:52.005Z</time></trkpt><trkpt lat="30.254454858052068" lon="-5.669814835794324"><ele>688.75</ele><time>2026-03-24T14:01:53.005Z</time></trkpt><trkpt lat="30.25442329056656" lon="-5.669655181002652"><ele>689.0</ele><time>2026-03-24T14:01:54.005Z</time></trkpt><trkpt lat="30.254394748584065" lon="-5.669510827941663"><ele>688.75</ele><time>2026-03-24T14:01:55.005Z</time></trkpt><trkpt lat="30.25436742940389" lon="-5.669372659232591"><ele>688.5</ele><time>2026-03-24T14:01:56.005Z</time></trkpt><trkpt lat="30.25434012032739" lon="-5.669234530045737"><ele>688.25</ele><time>2026-03-24T14:01:57.005Z</time></trkpt><trkpt lat="30.254312076860465" lon="-5.6690927030002305"><ele>688.0</ele><time>2026-03-24T14:01:58.005Z</time></trkpt><trkpt lat="30.254283756997584" lon="-5.668951201317203"><ele>688.0</ele><time>2026-03-24T14:01:59.005Z</time></trkpt><trkpt lat="30.25425856505254" lon="-5.668823562168001"><ele>688.0</ele><time>2026-03-24T14:02:00.005Z</time></trkpt><trkpt lat="30.254233708529313" lon="-5.668698573261148"><ele>688.0</ele><time>2026-03-24T14:02:01.005Z</time></trkpt><trkpt lat="30.25422440771254" lon="-5.668576720882619"><ele>688.0</ele><time>2026-03-24T14:02:02.005Z</time></trkpt><trkpt lat="30.25419108354047" lon="-5.668492914884619"><ele>688.0</ele><time>2026-03-24T14:02:03.005Z</time></trkpt><trkpt lat="30.25416687224868" lon="-5.668423692877054"><ele>688.4</ele><time>2026-03-24T14:02:04.005Z</time></trkpt><trkpt lat="30.254095632546523" lon="-5.66832144768012"><ele>688.8</ele><time>2026-03-24T14:02:06.004Z</time></trkpt><trkpt lat="30.253976229753157" lon="-5.668297917023662"><ele>689.2</ele><time>2026-03-24T14:02:08.004Z</time></trkpt><trkpt lat="30.25391476311775" lon="-5.6682802728144726"><ele>689.6</ele><time>2026-03-24T14:02:09.004Z</time></trkpt><trkpt lat="30.25379765868835" lon="-5.668249406565889"><ele>690.0</ele><time>2026-03-24T14:02:11.004Z</time></trkpt><trkpt lat="30.253723951398925" lon="-5.6682427317729704"><ele>690.0</ele><time>2026-03-24T14:02:12.004Z</time></trkpt><trkpt lat="30.253644412343924" lon="-5.668235337178249"><ele>690.0</ele><time>2026-03-24T14:02:13.004Z</time></trkpt><trkpt lat="30.253568988563547" lon="-5.668200813270631"><ele>690.0</ele><time>2026-03-24T14:02:14.004Z</time></trkpt><trkpt lat="30.25350011266242" lon="-5.668181018256048"><ele>690.0</ele><time>2026-03-24T14:02:15.005Z</time></trkpt><trkpt lat="30.253435455631205" lon="-5.668162435758069"><ele>690.0</ele><time>2026-03-24T14:02:16.005Z</time></trkpt><trkpt lat="30.253367735549542" lon="-5.668142972929572"><ele>690.0</ele><time>2026-03-24T14:02:17.004Z</time></trkpt><trkpt lat="30.25330080472717" lon="-5.668123736944975"><ele>690.0</ele><time>2026-03-24T14:02:18.004Z</time></trkpt><trkpt lat="30.25322868164585" lon="-5.668103008693982"><ele>690.0</ele><time>2026-03-24T14:02:19.004Z</time></trkpt><trkpt lat="30.25314922905637" lon="-5.668080173932485"><ele>690.0</ele><time>2026-03-24T14:02:20.004Z</time></trkpt><trkpt lat="30.253062262664642" lon="-5.668055179693633"><ele>690.0</ele><time>2026-03-24T14:02:21.004Z</time></trkpt><trkpt lat="30.252973246105608" lon="-5.66802959623121"><ele>690.0</ele><time>2026-03-24T14:02:22.004Z</time></trkpt><trkpt lat="30.25289192120128" lon="-5.668006223367666"><ele>690.0</ele><time>2026-03-24T14:02:23.004Z</time></trkpt><trkpt lat="30.252791393650188" lon="-5.667977331637699"><ele>689.25</ele><time>2026-03-24T14:02:24.004Z</time></trkpt><trkpt lat="30.252665244130032" lon="-5.667966348999198"><ele>688.5</ele><time>2026-03-24T14:02:25.004Z</time></trkpt><trkpt lat="30.25253327875726" lon="-5.667921252868739"><ele>687.75</ele><time>2026-03-24T14:02:26.004Z</time></trkpt><trkpt lat="30.25242346701588" lon="-5.667909067765555"><ele>687.0</ele><time>2026-03-24T14:02:27.004Z</time></trkpt><trkpt lat="30.25232498351137" lon="-5.667896733916052"><ele>686.3333333333334</ele><time>2026-03-24T14:02:28.004Z</time></trkpt><trkpt lat="30.25223698194258" lon="-5.667873405791809"><ele>685.6666666666666</ele><time>2026-03-24T14:02:29.004Z</time></trkpt><trkpt lat="30.252165585108532" lon="-5.667854479388478"><ele>685.0</ele><time>2026-03-24T14:02:30.004Z</time></trkpt><trkpt lat="30.252088860299878" lon="-5.667834168608344"><ele>684.3333333333333</ele><time>2026-03-24T14:02:31.004Z</time></trkpt><trkpt lat="30.252026905451256" lon="-5.66781515441703"><ele>683.6666666666666</ele><time>2026-03-24T14:02:32.004Z</time></trkpt><trkpt lat="30.251965998246096" lon="-5.66783488575212"><ele>683.0</ele><time>2026-03-24T14:02:33.004Z</time></trkpt><trkpt lat="30.251899412417067" lon="-5.667940098181464"><ele>683.0</ele><time>2026-03-24T14:02:35.004Z</time></trkpt><trkpt lat="30.251891536555686" lon="-5.6680435186449944"><ele>683.0</ele><time>2026-03-24T14:02:36.004Z</time></trkpt><trkpt lat="30.25187546616279" lon="-5.66813980228702"><ele>683.0</ele><time>2026-03-24T14:02:37.004Z</time></trkpt><trkpt lat="30.251858186554006" lon="-5.668233409774685"><ele>683.0</ele><time>2026-03-24T14:02:38.004Z</time></trkpt><trkpt lat="30.251838484280846" lon="-5.668317800324536"><ele>683.0</ele><time>2026-03-24T14:02:39.004Z</time></trkpt><trkpt lat="30.25181865613131" lon="-5.6684009914721205"><ele>683.0</ele><time>2026-03-24T14:02:40.004Z</time></trkpt><trkpt lat="30.251849005929227" lon="-5.668510963555158"><ele>683.0</ele><time>2026-03-24T14:02:41.004Z</time></trkpt><trkpt lat="30.251851038363977" lon="-5.668612567839889"><ele>683.0</ele><time>2026-03-24T14:02:42.004Z</time></trkpt><trkpt lat="30.251870823312885" lon="-5.668724798397005"><ele>683.0</ele><time>2026-03-24T14:02:43.004Z</time></trkpt><trkpt lat="30.251878391197657" lon="-5.668867598905644"><ele>683.0</ele><time>2026-03-24T14:02:44.004Z</time></trkpt><trkpt lat="30.251922813275204" lon="-5.669014932434814"><ele>683.0</ele><time>2026-03-24T14:02:45.004Z</time></trkpt><trkpt lat="30.251952814984495" lon="-5.669161272388498"><ele>683.0</ele><time>2026-03-24T14:02:46.004Z</time></trkpt><trkpt lat="30.25196936603478" lon="-5.6692976437037395"><ele>683.0</ele><time>2026-03-24T14:02:47.004Z</time></trkpt><trkpt lat="30.251986607854505" lon="-5.669446916593662"><ele>683.0</ele><time>2026-03-24T14:02:48.004Z</time></trkpt><trkpt lat="30.25202851696835" lon="-5.66957356825971"><ele>683.0</ele><time>2026-03-24T14:02:49.004Z</time></trkpt><trkpt lat="30.252042238822956" lon="-5.66970181152636"><ele>682.8</ele><time>2026-03-24T14:02:50.004Z</time></trkpt><trkpt lat="30.252077596790617" lon="-5.669818628762648"><ele>682.5999999999999</ele><time>2026-03-24T14:02:51.004Z</time></trkpt><trkpt lat="30.252119816815757" lon="-5.6699426343612895"><ele>682.4000000000001</ele><time>2026-03-24T14:02:52.004Z</time></trkpt><trkpt lat="30.25217366494262" lon="-5.670050453315849"><ele>682.2</ele><time>2026-03-24T14:02:53.004Z</time></trkpt><trkpt lat="30.25222582347734" lon="-5.670154140526817"><ele>682.0</ele><time>2026-03-24T14:02:54.004Z</time></trkpt><trkpt lat="30.25226646625455" lon="-5.670237356509833"><ele>682.0</ele><time>2026-03-24T14:02:55.004Z</time></trkpt><trkpt lat="30.252284156471916" lon="-5.670312473837781"><ele>682.0</ele><time>2026-03-24T14:02:56.004Z</time></trkpt><trkpt lat="30.252240243395512" lon="-5.670454091713506"><ele>682.0</ele><time>2026-03-24T14:02:58.004Z</time></trkpt><trkpt lat="30.252187513777525" lon="-5.670510628651808"><ele>682.0</ele><time>2026-03-24T14:02:59.004Z</time></trkpt><trkpt lat="30.252114245019285" lon="-5.670542640901671"><ele>682.0</ele><time>2026-03-24T14:03:00.004Z</time></trkpt><trkpt lat="30.252012700097005" lon="-5.670571141627356"><ele>682.0</ele><time>2026-03-24T14:03:01.004Z</time></trkpt><trkpt lat="30.251895735380746" lon="-5.670560453764194"><ele>682.0</ele><time>2026-03-24T14:03:02.004Z</time></trkpt><trkpt lat="30.251822806737827" lon="-5.670650917874837"><ele>682.0</ele><time>2026-03-24T14:03:03.004Z</time></trkpt><trkpt lat="30.25173115192807" lon="-5.670684953040288"><ele>682.0</ele><time>2026-03-24T14:03:04.004Z</time></trkpt><trkpt lat="30.2516262383508" lon="-5.67072013747626"><ele>682.0</ele><time>2026-03-24T14:03:05.004Z</time></trkpt><trkpt lat="30.2515128319176" lon="-5.670739770440858"><ele>682.2</ele><time>2026-03-24T14:03:06.004Z</time></trkpt><trkpt lat="30.251405015540485" lon="-5.67076700315757"><ele>682.4000000000001</ele><time>2026-03-24T14:03:07.004Z</time></trkpt><trkpt lat="30.251304259598207" lon="-5.6708132315005475"><ele>682.5999999999999</ele><time>2026-03-24T14:03:08.004Z</time></trkpt><trkpt lat="30.251206550836535" lon="-5.670860008230797"><ele>682.8</ele><time>2026-03-24T14:03:09.004Z</time></trkpt><trkpt lat="30.25112081323836" lon="-5.670923083075902"><ele>683.0</ele><time>2026-03-24T14:03:10.004Z</time></trkpt><trkpt lat="30.251035005438922" lon="-5.671001247305657"><ele>683.0</ele><time>2026-03-24T14:03:11.004Z</time></trkpt><trkpt lat="30.25093596096782" lon="-5.671071465895701"><ele>683.0</ele><time>2026-03-24T14:03:12.004Z</time></trkpt><trkpt lat="30.25084204432536" lon="-5.671110738976879"><ele>683.0</ele><time>2026-03-24T14:03:13.004Z</time></trkpt><trkpt lat="30.250762452909974" lon="-5.671126446527621"><ele>683.0</ele><time>2026-03-24T14:03:14.004Z</time></trkpt><trkpt lat="30.250689551025925" lon="-5.671131088915844"><ele>683.0</ele><time>2026-03-24T14:03:15.004Z</time></trkpt><trkpt lat="30.25061678778392" lon="-5.671140645614774"><ele>683.0</ele><time>2026-03-24T14:03:16.004Z</time></trkpt><trkpt lat="30.250533441992165" lon="-5.67115101801041"><ele>683.0</ele><time>2026-03-24T14:03:17.004Z</time></trkpt><trkpt lat="30.250451205454073" lon="-5.671167584578054"><ele>683.0</ele><time>2026-03-24T14:03:18.004Z</time></trkpt><trkpt lat="30.250374105328085" lon="-5.671200942071736"><ele>683.0</ele><time>2026-03-24T14:03:19.004Z</time></trkpt><trkpt lat="30.25030292214154" lon="-5.67123171837508"><ele>683.0</ele><time>2026-03-24T14:03:20.004Z</time></trkpt><trkpt lat="30.250230909337628" lon="-5.671271879987268"><ele>683.0</ele><time>2026-03-24T14:03:21.004Z</time></trkpt><trkpt lat="30.2501531372993" lon="-5.6713152773475946"><ele>683.0</ele><time>2026-03-24T14:03:22.004Z</time></trkpt><trkpt lat="30.25007519092894" lon="-5.67136154220931"><ele>683.0</ele><time>2026-03-24T14:03:23.004Z</time></trkpt><trkpt lat="30.24999309946256" lon="-5.671405518664656"><ele>683.0</ele><time>2026-03-24T14:03:24.004Z</time></trkpt><trkpt lat="30.249900227425677" lon="-5.671440619085344"><ele>683.0</ele><time>2026-03-24T14:03:25.004Z</time></trkpt><trkpt lat="30.249806161430755" lon="-5.671460278528057"><ele>683.0</ele><time>2026-03-24T14:03:26.004Z</time></trkpt><trkpt lat="30.249718450180698" lon="-5.671487074727609"><ele>683.0</ele><time>2026-03-24T14:03:27.004Z</time></trkpt><trkpt lat="30.24963216948355" lon="-5.67151695127284"><ele>683.5</ele><time>2026-03-24T14:03:28.004Z</time></trkpt><trkpt lat="30.249543835994913" lon="-5.671545440802146"><ele>684.0</ele><time>2026-03-24T14:03:29.004Z</time></trkpt><trkpt lat="30.24946873501967" lon="-5.671558450392648"><ele>684.5</ele><time>2026-03-24T14:03:30.004Z</time></trkpt><trkpt lat="30.249387385283413" lon="-5.67157940557465"><ele>685.0</ele><time>2026-03-24T14:03:31.004Z</time></trkpt><trkpt lat="30.249310767940177" lon="-5.671607264025022"><ele>685.5</ele><time>2026-03-24T14:03:32.004Z</time></trkpt><trkpt lat="30.24921932856296" lon="-5.671649897171243"><ele>686.0</ele><time>2026-03-24T14:03:33.004Z</time></trkpt><trkpt lat="30.24913859080026" lon="-5.671676915092057"><ele>686.0</ele><time>2026-03-24T14:03:34.004Z</time></trkpt><trkpt lat="30.249077247539507" lon="-5.671697548321179"><ele>686.0</ele><time>2026-03-24T14:03:35.004Z</time></trkpt><trkpt lat="30.24898149564431" lon="-5.6716903340481695"><ele>686.0</ele><time>2026-03-24T14:03:37.004Z</time></trkpt><trkpt lat="30.24891261279701" lon="-5.671549656389341"><ele>686.0</ele><time>2026-03-24T14:03:39.004Z</time></trkpt><trkpt lat="30.248876251079835" lon="-5.671439225164"><ele>686.0</ele><time>2026-03-24T14:03:40.004Z</time></trkpt><trkpt lat="30.248827983393554" lon="-5.671339057574823"><ele>685.8</ele><time>2026-03-24T14:03:41.004Z</time></trkpt><trkpt lat="30.24872337611721" lon="-5.6712672040694585"><ele>685.5999999999999</ele><time>2026-03-24T14:03:43.004Z</time></trkpt><trkpt lat="30.248640018202522" lon="-5.671287241285395"><ele>685.4</ele><time>2026-03-24T14:03:44.004Z</time></trkpt><trkpt lat="30.248568884596995" lon="-5.671333604364152"><ele>685.2</ele><time>2026-03-24T14:03:45.004Z</time></trkpt><trkpt lat="30.248493650490317" lon="-5.671351622567502"><ele>685.0</ele><time>2026-03-24T14:03:46.005Z</time></trkpt><trkpt lat="30.248373736801412" lon="-5.671303280379443"><ele>685.0</ele><time>2026-03-24T14:03:48.005Z</time></trkpt><trkpt lat="30.24831125497639" lon="-5.671256572718213"><ele>685.0</ele><time>2026-03-24T14:03:49.005Z</time></trkpt><trkpt lat="30.248194897439614" lon="-5.671235467542377"><ele>685.0</ele><time>2026-03-24T14:03:51.005Z</time></trkpt><trkpt lat="30.24812485901906" lon="-5.671258322807529"><ele>685.0</ele><time>2026-03-24T14:03:52.005Z</time></trkpt><trkpt lat="30.248059094031152" lon="-5.671295183541802"><ele>685.0</ele><time>2026-03-24T14:03:53.005Z</time></trkpt><trkpt lat="30.247996211260467" lon="-5.671333139048788"><ele>685.0</ele><time>2026-03-24T14:03:54.005Z</time></trkpt><trkpt lat="30.24793004273789" lon="-5.671364852597853"><ele>684.5</ele><time>2026-03-24T14:03:55.005Z</time></trkpt><trkpt lat="30.24785916766008" lon="-5.671396866965162"><ele>684.0</ele><time>2026-03-24T14:03:56.005Z</time></trkpt><trkpt lat="30.247783808122865" lon="-5.671428325451426"><ele>683.5</ele><time>2026-03-24T14:03:57.005Z</time></trkpt><trkpt lat="30.24771936867076" lon="-5.671458436821571"><ele>683.0</ele><time>2026-03-24T14:03:58.005Z</time></trkpt><trkpt lat="30.24765353548533" lon="-5.671488489608786"><ele>682.5</ele><time>2026-03-24T14:03:59.005Z</time></trkpt><trkpt lat="30.247533261646446" lon="-5.67154350556439"><ele>682.0</ele><time>2026-03-24T14:04:01.005Z</time></trkpt><trkpt lat="30.24741332052932" lon="-5.6715397623533255"><ele>682.0</ele><time>2026-03-24T14:04:03.005Z</time></trkpt><trkpt lat="30.247360267447572" lon="-5.671497192037909"><ele>682.0</ele><time>2026-03-24T14:04:04.005Z</time></trkpt><trkpt lat="30.247322868305382" lon="-5.671420560714035"><ele>682.0</ele><time>2026-03-24T14:04:05.005Z</time></trkpt><trkpt lat="30.247307779427732" lon="-5.6713095118789525"><ele>682.0</ele><time>2026-03-24T14:04:06.005Z</time></trkpt><trkpt lat="30.24730690812192" lon="-5.671184126020989"><ele>682.0</ele><time>2026-03-24T14:04:07.005Z</time></trkpt><trkpt lat="30.247294076063316" lon="-5.671065285553957"><ele>682.0</ele><time>2026-03-24T14:04:08.005Z</time></trkpt><trkpt lat="30.24727506424463" lon="-5.670976492668703"><ele>682.3333333333334</ele><time>2026-03-24T14:04:09.005Z</time></trkpt><trkpt lat="30.247243515110075" lon="-5.670889925226706"><ele>682.6666666666667</ele><time>2026-03-24T14:04:10.005Z</time></trkpt><trkpt lat="30.247200460557593" lon="-5.670801542219399"><ele>683.0</ele><time>2026-03-24T14:04:11.005Z</time></trkpt><trkpt lat="30.247159706551866" lon="-5.67070192106415"><ele>683.3333333333334</ele><time>2026-03-24T14:04:12.004Z</time></trkpt><trkpt lat="30.24712548684138" lon="-5.670610361557182"><ele>683.6666666666666</ele><time>2026-03-24T14:04:13.004Z</time></trkpt><trkpt lat="30.247096115390793" lon="-5.6705316619870905"><ele>684.0</ele><time>2026-03-24T14:04:14.005Z</time></trkpt><trkpt lat="30.24705769737571" lon="-5.670453877525275"><ele>684.0</ele><time>2026-03-24T14:04:15.005Z</time></trkpt><trkpt lat="30.24700743256422" lon="-5.67038355656422"><ele>684.0</ele><time>2026-03-24T14:04:16.005Z</time></trkpt><trkpt lat="30.246949954874978" lon="-5.670329082639547"><ele>684.0</ele><time>2026-03-24T14:04:17.005Z</time></trkpt><trkpt lat="30.246884634766364" lon="-5.670291554119325"><ele>684.0</ele><time>2026-03-24T14:04:18.005Z</time></trkpt><trkpt lat="30.24680549010229" lon="-5.670282321673389"><ele>684.0</ele><time>2026-03-24T14:04:19.005Z</time></trkpt><trkpt lat="30.246714789353994" lon="-5.6702880734461845"><ele>684.0</ele><time>2026-03-24T14:04:20.005Z</time></trkpt><trkpt lat="30.246610917454145" lon="-5.670324696334215"><ele>684.0</ele><time>2026-03-24T14:04:21.004Z</time></trkpt><trkpt lat="30.24653259480724" lon="-5.670358708826417"><ele>684.0</ele><time>2026-03-24T14:04:22.004Z</time></trkpt><trkpt lat="30.246457656876387" lon="-5.670371212963851"><ele>684.0</ele><time>2026-03-24T14:04:23.005Z</time></trkpt><trkpt lat="30.246360437712514" lon="-5.6702973595757875"><ele>684.0</ele><time>2026-03-24T14:04:25.005Z</time></trkpt><trkpt lat="30.246279377942336" lon="-5.670179413919924"><ele>684.0</ele><time>2026-03-24T14:04:27.005Z</time></trkpt><trkpt lat="30.24615884584902" lon="-5.670119650143598"><ele>683.8333333333334</ele><time>2026-03-24T14:04:29.005Z</time></trkpt><trkpt lat="30.246094879019306" lon="-5.670135510094938"><ele>683.6666666666666</ele><time>2026-03-24T14:04:30.005Z</time></trkpt><trkpt lat="30.246009183473994" lon="-5.670163007555897"><ele>683.5</ele><time>2026-03-24T14:04:31.005Z</time></trkpt><trkpt lat="30.24591992753968" lon="-5.67019210436495"><ele>683.3333333333333</ele><time>2026-03-24T14:04:32.005Z</time></trkpt><trkpt lat="30.245841621048154" lon="-5.670207538921976"><ele>683.1666666666666</ele><time>2026-03-24T14:04:33.005Z</time></trkpt><trkpt lat="30.2457612476877" lon="-5.6702073189344295"><ele>683.0</ele><time>2026-03-24T14:04:34.005Z</time></trkpt><trkpt lat="30.245676288905447" lon="-5.670198571880439"><ele>682.6666666666666</ele><time>2026-03-24T14:04:35.005Z</time></trkpt><trkpt lat="30.245592891298784" lon="-5.670186419771419"><ele>682.3333333333333</ele><time>2026-03-24T14:04:36.005Z</time></trkpt><trkpt lat="30.245511216597382" lon="-5.670176969106567"><ele>682.0</ele><time>2026-03-24T14:04:37.005Z</time></trkpt><trkpt lat="30.245430402246274" lon="-5.670173981548261"><ele>681.6666666666666</ele><time>2026-03-24T14:04:38.005Z</time></trkpt><trkpt lat="30.245349475252" lon="-5.670168633870677"><ele>681.3333333333334</ele><time>2026-03-24T14:04:39.005Z</time></trkpt><trkpt lat="30.245268383814153" lon="-5.670153247733081"><ele>681.0</ele><time>2026-03-24T14:04:40.005Z</time></trkpt><trkpt lat="30.245185032897822" lon="-5.670124204662161"><ele>681.0</ele><time>2026-03-24T14:04:41.005Z</time></trkpt><trkpt lat="30.24510514896526" lon="-5.6700746578636"><ele>681.0</ele><time>2026-03-24T14:04:42.005Z</time></trkpt><trkpt lat="30.24502748524862" lon="-5.670019633884114"><ele>681.0</ele><time>2026-03-24T14:04:43.005Z</time></trkpt><trkpt lat="30.244956997739365" lon="-5.669976642480895"><ele>681.0</ele><time>2026-03-24T14:04:44.005Z</time></trkpt><trkpt lat="30.24488477503718" lon="-5.669954490531542"><ele>681.0</ele><time>2026-03-24T14:04:45.005Z</time></trkpt><trkpt lat="30.244812213136896" lon="-5.669940531901562"><ele>681.0</ele><time>2026-03-24T14:04:46.005Z</time></trkpt><trkpt lat="30.24473223495963" lon="-5.669921468645761"><ele>681.0</ele><time>2026-03-24T14:04:47.005Z</time></trkpt><trkpt lat="30.244656652098772" lon="-5.6698976366035865"><ele>681.0</ele><time>2026-03-24T14:04:48.005Z</time></trkpt><trkpt lat="30.244583580677368" lon="-5.669876312845549"><ele>681.0</ele><time>2026-03-24T14:04:49.005Z</time></trkpt><trkpt lat="30.24450798404437" lon="-5.669861004684883"><ele>681.0</ele><time>2026-03-24T14:04:50.005Z</time></trkpt><trkpt lat="30.244430768683785" lon="-5.66985435369782"><ele>681.0</ele><time>2026-03-24T14:04:51.005Z</time></trkpt><trkpt lat="30.24434901461866" lon="-5.669867778615523"><ele>681.0</ele><time>2026-03-24T14:04:52.005Z</time></trkpt><trkpt lat="30.244267244321925" lon="-5.669891044990475"><ele>681.0</ele><time>2026-03-24T14:04:53.005Z</time></trkpt><trkpt lat="30.24418838105812" lon="-5.669916788687755"><ele>681.0</ele><time>2026-03-24T14:04:54.005Z</time></trkpt><trkpt lat="30.244118729200643" lon="-5.669943745489606"><ele>681.0</ele><time>2026-03-24T14:04:55.005Z</time></trkpt><trkpt lat="30.244042757125555" lon="-5.669966839225041"><ele>681.0</ele><time>2026-03-24T14:04:56.005Z</time></trkpt><trkpt lat="30.24396752759399" lon="-5.669994602287975"><ele>681.0</ele><time>2026-03-24T14:04:57.005Z</time></trkpt><trkpt lat="30.24388540010759" lon="-5.6700184142088235"><ele>681.0</ele><time>2026-03-24T14:04:58.005Z</time></trkpt><trkpt lat="30.243795215121466" lon="-5.670044883848683"><ele>680.6666666666666</ele><time>2026-03-24T14:04:59.005Z</time></trkpt><trkpt lat="30.24372366610465" lon="-5.670065320052109"><ele>680.3333333333334</ele><time>2026-03-24T14:05:00.005Z</time></trkpt><trkpt lat="30.243636844896777" lon="-5.670091653531569"><ele>680.0</ele><time>2026-03-24T14:05:01.005Z</time></trkpt><trkpt lat="30.24354981790363" lon="-5.670104558074306"><ele>679.6666666666667</ele><time>2026-03-24T14:05:02.005Z</time></trkpt><trkpt lat="30.243457758360208" lon="-5.670109443231734"><ele>679.3333333333334</ele><time>2026-03-24T14:05:03.005Z</time></trkpt><trkpt lat="30.243370022126694" lon="-5.67012061900198"><ele>679.0</ele><time>2026-03-24T14:05:04.005Z</time></trkpt><trkpt lat="30.243279578738683" lon="-5.6701364214143934"><ele>679.0</ele><time>2026-03-24T14:05:05.005Z</time></trkpt><trkpt lat="30.2431731114698" lon="-5.670151989527466"><ele>679.0</ele><time>2026-03-24T14:05:06.005Z</time></trkpt><trkpt lat="30.243069718905826" lon="-5.670173731467904"><ele>679.0</ele><time>2026-03-24T14:05:07.005Z</time></trkpt><trkpt lat="30.242960988064606" lon="-5.670196204137165"><ele>679.0</ele><time>2026-03-24T14:05:08.005Z</time></trkpt><trkpt lat="30.242852983071884" lon="-5.670207180889127"><ele>679.0</ele><time>2026-03-24T14:05:09.005Z</time></trkpt><trkpt lat="30.242747934714906" lon="-5.670215644937542"><ele>679.2</ele><time>2026-03-24T14:05:10.005Z</time></trkpt><trkpt lat="30.242645350726136" lon="-5.670224873072093"><ele>679.4000000000001</ele><time>2026-03-24T14:05:11.005Z</time></trkpt><trkpt lat="30.24253775843114" lon="-5.670232789545677"><ele>679.6</ele><time>2026-03-24T14:05:12.005Z</time></trkpt><trkpt lat="30.24243834360855" lon="-5.670242122626007"><ele>679.8</ele><time>2026-03-24T14:05:13.005Z</time></trkpt><trkpt lat="30.242329101215848" lon="-5.670249157176719"><ele>680.0</ele><time>2026-03-24T14:05:14.005Z</time></trkpt><trkpt lat="30.2422194131751" lon="-5.670260409490454"><ele>679.2</ele><time>2026-03-24T14:05:15.005Z</time></trkpt><trkpt lat="30.242111773257417" lon="-5.670274862656208"><ele>678.4</ele><time>2026-03-24T14:05:16.005Z</time></trkpt><trkpt lat="30.242007482264988" lon="-5.670289670759363"><ele>677.5999999999999</ele><time>2026-03-24T14:05:17.005Z</time></trkpt><trkpt lat="30.24190948416047" lon="-5.670311678132831"><ele>676.8</ele><time>2026-03-24T14:05:18.005Z</time></trkpt><trkpt lat="30.24180193763486" lon="-5.670332607232574"><ele>676.0</ele><time>2026-03-24T14:05:19.005Z</time></trkpt><trkpt lat="30.24169079745762" lon="-5.670353713311569"><ele>676.0</ele><time>2026-03-24T14:05:20.005Z</time></trkpt><trkpt lat="30.24157211359146" lon="-5.670373871651839"><ele>676.0</ele><time>2026-03-24T14:05:21.005Z</time></trkpt><trkpt lat="30.24144615353573" lon="-5.670395999113126"><ele>676.0</ele><time>2026-03-24T14:05:22.005Z</time></trkpt><trkpt lat="30.241320135933584" lon="-5.67041883959766"><ele>676.0</ele><time>2026-03-24T14:05:23.005Z</time></trkpt><trkpt lat="30.24119774244809" lon="-5.670438473902755"><ele>676.5</ele><time>2026-03-24T14:05:24.005Z</time></trkpt><trkpt lat="30.241074590235577" lon="-5.6704556354321785"><ele>677.0</ele><time>2026-03-24T14:05:25.005Z</time></trkpt><trkpt lat="30.240954571132246" lon="-5.6704691334243655"><ele>677.5</ele><time>2026-03-24T14:05:26.005Z</time></trkpt><trkpt lat="30.240833393168256" lon="-5.670478986327598"><ele>678.0</ele><time>2026-03-24T14:05:27.005Z</time></trkpt><trkpt lat="30.24070813773947" lon="-5.670490617919486"><ele>677.5</ele><time>2026-03-24T14:05:28.005Z</time></trkpt><trkpt lat="30.240579967681246" lon="-5.670497169760794"><ele>677.0</ele><time>2026-03-24T14:05:29.005Z</time></trkpt><trkpt lat="30.24046097773677" lon="-5.670505411208727"><ele>676.5</ele><time>2026-03-24T14:05:30.005Z</time></trkpt><trkpt lat="30.2403306514664" lon="-5.670511081113354"><ele>676.0</ele><time>2026-03-24T14:05:31.005Z</time></trkpt><trkpt lat="30.240203011628005" lon="-5.670512581120302"><ele>676.0</ele><time>2026-03-24T14:05:32.005Z</time></trkpt><trkpt lat="30.240071466855923" lon="-5.670513140819455"><ele>676.0</ele><time>2026-03-24T14:05:33.005Z</time></trkpt><trkpt lat="30.239938840578606" lon="-5.670511470054291"><ele>676.0</ele><time>2026-03-24T14:05:34.005Z</time></trkpt><trkpt lat="30.239811080280184" lon="-5.670507975158694"><ele>676.0</ele><time>2026-03-24T14:05:35.005Z</time></trkpt><trkpt lat="30.23968339061831" lon="-5.670497885846802"><ele>676.0</ele><time>2026-03-24T14:05:36.005Z</time></trkpt><trkpt lat="30.239552182860827" lon="-5.670485236591841"><ele>676.0</ele><time>2026-03-24T14:05:37.005Z</time></trkpt><trkpt lat="30.239426384476236" lon="-5.670476601216847"><ele>676.0</ele><time>2026-03-24T14:05:38.005Z</time></trkpt><trkpt lat="30.23930212285442" lon="-5.670467772695977"><ele>676.0</ele><time>2026-03-24T14:05:39.005Z</time></trkpt><trkpt lat="30.239176580313607" lon="-5.670456309873097"><ele>676.0</ele><time>2026-03-24T14:05:40.005Z</time></trkpt><trkpt lat="30.239052873542665" lon="-5.670448184858072"><ele>676.0</ele><time>2026-03-24T14:05:41.005Z</time></trkpt><trkpt lat="30.23892769317079" lon="-5.670445474013838"><ele>676.0</ele><time>2026-03-24T14:05:42.005Z</time></trkpt><trkpt lat="30.238800941097068" lon="-5.670441149536449"><ele>676.0</ele><time>2026-03-24T14:05:43.005Z</time></trkpt><trkpt lat="30.238676888277304" lon="-5.670436288120582"><ele>676.0</ele><time>2026-03-24T14:05:44.005Z</time></trkpt><trkpt lat="30.238558164049678" lon="-5.670435277125612"><ele>676.0</ele><time>2026-03-24T14:05:45.005Z</time></trkpt><trkpt lat="30.238436687114223" lon="-5.67043399540019"><ele>676.0</ele><time>2026-03-24T14:05:46.005Z</time></trkpt><trkpt lat="30.23831329618672" lon="-5.670424302225864"><ele>676.0</ele><time>2026-03-24T14:05:47.005Z</time></trkpt><trkpt lat="30.23818203327651" lon="-5.670420250781491"><ele>675.75</ele><time>2026-03-24T14:05:48.005Z</time></trkpt><trkpt lat="30.238064000165835" lon="-5.670414071997606"><ele>675.5</ele><time>2026-03-24T14:05:49.005Z</time></trkpt><trkpt lat="30.23793750324276" lon="-5.670410966088513"><ele>675.25</ele><time>2026-03-24T14:05:50.005Z</time></trkpt><trkpt lat="30.23781423659799" lon="-5.67040420790201"><ele>675.0</ele><time>2026-03-24T14:05:51.005Z</time></trkpt><trkpt lat="30.237692615568175" lon="-5.670400341686277"><ele>675.0</ele><time>2026-03-24T14:05:52.005Z</time></trkpt><trkpt lat="30.23756759100833" lon="-5.67039706061923"><ele>675.0</ele><time>2026-03-24T14:05:53.005Z</time></trkpt><trkpt lat="30.23745032023329" lon="-5.670394737463147"><ele>675.0</ele><time>2026-03-24T14:05:54.005Z</time></trkpt><trkpt lat="30.237340461819883" lon="-5.670392902054665"><ele>675.0</ele><time>2026-03-24T14:05:55.005Z</time></trkpt><trkpt lat="30.237238526012106" lon="-5.6703815314111665"><ele>674.75</ele><time>2026-03-24T14:05:56.005Z</time></trkpt><trkpt lat="30.237138584159396" lon="-5.670381458254775"><ele>674.5</ele><time>2026-03-24T14:05:57.005Z</time></trkpt><trkpt lat="30.237028217949824" lon="-5.670398963140264"><ele>674.25</ele><time>2026-03-24T14:05:58.005Z</time></trkpt><trkpt lat="30.23690699542049" lon="-5.670428425755977"><ele>674.0</ele><time>2026-03-24T14:05:59.005Z</time></trkpt><trkpt lat="30.236793577321606" lon="-5.670466625458758"><ele>674.0</ele><time>2026-03-24T14:06:00.005Z</time></trkpt><trkpt lat="30.23665971569917" lon="-5.6705156670787895"><ele>674.0</ele><time>2026-03-24T14:06:01.005Z</time></trkpt><trkpt lat="30.236510785319485" lon="-5.670563238850367"><ele>674.0</ele><time>2026-03-24T14:06:02.005Z</time></trkpt><trkpt lat="30.236348435099163" lon="-5.670615557217233"><ele>674.5</ele><time>2026-03-24T14:06:03.005Z</time></trkpt><trkpt lat="30.236196538015452" lon="-5.6706676266836435"><ele>675.0</ele><time>2026-03-24T14:06:04.005Z</time></trkpt><trkpt lat="30.236069227873045" lon="-5.67070662193215"><ele>675.5</ele><time>2026-03-24T14:06:05.005Z</time></trkpt><trkpt lat="30.23595130791258" lon="-5.670743217049716"><ele>676.0</ele><time>2026-03-24T14:06:06.005Z</time></trkpt><trkpt lat="30.235841795217198" lon="-5.670780993545627"><ele>676.0</ele><time>2026-03-24T14:06:07.005Z</time></trkpt><trkpt lat="30.235748517775825" lon="-5.670835613615133"><ele>676.0</ele><time>2026-03-24T14:06:08.005Z</time></trkpt><trkpt lat="30.235676110156856" lon="-5.670917736991218"><ele>676.0</ele><time>2026-03-24T14:06:09.005Z</time></trkpt><trkpt lat="30.23562662973723" lon="-5.67102064552751"><ele>676.0</ele><time>2026-03-24T14:06:10.005Z</time></trkpt><trkpt lat="30.235611528323766" lon="-5.671131831592189"><ele>676.0</ele><time>2026-03-24T14:06:11.005Z</time></trkpt><trkpt lat="30.235621021064052" lon="-5.671259525001304"><ele>676.0</ele><time>2026-03-24T14:06:12.005Z</time></trkpt><trkpt lat="30.235661131616457" lon="-5.671401821076746"><ele>676.0</ele><time>2026-03-24T14:06:13.005Z</time></trkpt><trkpt lat="30.235704155742614" lon="-5.671562725891438"><ele>676.0</ele><time>2026-03-24T14:06:14.005Z</time></trkpt><trkpt lat="30.235756212663528" lon="-5.67174554111274"><ele>676.0</ele><time>2026-03-24T14:06:15.005Z</time></trkpt><trkpt lat="30.2358099867113" lon="-5.671940607855902"><ele>676.6666666666667</ele><time>2026-03-24T14:06:16.005Z</time></trkpt><trkpt lat="30.23586762365335" lon="-5.6721436423856195"><ele>677.3333333333334</ele><time>2026-03-24T14:06:17.005Z</time></trkpt><trkpt lat="30.235925975997816" lon="-5.672346479995563"><ele>678.0</ele><time>2026-03-24T14:06:18.005Z</time></trkpt><trkpt lat="30.235979070761882" lon="-5.672548768489946"><ele>678.0</ele><time>2026-03-24T14:06:19.005Z</time></trkpt><trkpt lat="30.236041166371383" lon="-5.672749932131683"><ele>678.0</ele><time>2026-03-24T14:06:20.005Z</time></trkpt><trkpt lat="30.236102959540037" lon="-5.6729474450627775"><ele>678.0</ele><time>2026-03-24T14:06:21.005Z</time></trkpt><trkpt lat="30.236166854375014" lon="-5.673122944522381"><ele>678.0</ele><time>2026-03-24T14:06:22.005Z</time></trkpt><trkpt lat="30.236224267852577" lon="-5.67329685642193"><ele>678.0</ele><time>2026-03-24T14:06:23.005Z</time></trkpt><trkpt lat="30.236283282132252" lon="-5.6734594188567415"><ele>678.0</ele><time>2026-03-24T14:06:24.005Z</time></trkpt><trkpt lat="30.236341496582742" lon="-5.673618277068428"><ele>677.5</ele><time>2026-03-24T14:06:25.005Z</time></trkpt><trkpt lat="30.236399384406255" lon="-5.673771355889803"><ele>677.0</ele><time>2026-03-24T14:06:26.005Z</time></trkpt><trkpt lat="30.23645430653487" lon="-5.673923675635384"><ele>676.5</ele><time>2026-03-24T14:06:27.005Z</time></trkpt><trkpt lat="30.236507050713378" lon="-5.674073091394031"><ele>676.0</ele><time>2026-03-24T14:06:28.005Z</time></trkpt><trkpt lat="30.23655340744313" lon="-5.674220930924697"><ele>676.0</ele><time>2026-03-24T14:06:29.005Z</time></trkpt><trkpt lat="30.23658620982823" lon="-5.674351559028959"><ele>676.0</ele><time>2026-03-24T14:06:30.005Z</time></trkpt><trkpt lat="30.236610933109837" lon="-5.674475319290716"><ele>676.0</ele><time>2026-03-24T14:06:31.005Z</time></trkpt><trkpt lat="30.236607187002488" lon="-5.674596146689678"><ele>676.0</ele><time>2026-03-24T14:06:32.005Z</time></trkpt><trkpt lat="30.236569375316435" lon="-5.674694114838688"><ele>676.0</ele><time>2026-03-24T14:06:33.005Z</time></trkpt><trkpt lat="30.236496366686143" lon="-5.674783369302886"><ele>677.0</ele><time>2026-03-24T14:06:34.005Z</time></trkpt><trkpt lat="30.236403274772268" lon="-5.674852251094921"><ele>678.0</ele><time>2026-03-24T14:06:35.005Z</time></trkpt><trkpt lat="30.236305005999107" lon="-5.674921188965442"><ele>679.0</ele><time>2026-03-24T14:06:36.005Z</time></trkpt><trkpt lat="30.2362044300917" lon="-5.674996489428496"><ele>680.0</ele><time>2026-03-24T14:06:37.005Z</time></trkpt><trkpt lat="30.23611162499879" lon="-5.675068424864562"><ele>680.0</ele><time>2026-03-24T14:06:38.005Z</time></trkpt><trkpt lat="30.236022311728604" lon="-5.6751383347530755"><ele>680.0</ele><time>2026-03-24T14:06:39.005Z</time></trkpt><trkpt lat="30.235930696744767" lon="-5.675209013283034"><ele>680.0</ele><time>2026-03-24T14:06:40.005Z</time></trkpt><trkpt lat="30.235836316701842" lon="-5.675274348592139"><ele>680.0</ele><time>2026-03-24T14:06:41.005Z</time></trkpt><trkpt lat="30.235740365889303" lon="-5.675329337478485"><ele>680.0</ele><time>2026-03-24T14:06:42.005Z</time></trkpt><trkpt lat="30.23563782830597" lon="-5.675381749064582"><ele>680.0</ele><time>2026-03-24T14:06:43.005Z</time></trkpt><trkpt lat="30.235523438592935" lon="-5.675430781940427"><ele>680.0</ele><time>2026-03-24T14:06:44.005Z</time></trkpt><trkpt lat="30.235412056148" lon="-5.675479070476683"><ele>680.0</ele><time>2026-03-24T14:06:45.005Z</time></trkpt><trkpt lat="30.23529479199467" lon="-5.6755265136774256"><ele>680.0</ele><time>2026-03-24T14:06:46.005Z</time></trkpt><trkpt lat="30.235179688460935" lon="-5.675573537160485"><ele>680.0</ele><time>2026-03-24T14:06:47.005Z</time></trkpt><trkpt lat="30.23506756084194" lon="-5.67560061555325"><ele>680.0</ele><time>2026-03-24T14:06:48.005Z</time></trkpt><trkpt lat="30.234956437128368" lon="-5.675616825170984"><ele>680.0</ele><time>2026-03-24T14:06:49.005Z</time></trkpt><trkpt lat="30.2348420899297" lon="-5.675621152021848"><ele>680.0</ele><time>2026-03-24T14:06:50.005Z</time></trkpt><trkpt lat="30.234736799855593" lon="-5.6756189908104435"><ele>680.0</ele><time>2026-03-24T14:06:51.005Z</time></trkpt><trkpt lat="30.23463267890734" lon="-5.675600158731275"><ele>680.75</ele><time>2026-03-24T14:06:52.005Z</time></trkpt><trkpt lat="30.234530530525237" lon="-5.675550486393383"><ele>681.5</ele><time>2026-03-24T14:06:53.005Z</time></trkpt><trkpt lat="30.234434725851308" lon="-5.675482523095397"><ele>682.25</ele><time>2026-03-24T14:06:54.005Z</time></trkpt><trkpt lat="30.234326460423436" lon="-5.675394031740339"><ele>683.0</ele><time>2026-03-24T14:06:55.005Z</time></trkpt><trkpt lat="30.234197785810753" lon="-5.675291533284443"><ele>683.25</ele><time>2026-03-24T14:06:56.005Z</time></trkpt><trkpt lat="30.234071558864027" lon="-5.675181345982937"><ele>683.5</ele><time>2026-03-24T14:06:57.005Z</time></trkpt><trkpt lat="30.23397033095143" lon="-5.675110914187519"><ele>683.75</ele><time>2026-03-24T14:06:58.005Z</time></trkpt><trkpt lat="30.23387873616326" lon="-5.675013744575842"><ele>684.0</ele><time>2026-03-24T14:06:59.005Z</time></trkpt><trkpt lat="30.23377618612394" lon="-5.674975481550401"><ele>683.4000000000001</ele><time>2026-03-24T14:07:00.005Z</time></trkpt><trkpt lat="30.233674169146738" lon="-5.674897879382276"><ele>682.8</ele><time>2026-03-24T14:07:01.005Z</time></trkpt><trkpt lat="30.233588999627973" lon="-5.674820575070964"><ele>682.2</ele><time>2026-03-24T14:07:02.005Z</time></trkpt><trkpt lat="30.233506829937806" lon="-5.674748614424152"><ele>681.5999999999999</ele><time>2026-03-24T14:07:03.005Z</time></trkpt><trkpt lat="30.23344083156389" lon="-5.67468329562234"><ele>681.0</ele><time>2026-03-24T14:07:04.005Z</time></trkpt><trkpt lat="30.23336182086118" lon="-5.674649095442236"><ele>681.0</ele><time>2026-03-24T14:07:05.005Z</time></trkpt><trkpt lat="30.233254654873225" lon="-5.674705719525652"><ele>681.0</ele><time>2026-03-24T14:07:06.005Z</time></trkpt><trkpt lat="30.233167903886358" lon="-5.674753414486741"><ele>681.0</ele><time>2026-03-24T14:07:07.005Z</time></trkpt><trkpt lat="30.233093914053224" lon="-5.674826310622711"><ele>681.0</ele><time>2026-03-24T14:07:08.005Z</time></trkpt><trkpt lat="30.23302023947181" lon="-5.674895909088161"><ele>681.0</ele><time>2026-03-24T14:07:09.005Z</time></trkpt><trkpt lat="30.23294486964992" lon="-5.674957262635793"><ele>681.1666666666666</ele><time>2026-03-24T14:07:10.005Z</time></trkpt><trkpt lat="30.23287586201108" lon="-5.6750016851634655"><ele>681.3333333333334</ele><time>2026-03-24T14:07:11.005Z</time></trkpt><trkpt lat="30.232809904583778" lon="-5.675029055938829"><ele>681.5</ele><time>2026-03-24T14:07:12.005Z</time></trkpt><trkpt lat="30.232730786163156" lon="-5.675070133989574"><ele>681.6666666666667</ele><time>2026-03-24T14:07:14.005Z</time></trkpt><trkpt lat="30.23265034188712" lon="-5.674954593503961"><ele>681.8333333333334</ele><time>2026-03-24T14:07:15.005Z</time></trkpt><trkpt lat="30.232610575382033" lon="-5.67489506516548"><ele>682.0</ele><time>2026-03-24T14:07:17.005Z</time></trkpt><trkpt lat="30.232570610385743" lon="-5.674812330533129"><ele>682.0</ele><time>2026-03-24T14:07:20.005Z</time></trkpt><trkpt lat="30.232542750241212" lon="-5.674723195527315"><ele>682.0</ele><time>2026-03-24T14:07:23.005Z</time></trkpt><trkpt lat="30.232506036981842" lon="-5.674621882431816"><ele>682.0</ele><time>2026-03-24T14:07:28.005Z</time></trkpt><trkpt lat="30.232468681570072" lon="-5.67455216969419"><ele>682.0</ele><time>2026-03-24T14:07:29.005Z</time></trkpt><trkpt lat="30.232425624498227" lon="-5.674482627316547"><ele>682.0</ele><time>2026-03-24T14:07:30.005Z</time></trkpt><trkpt lat="30.232381343548578" lon="-5.674406670647735"><ele>682.0</ele><time>2026-03-24T14:07:31.005Z</time></trkpt><trkpt lat="30.232338599473437" lon="-5.674330617179728"><ele>682.2</ele><time>2026-03-24T14:07:32.005Z</time></trkpt><trkpt lat="30.232295706352314" lon="-5.674252728527984"><ele>682.4000000000001</ele><time>2026-03-24T14:07:33.005Z</time></trkpt><trkpt lat="30.23224522584772" lon="-5.674166532624405"><ele>682.5999999999999</ele><time>2026-03-24T14:07:34.005Z</time></trkpt><trkpt lat="30.232195413384236" lon="-5.6740656416284665"><ele>682.8</ele><time>2026-03-24T14:07:35.005Z</time></trkpt><trkpt lat="30.23214003981836" lon="-5.6739530801493085"><ele>683.0</ele><time>2026-03-24T14:07:36.005Z</time></trkpt><trkpt lat="30.23207169772249" lon="-5.673859072209429"><ele>683.0</ele><time>2026-03-24T14:07:37.005Z</time></trkpt><trkpt lat="30.232008479193606" lon="-5.673756760142409"><ele>683.0</ele><time>2026-03-24T14:07:38.005Z</time></trkpt><trkpt lat="30.231936976136815" lon="-5.6736514861370235"><ele>683.0</ele><time>2026-03-24T14:07:39.005Z</time></trkpt><trkpt lat="30.231861919115268" lon="-5.673538125274204"><ele>683.0</ele><time>2026-03-24T14:07:40.005Z</time></trkpt><trkpt lat="30.231785006417056" lon="-5.673423090315092"><ele>683.0</ele><time>2026-03-24T14:07:41.005Z</time></trkpt><trkpt lat="30.23170607076397" lon="-5.673306423201601"><ele>683.0</ele><time>2026-03-24T14:07:42.005Z</time></trkpt><trkpt lat="30.23162154227311" lon="-5.67318873927616"><ele>683.0</ele><time>2026-03-24T14:07:43.005Z</time></trkpt><trkpt lat="30.231533104568353" lon="-5.673056263478958"><ele>683.0</ele><time>2026-03-24T14:07:44.005Z</time></trkpt><trkpt lat="30.23145086647489" lon="-5.672930439191506"><ele>683.0</ele><time>2026-03-24T14:07:45.005Z</time></trkpt><trkpt lat="30.23137814679228" lon="-5.672810365095358"><ele>683.0</ele><time>2026-03-24T14:07:46.005Z</time></trkpt><trkpt lat="30.23130804420737" lon="-5.672731938480137"><ele>683.0</ele><time>2026-03-24T14:07:47.005Z</time></trkpt><trkpt lat="30.23124633846856" lon="-5.672627104085296"><ele>683.0</ele><time>2026-03-24T14:07:48.005Z</time></trkpt><trkpt lat="30.23118718671405" lon="-5.672529852374008"><ele>683.0</ele><time>2026-03-24T14:07:49.005Z</time></trkpt><trkpt lat="30.23111250615562" lon="-5.672439474039"><ele>683.0</ele><time>2026-03-24T14:07:50.005Z</time></trkpt><trkpt lat="30.23104297382115" lon="-5.6723550993756735"><ele>683.0</ele><time>2026-03-24T14:07:51.005Z</time></trkpt><trkpt lat="30.230975113154972" lon="-5.672261127751353"><ele>683.0</ele><time>2026-03-24T14:07:52.005Z</time></trkpt><trkpt lat="30.230905396088474" lon="-5.672151796312451"><ele>683.0</ele><time>2026-03-24T14:07:53.005Z</time></trkpt><trkpt lat="30.23083568292183" lon="-5.6720313361788"><ele>683.0</ele><time>2026-03-24T14:07:54.005Z</time></trkpt><trkpt lat="30.230771664435174" lon="-5.671908825524229"><ele>683.0</ele><time>2026-03-24T14:07:55.005Z</time></trkpt><trkpt lat="30.230713643034136" lon="-5.671802773566432"><ele>683.0</ele><time>2026-03-24T14:07:56.005Z</time></trkpt><trkpt lat="30.230648242619022" lon="-5.671709542206427"><ele>683.0</ele><time>2026-03-24T14:07:57.005Z</time></trkpt><trkpt lat="30.230585816393624" lon="-5.671610556156075"><ele>683.0</ele><time>2026-03-24T14:07:58.005Z</time></trkpt><trkpt lat="30.230524580357326" lon="-5.671510367602022"><ele>683.0</ele><time>2026-03-24T14:07:59.005Z</time></trkpt><trkpt lat="30.230470343975135" lon="-5.671416580686547"><ele>683.0</ele><time>2026-03-24T14:08:00.005Z</time></trkpt><trkpt lat="30.230422790074126" lon="-5.671312329334147"><ele>683.0</ele><time>2026-03-24T14:08:01.005Z</time></trkpt><trkpt lat="30.2303869617271" lon="-5.671195640250719"><ele>683.0</ele><time>2026-03-24T14:08:02.005Z</time></trkpt><trkpt lat="30.23035159269649" lon="-5.671077840839101"><ele>683.0</ele><time>2026-03-24T14:08:03.005Z</time></trkpt><trkpt lat="30.230308149957" lon="-5.67095453965684"><ele>683.0</ele><time>2026-03-24T14:08:04.005Z</time></trkpt><trkpt lat="30.230255521143032" lon="-5.670846894721381"><ele>683.25</ele><time>2026-03-24T14:08:05.005Z</time></trkpt><trkpt lat="30.230196483585104" lon="-5.670732263560759"><ele>683.5</ele><time>2026-03-24T14:08:06.005Z</time></trkpt><trkpt lat="30.230136338896923" lon="-5.670622596376776"><ele>683.75</ele><time>2026-03-24T14:08:07.005Z</time></trkpt><trkpt lat="30.230073176140948" lon="-5.670514073493507"><ele>684.0</ele><time>2026-03-24T14:08:08.005Z</time></trkpt><trkpt lat="30.230013860816186" lon="-5.670399320454689"><ele>684.0</ele><time>2026-03-24T14:08:09.005Z</time></trkpt><trkpt lat="30.22995322039913" lon="-5.6702915811246"><ele>684.0</ele><time>2026-03-24T14:08:10.005Z</time></trkpt><trkpt lat="30.22988524792315" lon="-5.670173893123271"><ele>684.0</ele><time>2026-03-24T14:08:11.005Z</time></trkpt><trkpt lat="30.22982333009868" lon="-5.670059734090385"><ele>684.0</ele><time>2026-03-24T14:08:12.005Z</time></trkpt><trkpt lat="30.22976809389229" lon="-5.669945149805644"><ele>683.75</ele><time>2026-03-24T14:08:13.005Z</time></trkpt><trkpt lat="30.229710799387217" lon="-5.669834416991964"><ele>683.5</ele><time>2026-03-24T14:08:14.005Z</time></trkpt><trkpt lat="30.229651875508186" lon="-5.6697239590690875"><ele>683.25</ele><time>2026-03-24T14:08:15.005Z</time></trkpt><trkpt lat="30.2295871580902" lon="-5.669610797922627"><ele>683.0</ele><time>2026-03-24T14:08:16.005Z</time></trkpt><trkpt lat="30.229537211497846" lon="-5.669494610110576"><ele>683.0</ele><time>2026-03-24T14:08:17.005Z</time></trkpt><trkpt lat="30.229484430129684" lon="-5.669372916729607"><ele>683.0</ele><time>2026-03-24T14:08:18.005Z</time></trkpt><trkpt lat="30.229431758671115" lon="-5.669264287887601"><ele>683.0</ele><time>2026-03-24T14:08:19.005Z</time></trkpt><trkpt lat="30.229380172018526" lon="-5.669141615958061"><ele>683.0</ele><time>2026-03-24T14:08:20.005Z</time></trkpt><trkpt lat="30.229324432543816" lon="-5.669020134018045"><ele>683.0</ele><time>2026-03-24T14:08:21.005Z</time></trkpt><trkpt lat="30.229270772607897" lon="-5.668906274642308"><ele>683.0</ele><time>2026-03-24T14:08:22.005Z</time></trkpt><trkpt lat="30.22921783437214" lon="-5.668801717421693"><ele>683.0</ele><time>2026-03-24T14:08:23.006Z</time></trkpt><trkpt lat="30.22916377089913" lon="-5.66868550439702"><ele>683.0</ele><time>2026-03-24T14:08:24.006Z</time></trkpt><trkpt lat="30.229102309715273" lon="-5.668563042820011"><ele>683.25</ele><time>2026-03-24T14:08:25.006Z</time></trkpt><trkpt lat="30.229039739622507" lon="-5.668446577604526"><ele>683.5</ele><time>2026-03-24T14:08:26.006Z</time></trkpt><trkpt lat="30.228974356887353" lon="-5.668333658145662"><ele>683.75</ele><time>2026-03-24T14:08:27.006Z</time></trkpt><trkpt lat="30.228908896299703" lon="-5.668216074210821"><ele>684.0</ele><time>2026-03-24T14:08:28.006Z</time></trkpt><trkpt lat="30.228836773187634" lon="-5.668085593540398"><ele>683.75</ele><time>2026-03-24T14:08:29.006Z</time></trkpt><trkpt lat="30.228774205551286" lon="-5.667949021988957"><ele>683.5</ele><time>2026-03-24T14:08:30.006Z</time></trkpt><trkpt lat="30.22870455516797" lon="-5.667801189663517"><ele>683.25</ele><time>2026-03-24T14:08:31.006Z</time></trkpt><trkpt lat="30.228646882011734" lon="-5.667673574868729"><ele>683.0</ele><time>2026-03-24T14:08:32.005Z</time></trkpt><trkpt lat="30.228592936792563" lon="-5.6675511890469155"><ele>683.0</ele><time>2026-03-24T14:08:33.005Z</time></trkpt><trkpt lat="30.22854544888401" lon="-5.6674232750151585"><ele>683.0</ele><time>2026-03-24T14:08:34.005Z</time></trkpt><trkpt lat="30.228495046732487" lon="-5.667290341748241"><ele>683.0</ele><time>2026-03-24T14:08:35.005Z</time></trkpt><trkpt lat="30.228441736348117" lon="-5.667161111352888"><ele>683.0</ele><time>2026-03-24T14:08:36.005Z</time></trkpt><trkpt lat="30.228391152347903" lon="-5.66703272930084"><ele>683.0</ele><time>2026-03-24T14:08:37.005Z</time></trkpt><trkpt lat="30.22834710106481" lon="-5.6669071159277635"><ele>683.0</ele><time>2026-03-24T14:08:38.005Z</time></trkpt><trkpt lat="30.228309363884133" lon="-5.6667780644263726"><ele>683.0</ele><time>2026-03-24T14:08:39.005Z</time></trkpt><trkpt lat="30.22827457193938" lon="-5.666650548044592"><ele>683.0</ele><time>2026-03-24T14:08:40.005Z</time></trkpt><trkpt lat="30.228242737608234" lon="-5.66652720753522"><ele>683.0</ele><time>2026-03-24T14:08:41.005Z</time></trkpt><trkpt lat="30.228213746080705" lon="-5.666406985298827"><ele>683.0</ele><time>2026-03-24T14:08:42.005Z</time></trkpt><trkpt lat="30.228181590586804" lon="-5.666275697144202"><ele>683.0</ele><time>2026-03-24T14:08:43.005Z</time></trkpt><trkpt lat="30.228146039738068" lon="-5.666157705705842"><ele>683.0</ele><time>2026-03-24T14:08:44.005Z</time></trkpt><trkpt lat="30.228113722357005" lon="-5.666043312312824"><ele>683.0</ele><time>2026-03-24T14:08:45.005Z</time></trkpt><trkpt lat="30.228083225907017" lon="-5.66593740574345"><ele>683.2</ele><time>2026-03-24T14:08:46.005Z</time></trkpt><trkpt lat="30.22804687495691" lon="-5.665827252995108"><ele>683.4</ele><time>2026-03-24T14:08:47.005Z</time></trkpt><trkpt lat="30.228013141656792" lon="-5.665704745473488"><ele>683.6</ele><time>2026-03-24T14:08:48.005Z</time></trkpt><trkpt lat="30.227985333654175" lon="-5.665583737121641"><ele>683.8000000000001</ele><time>2026-03-24T14:08:49.005Z</time></trkpt><trkpt lat="30.227962859387073" lon="-5.665458231075925"><ele>684.0</ele><time>2026-03-24T14:08:50.005Z</time></trkpt><trkpt lat="30.227938117817082" lon="-5.6653244692725995"><ele>684.0</ele><time>2026-03-24T14:08:51.005Z</time></trkpt><trkpt lat="30.227908906107643" lon="-5.665180335323128"><ele>684.0</ele><time>2026-03-24T14:08:52.005Z</time></trkpt><trkpt lat="30.227885099371626" lon="-5.66504626290879"><ele>684.0</ele><time>2026-03-24T14:08:53.005Z</time></trkpt><trkpt lat="30.227852690179546" lon="-5.664924065042795"><ele>684.0</ele><time>2026-03-24T14:08:54.005Z</time></trkpt><trkpt lat="30.22782553421134" lon="-5.664814148135896"><ele>684.0</ele><time>2026-03-24T14:08:55.005Z</time></trkpt><trkpt lat="30.227798728653802" lon="-5.6647248083353405"><ele>684.0</ele><time>2026-03-24T14:08:56.005Z</time></trkpt><trkpt lat="30.227776884066618" lon="-5.664656246347745"><ele>684.0</ele><time>2026-03-24T14:08:57.005Z</time></trkpt><trkpt lat="30.227728851393504" lon="-5.664573245723373"><ele>684.0</ele><time>2026-03-24T14:08:59.005Z</time></trkpt><trkpt lat="30.22769108128096" lon="-5.664482627315183"><ele>684.0</ele><time>2026-03-24T14:09:01.005Z</time></trkpt><trkpt lat="30.22766898633424" lon="-5.66435412637554"><ele>684.0</ele><time>2026-03-24T14:09:03.005Z</time></trkpt><trkpt lat="30.22766359437889" lon="-5.664268329797619"><ele>683.8000000000001</ele><time>2026-03-24T14:09:04.005Z</time></trkpt><trkpt lat="30.22764544889847" lon="-5.6641695508352035"><ele>683.6</ele><time>2026-03-24T14:09:05.005Z</time></trkpt><trkpt lat="30.2276220758931" lon="-5.664051496635862"><ele>683.4</ele><time>2026-03-24T14:09:06.005Z</time></trkpt><trkpt lat="30.22758868984583" lon="-5.6639386785935235"><ele>683.2</ele><time>2026-03-24T14:09:07.005Z</time></trkpt><trkpt lat="30.22756312476705" lon="-5.663820022070228"><ele>683.0</ele><time>2026-03-24T14:09:08.005Z</time></trkpt><trkpt lat="30.227538974363945" lon="-5.6637103825395805"><ele>682.8</ele><time>2026-03-24T14:09:09.005Z</time></trkpt><trkpt lat="30.227505701120872" lon="-5.663593531980855"><ele>682.5999999999999</ele><time>2026-03-24T14:09:10.005Z</time></trkpt><trkpt lat="30.227464618513533" lon="-5.663478821088165"><ele>682.4000000000001</ele><time>2026-03-24T14:09:11.005Z</time></trkpt><trkpt lat="30.227425510407" lon="-5.663365380271021"><ele>682.2</ele><time>2026-03-24T14:09:12.005Z</time></trkpt><trkpt lat="30.227384178718932" lon="-5.663260234397601"><ele>682.0</ele><time>2026-03-24T14:09:13.005Z</time></trkpt><trkpt lat="30.227346933081023" lon="-5.663173885332382"><ele>682.0</ele><time>2026-03-24T14:09:14.005Z</time></trkpt><trkpt lat="30.227311549165837" lon="-5.663086403615115"><ele>682.0</ele><time>2026-03-24T14:09:15.005Z</time></trkpt><trkpt lat="30.227282287018507" lon="-5.663018700536475"><ele>682.0</ele><time>2026-03-24T14:09:16.005Z</time></trkpt><trkpt lat="30.227235436751005" lon="-5.662920162348865"><ele>682.0</ele><time>2026-03-24T14:09:18.005Z</time></trkpt><trkpt lat="30.2271477594205" lon="-5.662909660816284"><ele>682.0</ele><time>2026-03-24T14:09:20.005Z</time></trkpt><trkpt lat="30.227053417846978" lon="-5.662893524334204"><ele>682.0</ele><time>2026-03-24T14:09:22.005Z</time></trkpt><trkpt lat="30.226980230955895" lon="-5.662768913951042"><ele>682.2</ele><time>2026-03-24T14:09:24.005Z</time></trkpt><trkpt lat="30.22693462943256" lon="-5.662673923320926"><ele>682.4000000000001</ele><time>2026-03-24T14:09:25.005Z</time></trkpt><trkpt lat="30.226888400187644" lon="-5.6625880827764785"><ele>682.5999999999999</ele><time>2026-03-24T14:09:26.005Z</time></trkpt><trkpt lat="30.226834422764636" lon="-5.662500673027645"><ele>682.8</ele><time>2026-03-24T14:09:27.005Z</time></trkpt><trkpt lat="30.226773282449575" lon="-5.662414644814604"><ele>683.0</ele><time>2026-03-24T14:09:28.005Z</time></trkpt><trkpt lat="30.226708734364912" lon="-5.662320727509038"><ele>683.0</ele><time>2026-03-24T14:09:29.005Z</time></trkpt><trkpt lat="30.226669576004475" lon="-5.662248633585115"><ele>683.0</ele><time>2026-03-24T14:09:30.005Z</time></trkpt><trkpt lat="30.22663234297837" lon="-5.662182597580602"><ele>683.0</ele><time>2026-03-24T14:09:31.005Z</time></trkpt><trkpt lat="30.226602352730055" lon="-5.662117203555006"><ele>683.0</ele><time>2026-03-24T14:09:32.005Z</time></trkpt><trkpt lat="30.22658812352797" lon="-5.661993596744996"><ele>683.0</ele><time>2026-03-24T14:09:34.005Z</time></trkpt><trkpt lat="30.22658050573312" lon="-5.661915906431374"><ele>683.0</ele><time>2026-03-24T14:09:35.005Z</time></trkpt><trkpt lat="30.226567254035352" lon="-5.661830397271051"><ele>683.0</ele><time>2026-03-24T14:09:36.005Z</time></trkpt><trkpt lat="30.226555349805178" lon="-5.661737750285926"><ele>683.0</ele><time>2026-03-24T14:09:37.005Z</time></trkpt><trkpt lat="30.22654296741736" lon="-5.6616396786549785"><ele>683.0</ele><time>2026-03-24T14:09:38.005Z</time></trkpt><trkpt lat="30.226525795559816" lon="-5.661537864484237"><ele>683.0</ele><time>2026-03-24T14:09:39.005Z</time></trkpt><trkpt lat="30.22650943075674" lon="-5.6614344855680265"><ele>683.0</ele><time>2026-03-24T14:09:40.006Z</time></trkpt><trkpt lat="30.22648678291286" lon="-5.661337911264554"><ele>683.0</ele><time>2026-03-24T14:09:41.006Z</time></trkpt><trkpt lat="30.226466347718176" lon="-5.661250111449833"><ele>683.0</ele><time>2026-03-24T14:09:42.006Z</time></trkpt><trkpt lat="30.226449570524444" lon="-5.661169947008642"><ele>683.0</ele><time>2026-03-24T14:09:43.006Z</time></trkpt><trkpt lat="30.22643265906198" lon="-5.661082326257817"><ele>683.0</ele><time>2026-03-24T14:09:44.006Z</time></trkpt><trkpt lat="30.22640691635163" lon="-5.661000907254789"><ele>683.0</ele><time>2026-03-24T14:09:45.006Z</time></trkpt><trkpt lat="30.226361957918392" lon="-5.6609142154545475"><ele>683.0</ele><time>2026-03-24T14:09:46.006Z</time></trkpt><trkpt lat="30.2263184266264" lon="-5.660828278046929"><ele>683.0</ele><time>2026-03-24T14:09:47.006Z</time></trkpt><trkpt lat="30.226290502972965" lon="-5.660745559666902"><ele>682.8333333333333</ele><time>2026-03-24T14:09:48.006Z</time></trkpt><trkpt lat="30.22624324925033" lon="-5.66061965853494"><ele>682.6666666666666</ele><time>2026-03-24T14:09:50.006Z</time></trkpt><trkpt lat="30.226215071494174" lon="-5.660549888884251"><ele>682.5</ele><time>2026-03-24T14:09:51.006Z</time></trkpt><trkpt lat="30.22614401519882" lon="-5.660466699970493"><ele>682.3333333333334</ele><time>2026-03-24T14:09:53.006Z</time></trkpt><trkpt lat="30.226079563639118" lon="-5.660427942107711"><ele>682.1666666666667</ele><time>2026-03-24T14:09:55.006Z</time></trkpt><trkpt lat="30.226001749310704" lon="-5.660439645873422"><ele>682.0</ele><time>2026-03-24T14:09:58.006Z</time></trkpt><trkpt lat="30.225916411394582" lon="-5.660427220996573"><ele>682.0</ele><time>2026-03-24T14:10:01.006Z</time></trkpt><trkpt lat="30.225860003831716" lon="-5.660339376357626"><ele>682.0</ele><time>2026-03-24T14:10:04.006Z</time></trkpt><trkpt lat="30.225828790537008" lon="-5.660272498884204"><ele>682.0</ele><time>2026-03-24T14:10:06.006Z</time></trkpt><trkpt lat="30.225779566099412" lon="-5.660155322318304"><ele>682.0</ele><time>2026-03-24T14:10:08.006Z</time></trkpt><trkpt lat="30.225745342253596" lon="-5.660082568920119"><ele>682.0</ele><time>2026-03-24T14:10:09.006Z</time></trkpt><trkpt lat="30.225714103452223" lon="-5.660010115518273"><ele>682.0</ele><time>2026-03-24T14:10:10.006Z</time></trkpt><trkpt lat="30.225666392170613" lon="-5.659895118618572"><ele>681.8</ele><time>2026-03-24T14:10:12.006Z</time></trkpt><trkpt lat="30.225625875894856" lon="-5.659776407090021"><ele>681.6</ele><time>2026-03-24T14:10:14.006Z</time></trkpt><trkpt lat="30.225602181228087" lon="-5.659708542547934"><ele>681.4</ele><time>2026-03-24T14:10:15.006Z</time></trkpt><trkpt lat="30.225557747912738" lon="-5.659573482668432"><ele>681.1999999999999</ele><time>2026-03-24T14:10:17.006Z</time></trkpt><trkpt lat="30.225513868382112" lon="-5.659450399249556"><ele>681.0</ele><time>2026-03-24T14:10:19.006Z</time></trkpt><trkpt lat="30.225463676816833" lon="-5.659349877742307"><ele>681.0</ele><time>2026-03-24T14:10:21.006Z</time></trkpt><trkpt lat="30.22541436142668" lon="-5.659268257793133"><ele>681.0</ele><time>2026-03-24T14:10:23.006Z</time></trkpt><trkpt lat="30.225318687763217" lon="-5.65921746300525"><ele>681.0</ele><time>2026-03-24T14:10:25.006Z</time></trkpt><trkpt lat="30.225235564015826" lon="-5.659159026927515"><ele>681.0</ele><time>2026-03-24T14:10:27.006Z</time></trkpt><trkpt lat="30.225156584353854" lon="-5.659092691295966"><ele>681.0</ele><time>2026-03-24T14:10:29.006Z</time></trkpt><trkpt lat="30.225093333283443" lon="-5.659037278149298"><ele>681.0</ele><time>2026-03-24T14:10:31.006Z</time></trkpt><trkpt lat="30.22504500017177" lon="-5.65896775847414"><ele>681.0</ele><time>2026-03-24T14:10:33.005Z</time></trkpt><trkpt lat="30.224987284455562" lon="-5.6589023862989345"><ele>681.0</ele><time>2026-03-24T14:10:35.006Z</time></trkpt><trkpt lat="30.22492507901018" lon="-5.658875991463014"><ele>681.0</ele><time>2026-03-24T14:10:37.006Z</time></trkpt><trkpt lat="30.22483935084346" lon="-5.658851696321618"><ele>681.0</ele><time>2026-03-24T14:10:39.005Z</time></trkpt><trkpt lat="30.22473577962094" lon="-5.658775563198627"><ele>681.0</ele><time>2026-03-24T14:10:41.006Z</time></trkpt><trkpt lat="30.224637208844747" lon="-5.658700804660117"><ele>681.0</ele><time>2026-03-24T14:10:43.005Z</time></trkpt><trkpt lat="30.224576628760342" lon="-5.658662655409761"><ele>681.0</ele><time>2026-03-24T14:10:44.005Z</time></trkpt><trkpt lat="30.224478970765865" lon="-5.658583351997098"><ele>681.0</ele><time>2026-03-24T14:10:46.005Z</time></trkpt><trkpt lat="30.22439892683216" lon="-5.6585271136927195"><ele>681.0</ele><time>2026-03-24T14:10:48.005Z</time></trkpt><trkpt lat="30.22433661739968" lon="-5.658497028112797"><ele>681.0</ele><time>2026-03-24T14:10:50.005Z</time></trkpt><trkpt lat="30.22428436488808" lon="-5.658444940511345"><ele>681.0</ele><time>2026-03-24T14:10:58.005Z</time></trkpt><trkpt lat="30.224227160913262" lon="-5.6584116917172915"><ele>681.0</ele><time>2026-03-24T14:13:25.007Z</time></trkpt><trkpt lat="30.224164452444633" lon="-5.6584032869814145"><ele>681.0</ele><time>2026-03-24T14:13:40.007Z</time></trkpt><trkpt lat="30.22424567030034" lon="-5.6584464903767"><ele>681.0</ele><time>2026-03-24T14:15:15.006Z</time></trkpt><trkpt lat="30.224218362031912" lon="-5.6585159577762205"><ele>681.0</ele><time>2026-03-24T14:15:34.006Z</time></trkpt><trkpt lat="30.224159131833794" lon="-5.658607072669774"><ele>681.0</ele><time>2026-03-24T14:17:34.001Z</time></trkpt><trkpt lat="30.224092549779925" lon="-5.658715203731193"><ele>681.0</ele><time>2026-03-24T14:17:36.001Z</time></trkpt><trkpt lat="30.22404770116245" lon="-5.658772918895053"><ele>681.0</ele><time>2026-03-24T14:17:37.001Z</time></trkpt><trkpt lat="30.22399050730974" lon="-5.658842854775492"><ele>681.0</ele><time>2026-03-24T14:17:38.001Z</time></trkpt><trkpt lat="30.223937892136806" lon="-5.6589119229499225"><ele>681.0</ele><time>2026-03-24T14:17:39.001Z</time></trkpt><trkpt lat="30.22386511130082" lon="-5.658998302282011"><ele>681.0</ele><time>2026-03-24T14:17:40.001Z</time></trkpt><trkpt lat="30.22379514816419" lon="-5.659073927354442"><ele>681.0</ele><time>2026-03-24T14:17:41.001Z</time></trkpt><trkpt lat="30.223740482968775" lon="-5.6591370415880515"><ele>681.0</ele><time>2026-03-24T14:17:42.001Z</time></trkpt><trkpt lat="30.223693279864964" lon="-5.659198602196514"><ele>680.8333333333334</ele><time>2026-03-24T14:17:43.001Z</time></trkpt><trkpt lat="30.223644782844342" lon="-5.659261093830929"><ele>680.6666666666666</ele><time>2026-03-24T14:17:44.001Z</time></trkpt><trkpt lat="30.223593924793867" lon="-5.659318635135618"><ele>680.5</ele><time>2026-03-24T14:17:45.001Z</time></trkpt><trkpt lat="30.223535544710668" lon="-5.659368625881345"><ele>680.3333333333333</ele><time>2026-03-24T14:17:46.001Z</time></trkpt><trkpt lat="30.223463674750555" lon="-5.659418073006089"><ele>680.1666666666666</ele><time>2026-03-24T14:17:47.001Z</time></trkpt><trkpt lat="30.223377013690442" lon="-5.659475364773932"><ele>680.0</ele><time>2026-03-24T14:17:48.001Z</time></trkpt><trkpt lat="30.2232904536223" lon="-5.659522057969502"><ele>680.0</ele><time>2026-03-24T14:17:49.001Z</time></trkpt><trkpt lat="30.223220019959328" lon="-5.659562594992336"><ele>680.0</ele><time>2026-03-24T14:17:50.001Z</time></trkpt><trkpt lat="30.223117306659756" lon="-5.659630305276154"><ele>680.0</ele><time>2026-03-24T14:17:52.001Z</time></trkpt><trkpt lat="30.222997587445445" lon="-5.659723352208206"><ele>680.0</ele><time>2026-03-24T14:17:54.001Z</time></trkpt><trkpt lat="30.222923618161655" lon="-5.659781518182393"><ele>680.0</ele><time>2026-03-24T14:17:55.001Z</time></trkpt><trkpt lat="30.22285410942849" lon="-5.659840872617652"><ele>680.0</ele><time>2026-03-24T14:17:56.001Z</time></trkpt><trkpt lat="30.222786754289295" lon="-5.659903627139291"><ele>680.0</ele><time>2026-03-24T14:17:57.001Z</time></trkpt><trkpt lat="30.222724179447294" lon="-5.659954005007437"><ele>680.0</ele><time>2026-03-24T14:17:58.001Z</time></trkpt><trkpt lat="30.222661932163806" lon="-5.660003245819935"><ele>680.0</ele><time>2026-03-24T14:17:59.001Z</time></trkpt><trkpt lat="30.222560243163322" lon="-5.660025590637796"><ele>680.0</ele><time>2026-03-24T14:18:01.001Z</time></trkpt><trkpt lat="30.222484719046772" lon="-5.659976279392317"><ele>680.0</ele><time>2026-03-24T14:18:03.001Z</time></trkpt><trkpt lat="30.222436250743097" lon="-5.659917164137974"><ele>680.0</ele><time>2026-03-24T14:18:04.001Z</time></trkpt><trkpt lat="30.222345060961043" lon="-5.659847182251803"><ele>680.0</ele><time>2026-03-24T14:18:06.001Z</time></trkpt><trkpt lat="30.22221671094911" lon="-5.659872017165316"><ele>680.0</ele><time>2026-03-24T14:18:08.001Z</time></trkpt><trkpt lat="30.222142488895287" lon="-5.6599178787139985"><ele>680.0</ele><time>2026-03-24T14:18:09.001Z</time></trkpt><trkpt lat="30.22204207681444" lon="-5.65998649816783"><ele>680.0</ele><time>2026-03-24T14:18:10.001Z</time></trkpt><trkpt lat="30.22195076608577" lon="-5.660043007595337"><ele>680.0</ele><time>2026-03-24T14:18:11.001Z</time></trkpt><trkpt lat="30.221867288512637" lon="-5.660096293662338"><ele>680.0</ele><time>2026-03-24T14:18:12.001Z</time></trkpt><trkpt lat="30.221791307529077" lon="-5.660163350289621"><ele>680.0</ele><time>2026-03-24T14:18:13.001Z</time></trkpt><trkpt lat="30.221703465156033" lon="-5.660233047764914"><ele>680.0</ele><time>2026-03-24T14:18:14.001Z</time></trkpt><trkpt lat="30.221619894602643" lon="-5.660306236477114"><ele>680.0</ele><time>2026-03-24T14:18:15.001Z</time></trkpt><trkpt lat="30.221534755920707" lon="-5.660378070459468"><ele>680.0</ele><time>2026-03-24T14:18:16.001Z</time></trkpt><trkpt lat="30.221447710050384" lon="-5.660452581262237"><ele>680.0</ele><time>2026-03-24T14:18:17.001Z</time></trkpt><trkpt lat="30.221374745204482" lon="-5.660526755027029"><ele>680.0</ele><time>2026-03-24T14:18:18.001Z</time></trkpt><trkpt lat="30.22132319735556" lon="-5.6605996187506165"><ele>680.0</ele><time>2026-03-24T14:18:19.001Z</time></trkpt><trkpt lat="30.22128334863942" lon="-5.6606820525870845"><ele>680.0</ele><time>2026-03-24T14:18:20.001Z</time></trkpt><trkpt lat="30.221249775379366" lon="-5.66078495445118"><ele>680.0</ele><time>2026-03-24T14:18:21.001Z</time></trkpt><trkpt lat="30.221242469483112" lon="-5.660890003766373"><ele>680.0</ele><time>2026-03-24T14:18:22.001Z</time></trkpt><trkpt lat="30.221248913186397" lon="-5.661007119466911"><ele>680.0</ele><time>2026-03-24T14:18:23.001Z</time></trkpt><trkpt lat="30.22127345125863" lon="-5.66113882574578"><ele>680.0</ele><time>2026-03-24T14:18:24.001Z</time></trkpt><trkpt lat="30.22128555686993" lon="-5.661275264730244"><ele>680.0</ele><time>2026-03-24T14:18:25.001Z</time></trkpt><trkpt lat="30.221280914479433" lon="-5.661401389237792"><ele>680.2</ele><time>2026-03-24T14:18:26.001Z</time></trkpt><trkpt lat="30.22126195705788" lon="-5.661513551894222"><ele>680.4</ele><time>2026-03-24T14:18:27.001Z</time></trkpt><trkpt lat="30.22122470696593" lon="-5.661628074764848"><ele>680.5999999999999</ele><time>2026-03-24T14:18:28.001Z</time></trkpt><trkpt lat="30.22117345933162" lon="-5.6617397573980295"><ele>680.8</ele><time>2026-03-24T14:18:29.001Z</time></trkpt><trkpt lat="30.221111524732326" lon="-5.661839883979769"><ele>681.0</ele><time>2026-03-24T14:18:30.001Z</time></trkpt><trkpt lat="30.22104330740947" lon="-5.661917726784003"><ele>681.0</ele><time>2026-03-24T14:18:31.001Z</time></trkpt><trkpt lat="30.220969448328265" lon="-5.661972308157526"><ele>681.0</ele><time>2026-03-24T14:18:32.001Z</time></trkpt><trkpt lat="30.220881698744837" lon="-5.662027845647321"><ele>681.0</ele><time>2026-03-24T14:18:33.001Z</time></trkpt><trkpt lat="30.220785199564936" lon="-5.662095903563644"><ele>681.0</ele><time>2026-03-24T14:18:34.001Z</time></trkpt><trkpt lat="30.220684060823533" lon="-5.662164970657348"><ele>681.0</ele><time>2026-03-24T14:18:35.001Z</time></trkpt><trkpt lat="30.220577183722153" lon="-5.662230653536563"><ele>680.5</ele><time>2026-03-24T14:18:36.001Z</time></trkpt><trkpt lat="30.220464438568442" lon="-5.662293667641927"><ele>680.0</ele><time>2026-03-24T14:18:37.001Z</time></trkpt><trkpt lat="30.22034270967232" lon="-5.662355356228485"><ele>679.5</ele><time>2026-03-24T14:18:38.001Z</time></trkpt><trkpt lat="30.220222871933128" lon="-5.662418771026592"><ele>679.0</ele><time>2026-03-24T14:18:39.001Z</time></trkpt><trkpt lat="30.22009939230906" lon="-5.662482242364032"><ele>679.0</ele><time>2026-03-24T14:18:40.001Z</time></trkpt><trkpt lat="30.219969482964782" lon="-5.662542118880486"><ele>679.0</ele><time>2026-03-24T14:18:41.001Z</time></trkpt><trkpt lat="30.219850189736647" lon="-5.662600539282827"><ele>679.0</ele><time>2026-03-24T14:18:42.001Z</time></trkpt><trkpt lat="30.21973788148288" lon="-5.662655625515547"><ele>679.0</ele><time>2026-03-24T14:18:43.001Z</time></trkpt><trkpt lat="30.219631480660105" lon="-5.6626972026298485"><ele>679.0</ele><time>2026-03-24T14:18:44.001Z</time></trkpt><trkpt lat="30.219517714846937" lon="-5.6627245495232446"><ele>679.0</ele><time>2026-03-24T14:18:45.001Z</time></trkpt><trkpt lat="30.219391700863728" lon="-5.6627609363521385"><ele>679.0</ele><time>2026-03-24T14:18:46.001Z</time></trkpt><trkpt lat="30.219262002482537" lon="-5.6628105892961065"><ele>679.0</ele><time>2026-03-24T14:18:47.001Z</time></trkpt><trkpt lat="30.219147349880668" lon="-5.6628525180034535"><ele>679.0</ele><time>2026-03-24T14:18:48.001Z</time></trkpt><trkpt lat="30.219040609731376" lon="-5.662895645186345"><ele>679.0</ele><time>2026-03-24T14:18:49.001Z</time></trkpt><trkpt lat="30.218936299690935" lon="-5.662947556062216"><ele>679.0</ele><time>2026-03-24T14:18:50.001Z</time></trkpt><trkpt lat="30.218836069866704" lon="-5.663003033034735"><ele>679.0</ele><time>2026-03-24T14:18:51.001Z</time></trkpt><trkpt lat="30.218744894307488" lon="-5.6630687030860205"><ele>679.0</ele><time>2026-03-24T14:18:52.001Z</time></trkpt><trkpt lat="30.218646050591612" lon="-5.663146888887924"><ele>678.75</ele><time>2026-03-24T14:18:53.001Z</time></trkpt><trkpt lat="30.21853764515244" lon="-5.663228047973077"><ele>678.5</ele><time>2026-03-24T14:18:54Z</time></trkpt><trkpt lat="30.21841997863521" lon="-5.663301953320109"><ele>678.25</ele><time>2026-03-24T14:18:55Z</time></trkpt><trkpt lat="30.21828843454011" lon="-5.66335505438892"><ele>678.0</ele><time>2026-03-24T14:18:56Z</time></trkpt><trkpt lat="30.218163939623455" lon="-5.663398170331197"><ele>678.5</ele><time>2026-03-24T14:18:57Z</time></trkpt><trkpt lat="30.218044121884063" lon="-5.663434087080009"><ele>679.0</ele><time>2026-03-24T14:18:58Z</time></trkpt><trkpt lat="30.217931249931112" lon="-5.663474875297426"><ele>679.5</ele><time>2026-03-24T14:18:59Z</time></trkpt><trkpt lat="30.217830282800335" lon="-5.663536262842561"><ele>680.0</ele><time>2026-03-24T14:19:00Z</time></trkpt><trkpt lat="30.217729500579395" lon="-5.663612163001044"><ele>680.0</ele><time>2026-03-24T14:19:01Z</time></trkpt><trkpt lat="30.217608047620484" lon="-5.663699103206234"><ele>680.0</ele><time>2026-03-24T14:19:02Z</time></trkpt><trkpt lat="30.21746758829718" lon="-5.663773718173202"><ele>680.0</ele><time>2026-03-24T14:19:03.001Z</time></trkpt><trkpt lat="30.217330441759273" lon="-5.663836459967872"><ele>680.0</ele><time>2026-03-24T14:19:04.001Z</time></trkpt><trkpt lat="30.217209888617326" lon="-5.663892734450914"><ele>680.0</ele><time>2026-03-24T14:19:05Z</time></trkpt><trkpt lat="30.217086097765346" lon="-5.663946355881255"><ele>680.0</ele><time>2026-03-24T14:19:06Z</time></trkpt><trkpt lat="30.216973454140817" lon="-5.663995978853077"><ele>680.0</ele><time>2026-03-24T14:19:07Z</time></trkpt><trkpt lat="30.216868822967932" lon="-5.66404374940023"><ele>680.0</ele><time>2026-03-24T14:19:08Z</time></trkpt><trkpt lat="30.216757665643108" lon="-5.664092313668657"><ele>680.0</ele><time>2026-03-24T14:19:09Z</time></trkpt><trkpt lat="30.21664717441423" lon="-5.664142439390891"><ele>680.0</ele><time>2026-03-24T14:19:10Z</time></trkpt><trkpt lat="30.216537086736626" lon="-5.664193736103261"><ele>680.0</ele><time>2026-03-24T14:19:11Z</time></trkpt><trkpt lat="30.216427982335208" lon="-5.664254159878229"><ele>680.0</ele><time>2026-03-24T14:19:12Z</time></trkpt><trkpt lat="30.216330721790335" lon="-5.664318071981335"><ele>679.6</ele><time>2026-03-24T14:19:13Z</time></trkpt><trkpt lat="30.216240527332037" lon="-5.664383547638718"><ele>679.2</ele><time>2026-03-24T14:19:14Z</time></trkpt><trkpt lat="30.216149774903986" lon="-5.664452301994873"><ele>678.8</ele><time>2026-03-24T14:19:15Z</time></trkpt><trkpt lat="30.216058565454567" lon="-5.664521012535698"><ele>678.4</ele><time>2026-03-24T14:19:16Z</time></trkpt><trkpt lat="30.21596268675902" lon="-5.664589867756944"><ele>678.0</ele><time>2026-03-24T14:19:17Z</time></trkpt><trkpt lat="30.215865930947416" lon="-5.664651379283341"><ele>677.75</ele><time>2026-03-24T14:19:18Z</time></trkpt><trkpt lat="30.215768475908554" lon="-5.664701370358716"><ele>677.5</ele><time>2026-03-24T14:19:19Z</time></trkpt><trkpt lat="30.215668357407058" lon="-5.664748584803196"><ele>677.25</ele><time>2026-03-24T14:19:20Z</time></trkpt><trkpt lat="30.21556492118412" lon="-5.664807906918037"><ele>677.0</ele><time>2026-03-24T14:19:21Z</time></trkpt><trkpt lat="30.215450404065002" lon="-5.664871550205497"><ele>677.0</ele><time>2026-03-24T14:19:22Z</time></trkpt><trkpt lat="30.215334698038856" lon="-5.664934748264923"><ele>677.0</ele><time>2026-03-24T14:19:23Z</time></trkpt><trkpt lat="30.215221476884768" lon="-5.664995814733085"><ele>677.0</ele><time>2026-03-24T14:19:24Z</time></trkpt><trkpt lat="30.21510871608418" lon="-5.665058599964285"><ele>677.0</ele><time>2026-03-24T14:19:25Z</time></trkpt><trkpt lat="30.214997430321883" lon="-5.665123755115062"><ele>677.0</ele><time>2026-03-24T14:19:26Z</time></trkpt><trkpt lat="30.214892735189174" lon="-5.665193733427658"><ele>677.0</ele><time>2026-03-24T14:19:27Z</time></trkpt><trkpt lat="30.21479571622336" lon="-5.665266484427229"><ele>677.0</ele><time>2026-03-24T14:19:28Z</time></trkpt><trkpt lat="30.21470197868455" lon="-5.665317380027098"><ele>677.0</ele><time>2026-03-24T14:19:29Z</time></trkpt><trkpt lat="30.214620830526083" lon="-5.665368561962041"><ele>677.0</ele><time>2026-03-24T14:19:30Z</time></trkpt><trkpt lat="30.21455609610269" lon="-5.665396929963319"><ele>677.1666666666666</ele><time>2026-03-24T14:19:31Z</time></trkpt><trkpt lat="30.2144812937356" lon="-5.665458749610677"><ele>677.3333333333333</ele><time>2026-03-24T14:19:33Z</time></trkpt><trkpt lat="30.214420940465658" lon="-5.66549409579826"><ele>677.5</ele><time>2026-03-24T14:19:39Z</time></trkpt><trkpt lat="30.214362676916014" lon="-5.665458204154582"><ele>677.6666666666666</ele><time>2026-03-24T14:19:41Z</time></trkpt><trkpt lat="30.214318946864562" lon="-5.665323066583075"><ele>677.8333333333334</ele><time>2026-03-24T14:19:43Z</time></trkpt><trkpt lat="30.21426840043392" lon="-5.665240192206036"><ele>678.0</ele><time>2026-03-24T14:19:44Z</time></trkpt><trkpt lat="30.214213058903958" lon="-5.665146709865419"><ele>678.0</ele><time>2026-03-24T14:19:45Z</time></trkpt><trkpt lat="30.21415880966446" lon="-5.6650406026573235"><ele>678.0</ele><time>2026-03-24T14:19:46Z</time></trkpt><trkpt lat="30.21410347945033" lon="-5.664918514844032"><ele>678.0</ele><time>2026-03-24T14:19:47Z</time></trkpt><trkpt lat="30.21404498494203" lon="-5.664792928472846"><ele>678.0</ele><time>2026-03-24T14:19:48Z</time></trkpt><trkpt lat="30.213982156469715" lon="-5.664657371059061"><ele>678.0</ele><time>2026-03-24T14:19:49Z</time></trkpt><trkpt lat="30.213923342827812" lon="-5.6645278043660525"><ele>678.0</ele><time>2026-03-24T14:19:50Z</time></trkpt><trkpt lat="30.21387281558234" lon="-5.66441582872966"><ele>678.0</ele><time>2026-03-24T14:19:51Z</time></trkpt><trkpt lat="30.21382435330388" lon="-5.6643141007825415"><ele>678.0</ele><time>2026-03-24T14:19:52Z</time></trkpt><trkpt lat="30.21378407662204" lon="-5.664214782605948"><ele>678.0</ele><time>2026-03-24T14:19:53Z</time></trkpt><trkpt lat="30.213741135204693" lon="-5.664128521112436"><ele>678.0</ele><time>2026-03-24T14:19:54Z</time></trkpt><trkpt lat="30.21368713883356" lon="-5.664058444548391"><ele>678.0</ele><time>2026-03-24T14:19:55Z</time></trkpt><trkpt lat="30.21361682588954" lon="-5.664016109824069"><ele>678.0</ele><time>2026-03-24T14:19:56Z</time></trkpt><trkpt lat="30.213534505955923" lon="-5.663962629989392"><ele>678.0</ele><time>2026-03-24T14:19:57Z</time></trkpt><trkpt lat="30.21344108777624" lon="-5.66392371083722"><ele>678.0</ele><time>2026-03-24T14:19:59Z</time></trkpt><trkpt lat="30.213352909817758" lon="-5.663958025095852"><ele>678.0</ele><time>2026-03-24T14:20:02Z</time></trkpt><trkpt lat="30.213343941743506" lon="-5.664071804743126"><ele>678.0</ele><time>2026-03-24T14:20:04Z</time></trkpt><trkpt lat="30.21338732545073" lon="-5.664152956633882"><ele>678.0</ele><time>2026-03-24T14:20:05Z</time></trkpt><trkpt lat="30.213427489694933" lon="-5.6642579130208714"><ele>678.0</ele><time>2026-03-24T14:20:06Z</time></trkpt><trkpt lat="30.213457934078438" lon="-5.664366717877921"><ele>678.0</ele><time>2026-03-24T14:20:07Z</time></trkpt><trkpt lat="30.213489360617576" lon="-5.664473794898919"><ele>678.0</ele><time>2026-03-24T14:20:08Z</time></trkpt><trkpt lat="30.213522046434658" lon="-5.6645831394459005"><ele>678.0</ele><time>2026-03-24T14:20:09Z</time></trkpt><trkpt lat="30.21355251053576" lon="-5.664685371397081"><ele>678.0</ele><time>2026-03-24T14:20:10Z</time></trkpt><trkpt lat="30.213576795210052" lon="-5.664767613170576"><ele>678.0</ele><time>2026-03-24T14:20:11Z</time></trkpt><trkpt lat="30.213617300435487" lon="-5.664909038294669"><ele>678.0</ele><time>2026-03-24T14:20:13Z</time></trkpt><trkpt lat="30.21364099217246" lon="-5.664988899169375"><ele>678.0</ele><time>2026-03-24T14:20:14Z</time></trkpt><trkpt lat="30.2136691300594" lon="-5.665070371430224"><ele>678.0</ele><time>2026-03-24T14:20:15.001Z</time></trkpt><trkpt lat="30.213696775678734" lon="-5.665156563962656"><ele>678.0</ele><time>2026-03-24T14:20:16.001Z</time></trkpt><trkpt lat="30.21373004899878" lon="-5.665249229207318"><ele>678.0</ele><time>2026-03-24T14:20:17.001Z</time></trkpt><trkpt lat="30.213765670499015" lon="-5.66534276078641"><ele>678.0</ele><time>2026-03-24T14:20:18.001Z</time></trkpt><trkpt lat="30.213810290872953" lon="-5.6654303418042735"><ele>678.0</ele><time>2026-03-24T14:20:19.001Z</time></trkpt><trkpt lat="30.213858125279838" lon="-5.665514172534147"><ele>678.0</ele><time>2026-03-24T14:20:20.001Z</time></trkpt><trkpt lat="30.213906166912633" lon="-5.665594019365988"><ele>678.0</ele><time>2026-03-24T14:20:21.001Z</time></trkpt><trkpt lat="30.213956565636845" lon="-5.665677242430667"><ele>678.2</ele><time>2026-03-24T14:20:22.001Z</time></trkpt><trkpt lat="30.214008537611917" lon="-5.665764777228536"><ele>678.4</ele><time>2026-03-24T14:20:23.001Z</time></trkpt><trkpt lat="30.21406561719499" lon="-5.665850088077448"><ele>678.6</ele><time>2026-03-24T14:20:24.001Z</time></trkpt><trkpt lat="30.21412712776598" lon="-5.66594044321097"><ele>678.8000000000001</ele><time>2026-03-24T14:20:25.001Z</time></trkpt><trkpt lat="30.21418726980652" lon="-5.666038797911215"><ele>679.0</ele><time>2026-03-24T14:20:26.001Z</time></trkpt><trkpt lat="30.214247470480412" lon="-5.666140280814855"><ele>679.0</ele><time>2026-03-24T14:20:27.001Z</time></trkpt><trkpt lat="30.21429974708839" lon="-5.666239213561955"><ele>679.0</ele><time>2026-03-24T14:20:28.001Z</time></trkpt><trkpt lat="30.214355085309737" lon="-5.666344178367172"><ele>679.0</ele><time>2026-03-24T14:20:29.001Z</time></trkpt><trkpt lat="30.214414061753825" lon="-5.66643653137168"><ele>679.0</ele><time>2026-03-24T14:20:30.001Z</time></trkpt><trkpt lat="30.214472550230383" lon="-5.666535570204289"><ele>679.0</ele><time>2026-03-24T14:20:31.001Z</time></trkpt><trkpt lat="30.214532184749228" lon="-5.666632170833772"><ele>679.0</ele><time>2026-03-24T14:20:32.001Z</time></trkpt><trkpt lat="30.21458458002762" lon="-5.666722743286727"><ele>679.0</ele><time>2026-03-24T14:20:33.001Z</time></trkpt><trkpt lat="30.214625561344896" lon="-5.666802241561438"><ele>679.0</ele><time>2026-03-24T14:20:34.001Z</time></trkpt><trkpt lat="30.214656369654318" lon="-5.6668665117635335"><ele>679.0</ele><time>2026-03-24T14:20:35.001Z</time></trkpt><trkpt lat="30.214694604126798" lon="-5.666953319417493"><ele>679.0</ele><time>2026-03-24T14:20:37.001Z</time></trkpt><trkpt lat="30.21465203810353" lon="-5.667021116754534"><ele>679.0</ele><time>2026-03-24T14:20:40.001Z</time></trkpt><trkpt lat="30.214548797507806" lon="-5.667019796198621"><ele>679.0</ele><time>2026-03-24T14:20:42.001Z</time></trkpt><trkpt lat="30.21447274330333" lon="-5.666987482372373"><ele>679.0</ele><time>2026-03-24T14:20:43.001Z</time></trkpt><trkpt lat="30.21439319973449" lon="-5.66692097639236"><ele>679.0</ele><time>2026-03-24T14:20:44.001Z</time></trkpt><trkpt lat="30.214295856877584" lon="-5.66683254242549"><ele>679.0</ele><time>2026-03-24T14:20:45.001Z</time></trkpt><trkpt lat="30.214183465297673" lon="-5.666758855288183"><ele>679.0</ele><time>2026-03-24T14:20:46.001Z</time></trkpt><trkpt lat="30.214086445932306" lon="-5.666716000103465"><ele>679.0</ele><time>2026-03-24T14:20:47.001Z</time></trkpt><trkpt lat="30.213971030010466" lon="-5.666697344364611"><ele>679.0</ele><time>2026-03-24T14:20:48.001Z</time></trkpt><trkpt lat="30.21384172621219" lon="-5.666686916429755"><ele>679.0</ele><time>2026-03-24T14:20:49.001Z</time></trkpt><trkpt lat="30.213720123369974" lon="-5.666670202552484"><ele>679.0</ele><time>2026-03-24T14:20:50.001Z</time></trkpt><trkpt lat="30.213603571001574" lon="-5.666650213978821"><ele>679.0</ele><time>2026-03-24T14:20:51.001Z</time></trkpt><trkpt lat="30.213483381572363" lon="-5.666597091489326"><ele>679.0</ele><time>2026-03-24T14:20:52.001Z</time></trkpt><trkpt lat="30.213367987949834" lon="-5.666539688150223"><ele>679.0</ele><time>2026-03-24T14:20:53.001Z</time></trkpt><trkpt lat="30.213255074817855" lon="-5.666480317618921"><ele>679.0</ele><time>2026-03-24T14:20:54.001Z</time></trkpt><trkpt lat="30.213152657208305" lon="-5.666408603860098"><ele>679.25</ele><time>2026-03-24T14:20:55.001Z</time></trkpt><trkpt lat="30.2130492161297" lon="-5.666315618077015"><ele>679.5</ele><time>2026-03-24T14:20:56.001Z</time></trkpt><trkpt lat="30.212934824203504" lon="-5.666222881337713"><ele>679.75</ele><time>2026-03-24T14:20:57.001Z</time></trkpt><trkpt lat="30.21282464387415" lon="-5.666142747116606"><ele>680.0</ele><time>2026-03-24T14:20:58.001Z</time></trkpt><trkpt lat="30.21272534104482" lon="-5.666044196338959"><ele>679.5</ele><time>2026-03-24T14:20:59Z</time></trkpt><trkpt lat="30.21263734041693" lon="-5.665961443451887"><ele>679.0</ele><time>2026-03-24T14:21:00Z</time></trkpt><trkpt lat="30.212528330560186" lon="-5.665916342888591"><ele>678.5</ele><time>2026-03-24T14:21:01Z</time></trkpt><trkpt lat="30.21240931310461" lon="-5.665906682833083"><ele>678.0</ele><time>2026-03-24T14:21:02Z</time></trkpt><trkpt lat="30.21227798056471" lon="-5.665920848029322"><ele>678.0</ele><time>2026-03-24T14:21:03.001Z</time></trkpt><trkpt lat="30.212131633704537" lon="-5.665951606441214"><ele>678.0</ele><time>2026-03-24T14:21:04.001Z</time></trkpt><trkpt lat="30.2119783047398" lon="-5.66597118111099"><ele>678.0</ele><time>2026-03-24T14:21:05.001Z</time></trkpt><trkpt lat="30.21181937210203" lon="-5.665969135084672"><ele>678.0</ele><time>2026-03-24T14:21:06.001Z</time></trkpt><trkpt lat="30.21167889085587" lon="-5.665963323953924"><ele>678.0</ele><time>2026-03-24T14:21:07.001Z</time></trkpt><trkpt lat="30.21154863037382" lon="-5.665960651620251"><ele>678.0</ele><time>2026-03-24T14:21:08Z</time></trkpt><trkpt lat="30.211429023752896" lon="-5.665952692337445"><ele>678.0</ele><time>2026-03-24T14:21:09Z</time></trkpt><trkpt lat="30.211322554212888" lon="-5.665937034604271"><ele>678.25</ele><time>2026-03-24T14:21:10Z</time></trkpt><trkpt lat="30.21120721796602" lon="-5.6659331426356125"><ele>678.5</ele><time>2026-03-24T14:21:11Z</time></trkpt><trkpt lat="30.211094874312934" lon="-5.66592950698758"><ele>678.75</ele><time>2026-03-24T14:21:12Z</time></trkpt><trkpt lat="30.210974502380843" lon="-5.66592627962579"><ele>679.0</ele><time>2026-03-24T14:21:13Z</time></trkpt><trkpt lat="30.210851663176488" lon="-5.665914528388589"><ele>679.0</ele><time>2026-03-24T14:21:14Z</time></trkpt><trkpt lat="30.21072842691457" lon="-5.665892727642624"><ele>679.0</ele><time>2026-03-24T14:21:15Z</time></trkpt><trkpt lat="30.210596999280963" lon="-5.66586509749774"><ele>679.0</ele><time>2026-03-24T14:21:16Z</time></trkpt><trkpt lat="30.210467651066654" lon="-5.665851917588871"><ele>679.0</ele><time>2026-03-24T14:21:17Z</time></trkpt><trkpt lat="30.210329824804123" lon="-5.665838651592202"><ele>679.25</ele><time>2026-03-24T14:21:18Z</time></trkpt><trkpt lat="30.210196358859868" lon="-5.665819159969987"><ele>679.5</ele><time>2026-03-24T14:21:19Z</time></trkpt><trkpt lat="30.210059787920283" lon="-5.665808410252379"><ele>679.75</ele><time>2026-03-24T14:21:20Z</time></trkpt><trkpt lat="30.209919099914888" lon="-5.665797556945603"><ele>680.0</ele><time>2026-03-24T14:21:21Z</time></trkpt><trkpt lat="30.209774556565698" lon="-5.665795973651268"><ele>680.0</ele><time>2026-03-24T14:21:22Z</time></trkpt><trkpt lat="30.209624531312084" lon="-5.66580902231245"><ele>680.0</ele><time>2026-03-24T14:21:23Z</time></trkpt><trkpt lat="30.20947648098546" lon="-5.6658270345830655"><ele>680.0</ele><time>2026-03-24T14:21:24Z</time></trkpt><trkpt lat="30.209327734964734" lon="-5.6658477493007195"><ele>680.0</ele><time>2026-03-24T14:21:25Z</time></trkpt><trkpt lat="30.209173041418847" lon="-5.665854161245462"><ele>680.0</ele><time>2026-03-24T14:21:26Z</time></trkpt><trkpt lat="30.209011323339922" lon="-5.665860515284659"><ele>680.0</ele><time>2026-03-24T14:21:27Z</time></trkpt><trkpt lat="30.208836735707315" lon="-5.665870706329626"><ele>680.0</ele><time>2026-03-24T14:21:28Z</time></trkpt><trkpt lat="30.208663487802102" lon="-5.665872055107857"><ele>679.6666666666666</ele><time>2026-03-24T14:21:29Z</time></trkpt><trkpt lat="30.208490156064457" lon="-5.66587658636454"><ele>679.3333333333334</ele><time>2026-03-24T14:21:30Z</time></trkpt><trkpt lat="30.208318757575036" lon="-5.665883798111952"><ele>679.0</ele><time>2026-03-24T14:21:31Z</time></trkpt><trkpt lat="30.208147447405853" lon="-5.6658926185118395"><ele>679.0</ele><time>2026-03-24T14:21:32Z</time></trkpt><trkpt lat="30.207984556703558" lon="-5.6659001459600935"><ele>679.0</ele><time>2026-03-24T14:21:33Z</time></trkpt><trkpt lat="30.207822880816558" lon="-5.665916488607449"><ele>679.0</ele><time>2026-03-24T14:21:34Z</time></trkpt><trkpt lat="30.207659076447193" lon="-5.665930474138599"><ele>679.0</ele><time>2026-03-24T14:21:35Z</time></trkpt><trkpt lat="30.207492099675267" lon="-5.665946914826328"><ele>679.0</ele><time>2026-03-24T14:21:36Z</time></trkpt><trkpt lat="30.207326799441194" lon="-5.6659663583375846"><ele>679.0</ele><time>2026-03-24T14:21:37Z</time></trkpt><trkpt lat="30.20715807236597" lon="-5.665987386683869"><ele>678.6666666666667</ele><time>2026-03-24T14:21:38Z</time></trkpt><trkpt lat="30.206991680792274" lon="-5.666013624634848"><ele>678.3333333333334</ele><time>2026-03-24T14:21:39Z</time></trkpt><trkpt lat="30.206823418340335" lon="-5.666046522147917"><ele>678.0</ele><time>2026-03-24T14:21:40Z</time></trkpt><trkpt lat="30.206653752426075" lon="-5.666072986259362"><ele>678.6666666666666</ele><time>2026-03-24T14:21:41Z</time></trkpt><trkpt lat="30.206478633675683" lon="-5.66609142897693"><ele>679.3333333333333</ele><time>2026-03-24T14:21:42Z</time></trkpt><trkpt lat="30.20630522523496" lon="-5.66611410435996"><ele>680.0</ele><time>2026-03-24T14:21:43Z</time></trkpt><trkpt lat="30.20612736550572" lon="-5.666138890152924"><ele>680.0</ele><time>2026-03-24T14:21:44Z</time></trkpt><trkpt lat="30.20595073385451" lon="-5.666163596773437"><ele>680.0</ele><time>2026-03-24T14:21:45Z</time></trkpt><trkpt lat="30.20577697241959" lon="-5.666190443993802"><ele>680.0</ele><time>2026-03-24T14:21:46Z</time></trkpt><trkpt lat="30.20560544513806" lon="-5.666215562843757"><ele>679.6666666666666</ele><time>2026-03-24T14:21:47Z</time></trkpt><trkpt lat="30.20543406783631" lon="-5.666240687581599"><ele>679.3333333333334</ele><time>2026-03-24T14:21:48Z</time></trkpt><trkpt lat="30.2052608628237" lon="-5.666267162229881"><ele>679.0</ele><time>2026-03-24T14:21:49Z</time></trkpt><trkpt lat="30.205082845883762" lon="-5.666293972611006"><ele>679.0</ele><time>2026-03-24T14:21:50Z</time></trkpt><trkpt lat="30.204899876500846" lon="-5.666314663682737"><ele>679.0</ele><time>2026-03-24T14:21:51Z</time></trkpt><trkpt lat="30.20471240208108" lon="-5.666335213874346"><ele>679.0</ele><time>2026-03-24T14:21:52Z</time></trkpt><trkpt lat="30.204523342599007" lon="-5.66635529970851"><ele>679.0</ele><time>2026-03-24T14:21:53Z</time></trkpt><trkpt lat="30.204335502635384" lon="-5.666377970537671"><ele>679.0</ele><time>2026-03-24T14:21:54Z</time></trkpt><trkpt lat="30.204139469133935" lon="-5.666398366489797"><ele>679.0</ele><time>2026-03-24T14:21:55Z</time></trkpt><trkpt lat="30.203955259704102" lon="-5.666421505186605"><ele>679.6666666666667</ele><time>2026-03-24T14:21:56Z</time></trkpt><trkpt lat="30.203787299924414" lon="-5.666454965250872"><ele>680.3333333333334</ele><time>2026-03-24T14:21:57Z</time></trkpt><trkpt lat="30.203632969061534" lon="-5.666483945505763"><ele>681.0</ele><time>2026-03-24T14:21:58Z</time></trkpt><trkpt lat="30.203478066584108" lon="-5.666489590582616"><ele>681.0</ele><time>2026-03-24T14:21:59Z</time></trkpt><trkpt lat="30.20331534599954" lon="-5.6664890881054"><ele>681.0</ele><time>2026-03-24T14:22:00Z</time></trkpt><trkpt lat="30.203146785860632" lon="-5.666509163321638"><ele>681.0</ele><time>2026-03-24T14:22:01Z</time></trkpt><trkpt lat="30.202974339619136" lon="-5.666544025027259"><ele>680.3333333333334</ele><time>2026-03-24T14:22:02Z</time></trkpt><trkpt lat="30.202792269796237" lon="-5.666572097908069"><ele>679.6666666666667</ele><time>2026-03-24T14:22:03Z</time></trkpt><trkpt lat="30.202607229399753" lon="-5.666592469844017"><ele>679.0</ele><time>2026-03-24T14:22:04Z</time></trkpt><trkpt lat="30.20242543693139" lon="-5.666618555100771"><ele>678.6666666666667</ele><time>2026-03-24T14:22:05Z</time></trkpt><trkpt lat="30.202245711354617" lon="-5.666642025011173"><ele>678.3333333333334</ele><time>2026-03-24T14:22:06Z</time></trkpt><trkpt lat="30.20205543296767" lon="-5.666663992521586"><ele>678.0</ele><time>2026-03-24T14:22:07Z</time></trkpt><trkpt lat="30.201858376869176" lon="-5.66669651742514"><ele>678.0</ele><time>2026-03-24T14:22:08Z</time></trkpt><trkpt lat="30.201667533832268" lon="-5.666725283066808"><ele>678.0</ele><time>2026-03-24T14:22:09Z</time></trkpt><trkpt lat="30.201485307488323" lon="-5.666748921472379"><ele>678.0</ele><time>2026-03-24T14:22:10Z</time></trkpt><trkpt lat="30.201305064481993" lon="-5.666770705976004"><ele>678.3333333333334</ele><time>2026-03-24T14:22:11Z</time></trkpt><trkpt lat="30.201122009886603" lon="-5.666794644492875"><ele>678.6666666666667</ele><time>2026-03-24T14:22:12Z</time></trkpt><trkpt lat="30.20094071806406" lon="-5.666823538731039"><ele>679.0</ele><time>2026-03-24T14:22:13Z</time></trkpt><trkpt lat="30.20076232389755" lon="-5.666845013585626"><ele>678.6666666666667</ele><time>2026-03-24T14:22:14Z</time></trkpt><trkpt lat="30.20058240999895" lon="-5.666857949213757"><ele>678.3333333333334</ele><time>2026-03-24T14:22:15Z</time></trkpt><trkpt lat="30.200409550110447" lon="-5.666878973192604"><ele>678.0</ele><time>2026-03-24T14:22:16Z</time></trkpt><trkpt lat="30.200240627958355" lon="-5.666902781959757"><ele>678.0</ele><time>2026-03-24T14:22:17Z</time></trkpt><trkpt lat="30.20007369807502" lon="-5.666927994809728"><ele>678.0</ele><time>2026-03-24T14:22:18Z</time></trkpt><trkpt lat="30.19990196095162" lon="-5.666955063633446"><ele>678.0</ele><time>2026-03-24T14:22:19Z</time></trkpt><trkpt lat="30.199720341198862" lon="-5.6669872118663225"><ele>678.0</ele><time>2026-03-24T14:22:20Z</time></trkpt><trkpt lat="30.19953803083515" lon="-5.667017937655275"><ele>678.0</ele><time>2026-03-24T14:22:21Z</time></trkpt><trkpt lat="30.19937191973923" lon="-5.667047445407529"><ele>678.0</ele><time>2026-03-24T14:22:22Z</time></trkpt><trkpt lat="30.199208693241005" lon="-5.6670770142807845"><ele>678.0</ele><time>2026-03-24T14:22:23Z</time></trkpt><trkpt lat="30.199040826765177" lon="-5.66710221759045"><ele>678.0</ele><time>2026-03-24T14:22:24Z</time></trkpt><trkpt lat="30.198866121381517" lon="-5.667124708730327"><ele>678.0</ele><time>2026-03-24T14:22:25Z</time></trkpt><trkpt lat="30.198697845861" lon="-5.667148192813936"><ele>677.6666666666666</ele><time>2026-03-24T14:22:26Z</time></trkpt><trkpt lat="30.198533481668008" lon="-5.667174633053345"><ele>677.3333333333333</ele><time>2026-03-24T14:22:27Z</time></trkpt><trkpt lat="30.198376020668256" lon="-5.667201801165751"><ele>677.0</ele><time>2026-03-24T14:22:28Z</time></trkpt><trkpt lat="30.19821982045145" lon="-5.667223004340448"><ele>677.0</ele><time>2026-03-24T14:22:29Z</time></trkpt><trkpt lat="30.19806029484353" lon="-5.667242411893394"><ele>677.0</ele><time>2026-03-24T14:22:30Z</time></trkpt><trkpt lat="30.19789470605577" lon="-5.667259980422466"><ele>677.0</ele><time>2026-03-24T14:22:31Z</time></trkpt><trkpt lat="30.197733090214058" lon="-5.667287933281578"><ele>677.0</ele><time>2026-03-24T14:22:32Z</time></trkpt><trkpt lat="30.19758025525058" lon="-5.667324913380843"><ele>677.0</ele><time>2026-03-24T14:22:33Z</time></trkpt><trkpt lat="30.197443399195414" lon="-5.667349274068337"><ele>677.0</ele><time>2026-03-24T14:22:34Z</time></trkpt><trkpt lat="30.197316395753496" lon="-5.667349972424415"><ele>677.0</ele><time>2026-03-24T14:22:35Z</time></trkpt><trkpt lat="30.197194880841188" lon="-5.6673264373662064"><ele>677.25</ele><time>2026-03-24T14:22:36Z</time></trkpt><trkpt lat="30.19707759790888" lon="-5.667315654941188"><ele>677.5</ele><time>2026-03-24T14:22:37Z</time></trkpt><trkpt lat="30.19696317518833" lon="-5.667348232992987"><ele>677.75</ele><time>2026-03-24T14:22:38Z</time></trkpt><trkpt lat="30.19685093140962" lon="-5.667400567578086"><ele>678.0</ele><time>2026-03-24T14:22:39Z</time></trkpt><trkpt lat="30.196713281876196" lon="-5.667447517975294"><ele>678.0</ele><time>2026-03-24T14:22:40Z</time></trkpt><trkpt lat="30.196566390311595" lon="-5.6674861720277505"><ele>678.0</ele><time>2026-03-24T14:22:41Z</time></trkpt><trkpt lat="30.1964282974161" lon="-5.667523674776239"><ele>678.0</ele><time>2026-03-24T14:22:42Z</time></trkpt><trkpt lat="30.19629569090831" lon="-5.667562197979171"><ele>678.0</ele><time>2026-03-24T14:22:43Z</time></trkpt><trkpt lat="30.19615122188064" lon="-5.667597554870112"><ele>678.0</ele><time>2026-03-24T14:22:44Z</time></trkpt><trkpt lat="30.196005384809023" lon="-5.667633314179248"><ele>678.0</ele><time>2026-03-24T14:22:45Z</time></trkpt><trkpt lat="30.19585323426806" lon="-5.667676707181692"><ele>678.0</ele><time>2026-03-24T14:22:46Z</time></trkpt><trkpt lat="30.19568243757086" lon="-5.667722718347288"><ele>677.6666666666666</ele><time>2026-03-24T14:22:47Z</time></trkpt><trkpt lat="30.19549918869523" lon="-5.667755414561747"><ele>677.3333333333333</ele><time>2026-03-24T14:22:48Z</time></trkpt><trkpt lat="30.19530718388446" lon="-5.667767126431957"><ele>677.0</ele><time>2026-03-24T14:22:49Z</time></trkpt><trkpt lat="30.195104104443253" lon="-5.667759121677086"><ele>677.0</ele><time>2026-03-24T14:22:50Z</time></trkpt><trkpt lat="30.194907418594735" lon="-5.667752581107834"><ele>677.0</ele><time>2026-03-24T14:22:51Z</time></trkpt><trkpt lat="30.194722136017496" lon="-5.667758308676038"><ele>677.0</ele><time>2026-03-24T14:22:52Z</time></trkpt><trkpt lat="30.194540978558287" lon="-5.667766135606441"><ele>677.6666666666666</ele><time>2026-03-24T14:22:53Z</time></trkpt><trkpt lat="30.194370195716367" lon="-5.667791633385991"><ele>678.3333333333334</ele><time>2026-03-24T14:22:54Z</time></trkpt><trkpt lat="30.19419275294656" lon="-5.667820385453246"><ele>679.0</ele><time>2026-03-24T14:22:55Z</time></trkpt><trkpt lat="30.194024108060578" lon="-5.667832554762496"><ele>678.6666666666667</ele><time>2026-03-24T14:22:56Z</time></trkpt><trkpt lat="30.19385867387867" lon="-5.667854792385952"><ele>678.3333333333334</ele><time>2026-03-24T14:22:57Z</time></trkpt><trkpt lat="30.193697765640277" lon="-5.667884147449301"><ele>678.0</ele><time>2026-03-24T14:22:58Z</time></trkpt><trkpt lat="30.19353882484678" lon="-5.667909506619624"><ele>678.0</ele><time>2026-03-24T14:22:59Z</time></trkpt><trkpt lat="30.193385345318763" lon="-5.66793651843438"><ele>678.0</ele><time>2026-03-24T14:23:00Z</time></trkpt><trkpt lat="30.193214989376738" lon="-5.6679456855588"><ele>678.0</ele><time>2026-03-24T14:23:01Z</time></trkpt><trkpt lat="30.19304980614568" lon="-5.667946533485307"><ele>677.6666666666666</ele><time>2026-03-24T14:23:02Z</time></trkpt><trkpt lat="30.192880781286316" lon="-5.667942324002153"><ele>677.3333333333333</ele><time>2026-03-24T14:23:03Z</time></trkpt><trkpt lat="30.192718187943207" lon="-5.667943833425921"><ele>677.0</ele><time>2026-03-24T14:23:04Z</time></trkpt><trkpt lat="30.192572079894717" lon="-5.667956685730098"><ele>677.0</ele><time>2026-03-24T14:23:05.001Z</time></trkpt><trkpt lat="30.192418618020195" lon="-5.667952768593588"><ele>677.0</ele><time>2026-03-24T14:23:06Z</time></trkpt><trkpt lat="30.192263433814443" lon="-5.667948981806348"><ele>677.0</ele><time>2026-03-24T14:23:07Z</time></trkpt><trkpt lat="30.192096874324633" lon="-5.667956103359022"><ele>677.0</ele><time>2026-03-24T14:23:08Z</time></trkpt><trkpt lat="30.191918408155143" lon="-5.66795419935734"><ele>677.0</ele><time>2026-03-24T14:23:09.001Z</time></trkpt><trkpt lat="30.191745631312106" lon="-5.667951436740561"><ele>677.0</ele><time>2026-03-24T14:23:10.001Z</time></trkpt><trkpt lat="30.19158975908456" lon="-5.66795193372943"><ele>677.0</ele><time>2026-03-24T14:23:11.001Z</time></trkpt><trkpt lat="30.191438318052878" lon="-5.667937923914733"><ele>677.0</ele><time>2026-03-24T14:23:12Z</time></trkpt><trkpt lat="30.191283622454502" lon="-5.6679135106146905"><ele>677.0</ele><time>2026-03-24T14:23:13Z</time></trkpt><trkpt lat="30.191129101671432" lon="-5.667870053915993"><ele>677.0</ele><time>2026-03-24T14:23:14Z</time></trkpt><trkpt lat="30.19098708330648" lon="-5.667809780444076"><ele>677.0</ele><time>2026-03-24T14:23:15.001Z</time></trkpt><trkpt lat="30.19084262478418" lon="-5.667761194588685"><ele>677.0</ele><time>2026-03-24T14:23:16.001Z</time></trkpt><trkpt lat="30.190703086181827" lon="-5.667724652718511"><ele>677.0</ele><time>2026-03-24T14:23:17Z</time></trkpt><trkpt lat="30.19055831457733" lon="-5.667696988473336"><ele>677.0</ele><time>2026-03-24T14:23:18Z</time></trkpt><trkpt lat="30.19041243548484" lon="-5.66766104002384"><ele>677.0</ele><time>2026-03-24T14:23:19Z</time></trkpt><trkpt lat="30.190285323134667" lon="-5.667631568331365"><ele>677.0</ele><time>2026-03-24T14:23:20Z</time></trkpt><trkpt lat="30.190166097698484" lon="-5.667613691818901"><ele>677.0</ele><time>2026-03-24T14:23:21Z</time></trkpt><trkpt lat="30.19003956595488" lon="-5.667612444468263"><ele>677.0</ele><time>2026-03-24T14:23:22Z</time></trkpt><trkpt lat="30.18989967339236" lon="-5.667615303364078"><ele>677.0</ele><time>2026-03-24T14:23:23Z</time></trkpt><trkpt lat="30.189747556915282" lon="-5.667636745004515"><ele>677.0</ele><time>2026-03-24T14:23:24Z</time></trkpt><trkpt lat="30.18959100697951" lon="-5.6676703739962"><ele>677.3333333333333</ele><time>2026-03-24T14:23:25Z</time></trkpt><trkpt lat="30.189440565171225" lon="-5.667709347061051"><ele>677.6666666666666</ele><time>2026-03-24T14:23:26Z</time></trkpt><trkpt lat="30.189275982810308" lon="-5.667738857700405"><ele>678.0</ele><time>2026-03-24T14:23:27Z</time></trkpt><trkpt lat="30.189097449136792" lon="-5.667759730325212"><ele>678.0</ele><time>2026-03-24T14:23:28Z</time></trkpt><trkpt lat="30.18889095994276" lon="-5.6677708121097155"><ele>678.0</ele><time>2026-03-24T14:23:29Z</time></trkpt><trkpt lat="30.188685748533" lon="-5.667785549817042"><ele>678.0</ele><time>2026-03-24T14:23:30Z</time></trkpt><trkpt lat="30.188481378266847" lon="-5.667801888843258"><ele>678.0</ele><time>2026-03-24T14:23:31Z</time></trkpt><trkpt lat="30.188276012881992" lon="-5.667811970600522"><ele>678.0</ele><time>2026-03-24T14:23:32Z</time></trkpt><trkpt lat="30.188064702357465" lon="-5.667818353227004"><ele>678.0</ele><time>2026-03-24T14:23:33Z</time></trkpt><trkpt lat="30.187851267425266" lon="-5.667837865027466"><ele>678.0</ele><time>2026-03-24T14:23:34Z</time></trkpt><trkpt lat="30.187662028018764" lon="-5.66786081196955"><ele>678.0</ele><time>2026-03-24T14:23:35Z</time></trkpt><trkpt lat="30.18749160772401" lon="-5.6678811804949865"><ele>678.0</ele><time>2026-03-24T14:23:36Z</time></trkpt><trkpt lat="30.187322162382234" lon="-5.667896833666335"><ele>678.0</ele><time>2026-03-24T14:23:37Z</time></trkpt><trkpt lat="30.18714506498837" lon="-5.667912701891126"><ele>678.0</ele><time>2026-03-24T14:23:38Z</time></trkpt><trkpt lat="30.186969813258067" lon="-5.667927471232412"><ele>678.0</ele><time>2026-03-24T14:23:39Z</time></trkpt><trkpt lat="30.18680053159355" lon="-5.667944382178066"><ele>678.0</ele><time>2026-03-24T14:23:40Z</time></trkpt><trkpt lat="30.186636858397502" lon="-5.667962745810318"><ele>678.0</ele><time>2026-03-24T14:23:41Z</time></trkpt><trkpt lat="30.186481669679072" lon="-5.66797976884148"><ele>678.0</ele><time>2026-03-24T14:23:42Z</time></trkpt><trkpt lat="30.186342390897867" lon="-5.667992982814636"><ele>678.0</ele><time>2026-03-24T14:23:43Z</time></trkpt><trkpt lat="30.186184832556993" lon="-5.668002483778156"><ele>678.0</ele><time>2026-03-24T14:23:44Z</time></trkpt><trkpt lat="30.186023697094125" lon="-5.668017663277247"><ele>678.0</ele><time>2026-03-24T14:23:45Z</time></trkpt><trkpt lat="30.185858091236533" lon="-5.668032323374291"><ele>678.0</ele><time>2026-03-24T14:23:46Z</time></trkpt><trkpt lat="30.18570194480073" lon="-5.668043342168345"><ele>678.0</ele><time>2026-03-24T14:23:47Z</time></trkpt><trkpt lat="30.18555494660861" lon="-5.66806071793407"><ele>678.0</ele><time>2026-03-24T14:23:48Z</time></trkpt><trkpt lat="30.185411930802243" lon="-5.668074160017472"><ele>678.0</ele><time>2026-03-24T14:23:49Z</time></trkpt><trkpt lat="30.185264732113573" lon="-5.668080679463505"><ele>677.6666666666666</ele><time>2026-03-24T14:23:50Z</time></trkpt><trkpt lat="30.185114206298376" lon="-5.6680886371196975"><ele>677.3333333333333</ele><time>2026-03-24T14:23:51Z</time></trkpt><trkpt lat="30.18496408536292" lon="-5.668104429679463"><ele>677.0</ele><time>2026-03-24T14:23:52Z</time></trkpt><trkpt lat="30.18480373790209" lon="-5.668116580350417"><ele>677.0</ele><time>2026-03-24T14:23:53Z</time></trkpt><trkpt lat="30.18464272535336" lon="-5.6681263410947755"><ele>677.0</ele><time>2026-03-24T14:23:54Z</time></trkpt><trkpt lat="30.184490312898845" lon="-5.66814076129898"><ele>677.0</ele><time>2026-03-24T14:23:55Z</time></trkpt><trkpt lat="30.18434884115613" lon="-5.668150325804552"><ele>677.0</ele><time>2026-03-24T14:23:56Z</time></trkpt><trkpt lat="30.184216798590118" lon="-5.668153310531797"><ele>677.0</ele><time>2026-03-24T14:23:57Z</time></trkpt><trkpt lat="30.184098856543816" lon="-5.668162234333139"><ele>677.0</ele><time>2026-03-24T14:23:58Z</time></trkpt><trkpt lat="30.183994762352658" lon="-5.668174794101199"><ele>677.0</ele><time>2026-03-24T14:23:59Z</time></trkpt><trkpt lat="30.183916386708557" lon="-5.668192025270965"><ele>677.0</ele><time>2026-03-24T14:24:00Z</time></trkpt><trkpt lat="30.18382958888204" lon="-5.668214108429496"><ele>676.9999999999999</ele><time>2026-03-24T14:24:02Z</time></trkpt><trkpt lat="30.18381808546092" lon="-5.668296795547761"><ele>677.0</ele><time>2026-03-24T14:24:07Z</time></trkpt><trkpt lat="30.183851040944912" lon="-5.66837833762762"><ele>677.0</ele><time>2026-03-24T14:24:11Z</time></trkpt><trkpt lat="30.18387067861103" lon="-5.6684574575106055"><ele>677.0</ele><time>2026-03-24T14:24:14Z</time></trkpt><trkpt lat="30.183880196697718" lon="-5.668531799549909"><ele>677.0</ele><time>2026-03-24T14:24:19Z</time></trkpt><trkpt lat="30.18389665548197" lon="-5.668622158266549"><ele>676.9999999999999</ele><time>2026-03-24T14:24:22Z</time></trkpt><trkpt lat="30.183913533280556" lon="-5.668694551326612"><ele>677.0</ele><time>2026-03-24T14:24:26Z</time></trkpt><trkpt lat="30.18391986781232" lon="-5.668813102262119"><ele>677.0</ele><time>2026-03-24T14:25:37.001Z</time></trkpt><trkpt lat="30.1838891760953" lon="-5.6688797223675715"><ele>677.0</ele><time>2026-03-24T14:25:38.001Z</time></trkpt><trkpt lat="30.183840587843918" lon="-5.668937713005106"><ele>677.0</ele><time>2026-03-24T14:25:39.001Z</time></trkpt><trkpt lat="30.183780826784048" lon="-5.669000405776514"><ele>677.0</ele><time>2026-03-24T14:25:40.001Z</time></trkpt><trkpt lat="30.183720417556376" lon="-5.6690642790298735"><ele>677.0</ele><time>2026-03-24T14:25:41.001Z</time></trkpt><trkpt lat="30.183647133742273" lon="-5.669135344565497"><ele>677.0</ele><time>2026-03-24T14:25:42.001Z</time></trkpt><trkpt lat="30.18357898096715" lon="-5.66921015976099"><ele>677.0</ele><time>2026-03-24T14:25:43.001Z</time></trkpt><trkpt lat="30.183513077823527" lon="-5.669287995407398"><ele>677.0</ele><time>2026-03-24T14:25:44.001Z</time></trkpt><trkpt lat="30.183440290063377" lon="-5.669381097588955"><ele>677.0</ele><time>2026-03-24T14:25:45.001Z</time></trkpt><trkpt lat="30.183373714396616" lon="-5.669470946960754"><ele>677.0</ele><time>2026-03-24T14:25:46.001Z</time></trkpt><trkpt lat="30.18329579481326" lon="-5.669549570841933"><ele>677.0</ele><time>2026-03-24T14:25:47.001Z</time></trkpt><trkpt lat="30.1832167927496" lon="-5.669618791705479"><ele>677.2</ele><time>2026-03-24T14:25:48.001Z</time></trkpt><trkpt lat="30.18312508227577" lon="-5.66967213034566"><ele>677.4000000000001</ele><time>2026-03-24T14:25:49.001Z</time></trkpt><trkpt lat="30.183032266311105" lon="-5.669688421131674"><ele>677.5999999999999</ele><time>2026-03-24T14:25:50.001Z</time></trkpt><trkpt lat="30.18292973739692" lon="-5.669691890833294"><ele>677.8</ele><time>2026-03-24T14:25:51.001Z</time></trkpt><trkpt lat="30.18281750627318" lon="-5.669688647775435"><ele>678.0</ele><time>2026-03-24T14:25:52.001Z</time></trkpt><trkpt lat="30.182691238617068" lon="-5.669682910461978"><ele>678.0</ele><time>2026-03-24T14:25:53.001Z</time></trkpt><trkpt lat="30.182569353933715" lon="-5.669685465659201"><ele>678.0</ele><time>2026-03-24T14:25:54.001Z</time></trkpt><trkpt lat="30.18245340705302" lon="-5.6696898380121645"><ele>678.0</ele><time>2026-03-24T14:25:55.001Z</time></trkpt><trkpt lat="30.182336285163114" lon="-5.669691431017194"><ele>678.0</ele><time>2026-03-24T14:25:56.001Z</time></trkpt><trkpt lat="30.18221380432227" lon="-5.669693353237608"><ele>677.5</ele><time>2026-03-24T14:25:57.001Z</time></trkpt><trkpt lat="30.182094490505108" lon="-5.669699110466825"><ele>677.0</ele><time>2026-03-24T14:25:58.001Z</time></trkpt><trkpt lat="30.18197168703074" lon="-5.669706370163895"><ele>676.5</ele><time>2026-03-24T14:25:59.001Z</time></trkpt><trkpt lat="30.181845595980853" lon="-5.6697142346898195"><ele>676.0</ele><time>2026-03-24T14:26:00.001Z</time></trkpt><trkpt lat="30.18172387428651" lon="-5.669725042958963"><ele>676.0</ele><time>2026-03-24T14:26:01.001Z</time></trkpt><trkpt lat="30.18161803011221" lon="-5.669758360715162"><ele>676.0</ele><time>2026-03-24T14:26:02.001Z</time></trkpt><trkpt lat="30.181519741850575" lon="-5.6698298131183655"><ele>676.0</ele><time>2026-03-24T14:26:03.001Z</time></trkpt><trkpt lat="30.181414586866737" lon="-5.669932542077946"><ele>676.0</ele><time>2026-03-24T14:26:04.001Z</time></trkpt><trkpt lat="30.18128214004818" lon="-5.6700454246563385"><ele>676.3333333333334</ele><time>2026-03-24T14:26:05.001Z</time></trkpt><trkpt lat="30.181148544478553" lon="-5.670160221785662"><ele>676.6666666666666</ele><time>2026-03-24T14:26:06.001Z</time></trkpt><trkpt lat="30.181047338328106" lon="-5.670289276984949"><ele>677.0</ele><time>2026-03-24T14:26:07.001Z</time></trkpt><trkpt lat="30.180962194487204" lon="-5.670427028666755"><ele>677.0</ele><time>2026-03-24T14:26:08.001Z</time></trkpt><trkpt lat="30.180882177409458" lon="-5.670572988731993"><ele>677.0</ele><time>2026-03-24T14:26:09.001Z</time></trkpt><trkpt lat="30.18081849495134" lon="-5.6707149734088125"><ele>677.0</ele><time>2026-03-24T14:26:10.001Z</time></trkpt><trkpt lat="30.180744148849524" lon="-5.670848450452056"><ele>677.0</ele><time>2026-03-24T14:26:11.001Z</time></trkpt><trkpt lat="30.1806655860616" lon="-5.670972418705705"><ele>677.0</ele><time>2026-03-24T14:26:12.001Z</time></trkpt><trkpt lat="30.180585555028117" lon="-5.671100253965842"><ele>677.0</ele><time>2026-03-24T14:26:13.001Z</time></trkpt><trkpt lat="30.180512008854024" lon="-5.671223297478899"><ele>677.0</ele><time>2026-03-24T14:26:14.001Z</time></trkpt><trkpt lat="30.18044261686516" lon="-5.6713455096266285"><ele>677.0</ele><time>2026-03-24T14:26:15.001Z</time></trkpt><trkpt lat="30.180380132490043" lon="-5.671461234756287"><ele>677.0</ele><time>2026-03-24T14:26:16.001Z</time></trkpt><trkpt lat="30.180319878568284" lon="-5.671565859593137"><ele>677.0</ele><time>2026-03-24T14:26:17.001Z</time></trkpt><trkpt lat="30.180274016225404" lon="-5.671660029216032"><ele>677.0</ele><time>2026-03-24T14:26:18.001Z</time></trkpt><trkpt lat="30.180238507942125" lon="-5.671770985379064"><ele>677.0</ele><time>2026-03-24T14:26:19.001Z</time></trkpt><trkpt lat="30.18022231756773" lon="-5.671897400647752"><ele>677.0</ele><time>2026-03-24T14:26:20.001Z</time></trkpt><trkpt lat="30.18021394288816" lon="-5.672025960243536"><ele>677.2</ele><time>2026-03-24T14:26:21.001Z</time></trkpt><trkpt lat="30.180211928205058" lon="-5.672145945508591"><ele>677.4000000000001</ele><time>2026-03-24T14:26:22.001Z</time></trkpt><trkpt lat="30.18021969280896" lon="-5.672266244517052"><ele>677.5999999999999</ele><time>2026-03-24T14:26:23.001Z</time></trkpt><trkpt lat="30.1802412290265" lon="-5.672398556109771"><ele>677.8</ele><time>2026-03-24T14:26:24.001Z</time></trkpt><trkpt lat="30.180269844391628" lon="-5.6725373806768316"><ele>678.0</ele><time>2026-03-24T14:26:25.001Z</time></trkpt><trkpt lat="30.180302692381268" lon="-5.6726840284452"><ele>677.75</ele><time>2026-03-24T14:26:26.001Z</time></trkpt><trkpt lat="30.18033120023905" lon="-5.672837566277549"><ele>677.5</ele><time>2026-03-24T14:26:27.001Z</time></trkpt><trkpt lat="30.18035826323548" lon="-5.672989261192026"><ele>677.25</ele><time>2026-03-24T14:26:28.001Z</time></trkpt><trkpt lat="30.1803833425557" lon="-5.67314691396427"><ele>677.0</ele><time>2026-03-24T14:26:29.001Z</time></trkpt><trkpt lat="30.18041372157186" lon="-5.67329893045684"><ele>677.0</ele><time>2026-03-24T14:26:30.001Z</time></trkpt><trkpt lat="30.18044684130981" lon="-5.673454783356678"><ele>677.0</ele><time>2026-03-24T14:26:31.001Z</time></trkpt><trkpt lat="30.180479823101773" lon="-5.673616867218568"><ele>677.0</ele><time>2026-03-24T14:26:32.001Z</time></trkpt><trkpt lat="30.180505025791955" lon="-5.673786267524871"><ele>677.0</ele><time>2026-03-24T14:26:33.001Z</time></trkpt><trkpt lat="30.180528430105277" lon="-5.6739586914986555"><ele>677.0</ele><time>2026-03-24T14:26:34.001Z</time></trkpt><trkpt lat="30.18054868679599" lon="-5.674134722316893"><ele>677.0</ele><time>2026-03-24T14:26:35.001Z</time></trkpt><trkpt lat="30.180562485809467" lon="-5.674308353453038"><ele>677.0</ele><time>2026-03-24T14:26:36.001Z</time></trkpt><trkpt lat="30.180570291331737" lon="-5.674485597144892"><ele>677.6666666666666</ele><time>2026-03-24T14:26:37.001Z</time></trkpt><trkpt lat="30.1805726766885" lon="-5.67466812169288"><ele>678.3333333333334</ele><time>2026-03-24T14:26:38.001Z</time></trkpt><trkpt lat="30.18057051339193" lon="-5.674862673826073"><ele>679.0</ele><time>2026-03-24T14:26:39.001Z</time></trkpt><trkpt lat="30.180556437991306" lon="-5.675067172750142"><ele>678.3333333333334</ele><time>2026-03-24T14:26:40.001Z</time></trkpt><trkpt lat="30.18054262577648" lon="-5.675291084435738"><ele>677.6666666666666</ele><time>2026-03-24T14:26:41.001Z</time></trkpt><trkpt lat="30.1805358320881" lon="-5.675523964214487"><ele>677.0</ele><time>2026-03-24T14:26:42.001Z</time></trkpt><trkpt lat="30.180534538061767" lon="-5.675759782630396"><ele>677.0</ele><time>2026-03-24T14:26:43.001Z</time></trkpt><trkpt lat="30.180533334657735" lon="-5.675992851929658"><ele>677.0</ele><time>2026-03-24T14:26:44.001Z</time></trkpt><trkpt lat="30.180539856821525" lon="-5.676231026391391"><ele>677.0</ele><time>2026-03-24T14:26:45.001Z</time></trkpt><trkpt lat="30.18054838406422" lon="-5.6764630755896235"><ele>676.6666666666666</ele><time>2026-03-24T14:26:46.001Z</time></trkpt><trkpt lat="30.180555999842273" lon="-5.6766988678752455"><ele>676.3333333333334</ele><time>2026-03-24T14:26:47.001Z</time></trkpt><trkpt lat="30.180564590846213" lon="-5.676923835878049"><ele>676.0</ele><time>2026-03-24T14:26:48.001Z</time></trkpt><trkpt lat="30.180571153731997" lon="-5.677155354386397"><ele>676.6666666666667</ele><time>2026-03-24T14:26:49.001Z</time></trkpt><trkpt lat="30.18057464635103" lon="-5.677386257841845"><ele>677.3333333333334</ele><time>2026-03-24T14:26:50.001Z</time></trkpt><trkpt lat="30.180577686139507" lon="-5.677630063383784"><ele>678.0</ele><time>2026-03-24T14:26:51.001Z</time></trkpt><trkpt lat="30.18058127294308" lon="-5.677866184769557"><ele>678.0</ele><time>2026-03-24T14:26:52.001Z</time></trkpt><trkpt lat="30.18058701847799" lon="-5.6780932262898896"><ele>678.0</ele><time>2026-03-24T14:26:53.001Z</time></trkpt><trkpt lat="30.180590630653434" lon="-5.678312180628432"><ele>678.0</ele><time>2026-03-24T14:26:54.001Z</time></trkpt><trkpt lat="30.18059373470377" lon="-5.678548810545392"><ele>678.3333333333334</ele><time>2026-03-24T14:26:55.001Z</time></trkpt><trkpt lat="30.18059598829654" lon="-5.678774402647848"><ele>678.6666666666667</ele><time>2026-03-24T14:26:56.001Z</time></trkpt><trkpt lat="30.180597256059098" lon="-5.678987435981594"><ele>679.0</ele><time>2026-03-24T14:26:57.001Z</time></trkpt><trkpt lat="30.18060031070658" lon="-5.679208598670318"><ele>679.0</ele><time>2026-03-24T14:26:58.001Z</time></trkpt><trkpt lat="30.180611545281717" lon="-5.67944050860078"><ele>679.0</ele><time>2026-03-24T14:26:59.001Z</time></trkpt><trkpt lat="30.18063687624934" lon="-5.679675982873613"><ele>679.0</ele><time>2026-03-24T14:27:00.001Z</time></trkpt><trkpt lat="30.180667294886625" lon="-5.679909910559457"><ele>679.0</ele><time>2026-03-24T14:27:01.001Z</time></trkpt><trkpt lat="30.180705635865156" lon="-5.680141501123797"><ele>679.0</ele><time>2026-03-24T14:27:02.001Z</time></trkpt><trkpt lat="30.18072745911365" lon="-5.680369561473649"><ele>679.0</ele><time>2026-03-24T14:27:03.001Z</time></trkpt><trkpt lat="30.18073431591993" lon="-5.680592544303837"><ele>679.0</ele><time>2026-03-24T14:27:04.001Z</time></trkpt><trkpt lat="30.180740737932137" lon="-5.680805206386571"><ele>679.0</ele><time>2026-03-24T14:27:05.001Z</time></trkpt><trkpt lat="30.180750356166374" lon="-5.681011146870677"><ele>679.0</ele><time>2026-03-24T14:27:06.001Z</time></trkpt><trkpt lat="30.18077357260177" lon="-5.681222109167035"><ele>679.0</ele><time>2026-03-24T14:27:07.001Z</time></trkpt><trkpt lat="30.18080807254409" lon="-5.6814306673673585"><ele>679.0</ele><time>2026-03-24T14:27:08.001Z</time></trkpt><trkpt lat="30.18083474780899" lon="-5.681657779300966"><ele>679.0</ele><time>2026-03-24T14:27:09.001Z</time></trkpt><trkpt lat="30.180854826970588" lon="-5.681879092942093"><ele>679.0</ele><time>2026-03-24T14:27:10.001Z</time></trkpt><trkpt lat="30.180872602378347" lon="-5.682097601277606"><ele>679.0</ele><time>2026-03-24T14:27:11.001Z</time></trkpt><trkpt lat="30.180885995484996" lon="-5.682327249828514"><ele>679.0</ele><time>2026-03-24T14:27:12.001Z</time></trkpt><trkpt lat="30.180888633906555" lon="-5.6825431603227265"><ele>679.0</ele><time>2026-03-24T14:27:13.001Z</time></trkpt><trkpt lat="30.180890257335587" lon="-5.682763097509407"><ele>679.0</ele><time>2026-03-24T14:27:14.001Z</time></trkpt><trkpt lat="30.180904178484877" lon="-5.682983329040956"><ele>679.0</ele><time>2026-03-24T14:27:15.001Z</time></trkpt><trkpt lat="30.180921977252865" lon="-5.683210806461055"><ele>679.0</ele><time>2026-03-24T14:27:16.001Z</time></trkpt><trkpt lat="30.18093380045912" lon="-5.683458586998088"><ele>679.0</ele><time>2026-03-24T14:27:17Z</time></trkpt><trkpt lat="30.180945583216737" lon="-5.683688964926912"><ele>679.0</ele><time>2026-03-24T14:27:18.001Z</time></trkpt><trkpt lat="30.180960861758148" lon="-5.683900799828925"><ele>679.6666666666667</ele><time>2026-03-24T14:27:19.001Z</time></trkpt><trkpt lat="30.180975892762685" lon="-5.6841073505935755"><ele>680.3333333333334</ele><time>2026-03-24T14:27:20Z</time></trkpt><trkpt lat="30.180991422618423" lon="-5.6843199065013605"><ele>681.0</ele><time>2026-03-24T14:27:21.001Z</time></trkpt><trkpt lat="30.18100063500961" lon="-5.684549283495054"><ele>681.0</ele><time>2026-03-24T14:27:22.001Z</time></trkpt><trkpt lat="30.1810119391162" lon="-5.684779469762807"><ele>681.0</ele><time>2026-03-24T14:27:23Z</time></trkpt><trkpt lat="30.181029940635362" lon="-5.685001724388434"><ele>681.0</ele><time>2026-03-24T14:27:24.001Z</time></trkpt><trkpt lat="30.181049637955148" lon="-5.685219943717238"><ele>681.3333333333334</ele><time>2026-03-24T14:27:25.001Z</time></trkpt><trkpt lat="30.181066137286724" lon="-5.685438940229062"><ele>681.6666666666667</ele><time>2026-03-24T14:27:26Z</time></trkpt><trkpt lat="30.18108120297722" lon="-5.685653990543675"><ele>682.0</ele><time>2026-03-24T14:27:27Z</time></trkpt><trkpt lat="30.18109730840137" lon="-5.685867060144881"><ele>682.0</ele><time>2026-03-24T14:27:28Z</time></trkpt><trkpt lat="30.181108344291587" lon="-5.686087705934338"><ele>682.0</ele><time>2026-03-24T14:27:29Z</time></trkpt><trkpt lat="30.181122325293835" lon="-5.686315637194433"><ele>682.0</ele><time>2026-03-24T14:27:30Z</time></trkpt><trkpt lat="30.181129206070548" lon="-5.6865494333680795"><ele>681.6666666666667</ele><time>2026-03-24T14:27:31Z</time></trkpt><trkpt lat="30.181140205586836" lon="-5.686766557395377"><ele>681.3333333333334</ele><time>2026-03-24T14:27:32Z</time></trkpt><trkpt lat="30.181155831519" lon="-5.686982472632596"><ele>681.0</ele><time>2026-03-24T14:27:33Z</time></trkpt><trkpt lat="30.181174756637997" lon="-5.6872117714013"><ele>681.0</ele><time>2026-03-24T14:27:34Z</time></trkpt><trkpt lat="30.181199203637128" lon="-5.687434488878308"><ele>681.0</ele><time>2026-03-24T14:27:35Z</time></trkpt><trkpt lat="30.181221662912307" lon="-5.68765984206038"><ele>681.0</ele><time>2026-03-24T14:27:36Z</time></trkpt><trkpt lat="30.18125128021191" lon="-5.687873444317562"><ele>681.6666666666666</ele><time>2026-03-24T14:27:37Z</time></trkpt><trkpt lat="30.181284215840087" lon="-5.6880902202744705"><ele>682.3333333333333</ele><time>2026-03-24T14:27:38Z</time></trkpt><trkpt lat="30.18131295148978" lon="-5.688309345999056"><ele>683.0</ele><time>2026-03-24T14:27:39Z</time></trkpt><trkpt lat="30.181343142834617" lon="-5.68852836108031"><ele>682.6666666666666</ele><time>2026-03-24T14:27:40Z</time></trkpt><trkpt lat="30.18136984787644" lon="-5.688756906111758"><ele>682.3333333333334</ele><time>2026-03-24T14:27:41Z</time></trkpt><trkpt lat="30.181386686307317" lon="-5.6890006690539074"><ele>682.0</ele><time>2026-03-24T14:27:42Z</time></trkpt><trkpt lat="30.181413609440206" lon="-5.6892383846316"><ele>682.0</ele><time>2026-03-24T14:27:43Z</time></trkpt><trkpt lat="30.181436324269924" lon="-5.689470797527197"><ele>682.0</ele><time>2026-03-24T14:27:44Z</time></trkpt><trkpt lat="30.181463566070835" lon="-5.689692245197904"><ele>682.0</ele><time>2026-03-24T14:27:45Z</time></trkpt><trkpt lat="30.18149141680352" lon="-5.689920213824105"><ele>682.0</ele><time>2026-03-24T14:27:46Z</time></trkpt><trkpt lat="30.181514817805166" lon="-5.69012574857223"><ele>682.0</ele><time>2026-03-24T14:27:47Z</time></trkpt><trkpt lat="30.18154471454867" lon="-5.69033894003909"><ele>682.0</ele><time>2026-03-24T14:27:48Z</time></trkpt><trkpt lat="30.181584082518942" lon="-5.690547615601898"><ele>682.0</ele><time>2026-03-24T14:27:49Z</time></trkpt><trkpt lat="30.18161759423041" lon="-5.69074453137009"><ele>682.0</ele><time>2026-03-24T14:27:50Z</time></trkpt><trkpt lat="30.18163609730409" lon="-5.6909395411871575"><ele>682.0</ele><time>2026-03-24T14:27:51Z</time></trkpt><trkpt lat="30.18165415811417" lon="-5.691137869102717"><ele>682.3333333333334</ele><time>2026-03-24T14:27:52Z</time></trkpt><trkpt lat="30.181673190045903" lon="-5.691347059786146"><ele>682.6666666666666</ele><time>2026-03-24T14:27:53Z</time></trkpt><trkpt lat="30.181683584483384" lon="-5.691544575806135"><ele>683.0</ele><time>2026-03-24T14:27:54Z</time></trkpt><trkpt lat="30.18168877646099" lon="-5.69173378933856"><ele>683.0</ele><time>2026-03-24T14:27:55Z</time></trkpt><trkpt lat="30.181680515509882" lon="-5.691942997278929"><ele>683.0</ele><time>2026-03-24T14:27:56Z</time></trkpt><trkpt lat="30.181681137398968" lon="-5.6921552392020445"><ele>683.0</ele><time>2026-03-24T14:27:57Z</time></trkpt><trkpt lat="30.181694161377532" lon="-5.692368815717617"><ele>683.0</ele><time>2026-03-24T14:27:58Z</time></trkpt><trkpt lat="30.181712643711712" lon="-5.692574135074251"><ele>683.0</ele><time>2026-03-24T14:27:59Z</time></trkpt><trkpt lat="30.18173266682053" lon="-5.69278400909447"><ele>683.0</ele><time>2026-03-24T14:28:00Z</time></trkpt><trkpt lat="30.181742766811706" lon="-5.692985216854235"><ele>683.0</ele><time>2026-03-24T14:28:01Z</time></trkpt><trkpt lat="30.181750796691905" lon="-5.6931770772486745"><ele>683.0</ele><time>2026-03-24T14:28:02Z</time></trkpt><trkpt lat="30.181765773352385" lon="-5.693364874174264"><ele>683.0</ele><time>2026-03-24T14:28:03Z</time></trkpt><trkpt lat="30.18179901339338" lon="-5.693530669740043"><ele>683.3333333333333</ele><time>2026-03-24T14:28:04Z</time></trkpt><trkpt lat="30.181830960529584" lon="-5.69370018294383"><ele>683.6666666666666</ele><time>2026-03-24T14:28:05Z</time></trkpt><trkpt lat="30.18185573496733" lon="-5.693875716563207"><ele>684.0</ele><time>2026-03-24T14:28:06Z</time></trkpt><trkpt lat="30.181868882853955" lon="-5.694059287945121"><ele>684.0</ele><time>2026-03-24T14:28:07Z</time></trkpt><trkpt lat="30.18186886763748" lon="-5.694235770833893"><ele>684.0</ele><time>2026-03-24T14:28:08Z</time></trkpt><trkpt lat="30.181855144881904" lon="-5.694414776615317"><ele>684.0</ele><time>2026-03-24T14:28:09Z</time></trkpt><trkpt lat="30.18184529540753" lon="-5.6946026218031305"><ele>683.3333333333334</ele><time>2026-03-24T14:28:10Z</time></trkpt><trkpt lat="30.18185133054336" lon="-5.694805194684974"><ele>682.6666666666667</ele><time>2026-03-24T14:28:11Z</time></trkpt><trkpt lat="30.181854937963617" lon="-5.6950053278964825"><ele>682.0</ele><time>2026-03-24T14:28:12Z</time></trkpt><trkpt lat="30.181859030671642" lon="-5.6951930970852445"><ele>682.3333333333334</ele><time>2026-03-24T14:28:13Z</time></trkpt><trkpt lat="30.181857484896288" lon="-5.695380729126015"><ele>682.6666666666666</ele><time>2026-03-24T14:28:14Z</time></trkpt><trkpt lat="30.181850829341464" lon="-5.695576137279318"><ele>683.0</ele><time>2026-03-24T14:28:15Z</time></trkpt><trkpt lat="30.181840795678575" lon="-5.695765046263664"><ele>683.0</ele><time>2026-03-24T14:28:16Z</time></trkpt><trkpt lat="30.18182338988326" lon="-5.695962074126948"><ele>683.0</ele><time>2026-03-24T14:28:17.001Z</time></trkpt><trkpt lat="30.181803378522595" lon="-5.696158464414392"><ele>683.0</ele><time>2026-03-24T14:28:18.001Z</time></trkpt><trkpt lat="30.18178394900818" lon="-5.696359704218772"><ele>683.0</ele><time>2026-03-24T14:28:19.001Z</time></trkpt><trkpt lat="30.18177162332723" lon="-5.696565730404522"><ele>683.0</ele><time>2026-03-24T14:28:20.001Z</time></trkpt><trkpt lat="30.181756953273727" lon="-5.696772414524344"><ele>683.0</ele><time>2026-03-24T14:28:21.001Z</time></trkpt><trkpt lat="30.181742449171697" lon="-5.696986045593037"><ele>683.0</ele><time>2026-03-24T14:28:22.001Z</time></trkpt><trkpt lat="30.181725246599886" lon="-5.697199187273584"><ele>683.0</ele><time>2026-03-24T14:28:23.001Z</time></trkpt><trkpt lat="30.181715367358308" lon="-5.697400305569309"><ele>683.0</ele><time>2026-03-24T14:28:24.001Z</time></trkpt><trkpt lat="30.181707070216977" lon="-5.697597966980078"><ele>683.6666666666666</ele><time>2026-03-24T14:28:25.001Z</time></trkpt><trkpt lat="30.181709125854766" lon="-5.697796373564917"><ele>684.3333333333334</ele><time>2026-03-24T14:28:26.001Z</time></trkpt><trkpt lat="30.18172221986744" lon="-5.697987397355814"><ele>685.0</ele><time>2026-03-24T14:28:27.001Z</time></trkpt><trkpt lat="30.18173116033127" lon="-5.698179653143904"><ele>685.0</ele><time>2026-03-24T14:28:28.001Z</time></trkpt><trkpt lat="30.181728829138194" lon="-5.698363673619624"><ele>685.0</ele><time>2026-03-24T14:28:29.001Z</time></trkpt><trkpt lat="30.18172983884568" lon="-5.698557436847405"><ele>685.0</ele><time>2026-03-24T14:28:30.001Z</time></trkpt><trkpt lat="30.181736740179538" lon="-5.698754058634491"><ele>685.6666666666667</ele><time>2026-03-24T14:28:31.001Z</time></trkpt><trkpt lat="30.181748270529535" lon="-5.698950340336009"><ele>686.3333333333334</ele><time>2026-03-24T14:28:32.001Z</time></trkpt><trkpt lat="30.181758877546" lon="-5.69915984494794"><ele>687.0</ele><time>2026-03-24T14:28:33.001Z</time></trkpt><trkpt lat="30.1817745064752" lon="-5.699360333789682"><ele>686.3333333333334</ele><time>2026-03-24T14:28:34.001Z</time></trkpt><trkpt lat="30.18178325952336" lon="-5.699566209654158"><ele>685.6666666666667</ele><time>2026-03-24T14:28:35.001Z</time></trkpt><trkpt lat="30.181789484468105" lon="-5.699762725895232"><ele>685.0</ele><time>2026-03-24T14:28:36.001Z</time></trkpt><trkpt lat="30.18179316158267" lon="-5.699958933673321"><ele>685.0</ele><time>2026-03-24T14:28:37.001Z</time></trkpt><trkpt lat="30.181800000931513" lon="-5.700157108557915"><ele>685.0</ele><time>2026-03-24T14:28:38.001Z</time></trkpt><trkpt lat="30.18181190306457" lon="-5.700358405047197"><ele>685.0</ele><time>2026-03-24T14:28:39.001Z</time></trkpt><trkpt lat="30.181830888470955" lon="-5.700549732533096"><ele>684.6666666666667</ele><time>2026-03-24T14:28:40.001Z</time></trkpt><trkpt lat="30.18185214692059" lon="-5.700755228971244"><ele>684.3333333333334</ele><time>2026-03-24T14:28:41.001Z</time></trkpt><trkpt lat="30.181880069220476" lon="-5.700948858262232"><ele>684.0</ele><time>2026-03-24T14:28:42.001Z</time></trkpt><trkpt lat="30.181898905362427" lon="-5.7011546565378906"><ele>684.0</ele><time>2026-03-24T14:28:43.001Z</time></trkpt><trkpt lat="30.181917243877" lon="-5.701367542117117"><ele>684.0</ele><time>2026-03-24T14:28:44.001Z</time></trkpt><trkpt lat="30.181935679930383" lon="-5.701583609492179"><ele>684.0</ele><time>2026-03-24T14:28:45.001Z</time></trkpt><trkpt lat="30.181956470412917" lon="-5.701777166066054"><ele>684.6666666666666</ele><time>2026-03-24T14:28:46.001Z</time></trkpt><trkpt lat="30.181986957129755" lon="-5.701971140116535"><ele>685.3333333333333</ele><time>2026-03-24T14:28:47.001Z</time></trkpt><trkpt lat="30.182026403807047" lon="-5.702165139271203"><ele>686.0</ele><time>2026-03-24T14:28:48.001Z</time></trkpt><trkpt lat="30.182063795763842" lon="-5.702352402580503"><ele>686.0</ele><time>2026-03-24T14:28:49.001Z</time></trkpt><trkpt lat="30.182084454769367" lon="-5.702543498890287"><ele>686.0</ele><time>2026-03-24T14:28:50.001Z</time></trkpt><trkpt lat="30.182114634120328" lon="-5.7027486723367735"><ele>686.0</ele><time>2026-03-24T14:28:51.001Z</time></trkpt><trkpt lat="30.182164796342995" lon="-5.702943480147326"><ele>685.6666666666666</ele><time>2026-03-24T14:28:52.001Z</time></trkpt><trkpt lat="30.182206091996445" lon="-5.703147678262177"><ele>685.3333333333334</ele><time>2026-03-24T14:28:53.001Z</time></trkpt><trkpt lat="30.182246596911625" lon="-5.703355119545382"><ele>685.0</ele><time>2026-03-24T14:28:54.001Z</time></trkpt><trkpt lat="30.18228438441302" lon="-5.7035603254561185"><ele>685.3333333333334</ele><time>2026-03-24T14:28:55.001Z</time></trkpt><trkpt lat="30.182310180256504" lon="-5.703776805415465"><ele>685.6666666666666</ele><time>2026-03-24T14:28:56.001Z</time></trkpt><trkpt lat="30.18233539428109" lon="-5.703996167551488"><ele>686.0</ele><time>2026-03-24T14:28:57.001Z</time></trkpt><trkpt lat="30.182364680909828" lon="-5.704214120876828"><ele>685.6666666666666</ele><time>2026-03-24T14:28:58.001Z</time></trkpt><trkpt lat="30.182387475642702" lon="-5.704415446005722"><ele>685.3333333333334</ele><time>2026-03-24T14:28:59.001Z</time></trkpt><trkpt lat="30.182428431252003" lon="-5.704622567332746"><ele>685.0</ele><time>2026-03-24T14:29:00.001Z</time></trkpt><trkpt lat="30.182481093647755" lon="-5.704844276679736"><ele>685.0</ele><time>2026-03-24T14:29:01.001Z</time></trkpt><trkpt lat="30.1825540192361" lon="-5.705064382431477"><ele>685.0</ele><time>2026-03-24T14:29:02.001Z</time></trkpt><trkpt lat="30.182621206981064" lon="-5.705290278683006"><ele>685.0</ele><time>2026-03-24T14:29:03.001Z</time></trkpt><trkpt lat="30.182684605456572" lon="-5.705518793542011"><ele>685.0</ele><time>2026-03-24T14:29:04.001Z</time></trkpt><trkpt lat="30.182750945271373" lon="-5.705767625629124"><ele>685.0</ele><time>2026-03-24T14:29:05.001Z</time></trkpt><trkpt lat="30.182824280141325" lon="-5.706008396027595"><ele>685.0</ele><time>2026-03-24T14:29:06.001Z</time></trkpt><trkpt lat="30.182903612033613" lon="-5.7062475476388785"><ele>685.6666666666667</ele><time>2026-03-24T14:29:07.001Z</time></trkpt><trkpt lat="30.18298808944543" lon="-5.7064819992648985"><ele>686.3333333333334</ele><time>2026-03-24T14:29:08.001Z</time></trkpt><trkpt lat="30.1830760862796" lon="-5.7067142437106035"><ele>687.0</ele><time>2026-03-24T14:29:09.001Z</time></trkpt><trkpt lat="30.183169912262024" lon="-5.706944088339952"><ele>687.0</ele><time>2026-03-24T14:29:10.001Z</time></trkpt><trkpt lat="30.183258043345692" lon="-5.707182608821493"><ele>687.0</ele><time>2026-03-24T14:29:11.001Z</time></trkpt><trkpt lat="30.183346889488703" lon="-5.707422790370279"><ele>687.0</ele><time>2026-03-24T14:29:12.001Z</time></trkpt><trkpt lat="30.183434356503703" lon="-5.707659339776956"><ele>687.0</ele><time>2026-03-24T14:29:13.001Z</time></trkpt><trkpt lat="30.183518190162786" lon="-5.707876310043375"><ele>687.0</ele><time>2026-03-24T14:29:14.001Z</time></trkpt><trkpt lat="30.18358940894157" lon="-5.708081482164257"><ele>687.0</ele><time>2026-03-24T14:29:15.001Z</time></trkpt><trkpt lat="30.183665260087334" lon="-5.70829196027146"><ele>687.0</ele><time>2026-03-24T14:29:16.001Z</time></trkpt><trkpt lat="30.183745319351843" lon="-5.70850035238712"><ele>687.0</ele><time>2026-03-24T14:29:17.001Z</time></trkpt><trkpt lat="30.18382145158259" lon="-5.708705324695578"><ele>687.0</ele><time>2026-03-24T14:29:18.001Z</time></trkpt><trkpt lat="30.18390430713164" lon="-5.708913505705077"><ele>687.0</ele><time>2026-03-24T14:29:19.001Z</time></trkpt><trkpt lat="30.183981680461745" lon="-5.709120412225411"><ele>687.0</ele><time>2026-03-24T14:29:20.001Z</time></trkpt><trkpt lat="30.184054383489627" lon="-5.709319629138873"><ele>687.0</ele><time>2026-03-24T14:29:21.001Z</time></trkpt><trkpt lat="30.184132187435637" lon="-5.709513510589054"><ele>687.0</ele><time>2026-03-24T14:29:22.001Z</time></trkpt><trkpt lat="30.18421300304583" lon="-5.7096979844170415"><ele>687.0</ele><time>2026-03-24T14:29:23Z</time></trkpt><trkpt lat="30.1842928528985" lon="-5.7098730996551845"><ele>687.0</ele><time>2026-03-24T14:29:24Z</time></trkpt><trkpt lat="30.184370766027094" lon="-5.710060792659736"><ele>687.0</ele><time>2026-03-24T14:29:25Z</time></trkpt><trkpt lat="30.184448547431447" lon="-5.71024440193182"><ele>687.0</ele><time>2026-03-24T14:29:26.001Z</time></trkpt><trkpt lat="30.18452658716575" lon="-5.710428304899652"><ele>687.0</ele><time>2026-03-24T14:29:27Z</time></trkpt><trkpt lat="30.18460274476779" lon="-5.710607916764036"><ele>687.0</ele><time>2026-03-24T14:29:28Z</time></trkpt><trkpt lat="30.184678424177058" lon="-5.7107916709929825"><ele>687.0</ele><time>2026-03-24T14:29:29.001Z</time></trkpt><trkpt lat="30.184758397919598" lon="-5.710976012029506"><ele>687.0</ele><time>2026-03-24T14:29:30Z</time></trkpt><trkpt lat="30.184832920541464" lon="-5.711167545038407"><ele>687.0</ele><time>2026-03-24T14:29:31Z</time></trkpt><trkpt lat="30.184904186313453" lon="-5.711366317317585"><ele>687.0</ele><time>2026-03-24T14:29:32.001Z</time></trkpt><trkpt lat="30.1849745031299" lon="-5.711550803199392"><ele>687.0</ele><time>2026-03-24T14:29:33.001Z</time></trkpt><trkpt lat="30.18505258212282" lon="-5.711725941872475"><ele>687.0</ele><time>2026-03-24T14:29:34.001Z</time></trkpt><trkpt lat="30.185141425218188" lon="-5.711888781374689"><ele>687.0</ele><time>2026-03-24T14:29:35.001Z</time></trkpt><trkpt lat="30.1852257721779" lon="-5.712055996293803"><ele>687.0</ele><time>2026-03-24T14:29:36.001Z</time></trkpt><trkpt lat="30.185300962311484" lon="-5.712242464736206"><ele>687.0</ele><time>2026-03-24T14:29:37.001Z</time></trkpt><trkpt lat="30.185370504811875" lon="-5.712439175433623"><ele>687.0</ele><time>2026-03-24T14:29:38.001Z</time></trkpt><trkpt lat="30.185441491350534" lon="-5.712651465371766"><ele>687.3333333333334</ele><time>2026-03-24T14:29:39.001Z</time></trkpt><trkpt lat="30.18551319460491" lon="-5.712867432576038"><ele>687.6666666666667</ele><time>2026-03-24T14:29:40.001Z</time></trkpt><trkpt lat="30.18557609114035" lon="-5.713082865027387"><ele>688.0</ele><time>2026-03-24T14:29:41.001Z</time></trkpt><trkpt lat="30.185625563159448" lon="-5.713296027847146"><ele>688.0</ele><time>2026-03-24T14:29:42.001Z</time></trkpt><trkpt lat="30.185667217126376" lon="-5.713496478389089"><ele>688.0</ele><time>2026-03-24T14:29:43.001Z</time></trkpt><trkpt lat="30.1857017556575" lon="-5.7136955095778115"><ele>688.0</ele><time>2026-03-24T14:29:44.001Z</time></trkpt><trkpt lat="30.185726019218603" lon="-5.713898054861899"><ele>687.6666666666667</ele><time>2026-03-24T14:29:45.001Z</time></trkpt><trkpt lat="30.18574895545209" lon="-5.714114792251544"><ele>687.3333333333334</ele><time>2026-03-24T14:29:46.001Z</time></trkpt><trkpt lat="30.18578934475639" lon="-5.714344742355917"><ele>687.0</ele><time>2026-03-24T14:29:47.001Z</time></trkpt><trkpt lat="30.18584195297905" lon="-5.714570198613807"><ele>687.3333333333334</ele><time>2026-03-24T14:29:48.001Z</time></trkpt><trkpt lat="30.18590409177624" lon="-5.714801063002783"><ele>687.6666666666667</ele><time>2026-03-24T14:29:49.001Z</time></trkpt><trkpt lat="30.185964173983784" lon="-5.715029303317605"><ele>688.0</ele><time>2026-03-24T14:29:50.001Z</time></trkpt><trkpt lat="30.186014252932818" lon="-5.715247582691951"><ele>688.0</ele><time>2026-03-24T14:29:51.001Z</time></trkpt><trkpt lat="30.186041274712803" lon="-5.715463701686303"><ele>688.0</ele><time>2026-03-24T14:29:52.001Z</time></trkpt><trkpt lat="30.186052823916423" lon="-5.715683719738917"><ele>688.0</ele><time>2026-03-24T14:29:53.001Z</time></trkpt><trkpt lat="30.186076982078045" lon="-5.715917202892163"><ele>688.3333333333334</ele><time>2026-03-24T14:29:54.001Z</time></trkpt><trkpt lat="30.18612023544082" lon="-5.71616257641755"><ele>688.6666666666666</ele><time>2026-03-24T14:29:55.001Z</time></trkpt><trkpt lat="30.18615123219211" lon="-5.716420371756778"><ele>689.0</ele><time>2026-03-24T14:29:56.001Z</time></trkpt><trkpt lat="30.186176498221332" lon="-5.716683442541346"><ele>689.0</ele><time>2026-03-24T14:29:57.001Z</time></trkpt><trkpt lat="30.18620318129788" lon="-5.716952930930173"><ele>689.0</ele><time>2026-03-24T14:29:58.001Z</time></trkpt><trkpt lat="30.186229394496827" lon="-5.717232624003377"><ele>689.0</ele><time>2026-03-24T14:29:59.001Z</time></trkpt><trkpt lat="30.186254477321867" lon="-5.717514518360535"><ele>689.0</ele><time>2026-03-24T14:30:00.001Z</time></trkpt><trkpt lat="30.186281816948636" lon="-5.717787103992452"><ele>689.5</ele><time>2026-03-24T14:30:01.001Z</time></trkpt><trkpt lat="30.1863045857628" lon="-5.71806211364313"><ele>690.0</ele><time>2026-03-24T14:30:02.001Z</time></trkpt><trkpt lat="30.18632951514896" lon="-5.718328500480442"><ele>689.6666666666666</ele><time>2026-03-24T14:30:03.001Z</time></trkpt><trkpt lat="30.186355939320535" lon="-5.718589329037729"><ele>689.3333333333333</ele><time>2026-03-24T14:30:04.001Z</time></trkpt><trkpt lat="30.186384003573913" lon="-5.71881363236111"><ele>689.0</ele><time>2026-03-24T14:30:05.001Z</time></trkpt><trkpt lat="30.18641008354953" lon="-5.7190353699963135"><ele>689.0</ele><time>2026-03-24T14:30:06.001Z</time></trkpt><trkpt lat="30.18643606637197" lon="-5.7192557131953485"><ele>689.0</ele><time>2026-03-24T14:30:07.001Z</time></trkpt><trkpt lat="30.18645889260278" lon="-5.719473091082142"><ele>689.0</ele><time>2026-03-24T14:30:08.001Z</time></trkpt><trkpt lat="30.186484473227488" lon="-5.7197058202695334"><ele>689.0</ele><time>2026-03-24T14:30:09.001Z</time></trkpt><trkpt lat="30.18651126105767" lon="-5.719956348410368"><ele>689.0</ele><time>2026-03-24T14:30:10.001Z</time></trkpt><trkpt lat="30.186536747087516" lon="-5.720217059883599"><ele>689.0</ele><time>2026-03-24T14:30:11.001Z</time></trkpt><trkpt lat="30.186567861953815" lon="-5.720491759737312"><ele>690.0</ele><time>2026-03-24T14:30:12.001Z</time></trkpt><trkpt lat="30.186602446460242" lon="-5.720770322982171"><ele>691.0</ele><time>2026-03-24T14:30:13.001Z</time></trkpt><trkpt lat="30.186636322915565" lon="-5.721031301982459"><ele>690.3333333333334</ele><time>2026-03-24T14:30:14.001Z</time></trkpt><trkpt lat="30.18667223092159" lon="-5.721257736048747"><ele>689.6666666666666</ele><time>2026-03-24T14:30:15.001Z</time></trkpt><trkpt lat="30.186718961208143" lon="-5.721487930221647"><ele>689.0</ele><time>2026-03-24T14:30:16.001Z</time></trkpt><trkpt lat="30.18677571662612" lon="-5.72171745618305"><ele>689.5</ele><time>2026-03-24T14:30:17.001Z</time></trkpt><trkpt lat="30.186829770893503" lon="-5.721969734949958"><ele>690.0</ele><time>2026-03-24T14:30:18.001Z</time></trkpt><trkpt lat="30.186872427363998" lon="-5.722234960558302"><ele>690.0</ele><time>2026-03-24T14:30:19.001Z</time></trkpt><trkpt lat="30.18689570656098" lon="-5.722492726878533"><ele>690.0</ele><time>2026-03-24T14:30:20.001Z</time></trkpt><trkpt lat="30.186920757117793" lon="-5.722718449982852"><ele>690.0</ele><time>2026-03-24T14:30:21.001Z</time></trkpt><trkpt lat="30.186939328858763" lon="-5.722918289447921"><ele>691.0</ele><time>2026-03-24T14:30:22.001Z</time></trkpt><trkpt lat="30.18695447507172" lon="-5.723115819151476"><ele>692.0</ele><time>2026-03-24T14:30:23.001Z</time></trkpt><trkpt lat="30.186973568886913" lon="-5.7233080133687215"><ele>693.0</ele><time>2026-03-24T14:30:24.001Z</time></trkpt><trkpt lat="30.186990299405952" lon="-5.723499392862581"><ele>693.0</ele><time>2026-03-24T14:30:25.001Z</time></trkpt><trkpt lat="30.187000203850452" lon="-5.723696706797575"><ele>693.0</ele><time>2026-03-24T14:30:26.001Z</time></trkpt><trkpt lat="30.187022767133126" lon="-5.72389551681672"><ele>693.0</ele><time>2026-03-24T14:30:27.001Z</time></trkpt><trkpt lat="30.18703909317366" lon="-5.724092727195517"><ele>693.0</ele><time>2026-03-24T14:30:28.001Z</time></trkpt><trkpt lat="30.187049444407187" lon="-5.724286215688209"><ele>693.0</ele><time>2026-03-24T14:30:29.001Z</time></trkpt><trkpt lat="30.18706323984626" lon="-5.724470639977581"><ele>693.0</ele><time>2026-03-24T14:30:30.001Z</time></trkpt><trkpt lat="30.18709144674544" lon="-5.724649261105837"><ele>692.6666666666666</ele><time>2026-03-24T14:30:31.001Z</time></trkpt><trkpt lat="30.187118822980185" lon="-5.724825904503975"><ele>692.3333333333333</ele><time>2026-03-24T14:30:32.001Z</time></trkpt><trkpt lat="30.18714283815592" lon="-5.725000960758301"><ele>692.0</ele><time>2026-03-24T14:30:33.001Z</time></trkpt><trkpt lat="30.187155032157687" lon="-5.725181097979585"><ele>692.0</ele><time>2026-03-24T14:30:34.001Z</time></trkpt><trkpt lat="30.187166166544976" lon="-5.725368916029772"><ele>692.0</ele><time>2026-03-24T14:30:35.001Z</time></trkpt><trkpt lat="30.18717897409143" lon="-5.7255591261860195"><ele>692.0</ele><time>2026-03-24T14:30:36.001Z</time></trkpt><trkpt lat="30.187193391388348" lon="-5.725749140048772"><ele>692.0</ele><time>2026-03-24T14:30:37.001Z</time></trkpt><trkpt lat="30.187208909499862" lon="-5.72594058795105"><ele>692.0</ele><time>2026-03-24T14:30:38.001Z</time></trkpt><trkpt lat="30.187228152270922" lon="-5.7261383906962715"><ele>692.0</ele><time>2026-03-24T14:30:39.001Z</time></trkpt><trkpt lat="30.187250080162766" lon="-5.726338035281094"><ele>692.0</ele><time>2026-03-24T14:30:40.001Z</time></trkpt><trkpt lat="30.187272978218804" lon="-5.726542927151042"><ele>692.0</ele><time>2026-03-24T14:30:41.001Z</time></trkpt><trkpt lat="30.18729467681393" lon="-5.726750374992448"><ele>692.0</ele><time>2026-03-24T14:30:42.001Z</time></trkpt><trkpt lat="30.187311822838016" lon="-5.726955359375911"><ele>692.0</ele><time>2026-03-24T14:30:43.001Z</time></trkpt><trkpt lat="30.187331484515685" lon="-5.727156985623328"><ele>692.0</ele><time>2026-03-24T14:30:44.001Z</time></trkpt><trkpt lat="30.18734819475967" lon="-5.727360550307543"><ele>692.0</ele><time>2026-03-24T14:30:45.001Z</time></trkpt><trkpt lat="30.187360815714815" lon="-5.727571575021325"><ele>692.0</ele><time>2026-03-24T14:30:46.001Z</time></trkpt><trkpt lat="30.18737835223703" lon="-5.727778766850785"><ele>692.0</ele><time>2026-03-24T14:30:47.001Z</time></trkpt><trkpt lat="30.18739608050856" lon="-5.72800199228585"><ele>692.0</ele><time>2026-03-24T14:30:48.001Z</time></trkpt><trkpt lat="30.18741426584052" lon="-5.7282235661450285"><ele>692.0</ele><time>2026-03-24T14:30:49.001Z</time></trkpt><trkpt lat="30.187424473558146" lon="-5.7284601815880025"><ele>692.0</ele><time>2026-03-24T14:30:50.001Z</time></trkpt><trkpt lat="30.187438763173525" lon="-5.728698749546595"><ele>692.0</ele><time>2026-03-24T14:30:51.001Z</time></trkpt><trkpt lat="30.187449386793023" lon="-5.728930345075575"><ele>692.0</ele><time>2026-03-24T14:30:52.001Z</time></trkpt><trkpt lat="30.187468194755052" lon="-5.729151604225833"><ele>692.0</ele><time>2026-03-24T14:30:53.001Z</time></trkpt><trkpt lat="30.18749185109478" lon="-5.729372089124793"><ele>692.0</ele><time>2026-03-24T14:30:54.001Z</time></trkpt><trkpt lat="30.18752310433208" lon="-5.729573713250518"><ele>691.3333333333333</ele><time>2026-03-24T14:30:55.001Z</time></trkpt><trkpt lat="30.18755334495626" lon="-5.729775237712517"><ele>690.6666666666666</ele><time>2026-03-24T14:30:56.001Z</time></trkpt><trkpt lat="30.18757904978542" lon="-5.729978786080262"><ele>690.0</ele><time>2026-03-24T14:30:57.001Z</time></trkpt><trkpt lat="30.187601252874927" lon="-5.730189194130412"><ele>690.6666666666666</ele><time>2026-03-24T14:30:58.001Z</time></trkpt><trkpt lat="30.187625366470137" lon="-5.730409571736321"><ele>691.3333333333333</ele><time>2026-03-24T14:30:59.001Z</time></trkpt><trkpt lat="30.187654808793024" lon="-5.730625984783138"><ele>692.0</ele><time>2026-03-24T14:31:00.001Z</time></trkpt><trkpt lat="30.187686138724043" lon="-5.7308517917003385"><ele>692.3333333333333</ele><time>2026-03-24T14:31:01.001Z</time></trkpt><trkpt lat="30.18771615415111" lon="-5.731087693506845"><ele>692.6666666666666</ele><time>2026-03-24T14:31:02.001Z</time></trkpt><trkpt lat="30.18773410531564" lon="-5.731326087924413"><ele>693.0</ele><time>2026-03-24T14:31:03.001Z</time></trkpt><trkpt lat="30.187746304543115" lon="-5.731564364202655"><ele>693.0</ele><time>2026-03-24T14:31:04.001Z</time></trkpt><trkpt lat="30.187760673931603" lon="-5.7318031443549495"><ele>693.0</ele><time>2026-03-24T14:31:05.001Z</time></trkpt><trkpt lat="30.18777813174716" lon="-5.732040492672163"><ele>693.0</ele><time>2026-03-24T14:31:06.001Z</time></trkpt><trkpt lat="30.187795447521296" lon="-5.732280448837607"><ele>693.3333333333334</ele><time>2026-03-24T14:31:07.001Z</time></trkpt><trkpt lat="30.187814341364188" lon="-5.73252310014408"><ele>693.6666666666667</ele><time>2026-03-24T14:31:08.001Z</time></trkpt><trkpt lat="30.18783425516097" lon="-5.732762038502261"><ele>694.0</ele><time>2026-03-24T14:31:09.001Z</time></trkpt><trkpt lat="30.187852602390603" lon="-5.732996625968727"><ele>693.3333333333334</ele><time>2026-03-24T14:31:10.001Z</time></trkpt><trkpt lat="30.187875474404926" lon="-5.733222546675409"><ele>692.6666666666666</ele><time>2026-03-24T14:31:11.001Z</time></trkpt><trkpt lat="30.187901631924028" lon="-5.733452864157949"><ele>692.0</ele><time>2026-03-24T14:31:12.001Z</time></trkpt><trkpt lat="30.187934136724895" lon="-5.733691078249508"><ele>692.0</ele><time>2026-03-24T14:31:13.001Z</time></trkpt><trkpt lat="30.18796530254266" lon="-5.733939574218746"><ele>692.0</ele><time>2026-03-24T14:31:14.001Z</time></trkpt><trkpt lat="30.187996107560128" lon="-5.734194548305816"><ele>692.0</ele><time>2026-03-24T14:31:15.001Z</time></trkpt><trkpt lat="30.188024981823354" lon="-5.734458717793216"><ele>692.0</ele><time>2026-03-24T14:31:16.001Z</time></trkpt><trkpt lat="30.188053981992635" lon="-5.734720172734377"><ele>692.0</ele><time>2026-03-24T14:31:17.001Z</time></trkpt><trkpt lat="30.188083312557282" lon="-5.73498227040749"><ele>692.6666666666666</ele><time>2026-03-24T14:31:18.001Z</time></trkpt><trkpt lat="30.18810852294093" lon="-5.735235325182597"><ele>693.3333333333334</ele><time>2026-03-24T14:31:19.001Z</time></trkpt><trkpt lat="30.188124290416166" lon="-5.735457247427778"><ele>694.0</ele><time>2026-03-24T14:31:20.001Z</time></trkpt><trkpt lat="30.18812428563887" lon="-5.735671704319122"><ele>694.0</ele><time>2026-03-24T14:31:21.001Z</time></trkpt><trkpt lat="30.18811406431884" lon="-5.735918271965807"><ele>694.0</ele><time>2026-03-24T14:31:22.001Z</time></trkpt><trkpt lat="30.188089245423352" lon="-5.736176973780672"><ele>694.0</ele><time>2026-03-24T14:31:23.001Z</time></trkpt><trkpt lat="30.188063750533424" lon="-5.736445979370856"><ele>693.6666666666667</ele><time>2026-03-24T14:31:24.001Z</time></trkpt><trkpt lat="30.188036153333567" lon="-5.736713728424724"><ele>693.3333333333334</ele><time>2026-03-24T14:31:25.001Z</time></trkpt><trkpt lat="30.18801551622268" lon="-5.736955396990655"><ele>693.0</ele><time>2026-03-24T14:31:26.001Z</time></trkpt><trkpt lat="30.188004089575337" lon="-5.737170584501174"><ele>693.0</ele><time>2026-03-24T14:31:27.001Z</time></trkpt><trkpt lat="30.188007171186243" lon="-5.737392216927193"><ele>693.0</ele><time>2026-03-24T14:31:28.001Z</time></trkpt><trkpt lat="30.188016153706105" lon="-5.7376161716393375"><ele>693.0</ele><time>2026-03-24T14:31:29Z</time></trkpt><trkpt lat="30.188030651887406" lon="-5.737854379009658"><ele>693.0</ele><time>2026-03-24T14:31:30.001Z</time></trkpt><trkpt lat="30.188044408812374" lon="-5.738097352787452"><ele>693.0</ele><time>2026-03-24T14:31:31.001Z</time></trkpt><trkpt lat="30.188067313799227" lon="-5.738334383162866"><ele>693.0</ele><time>2026-03-24T14:31:32Z</time></trkpt><trkpt lat="30.188103634441752" lon="-5.738543971323653"><ele>693.0</ele><time>2026-03-24T14:31:33Z</time></trkpt><trkpt lat="30.18813396857135" lon="-5.738763973050665"><ele>693.0</ele><time>2026-03-24T14:31:34Z</time></trkpt><trkpt lat="30.188152292016852" lon="-5.7389971738095245"><ele>693.0</ele><time>2026-03-24T14:31:35.001Z</time></trkpt><trkpt lat="30.188172318823117" lon="-5.73924219272878"><ele>693.6666666666666</ele><time>2026-03-24T14:31:36.001Z</time></trkpt><trkpt lat="30.18819141457444" lon="-5.739486877211544"><ele>694.3333333333333</ele><time>2026-03-24T14:31:37.001Z</time></trkpt><trkpt lat="30.18821305102208" lon="-5.739725243183993"><ele>695.0</ele><time>2026-03-24T14:31:38.001Z</time></trkpt><trkpt lat="30.188236384443297" lon="-5.739961536310826"><ele>695.0</ele><time>2026-03-24T14:31:39.001Z</time></trkpt><trkpt lat="30.188257608133426" lon="-5.740199849080665"><ele>695.0</ele><time>2026-03-24T14:31:40.001Z</time></trkpt><trkpt lat="30.188274724750954" lon="-5.740430774341085"><ele>695.0</ele><time>2026-03-24T14:31:41.001Z</time></trkpt><trkpt lat="30.188285542906694" lon="-5.740642912510538"><ele>694.6666666666666</ele><time>2026-03-24T14:31:42Z</time></trkpt><trkpt lat="30.18829298516506" lon="-5.7408329038961226"><ele>694.3333333333334</ele><time>2026-03-24T14:31:43Z</time></trkpt><trkpt lat="30.188295605084967" lon="-5.741025144793399"><ele>694.0</ele><time>2026-03-24T14:31:44Z</time></trkpt><trkpt lat="30.188300995881097" lon="-5.741215686721532"><ele>694.0</ele><time>2026-03-24T14:31:45Z</time></trkpt><trkpt lat="30.188328131562667" lon="-5.7413933788043945"><ele>694.0</ele><time>2026-03-24T14:31:46Z</time></trkpt><trkpt lat="30.18835497416903" lon="-5.741571708775191"><ele>694.0</ele><time>2026-03-24T14:31:47Z</time></trkpt><trkpt lat="30.188372291994067" lon="-5.741768706425092"><ele>694.3333333333334</ele><time>2026-03-24T14:31:48Z</time></trkpt><trkpt lat="30.188395788762506" lon="-5.741974855730802"><ele>694.6666666666666</ele><time>2026-03-24T14:31:49Z</time></trkpt><trkpt lat="30.18843124246597" lon="-5.74217136403744"><ele>695.0</ele><time>2026-03-24T14:31:50Z</time></trkpt><trkpt lat="30.18847717809981" lon="-5.742363016533914"><ele>695.0</ele><time>2026-03-24T14:31:51Z</time></trkpt><trkpt lat="30.188524806414907" lon="-5.742554503685524"><ele>695.0</ele><time>2026-03-24T14:31:52Z</time></trkpt><trkpt lat="30.18856492847307" lon="-5.7427473412193235"><ele>695.0</ele><time>2026-03-24T14:31:53Z</time></trkpt><trkpt lat="30.188603881332295" lon="-5.7429486486995875"><ele>694.6666666666666</ele><time>2026-03-24T14:31:54Z</time></trkpt><trkpt lat="30.188646249914825" lon="-5.743147322495284"><ele>694.3333333333334</ele><time>2026-03-24T14:31:55Z</time></trkpt><trkpt lat="30.188686804453784" lon="-5.743341486560871"><ele>694.0</ele><time>2026-03-24T14:31:56Z</time></trkpt><trkpt lat="30.188723348085873" lon="-5.743536750412161"><ele>694.0</ele><time>2026-03-24T14:31:57Z</time></trkpt><trkpt lat="30.18875952994877" lon="-5.743731464454826"><ele>694.0</ele><time>2026-03-24T14:31:58Z</time></trkpt><trkpt lat="30.188792561706606" lon="-5.743930047427166"><ele>694.0</ele><time>2026-03-24T14:31:59Z</time></trkpt><trkpt lat="30.188821960173815" lon="-5.744126444714413"><ele>694.0</ele><time>2026-03-24T14:32:00Z</time></trkpt><trkpt lat="30.188849519596364" lon="-5.744319345293845"><ele>694.0</ele><time>2026-03-24T14:32:01Z</time></trkpt><trkpt lat="30.188883699117874" lon="-5.744506214850163"><ele>694.0</ele><time>2026-03-24T14:32:02Z</time></trkpt><trkpt lat="30.1889177858191" lon="-5.7446936542615195"><ele>693.6666666666667</ele><time>2026-03-24T14:32:03Z</time></trkpt><trkpt lat="30.188942298037453" lon="-5.744888557261777"><ele>693.3333333333334</ele><time>2026-03-24T14:32:04Z</time></trkpt><trkpt lat="30.188963680357134" lon="-5.745082224328029"><ele>693.0</ele><time>2026-03-24T14:32:05Z</time></trkpt><trkpt lat="30.188990368701806" lon="-5.745281308744462"><ele>693.6666666666666</ele><time>2026-03-24T14:32:06Z</time></trkpt><trkpt lat="30.18902115999616" lon="-5.745497934198185"><ele>694.3333333333333</ele><time>2026-03-24T14:32:07Z</time></trkpt><trkpt lat="30.189052080012424" lon="-5.7457267309203885"><ele>695.0</ele><time>2026-03-24T14:32:08Z</time></trkpt><trkpt lat="30.189085494223473" lon="-5.7459778972391105"><ele>695.3333333333333</ele><time>2026-03-24T14:32:09Z</time></trkpt><trkpt lat="30.189117737110266" lon="-5.746222070850851"><ele>695.6666666666666</ele><time>2026-03-24T14:32:10Z</time></trkpt><trkpt lat="30.18914805438776" lon="-5.7464520555326475"><ele>696.0</ele><time>2026-03-24T14:32:11Z</time></trkpt><trkpt lat="30.189175010488526" lon="-5.746656172697004"><ele>696.0</ele><time>2026-03-24T14:32:12Z</time></trkpt><trkpt lat="30.189203559254572" lon="-5.746852929124035"><ele>696.0</ele><time>2026-03-24T14:32:13Z</time></trkpt><trkpt lat="30.189227845148682" lon="-5.7470358408298505"><ele>696.0</ele><time>2026-03-24T14:32:14Z</time></trkpt><trkpt lat="30.189252480812446" lon="-5.747221593592427"><ele>695.3333333333334</ele><time>2026-03-24T14:32:15Z</time></trkpt><trkpt lat="30.189276392851916" lon="-5.747416895712025"><ele>694.6666666666667</ele><time>2026-03-24T14:32:16Z</time></trkpt><trkpt lat="30.189303991531457" lon="-5.747618020593483"><ele>694.0</ele><time>2026-03-24T14:32:17Z</time></trkpt><trkpt lat="30.189335426876795" lon="-5.747829802249061"><ele>694.0</ele><time>2026-03-24T14:32:18Z</time></trkpt><trkpt lat="30.189367523537705" lon="-5.748049063711679"><ele>694.0</ele><time>2026-03-24T14:32:19.001Z</time></trkpt><trkpt lat="30.189390299602174" lon="-5.7482654095620545"><ele>694.0</ele><time>2026-03-24T14:32:20.001Z</time></trkpt><trkpt lat="30.18939635754828" lon="-5.748487225976992"><ele>694.6666666666667</ele><time>2026-03-24T14:32:21.001Z</time></trkpt><trkpt lat="30.189395951892543" lon="-5.748716848718807"><ele>695.3333333333334</ele><time>2026-03-24T14:32:22.001Z</time></trkpt><trkpt lat="30.189402603783638" lon="-5.748966634515949"><ele>696.0</ele><time>2026-03-24T14:32:23.001Z</time></trkpt><trkpt lat="30.189430651391564" lon="-5.7492254702573184"><ele>696.5</ele><time>2026-03-24T14:32:24.001Z</time></trkpt><trkpt lat="30.189452152811022" lon="-5.749487557399534"><ele>697.0</ele><time>2026-03-24T14:32:25.001Z</time></trkpt><trkpt lat="30.189464053074346" lon="-5.749748677350556"><ele>697.0</ele><time>2026-03-24T14:32:26.001Z</time></trkpt><trkpt lat="30.189467667995626" lon="-5.7500096011348125"><ele>697.0</ele><time>2026-03-24T14:32:27.001Z</time></trkpt><trkpt lat="30.18946899258353" lon="-5.750254117564996"><ele>697.0</ele><time>2026-03-24T14:32:28.001Z</time></trkpt><trkpt lat="30.189479532801684" lon="-5.7504718248170805"><ele>697.0</ele><time>2026-03-24T14:32:29.001Z</time></trkpt><trkpt lat="30.189487204812036" lon="-5.750667272684645"><ele>697.0</ele><time>2026-03-24T14:32:30.001Z</time></trkpt><trkpt lat="30.189500370176866" lon="-5.750840076375116"><ele>697.0</ele><time>2026-03-24T14:32:31.001Z</time></trkpt><trkpt lat="30.189518971013275" lon="-5.751008650018505"><ele>697.0</ele><time>2026-03-24T14:32:32.001Z</time></trkpt><trkpt lat="30.189550783431653" lon="-5.751178024473923"><ele>697.0</ele><time>2026-03-24T14:32:33.001Z</time></trkpt><trkpt lat="30.189582286846505" lon="-5.751350003833415"><ele>697.0</ele><time>2026-03-24T14:32:34.001Z</time></trkpt><trkpt lat="30.189613775212553" lon="-5.751518516072416"><ele>697.0</ele><time>2026-03-24T14:32:35.001Z</time></trkpt><trkpt lat="30.189643647873748" lon="-5.751686559720758"><ele>697.0</ele><time>2026-03-24T14:32:36.001Z</time></trkpt><trkpt lat="30.18967275289276" lon="-5.751871592515632"><ele>697.0</ele><time>2026-03-24T14:32:37.001Z</time></trkpt><trkpt lat="30.189699129762744" lon="-5.75205006842001"><ele>697.0</ele><time>2026-03-24T14:32:38.001Z</time></trkpt><trkpt lat="30.18971254783789" lon="-5.752229106502159"><ele>697.0</ele><time>2026-03-24T14:32:39.001Z</time></trkpt><trkpt lat="30.189715279013946" lon="-5.75241724511907"><ele>697.0</ele><time>2026-03-24T14:32:40.001Z</time></trkpt><trkpt lat="30.189713872727186" lon="-5.752609296412759"><ele>697.0</ele><time>2026-03-24T14:32:41.001Z</time></trkpt><trkpt lat="30.18971245470443" lon="-5.752798813926715"><ele>697.0</ele><time>2026-03-24T14:32:42.001Z</time></trkpt><trkpt lat="30.189715546091815" lon="-5.7529833891255935"><ele>697.0</ele><time>2026-03-24T14:32:43.001Z</time></trkpt><trkpt lat="30.18971517606473" lon="-5.753158426992287"><ele>697.0</ele><time>2026-03-24T14:32:44.001Z</time></trkpt><trkpt lat="30.189711178957293" lon="-5.753325985274968"><ele>697.0</ele><time>2026-03-24T14:32:45.001Z</time></trkpt><trkpt lat="30.18970121384855" lon="-5.753492061941285"><ele>697.0</ele><time>2026-03-24T14:32:46.001Z</time></trkpt><trkpt lat="30.189688107946104" lon="-5.7536636259778975"><ele>697.0</ele><time>2026-03-24T14:32:47.001Z</time></trkpt><trkpt lat="30.1896759657205" lon="-5.753829210934615"><ele>697.0</ele><time>2026-03-24T14:32:48.001Z</time></trkpt><trkpt lat="30.189672248989353" lon="-5.7539927677048945"><ele>697.0</ele><time>2026-03-24T14:32:49.001Z</time></trkpt><trkpt lat="30.18968317776966" lon="-5.754155686101109"><ele>697.0</ele><time>2026-03-24T14:32:50.001Z</time></trkpt><trkpt lat="30.189699163329667" lon="-5.754318233146301"><ele>697.0</ele><time>2026-03-24T14:32:51.001Z</time></trkpt><trkpt lat="30.18971554975526" lon="-5.754485690617696"><ele>696.5</ele><time>2026-03-24T14:32:52.001Z</time></trkpt><trkpt lat="30.189732410427595" lon="-5.754637145606362"><ele>696.0</ele><time>2026-03-24T14:32:53.001Z</time></trkpt><trkpt lat="30.189752265460662" lon="-5.754817611067422"><ele>695.5</ele><time>2026-03-24T14:32:54.001Z</time></trkpt><trkpt lat="30.18978545009991" lon="-5.754995542653925"><ele>695.0</ele><time>2026-03-24T14:32:55.001Z</time></trkpt><trkpt lat="30.18983366341711" lon="-5.755166439576734"><ele>695.0</ele><time>2026-03-24T14:32:56.001Z</time></trkpt><trkpt lat="30.189881647152053" lon="-5.755346166732513"><ele>695.0</ele><time>2026-03-24T14:32:57.001Z</time></trkpt><trkpt lat="30.18993154604692" lon="-5.755522139883825"><ele>695.0</ele><time>2026-03-24T14:32:58.001Z</time></trkpt><trkpt lat="30.189982429446825" lon="-5.755696368050662"><ele>695.0</ele><time>2026-03-24T14:32:59.001Z</time></trkpt><trkpt lat="30.190035924974406" lon="-5.755866573721232"><ele>695.0</ele><time>2026-03-24T14:33:00.001Z</time></trkpt><trkpt lat="30.190087844210037" lon="-5.75604654490926"><ele>695.0</ele><time>2026-03-24T14:33:01.001Z</time></trkpt><trkpt lat="30.190127031894434" lon="-5.756229892858838"><ele>695.0</ele><time>2026-03-24T14:33:02.001Z</time></trkpt><trkpt lat="30.190156284056254" lon="-5.756414025798889"><ele>695.0</ele><time>2026-03-24T14:33:03.001Z</time></trkpt><trkpt lat="30.19018736641306" lon="-5.756595499233735"><ele>695.0</ele><time>2026-03-24T14:33:04.001Z</time></trkpt><trkpt lat="30.19022723290356" lon="-5.756766897975402"><ele>695.3333333333333</ele><time>2026-03-24T14:33:05.001Z</time></trkpt><trkpt lat="30.190271695751477" lon="-5.756939555447202"><ele>695.6666666666666</ele><time>2026-03-24T14:33:06.001Z</time></trkpt><trkpt lat="30.190315464611736" lon="-5.7571160839772615"><ele>696.0</ele><time>2026-03-24T14:33:07.001Z</time></trkpt><trkpt lat="30.190359150721882" lon="-5.7572966721485885"><ele>696.0</ele><time>2026-03-24T14:33:08.001Z</time></trkpt><trkpt lat="30.190393122146272" lon="-5.757482773948087"><ele>696.0</ele><time>2026-03-24T14:33:09.001Z</time></trkpt><trkpt lat="30.190418579425337" lon="-5.757655674195051"><ele>696.0</ele><time>2026-03-24T14:33:10.001Z</time></trkpt><trkpt lat="30.190443815896096" lon="-5.757804586420586"><ele>696.0</ele><time>2026-03-24T14:33:11.001Z</time></trkpt><trkpt lat="30.190472334301894" lon="-5.7579033799144845"><ele>696.0</ele><time>2026-03-24T14:33:12Z</time></trkpt><trkpt lat="30.190512006388825" lon="-5.757996285896855"><ele>696.0</ele><time>2026-03-24T14:33:13Z</time></trkpt><trkpt lat="30.190553977816613" lon="-5.758072214775398"><ele>696.0</ele><time>2026-03-24T14:33:13.999Z</time></trkpt><trkpt lat="30.190597040663892" lon="-5.758140533402842"><ele>696.0</ele><time>2026-03-24T14:33:14.999Z</time></trkpt><trkpt lat="30.19063814238799" lon="-5.75819888134084"><ele>696.0</ele><time>2026-03-24T14:33:15.999Z</time></trkpt><trkpt lat="30.19069449906605" lon="-5.758291425818508"><ele>696.0</ele><time>2026-03-24T14:33:17.998Z</time></trkpt><trkpt lat="30.190710939084106" lon="-5.758367045908647"><ele>696.0</ele><time>2026-03-24T14:33:19.998Z</time></trkpt><trkpt lat="30.190693822898517" lon="-5.758437515032006"><ele>696.0</ele><time>2026-03-24T14:33:22.997Z</time></trkpt><trkpt lat="30.190622555044204" lon="-5.758444500996717"><ele>696.0</ele><time>2026-03-24T14:33:26.996Z</time></trkpt><trkpt lat="30.19061761642887" lon="-5.758368165653283"><ele>696.0</ele><time>2026-03-24T14:33:29.996Z</time></trkpt><trkpt lat="30.190671096825923" lon="-5.758314422953801"><ele>696.0</ele><time>2026-03-24T14:33:33.995Z</time></trkpt><trkpt lat="30.19075407283928" lon="-5.7583258939879185"><ele>696.0</ele><time>2026-03-24T14:34:31.993Z</time></trkpt><trkpt lat="30.190859906951108" lon="-5.758399282761835"><ele>696.25</ele><time>2026-03-24T14:34:33.993Z</time></trkpt><trkpt lat="30.190925360193518" lon="-5.758473404798098"><ele>696.5</ele><time>2026-03-24T14:34:34.993Z</time></trkpt><trkpt lat="30.190999122644794" lon="-5.758593000881621"><ele>696.75</ele><time>2026-03-24T14:34:35.993Z</time></trkpt><trkpt lat="30.191079059589324" lon="-5.758737268445399"><ele>697.0</ele><time>2026-03-24T14:34:36.993Z</time></trkpt><trkpt lat="30.19117977152873" lon="-5.758908428582675"><ele>697.0</ele><time>2026-03-24T14:34:37.993Z</time></trkpt><trkpt lat="30.191286439303997" lon="-5.759068654172598"><ele>697.0</ele><time>2026-03-24T14:34:38.993Z</time></trkpt><trkpt lat="30.191390375952732" lon="-5.759188231317417"><ele>697.0</ele><time>2026-03-24T14:34:39.993Z</time></trkpt><trkpt lat="30.1914949945561" lon="-5.759286464273596"><ele>697.0</ele><time>2026-03-24T14:34:40.993Z</time></trkpt><trkpt lat="30.191592681310055" lon="-5.759392033816976"><ele>697.0</ele><time>2026-03-24T14:34:41.993Z</time></trkpt><trkpt lat="30.191681253071156" lon="-5.759506049823122"><ele>697.0</ele><time>2026-03-24T14:34:42.993Z</time></trkpt><trkpt lat="30.19176891371134" lon="-5.7596087036530745"><ele>697.0</ele><time>2026-03-24T14:34:43.993Z</time></trkpt><trkpt lat="30.191872195926795" lon="-5.759705682279606"><ele>697.0</ele><time>2026-03-24T14:34:44.993Z</time></trkpt><trkpt lat="30.19197551769499" lon="-5.759803986040117"><ele>697.0</ele><time>2026-03-24T14:34:45.993Z</time></trkpt><trkpt lat="30.192068848317362" lon="-5.759901519708652"><ele>697.0</ele><time>2026-03-24T14:34:46.993Z</time></trkpt><trkpt lat="30.192153365919342" lon="-5.75999737336205"><ele>697.0</ele><time>2026-03-24T14:34:47.993Z</time></trkpt><trkpt lat="30.192233684303076" lon="-5.760087120743576"><ele>697.0</ele><time>2026-03-24T14:34:48.993Z</time></trkpt><trkpt lat="30.192311402047565" lon="-5.760172229051951"><ele>697.0</ele><time>2026-03-24T14:34:49.993Z</time></trkpt><trkpt lat="30.192394155957825" lon="-5.760244095439069"><ele>697.0</ele><time>2026-03-24T14:34:50.993Z</time></trkpt><trkpt lat="30.192496774988502" lon="-5.760316044024047"><ele>697.0</ele><time>2026-03-24T14:34:51.993Z</time></trkpt><trkpt lat="30.19261411621145" lon="-5.760377870284791"><ele>697.25</ele><time>2026-03-24T14:34:52.993Z</time></trkpt><trkpt lat="30.192742782132715" lon="-5.7604466129744125"><ele>697.5</ele><time>2026-03-24T14:34:53.993Z</time></trkpt><trkpt lat="30.19287516038681" lon="-5.760510253330083"><ele>697.75</ele><time>2026-03-24T14:34:54.993Z</time></trkpt><trkpt lat="30.193014353559576" lon="-5.76056158928293"><ele>698.0</ele><time>2026-03-24T14:34:55.993Z</time></trkpt><trkpt lat="30.193158299667974" lon="-5.760605285869811"><ele>698.3333333333333</ele><time>2026-03-24T14:34:56.993Z</time></trkpt><trkpt lat="30.19330001583913" lon="-5.760654008026451"><ele>698.6666666666666</ele><time>2026-03-24T14:34:57.993Z</time></trkpt><trkpt lat="30.193449231707014" lon="-5.760703299792568"><ele>699.0</ele><time>2026-03-24T14:34:58.993Z</time></trkpt><trkpt lat="30.193602816139503" lon="-5.760753226371333"><ele>699.0</ele><time>2026-03-24T14:34:59.993Z</time></trkpt><trkpt lat="30.19376026373449" lon="-5.760807138803397"><ele>699.0</ele><time>2026-03-24T14:35:00.993Z</time></trkpt><trkpt lat="30.193917949136075" lon="-5.760860458208244"><ele>699.0</ele><time>2026-03-24T14:35:01.993Z</time></trkpt><trkpt lat="30.194077902523357" lon="-5.760919538174422"><ele>699.0</ele><time>2026-03-24T14:35:02.993Z</time></trkpt><trkpt lat="30.19423868775185" lon="-5.760984158369743"><ele>699.0</ele><time>2026-03-24T14:35:03.993Z</time></trkpt><trkpt lat="30.194398448312747" lon="-5.761050366368766"><ele>699.0</ele><time>2026-03-24T14:35:04.993Z</time></trkpt><trkpt lat="30.19456183000627" lon="-5.761120060079274"><ele>699.0</ele><time>2026-03-24T14:35:05.993Z</time></trkpt><trkpt lat="30.194724016621496" lon="-5.761193465147022"><ele>699.0</ele><time>2026-03-24T14:35:06.993Z</time></trkpt><trkpt lat="30.19487969541236" lon="-5.761265305341128"><ele>699.0</ele><time>2026-03-24T14:35:07.993Z</time></trkpt><trkpt lat="30.195042333507327" lon="-5.761348601535301"><ele>699.0</ele><time>2026-03-24T14:35:08.993Z</time></trkpt><trkpt lat="30.195202934796626" lon="-5.761427728989291"><ele>699.0</ele><time>2026-03-24T14:35:09.993Z</time></trkpt><trkpt lat="30.195362267905423" lon="-5.761506209944634"><ele>699.0</ele><time>2026-03-24T14:35:10.993Z</time></trkpt><trkpt lat="30.195518235280367" lon="-5.76158109972462"><ele>699.0</ele><time>2026-03-24T14:35:11.993Z</time></trkpt><trkpt lat="30.195668891690662" lon="-5.7616448468024934"><ele>699.0</ele><time>2026-03-24T14:35:12.993Z</time></trkpt><trkpt lat="30.195820114662776" lon="-5.761699063487389"><ele>699.0</ele><time>2026-03-24T14:35:13.993Z</time></trkpt><trkpt lat="30.195965701559974" lon="-5.761748309888782"><ele>699.0</ele><time>2026-03-24T14:35:14.993Z</time></trkpt><trkpt lat="30.196106352700202" lon="-5.7617798463321455"><ele>699.0</ele><time>2026-03-24T14:35:15.993Z</time></trkpt><trkpt lat="30.19624138367388" lon="-5.7618002423843295"><ele>699.0</ele><time>2026-03-24T14:35:16.993Z</time></trkpt><trkpt lat="30.19637335596268" lon="-5.761811925199517"><ele>699.0</ele><time>2026-03-24T14:35:17.993Z</time></trkpt><trkpt lat="30.19649066513713" lon="-5.761830801878694"><ele>699.0</ele><time>2026-03-24T14:35:18.993Z</time></trkpt><trkpt lat="30.196600643537458" lon="-5.761873716846494"><ele>699.0</ele><time>2026-03-24T14:35:19.993Z</time></trkpt><trkpt lat="30.19670151733477" lon="-5.761939302461695"><ele>699.0</ele><time>2026-03-24T14:35:20.993Z</time></trkpt><trkpt lat="30.19680674623795" lon="-5.762034556311766"><ele>699.0</ele><time>2026-03-24T14:35:21.993Z</time></trkpt><trkpt lat="30.1969125772144" lon="-5.7621480885265814"><ele>699.0</ele><time>2026-03-24T14:35:22.993Z</time></trkpt><trkpt lat="30.197007057441418" lon="-5.762284282873551"><ele>699.0</ele><time>2026-03-24T14:35:23.993Z</time></trkpt><trkpt lat="30.197100659520537" lon="-5.7624258668326505"><ele>699.0</ele><time>2026-03-24T14:35:24.993Z</time></trkpt><trkpt lat="30.197195673217056" lon="-5.76257267970274"><ele>699.0</ele><time>2026-03-24T14:35:25.993Z</time></trkpt><trkpt lat="30.197289130734966" lon="-5.7627291781489145"><ele>699.0</ele><time>2026-03-24T14:35:26.993Z</time></trkpt><trkpt lat="30.197387067727835" lon="-5.7629035926364125"><ele>699.0</ele><time>2026-03-24T14:35:27.993Z</time></trkpt><trkpt lat="30.19748775513818" lon="-5.763064833319176"><ele>699.0</ele><time>2026-03-24T14:35:28.993Z</time></trkpt><trkpt lat="30.19759183691648" lon="-5.7632168754457105"><ele>699.0</ele><time>2026-03-24T14:35:29.993Z</time></trkpt><trkpt lat="30.197685241318453" lon="-5.763377456387721"><ele>699.0</ele><time>2026-03-24T14:35:30.993Z</time></trkpt><trkpt lat="30.19776690834799" lon="-5.763530401051383"><ele>699.0</ele><time>2026-03-24T14:35:31.993Z</time></trkpt><trkpt lat="30.19785564776351" lon="-5.763684201385358"><ele>699.0</ele><time>2026-03-24T14:35:32.993Z</time></trkpt><trkpt lat="30.19795406557182" lon="-5.763837361729183"><ele>699.0</ele><time>2026-03-24T14:35:33.993Z</time></trkpt><trkpt lat="30.19805359277478" lon="-5.763994393005185"><ele>699.0</ele><time>2026-03-24T14:35:34.993Z</time></trkpt><trkpt lat="30.19815424225591" lon="-5.764151285082613"><ele>699.0</ele><time>2026-03-24T14:35:35.993Z</time></trkpt><trkpt lat="30.198254259591597" lon="-5.764302068512902"><ele>699.0</ele><time>2026-03-24T14:35:36.993Z</time></trkpt><trkpt lat="30.19834457995646" lon="-5.764445047008567"><ele>699.0</ele><time>2026-03-24T14:35:37.993Z</time></trkpt><trkpt lat="30.198414388991555" lon="-5.764583767205819"><ele>699.0</ele><time>2026-03-24T14:35:38.993Z</time></trkpt><trkpt lat="30.198457734802584" lon="-5.764732746553213"><ele>699.0</ele><time>2026-03-24T14:35:39.993Z</time></trkpt><trkpt lat="30.198489726858615" lon="-5.764879757254233"><ele>699.0</ele><time>2026-03-24T14:35:40.994Z</time></trkpt><trkpt lat="30.198533394337698" lon="-5.765024061092948"><ele>699.0</ele><time>2026-03-24T14:35:41.993Z</time></trkpt><trkpt lat="30.198586956559236" lon="-5.765165113989319"><ele>699.0</ele><time>2026-03-24T14:35:42.993Z</time></trkpt><trkpt lat="30.198624410067275" lon="-5.765297112564904"><ele>699.0</ele><time>2026-03-24T14:35:43.993Z</time></trkpt><trkpt lat="30.198637679623936" lon="-5.765434489495127"><ele>699.0</ele><time>2026-03-24T14:35:44.993Z</time></trkpt><trkpt lat="30.198642057153084" lon="-5.765582621140651"><ele>699.0</ele><time>2026-03-24T14:35:45.993Z</time></trkpt><trkpt lat="30.19864450564165" lon="-5.765698384566611"><ele>699.0</ele><time>2026-03-24T14:35:46.993Z</time></trkpt><trkpt lat="30.19865434443971" lon="-5.765785926930637"><ele>699.0</ele><time>2026-03-24T14:35:47.993Z</time></trkpt><trkpt lat="30.198671157360547" lon="-5.7658590752434575"><ele>699.0</ele><time>2026-03-24T14:35:48.993Z</time></trkpt><trkpt lat="30.19874166712786" lon="-5.765919085435821"><ele>699.0</ele><time>2026-03-24T14:35:50.993Z</time></trkpt><trkpt lat="30.19885491372629" lon="-5.765846225151662"><ele>699.0</ele><time>2026-03-24T14:35:52.993Z</time></trkpt><trkpt lat="30.19894205350034" lon="-5.765814889692098"><ele>699.0</ele><time>2026-03-24T14:35:53.993Z</time></trkpt><trkpt lat="30.199041603009398" lon="-5.76577707841022"><ele>699.0</ele><time>2026-03-24T14:35:54.993Z</time></trkpt><trkpt lat="30.199145752252676" lon="-5.765743258129716"><ele>699.0</ele><time>2026-03-24T14:35:55.993Z</time></trkpt><trkpt lat="30.199254453155774" lon="-5.765695158417888"><ele>699.0</ele><time>2026-03-24T14:35:56.993Z</time></trkpt><trkpt lat="30.19935161574558" lon="-5.765659278344675"><ele>698.6</ele><time>2026-03-24T14:35:57.993Z</time></trkpt><trkpt lat="30.19945736901746" lon="-5.765637219046965"><ele>698.2</ele><time>2026-03-24T14:35:58.993Z</time></trkpt><trkpt lat="30.199555024222388" lon="-5.765627217196584"><ele>697.8000000000001</ele><time>2026-03-24T14:35:59.993Z</time></trkpt><trkpt lat="30.199619887510305" lon="-5.765627820959303"><ele>697.4000000000001</ele><time>2026-03-24T14:36:00.993Z</time></trkpt><trkpt lat="30.199725148452007" lon="-5.765643839524693"><ele>697.0</ele><time>2026-03-24T14:36:02.993Z</time></trkpt><trkpt lat="30.199815583355175" lon="-5.765695353018308"><ele>697.2</ele><time>2026-03-24T14:36:04.993Z</time></trkpt><trkpt lat="30.199914713562077" lon="-5.765752538800658"><ele>697.4000000000001</ele><time>2026-03-24T14:36:06.993Z</time></trkpt><trkpt lat="30.19998043587871" lon="-5.7657869044618675"><ele>697.5999999999999</ele><time>2026-03-24T14:36:07.993Z</time></trkpt><trkpt lat="30.200058647566365" lon="-5.765822769031311"><ele>697.8</ele><time>2026-03-24T14:36:08.993Z</time></trkpt><trkpt lat="30.200157774821054" lon="-5.765870625047029"><ele>698.0</ele><time>2026-03-24T14:36:09.993Z</time></trkpt><trkpt lat="30.20025216497414" lon="-5.765904997618278"><ele>698.0</ele><time>2026-03-24T14:36:10.993Z</time></trkpt><trkpt lat="30.200352481117033" lon="-5.765922482507565"><ele>698.0</ele><time>2026-03-24T14:36:11.993Z</time></trkpt><trkpt lat="30.200455999504275" lon="-5.765926845960954"><ele>698.0</ele><time>2026-03-24T14:36:12.993Z</time></trkpt><trkpt lat="30.200552341964592" lon="-5.765932547349008"><ele>698.0</ele><time>2026-03-24T14:36:13.993Z</time></trkpt><trkpt lat="30.20064659973206" lon="-5.7659530111790955"><ele>698.0</ele><time>2026-03-24T14:36:14.993Z</time></trkpt><trkpt lat="30.20073102036777" lon="-5.765974188233283"><ele>698.2</ele><time>2026-03-24T14:36:15.993Z</time></trkpt><trkpt lat="30.200807723991502" lon="-5.766006514974375"><ele>698.4</ele><time>2026-03-24T14:36:16.993Z</time></trkpt><trkpt lat="30.20089500749198" lon="-5.766052149584582"><ele>698.6</ele><time>2026-03-24T14:36:17.993Z</time></trkpt><trkpt lat="30.20099172945012" lon="-5.766097190429867"><ele>698.8000000000001</ele><time>2026-03-24T14:36:18.993Z</time></trkpt><trkpt lat="30.201077574769613" lon="-5.766137775696651"><ele>699.0</ele><time>2026-03-24T14:36:19.993Z</time></trkpt><trkpt lat="30.20114898808227" lon="-5.7661783658017915"><ele>699.0</ele><time>2026-03-24T14:36:20.993Z</time></trkpt><trkpt lat="30.20121192504395" lon="-5.766220802145756"><ele>699.0</ele><time>2026-03-24T14:36:21.993Z</time></trkpt><trkpt lat="30.201267233980612" lon="-5.766275219470079"><ele>699.0</ele><time>2026-03-24T14:36:22.993Z</time></trkpt><trkpt lat="30.20131185239118" lon="-5.766356121492209"><ele>699.0</ele><time>2026-03-24T14:36:23.993Z</time></trkpt><trkpt lat="30.201344499246435" lon="-5.766448731437127"><ele>699.0</ele><time>2026-03-24T14:36:24.993Z</time></trkpt><trkpt lat="30.201366121920614" lon="-5.76655902877466"><ele>699.0</ele><time>2026-03-24T14:36:25.993Z</time></trkpt><trkpt lat="30.201385208742447" lon="-5.766667507477193"><ele>699.0</ele><time>2026-03-24T14:36:26.993Z</time></trkpt><trkpt lat="30.201414708325313" lon="-5.76678367491984"><ele>699.0</ele><time>2026-03-24T14:36:27.993Z</time></trkpt><trkpt lat="30.201447139277775" lon="-5.766925862789958"><ele>699.0</ele><time>2026-03-24T14:36:28.993Z</time></trkpt><trkpt lat="30.201476491432764" lon="-5.767074135141938"><ele>699.0</ele><time>2026-03-24T14:36:29.993Z</time></trkpt><trkpt lat="30.20150152888761" lon="-5.7672355203937755"><ele>699.25</ele><time>2026-03-24T14:36:30.993Z</time></trkpt><trkpt lat="30.201531207022835" lon="-5.767401250352555"><ele>699.5</ele><time>2026-03-24T14:36:31.993Z</time></trkpt><trkpt lat="30.20156279231129" lon="-5.767556507410113"><ele>699.75</ele><time>2026-03-24T14:36:32.993Z</time></trkpt><trkpt lat="30.20159748174565" lon="-5.767712707954436"><ele>700.0</ele><time>2026-03-24T14:36:33.993Z</time></trkpt><trkpt lat="30.201626336080984" lon="-5.767848142664016"><ele>700.0</ele><time>2026-03-24T14:36:34.993Z</time></trkpt><trkpt lat="30.20164556119021" lon="-5.767943136944821"><ele>700.0</ele><time>2026-03-24T14:36:35.993Z</time></trkpt><trkpt lat="30.201656670182935" lon="-5.768022123559794"><ele>700.0</ele><time>2026-03-24T14:36:36.993Z</time></trkpt><trkpt lat="30.20168248330863" lon="-5.768149106000725"><ele>700.0</ele><time>2026-03-24T14:36:38.993Z</time></trkpt><trkpt lat="30.20177024900389" lon="-5.768232997523103"><ele>700.0</ele><time>2026-03-24T14:36:40.993Z</time></trkpt><trkpt lat="30.20184368415026" lon="-5.768277059247605"><ele>700.0</ele><time>2026-03-24T14:36:41.993Z</time></trkpt><trkpt lat="30.20194131437002" lon="-5.768302430378808"><ele>700.0</ele><time>2026-03-24T14:36:42.993Z</time></trkpt><trkpt lat="30.202038195675684" lon="-5.768303738920013"><ele>700.0</ele><time>2026-03-24T14:36:43.993Z</time></trkpt><trkpt lat="30.2021357218275" lon="-5.768282319404709"><ele>700.0</ele><time>2026-03-24T14:36:44.993Z</time></trkpt><trkpt lat="30.20222454180116" lon="-5.768248142474904"><ele>700.0</ele><time>2026-03-24T14:36:45.993Z</time></trkpt><trkpt lat="30.202315977926336" lon="-5.768216250984078"><ele>700.2</ele><time>2026-03-24T14:36:46.993Z</time></trkpt><trkpt lat="30.20242216546694" lon="-5.768194486268638"><ele>700.4</ele><time>2026-03-24T14:36:47.993Z</time></trkpt><trkpt lat="30.2025346833428" lon="-5.768178933840034"><ele>700.5999999999999</ele><time>2026-03-24T14:36:48.993Z</time></trkpt><trkpt lat="30.202642375200398" lon="-5.768175042466324"><ele>700.8</ele><time>2026-03-24T14:36:49.993Z</time></trkpt><trkpt lat="30.20275321629553" lon="-5.768166188386279"><ele>701.0</ele><time>2026-03-24T14:36:50.993Z</time></trkpt><trkpt lat="30.202869862208356" lon="-5.768147932800018"><ele>701.0</ele><time>2026-03-24T14:36:51.993Z</time></trkpt><trkpt lat="30.2030023761338" lon="-5.76813600610722"><ele>701.0</ele><time>2026-03-24T14:36:52.993Z</time></trkpt><trkpt lat="30.203136381734307" lon="-5.768138454493456"><ele>701.0</ele><time>2026-03-24T14:36:53.993Z</time></trkpt><trkpt lat="30.20327279583493" lon="-5.768146108520423"><ele>701.0</ele><time>2026-03-24T14:36:54.993Z</time></trkpt><trkpt lat="30.203394892178654" lon="-5.768149138007724"><ele>700.8</ele><time>2026-03-24T14:36:55.993Z</time></trkpt><trkpt lat="30.203503260651864" lon="-5.76813183973573"><ele>700.5999999999999</ele><time>2026-03-24T14:36:56.993Z</time></trkpt><trkpt lat="30.203600675935757" lon="-5.768099578852424"><ele>700.4</ele><time>2026-03-24T14:36:57.993Z</time></trkpt><trkpt lat="30.203700506927806" lon="-5.768054230262906"><ele>700.2</ele><time>2026-03-24T14:36:58.993Z</time></trkpt><trkpt lat="30.203777907575365" lon="-5.767971860442088"><ele>700.0</ele><time>2026-03-24T14:36:59.993Z</time></trkpt><trkpt lat="30.203884395144314" lon="-5.767907409670002"><ele>700.25</ele><time>2026-03-24T14:37:00.993Z</time></trkpt><trkpt lat="30.204009811287897" lon="-5.76785963226917"><ele>700.5</ele><time>2026-03-24T14:37:01.993Z</time></trkpt><trkpt lat="30.20414540019536" lon="-5.767828507562517"><ele>700.75</ele><time>2026-03-24T14:37:02.993Z</time></trkpt><trkpt lat="30.20428268029218" lon="-5.767801476193834"><ele>701.0</ele><time>2026-03-24T14:37:03.993Z</time></trkpt><trkpt lat="30.20441769146367" lon="-5.767778336006577"><ele>701.0</ele><time>2026-03-24T14:37:04.993Z</time></trkpt><trkpt lat="30.204555274111915" lon="-5.7677451582735415"><ele>701.0</ele><time>2026-03-24T14:37:05.993Z</time></trkpt><trkpt lat="30.204686506375154" lon="-5.76770702417333"><ele>701.0</ele><time>2026-03-24T14:37:06.993Z</time></trkpt><trkpt lat="30.20481092029786" lon="-5.767670429733548"><ele>701.0</ele><time>2026-03-24T14:37:07.993Z</time></trkpt><trkpt lat="30.20493183498491" lon="-5.767642959123671"><ele>701.25</ele><time>2026-03-24T14:37:08.993Z</time></trkpt><trkpt lat="30.2050554671169" lon="-5.767629504494465"><ele>701.5</ele><time>2026-03-24T14:37:09.993Z</time></trkpt><trkpt lat="30.20518500434997" lon="-5.76762689873187"><ele>701.75</ele><time>2026-03-24T14:37:10.993Z</time></trkpt><trkpt lat="30.20532396789155" lon="-5.7676446364393374"><ele>702.0</ele><time>2026-03-24T14:37:11.993Z</time></trkpt><trkpt lat="30.205482442648574" lon="-5.767676467865304"><ele>702.0</ele><time>2026-03-24T14:37:12.993Z</time></trkpt><trkpt lat="30.205638148862676" lon="-5.767690429734769"><ele>702.0</ele><time>2026-03-24T14:37:13.993Z</time></trkpt><trkpt lat="30.20577265237126" lon="-5.767668462696228"><ele>702.0</ele><time>2026-03-24T14:37:14.993Z</time></trkpt><trkpt lat="30.205905163783072" lon="-5.767608453860971"><ele>702.0</ele><time>2026-03-24T14:37:15.993Z</time></trkpt><trkpt lat="30.206056146992044" lon="-5.767537135197647"><ele>701.5</ele><time>2026-03-24T14:37:16.993Z</time></trkpt><trkpt lat="30.20620236412661" lon="-5.767509713793884"><ele>701.0</ele><time>2026-03-24T14:37:17.993Z</time></trkpt><trkpt lat="30.206336104690497" lon="-5.767515114092006"><ele>700.5</ele><time>2026-03-24T14:37:18.993Z</time></trkpt><trkpt lat="30.206490278699416" lon="-5.767546650753745"><ele>700.0</ele><time>2026-03-24T14:37:19.993Z</time></trkpt><trkpt lat="30.206646424154826" lon="-5.767581709189546"><ele>699.75</ele><time>2026-03-24T14:37:20.993Z</time></trkpt><trkpt lat="30.206790632556082" lon="-5.767593664626234"><ele>699.5</ele><time>2026-03-24T14:37:21.993Z</time></trkpt><trkpt lat="30.206933687013482" lon="-5.76760645231924"><ele>699.25</ele><time>2026-03-24T14:37:22.993Z</time></trkpt><trkpt lat="30.20707913875715" lon="-5.767647617585737"><ele>699.0</ele><time>2026-03-24T14:37:23.993Z</time></trkpt><trkpt lat="30.207218050113184" lon="-5.767709538456428"><ele>699.25</ele><time>2026-03-24T14:37:24.993Z</time></trkpt><trkpt lat="30.207340789610548" lon="-5.767794720739124"><ele>699.5</ele><time>2026-03-24T14:37:25.993Z</time></trkpt><trkpt lat="30.207448156861542" lon="-5.767894752363312"><ele>699.75</ele><time>2026-03-24T14:37:26.993Z</time></trkpt><trkpt lat="30.207566931138576" lon="-5.76798221336215"><ele>700.0</ele><time>2026-03-24T14:37:27.993Z</time></trkpt><trkpt lat="30.207676426568824" lon="-5.768062676737588"><ele>700.0</ele><time>2026-03-24T14:37:28.993Z</time></trkpt><trkpt lat="30.207782575282497" lon="-5.7681422813582826"><ele>700.0</ele><time>2026-03-24T14:37:29.993Z</time></trkpt><trkpt lat="30.207878376780698" lon="-5.76821068495527"><ele>700.0</ele><time>2026-03-24T14:37:30.993Z</time></trkpt><trkpt lat="30.20799330753651" lon="-5.768249097623304"><ele>700.0</ele><time>2026-03-24T14:37:31.993Z</time></trkpt><trkpt lat="30.208117495304727" lon="-5.768261280785784"><ele>700.0</ele><time>2026-03-24T14:37:32.993Z</time></trkpt><trkpt lat="30.208235487130725" lon="-5.76827523226613"><ele>700.0</ele><time>2026-03-24T14:37:33.993Z</time></trkpt><trkpt lat="30.20834001291515" lon="-5.76831017537584"><ele>700.0</ele><time>2026-03-24T14:37:34.993Z</time></trkpt><trkpt lat="30.208431054409253" lon="-5.768371279607801"><ele>700.0</ele><time>2026-03-24T14:37:35.993Z</time></trkpt><trkpt lat="30.20850533309004" lon="-5.768474357488252"><ele>700.0</ele><time>2026-03-24T14:37:36.993Z</time></trkpt><trkpt lat="30.20856530304723" lon="-5.768573066795904"><ele>700.5</ele><time>2026-03-24T14:37:37.993Z</time></trkpt><trkpt lat="30.2086334767299" lon="-5.768702848477839"><ele>701.0</ele><time>2026-03-24T14:37:38.993Z</time></trkpt><trkpt lat="30.20869898611546" lon="-5.76883507707353"><ele>701.5</ele><time>2026-03-24T14:37:39.993Z</time></trkpt><trkpt lat="30.208777821948058" lon="-5.768967977489205"><ele>702.0</ele><time>2026-03-24T14:37:40.993Z</time></trkpt><trkpt lat="30.208866695895153" lon="-5.7691027827645485"><ele>702.0</ele><time>2026-03-24T14:37:41.993Z</time></trkpt><trkpt lat="30.208959906532947" lon="-5.76924713554952"><ele>702.0</ele><time>2026-03-24T14:37:42.993Z</time></trkpt><trkpt lat="30.209055578302447" lon="-5.769388668234413"><ele>702.0</ele><time>2026-03-24T14:37:43.993Z</time></trkpt><trkpt lat="30.209149970493797" lon="-5.769523037084438"><ele>702.0</ele><time>2026-03-24T14:37:44.993Z</time></trkpt><trkpt lat="30.209242135873914" lon="-5.769657670061716"><ele>702.0</ele><time>2026-03-24T14:37:45.993Z</time></trkpt><trkpt lat="30.209332547601147" lon="-5.76979099181632"><ele>702.0</ele><time>2026-03-24T14:37:46.993Z</time></trkpt><trkpt lat="30.20941563126105" lon="-5.769925915676047"><ele>702.0</ele><time>2026-03-24T14:37:47.993Z</time></trkpt><trkpt lat="30.209498819211937" lon="-5.770061951347311"><ele>702.0</ele><time>2026-03-24T14:37:48.993Z</time></trkpt><trkpt lat="30.20959325956107" lon="-5.770190847674061"><ele>702.0</ele><time>2026-03-24T14:37:49.994Z</time></trkpt><trkpt lat="30.209707036895747" lon="-5.770302583971494"><ele>702.0</ele><time>2026-03-24T14:37:50.993Z</time></trkpt><trkpt lat="30.209834182676477" lon="-5.770410201519271"><ele>701.6666666666666</ele><time>2026-03-24T14:37:51.993Z</time></trkpt><trkpt lat="30.209970500514487" lon="-5.77051504500467"><ele>701.3333333333333</ele><time>2026-03-24T14:37:52.993Z</time></trkpt><trkpt lat="30.21010714254931" lon="-5.770615042587232"><ele>701.0</ele><time>2026-03-24T14:37:53.993Z</time></trkpt><trkpt lat="30.210232766655892" lon="-5.770726241942163"><ele>701.0</ele><time>2026-03-24T14:37:54.993Z</time></trkpt><trkpt lat="30.21033983663553" lon="-5.770857608722025"><ele>701.0</ele><time>2026-03-24T14:37:55.993Z</time></trkpt><trkpt lat="30.210431803099972" lon="-5.771009382652587"><ele>701.0</ele><time>2026-03-24T14:37:56.993Z</time></trkpt><trkpt lat="30.210529240502574" lon="-5.771145212494454"><ele>700.6666666666666</ele><time>2026-03-24T14:37:57.993Z</time></trkpt><trkpt lat="30.210635837182245" lon="-5.771269502246712"><ele>700.3333333333334</ele><time>2026-03-24T14:37:58.993Z</time></trkpt><trkpt lat="30.210748013009667" lon="-5.771383499394691"><ele>700.0</ele><time>2026-03-24T14:37:59.993Z</time></trkpt><trkpt lat="30.2108639752541" lon="-5.771511765117072"><ele>700.0</ele><time>2026-03-24T14:38:00.993Z</time></trkpt><trkpt lat="30.210987602734026" lon="-5.771652272724664"><ele>700.0</ele><time>2026-03-24T14:38:01.993Z</time></trkpt><trkpt lat="30.211119213442185" lon="-5.771786165621002"><ele>700.0</ele><time>2026-03-24T14:38:02.993Z</time></trkpt><trkpt lat="30.211251344496382" lon="-5.771916905545651"><ele>700.3333333333334</ele><time>2026-03-24T14:38:03.993Z</time></trkpt><trkpt lat="30.21137709343946" lon="-5.77205156238355"><ele>700.6666666666666</ele><time>2026-03-24T14:38:04.993Z</time></trkpt><trkpt lat="30.211483499762743" lon="-5.772175914920091"><ele>701.0</ele><time>2026-03-24T14:38:05.993Z</time></trkpt><trkpt lat="30.21158972530988" lon="-5.772295617847674"><ele>701.0</ele><time>2026-03-24T14:38:06.993Z</time></trkpt><trkpt lat="30.211709817281537" lon="-5.772402148889028"><ele>701.0</ele><time>2026-03-24T14:38:07.993Z</time></trkpt><trkpt lat="30.211841677072123" lon="-5.772499686845175"><ele>701.0</ele><time>2026-03-24T14:38:08.993Z</time></trkpt><trkpt lat="30.211973455711547" lon="-5.772587105556154"><ele>701.0</ele><time>2026-03-24T14:38:09.993Z</time></trkpt><trkpt lat="30.212104723573013" lon="-5.772676318839638"><ele>701.0</ele><time>2026-03-24T14:38:10.993Z</time></trkpt><trkpt lat="30.21221892587772" lon="-5.772774269779677"><ele>701.0</ele><time>2026-03-24T14:38:11.993Z</time></trkpt><trkpt lat="30.212322475991172" lon="-5.7728972084958645"><ele>701.0</ele><time>2026-03-24T14:38:12.993Z</time></trkpt><trkpt lat="30.212421075787354" lon="-5.7730393970153155"><ele>701.6666666666666</ele><time>2026-03-24T14:38:13.993Z</time></trkpt><trkpt lat="30.212521376870495" lon="-5.773187719744215"><ele>702.3333333333334</ele><time>2026-03-24T14:38:14.993Z</time></trkpt><trkpt lat="30.2126287540384" lon="-5.773325737766742"><ele>703.0</ele><time>2026-03-24T14:38:15.993Z</time></trkpt><trkpt lat="30.212732958871886" lon="-5.773457775271424"><ele>702.6666666666667</ele><time>2026-03-24T14:38:16.993Z</time></trkpt><trkpt lat="30.21283610340379" lon="-5.773594155261221"><ele>702.3333333333334</ele><time>2026-03-24T14:38:17.993Z</time></trkpt><trkpt lat="30.212937609657704" lon="-5.773732800737365"><ele>702.0</ele><time>2026-03-24T14:38:18.993Z</time></trkpt><trkpt lat="30.213036104768467" lon="-5.773863225611695"><ele>702.0</ele><time>2026-03-24T14:38:19.993Z</time></trkpt><trkpt lat="30.21313423709255" lon="-5.7739911753429025"><ele>702.0</ele><time>2026-03-24T14:38:20.993Z</time></trkpt><trkpt lat="30.213225335289714" lon="-5.774120568363334"><ele>702.0</ele><time>2026-03-24T14:38:21.993Z</time></trkpt><trkpt lat="30.21330059251513" lon="-5.774267624125017"><ele>702.0</ele><time>2026-03-24T14:38:22.993Z</time></trkpt><trkpt lat="30.21336094170117" lon="-5.774435257930962"><ele>702.0</ele><time>2026-03-24T14:38:23.993Z</time></trkpt><trkpt lat="30.21343181553176" lon="-5.7746030206282875"><ele>702.0</ele><time>2026-03-24T14:38:24.993Z</time></trkpt><trkpt lat="30.213522514688776" lon="-5.774755939570644"><ele>702.0</ele><time>2026-03-24T14:38:25.993Z</time></trkpt><trkpt lat="30.213623432712293" lon="-5.774902523126511"><ele>702.0</ele><time>2026-03-24T14:38:26.993Z</time></trkpt><trkpt lat="30.2137298675254" lon="-5.775049061707797"><ele>702.0</ele><time>2026-03-24T14:38:27.993Z</time></trkpt><trkpt lat="30.213839996992064" lon="-5.775185485879419"><ele>702.0</ele><time>2026-03-24T14:38:28.993Z</time></trkpt><trkpt lat="30.21395335377601" lon="-5.775304418247403"><ele>702.0</ele><time>2026-03-24T14:38:29.993Z</time></trkpt><trkpt lat="30.214063813013695" lon="-5.775429440110131"><ele>702.0</ele><time>2026-03-24T14:38:30.993Z</time></trkpt><trkpt lat="30.21417497105977" lon="-5.775549558545365"><ele>702.0</ele><time>2026-03-24T14:38:31.993Z</time></trkpt><trkpt lat="30.21429272091956" lon="-5.7756813512019765"><ele>702.0</ele><time>2026-03-24T14:38:32.993Z</time></trkpt><trkpt lat="30.21441894710747" lon="-5.775802270533284"><ele>702.0</ele><time>2026-03-24T14:38:33.993Z</time></trkpt><trkpt lat="30.214548161936108" lon="-5.775928510656826"><ele>702.0</ele><time>2026-03-24T14:38:34.993Z</time></trkpt><trkpt lat="30.21467182812117" lon="-5.776062682844285"><ele>702.3333333333334</ele><time>2026-03-24T14:38:35.993Z</time></trkpt><trkpt lat="30.214788410996658" lon="-5.776200282062243"><ele>702.6666666666667</ele><time>2026-03-24T14:38:36.993Z</time></trkpt><trkpt lat="30.214905168298163" lon="-5.7763243110200335"><ele>703.0</ele><time>2026-03-24T14:38:37.993Z</time></trkpt><trkpt lat="30.21502200599242" lon="-5.77644026612502"><ele>702.3333333333334</ele><time>2026-03-24T14:38:38.993Z</time></trkpt><trkpt lat="30.215134439850043" lon="-5.776560749502857"><ele>701.6666666666666</ele><time>2026-03-24T14:38:39.993Z</time></trkpt><trkpt lat="30.215238190527867" lon="-5.776688482744258"><ele>701.0</ele><time>2026-03-24T14:38:40.993Z</time></trkpt><trkpt lat="30.21533856155556" lon="-5.776827823441669"><ele>701.0</ele><time>2026-03-24T14:38:41.993Z</time></trkpt><trkpt lat="30.215442324163376" lon="-5.776967504896854"><ele>701.0</ele><time>2026-03-24T14:38:42.993Z</time></trkpt><trkpt lat="30.215558770887345" lon="-5.777097714766373"><ele>701.0</ele><time>2026-03-24T14:38:43.993Z</time></trkpt><trkpt lat="30.215678787010017" lon="-5.777226721333239"><ele>701.0</ele><time>2026-03-24T14:38:44.993Z</time></trkpt><trkpt lat="30.21579272884749" lon="-5.777362145756001"><ele>701.0</ele><time>2026-03-24T14:38:45.993Z</time></trkpt><trkpt lat="30.215919630305724" lon="-5.777516304581"><ele>701.0</ele><time>2026-03-24T14:38:46.993Z</time></trkpt><trkpt lat="30.21605012632515" lon="-5.777662005304478"><ele>701.0</ele><time>2026-03-24T14:38:47.993Z</time></trkpt><trkpt lat="30.216180578028933" lon="-5.777801696160895"><ele>701.0</ele><time>2026-03-24T14:38:48.993Z</time></trkpt><trkpt lat="30.216329379468014" lon="-5.777948151607872"><ele>701.0</ele><time>2026-03-24T14:38:49.993Z</time></trkpt><trkpt lat="30.216504497000646" lon="-5.778096325590096"><ele>701.3333333333333</ele><time>2026-03-24T14:38:50.993Z</time></trkpt><trkpt lat="30.216665724436286" lon="-5.778230495721898"><ele>701.6666666666666</ele><time>2026-03-24T14:38:51.993Z</time></trkpt><trkpt lat="30.216805051588956" lon="-5.77834667013072"><ele>702.0</ele><time>2026-03-24T14:38:52.993Z</time></trkpt><trkpt lat="30.216929860426657" lon="-5.778465912888584"><ele>702.6666666666666</ele><time>2026-03-24T14:38:53.993Z</time></trkpt><trkpt lat="30.21704030558617" lon="-5.7785916854150745"><ele>703.3333333333333</ele><time>2026-03-24T14:38:54.993Z</time></trkpt><trkpt lat="30.217143689607774" lon="-5.778731513751535"><ele>704.0</ele><time>2026-03-24T14:38:55.993Z</time></trkpt><trkpt lat="30.217251964426268" lon="-5.778872971279034"><ele>703.6666666666666</ele><time>2026-03-24T14:38:56.993Z</time></trkpt><trkpt lat="30.21736540616643" lon="-5.779007245812942"><ele>703.3333333333334</ele><time>2026-03-24T14:38:57.993Z</time></trkpt><trkpt lat="30.21747295184764" lon="-5.779135713426604"><ele>703.0</ele><time>2026-03-24T14:38:58.993Z</time></trkpt><trkpt lat="30.217576505633737" lon="-5.7792553553238335"><ele>702.75</ele><time>2026-03-24T14:38:59.993Z</time></trkpt><trkpt lat="30.21767244557642" lon="-5.779370553840201"><ele>702.5</ele><time>2026-03-24T14:39:00.993Z</time></trkpt><trkpt lat="30.217767158700394" lon="-5.77948941786316"><ele>702.25</ele><time>2026-03-24T14:39:01.993Z</time></trkpt><trkpt lat="30.217852272552115" lon="-5.77960620260676"><ele>702.0</ele><time>2026-03-24T14:39:02.993Z</time></trkpt><trkpt lat="30.217929646259634" lon="-5.77971221638984"><ele>702.0</ele><time>2026-03-24T14:39:03.993Z</time></trkpt><trkpt lat="30.21800619134345" lon="-5.779791446361792"><ele>702.0</ele><time>2026-03-24T14:39:04.993Z</time></trkpt><trkpt lat="30.218085180199097" lon="-5.779852792417417"><ele>702.0</ele><time>2026-03-24T14:39:05.993Z</time></trkpt><trkpt lat="30.218158723776803" lon="-5.779902490263834"><ele>702.0</ele><time>2026-03-24T14:39:06.993Z</time></trkpt><trkpt lat="30.21821914689023" lon="-5.779976712352465"><ele>702.0</ele><time>2026-03-24T14:39:07.993Z</time></trkpt><trkpt lat="30.218265807865368" lon="-5.780072325201181"><ele>702.25</ele><time>2026-03-24T14:39:08.993Z</time></trkpt><trkpt lat="30.218340304118797" lon="-5.780167722182404"><ele>702.5</ele><time>2026-03-24T14:39:09.993Z</time></trkpt><trkpt lat="30.218440149084582" lon="-5.780258763924164"><ele>702.75</ele><time>2026-03-24T14:39:10.993Z</time></trkpt><trkpt lat="30.218534473092816" lon="-5.780338535802474"><ele>703.0</ele><time>2026-03-24T14:39:11.993Z</time></trkpt><trkpt lat="30.218623221189027" lon="-5.78041069149779"><ele>703.0</ele><time>2026-03-24T14:39:12.993Z</time></trkpt><trkpt lat="30.21872299921489" lon="-5.780477403675407"><ele>703.0</ele><time>2026-03-24T14:39:13.993Z</time></trkpt><trkpt lat="30.218829124974977" lon="-5.780529796894924"><ele>703.0</ele><time>2026-03-24T14:39:14.993Z</time></trkpt><trkpt lat="30.218936111502067" lon="-5.780567203353478"><ele>703.0</ele><time>2026-03-24T14:39:15.993Z</time></trkpt><trkpt lat="30.219057001009833" lon="-5.780590257290804"><ele>703.0</ele><time>2026-03-24T14:39:16.993Z</time></trkpt><trkpt lat="30.219173251452162" lon="-5.780611100955712"><ele>703.0</ele><time>2026-03-24T14:39:17.993Z</time></trkpt><trkpt lat="30.21928572406314" lon="-5.780645340243623"><ele>703.0</ele><time>2026-03-24T14:39:18.993Z</time></trkpt><trkpt lat="30.219404121476988" lon="-5.780691214609749"><ele>703.0</ele><time>2026-03-24T14:39:19.993Z</time></trkpt><trkpt lat="30.219523239996576" lon="-5.780747684436451"><ele>703.0</ele><time>2026-03-24T14:39:20.993Z</time></trkpt><trkpt lat="30.219649748056298" lon="-5.7808054551792045"><ele>703.0</ele><time>2026-03-24T14:39:21.993Z</time></trkpt><trkpt lat="30.219781130840044" lon="-5.780846841218593"><ele>703.0</ele><time>2026-03-24T14:39:22.993Z</time></trkpt><trkpt lat="30.21991607054092" lon="-5.7808849974779335"><ele>703.0</ele><time>2026-03-24T14:39:23.993Z</time></trkpt><trkpt lat="30.22005011492891" lon="-5.780939796550704"><ele>703.3333333333334</ele><time>2026-03-24T14:39:24.993Z</time></trkpt><trkpt lat="30.220191450036207" lon="-5.78098490188082"><ele>703.6666666666666</ele><time>2026-03-24T14:39:25.993Z</time></trkpt><trkpt lat="30.22033875986028" lon="-5.781012753979616"><ele>704.0</ele><time>2026-03-24T14:39:26.993Z</time></trkpt><trkpt lat="30.220491586943254" lon="-5.781049856774736"><ele>704.0</ele><time>2026-03-24T14:39:27.993Z</time></trkpt><trkpt lat="30.220646090877423" lon="-5.781098949433789"><ele>704.0</ele><time>2026-03-24T14:39:28.993Z</time></trkpt><trkpt lat="30.220797218532585" lon="-5.781150238190694"><ele>704.0</ele><time>2026-03-24T14:39:29.993Z</time></trkpt><trkpt lat="30.22096207336269" lon="-5.781196078853553"><ele>704.3333333333333</ele><time>2026-03-24T14:39:30.993Z</time></trkpt><trkpt lat="30.22113464025054" lon="-5.781235929163585"><ele>704.6666666666666</ele><time>2026-03-24T14:39:31.993Z</time></trkpt><trkpt lat="30.221309250052258" lon="-5.781282184958363"><ele>705.0</ele><time>2026-03-24T14:39:32.993Z</time></trkpt><trkpt lat="30.22148415783612" lon="-5.781339736340834"><ele>705.0</ele><time>2026-03-24T14:39:33.993Z</time></trkpt><trkpt lat="30.22165288101918" lon="-5.7814028141836005"><ele>705.0</ele><time>2026-03-24T14:39:34.993Z</time></trkpt><trkpt lat="30.221820294961656" lon="-5.781463282683549"><ele>705.0</ele><time>2026-03-24T14:39:35.993Z</time></trkpt><trkpt lat="30.221982814720064" lon="-5.7815100080816615"><ele>705.0</ele><time>2026-03-24T14:39:36.993Z</time></trkpt><trkpt lat="30.222148290353637" lon="-5.781544275368278"><ele>705.0</ele><time>2026-03-24T14:39:37.993Z</time></trkpt><trkpt lat="30.222307381050598" lon="-5.781572560470631"><ele>705.0</ele><time>2026-03-24T14:39:38.993Z</time></trkpt><trkpt lat="30.22245510428873" lon="-5.7816044544719425"><ele>705.0</ele><time>2026-03-24T14:39:39.993Z</time></trkpt><trkpt lat="30.222600290266875" lon="-5.781647175962674"><ele>705.0</ele><time>2026-03-24T14:39:40.993Z</time></trkpt><trkpt lat="30.22273862263407" lon="-5.781696668172518"><ele>705.0</ele><time>2026-03-24T14:39:41.993Z</time></trkpt><trkpt lat="30.222876669611416" lon="-5.781743739983454"><ele>705.0</ele><time>2026-03-24T14:39:42.993Z</time></trkpt><trkpt lat="30.223018256614196" lon="-5.781786912791892"><ele>705.0</ele><time>2026-03-24T14:39:43.993Z</time></trkpt><trkpt lat="30.223164061053396" lon="-5.781823400897021"><ele>705.0</ele><time>2026-03-24T14:39:44.993Z</time></trkpt><trkpt lat="30.22331721978103" lon="-5.781852155861963"><ele>705.0</ele><time>2026-03-24T14:39:45.993Z</time></trkpt><trkpt lat="30.223474054918967" lon="-5.781879657532582"><ele>705.0</ele><time>2026-03-24T14:39:46.993Z</time></trkpt><trkpt lat="30.22364063176389" lon="-5.781912399955169"><ele>705.0</ele><time>2026-03-24T14:39:47.993Z</time></trkpt><trkpt lat="30.223804092645594" lon="-5.781956576216665"><ele>705.0</ele><time>2026-03-24T14:39:48.993Z</time></trkpt><trkpt lat="30.223967678515347" lon="-5.782015586759196"><ele>705.3333333333334</ele><time>2026-03-24T14:39:49.993Z</time></trkpt><trkpt lat="30.224131357682985" lon="-5.7820712218614805"><ele>705.6666666666667</ele><time>2026-03-24T14:39:50.993Z</time></trkpt><trkpt lat="30.224300658038395" lon="-5.782106641636298"><ele>706.0</ele><time>2026-03-24T14:39:51.993Z</time></trkpt><trkpt lat="30.224472443434856" lon="-5.782134414525432"><ele>706.0</ele><time>2026-03-24T14:39:52.993Z</time></trkpt><trkpt lat="30.224636321477746" lon="-5.782173612765635"><ele>706.0</ele><time>2026-03-24T14:39:53.993Z</time></trkpt><trkpt lat="30.2247960994774" lon="-5.78222048996669"><ele>706.0</ele><time>2026-03-24T14:39:54.993Z</time></trkpt><trkpt lat="30.22496462745855" lon="-5.782264845742441"><ele>706.0</ele><time>2026-03-24T14:39:55.994Z</time></trkpt><trkpt lat="30.225137828703915" lon="-5.782303878928498"><ele>706.0</ele><time>2026-03-24T14:39:56.993Z</time></trkpt><trkpt lat="30.225308031360903" lon="-5.782345884041076"><ele>706.0</ele><time>2026-03-24T14:39:57.993Z</time></trkpt><trkpt lat="30.225477548953243" lon="-5.782394069485172"><ele>705.3333333333334</ele><time>2026-03-24T14:39:58.994Z</time></trkpt><trkpt lat="30.2256455762788" lon="-5.782451017656098"><ele>704.6666666666666</ele><time>2026-03-24T14:39:59.993Z</time></trkpt><trkpt lat="30.22581417719259" lon="-5.782496884315082"><ele>704.0</ele><time>2026-03-24T14:40:00.993Z</time></trkpt><trkpt lat="30.225987105102625" lon="-5.782527669202881"><ele>704.0</ele><time>2026-03-24T14:40:01.993Z</time></trkpt><trkpt lat="30.22616357293518" lon="-5.7825593660763746"><ele>704.0</ele><time>2026-03-24T14:40:02.993Z</time></trkpt><trkpt lat="30.226336241237235" lon="-5.782598308689108"><ele>704.0</ele><time>2026-03-24T14:40:03.993Z</time></trkpt><trkpt lat="30.226504314473434" lon="-5.7826438274071545"><ele>704.3333333333333</ele><time>2026-03-24T14:40:04.993Z</time></trkpt><trkpt lat="30.226672140805235" lon="-5.782684494018219"><ele>704.6666666666666</ele><time>2026-03-24T14:40:05.993Z</time></trkpt><trkpt lat="30.226841417659003" lon="-5.782716921524921"><ele>705.0</ele><time>2026-03-24T14:40:06.993Z</time></trkpt><trkpt lat="30.22701342379386" lon="-5.782736347581855"><ele>705.0</ele><time>2026-03-24T14:40:07.993Z</time></trkpt><trkpt lat="30.227185754253465" lon="-5.782740188529687"><ele>705.0</ele><time>2026-03-24T14:40:08.993Z</time></trkpt><trkpt lat="30.22736096892009" lon="-5.782744296552156"><ele>705.0</ele><time>2026-03-24T14:40:09.993Z</time></trkpt><trkpt lat="30.22753404801713" lon="-5.7827714277528495"><ele>705.0</ele><time>2026-03-24T14:40:10.993Z</time></trkpt><trkpt lat="30.227708257359918" lon="-5.782811635993679"><ele>705.0</ele><time>2026-03-24T14:40:11.993Z</time></trkpt><trkpt lat="30.227884248128298" lon="-5.782851179618488"><ele>705.0</ele><time>2026-03-24T14:40:12.993Z</time></trkpt><trkpt lat="30.22805624419495" lon="-5.782898622182399"><ele>705.0</ele><time>2026-03-24T14:40:13.993Z</time></trkpt><trkpt lat="30.22822723535038" lon="-5.782961322386674"><ele>705.0</ele><time>2026-03-24T14:40:14.993Z</time></trkpt><trkpt lat="30.228397300075397" lon="-5.783027318957157"><ele>705.0</ele><time>2026-03-24T14:40:15.993Z</time></trkpt><trkpt lat="30.228573137194616" lon="-5.783092641391888"><ele>705.0</ele><time>2026-03-24T14:40:16.993Z</time></trkpt><trkpt lat="30.228749666522077" lon="-5.783140962276665"><ele>705.0</ele><time>2026-03-24T14:40:17.993Z</time></trkpt><trkpt lat="30.228924007789246" lon="-5.783181820393212"><ele>705.0</ele><time>2026-03-24T14:40:18.993Z</time></trkpt><trkpt lat="30.229093814747902" lon="-5.783222798934324"><ele>704.6666666666666</ele><time>2026-03-24T14:40:19.993Z</time></trkpt><trkpt lat="30.229263342594983" lon="-5.783256358285022"><ele>704.3333333333333</ele><time>2026-03-24T14:40:20.993Z</time></trkpt><trkpt lat="30.2294310615789" lon="-5.783297659649257"><ele>704.0</ele><time>2026-03-24T14:40:21.993Z</time></trkpt><trkpt lat="30.22959926158362" lon="-5.7833565341376945"><ele>704.0</ele><time>2026-03-24T14:40:22.993Z</time></trkpt><trkpt lat="30.22976764542448" lon="-5.783419299924619"><ele>704.0</ele><time>2026-03-24T14:40:23.993Z</time></trkpt><trkpt lat="30.229936497997542" lon="-5.7834773304975275"><ele>704.0</ele><time>2026-03-24T14:40:24.993Z</time></trkpt><trkpt lat="30.230107154020136" lon="-5.783534946003735"><ele>704.6666666666666</ele><time>2026-03-24T14:40:25.993Z</time></trkpt><trkpt lat="30.23029288531295" lon="-5.783603895367369"><ele>705.3333333333334</ele><time>2026-03-24T14:40:26.993Z</time></trkpt><trkpt lat="30.230485170099" lon="-5.783672338578425"><ele>706.0</ele><time>2026-03-24T14:40:27.993Z</time></trkpt><trkpt lat="30.23065171333747" lon="-5.78373593246466"><ele>706.0</ele><time>2026-03-24T14:40:28.993Z</time></trkpt><trkpt lat="30.230801038070993" lon="-5.78379533915911"><ele>706.0</ele><time>2026-03-24T14:40:29.993Z</time></trkpt><trkpt lat="30.230947081859927" lon="-5.783855329928158"><ele>706.0</ele><time>2026-03-24T14:40:30.993Z</time></trkpt><trkpt lat="30.231086803382347" lon="-5.7839050240160885"><ele>706.0</ele><time>2026-03-24T14:40:31.993Z</time></trkpt><trkpt lat="30.231222078201053" lon="-5.78395569999533"><ele>706.0</ele><time>2026-03-24T14:40:32.993Z</time></trkpt><trkpt lat="30.231352512276928" lon="-5.784006488941174"><ele>706.0</ele><time>2026-03-24T14:40:33.993Z</time></trkpt><trkpt lat="30.231484341136188" lon="-5.784056636911013"><ele>706.0</ele><time>2026-03-24T14:40:34.993Z</time></trkpt><trkpt lat="30.23161263427172" lon="-5.784122504132073"><ele>706.75</ele><time>2026-03-24T14:40:35.993Z</time></trkpt><trkpt lat="30.23173648222838" lon="-5.784193334635345"><ele>707.5</ele><time>2026-03-24T14:40:36.993Z</time></trkpt><trkpt lat="30.23186378980498" lon="-5.78426046880711"><ele>708.25</ele><time>2026-03-24T14:40:37.993Z</time></trkpt><trkpt lat="30.231995895441592" lon="-5.784311758833229"><ele>709.0</ele><time>2026-03-24T14:40:38.993Z</time></trkpt><trkpt lat="30.232136451242997" lon="-5.784364211933711"><ele>709.0</ele><time>2026-03-24T14:40:39.993Z</time></trkpt><trkpt lat="30.232290316837755" lon="-5.784418533843599"><ele>709.0</ele><time>2026-03-24T14:40:40.993Z</time></trkpt><trkpt lat="30.232446275455302" lon="-5.784477532670994"><ele>709.0</ele><time>2026-03-24T14:40:41.993Z</time></trkpt><trkpt lat="30.232609887044063" lon="-5.784555302931575"><ele>708.6666666666667</ele><time>2026-03-24T14:40:42.993Z</time></trkpt><trkpt lat="30.232779104267028" lon="-5.784643410072961"><ele>708.3333333333334</ele><time>2026-03-24T14:40:43.993Z</time></trkpt><trkpt lat="30.23295517148971" lon="-5.784731468972237"><ele>708.0</ele><time>2026-03-24T14:40:44.993Z</time></trkpt><trkpt lat="30.233136276587413" lon="-5.784806145893314"><ele>708.0</ele><time>2026-03-24T14:40:45.993Z</time></trkpt><trkpt lat="30.233317339902825" lon="-5.784875715091904"><ele>708.0</ele><time>2026-03-24T14:40:46.993Z</time></trkpt><trkpt lat="30.233493550397256" lon="-5.784945100575465"><ele>708.0</ele><time>2026-03-24T14:40:47.993Z</time></trkpt><trkpt lat="30.233669735285677" lon="-5.785014546696558"><ele>708.0</ele><time>2026-03-24T14:40:48.993Z</time></trkpt><trkpt lat="30.233852244883447" lon="-5.7850771327343775"><ele>708.0</ele><time>2026-03-24T14:40:49.993Z</time></trkpt><trkpt lat="30.234034341149908" lon="-5.785128909289998"><ele>708.0</ele><time>2026-03-24T14:40:50.993Z</time></trkpt><trkpt lat="30.234224509271517" lon="-5.785205988513997"><ele>708.3333333333334</ele><time>2026-03-24T14:40:51.993Z</time></trkpt><trkpt lat="30.234417040656044" lon="-5.785275184936913"><ele>708.6666666666667</ele><time>2026-03-24T14:40:52.993Z</time></trkpt><trkpt lat="30.234614796376558" lon="-5.785333218431454"><ele>709.0</ele><time>2026-03-24T14:40:53.993Z</time></trkpt><trkpt lat="30.234817483667864" lon="-5.785382274271427"><ele>709.6666666666667</ele><time>2026-03-24T14:40:54.993Z</time></trkpt><trkpt lat="30.235005224102686" lon="-5.785430852087096"><ele>710.3333333333334</ele><time>2026-03-24T14:40:55.993Z</time></trkpt><trkpt lat="30.235180580253978" lon="-5.785492676252801"><ele>711.0</ele><time>2026-03-24T14:40:56.993Z</time></trkpt><trkpt lat="30.235359899632712" lon="-5.785551408808467"><ele>711.0</ele><time>2026-03-24T14:40:57.993Z</time></trkpt><trkpt lat="30.235526373289332" lon="-5.785614256030157"><ele>711.0</ele><time>2026-03-24T14:40:58.993Z</time></trkpt><trkpt lat="30.23568555908114" lon="-5.785697896638941"><ele>711.0</ele><time>2026-03-24T14:40:59.993Z</time></trkpt><trkpt lat="30.235849552379698" lon="-5.78579455786105"><ele>711.0</ele><time>2026-03-24T14:41:00.993Z</time></trkpt><trkpt lat="30.236009940570852" lon="-5.785900500036537"><ele>711.0</ele><time>2026-03-24T14:41:01.993Z</time></trkpt><trkpt lat="30.236170235377678" lon="-5.785994463086847"><ele>711.0</ele><time>2026-03-24T14:41:02.993Z</time></trkpt><trkpt lat="30.236322569339187" lon="-5.786080496357416"><ele>710.75</ele><time>2026-03-24T14:41:03.993Z</time></trkpt><trkpt lat="30.236455131898307" lon="-5.786159162821121"><ele>710.5</ele><time>2026-03-24T14:41:04.993Z</time></trkpt><trkpt lat="30.23658318396838" lon="-5.786242859273806"><ele>710.25</ele><time>2026-03-24T14:41:05.993Z</time></trkpt><trkpt lat="30.236710665604665" lon="-5.786335951707953"><ele>710.0</ele><time>2026-03-24T14:41:06.993Z</time></trkpt><trkpt lat="30.236844850873982" lon="-5.786439570263299"><ele>709.3333333333333</ele><time>2026-03-24T14:41:07.993Z</time></trkpt><trkpt lat="30.236986747403154" lon="-5.786535796157889"><ele>708.6666666666666</ele><time>2026-03-24T14:41:08.993Z</time></trkpt><trkpt lat="30.237140297225682" lon="-5.78662882873436"><ele>708.0</ele><time>2026-03-24T14:41:09.993Z</time></trkpt><trkpt lat="30.237303824621236" lon="-5.786719182727899"><ele>708.0</ele><time>2026-03-24T14:41:10.993Z</time></trkpt><trkpt lat="30.237468152954346" lon="-5.786820892389836"><ele>708.0</ele><time>2026-03-24T14:41:11.993Z</time></trkpt><trkpt lat="30.237624762964906" lon="-5.7869333962684175"><ele>708.0</ele><time>2026-03-24T14:41:12.993Z</time></trkpt><trkpt lat="30.237782637852625" lon="-5.787055497808891"><ele>708.0</ele><time>2026-03-24T14:41:13.993Z</time></trkpt><trkpt lat="30.237943365656182" lon="-5.78718001604306"><ele>708.0</ele><time>2026-03-24T14:41:14.993Z</time></trkpt><trkpt lat="30.238104551895496" lon="-5.787304938896873"><ele>708.0</ele><time>2026-03-24T14:41:15.993Z</time></trkpt><trkpt lat="30.238262414105076" lon="-5.787434425962123"><ele>708.3333333333334</ele><time>2026-03-24T14:41:16.993Z</time></trkpt><trkpt lat="30.23840535859671" lon="-5.78757220728512"><ele>708.6666666666667</ele><time>2026-03-24T14:41:17.993Z</time></trkpt><trkpt lat="30.23854588659344" lon="-5.7877127262671815"><ele>709.0</ele><time>2026-03-24T14:41:18.993Z</time></trkpt><trkpt lat="30.23869657680483" lon="-5.787843872012752"><ele>709.0</ele><time>2026-03-24T14:41:19.993Z</time></trkpt><trkpt lat="30.238864752705275" lon="-5.787951795087435"><ele>709.0</ele><time>2026-03-24T14:41:20.993Z</time></trkpt><trkpt lat="30.239048733934453" lon="-5.788034437794792"><ele>709.0</ele><time>2026-03-24T14:41:21.993Z</time></trkpt><trkpt lat="30.239239851028906" lon="-5.78811189439451"><ele>709.3333333333334</ele><time>2026-03-24T14:41:22.993Z</time></trkpt><trkpt lat="30.239434434123396" lon="-5.788189263700308"><ele>709.6666666666666</ele><time>2026-03-24T14:41:23.993Z</time></trkpt><trkpt lat="30.239629131342873" lon="-5.788263677058455"><ele>710.0</ele><time>2026-03-24T14:41:24.993Z</time></trkpt><trkpt lat="30.239815055837" lon="-5.7883394554999645"><ele>710.0</ele><time>2026-03-24T14:41:25.993Z</time></trkpt><trkpt lat="30.24000342168691" lon="-5.788417588863283"><ele>710.0</ele><time>2026-03-24T14:41:26.993Z</time></trkpt><trkpt lat="30.240188719780885" lon="-5.788489312260113"><ele>710.0</ele><time>2026-03-24T14:41:27.993Z</time></trkpt><trkpt lat="30.240367796417242" lon="-5.788556556426464"><ele>710.3333333333333</ele><time>2026-03-24T14:41:28.993Z</time></trkpt><trkpt lat="30.24054308689924" lon="-5.78863768202717"><ele>710.6666666666666</ele><time>2026-03-24T14:41:29.993Z</time></trkpt><trkpt lat="30.24070840944197" lon="-5.788736259753406"><ele>711.0</ele><time>2026-03-24T14:41:30.993Z</time></trkpt><trkpt lat="30.24087541598834" lon="-5.788848073389594"><ele>711.3333333333334</ele><time>2026-03-24T14:41:31.993Z</time></trkpt><trkpt lat="30.241024196475614" lon="-5.788963895599012"><ele>711.6666666666667</ele><time>2026-03-24T14:41:32.993Z</time></trkpt><trkpt lat="30.241172398682707" lon="-5.789083049770596"><ele>712.0</ele><time>2026-03-24T14:41:33.993Z</time></trkpt><trkpt lat="30.24129457922039" lon="-5.7892044779397525"><ele>712.0</ele><time>2026-03-24T14:41:34.993Z</time></trkpt><trkpt lat="30.24141654607843" lon="-5.789320027706689"><ele>712.0</ele><time>2026-03-24T14:41:35.993Z</time></trkpt><trkpt lat="30.241531217284223" lon="-5.789448833448838"><ele>712.0</ele><time>2026-03-24T14:41:36.993Z</time></trkpt><trkpt lat="30.241637495258423" lon="-5.789576454007885"><ele>712.0</ele><time>2026-03-24T14:41:37.993Z</time></trkpt><trkpt lat="30.241743246988474" lon="-5.78969920949881"><ele>712.0</ele><time>2026-03-24T14:41:38.993Z</time></trkpt><trkpt lat="30.241850610317943" lon="-5.789826918962798"><ele>712.0</ele><time>2026-03-24T14:41:39.993Z</time></trkpt><trkpt lat="30.24196733611759" lon="-5.789951975226322"><ele>712.0</ele><time>2026-03-24T14:41:40.993Z</time></trkpt><trkpt lat="30.242090612323775" lon="-5.790074235381483"><ele>712.0</ele><time>2026-03-24T14:41:41.993Z</time></trkpt><trkpt lat="30.24221245131792" lon="-5.790196858261954"><ele>712.0</ele><time>2026-03-24T14:41:42.993Z</time></trkpt><trkpt lat="30.242345162032453" lon="-5.7903268918284025"><ele>711.6666666666667</ele><time>2026-03-24T14:41:43.993Z</time></trkpt><trkpt lat="30.24248323006044" lon="-5.790456458402381"><ele>711.3333333333334</ele><time>2026-03-24T14:41:44.993Z</time></trkpt><trkpt lat="30.242618723279257" lon="-5.79059093537338"><ele>711.0</ele><time>2026-03-24T14:41:45.993Z</time></trkpt><trkpt lat="30.242749456328355" lon="-5.790729947574634"><ele>711.0</ele><time>2026-03-24T14:41:46.993Z</time></trkpt><trkpt lat="30.242886561755633" lon="-5.790876305151053"><ele>711.0</ele><time>2026-03-24T14:41:47.993Z</time></trkpt><trkpt lat="30.24302427320306" lon="-5.791030560522095"><ele>711.0</ele><time>2026-03-24T14:41:48.993Z</time></trkpt><trkpt lat="30.243163314175277" lon="-5.79118411374024"><ele>711.6666666666666</ele><time>2026-03-24T14:41:49.993Z</time></trkpt><trkpt lat="30.243305781260478" lon="-5.79133752173732"><ele>712.3333333333333</ele><time>2026-03-24T14:41:50.993Z</time></trkpt><trkpt lat="30.24345583864173" lon="-5.7914872638008505"><ele>713.0</ele><time>2026-03-24T14:41:51.993Z</time></trkpt><trkpt lat="30.24360766278867" lon="-5.791633568694624"><ele>713.0</ele><time>2026-03-24T14:41:52.993Z</time></trkpt><trkpt lat="30.243753054364795" lon="-5.791784683845643"><ele>713.0</ele><time>2026-03-24T14:41:53.993Z</time></trkpt><trkpt lat="30.243889803583112" lon="-5.791934359765748"><ele>713.0</ele><time>2026-03-24T14:41:54.993Z</time></trkpt><trkpt lat="30.244025170672113" lon="-5.792085121296583"><ele>713.6666666666666</ele><time>2026-03-24T14:41:55.993Z</time></trkpt><trkpt lat="30.24416030977847" lon="-5.792241722409887"><ele>714.3333333333334</ele><time>2026-03-24T14:41:56.993Z</time></trkpt><trkpt lat="30.244293807292408" lon="-5.7924013924672195"><ele>715.0</ele><time>2026-03-24T14:41:57.993Z</time></trkpt><trkpt lat="30.244432775073353" lon="-5.792558931469579"><ele>714.3333333333334</ele><time>2026-03-24T14:41:58.993Z</time></trkpt><trkpt lat="30.244572962455187" lon="-5.792713694304206"><ele>713.6666666666666</ele><time>2026-03-24T14:41:59.993Z</time></trkpt><trkpt lat="30.24472722080002" lon="-5.792865015466222"><ele>713.0</ele><time>2026-03-24T14:42:00.993Z</time></trkpt><trkpt lat="30.24487948716377" lon="-5.793015340290212"><ele>712.6666666666666</ele><time>2026-03-24T14:42:01.993Z</time></trkpt><trkpt lat="30.245023972546306" lon="-5.7931773566519364"><ele>712.3333333333334</ele><time>2026-03-24T14:42:02.993Z</time></trkpt><trkpt lat="30.245172754639007" lon="-5.793333836313877"><ele>712.0</ele><time>2026-03-24T14:42:03.993Z</time></trkpt><trkpt lat="30.245326022846132" lon="-5.793476390471237"><ele>712.0</ele><time>2026-03-24T14:42:04.993Z</time></trkpt><trkpt lat="30.245479823772243" lon="-5.793615505486663"><ele>712.0</ele><time>2026-03-24T14:42:05.993Z</time></trkpt><trkpt lat="30.24563495240117" lon="-5.793751525544888"><ele>712.0</ele><time>2026-03-24T14:42:06.993Z</time></trkpt><trkpt lat="30.24577232156808" lon="-5.793877528752098"><ele>712.3333333333334</ele><time>2026-03-24T14:42:07.993Z</time></trkpt><trkpt lat="30.245908689746503" lon="-5.793994911507491"><ele>712.6666666666666</ele><time>2026-03-24T14:42:08.993Z</time></trkpt><trkpt lat="30.246050323620757" lon="-5.794122887154399"><ele>713.0</ele><time>2026-03-24T14:42:09.993Z</time></trkpt><trkpt lat="30.246192811040917" lon="-5.7942467878537425"><ele>712.6666666666666</ele><time>2026-03-24T14:42:10.993Z</time></trkpt><trkpt lat="30.24632864969208" lon="-5.794381003406566"><ele>712.3333333333334</ele><time>2026-03-24T14:42:11.993Z</time></trkpt><trkpt lat="30.2464531941011" lon="-5.794520066770914"><ele>712.0</ele><time>2026-03-24T14:42:12.993Z</time></trkpt><trkpt lat="30.246576406157896" lon="-5.794653889017083"><ele>712.0</ele><time>2026-03-24T14:42:13.993Z</time></trkpt><trkpt lat="30.24670571848808" lon="-5.794771174016737"><ele>712.0</ele><time>2026-03-24T14:42:14.993Z</time></trkpt><trkpt lat="30.24684441114331" lon="-5.7948786034154445"><ele>712.0</ele><time>2026-03-24T14:42:15.993Z</time></trkpt><trkpt lat="30.246981765187392" lon="-5.794995454704038"><ele>712.0</ele><time>2026-03-24T14:42:16.993Z</time></trkpt><trkpt lat="30.247113274309257" lon="-5.795112477536911"><ele>712.0</ele><time>2026-03-24T14:42:17.993Z</time></trkpt><trkpt lat="30.247249222710696" lon="-5.795232082378231"><ele>712.0</ele><time>2026-03-24T14:42:18.993Z</time></trkpt><trkpt lat="30.247391238229763" lon="-5.795350048321835"><ele>712.3333333333334</ele><time>2026-03-24T14:42:19.993Z</time></trkpt><trkpt lat="30.247530221604155" lon="-5.79544160866165"><ele>712.6666666666666</ele><time>2026-03-24T14:42:20.993Z</time></trkpt><trkpt lat="30.24767579428873" lon="-5.795535166762615"><ele>713.0</ele><time>2026-03-24T14:42:21.993Z</time></trkpt><trkpt lat="30.247819598790286" lon="-5.795643824604248"><ele>713.0</ele><time>2026-03-24T14:42:22.993Z</time></trkpt><trkpt lat="30.247954941213358" lon="-5.795768031591375"><ele>713.0</ele><time>2026-03-24T14:42:23.993Z</time></trkpt><trkpt lat="30.248086636974364" lon="-5.7959000868630985"><ele>713.0</ele><time>2026-03-24T14:42:24.993Z</time></trkpt><trkpt lat="30.24820509502375" lon="-5.796050062151847"><ele>713.0</ele><time>2026-03-24T14:42:25.993Z</time></trkpt><trkpt lat="30.248324316051225" lon="-5.796197441718716"><ele>713.0</ele><time>2026-03-24T14:42:26.993Z</time></trkpt><trkpt lat="30.248433438219706" lon="-5.796351337276141"><ele>713.0</ele><time>2026-03-24T14:42:27.993Z</time></trkpt><trkpt lat="30.248546473710928" lon="-5.7965266175962125"><ele>713.0</ele><time>2026-03-24T14:42:28.993Z</time></trkpt><trkpt lat="30.248661805529572" lon="-5.796677088503424"><ele>713.0</ele><time>2026-03-24T14:42:29.993Z</time></trkpt><trkpt lat="30.248777684885926" lon="-5.7968255635399455"><ele>713.0</ele><time>2026-03-24T14:42:30.993Z</time></trkpt><trkpt lat="30.248885533614807" lon="-5.796959658880829"><ele>713.3333333333333</ele><time>2026-03-24T14:42:31.993Z</time></trkpt><trkpt lat="30.24898161682362" lon="-5.7970971842915215"><ele>713.6666666666666</ele><time>2026-03-24T14:42:32.993Z</time></trkpt><trkpt lat="30.24907214520607" lon="-5.797246565521589"><ele>714.0</ele><time>2026-03-24T14:42:33.993Z</time></trkpt><trkpt lat="30.249157851127972" lon="-5.797412755108813"><ele>714.0</ele><time>2026-03-24T14:42:34.993Z</time></trkpt><trkpt lat="30.24923797486637" lon="-5.797588061818627"><ele>714.0</ele><time>2026-03-24T14:42:35.993Z</time></trkpt><trkpt lat="30.249318725362212" lon="-5.797772034512453"><ele>714.0</ele><time>2026-03-24T14:42:36.993Z</time></trkpt><trkpt lat="30.249404822956887" lon="-5.797957548967551"><ele>714.0</ele><time>2026-03-24T14:42:37.993Z</time></trkpt><trkpt lat="30.249502423140466" lon="-5.798136112865679"><ele>714.0</ele><time>2026-03-24T14:42:38.993Z</time></trkpt><trkpt lat="30.249613376897845" lon="-5.798301600510149"><ele>714.0</ele><time>2026-03-24T14:42:39.993Z</time></trkpt><trkpt lat="30.24973955952851" lon="-5.798448552072034"><ele>714.3333333333334</ele><time>2026-03-24T14:42:40.993Z</time></trkpt><trkpt lat="30.249878137090075" lon="-5.798597090102454"><ele>714.6666666666667</ele><time>2026-03-24T14:42:41.993Z</time></trkpt><trkpt lat="30.250023698847997" lon="-5.798748868693718"><ele>715.0</ele><time>2026-03-24T14:42:42.993Z</time></trkpt><trkpt lat="30.250170448113572" lon="-5.798904494524512"><ele>715.0</ele><time>2026-03-24T14:42:43.993Z</time></trkpt><trkpt lat="30.250316835474667" lon="-5.799051952635783"><ele>715.0</ele><time>2026-03-24T14:42:44.993Z</time></trkpt><trkpt lat="30.250467808272283" lon="-5.799184937106057"><ele>715.0</ele><time>2026-03-24T14:42:45.993Z</time></trkpt><trkpt lat="30.250623119810818" lon="-5.79931231351309"><ele>715.0</ele><time>2026-03-24T14:42:46.993Z</time></trkpt><trkpt lat="30.250775356798954" lon="-5.799450741166423"><ele>715.0</ele><time>2026-03-24T14:42:47.993Z</time></trkpt><trkpt lat="30.250919362682406" lon="-5.799602095794034"><ele>715.0</ele><time>2026-03-24T14:42:48.993Z</time></trkpt><trkpt lat="30.2510723134516" lon="-5.799741038115132"><ele>715.0</ele><time>2026-03-24T14:42:49.993Z</time></trkpt><trkpt lat="30.25122482992567" lon="-5.7998769682858695"><ele>715.0</ele><time>2026-03-24T14:42:50.993Z</time></trkpt><trkpt lat="30.251373319323598" lon="-5.800021990551027"><ele>715.0</ele><time>2026-03-24T14:42:51.993Z</time></trkpt><trkpt lat="30.25151676056222" lon="-5.8001807446550115"><ele>715.0</ele><time>2026-03-24T14:42:52.993Z</time></trkpt><trkpt lat="30.251653603608762" lon="-5.800346427870224"><ele>715.0</ele><time>2026-03-24T14:42:53.993Z</time></trkpt><trkpt lat="30.25178558431962" lon="-5.80051512595953"><ele>715.0</ele><time>2026-03-24T14:42:54.993Z</time></trkpt><trkpt lat="30.25191726438483" lon="-5.800673497390823"><ele>715.0</ele><time>2026-03-24T14:42:55.993Z</time></trkpt><trkpt lat="30.2520604686698" lon="-5.800814736765227"><ele>715.0</ele><time>2026-03-24T14:42:56.993Z</time></trkpt><trkpt lat="30.252202529628587" lon="-5.800959062340539"><ele>715.0</ele><time>2026-03-24T14:42:57.993Z</time></trkpt><trkpt lat="30.252335368620415" lon="-5.801120495292297"><ele>715.0</ele><time>2026-03-24T14:42:58.993Z</time></trkpt><trkpt lat="30.252461240551675" lon="-5.80128069914193"><ele>715.0</ele><time>2026-03-24T14:42:59.993Z</time></trkpt><trkpt lat="30.2525848961329" lon="-5.801441731066747"><ele>715.0</ele><time>2026-03-24T14:43:00.993Z</time></trkpt><trkpt lat="30.252715535837105" lon="-5.801583175750059"><ele>715.0</ele><time>2026-03-24T14:43:01.993Z</time></trkpt><trkpt lat="30.252862913665666" lon="-5.8017053411584705"><ele>715.0</ele><time>2026-03-24T14:43:02.993Z</time></trkpt><trkpt lat="30.25301103735793" lon="-5.801839997042263"><ele>715.0</ele><time>2026-03-24T14:43:03.993Z</time></trkpt><trkpt lat="30.25314563673141" lon="-5.801978494562518"><ele>715.6666666666667</ele><time>2026-03-24T14:43:04.993Z</time></trkpt><trkpt lat="30.253277293685816" lon="-5.802106186192331"><ele>716.3333333333334</ele><time>2026-03-24T14:43:05.993Z</time></trkpt><trkpt lat="30.25341954006092" lon="-5.802217277789039"><ele>717.0</ele><time>2026-03-24T14:43:06.993Z</time></trkpt><trkpt lat="30.2535488311205" lon="-5.802341731620332"><ele>717.0</ele><time>2026-03-24T14:43:07.993Z</time></trkpt><trkpt lat="30.253676841242612" lon="-5.802483599377478"><ele>717.0</ele><time>2026-03-24T14:43:08.993Z</time></trkpt><trkpt lat="30.25380100246654" lon="-5.802642902719502"><ele>717.0</ele><time>2026-03-24T14:43:09.993Z</time></trkpt><trkpt lat="30.253914672086992" lon="-5.802814405551853"><ele>716.6666666666666</ele><time>2026-03-24T14:43:10.993Z</time></trkpt><trkpt lat="30.254029430274734" lon="-5.80298414110302"><ele>716.3333333333333</ele><time>2026-03-24T14:43:11.993Z</time></trkpt><trkpt lat="30.2541563616032" lon="-5.803152339466429"><ele>716.0</ele><time>2026-03-24T14:43:12.993Z</time></trkpt><trkpt lat="30.2542845704471" lon="-5.803317496007977"><ele>716.0</ele><time>2026-03-24T14:43:13.993Z</time></trkpt><trkpt lat="30.254406040401747" lon="-5.803485202448218"><ele>716.0</ele><time>2026-03-24T14:43:14.993Z</time></trkpt><trkpt lat="30.25452719744978" lon="-5.8036534630415755"><ele>716.0</ele><time>2026-03-24T14:43:15.993Z</time></trkpt><trkpt lat="30.254643159795503" lon="-5.803815068226257"><ele>716.0</ele><time>2026-03-24T14:43:16.993Z</time></trkpt><trkpt lat="30.254763057579932" lon="-5.803969618669278"><ele>716.0</ele><time>2026-03-24T14:43:17.993Z</time></trkpt><trkpt lat="30.254888780719252" lon="-5.8040899745585515"><ele>716.0</ele><time>2026-03-24T14:43:18.993Z</time></trkpt><trkpt lat="30.25502577667022" lon="-5.804203679574529"><ele>716.0</ele><time>2026-03-24T14:43:19.993Z</time></trkpt><trkpt lat="30.25515700861991" lon="-5.804318855883363"><ele>716.0</ele><time>2026-03-24T14:43:20.993Z</time></trkpt><trkpt lat="30.25527291672487" lon="-5.804452336988181"><ele>716.0</ele><time>2026-03-24T14:43:21.993Z</time></trkpt><trkpt lat="30.255381898435314" lon="-5.8045970872132475"><ele>716.0</ele><time>2026-03-24T14:43:22.993Z</time></trkpt><trkpt lat="30.255489859252776" lon="-5.80474431782031"><ele>716.0</ele><time>2026-03-24T14:43:23.993Z</time></trkpt><trkpt lat="30.255605926212404" lon="-5.804901623779525"><ele>716.0</ele><time>2026-03-24T14:43:24.993Z</time></trkpt><trkpt lat="30.25574024387735" lon="-5.805031463992684"><ele>716.0</ele><time>2026-03-24T14:43:25.993Z</time></trkpt><trkpt lat="30.255880841412225" lon="-5.80517881689647"><ele>716.0</ele><time>2026-03-24T14:43:26.993Z</time></trkpt><trkpt lat="30.256011883595047" lon="-5.805340642720281"><ele>716.0</ele><time>2026-03-24T14:43:27.993Z</time></trkpt><trkpt lat="30.25613579284576" lon="-5.805508189947143"><ele>716.0</ele><time>2026-03-24T14:43:28.993Z</time></trkpt><trkpt lat="30.256257667684935" lon="-5.8056708288322065"><ele>716.0</ele><time>2026-03-24T14:43:29.993Z</time></trkpt><trkpt lat="30.256376780777178" lon="-5.805827176877942"><ele>716.0</ele><time>2026-03-24T14:43:30.993Z</time></trkpt><trkpt lat="30.256496474674034" lon="-5.8059650378707115"><ele>716.0</ele><time>2026-03-24T14:43:31.993Z</time></trkpt><trkpt lat="30.256621201589603" lon="-5.806102585001197"><ele>716.0</ele><time>2026-03-24T14:43:32.993Z</time></trkpt><trkpt lat="30.256748544376606" lon="-5.806245915289096"><ele>716.0</ele><time>2026-03-24T14:43:33.993Z</time></trkpt><trkpt lat="30.256861049603504" lon="-5.80639379419893"><ele>716.0</ele><time>2026-03-24T14:43:34.993Z</time></trkpt><trkpt lat="30.256969954445886" lon="-5.806548084754298"><ele>716.0</ele><time>2026-03-24T14:43:35.993Z</time></trkpt><trkpt lat="30.25708474957524" lon="-5.806701792151544"><ele>716.0</ele><time>2026-03-24T14:43:36.993Z</time></trkpt><trkpt lat="30.257219938275924" lon="-5.806866322884311"><ele>716.3333333333333</ele><time>2026-03-24T14:43:37.993Z</time></trkpt><trkpt lat="30.257353820498746" lon="-5.80702541413369"><ele>716.6666666666666</ele><time>2026-03-24T14:43:38.993Z</time></trkpt><trkpt lat="30.25748204993325" lon="-5.807169615426067"><ele>717.0</ele><time>2026-03-24T14:43:39.993Z</time></trkpt><trkpt lat="30.257605669334218" lon="-5.807302295099909"><ele>717.0</ele><time>2026-03-24T14:43:40.993Z</time></trkpt><trkpt lat="30.257716658769617" lon="-5.807451049811106"><ele>717.0</ele><time>2026-03-24T14:43:41.993Z</time></trkpt><trkpt lat="30.25782587391273" lon="-5.80761950631004"><ele>717.0</ele><time>2026-03-24T14:43:42.993Z</time></trkpt><trkpt lat="30.257949830351578" lon="-5.807782569470735"><ele>717.0</ele><time>2026-03-24T14:43:43.993Z</time></trkpt><trkpt lat="30.258096729887765" lon="-5.807916412353572"><ele>717.0</ele><time>2026-03-24T14:43:44.993Z</time></trkpt><trkpt lat="30.258264470308244" lon="-5.8080670733817"><ele>717.0</ele><time>2026-03-24T14:43:45.993Z</time></trkpt><trkpt lat="30.25843546420336" lon="-5.808228982200304"><ele>717.0</ele><time>2026-03-24T14:43:46.993Z</time></trkpt><trkpt lat="30.25859021244053" lon="-5.808364127909558"><ele>717.0</ele><time>2026-03-24T14:43:47.993Z</time></trkpt><trkpt lat="30.258744520620475" lon="-5.808489802415084"><ele>717.0</ele><time>2026-03-24T14:43:48.993Z</time></trkpt><trkpt lat="30.258885092653426" lon="-5.808605320423208"><ele>718.0</ele><time>2026-03-24T14:43:49.994Z</time></trkpt><trkpt lat="30.259017758577844" lon="-5.808718742301319"><ele>719.0</ele><time>2026-03-24T14:43:50.994Z</time></trkpt><trkpt lat="30.259129902972123" lon="-5.8088369080451585"><ele>720.0</ele><time>2026-03-24T14:43:51.994Z</time></trkpt><trkpt lat="30.259234450705698" lon="-5.808968083343201"><ele>720.0</ele><time>2026-03-24T14:43:52.994Z</time></trkpt><trkpt lat="30.25935434157923" lon="-5.809089799752113"><ele>720.0</ele><time>2026-03-24T14:43:53.994Z</time></trkpt><trkpt lat="30.259477027065593" lon="-5.809201739674345"><ele>720.0</ele><time>2026-03-24T14:43:54.994Z</time></trkpt><trkpt lat="30.259580759886497" lon="-5.809331796965532"><ele>719.6666666666666</ele><time>2026-03-24T14:43:55.994Z</time></trkpt><trkpt lat="30.25968825701939" lon="-5.809472907621012"><ele>719.3333333333333</ele><time>2026-03-24T14:43:56.994Z</time></trkpt><trkpt lat="30.259804538359415" lon="-5.809586435027085"><ele>719.0</ele><time>2026-03-24T14:43:57.994Z</time></trkpt><trkpt lat="30.259924542303708" lon="-5.809681319523085"><ele>718.25</ele><time>2026-03-24T14:43:58.994Z</time></trkpt><trkpt lat="30.260045146773198" lon="-5.8097715459034465"><ele>717.5</ele><time>2026-03-24T14:43:59.994Z</time></trkpt><trkpt lat="30.26016033624191" lon="-5.8098775569993055"><ele>716.75</ele><time>2026-03-24T14:44:00.994Z</time></trkpt><trkpt lat="30.26026878735446" lon="-5.810008668035748"><ele>716.0</ele><time>2026-03-24T14:44:01.994Z</time></trkpt><trkpt lat="30.26038509601649" lon="-5.810159502298084"><ele>716.0</ele><time>2026-03-24T14:44:02.994Z</time></trkpt><trkpt lat="30.26048492399747" lon="-5.810305084155119"><ele>716.0</ele><time>2026-03-24T14:44:03.994Z</time></trkpt><trkpt lat="30.26057960938004" lon="-5.810444223484165"><ele>716.0</ele><time>2026-03-24T14:44:04.993Z</time></trkpt><trkpt lat="30.260679335379695" lon="-5.810568355084637"><ele>716.0</ele><time>2026-03-24T14:44:05.993Z</time></trkpt><trkpt lat="30.260780545565073" lon="-5.810686114947529"><ele>716.0</ele><time>2026-03-24T14:44:06.993Z</time></trkpt><trkpt lat="30.26088578349018" lon="-5.810800444717702"><ele>716.0</ele><time>2026-03-24T14:44:07.993Z</time></trkpt><trkpt lat="30.26100001466747" lon="-5.810914729512556"><ele>716.0</ele><time>2026-03-24T14:44:08.993Z</time></trkpt><trkpt lat="30.26112682804455" lon="-5.811034218614351"><ele>716.3333333333333</ele><time>2026-03-24T14:44:09.993Z</time></trkpt><trkpt lat="30.261266701978887" lon="-5.811157040127274"><ele>716.6666666666666</ele><time>2026-03-24T14:44:10.993Z</time></trkpt><trkpt lat="30.261413167961983" lon="-5.811270615820088"><ele>717.0</ele><time>2026-03-24T14:44:11.993Z</time></trkpt><trkpt lat="30.26156529575105" lon="-5.811365668780554"><ele>717.0</ele><time>2026-03-24T14:44:12.993Z</time></trkpt><trkpt lat="30.26170970539323" lon="-5.811460997979879"><ele>717.0</ele><time>2026-03-24T14:44:13.993Z</time></trkpt><trkpt lat="30.261839946363686" lon="-5.811572747980309"><ele>717.0</ele><time>2026-03-24T14:44:14.993Z</time></trkpt><trkpt lat="30.261970828759853" lon="-5.811694662400541"><ele>717.0</ele><time>2026-03-24T14:44:15.993Z</time></trkpt><trkpt lat="30.262108131615285" lon="-5.811806815684552"><ele>717.0</ele><time>2026-03-24T14:44:16.993Z</time></trkpt><trkpt lat="30.262245326067664" lon="-5.811922314637314"><ele>717.0</ele><time>2026-03-24T14:44:17.993Z</time></trkpt><trkpt lat="30.262385324128825" lon="-5.812049134215659"><ele>717.6666666666666</ele><time>2026-03-24T14:44:18.993Z</time></trkpt><trkpt lat="30.262534090777084" lon="-5.812180420449833"><ele>718.3333333333333</ele><time>2026-03-24T14:44:19.993Z</time></trkpt><trkpt lat="30.262675310899244" lon="-5.812308334190097"><ele>719.0</ele><time>2026-03-24T14:44:20.993Z</time></trkpt><trkpt lat="30.262804237875734" lon="-5.812435346198298"><ele>719.0</ele><time>2026-03-24T14:44:21.993Z</time></trkpt><trkpt lat="30.262933633895752" lon="-5.812563945772837"><ele>719.0</ele><time>2026-03-24T14:44:22.993Z</time></trkpt><trkpt lat="30.263059685819517" lon="-5.812678221711254"><ele>719.0</ele><time>2026-03-24T14:44:23.993Z</time></trkpt><trkpt lat="30.26319738435291" lon="-5.8127792097593804"><ele>719.6666666666666</ele><time>2026-03-24T14:44:24.993Z</time></trkpt><trkpt lat="30.263349196801748" lon="-5.812860121360005"><ele>720.3333333333334</ele><time>2026-03-24T14:44:25.993Z</time></trkpt><trkpt lat="30.263508153362444" lon="-5.812923447924172"><ele>721.0</ele><time>2026-03-24T14:44:26.993Z</time></trkpt><trkpt lat="30.263669402257108" lon="-5.812983692474479"><ele>721.0</ele><time>2026-03-24T14:44:27.993Z</time></trkpt><trkpt lat="30.263827919926577" lon="-5.813055574334235"><ele>721.0</ele><time>2026-03-24T14:44:28.993Z</time></trkpt><trkpt lat="30.26398311330729" lon="-5.813140099992248"><ele>721.0</ele><time>2026-03-24T14:44:29.993Z</time></trkpt><trkpt lat="30.264141036611367" lon="-5.813239420541836"><ele>721.0</ele><time>2026-03-24T14:44:30.993Z</time></trkpt><trkpt lat="30.2642982154317" lon="-5.813340100516642"><ele>721.0</ele><time>2026-03-24T14:44:31.993Z</time></trkpt><trkpt lat="30.26445658687791" lon="-5.813435011526643"><ele>721.0</ele><time>2026-03-24T14:44:32.993Z</time></trkpt><trkpt lat="30.26460755466175" lon="-5.813515300012677"><ele>721.0</ele><time>2026-03-24T14:44:33.993Z</time></trkpt><trkpt lat="30.264754957086364" lon="-5.81358638144173"><ele>721.0</ele><time>2026-03-24T14:44:34.993Z</time></trkpt><trkpt lat="30.264903714921466" lon="-5.813654451830824"><ele>721.0</ele><time>2026-03-24T14:44:35.993Z</time></trkpt><trkpt lat="30.265046816512008" lon="-5.813728989879412"><ele>721.3333333333334</ele><time>2026-03-24T14:44:36.993Z</time></trkpt><trkpt lat="30.265182279376628" lon="-5.813824160509325"><ele>721.6666666666666</ele><time>2026-03-24T14:44:37.993Z</time></trkpt><trkpt lat="30.265321595747302" lon="-5.813914185493927"><ele>722.0</ele><time>2026-03-24T14:44:38.993Z</time></trkpt><trkpt lat="30.26546298583711" lon="-5.813994046954422"><ele>722.0</ele><time>2026-03-24T14:44:39.993Z</time></trkpt><trkpt lat="30.265608040884054" lon="-5.814062298394466"><ele>722.0</ele><time>2026-03-24T14:44:40.993Z</time></trkpt><trkpt lat="30.26575270602797" lon="-5.814116649207303"><ele>722.0</ele><time>2026-03-24T14:44:41.993Z</time></trkpt><trkpt lat="30.265906467324122" lon="-5.814173127492587"><ele>722.3333333333333</ele><time>2026-03-24T14:44:42.993Z</time></trkpt><trkpt lat="30.266064041435257" lon="-5.814218544355443"><ele>722.6666666666666</ele><time>2026-03-24T14:44:43.993Z</time></trkpt><trkpt lat="30.266227032872667" lon="-5.814258929094498"><ele>723.0</ele><time>2026-03-24T14:44:44.993Z</time></trkpt><trkpt lat="30.266386268720535" lon="-5.8143023317680305"><ele>722.0</ele><time>2026-03-24T14:44:45.993Z</time></trkpt><trkpt lat="30.266544359290485" lon="-5.814331033316906"><ele>721.0</ele><time>2026-03-24T14:44:46.993Z</time></trkpt><trkpt lat="30.26671062964232" lon="-5.814360750911846"><ele>720.0</ele><time>2026-03-24T14:44:47.993Z</time></trkpt><trkpt lat="30.266872952307203" lon="-5.814395986006345"><ele>720.0</ele><time>2026-03-24T14:44:48.993Z</time></trkpt><trkpt lat="30.267034911680202" lon="-5.814435829439685"><ele>720.0</ele><time>2026-03-24T14:44:49.993Z</time></trkpt><trkpt lat="30.267179821010348" lon="-5.814469150979251"><ele>720.0</ele><time>2026-03-24T14:44:50.993Z</time></trkpt><trkpt lat="30.267306970882863" lon="-5.814495035260287"><ele>720.0</ele><time>2026-03-24T14:44:51.993Z</time></trkpt><trkpt lat="30.26742817159126" lon="-5.814516689336056"><ele>720.5</ele><time>2026-03-24T14:44:52.993Z</time></trkpt><trkpt lat="30.267535594208795" lon="-5.81455603173875"><ele>721.0</ele><time>2026-03-24T14:44:53.993Z</time></trkpt><trkpt lat="30.2676337003126" lon="-5.814619067119679"><ele>721.5</ele><time>2026-03-24T14:44:54.993Z</time></trkpt><trkpt lat="30.26771588304726" lon="-5.814703063743715"><ele>722.0</ele><time>2026-03-24T14:44:55.993Z</time></trkpt><trkpt lat="30.26779940425191" lon="-5.8148030131781585"><ele>722.0</ele><time>2026-03-24T14:44:56.993Z</time></trkpt><trkpt lat="30.267859858789237" lon="-5.814915322930848"><ele>722.0</ele><time>2026-03-24T14:44:57.993Z</time></trkpt><trkpt lat="30.267897722046776" lon="-5.815038564909897"><ele>722.0</ele><time>2026-03-24T14:44:58.993Z</time></trkpt><trkpt lat="30.26792045888693" lon="-5.81518011547607"><ele>722.0</ele><time>2026-03-24T14:44:59.993Z</time></trkpt><trkpt lat="30.26793883233269" lon="-5.815342158336253"><ele>722.0</ele><time>2026-03-24T14:45:00.993Z</time></trkpt><trkpt lat="30.267967376732454" lon="-5.815504214413268"><ele>722.0</ele><time>2026-03-24T14:45:01.993Z</time></trkpt><trkpt lat="30.26800630218884" lon="-5.815655224901492"><ele>722.0</ele><time>2026-03-24T14:45:02.993Z</time></trkpt><trkpt lat="30.268048858880846" lon="-5.815810524575356"><ele>722.0</ele><time>2026-03-24T14:45:03.993Z</time></trkpt><trkpt lat="30.26809695337556" lon="-5.815974220994606"><ele>722.0</ele><time>2026-03-24T14:45:04.993Z</time></trkpt><trkpt lat="30.268147467891936" lon="-5.8161434715594975"><ele>722.0</ele><time>2026-03-24T14:45:05.993Z</time></trkpt><trkpt lat="30.26819138846416" lon="-5.816306566382399"><ele>722.0</ele><time>2026-03-24T14:45:06.993Z</time></trkpt><trkpt lat="30.268226894249374" lon="-5.816485510789521"><ele>722.0</ele><time>2026-03-24T14:45:07.993Z</time></trkpt><trkpt lat="30.26825764905943" lon="-5.816671066261377"><ele>722.0</ele><time>2026-03-24T14:45:08.993Z</time></trkpt><trkpt lat="30.268292491554863" lon="-5.816861884932594"><ele>722.0</ele><time>2026-03-24T14:45:09.993Z</time></trkpt><trkpt lat="30.26833325226321" lon="-5.817041631534748"><ele>722.6666666666666</ele><time>2026-03-24T14:45:10.993Z</time></trkpt><trkpt lat="30.268382468914574" lon="-5.817225180257978"><ele>723.3333333333334</ele><time>2026-03-24T14:45:11.993Z</time></trkpt><trkpt lat="30.268431286670197" lon="-5.817405281776362"><ele>724.0</ele><time>2026-03-24T14:45:12.993Z</time></trkpt><trkpt lat="30.268483219179974" lon="-5.817583900294382"><ele>724.0</ele><time>2026-03-24T14:45:13.993Z</time></trkpt><trkpt lat="30.268538574011497" lon="-5.817763893267705"><ele>724.0</ele><time>2026-03-24T14:45:14.993Z</time></trkpt><trkpt lat="30.268599870388293" lon="-5.817942705563282"><ele>724.0</ele><time>2026-03-24T14:45:15.993Z</time></trkpt><trkpt lat="30.268663378835186" lon="-5.8181196914443145"><ele>724.0</ele><time>2026-03-24T14:45:16.993Z</time></trkpt><trkpt lat="30.268726934397634" lon="-5.818295763270085"><ele>724.0</ele><time>2026-03-24T14:45:17.993Z</time></trkpt><trkpt lat="30.268783683298583" lon="-5.8184860555101565"><ele>724.0</ele><time>2026-03-24T14:45:18.993Z</time></trkpt><trkpt lat="30.26883271406642" lon="-5.818690776563262"><ele>723.6666666666667</ele><time>2026-03-24T14:45:19.993Z</time></trkpt><trkpt lat="30.26886951159211" lon="-5.818895024338948"><ele>723.3333333333334</ele><time>2026-03-24T14:45:20.993Z</time></trkpt><trkpt lat="30.268893709435527" lon="-5.819098853402297"><ele>723.0</ele><time>2026-03-24T14:45:21.993Z</time></trkpt><trkpt lat="30.268928640326898" lon="-5.819288705614099"><ele>722.0</ele><time>2026-03-24T14:45:22.993Z</time></trkpt><trkpt lat="30.26898040576766" lon="-5.819475534325577"><ele>721.0</ele><time>2026-03-24T14:45:23.993Z</time></trkpt><trkpt lat="30.26903804883547" lon="-5.819647377400994"><ele>720.0</ele><time>2026-03-24T14:45:24.993Z</time></trkpt><trkpt lat="30.26909933449221" lon="-5.819813908187756"><ele>720.0</ele><time>2026-03-24T14:45:25.993Z</time></trkpt><trkpt lat="30.26916122611301" lon="-5.819981802366682"><ele>720.0</ele><time>2026-03-24T14:45:26.993Z</time></trkpt><trkpt lat="30.26922696978051" lon="-5.820147930355641"><ele>720.0</ele><time>2026-03-24T14:45:27.993Z</time></trkpt><trkpt lat="30.269290893573267" lon="-5.820329975816119"><ele>720.6666666666666</ele><time>2026-03-24T14:45:28.993Z</time></trkpt><trkpt lat="30.269336125128003" lon="-5.820501773840487"><ele>721.3333333333333</ele><time>2026-03-24T14:45:29.993Z</time></trkpt><trkpt lat="30.26936893288735" lon="-5.820669133603373"><ele>722.0</ele><time>2026-03-24T14:45:30.993Z</time></trkpt><trkpt lat="30.26940537146742" lon="-5.820834408417695"><ele>722.6666666666666</ele><time>2026-03-24T14:45:31.993Z</time></trkpt><trkpt lat="30.26945513511758" lon="-5.820992917006561"><ele>723.3333333333334</ele><time>2026-03-24T14:45:32.993Z</time></trkpt><trkpt lat="30.269491365407614" lon="-5.821164363352902"><ele>724.0</ele><time>2026-03-24T14:45:33.993Z</time></trkpt><trkpt lat="30.26952693351918" lon="-5.821349338743839"><ele>724.0</ele><time>2026-03-24T14:45:34.993Z</time></trkpt><trkpt lat="30.269581524847744" lon="-5.821528766313193"><ele>724.0</ele><time>2026-03-24T14:45:35.993Z</time></trkpt><trkpt lat="30.2696235423287" lon="-5.821691647972258"><ele>724.0</ele><time>2026-03-24T14:45:36.993Z</time></trkpt><trkpt lat="30.26965439548761" lon="-5.821846220138944"><ele>724.0</ele><time>2026-03-24T14:45:37.993Z</time></trkpt><trkpt lat="30.26968800784403" lon="-5.82198508800446"><ele>723.5</ele><time>2026-03-24T14:45:38.993Z</time></trkpt><trkpt lat="30.269726601424644" lon="-5.822114975027712"><ele>723.0</ele><time>2026-03-24T14:45:39.993Z</time></trkpt><trkpt lat="30.26976299582956" lon="-5.822240752925243"><ele>722.5</ele><time>2026-03-24T14:45:40.993Z</time></trkpt><trkpt lat="30.269800803490817" lon="-5.822365918092894"><ele>722.0</ele><time>2026-03-24T14:45:41.993Z</time></trkpt><trkpt lat="30.269845496085352" lon="-5.8225002448646785"><ele>722.0</ele><time>2026-03-24T14:45:42.994Z</time></trkpt><trkpt lat="30.2698808224955" lon="-5.822643726332241"><ele>722.0</ele><time>2026-03-24T14:45:43.994Z</time></trkpt><trkpt lat="30.269919905079743" lon="-5.8227890512761125"><ele>722.0</ele><time>2026-03-24T14:45:44.994Z</time></trkpt><trkpt lat="30.269967854223616" lon="-5.822944318562656"><ele>722.0</ele><time>2026-03-24T14:45:45.994Z</time></trkpt><trkpt lat="30.270010300799967" lon="-5.823115301266929"><ele>721.75</ele><time>2026-03-24T14:45:46.994Z</time></trkpt><trkpt lat="30.270039891284657" lon="-5.823296468104805"><ele>721.5</ele><time>2026-03-24T14:45:47.994Z</time></trkpt><trkpt lat="30.2700615630864" lon="-5.8234701803076545"><ele>721.25</ele><time>2026-03-24T14:45:48.994Z</time></trkpt><trkpt lat="30.270078170356506" lon="-5.823623703641774"><ele>721.0</ele><time>2026-03-24T14:45:49.994Z</time></trkpt><trkpt lat="30.270083777903025" lon="-5.823776993559743"><ele>721.0</ele><time>2026-03-24T14:45:50.994Z</time></trkpt><trkpt lat="30.270084471594036" lon="-5.823920448614731"><ele>721.0</ele><time>2026-03-24T14:45:51.994Z</time></trkpt><trkpt lat="30.270084937418794" lon="-5.824071619426087"><ele>721.0</ele><time>2026-03-24T14:45:52.994Z</time></trkpt><trkpt lat="30.270086477211834" lon="-5.824214755826438"><ele>721.0</ele><time>2026-03-24T14:45:53.994Z</time></trkpt><trkpt lat="30.270083326007605" lon="-5.824365622388295"><ele>721.0</ele><time>2026-03-24T14:45:54.994Z</time></trkpt><trkpt lat="30.27008107767746" lon="-5.8245053680350845"><ele>721.0</ele><time>2026-03-24T14:45:55.994Z</time></trkpt><trkpt lat="30.270078050242073" lon="-5.824637076742169"><ele>721.0</ele><time>2026-03-24T14:45:56.994Z</time></trkpt><trkpt lat="30.270096630824533" lon="-5.824746906732139"><ele>721.0</ele><time>2026-03-24T14:45:57.994Z</time></trkpt><trkpt lat="30.270131670602865" lon="-5.824830295100843"><ele>721.0</ele><time>2026-03-24T14:45:58.994Z</time></trkpt><trkpt lat="30.270166838322055" lon="-5.824898043919378"><ele>721.0</ele><time>2026-03-24T14:45:59.994Z</time></trkpt><trkpt lat="30.270223847957993" lon="-5.824993408925264"><ele>721.0</ele><time>2026-03-24T14:46:01.994Z</time></trkpt><trkpt lat="30.270268225098448" lon="-5.825050886820066"><ele>721.0</ele><time>2026-03-24T14:46:03.994Z</time></trkpt><trkpt lat="30.27030634210853" lon="-5.8251197703777535"><ele>721.0</ele><time>2026-03-24T14:46:07.994Z</time></trkpt><trkpt lat="30.27036523081847" lon="-5.825213194626262"><ele>721.0</ele><time>2026-03-24T14:48:56.989Z</time></trkpt><trkpt lat="30.270432149686396" lon="-5.825331821331887"><ele>721.5</ele><time>2026-03-24T14:48:58.989Z</time></trkpt><trkpt lat="30.27047374038672" lon="-5.825402037580163"><ele>722.0</ele><time>2026-03-24T14:48:59.988Z</time></trkpt><trkpt lat="30.270520736144263" lon="-5.825495239305283"><ele>722.5</ele><time>2026-03-24T14:49:00.988Z</time></trkpt><trkpt lat="30.270597465054827" lon="-5.8256313632877585"><ele>723.0</ele><time>2026-03-24T14:49:01.988Z</time></trkpt><trkpt lat="30.270687391061944" lon="-5.82579848183279"><ele>723.0</ele><time>2026-03-24T14:49:02.987Z</time></trkpt><trkpt lat="30.27078367228005" lon="-5.82597544788808"><ele>723.0</ele><time>2026-03-24T14:49:03.987Z</time></trkpt><trkpt lat="30.27088038635229" lon="-5.82614397981576"><ele>723.0</ele><time>2026-03-24T14:49:04.987Z</time></trkpt><trkpt lat="30.270965359770063" lon="-5.826300244201223"><ele>723.0</ele><time>2026-03-24T14:49:05.987Z</time></trkpt><trkpt lat="30.271047871480047" lon="-5.826454381085638"><ele>723.0</ele><time>2026-03-24T14:49:06.986Z</time></trkpt><trkpt lat="30.27112694598255" lon="-5.826590792563522"><ele>723.0</ele><time>2026-03-24T14:49:07.986Z</time></trkpt><trkpt lat="30.271192587784736" lon="-5.826721428296901"><ele>723.0</ele><time>2026-03-24T14:49:08.986Z</time></trkpt><trkpt lat="30.271254994381028" lon="-5.826837175634833"><ele>723.0</ele><time>2026-03-24T14:49:09.986Z</time></trkpt><trkpt lat="30.271313379805346" lon="-5.826955381379366"><ele>723.0</ele><time>2026-03-24T14:49:10.986Z</time></trkpt><trkpt lat="30.271377160237027" lon="-5.82707698497876"><ele>723.0</ele><time>2026-03-24T14:49:11.986Z</time></trkpt><trkpt lat="30.271447948732906" lon="-5.827196819004022"><ele>723.0</ele><time>2026-03-24T14:49:12.985Z</time></trkpt><trkpt lat="30.27152431155387" lon="-5.827315721058381"><ele>723.0</ele><time>2026-03-24T14:49:13.985Z</time></trkpt><trkpt lat="30.2716108121586" lon="-5.82742585188541"><ele>723.0</ele><time>2026-03-24T14:49:14.985Z</time></trkpt><trkpt lat="30.27169605994775" lon="-5.827519834692999"><ele>723.0</ele><time>2026-03-24T14:49:15.985Z</time></trkpt><trkpt lat="30.271793511745894" lon="-5.827605939552623"><ele>723.0</ele><time>2026-03-24T14:49:16.985Z</time></trkpt><trkpt lat="30.27190562935105" lon="-5.827680732939769"><ele>723.0</ele><time>2026-03-24T14:49:17.985Z</time></trkpt><trkpt lat="30.272021219014817" lon="-5.82775891402096"><ele>723.0</ele><time>2026-03-24T14:49:18.985Z</time></trkpt><trkpt lat="30.27214679257415" lon="-5.82782439063057"><ele>723.0</ele><time>2026-03-24T14:49:19.985Z</time></trkpt><trkpt lat="30.272270213897933" lon="-5.827888963078252"><ele>723.0</ele><time>2026-03-24T14:49:20.985Z</time></trkpt><trkpt lat="30.272400227498586" lon="-5.827957745370347"><ele>723.0</ele><time>2026-03-24T14:49:21.984Z</time></trkpt><trkpt lat="30.272536370972173" lon="-5.828026614187708"><ele>723.0</ele><time>2026-03-24T14:49:22.984Z</time></trkpt><trkpt lat="30.272676439494926" lon="-5.828092020716524"><ele>723.0</ele><time>2026-03-24T14:49:23.984Z</time></trkpt><trkpt lat="30.272814239833803" lon="-5.828156427239879"><ele>723.0</ele><time>2026-03-24T14:49:24.984Z</time></trkpt><trkpt lat="30.272951640945255" lon="-5.8282207290004395"><ele>723.0</ele><time>2026-03-24T14:49:25.984Z</time></trkpt><trkpt lat="30.273090935746723" lon="-5.828281744024865"><ele>723.0</ele><time>2026-03-24T14:49:26.984Z</time></trkpt><trkpt lat="30.273229934280135" lon="-5.828338207073033"><ele>723.0</ele><time>2026-03-24T14:49:27.984Z</time></trkpt><trkpt lat="30.27337138318753" lon="-5.8283830906427685"><ele>723.0</ele><time>2026-03-24T14:49:28.984Z</time></trkpt><trkpt lat="30.27351199979591" lon="-5.828431879180295"><ele>722.6666666666666</ele><time>2026-03-24T14:49:29.984Z</time></trkpt><trkpt lat="30.273650333456686" lon="-5.828483377431832"><ele>722.3333333333333</ele><time>2026-03-24T14:49:30.984Z</time></trkpt><trkpt lat="30.273793900996644" lon="-5.828555271322644"><ele>722.0</ele><time>2026-03-24T14:49:31.984Z</time></trkpt><trkpt lat="30.27393003842708" lon="-5.828639056690611"><ele>722.6666666666666</ele><time>2026-03-24T14:49:32.984Z</time></trkpt><trkpt lat="30.274070331808534" lon="-5.82872397330615"><ele>723.3333333333334</ele><time>2026-03-24T14:49:33.984Z</time></trkpt><trkpt lat="30.274232060376384" lon="-5.828789470176285"><ele>724.0</ele><time>2026-03-24T14:49:34.984Z</time></trkpt><trkpt lat="30.27439525901751" lon="-5.828850601353744"><ele>724.0</ele><time>2026-03-24T14:49:35.984Z</time></trkpt><trkpt lat="30.274553621731254" lon="-5.828916954020323"><ele>724.0</ele><time>2026-03-24T14:49:36.984Z</time></trkpt><trkpt lat="30.27471193431378" lon="-5.8289911498187035"><ele>724.0</ele><time>2026-03-24T14:49:37.984Z</time></trkpt><trkpt lat="30.274865912562156" lon="-5.829069910095766"><ele>724.6666666666667</ele><time>2026-03-24T14:49:38.984Z</time></trkpt><trkpt lat="30.275020242198497" lon="-5.829157082608597"><ele>725.3333333333334</ele><time>2026-03-24T14:49:39.984Z</time></trkpt><trkpt lat="30.27516820923561" lon="-5.829262203096131"><ele>726.0</ele><time>2026-03-24T14:49:40.984Z</time></trkpt><trkpt lat="30.275319371205104" lon="-5.8293685392305745"><ele>726.0</ele><time>2026-03-24T14:49:41.984Z</time></trkpt><trkpt lat="30.27546034665111" lon="-5.829477847881399"><ele>726.0</ele><time>2026-03-24T14:49:42.984Z</time></trkpt><trkpt lat="30.275593405890174" lon="-5.829588331003433"><ele>726.0</ele><time>2026-03-24T14:49:43.983Z</time></trkpt><trkpt lat="30.27571831634508" lon="-5.8297056135902805"><ele>726.0</ele><time>2026-03-24T14:49:44.983Z</time></trkpt><trkpt lat="30.27583990895331" lon="-5.829827482545246"><ele>726.0</ele><time>2026-03-24T14:49:45.983Z</time></trkpt><trkpt lat="30.275961723404507" lon="-5.829948248298601"><ele>726.0</ele><time>2026-03-24T14:49:46.983Z</time></trkpt><trkpt lat="30.276089192596707" lon="-5.830057466480508"><ele>725.75</ele><time>2026-03-24T14:49:47.983Z</time></trkpt><trkpt lat="30.276212423022113" lon="-5.830143822433127"><ele>725.5</ele><time>2026-03-24T14:49:48.983Z</time></trkpt><trkpt lat="30.27634104150995" lon="-5.830238039046996"><ele>725.25</ele><time>2026-03-24T14:49:49.983Z</time></trkpt><trkpt lat="30.276465982537758" lon="-5.83033955700741"><ele>725.0</ele><time>2026-03-24T14:49:50.983Z</time></trkpt><trkpt lat="30.27659268390285" lon="-5.83043331310454"><ele>725.0</ele><time>2026-03-24T14:49:51.983Z</time></trkpt><trkpt lat="30.2767207230238" lon="-5.83051505195959"><ele>725.0</ele><time>2026-03-24T14:49:52.983Z</time></trkpt><trkpt lat="30.27684774866772" lon="-5.830590427138743"><ele>725.0</ele><time>2026-03-24T14:49:53.983Z</time></trkpt><trkpt lat="30.27697215773732" lon="-5.830672235417801"><ele>725.0</ele><time>2026-03-24T14:49:54.983Z</time></trkpt><trkpt lat="30.2770935327027" lon="-5.83076005329406"><ele>725.0</ele><time>2026-03-24T14:49:55.983Z</time></trkpt><trkpt lat="30.277213423934075" lon="-5.830847526333708"><ele>725.0</ele><time>2026-03-24T14:49:56.983Z</time></trkpt><trkpt lat="30.2773409804084" lon="-5.830931243055904"><ele>725.0</ele><time>2026-03-24T14:49:57.983Z</time></trkpt><trkpt lat="30.27747274097795" lon="-5.831007195129295"><ele>725.0</ele><time>2026-03-24T14:49:58.983Z</time></trkpt><trkpt lat="30.277602892588177" lon="-5.831077265301175"><ele>725.6666666666666</ele><time>2026-03-24T14:49:59.983Z</time></trkpt><trkpt lat="30.2777366001271" lon="-5.831152108428043"><ele>726.3333333333334</ele><time>2026-03-24T14:50:00.983Z</time></trkpt><trkpt lat="30.277874086603504" lon="-5.83123203924512"><ele>727.0</ele><time>2026-03-24T14:50:01.983Z</time></trkpt><trkpt lat="30.278016176361437" lon="-5.831325024642589"><ele>726.3333333333334</ele><time>2026-03-24T14:50:02.983Z</time></trkpt><trkpt lat="30.278152157152945" lon="-5.831429076874793"><ele>725.6666666666666</ele><time>2026-03-24T14:50:03.983Z</time></trkpt><trkpt lat="30.278283121469592" lon="-5.831537516276735"><ele>725.0</ele><time>2026-03-24T14:50:04.983Z</time></trkpt><trkpt lat="30.27841491405928" lon="-5.831648744117042"><ele>725.0</ele><time>2026-03-24T14:50:05.983Z</time></trkpt><trkpt lat="30.278548258480416" lon="-5.831759654376362"><ele>725.0</ele><time>2026-03-24T14:50:06.983Z</time></trkpt><trkpt lat="30.278677919883418" lon="-5.831877164903453"><ele>725.0</ele><time>2026-03-24T14:50:07.983Z</time></trkpt><trkpt lat="30.278804039159475" lon="-5.832002268969942"><ele>724.6666666666666</ele><time>2026-03-24T14:50:08.983Z</time></trkpt><trkpt lat="30.278928359190477" lon="-5.832127579256937"><ele>724.3333333333334</ele><time>2026-03-24T14:50:09.983Z</time></trkpt><trkpt lat="30.279051712143286" lon="-5.8322594021428715"><ele>724.0</ele><time>2026-03-24T14:50:10.983Z</time></trkpt><trkpt lat="30.27917135172202" lon="-5.832395486878372"><ele>724.0</ele><time>2026-03-24T14:50:11.983Z</time></trkpt><trkpt lat="30.279294217955933" lon="-5.83252589104396"><ele>724.0</ele><time>2026-03-24T14:50:12.983Z</time></trkpt><trkpt lat="30.279419951165277" lon="-5.832644423799817"><ele>724.0</ele><time>2026-03-24T14:50:13.983Z</time></trkpt><trkpt lat="30.27955011475694" lon="-5.832755709652519"><ele>724.0</ele><time>2026-03-24T14:50:14.983Z</time></trkpt><trkpt lat="30.279680035765008" lon="-5.832861554678685"><ele>724.0</ele><time>2026-03-24T14:50:15.983Z</time></trkpt><trkpt lat="30.27980954961093" lon="-5.832962531255923"><ele>724.0</ele><time>2026-03-24T14:50:16.983Z</time></trkpt><trkpt lat="30.279945623762156" lon="-5.833050040346274"><ele>724.0</ele><time>2026-03-24T14:50:17.983Z</time></trkpt><trkpt lat="30.280093913935147" lon="-5.8331261394967395"><ele>724.0</ele><time>2026-03-24T14:50:18.983Z</time></trkpt><trkpt lat="30.280254612284885" lon="-5.833185506866189"><ele>724.0</ele><time>2026-03-24T14:50:19.983Z</time></trkpt><trkpt lat="30.28041606111725" lon="-5.833247034617329"><ele>724.0</ele><time>2026-03-24T14:50:20.983Z</time></trkpt><trkpt lat="30.280573053802257" lon="-5.8333216773535606"><ele>724.0</ele><time>2026-03-24T14:50:21.983Z</time></trkpt><trkpt lat="30.28073303819331" lon="-5.833393700017452"><ele>724.0</ele><time>2026-03-24T14:50:22.983Z</time></trkpt><trkpt lat="30.280891344937235" lon="-5.833457732771777"><ele>724.3333333333334</ele><time>2026-03-24T14:50:23.982Z</time></trkpt><trkpt lat="30.28105562032427" lon="-5.8335235298648165"><ele>724.6666666666666</ele><time>2026-03-24T14:50:24.982Z</time></trkpt><trkpt lat="30.281216516663125" lon="-5.833593745899134"><ele>725.0</ele><time>2026-03-24T14:50:25.983Z</time></trkpt><trkpt lat="30.281377317928907" lon="-5.833670260738221"><ele>725.6666666666666</ele><time>2026-03-24T14:50:26.983Z</time></trkpt><trkpt lat="30.281542464306387" lon="-5.833748651241181"><ele>726.3333333333334</ele><time>2026-03-24T14:50:27.983Z</time></trkpt><trkpt lat="30.281707758298985" lon="-5.833824335221157"><ele>727.0</ele><time>2026-03-24T14:50:28.983Z</time></trkpt><trkpt lat="30.281866618729364" lon="-5.833896335280572"><ele>727.0</ele><time>2026-03-24T14:50:29.982Z</time></trkpt><trkpt lat="30.282031970728145" lon="-5.833969913011832"><ele>727.0</ele><time>2026-03-24T14:50:30.982Z</time></trkpt><trkpt lat="30.282195506359656" lon="-5.834034744854263"><ele>727.0</ele><time>2026-03-24T14:50:31.982Z</time></trkpt><trkpt lat="30.282362086932462" lon="-5.834097754374083"><ele>727.0</ele><time>2026-03-24T14:50:32.983Z</time></trkpt><trkpt lat="30.282525978120788" lon="-5.834160466460437"><ele>727.0</ele><time>2026-03-24T14:50:33.983Z</time></trkpt><trkpt lat="30.28268134017849" lon="-5.834224126806966"><ele>727.0</ele><time>2026-03-24T14:50:34.982Z</time></trkpt><trkpt lat="30.2828216813817" lon="-5.834292474958624"><ele>726.6666666666667</ele><time>2026-03-24T14:50:35.983Z</time></trkpt><trkpt lat="30.28295395338768" lon="-5.834374408022629"><ele>726.3333333333334</ele><time>2026-03-24T14:50:36.983Z</time></trkpt><trkpt lat="30.283073220948282" lon="-5.834469512967297"><ele>726.0</ele><time>2026-03-24T14:50:37.983Z</time></trkpt><trkpt lat="30.283196089109406" lon="-5.834579898558609"><ele>726.0</ele><time>2026-03-24T14:50:38.983Z</time></trkpt><trkpt lat="30.283320577067702" lon="-5.83468810098782"><ele>726.0</ele><time>2026-03-24T14:50:39.983Z</time></trkpt><trkpt lat="30.283442282343803" lon="-5.8347971146243065"><ele>726.0</ele><time>2026-03-24T14:50:40.983Z</time></trkpt><trkpt lat="30.28356494248695" lon="-5.834899513606587"><ele>726.0</ele><time>2026-03-24T14:50:41.983Z</time></trkpt><trkpt lat="30.283685667981135" lon="-5.835017172159081"><ele>726.0</ele><time>2026-03-24T14:50:42.983Z</time></trkpt><trkpt lat="30.283804856108063" lon="-5.835130875657293"><ele>726.0</ele><time>2026-03-24T14:50:43.983Z</time></trkpt><trkpt lat="30.283922050639365" lon="-5.835232540012935"><ele>726.0</ele><time>2026-03-24T14:50:44.983Z</time></trkpt><trkpt lat="30.284054644995784" lon="-5.835345611202045"><ele>726.0</ele><time>2026-03-24T14:50:45.983Z</time></trkpt><trkpt lat="30.284187492969146" lon="-5.835442262973115"><ele>726.0</ele><time>2026-03-24T14:50:46.983Z</time></trkpt><trkpt lat="30.28432384510019" lon="-5.8355437733907545"><ele>726.0</ele><time>2026-03-24T14:50:47.983Z</time></trkpt><trkpt lat="30.284469922872912" lon="-5.835640644144783"><ele>726.0</ele><time>2026-03-24T14:50:48.983Z</time></trkpt><trkpt lat="30.28461836992013" lon="-5.8357483706449536"><ele>726.0</ele><time>2026-03-24T14:50:49.983Z</time></trkpt><trkpt lat="30.284767096214654" lon="-5.835855430607689"><ele>726.0</ele><time>2026-03-24T14:50:50.983Z</time></trkpt><trkpt lat="30.284917690367624" lon="-5.8359586224579205"><ele>726.0</ele><time>2026-03-24T14:50:51.983Z</time></trkpt><trkpt lat="30.285069731725407" lon="-5.836056042240813"><ele>726.0</ele><time>2026-03-24T14:50:52.983Z</time></trkpt><trkpt lat="30.285220383325544" lon="-5.836165497776849"><ele>725.6666666666666</ele><time>2026-03-24T14:50:53.983Z</time></trkpt><trkpt lat="30.28536847591364" lon="-5.836283689601788"><ele>725.3333333333333</ele><time>2026-03-24T14:50:54.983Z</time></trkpt><trkpt lat="30.285515792088468" lon="-5.836403642133743"><ele>725.0</ele><time>2026-03-24T14:50:55.983Z</time></trkpt><trkpt lat="30.285665105666013" lon="-5.836525645215229"><ele>725.0</ele><time>2026-03-24T14:50:56.983Z</time></trkpt><trkpt lat="30.285815304595943" lon="-5.836656396893075"><ele>725.0</ele><time>2026-03-24T14:50:57.983Z</time></trkpt><trkpt lat="30.2859646747453" lon="-5.836785771357326"><ele>725.0</ele><time>2026-03-24T14:50:58.983Z</time></trkpt><trkpt lat="30.286108978224984" lon="-5.8368963150296915"><ele>725.0</ele><time>2026-03-24T14:50:59.983Z</time></trkpt><trkpt lat="30.286250487110156" lon="-5.837007093492299"><ele>725.0</ele><time>2026-03-24T14:51:00.983Z</time></trkpt><trkpt lat="30.28639134355163" lon="-5.837119886439274"><ele>725.0</ele><time>2026-03-24T14:51:01.983Z</time></trkpt><trkpt lat="30.286539955673728" lon="-5.837233357011839"><ele>726.0</ele><time>2026-03-24T14:51:02.983Z</time></trkpt><trkpt lat="30.286671844709304" lon="-5.837353506768914"><ele>727.0</ele><time>2026-03-24T14:51:03.983Z</time></trkpt><trkpt lat="30.28679297695094" lon="-5.837472087552291"><ele>728.0</ele><time>2026-03-24T14:51:04.983Z</time></trkpt><trkpt lat="30.286915952460415" lon="-5.837576653561194"><ele>728.0</ele><time>2026-03-24T14:51:05.983Z</time></trkpt><trkpt lat="30.287045885409555" lon="-5.837673774027229"><ele>728.0</ele><time>2026-03-24T14:51:06.983Z</time></trkpt><trkpt lat="30.287173095341984" lon="-5.837771841033255"><ele>728.0</ele><time>2026-03-24T14:51:07.983Z</time></trkpt><trkpt lat="30.287294526765557" lon="-5.837872865596841"><ele>728.0</ele><time>2026-03-24T14:51:08.983Z</time></trkpt><trkpt lat="30.287407621133557" lon="-5.83798015658025"><ele>728.0</ele><time>2026-03-24T14:51:09.983Z</time></trkpt><trkpt lat="30.287513171694012" lon="-5.838092195962425"><ele>728.0</ele><time>2026-03-24T14:51:10.983Z</time></trkpt><trkpt lat="30.287603411992933" lon="-5.83822068210824"><ele>728.0</ele><time>2026-03-24T14:51:11.983Z</time></trkpt><trkpt lat="30.287691962020382" lon="-5.83835704698269"><ele>727.6666666666666</ele><time>2026-03-24T14:51:12.983Z</time></trkpt><trkpt lat="30.28779677848781" lon="-5.838489283464871"><ele>727.3333333333334</ele><time>2026-03-24T14:51:13.983Z</time></trkpt><trkpt lat="30.28791065868886" lon="-5.83861513855349"><ele>727.0</ele><time>2026-03-24T14:51:14.983Z</time></trkpt><trkpt lat="30.288030180976623" lon="-5.83872440029776"><ele>726.6666666666667</ele><time>2026-03-24T14:51:15.983Z</time></trkpt><trkpt lat="30.28815121175435" lon="-5.838825539317097"><ele>726.3333333333334</ele><time>2026-03-24T14:51:16.983Z</time></trkpt><trkpt lat="30.288276391740975" lon="-5.838930111266309"><ele>726.0</ele><time>2026-03-24T14:51:17.983Z</time></trkpt><trkpt lat="30.288397756575396" lon="-5.839034860001101"><ele>726.0</ele><time>2026-03-24T14:51:18.983Z</time></trkpt><trkpt lat="30.288516019000248" lon="-5.839147291834577"><ele>726.0</ele><time>2026-03-24T14:51:19.983Z</time></trkpt><trkpt lat="30.288629738255256" lon="-5.8392596356733755"><ele>726.0</ele><time>2026-03-24T14:51:20.983Z</time></trkpt><trkpt lat="30.288749887466345" lon="-5.839367879810048"><ele>726.3333333333334</ele><time>2026-03-24T14:51:21.983Z</time></trkpt><trkpt lat="30.288873651044298" lon="-5.839480269820076"><ele>726.6666666666667</ele><time>2026-03-24T14:51:22.983Z</time></trkpt><trkpt lat="30.288999880054632" lon="-5.839592968738749"><ele>727.0</ele><time>2026-03-24T14:51:23.983Z</time></trkpt><trkpt lat="30.289131734792306" lon="-5.839696477789459"><ele>727.6666666666667</ele><time>2026-03-24T14:51:24.983Z</time></trkpt><trkpt lat="30.289271015777157" lon="-5.83978938068586"><ele>728.3333333333334</ele><time>2026-03-24T14:51:25.983Z</time></trkpt><trkpt lat="30.28941874816633" lon="-5.839888632565246"><ele>729.0</ele><time>2026-03-24T14:51:26.983Z</time></trkpt><trkpt lat="30.28956734045028" lon="-5.839989389742928"><ele>729.0</ele><time>2026-03-24T14:51:27.983Z</time></trkpt><trkpt lat="30.289717079745056" lon="-5.84009209600702"><ele>729.0</ele><time>2026-03-24T14:51:28.983Z</time></trkpt><trkpt lat="30.28986363113359" lon="-5.840192335122344"><ele>729.0</ele><time>2026-03-24T14:51:29.983Z</time></trkpt><trkpt lat="30.290005922326515" lon="-5.840294696304917"><ele>728.6666666666666</ele><time>2026-03-24T14:51:30.983Z</time></trkpt><trkpt lat="30.29014053477469" lon="-5.840404083204884"><ele>728.3333333333333</ele><time>2026-03-24T14:51:31.983Z</time></trkpt><trkpt lat="30.290267562214673" lon="-5.840519780633682"><ele>728.0</ele><time>2026-03-24T14:51:32.983Z</time></trkpt><trkpt lat="30.29038486564684" lon="-5.840625728571786"><ele>728.0</ele><time>2026-03-24T14:51:33.983Z</time></trkpt><trkpt lat="30.290490645671678" lon="-5.84071583561562"><ele>728.0</ele><time>2026-03-24T14:51:34.983Z</time></trkpt><trkpt lat="30.290596522934596" lon="-5.840793485753673"><ele>728.0</ele><time>2026-03-24T14:51:35.983Z</time></trkpt><trkpt lat="30.290714125994242" lon="-5.840865620325489"><ele>728.0</ele><time>2026-03-24T14:51:36.983Z</time></trkpt><trkpt lat="30.290830406301577" lon="-5.840955444005879"><ele>728.5</ele><time>2026-03-24T14:51:37.983Z</time></trkpt><trkpt lat="30.29093979483838" lon="-5.841052240304298"><ele>729.0</ele><time>2026-03-24T14:51:38.983Z</time></trkpt><trkpt lat="30.29105606385928" lon="-5.841126275715673"><ele>729.5</ele><time>2026-03-24T14:51:39.983Z</time></trkpt><trkpt lat="30.29118409851801" lon="-5.841174100545891"><ele>730.0</ele><time>2026-03-24T14:51:40.983Z</time></trkpt><trkpt lat="30.291322925627856" lon="-5.841210658875171"><ele>731.0</ele><time>2026-03-24T14:51:41.983Z</time></trkpt><trkpt lat="30.291470267374656" lon="-5.841256078587728"><ele>732.0</ele><time>2026-03-24T14:51:42.983Z</time></trkpt><trkpt lat="30.291620067147562" lon="-5.841282246600064"><ele>733.0</ele><time>2026-03-24T14:51:43.983Z</time></trkpt><trkpt lat="30.291768385307556" lon="-5.841303415093306"><ele>733.0</ele><time>2026-03-24T14:51:44.983Z</time></trkpt><trkpt lat="30.291909812824198" lon="-5.8413301325769265"><ele>733.0</ele><time>2026-03-24T14:51:45.983Z</time></trkpt><trkpt lat="30.292042113070018" lon="-5.841375543119938"><ele>733.0</ele><time>2026-03-24T14:51:46.983Z</time></trkpt><trkpt lat="30.292168325483676" lon="-5.84144248146138"><ele>733.0</ele><time>2026-03-24T14:51:47.983Z</time></trkpt><trkpt lat="30.292282984504382" lon="-5.841538879329165"><ele>733.0</ele><time>2026-03-24T14:51:48.983Z</time></trkpt><trkpt lat="30.2923884965285" lon="-5.841658099028242"><ele>733.0</ele><time>2026-03-24T14:51:49.983Z</time></trkpt><trkpt lat="30.292498885133817" lon="-5.841780066681643"><ele>733.0</ele><time>2026-03-24T14:51:50.983Z</time></trkpt><trkpt lat="30.292614604882917" lon="-5.841888704739303"><ele>733.0</ele><time>2026-03-24T14:51:51.983Z</time></trkpt><trkpt lat="30.292733598359774" lon="-5.8420047053526485"><ele>733.0</ele><time>2026-03-24T14:51:52.983Z</time></trkpt><trkpt lat="30.292852418101052" lon="-5.842134230708779"><ele>733.0</ele><time>2026-03-24T14:51:53.983Z</time></trkpt><trkpt lat="30.292964341258486" lon="-5.842275431105111"><ele>733.0</ele><time>2026-03-24T14:51:54.983Z</time></trkpt><trkpt lat="30.293075500601642" lon="-5.84241393189121"><ele>733.3333333333334</ele><time>2026-03-24T14:51:55.983Z</time></trkpt><trkpt lat="30.293190390139575" lon="-5.842549085059672"><ele>733.6666666666666</ele><time>2026-03-24T14:51:56.983Z</time></trkpt><trkpt lat="30.293306760525276" lon="-5.842679173997836"><ele>734.0</ele><time>2026-03-24T14:51:57.983Z</time></trkpt><trkpt lat="30.293419407543702" lon="-5.842817229085355"><ele>734.0</ele><time>2026-03-24T14:51:58.983Z</time></trkpt><trkpt lat="30.29353271561438" lon="-5.8429514961680775"><ele>734.0</ele><time>2026-03-24T14:51:59.983Z</time></trkpt><trkpt lat="30.29364398759859" lon="-5.843087079183869"><ele>734.0</ele><time>2026-03-24T14:52:00.983Z</time></trkpt><trkpt lat="30.29376415203272" lon="-5.843217076581633"><ele>734.0</ele><time>2026-03-24T14:52:01.983Z</time></trkpt><trkpt lat="30.293894811414035" lon="-5.843339375498712"><ele>734.0</ele><time>2026-03-24T14:52:02.983Z</time></trkpt><trkpt lat="30.294033863843726" lon="-5.84345843429951"><ele>734.0</ele><time>2026-03-24T14:52:03.983Z</time></trkpt><trkpt lat="30.294172438492005" lon="-5.843577442294142"><ele>733.6666666666666</ele><time>2026-03-24T14:52:04.983Z</time></trkpt><trkpt lat="30.294310532785943" lon="-5.843695108989693"><ele>733.3333333333334</ele><time>2026-03-24T14:52:05.983Z</time></trkpt><trkpt lat="30.294441577701093" lon="-5.84380974923075"><ele>733.0</ele><time>2026-03-24T14:52:06.983Z</time></trkpt><trkpt lat="30.294571847964313" lon="-5.843915328980054"><ele>733.0</ele><time>2026-03-24T14:52:07.983Z</time></trkpt><trkpt lat="30.294720085892244" lon="-5.844000081379276"><ele>733.0</ele><time>2026-03-24T14:52:08.983Z</time></trkpt><trkpt lat="30.294877263384656" lon="-5.844087713212788"><ele>733.0</ele><time>2026-03-24T14:52:09.983Z</time></trkpt><trkpt lat="30.29503674289509" lon="-5.844173057566684"><ele>733.0</ele><time>2026-03-24T14:52:10.983Z</time></trkpt><trkpt lat="30.295195298245" lon="-5.844261048193983"><ele>733.0</ele><time>2026-03-24T14:52:11.983Z</time></trkpt><trkpt lat="30.295344255518103" lon="-5.8443270205197715"><ele>733.0</ele><time>2026-03-24T14:52:12.983Z</time></trkpt><trkpt lat="30.29548590521889" lon="-5.844398580070281"><ele>732.6666666666667</ele><time>2026-03-24T14:52:13.983Z</time></trkpt><trkpt lat="30.29561712527157" lon="-5.844498359269221"><ele>732.3333333333334</ele><time>2026-03-24T14:52:14.983Z</time></trkpt><trkpt lat="30.29574567217578" lon="-5.8446098538094216"><ele>732.0</ele><time>2026-03-24T14:52:15.983Z</time></trkpt><trkpt lat="30.295872543263698" lon="-5.844729035618144"><ele>732.0</ele><time>2026-03-24T14:52:16.983Z</time></trkpt><trkpt lat="30.296005976942467" lon="-5.844831915682272"><ele>732.0</ele><time>2026-03-24T14:52:17.983Z</time></trkpt><trkpt lat="30.296146193598794" lon="-5.84493591747303"><ele>732.0</ele><time>2026-03-24T14:52:18.983Z</time></trkpt><trkpt lat="30.296278128916967" lon="-5.845063526690867"><ele>732.3333333333334</ele><time>2026-03-24T14:52:19.983Z</time></trkpt><trkpt lat="30.29639542191884" lon="-5.845195014937531"><ele>732.6666666666667</ele><time>2026-03-24T14:52:20.983Z</time></trkpt><trkpt lat="30.296489603191727" lon="-5.845352034654501"><ele>733.0</ele><time>2026-03-24T14:52:21.983Z</time></trkpt><trkpt lat="30.29657003220206" lon="-5.845498828744254"><ele>733.0</ele><time>2026-03-24T14:52:22.983Z</time></trkpt><trkpt lat="30.296625678058515" lon="-5.845626823341949"><ele>733.0</ele><time>2026-03-24T14:52:23.983Z</time></trkpt><trkpt lat="30.29667401234955" lon="-5.845727216695695"><ele>733.0</ele><time>2026-03-24T14:52:24.983Z</time></trkpt><trkpt lat="30.29673079768634" lon="-5.845819041894738"><ele>733.0</ele><time>2026-03-24T14:52:25.983Z</time></trkpt><trkpt lat="30.296798328567395" lon="-5.845899823696032"><ele>733.0</ele><time>2026-03-24T14:52:26.983Z</time></trkpt><trkpt lat="30.296873106584123" lon="-5.845957699057234"><ele>733.1666666666667</ele><time>2026-03-24T14:52:27.983Z</time></trkpt><trkpt lat="30.296959589449656" lon="-5.845999681436883"><ele>733.3333333333334</ele><time>2026-03-24T14:52:28.982Z</time></trkpt><trkpt lat="30.29704570524366" lon="-5.846018170842239"><ele>733.5</ele><time>2026-03-24T14:52:29.983Z</time></trkpt><trkpt lat="30.297146439094444" lon="-5.846017502257443"><ele>733.6666666666666</ele><time>2026-03-24T14:52:30.983Z</time></trkpt><trkpt lat="30.297229583642263" lon="-5.8460343302912285"><ele>733.8333333333333</ele><time>2026-03-24T14:52:31.983Z</time></trkpt><trkpt lat="30.297304355940607" lon="-5.846052037365743"><ele>734.0</ele><time>2026-03-24T14:52:32.983Z</time></trkpt><trkpt lat="30.29737098192211" lon="-5.8460350576844915"><ele>733.0</ele><time>2026-03-24T14:52:33.983Z</time></trkpt><trkpt lat="30.297433702069764" lon="-5.8459782526958755"><ele>732.0</ele><time>2026-03-24T14:52:34.983Z</time></trkpt><trkpt lat="30.29748164627951" lon="-5.845883770533809"><ele>731.0</ele><time>2026-03-24T14:52:35.982Z</time></trkpt><trkpt lat="30.297515932037346" lon="-5.845784615771776"><ele>730.0</ele><time>2026-03-24T14:52:36.982Z</time></trkpt><trkpt lat="30.297541094953026" lon="-5.845675186994077"><ele>729.0</ele><time>2026-03-24T14:52:37.983Z</time></trkpt><trkpt lat="30.297558817665717" lon="-5.845569834668283"><ele>728.6</ele><time>2026-03-24T14:52:38.982Z</time></trkpt><trkpt lat="30.29761757853832" lon="-5.845474932147689"><ele>728.2</ele><time>2026-03-24T14:52:39.982Z</time></trkpt><trkpt lat="30.29770353988006" lon="-5.845404250329901"><ele>727.8000000000001</ele><time>2026-03-24T14:52:40.983Z</time></trkpt><trkpt lat="30.29780929730575" lon="-5.845321365131554"><ele>727.4000000000001</ele><time>2026-03-24T14:52:41.982Z</time></trkpt><trkpt lat="30.2978938133325" lon="-5.845230982932107"><ele>727.0</ele><time>2026-03-24T14:52:42.982Z</time></trkpt><trkpt lat="30.297973446828784" lon="-5.845141149031908"><ele>726.75</ele><time>2026-03-24T14:52:43.982Z</time></trkpt><trkpt lat="30.2980613900437" lon="-5.845079326787005"><ele>726.5</ele><time>2026-03-24T14:52:44.982Z</time></trkpt><trkpt lat="30.29817213498261" lon="-5.8450492447889255"><ele>726.25</ele><time>2026-03-24T14:52:45.982Z</time></trkpt><trkpt lat="30.29830192063882" lon="-5.84503574665186"><ele>726.0</ele><time>2026-03-24T14:52:46.982Z</time></trkpt><trkpt lat="30.29842675489213" lon="-5.845021931405687"><ele>724.75</ele><time>2026-03-24T14:52:47.982Z</time></trkpt><trkpt lat="30.298550042869675" lon="-5.845012328912008"><ele>723.5</ele><time>2026-03-24T14:52:48.982Z</time></trkpt><trkpt lat="30.29867133267157" lon="-5.84501189874444"><ele>722.25</ele><time>2026-03-24T14:52:49.982Z</time></trkpt><trkpt lat="30.298797663618878" lon="-5.845010148017205"><ele>721.0</ele><time>2026-03-24T14:52:50.982Z</time></trkpt><trkpt lat="30.298932838059592" lon="-5.845023282070139"><ele>719.6666666666667</ele><time>2026-03-24T14:52:51.982Z</time></trkpt><trkpt lat="30.299074444700352" lon="-5.8450437480656126"><ele>718.3333333333334</ele><time>2026-03-24T14:52:52.982Z</time></trkpt><trkpt lat="30.299223578408625" lon="-5.845067167542971"><ele>717.0</ele><time>2026-03-24T14:52:53.982Z</time></trkpt><trkpt lat="30.29938602740613" lon="-5.845091258623585"><ele>717.0</ele><time>2026-03-24T14:52:54.982Z</time></trkpt><trkpt lat="30.299544881732213" lon="-5.845104470659214"><ele>717.0</ele><time>2026-03-24T14:52:55.982Z</time></trkpt><trkpt lat="30.299707058573524" lon="-5.845122062876175"><ele>717.0</ele><time>2026-03-24T14:52:56.982Z</time></trkpt><trkpt lat="30.299866312187003" lon="-5.845165117792685"><ele>717.3333333333334</ele><time>2026-03-24T14:52:57.982Z</time></trkpt><trkpt lat="30.30001520526515" lon="-5.845221693819146"><ele>717.6666666666667</ele><time>2026-03-24T14:52:58.982Z</time></trkpt><trkpt lat="30.300158124576143" lon="-5.845286914714997"><ele>718.0</ele><time>2026-03-24T14:52:59.982Z</time></trkpt><trkpt lat="30.300295118211125" lon="-5.845350653813278"><ele>718.0</ele><time>2026-03-24T14:53:00.982Z</time></trkpt><trkpt lat="30.300433213801618" lon="-5.845402733274028"><ele>718.0</ele><time>2026-03-24T14:53:01.982Z</time></trkpt><trkpt lat="30.300570928941667" lon="-5.845448769736451"><ele>718.0</ele><time>2026-03-24T14:53:02.982Z</time></trkpt><trkpt lat="30.300717168373957" lon="-5.845483204588701"><ele>718.0</ele><time>2026-03-24T14:53:03.982Z</time></trkpt><trkpt lat="30.30087010752887" lon="-5.84550437505483"><ele>717.3333333333334</ele><time>2026-03-24T14:53:04.982Z</time></trkpt><trkpt lat="30.301025255390982" lon="-5.84551871070834"><ele>716.6666666666666</ele><time>2026-03-24T14:53:05.982Z</time></trkpt><trkpt lat="30.3011898192802" lon="-5.845528491598587"><ele>716.0</ele><time>2026-03-24T14:53:06.982Z</time></trkpt><trkpt lat="30.3013463355755" lon="-5.845540117126723"><ele>715.75</ele><time>2026-03-24T14:53:07.982Z</time></trkpt><trkpt lat="30.301487627248772" lon="-5.845549015047635"><ele>715.5</ele><time>2026-03-24T14:53:08.982Z</time></trkpt><trkpt lat="30.301614722346155" lon="-5.845561456230697"><ele>715.25</ele><time>2026-03-24T14:53:09.982Z</time></trkpt><trkpt lat="30.30172097597522" lon="-5.845557407666039"><ele>715.0</ele><time>2026-03-24T14:53:10.982Z</time></trkpt><trkpt lat="30.30180035961474" lon="-5.845552455294339"><ele>715.0</ele><time>2026-03-24T14:53:11.982Z</time></trkpt><trkpt lat="30.30189462945468" lon="-5.845511411700561"><ele>715.0</ele><time>2026-03-24T14:53:13.982Z</time></trkpt><trkpt lat="30.301977178956243" lon="-5.845475958707456"><ele>715.0</ele><time>2026-03-24T14:53:16.982Z</time></trkpt><trkpt lat="30.302070871863236" lon="-5.84549571423084"><ele>715.0</ele><time>2026-03-24T14:53:18.982Z</time></trkpt><trkpt lat="30.30215833068474" lon="-5.845547310839015"><ele>715.0</ele><time>2026-03-24T14:53:20.982Z</time></trkpt><trkpt lat="30.30225005300436" lon="-5.845638406965983"><ele>714.6</ele><time>2026-03-24T14:53:22.982Z</time></trkpt><trkpt lat="30.30230447083455" lon="-5.845685430298667"><ele>714.2</ele><time>2026-03-24T14:53:23.982Z</time></trkpt><trkpt lat="30.302357570983812" lon="-5.845747190171578"><ele>713.8</ele><time>2026-03-24T14:53:24.982Z</time></trkpt><trkpt lat="30.302423383317123" lon="-5.845822559427305"><ele>713.4</ele><time>2026-03-24T14:53:25.982Z</time></trkpt><trkpt lat="30.302498145051572" lon="-5.845896427484796"><ele>713.0</ele><time>2026-03-24T14:53:26.982Z</time></trkpt><trkpt lat="30.302591164094906" lon="-5.845979692017873"><ele>712.25</ele><time>2026-03-24T14:53:27.982Z</time></trkpt><trkpt lat="30.302690701723208" lon="-5.84606955046338"><ele>711.5</ele><time>2026-03-24T14:53:28.982Z</time></trkpt><trkpt lat="30.302789760798085" lon="-5.846154837803618"><ele>710.75</ele><time>2026-03-24T14:53:29.982Z</time></trkpt><trkpt lat="30.302905437701245" lon="-5.846254563103161"><ele>710.0</ele><time>2026-03-24T14:53:30.982Z</time></trkpt><trkpt lat="30.303017791213414" lon="-5.846339464627746"><ele>711.25</ele><time>2026-03-24T14:53:31.982Z</time></trkpt><trkpt lat="30.303129106671303" lon="-5.8464219027005075"><ele>712.5</ele><time>2026-03-24T14:53:32.982Z</time></trkpt><trkpt lat="30.303242418601453" lon="-5.846508426087138"><ele>713.75</ele><time>2026-03-24T14:53:33.982Z</time></trkpt><trkpt lat="30.303353543318003" lon="-5.846593240515248"><ele>715.0</ele><time>2026-03-24T14:53:34.982Z</time></trkpt><trkpt lat="30.303489354464016" lon="-5.846633235410607"><ele>715.0</ele><time>2026-03-24T14:53:35.982Z</time></trkpt><trkpt lat="30.303603164155156" lon="-5.846720434974921"><ele>715.0</ele><time>2026-03-24T14:53:36.982Z</time></trkpt><trkpt lat="30.303717279233954" lon="-5.84680791379202"><ele>715.0</ele><time>2026-03-24T14:53:37.982Z</time></trkpt><trkpt lat="30.303833254716515" lon="-5.846886723407612"><ele>715.0</ele><time>2026-03-24T14:53:38.982Z</time></trkpt><trkpt lat="30.30394960409685" lon="-5.8469616313148105"><ele>715.0</ele><time>2026-03-24T14:53:39.982Z</time></trkpt><trkpt lat="30.304052701030727" lon="-5.847028844624946"><ele>715.0</ele><time>2026-03-24T14:53:40.982Z</time></trkpt><trkpt lat="30.304144702865795" lon="-5.847101725139144"><ele>715.0</ele><time>2026-03-24T14:53:41.982Z</time></trkpt><trkpt lat="30.304244322119743" lon="-5.84717797081727"><ele>715.0</ele><time>2026-03-24T14:53:42.982Z</time></trkpt><trkpt lat="30.30435246147206" lon="-5.847259196121768"><ele>715.0</ele><time>2026-03-24T14:53:43.982Z</time></trkpt><trkpt lat="30.30445305868018" lon="-5.847330709820944"><ele>715.0</ele><time>2026-03-24T14:53:44.982Z</time></trkpt><trkpt lat="30.304547581614294" lon="-5.847400507602892"><ele>715.0</ele><time>2026-03-24T14:53:45.982Z</time></trkpt><trkpt lat="30.30464153403599" lon="-5.847462881880375"><ele>715.0</ele><time>2026-03-24T14:53:46.982Z</time></trkpt><trkpt lat="30.304740101317204" lon="-5.8475184745080675"><ele>715.0</ele><time>2026-03-24T14:53:47.982Z</time></trkpt><trkpt lat="30.304841399683845" lon="-5.847547124342443"><ele>714.75</ele><time>2026-03-24T14:53:48.982Z</time></trkpt><trkpt lat="30.304944889626068" lon="-5.847555530378723"><ele>714.5</ele><time>2026-03-24T14:53:49.982Z</time></trkpt><trkpt lat="30.305058432115615" lon="-5.847546044158281"><ele>714.25</ele><time>2026-03-24T14:53:50.982Z</time></trkpt><trkpt lat="30.30518681545388" lon="-5.8475131377606395"><ele>714.0</ele><time>2026-03-24T14:53:51.982Z</time></trkpt><trkpt lat="30.305330016070165" lon="-5.847484209871949"><ele>714.0</ele><time>2026-03-24T14:53:52.982Z</time></trkpt><trkpt lat="30.305476918856876" lon="-5.8474615211341225"><ele>714.0</ele><time>2026-03-24T14:53:53.982Z</time></trkpt><trkpt lat="30.305615583423172" lon="-5.847457291355779"><ele>714.0</ele><time>2026-03-24T14:53:54.982Z</time></trkpt><trkpt lat="30.305731249253423" lon="-5.847474605296667"><ele>714.0</ele><time>2026-03-24T14:53:55.982Z</time></trkpt><trkpt lat="30.30581851546779" lon="-5.847523200301734"><ele>714.0</ele><time>2026-03-24T14:53:56.982Z</time></trkpt><trkpt lat="30.30588260292604" lon="-5.847601951165936"><ele>714.0</ele><time>2026-03-24T14:53:57.982Z</time></trkpt><trkpt lat="30.305930225812077" lon="-5.847707056002908"><ele>714.0</ele><time>2026-03-24T14:53:58.982Z</time></trkpt><trkpt lat="30.305959561106707" lon="-5.84783606043193"><ele>714.0</ele><time>2026-03-24T14:53:59.982Z</time></trkpt><trkpt lat="30.30600981369248" lon="-5.8479576470532875"><ele>714.0</ele><time>2026-03-24T14:54:00.982Z</time></trkpt><trkpt lat="30.306102123125672" lon="-5.848025651992106"><ele>714.2</ele><time>2026-03-24T14:54:01.982Z</time></trkpt><trkpt lat="30.306174697856573" lon="-5.8481021930144985"><ele>714.4000000000001</ele><time>2026-03-24T14:54:02.982Z</time></trkpt><trkpt lat="30.306247509186157" lon="-5.848136213437451"><ele>714.6</ele><time>2026-03-24T14:54:03.982Z</time></trkpt><trkpt lat="30.306313385605797" lon="-5.848196022698579"><ele>714.8</ele><time>2026-03-24T14:54:04.982Z</time></trkpt><trkpt lat="30.306410523234767" lon="-5.848200576898956"><ele>715.0</ele><time>2026-03-24T14:54:05.982Z</time></trkpt><trkpt lat="30.306522236477598" lon="-5.848189587886874"><ele>715.5</ele><time>2026-03-24T14:54:06.982Z</time></trkpt><trkpt lat="30.306652520910003" lon="-5.848165074104858"><ele>716.0</ele><time>2026-03-24T14:54:07.982Z</time></trkpt><trkpt lat="30.306780102137466" lon="-5.848157805051115"><ele>716.5</ele><time>2026-03-24T14:54:08.982Z</time></trkpt><trkpt lat="30.306907460344686" lon="-5.848197523296871"><ele>717.0</ele><time>2026-03-24T14:54:09.982Z</time></trkpt><trkpt lat="30.307034659317473" lon="-5.848237093862959"><ele>717.0</ele><time>2026-03-24T14:54:10.982Z</time></trkpt><trkpt lat="30.30716147402466" lon="-5.848243964316554"><ele>717.0</ele><time>2026-03-24T14:54:11.982Z</time></trkpt><trkpt lat="30.307289068023348" lon="-5.8482356388810635"><ele>717.0</ele><time>2026-03-24T14:54:12.982Z</time></trkpt><trkpt lat="30.30740963256093" lon="-5.848249897733153"><ele>717.0</ele><time>2026-03-24T14:54:13.982Z</time></trkpt><trkpt lat="30.307529588859133" lon="-5.848293715005255"><ele>717.0</ele><time>2026-03-24T14:54:14.982Z</time></trkpt><trkpt lat="30.307622196801137" lon="-5.848358494963802"><ele>717.0</ele><time>2026-03-24T14:54:15.982Z</time></trkpt><trkpt lat="30.307707075205634" lon="-5.848422171958277"><ele>717.0</ele><time>2026-03-24T14:54:16.982Z</time></trkpt><trkpt lat="30.307774517309827" lon="-5.848499028987089"><ele>717.0</ele><time>2026-03-24T14:54:17.982Z</time></trkpt><trkpt lat="30.307829348903518" lon="-5.848576695722262"><ele>717.0</ele><time>2026-03-24T14:54:18.982Z</time></trkpt><trkpt lat="30.30787400151243" lon="-5.848629008875829"><ele>717.0</ele><time>2026-03-24T14:54:19.982Z</time></trkpt><trkpt lat="30.30793882128871" lon="-5.84868732902983"><ele>717.0</ele><time>2026-03-24T14:54:21.982Z</time></trkpt><trkpt lat="30.30800346402055" lon="-5.8487277888306215"><ele>717.0</ele><time>2026-03-24T14:54:24.982Z</time></trkpt><trkpt lat="30.308106594545873" lon="-5.848806245612062"><ele>717.0</ele><time>2026-03-24T14:55:00.982Z</time></trkpt><trkpt lat="30.308164107708176" lon="-5.848846349095196"><ele>717.0</ele><time>2026-03-24T14:55:01.982Z</time></trkpt><trkpt lat="30.308253995205813" lon="-5.848871733502585"><ele>717.0</ele><time>2026-03-24T14:55:02.982Z</time></trkpt><trkpt lat="30.308351740820342" lon="-5.8488958524807675"><ele>716.5</ele><time>2026-03-24T14:55:03.982Z</time></trkpt><trkpt lat="30.30846196623393" lon="-5.848928553972393"><ele>716.0</ele><time>2026-03-24T14:55:04.982Z</time></trkpt><trkpt lat="30.308574427679833" lon="-5.848970272204552"><ele>715.5</ele><time>2026-03-24T14:55:05.982Z</time></trkpt><trkpt lat="30.3086825245335" lon="-5.8490198246526965"><ele>715.0</ele><time>2026-03-24T14:55:06.982Z</time></trkpt><trkpt lat="30.308781408866132" lon="-5.849061116646785"><ele>715.0</ele><time>2026-03-24T14:55:07.982Z</time></trkpt><trkpt lat="30.30888340681738" lon="-5.849102134531287"><ele>715.0</ele><time>2026-03-24T14:55:08.982Z</time></trkpt><trkpt lat="30.3089927284985" lon="-5.849139272765566"><ele>715.0</ele><time>2026-03-24T14:55:09.982Z</time></trkpt><trkpt lat="30.309109659807415" lon="-5.849175446488539"><ele>715.0</ele><time>2026-03-24T14:55:10.982Z</time></trkpt><trkpt lat="30.309227308247433" lon="-5.849218179794562"><ele>715.0</ele><time>2026-03-24T14:55:11.982Z</time></trkpt><trkpt lat="30.30935761557869" lon="-5.849254546934107"><ele>715.0</ele><time>2026-03-24T14:55:12.982Z</time></trkpt><trkpt lat="30.309486343607052" lon="-5.84930572227257"><ele>715.0</ele><time>2026-03-24T14:55:13.982Z</time></trkpt><trkpt lat="30.30962238229778" lon="-5.849359803923288"><ele>715.0</ele><time>2026-03-24T14:55:14.982Z</time></trkpt><trkpt lat="30.30975777457485" lon="-5.849413790216447"><ele>715.5</ele><time>2026-03-24T14:55:15.982Z</time></trkpt><trkpt lat="30.30989654584833" lon="-5.849469399506039"><ele>716.0</ele><time>2026-03-24T14:55:16.982Z</time></trkpt><trkpt lat="30.310024613117687" lon="-5.84954166671339"><ele>716.5</ele><time>2026-03-24T14:55:17.982Z</time></trkpt><trkpt lat="30.31014501780504" lon="-5.8495904319665355"><ele>717.0</ele><time>2026-03-24T14:55:18.982Z</time></trkpt><trkpt lat="30.31025730692052" lon="-5.84963614968859"><ele>717.0</ele><time>2026-03-24T14:55:19.982Z</time></trkpt><trkpt lat="30.310365098944644" lon="-5.8496839383720705"><ele>717.0</ele><time>2026-03-24T14:55:20.982Z</time></trkpt><trkpt lat="30.31046805868678" lon="-5.849736212167784"><ele>717.0</ele><time>2026-03-24T14:55:21.982Z</time></trkpt><trkpt lat="30.310554276924083" lon="-5.849826983470363"><ele>717.0</ele><time>2026-03-24T14:55:22.982Z</time></trkpt><trkpt lat="30.310557594797135" lon="-5.849934388777786"><ele>717.0</ele><time>2026-03-24T14:55:23.982Z</time></trkpt><trkpt lat="30.310748607293096" lon="-5.850022808984902"><ele>716.5</ele><time>2026-03-24T14:55:24.982Z</time></trkpt><trkpt lat="30.310844225765553" lon="-5.8501063958700765"><ele>716.0</ele><time>2026-03-24T14:55:25.982Z</time></trkpt><trkpt lat="30.31123280568519" lon="-5.849803989259965"><ele>716.6666666666666</ele><time>2026-03-24T14:55:26.982Z</time></trkpt><trkpt lat="30.311417910260573" lon="-5.849765726608592"><ele>717.3333333333334</ele><time>2026-03-24T14:55:27.982Z</time></trkpt><trkpt lat="30.31160211768674" lon="-5.849753583443892"><ele>718.0</ele><time>2026-03-24T14:55:28.982Z</time></trkpt><trkpt lat="30.311763041600155" lon="-5.849761644125043"><ele>718.0</ele><time>2026-03-24T14:55:29.982Z</time></trkpt><trkpt lat="30.31191257116024" lon="-5.849792881743534"><ele>718.0</ele><time>2026-03-24T14:55:30.982Z</time></trkpt><trkpt lat="30.312058656408823" lon="-5.849844549302259"><ele>718.0</ele><time>2026-03-24T14:55:31.982Z</time></trkpt><trkpt lat="30.312195345394557" lon="-5.849889592715402"><ele>718.0</ele><time>2026-03-24T14:55:32.982Z</time></trkpt><trkpt lat="30.312322030247277" lon="-5.8499189019953866"><ele>718.0</ele><time>2026-03-24T14:55:33.982Z</time></trkpt><trkpt lat="30.31244839233707" lon="-5.849934129787149"><ele>718.0</ele><time>2026-03-24T14:55:34.982Z</time></trkpt><trkpt lat="30.31257940294581" lon="-5.849952039597852"><ele>718.0</ele><time>2026-03-24T14:55:35.982Z</time></trkpt><trkpt lat="30.31272882588524" lon="-5.849975074465228"><ele>718.0</ele><time>2026-03-24T14:55:36.982Z</time></trkpt><trkpt lat="30.312865432428936" lon="-5.849995960699947"><ele>718.0</ele><time>2026-03-24T14:55:37.982Z</time></trkpt><trkpt lat="30.312987635644365" lon="-5.850014441886356"><ele>718.0</ele><time>2026-03-24T14:55:38.982Z</time></trkpt><trkpt lat="30.313098537899883" lon="-5.8500295299136615"><ele>718.0</ele><time>2026-03-24T14:55:39.982Z</time></trkpt><trkpt lat="30.31319100082238" lon="-5.850029116956288"><ele>718.0</ele><time>2026-03-24T14:55:40.982Z</time></trkpt><trkpt lat="30.313274436571508" lon="-5.8500227991056715"><ele>718.0</ele><time>2026-03-24T14:55:41.982Z</time></trkpt><trkpt lat="30.3133590566324" lon="-5.850016729554627"><ele>717.5</ele><time>2026-03-24T14:55:42.982Z</time></trkpt><trkpt lat="30.313455221264736" lon="-5.850009458410507"><ele>717.0</ele><time>2026-03-24T14:55:43.982Z</time></trkpt><trkpt lat="30.31357960046189" lon="-5.849999688326662"><ele>716.5</ele><time>2026-03-24T14:55:44.982Z</time></trkpt><trkpt lat="30.313720906429236" lon="-5.849982631010309"><ele>716.0</ele><time>2026-03-24T14:55:45.982Z</time></trkpt><trkpt lat="30.31386032256515" lon="-5.849974583995187"><ele>716.75</ele><time>2026-03-24T14:55:46.982Z</time></trkpt><trkpt lat="30.313996500645423" lon="-5.850010288450649"><ele>717.5</ele><time>2026-03-24T14:55:47.982Z</time></trkpt><trkpt lat="30.314117816702403" lon="-5.8500703427057905"><ele>718.25</ele><time>2026-03-24T14:55:48.982Z</time></trkpt><trkpt lat="30.314242794560723" lon="-5.850125557034625"><ele>719.0</ele><time>2026-03-24T14:55:49.982Z</time></trkpt><trkpt lat="30.31436207958162" lon="-5.8501063583226305"><ele>719.0</ele><time>2026-03-24T14:55:50.982Z</time></trkpt><trkpt lat="30.314521688414494" lon="-5.850085790795075"><ele>719.0</ele><time>2026-03-24T14:55:51.982Z</time></trkpt><trkpt lat="30.31470322516858" lon="-5.8500862003250536"><ele>719.0</ele><time>2026-03-24T14:55:52.982Z</time></trkpt><trkpt lat="30.314857498446834" lon="-5.8500778289094875"><ele>720.8333333333333</ele><time>2026-03-24T14:55:53.982Z</time></trkpt><trkpt lat="30.31497196087149" lon="-5.8500632026296575"><ele>722.6666666666666</ele><time>2026-03-24T14:55:54.982Z</time></trkpt><trkpt lat="30.31506219655992" lon="-5.850025751534082"><ele>724.5</ele><time>2026-03-24T14:55:55.982Z</time></trkpt><trkpt lat="30.315131228965015" lon="-5.849975245809646"><ele>726.3333333333334</ele><time>2026-03-24T14:55:56.982Z</time></trkpt><trkpt lat="30.315189892362017" lon="-5.849927839347169"><ele>728.1666666666667</ele><time>2026-03-24T14:55:57.982Z</time></trkpt><trkpt lat="30.315257119848976" lon="-5.849867493322315"><ele>730.0</ele><time>2026-03-24T14:55:58.982Z</time></trkpt><trkpt lat="30.315326968138027" lon="-5.84980950886406"><ele>730.0</ele><time>2026-03-24T14:55:59.982Z</time></trkpt><trkpt lat="30.31537600653671" lon="-5.849753826698341"><ele>730.0</ele><time>2026-03-24T14:56:00.982Z</time></trkpt><trkpt lat="30.315452739783893" lon="-5.84968264711351"><ele>730.0</ele><time>2026-03-24T14:56:02.982Z</time></trkpt><trkpt lat="30.315523941335556" lon="-5.849687337987106"><ele>730.0</ele><time>2026-03-24T14:56:04.982Z</time></trkpt><trkpt lat="30.31560104026614" lon="-5.849706725290018"><ele>730.0</ele><time>2026-03-24T14:56:07.982Z</time></trkpt><trkpt lat="30.31566646045615" lon="-5.849712034689513"><ele>730.0</ele><time>2026-03-24T14:56:09.982Z</time></trkpt><trkpt lat="30.315730841114984" lon="-5.849772703191536"><ele>730.6666666666667</ele><time>2026-03-24T14:56:12.982Z</time></trkpt><trkpt lat="30.315720608933702" lon="-5.849858952146465"><ele>731.3333333333334</ele><time>2026-03-24T14:56:15.982Z</time></trkpt><trkpt lat="30.3158002878488" lon="-5.849891853874724"><ele>732.0</ele><time>2026-03-24T14:56:20.982Z</time></trkpt><trkpt lat="30.315860746449818" lon="-5.849861625437929"><ele>732.6666666666666</ele><time>2026-03-24T14:56:23.982Z</time></trkpt><trkpt lat="30.31589100684755" lon="-5.849786825380383"><ele>733.3333333333333</ele><time>2026-03-24T14:56:27.982Z</time></trkpt><trkpt lat="30.315858802560246" lon="-5.849721823025727"><ele>734.0</ele><time>2026-03-24T14:56:37.982Z</time></trkpt><trkpt lat="30.315943905307524" lon="-5.84966819082786"><ele>734.0</ele><time>2026-03-24T14:56:43.982Z</time></trkpt><trkpt lat="30.31605268305085" lon="-5.849691106787676"><ele>734.0</ele><time>2026-03-24T14:56:45.982Z</time></trkpt><trkpt lat="30.316171390216958" lon="-5.849708812302649"><ele>734.0</ele><time>2026-03-24T14:56:47.982Z</time></trkpt><trkpt lat="30.316289052112317" lon="-5.849723724782919"><ele>734.0</ele><time>2026-03-24T14:56:49.982Z</time></trkpt><trkpt lat="30.316351962813158" lon="-5.849732462937711"><ele>734.0</ele><time>2026-03-24T14:56:50.982Z</time></trkpt><trkpt lat="30.316462954251303" lon="-5.849751925346365"><ele>735.25</ele><time>2026-03-24T14:56:52.982Z</time></trkpt><trkpt lat="30.316594932315066" lon="-5.849797653822537"><ele>736.5</ele><time>2026-03-24T14:56:54.982Z</time></trkpt><trkpt lat="30.3166985142045" lon="-5.849812576425545"><ele>737.75</ele><time>2026-03-24T14:56:55.982Z</time></trkpt><trkpt lat="30.316806189989723" lon="-5.849804338195614"><ele>739.0</ele><time>2026-03-24T14:56:56.982Z</time></trkpt><trkpt lat="30.31691289423337" lon="-5.849784633203491"><ele>739.0</ele><time>2026-03-24T14:56:57.982Z</time></trkpt><trkpt lat="30.31704633907145" lon="-5.849760625835758"><ele>739.0</ele><time>2026-03-24T14:56:58.982Z</time></trkpt><trkpt lat="30.31715548071922" lon="-5.849752000245362"><ele>739.0</ele><time>2026-03-24T14:56:59.982Z</time></trkpt><trkpt lat="30.317265326433038" lon="-5.849749717283846"><ele>739.0</ele><time>2026-03-24T14:57:00.982Z</time></trkpt><trkpt lat="30.31735893339727" lon="-5.8497551765277045"><ele>739.0</ele><time>2026-03-24T14:57:01.982Z</time></trkpt><trkpt lat="30.317442619530752" lon="-5.849781046741712"><ele>739.4000000000001</ele><time>2026-03-24T14:57:02.982Z</time></trkpt><trkpt lat="30.317526835350257" lon="-5.84981706340582"><ele>739.8</ele><time>2026-03-24T14:57:03.982Z</time></trkpt><trkpt lat="30.317605792969456" lon="-5.849860383910871"><ele>740.2</ele><time>2026-03-24T14:57:04.982Z</time></trkpt><trkpt lat="30.31769472305556" lon="-5.849913236765314"><ele>740.5999999999999</ele><time>2026-03-24T14:57:05.982Z</time></trkpt><trkpt lat="30.31779545864825" lon="-5.849977052201133"><ele>741.0</ele><time>2026-03-24T14:57:06.982Z</time></trkpt><trkpt lat="30.31792132955409" lon="-5.850042132101175"><ele>741.0</ele><time>2026-03-24T14:57:07.982Z</time></trkpt><trkpt lat="30.318058175923785" lon="-5.8501054843394495"><ele>741.0</ele><time>2026-03-24T14:57:08.982Z</time></trkpt><trkpt lat="30.31821104978492" lon="-5.850149776939836"><ele>741.0</ele><time>2026-03-24T14:57:09.982Z</time></trkpt><trkpt lat="30.318374540847685" lon="-5.850168899082641"><ele>740.25</ele><time>2026-03-24T14:57:10.982Z</time></trkpt><trkpt lat="30.31853869699647" lon="-5.850177912911366"><ele>739.5</ele><time>2026-03-24T14:57:11.982Z</time></trkpt><trkpt lat="30.31868015688885" lon="-5.850180006362525"><ele>738.75</ele><time>2026-03-24T14:57:12.982Z</time></trkpt><trkpt lat="30.318805119756373" lon="-5.850154697754137"><ele>738.0</ele><time>2026-03-24T14:57:13.982Z</time></trkpt><trkpt lat="30.31891466125588" lon="-5.8501021396074675"><ele>737.5</ele><time>2026-03-24T14:57:14.982Z</time></trkpt><trkpt lat="30.31902408462039" lon="-5.850026588311027"><ele>737.0</ele><time>2026-03-24T14:57:15.982Z</time></trkpt><trkpt lat="30.319149600570416" lon="-5.849977924813104"><ele>736.5</ele><time>2026-03-24T14:57:16.982Z</time></trkpt><trkpt lat="30.31930460254389" lon="-5.849967728084968"><ele>736.0</ele><time>2026-03-24T14:57:17.982Z</time></trkpt><trkpt lat="30.319469263412746" lon="-5.849968588756537"><ele>736.0</ele><time>2026-03-24T14:57:18.982Z</time></trkpt><trkpt lat="30.319611479911895" lon="-5.849956393025851"><ele>736.0</ele><time>2026-03-24T14:57:19.982Z</time></trkpt><trkpt lat="30.31973246020008" lon="-5.849938471772136"><ele>736.0</ele><time>2026-03-24T14:57:20.982Z</time></trkpt><trkpt lat="30.31985261374061" lon="-5.849928611395081"><ele>736.0</ele><time>2026-03-24T14:57:21.982Z</time></trkpt><trkpt lat="30.31999936240904" lon="-5.849936953366385"><ele>734.75</ele><time>2026-03-24T14:57:22.982Z</time></trkpt><trkpt lat="30.320148447009288" lon="-5.849960163642983"><ele>733.5</ele><time>2026-03-24T14:57:23.982Z</time></trkpt><trkpt lat="30.32029627276745" lon="-5.849991895033162"><ele>732.25</ele><time>2026-03-24T14:57:24.982Z</time></trkpt><trkpt lat="30.320438457517785" lon="-5.850040997691415"><ele>731.0</ele><time>2026-03-24T14:57:25.982Z</time></trkpt><trkpt lat="30.32057199015333" lon="-5.850082495942376"><ele>729.75</ele><time>2026-03-24T14:57:26.982Z</time></trkpt><trkpt lat="30.32070528375094" lon="-5.85009770846682"><ele>728.5</ele><time>2026-03-24T14:57:27.982Z</time></trkpt><trkpt lat="30.320831301976117" lon="-5.85008877831125"><ele>727.25</ele><time>2026-03-24T14:57:28.982Z</time></trkpt><trkpt lat="30.320933424988283" lon="-5.850061765722469"><ele>726.0</ele><time>2026-03-24T14:57:29.982Z</time></trkpt><trkpt lat="30.321027270083682" lon="-5.849988380683861"><ele>726.0</ele><time>2026-03-24T14:57:30.982Z</time></trkpt><trkpt lat="30.321114556168464" lon="-5.849883321233433"><ele>726.0</ele><time>2026-03-24T14:57:31.982Z</time></trkpt><trkpt lat="30.32116197672903" lon="-5.849775350897459"><ele>726.0</ele><time>2026-03-24T14:57:32.982Z</time></trkpt><trkpt lat="30.321189201305128" lon="-5.8496497416909214"><ele>726.0</ele><time>2026-03-24T14:57:33.982Z</time></trkpt><trkpt lat="30.321209827346365" lon="-5.849485663692446"><ele>726.0</ele><time>2026-03-24T14:57:34.982Z</time></trkpt><trkpt lat="30.32123264177693" lon="-5.849307789431109"><ele>726.0</ele><time>2026-03-24T14:57:35.982Z</time></trkpt><trkpt lat="30.32125821294326" lon="-5.849157034847804"><ele>726.0</ele><time>2026-03-24T14:57:36.982Z</time></trkpt><trkpt lat="30.321286407887303" lon="-5.849029606296141"><ele>726.0</ele><time>2026-03-24T14:57:37.982Z</time></trkpt><trkpt lat="30.321317486023773" lon="-5.848922382773999"><ele>726.4</ele><time>2026-03-24T14:57:38.982Z</time></trkpt><trkpt lat="30.32135272404353" lon="-5.848810961212725"><ele>726.8</ele><time>2026-03-24T14:57:39.982Z</time></trkpt><trkpt lat="30.321375984304787" lon="-5.848709497924235"><ele>727.1999999999999</ele><time>2026-03-24T14:57:40.982Z</time></trkpt><trkpt lat="30.321395176565368" lon="-5.848615859518152"><ele>727.5999999999999</ele><time>2026-03-24T14:57:41.982Z</time></trkpt><trkpt lat="30.32140832714944" lon="-5.848525972675764"><ele>728.0</ele><time>2026-03-24T14:57:42.982Z</time></trkpt><trkpt lat="30.32142701901708" lon="-5.848403876152456"><ele>726.8333333333333</ele><time>2026-03-24T14:57:44.982Z</time></trkpt><trkpt lat="30.32149090213136" lon="-5.848337024388164"><ele>725.6666666666666</ele><time>2026-03-24T14:57:46.982Z</time></trkpt><trkpt lat="30.321546717036345" lon="-5.848243834831549"><ele>724.5</ele><time>2026-03-24T14:57:49.982Z</time></trkpt><trkpt lat="30.321548769475267" lon="-5.848166561648873"><ele>723.3333333333334</ele><time>2026-03-24T14:57:50.982Z</time></trkpt><trkpt lat="30.321532693589557" lon="-5.848083721151768"><ele>722.1666666666667</ele><time>2026-03-24T14:57:51.982Z</time></trkpt><trkpt lat="30.32151871080582" lon="-5.847992818668171"><ele>721.0</ele><time>2026-03-24T14:57:52.982Z</time></trkpt><trkpt lat="30.321510449426803" lon="-5.847905276114835"><ele>721.0</ele><time>2026-03-24T14:57:53.982Z</time></trkpt><trkpt lat="30.321502277960448" lon="-5.847800604850418"><ele>721.0</ele><time>2026-03-24T14:57:54.982Z</time></trkpt><trkpt lat="30.32148714181446" lon="-5.847687014261132"><ele>721.0</ele><time>2026-03-24T14:57:55.982Z</time></trkpt><trkpt lat="30.321476078258545" lon="-5.8475501812007"><ele>721.0</ele><time>2026-03-24T14:57:56.982Z</time></trkpt><trkpt lat="30.3214595669065" lon="-5.8474011759357225"><ele>721.0</ele><time>2026-03-24T14:57:57.982Z</time></trkpt><trkpt lat="30.32144975560297" lon="-5.8472592109155475"><ele>720.75</ele><time>2026-03-24T14:57:58.982Z</time></trkpt><trkpt lat="30.3214410833404" lon="-5.847139870229357"><ele>720.5</ele><time>2026-03-24T14:57:59.982Z</time></trkpt><trkpt lat="30.32144021001527" lon="-5.847009498173173"><ele>720.25</ele><time>2026-03-24T14:58:00.982Z</time></trkpt><trkpt lat="30.321441263766765" lon="-5.84687883989112"><ele>720.0</ele><time>2026-03-24T14:58:01.982Z</time></trkpt><trkpt lat="30.321447788029168" lon="-5.846729779299229"><ele>719.5</ele><time>2026-03-24T14:58:02.982Z</time></trkpt><trkpt lat="30.32145613085096" lon="-5.846573877504118"><ele>719.0</ele><time>2026-03-24T14:58:03.982Z</time></trkpt><trkpt lat="30.32147833794347" lon="-5.846419854257333"><ele>718.5</ele><time>2026-03-24T14:58:04.982Z</time></trkpt><trkpt lat="30.321507590156255" lon="-5.846265705526262"><ele>718.0</ele><time>2026-03-24T14:58:05.982Z</time></trkpt><trkpt lat="30.32153954459127" lon="-5.846106845970302"><ele>717.75</ele><time>2026-03-24T14:58:06.982Z</time></trkpt><trkpt lat="30.321569212179266" lon="-5.845948716193687"><ele>717.5</ele><time>2026-03-24T14:58:07.982Z</time></trkpt><trkpt lat="30.321608177554758" lon="-5.845797374384093"><ele>717.25</ele><time>2026-03-24T14:58:08.982Z</time></trkpt><trkpt lat="30.321652129200743" lon="-5.845645132399175"><ele>717.0</ele><time>2026-03-24T14:58:09.982Z</time></trkpt><trkpt lat="30.321703793676875" lon="-5.845505826439073"><ele>717.0</ele><time>2026-03-24T14:58:10.982Z</time></trkpt><trkpt lat="30.321760342267133" lon="-5.8453659414472705"><ele>717.0</ele><time>2026-03-24T14:58:11.982Z</time></trkpt><trkpt lat="30.32182211617291" lon="-5.84523443914266"><ele>717.0</ele><time>2026-03-24T14:58:12.982Z</time></trkpt><trkpt lat="30.32188403612694" lon="-5.845100809222172"><ele>717.0</ele><time>2026-03-24T14:58:13.982Z</time></trkpt><trkpt lat="30.321943106591903" lon="-5.844980211246514"><ele>717.0</ele><time>2026-03-24T14:58:14.982Z</time></trkpt><trkpt lat="30.32201434010135" lon="-5.844852876518093"><ele>717.0</ele><time>2026-03-24T14:58:15.982Z</time></trkpt><trkpt lat="30.322085091128155" lon="-5.844736858563354"><ele>717.0</ele><time>2026-03-24T14:58:16.982Z</time></trkpt><trkpt lat="30.322166898574494" lon="-5.844620366008349"><ele>717.0</ele><time>2026-03-24T14:58:17.982Z</time></trkpt><trkpt lat="30.322246430085873" lon="-5.844505841740926"><ele>717.5</ele><time>2026-03-24T14:58:18.982Z</time></trkpt><trkpt lat="30.322328498026497" lon="-5.844388594888093"><ele>718.0</ele><time>2026-03-24T14:58:19.982Z</time></trkpt><trkpt lat="30.322416978255973" lon="-5.844278917242645"><ele>718.5</ele><time>2026-03-24T14:58:20.982Z</time></trkpt><trkpt lat="30.322506660588644" lon="-5.84417176946707"><ele>719.0</ele><time>2026-03-24T14:58:21.982Z</time></trkpt><trkpt lat="30.322599684144997" lon="-5.844060974064952"><ele>719.0</ele><time>2026-03-24T14:58:22.982Z</time></trkpt><trkpt lat="30.322687908097787" lon="-5.843950325283911"><ele>719.0</ele><time>2026-03-24T14:58:23.982Z</time></trkpt><trkpt lat="30.3227812352777" lon="-5.843830572515253"><ele>719.0</ele><time>2026-03-24T14:58:24.982Z</time></trkpt><trkpt lat="30.32287322121569" lon="-5.8436904524243"><ele>719.0</ele><time>2026-03-24T14:58:25.982Z</time></trkpt><trkpt lat="30.322958767914134" lon="-5.843539442656413"><ele>719.3333333333333</ele><time>2026-03-24T14:58:26.982Z</time></trkpt><trkpt lat="30.323037926491224" lon="-5.843370901624097"><ele>719.6666666666666</ele><time>2026-03-24T14:58:27.982Z</time></trkpt><trkpt lat="30.323102524739262" lon="-5.843207365155185"><ele>720.0</ele><time>2026-03-24T14:58:28.982Z</time></trkpt><trkpt lat="30.323154504435877" lon="-5.843047289429845"><ele>720.0</ele><time>2026-03-24T14:58:29.982Z</time></trkpt><trkpt lat="30.323194263528457" lon="-5.842884770980917"><ele>720.0</ele><time>2026-03-24T14:58:30.982Z</time></trkpt><trkpt lat="30.323226268696185" lon="-5.842718073399009"><ele>720.0</ele><time>2026-03-24T14:58:31.982Z</time></trkpt><trkpt lat="30.32325168130956" lon="-5.842549088613122"><ele>720.0</ele><time>2026-03-24T14:58:32.982Z</time></trkpt><trkpt lat="30.32327934003736" lon="-5.8423855328182395"><ele>721.0</ele><time>2026-03-24T14:58:33.982Z</time></trkpt><trkpt lat="30.32330713371966" lon="-5.842223099024354"><ele>722.0</ele><time>2026-03-24T14:58:34.982Z</time></trkpt><trkpt lat="30.323335471795108" lon="-5.842070983610034"><ele>723.0</ele><time>2026-03-24T14:58:35.982Z</time></trkpt><trkpt lat="30.32335754519882" lon="-5.841935988022356"><ele>724.0</ele><time>2026-03-24T14:58:36.982Z</time></trkpt><trkpt lat="30.323376208778516" lon="-5.8418148583589184"><ele>724.1666666666667</ele><time>2026-03-24T14:58:37.982Z</time></trkpt><trkpt lat="30.323393526066507" lon="-5.841696955737506"><ele>724.3333333333334</ele><time>2026-03-24T14:58:38.982Z</time></trkpt><trkpt lat="30.32341667848017" lon="-5.841589654396408"><ele>724.5</ele><time>2026-03-24T14:58:39.982Z</time></trkpt><trkpt lat="30.323435834248958" lon="-5.84149775523225"><ele>724.6666666666666</ele><time>2026-03-24T14:58:40.982Z</time></trkpt><trkpt lat="30.32345146048608" lon="-5.8414140471118206"><ele>724.8333333333333</ele><time>2026-03-24T14:58:41.982Z</time></trkpt><trkpt lat="30.32346941883059" lon="-5.84134399686388"><ele>725.0</ele><time>2026-03-24T14:58:42.982Z</time></trkpt><trkpt lat="30.323485481864758" lon="-5.841246719934866"><ele>725.0</ele><time>2026-03-24T14:58:44.982Z</time></trkpt><trkpt lat="30.323497997993304" lon="-5.841155573471133"><ele>725.0</ele><time>2026-03-24T14:58:46.983Z</time></trkpt><trkpt lat="30.323495204494417" lon="-5.8410486652768245"><ele>725.0</ele><time>2026-03-24T14:58:48.982Z</time></trkpt><trkpt lat="30.323476659177473" lon="-5.840949009740497"><ele>725.0</ele><time>2026-03-24T14:58:50.982Z</time></trkpt><trkpt lat="30.323451138186932" lon="-5.840849740329596"><ele>725.0</ele><time>2026-03-24T14:58:52.982Z</time></trkpt><trkpt lat="30.32339373462866" lon="-5.8407370340586215"><ele>726.2</ele><time>2026-03-24T14:58:54.982Z</time></trkpt><trkpt lat="30.323300600370604" lon="-5.840682935583752"><ele>727.4</ele><time>2026-03-24T14:58:56.982Z</time></trkpt><trkpt lat="30.3232008347123" lon="-5.840644407220493"><ele>728.5999999999999</ele><time>2026-03-24T14:58:58.982Z</time></trkpt><trkpt lat="30.323118016828268" lon="-5.840590307419441"><ele>729.8</ele><time>2026-03-24T14:59:00.982Z</time></trkpt><trkpt lat="30.323064443235804" lon="-5.840504185229989"><ele>731.0</ele><time>2026-03-24T14:59:02.982Z</time></trkpt><trkpt lat="30.32306554087838" lon="-5.840430773707105"><ele>731.0</ele><time>2026-03-24T14:59:04.982Z</time></trkpt><trkpt lat="30.323159991707797" lon="-5.8403645437618374"><ele>731.0</ele><time>2026-03-24T14:59:06.982Z</time></trkpt><trkpt lat="30.323237953436358" lon="-5.8403728991524835"><ele>731.0</ele><time>2026-03-24T14:59:07.982Z</time></trkpt><trkpt lat="30.323330937476435" lon="-5.840430951246401"><ele>731.0</ele><time>2026-03-24T14:59:09.982Z</time></trkpt><trkpt lat="30.323400151824597" lon="-5.840468254537248"><ele>731.0</ele><time>2026-03-24T14:59:11.982Z</time></trkpt><trkpt lat="30.323477848912592" lon="-5.840468284442366"><ele>731.0</ele><time>2026-03-24T14:59:14.982Z</time></trkpt><trkpt lat="30.323560533277366" lon="-5.840471028407522"><ele>731.0</ele><time>2026-03-24T15:00:17.982Z</time></trkpt><trkpt lat="30.32362550430287" lon="-5.840441465022154"><ele>731.0</ele><time>2026-03-24T15:00:18.982Z</time></trkpt><trkpt lat="30.32371412927192" lon="-5.840399955875539"><ele>731.0</ele><time>2026-03-24T15:00:19.982Z</time></trkpt><trkpt lat="30.323817232314997" lon="-5.8403592672538"><ele>731.0</ele><time>2026-03-24T15:00:20.982Z</time></trkpt><trkpt lat="30.32392417454903" lon="-5.840310207503991"><ele>731.0</ele><time>2026-03-24T15:00:21.982Z</time></trkpt><trkpt lat="30.324037450727406" lon="-5.840255861009431"><ele>731.5</ele><time>2026-03-24T15:00:22.982Z</time></trkpt><trkpt lat="30.324151481345698" lon="-5.840197534172439"><ele>732.0</ele><time>2026-03-24T15:00:23.982Z</time></trkpt><trkpt lat="30.32426913927779" lon="-5.840138571279666"><ele>732.5</ele><time>2026-03-24T15:00:24.982Z</time></trkpt><trkpt lat="30.32438551174646" lon="-5.840081846850196"><ele>733.0</ele><time>2026-03-24T15:00:25.982Z</time></trkpt><trkpt lat="30.324498360375493" lon="-5.840030355340138"><ele>733.0</ele><time>2026-03-24T15:00:26.982Z</time></trkpt><trkpt lat="30.324612259264093" lon="-5.839976418280655"><ele>733.0</ele><time>2026-03-24T15:00:27.982Z</time></trkpt><trkpt lat="30.32472383749823" lon="-5.839919670917277"><ele>733.0</ele><time>2026-03-24T15:00:28.982Z</time></trkpt><trkpt lat="30.32482861785584" lon="-5.8398679648343625"><ele>733.0</ele><time>2026-03-24T15:00:29.982Z</time></trkpt><trkpt lat="30.324936950896276" lon="-5.839822992260301"><ele>733.0</ele><time>2026-03-24T15:00:30.982Z</time></trkpt><trkpt lat="30.325045563303316" lon="-5.8397807098869166"><ele>733.0</ele><time>2026-03-24T15:00:31.982Z</time></trkpt><trkpt lat="30.32514296359944" lon="-5.839741799135821"><ele>733.0</ele><time>2026-03-24T15:00:32.982Z</time></trkpt><trkpt lat="30.325237183021628" lon="-5.839701519336013"><ele>733.0</ele><time>2026-03-24T15:00:33.982Z</time></trkpt><trkpt lat="30.325344214576404" lon="-5.839642225496139"><ele>733.0</ele><time>2026-03-24T15:00:34.982Z</time></trkpt><trkpt lat="30.325467380080607" lon="-5.8395726910220915"><ele>733.0</ele><time>2026-03-24T15:00:35.982Z</time></trkpt><trkpt lat="30.32558999192281" lon="-5.8395093871724555"><ele>733.0</ele><time>2026-03-24T15:00:36.982Z</time></trkpt><trkpt lat="30.32570445558188" lon="-5.839455698148161"><ele>733.0</ele><time>2026-03-24T15:00:37.982Z</time></trkpt><trkpt lat="30.32580440986449" lon="-5.839404751925935"><ele>733.0</ele><time>2026-03-24T15:00:38.982Z</time></trkpt><trkpt lat="30.32588835651519" lon="-5.839359648581235"><ele>733.0</ele><time>2026-03-24T15:00:39.982Z</time></trkpt><trkpt lat="30.325975135234096" lon="-5.839317806775205"><ele>733.0</ele><time>2026-03-24T15:00:40.982Z</time></trkpt><trkpt lat="30.326056596860873" lon="-5.839275373957713"><ele>733.0</ele><time>2026-03-24T15:00:41.982Z</time></trkpt><trkpt lat="30.326130104694013" lon="-5.839235494504045"><ele>733.0</ele><time>2026-03-24T15:00:42.982Z</time></trkpt><trkpt lat="30.326206463581837" lon="-5.839192803470766"><ele>733.0</ele><time>2026-03-24T15:00:43.982Z</time></trkpt><trkpt lat="30.326306999900105" lon="-5.839152884238677"><ele>733.4</ele><time>2026-03-24T15:00:44.982Z</time></trkpt><trkpt lat="30.326400078718276" lon="-5.839108955486156"><ele>733.8</ele><time>2026-03-24T15:00:45.982Z</time></trkpt><trkpt lat="30.326485124641795" lon="-5.83906656557528"><ele>734.2</ele><time>2026-03-24T15:00:46.982Z</time></trkpt><trkpt lat="30.326570520410357" lon="-5.839028499066018"><ele>734.6</ele><time>2026-03-24T15:00:47.982Z</time></trkpt><trkpt lat="30.326663161197903" lon="-5.8389872494648305"><ele>735.0</ele><time>2026-03-24T15:00:48.982Z</time></trkpt><trkpt lat="30.326759742977586" lon="-5.838943838503671"><ele>735.0</ele><time>2026-03-24T15:00:49.982Z</time></trkpt><trkpt lat="30.326852555973304" lon="-5.838901132790719"><ele>735.0</ele><time>2026-03-24T15:00:50.982Z</time></trkpt><trkpt lat="30.32694500147118" lon="-5.8388508554979826"><ele>735.0</ele><time>2026-03-24T15:00:51.982Z</time></trkpt><trkpt lat="30.327038355264943" lon="-5.8388019648797975"><ele>735.0</ele><time>2026-03-24T15:00:52.982Z</time></trkpt><trkpt lat="30.327123760062776" lon="-5.838756712046972"><ele>735.0</ele><time>2026-03-24T15:00:53.982Z</time></trkpt><trkpt lat="30.327207242455334" lon="-5.838718637346133"><ele>735.1666666666666</ele><time>2026-03-24T15:00:54.982Z</time></trkpt><trkpt lat="30.327284406827573" lon="-5.8386826351244565"><ele>735.3333333333334</ele><time>2026-03-24T15:00:55.982Z</time></trkpt><trkpt lat="30.327361698141186" lon="-5.8386491599125865"><ele>735.5</ele><time>2026-03-24T15:00:56.982Z</time></trkpt><trkpt lat="30.327434101825364" lon="-5.838616400708814"><ele>735.6666666666667</ele><time>2026-03-24T15:00:57.982Z</time></trkpt><trkpt lat="30.327500904402424" lon="-5.83858888793416"><ele>735.8333333333334</ele><time>2026-03-24T15:00:58.983Z</time></trkpt><trkpt lat="30.32756957824504" lon="-5.838564374126573"><ele>736.0</ele><time>2026-03-24T15:00:59.982Z</time></trkpt><trkpt lat="30.327650231061515" lon="-5.838542455058897"><ele>736.0</ele><time>2026-03-24T15:01:00.982Z</time></trkpt><trkpt lat="30.327729777417577" lon="-5.83851874010461"><ele>736.0</ele><time>2026-03-24T15:01:01.982Z</time></trkpt><trkpt lat="30.327814618502952" lon="-5.838490997100519"><ele>736.0</ele><time>2026-03-24T15:01:02.982Z</time></trkpt><trkpt lat="30.327898676330932" lon="-5.8384668586392605"><ele>736.0</ele><time>2026-03-24T15:01:03.982Z</time></trkpt><trkpt lat="30.327969733143984" lon="-5.838437931130521"><ele>736.0</ele><time>2026-03-24T15:01:04.982Z</time></trkpt><trkpt lat="30.328030888151805" lon="-5.838389232561188"><ele>736.0</ele><time>2026-03-24T15:01:05.982Z</time></trkpt><trkpt lat="30.32809254881203" lon="-5.838372415865727"><ele>735.8</ele><time>2026-03-24T15:01:06.982Z</time></trkpt><trkpt lat="30.32822447208673" lon="-5.838338887194109"><ele>735.5999999999999</ele><time>2026-03-24T15:01:08.982Z</time></trkpt><trkpt lat="30.328298488355866" lon="-5.83832007575035"><ele>735.4</ele><time>2026-03-24T15:01:09.982Z</time></trkpt><trkpt lat="30.32840441655655" lon="-5.8382931538174"><ele>735.2</ele><time>2026-03-24T15:01:11.982Z</time></trkpt><trkpt lat="30.328474914368073" lon="-5.8382768866466925"><ele>735.0</ele><time>2026-03-24T15:01:13.982Z</time></trkpt><trkpt lat="30.328467986701778" lon="-5.838192345969054"><ele>735.0</ele><time>2026-03-24T15:01:16.982Z</time></trkpt><trkpt lat="30.328481455870246" lon="-5.838117885578347"><ele>735.0</ele><time>2026-03-24T15:01:22.982Z</time></trkpt><trkpt lat="30.328583806196324" lon="-5.838108279867267"><ele>735.0</ele><time>2026-03-24T15:02:58.982Z</time></trkpt><trkpt lat="30.328623987269054" lon="-5.838048526722226"><ele>735.0</ele><time>2026-03-24T15:03:29.981Z</time></trkpt><trkpt lat="30.328657525308042" lon="-5.838122174348014"><ele>735.0</ele><time>2026-03-24T15:04:27.981Z</time></trkpt><trkpt lat="30.328602856581238" lon="-5.8381793527128"><ele>735.0</ele><time>2026-03-24T15:07:18.981Z</time></trkpt><trkpt lat="30.3286663591624" lon="-5.838220426421745"><ele>735.0</ele><time>2026-03-24T15:07:56.982Z</time></trkpt><trkpt lat="30.328688728709047" lon="-5.838289803728817"><ele>735.0</ele><time>2026-03-24T15:08:06.982Z</time></trkpt><trkpt lat="30.328604612409485" lon="-5.838398274274212"><ele>735.0</ele><time>2026-03-24T15:08:09.982Z</time></trkpt><trkpt lat="30.328509332933617" lon="-5.838419902503171"><ele>735.0</ele><time>2026-03-24T15:08:10.982Z</time></trkpt><trkpt lat="30.328383363528314" lon="-5.838432778581583"><ele>735.0</ele><time>2026-03-24T15:08:11.982Z</time></trkpt><trkpt lat="30.328246966087544" lon="-5.838433811242728"><ele>735.0</ele><time>2026-03-24T15:08:12.982Z</time></trkpt><trkpt lat="30.32813778849316" lon="-5.838436672353941"><ele>735.0</ele><time>2026-03-24T15:08:13.982Z</time></trkpt><trkpt lat="30.328046958840318" lon="-5.838450039996307"><ele>735.0</ele><time>2026-03-24T15:08:14.982Z</time></trkpt><trkpt lat="30.327964044573182" lon="-5.838470268099071"><ele>735.0</ele><time>2026-03-24T15:08:15.982Z</time></trkpt><trkpt lat="30.327829378274995" lon="-5.838518479217742"><ele>735.0</ele><time>2026-03-24T15:08:17.982Z</time></trkpt><trkpt lat="30.327723891809093" lon="-5.838551956607588"><ele>735.25</ele><time>2026-03-24T15:08:18.982Z</time></trkpt><trkpt lat="30.327602119407647" lon="-5.838584436699197"><ele>735.5</ele><time>2026-03-24T15:08:19.982Z</time></trkpt><trkpt lat="30.32747824591588" lon="-5.838621591966773"><ele>735.75</ele><time>2026-03-24T15:08:20.982Z</time></trkpt><trkpt lat="30.327364651115445" lon="-5.838669047307414"><ele>736.0</ele><time>2026-03-24T15:08:21.982Z</time></trkpt><trkpt lat="30.327269448325904" lon="-5.838696167375137"><ele>735.8</ele><time>2026-03-24T15:08:22.982Z</time></trkpt><trkpt lat="30.327184262253102" lon="-5.838727917666809"><ele>735.5999999999999</ele><time>2026-03-24T15:08:23.982Z</time></trkpt><trkpt lat="30.32710831544528" lon="-5.838763310149978"><ele>735.4</ele><time>2026-03-24T15:08:24.982Z</time></trkpt><trkpt lat="30.327029675225923" lon="-5.838801330269958"><ele>735.2</ele><time>2026-03-24T15:08:25.982Z</time></trkpt><trkpt lat="30.326940204252146" lon="-5.83884266305454"><ele>735.0</ele><time>2026-03-24T15:08:26.982Z</time></trkpt><trkpt lat="30.32684866924196" lon="-5.838885948196311"><ele>735.0</ele><time>2026-03-24T15:08:27.982Z</time></trkpt><trkpt lat="30.32674645754233" lon="-5.838936371719056"><ele>735.0</ele><time>2026-03-24T15:08:28.982Z</time></trkpt><trkpt lat="30.326645161093058" lon="-5.838985797955556"><ele>735.0</ele><time>2026-03-24T15:08:29.982Z</time></trkpt><trkpt lat="30.326531563249766" lon="-5.839032539052557"><ele>735.0</ele><time>2026-03-24T15:08:30.982Z</time></trkpt><trkpt lat="30.32643027114692" lon="-5.839076959091263"><ele>734.8</ele><time>2026-03-24T15:08:31.982Z</time></trkpt><trkpt lat="30.32632592135275" lon="-5.839116352957469"><ele>734.6</ele><time>2026-03-24T15:08:32.982Z</time></trkpt><trkpt lat="30.32622902087801" lon="-5.839166159896938"><ele>734.4000000000001</ele><time>2026-03-24T15:08:33.982Z</time></trkpt><trkpt lat="30.326135843066492" lon="-5.839214616801893"><ele>734.2</ele><time>2026-03-24T15:08:34.982Z</time></trkpt><trkpt lat="30.32604725828347" lon="-5.839253290871699"><ele>734.0</ele><time>2026-03-24T15:08:35.982Z</time></trkpt><trkpt lat="30.325952198373137" lon="-5.839298136597608"><ele>733.8000000000001</ele><time>2026-03-24T15:08:36.982Z</time></trkpt><trkpt lat="30.32585885149257" lon="-5.839343096942541"><ele>733.6</ele><time>2026-03-24T15:08:37.982Z</time></trkpt><trkpt lat="30.325772318646944" lon="-5.839386982471196"><ele>733.4</ele><time>2026-03-24T15:08:38.982Z</time></trkpt><trkpt lat="30.325694255551895" lon="-5.839428827592425"><ele>733.2</ele><time>2026-03-24T15:08:39.982Z</time></trkpt><trkpt lat="30.325617231676315" lon="-5.83946873005411"><ele>733.0</ele><time>2026-03-24T15:08:40.982Z</time></trkpt><trkpt lat="30.325532972072814" lon="-5.839512763092748"><ele>733.0</ele><time>2026-03-24T15:08:41.982Z</time></trkpt><trkpt lat="30.325442044013943" lon="-5.839558577076877"><ele>733.0</ele><time>2026-03-24T15:08:42.982Z</time></trkpt><trkpt lat="30.325355450189253" lon="-5.839600294543629"><ele>733.0</ele><time>2026-03-24T15:08:43.982Z</time></trkpt><trkpt lat="30.32526799093702" lon="-5.839648691488541"><ele>733.0</ele><time>2026-03-24T15:08:44.982Z</time></trkpt><trkpt lat="30.32517088141684" lon="-5.839690399793703"><ele>733.0</ele><time>2026-03-24T15:08:45.982Z</time></trkpt><trkpt lat="30.32507358185384" lon="-5.8397345236236395"><ele>733.0</ele><time>2026-03-24T15:08:46.982Z</time></trkpt><trkpt lat="30.32497454432978" lon="-5.839781922655538"><ele>733.0</ele><time>2026-03-24T15:08:47.982Z</time></trkpt><trkpt lat="30.324869232341733" lon="-5.839832810702587"><ele>733.0</ele><time>2026-03-24T15:08:48.982Z</time></trkpt><trkpt lat="30.324767190422776" lon="-5.83988232381076"><ele>733.0</ele><time>2026-03-24T15:08:49.982Z</time></trkpt><trkpt lat="30.324668307782137" lon="-5.839934942128346"><ele>733.0</ele><time>2026-03-24T15:08:50.982Z</time></trkpt><trkpt lat="30.32457347092091" lon="-5.839984212640934"><ele>733.0</ele><time>2026-03-24T15:08:51.982Z</time></trkpt><trkpt lat="30.324476603732883" lon="-5.840027804472146"><ele>733.0</ele><time>2026-03-24T15:08:52.982Z</time></trkpt><trkpt lat="30.32438198844847" lon="-5.840072483043316"><ele>733.0</ele><time>2026-03-24T15:08:53.982Z</time></trkpt><trkpt lat="30.32429072077787" lon="-5.840116869922217"><ele>733.0</ele><time>2026-03-24T15:08:54.982Z</time></trkpt><trkpt lat="30.324197432365324" lon="-5.840163952182582"><ele>733.0</ele><time>2026-03-24T15:08:55.982Z</time></trkpt><trkpt lat="30.324105875457576" lon="-5.840206518781683"><ele>732.6666666666667</ele><time>2026-03-24T15:08:56.982Z</time></trkpt><trkpt lat="30.32401415918067" lon="-5.840246026460886"><ele>732.3333333333334</ele><time>2026-03-24T15:08:57.982Z</time></trkpt><trkpt lat="30.323927141877263" lon="-5.840285019886207"><ele>732.0</ele><time>2026-03-24T15:08:58.982Z</time></trkpt><trkpt lat="30.323847826533562" lon="-5.840322340899124"><ele>731.6666666666666</ele><time>2026-03-24T15:08:59.982Z</time></trkpt><trkpt lat="30.32377681661595" lon="-5.840356879546365"><ele>731.3333333333333</ele><time>2026-03-24T15:09:00.982Z</time></trkpt><trkpt lat="30.323702694695065" lon="-5.840396668763858"><ele>731.0</ele><time>2026-03-24T15:09:01.982Z</time></trkpt><trkpt lat="30.323626758428265" lon="-5.840438108454706"><ele>731.0</ele><time>2026-03-24T15:09:02.982Z</time></trkpt><trkpt lat="30.323558273568917" lon="-5.840472192644122"><ele>731.0</ele><time>2026-03-24T15:09:03.982Z</time></trkpt><trkpt lat="30.32349234613235" lon="-5.840511319969482"><ele>731.0</ele><time>2026-03-24T15:09:04.982Z</time></trkpt><trkpt lat="30.32343174560224" lon="-5.84056470942107"><ele>731.0</ele><time>2026-03-24T15:09:05.982Z</time></trkpt><trkpt lat="30.323375181158067" lon="-5.840609883919076"><ele>731.0</ele><time>2026-03-24T15:09:06.982Z</time></trkpt><trkpt lat="30.323310564196202" lon="-5.840631827199512"><ele>731.0</ele><time>2026-03-24T15:09:07.982Z</time></trkpt><trkpt lat="30.32323472704907" lon="-5.840622637104293"><ele>731.0</ele><time>2026-03-24T15:09:08.982Z</time></trkpt><trkpt lat="30.323162444781012" lon="-5.840585172004449"><ele>731.0</ele><time>2026-03-24T15:09:09.982Z</time></trkpt><trkpt lat="30.323095434974523" lon="-5.840540122505862"><ele>731.0</ele><time>2026-03-24T15:09:10.982Z</time></trkpt><trkpt lat="30.323030087896644" lon="-5.840489505042072"><ele>731.0</ele><time>2026-03-24T15:09:11.982Z</time></trkpt><trkpt lat="30.322954952569546" lon="-5.840434194592612"><ele>731.0</ele><time>2026-03-24T15:09:12.982Z</time></trkpt><trkpt lat="30.322871345971375" lon="-5.8403841661568885"><ele>731.0</ele><time>2026-03-24T15:09:13.982Z</time></trkpt><trkpt lat="30.32277851328022" lon="-5.840344851125582"><ele>731.0</ele><time>2026-03-24T15:09:14.982Z</time></trkpt><trkpt lat="30.322682164600113" lon="-5.840309808817098"><ele>731.0</ele><time>2026-03-24T15:09:15.982Z</time></trkpt><trkpt lat="30.322572199024204" lon="-5.840274573672042"><ele>731.0</ele><time>2026-03-24T15:09:16.981Z</time></trkpt><trkpt lat="30.322435328072046" lon="-5.840234195403296"><ele>731.0</ele><time>2026-03-24T15:09:17.982Z</time></trkpt><trkpt lat="30.322314368926715" lon="-5.840202481551561"><ele>731.0</ele><time>2026-03-24T15:09:18.982Z</time></trkpt><trkpt lat="30.322203961095287" lon="-5.840166650871665"><ele>731.1999999999999</ele><time>2026-03-24T15:09:19.982Z</time></trkpt><trkpt lat="30.322097389451248" lon="-5.8401391135682195"><ele>731.4</ele><time>2026-03-24T15:09:20.981Z</time></trkpt><trkpt lat="30.321992163540703" lon="-5.840116232012455"><ele>731.6</ele><time>2026-03-24T15:09:21.981Z</time></trkpt><trkpt lat="30.32189285208221" lon="-5.8401012325057495"><ele>731.8</ele><time>2026-03-24T15:09:22.982Z</time></trkpt><trkpt lat="30.321791409040863" lon="-5.840085909404826"><ele>732.0</ele><time>2026-03-24T15:09:23.981Z</time></trkpt><trkpt lat="30.321688313451418" lon="-5.84008403764799"><ele>730.6</ele><time>2026-03-24T15:09:24.981Z</time></trkpt><trkpt lat="30.32158081801054" lon="-5.84008973240812"><ele>729.2</ele><time>2026-03-24T15:09:25.981Z</time></trkpt><trkpt lat="30.321471053066333" lon="-5.840102357782981"><ele>727.8</ele><time>2026-03-24T15:09:26.982Z</time></trkpt><trkpt lat="30.32136178851678" lon="-5.840131163071738"><ele>726.4</ele><time>2026-03-24T15:09:27.982Z</time></trkpt><trkpt lat="30.321252119964644" lon="-5.8401595008777845"><ele>725.0</ele><time>2026-03-24T15:09:28.981Z</time></trkpt><trkpt lat="30.32114228378402" lon="-5.840174653323623"><ele>724.6</ele><time>2026-03-24T15:09:29.981Z</time></trkpt><trkpt lat="30.321037555811913" lon="-5.840172323575591"><ele>724.2</ele><time>2026-03-24T15:09:30.981Z</time></trkpt><trkpt lat="30.320935229034603" lon="-5.8401451526441015"><ele>723.8</ele><time>2026-03-24T15:09:31.981Z</time></trkpt><trkpt lat="30.320832397837492" lon="-5.840107239758085"><ele>723.4</ele><time>2026-03-24T15:09:32.981Z</time></trkpt><trkpt lat="30.32073790002025" lon="-5.840003161344415"><ele>723.0</ele><time>2026-03-24T15:09:33.981Z</time></trkpt><trkpt lat="30.320669751460006" lon="-5.839879304481711"><ele>723.0</ele><time>2026-03-24T15:09:34.981Z</time></trkpt><trkpt lat="30.32060509551226" lon="-5.83975516232119"><ele>723.0</ele><time>2026-03-24T15:09:35.981Z</time></trkpt><trkpt lat="30.320546732756306" lon="-5.839642228851192"><ele>723.0</ele><time>2026-03-24T15:09:36.981Z</time></trkpt><trkpt lat="30.32048814929749" lon="-5.839528239138783"><ele>723.0</ele><time>2026-03-24T15:09:37.981Z</time></trkpt><trkpt lat="30.320425475120622" lon="-5.839406111523483"><ele>722.5</ele><time>2026-03-24T15:09:38.981Z</time></trkpt><trkpt lat="30.320362951286555" lon="-5.839283552235907"><ele>722.0</ele><time>2026-03-24T15:09:39.981Z</time></trkpt><trkpt lat="30.320299309729197" lon="-5.839158104724238"><ele>721.5</ele><time>2026-03-24T15:09:40.981Z</time></trkpt><trkpt lat="30.320247852205938" lon="-5.839020208951489"><ele>721.0</ele><time>2026-03-24T15:09:41.981Z</time></trkpt><trkpt lat="30.32017327749449" lon="-5.8388934242719435"><ele>721.0</ele><time>2026-03-24T15:09:42.981Z</time></trkpt><trkpt lat="30.320104127188348" lon="-5.838765328114266"><ele>721.0</ele><time>2026-03-24T15:09:43.981Z</time></trkpt><trkpt lat="30.320036392473245" lon="-5.838640546807503"><ele>721.0</ele><time>2026-03-24T15:09:44.981Z</time></trkpt><trkpt lat="30.319972082307533" lon="-5.838517831630385"><ele>721.0</ele><time>2026-03-24T15:09:45.981Z</time></trkpt><trkpt lat="30.319909794668888" lon="-5.838397585621495"><ele>720.1999999999999</ele><time>2026-03-24T15:09:46.981Z</time></trkpt><trkpt lat="30.319851155191976" lon="-5.8382838004151925"><ele>719.4</ele><time>2026-03-24T15:09:47.981Z</time></trkpt><trkpt lat="30.31980206332091" lon="-5.838172600629611"><ele>718.6</ele><time>2026-03-24T15:09:48.981Z</time></trkpt><trkpt lat="30.31975724687053" lon="-5.83806205784389"><ele>717.8</ele><time>2026-03-24T15:09:49.981Z</time></trkpt><trkpt lat="30.31970854366948" lon="-5.837949518952881"><ele>717.0</ele><time>2026-03-24T15:09:50.981Z</time></trkpt><trkpt lat="30.319657792164072" lon="-5.837829420685636"><ele>717.0</ele><time>2026-03-24T15:09:51.981Z</time></trkpt><trkpt lat="30.319605154156363" lon="-5.837703732858109"><ele>717.0</ele><time>2026-03-24T15:09:52.981Z</time></trkpt><trkpt lat="30.319558409751057" lon="-5.837585542287353"><ele>717.0</ele><time>2026-03-24T15:09:53.981Z</time></trkpt><trkpt lat="30.319518585141562" lon="-5.837479682194231"><ele>717.0</ele><time>2026-03-24T15:09:54.981Z</time></trkpt><trkpt lat="30.319481498076712" lon="-5.837376843698016"><ele>717.0</ele><time>2026-03-24T15:09:55.981Z</time></trkpt><trkpt lat="30.319433483853505" lon="-5.837275091044345"><ele>717.0</ele><time>2026-03-24T15:09:56.981Z</time></trkpt><trkpt lat="30.319380579019732" lon="-5.837164755449706"><ele>717.0</ele><time>2026-03-24T15:09:57.981Z</time></trkpt><trkpt lat="30.319333448914414" lon="-5.837051759095301"><ele>717.0</ele><time>2026-03-24T15:09:58.981Z</time></trkpt><trkpt lat="30.319283219775915" lon="-5.836930982789313"><ele>717.0</ele><time>2026-03-24T15:09:59.981Z</time></trkpt><trkpt lat="30.319227824935947" lon="-5.836810809442314"><ele>717.2</ele><time>2026-03-24T15:10:00.981Z</time></trkpt><trkpt lat="30.319180565872767" lon="-5.83669132532813"><ele>717.4000000000001</ele><time>2026-03-24T15:10:01.981Z</time></trkpt><trkpt lat="30.319195689804662" lon="-5.836573103876161"><ele>717.5999999999999</ele><time>2026-03-24T15:10:02.981Z</time></trkpt><trkpt lat="30.3191993104068" lon="-5.836461942224061"><ele>717.8</ele><time>2026-03-24T15:10:03.981Z</time></trkpt><trkpt lat="30.319238928673947" lon="-5.836348739183219"><ele>718.0</ele><time>2026-03-24T15:10:04.981Z</time></trkpt><trkpt lat="30.319306555873887" lon="-5.836250188965524"><ele>718.0</ele><time>2026-03-24T15:10:05.981Z</time></trkpt><trkpt lat="30.31935691462075" lon="-5.836140844626579"><ele>718.0</ele><time>2026-03-24T15:10:06.981Z</time></trkpt><trkpt lat="30.319437143228697" lon="-5.836042526668395"><ele>718.0</ele><time>2026-03-24T15:10:07.981Z</time></trkpt><trkpt lat="30.31952330930279" lon="-5.835935609544886"><ele>718.0</ele><time>2026-03-24T15:10:08.981Z</time></trkpt><trkpt lat="30.319628685139136" lon="-5.835821726666178"><ele>717.75</ele><time>2026-03-24T15:10:09.981Z</time></trkpt><trkpt lat="30.319718938023104" lon="-5.835724819269437"><ele>717.5</ele><time>2026-03-24T15:10:10.981Z</time></trkpt><trkpt lat="30.319822320465793" lon="-5.835652091187035"><ele>717.25</ele><time>2026-03-24T15:10:11.981Z</time></trkpt><trkpt lat="30.319902964417516" lon="-5.835554257925831"><ele>717.0</ele><time>2026-03-24T15:10:12.981Z</time></trkpt><trkpt lat="30.31999664303828" lon="-5.835478478288516"><ele>717.0</ele><time>2026-03-24T15:10:13.981Z</time></trkpt><trkpt lat="30.320094255060912" lon="-5.835406079737649"><ele>717.0</ele><time>2026-03-24T15:10:14.981Z</time></trkpt><trkpt lat="30.320193705800154" lon="-5.835334969358043"><ele>717.0</ele><time>2026-03-24T15:10:15.981Z</time></trkpt><trkpt lat="30.32027135452989" lon="-5.835263899527739"><ele>717.0</ele><time>2026-03-24T15:10:16.981Z</time></trkpt><trkpt lat="30.320363503303955" lon="-5.83519657189779"><ele>717.0</ele><time>2026-03-24T15:10:17.981Z</time></trkpt><trkpt lat="30.32043917979731" lon="-5.835124176996679"><ele>716.6</ele><time>2026-03-24T15:10:18.981Z</time></trkpt><trkpt lat="30.320525907606136" lon="-5.835070119586485"><ele>716.2</ele><time>2026-03-24T15:10:19.981Z</time></trkpt><trkpt lat="30.32060515828974" lon="-5.83501359806496"><ele>715.8</ele><time>2026-03-24T15:10:20.981Z</time></trkpt><trkpt lat="30.32068513281225" lon="-5.834954914396436"><ele>715.4</ele><time>2026-03-24T15:10:21.981Z</time></trkpt><trkpt lat="30.320761797299436" lon="-5.8348938223244025"><ele>715.0</ele><time>2026-03-24T15:10:22.981Z</time></trkpt><trkpt lat="30.32083094909492" lon="-5.834828521109222"><ele>715.0</ele><time>2026-03-24T15:10:23.981Z</time></trkpt><trkpt lat="30.32088589401745" lon="-5.834753130375142"><ele>715.0</ele><time>2026-03-24T15:10:24.981Z</time></trkpt><trkpt lat="30.32091929629427" lon="-5.83466707074192"><ele>715.0</ele><time>2026-03-24T15:10:25.981Z</time></trkpt><trkpt lat="30.320927377926616" lon="-5.834575006353041"><ele>715.0</ele><time>2026-03-24T15:10:26.981Z</time></trkpt><trkpt lat="30.320918702657096" lon="-5.834480089109346"><ele>715.0</ele><time>2026-03-24T15:10:27.981Z</time></trkpt><trkpt lat="30.320899928458733" lon="-5.834381126118321"><ele>715.0</ele><time>2026-03-24T15:10:28.981Z</time></trkpt><trkpt lat="30.32084970116941" lon="-5.834275299259353"><ele>713.75</ele><time>2026-03-24T15:10:29.981Z</time></trkpt><trkpt lat="30.320824226423905" lon="-5.83415613373033"><ele>712.5</ele><time>2026-03-24T15:10:30.981Z</time></trkpt><trkpt lat="30.320798255850587" lon="-5.83403437283145"><ele>711.25</ele><time>2026-03-24T15:10:31.981Z</time></trkpt><trkpt lat="30.320770942421696" lon="-5.833905047884146"><ele>710.0</ele><time>2026-03-24T15:10:32.981Z</time></trkpt><trkpt lat="30.320742281813473" lon="-5.833769344241359"><ele>710.0</ele><time>2026-03-24T15:10:33.981Z</time></trkpt><trkpt lat="30.320712109216817" lon="-5.833627749643874"><ele>710.0</ele><time>2026-03-24T15:10:34.981Z</time></trkpt><trkpt lat="30.320681607605973" lon="-5.833484877323974"><ele>710.0</ele><time>2026-03-24T15:10:35.981Z</time></trkpt><trkpt lat="30.320650947727493" lon="-5.833341263665621"><ele>710.0</ele><time>2026-03-24T15:10:36.981Z</time></trkpt><trkpt lat="30.320619755939855" lon="-5.833195158499978"><ele>710.0</ele><time>2026-03-24T15:10:37.981Z</time></trkpt><trkpt lat="30.32058701862362" lon="-5.833045359517251"><ele>710.0</ele><time>2026-03-24T15:10:38.981Z</time></trkpt><trkpt lat="30.320553173556313" lon="-5.832893496439152"><ele>710.0</ele><time>2026-03-24T15:10:39.981Z</time></trkpt><trkpt lat="30.320512961894224" lon="-5.832725442527028"><ele>710.0</ele><time>2026-03-24T15:10:40.981Z</time></trkpt><trkpt lat="30.32043933989865" lon="-5.8325512911268085"><ele>710.75</ele><time>2026-03-24T15:10:41.981Z</time></trkpt><trkpt lat="30.32036346684459" lon="-5.832393861999681"><ele>711.5</ele><time>2026-03-24T15:10:42.981Z</time></trkpt><trkpt lat="30.320290124791146" lon="-5.832245741634313"><ele>712.25</ele><time>2026-03-24T15:10:43.981Z</time></trkpt><trkpt lat="30.32022081299232" lon="-5.832105028356394"><ele>713.0</ele><time>2026-03-24T15:10:44.981Z</time></trkpt><trkpt lat="30.32015157315656" lon="-5.83196982200903"><ele>713.0</ele><time>2026-03-24T15:10:45.981Z</time></trkpt><trkpt lat="30.320079719832542" lon="-5.831826115845716"><ele>713.0</ele><time>2026-03-24T15:10:46.981Z</time></trkpt><trkpt lat="30.320011105320088" lon="-5.8316888700356975"><ele>713.0</ele><time>2026-03-24T15:10:47.981Z</time></trkpt><trkpt lat="30.31993991040223" lon="-5.831566481635836"><ele>713.0</ele><time>2026-03-24T15:10:48.981Z</time></trkpt><trkpt lat="30.319872005215085" lon="-5.831453148674725"><ele>713.5</ele><time>2026-03-24T15:10:49.981Z</time></trkpt><trkpt lat="30.31980057122668" lon="-5.831340057892305"><ele>714.0</ele><time>2026-03-24T15:10:50.981Z</time></trkpt><trkpt lat="30.319725479058846" lon="-5.831229407152682"><ele>714.5</ele><time>2026-03-24T15:10:51.981Z</time></trkpt><trkpt lat="30.319649175266388" lon="-5.831122587884825"><ele>715.0</ele><time>2026-03-24T15:10:52.981Z</time></trkpt><trkpt lat="30.319571221593" lon="-5.831017531047769"><ele>715.2</ele><time>2026-03-24T15:10:53.981Z</time></trkpt><trkpt lat="30.319489403644926" lon="-5.830914062585649"><ele>715.4</ele><time>2026-03-24T15:10:54.981Z</time></trkpt><trkpt lat="30.319413435187172" lon="-5.830819747669562"><ele>715.5999999999999</ele><time>2026-03-24T15:10:55.981Z</time></trkpt><trkpt lat="30.319341380676175" lon="-5.830735941517688"><ele>715.8</ele><time>2026-03-24T15:10:56.981Z</time></trkpt><trkpt lat="30.31927695040674" lon="-5.830648445433321"><ele>716.0</ele><time>2026-03-24T15:10:57.981Z</time></trkpt><trkpt lat="30.319212803455347" lon="-5.8305778956743435"><ele>716.0</ele><time>2026-03-24T15:10:58.981Z</time></trkpt><trkpt lat="30.319155683788388" lon="-5.830503147910448"><ele>716.0</ele><time>2026-03-24T15:10:59.981Z</time></trkpt><trkpt lat="30.319084499111685" lon="-5.830420002179616"><ele>716.0</ele><time>2026-03-24T15:11:00.981Z</time></trkpt><trkpt lat="30.31901144508733" lon="-5.830332284951264"><ele>716.0</ele><time>2026-03-24T15:11:01.981Z</time></trkpt><trkpt lat="30.31893676577214" lon="-5.8302420885753685"><ele>716.0</ele><time>2026-03-24T15:11:02.981Z</time></trkpt><trkpt lat="30.318863633356237" lon="-5.830151380267893"><ele>716.5999999999999</ele><time>2026-03-24T15:11:03.981Z</time></trkpt><trkpt lat="30.318790442312427" lon="-5.830063759583317"><ele>717.2</ele><time>2026-03-24T15:11:04.981Z</time></trkpt><trkpt lat="30.31872252226215" lon="-5.829981699235259"><ele>717.8</ele><time>2026-03-24T15:11:05.981Z</time></trkpt><trkpt lat="30.318659028565662" lon="-5.829900948980007"><ele>718.4000000000001</ele><time>2026-03-24T15:11:06.981Z</time></trkpt><trkpt lat="30.318599397406846" lon="-5.829821187063306"><ele>719.0</ele><time>2026-03-24T15:11:07.981Z</time></trkpt><trkpt lat="30.318543677535" lon="-5.8297389999114895"><ele>719.0</ele><time>2026-03-24T15:11:08.981Z</time></trkpt><trkpt lat="30.318476497290163" lon="-5.829665561653151"><ele>719.0</ele><time>2026-03-24T15:11:09.981Z</time></trkpt><trkpt lat="30.318433127636254" lon="-5.829579083600609"><ele>719.0</ele><time>2026-03-24T15:11:10.981Z</time></trkpt><trkpt lat="30.318395170415123" lon="-5.829489352567991"><ele>719.0</ele><time>2026-03-24T15:11:11.981Z</time></trkpt><trkpt lat="30.31836439442883" lon="-5.829394702357886"><ele>719.0</ele><time>2026-03-24T15:11:12.981Z</time></trkpt><trkpt lat="30.31833900270988" lon="-5.829303062424627"><ele>719.0</ele><time>2026-03-24T15:11:13.981Z</time></trkpt><trkpt lat="30.318331575186075" lon="-5.8292054396773265"><ele>719.1666666666666</ele><time>2026-03-24T15:11:14.981Z</time></trkpt><trkpt lat="30.318299320264277" lon="-5.829118164031322"><ele>719.3333333333333</ele><time>2026-03-24T15:11:15.981Z</time></trkpt><trkpt lat="30.31828038567056" lon="-5.829026537670436"><ele>719.5</ele><time>2026-03-24T15:11:16.981Z</time></trkpt><trkpt lat="30.31826435709935" lon="-5.8289400234587605"><ele>719.6666666666666</ele><time>2026-03-24T15:11:17.981Z</time></trkpt><trkpt lat="30.318246489495483" lon="-5.828854002493166"><ele>719.8333333333334</ele><time>2026-03-24T15:11:18.981Z</time></trkpt><trkpt lat="30.31823022605182" lon="-5.828767614971928"><ele>720.0</ele><time>2026-03-24T15:11:19.981Z</time></trkpt><trkpt lat="30.318196131236615" lon="-5.828645514981677"><ele>720.0</ele><time>2026-03-24T15:11:21.981Z</time></trkpt><trkpt lat="30.318160277191154" lon="-5.828541838510485"><ele>720.0</ele><time>2026-03-24T15:11:23.981Z</time></trkpt><trkpt lat="30.318115121942643" lon="-5.828454688160891"><ele>720.0</ele><time>2026-03-24T15:11:25.982Z</time></trkpt><trkpt lat="30.31807163864342" lon="-5.82839459200971"><ele>720.0</ele><time>2026-03-24T15:11:27.981Z</time></trkpt><trkpt lat="30.31810868882843" lon="-5.828307009274912"><ele>720.0</ele><time>2026-03-24T15:11:28.981Z</time></trkpt><trkpt lat="30.318168059797653" lon="-5.828228214803267"><ele>720.0</ele><time>2026-03-24T15:11:30.981Z</time></trkpt><trkpt lat="30.318255673471448" lon="-5.8281461777697"><ele>720.4</ele><time>2026-03-24T15:11:32.981Z</time></trkpt><trkpt lat="30.318341272344888" lon="-5.82805398201853"><ele>720.8</ele><time>2026-03-24T15:11:34.981Z</time></trkpt><trkpt lat="30.3184487770591" lon="-5.827991334385624"><ele>721.2</ele><time>2026-03-24T15:11:36.981Z</time></trkpt><trkpt lat="30.318523575286807" lon="-5.827944371063152"><ele>721.6</ele><time>2026-03-24T15:11:37.981Z</time></trkpt><trkpt lat="30.318592210007722" lon="-5.827903075706553"><ele>722.0</ele><time>2026-03-24T15:11:38.981Z</time></trkpt><trkpt lat="30.31864705535453" lon="-5.8278475233357865"><ele>722.0</ele><time>2026-03-24T15:11:39.981Z</time></trkpt><trkpt lat="30.318753065678827" lon="-5.827795433292284"><ele>722.0</ele><time>2026-03-24T15:11:41.981Z</time></trkpt><trkpt lat="30.31884778495155" lon="-5.827756050904915"><ele>722.0</ele><time>2026-03-24T15:11:43.981Z</time></trkpt><trkpt lat="30.318937607352243" lon="-5.827719175370433"><ele>722.0</ele><time>2026-03-24T15:11:45.981Z</time></trkpt><trkpt lat="30.31902123782527" lon="-5.827689211654714"><ele>722.0</ele><time>2026-03-24T15:11:47.981Z</time></trkpt><trkpt lat="30.31909753722581" lon="-5.827669702153695"><ele>719.0</ele><time>2026-03-24T15:11:49.981Z</time></trkpt><trkpt lat="30.31918755372899" lon="-5.827634306384361"><ele>727.0</ele><time>2026-03-24T15:11:52.981Z</time></trkpt><trkpt lat="30.319253308855963" lon="-5.827606600596086"><ele>727.0</ele><time>2026-03-24T15:11:54.981Z</time></trkpt><trkpt lat="30.31933684019122" lon="-5.8277270752283625"><ele>719.0</ele><time>2026-03-24T15:13:31.982Z</time></trkpt></trkseg><trkseg><trkpt lat="30.31917021848398" lon="-5.827796080663772"><ele>719.0</ele><time>2026-03-25T07:20:42.525Z</time></trkpt><trkpt lat="30.319265392688003" lon="-5.8277825432139245"><ele>719.0</ele><time>2026-03-25T07:21:04Z</time></trkpt><trkpt lat="30.319250667154893" lon="-5.827696093433503"><ele>719.0</ele><time>2026-03-25T07:22:21Z</time></trkpt><trkpt lat="30.31928996537939" lon="-5.827634717665901"><ele>719.0</ele><time>2026-03-25T07:22:24Z</time></trkpt><trkpt lat="30.31932514905227" lon="-5.827547221759728"><ele>719.0</ele><time>2026-03-25T07:27:29Z</time></trkpt><trkpt lat="30.31940900279211" lon="-5.827488437100595"><ele>719.0</ele><time>2026-03-25T07:27:31Z</time></trkpt><trkpt lat="30.31951108118468" lon="-5.827459387263106"><ele>719.4285714285713</ele><time>2026-03-25T07:27:33Z</time></trkpt><trkpt lat="30.319577860824698" lon="-5.827438078782821"><ele>719.8571428571429</ele><time>2026-03-25T07:27:34Z</time></trkpt><trkpt lat="30.3196577286073" lon="-5.827424358032022"><ele>720.2857142857142</ele><time>2026-03-25T07:27:35Z</time></trkpt><trkpt lat="30.319727232628008" lon="-5.827408553625373"><ele>720.7142857142857</ele><time>2026-03-25T07:27:36Z</time></trkpt><trkpt lat="30.319791362442633" lon="-5.82739109667664"><ele>721.1428571428571</ele><time>2026-03-25T07:27:37Z</time></trkpt><trkpt lat="30.319857565625117" lon="-5.8273725953115925"><ele>721.5714285714286</ele><time>2026-03-25T07:27:38Z</time></trkpt><trkpt lat="30.319923295357597" lon="-5.827362663158501"><ele>722.0</ele><time>2026-03-25T07:27:39Z</time></trkpt><trkpt lat="30.320047431279907" lon="-5.827319525013397"><ele>722.0</ele><time>2026-03-25T07:27:41Z</time></trkpt><trkpt lat="30.320112845633737" lon="-5.827295108427217"><ele>722.0</ele><time>2026-03-25T07:27:42Z</time></trkpt><trkpt lat="30.320180299559247" lon="-5.827270028433768"><ele>722.0</ele><time>2026-03-25T07:27:43Z</time></trkpt><trkpt lat="30.32025452678264" lon="-5.827236081956533"><ele>722.0</ele><time>2026-03-25T07:27:44Z</time></trkpt><trkpt lat="30.32033485684942" lon="-5.827190199501969"><ele>722.0</ele><time>2026-03-25T07:27:45Z</time></trkpt><trkpt lat="30.32042991290651" lon="-5.827127852138672"><ele>722.0</ele><time>2026-03-25T07:27:46Z</time></trkpt><trkpt lat="30.320531693562604" lon="-5.8270555661114996"><ele>721.25</ele><time>2026-03-25T07:27:47Z</time></trkpt><trkpt lat="30.32062803608032" lon="-5.826971302759418"><ele>720.5</ele><time>2026-03-25T07:27:48Z</time></trkpt><trkpt lat="30.32073013056555" lon="-5.826892086181331"><ele>719.75</ele><time>2026-03-25T07:27:49Z</time></trkpt><trkpt lat="30.32083353113893" lon="-5.826815478428191"><ele>719.0</ele><time>2026-03-25T07:27:50Z</time></trkpt><trkpt lat="30.320938349392073" lon="-5.826740772678182"><ele>720.5</ele><time>2026-03-25T07:27:51Z</time></trkpt><trkpt lat="30.321038405308094" lon="-5.826668290358556"><ele>722.0</ele><time>2026-03-25T07:27:52Z</time></trkpt><trkpt lat="30.321143234465687" lon="-5.82659002705656"><ele>723.5</ele><time>2026-03-25T07:27:53Z</time></trkpt><trkpt lat="30.321248057828477" lon="-5.826510164583021"><ele>725.0</ele><time>2026-03-25T07:27:54Z</time></trkpt><trkpt lat="30.321361870592437" lon="-5.826428923400976"><ele>723.5</ele><time>2026-03-25T07:27:55Z</time></trkpt><trkpt lat="30.32147528290022" lon="-5.826347424244495"><ele>722.0</ele><time>2026-03-25T07:27:56Z</time></trkpt><trkpt lat="30.32159598637041" lon="-5.82626894885908"><ele>720.5</ele><time>2026-03-25T07:27:57Z</time></trkpt><trkpt lat="30.321719295654383" lon="-5.8261854582077"><ele>719.0</ele><time>2026-03-25T07:27:58Z</time></trkpt><trkpt lat="30.321850354088745" lon="-5.8260930101304576"><ele>719.0</ele><time>2026-03-25T07:27:59Z</time></trkpt><trkpt lat="30.321973177835154" lon="-5.825994888881156"><ele>719.0</ele><time>2026-03-25T07:28:00Z</time></trkpt><trkpt lat="30.32208687117473" lon="-5.825905290466551"><ele>719.0</ele><time>2026-03-25T07:28:01Z</time></trkpt><trkpt lat="30.322196607362244" lon="-5.825824212434692"><ele>719.0</ele><time>2026-03-25T07:28:02Z</time></trkpt><trkpt lat="30.32230636798463" lon="-5.825739183988102"><ele>719.5</ele><time>2026-03-25T07:28:03Z</time></trkpt><trkpt lat="30.322412664829265" lon="-5.825648549032185"><ele>720.0</ele><time>2026-03-25T07:28:04Z</time></trkpt><trkpt lat="30.322525155638484" lon="-5.825554239216399"><ele>720.5</ele><time>2026-03-25T07:28:05Z</time></trkpt><trkpt lat="30.32261829222865" lon="-5.825463455598427"><ele>721.0</ele><time>2026-03-25T07:28:06Z</time></trkpt><trkpt lat="30.32271845543288" lon="-5.82536358782934"><ele>721.0</ele><time>2026-03-25T07:28:07Z</time></trkpt><trkpt lat="30.32280965941824" lon="-5.825258230270474"><ele>721.0</ele><time>2026-03-25T07:28:08Z</time></trkpt><trkpt lat="30.322899508096494" lon="-5.82514816027701"><ele>721.0</ele><time>2026-03-25T07:28:09Z</time></trkpt><trkpt lat="30.32297658407829" lon="-5.8250409469325035"><ele>721.0</ele><time>2026-03-25T07:28:10Z</time></trkpt><trkpt lat="30.323055337292892" lon="-5.824932299145814"><ele>720.25</ele><time>2026-03-25T07:28:11Z</time></trkpt><trkpt lat="30.323120461144406" lon="-5.824833313479955"><ele>719.5</ele><time>2026-03-25T07:28:12Z</time></trkpt><trkpt lat="30.323205046361657" lon="-5.824723537559481"><ele>718.75</ele><time>2026-03-25T07:28:13Z</time></trkpt><trkpt lat="30.323297053047916" lon="-5.8246287899392035"><ele>718.0</ele><time>2026-03-25T07:28:14Z</time></trkpt><trkpt lat="30.32338397064827" lon="-5.824525170445151"><ele>718.0</ele><time>2026-03-25T07:28:15Z</time></trkpt><trkpt lat="30.32347561678727" lon="-5.824429484365879"><ele>718.0</ele><time>2026-03-25T07:28:16Z</time></trkpt><trkpt lat="30.323566365559063" lon="-5.824332506220137"><ele>718.0</ele><time>2026-03-25T07:28:17Z</time></trkpt><trkpt lat="30.32366223481434" lon="-5.824234798870445"><ele>718.0</ele><time>2026-03-25T07:28:18Z</time></trkpt><trkpt lat="30.323764881583354" lon="-5.824137025359873"><ele>718.25</ele><time>2026-03-25T07:28:19Z</time></trkpt><trkpt lat="30.323857506131354" lon="-5.824033257633368"><ele>718.5</ele><time>2026-03-25T07:28:20Z</time></trkpt><trkpt lat="30.323966028063026" lon="-5.823927371025821"><ele>718.75</ele><time>2026-03-25T07:28:21Z</time></trkpt><trkpt lat="30.324069241184972" lon="-5.823817924132327"><ele>719.0</ele><time>2026-03-25T07:28:22Z</time></trkpt><trkpt lat="30.324175585303397" lon="-5.823706837033007"><ele>719.0</ele><time>2026-03-25T07:28:23Z</time></trkpt><trkpt lat="30.32427440626557" lon="-5.823592654644847"><ele>719.0</ele><time>2026-03-25T07:28:24Z</time></trkpt><trkpt lat="30.324367990526227" lon="-5.823474645675559"><ele>719.0</ele><time>2026-03-25T07:28:25Z</time></trkpt><trkpt lat="30.324462543533947" lon="-5.823359108546889"><ele>719.0</ele><time>2026-03-25T07:28:26Z</time></trkpt><trkpt lat="30.324542783429134" lon="-5.823245418037021"><ele>719.0</ele><time>2026-03-25T07:28:27Z</time></trkpt><trkpt lat="30.324636697978654" lon="-5.823134456973222"><ele>719.0</ele><time>2026-03-25T07:28:28Z</time></trkpt><trkpt lat="30.32473518864196" lon="-5.823024291692696"><ele>719.0</ele><time>2026-03-25T07:28:29Z</time></trkpt><trkpt lat="30.324826237290672" lon="-5.822920493574727"><ele>719.0</ele><time>2026-03-25T07:28:30Z</time></trkpt><trkpt lat="30.324932370206795" lon="-5.822815654731551"><ele>719.0</ele><time>2026-03-25T07:28:31Z</time></trkpt><trkpt lat="30.32503801712524" lon="-5.822720610595297"><ele>719.0</ele><time>2026-03-25T07:28:32Z</time></trkpt><trkpt lat="30.325157340428344" lon="-5.822620645024148"><ele>719.0</ele><time>2026-03-25T07:28:33Z</time></trkpt><trkpt lat="30.32526115511871" lon="-5.82252088481777"><ele>719.0</ele><time>2026-03-25T07:28:34Z</time></trkpt><trkpt lat="30.325351703311533" lon="-5.822410697193322"><ele>717.5</ele><time>2026-03-25T07:28:35Z</time></trkpt><trkpt lat="30.32543821345585" lon="-5.822291448899166"><ele>716.0</ele><time>2026-03-25T07:28:36Z</time></trkpt><trkpt lat="30.325490586689227" lon="-5.822163558935558"><ele>714.5</ele><time>2026-03-25T07:28:37Z</time></trkpt><trkpt lat="30.325543414835327" lon="-5.822012541531321"><ele>713.0</ele><time>2026-03-25T07:28:38Z</time></trkpt><trkpt lat="30.3255798519063" lon="-5.821851126087106"><ele>714.75</ele><time>2026-03-25T07:28:39Z</time></trkpt><trkpt lat="30.325607465599116" lon="-5.821692295497804"><ele>716.5</ele><time>2026-03-25T07:28:40Z</time></trkpt><trkpt lat="30.325638794405013" lon="-5.821524902420126"><ele>718.25</ele><time>2026-03-25T07:28:41Z</time></trkpt><trkpt lat="30.3256465829156" lon="-5.8213495344749875"><ele>720.0</ele><time>2026-03-25T07:28:42Z</time></trkpt><trkpt lat="30.32563360329374" lon="-5.821173164325576"><ele>720.0</ele><time>2026-03-25T07:28:43Z</time></trkpt><trkpt lat="30.32561574137982" lon="-5.820991250254703"><ele>720.0</ele><time>2026-03-25T07:28:44Z</time></trkpt><trkpt lat="30.325600819744352" lon="-5.820805025580464"><ele>720.0</ele><time>2026-03-25T07:28:45Z</time></trkpt><trkpt lat="30.32559272295783" lon="-5.820621159853251"><ele>719.0</ele><time>2026-03-25T07:28:46Z</time></trkpt><trkpt lat="30.325572277494885" lon="-5.82044008808371"><ele>718.0</ele><time>2026-03-25T07:28:47Z</time></trkpt><trkpt lat="30.325569405548418" lon="-5.820256338744564"><ele>717.0</ele><time>2026-03-25T07:28:48Z</time></trkpt><trkpt lat="30.325565761512507" lon="-5.820072623237596"><ele>728.6666666666666</ele><time>2026-03-25T07:28:49Z</time></trkpt><trkpt lat="30.325561420657912" lon="-5.819887051540148"><ele>740.3333333333333</ele><time>2026-03-25T07:28:50Z</time></trkpt><trkpt lat="30.325556512829145" lon="-5.819700343280004"><ele>752.0</ele><time>2026-03-25T07:28:51Z</time></trkpt><trkpt lat="30.32555874096389" lon="-5.819522561691411"><ele>752.0</ele><time>2026-03-25T07:28:52Z</time></trkpt><trkpt lat="30.32555833928223" lon="-5.819344614435804"><ele>752.0</ele><time>2026-03-25T07:28:53Z</time></trkpt><trkpt lat="30.325573349193903" lon="-5.819162919111139"><ele>752.0</ele><time>2026-03-25T07:28:54Z</time></trkpt><trkpt lat="30.32559138704573" lon="-5.818983280892913"><ele>743.6666666666666</ele><time>2026-03-25T07:28:55Z</time></trkpt><trkpt lat="30.325628430482503" lon="-5.818806293309616"><ele>735.3333333333334</ele><time>2026-03-25T07:28:56Z</time></trkpt><trkpt lat="30.32566966862122" lon="-5.818629536060534"><ele>727.0</ele><time>2026-03-25T07:28:57Z</time></trkpt><trkpt lat="30.32571303353113" lon="-5.818452565699055"><ele>727.0</ele><time>2026-03-25T07:28:58Z</time></trkpt><trkpt lat="30.3257649993996" lon="-5.8182840298429355"><ele>727.0</ele><time>2026-03-25T07:28:59Z</time></trkpt><trkpt lat="30.32581270963811" lon="-5.8181165482069295"><ele>727.0</ele><time>2026-03-25T07:29:00Z</time></trkpt><trkpt lat="30.325869183670868" lon="-5.8179478948368"><ele>727.0</ele><time>2026-03-25T07:29:01Z</time></trkpt><trkpt lat="30.325948954618994" lon="-5.8177834042056435"><ele>727.0</ele><time>2026-03-25T07:29:02Z</time></trkpt><trkpt lat="30.326040608184286" lon="-5.817617084214363"><ele>727.0</ele><time>2026-03-25T07:29:03Z</time></trkpt><trkpt lat="30.326136597672143" lon="-5.817454666043924"><ele>728.6666666666667</ele><time>2026-03-25T07:29:04Z</time></trkpt><trkpt lat="30.3262315302271" lon="-5.8172955784185785"><ele>730.3333333333334</ele><time>2026-03-25T07:29:05Z</time></trkpt><trkpt lat="30.326323562677832" lon="-5.8171386586081635"><ele>732.0</ele><time>2026-03-25T07:29:06Z</time></trkpt><trkpt lat="30.326421934202667" lon="-5.816987282101546"><ele>729.0</ele><time>2026-03-25T07:29:07Z</time></trkpt><trkpt lat="30.326518927624612" lon="-5.816829291614073"><ele>726.0</ele><time>2026-03-25T07:29:08Z</time></trkpt><trkpt lat="30.326619443249715" lon="-5.8166684486152525"><ele>723.0</ele><time>2026-03-25T07:29:09Z</time></trkpt><trkpt lat="30.326724053850253" lon="-5.816499398111949"><ele>723.0</ele><time>2026-03-25T07:29:10Z</time></trkpt><trkpt lat="30.32682766362908" lon="-5.816331412897502"><ele>723.0</ele><time>2026-03-25T07:29:11Z</time></trkpt><trkpt lat="30.32693674807715" lon="-5.816159409710857"><ele>723.0</ele><time>2026-03-25T07:29:12Z</time></trkpt><trkpt lat="30.327043180727674" lon="-5.815997067613343"><ele>725.0</ele><time>2026-03-25T07:29:13Z</time></trkpt><trkpt lat="30.327151820534766" lon="-5.815832321670407"><ele>727.0</ele><time>2026-03-25T07:29:14Z</time></trkpt><trkpt lat="30.327261251124334" lon="-5.815666502059762"><ele>729.0</ele><time>2026-03-25T07:29:15Z</time></trkpt><trkpt lat="30.32737060585501" lon="-5.815506171853827"><ele>726.0</ele><time>2026-03-25T07:29:16Z</time></trkpt><trkpt lat="30.32747034312661" lon="-5.815347703502371"><ele>723.0</ele><time>2026-03-25T07:29:17Z</time></trkpt><trkpt lat="30.327570908572014" lon="-5.815190416143832"><ele>720.0</ele><time>2026-03-25T07:29:18Z</time></trkpt><trkpt lat="30.32766450775632" lon="-5.815033533928664"><ele>720.0</ele><time>2026-03-25T07:29:19Z</time></trkpt><trkpt lat="30.327763380189232" lon="-5.814884047188767"><ele>720.0</ele><time>2026-03-25T07:29:20Z</time></trkpt><trkpt lat="30.327858647505895" lon="-5.814740318911742"><ele>720.0</ele><time>2026-03-25T07:29:21Z</time></trkpt><trkpt lat="30.327952183616038" lon="-5.8145867908740065"><ele>720.0</ele><time>2026-03-25T07:29:22Z</time></trkpt><trkpt lat="30.32804914248944" lon="-5.814429476057946"><ele>720.0</ele><time>2026-03-25T07:29:23Z</time></trkpt><trkpt lat="30.328145888060206" lon="-5.814276966437079"><ele>720.0</ele><time>2026-03-25T07:29:24Z</time></trkpt><trkpt lat="30.328240561244606" lon="-5.814125401171118"><ele>721.3333333333334</ele><time>2026-03-25T07:29:25Z</time></trkpt><trkpt lat="30.32833538168977" lon="-5.8139782537302835"><ele>722.6666666666667</ele><time>2026-03-25T07:29:26Z</time></trkpt><trkpt lat="30.328435118841625" lon="-5.813837043516009"><ele>724.0</ele><time>2026-03-25T07:29:27Z</time></trkpt><trkpt lat="30.328526936977077" lon="-5.813696077845109"><ele>724.0</ele><time>2026-03-25T07:29:28Z</time></trkpt><trkpt lat="30.328632200883995" lon="-5.813542631870647"><ele>724.0</ele><time>2026-03-25T07:29:29Z</time></trkpt><trkpt lat="30.328716178105633" lon="-5.8133865292548546"><ele>724.0</ele><time>2026-03-25T07:29:30Z</time></trkpt><trkpt lat="30.328813523368375" lon="-5.813235129174821"><ele>724.0</ele><time>2026-03-25T07:29:31Z</time></trkpt><trkpt lat="30.328913756953483" lon="-5.813078500671249"><ele>724.0</ele><time>2026-03-25T07:29:32Z</time></trkpt><trkpt lat="30.329015336328734" lon="-5.812928732778416"><ele>724.0</ele><time>2026-03-25T07:29:33Z</time></trkpt><trkpt lat="30.329123008759986" lon="-5.812777535640861"><ele>723.0</ele><time>2026-03-25T07:29:34Z</time></trkpt><trkpt lat="30.329233253814685" lon="-5.812622823398282"><ele>722.0</ele><time>2026-03-25T07:29:35Z</time></trkpt><trkpt lat="30.329341789335352" lon="-5.812472979483755"><ele>721.0</ele><time>2026-03-25T07:29:36Z</time></trkpt><trkpt lat="30.3294498240466" lon="-5.812350052783883"><ele>721.0</ele><time>2026-03-25T07:29:37Z</time></trkpt><trkpt lat="30.329558142414022" lon="-5.812228361117275"><ele>721.0</ele><time>2026-03-25T07:29:38Z</time></trkpt><trkpt lat="30.3296815964139" lon="-5.81210389608161"><ele>721.0</ele><time>2026-03-25T07:29:39Z</time></trkpt><trkpt lat="30.329807807063915" lon="-5.811976369013349"><ele>720.3333333333334</ele><time>2026-03-25T07:29:40Z</time></trkpt><trkpt lat="30.329937708486565" lon="-5.811842544727442"><ele>719.6666666666666</ele><time>2026-03-25T07:29:41Z</time></trkpt><trkpt lat="30.330070716647587" lon="-5.811708821405055"><ele>719.0</ele><time>2026-03-25T07:29:42Z</time></trkpt><trkpt lat="30.330199068541095" lon="-5.8115724508635465"><ele>719.3333333333333</ele><time>2026-03-25T07:29:43Z</time></trkpt><trkpt lat="30.330326975110324" lon="-5.811439389166413"><ele>719.6666666666666</ele><time>2026-03-25T07:29:44Z</time></trkpt><trkpt lat="30.330452010385333" lon="-5.811298910952472"><ele>720.0</ele><time>2026-03-25T07:29:45Z</time></trkpt><trkpt lat="30.330583866141506" lon="-5.811162107068563"><ele>720.0</ele><time>2026-03-25T07:29:46Z</time></trkpt><trkpt lat="30.330713080648135" lon="-5.811028815151806"><ele>720.0</ele><time>2026-03-25T07:29:47Z</time></trkpt><trkpt lat="30.33083862558032" lon="-5.810893881817995"><ele>720.0</ele><time>2026-03-25T07:29:48Z</time></trkpt><trkpt lat="30.330963963305525" lon="-5.810764652994716"><ele>720.3333333333334</ele><time>2026-03-25T07:29:49Z</time></trkpt><trkpt lat="30.331089255369097" lon="-5.810633288780589"><ele>720.6666666666667</ele><time>2026-03-25T07:29:50Z</time></trkpt><trkpt lat="30.331213621038085" lon="-5.81050025408636"><ele>721.0</ele><time>2026-03-25T07:29:51Z</time></trkpt><trkpt lat="30.33133282407328" lon="-5.810367333865314"><ele>720.6666666666667</ele><time>2026-03-25T07:29:52Z</time></trkpt><trkpt lat="30.33145480238196" lon="-5.810227989669278"><ele>720.3333333333334</ele><time>2026-03-25T07:29:53Z</time></trkpt><trkpt lat="30.331576827629164" lon="-5.810084126565115"><ele>720.0</ele><time>2026-03-25T07:29:54Z</time></trkpt><trkpt lat="30.331699869284897" lon="-5.809938454272461"><ele>722.3333333333334</ele><time>2026-03-25T07:29:55Z</time></trkpt><trkpt lat="30.331820480575367" lon="-5.8097872004725835"><ele>724.6666666666667</ele><time>2026-03-25T07:29:56Z</time></trkpt><trkpt lat="30.33194357033061" lon="-5.80964151480069"><ele>727.0</ele><time>2026-03-25T07:29:57Z</time></trkpt><trkpt lat="30.332067089077956" lon="-5.809496638528104"><ele>727.0</ele><time>2026-03-25T07:29:58Z</time></trkpt><trkpt lat="30.332192594561647" lon="-5.809342479856245"><ele>727.0</ele><time>2026-03-25T07:29:59Z</time></trkpt><trkpt lat="30.332308934844324" lon="-5.809191489626288"><ele>727.0</ele><time>2026-03-25T07:30:00Z</time></trkpt><trkpt lat="30.332435445153767" lon="-5.809032878032842"><ele>725.3333333333334</ele><time>2026-03-25T07:30:01Z</time></trkpt><trkpt lat="30.332555450216514" lon="-5.808878994547693"><ele>723.6666666666666</ele><time>2026-03-25T07:30:02Z</time></trkpt><trkpt lat="30.332679563696033" lon="-5.808729594710605"><ele>722.0</ele><time>2026-03-25T07:30:03Z</time></trkpt><trkpt lat="30.332798259529373" lon="-5.808585992103068"><ele>721.6666666666666</ele><time>2026-03-25T07:30:04Z</time></trkpt><trkpt lat="30.332913473562954" lon="-5.808445903527335"><ele>721.3333333333334</ele><time>2026-03-25T07:30:05Z</time></trkpt><trkpt lat="30.333030065863706" lon="-5.8082996292868"><ele>721.0</ele><time>2026-03-25T07:30:06Z</time></trkpt><trkpt lat="30.333149377236392" lon="-5.808151942496033"><ele>721.0</ele><time>2026-03-25T07:30:07Z</time></trkpt><trkpt lat="30.333271804941912" lon="-5.8080035010821724"><ele>721.0</ele><time>2026-03-25T07:30:08Z</time></trkpt><trkpt lat="30.333393995462927" lon="-5.807855221454413"><ele>721.0</ele><time>2026-03-25T07:30:09Z</time></trkpt><trkpt lat="30.333503961364745" lon="-5.807719337227734"><ele>722.6666666666667</ele><time>2026-03-25T07:30:10Z</time></trkpt><trkpt lat="30.33361263394761" lon="-5.807581556881416"><ele>724.3333333333334</ele><time>2026-03-25T07:30:11Z</time></trkpt><trkpt lat="30.333725879693663" lon="-5.807450560808023"><ele>726.0</ele><time>2026-03-25T07:30:12Z</time></trkpt><trkpt lat="30.333829251680832" lon="-5.807315676172781"><ele>725.0</ele><time>2026-03-25T07:30:13Z</time></trkpt><trkpt lat="30.333933228583057" lon="-5.807176632700293"><ele>724.0</ele><time>2026-03-25T07:30:14Z</time></trkpt><trkpt lat="30.334029251394973" lon="-5.807031722529355"><ele>723.0</ele><time>2026-03-25T07:30:15Z</time></trkpt><trkpt lat="30.334116449888995" lon="-5.8068671509318746"><ele>723.3333333333334</ele><time>2026-03-25T07:30:16Z</time></trkpt><trkpt lat="30.33418964265264" lon="-5.806681523347252"><ele>723.6666666666667</ele><time>2026-03-25T07:30:17Z</time></trkpt><trkpt lat="30.334258027189158" lon="-5.8064896476014525"><ele>724.0</ele><time>2026-03-25T07:30:18Z</time></trkpt><trkpt lat="30.334309622494192" lon="-5.806314586726119"><ele>724.0</ele><time>2026-03-25T07:30:19Z</time></trkpt><trkpt lat="30.33436865724892" lon="-5.806149631469284"><ele>724.0</ele><time>2026-03-25T07:30:20Z</time></trkpt><trkpt lat="30.33442178612918" lon="-5.805997976401278"><ele>724.0</ele><time>2026-03-25T07:30:21Z</time></trkpt><trkpt lat="30.334470769410125" lon="-5.805855493345285"><ele>724.0</ele><time>2026-03-25T07:30:22Z</time></trkpt><trkpt lat="30.334512379922373" lon="-5.805718805176065"><ele>724.8000000000001</ele><time>2026-03-25T07:30:23Z</time></trkpt><trkpt lat="30.334558634143615" lon="-5.805588617609417"><ele>725.6</ele><time>2026-03-25T07:30:24Z</time></trkpt><trkpt lat="30.33460142902431" lon="-5.805464438728176"><ele>726.4</ele><time>2026-03-25T07:30:25Z</time></trkpt><trkpt lat="30.33464114123044" lon="-5.805353275118549"><ele>727.2</ele><time>2026-03-25T07:30:26Z</time></trkpt><trkpt lat="30.334680076138934" lon="-5.805248949970932"><ele>728.0</ele><time>2026-03-25T07:30:27Z</time></trkpt><trkpt lat="30.334712506140114" lon="-5.805155336190582"><ele>728.0</ele><time>2026-03-25T07:30:28Z</time></trkpt><trkpt lat="30.33474064631799" lon="-5.8050718838734845"><ele>728.0</ele><time>2026-03-25T07:30:29Z</time></trkpt><trkpt lat="30.33476130133554" lon="-5.804997262162845"><ele>728.0</ele><time>2026-03-25T07:30:30Z</time></trkpt><trkpt lat="30.33478842976058" lon="-5.804920330447932"><ele>728.0</ele><time>2026-03-25T07:30:31Z</time></trkpt><trkpt lat="30.334817280198266" lon="-5.80484007462719"><ele>728.0</ele><time>2026-03-25T07:30:32Z</time></trkpt><trkpt lat="30.334853657536712" lon="-5.804739399398485"><ele>728.0</ele><time>2026-03-25T07:30:33Z</time></trkpt><trkpt lat="30.334893322902804" lon="-5.804636353804319"><ele>728.0</ele><time>2026-03-25T07:30:34Z</time></trkpt><trkpt lat="30.334930749623474" lon="-5.804529985079017"><ele>728.0</ele><time>2026-03-25T07:30:35Z</time></trkpt><trkpt lat="30.334964676773534" lon="-5.804436020848798"><ele>728.0</ele><time>2026-03-25T07:30:36Z</time></trkpt><trkpt lat="30.335000080360036" lon="-5.804348338557873"><ele>728.0</ele><time>2026-03-25T07:30:37Z</time></trkpt><trkpt lat="30.33502587252637" lon="-5.804268176452619"><ele>728.0</ele><time>2026-03-25T07:30:38Z</time></trkpt><trkpt lat="30.33506888783547" lon="-5.80413681308345"><ele>728.2</ele><time>2026-03-25T07:30:40Z</time></trkpt><trkpt lat="30.335102835230227" lon="-5.804031677692565"><ele>728.4</ele><time>2026-03-25T07:30:42Z</time></trkpt><trkpt lat="30.33513586062592" lon="-5.803934913897378"><ele>728.6</ele><time>2026-03-25T07:30:44Z</time></trkpt><trkpt lat="30.335211921964163" lon="-5.803894794464909"><ele>728.8000000000001</ele><time>2026-03-25T07:30:47Z</time></trkpt><trkpt lat="30.335274774436503" lon="-5.803933633159285"><ele>729.0</ele><time>2026-03-25T07:30:49Z</time></trkpt><trkpt lat="30.335371114097406" lon="-5.804042289602986"><ele>729.0</ele><time>2026-03-25T07:30:51Z</time></trkpt><trkpt lat="30.335448890008287" lon="-5.804119134976536"><ele>729.0</ele><time>2026-03-25T07:30:52Z</time></trkpt><trkpt lat="30.33553011790456" lon="-5.804181303924523"><ele>729.0</ele><time>2026-03-25T07:30:53Z</time></trkpt><trkpt lat="30.335597121559882" lon="-5.804237677090572"><ele>729.0</ele><time>2026-03-25T07:30:54Z</time></trkpt><trkpt lat="30.335663991358185" lon="-5.80429348585026"><ele>729.0</ele><time>2026-03-25T07:30:55Z</time></trkpt><trkpt lat="30.33572498016636" lon="-5.804348954470214"><ele>729.0</ele><time>2026-03-25T07:30:56Z</time></trkpt><trkpt lat="30.335808540429387" lon="-5.80443164058716"><ele>728.2</ele><time>2026-03-25T07:30:58Z</time></trkpt><trkpt lat="30.335904634412145" lon="-5.8044247422498225"><ele>727.4000000000001</ele><time>2026-03-25T07:31:00Z</time></trkpt><trkpt lat="30.336015934191384" lon="-5.804417689253002"><ele>726.6</ele><time>2026-03-25T07:31:02Z</time></trkpt><trkpt lat="30.336132947929148" lon="-5.804386272632927"><ele>725.8</ele><time>2026-03-25T07:31:04Z</time></trkpt><trkpt lat="30.33619805981049" lon="-5.8043528764285695"><ele>725.0</ele><time>2026-03-25T07:31:05Z</time></trkpt><trkpt lat="30.336269003335595" lon="-5.804311617793558"><ele>724.8333333333333</ele><time>2026-03-25T07:31:06Z</time></trkpt><trkpt lat="30.33632788665314" lon="-5.80426201830602"><ele>724.6666666666666</ele><time>2026-03-25T07:31:07Z</time></trkpt><trkpt lat="30.33636886534423" lon="-5.804203810621594"><ele>724.5</ele><time>2026-03-25T07:31:08Z</time></trkpt><trkpt lat="30.33640153990898" lon="-5.804127535335821"><ele>724.3333333333334</ele><time>2026-03-25T07:31:09Z</time></trkpt><trkpt lat="30.336408501984785" lon="-5.804028248283964"><ele>724.1666666666667</ele><time>2026-03-25T07:31:10Z</time></trkpt><trkpt lat="30.33638600988004" lon="-5.8039103561973455"><ele>724.0</ele><time>2026-03-25T07:31:11Z</time></trkpt><trkpt lat="30.33636152366713" lon="-5.803802928464939"><ele>724.0</ele><time>2026-03-25T07:31:12Z</time></trkpt><trkpt lat="30.336357522259057" lon="-5.803708207996327"><ele>724.0</ele><time>2026-03-25T07:31:13Z</time></trkpt><trkpt lat="30.336361924292227" lon="-5.8036327467484785"><ele>724.0</ele><time>2026-03-25T07:31:14Z</time></trkpt><trkpt lat="30.33637273864926" lon="-5.803551941464743"><ele>724.0</ele><time>2026-03-25T07:31:15Z</time></trkpt><trkpt lat="30.33638568971101" lon="-5.8034774752535885"><ele>724.0</ele><time>2026-03-25T07:31:16Z</time></trkpt><trkpt lat="30.3364093249249" lon="-5.803355346185475"><ele>724.0</ele><time>2026-03-25T07:31:18Z</time></trkpt><trkpt lat="30.3364277815055" lon="-5.803282690769201"><ele>723.4000000000001</ele><time>2026-03-25T07:31:19Z</time></trkpt><trkpt lat="30.336461659403255" lon="-5.803212190374769"><ele>722.8</ele><time>2026-03-25T07:31:20Z</time></trkpt><trkpt lat="30.33650282751264" lon="-5.8031418570676685"><ele>722.2</ele><time>2026-03-25T07:31:21Z</time></trkpt><trkpt lat="30.3365700199165" lon="-5.803047545414243"><ele>721.5999999999999</ele><time>2026-03-25T07:31:23Z</time></trkpt><trkpt lat="30.3366188422681" lon="-5.802916484587894"><ele>721.0</ele><time>2026-03-25T07:31:26Z</time></trkpt><trkpt lat="30.33666341305081" lon="-5.802812142188648"><ele>721.0</ele><time>2026-03-25T07:31:27Z</time></trkpt><trkpt lat="30.336715900878733" lon="-5.802696395316362"><ele>721.0</ele><time>2026-03-25T07:31:28Z</time></trkpt><trkpt lat="30.336773870428587" lon="-5.802567225455705"><ele>721.0</ele><time>2026-03-25T07:31:29Z</time></trkpt><trkpt lat="30.336836901305016" lon="-5.802435231214903"><ele>721.0</ele><time>2026-03-25T07:31:30Z</time></trkpt><trkpt lat="30.33691375133019" lon="-5.802275858192448"><ele>721.25</ele><time>2026-03-25T07:31:31Z</time></trkpt><trkpt lat="30.336974691426015" lon="-5.802127260768067"><ele>721.5</ele><time>2026-03-25T07:31:32Z</time></trkpt><trkpt lat="30.337031616193546" lon="-5.801997695884525"><ele>721.75</ele><time>2026-03-25T07:31:33Z</time></trkpt><trkpt lat="30.337088692479888" lon="-5.801875429541205"><ele>722.0</ele><time>2026-03-25T07:31:34Z</time></trkpt><trkpt lat="30.33714418715782" lon="-5.801758739731907"><ele>722.4000000000001</ele><time>2026-03-25T07:31:35Z</time></trkpt><trkpt lat="30.337198021615347" lon="-5.801642957026833"><ele>722.8000000000001</ele><time>2026-03-25T07:31:36Z</time></trkpt><trkpt lat="30.33724444366682" lon="-5.801539441817362"><ele>723.2</ele><time>2026-03-25T07:31:37Z</time></trkpt><trkpt lat="30.337286470802056" lon="-5.8014481312373976"><ele>723.6</ele><time>2026-03-25T07:31:38Z</time></trkpt><trkpt lat="30.337323421569135" lon="-5.801365500961078"><ele>724.0</ele><time>2026-03-25T07:31:39Z</time></trkpt><trkpt lat="30.33735780052493" lon="-5.801287269815262"><ele>724.0</ele><time>2026-03-25T07:31:40Z</time></trkpt><trkpt lat="30.337397016092424" lon="-5.801214081943188"><ele>724.0</ele><time>2026-03-25T07:31:41Z</time></trkpt><trkpt lat="30.33745343628569" lon="-5.801131828117384"><ele>724.0</ele><time>2026-03-25T07:31:42Z</time></trkpt><trkpt lat="30.337502535394307" lon="-5.801037408021682"><ele>724.0</ele><time>2026-03-25T07:31:43Z</time></trkpt><trkpt lat="30.337532803089665" lon="-5.800943332189744"><ele>724.0</ele><time>2026-03-25T07:31:44Z</time></trkpt><trkpt lat="30.337567381223028" lon="-5.800870761788071"><ele>724.0</ele><time>2026-03-25T07:31:45Z</time></trkpt><trkpt lat="30.337610613291936" lon="-5.800801696568626"><ele>723.6</ele><time>2026-03-25T07:31:46Z</time></trkpt><trkpt lat="30.33764051063863" lon="-5.8007188988031455"><ele>723.2</ele><time>2026-03-25T07:31:47Z</time></trkpt><trkpt lat="30.337670226271428" lon="-5.800619032544789"><ele>722.8000000000001</ele><time>2026-03-25T07:31:48Z</time></trkpt><trkpt lat="30.33771105446411" lon="-5.80049571284499"><ele>722.4000000000001</ele><time>2026-03-25T07:31:49Z</time></trkpt><trkpt lat="30.337776924626066" lon="-5.80037535623081"><ele>722.0</ele><time>2026-03-25T07:31:50Z</time></trkpt><trkpt lat="30.337839856131367" lon="-5.80024992321995"><ele>722.2</ele><time>2026-03-25T07:31:51Z</time></trkpt><trkpt lat="30.337894985341343" lon="-5.800140444548332"><ele>722.4000000000001</ele><time>2026-03-25T07:31:52Z</time></trkpt><trkpt lat="30.33795152121983" lon="-5.800023961978216"><ele>722.5999999999999</ele><time>2026-03-25T07:31:53Z</time></trkpt><trkpt lat="30.33800771630495" lon="-5.799912623843195"><ele>722.8</ele><time>2026-03-25T07:31:54Z</time></trkpt><trkpt lat="30.338063032928385" lon="-5.79981091939221"><ele>723.0</ele><time>2026-03-25T07:31:55Z</time></trkpt><trkpt lat="30.33811883298616" lon="-5.799703087479699"><ele>723.0</ele><time>2026-03-25T07:31:56Z</time></trkpt><trkpt lat="30.338177404575475" lon="-5.799589448474335"><ele>723.0</ele><time>2026-03-25T07:31:57Z</time></trkpt><trkpt lat="30.338232740382153" lon="-5.799468854952415"><ele>723.0</ele><time>2026-03-25T07:31:58Z</time></trkpt><trkpt lat="30.338289454161274" lon="-5.799352686959037"><ele>723.0</ele><time>2026-03-25T07:31:59Z</time></trkpt><trkpt lat="30.338336679632985" lon="-5.799237239267845"><ele>723.0</ele><time>2026-03-25T07:32:00Z</time></trkpt><trkpt lat="30.33838806433908" lon="-5.799104870864097"><ele>723.0</ele><time>2026-03-25T07:32:01Z</time></trkpt><trkpt lat="30.338436528540182" lon="-5.7989950224226146"><ele>723.0</ele><time>2026-03-25T07:32:02Z</time></trkpt><trkpt lat="30.33847310395687" lon="-5.798895261620671"><ele>723.0</ele><time>2026-03-25T07:32:03Z</time></trkpt><trkpt lat="30.33850700092345" lon="-5.7988050482832145"><ele>723.0</ele><time>2026-03-25T07:32:04Z</time></trkpt><trkpt lat="30.33853940988529" lon="-5.798717218349801"><ele>723.0</ele><time>2026-03-25T07:32:05Z</time></trkpt><trkpt lat="30.338573957692205" lon="-5.798632965493626"><ele>723.0</ele><time>2026-03-25T07:32:06Z</time></trkpt><trkpt lat="30.338595322222073" lon="-5.798539117165204"><ele>723.0</ele><time>2026-03-25T07:32:07Z</time></trkpt><trkpt lat="30.33859122957695" lon="-5.798446844581411"><ele>723.0</ele><time>2026-03-25T07:32:08Z</time></trkpt><trkpt lat="30.338571105897422" lon="-5.798360375455904"><ele>723.0</ele><time>2026-03-25T07:32:09Z</time></trkpt><trkpt lat="30.33856404629869" lon="-5.798282483797341"><ele>723.0</ele><time>2026-03-25T07:32:10Z</time></trkpt><trkpt lat="30.3385735821036" lon="-5.7982041625294745"><ele>723.4</ele><time>2026-03-25T07:32:11Z</time></trkpt><trkpt lat="30.338591477679007" lon="-5.798110133828828"><ele>723.8</ele><time>2026-03-25T07:32:13Z</time></trkpt><trkpt lat="30.3385183637894" lon="-5.798057990607002"><ele>724.2</ele><time>2026-03-25T07:32:31Z</time></trkpt><trkpt lat="30.338509325835172" lon="-5.797932428948736"><ele>724.6</ele><time>2026-03-25T07:32:33Z</time></trkpt><trkpt lat="30.338508200112102" lon="-5.797783098161927"><ele>725.0</ele><time>2026-03-25T07:32:35Z</time></trkpt><trkpt lat="30.33852902969903" lon="-5.797692842266338"><ele>725.0</ele><time>2026-03-25T07:32:36Z</time></trkpt><trkpt lat="30.338575125857332" lon="-5.79761025431545"><ele>725.0</ele><time>2026-03-25T07:32:37Z</time></trkpt><trkpt lat="30.338657357031337" lon="-5.797558597962135"><ele>725.0</ele><time>2026-03-25T07:32:38Z</time></trkpt><trkpt lat="30.338752274430327" lon="-5.797529182248567"><ele>725.0</ele><time>2026-03-25T07:32:39Z</time></trkpt><trkpt lat="30.338834692764042" lon="-5.797512010879964"><ele>725.0</ele><time>2026-03-25T07:32:40Z</time></trkpt><trkpt lat="30.338910379892383" lon="-5.797497208372318"><ele>725.0</ele><time>2026-03-25T07:32:41Z</time></trkpt><trkpt lat="30.33899335504632" lon="-5.797479552327807"><ele>725.0</ele><time>2026-03-25T07:32:42Z</time></trkpt><trkpt lat="30.339088076177028" lon="-5.797463595607733"><ele>725.0</ele><time>2026-03-25T07:32:43Z</time></trkpt><trkpt lat="30.33917977227456" lon="-5.79744395777089"><ele>725.0</ele><time>2026-03-25T07:32:44Z</time></trkpt><trkpt lat="30.339270464236723" lon="-5.797410650111174"><ele>725.0</ele><time>2026-03-25T07:32:45Z</time></trkpt><trkpt lat="30.339377117257534" lon="-5.7973526697300075"><ele>725.0</ele><time>2026-03-25T07:32:46Z</time></trkpt><trkpt lat="30.33949430868243" lon="-5.797282299760726"><ele>725.0</ele><time>2026-03-25T07:32:47Z</time></trkpt><trkpt lat="30.339580773245782" lon="-5.797210356457377"><ele>725.0</ele><time>2026-03-25T07:32:48Z</time></trkpt><trkpt lat="30.33965318624561" lon="-5.797149081730146"><ele>725.0</ele><time>2026-03-25T07:32:49Z</time></trkpt><trkpt lat="30.339736304892764" lon="-5.797086302161725"><ele>725.0</ele><time>2026-03-25T07:32:50Z</time></trkpt><trkpt lat="30.339819634293605" lon="-5.797002626864119"><ele>725.0</ele><time>2026-03-25T07:32:51Z</time></trkpt><trkpt lat="30.339900203281065" lon="-5.796912658019938"><ele>725.4</ele><time>2026-03-25T07:32:52Z</time></trkpt><trkpt lat="30.339985519212004" lon="-5.796830005697551"><ele>725.8</ele><time>2026-03-25T07:32:53Z</time></trkpt><trkpt lat="30.34006808933108" lon="-5.796753192993169"><ele>726.2</ele><time>2026-03-25T07:32:54Z</time></trkpt><trkpt lat="30.34015072617988" lon="-5.796670772651555"><ele>726.6</ele><time>2026-03-25T07:32:55Z</time></trkpt><trkpt lat="30.34023347857898" lon="-5.796596640700876"><ele>727.0</ele><time>2026-03-25T07:32:56Z</time></trkpt><trkpt lat="30.340320282089987" lon="-5.796523942083305"><ele>727.0</ele><time>2026-03-25T07:32:57Z</time></trkpt><trkpt lat="30.340408613460678" lon="-5.796454765786089"><ele>727.0</ele><time>2026-03-25T07:32:58Z</time></trkpt><trkpt lat="30.340481806346546" lon="-5.796382769285479"><ele>727.0</ele><time>2026-03-25T07:32:59Z</time></trkpt><trkpt lat="30.340555312684195" lon="-5.796309653457609"><ele>727.0</ele><time>2026-03-25T07:33:00Z</time></trkpt><trkpt lat="30.34063480872475" lon="-5.796235841800057"><ele>727.0</ele><time>2026-03-25T07:33:01Z</time></trkpt><trkpt lat="30.340710928855625" lon="-5.796161024176625"><ele>726.5</ele><time>2026-03-25T07:33:02Z</time></trkpt><trkpt lat="30.340802485624167" lon="-5.79607727416721"><ele>726.0</ele><time>2026-03-25T07:33:03Z</time></trkpt><trkpt lat="30.34091503075506" lon="-5.795988131149649"><ele>725.5</ele><time>2026-03-25T07:33:04Z</time></trkpt><trkpt lat="30.34100941149284" lon="-5.795918472846559"><ele>725.0</ele><time>2026-03-25T07:33:05Z</time></trkpt><trkpt lat="30.341087969299636" lon="-5.795855429995777"><ele>724.8</ele><time>2026-03-25T07:33:06Z</time></trkpt><trkpt lat="30.34116620397478" lon="-5.795780196669657"><ele>724.6</ele><time>2026-03-25T07:33:07Z</time></trkpt><trkpt lat="30.341242224967257" lon="-5.795693933765069"><ele>724.4000000000001</ele><time>2026-03-25T07:33:08Z</time></trkpt><trkpt lat="30.34131499641744" lon="-5.7956153590954695"><ele>724.2</ele><time>2026-03-25T07:33:09Z</time></trkpt><trkpt lat="30.34138348152343" lon="-5.795539675498053"><ele>724.0</ele><time>2026-03-25T07:33:10Z</time></trkpt><trkpt lat="30.341458254397" lon="-5.795461124897004"><ele>724.0</ele><time>2026-03-25T07:33:11Z</time></trkpt><trkpt lat="30.341540275452125" lon="-5.795371794636239"><ele>724.0</ele><time>2026-03-25T07:33:12Z</time></trkpt><trkpt lat="30.34162677242713" lon="-5.79527824221271"><ele>724.0</ele><time>2026-03-25T07:33:13Z</time></trkpt><trkpt lat="30.341715780564716" lon="-5.795192315596948"><ele>724.0</ele><time>2026-03-25T07:33:14Z</time></trkpt><trkpt lat="30.341810163089477" lon="-5.795104129647394"><ele>724.0</ele><time>2026-03-25T07:33:15Z</time></trkpt><trkpt lat="30.3418951347832" lon="-5.795017516637209"><ele>724.0</ele><time>2026-03-25T07:33:16Z</time></trkpt><trkpt lat="30.341981123961887" lon="-5.794935216772865"><ele>724.0</ele><time>2026-03-25T07:33:17Z</time></trkpt><trkpt lat="30.342065833129677" lon="-5.794852250940757"><ele>724.0</ele><time>2026-03-25T07:33:18Z</time></trkpt><trkpt lat="30.342151744778395" lon="-5.7947703196000555"><ele>724.0</ele><time>2026-03-25T07:33:19Z</time></trkpt><trkpt lat="30.34224351910549" lon="-5.794684094526136"><ele>724.5</ele><time>2026-03-25T07:33:20Z</time></trkpt><trkpt lat="30.34233243011366" lon="-5.794595573843823"><ele>725.0</ele><time>2026-03-25T07:33:21Z</time></trkpt><trkpt lat="30.342421277837527" lon="-5.794503960312287"><ele>725.5</ele><time>2026-03-25T07:33:22Z</time></trkpt><trkpt lat="30.342515169763235" lon="-5.794416061661513"><ele>726.0</ele><time>2026-03-25T07:33:23Z</time></trkpt><trkpt lat="30.342609708614678" lon="-5.794328337639402"><ele>726.0</ele><time>2026-03-25T07:33:24Z</time></trkpt><trkpt lat="30.34270428082786" lon="-5.794249128059758"><ele>726.0</ele><time>2026-03-25T07:33:25Z</time></trkpt><trkpt lat="30.34279605173719" lon="-5.794171189412922"><ele>726.0</ele><time>2026-03-25T07:33:26Z</time></trkpt><trkpt lat="30.342885666970826" lon="-5.794098240443801"><ele>726.0</ele><time>2026-03-25T07:33:27Z</time></trkpt><trkpt lat="30.342979799004016" lon="-5.793999428013857"><ele>725.5</ele><time>2026-03-25T07:33:28Z</time></trkpt><trkpt lat="30.343083554462478" lon="-5.793884056506493"><ele>725.0</ele><time>2026-03-25T07:33:29Z</time></trkpt><trkpt lat="30.34317934529651" lon="-5.793776814928054"><ele>724.5</ele><time>2026-03-25T07:33:30Z</time></trkpt><trkpt lat="30.343294315791855" lon="-5.793678374102449"><ele>724.0</ele><time>2026-03-25T07:33:31Z</time></trkpt><trkpt lat="30.343402109263966" lon="-5.793581461212909"><ele>724.0</ele><time>2026-03-25T07:33:32Z</time></trkpt><trkpt lat="30.34350148420424" lon="-5.793496440871753"><ele>724.0</ele><time>2026-03-25T07:33:33Z</time></trkpt><trkpt lat="30.343601325211708" lon="-5.793410533876604"><ele>724.0</ele><time>2026-03-25T07:33:34Z</time></trkpt><trkpt lat="30.34369648373688" lon="-5.793315816002496"><ele>724.0</ele><time>2026-03-25T07:33:35Z</time></trkpt><trkpt lat="30.34379167384367" lon="-5.793231906643824"><ele>724.0</ele><time>2026-03-25T07:33:36Z</time></trkpt><trkpt lat="30.34389173364239" lon="-5.793148818524093"><ele>724.0</ele><time>2026-03-25T07:33:37Z</time></trkpt><trkpt lat="30.343994455498834" lon="-5.7930540884481685"><ele>724.0</ele><time>2026-03-25T07:33:38Z</time></trkpt><trkpt lat="30.344099385689756" lon="-5.79294511626899"><ele>724.0</ele><time>2026-03-25T07:33:39Z</time></trkpt><trkpt lat="30.34423060679096" lon="-5.792825244799325"><ele>724.0</ele><time>2026-03-25T07:33:40Z</time></trkpt><trkpt lat="30.34435431487692" lon="-5.792705676240074"><ele>724.0</ele><time>2026-03-25T07:33:41Z</time></trkpt><trkpt lat="30.344474980247572" lon="-5.792587494622175"><ele>724.0</ele><time>2026-03-25T07:33:42Z</time></trkpt><trkpt lat="30.344591356114496" lon="-5.79248249206307"><ele>724.0</ele><time>2026-03-25T07:33:43Z</time></trkpt><trkpt lat="30.344692447470056" lon="-5.79239382867353"><ele>724.0</ele><time>2026-03-25T07:33:44Z</time></trkpt><trkpt lat="30.34480275698064" lon="-5.792290695613609"><ele>724.0</ele><time>2026-03-25T07:33:45Z</time></trkpt><trkpt lat="30.344906928113016" lon="-5.792197313490672"><ele>724.0</ele><time>2026-03-25T07:33:46Z</time></trkpt><trkpt lat="30.345002755726657" lon="-5.792111882560473"><ele>724.25</ele><time>2026-03-25T07:33:47Z</time></trkpt><trkpt lat="30.345101105956758" lon="-5.792025079693038"><ele>724.5</ele><time>2026-03-25T07:33:48Z</time></trkpt><trkpt lat="30.345205342164878" lon="-5.791928651095818"><ele>724.75</ele><time>2026-03-25T07:33:49Z</time></trkpt><trkpt lat="30.34531478174807" lon="-5.7918298599016245"><ele>725.0</ele><time>2026-03-25T07:33:50Z</time></trkpt><trkpt lat="30.34542201651558" lon="-5.79173238728806"><ele>725.0</ele><time>2026-03-25T07:33:51Z</time></trkpt><trkpt lat="30.34553396301382" lon="-5.791633328484334"><ele>725.0</ele><time>2026-03-25T07:33:52Z</time></trkpt><trkpt lat="30.345648614308946" lon="-5.791534238985247"><ele>725.0</ele><time>2026-03-25T07:33:53Z</time></trkpt><trkpt lat="30.34576021037797" lon="-5.791436012953243"><ele>725.0</ele><time>2026-03-25T07:33:54Z</time></trkpt><trkpt lat="30.34587375837607" lon="-5.791331791700583"><ele>725.25</ele><time>2026-03-25T07:33:55Z</time></trkpt><trkpt lat="30.34597923797574" lon="-5.791224287113614"><ele>725.5</ele><time>2026-03-25T07:33:56Z</time></trkpt><trkpt lat="30.3460849092077" lon="-5.791114551774681"><ele>725.75</ele><time>2026-03-25T07:33:57Z</time></trkpt><trkpt lat="30.346190265429986" lon="-5.791018478453537"><ele>726.0</ele><time>2026-03-25T07:33:58Z</time></trkpt><trkpt lat="30.346293457815804" lon="-5.790916847705161"><ele>725.75</ele><time>2026-03-25T07:33:59Z</time></trkpt><trkpt lat="30.346389775752353" lon="-5.790821579639896"><ele>725.5</ele><time>2026-03-25T07:34:00Z</time></trkpt><trkpt lat="30.346483051900947" lon="-5.790723111362011"><ele>725.25</ele><time>2026-03-25T07:34:01Z</time></trkpt><trkpt lat="30.346566659126854" lon="-5.790626287333045"><ele>725.0</ele><time>2026-03-25T07:34:02Z</time></trkpt><trkpt lat="30.346647578885353" lon="-5.790538621370022"><ele>725.0</ele><time>2026-03-25T07:34:03Z</time></trkpt><trkpt lat="30.34673480957904" lon="-5.790458527409763"><ele>725.0</ele><time>2026-03-25T07:34:04Z</time></trkpt><trkpt lat="30.346827239140353" lon="-5.79037561947102"><ele>725.0</ele><time>2026-03-25T07:34:05Z</time></trkpt><trkpt lat="30.34692070528775" lon="-5.7902914033830415"><ele>725.0</ele><time>2026-03-25T07:34:06Z</time></trkpt><trkpt lat="30.347011969470135" lon="-5.790202921281234"><ele>725.2</ele><time>2026-03-25T07:34:07Z</time></trkpt><trkpt lat="30.347093164545203" lon="-5.790122829179869"><ele>725.4</ele><time>2026-03-25T07:34:08Z</time></trkpt><trkpt lat="30.347167793673588" lon="-5.790046689965392"><ele>725.5999999999999</ele><time>2026-03-25T07:34:09Z</time></trkpt><trkpt lat="30.347252768256006" lon="-5.789959472920157"><ele>725.8</ele><time>2026-03-25T07:34:10Z</time></trkpt><trkpt lat="30.347350311636625" lon="-5.789883957104535"><ele>726.0</ele><time>2026-03-25T07:34:11Z</time></trkpt><trkpt lat="30.34745942224" lon="-5.789811229406825"><ele>726.0</ele><time>2026-03-25T07:34:12Z</time></trkpt><trkpt lat="30.34756825934296" lon="-5.78972176555898"><ele>726.0</ele><time>2026-03-25T07:34:13Z</time></trkpt><trkpt lat="30.347679050681524" lon="-5.789622727349256"><ele>726.0</ele><time>2026-03-25T07:34:14Z</time></trkpt><trkpt lat="30.34778120145287" lon="-5.789526337921331"><ele>726.0</ele><time>2026-03-25T07:34:15Z</time></trkpt><trkpt lat="30.347885548371714" lon="-5.7894266737956634"><ele>726.25</ele><time>2026-03-25T07:34:16Z</time></trkpt><trkpt lat="30.34798213788389" lon="-5.7893265390772415"><ele>726.5</ele><time>2026-03-25T07:34:17Z</time></trkpt><trkpt lat="30.34808356353053" lon="-5.7892209853153265"><ele>726.75</ele><time>2026-03-25T07:34:18Z</time></trkpt><trkpt lat="30.34817767796142" lon="-5.789123085894856"><ele>727.0</ele><time>2026-03-25T07:34:19Z</time></trkpt><trkpt lat="30.348260136065633" lon="-5.789038631171316"><ele>727.6</ele><time>2026-03-25T07:34:20Z</time></trkpt><trkpt lat="30.34834238867911" lon="-5.788962076199715"><ele>728.2</ele><time>2026-03-25T07:34:21Z</time></trkpt><trkpt lat="30.348430531208365" lon="-5.788885418742559"><ele>728.8</ele><time>2026-03-25T07:34:22Z</time></trkpt><trkpt lat="30.348526583266715" lon="-5.78882179803655"><ele>729.4</ele><time>2026-03-25T07:34:23Z</time></trkpt><trkpt lat="30.348613478305026" lon="-5.788775808004892"><ele>730.0</ele><time>2026-03-25T07:34:24Z</time></trkpt><trkpt lat="30.348697295020653" lon="-5.788730536329298"><ele>730.0</ele><time>2026-03-25T07:34:25Z</time></trkpt><trkpt lat="30.348788492555027" lon="-5.788684315970913"><ele>730.0</ele><time>2026-03-25T07:34:26Z</time></trkpt><trkpt lat="30.348895026349595" lon="-5.78864462979937"><ele>730.0</ele><time>2026-03-25T07:34:27Z</time></trkpt><trkpt lat="30.349002736598717" lon="-5.788607903905185"><ele>730.0</ele><time>2026-03-25T07:34:28Z</time></trkpt><trkpt lat="30.349113315350596" lon="-5.78856155766614"><ele>730.0</ele><time>2026-03-25T07:34:29Z</time></trkpt><trkpt lat="30.349221887425777" lon="-5.788511311510887"><ele>729.0</ele><time>2026-03-25T07:34:30Z</time></trkpt><trkpt lat="30.34933137061879" lon="-5.788462423742134"><ele>728.0</ele><time>2026-03-25T07:34:31Z</time></trkpt><trkpt lat="30.349437726496603" lon="-5.788430338422226"><ele>727.0</ele><time>2026-03-25T07:34:32Z</time></trkpt><trkpt lat="30.349548213697776" lon="-5.788421061515396"><ele>726.0</ele><time>2026-03-25T07:34:33Z</time></trkpt><trkpt lat="30.34966084520946" lon="-5.788429766665146"><ele>725.75</ele><time>2026-03-25T07:34:34Z</time></trkpt><trkpt lat="30.34978661742442" lon="-5.788453768758151"><ele>725.5</ele><time>2026-03-25T07:34:35Z</time></trkpt><trkpt lat="30.349904231996998" lon="-5.788462418032022"><ele>725.25</ele><time>2026-03-25T07:34:36Z</time></trkpt><trkpt lat="30.350016971104246" lon="-5.788444635548555"><ele>725.0</ele><time>2026-03-25T07:34:37Z</time></trkpt><trkpt lat="30.350131074656286" lon="-5.788437858891009"><ele>725.0</ele><time>2026-03-25T07:34:38Z</time></trkpt><trkpt lat="30.350240721953895" lon="-5.788446486452485"><ele>725.0</ele><time>2026-03-25T07:34:39Z</time></trkpt><trkpt lat="30.35035109192307" lon="-5.788455236658419"><ele>725.0</ele><time>2026-03-25T07:34:40Z</time></trkpt><trkpt lat="30.350464633691416" lon="-5.788464904513189"><ele>725.0</ele><time>2026-03-25T07:34:41Z</time></trkpt><trkpt lat="30.350577279825295" lon="-5.788478804779036"><ele>725.0</ele><time>2026-03-25T07:34:42Z</time></trkpt><trkpt lat="30.350686298861437" lon="-5.788487002983541"><ele>725.5</ele><time>2026-03-25T07:34:43Z</time></trkpt><trkpt lat="30.350798690712086" lon="-5.788495735917665"><ele>726.0</ele><time>2026-03-25T07:34:44Z</time></trkpt><trkpt lat="30.35092207847766" lon="-5.78849416210885"><ele>726.5</ele><time>2026-03-25T07:34:45Z</time></trkpt><trkpt lat="30.351048298589085" lon="-5.788491758288037"><ele>727.0</ele><time>2026-03-25T07:34:46Z</time></trkpt><trkpt lat="30.351182661621905" lon="-5.788490444588092"><ele>727.0</ele><time>2026-03-25T07:34:47Z</time></trkpt><trkpt lat="30.351316773365802" lon="-5.788487853984906"><ele>727.0</ele><time>2026-03-25T07:34:48Z</time></trkpt><trkpt lat="30.351450333042454" lon="-5.788494193503158"><ele>727.0</ele><time>2026-03-25T07:34:49Z</time></trkpt><trkpt lat="30.35159083374938" lon="-5.788502053734199"><ele>727.0</ele><time>2026-03-25T07:34:50Z</time></trkpt><trkpt lat="30.351743456630274" lon="-5.788511885620846"><ele>726.5</ele><time>2026-03-25T07:34:51Z</time></trkpt><trkpt lat="30.351896750150104" lon="-5.7885214075470985"><ele>726.0</ele><time>2026-03-25T07:34:52Z</time></trkpt><trkpt lat="30.35203268315405" lon="-5.788531209588456"><ele>725.5</ele><time>2026-03-25T07:34:53Z</time></trkpt><trkpt lat="30.352153921096775" lon="-5.7885367583229375"><ele>725.0</ele><time>2026-03-25T07:34:54Z</time></trkpt><trkpt lat="30.35226936758611" lon="-5.7885409226850975"><ele>725.0</ele><time>2026-03-25T07:34:55Z</time></trkpt><trkpt lat="30.35237490811705" lon="-5.788545113824186"><ele>725.0</ele><time>2026-03-25T07:34:56Z</time></trkpt><trkpt lat="30.352476513548524" lon="-5.7885499052494875"><ele>725.0</ele><time>2026-03-25T07:34:57Z</time></trkpt><trkpt lat="30.352569729094757" lon="-5.788554680002172"><ele>725.0</ele><time>2026-03-25T07:34:58Z</time></trkpt><trkpt lat="30.352661842632507" lon="-5.788561945866743"><ele>725.0</ele><time>2026-03-25T07:34:59Z</time></trkpt><trkpt lat="30.352752582168716" lon="-5.788556100606965"><ele>725.0</ele><time>2026-03-25T07:35:00Z</time></trkpt><trkpt lat="30.352840587960117" lon="-5.788541363190242"><ele>725.0</ele><time>2026-03-25T07:35:01Z</time></trkpt><trkpt lat="30.352927590996483" lon="-5.788492108987742"><ele>725.0</ele><time>2026-03-25T07:35:02Z</time></trkpt><trkpt lat="30.35302798965735" lon="-5.78845170650981"><ele>725.0</ele><time>2026-03-25T07:35:03Z</time></trkpt><trkpt lat="30.353133616492432" lon="-5.788437249138176"><ele>725.0</ele><time>2026-03-25T07:35:04Z</time></trkpt><trkpt lat="30.35325344274584" lon="-5.788442696859136"><ele>725.2</ele><time>2026-03-25T07:35:05Z</time></trkpt><trkpt lat="30.353379006020273" lon="-5.78845825954062"><ele>725.4</ele><time>2026-03-25T07:35:06.001Z</time></trkpt><trkpt lat="30.35348385483461" lon="-5.788452251852544"><ele>725.5999999999999</ele><time>2026-03-25T07:35:07.001Z</time></trkpt><trkpt lat="30.353577256109215" lon="-5.7884241166350385"><ele>725.8</ele><time>2026-03-25T07:35:08.001Z</time></trkpt><trkpt lat="30.353657426260707" lon="-5.788380539880058"><ele>726.0</ele><time>2026-03-25T07:35:09.001Z</time></trkpt><trkpt lat="30.353737678226263" lon="-5.788331394385739"><ele>726.0</ele><time>2026-03-25T07:35:10.001Z</time></trkpt><trkpt lat="30.353821518208093" lon="-5.7882750952211905"><ele>726.0</ele><time>2026-03-25T07:35:11.001Z</time></trkpt><trkpt lat="30.35390523324681" lon="-5.788210296679022"><ele>726.0</ele><time>2026-03-25T07:35:12.001Z</time></trkpt><trkpt lat="30.354002024576296" lon="-5.788136277605256"><ele>726.0</ele><time>2026-03-25T07:35:13.001Z</time></trkpt><trkpt lat="30.35411110404617" lon="-5.788060668560092"><ele>726.0</ele><time>2026-03-25T07:35:14.001Z</time></trkpt><trkpt lat="30.3542158790286" lon="-5.787985745455053"><ele>725.75</ele><time>2026-03-25T07:35:15.001Z</time></trkpt><trkpt lat="30.354314393861635" lon="-5.787909287856647"><ele>725.5</ele><time>2026-03-25T07:35:16.001Z</time></trkpt><trkpt lat="30.354408204309014" lon="-5.787839674824645"><ele>725.25</ele><time>2026-03-25T07:35:17.001Z</time></trkpt><trkpt lat="30.35450705865389" lon="-5.78776773665319"><ele>725.0</ele><time>2026-03-25T07:35:18.001Z</time></trkpt><trkpt lat="30.354598821878817" lon="-5.787698116595061"><ele>725.0</ele><time>2026-03-25T07:35:19.001Z</time></trkpt><trkpt lat="30.354681965937306" lon="-5.787631392111564"><ele>725.0</ele><time>2026-03-25T07:35:20.001Z</time></trkpt><trkpt lat="30.354744429394067" lon="-5.787564412068461"><ele>725.0</ele><time>2026-03-25T07:35:21.001Z</time></trkpt><trkpt lat="30.35479032613947" lon="-5.787511683853634"><ele>725.0</ele><time>2026-03-25T07:35:22.001Z</time></trkpt><trkpt lat="30.354833238573725" lon="-5.78738622344571"><ele>725.0</ele><time>2026-03-25T07:35:24.001Z</time></trkpt><trkpt lat="30.354844878624256" lon="-5.787302158730102"><ele>725.0</ele><time>2026-03-25T07:35:25.001Z</time></trkpt><trkpt lat="30.354839361738264" lon="-5.787212888848717"><ele>725.0</ele><time>2026-03-25T07:35:26.001Z</time></trkpt><trkpt lat="30.354839087298032" lon="-5.787112341360657"><ele>725.0</ele><time>2026-03-25T07:35:27.001Z</time></trkpt><trkpt lat="30.354860555197085" lon="-5.786997150378691"><ele>725.0</ele><time>2026-03-25T07:35:28.001Z</time></trkpt><trkpt lat="30.354907482693978" lon="-5.7868828082446235"><ele>725.0</ele><time>2026-03-25T07:35:29.001Z</time></trkpt><trkpt lat="30.354958383497557" lon="-5.786795347582124"><ele>725.0</ele><time>2026-03-25T07:35:30.001Z</time></trkpt><trkpt lat="30.355009407270774" lon="-5.7867085253045065"><ele>725.0</ele><time>2026-03-25T07:35:31.001Z</time></trkpt><trkpt lat="30.35505503343827" lon="-5.786625033727836"><ele>725.0</ele><time>2026-03-25T07:35:32.001Z</time></trkpt><trkpt lat="30.355105949026235" lon="-5.786537441960646"><ele>725.0</ele><time>2026-03-25T07:35:33.001Z</time></trkpt><trkpt lat="30.35516489069105" lon="-5.7864439425204"><ele>725.0</ele><time>2026-03-25T07:35:34.001Z</time></trkpt><trkpt lat="30.35522675334231" lon="-5.786350737535771"><ele>725.0</ele><time>2026-03-25T07:35:35.001Z</time></trkpt><trkpt lat="30.355293904303686" lon="-5.786256126283193"><ele>725.0</ele><time>2026-03-25T07:35:36.001Z</time></trkpt><trkpt lat="30.355349834477764" lon="-5.7861760923404075"><ele>725.0</ele><time>2026-03-25T07:35:37.001Z</time></trkpt><trkpt lat="30.355407411594538" lon="-5.786094894099898"><ele>725.0</ele><time>2026-03-25T07:35:38.001Z</time></trkpt><trkpt lat="30.355472040681796" lon="-5.7860074270443445"><ele>725.0</ele><time>2026-03-25T07:35:39.001Z</time></trkpt><trkpt lat="30.355543138479344" lon="-5.785908889305559"><ele>725.0</ele><time>2026-03-25T07:35:40.001Z</time></trkpt><trkpt lat="30.35560938036306" lon="-5.785797706128321"><ele>725.5</ele><time>2026-03-25T07:35:41.001Z</time></trkpt><trkpt lat="30.35568068379056" lon="-5.785680567020618"><ele>726.0</ele><time>2026-03-25T07:35:42.001Z</time></trkpt><trkpt lat="30.3557445696987" lon="-5.785560605439434"><ele>726.5</ele><time>2026-03-25T07:35:43.001Z</time></trkpt><trkpt lat="30.3557989907493" lon="-5.785448509585877"><ele>727.0</ele><time>2026-03-25T07:35:44.001Z</time></trkpt><trkpt lat="30.35584458437053" lon="-5.785332826917356"><ele>727.0</ele><time>2026-03-25T07:35:45.001Z</time></trkpt><trkpt lat="30.355888613984593" lon="-5.7852268384997325"><ele>727.0</ele><time>2026-03-25T07:35:46.001Z</time></trkpt><trkpt lat="30.35593261565027" lon="-5.785119449930673"><ele>727.0</ele><time>2026-03-25T07:35:47.001Z</time></trkpt><trkpt lat="30.355969178803505" lon="-5.78502139764689"><ele>727.0</ele><time>2026-03-25T07:35:48.001Z</time></trkpt><trkpt lat="30.35600008410475" lon="-5.7849282525047725"><ele>727.0</ele><time>2026-03-25T07:35:49.001Z</time></trkpt><trkpt lat="30.356028649245438" lon="-5.784835461521943"><ele>726.6</ele><time>2026-03-25T07:35:50.001Z</time></trkpt><trkpt lat="30.356071003076977" lon="-5.78472011792697"><ele>726.2</ele><time>2026-03-25T07:35:51.001Z</time></trkpt><trkpt lat="30.35611389335846" lon="-5.784598198730227"><ele>725.8</ele><time>2026-03-25T07:35:52.001Z</time></trkpt><trkpt lat="30.356151547674866" lon="-5.784480985556556"><ele>725.4</ele><time>2026-03-25T07:35:53.001Z</time></trkpt><trkpt lat="30.35619106646223" lon="-5.784359423438699"><ele>725.0</ele><time>2026-03-25T07:35:54.001Z</time></trkpt><trkpt lat="30.356230112237906" lon="-5.784244034452982"><ele>725.0</ele><time>2026-03-25T07:35:55.001Z</time></trkpt><trkpt lat="30.356266226513057" lon="-5.784134979975941"><ele>725.0</ele><time>2026-03-25T07:35:56.001Z</time></trkpt><trkpt lat="30.356300324303625" lon="-5.784030048136942"><ele>725.0</ele><time>2026-03-25T07:35:57.001Z</time></trkpt><trkpt lat="30.356334438811356" lon="-5.783926570843448"><ele>725.0</ele><time>2026-03-25T07:35:58.001Z</time></trkpt><trkpt lat="30.356373829564145" lon="-5.783828344445997"><ele>725.0</ele><time>2026-03-25T07:35:59.001Z</time></trkpt><trkpt lat="30.35641556302977" lon="-5.783727258482418"><ele>725.2</ele><time>2026-03-25T07:36:00.001Z</time></trkpt><trkpt lat="30.35646165863553" lon="-5.783633179253622"><ele>725.4</ele><time>2026-03-25T07:36:01.001Z</time></trkpt><trkpt lat="30.356515773590043" lon="-5.7835373463364865"><ele>725.5999999999999</ele><time>2026-03-25T07:36:02.001Z</time></trkpt><trkpt lat="30.35658159895392" lon="-5.783446872229711"><ele>725.8</ele><time>2026-03-25T07:36:03.001Z</time></trkpt><trkpt lat="30.35666523479068" lon="-5.783358806486374"><ele>726.0</ele><time>2026-03-25T07:36:04.001Z</time></trkpt><trkpt lat="30.356745549953505" lon="-5.783273583525516"><ele>726.5</ele><time>2026-03-25T07:36:05.001Z</time></trkpt><trkpt lat="30.356828703517515" lon="-5.783182118364339"><ele>727.0</ele><time>2026-03-25T07:36:06.001Z</time></trkpt><trkpt lat="30.356907120334217" lon="-5.78308475605828"><ele>727.5</ele><time>2026-03-25T07:36:07.001Z</time></trkpt><trkpt lat="30.356983890449232" lon="-5.782988338771908"><ele>728.0</ele><time>2026-03-25T07:36:08.001Z</time></trkpt><trkpt lat="30.35705921216819" lon="-5.782885757632338"><ele>728.0</ele><time>2026-03-25T07:36:09.001Z</time></trkpt><trkpt lat="30.357138845936596" lon="-5.782784476506602"><ele>728.0</ele><time>2026-03-25T07:36:10.001Z</time></trkpt><trkpt lat="30.357213249612123" lon="-5.782690083166488"><ele>728.0</ele><time>2026-03-25T07:36:11.001Z</time></trkpt><trkpt lat="30.357292181040606" lon="-5.7825933243576415"><ele>728.0</ele><time>2026-03-25T07:36:12.001Z</time></trkpt><trkpt lat="30.35737420832406" lon="-5.782499680167299"><ele>727.75</ele><time>2026-03-25T07:36:13.001Z</time></trkpt><trkpt lat="30.35745696538651" lon="-5.78240529410073"><ele>727.5</ele><time>2026-03-25T07:36:14.001Z</time></trkpt><trkpt lat="30.357546388530483" lon="-5.782308104905988"><ele>727.25</ele><time>2026-03-25T07:36:15.001Z</time></trkpt><trkpt lat="30.357632923119187" lon="-5.782209749987742"><ele>727.0</ele><time>2026-03-25T07:36:16.001Z</time></trkpt><trkpt lat="30.357716427209652" lon="-5.782108069245435"><ele>727.0</ele><time>2026-03-25T07:36:17.001Z</time></trkpt><trkpt lat="30.357798660647056" lon="-5.782000772300918"><ele>727.0</ele><time>2026-03-25T07:36:18.001Z</time></trkpt><trkpt lat="30.35787223943011" lon="-5.781902324068862"><ele>727.0</ele><time>2026-03-25T07:36:19.001Z</time></trkpt><trkpt lat="30.357948532212372" lon="-5.781804623714298"><ele>727.0</ele><time>2026-03-25T07:36:20.001Z</time></trkpt><trkpt lat="30.358027450752456" lon="-5.781708328780894"><ele>726.8</ele><time>2026-03-25T07:36:21.001Z</time></trkpt><trkpt lat="30.358108398966507" lon="-5.781619627687174"><ele>726.6</ele><time>2026-03-25T07:36:22.001Z</time></trkpt><trkpt lat="30.358184431098287" lon="-5.781544965898487"><ele>726.4</ele><time>2026-03-25T07:36:23.001Z</time></trkpt><trkpt lat="30.358252979988613" lon="-5.78146903719862"><ele>726.1999999999999</ele><time>2026-03-25T07:36:24.001Z</time></trkpt><trkpt lat="30.358312187299735" lon="-5.781377162368211"><ele>726.0</ele><time>2026-03-25T07:36:25.001Z</time></trkpt><trkpt lat="30.358353270210227" lon="-5.781288275105693"><ele>725.9999999999999</ele><time>2026-03-25T07:36:26.001Z</time></trkpt><trkpt lat="30.358377402472403" lon="-5.781209408760091"><ele>726.0</ele><time>2026-03-25T07:36:27.001Z</time></trkpt><trkpt lat="30.358380920617407" lon="-5.781131816066435"><ele>726.0</ele><time>2026-03-25T07:36:28.001Z</time></trkpt><trkpt lat="30.358375655720934" lon="-5.78104771328148"><ele>726.0</ele><time>2026-03-25T07:36:29.001Z</time></trkpt><trkpt lat="30.358357658253816" lon="-5.78096932386165"><ele>726.0</ele><time>2026-03-25T07:36:30.001Z</time></trkpt><trkpt lat="30.358348261913445" lon="-5.780872068016671"><ele>725.9999999999999</ele><time>2026-03-25T07:36:31.001Z</time></trkpt><trkpt lat="30.358331856355427" lon="-5.780778438404056"><ele>726.0</ele><time>2026-03-25T07:36:32.001Z</time></trkpt><trkpt lat="30.358310043182687" lon="-5.780687283891089"><ele>726.5999999999999</ele><time>2026-03-25T07:36:33.001Z</time></trkpt><trkpt lat="30.358290321413627" lon="-5.780581416259073"><ele>727.2</ele><time>2026-03-25T07:36:34.001Z</time></trkpt><trkpt lat="30.358272769400024" lon="-5.780477042082153"><ele>727.8</ele><time>2026-03-25T07:36:35.001Z</time></trkpt><trkpt lat="30.358250776864814" lon="-5.780374782072981"><ele>728.4000000000001</ele><time>2026-03-25T07:36:36.001Z</time></trkpt><trkpt lat="30.35822155313311" lon="-5.7802701782589505"><ele>729.0</ele><time>2026-03-25T07:36:37.001Z</time></trkpt><trkpt lat="30.35819167206292" lon="-5.780179749711935"><ele>729.0</ele><time>2026-03-25T07:36:38.001Z</time></trkpt><trkpt lat="30.35816342022357" lon="-5.78011143384208"><ele>729.0</ele><time>2026-03-25T07:36:39.001Z</time></trkpt><trkpt lat="30.358141933753284" lon="-5.780012435161865"><ele>729.0</ele><time>2026-03-25T07:36:41.001Z</time></trkpt><trkpt lat="30.35819564506037" lon="-5.779954509307564"><ele>729.0</ele><time>2026-03-25T07:36:44.001Z</time></trkpt><trkpt lat="30.35828852638595" lon="-5.779934057779276"><ele>729.0</ele><time>2026-03-25T07:36:47.001Z</time></trkpt><trkpt lat="30.358358005439122" lon="-5.7798865850152366"><ele>729.0</ele><time>2026-03-25T07:36:50.001Z</time></trkpt><trkpt lat="30.35830145536088" lon="-5.779945409901304"><ele>729.0</ele><time>2026-03-25T07:37:02.001Z</time></trkpt><trkpt lat="30.358235413577702" lon="-5.779964386333489"><ele>729.0</ele><time>2026-03-25T07:37:22.001Z</time></trkpt><trkpt lat="30.35814607213568" lon="-5.779964697369681"><ele>729.0</ele><time>2026-03-25T07:37:24.001Z</time></trkpt><trkpt lat="30.358042330601364" lon="-5.779864298292932"><ele>729.0</ele><time>2026-03-25T07:37:26.001Z</time></trkpt><trkpt lat="30.3579916138758" lon="-5.779754908791995"><ele>729.0</ele><time>2026-03-25T07:37:27.001Z</time></trkpt><trkpt lat="30.35795233626504" lon="-5.779614020353502"><ele>729.2</ele><time>2026-03-25T07:37:28.001Z</time></trkpt><trkpt lat="30.357874353676298" lon="-5.77948237571252"><ele>729.4000000000001</ele><time>2026-03-25T07:37:29.001Z</time></trkpt><trkpt lat="30.35780981502451" lon="-5.779402146657549"><ele>729.6</ele><time>2026-03-25T07:37:30.001Z</time></trkpt><trkpt lat="30.35774909025783" lon="-5.779311574668394"><ele>729.8</ele><time>2026-03-25T07:37:31.001Z</time></trkpt><trkpt lat="30.357700102434404" lon="-5.779194867092935"><ele>730.0</ele><time>2026-03-25T07:37:32.001Z</time></trkpt><trkpt lat="30.357671651929408" lon="-5.77906084137604"><ele>730.0</ele><time>2026-03-25T07:37:33.001Z</time></trkpt><trkpt lat="30.357671110274236" lon="-5.778922621110163"><ele>730.0</ele><time>2026-03-25T07:37:34.001Z</time></trkpt><trkpt lat="30.35769074226445" lon="-5.778783410085443"><ele>730.0</ele><time>2026-03-25T07:37:35.001Z</time></trkpt><trkpt lat="30.357724357735233" lon="-5.778657277869943"><ele>730.0</ele><time>2026-03-25T07:37:36.001Z</time></trkpt><trkpt lat="30.357759081227094" lon="-5.778547142115457"><ele>729.0</ele><time>2026-03-25T07:37:37.001Z</time></trkpt><trkpt lat="30.357814028454396" lon="-5.778424573494045"><ele>728.0</ele><time>2026-03-25T07:37:38.001Z</time></trkpt><trkpt lat="30.357882068406763" lon="-5.778296485495411"><ele>727.0</ele><time>2026-03-25T07:37:39.001Z</time></trkpt><trkpt lat="30.35793720643633" lon="-5.778197353571819"><ele>726.0</ele><time>2026-03-25T07:37:40.001Z</time></trkpt><trkpt lat="30.35798279496699" lon="-5.778109826373507"><ele>725.0</ele><time>2026-03-25T07:37:41.001Z</time></trkpt><trkpt lat="30.35803025843071" lon="-5.778034935679989"><ele>725.1666666666666</ele><time>2026-03-25T07:37:42.001Z</time></trkpt><trkpt lat="30.35808118101288" lon="-5.777964523629072"><ele>725.3333333333333</ele><time>2026-03-25T07:37:43.001Z</time></trkpt><trkpt lat="30.358125695354673" lon="-5.777895787427629"><ele>725.5</ele><time>2026-03-25T07:37:44.001Z</time></trkpt><trkpt lat="30.358171306305312" lon="-5.777825523785952"><ele>725.6666666666666</ele><time>2026-03-25T07:37:45.001Z</time></trkpt><trkpt lat="30.35822725727036" lon="-5.777751806464639"><ele>725.8333333333334</ele><time>2026-03-25T07:37:46.001Z</time></trkpt><trkpt lat="30.35828579257966" lon="-5.777662668869798"><ele>726.0</ele><time>2026-03-25T07:37:47.001Z</time></trkpt><trkpt lat="30.35836142715326" lon="-5.7775656998828335"><ele>726.0</ele><time>2026-03-25T07:37:48.001Z</time></trkpt><trkpt lat="30.358436106078145" lon="-5.777465424929892"><ele>726.0</ele><time>2026-03-25T07:37:49.001Z</time></trkpt><trkpt lat="30.358510871138876" lon="-5.777377444304974"><ele>726.0</ele><time>2026-03-25T07:37:50.001Z</time></trkpt><trkpt lat="30.358579801000445" lon="-5.777277736972244"><ele>726.0</ele><time>2026-03-25T07:37:51.001Z</time></trkpt><trkpt lat="30.35864000616369" lon="-5.777187320171987"><ele>726.0</ele><time>2026-03-25T07:37:52.001Z</time></trkpt><trkpt lat="30.358711378942218" lon="-5.777108028912558"><ele>726.0</ele><time>2026-03-25T07:37:53.001Z</time></trkpt><trkpt lat="30.358774142017403" lon="-5.777034483520063"><ele>726.0</ele><time>2026-03-25T07:37:54.001Z</time></trkpt><trkpt lat="30.358840529123324" lon="-5.776955919922174"><ele>726.0</ele><time>2026-03-25T07:37:55.001Z</time></trkpt><trkpt lat="30.358903421832185" lon="-5.776867107449902"><ele>726.0</ele><time>2026-03-25T07:37:56.001Z</time></trkpt><trkpt lat="30.358966262195203" lon="-5.7767787525857255"><ele>726.0</ele><time>2026-03-25T07:37:57.001Z</time></trkpt><trkpt lat="30.359028191192404" lon="-5.776699946766043"><ele>726.6666666666666</ele><time>2026-03-25T07:37:58.001Z</time></trkpt><trkpt lat="30.35908745072747" lon="-5.77662351508201"><ele>727.3333333333334</ele><time>2026-03-25T07:37:59.001Z</time></trkpt><trkpt lat="30.359138657404625" lon="-5.776553049563338"><ele>728.0</ele><time>2026-03-25T07:38:00.001Z</time></trkpt><trkpt lat="30.359191541273038" lon="-5.776491886674517"><ele>728.6666666666667</ele><time>2026-03-25T07:38:01.001Z</time></trkpt><trkpt lat="30.359262463820656" lon="-5.776407779594419"><ele>729.3333333333334</ele><time>2026-03-25T07:38:03.001Z</time></trkpt><trkpt lat="30.35930742243727" lon="-5.776355657912814"><ele>730.0</ele><time>2026-03-25T07:38:05.001Z</time></trkpt><trkpt lat="30.359367527110585" lon="-5.776315043107816"><ele>730.0</ele><time>2026-03-25T07:38:07.001Z</time></trkpt><trkpt lat="30.359480118296258" lon="-5.776329949570539"><ele>730.0</ele><time>2026-03-25T07:38:09.001Z</time></trkpt><trkpt lat="30.3595473144091" lon="-5.77636126564344"><ele>730.0</ele><time>2026-03-25T07:38:10.001Z</time></trkpt><trkpt lat="30.359617775275943" lon="-5.776393035201144"><ele>730.0</ele><time>2026-03-25T07:38:11.001Z</time></trkpt><trkpt lat="30.359723186032397" lon="-5.776432555959006"><ele>730.0</ele><time>2026-03-25T07:38:13.001Z</time></trkpt><trkpt lat="30.3598373254852" lon="-5.776481604413837"><ele>729.8</ele><time>2026-03-25T07:38:15.001Z</time></trkpt><trkpt lat="30.35995158190203" lon="-5.776525742610843"><ele>729.6</ele><time>2026-03-25T07:38:17.001Z</time></trkpt><trkpt lat="30.360044958690747" lon="-5.776562563763473"><ele>729.4000000000001</ele><time>2026-03-25T07:38:19.001Z</time></trkpt><trkpt lat="30.36017015514986" lon="-5.77660798960171"><ele>729.2</ele><time>2026-03-25T07:38:21.001Z</time></trkpt><trkpt lat="30.360257152492153" lon="-5.776642877884459"><ele>729.0</ele><time>2026-03-25T07:38:22.001Z</time></trkpt><trkpt lat="30.360346834158932" lon="-5.776679466945003"><ele>729.0</ele><time>2026-03-25T07:38:23.001Z</time></trkpt><trkpt lat="30.3604342897331" lon="-5.776711966284434"><ele>729.0</ele><time>2026-03-25T07:38:24.001Z</time></trkpt><trkpt lat="30.360522374329527" lon="-5.776747472218383"><ele>729.0</ele><time>2026-03-25T07:38:25.001Z</time></trkpt><trkpt lat="30.36061877591559" lon="-5.776786494149599"><ele>729.0</ele><time>2026-03-25T07:38:26.001Z</time></trkpt><trkpt lat="30.360732508351695" lon="-5.776831523835095"><ele>729.0</ele><time>2026-03-25T07:38:27.001Z</time></trkpt><trkpt lat="30.360834932430276" lon="-5.776878448859852"><ele>729.2</ele><time>2026-03-25T07:38:28.001Z</time></trkpt><trkpt lat="30.360942506213455" lon="-5.776920490431761"><ele>729.4000000000001</ele><time>2026-03-25T07:38:29.001Z</time></trkpt><trkpt lat="30.361043350646444" lon="-5.776964510871571"><ele>729.6</ele><time>2026-03-25T07:38:30.001Z</time></trkpt><trkpt lat="30.36114941267748" lon="-5.777008251748822"><ele>729.8</ele><time>2026-03-25T07:38:31.001Z</time></trkpt><trkpt lat="30.36124998562397" lon="-5.777051175568036"><ele>730.0</ele><time>2026-03-25T07:38:32.001Z</time></trkpt><trkpt lat="30.36134818617352" lon="-5.777096198683326"><ele>729.75</ele><time>2026-03-25T07:38:33.001Z</time></trkpt><trkpt lat="30.36144619234716" lon="-5.777146063408227"><ele>729.5</ele><time>2026-03-25T07:38:34.001Z</time></trkpt><trkpt lat="30.36154795500262" lon="-5.777195958086613"><ele>729.25</ele><time>2026-03-25T07:38:35.001Z</time></trkpt><trkpt lat="30.361656628702836" lon="-5.777249202142903"><ele>729.0</ele><time>2026-03-25T07:38:36.001Z</time></trkpt><trkpt lat="30.361765392754315" lon="-5.777304188169187"><ele>729.0</ele><time>2026-03-25T07:38:37.001Z</time></trkpt><trkpt lat="30.361872379330126" lon="-5.777354155169163"><ele>729.0</ele><time>2026-03-25T07:38:38.001Z</time></trkpt><trkpt lat="30.361971937070766" lon="-5.777408637753417"><ele>729.0</ele><time>2026-03-25T07:38:39.001Z</time></trkpt><trkpt lat="30.362076677581918" lon="-5.777469655080658"><ele>729.0</ele><time>2026-03-25T07:38:40.001Z</time></trkpt><trkpt lat="30.36217709922458" lon="-5.777524226628599"><ele>729.1666666666666</ele><time>2026-03-25T07:38:41.001Z</time></trkpt><trkpt lat="30.36225928753997" lon="-5.77756917535978"><ele>729.3333333333334</ele><time>2026-03-25T07:38:42.001Z</time></trkpt><trkpt lat="30.36232351429477" lon="-5.777609921101263"><ele>729.5</ele><time>2026-03-25T07:38:43.001Z</time></trkpt><trkpt lat="30.362423987596326" lon="-5.777675277159386"><ele>729.6666666666667</ele><time>2026-03-25T07:38:45.001Z</time></trkpt><trkpt lat="30.362486701998815" lon="-5.77769838754474"><ele>729.8333333333334</ele><time>2026-03-25T07:38:46.001Z</time></trkpt><trkpt lat="30.362558457541034" lon="-5.777733434210744"><ele>730.0</ele><time>2026-03-25T07:38:47.001Z</time></trkpt><trkpt lat="30.362634859567397" lon="-5.777777644203972"><ele>729.5</ele><time>2026-03-25T07:38:48.001Z</time></trkpt><trkpt lat="30.36271072204965" lon="-5.7778209010972414"><ele>729.0</ele><time>2026-03-25T07:38:49.001Z</time></trkpt><trkpt lat="30.362787728943864" lon="-5.777862105528527"><ele>728.5</ele><time>2026-03-25T07:38:50.001Z</time></trkpt><trkpt lat="30.362863034368832" lon="-5.7779051234053025"><ele>728.0</ele><time>2026-03-25T07:38:51.001Z</time></trkpt><trkpt lat="30.362942390928406" lon="-5.777952103661112"><ele>727.5</ele><time>2026-03-25T07:38:52.001Z</time></trkpt><trkpt lat="30.363024532201973" lon="-5.778000415470872"><ele>727.0</ele><time>2026-03-25T07:38:53.001Z</time></trkpt><trkpt lat="30.363113698793818" lon="-5.778053791108192"><ele>726.6</ele><time>2026-03-25T07:38:54.001Z</time></trkpt><trkpt lat="30.3632086317151" lon="-5.7781110692178625"><ele>726.2</ele><time>2026-03-25T07:38:55.001Z</time></trkpt><trkpt lat="30.363308169835204" lon="-5.778171274171348"><ele>725.8</ele><time>2026-03-25T07:38:56.001Z</time></trkpt><trkpt lat="30.363408111801526" lon="-5.778234535273534"><ele>725.4</ele><time>2026-03-25T07:38:57.001Z</time></trkpt><trkpt lat="30.363508536967625" lon="-5.778302508246189"><ele>725.0</ele><time>2026-03-25T07:38:58.001Z</time></trkpt><trkpt lat="30.363614748397904" lon="-5.778374283725355"><ele>725.0</ele><time>2026-03-25T07:38:59.001Z</time></trkpt><trkpt lat="30.363726689089034" lon="-5.778450774495957"><ele>725.0</ele><time>2026-03-25T07:39:00.001Z</time></trkpt><trkpt lat="30.363834324401292" lon="-5.778526358677594"><ele>725.0</ele><time>2026-03-25T07:39:01.001Z</time></trkpt><trkpt lat="30.363935794078635" lon="-5.778594689264766"><ele>725.0</ele><time>2026-03-25T07:39:02.001Z</time></trkpt><trkpt lat="30.36403408328776" lon="-5.778662600373313"><ele>726.0</ele><time>2026-03-25T07:39:03.001Z</time></trkpt><trkpt lat="30.364143620292367" lon="-5.778744502903736"><ele>727.0</ele><time>2026-03-25T07:39:04.001Z</time></trkpt><trkpt lat="30.364259872487633" lon="-5.778828390670581"><ele>728.0</ele><time>2026-03-25T07:39:05.001Z</time></trkpt><trkpt lat="30.364380684298578" lon="-5.778919846708112"><ele>729.0</ele><time>2026-03-25T07:39:06.001Z</time></trkpt><trkpt lat="30.364509230015564" lon="-5.779023730130823"><ele>729.0</ele><time>2026-03-25T07:39:07.001Z</time></trkpt><trkpt lat="30.3646372061635" lon="-5.779128331597583"><ele>729.0</ele><time>2026-03-25T07:39:08.001Z</time></trkpt><trkpt lat="30.3647514655967" lon="-5.779222593139877"><ele>729.0</ele><time>2026-03-25T07:39:09.001Z</time></trkpt><trkpt lat="30.36486236096387" lon="-5.779312552252331"><ele>729.0</ele><time>2026-03-25T07:39:10.001Z</time></trkpt><trkpt lat="30.364969820365094" lon="-5.779396430764268"><ele>728.75</ele><time>2026-03-25T07:39:11.001Z</time></trkpt><trkpt lat="30.365083701701714" lon="-5.779487802238214"><ele>728.5</ele><time>2026-03-25T07:39:12.001Z</time></trkpt><trkpt lat="30.365201399120703" lon="-5.779585210118089"><ele>728.25</ele><time>2026-03-25T07:39:13.001Z</time></trkpt><trkpt lat="30.36532073149471" lon="-5.779684275730446"><ele>728.0</ele><time>2026-03-25T07:39:14.001Z</time></trkpt><trkpt lat="30.36544181514018" lon="-5.779781515105881"><ele>728.5</ele><time>2026-03-25T07:39:15.001Z</time></trkpt><trkpt lat="30.365558652179633" lon="-5.779875310866204"><ele>729.0</ele><time>2026-03-25T07:39:16.001Z</time></trkpt><trkpt lat="30.365670466205856" lon="-5.779965616894291"><ele>729.5</ele><time>2026-03-25T07:39:17.001Z</time></trkpt><trkpt lat="30.365774448722224" lon="-5.780053041730798"><ele>730.0</ele><time>2026-03-25T07:39:18.001Z</time></trkpt><trkpt lat="30.365876838645356" lon="-5.780136062761066"><ele>729.5</ele><time>2026-03-25T07:39:19.001Z</time></trkpt><trkpt lat="30.36598489520673" lon="-5.780221135760172"><ele>729.0</ele><time>2026-03-25T07:39:20.001Z</time></trkpt><trkpt lat="30.366106304052533" lon="-5.780313438259399"><ele>728.5</ele><time>2026-03-25T07:39:21.001Z</time></trkpt><trkpt lat="30.366240608278122" lon="-5.780423441541204"><ele>728.0</ele><time>2026-03-25T07:39:22.001Z</time></trkpt><trkpt lat="30.366372287347353" lon="-5.780530691683956"><ele>728.0</ele><time>2026-03-25T07:39:23.001Z</time></trkpt><trkpt lat="30.366496500077965" lon="-5.780632071016019"><ele>728.0</ele><time>2026-03-25T07:39:24.001Z</time></trkpt><trkpt lat="30.366616619435614" lon="-5.780731997494817"><ele>728.0</ele><time>2026-03-25T07:39:25.001Z</time></trkpt><trkpt lat="30.36674445720657" lon="-5.78083522265414"><ele>728.0</ele><time>2026-03-25T07:39:26.001Z</time></trkpt><trkpt lat="30.366878318873084" lon="-5.780937324852142"><ele>728.0</ele><time>2026-03-25T07:39:27.001Z</time></trkpt><trkpt lat="30.367016227131593" lon="-5.781042687639109"><ele>728.0</ele><time>2026-03-25T07:39:28.001Z</time></trkpt><trkpt lat="30.367152708177013" lon="-5.781151095429419"><ele>727.3333333333333</ele><time>2026-03-25T07:39:29.001Z</time></trkpt><trkpt lat="30.367286138665456" lon="-5.781260935902366"><ele>726.6666666666666</ele><time>2026-03-25T07:39:30.001Z</time></trkpt><trkpt lat="30.367422935606708" lon="-5.781371907284482"><ele>726.0</ele><time>2026-03-25T07:39:31.001Z</time></trkpt><trkpt lat="30.367556032720902" lon="-5.781479007521932"><ele>726.0</ele><time>2026-03-25T07:39:32.001Z</time></trkpt><trkpt lat="30.367694947899928" lon="-5.781589807748125"><ele>726.0</ele><time>2026-03-25T07:39:33.001Z</time></trkpt><trkpt lat="30.3678275598849" lon="-5.781693034679721"><ele>726.0</ele><time>2026-03-25T07:39:34.001Z</time></trkpt><trkpt lat="30.36795832349482" lon="-5.781798433324721"><ele>726.3333333333334</ele><time>2026-03-25T07:39:35.001Z</time></trkpt><trkpt lat="30.368089546392522" lon="-5.781906124936855"><ele>726.6666666666667</ele><time>2026-03-25T07:39:36.001Z</time></trkpt><trkpt lat="30.368217163034537" lon="-5.7820082935977934"><ele>727.0</ele><time>2026-03-25T07:39:37.001Z</time></trkpt><trkpt lat="30.36833352932576" lon="-5.782102767582156"><ele>727.0</ele><time>2026-03-25T07:39:38.001Z</time></trkpt><trkpt lat="30.368449612623785" lon="-5.782196639629287"><ele>727.0</ele><time>2026-03-25T07:39:39.001Z</time></trkpt><trkpt lat="30.368570888793545" lon="-5.782293756621433"><ele>727.0</ele><time>2026-03-25T07:39:40.001Z</time></trkpt><trkpt lat="30.368698655619102" lon="-5.782394505468924"><ele>727.0</ele><time>2026-03-25T07:39:41.001Z</time></trkpt><trkpt lat="30.368805657109252" lon="-5.78248325367571"><ele>727.3333333333334</ele><time>2026-03-25T07:39:42.001Z</time></trkpt><trkpt lat="30.368875294192243" lon="-5.7825353212389015"><ele>727.6666666666667</ele><time>2026-03-25T07:39:43.001Z</time></trkpt><trkpt lat="30.368928467798334" lon="-5.782577117369324"><ele>728.0</ele><time>2026-03-25T07:39:44.001Z</time></trkpt><trkpt lat="30.369013999075445" lon="-5.782602729197148"><ele>728.3333333333334</ele><time>2026-03-25T07:39:46.001Z</time></trkpt><trkpt lat="30.369061769378856" lon="-5.782539905653226"><ele>728.6666666666666</ele><time>2026-03-25T07:39:48.001Z</time></trkpt><trkpt lat="30.36907976986759" lon="-5.782450071234114"><ele>729.0</ele><time>2026-03-25T07:39:51.001Z</time></trkpt><trkpt lat="30.369114968497808" lon="-5.7823864259454565"><ele>729.0</ele><time>2026-03-25T07:39:55.001Z</time></trkpt><trkpt lat="30.36916105520889" lon="-5.782324435050897"><ele>729.0</ele><time>2026-03-25T07:40:24.001Z</time></trkpt><trkpt lat="30.369202964211894" lon="-5.7822683121750185"><ele>729.0</ele><time>2026-03-25T07:40:25.001Z</time></trkpt><trkpt lat="30.369265232488054" lon="-5.782205333045488"><ele>729.0</ele><time>2026-03-25T07:40:26.001Z</time></trkpt><trkpt lat="30.36932151442417" lon="-5.782149745719825"><ele>729.0</ele><time>2026-03-25T07:40:27.001Z</time></trkpt><trkpt lat="30.36938627272751" lon="-5.782093704338915"><ele>729.0</ele><time>2026-03-25T07:40:28.001Z</time></trkpt><trkpt lat="30.369443484664583" lon="-5.782039740760466"><ele>729.0</ele><time>2026-03-25T07:40:29.001Z</time></trkpt><trkpt lat="30.36950028353116" lon="-5.781983660515127"><ele>729.0</ele><time>2026-03-25T07:40:30.001Z</time></trkpt><trkpt lat="30.369572211358438" lon="-5.781912630458697"><ele>729.0</ele><time>2026-03-25T07:40:31.001Z</time></trkpt><trkpt lat="30.36963716418119" lon="-5.781846525656284"><ele>729.0</ele><time>2026-03-25T07:40:32.001Z</time></trkpt><trkpt lat="30.369705177011674" lon="-5.781779075713764"><ele>729.0</ele><time>2026-03-25T07:40:33.001Z</time></trkpt><trkpt lat="30.36977471957886" lon="-5.781708329911056"><ele>729.0</ele><time>2026-03-25T07:40:34.001Z</time></trkpt><trkpt lat="30.369859696731453" lon="-5.781621524365663"><ele>729.4000000000001</ele><time>2026-03-25T07:40:35.001Z</time></trkpt><trkpt lat="30.369954163567407" lon="-5.7815277246906405"><ele>729.8</ele><time>2026-03-25T07:40:36.001Z</time></trkpt><trkpt lat="30.370038559176294" lon="-5.7814442873273775"><ele>730.2</ele><time>2026-03-25T07:40:37.001Z</time></trkpt><trkpt lat="30.37011331606712" lon="-5.781368464735878"><ele>730.5999999999999</ele><time>2026-03-25T07:40:38.001Z</time></trkpt><trkpt lat="30.370186930812377" lon="-5.7812920587548255"><ele>731.0</ele><time>2026-03-25T07:40:39.001Z</time></trkpt><trkpt lat="30.37026413793283" lon="-5.781213861572671"><ele>731.0</ele><time>2026-03-25T07:40:40.001Z</time></trkpt><trkpt lat="30.3703445535485" lon="-5.781132690997079"><ele>731.0</ele><time>2026-03-25T07:40:41.001Z</time></trkpt><trkpt lat="30.370420671205157" lon="-5.781049343527766"><ele>731.0</ele><time>2026-03-25T07:40:42.001Z</time></trkpt><trkpt lat="30.370499306679243" lon="-5.780958554814833"><ele>731.0</ele><time>2026-03-25T07:40:43.001Z</time></trkpt><trkpt lat="30.370578648221542" lon="-5.780866053746656"><ele>731.0</ele><time>2026-03-25T07:40:44.001Z</time></trkpt><trkpt lat="30.370654521272407" lon="-5.7807801356185475"><ele>730.8</ele><time>2026-03-25T07:40:45.001Z</time></trkpt><trkpt lat="30.37073168449448" lon="-5.780686384276663"><ele>730.5999999999999</ele><time>2026-03-25T07:40:46.001Z</time></trkpt><trkpt lat="30.3708085067823" lon="-5.780596607412748"><ele>730.4</ele><time>2026-03-25T07:40:47.001Z</time></trkpt><trkpt lat="30.37088537333601" lon="-5.780508179513886"><ele>730.2</ele><time>2026-03-25T07:40:48.001Z</time></trkpt><trkpt lat="30.370959760994545" lon="-5.780421411497407"><ele>730.0</ele><time>2026-03-25T07:40:49.001Z</time></trkpt><trkpt lat="30.371044982449174" lon="-5.7803329987565535"><ele>730.0</ele><time>2026-03-25T07:40:50.001Z</time></trkpt><trkpt lat="30.37112217855163" lon="-5.780247262306205"><ele>730.0</ele><time>2026-03-25T07:40:51.001Z</time></trkpt><trkpt lat="30.37120739003468" lon="-5.780147565036539"><ele>730.0</ele><time>2026-03-25T07:40:52.001Z</time></trkpt><trkpt lat="30.37129161327126" lon="-5.780048614433805"><ele>730.0</ele><time>2026-03-25T07:40:53.001Z</time></trkpt><trkpt lat="30.37137622082466" lon="-5.779946731959373"><ele>730.5</ele><time>2026-03-25T07:40:54.001Z</time></trkpt><trkpt lat="30.371458994239525" lon="-5.779843615208599"><ele>731.0</ele><time>2026-03-25T07:40:55.001Z</time></trkpt><trkpt lat="30.37154024963124" lon="-5.779738077870755"><ele>731.5</ele><time>2026-03-25T07:40:56.001Z</time></trkpt><trkpt lat="30.37161814965339" lon="-5.779630685790827"><ele>732.0</ele><time>2026-03-25T07:40:57.001Z</time></trkpt><trkpt lat="30.37169642010038" lon="-5.779519911737434"><ele>732.0</ele><time>2026-03-25T07:40:58.001Z</time></trkpt><trkpt lat="30.371775680185163" lon="-5.7794068093184645"><ele>732.0</ele><time>2026-03-25T07:40:59.001Z</time></trkpt><trkpt lat="30.371840774747835" lon="-5.7792982912997415"><ele>732.0</ele><time>2026-03-25T07:41:00.001Z</time></trkpt><trkpt lat="30.371908094913408" lon="-5.779181355764775"><ele>732.0</ele><time>2026-03-25T07:41:01.001Z</time></trkpt><trkpt lat="30.371971132659354" lon="-5.7790674694551765"><ele>732.25</ele><time>2026-03-25T07:41:02.001Z</time></trkpt><trkpt lat="30.372025508844125" lon="-5.778947428667857"><ele>732.5</ele><time>2026-03-25T07:41:03.001Z</time></trkpt><trkpt lat="30.37207609144116" lon="-5.778826460215955"><ele>732.75</ele><time>2026-03-25T07:41:04.001Z</time></trkpt><trkpt lat="30.37212098245191" lon="-5.778704897677177"><ele>733.0</ele><time>2026-03-25T07:41:05.001Z</time></trkpt><trkpt lat="30.372163565746167" lon="-5.778579233005491"><ele>733.5</ele><time>2026-03-25T07:41:06.001Z</time></trkpt><trkpt lat="30.37220448381237" lon="-5.778452877473105"><ele>734.0</ele><time>2026-03-25T07:41:07.001Z</time></trkpt><trkpt lat="30.372239692309662" lon="-5.778326665381424"><ele>734.5</ele><time>2026-03-25T07:41:08.001Z</time></trkpt><trkpt lat="30.372270720943167" lon="-5.778195954442909"><ele>735.0</ele><time>2026-03-25T07:41:09.001Z</time></trkpt><trkpt lat="30.37230459017479" lon="-5.778057966080452"><ele>735.0</ele><time>2026-03-25T07:41:10.001Z</time></trkpt><trkpt lat="30.372335715720656" lon="-5.7779200342576384"><ele>735.0</ele><time>2026-03-25T07:41:11.001Z</time></trkpt><trkpt lat="30.372372964189555" lon="-5.777781681075467"><ele>735.0</ele><time>2026-03-25T07:41:12.001Z</time></trkpt><trkpt lat="30.3724018109703" lon="-5.777644141158387"><ele>735.0</ele><time>2026-03-25T07:41:13.001Z</time></trkpt><trkpt lat="30.37243279014729" lon="-5.777510386895921"><ele>735.25</ele><time>2026-03-25T07:41:14.001Z</time></trkpt><trkpt lat="30.37246487152455" lon="-5.777379100119585"><ele>735.5</ele><time>2026-03-25T07:41:15.001Z</time></trkpt><trkpt lat="30.37249296275001" lon="-5.777253863261488"><ele>735.75</ele><time>2026-03-25T07:41:16.001Z</time></trkpt><trkpt lat="30.372520355743525" lon="-5.777129099393624"><ele>736.0</ele><time>2026-03-25T07:41:17.001Z</time></trkpt><trkpt lat="30.37254635402525" lon="-5.77700168271852"><ele>736.0</ele><time>2026-03-25T07:41:18.001Z</time></trkpt><trkpt lat="30.372568883296942" lon="-5.776873223658653"><ele>736.0</ele><time>2026-03-25T07:41:19.001Z</time></trkpt><trkpt lat="30.372600687716943" lon="-5.776721287846749"><ele>736.0</ele><time>2026-03-25T07:41:20.001Z</time></trkpt><trkpt lat="30.372641252536713" lon="-5.776541950100639"><ele>736.0</ele><time>2026-03-25T07:41:21.001Z</time></trkpt><trkpt lat="30.372683766322602" lon="-5.776338699297843"><ele>735.0</ele><time>2026-03-25T07:41:22.001Z</time></trkpt><trkpt lat="30.372724420013473" lon="-5.776146631573106"><ele>734.0</ele><time>2026-03-25T07:41:23.001Z</time></trkpt><trkpt lat="30.372760626079046" lon="-5.775962215304095"><ele>733.0</ele><time>2026-03-25T07:41:24.001Z</time></trkpt><trkpt lat="30.37279630944439" lon="-5.7757614350421305"><ele>733.0</ele><time>2026-03-25T07:41:25.001Z</time></trkpt><trkpt lat="30.372837930549714" lon="-5.775523971085253"><ele>733.0</ele><time>2026-03-25T07:41:26.001Z</time></trkpt><trkpt lat="30.37287798207218" lon="-5.775256771636147"><ele>733.0</ele><time>2026-03-25T07:41:27.001Z</time></trkpt><trkpt lat="30.37292055224453" lon="-5.774976603966413"><ele>733.0</ele><time>2026-03-25T07:41:28.001Z</time></trkpt><trkpt lat="30.372962044304817" lon="-5.774723051328415"><ele>733.0</ele><time>2026-03-25T07:41:29.001Z</time></trkpt><trkpt lat="30.37299653959048" lon="-5.774488949711285"><ele>733.0</ele><time>2026-03-25T07:41:30.001Z</time></trkpt><trkpt lat="30.373040595243516" lon="-5.774254737695966"><ele>732.6666666666667</ele><time>2026-03-25T07:41:31.001Z</time></trkpt><trkpt lat="30.373089298692022" lon="-5.774036869262351"><ele>732.3333333333334</ele><time>2026-03-25T07:41:32.001Z</time></trkpt><trkpt lat="30.373140208280233" lon="-5.77382790274837"><ele>732.0</ele><time>2026-03-25T07:41:33.001Z</time></trkpt><trkpt lat="30.373189502440876" lon="-5.7736617836681035"><ele>732.0</ele><time>2026-03-25T07:41:34.001Z</time></trkpt><trkpt lat="30.37323241637719" lon="-5.7735278469534235"><ele>732.0</ele><time>2026-03-25T07:41:35.001Z</time></trkpt><trkpt lat="30.373262483653107" lon="-5.773394659012547"><ele>732.0</ele><time>2026-03-25T07:41:36.001Z</time></trkpt><trkpt lat="30.373279676629142" lon="-5.773248570373937"><ele>732.0</ele><time>2026-03-25T07:41:37.001Z</time></trkpt><trkpt lat="30.37329478490415" lon="-5.773094756745183"><ele>731.5</ele><time>2026-03-25T07:41:38.001Z</time></trkpt><trkpt lat="30.37330248026322" lon="-5.772950104123227"><ele>731.0</ele><time>2026-03-25T07:41:39.001Z</time></trkpt><trkpt lat="30.373313814816324" lon="-5.772784150561234"><ele>730.5</ele><time>2026-03-25T07:41:40.001Z</time></trkpt><trkpt lat="30.373322768370237" lon="-5.772631425599069"><ele>730.0</ele><time>2026-03-25T07:41:41.001Z</time></trkpt><trkpt lat="30.37333747818361" lon="-5.77248306591644"><ele>730.0</ele><time>2026-03-25T07:41:42.001Z</time></trkpt><trkpt lat="30.37335839382984" lon="-5.772331819937174"><ele>730.0</ele><time>2026-03-25T07:41:43.001Z</time></trkpt><trkpt lat="30.37337980662826" lon="-5.772178156245138"><ele>730.0</ele><time>2026-03-25T07:41:44.001Z</time></trkpt><trkpt lat="30.373403259088334" lon="-5.772039357164781"><ele>730.0</ele><time>2026-03-25T07:41:45.001Z</time></trkpt><trkpt lat="30.373428363493833" lon="-5.7719003789478345"><ele>730.2</ele><time>2026-03-25T07:41:46.002Z</time></trkpt><trkpt lat="30.373454906834116" lon="-5.771771851623949"><ele>730.4</ele><time>2026-03-25T07:41:47.002Z</time></trkpt><trkpt lat="30.373483404706143" lon="-5.771657524001464"><ele>730.5999999999999</ele><time>2026-03-25T07:41:48.002Z</time></trkpt><trkpt lat="30.373514251714003" lon="-5.771562854708778"><ele>730.8</ele><time>2026-03-25T07:41:49.002Z</time></trkpt><trkpt lat="30.37354361146512" lon="-5.771452487734745"><ele>731.0</ele><time>2026-03-25T07:41:50.002Z</time></trkpt><trkpt lat="30.37356604168941" lon="-5.771340362742985"><ele>731.0</ele><time>2026-03-25T07:41:51.002Z</time></trkpt><trkpt lat="30.373576075288653" lon="-5.771222137820418"><ele>731.0</ele><time>2026-03-25T07:41:52.002Z</time></trkpt><trkpt lat="30.373588127978156" lon="-5.771112291474763"><ele>731.0</ele><time>2026-03-25T07:41:53.001Z</time></trkpt><trkpt lat="30.37359808728483" lon="-5.771010165534766"><ele>731.0</ele><time>2026-03-25T07:41:54.001Z</time></trkpt><trkpt lat="30.37360176357062" lon="-5.7709107571842075"><ele>731.0</ele><time>2026-03-25T07:41:55.002Z</time></trkpt><trkpt lat="30.373603880877674" lon="-5.770803128865202"><ele>730.75</ele><time>2026-03-25T07:41:56.001Z</time></trkpt><trkpt lat="30.3736146210143" lon="-5.770696649675214"><ele>730.5</ele><time>2026-03-25T07:41:57.001Z</time></trkpt><trkpt lat="30.373630966148948" lon="-5.770569752725291"><ele>730.25</ele><time>2026-03-25T07:41:58.001Z</time></trkpt><trkpt lat="30.37366171222545" lon="-5.770408840656957"><ele>730.0</ele><time>2026-03-25T07:41:59.001Z</time></trkpt><trkpt lat="30.37368259197313" lon="-5.770277992368052"><ele>730.2</ele><time>2026-03-25T07:42:00.001Z</time></trkpt><trkpt lat="30.373696267604565" lon="-5.770143188642509"><ele>730.4</ele><time>2026-03-25T07:42:01.001Z</time></trkpt><trkpt lat="30.373699867835814" lon="-5.77003483052307"><ele>730.5999999999999</ele><time>2026-03-25T07:42:02.001Z</time></trkpt><trkpt lat="30.373691361466893" lon="-5.769925221946461"><ele>730.8</ele><time>2026-03-25T07:42:03.001Z</time></trkpt><trkpt lat="30.373681187275373" lon="-5.7698092295220995"><ele>731.0</ele><time>2026-03-25T07:42:04.001Z</time></trkpt><trkpt lat="30.373670132597894" lon="-5.769694942004494"><ele>731.0</ele><time>2026-03-25T07:42:05.001Z</time></trkpt><trkpt lat="30.373656318136486" lon="-5.769587792693396"><ele>731.0</ele><time>2026-03-25T07:42:06.001Z</time></trkpt><trkpt lat="30.373648825358778" lon="-5.769468723096254"><ele>731.0</ele><time>2026-03-25T07:42:07.001Z</time></trkpt><trkpt lat="30.3736397776262" lon="-5.769360977816435"><ele>731.0</ele><time>2026-03-25T07:42:08.001Z</time></trkpt><trkpt lat="30.373631220417426" lon="-5.769265156444017"><ele>731.0</ele><time>2026-03-25T07:42:09.001Z</time></trkpt><trkpt lat="30.373619934503633" lon="-5.769169964827825"><ele>730.5999999999999</ele><time>2026-03-25T07:42:10.001Z</time></trkpt><trkpt lat="30.373608170873688" lon="-5.769086463923565"><ele>730.2</ele><time>2026-03-25T07:42:11.001Z</time></trkpt><trkpt lat="30.373602896164964" lon="-5.769011232907472"><ele>729.8</ele><time>2026-03-25T07:42:12.001Z</time></trkpt><trkpt lat="30.373617999351243" lon="-5.768873036273704"><ele>729.4000000000001</ele><time>2026-03-25T07:42:14.001Z</time></trkpt><trkpt lat="30.37363926071817" lon="-5.768801165954937"><ele>729.0</ele><time>2026-03-25T07:42:15.001Z</time></trkpt><trkpt lat="30.373726326436913" lon="-5.768676939569353"><ele>729.0</ele><time>2026-03-25T07:42:17.001Z</time></trkpt><trkpt lat="30.373796642494206" lon="-5.768602897792214"><ele>729.0</ele><time>2026-03-25T07:42:18.001Z</time></trkpt><trkpt lat="30.373868336119763" lon="-5.768524499240639"><ele>729.0</ele><time>2026-03-25T07:42:19.001Z</time></trkpt><trkpt lat="30.373941937826324" lon="-5.768447926094266"><ele>729.0</ele><time>2026-03-25T07:42:20.001Z</time></trkpt><trkpt lat="30.374019544300353" lon="-5.768365346218229"><ele>729.0</ele><time>2026-03-25T07:42:21.001Z</time></trkpt><trkpt lat="30.374107181708318" lon="-5.768271109727256"><ele>730.6666666666666</ele><time>2026-03-25T07:42:22.001Z</time></trkpt><trkpt lat="30.374214098756504" lon="-5.768166768629733"><ele>732.3333333333333</ele><time>2026-03-25T07:42:23.001Z</time></trkpt><trkpt lat="30.37432986409835" lon="-5.768044489998522"><ele>734.0</ele><time>2026-03-25T07:42:24.001Z</time></trkpt><trkpt lat="30.37444859224228" lon="-5.767914198682494"><ele>734.0</ele><time>2026-03-25T07:42:25.001Z</time></trkpt><trkpt lat="30.37455168398324" lon="-5.7678015282838535"><ele>734.0</ele><time>2026-03-25T07:42:26.001Z</time></trkpt><trkpt lat="30.374642501952568" lon="-5.767698859147191"><ele>734.0</ele><time>2026-03-25T07:42:27.001Z</time></trkpt><trkpt lat="30.374723339676713" lon="-5.767610733181004"><ele>734.0</ele><time>2026-03-25T07:42:28.001Z</time></trkpt><trkpt lat="30.374804831502438" lon="-5.767525181923494"><ele>734.2</ele><time>2026-03-25T07:42:29.001Z</time></trkpt><trkpt lat="30.37487950036098" lon="-5.767446823730965"><ele>734.4000000000001</ele><time>2026-03-25T07:42:30.001Z</time></trkpt><trkpt lat="30.374968102403766" lon="-5.767368084660062"><ele>734.6</ele><time>2026-03-25T07:42:31.001Z</time></trkpt><trkpt lat="30.375043594118225" lon="-5.767290478306545"><ele>734.8</ele><time>2026-03-25T07:42:32.001Z</time></trkpt><trkpt lat="30.375132987085273" lon="-5.76721154892644"><ele>735.0</ele><time>2026-03-25T07:42:33.001Z</time></trkpt><trkpt lat="30.37522863471338" lon="-5.7671365694948555"><ele>735.0</ele><time>2026-03-25T07:42:34.001Z</time></trkpt><trkpt lat="30.375323110856783" lon="-5.76706985745019"><ele>735.0</ele><time>2026-03-25T07:42:35.001Z</time></trkpt><trkpt lat="30.37542275925038" lon="-5.7669976251095925"><ele>735.0</ele><time>2026-03-25T07:42:36.001Z</time></trkpt><trkpt lat="30.375509884649055" lon="-5.766926074809323"><ele>735.0</ele><time>2026-03-25T07:42:37.001Z</time></trkpt><trkpt lat="30.375611788566935" lon="-5.7668554534367855"><ele>734.8</ele><time>2026-03-25T07:42:38.001Z</time></trkpt><trkpt lat="30.37570265555924" lon="-5.766788222851118"><ele>734.6</ele><time>2026-03-25T07:42:39.001Z</time></trkpt><trkpt lat="30.375793962884305" lon="-5.766714817648966"><ele>734.4000000000001</ele><time>2026-03-25T07:42:40.001Z</time></trkpt><trkpt lat="30.37588197642246" lon="-5.766638170126375"><ele>734.2</ele><time>2026-03-25T07:42:41.001Z</time></trkpt><trkpt lat="30.375958372921037" lon="-5.766566999971207"><ele>734.0</ele><time>2026-03-25T07:42:42.001Z</time></trkpt><trkpt lat="30.376034748220928" lon="-5.766492602616548"><ele>734.0</ele><time>2026-03-25T07:42:43.001Z</time></trkpt><trkpt lat="30.376111069709836" lon="-5.766412018703519"><ele>734.0</ele><time>2026-03-25T07:42:44.001Z</time></trkpt><trkpt lat="30.37618071890031" lon="-5.766328358322034"><ele>734.0</ele><time>2026-03-25T07:42:45.001Z</time></trkpt><trkpt lat="30.376250736604366" lon="-5.766241802904451"><ele>734.0</ele><time>2026-03-25T07:42:46.001Z</time></trkpt><trkpt lat="30.376319546587514" lon="-5.7661580276455755"><ele>734.0</ele><time>2026-03-25T07:42:47.001Z</time></trkpt><trkpt lat="30.37638836205023" lon="-5.7660766078769505"><ele>734.2</ele><time>2026-03-25T07:42:48.001Z</time></trkpt><trkpt lat="30.37645196391911" lon="-5.765990105171808"><ele>734.4000000000001</ele><time>2026-03-25T07:42:49.001Z</time></trkpt><trkpt lat="30.376518322001896" lon="-5.765892551694596"><ele>734.6</ele><time>2026-03-25T07:42:50.001Z</time></trkpt><trkpt lat="30.37658602887375" lon="-5.765792601039697"><ele>734.8</ele><time>2026-03-25T07:42:51.001Z</time></trkpt><trkpt lat="30.376655818096154" lon="-5.76568438937369"><ele>735.0</ele><time>2026-03-25T07:42:52.001Z</time></trkpt><trkpt lat="30.376726644371853" lon="-5.7655683387279195"><ele>735.0</ele><time>2026-03-25T07:42:53.001Z</time></trkpt><trkpt lat="30.3767976480257" lon="-5.7654519487100915"><ele>735.0</ele><time>2026-03-25T07:42:54.001Z</time></trkpt><trkpt lat="30.37687248517018" lon="-5.765339431117515"><ele>735.0</ele><time>2026-03-25T07:42:55.001Z</time></trkpt><trkpt lat="30.37695310200848" lon="-5.765227437668864"><ele>735.0</ele><time>2026-03-25T07:42:56.001Z</time></trkpt><trkpt lat="30.37703687944846" lon="-5.765119105364454"><ele>734.75</ele><time>2026-03-25T07:42:57.001Z</time></trkpt><trkpt lat="30.37711967695182" lon="-5.765013686396961"><ele>734.5</ele><time>2026-03-25T07:42:58.001Z</time></trkpt><trkpt lat="30.37720306456036" lon="-5.764902299786985"><ele>734.25</ele><time>2026-03-25T07:42:59.001Z</time></trkpt><trkpt lat="30.377282667127147" lon="-5.76478915042766"><ele>734.0</ele><time>2026-03-25T07:43:00.001Z</time></trkpt><trkpt lat="30.37737117835209" lon="-5.764676230114955"><ele>734.5</ele><time>2026-03-25T07:43:01.001Z</time></trkpt><trkpt lat="30.37746250464561" lon="-5.764561201534435"><ele>735.0</ele><time>2026-03-25T07:43:02.001Z</time></trkpt><trkpt lat="30.377558231127676" lon="-5.764444725531406"><ele>735.5</ele><time>2026-03-25T07:43:03.001Z</time></trkpt><trkpt lat="30.377650547955295" lon="-5.764325318844265"><ele>736.0</ele><time>2026-03-25T07:43:04.001Z</time></trkpt><trkpt lat="30.37773134504298" lon="-5.764219449553437"><ele>736.25</ele><time>2026-03-25T07:43:05.001Z</time></trkpt><trkpt lat="30.377803194093033" lon="-5.764121295144474"><ele>736.5</ele><time>2026-03-25T07:43:06.001Z</time></trkpt><trkpt lat="30.377877347585198" lon="-5.764012300603252"><ele>736.75</ele><time>2026-03-25T07:43:07.001Z</time></trkpt><trkpt lat="30.37795367397319" lon="-5.7638839092856395"><ele>737.0</ele><time>2026-03-25T07:43:08.001Z</time></trkpt><trkpt lat="30.378033464374063" lon="-5.763747192390815"><ele>737.0</ele><time>2026-03-25T07:43:09.001Z</time></trkpt><trkpt lat="30.378122122079546" lon="-5.763599195386746"><ele>737.0</ele><time>2026-03-25T07:43:10.001Z</time></trkpt><trkpt lat="30.378205794486526" lon="-5.763460245675259"><ele>737.0</ele><time>2026-03-25T07:43:11.001Z</time></trkpt><trkpt lat="30.37828535141295" lon="-5.763331200283989"><ele>737.0</ele><time>2026-03-25T07:43:12.001Z</time></trkpt><trkpt lat="30.378361282920245" lon="-5.7632064366014"><ele>736.75</ele><time>2026-03-25T07:43:13.001Z</time></trkpt><trkpt lat="30.378434402859657" lon="-5.7630822747966395"><ele>736.5</ele><time>2026-03-25T07:43:14.001Z</time></trkpt><trkpt lat="30.37850728326517" lon="-5.762962877160362"><ele>736.25</ele><time>2026-03-25T07:43:15.001Z</time></trkpt><trkpt lat="30.3785788064825" lon="-5.76285209201075"><ele>736.0</ele><time>2026-03-25T07:43:16.001Z</time></trkpt><trkpt lat="30.378646663486435" lon="-5.762748323882448"><ele>736.1999999999999</ele><time>2026-03-25T07:43:17.001Z</time></trkpt><trkpt lat="30.378717046728354" lon="-5.762647308653926"><ele>736.4</ele><time>2026-03-25T07:43:18.001Z</time></trkpt><trkpt lat="30.37878334970652" lon="-5.76255185639236"><ele>736.6</ele><time>2026-03-25T07:43:19.001Z</time></trkpt><trkpt lat="30.378842414969114" lon="-5.762465156311323"><ele>736.8</ele><time>2026-03-25T07:43:20.001Z</time></trkpt><trkpt lat="30.378897873072116" lon="-5.76239846591549"><ele>737.0</ele><time>2026-03-25T07:43:21.001Z</time></trkpt><trkpt lat="30.378958710809005" lon="-5.762313506477902"><ele>737.1666666666666</ele><time>2026-03-25T07:43:23.001Z</time></trkpt><trkpt lat="30.37898580806172" lon="-5.762229384451983"><ele>737.3333333333333</ele><time>2026-03-25T07:43:25.001Z</time></trkpt><trkpt lat="30.378978440253082" lon="-5.762127704324377"><ele>737.5</ele><time>2026-03-25T07:43:27.001Z</time></trkpt><trkpt lat="30.378966925182525" lon="-5.762054415228336"><ele>737.6666666666666</ele><time>2026-03-25T07:43:28.001Z</time></trkpt><trkpt lat="30.378941063433018" lon="-5.761964306726741"><ele>737.8333333333334</ele><time>2026-03-25T07:43:29.001Z</time></trkpt><trkpt lat="30.37891628910568" lon="-5.76186968247285"><ele>738.0</ele><time>2026-03-25T07:43:30.001Z</time></trkpt><trkpt lat="30.378893866907084" lon="-5.761744563277515"><ele>738.0</ele><time>2026-03-25T07:43:31.001Z</time></trkpt><trkpt lat="30.378879782232648" lon="-5.76159777756359"><ele>738.0</ele><time>2026-03-25T07:43:32.001Z</time></trkpt><trkpt lat="30.378875923114787" lon="-5.761471596259841"><ele>738.0</ele><time>2026-03-25T07:43:33.001Z</time></trkpt><trkpt lat="30.378877028352118" lon="-5.76136423604095"><ele>738.0</ele><time>2026-03-25T07:43:34.001Z</time></trkpt><trkpt lat="30.37887708502336" lon="-5.761250119026563"><ele>738.0</ele><time>2026-03-25T07:43:35.001Z</time></trkpt><trkpt lat="30.378877924605614" lon="-5.761144446366794"><ele>738.0</ele><time>2026-03-25T07:43:36.001Z</time></trkpt><trkpt lat="30.378871559519975" lon="-5.761046089488866"><ele>738.0</ele><time>2026-03-25T07:43:37.001Z</time></trkpt><trkpt lat="30.378858856413945" lon="-5.760936089960031"><ele>738.0</ele><time>2026-03-25T07:43:38.001Z</time></trkpt><trkpt lat="30.378849553106782" lon="-5.7608200856399865"><ele>738.0</ele><time>2026-03-25T07:43:39.001Z</time></trkpt><trkpt lat="30.378846617416027" lon="-5.760716191728921"><ele>738.0</ele><time>2026-03-25T07:43:40.001Z</time></trkpt><trkpt lat="30.378843183629577" lon="-5.760617793944225"><ele>737.8</ele><time>2026-03-25T07:43:41.001Z</time></trkpt><trkpt lat="30.3788478459462" lon="-5.760490583826926"><ele>737.5999999999999</ele><time>2026-03-25T07:43:42.001Z</time></trkpt><trkpt lat="30.378848587392184" lon="-5.76037976282512"><ele>737.4000000000001</ele><time>2026-03-25T07:43:43.001Z</time></trkpt><trkpt lat="30.378847687880196" lon="-5.760294875013798"><ele>737.2</ele><time>2026-03-25T07:43:44.001Z</time></trkpt><trkpt lat="30.378850155185855" lon="-5.760152544737246"><ele>737.0</ele><time>2026-03-25T07:43:46.001Z</time></trkpt><trkpt lat="30.37887146766892" lon="-5.760074200340322"><ele>736.8</ele><time>2026-03-25T07:43:47.001Z</time></trkpt><trkpt lat="30.378910194494107" lon="-5.7599871186367375"><ele>736.6</ele><time>2026-03-25T07:43:48.001Z</time></trkpt><trkpt lat="30.378957826293906" lon="-5.759936019476978"><ele>736.4</ele><time>2026-03-25T07:43:49.001Z</time></trkpt><trkpt lat="30.379030408580487" lon="-5.759907413663579"><ele>736.1999999999999</ele><time>2026-03-25T07:43:50.001Z</time></trkpt><trkpt lat="30.379144505523353" lon="-5.7599050680654305"><ele>736.0</ele><time>2026-03-25T07:43:51.001Z</time></trkpt><trkpt lat="30.37927012592196" lon="-5.759906966530356"><ele>736.0</ele><time>2026-03-25T07:43:52.002Z</time></trkpt><trkpt lat="30.379396420024207" lon="-5.759907457727425"><ele>736.0</ele><time>2026-03-25T07:43:53.002Z</time></trkpt><trkpt lat="30.379505070032316" lon="-5.75990946240485"><ele>736.0</ele><time>2026-03-25T07:43:54.002Z</time></trkpt><trkpt lat="30.379600866815327" lon="-5.759902530276736"><ele>736.0</ele><time>2026-03-25T07:43:55.002Z</time></trkpt><trkpt lat="30.379688118133664" lon="-5.759887703066717"><ele>736.0</ele><time>2026-03-25T07:43:56.002Z</time></trkpt><trkpt lat="30.37976659708564" lon="-5.759861500091252"><ele>736.0</ele><time>2026-03-25T07:43:57.002Z</time></trkpt><trkpt lat="30.37983289065222" lon="-5.759836317094259"><ele>736.0</ele><time>2026-03-25T07:43:58.002Z</time></trkpt><trkpt lat="30.37990836580331" lon="-5.759802837760745"><ele>736.0</ele><time>2026-03-25T07:43:59.001Z</time></trkpt><trkpt lat="30.379973290439597" lon="-5.759771550654075"><ele>736.0</ele><time>2026-03-25T07:44:00.001Z</time></trkpt><trkpt lat="30.38006219565218" lon="-5.7597286107120675"><ele>736.0</ele><time>2026-03-25T07:44:01.002Z</time></trkpt><trkpt lat="30.380159914561304" lon="-5.759697753681781"><ele>736.0</ele><time>2026-03-25T07:44:02.001Z</time></trkpt><trkpt lat="30.380283595324755" lon="-5.759730899783168"><ele>736.0</ele><time>2026-03-25T07:44:03.001Z</time></trkpt><trkpt lat="30.380392955746526" lon="-5.7597847849136175"><ele>736.0</ele><time>2026-03-25T07:44:04.002Z</time></trkpt><trkpt lat="30.38048427351832" lon="-5.759795416230193"><ele>736.0</ele><time>2026-03-25T07:44:05.002Z</time></trkpt><trkpt lat="30.380570782618445" lon="-5.759801066189328"><ele>736.0</ele><time>2026-03-25T07:44:06.002Z</time></trkpt><trkpt lat="30.380651019233802" lon="-5.759807998158659"><ele>736.0</ele><time>2026-03-25T07:44:07.002Z</time></trkpt><trkpt lat="30.380731501054562" lon="-5.759807247236541"><ele>736.3333333333334</ele><time>2026-03-25T07:44:08.002Z</time></trkpt><trkpt lat="30.380809373684347" lon="-5.759811652574428"><ele>736.6666666666667</ele><time>2026-03-25T07:44:09.002Z</time></trkpt><trkpt lat="30.380886443390402" lon="-5.759807250733504"><ele>737.0</ele><time>2026-03-25T07:44:10.002Z</time></trkpt><trkpt lat="30.380971543466007" lon="-5.759799891133084"><ele>737.3333333333334</ele><time>2026-03-25T07:44:11.002Z</time></trkpt><trkpt lat="30.381058251771744" lon="-5.759805859627675"><ele>737.6666666666666</ele><time>2026-03-25T07:44:12.002Z</time></trkpt><trkpt lat="30.38114389705192" lon="-5.7597993209610445"><ele>738.0</ele><time>2026-03-25T07:44:13.002Z</time></trkpt><trkpt lat="30.38120739797787" lon="-5.759790507276956"><ele>738.0</ele><time>2026-03-25T07:44:14.002Z</time></trkpt><trkpt lat="30.38127497389452" lon="-5.759790888455514"><ele>738.0</ele><time>2026-03-25T07:44:15.002Z</time></trkpt><trkpt lat="30.381351162711947" lon="-5.759785602046151"><ele>738.0</ele><time>2026-03-25T07:44:16.002Z</time></trkpt><trkpt lat="30.381439778599265" lon="-5.759776740573871"><ele>738.0</ele><time>2026-03-25T07:44:17.002Z</time></trkpt><trkpt lat="30.381526890840743" lon="-5.7597664602236485"><ele>738.0</ele><time>2026-03-25T07:44:18.002Z</time></trkpt><trkpt lat="30.381626611457897" lon="-5.759747732563512"><ele>738.0</ele><time>2026-03-25T07:44:19.002Z</time></trkpt><trkpt lat="30.38173086306724" lon="-5.759720691746912"><ele>738.0</ele><time>2026-03-25T07:44:20.002Z</time></trkpt><trkpt lat="30.38182948630681" lon="-5.759683978395263"><ele>738.0</ele><time>2026-03-25T07:44:21.002Z</time></trkpt><trkpt lat="30.38193814540999" lon="-5.759650176788342"><ele>738.0</ele><time>2026-03-25T07:44:22.002Z</time></trkpt><trkpt lat="30.38204289743971" lon="-5.759605190354346"><ele>738.0</ele><time>2026-03-25T07:44:23.002Z</time></trkpt><trkpt lat="30.382141915010784" lon="-5.7595581970814225"><ele>738.0</ele><time>2026-03-25T07:44:24.002Z</time></trkpt><trkpt lat="30.382245165662585" lon="-5.759500661845405"><ele>738.0</ele><time>2026-03-25T07:44:25.002Z</time></trkpt><trkpt lat="30.382332815234157" lon="-5.759434112153784"><ele>738.0</ele><time>2026-03-25T07:44:26.002Z</time></trkpt><trkpt lat="30.382419575870458" lon="-5.759372652281475"><ele>738.0</ele><time>2026-03-25T07:44:27.002Z</time></trkpt><trkpt lat="30.382514998925668" lon="-5.759309285355406"><ele>738.0</ele><time>2026-03-25T07:44:28.002Z</time></trkpt><trkpt lat="30.38260779311385" lon="-5.759240988556749"><ele>738.0</ele><time>2026-03-25T07:44:29.002Z</time></trkpt><trkpt lat="30.38270187674397" lon="-5.759173730455302"><ele>737.8</ele><time>2026-03-25T07:44:30.002Z</time></trkpt><trkpt lat="30.382802449064684" lon="-5.759100656926519"><ele>737.5999999999999</ele><time>2026-03-25T07:44:31.002Z</time></trkpt><trkpt lat="30.382892373540827" lon="-5.75903453580111"><ele>737.4000000000001</ele><time>2026-03-25T07:44:32.002Z</time></trkpt><trkpt lat="30.382962705175345" lon="-5.758972755762178"><ele>737.2</ele><time>2026-03-25T07:44:33.002Z</time></trkpt><trkpt lat="30.38302221190117" lon="-5.758915742477202"><ele>737.0</ele><time>2026-03-25T07:44:34.002Z</time></trkpt><trkpt lat="30.383071076986827" lon="-5.758858954031644"><ele>737.0000000000001</ele><time>2026-03-25T07:44:35.002Z</time></trkpt><trkpt lat="30.38313050584243" lon="-5.758803491217706"><ele>737.0</ele><time>2026-03-25T07:44:36.002Z</time></trkpt><trkpt lat="30.38319478819582" lon="-5.758752072141729"><ele>737.0</ele><time>2026-03-25T07:44:37.002Z</time></trkpt><trkpt lat="30.383259425830605" lon="-5.758707157853959"><ele>737.0</ele><time>2026-03-25T07:44:38.002Z</time></trkpt><trkpt lat="30.383323459909654" lon="-5.7586654989056125"><ele>737.0</ele><time>2026-03-25T07:44:39.002Z</time></trkpt><trkpt lat="30.3833797448397" lon="-5.7586206738990695"><ele>737.0000000000001</ele><time>2026-03-25T07:44:40.002Z</time></trkpt><trkpt lat="30.38343122603561" lon="-5.75857445640642"><ele>737.0</ele><time>2026-03-25T07:44:41.002Z</time></trkpt><trkpt lat="30.383514605649193" lon="-5.75843478641362"><ele>736.8333333333333</ele><time>2026-03-25T07:44:43.002Z</time></trkpt><trkpt lat="30.38355110975314" lon="-5.758347983674815"><ele>736.6666666666666</ele><time>2026-03-25T07:44:44.002Z</time></trkpt><trkpt lat="30.383573865326763" lon="-5.758256650597402"><ele>736.5</ele><time>2026-03-25T07:44:45.002Z</time></trkpt><trkpt lat="30.38359791489271" lon="-5.758167169178521"><ele>736.3333333333334</ele><time>2026-03-25T07:44:46.002Z</time></trkpt><trkpt lat="30.383619445717247" lon="-5.758072372346807"><ele>736.1666666666667</ele><time>2026-03-25T07:44:47.002Z</time></trkpt><trkpt lat="30.383647015776187" lon="-5.757964303540244"><ele>736.0</ele><time>2026-03-25T07:44:48.002Z</time></trkpt><trkpt lat="30.383680489635868" lon="-5.757873363414971"><ele>736.0</ele><time>2026-03-25T07:44:49.002Z</time></trkpt><trkpt lat="30.383712809672083" lon="-5.757792510111226"><ele>736.0</ele><time>2026-03-25T07:44:50.002Z</time></trkpt><trkpt lat="30.383738205157133" lon="-5.757705867010714"><ele>736.0</ele><time>2026-03-25T07:44:51.002Z</time></trkpt><trkpt lat="30.38376224054499" lon="-5.757620548049411"><ele>736.0</ele><time>2026-03-25T07:44:52.002Z</time></trkpt><trkpt lat="30.38378231788053" lon="-5.757533807851189"><ele>736.0</ele><time>2026-03-25T07:44:53.002Z</time></trkpt><trkpt lat="30.38380817188922" lon="-5.757448212501175"><ele>736.0</ele><time>2026-03-25T07:44:54.002Z</time></trkpt><trkpt lat="30.383834615140668" lon="-5.757354345456101"><ele>736.1666666666667</ele><time>2026-03-25T07:44:55.002Z</time></trkpt><trkpt lat="30.383856025718053" lon="-5.757260153287951"><ele>736.3333333333334</ele><time>2026-03-25T07:44:56.002Z</time></trkpt><trkpt lat="30.383872657117717" lon="-5.757163945470205"><ele>736.5</ele><time>2026-03-25T07:44:57.002Z</time></trkpt><trkpt lat="30.38388520318948" lon="-5.75706473270329"><ele>736.6666666666666</ele><time>2026-03-25T07:44:58.002Z</time></trkpt><trkpt lat="30.383901419367756" lon="-5.756970510468444"><ele>736.8333333333333</ele><time>2026-03-25T07:44:59.002Z</time></trkpt><trkpt lat="30.383916340232084" lon="-5.756884730762364"><ele>737.0</ele><time>2026-03-25T07:45:00.002Z</time></trkpt><trkpt lat="30.383939863776504" lon="-5.756794675695666"><ele>736.6666666666666</ele><time>2026-03-25T07:45:01.002Z</time></trkpt><trkpt lat="30.383966385649845" lon="-5.756715654099414"><ele>736.3333333333333</ele><time>2026-03-25T07:45:02.002Z</time></trkpt><trkpt lat="30.384005469725544" lon="-5.756643921771828"><ele>736.0</ele><time>2026-03-25T07:45:03.002Z</time></trkpt><trkpt lat="30.384059205042295" lon="-5.756574573772966"><ele>735.6666666666666</ele><time>2026-03-25T07:45:04.002Z</time></trkpt><trkpt lat="30.38412284683246" lon="-5.756496439441781"><ele>735.3333333333334</ele><time>2026-03-25T07:45:05.002Z</time></trkpt><trkpt lat="30.384179358356693" lon="-5.756403860081222"><ele>735.0</ele><time>2026-03-25T07:45:06.002Z</time></trkpt><trkpt lat="30.3842233800322" lon="-5.756312807089904"><ele>735.0</ele><time>2026-03-25T07:45:07.002Z</time></trkpt><trkpt lat="30.384271384062963" lon="-5.756218117814991"><ele>735.0</ele><time>2026-03-25T07:45:08.002Z</time></trkpt><trkpt lat="30.38432176969289" lon="-5.756124720387211"><ele>735.0</ele><time>2026-03-25T07:45:09.002Z</time></trkpt><trkpt lat="30.384367657528585" lon="-5.756033682533588"><ele>735.0</ele><time>2026-03-25T07:45:10.002Z</time></trkpt><trkpt lat="30.38441347204855" lon="-5.755956184612779"><ele>735.0</ele><time>2026-03-25T07:45:11.002Z</time></trkpt><trkpt lat="30.38446535571523" lon="-5.755874074694184"><ele>735.5</ele><time>2026-03-25T07:45:12.002Z</time></trkpt><trkpt lat="30.384525259558686" lon="-5.755799350864048"><ele>736.0</ele><time>2026-03-25T07:45:13.002Z</time></trkpt><trkpt lat="30.384591413606746" lon="-5.755729551520265"><ele>736.5</ele><time>2026-03-25T07:45:14.002Z</time></trkpt><trkpt lat="30.38465531231277" lon="-5.755661819226168"><ele>737.0</ele><time>2026-03-25T07:45:15.002Z</time></trkpt><trkpt lat="30.38470870683731" lon="-5.755610320123091"><ele>737.5</ele><time>2026-03-25T07:45:16.002Z</time></trkpt><trkpt lat="30.384774987119076" lon="-5.755554489505843"><ele>738.0</ele><time>2026-03-25T07:45:17.002Z</time></trkpt><trkpt lat="30.384841878892935" lon="-5.755496163538978"><ele>738.0</ele><time>2026-03-25T07:45:18.002Z</time></trkpt><trkpt lat="30.38490894632472" lon="-5.755428167243011"><ele>738.0</ele><time>2026-03-25T07:45:19.002Z</time></trkpt><trkpt lat="30.384958351173672" lon="-5.755374912465284"><ele>738.0</ele><time>2026-03-25T07:45:20.002Z</time></trkpt><trkpt lat="30.385000733894888" lon="-5.75531262260056"><ele>738.0</ele><time>2026-03-25T07:45:21.002Z</time></trkpt><trkpt lat="30.385053090326938" lon="-5.755186010496151"><ele>738.0</ele><time>2026-03-25T07:45:23.002Z</time></trkpt><trkpt lat="30.385093436267415" lon="-5.755063749652402"><ele>738.2</ele><time>2026-03-25T07:45:25.002Z</time></trkpt><trkpt lat="30.3851367495436" lon="-5.754938432847679"><ele>738.4</ele><time>2026-03-25T07:45:27.002Z</time></trkpt><trkpt lat="30.385179278694082" lon="-5.754868632577697"><ele>738.6</ele><time>2026-03-25T07:45:28.002Z</time></trkpt><trkpt lat="30.38522806753893" lon="-5.7547896739834306"><ele>738.8000000000001</ele><time>2026-03-25T07:45:29.002Z</time></trkpt><trkpt lat="30.385287645152385" lon="-5.754698159124263"><ele>739.0</ele><time>2026-03-25T07:45:30.002Z</time></trkpt><trkpt lat="30.385358464987792" lon="-5.754617656196893"><ele>739.0</ele><time>2026-03-25T07:45:31.002Z</time></trkpt><trkpt lat="30.385410926845655" lon="-5.754561257870577"><ele>739.0</ele><time>2026-03-25T07:45:32.002Z</time></trkpt><trkpt lat="30.385462361519135" lon="-5.754508754060577"><ele>739.0</ele><time>2026-03-25T07:45:33.002Z</time></trkpt><trkpt lat="30.385520144561394" lon="-5.754456031086677"><ele>739.0</ele><time>2026-03-25T07:45:34.002Z</time></trkpt><trkpt lat="30.385582624508036" lon="-5.754403424415293"><ele>739.0</ele><time>2026-03-25T07:45:35.002Z</time></trkpt><trkpt lat="30.385654428203257" lon="-5.754344771720063"><ele>739.0</ele><time>2026-03-25T07:45:36.002Z</time></trkpt><trkpt lat="30.385738836341805" lon="-5.75427935018333"><ele>739.6</ele><time>2026-03-25T07:45:37.002Z</time></trkpt><trkpt lat="30.385816228967897" lon="-5.754214493983931"><ele>740.2</ele><time>2026-03-25T07:45:38.002Z</time></trkpt><trkpt lat="30.385897293850604" lon="-5.754162760974062"><ele>740.8000000000001</ele><time>2026-03-25T07:45:39.002Z</time></trkpt><trkpt lat="30.385969149344398" lon="-5.7541209158195405"><ele>741.4000000000001</ele><time>2026-03-25T07:45:40.002Z</time></trkpt><trkpt lat="30.386045223830955" lon="-5.754086630130222"><ele>742.0</ele><time>2026-03-25T07:45:41.002Z</time></trkpt><trkpt lat="30.38614158105317" lon="-5.7540567657737896"><ele>742.0</ele><time>2026-03-25T07:45:42.002Z</time></trkpt><trkpt lat="30.38622222105036" lon="-5.754027249768694"><ele>742.0</ele><time>2026-03-25T07:45:43.002Z</time></trkpt><trkpt lat="30.386327588433325" lon="-5.753990381787811"><ele>742.0</ele><time>2026-03-25T07:45:44.002Z</time></trkpt><trkpt lat="30.38644171068033" lon="-5.753947622381091"><ele>742.0</ele><time>2026-03-25T07:45:45.002Z</time></trkpt><trkpt lat="30.386534916680727" lon="-5.753899120318653"><ele>742.0</ele><time>2026-03-25T07:45:46.002Z</time></trkpt><trkpt lat="30.386635947428573" lon="-5.753853021742732"><ele>741.5</ele><time>2026-03-25T07:45:47.002Z</time></trkpt><trkpt lat="30.386753245799483" lon="-5.75381773036451"><ele>741.0</ele><time>2026-03-25T07:45:48.002Z</time></trkpt><trkpt lat="30.38687762873933" lon="-5.7537825813250265"><ele>740.5</ele><time>2026-03-25T07:45:49.002Z</time></trkpt><trkpt lat="30.387014016042176" lon="-5.753750658293167"><ele>740.0</ele><time>2026-03-25T07:45:50.002Z</time></trkpt><trkpt lat="30.38713411451033" lon="-5.753718626867139"><ele>739.8</ele><time>2026-03-25T07:45:51.002Z</time></trkpt><trkpt lat="30.387238737596324" lon="-5.75370177356614"><ele>739.6</ele><time>2026-03-25T07:45:52.002Z</time></trkpt><trkpt lat="30.38733121148351" lon="-5.75367719830302"><ele>739.4000000000001</ele><time>2026-03-25T07:45:53.002Z</time></trkpt><trkpt lat="30.3874300242288" lon="-5.753658826106822"><ele>739.2</ele><time>2026-03-25T07:45:54.002Z</time></trkpt><trkpt lat="30.387512249981206" lon="-5.753601692229016"><ele>739.0</ele><time>2026-03-25T07:45:55.002Z</time></trkpt><trkpt lat="30.387588417705118" lon="-5.753572480768148"><ele>739.0</ele><time>2026-03-25T07:45:56.002Z</time></trkpt><trkpt lat="30.387682674197716" lon="-5.753569886700693"><ele>739.0</ele><time>2026-03-25T07:45:57.002Z</time></trkpt><trkpt lat="30.38778462969866" lon="-5.7535437936843605"><ele>739.0</ele><time>2026-03-25T07:45:58.002Z</time></trkpt><trkpt lat="30.38787955374804" lon="-5.753517259762304"><ele>739.0</ele><time>2026-03-25T07:45:59.002Z</time></trkpt><trkpt lat="30.38796575789945" lon="-5.7535027582291915"><ele>739.0</ele><time>2026-03-25T07:46:00.002Z</time></trkpt><trkpt lat="30.388067124087588" lon="-5.753471778788094"><ele>739.4000000000001</ele><time>2026-03-25T07:46:01.002Z</time></trkpt><trkpt lat="30.388163209217275" lon="-5.7534425167055705"><ele>739.8</ele><time>2026-03-25T07:46:02.002Z</time></trkpt><trkpt lat="30.38825248400827" lon="-5.753414373255516"><ele>740.2</ele><time>2026-03-25T07:46:03.002Z</time></trkpt><trkpt lat="30.388339436835246" lon="-5.753381093479579"><ele>740.5999999999999</ele><time>2026-03-25T07:46:04.002Z</time></trkpt><trkpt lat="30.388428462072536" lon="-5.753348937430097"><ele>741.0</ele><time>2026-03-25T07:46:05.001Z</time></trkpt><trkpt lat="30.388503927343525" lon="-5.753319734178017"><ele>741.0</ele><time>2026-03-25T07:46:06.001Z</time></trkpt><trkpt lat="30.38858286083574" lon="-5.75329757812366"><ele>741.0</ele><time>2026-03-25T07:46:07.002Z</time></trkpt><trkpt lat="30.38865594743079" lon="-5.753275651372783"><ele>741.0</ele><time>2026-03-25T07:46:08.002Z</time></trkpt><trkpt lat="30.38872796503185" lon="-5.753253398228563"><ele>741.0</ele><time>2026-03-25T07:46:09.002Z</time></trkpt><trkpt lat="30.388817769109853" lon="-5.753224421395322"><ele>741.0</ele><time>2026-03-25T07:46:10.001Z</time></trkpt><trkpt lat="30.388907865779995" lon="-5.75319943286693"><ele>741.0</ele><time>2026-03-25T07:46:11.001Z</time></trkpt><trkpt lat="30.388985962283606" lon="-5.753173198089035"><ele>740.8333333333334</ele><time>2026-03-25T07:46:12.001Z</time></trkpt><trkpt lat="30.389066878934347" lon="-5.753158714144365"><ele>740.6666666666666</ele><time>2026-03-25T07:46:13.001Z</time></trkpt><trkpt lat="30.389136955499744" lon="-5.75313575641167"><ele>740.5</ele><time>2026-03-25T07:46:14.001Z</time></trkpt><trkpt lat="30.389212832030235" lon="-5.7531038425990255"><ele>740.3333333333333</ele><time>2026-03-25T07:46:15.001Z</time></trkpt><trkpt lat="30.389296483007005" lon="-5.753063538669226"><ele>740.1666666666666</ele><time>2026-03-25T07:46:16.001Z</time></trkpt><trkpt lat="30.389380627140177" lon="-5.753018542763936"><ele>740.0</ele><time>2026-03-25T07:46:17.001Z</time></trkpt><trkpt lat="30.389461443030452" lon="-5.752978281046596"><ele>740.0</ele><time>2026-03-25T07:46:18.001Z</time></trkpt><trkpt lat="30.389537207371472" lon="-5.752923608537086"><ele>740.0</ele><time>2026-03-25T07:46:19.001Z</time></trkpt><trkpt lat="30.389621600176458" lon="-5.7528667547468055"><ele>740.0</ele><time>2026-03-25T07:46:20.001Z</time></trkpt><trkpt lat="30.389717907510356" lon="-5.752822864187333"><ele>740.0</ele><time>2026-03-25T07:46:21.001Z</time></trkpt><trkpt lat="30.389805818581138" lon="-5.752788378331732"><ele>740.0</ele><time>2026-03-25T07:46:22.001Z</time></trkpt><trkpt lat="30.389881020104927" lon="-5.752757006554717"><ele>740.0</ele><time>2026-03-25T07:46:23.001Z</time></trkpt><trkpt lat="30.389943612751487" lon="-5.752729765329933"><ele>740.0</ele><time>2026-03-25T07:46:24.001Z</time></trkpt><trkpt lat="30.390050092407154" lon="-5.752684425406807"><ele>740.0</ele><time>2026-03-25T07:46:26.001Z</time></trkpt><trkpt lat="30.390144539829354" lon="-5.752655014537553"><ele>740.0</ele><time>2026-03-25T07:46:28.001Z</time></trkpt><trkpt lat="30.390208076878817" lon="-5.752644180795147"><ele>740.0</ele><time>2026-03-25T07:46:29.001Z</time></trkpt><trkpt lat="30.390284549550877" lon="-5.752644635950417"><ele>740.0</ele><time>2026-03-25T07:46:30.001Z</time></trkpt><trkpt lat="30.39038644655551" lon="-5.7526475204527445"><ele>740.0</ele><time>2026-03-25T07:46:31.001Z</time></trkpt><trkpt lat="30.390471842320554" lon="-5.7526366614503885"><ele>740.0</ele><time>2026-03-25T07:46:32.001Z</time></trkpt><trkpt lat="30.3905669420968" lon="-5.752618158277073"><ele>740.0</ele><time>2026-03-25T07:46:33.001Z</time></trkpt><trkpt lat="30.390667149146964" lon="-5.75259798058797"><ele>740.0</ele><time>2026-03-25T07:46:34.001Z</time></trkpt><trkpt lat="30.390758539892136" lon="-5.752571043001552"><ele>740.0</ele><time>2026-03-25T07:46:35.001Z</time></trkpt><trkpt lat="30.39083004398263" lon="-5.7525306127237545"><ele>740.0</ele><time>2026-03-25T07:46:36.001Z</time></trkpt><trkpt lat="30.390903205638523" lon="-5.752459564269363"><ele>740.0</ele><time>2026-03-25T07:46:37.001Z</time></trkpt><trkpt lat="30.39097541640689" lon="-5.752374928854834"><ele>740.0</ele><time>2026-03-25T07:46:38.001Z</time></trkpt><trkpt lat="30.39103799306354" lon="-5.752318308069254"><ele>740.0</ele><time>2026-03-25T07:46:39.001Z</time></trkpt><trkpt lat="30.391103494209418" lon="-5.752265751809978"><ele>740.0</ele><time>2026-03-25T07:46:40.001Z</time></trkpt><trkpt lat="30.39116535503899" lon="-5.752220654045487"><ele>740.0</ele><time>2026-03-25T07:46:41.001Z</time></trkpt><trkpt lat="30.391227065390815" lon="-5.752172936651655"><ele>740.0</ele><time>2026-03-25T07:46:42.001Z</time></trkpt><trkpt lat="30.391331367075125" lon="-5.75214254992777"><ele>740.0</ele><time>2026-03-25T07:46:44.001Z</time></trkpt><trkpt lat="30.391394276171336" lon="-5.752138023029113"><ele>740.0</ele><time>2026-03-25T07:46:45.001Z</time></trkpt><trkpt lat="30.39149349208534" lon="-5.7521194742418995"><ele>740.0</ele><time>2026-03-25T07:46:47.001Z</time></trkpt><trkpt lat="30.391556652998695" lon="-5.752114339554676"><ele>740.0</ele><time>2026-03-25T07:46:50.001Z</time></trkpt><trkpt lat="30.391626603084656" lon="-5.752056798326007"><ele>740.0</ele><time>2026-03-25T07:47:42.001Z</time></trkpt><trkpt lat="30.391713715466487" lon="-5.7520578985921285"><ele>739.75</ele><time>2026-03-25T07:47:43.001Z</time></trkpt><trkpt lat="30.391823038846272" lon="-5.752061042836551"><ele>739.5</ele><time>2026-03-25T07:47:44.001Z</time></trkpt><trkpt lat="30.391953174746956" lon="-5.752041307453975"><ele>739.25</ele><time>2026-03-25T07:47:45.001Z</time></trkpt><trkpt lat="30.39209954263957" lon="-5.752017865490585"><ele>739.0</ele><time>2026-03-25T07:47:46.001Z</time></trkpt><trkpt lat="30.392241907650625" lon="-5.751985603623979"><ele>738.5</ele><time>2026-03-25T07:47:47.001Z</time></trkpt><trkpt lat="30.392379254491413" lon="-5.751963806262359"><ele>738.0</ele><time>2026-03-25T07:47:48.001Z</time></trkpt><trkpt lat="30.392497432797533" lon="-5.751989333745648"><ele>737.5</ele><time>2026-03-25T07:47:49.001Z</time></trkpt><trkpt lat="30.392605721337485" lon="-5.752038301565816"><ele>737.0</ele><time>2026-03-25T07:47:50.001Z</time></trkpt><trkpt lat="30.392704057511626" lon="-5.752101747925907"><ele>737.0</ele><time>2026-03-25T07:47:51.001Z</time></trkpt><trkpt lat="30.392824131624653" lon="-5.752165893124996"><ele>737.0</ele><time>2026-03-25T07:47:52.001Z</time></trkpt><trkpt lat="30.39291923016944" lon="-5.752250010780301"><ele>737.0</ele><time>2026-03-25T07:47:53.001Z</time></trkpt><trkpt lat="30.39302971895965" lon="-5.752351879712113"><ele>737.0</ele><time>2026-03-25T07:47:54.001Z</time></trkpt><trkpt lat="30.39314231544808" lon="-5.752474288056627"><ele>737.5</ele><time>2026-03-25T07:47:55.001Z</time></trkpt><trkpt lat="30.39323902761221" lon="-5.752581870952763"><ele>738.0</ele><time>2026-03-25T07:47:56.001Z</time></trkpt><trkpt lat="30.393325742288432" lon="-5.752664254990052"><ele>738.5</ele><time>2026-03-25T07:47:57.001Z</time></trkpt><trkpt lat="30.393422658493115" lon="-5.752746692589978"><ele>739.0</ele><time>2026-03-25T07:47:58.001Z</time></trkpt><trkpt lat="30.393544346459603" lon="-5.752825170707917"><ele>739.5</ele><time>2026-03-25T07:47:59.001Z</time></trkpt><trkpt lat="30.39361672433623" lon="-5.7528820557135845"><ele>740.0</ele><time>2026-03-25T07:48:00.001Z</time></trkpt><trkpt lat="30.393676643582676" lon="-5.752943877377407"><ele>740.5</ele><time>2026-03-25T07:48:01.001Z</time></trkpt><trkpt lat="30.39374400076969" lon="-5.7530111673186335"><ele>741.0</ele><time>2026-03-25T07:48:02.001Z</time></trkpt><trkpt lat="30.393780932138984" lon="-5.753082691251745"><ele>741.5</ele><time>2026-03-25T07:48:03.001Z</time></trkpt><trkpt lat="30.393797435001257" lon="-5.7531938893963845"><ele>742.0</ele><time>2026-03-25T07:48:04.002Z</time></trkpt><trkpt lat="30.39379741951868" lon="-5.753309674616346"><ele>742.0</ele><time>2026-03-25T07:48:05.002Z</time></trkpt><trkpt lat="30.393781843578537" lon="-5.753405048516832"><ele>742.0</ele><time>2026-03-25T07:48:06.002Z</time></trkpt><trkpt lat="30.393768794801353" lon="-5.7534804284747"><ele>742.0</ele><time>2026-03-25T07:48:07.003Z</time></trkpt><trkpt lat="30.393778622701763" lon="-5.753632420138432"><ele>742.0</ele><time>2026-03-25T07:48:09.001Z</time></trkpt><trkpt lat="30.393793912567983" lon="-5.753714253682237"><ele>742.0</ele><time>2026-03-25T07:48:10.003Z</time></trkpt><trkpt lat="30.39381887553488" lon="-5.753840939917377"><ele>741.8</ele><time>2026-03-25T07:48:12.002Z</time></trkpt><trkpt lat="30.39382733467144" lon="-5.753932716234122"><ele>741.6</ele><time>2026-03-25T07:48:14.002Z</time></trkpt><trkpt lat="30.393863946420957" lon="-5.754014364242366"><ele>741.4</ele><time>2026-03-25T07:48:16.002Z</time></trkpt><trkpt lat="30.394011095814825" lon="-5.754024864875897"><ele>741.1999999999999</ele><time>2026-03-25T07:48:18.002Z</time></trkpt><trkpt lat="30.394107691997675" lon="-5.753963604734409"><ele>741.0</ele><time>2026-03-25T07:48:19.002Z</time></trkpt><trkpt lat="30.394213840372835" lon="-5.753859125535317"><ele>741.4</ele><time>2026-03-25T07:48:20.002Z</time></trkpt><trkpt lat="30.394316102335953" lon="-5.753761952976383"><ele>741.8</ele><time>2026-03-25T07:48:21.002Z</time></trkpt><trkpt lat="30.394414527746484" lon="-5.75367690319424"><ele>742.1999999999999</ele><time>2026-03-25T07:48:22.002Z</time></trkpt><trkpt lat="30.394504429748434" lon="-5.753597946985664"><ele>742.5999999999999</ele><time>2026-03-25T07:48:23.002Z</time></trkpt><trkpt lat="30.394568759858352" lon="-5.753563017707365"><ele>743.0</ele><time>2026-03-25T07:48:24.002Z</time></trkpt><trkpt lat="30.394658064547144" lon="-5.753598541247868"><ele>743.0</ele><time>2026-03-25T07:48:26.002Z</time></trkpt><trkpt lat="30.39462613139714" lon="-5.75374109617404"><ele>743.0</ele><time>2026-03-25T07:48:28.002Z</time></trkpt><trkpt lat="30.39453553292958" lon="-5.753801953545911"><ele>743.0</ele><time>2026-03-25T07:48:29.002Z</time></trkpt><trkpt lat="30.394413721294754" lon="-5.753870974052188"><ele>743.0</ele><time>2026-03-25T07:48:30.002Z</time></trkpt><trkpt lat="30.39431333608406" lon="-5.7539504995227455"><ele>743.0</ele><time>2026-03-25T07:48:31.002Z</time></trkpt><trkpt lat="30.394256154231567" lon="-5.753995648571505"><ele>743.0</ele><time>2026-03-25T07:48:32.002Z</time></trkpt><trkpt lat="30.394170086122926" lon="-5.754068398078728"><ele>743.0</ele><time>2026-03-25T07:48:34.002Z</time></trkpt><trkpt lat="30.394081243656466" lon="-5.7541557062171975"><ele>743.0</ele><time>2026-03-25T07:48:36.002Z</time></trkpt><trkpt lat="30.39403720558607" lon="-5.754213495830753"><ele>743.0</ele><time>2026-03-25T07:48:37.002Z</time></trkpt><trkpt lat="30.393962772124237" lon="-5.754292605987765"><ele>743.0</ele><time>2026-03-25T07:48:39.002Z</time></trkpt><trkpt lat="30.393897479562618" lon="-5.754349617617552"><ele>743.0</ele><time>2026-03-25T07:49:17.002Z</time></trkpt><trkpt lat="30.393849714277376" lon="-5.754397859898071"><ele>743.0</ele><time>2026-03-25T07:49:18.002Z</time></trkpt><trkpt lat="30.393792748733564" lon="-5.754461245433789"><ele>743.0</ele><time>2026-03-25T07:49:19.002Z</time></trkpt><trkpt lat="30.393736588625938" lon="-5.754542639099607"><ele>743.0</ele><time>2026-03-25T07:49:20.002Z</time></trkpt><trkpt lat="30.39369062659222" lon="-5.754635508266511"><ele>743.0</ele><time>2026-03-25T07:49:21.002Z</time></trkpt><trkpt lat="30.39367422760516" lon="-5.75472886973567"><ele>742.8</ele><time>2026-03-25T07:49:22.002Z</time></trkpt><trkpt lat="30.39368860488177" lon="-5.754833810361862"><ele>742.5999999999999</ele><time>2026-03-25T07:49:23.002Z</time></trkpt><trkpt lat="30.393729838765548" lon="-5.7549614586243685"><ele>742.4000000000001</ele><time>2026-03-25T07:49:24.002Z</time></trkpt><trkpt lat="30.39378677209545" lon="-5.755080897740113"><ele>742.2</ele><time>2026-03-25T07:49:25.002Z</time></trkpt><trkpt lat="30.393850152436627" lon="-5.755199438966404"><ele>742.0</ele><time>2026-03-25T07:49:26.002Z</time></trkpt><trkpt lat="30.393926852067363" lon="-5.755331254559727"><ele>741.5</ele><time>2026-03-25T07:49:27.002Z</time></trkpt><trkpt lat="30.39400795599977" lon="-5.755476699060624"><ele>741.0</ele><time>2026-03-25T07:49:28.002Z</time></trkpt><trkpt lat="30.394090324511932" lon="-5.755625447804355"><ele>740.5</ele><time>2026-03-25T07:49:29.002Z</time></trkpt><trkpt lat="30.394168748900675" lon="-5.7557689267668835"><ele>740.0</ele><time>2026-03-25T07:49:30.002Z</time></trkpt><trkpt lat="30.394245841489756" lon="-5.755930290013205"><ele>739.6666666666666</ele><time>2026-03-25T07:49:31.002Z</time></trkpt><trkpt lat="30.394323701734525" lon="-5.7561014540546465"><ele>739.3333333333334</ele><time>2026-03-25T07:49:32.002Z</time></trkpt><trkpt lat="30.39440588378966" lon="-5.756273618483799"><ele>739.0</ele><time>2026-03-25T07:49:33.002Z</time></trkpt><trkpt lat="30.394487547368595" lon="-5.756440466257787"><ele>739.0</ele><time>2026-03-25T07:49:34.002Z</time></trkpt><trkpt lat="30.39456076050067" lon="-5.7565830009101315"><ele>739.0</ele><time>2026-03-25T07:49:35.002Z</time></trkpt><trkpt lat="30.39463216599511" lon="-5.756683924546046"><ele>739.0</ele><time>2026-03-25T07:49:36.002Z</time></trkpt><trkpt lat="30.394726185253287" lon="-5.756771826847051"><ele>739.0</ele><time>2026-03-25T07:49:37.002Z</time></trkpt><trkpt lat="30.394855876382902" lon="-5.756857528635874"><ele>740.0</ele><time>2026-03-25T07:49:38.002Z</time></trkpt><trkpt lat="30.394999156017313" lon="-5.756924559466131"><ele>741.0</ele><time>2026-03-25T07:49:39.002Z</time></trkpt><trkpt lat="30.395142991158647" lon="-5.757022673047971"><ele>742.0</ele><time>2026-03-25T07:49:40.002Z</time></trkpt><trkpt lat="30.3952835799455" lon="-5.7570892797474125"><ele>742.0</ele><time>2026-03-25T07:49:41.002Z</time></trkpt><trkpt lat="30.39542767743919" lon="-5.757140887441742"><ele>742.0</ele><time>2026-03-25T07:49:42.002Z</time></trkpt><trkpt lat="30.395584548041228" lon="-5.757202372450424"><ele>742.0</ele><time>2026-03-25T07:49:43.002Z</time></trkpt><trkpt lat="30.395744526060863" lon="-5.757266157563532"><ele>742.25</ele><time>2026-03-25T07:49:44.002Z</time></trkpt><trkpt lat="30.395889772188994" lon="-5.7573168801034935"><ele>742.5</ele><time>2026-03-25T07:49:45.002Z</time></trkpt><trkpt lat="30.39601804921475" lon="-5.757375641918444"><ele>742.75</ele><time>2026-03-25T07:49:46.002Z</time></trkpt><trkpt lat="30.396157915888868" lon="-5.757444223922874"><ele>743.0</ele><time>2026-03-25T07:49:47.002Z</time></trkpt><trkpt lat="30.396316466095836" lon="-5.757519909262117"><ele>743.0</ele><time>2026-03-25T07:49:48.002Z</time></trkpt><trkpt lat="30.3964980518886" lon="-5.75762617298197"><ele>743.0</ele><time>2026-03-25T07:49:49.002Z</time></trkpt><trkpt lat="30.39666542408378" lon="-5.757738635174091"><ele>743.0</ele><time>2026-03-25T07:49:50.002Z</time></trkpt><trkpt lat="30.396798292363517" lon="-5.757826002186725"><ele>743.0</ele><time>2026-03-25T07:49:51.002Z</time></trkpt><trkpt lat="30.396915468796546" lon="-5.757878205582293"><ele>743.0</ele><time>2026-03-25T07:49:52.002Z</time></trkpt><trkpt lat="30.39702821809913" lon="-5.757889160461541"><ele>743.0</ele><time>2026-03-25T07:49:53.002Z</time></trkpt><trkpt lat="30.397148304839355" lon="-5.757867604333844"><ele>743.0</ele><time>2026-03-25T07:49:54.002Z</time></trkpt><trkpt lat="30.397275099479206" lon="-5.7578205900893655"><ele>743.0</ele><time>2026-03-25T07:49:55.002Z</time></trkpt><trkpt lat="30.397383307185287" lon="-5.757767048872066"><ele>743.0</ele><time>2026-03-25T07:49:56.002Z</time></trkpt><trkpt lat="30.39746703501237" lon="-5.7577279538896295"><ele>743.0</ele><time>2026-03-25T07:49:57.002Z</time></trkpt><trkpt lat="30.397544363380884" lon="-5.757690900256315"><ele>743.0</ele><time>2026-03-25T07:49:58.002Z</time></trkpt><trkpt lat="30.397616706142646" lon="-5.757665412346958"><ele>743.0</ele><time>2026-03-25T07:49:59.002Z</time></trkpt><trkpt lat="30.397683420320227" lon="-5.757640531559415"><ele>743.0</ele><time>2026-03-25T07:50:00.002Z</time></trkpt><trkpt lat="30.397754223265732" lon="-5.757650431724815"><ele>743.0</ele><time>2026-03-25T07:50:01.002Z</time></trkpt><trkpt lat="30.397826942844535" lon="-5.757685120113285"><ele>743.0</ele><time>2026-03-25T07:50:02.002Z</time></trkpt><trkpt lat="30.397891375758313" lon="-5.757722954225967"><ele>743.0</ele><time>2026-03-25T07:50:03.002Z</time></trkpt><trkpt lat="30.397994395606347" lon="-5.757815401638244"><ele>743.0</ele><time>2026-03-25T07:50:05.002Z</time></trkpt><trkpt lat="30.3980491433445" lon="-5.757859564551026"><ele>743.0</ele><time>2026-03-25T07:50:06.002Z</time></trkpt><trkpt lat="30.398107841725675" lon="-5.7579050138277825"><ele>743.0</ele><time>2026-03-25T07:50:07.002Z</time></trkpt><trkpt lat="30.398168857383233" lon="-5.757951105069116"><ele>743.1428571428572</ele><time>2026-03-25T07:50:08.002Z</time></trkpt><trkpt lat="30.398237656314983" lon="-5.757995564834481"><ele>743.2857142857142</ele><time>2026-03-25T07:50:09.002Z</time></trkpt><trkpt lat="30.398299370974193" lon="-5.758043548966893"><ele>743.4285714285714</ele><time>2026-03-25T07:50:10.002Z</time></trkpt><trkpt lat="30.39835348274673" lon="-5.7580948532364395"><ele>743.5714285714287</ele><time>2026-03-25T07:50:11.002Z</time></trkpt><trkpt lat="30.398404559456623" lon="-5.75814409663248"><ele>743.7142857142858</ele><time>2026-03-25T07:50:12.002Z</time></trkpt><trkpt lat="30.39845067660488" lon="-5.758195041071188"><ele>743.8571428571429</ele><time>2026-03-25T07:50:13.002Z</time></trkpt><trkpt lat="30.39849948142276" lon="-5.758248385320216"><ele>744.0</ele><time>2026-03-25T07:50:14.002Z</time></trkpt><trkpt lat="30.39857692283477" lon="-5.758353019848098"><ele>744.0</ele><time>2026-03-25T07:50:16.003Z</time></trkpt><trkpt lat="30.3986194046639" lon="-5.758429588147217"><ele>744.0</ele><time>2026-03-25T07:50:17.002Z</time></trkpt><trkpt lat="30.398655892922825" lon="-5.758502325309049"><ele>744.0</ele><time>2026-03-25T07:50:18.002Z</time></trkpt><trkpt lat="30.398688155522503" lon="-5.758582927882826"><ele>744.0</ele><time>2026-03-25T07:50:19.003Z</time></trkpt><trkpt lat="30.39872721441824" lon="-5.758669245027016"><ele>744.0</ele><time>2026-03-25T07:50:20.002Z</time></trkpt><trkpt lat="30.398776695531687" lon="-5.758754475570697"><ele>744.0</ele><time>2026-03-25T07:50:21.002Z</time></trkpt><trkpt lat="30.398829829610527" lon="-5.758833236447629"><ele>743.8333333333334</ele><time>2026-03-25T07:50:22.002Z</time></trkpt><trkpt lat="30.39887791431283" lon="-5.75891603075956"><ele>743.6666666666666</ele><time>2026-03-25T07:50:23.002Z</time></trkpt><trkpt lat="30.398926636400354" lon="-5.758992705587705"><ele>743.5</ele><time>2026-03-25T07:50:24.002Z</time></trkpt><trkpt lat="30.398974027493345" lon="-5.759066901854855"><ele>743.3333333333333</ele><time>2026-03-25T07:50:25.002Z</time></trkpt><trkpt lat="30.39902020865944" lon="-5.7591387905242595"><ele>743.1666666666666</ele><time>2026-03-25T07:50:26.002Z</time></trkpt><trkpt lat="30.399068298130576" lon="-5.759208620471004"><ele>743.0</ele><time>2026-03-25T07:50:27.002Z</time></trkpt><trkpt lat="30.399119973290585" lon="-5.759282445856562"><ele>743.0</ele><time>2026-03-25T07:50:28.002Z</time></trkpt><trkpt lat="30.399170967377213" lon="-5.759358748132533"><ele>743.0</ele><time>2026-03-25T07:50:29.002Z</time></trkpt><trkpt lat="30.39923201407781" lon="-5.759421665347999"><ele>743.0</ele><time>2026-03-25T07:50:30.002Z</time></trkpt><trkpt lat="30.39929464815847" lon="-5.759476964827571"><ele>743.0</ele><time>2026-03-25T07:50:31.002Z</time></trkpt><trkpt lat="30.399371709107367" lon="-5.759507712874971"><ele>743.0</ele><time>2026-03-25T07:50:32.002Z</time></trkpt><trkpt lat="30.39945695015569" lon="-5.759533365830433"><ele>743.0</ele><time>2026-03-25T07:50:33.002Z</time></trkpt><trkpt lat="30.39954259687693" lon="-5.759554830869227"><ele>743.0</ele><time>2026-03-25T07:50:34.002Z</time></trkpt><trkpt lat="30.399615794546605" lon="-5.759577934059406"><ele>743.0</ele><time>2026-03-25T07:50:35.002Z</time></trkpt><trkpt lat="30.39970125810315" lon="-5.759608198821223"><ele>743.0</ele><time>2026-03-25T07:50:36.002Z</time></trkpt><trkpt lat="30.399775576873868" lon="-5.759641394995923"><ele>743.0</ele><time>2026-03-25T07:50:37.002Z</time></trkpt><trkpt lat="30.399842297866208" lon="-5.759688019455318"><ele>743.0</ele><time>2026-03-25T07:50:38.002Z</time></trkpt><trkpt lat="30.399901379327023" lon="-5.759739004860655"><ele>743.0</ele><time>2026-03-25T07:50:39.002Z</time></trkpt><trkpt lat="30.3999790772292" lon="-5.759846891601338"><ele>743.0</ele><time>2026-03-25T07:50:41.002Z</time></trkpt><trkpt lat="30.400009882782502" lon="-5.759915681403686"><ele>743.0</ele><time>2026-03-25T07:50:42.002Z</time></trkpt><trkpt lat="30.40003064938924" lon="-5.759991189926816"><ele>743.0</ele><time>2026-03-25T07:50:43.002Z</time></trkpt><trkpt lat="30.400044769943577" lon="-5.760076668163478"><ele>743.0</ele><time>2026-03-25T07:50:44.002Z</time></trkpt><trkpt lat="30.40005934336961" lon="-5.76015392405538"><ele>743.0</ele><time>2026-03-25T07:50:45.002Z</time></trkpt><trkpt lat="30.400083393572928" lon="-5.760227397845245"><ele>743.0</ele><time>2026-03-25T07:50:46.002Z</time></trkpt><trkpt lat="30.400111603095944" lon="-5.760310003717485"><ele>743.0</ele><time>2026-03-25T07:50:47.002Z</time></trkpt><trkpt lat="30.40014980810854" lon="-5.760380232300265"><ele>743.1666666666666</ele><time>2026-03-25T07:50:48.002Z</time></trkpt><trkpt lat="30.400188127249237" lon="-5.760441486088712"><ele>743.3333333333333</ele><time>2026-03-25T07:50:49.002Z</time></trkpt><trkpt lat="30.400259671101768" lon="-5.760551249604036"><ele>743.5</ele><time>2026-03-25T07:50:51.002Z</time></trkpt><trkpt lat="30.400295551100353" lon="-5.760614417994774"><ele>743.6666666666666</ele><time>2026-03-25T07:50:52.002Z</time></trkpt><trkpt lat="30.40032433692012" lon="-5.76068089345028"><ele>743.8333333333334</ele><time>2026-03-25T07:50:53.002Z</time></trkpt><trkpt lat="30.400362832446557" lon="-5.760748833563997"><ele>744.0</ele><time>2026-03-25T07:50:54.002Z</time></trkpt><trkpt lat="30.400411737108893" lon="-5.760819217005281"><ele>744.0</ele><time>2026-03-25T07:50:55.002Z</time></trkpt><trkpt lat="30.400467239299758" lon="-5.76089311927789"><ele>744.0</ele><time>2026-03-25T07:50:56.002Z</time></trkpt><trkpt lat="30.40051626737529" lon="-5.760963166479786"><ele>744.0</ele><time>2026-03-25T07:50:57.002Z</time></trkpt><trkpt lat="30.400566884388162" lon="-5.761037942756649"><ele>744.0</ele><time>2026-03-25T07:50:58.002Z</time></trkpt><trkpt lat="30.400621906134123" lon="-5.761125524431945"><ele>744.0</ele><time>2026-03-25T07:50:59.002Z</time></trkpt><trkpt lat="30.400675359821154" lon="-5.761190514083018"><ele>744.0</ele><time>2026-03-25T07:51:00.002Z</time></trkpt><trkpt lat="30.400729640886595" lon="-5.7612662967141315"><ele>744.0</ele><time>2026-03-25T07:51:01.002Z</time></trkpt><trkpt lat="30.40079386037341" lon="-5.761345970088163"><ele>744.0</ele><time>2026-03-25T07:51:02.002Z</time></trkpt><trkpt lat="30.4008515452158" lon="-5.761418633804938"><ele>744.0</ele><time>2026-03-25T07:51:03.002Z</time></trkpt><trkpt lat="30.400916586261314" lon="-5.761515542448991"><ele>744.0</ele><time>2026-03-25T07:51:04.002Z</time></trkpt><trkpt lat="30.4009754480066" lon="-5.761603761747274"><ele>744.0</ele><time>2026-03-25T07:51:05.002Z</time></trkpt><trkpt lat="30.401037658570214" lon="-5.761691273326193"><ele>744.0</ele><time>2026-03-25T07:51:06.002Z</time></trkpt><trkpt lat="30.401095946453403" lon="-5.761778204846884"><ele>744.0</ele><time>2026-03-25T07:51:07.002Z</time></trkpt><trkpt lat="30.401138774056747" lon="-5.761846213741305"><ele>744.0</ele><time>2026-03-25T07:51:08.002Z</time></trkpt><trkpt lat="30.40120212043907" lon="-5.761959721559487"><ele>744.0</ele><time>2026-03-25T07:51:10.002Z</time></trkpt><trkpt lat="30.40125628253313" lon="-5.762062656014943"><ele>744.0</ele><time>2026-03-25T07:51:12.002Z</time></trkpt><trkpt lat="30.401300801837674" lon="-5.762145801870997"><ele>744.2</ele><time>2026-03-25T07:51:13.002Z</time></trkpt><trkpt lat="30.401348947945994" lon="-5.762240650950878"><ele>744.4000000000001</ele><time>2026-03-25T07:51:14.002Z</time></trkpt><trkpt lat="30.401399496142062" lon="-5.762338577265597"><ele>744.6</ele><time>2026-03-25T07:51:15.002Z</time></trkpt><trkpt lat="30.40144731228446" lon="-5.762435823973006"><ele>744.8</ele><time>2026-03-25T07:51:16.002Z</time></trkpt><trkpt lat="30.40149526837517" lon="-5.762537579072165"><ele>745.0</ele><time>2026-03-25T07:51:17.002Z</time></trkpt><trkpt lat="30.401545926734954" lon="-5.76263778299373"><ele>745.4</ele><time>2026-03-25T07:51:18.002Z</time></trkpt><trkpt lat="30.401602295993833" lon="-5.76274216756774"><ele>745.8</ele><time>2026-03-25T07:51:19.002Z</time></trkpt><trkpt lat="30.4016498605689" lon="-5.762833605440898"><ele>746.2</ele><time>2026-03-25T07:51:20.002Z</time></trkpt><trkpt lat="30.401711100103757" lon="-5.762939633374441"><ele>746.6</ele><time>2026-03-25T07:51:21.002Z</time></trkpt><trkpt lat="30.4017820076782" lon="-5.763052082583723"><ele>747.0</ele><time>2026-03-25T07:51:22.002Z</time></trkpt><trkpt lat="30.401855938982067" lon="-5.763161537023234"><ele>747.0</ele><time>2026-03-25T07:51:23.002Z</time></trkpt><trkpt lat="30.40193230709807" lon="-5.763270252650077"><ele>747.0</ele><time>2026-03-25T07:51:24.002Z</time></trkpt><trkpt lat="30.402018089921107" lon="-5.7633756563295515"><ele>747.0</ele><time>2026-03-25T07:51:25.002Z</time></trkpt><trkpt lat="30.402105392216754" lon="-5.763476100876465"><ele>747.0</ele><time>2026-03-25T07:51:26.002Z</time></trkpt><trkpt lat="30.40220390509299" lon="-5.763571991292234"><ele>746.0</ele><time>2026-03-25T07:51:27.002Z</time></trkpt><trkpt lat="30.402311124066234" lon="-5.763672137261701"><ele>745.0</ele><time>2026-03-25T07:51:28.002Z</time></trkpt><trkpt lat="30.402429627069143" lon="-5.763794712080768"><ele>744.0</ele><time>2026-03-25T07:51:29.002Z</time></trkpt><trkpt lat="30.402564172654646" lon="-5.7639323469922"><ele>744.0</ele><time>2026-03-25T07:51:30.002Z</time></trkpt><trkpt lat="30.40269734144267" lon="-5.764075224860127"><ele>744.0</ele><time>2026-03-25T07:51:31.002Z</time></trkpt><trkpt lat="30.40280954931887" lon="-5.764189550999313"><ele>744.0</ele><time>2026-03-25T07:51:32.002Z</time></trkpt><trkpt lat="30.402900127275306" lon="-5.7642862152344145"><ele>743.5</ele><time>2026-03-25T07:51:33.002Z</time></trkpt><trkpt lat="30.40299235587292" lon="-5.764377820074967"><ele>743.0</ele><time>2026-03-25T07:51:34.002Z</time></trkpt><trkpt lat="30.403082774157184" lon="-5.764470728739525"><ele>742.5</ele><time>2026-03-25T07:51:35.002Z</time></trkpt><trkpt lat="30.403173713991105" lon="-5.764563790557085"><ele>742.0</ele><time>2026-03-25T07:51:36.002Z</time></trkpt><trkpt lat="30.403264337113693" lon="-5.764656856711612"><ele>741.75</ele><time>2026-03-25T07:51:37.002Z</time></trkpt><trkpt lat="30.403355848121954" lon="-5.76475963211534"><ele>741.5</ele><time>2026-03-25T07:51:38.002Z</time></trkpt><trkpt lat="30.403461526259132" lon="-5.764879617297268"><ele>741.25</ele><time>2026-03-25T07:51:39.002Z</time></trkpt><trkpt lat="30.40354543695666" lon="-5.764984494918856"><ele>741.0</ele><time>2026-03-25T07:51:40.002Z</time></trkpt><trkpt lat="30.40360852445067" lon="-5.765057467360793"><ele>741.0</ele><time>2026-03-25T07:51:41.002Z</time></trkpt><trkpt lat="30.40365785179831" lon="-5.765117473668974"><ele>741.0</ele><time>2026-03-25T07:51:42.002Z</time></trkpt><trkpt lat="30.403727424059344" lon="-5.765211090997223"><ele>741.0</ele><time>2026-03-25T07:51:44.002Z</time></trkpt><trkpt lat="30.403789684961083" lon="-5.765267822774459"><ele>741.0</ele><time>2026-03-25T07:51:47.002Z</time></trkpt><trkpt lat="30.40387285437287" lon="-5.7652974381560185"><ele>741.0</ele><time>2026-03-25T07:51:50.002Z</time></trkpt><trkpt lat="30.403930665462408" lon="-5.765263367856301"><ele>741.0</ele><time>2026-03-25T07:51:53.002Z</time></trkpt><trkpt lat="30.40390517148649" lon="-5.76534526220922"><ele>740.8</ele><time>2026-03-25T07:53:10.002Z</time></trkpt><trkpt lat="30.40382529179966" lon="-5.765420990887691"><ele>740.5999999999999</ele><time>2026-03-25T07:53:11.002Z</time></trkpt><trkpt lat="30.403744699388675" lon="-5.765501543836158"><ele>740.4</ele><time>2026-03-25T07:53:12.002Z</time></trkpt><trkpt lat="30.403686122649244" lon="-5.7655819905599754"><ele>740.2</ele><time>2026-03-25T07:53:13.002Z</time></trkpt><trkpt lat="30.403678132693045" lon="-5.765686264960103"><ele>740.0</ele><time>2026-03-25T07:53:14.002Z</time></trkpt><trkpt lat="30.40362436606789" lon="-5.765756110679928"><ele>740.0</ele><time>2026-03-25T07:53:15.002Z</time></trkpt><trkpt lat="30.40357142541823" lon="-5.765800489277675"><ele>740.0</ele><time>2026-03-25T07:53:16.002Z</time></trkpt><trkpt lat="30.403566708082547" lon="-5.765698671684515"><ele>740.0</ele><time>2026-03-25T07:53:20.002Z</time></trkpt><trkpt lat="30.403621870439412" lon="-5.765627924458858"><ele>740.0</ele><time>2026-03-25T07:53:21.002Z</time></trkpt><trkpt lat="30.40370346988314" lon="-5.765545583522188"><ele>740.0</ele><time>2026-03-25T07:53:22.002Z</time></trkpt><trkpt lat="30.403791016756696" lon="-5.765453725630564"><ele>740.0</ele><time>2026-03-25T07:53:23.002Z</time></trkpt><trkpt lat="30.403882303389775" lon="-5.765326748616242"><ele>740.0</ele><time>2026-03-25T07:53:24.002Z</time></trkpt><trkpt lat="30.40398708002545" lon="-5.765184904540982"><ele>740.0</ele><time>2026-03-25T07:53:25.002Z</time></trkpt><trkpt lat="30.40409652635569" lon="-5.765031839290503"><ele>740.0</ele><time>2026-03-25T07:53:26.002Z</time></trkpt><trkpt lat="30.404209470283146" lon="-5.7648814576061875"><ele>740.0</ele><time>2026-03-25T07:53:27.002Z</time></trkpt><trkpt lat="30.40432063652113" lon="-5.764736345172234"><ele>740.0</ele><time>2026-03-25T07:53:28.002Z</time></trkpt><trkpt lat="30.40443139418771" lon="-5.7645906234163276"><ele>740.0</ele><time>2026-03-25T07:53:29.002Z</time></trkpt><trkpt lat="30.404533209000256" lon="-5.764445242118713"><ele>740.0</ele><time>2026-03-25T07:53:30.002Z</time></trkpt><trkpt lat="30.404642500731402" lon="-5.7643144548380665"><ele>740.0</ele><time>2026-03-25T07:53:31.002Z</time></trkpt><trkpt lat="30.40474745679483" lon="-5.7641841184563"><ele>741.0</ele><time>2026-03-25T07:53:32.002Z</time></trkpt><trkpt lat="30.404848671903768" lon="-5.764038846226691"><ele>742.0</ele><time>2026-03-25T07:53:33.002Z</time></trkpt><trkpt lat="30.404963027383708" lon="-5.7638811038783135"><ele>743.0</ele><time>2026-03-25T07:53:34.002Z</time></trkpt><trkpt lat="30.405080302710413" lon="-5.763722290482364"><ele>743.0</ele><time>2026-03-25T07:53:35.002Z</time></trkpt><trkpt lat="30.405200302069574" lon="-5.7635657074232896"><ele>743.0</ele><time>2026-03-25T07:53:36.002Z</time></trkpt><trkpt lat="30.40531889406717" lon="-5.763407438461906"><ele>743.0</ele><time>2026-03-25T07:53:37.002Z</time></trkpt><trkpt lat="30.40543479872012" lon="-5.7632523107663065"><ele>743.6666666666666</ele><time>2026-03-25T07:53:38.002Z</time></trkpt><trkpt lat="30.40554820973717" lon="-5.763098569250289"><ele>744.3333333333334</ele><time>2026-03-25T07:53:39.002Z</time></trkpt><trkpt lat="30.405672346550162" lon="-5.762945290457303"><ele>745.0</ele><time>2026-03-25T07:53:40.002Z</time></trkpt><trkpt lat="30.40578364613291" lon="-5.7627889059828865"><ele>746.0</ele><time>2026-03-25T07:53:41.002Z</time></trkpt><trkpt lat="30.405905098771587" lon="-5.762635087454957"><ele>747.0</ele><time>2026-03-25T07:53:42.002Z</time></trkpt><trkpt lat="30.406020057273963" lon="-5.762483876439491"><ele>748.0</ele><time>2026-03-25T07:53:43.002Z</time></trkpt><trkpt lat="30.406134768279582" lon="-5.762331616724277"><ele>748.0</ele><time>2026-03-25T07:53:44.002Z</time></trkpt><trkpt lat="30.40624848115095" lon="-5.762178367378973"><ele>748.0</ele><time>2026-03-25T07:53:45.002Z</time></trkpt><trkpt lat="30.406365245785988" lon="-5.762023627762113"><ele>748.0</ele><time>2026-03-25T07:53:46.002Z</time></trkpt><trkpt lat="30.406481066078495" lon="-5.761870790236186"><ele>747.3333333333334</ele><time>2026-03-25T07:53:47.002Z</time></trkpt><trkpt lat="30.406598289150217" lon="-5.761716535428043"><ele>746.6666666666666</ele><time>2026-03-25T07:53:48.002Z</time></trkpt><trkpt lat="30.40671724166181" lon="-5.761561904752348"><ele>746.0</ele><time>2026-03-25T07:53:49.002Z</time></trkpt><trkpt lat="30.4068328833273" lon="-5.761407381751397"><ele>746.0</ele><time>2026-03-25T07:53:50.002Z</time></trkpt><trkpt lat="30.406950822315384" lon="-5.7612516668980405"><ele>746.0</ele><time>2026-03-25T07:53:51.002Z</time></trkpt><trkpt lat="30.407064923342077" lon="-5.76109460271478"><ele>746.0</ele><time>2026-03-25T07:53:52.002Z</time></trkpt><trkpt lat="30.407185066909346" lon="-5.760938949011584"><ele>744.3333333333333</ele><time>2026-03-25T07:53:53.002Z</time></trkpt><trkpt lat="30.407302493614946" lon="-5.760787476397692"><ele>742.6666666666666</ele><time>2026-03-25T07:53:54.002Z</time></trkpt><trkpt lat="30.4074191793887" lon="-5.760633308121058"><ele>741.0</ele><time>2026-03-25T07:53:55.002Z</time></trkpt><trkpt lat="30.407534978814976" lon="-5.760479447630079"><ele>741.0</ele><time>2026-03-25T07:53:56.002Z</time></trkpt><trkpt lat="30.407649186797393" lon="-5.7603294903737"><ele>741.0</ele><time>2026-03-25T07:53:57.002Z</time></trkpt><trkpt lat="30.407766256739247" lon="-5.76017388641471"><ele>741.0</ele><time>2026-03-25T07:53:58.002Z</time></trkpt><trkpt lat="30.407883787621497" lon="-5.760019918323237"><ele>742.0</ele><time>2026-03-25T07:53:59.002Z</time></trkpt><trkpt lat="30.407999381079915" lon="-5.759863977742771"><ele>743.0</ele><time>2026-03-25T07:54:00.002Z</time></trkpt><trkpt lat="30.40811879688272" lon="-5.759707569643953"><ele>744.0</ele><time>2026-03-25T07:54:01.002Z</time></trkpt><trkpt lat="30.408233766138107" lon="-5.759550739252167"><ele>744.0</ele><time>2026-03-25T07:54:02.002Z</time></trkpt><trkpt lat="30.408353079540735" lon="-5.759392154701172"><ele>744.0</ele><time>2026-03-25T07:54:03.002Z</time></trkpt><trkpt lat="30.40847216983819" lon="-5.759234358255444"><ele>744.0</ele><time>2026-03-25T07:54:04.002Z</time></trkpt><trkpt lat="30.408593492061776" lon="-5.759076319639202"><ele>744.3333333333334</ele><time>2026-03-25T07:54:05.002Z</time></trkpt><trkpt lat="30.40871276430815" lon="-5.758919790525247"><ele>744.6666666666667</ele><time>2026-03-25T07:54:06.002Z</time></trkpt><trkpt lat="30.408832607136162" lon="-5.758762250127299"><ele>745.0</ele><time>2026-03-25T07:54:07.002Z</time></trkpt><trkpt lat="30.408950466142883" lon="-5.758606771501645"><ele>746.0</ele><time>2026-03-25T07:54:08.002Z</time></trkpt><trkpt lat="30.409069569456687" lon="-5.758451638220655"><ele>747.0</ele><time>2026-03-25T07:54:09.002Z</time></trkpt><trkpt lat="30.409189668210782" lon="-5.758294028585348"><ele>748.0</ele><time>2026-03-25T07:54:10.002Z</time></trkpt><trkpt lat="30.409308541794765" lon="-5.758136197496221"><ele>748.0</ele><time>2026-03-25T07:54:11.002Z</time></trkpt><trkpt lat="30.409426566539572" lon="-5.757977687635526"><ele>748.0</ele><time>2026-03-25T07:54:12.002Z</time></trkpt><trkpt lat="30.409545161440274" lon="-5.757821082207101"><ele>748.0</ele><time>2026-03-25T07:54:13.002Z</time></trkpt><trkpt lat="30.409662697956108" lon="-5.757665348046025"><ele>747.0</ele><time>2026-03-25T07:54:14.002Z</time></trkpt><trkpt lat="30.409778773858303" lon="-5.757509238681946"><ele>746.0</ele><time>2026-03-25T07:54:15.002Z</time></trkpt><trkpt lat="30.409894745550165" lon="-5.757355135240412"><ele>745.0</ele><time>2026-03-25T07:54:16.002Z</time></trkpt><trkpt lat="30.410008847517435" lon="-5.757203038616508"><ele>745.0</ele><time>2026-03-25T07:54:17.002Z</time></trkpt><trkpt lat="30.410123948277295" lon="-5.757053248772622"><ele>745.0</ele><time>2026-03-25T07:54:18.002Z</time></trkpt><trkpt lat="30.41023737589551" lon="-5.756901879356664"><ele>745.0</ele><time>2026-03-25T07:54:19.002Z</time></trkpt><trkpt lat="30.410356171166246" lon="-5.756746041265103"><ele>745.6666666666667</ele><time>2026-03-25T07:54:20.002Z</time></trkpt><trkpt lat="30.410475449152607" lon="-5.756587391172798"><ele>746.3333333333334</ele><time>2026-03-25T07:54:21.002Z</time></trkpt><trkpt lat="30.41059674688736" lon="-5.756427365810214"><ele>747.0</ele><time>2026-03-25T07:54:22.003Z</time></trkpt><trkpt lat="30.410718337053645" lon="-5.7562640919549635"><ele>748.0</ele><time>2026-03-25T07:54:23.002Z</time></trkpt><trkpt lat="30.410839799975772" lon="-5.756101368931228"><ele>749.0</ele><time>2026-03-25T07:54:24.002Z</time></trkpt><trkpt lat="30.41096155210257" lon="-5.755936867773624"><ele>750.0</ele><time>2026-03-25T07:54:25.003Z</time></trkpt><trkpt lat="30.411082745244133" lon="-5.755774316935226"><ele>750.6666666666666</ele><time>2026-03-25T07:54:26.003Z</time></trkpt><trkpt lat="30.411207141560197" lon="-5.755610360105408"><ele>751.3333333333333</ele><time>2026-03-25T07:54:27.003Z</time></trkpt><trkpt lat="30.411331412913736" lon="-5.755448328545471"><ele>752.0</ele><time>2026-03-25T07:54:28.003Z</time></trkpt><trkpt lat="30.41145781155625" lon="-5.755289700225888"><ele>752.3333333333333</ele><time>2026-03-25T07:54:29.002Z</time></trkpt><trkpt lat="30.41158395410198" lon="-5.7551363605114885"><ele>752.6666666666666</ele><time>2026-03-25T07:54:30.002Z</time></trkpt><trkpt lat="30.411713999152827" lon="-5.754990375969588"><ele>753.0</ele><time>2026-03-25T07:54:31.003Z</time></trkpt><trkpt lat="30.411847918480902" lon="-5.75485271314872"><ele>753.0</ele><time>2026-03-25T07:54:32.002Z</time></trkpt><trkpt lat="30.41198390987233" lon="-5.754714021462408"><ele>753.0</ele><time>2026-03-25T07:54:33.002Z</time></trkpt><trkpt lat="30.41212567236896" lon="-5.7545726978334635"><ele>753.0</ele><time>2026-03-25T07:54:34.002Z</time></trkpt><trkpt lat="30.41226964341106" lon="-5.754434670765589"><ele>753.6666666666666</ele><time>2026-03-25T07:54:35.002Z</time></trkpt><trkpt lat="30.41241466036546" lon="-5.754294696874791"><ele>754.3333333333333</ele><time>2026-03-25T07:54:36.002Z</time></trkpt><trkpt lat="30.412558232836822" lon="-5.754154078580922"><ele>755.0</ele><time>2026-03-25T07:54:37.002Z</time></trkpt><trkpt lat="30.412702099275432" lon="-5.754013702371607"><ele>755.0</ele><time>2026-03-25T07:54:38.002Z</time></trkpt><trkpt lat="30.41284912109909" lon="-5.753874850566904"><ele>755.0</ele><time>2026-03-25T07:54:39.002Z</time></trkpt><trkpt lat="30.412996288623766" lon="-5.753733190026779"><ele>755.0</ele><time>2026-03-25T07:54:40.002Z</time></trkpt><trkpt lat="30.413142590140552" lon="-5.753589205908031"><ele>754.3333333333333</ele><time>2026-03-25T07:54:41.002Z</time></trkpt><trkpt lat="30.41329047968345" lon="-5.753445246590685"><ele>753.6666666666666</ele><time>2026-03-25T07:54:42.002Z</time></trkpt><trkpt lat="30.41343815512056" lon="-5.7533015941928625"><ele>753.0</ele><time>2026-03-25T07:54:43.002Z</time></trkpt><trkpt lat="30.41358487276065" lon="-5.753156546425924"><ele>753.0</ele><time>2026-03-25T07:54:44.002Z</time></trkpt><trkpt lat="30.413731362702617" lon="-5.753012039238509"><ele>753.0</ele><time>2026-03-25T07:54:45.002Z</time></trkpt><trkpt lat="30.413877993206846" lon="-5.7528714656478614"><ele>753.0</ele><time>2026-03-25T07:54:46.002Z</time></trkpt><trkpt lat="30.414024102953835" lon="-5.752731419893491"><ele>752.6666666666666</ele><time>2026-03-25T07:54:47.002Z</time></trkpt><trkpt lat="30.41416859599632" lon="-5.752591495335146"><ele>752.3333333333333</ele><time>2026-03-25T07:54:48.002Z</time></trkpt><trkpt lat="30.41431315694675" lon="-5.752453850870025"><ele>752.0</ele><time>2026-03-25T07:54:49.002Z</time></trkpt><trkpt lat="30.414455320149678" lon="-5.752317174848342"><ele>752.0</ele><time>2026-03-25T07:54:50.002Z</time></trkpt><trkpt lat="30.414597765466763" lon="-5.752180101506734"><ele>752.0</ele><time>2026-03-25T07:54:51.002Z</time></trkpt><trkpt lat="30.414737796045078" lon="-5.752043279556295"><ele>752.0</ele><time>2026-03-25T07:54:52.002Z</time></trkpt><trkpt lat="30.414876953391293" lon="-5.751907863475578"><ele>752.0</ele><time>2026-03-25T07:54:53.002Z</time></trkpt><trkpt lat="30.415015819148238" lon="-5.75177395432679"><ele>752.0</ele><time>2026-03-25T07:54:54.002Z</time></trkpt><trkpt lat="30.41515374288059" lon="-5.751641980275446"><ele>752.0</ele><time>2026-03-25T07:54:55.002Z</time></trkpt><trkpt lat="30.415293203329476" lon="-5.75150966993591"><ele>752.0</ele><time>2026-03-25T07:54:56.002Z</time></trkpt><trkpt lat="30.41543184462762" lon="-5.751377840931249"><ele>752.0</ele><time>2026-03-25T07:54:57.002Z</time></trkpt><trkpt lat="30.415565270758762" lon="-5.7512457185630845"><ele>752.0</ele><time>2026-03-25T07:54:58.002Z</time></trkpt><trkpt lat="30.415706075032443" lon="-5.751112205515344"><ele>751.3333333333333</ele><time>2026-03-25T07:54:59.002Z</time></trkpt><trkpt lat="30.415845538160024" lon="-5.750963023261943"><ele>750.6666666666666</ele><time>2026-03-25T07:55:00.002Z</time></trkpt><trkpt lat="30.415998617247855" lon="-5.750821725892211"><ele>750.0</ele><time>2026-03-25T07:55:01.002Z</time></trkpt><trkpt lat="30.416153093249726" lon="-5.750676447670581"><ele>750.0</ele><time>2026-03-25T07:55:02.002Z</time></trkpt><trkpt lat="30.416308808940336" lon="-5.7505286976407755"><ele>750.0</ele><time>2026-03-25T07:55:03.002Z</time></trkpt><trkpt lat="30.416463693384582" lon="-5.750377682258015"><ele>750.0</ele><time>2026-03-25T07:55:04.002Z</time></trkpt><trkpt lat="30.41661976579998" lon="-5.750226681964557"><ele>750.0</ele><time>2026-03-25T07:55:05.002Z</time></trkpt><trkpt lat="30.416775935862056" lon="-5.750075165283753"><ele>750.0</ele><time>2026-03-25T07:55:06.002Z</time></trkpt><trkpt lat="30.41693177446341" lon="-5.749923341002635"><ele>750.0</ele><time>2026-03-25T07:55:07.002Z</time></trkpt><trkpt lat="30.417084143842715" lon="-5.749774062335591"><ele>750.3333333333334</ele><time>2026-03-25T07:55:08.002Z</time></trkpt><trkpt lat="30.41723611661817" lon="-5.7496263268536785"><ele>750.6666666666667</ele><time>2026-03-25T07:55:09.002Z</time></trkpt><trkpt lat="30.417383562096255" lon="-5.749479060444212"><ele>751.0</ele><time>2026-03-25T07:55:10.002Z</time></trkpt><trkpt lat="30.417532301920556" lon="-5.749334126363283"><ele>751.0</ele><time>2026-03-25T07:55:11.002Z</time></trkpt><trkpt lat="30.41767654738619" lon="-5.749188319639981"><ele>751.0</ele><time>2026-03-25T07:55:12.002Z</time></trkpt><trkpt lat="30.417822332892367" lon="-5.749044724798433"><ele>751.0</ele><time>2026-03-25T07:55:13.002Z</time></trkpt><trkpt lat="30.417969151736497" lon="-5.748901269378842"><ele>751.3333333333334</ele><time>2026-03-25T07:55:14.002Z</time></trkpt><trkpt lat="30.418115664307315" lon="-5.748761069890259"><ele>751.6666666666666</ele><time>2026-03-25T07:55:15.002Z</time></trkpt><trkpt lat="30.418263134540872" lon="-5.748627901926381"><ele>752.0</ele><time>2026-03-25T07:55:16.002Z</time></trkpt><trkpt lat="30.41841435866517" lon="-5.748501592116311"><ele>753.0</ele><time>2026-03-25T07:55:17.002Z</time></trkpt><trkpt lat="30.418570032528415" lon="-5.748385218665461"><ele>754.0</ele><time>2026-03-25T07:55:18.002Z</time></trkpt><trkpt lat="30.418724447755597" lon="-5.74826798579925"><ele>755.0</ele><time>2026-03-25T07:55:19.002Z</time></trkpt><trkpt lat="30.418885796567633" lon="-5.74815319116222"><ele>755.0</ele><time>2026-03-25T07:55:20.002Z</time></trkpt><trkpt lat="30.419050820187117" lon="-5.748039016146538"><ele>755.0</ele><time>2026-03-25T07:55:21.002Z</time></trkpt><trkpt lat="30.419217403507368" lon="-5.747932100834765"><ele>755.0</ele><time>2026-03-25T07:55:22.002Z</time></trkpt><trkpt lat="30.41938330781263" lon="-5.7478257557346915"><ele>755.0</ele><time>2026-03-25T07:55:23.002Z</time></trkpt><trkpt lat="30.419549444116697" lon="-5.747719441216335"><ele>755.0</ele><time>2026-03-25T07:55:24.002Z</time></trkpt><trkpt lat="30.419711121610945" lon="-5.74761258358808"><ele>755.0</ele><time>2026-03-25T07:55:25.002Z</time></trkpt><trkpt lat="30.419870534297825" lon="-5.747502274337895"><ele>755.6666666666666</ele><time>2026-03-25T07:55:26.002Z</time></trkpt><trkpt lat="30.42002879019848" lon="-5.74739337925466"><ele>756.3333333333334</ele><time>2026-03-25T07:55:27.002Z</time></trkpt><trkpt lat="30.420187955565446" lon="-5.747288447627117"><ele>757.0</ele><time>2026-03-25T07:55:28.002Z</time></trkpt><trkpt lat="30.4203479364917" lon="-5.7471865761354985"><ele>756.6666666666667</ele><time>2026-03-25T07:55:29.002Z</time></trkpt><trkpt lat="30.420506386663952" lon="-5.74708285218025"><ele>756.3333333333334</ele><time>2026-03-25T07:55:30.002Z</time></trkpt><trkpt lat="30.420669691122907" lon="-5.746974472377558"><ele>756.0</ele><time>2026-03-25T07:55:31.002Z</time></trkpt><trkpt lat="30.420830734330977" lon="-5.7468666604025485"><ele>756.0</ele><time>2026-03-25T07:55:32.002Z</time></trkpt><trkpt lat="30.420992403548112" lon="-5.746758640616601"><ele>756.0</ele><time>2026-03-25T07:55:33.002Z</time></trkpt><trkpt lat="30.421154330011515" lon="-5.746651293121418"><ele>756.0</ele><time>2026-03-25T07:55:34.002Z</time></trkpt><trkpt lat="30.42131647569177" lon="-5.746539749501901"><ele>755.6666666666666</ele><time>2026-03-25T07:55:35.002Z</time></trkpt><trkpt lat="30.42148072603156" lon="-5.746427767829936"><ele>755.3333333333333</ele><time>2026-03-25T07:55:36.002Z</time></trkpt><trkpt lat="30.42164338175291" lon="-5.74632001031111"><ele>755.0</ele><time>2026-03-25T07:55:37.002Z</time></trkpt><trkpt lat="30.421805953210708" lon="-5.746213445477792"><ele>755.0</ele><time>2026-03-25T07:55:38.002Z</time></trkpt><trkpt lat="30.421969968030968" lon="-5.746102246753356"><ele>755.0</ele><time>2026-03-25T07:55:39.002Z</time></trkpt><trkpt lat="30.42213522372827" lon="-5.745995752100135"><ele>755.0</ele><time>2026-03-25T07:55:40.002Z</time></trkpt><trkpt lat="30.422299292882876" lon="-5.745886999832503"><ele>755.6666666666666</ele><time>2026-03-25T07:55:41.002Z</time></trkpt><trkpt lat="30.42246171719409" lon="-5.745779280821521"><ele>756.3333333333334</ele><time>2026-03-25T07:55:42.002Z</time></trkpt><trkpt lat="30.422625101849917" lon="-5.745668534373207"><ele>757.0</ele><time>2026-03-25T07:55:43.002Z</time></trkpt><trkpt lat="30.422788396683337" lon="-5.74555963427782"><ele>757.0</ele><time>2026-03-25T07:55:44.002Z</time></trkpt><trkpt lat="30.42295286525114" lon="-5.745447266715405"><ele>757.0</ele><time>2026-03-25T07:55:45.002Z</time></trkpt><trkpt lat="30.423120457254875" lon="-5.745333656250356"><ele>757.0</ele><time>2026-03-25T07:55:46.002Z</time></trkpt><trkpt lat="30.423289896312955" lon="-5.745221192361705"><ele>757.0</ele><time>2026-03-25T07:55:47.002Z</time></trkpt><trkpt lat="30.42345662958772" lon="-5.7451116127476505"><ele>757.0</ele><time>2026-03-25T07:55:48.002Z</time></trkpt><trkpt lat="30.423627493270292" lon="-5.744997579512425"><ele>757.0</ele><time>2026-03-25T07:55:49.002Z</time></trkpt><trkpt lat="30.423798785861575" lon="-5.744882527012606"><ele>756.3333333333334</ele><time>2026-03-25T07:55:50.002Z</time></trkpt><trkpt lat="30.423971157168477" lon="-5.744765817394217"><ele>755.6666666666666</ele><time>2026-03-25T07:55:51.002Z</time></trkpt><trkpt lat="30.424144910317462" lon="-5.744649646768631"><ele>755.0</ele><time>2026-03-25T07:55:52.002Z</time></trkpt><trkpt lat="30.424318345784297" lon="-5.744535727205389"><ele>755.0</ele><time>2026-03-25T07:55:53.002Z</time></trkpt><trkpt lat="30.424489995900185" lon="-5.744422880214227"><ele>755.0</ele><time>2026-03-25T07:55:54.002Z</time></trkpt><trkpt lat="30.424656755614887" lon="-5.74430896879046"><ele>755.0</ele><time>2026-03-25T07:55:55.002Z</time></trkpt><trkpt lat="30.424827595301938" lon="-5.744195956690311"><ele>755.3333333333333</ele><time>2026-03-25T07:55:56.002Z</time></trkpt><trkpt lat="30.424997441371556" lon="-5.744079168218133"><ele>755.6666666666666</ele><time>2026-03-25T07:55:57.002Z</time></trkpt><trkpt lat="30.425166780489135" lon="-5.743964231155842"><ele>756.0</ele><time>2026-03-25T07:55:58.002Z</time></trkpt><trkpt lat="30.425334338898953" lon="-5.7438501528875285"><ele>756.0</ele><time>2026-03-25T07:55:59.002Z</time></trkpt><trkpt lat="30.42550226095146" lon="-5.743737862929797"><ele>756.0</ele><time>2026-03-25T07:56:00.002Z</time></trkpt><trkpt lat="30.425668477657883" lon="-5.743627135524767"><ele>756.0</ele><time>2026-03-25T07:56:01.002Z</time></trkpt><trkpt lat="30.425836771387548" lon="-5.743518286641102"><ele>756.0</ele><time>2026-03-25T07:56:02.002Z</time></trkpt><trkpt lat="30.42600283413344" lon="-5.743408109164098"><ele>756.0</ele><time>2026-03-25T07:56:03.002Z</time></trkpt><trkpt lat="30.426169877805332" lon="-5.743298236293776"><ele>756.0</ele><time>2026-03-25T07:56:04.002Z</time></trkpt><trkpt lat="30.426332978266544" lon="-5.743187089456498"><ele>756.0</ele><time>2026-03-25T07:56:05.002Z</time></trkpt><trkpt lat="30.426497907755756" lon="-5.743074994372993"><ele>756.0</ele><time>2026-03-25T07:56:06.002Z</time></trkpt><trkpt lat="30.42666935772194" lon="-5.74295948313612"><ele>756.0</ele><time>2026-03-25T07:56:07.002Z</time></trkpt><trkpt lat="30.42684043153275" lon="-5.742843394302012"><ele>756.0</ele><time>2026-03-25T07:56:08.002Z</time></trkpt><trkpt lat="30.427017111650684" lon="-5.742723881474298"><ele>756.0</ele><time>2026-03-25T07:56:09.002Z</time></trkpt><trkpt lat="30.427193168538842" lon="-5.742601928325618"><ele>756.0</ele><time>2026-03-25T07:56:10.002Z</time></trkpt><trkpt lat="30.427378531107625" lon="-5.742479995879653"><ele>756.6666666666666</ele><time>2026-03-25T07:56:11.002Z</time></trkpt><trkpt lat="30.427563469029444" lon="-5.742356900180665"><ele>757.3333333333333</ele><time>2026-03-25T07:56:12.002Z</time></trkpt><trkpt lat="30.427749608688245" lon="-5.742235539382299"><ele>758.0</ele><time>2026-03-25T07:56:13.002Z</time></trkpt><trkpt lat="30.427936367400772" lon="-5.742114989755426"><ele>758.0</ele><time>2026-03-25T07:56:14.002Z</time></trkpt><trkpt lat="30.428120349675435" lon="-5.741992456406382"><ele>758.0</ele><time>2026-03-25T07:56:15.002Z</time></trkpt><trkpt lat="30.428301894068948" lon="-5.741870514988216"><ele>758.0</ele><time>2026-03-25T07:56:16.002Z</time></trkpt><trkpt lat="30.42847825161522" lon="-5.741748172397112"><ele>758.0</ele><time>2026-03-25T07:56:17.002Z</time></trkpt><trkpt lat="30.428657038189236" lon="-5.741626968339239"><ele>758.0</ele><time>2026-03-25T07:56:18.002Z</time></trkpt><trkpt lat="30.42883258144146" lon="-5.741509702906973"><ele>758.0</ele><time>2026-03-25T07:56:19.002Z</time></trkpt><trkpt lat="30.42900984039433" lon="-5.7413906477825565"><ele>758.0</ele><time>2026-03-25T07:56:20.002Z</time></trkpt><trkpt lat="30.429185379564107" lon="-5.74127397261964"><ele>758.0</ele><time>2026-03-25T07:56:21.002Z</time></trkpt><trkpt lat="30.429359745819614" lon="-5.7411582997322395"><ele>758.0</ele><time>2026-03-25T07:56:22.002Z</time></trkpt><trkpt lat="30.429532287359727" lon="-5.7410476528654595"><ele>757.6666666666666</ele><time>2026-03-25T07:56:23.002Z</time></trkpt><trkpt lat="30.42970172505743" lon="-5.740935171492249"><ele>757.3333333333334</ele><time>2026-03-25T07:56:24.002Z</time></trkpt><trkpt lat="30.429870897429034" lon="-5.7408196789748045"><ele>757.0</ele><time>2026-03-25T07:56:25.002Z</time></trkpt><trkpt lat="30.430039858684324" lon="-5.740706916746502"><ele>757.0</ele><time>2026-03-25T07:56:26.002Z</time></trkpt><trkpt lat="30.43021187528694" lon="-5.740594910504558"><ele>757.0</ele><time>2026-03-25T07:56:27.002Z</time></trkpt><trkpt lat="30.43038278783054" lon="-5.740480692257017"><ele>757.0</ele><time>2026-03-25T07:56:28.003Z</time></trkpt><trkpt lat="30.430556996383224" lon="-5.740366627410307"><ele>757.3333333333334</ele><time>2026-03-25T07:56:29.003Z</time></trkpt><trkpt lat="30.430732481311306" lon="-5.740248744236328"><ele>757.6666666666666</ele><time>2026-03-25T07:56:30.003Z</time></trkpt><trkpt lat="30.43090897126982" lon="-5.740130573712402"><ele>758.0</ele><time>2026-03-25T07:56:31.003Z</time></trkpt><trkpt lat="30.431086490016288" lon="-5.740013302228982"><ele>758.3333333333333</ele><time>2026-03-25T07:56:32.003Z</time></trkpt><trkpt lat="30.431261532581072" lon="-5.739897046440065"><ele>758.6666666666666</ele><time>2026-03-25T07:56:33.003Z</time></trkpt><trkpt lat="30.431433338287206" lon="-5.73978374323214"><ele>759.0</ele><time>2026-03-25T07:56:34.003Z</time></trkpt><trkpt lat="30.431606854601913" lon="-5.739668266796727"><ele>759.3333333333334</ele><time>2026-03-25T07:56:35.003Z</time></trkpt><trkpt lat="30.431779139975614" lon="-5.7395497879518524"><ele>759.6666666666667</ele><time>2026-03-25T07:56:36.003Z</time></trkpt><trkpt lat="30.43194669278024" lon="-5.739434288314322"><ele>760.0</ele><time>2026-03-25T07:56:37.003Z</time></trkpt><trkpt lat="30.43211069210004" lon="-5.739316013072867"><ele>760.0</ele><time>2026-03-25T07:56:38.003Z</time></trkpt><trkpt lat="30.432270623537526" lon="-5.739189779763882"><ele>760.0</ele><time>2026-03-25T07:56:39.003Z</time></trkpt><trkpt lat="30.432421266861173" lon="-5.73905765476216"><ele>760.0</ele><time>2026-03-25T07:56:40.002Z</time></trkpt><trkpt lat="30.43256108000689" lon="-5.738919713435676"><ele>760.0</ele><time>2026-03-25T07:56:41.003Z</time></trkpt><trkpt lat="30.43269932363948" lon="-5.73877179176576"><ele>760.0</ele><time>2026-03-25T07:56:42.003Z</time></trkpt><trkpt lat="30.43284185626198" lon="-5.738617966471571"><ele>760.0</ele><time>2026-03-25T07:56:43.003Z</time></trkpt><trkpt lat="30.432986731579657" lon="-5.7384618866739965"><ele>760.3333333333334</ele><time>2026-03-25T07:56:44.003Z</time></trkpt><trkpt lat="30.433133902323902" lon="-5.738306019134307"><ele>760.6666666666666</ele><time>2026-03-25T07:56:45.003Z</time></trkpt><trkpt lat="30.433283810946847" lon="-5.738151463121985"><ele>761.0</ele><time>2026-03-25T07:56:46.003Z</time></trkpt><trkpt lat="30.433432885035188" lon="-5.737991657194859"><ele>761.0</ele><time>2026-03-25T07:56:47.003Z</time></trkpt><trkpt lat="30.43358138942612" lon="-5.7378349838983365"><ele>761.0</ele><time>2026-03-25T07:56:48.003Z</time></trkpt><trkpt lat="30.433729982903277" lon="-5.737679177066565"><ele>761.0</ele><time>2026-03-25T07:56:49.003Z</time></trkpt><trkpt lat="30.433881204354083" lon="-5.7375217143978885"><ele>761.0</ele><time>2026-03-25T07:56:50.003Z</time></trkpt><trkpt lat="30.43403014235608" lon="-5.737365067690263"><ele>761.0</ele><time>2026-03-25T07:56:51.003Z</time></trkpt><trkpt lat="30.43418252432035" lon="-5.73721001702556"><ele>761.0</ele><time>2026-03-25T07:56:52.003Z</time></trkpt><trkpt lat="30.434326453594235" lon="-5.737060108520972"><ele>761.0</ele><time>2026-03-25T07:56:53.003Z</time></trkpt><trkpt lat="30.434474485660587" lon="-5.7369028006229135"><ele>761.0</ele><time>2026-03-25T07:56:54.003Z</time></trkpt><trkpt lat="30.434620020611586" lon="-5.736747479957762"><ele>761.0</ele><time>2026-03-25T07:56:55.003Z</time></trkpt><trkpt lat="30.434764866248035" lon="-5.736596540887588"><ele>762.0</ele><time>2026-03-25T07:56:56.003Z</time></trkpt><trkpt lat="30.43490446872317" lon="-5.736449552110064"><ele>763.0</ele><time>2026-03-25T07:56:57.003Z</time></trkpt><trkpt lat="30.435049433973163" lon="-5.736300478361207"><ele>764.0</ele><time>2026-03-25T07:56:58.003Z</time></trkpt><trkpt lat="30.43519450763545" lon="-5.736151346570821"><ele>764.0</ele><time>2026-03-25T07:56:59.003Z</time></trkpt><trkpt lat="30.435337806623735" lon="-5.736011682754165"><ele>764.0</ele><time>2026-03-25T07:57:00.003Z</time></trkpt><trkpt lat="30.435485413128728" lon="-5.735879098344638"><ele>764.0</ele><time>2026-03-25T07:57:01.003Z</time></trkpt><trkpt lat="30.435639016431317" lon="-5.735754407207509"><ele>764.3333333333333</ele><time>2026-03-25T07:57:02.003Z</time></trkpt><trkpt lat="30.43579695105934" lon="-5.735636360592702"><ele>764.6666666666666</ele><time>2026-03-25T07:57:03.003Z</time></trkpt><trkpt lat="30.43596775761031" lon="-5.7355173757446964"><ele>765.0</ele><time>2026-03-25T07:57:04.003Z</time></trkpt><trkpt lat="30.436140294782636" lon="-5.735407455085289"><ele>765.3333333333334</ele><time>2026-03-25T07:57:05.003Z</time></trkpt><trkpt lat="30.436311255878017" lon="-5.735298900531512"><ele>765.6666666666667</ele><time>2026-03-25T07:57:06.003Z</time></trkpt><trkpt lat="30.436484594663373" lon="-5.735190653699677"><ele>766.0</ele><time>2026-03-25T07:57:07.003Z</time></trkpt><trkpt lat="30.43665607605411" lon="-5.735084933816689"><ele>766.0</ele><time>2026-03-25T07:57:08.003Z</time></trkpt><trkpt lat="30.436837722261657" lon="-5.734973386594045"><ele>766.0</ele><time>2026-03-25T07:57:09.003Z</time></trkpt><trkpt lat="30.437023940681048" lon="-5.734858882346098"><ele>766.0</ele><time>2026-03-25T07:57:10.003Z</time></trkpt><trkpt lat="30.437214891353882" lon="-5.7347387600833"><ele>766.0</ele><time>2026-03-25T07:57:11.003Z</time></trkpt><trkpt lat="30.43740697324762" lon="-5.734617510000146"><ele>766.0</ele><time>2026-03-25T07:57:12.003Z</time></trkpt><trkpt lat="30.437598614841463" lon="-5.734499432323756"><ele>766.0</ele><time>2026-03-25T07:57:13.003Z</time></trkpt><trkpt lat="30.43778929883166" lon="-5.734382285117767"><ele>766.6666666666667</ele><time>2026-03-25T07:57:14.003Z</time></trkpt><trkpt lat="30.437973043981525" lon="-5.734266304578667"><ele>767.3333333333334</ele><time>2026-03-25T07:57:15.003Z</time></trkpt><trkpt lat="30.438152347567755" lon="-5.734153373633382"><ele>768.0</ele><time>2026-03-25T07:57:16.003Z</time></trkpt><trkpt lat="30.438330507453323" lon="-5.734039402677375"><ele>768.0</ele><time>2026-03-25T07:57:17.003Z</time></trkpt><trkpt lat="30.438503946193375" lon="-5.733931778309726"><ele>768.0</ele><time>2026-03-25T07:57:18.003Z</time></trkpt><trkpt lat="30.438679909322893" lon="-5.733821882354712"><ele>768.0</ele><time>2026-03-25T07:57:19.003Z</time></trkpt><trkpt lat="30.438854075914765" lon="-5.7337137789785855"><ele>767.6666666666666</ele><time>2026-03-25T07:57:20.003Z</time></trkpt><trkpt lat="30.439027053416076" lon="-5.733604115100892"><ele>767.3333333333333</ele><time>2026-03-25T07:57:21.003Z</time></trkpt><trkpt lat="30.439198890834252" lon="-5.733495507494597"><ele>767.0</ele><time>2026-03-25T07:57:22.003Z</time></trkpt><trkpt lat="30.439372090284753" lon="-5.733389922394757"><ele>767.6666666666666</ele><time>2026-03-25T07:57:23.003Z</time></trkpt><trkpt lat="30.43954434807468" lon="-5.733283363595219"><ele>768.3333333333333</ele><time>2026-03-25T07:57:24.003Z</time></trkpt><trkpt lat="30.439713228179276" lon="-5.733177228936181"><ele>769.0</ele><time>2026-03-25T07:57:25.003Z</time></trkpt><trkpt lat="30.439890019910667" lon="-5.7330640861486835"><ele>769.0</ele><time>2026-03-25T07:57:26.003Z</time></trkpt><trkpt lat="30.44007269791075" lon="-5.7329495846728955"><ele>769.0</ele><time>2026-03-25T07:57:27.003Z</time></trkpt><trkpt lat="30.4402473910336" lon="-5.732842258026551"><ele>769.0</ele><time>2026-03-25T07:57:28.003Z</time></trkpt><trkpt lat="30.440418658089822" lon="-5.732736862721592"><ele>769.6666666666666</ele><time>2026-03-25T07:57:29.003Z</time></trkpt><trkpt lat="30.440582931435717" lon="-5.732634666336228"><ele>770.3333333333333</ele><time>2026-03-25T07:57:30.003Z</time></trkpt><trkpt lat="30.440746779691793" lon="-5.732536683472335"><ele>771.0</ele><time>2026-03-25T07:57:31.003Z</time></trkpt><trkpt lat="30.440902767833748" lon="-5.732441316589208"><ele>771.0</ele><time>2026-03-25T07:57:32.003Z</time></trkpt><trkpt lat="30.441044054381404" lon="-5.732352773127768"><ele>771.0</ele><time>2026-03-25T07:57:33.003Z</time></trkpt><trkpt lat="30.441172294032555" lon="-5.732271073939137"><ele>771.0</ele><time>2026-03-25T07:57:34.003Z</time></trkpt><trkpt lat="30.441291721168515" lon="-5.732195803946046"><ele>771.0</ele><time>2026-03-25T07:57:35.003Z</time></trkpt><trkpt lat="30.441402765975443" lon="-5.73212762596083"><ele>771.0</ele><time>2026-03-25T07:57:36.003Z</time></trkpt><trkpt lat="30.441503985342308" lon="-5.732066162321509"><ele>771.0</ele><time>2026-03-25T07:57:37.003Z</time></trkpt><trkpt lat="30.441595511070748" lon="-5.732010777351693"><ele>771.0</ele><time>2026-03-25T07:57:38.003Z</time></trkpt><trkpt lat="30.44167984399047" lon="-5.731959251758318"><ele>771.0</ele><time>2026-03-25T07:57:39.003Z</time></trkpt><trkpt lat="30.441748133552927" lon="-5.7319132747174555"><ele>771.0</ele><time>2026-03-25T07:57:40.003Z</time></trkpt><trkpt lat="30.441808523234634" lon="-5.731876949849819"><ele>771.0</ele><time>2026-03-25T07:57:41.003Z</time></trkpt><trkpt lat="30.441879498975858" lon="-5.731835672326289"><ele>771.0</ele><time>2026-03-25T07:57:43.003Z</time></trkpt><trkpt lat="30.44194864203395" lon="-5.731807876243118"><ele>771.0</ele><time>2026-03-25T07:57:45.003Z</time></trkpt><trkpt lat="30.442040825340733" lon="-5.731768719487941"><ele>771.0</ele><time>2026-03-25T07:57:48.003Z</time></trkpt><trkpt lat="30.442399271442746" lon="-5.732022543180061"><ele>770.5</ele><time>2026-03-25T07:57:52.003Z</time></trkpt><trkpt lat="30.442477767452502" lon="-5.732051112194039"><ele>770.0</ele><time>2026-03-25T07:57:53.003Z</time></trkpt><trkpt lat="30.442553961886095" lon="-5.732075361642566"><ele>769.5</ele><time>2026-03-25T07:57:54.003Z</time></trkpt><trkpt lat="30.4426458753119" lon="-5.7321055225819855"><ele>769.0</ele><time>2026-03-25T07:57:55.003Z</time></trkpt><trkpt lat="30.44273474374276" lon="-5.7321398307941775"><ele>768.5</ele><time>2026-03-25T07:57:56.003Z</time></trkpt><trkpt lat="30.44282044659906" lon="-5.732171225221651"><ele>768.0</ele><time>2026-03-25T07:57:57.003Z</time></trkpt><trkpt lat="30.44290101987739" lon="-5.732204177192157"><ele>767.6666666666666</ele><time>2026-03-25T07:57:58.003Z</time></trkpt><trkpt lat="30.442988089777433" lon="-5.732234947905447"><ele>767.3333333333334</ele><time>2026-03-25T07:57:59.003Z</time></trkpt><trkpt lat="30.44307451396343" lon="-5.7322529076455195"><ele>767.0</ele><time>2026-03-25T07:58:00.003Z</time></trkpt><trkpt lat="30.443162731439692" lon="-5.73226563167014"><ele>766.6666666666667</ele><time>2026-03-25T07:58:01.003Z</time></trkpt><trkpt lat="30.443252163455725" lon="-5.732280765230017"><ele>766.3333333333334</ele><time>2026-03-25T07:58:02.003Z</time></trkpt><trkpt lat="30.443332051626403" lon="-5.732297624056445"><ele>766.0</ele><time>2026-03-25T07:58:03.003Z</time></trkpt><trkpt lat="30.44344227579296" lon="-5.732338692832263"><ele>766.0</ele><time>2026-03-25T07:58:05.003Z</time></trkpt><trkpt lat="30.443556731344135" lon="-5.732374002513614"><ele>766.0</ele><time>2026-03-25T07:58:07.003Z</time></trkpt><trkpt lat="30.443642506480924" lon="-5.732398633213366"><ele>766.0</ele><time>2026-03-25T07:58:09.003Z</time></trkpt><trkpt lat="30.44372607155312" lon="-5.732418703267959"><ele>766.0</ele><time>2026-03-25T07:58:11.003Z</time></trkpt><trkpt lat="30.443814174892005" lon="-5.7324096861007785"><ele>766.0</ele><time>2026-03-25T07:58:13.003Z</time></trkpt><trkpt lat="30.44391957392316" lon="-5.732340154410899"><ele>766.1999999999999</ele><time>2026-03-25T07:58:15.003Z</time></trkpt><trkpt lat="30.44397341539277" lon="-5.732298390838293"><ele>766.4</ele><time>2026-03-25T07:58:16.003Z</time></trkpt><trkpt lat="30.444078316460477" lon="-5.73223488315587"><ele>766.6</ele><time>2026-03-25T07:58:18.003Z</time></trkpt><trkpt lat="30.444175942294237" lon="-5.732186896243435"><ele>766.8</ele><time>2026-03-25T07:58:20.003Z</time></trkpt><trkpt lat="30.444268937032255" lon="-5.732134097509126"><ele>767.0</ele><time>2026-03-25T07:58:22.003Z</time></trkpt><trkpt lat="30.444349386458747" lon="-5.732081073914073"><ele>767.0</ele><time>2026-03-25T07:58:24.003Z</time></trkpt><trkpt lat="30.444436835792022" lon="-5.732030120212586"><ele>767.0</ele><time>2026-03-25T07:58:26.003Z</time></trkpt><trkpt lat="30.444545968337355" lon="-5.731967989428678"><ele>767.0</ele><time>2026-03-25T07:58:28.003Z</time></trkpt><trkpt lat="30.444615472618214" lon="-5.731936310736791"><ele>767.0</ele><time>2026-03-25T07:58:29.003Z</time></trkpt><trkpt lat="30.44468811125672" lon="-5.731899343603939"><ele>767.0</ele><time>2026-03-25T07:58:30.003Z</time></trkpt><trkpt lat="30.444758662239117" lon="-5.731863247047713"><ele>767.0</ele><time>2026-03-25T07:58:31.003Z</time></trkpt><trkpt lat="30.444828250263498" lon="-5.731831779132471"><ele>767.0</ele><time>2026-03-25T07:58:32.003Z</time></trkpt><trkpt lat="30.444927498550392" lon="-5.731775930182106"><ele>767.0</ele><time>2026-03-25T07:58:34.002Z</time></trkpt><trkpt lat="30.445002031757134" lon="-5.7317543534642175"><ele>767.0</ele><time>2026-03-25T07:58:36.002Z</time></trkpt><trkpt lat="30.44508009727446" lon="-5.731815509515153"><ele>767.0</ele><time>2026-03-25T07:58:38.002Z</time></trkpt><trkpt lat="30.445114928678077" lon="-5.731876644077873"><ele>767.0</ele><time>2026-03-25T07:58:39.002Z</time></trkpt><trkpt lat="30.44515027360021" lon="-5.73193714566816"><ele>766.8333333333333</ele><time>2026-03-25T07:58:40.002Z</time></trkpt><trkpt lat="30.445185344533055" lon="-5.732001005251581"><ele>766.6666666666666</ele><time>2026-03-25T07:58:41.003Z</time></trkpt><trkpt lat="30.445223563283417" lon="-5.73207048616908"><ele>766.5</ele><time>2026-03-25T07:58:42.003Z</time></trkpt><trkpt lat="30.445264242585424" lon="-5.732145786954978"><ele>766.3333333333334</ele><time>2026-03-25T07:58:43.002Z</time></trkpt><trkpt lat="30.445306998905494" lon="-5.732226971957257"><ele>766.1666666666667</ele><time>2026-03-25T07:58:44.003Z</time></trkpt><trkpt lat="30.44535418500655" lon="-5.732310459918563"><ele>766.0</ele><time>2026-03-25T07:58:45.003Z</time></trkpt><trkpt lat="30.445402299584195" lon="-5.732396687823878"><ele>766.0</ele><time>2026-03-25T07:58:46.003Z</time></trkpt><trkpt lat="30.445449437890325" lon="-5.732484304509265"><ele>766.0</ele><time>2026-03-25T07:58:47.003Z</time></trkpt><trkpt lat="30.445498123921432" lon="-5.732575450367007"><ele>766.0</ele><time>2026-03-25T07:58:48.003Z</time></trkpt><trkpt lat="30.445546432100436" lon="-5.732669181976947"><ele>766.0</ele><time>2026-03-25T07:58:49.003Z</time></trkpt><trkpt lat="30.44559526266299" lon="-5.732765606020005"><ele>766.0</ele><time>2026-03-25T07:58:50.003Z</time></trkpt><trkpt lat="30.445641820731403" lon="-5.732858766734182"><ele>765.6666666666667</ele><time>2026-03-25T07:58:51.003Z</time></trkpt><trkpt lat="30.44568775600553" lon="-5.732946531954737"><ele>765.3333333333334</ele><time>2026-03-25T07:58:52.003Z</time></trkpt><trkpt lat="30.445735898822516" lon="-5.73303462950843"><ele>765.0</ele><time>2026-03-25T07:58:53.003Z</time></trkpt><trkpt lat="30.44578484720195" lon="-5.733123559010701"><ele>764.6666666666666</ele><time>2026-03-25T07:58:54.003Z</time></trkpt><trkpt lat="30.445829752023386" lon="-5.733207065941022"><ele>764.3333333333333</ele><time>2026-03-25T07:58:55.003Z</time></trkpt><trkpt lat="30.445872673082604" lon="-5.733287756743929"><ele>764.0</ele><time>2026-03-25T07:58:56.003Z</time></trkpt><trkpt lat="30.445914694933435" lon="-5.733367232389766"><ele>764.0</ele><time>2026-03-25T07:58:57.003Z</time></trkpt><trkpt lat="30.445956684878773" lon="-5.733452192318355"><ele>764.0</ele><time>2026-03-25T07:58:58.003Z</time></trkpt><trkpt lat="30.445999943133977" lon="-5.7335431116612945"><ele>764.0</ele><time>2026-03-25T07:58:59.003Z</time></trkpt><trkpt lat="30.446048441543134" lon="-5.733638558555039"><ele>764.0</ele><time>2026-03-25T07:59:00.003Z</time></trkpt><trkpt lat="30.446099390515254" lon="-5.733743982572743"><ele>764.0</ele><time>2026-03-25T07:59:01.003Z</time></trkpt><trkpt lat="30.446152364173418" lon="-5.733863253737325"><ele>764.0</ele><time>2026-03-25T07:59:02.003Z</time></trkpt><trkpt lat="30.446221188770203" lon="-5.7339955203223525"><ele>764.0</ele><time>2026-03-25T07:59:03.003Z</time></trkpt><trkpt lat="30.446299430700066" lon="-5.734144802946462"><ele>764.0</ele><time>2026-03-25T07:59:04.003Z</time></trkpt><trkpt lat="30.446383878330803" lon="-5.734316244853486"><ele>763.6666666666666</ele><time>2026-03-25T07:59:05.003Z</time></trkpt><trkpt lat="30.446435609347837" lon="-5.734535946406486"><ele>763.3333333333334</ele><time>2026-03-25T07:59:06.003Z</time></trkpt><trkpt lat="30.446529547814453" lon="-5.734734379161193"><ele>763.0</ele><time>2026-03-25T07:59:07.003Z</time></trkpt><trkpt lat="30.446609953131244" lon="-5.734924006586775"><ele>763.0</ele><time>2026-03-25T07:59:08.003Z</time></trkpt><trkpt lat="30.44668459940748" lon="-5.73510822701837"><ele>763.0</ele><time>2026-03-25T07:59:09.003Z</time></trkpt><trkpt lat="30.44674739978934" lon="-5.735268096387423"><ele>763.0</ele><time>2026-03-25T07:59:10.003Z</time></trkpt><trkpt lat="30.4468060111771" lon="-5.735430062410857"><ele>764.0</ele><time>2026-03-25T07:59:11.003Z</time></trkpt><trkpt lat="30.446875673999504" lon="-5.735601538250005"><ele>765.0</ele><time>2026-03-25T07:59:12.003Z</time></trkpt><trkpt lat="30.447021202970156" lon="-5.735744790675965"><ele>766.0</ele><time>2026-03-25T07:59:13.003Z</time></trkpt><trkpt lat="30.44715774645135" lon="-5.73574968869536"><ele>766.0</ele><time>2026-03-25T07:59:14.003Z</time></trkpt><trkpt lat="30.44724745659653" lon="-5.7357840459356915"><ele>766.0</ele><time>2026-03-25T07:59:15.003Z</time></trkpt><trkpt lat="30.447304636654476" lon="-5.735820985836541"><ele>766.0</ele><time>2026-03-25T07:59:16.003Z</time></trkpt><trkpt lat="30.44737642186824" lon="-5.736281487041014"><ele>766.1999999999999</ele><time>2026-03-25T07:59:19.003Z</time></trkpt><trkpt lat="30.44740747630383" lon="-5.736349059003715"><ele>766.4</ele><time>2026-03-25T07:59:20.003Z</time></trkpt><trkpt lat="30.44745997637381" lon="-5.736476017994654"><ele>766.6</ele><time>2026-03-25T07:59:22.003Z</time></trkpt><trkpt lat="30.44748888406736" lon="-5.736541314327465"><ele>766.8</ele><time>2026-03-25T07:59:23.003Z</time></trkpt><trkpt lat="30.447545273657898" lon="-5.736669374271294"><ele>767.0</ele><time>2026-03-25T07:59:25.003Z</time></trkpt><trkpt lat="30.44760699387687" lon="-5.736789505052233"><ele>767.0</ele><time>2026-03-25T07:59:27.003Z</time></trkpt><trkpt lat="30.447667439403116" lon="-5.736887905847774"><ele>767.0</ele><time>2026-03-25T07:59:29.003Z</time></trkpt><trkpt lat="30.447731400496597" lon="-5.736987912654338"><ele>767.0</ele><time>2026-03-25T07:59:31.003Z</time></trkpt><trkpt lat="30.447770030215384" lon="-5.7370889119962465"><ele>767.0</ele><time>2026-03-25T07:59:33.003Z</time></trkpt><trkpt lat="30.44779186703063" lon="-5.737184445310447"><ele>767.0</ele><time>2026-03-25T07:59:35.003Z</time></trkpt><trkpt lat="30.44782094317949" lon="-5.737294225357627"><ele>767.0</ele><time>2026-03-25T07:59:37.003Z</time></trkpt><trkpt lat="30.447845065252793" lon="-5.737361942489679"><ele>767.0</ele><time>2026-03-25T07:59:38.003Z</time></trkpt><trkpt lat="30.447865724996486" lon="-5.7374318364434815"><ele>767.0</ele><time>2026-03-25T07:59:39.003Z</time></trkpt><trkpt lat="30.447884425028178" lon="-5.737503907069181"><ele>767.0</ele><time>2026-03-25T07:59:40.003Z</time></trkpt><trkpt lat="30.44790643023531" lon="-5.737584477518341"><ele>767.0</ele><time>2026-03-25T07:59:41.003Z</time></trkpt><trkpt lat="30.447931375793225" lon="-5.737666558435313"><ele>767.0</ele><time>2026-03-25T07:59:42.003Z</time></trkpt><trkpt lat="30.447958752396264" lon="-5.737750789837338"><ele>767.0</ele><time>2026-03-25T07:59:43.003Z</time></trkpt><trkpt lat="30.44798461763185" lon="-5.737820349757972"><ele>767.8</ele><time>2026-03-25T07:59:44.003Z</time></trkpt><trkpt lat="30.448032157752817" lon="-5.737947602764048"><ele>768.6</ele><time>2026-03-25T07:59:46.003Z</time></trkpt><trkpt lat="30.44805838030047" lon="-5.738016505785357"><ele>769.4</ele><time>2026-03-25T07:59:47.003Z</time></trkpt><trkpt lat="30.448098869169648" lon="-5.738136618224522"><ele>770.1999999999999</ele><time>2026-03-25T07:59:49.003Z</time></trkpt><trkpt lat="30.44812504453167" lon="-5.738241727761621"><ele>771.0</ele><time>2026-03-25T07:59:51.003Z</time></trkpt><trkpt lat="30.448170168260482" lon="-5.738354393982349"><ele>771.0</ele><time>2026-03-25T07:59:53.003Z</time></trkpt><trkpt lat="30.44821804360783" lon="-5.738464472209463"><ele>771.0</ele><time>2026-03-25T07:59:55.003Z</time></trkpt><trkpt lat="30.448255239226754" lon="-5.738565397867771"><ele>771.0</ele><time>2026-03-25T07:59:57.003Z</time></trkpt><trkpt lat="30.44827655901395" lon="-5.738657176603838"><ele>771.0</ele><time>2026-03-25T07:59:59.003Z</time></trkpt><trkpt lat="30.448278962394582" lon="-5.738736003973199"><ele>771.0</ele><time>2026-03-25T08:00:01.003Z</time></trkpt><trkpt lat="30.448261587179385" lon="-5.7388293433728"><ele>771.0</ele><time>2026-03-25T08:00:04.003Z</time></trkpt><trkpt lat="30.448216430733655" lon="-5.738885147173689"><ele>770.8571428571429</ele><time>2026-03-25T08:00:09.003Z</time></trkpt><trkpt lat="30.448169836546835" lon="-5.738826342532622"><ele>770.7142857142857</ele><time>2026-03-25T08:25:22.002Z</time></trkpt><trkpt lat="30.448108246982972" lon="-5.738846142481327"><ele>770.5714285714286</ele><time>2026-03-25T08:25:34.002Z</time></trkpt><trkpt lat="30.448045614720662" lon="-5.738836523815805"><ele>770.4285714285714</ele><time>2026-03-25T08:25:43.002Z</time></trkpt><trkpt lat="30.44798124325584" lon="-5.738840480550856"><ele>770.2857142857142</ele><time>2026-03-25T08:25:51.002Z</time></trkpt><trkpt lat="30.447914792738356" lon="-5.738818786340691"><ele>770.1428571428571</ele><time>2026-03-25T08:26:03.003Z</time></trkpt><trkpt lat="30.447854633807516" lon="-5.738790867272782"><ele>770.0</ele><time>2026-03-25T08:26:10.002Z</time></trkpt><trkpt lat="30.44779736788481" lon="-5.738756035617747"><ele>769.8571428571429</ele><time>2026-03-25T08:26:16.002Z</time></trkpt><trkpt lat="30.44771581680215" lon="-5.738757326072384"><ele>769.7142857142858</ele><time>2026-03-25T08:26:50.002Z</time></trkpt><trkpt lat="30.447665071196784" lon="-5.738840022720418"><ele>769.5714285714286</ele><time>2026-03-25T08:27:12.002Z</time></trkpt><trkpt lat="30.447678956860212" lon="-5.73876242001113"><ele>769.4285714285714</ele><time>2026-03-25T09:05:56.984Z</time></trkpt><trkpt lat="30.447736697383462" lon="-5.738725863682554"><ele>769.2857142857143</ele><time>2026-03-25T09:06:12.985Z</time></trkpt><trkpt lat="30.44780195274312" lon="-5.738731414031344"><ele>769.1428571428571</ele><time>2026-03-25T09:06:23.985Z</time></trkpt><trkpt lat="30.447867903806408" lon="-5.738749989887417"><ele>769.0</ele><time>2026-03-25T09:06:33.985Z</time></trkpt><trkpt lat="30.447926271630415" lon="-5.738781299075174"><ele>769.1666666666666</ele><time>2026-03-25T09:06:40.985Z</time></trkpt><trkpt lat="30.447991558317344" lon="-5.738816185522599"><ele>769.3333333333333</ele><time>2026-03-25T09:06:47.983Z</time></trkpt><trkpt lat="30.44804802370431" lon="-5.738850679748788"><ele>769.5</ele><time>2026-03-25T09:06:53.982Z</time></trkpt><trkpt lat="30.44811698309209" lon="-5.738872182478545"><ele>769.6666666666667</ele><time>2026-03-25T09:07:00.982Z</time></trkpt><trkpt lat="30.448079863765603" lon="-5.738770038238236"><ele>769.8333333333334</ele><time>2026-03-25T09:09:44.98Z</time></trkpt><trkpt lat="30.448075398577753" lon="-5.7386479042702305"><ele>770.0</ele><time>2026-03-25T09:09:46.98Z</time></trkpt><trkpt lat="30.448092607846565" lon="-5.7385137603966605"><ele>770.2</ele><time>2026-03-25T09:09:48.98Z</time></trkpt><trkpt lat="30.44809531689109" lon="-5.738372976951371"><ele>770.4</ele><time>2026-03-25T09:09:50.98Z</time></trkpt><trkpt lat="30.448088109374403" lon="-5.738297836594065"><ele>770.5999999999999</ele><time>2026-03-25T09:09:51.98Z</time></trkpt><trkpt lat="30.448063941801568" lon="-5.738164089145864"><ele>770.8</ele><time>2026-03-25T09:09:53.98Z</time></trkpt><trkpt lat="30.448022606836048" lon="-5.738023771082729"><ele>771.0</ele><time>2026-03-25T09:09:55.98Z</time></trkpt><trkpt lat="30.447984781202734" lon="-5.737895316617676"><ele>770.8333333333334</ele><time>2026-03-25T09:09:57.98Z</time></trkpt><trkpt lat="30.447958542457" lon="-5.737820518718851"><ele>770.6666666666667</ele><time>2026-03-25T09:09:58.98Z</time></trkpt><trkpt lat="30.44791820143087" lon="-5.737681512117158"><ele>770.5</ele><time>2026-03-25T09:10:00.979Z</time></trkpt><trkpt lat="30.447900446181443" lon="-5.737606391651287"><ele>770.3333333333334</ele><time>2026-03-25T09:10:01.979Z</time></trkpt><trkpt lat="30.44787842284065" lon="-5.737533029927737"><ele>770.1666666666667</ele><time>2026-03-25T09:10:02.979Z</time></trkpt><trkpt lat="30.447854433027974" lon="-5.737457630053657"><ele>770.0</ele><time>2026-03-25T09:10:03.979Z</time></trkpt><trkpt lat="30.4478326288009" lon="-5.73738177404584"><ele>769.5714285714286</ele><time>2026-03-25T09:10:04.979Z</time></trkpt><trkpt lat="30.447813982640668" lon="-5.737308995922606"><ele>769.1428571428571</ele><time>2026-03-25T09:10:05.98Z</time></trkpt><trkpt lat="30.44779396802292" lon="-5.7372305115797815"><ele>768.7142857142858</ele><time>2026-03-25T09:10:06.98Z</time></trkpt><trkpt lat="30.447772541954446" lon="-5.737156148749964"><ele>768.2857142857142</ele><time>2026-03-25T09:10:07.98Z</time></trkpt><trkpt lat="30.447742710684988" lon="-5.737085126800816"><ele>767.8571428571429</ele><time>2026-03-25T09:10:08.98Z</time></trkpt><trkpt lat="30.447709571195066" lon="-5.737010630018102"><ele>767.4285714285714</ele><time>2026-03-25T09:10:09.979Z</time></trkpt><trkpt lat="30.447672802840504" lon="-5.73694309908797"><ele>767.0</ele><time>2026-03-25T09:10:10.979Z</time></trkpt><trkpt lat="30.44760892150487" lon="-5.736820269365169"><ele>767.0</ele><time>2026-03-25T09:10:12.979Z</time></trkpt><trkpt lat="30.44753889036146" lon="-5.736706716184561"><ele>767.0</ele><time>2026-03-25T09:10:14.979Z</time></trkpt><trkpt lat="30.447482610138564" lon="-5.736583824386408"><ele>767.0</ele><time>2026-03-25T09:10:16.979Z</time></trkpt><trkpt lat="30.447448593034007" lon="-5.736517725336123"><ele>767.0</ele><time>2026-03-25T09:10:17.979Z</time></trkpt><trkpt lat="30.447416821656958" lon="-5.73644508586355"><ele>767.0</ele><time>2026-03-25T09:10:18.979Z</time></trkpt><trkpt lat="30.447389027664993" lon="-5.7363712375606815"><ele>767.0</ele><time>2026-03-25T09:10:19.979Z</time></trkpt><trkpt lat="30.447358007814827" lon="-5.736299928203671"><ele>767.0</ele><time>2026-03-25T09:10:20.979Z</time></trkpt><trkpt lat="30.447324037775935" lon="-5.736223240361867"><ele>767.0</ele><time>2026-03-25T09:10:21.979Z</time></trkpt><trkpt lat="30.447289651209392" lon="-5.736141645964003"><ele>767.0</ele><time>2026-03-25T09:10:22.979Z</time></trkpt><trkpt lat="30.44724985148288" lon="-5.736062803311471"><ele>767.0</ele><time>2026-03-25T09:10:23.979Z</time></trkpt><trkpt lat="30.44720604659662" lon="-5.735979512207009"><ele>767.0</ele><time>2026-03-25T09:10:24.979Z</time></trkpt><trkpt lat="30.447166009337426" lon="-5.735895272773842"><ele>767.0</ele><time>2026-03-25T09:10:25.979Z</time></trkpt><trkpt lat="30.447129151850987" lon="-5.735822478690075"><ele>767.0</ele><time>2026-03-25T09:10:26.979Z</time></trkpt><trkpt lat="30.447081120267242" lon="-5.735734951956372"><ele>767.0</ele><time>2026-03-25T09:10:27.979Z</time></trkpt><trkpt lat="30.447023916844564" lon="-5.73563447009598"><ele>767.0</ele><time>2026-03-25T09:10:28.979Z</time></trkpt><trkpt lat="30.446975683630445" lon="-5.735527447781505"><ele>767.0</ele><time>2026-03-25T09:10:29.979Z</time></trkpt><trkpt lat="30.446915464144677" lon="-5.735413365385062"><ele>767.0</ele><time>2026-03-25T09:10:30.979Z</time></trkpt><trkpt lat="30.44685497196588" lon="-5.735296482548821"><ele>766.0</ele><time>2026-03-25T09:10:31.979Z</time></trkpt><trkpt lat="30.446797688472333" lon="-5.735177233991573"><ele>765.0</ele><time>2026-03-25T09:10:32.979Z</time></trkpt><trkpt lat="30.44673932650471" lon="-5.735051329229407"><ele>764.0</ele><time>2026-03-25T09:10:33.979Z</time></trkpt><trkpt lat="30.44668344401841" lon="-5.734923801771496"><ele>763.0</ele><time>2026-03-25T09:10:34.979Z</time></trkpt><trkpt lat="30.44662298523411" lon="-5.734808461979792"><ele>763.0</ele><time>2026-03-25T09:10:35.979Z</time></trkpt><trkpt lat="30.44656166342284" lon="-5.734691967722366"><ele>763.0</ele><time>2026-03-25T09:10:36.979Z</time></trkpt><trkpt lat="30.44650260102924" lon="-5.734580495108353"><ele>763.0</ele><time>2026-03-25T09:10:37.979Z</time></trkpt><trkpt lat="30.44644357054459" lon="-5.734464038623404"><ele>763.0</ele><time>2026-03-25T09:10:38.979Z</time></trkpt><trkpt lat="30.44638456653159" lon="-5.734347524809036"><ele>763.25</ele><time>2026-03-25T09:10:39.979Z</time></trkpt><trkpt lat="30.44632442796317" lon="-5.73423568444559"><ele>763.5</ele><time>2026-03-25T09:10:40.979Z</time></trkpt><trkpt lat="30.44627007959877" lon="-5.734123743479706"><ele>763.75</ele><time>2026-03-25T09:10:41.979Z</time></trkpt><trkpt lat="30.446216944880167" lon="-5.73401033880528"><ele>764.0</ele><time>2026-03-25T09:10:42.979Z</time></trkpt><trkpt lat="30.446153641238148" lon="-5.733883434051442"><ele>764.0</ele><time>2026-03-25T09:10:43.979Z</time></trkpt><trkpt lat="30.446104492154685" lon="-5.7337698361306595"><ele>764.0</ele><time>2026-03-25T09:10:44.979Z</time></trkpt><trkpt lat="30.44604734449746" lon="-5.733652222384764"><ele>764.0</ele><time>2026-03-25T09:10:45.979Z</time></trkpt><trkpt lat="30.445994309901753" lon="-5.733538314973463"><ele>764.0</ele><time>2026-03-25T09:10:46.979Z</time></trkpt><trkpt lat="30.44594752059542" lon="-5.733424217042704"><ele>764.0</ele><time>2026-03-25T09:10:47.979Z</time></trkpt><trkpt lat="30.44588872927101" lon="-5.733315287470122"><ele>764.0</ele><time>2026-03-25T09:10:48.979Z</time></trkpt><trkpt lat="30.44583224820793" lon="-5.733224385838494"><ele>764.0</ele><time>2026-03-25T09:10:49.979Z</time></trkpt><trkpt lat="30.44579068291569" lon="-5.733141144394332"><ele>764.0</ele><time>2026-03-25T09:10:50.979Z</time></trkpt><trkpt lat="30.445749376813186" lon="-5.733072602819423"><ele>764.0</ele><time>2026-03-25T09:10:51.979Z</time></trkpt><trkpt lat="30.445714084531204" lon="-5.733011247867257"><ele>764.0</ele><time>2026-03-25T09:10:52.979Z</time></trkpt><trkpt lat="30.445674332964206" lon="-5.73294792628662"><ele>764.0</ele><time>2026-03-25T09:10:53.979Z</time></trkpt><trkpt lat="30.44562728693392" lon="-5.7328681730572155"><ele>764.0</ele><time>2026-03-25T09:10:54.979Z</time></trkpt><trkpt lat="30.445589069576585" lon="-5.732781231330727"><ele>764.0</ele><time>2026-03-25T09:10:55.979Z</time></trkpt><trkpt lat="30.445541275005798" lon="-5.732696776196843"><ele>764.0</ele><time>2026-03-25T09:10:56.979Z</time></trkpt><trkpt lat="30.445498674258847" lon="-5.732604888181507"><ele>764.0</ele><time>2026-03-25T09:10:57.979Z</time></trkpt><trkpt lat="30.445443781404627" lon="-5.7325162326567085"><ele>764.0</ele><time>2026-03-25T09:10:58.979Z</time></trkpt><trkpt lat="30.44539244429541" lon="-5.732432752447623"><ele>764.0</ele><time>2026-03-25T09:10:59.979Z</time></trkpt><trkpt lat="30.445347788372363" lon="-5.732362363047619"><ele>764.4000000000001</ele><time>2026-03-25T09:11:00.979Z</time></trkpt><trkpt lat="30.445307179925113" lon="-5.732302596485311"><ele>764.8</ele><time>2026-03-25T09:11:01.979Z</time></trkpt><trkpt lat="30.44522211925565" lon="-5.732153798033435"><ele>765.2</ele><time>2026-03-25T09:11:03.979Z</time></trkpt><trkpt lat="30.44516868540911" lon="-5.732051672517349"><ele>765.5999999999999</ele><time>2026-03-25T09:11:04.979Z</time></trkpt><trkpt lat="30.445107549351505" lon="-5.7319379127848435"><ele>766.0</ele><time>2026-03-25T09:11:05.979Z</time></trkpt><trkpt lat="30.445047390645716" lon="-5.731820670607996"><ele>766.25</ele><time>2026-03-25T09:11:06.979Z</time></trkpt><trkpt lat="30.444980765220254" lon="-5.731698786152541"><ele>766.5</ele><time>2026-03-25T09:11:07.979Z</time></trkpt><trkpt lat="30.444903897807496" lon="-5.73156564267118"><ele>766.75</ele><time>2026-03-25T09:11:08.979Z</time></trkpt><trkpt lat="30.44483135716285" lon="-5.731430261316834"><ele>767.0</ele><time>2026-03-25T09:11:09.979Z</time></trkpt><trkpt lat="30.444748359573733" lon="-5.731282844136707"><ele>767.0</ele><time>2026-03-25T09:11:10.979Z</time></trkpt><trkpt lat="30.44465610999553" lon="-5.731124420011864"><ele>767.0</ele><time>2026-03-25T09:11:11.979Z</time></trkpt><trkpt lat="30.444558297618606" lon="-5.730955494589351"><ele>767.0</ele><time>2026-03-25T09:11:12.979Z</time></trkpt><trkpt lat="30.44446155314534" lon="-5.7307859962027115"><ele>767.8</ele><time>2026-03-25T09:11:13.979Z</time></trkpt><trkpt lat="30.444390970997155" lon="-5.730671221788087"><ele>768.6</ele><time>2026-03-25T09:11:14.979Z</time></trkpt><trkpt lat="30.444344685545346" lon="-5.730601580417359"><ele>769.4</ele><time>2026-03-25T09:11:15.979Z</time></trkpt><trkpt lat="30.444307917565315" lon="-5.730535817387823"><ele>770.1999999999999</ele><time>2026-03-25T09:11:16.979Z</time></trkpt><trkpt lat="30.444255208083938" lon="-5.730450440182203"><ele>771.0</ele><time>2026-03-25T09:11:18.979Z</time></trkpt><trkpt lat="30.44427565984544" lon="-5.730329488637702"><ele>771.0</ele><time>2026-03-25T09:11:30.979Z</time></trkpt><trkpt lat="30.444338082525533" lon="-5.730261587914497"><ele>771.0</ele><time>2026-03-25T09:11:31.979Z</time></trkpt><trkpt lat="30.44442426777677" lon="-5.730200940843147"><ele>771.0</ele><time>2026-03-25T09:11:32.979Z</time></trkpt><trkpt lat="30.444520931156603" lon="-5.730146272771005"><ele>771.0</ele><time>2026-03-25T09:11:33.979Z</time></trkpt><trkpt lat="30.44463215405387" lon="-5.730081446354154"><ele>771.0</ele><time>2026-03-25T09:11:34.979Z</time></trkpt><trkpt lat="30.444752158066738" lon="-5.730012845171428"><ele>771.0</ele><time>2026-03-25T09:11:35.979Z</time></trkpt><trkpt lat="30.444877490762646" lon="-5.729941653736289"><ele>771.0</ele><time>2026-03-25T09:11:36.979Z</time></trkpt><trkpt lat="30.44500735540264" lon="-5.729855403996911"><ele>771.0</ele><time>2026-03-25T09:11:37.979Z</time></trkpt><trkpt lat="30.445143937819505" lon="-5.729766846532635"><ele>771.0</ele><time>2026-03-25T09:11:38.979Z</time></trkpt><trkpt lat="30.445270619864118" lon="-5.729689433346843"><ele>771.0</ele><time>2026-03-25T09:11:39.979Z</time></trkpt><trkpt lat="30.445381770191883" lon="-5.729620481619235"><ele>771.0</ele><time>2026-03-25T09:11:40.979Z</time></trkpt><trkpt lat="30.445483305708144" lon="-5.729562832965214"><ele>771.0</ele><time>2026-03-25T09:11:41.979Z</time></trkpt><trkpt lat="30.44557929831455" lon="-5.729500947553231"><ele>771.0</ele><time>2026-03-25T09:11:42.979Z</time></trkpt><trkpt lat="30.445690385758056" lon="-5.729434045576428"><ele>771.5</ele><time>2026-03-25T09:11:43.979Z</time></trkpt><trkpt lat="30.44580475070898" lon="-5.729367408647803"><ele>772.0</ele><time>2026-03-25T09:11:44.979Z</time></trkpt><trkpt lat="30.445922428720134" lon="-5.729295561315482"><ele>772.5</ele><time>2026-03-25T09:11:45.979Z</time></trkpt><trkpt lat="30.44604420392115" lon="-5.729222939264969"><ele>773.0</ele><time>2026-03-25T09:11:46.979Z</time></trkpt><trkpt lat="30.446164410068825" lon="-5.729147064650418"><ele>773.0</ele><time>2026-03-25T09:11:47.979Z</time></trkpt><trkpt lat="30.446289738479166" lon="-5.729068057896576"><ele>773.0</ele><time>2026-03-25T09:11:48.979Z</time></trkpt><trkpt lat="30.446415388391355" lon="-5.728992152275332"><ele>773.0</ele><time>2026-03-25T09:11:49.979Z</time></trkpt><trkpt lat="30.44654335583315" lon="-5.728915614835676"><ele>773.0</ele><time>2026-03-25T09:11:50.979Z</time></trkpt><trkpt lat="30.44667376321678" lon="-5.728831731740148"><ele>772.0</ele><time>2026-03-25T09:11:51.979Z</time></trkpt><trkpt lat="30.446807442090304" lon="-5.728749328215616"><ele>771.0</ele><time>2026-03-25T09:11:52.979Z</time></trkpt><trkpt lat="30.44694069552417" lon="-5.728666951033929"><ele>770.0</ele><time>2026-03-25T09:11:53.979Z</time></trkpt><trkpt lat="30.44707452387797" lon="-5.728580435732103"><ele>770.3333333333334</ele><time>2026-03-25T09:11:54.979Z</time></trkpt><trkpt lat="30.44721174942273" lon="-5.728499294621528"><ele>770.6666666666667</ele><time>2026-03-25T09:11:55.979Z</time></trkpt><trkpt lat="30.447350558465303" lon="-5.728417070260396"><ele>771.0</ele><time>2026-03-25T09:11:56.979Z</time></trkpt><trkpt lat="30.44748629567538" lon="-5.728329817020421"><ele>771.0</ele><time>2026-03-25T09:11:57.979Z</time></trkpt><trkpt lat="30.447619983559196" lon="-5.728243886197617"><ele>771.0</ele><time>2026-03-25T09:11:58.979Z</time></trkpt><trkpt lat="30.447757938337375" lon="-5.728160912874837"><ele>771.0</ele><time>2026-03-25T09:11:59.979Z</time></trkpt><trkpt lat="30.44789744666626" lon="-5.728069485494644"><ele>771.3333333333333</ele><time>2026-03-25T09:12:00.979Z</time></trkpt><trkpt lat="30.44803788020819" lon="-5.727982441956613"><ele>771.6666666666666</ele><time>2026-03-25T09:12:01.979Z</time></trkpt><trkpt lat="30.448177595726875" lon="-5.727897084846057"><ele>772.0</ele><time>2026-03-25T09:12:02.979Z</time></trkpt><trkpt lat="30.448315654918186" lon="-5.727812599643039"><ele>772.0</ele><time>2026-03-25T09:12:03.979Z</time></trkpt><trkpt lat="30.448452153337733" lon="-5.727730088193405"><ele>772.0</ele><time>2026-03-25T09:12:04.979Z</time></trkpt><trkpt lat="30.448585017330508" lon="-5.727645364321638"><ele>772.0</ele><time>2026-03-25T09:12:05.979Z</time></trkpt><trkpt lat="30.44871945710718" lon="-5.727562710276275"><ele>773.3333333333333</ele><time>2026-03-25T09:12:06.979Z</time></trkpt><trkpt lat="30.448853463454643" lon="-5.727480163683778"><ele>774.6666666666667</ele><time>2026-03-25T09:12:07.979Z</time></trkpt><trkpt lat="30.448991705619385" lon="-5.727397647399284"><ele>776.0</ele><time>2026-03-25T09:12:08.979Z</time></trkpt><trkpt lat="30.449129845384405" lon="-5.727307440505078"><ele>776.0</ele><time>2026-03-25T09:12:09.979Z</time></trkpt><trkpt lat="30.449267925593094" lon="-5.727220896069883"><ele>776.0</ele><time>2026-03-25T09:12:10.979Z</time></trkpt><trkpt lat="30.449407719642306" lon="-5.727136500292157"><ele>776.0</ele><time>2026-03-25T09:12:11.979Z</time></trkpt><trkpt lat="30.44954716627579" lon="-5.727049475161025"><ele>775.0</ele><time>2026-03-25T09:12:12.979Z</time></trkpt><trkpt lat="30.44968766481434" lon="-5.7269607151119715"><ele>774.0</ele><time>2026-03-25T09:12:13.979Z</time></trkpt><trkpt lat="30.449829379442463" lon="-5.726871640953504"><ele>773.0</ele><time>2026-03-25T09:12:14.979Z</time></trkpt><trkpt lat="30.449972329807096" lon="-5.726786717282141"><ele>773.0</ele><time>2026-03-25T09:12:15.979Z</time></trkpt><trkpt lat="30.450117706301064" lon="-5.726687911466189"><ele>773.0</ele><time>2026-03-25T09:12:16.979Z</time></trkpt><trkpt lat="30.450265459704454" lon="-5.726598364296431"><ele>773.0</ele><time>2026-03-25T09:12:17.979Z</time></trkpt><trkpt lat="30.450412671060242" lon="-5.726505680550118"><ele>773.3333333333334</ele><time>2026-03-25T09:12:18.979Z</time></trkpt><trkpt lat="30.45056257852811" lon="-5.726413454206755"><ele>773.6666666666667</ele><time>2026-03-25T09:12:19.979Z</time></trkpt><trkpt lat="30.450711691658842" lon="-5.726327210167921"><ele>774.0</ele><time>2026-03-25T09:12:20.979Z</time></trkpt><trkpt lat="30.45086176745753" lon="-5.726231660003661"><ele>774.0</ele><time>2026-03-25T09:12:21.979Z</time></trkpt><trkpt lat="30.45101013556571" lon="-5.726139827329856"><ele>774.0</ele><time>2026-03-25T09:12:22.979Z</time></trkpt><trkpt lat="30.45116214410488" lon="-5.7260472388957675"><ele>774.0</ele><time>2026-03-25T09:12:23.979Z</time></trkpt><trkpt lat="30.451318558488623" lon="-5.725946383872688"><ele>775.3333333333333</ele><time>2026-03-25T09:12:24.979Z</time></trkpt><trkpt lat="30.451475064139224" lon="-5.725849224987574"><ele>776.6666666666666</ele><time>2026-03-25T09:12:25.979Z</time></trkpt><trkpt lat="30.451636801525417" lon="-5.725750190325991"><ele>778.0</ele><time>2026-03-25T09:12:26.979Z</time></trkpt><trkpt lat="30.45178781698672" lon="-5.725652819857827"><ele>778.0</ele><time>2026-03-25T09:12:27.979Z</time></trkpt><trkpt lat="30.45194348331569" lon="-5.7255560131362815"><ele>778.0</ele><time>2026-03-25T09:12:28.979Z</time></trkpt><trkpt lat="30.45209910194468" lon="-5.725462211862037"><ele>778.0</ele><time>2026-03-25T09:12:29.979Z</time></trkpt><trkpt lat="30.45225587389049" lon="-5.725362485012074"><ele>776.6666666666666</ele><time>2026-03-25T09:12:30.979Z</time></trkpt><trkpt lat="30.452414080299782" lon="-5.725267122940469"><ele>775.3333333333333</ele><time>2026-03-25T09:12:31.979Z</time></trkpt><trkpt lat="30.45256916141836" lon="-5.725170076859563"><ele>774.0</ele><time>2026-03-25T09:12:32.979Z</time></trkpt><trkpt lat="30.452722488504396" lon="-5.72507080226075"><ele>774.0</ele><time>2026-03-25T09:12:33.979Z</time></trkpt><trkpt lat="30.452876873892524" lon="-5.724976953021645"><ele>774.0</ele><time>2026-03-25T09:12:34.979Z</time></trkpt><trkpt lat="30.453035200939468" lon="-5.724885566981745"><ele>774.0</ele><time>2026-03-25T09:12:35.979Z</time></trkpt><trkpt lat="30.453191166060726" lon="-5.724801711770295"><ele>774.3333333333333</ele><time>2026-03-25T09:12:36.979Z</time></trkpt><trkpt lat="30.45335061268539" lon="-5.724722606134681"><ele>774.6666666666666</ele><time>2026-03-25T09:12:37.979Z</time></trkpt><trkpt lat="30.453513384633407" lon="-5.724636876886775"><ele>775.0</ele><time>2026-03-25T09:12:38.979Z</time></trkpt><trkpt lat="30.45367618873549" lon="-5.724553939860426"><ele>775.6666666666666</ele><time>2026-03-25T09:12:39.979Z</time></trkpt><trkpt lat="30.453835831754684" lon="-5.7244728640065565"><ele>776.3333333333333</ele><time>2026-03-25T09:12:40.979Z</time></trkpt><trkpt lat="30.454000936022457" lon="-5.724394759894623"><ele>777.0</ele><time>2026-03-25T09:12:41.979Z</time></trkpt><trkpt lat="30.45416414821083" lon="-5.724309926998966"><ele>777.0</ele><time>2026-03-25T09:12:42.979Z</time></trkpt><trkpt lat="30.454325372325354" lon="-5.724222907456793"><ele>777.0</ele><time>2026-03-25T09:12:43.979Z</time></trkpt><trkpt lat="30.454483989003382" lon="-5.72413943798814"><ele>777.0</ele><time>2026-03-25T09:12:44.979Z</time></trkpt><trkpt lat="30.454643799342143" lon="-5.724057013171678"><ele>776.6666666666667</ele><time>2026-03-25T09:12:45.979Z</time></trkpt><trkpt lat="30.45480780167153" lon="-5.723977008998824"><ele>776.3333333333334</ele><time>2026-03-25T09:12:46.979Z</time></trkpt><trkpt lat="30.454966277167987" lon="-5.723896159891053"><ele>776.0</ele><time>2026-03-25T09:12:47.979Z</time></trkpt><trkpt lat="30.455127364638294" lon="-5.723814183619077"><ele>776.0</ele><time>2026-03-25T09:12:48.979Z</time></trkpt><trkpt lat="30.455290793656044" lon="-5.7237347376855725"><ele>776.0</ele><time>2026-03-25T09:12:49.979Z</time></trkpt><trkpt lat="30.455451714447854" lon="-5.723647449359986"><ele>776.0</ele><time>2026-03-25T09:12:50.979Z</time></trkpt><trkpt lat="30.455609583330617" lon="-5.723566834480091"><ele>777.0</ele><time>2026-03-25T09:12:51.979Z</time></trkpt><trkpt lat="30.455766738891697" lon="-5.723485130934595"><ele>778.0</ele><time>2026-03-25T09:12:52.979Z</time></trkpt><trkpt lat="30.455923816943365" lon="-5.72340478857574"><ele>779.0</ele><time>2026-03-25T09:12:53.979Z</time></trkpt><trkpt lat="30.45608208738746" lon="-5.72332410803461"><ele>779.0</ele><time>2026-03-25T09:12:54.979Z</time></trkpt><trkpt lat="30.456245338103916" lon="-5.723241696118905"><ele>779.0</ele><time>2026-03-25T09:12:55.979Z</time></trkpt><trkpt lat="30.456410565079448" lon="-5.723155436269941"><ele>779.0</ele><time>2026-03-25T09:12:56.979Z</time></trkpt><trkpt lat="30.456574305793147" lon="-5.723071701471145"><ele>779.3333333333334</ele><time>2026-03-25T09:12:57.979Z</time></trkpt><trkpt lat="30.456738023709633" lon="-5.722993383803491"><ele>779.6666666666667</ele><time>2026-03-25T09:12:58.979Z</time></trkpt><trkpt lat="30.456900138285736" lon="-5.72291819690323"><ele>780.0</ele><time>2026-03-25T09:12:59.979Z</time></trkpt><trkpt lat="30.45704842275169" lon="-5.722848722599939"><ele>780.25</ele><time>2026-03-25T09:13:00.979Z</time></trkpt><trkpt lat="30.457176786042663" lon="-5.722789177803962"><ele>780.5</ele><time>2026-03-25T09:13:01.979Z</time></trkpt><trkpt lat="30.457297655141208" lon="-5.722722569179371"><ele>780.75</ele><time>2026-03-25T09:13:02.979Z</time></trkpt><trkpt lat="30.457424179081233" lon="-5.722654089969659"><ele>781.0</ele><time>2026-03-25T09:13:03.979Z</time></trkpt><trkpt lat="30.45755471927777" lon="-5.722587559982834"><ele>781.0</ele><time>2026-03-25T09:13:04.979Z</time></trkpt><trkpt lat="30.45769380848499" lon="-5.722518500318465"><ele>781.0</ele><time>2026-03-25T09:13:05.979Z</time></trkpt><trkpt lat="30.457842338154904" lon="-5.7224421559320655"><ele>781.0</ele><time>2026-03-25T09:13:06.979Z</time></trkpt><trkpt lat="30.45800039538088" lon="-5.72236057638071"><ele>780.3333333333333</ele><time>2026-03-25T09:13:07.979Z</time></trkpt><trkpt lat="30.458169035122758" lon="-5.722271022633779"><ele>779.6666666666667</ele><time>2026-03-25T09:13:08.979Z</time></trkpt><trkpt lat="30.4583484798628" lon="-5.722174067243739"><ele>779.0</ele><time>2026-03-25T09:13:09.979Z</time></trkpt><trkpt lat="30.458539726149393" lon="-5.722071996186213"><ele>779.0</ele><time>2026-03-25T09:13:10.979Z</time></trkpt><trkpt lat="30.458744177255344" lon="-5.721964803875417"><ele>779.0</ele><time>2026-03-25T09:13:11.979Z</time></trkpt><trkpt lat="30.458962183419604" lon="-5.721853329004818"><ele>780.5</ele><time>2026-03-25T09:13:12.979Z</time></trkpt><trkpt lat="30.459192796719424" lon="-5.721738477950967"><ele>782.0</ele><time>2026-03-25T09:13:13.979Z</time></trkpt><trkpt lat="30.459432442442107" lon="-5.7216156128380105"><ele>781.0</ele><time>2026-03-25T09:13:14.979Z</time></trkpt><trkpt lat="30.459674131000067" lon="-5.7214919387238"><ele>780.0</ele><time>2026-03-25T09:13:15.979Z</time></trkpt><trkpt lat="30.45992277447496" lon="-5.721368767557574"><ele>780.0</ele><time>2026-03-25T09:13:16.979Z</time></trkpt><trkpt lat="30.460182139858183" lon="-5.721238203084726"><ele>780.0</ele><time>2026-03-25T09:13:17.979Z</time></trkpt><trkpt lat="30.46044991557593" lon="-5.721099931486378"><ele>782.0</ele><time>2026-03-25T09:13:18.979Z</time></trkpt><trkpt lat="30.4607245973917" lon="-5.7209601406592405"><ele>784.0</ele><time>2026-03-25T09:13:19.979Z</time></trkpt><trkpt lat="30.46100665850539" lon="-5.720816898268377"><ele>784.0</ele><time>2026-03-25T09:13:20.979Z</time></trkpt><trkpt lat="30.461282198342655" lon="-5.720678166047199"><ele>784.0</ele><time>2026-03-25T09:13:21.978Z</time></trkpt><trkpt lat="30.461527801606145" lon="-5.720564668429469"><ele>783.0</ele><time>2026-03-25T09:13:22.978Z</time></trkpt><trkpt lat="30.461773358595334" lon="-5.720454295268211"><ele>782.0</ele><time>2026-03-25T09:13:23.978Z</time></trkpt><trkpt lat="30.462037075344984" lon="-5.720355499243976"><ele>783.0</ele><time>2026-03-25T09:13:24.978Z</time></trkpt><trkpt lat="30.4623129536123" lon="-5.720266819666513"><ele>784.0</ele><time>2026-03-25T09:13:25.978Z</time></trkpt><trkpt lat="30.462600497559645" lon="-5.720183146565438"><ele>784.5</ele><time>2026-03-25T09:13:26.978Z</time></trkpt><trkpt lat="30.46289756374167" lon="-5.720100334874672"><ele>785.0</ele><time>2026-03-25T09:13:27.978Z</time></trkpt><trkpt lat="30.463204830581798" lon="-5.720017282036384"><ele>785.5</ele><time>2026-03-25T09:13:28.978Z</time></trkpt><trkpt lat="30.463517895890604" lon="-5.719942332564122"><ele>786.0</ele><time>2026-03-25T09:13:29.978Z</time></trkpt><trkpt lat="30.463799425191265" lon="-5.719873334664083"><ele>786.0</ele><time>2026-03-25T09:13:30.978Z</time></trkpt><trkpt lat="30.46404832113232" lon="-5.719811652647008"><ele>786.0</ele><time>2026-03-25T09:13:31.978Z</time></trkpt><trkpt lat="30.46429065034283" lon="-5.719749613225188"><ele>786.0</ele><time>2026-03-25T09:13:32.978Z</time></trkpt><trkpt lat="30.46453249604962" lon="-5.719682503706944"><ele>786.0</ele><time>2026-03-25T09:13:33.978Z</time></trkpt><trkpt lat="30.46477070576242" lon="-5.71961537992638"><ele>786.5</ele><time>2026-03-25T09:13:34.978Z</time></trkpt><trkpt lat="30.465006361276146" lon="-5.719549794255813"><ele>787.0</ele><time>2026-03-25T09:13:35.978Z</time></trkpt><trkpt lat="30.465234127900757" lon="-5.719484953270391"><ele>787.0</ele><time>2026-03-25T09:13:36.978Z</time></trkpt><trkpt lat="30.465459823014815" lon="-5.719425832662229"><ele>787.0</ele><time>2026-03-25T09:13:37.978Z</time></trkpt><trkpt lat="30.465672302437717" lon="-5.719346531992119"><ele>786.6666666666666</ele><time>2026-03-25T09:13:38.978Z</time></trkpt><trkpt lat="30.46587152625307" lon="-5.719300480764156"><ele>786.3333333333333</ele><time>2026-03-25T09:13:39.978Z</time></trkpt><trkpt lat="30.466060444097923" lon="-5.719274993962354"><ele>786.0</ele><time>2026-03-25T09:13:40.978Z</time></trkpt><trkpt lat="30.466233193145115" lon="-5.719233709148082"><ele>786.0</ele><time>2026-03-25T09:13:41.978Z</time></trkpt><trkpt lat="30.466404221337967" lon="-5.719194856251046"><ele>786.0</ele><time>2026-03-25T09:13:42.978Z</time></trkpt><trkpt lat="30.4665786035102" lon="-5.719162917130595"><ele>786.0</ele><time>2026-03-25T09:13:43.978Z</time></trkpt><trkpt lat="30.46675585510664" lon="-5.719128663994451"><ele>786.0</ele><time>2026-03-25T09:13:44.978Z</time></trkpt><trkpt lat="30.466929669314784" lon="-5.719096173809262"><ele>786.0</ele><time>2026-03-25T09:13:45.978Z</time></trkpt><trkpt lat="30.46707991591867" lon="-5.719076692443924"><ele>786.0</ele><time>2026-03-25T09:13:46.978Z</time></trkpt><trkpt lat="30.467215510912833" lon="-5.7190570886025425"><ele>786.4</ele><time>2026-03-25T09:13:47.978Z</time></trkpt><trkpt lat="30.467340246444525" lon="-5.719038767936914"><ele>786.8</ele><time>2026-03-25T09:13:48.978Z</time></trkpt><trkpt lat="30.467451102401817" lon="-5.719022121538919"><ele>787.1999999999999</ele><time>2026-03-25T09:13:49.978Z</time></trkpt><trkpt lat="30.46753486128351" lon="-5.719008541678134"><ele>787.5999999999999</ele><time>2026-03-25T09:13:50.978Z</time></trkpt><trkpt lat="30.46760824760876" lon="-5.718985139962587"><ele>788.0</ele><time>2026-03-25T09:13:51.978Z</time></trkpt><trkpt lat="30.467679111856658" lon="-5.7189727108152"><ele>788.0000000000001</ele><time>2026-03-25T09:13:52.978Z</time></trkpt><trkpt lat="30.467751783786007" lon="-5.718980003295724"><ele>788.0</ele><time>2026-03-25T09:13:53.978Z</time></trkpt><trkpt lat="30.467814996566812" lon="-5.718969049740113"><ele>788.0</ele><time>2026-03-25T09:13:54.978Z</time></trkpt><trkpt lat="30.467901079241933" lon="-5.718953852905728"><ele>788.0</ele><time>2026-03-25T09:13:56.978Z</time></trkpt><trkpt lat="30.467972473298758" lon="-5.718959804741649"><ele>788.0000000000001</ele><time>2026-03-25T09:13:59.978Z</time></trkpt><trkpt lat="30.467991134902555" lon="-5.71906307597786"><ele>788.0</ele><time>2026-03-25T09:14:03.978Z</time></trkpt><trkpt lat="30.467919898850525" lon="-5.719115471961813"><ele>788.0</ele><time>2026-03-25T09:14:06.978Z</time></trkpt><trkpt lat="30.467861878866678" lon="-5.71907939371075"><ele>788.0</ele><time>2026-03-25T09:14:08.979Z</time></trkpt><trkpt lat="30.467789390470003" lon="-5.718967760882435"><ele>788.0</ele><time>2026-03-25T09:14:10.979Z</time></trkpt><trkpt lat="30.46773878214479" lon="-5.718890524071761"><ele>788.0</ele><time>2026-03-25T09:14:11.978Z</time></trkpt><trkpt lat="30.46769795849714" lon="-5.71879276082901"><ele>788.0</ele><time>2026-03-25T09:14:12.979Z</time></trkpt><trkpt lat="30.467669577949007" lon="-5.718689280188616"><ele>788.0</ele><time>2026-03-25T09:14:13.979Z</time></trkpt><trkpt lat="30.467649236202256" lon="-5.718589860915644"><ele>788.0</ele><time>2026-03-25T09:14:14.979Z</time></trkpt><trkpt lat="30.467623690068457" lon="-5.718480043305196"><ele>788.0</ele><time>2026-03-25T09:14:15.978Z</time></trkpt><trkpt lat="30.467596270299197" lon="-5.718361244105752"><ele>788.0</ele><time>2026-03-25T09:14:16.978Z</time></trkpt><trkpt lat="30.46757275298979" lon="-5.7182612552483185"><ele>788.0</ele><time>2026-03-25T09:14:17.979Z</time></trkpt><trkpt lat="30.467545956522294" lon="-5.718156535750652"><ele>788.4</ele><time>2026-03-25T09:14:18.979Z</time></trkpt><trkpt lat="30.467515900375563" lon="-5.718056915385699"><ele>788.8</ele><time>2026-03-25T09:14:19.979Z</time></trkpt><trkpt lat="30.467484926446268" lon="-5.71795949193177"><ele>789.2</ele><time>2026-03-25T09:14:20.979Z</time></trkpt><trkpt lat="30.467453127537436" lon="-5.717860058182218"><ele>789.6</ele><time>2026-03-25T09:14:21.979Z</time></trkpt><trkpt lat="30.46741305585605" lon="-5.7177494371020074"><ele>790.0</ele><time>2026-03-25T09:14:22.979Z</time></trkpt><trkpt lat="30.46738230488755" lon="-5.71762073705407"><ele>790.25</ele><time>2026-03-25T09:14:23.979Z</time></trkpt><trkpt lat="30.46734480646413" lon="-5.717476522101551"><ele>790.5</ele><time>2026-03-25T09:14:24.979Z</time></trkpt><trkpt lat="30.467305266918896" lon="-5.717326252006963"><ele>790.75</ele><time>2026-03-25T09:14:25.979Z</time></trkpt><trkpt lat="30.467260484418013" lon="-5.717158033062867"><ele>791.0</ele><time>2026-03-25T09:14:26.979Z</time></trkpt><trkpt lat="30.467226811664997" lon="-5.717013228997313"><ele>790.75</ele><time>2026-03-25T09:14:27.979Z</time></trkpt><trkpt lat="30.46719274137387" lon="-5.716878225264765"><ele>790.5</ele><time>2026-03-25T09:14:28.979Z</time></trkpt><trkpt lat="30.467164059490045" lon="-5.716742732366684"><ele>790.25</ele><time>2026-03-25T09:14:29.979Z</time></trkpt><trkpt lat="30.46712665839446" lon="-5.716601531726036"><ele>790.0</ele><time>2026-03-25T09:14:30.979Z</time></trkpt><trkpt lat="30.467087132151896" lon="-5.716457262313542"><ele>789.25</ele><time>2026-03-25T09:14:31.979Z</time></trkpt><trkpt lat="30.467044537289613" lon="-5.71630333016118"><ele>788.5</ele><time>2026-03-25T09:14:32.979Z</time></trkpt><trkpt lat="30.467003371104514" lon="-5.716144493181169"><ele>787.75</ele><time>2026-03-25T09:14:33.979Z</time></trkpt><trkpt lat="30.46696109845128" lon="-5.715989332319938"><ele>787.0</ele><time>2026-03-25T09:14:34.979Z</time></trkpt><trkpt lat="30.466920646630072" lon="-5.71583251538633"><ele>787.0</ele><time>2026-03-25T09:14:35.979Z</time></trkpt><trkpt lat="30.466878856049533" lon="-5.715669130236873"><ele>787.0</ele><time>2026-03-25T09:14:36.979Z</time></trkpt><trkpt lat="30.466837472981506" lon="-5.715516885260054"><ele>787.0</ele><time>2026-03-25T09:14:37.979Z</time></trkpt><trkpt lat="30.46679654878506" lon="-5.715368797068287"><ele>787.0</ele><time>2026-03-25T09:14:38.979Z</time></trkpt><trkpt lat="30.466758239466962" lon="-5.715222482438169"><ele>786.5</ele><time>2026-03-25T09:14:39.979Z</time></trkpt><trkpt lat="30.466722731857118" lon="-5.71508027329982"><ele>786.0</ele><time>2026-03-25T09:14:40.979Z</time></trkpt><trkpt lat="30.466691573179006" lon="-5.714934980858718"><ele>785.5</ele><time>2026-03-25T09:14:41.979Z</time></trkpt><trkpt lat="30.46665974320954" lon="-5.7147850251289"><ele>785.0</ele><time>2026-03-25T09:14:42.979Z</time></trkpt><trkpt lat="30.46662118895202" lon="-5.714632050475802"><ele>785.0</ele><time>2026-03-25T09:14:43.979Z</time></trkpt><trkpt lat="30.466576188148693" lon="-5.714482221559565"><ele>785.0</ele><time>2026-03-25T09:14:44.979Z</time></trkpt><trkpt lat="30.46653892764479" lon="-5.714337306603619"><ele>785.0</ele><time>2026-03-25T09:14:45.979Z</time></trkpt><trkpt lat="30.466504880373222" lon="-5.714184905109126"><ele>785.0</ele><time>2026-03-25T09:14:46.979Z</time></trkpt><trkpt lat="30.46646502288826" lon="-5.714026610240586"><ele>786.0</ele><time>2026-03-25T09:14:47.979Z</time></trkpt><trkpt lat="30.46641910967587" lon="-5.713856737797888"><ele>787.0</ele><time>2026-03-25T09:14:48.979Z</time></trkpt><trkpt lat="30.466371684073444" lon="-5.713679995099972"><ele>788.0</ele><time>2026-03-25T09:14:49.979Z</time></trkpt><trkpt lat="30.466325502384557" lon="-5.713513268815289"><ele>788.25</ele><time>2026-03-25T09:14:50.979Z</time></trkpt><trkpt lat="30.46628227723193" lon="-5.713351218233656"><ele>788.5</ele><time>2026-03-25T09:14:51.979Z</time></trkpt><trkpt lat="30.466237620568585" lon="-5.713187238026242"><ele>788.75</ele><time>2026-03-25T09:14:52.979Z</time></trkpt><trkpt lat="30.466195903276173" lon="-5.713024272675071"><ele>789.0</ele><time>2026-03-25T09:14:53.979Z</time></trkpt><trkpt lat="30.466155320063912" lon="-5.712861293033097"><ele>787.6666666666667</ele><time>2026-03-25T09:14:54.979Z</time></trkpt><trkpt lat="30.46611297649084" lon="-5.712695463905879"><ele>786.3333333333334</ele><time>2026-03-25T09:14:55.979Z</time></trkpt><trkpt lat="30.4660683977948" lon="-5.712522207289691"><ele>785.0</ele><time>2026-03-25T09:14:56.979Z</time></trkpt><trkpt lat="30.466019300089865" lon="-5.712341931801674"><ele>785.0</ele><time>2026-03-25T09:14:57.979Z</time></trkpt><trkpt lat="30.46597095149742" lon="-5.712161085559439"><ele>785.0</ele><time>2026-03-25T09:14:58.979Z</time></trkpt><trkpt lat="30.465926902263345" lon="-5.711982119072408"><ele>785.0</ele><time>2026-03-25T09:14:59.979Z</time></trkpt><trkpt lat="30.465875327238606" lon="-5.711810924922156"><ele>785.0</ele><time>2026-03-25T09:15:00.979Z</time></trkpt><trkpt lat="30.465836559051514" lon="-5.711656276385487"><ele>785.0</ele><time>2026-03-25T09:15:01.979Z</time></trkpt><trkpt lat="30.46580180500414" lon="-5.7115209513058"><ele>785.0</ele><time>2026-03-25T09:15:02.979Z</time></trkpt><trkpt lat="30.46576494182406" lon="-5.711391946257712"><ele>785.0</ele><time>2026-03-25T09:15:03.979Z</time></trkpt><trkpt lat="30.465732364561312" lon="-5.711260449022029"><ele>785.0</ele><time>2026-03-25T09:15:04.979Z</time></trkpt><trkpt lat="30.465695757007225" lon="-5.711122797184467"><ele>785.0</ele><time>2026-03-25T09:15:05.979Z</time></trkpt><trkpt lat="30.465655414369014" lon="-5.7109783612122484"><ele>785.0</ele><time>2026-03-25T09:15:06.979Z</time></trkpt><trkpt lat="30.4656154554958" lon="-5.710826929689077"><ele>785.0</ele><time>2026-03-25T09:15:07.979Z</time></trkpt><trkpt lat="30.465571687418073" lon="-5.710661101429234"><ele>784.75</ele><time>2026-03-25T09:15:08.979Z</time></trkpt><trkpt lat="30.46552361573502" lon="-5.7104890199178575"><ele>784.5</ele><time>2026-03-25T09:15:09.979Z</time></trkpt><trkpt lat="30.465482637652016" lon="-5.710330683677973"><ele>784.25</ele><time>2026-03-25T09:15:10.979Z</time></trkpt><trkpt lat="30.465440687568172" lon="-5.710177980548361"><ele>784.0</ele><time>2026-03-25T09:15:11.979Z</time></trkpt><trkpt lat="30.465402092224043" lon="-5.710026481594925"><ele>783.6666666666666</ele><time>2026-03-25T09:15:12.979Z</time></trkpt><trkpt lat="30.465359736368274" lon="-5.709858643502737"><ele>783.3333333333333</ele><time>2026-03-25T09:15:13.979Z</time></trkpt><trkpt lat="30.465315633830834" lon="-5.70969058924191"><ele>783.0</ele><time>2026-03-25T09:15:14.979Z</time></trkpt><trkpt lat="30.4652714172346" lon="-5.709511983058295"><ele>783.3333333333333</ele><time>2026-03-25T09:15:15.979Z</time></trkpt><trkpt lat="30.465220870684654" lon="-5.70932312093489"><ele>783.6666666666666</ele><time>2026-03-25T09:15:16.979Z</time></trkpt><trkpt lat="30.46516983083286" lon="-5.7091507895041795"><ele>784.0</ele><time>2026-03-25T09:15:17.979Z</time></trkpt><trkpt lat="30.465125528851182" lon="-5.708977723634092"><ele>784.0</ele><time>2026-03-25T09:15:18.979Z</time></trkpt><trkpt lat="30.4650805792049" lon="-5.70880131590314"><ele>784.0</ele><time>2026-03-25T09:15:19.979Z</time></trkpt><trkpt lat="30.465041088560152" lon="-5.708645064704333"><ele>784.0</ele><time>2026-03-25T09:15:20.979Z</time></trkpt><trkpt lat="30.465000563020315" lon="-5.708492333990695"><ele>784.0</ele><time>2026-03-25T09:15:21.979Z</time></trkpt><trkpt lat="30.464959897750308" lon="-5.7083400197868785"><ele>783.5</ele><time>2026-03-25T09:15:22.979Z</time></trkpt><trkpt lat="30.464917377549323" lon="-5.7081762004232095"><ele>783.0</ele><time>2026-03-25T09:15:23.979Z</time></trkpt><trkpt lat="30.46487097248332" lon="-5.70801191708447"><ele>782.5</ele><time>2026-03-25T09:15:24.979Z</time></trkpt><trkpt lat="30.464825258123756" lon="-5.7078512613492265"><ele>782.0</ele><time>2026-03-25T09:15:25.979Z</time></trkpt><trkpt lat="30.46478272483809" lon="-5.7076939320285"><ele>782.0</ele><time>2026-03-25T09:15:26.979Z</time></trkpt><trkpt lat="30.46473891151098" lon="-5.707543639085719"><ele>782.0</ele><time>2026-03-25T09:15:27.978Z</time></trkpt><trkpt lat="30.464698751573177" lon="-5.7073948561826136"><ele>782.0</ele><time>2026-03-25T09:15:28.978Z</time></trkpt><trkpt lat="30.464658166235733" lon="-5.707247677751088"><ele>782.0</ele><time>2026-03-25T09:15:29.978Z</time></trkpt><trkpt lat="30.4646181683993" lon="-5.707088591333848"><ele>782.0</ele><time>2026-03-25T09:15:30.978Z</time></trkpt><trkpt lat="30.464576362176494" lon="-5.7069246013172545"><ele>782.0</ele><time>2026-03-25T09:15:31.978Z</time></trkpt><trkpt lat="30.464538627081488" lon="-5.706764580129639"><ele>782.0</ele><time>2026-03-25T09:15:32.978Z</time></trkpt><trkpt lat="30.464491000355356" lon="-5.706615192313764"><ele>782.0</ele><time>2026-03-25T09:15:33.978Z</time></trkpt><trkpt lat="30.46443835093477" lon="-5.706466512922746"><ele>782.0</ele><time>2026-03-25T09:15:34.978Z</time></trkpt><trkpt lat="30.464388605153303" lon="-5.7063161522504"><ele>782.0</ele><time>2026-03-25T09:15:35.978Z</time></trkpt><trkpt lat="30.464346166344285" lon="-5.706163483594904"><ele>782.0</ele><time>2026-03-25T09:15:36.978Z</time></trkpt><trkpt lat="30.46430988869155" lon="-5.706004525292789"><ele>782.0</ele><time>2026-03-25T09:15:37.978Z</time></trkpt><trkpt lat="30.46427244698623" lon="-5.705845876691497"><ele>783.25</ele><time>2026-03-25T09:15:38.978Z</time></trkpt><trkpt lat="30.46422227498417" lon="-5.705696705395952"><ele>784.5</ele><time>2026-03-25T09:15:39.978Z</time></trkpt><trkpt lat="30.464171093885863" lon="-5.70554529073735"><ele>785.75</ele><time>2026-03-25T09:15:40.978Z</time></trkpt><trkpt lat="30.464128909062108" lon="-5.705389298672163"><ele>787.0</ele><time>2026-03-25T09:15:41.978Z</time></trkpt><trkpt lat="30.46408051604453" lon="-5.705225498686927"><ele>787.3333333333333</ele><time>2026-03-25T09:15:42.978Z</time></trkpt><trkpt lat="30.464017746983885" lon="-5.705050397885998"><ele>787.6666666666667</ele><time>2026-03-25T09:15:43.978Z</time></trkpt><trkpt lat="30.463954598771796" lon="-5.704873308847646"><ele>788.0</ele><time>2026-03-25T09:15:44.978Z</time></trkpt><trkpt lat="30.463894139053764" lon="-5.704711236431249"><ele>788.0</ele><time>2026-03-25T09:15:45.978Z</time></trkpt><trkpt lat="30.463840348714157" lon="-5.704557671855249"><ele>788.0</ele><time>2026-03-25T09:15:46.978Z</time></trkpt><trkpt lat="30.463790314356935" lon="-5.704409356956367"><ele>788.0</ele><time>2026-03-25T09:15:47.978Z</time></trkpt><trkpt lat="30.463736919974153" lon="-5.70424913116072"><ele>788.0</ele><time>2026-03-25T09:15:48.978Z</time></trkpt><trkpt lat="30.4636749860839" lon="-5.704080521962409"><ele>787.6666666666667</ele><time>2026-03-25T09:15:49.978Z</time></trkpt><trkpt lat="30.463615497519488" lon="-5.703910925278553"><ele>787.3333333333333</ele><time>2026-03-25T09:15:50.978Z</time></trkpt><trkpt lat="30.463555185558583" lon="-5.70374226974234"><ele>787.0</ele><time>2026-03-25T09:15:51.978Z</time></trkpt><trkpt lat="30.4634884935351" lon="-5.70357235645408"><ele>787.0</ele><time>2026-03-25T09:15:52.978Z</time></trkpt><trkpt lat="30.46343119684393" lon="-5.7034036317484755"><ele>787.0</ele><time>2026-03-25T09:15:53.978Z</time></trkpt><trkpt lat="30.463376550448547" lon="-5.703240379250542"><ele>787.0</ele><time>2026-03-25T09:15:54.978Z</time></trkpt><trkpt lat="30.46332683078195" lon="-5.703089450541344"><ele>787.0</ele><time>2026-03-25T09:15:55.978Z</time></trkpt><trkpt lat="30.463269454448245" lon="-5.702928734873543"><ele>787.0</ele><time>2026-03-25T09:15:56.978Z</time></trkpt><trkpt lat="30.463207548840494" lon="-5.702760503803486"><ele>787.0</ele><time>2026-03-25T09:15:57.978Z</time></trkpt><trkpt lat="30.463146600271706" lon="-5.702587501859956"><ele>787.0</ele><time>2026-03-25T09:15:58.978Z</time></trkpt><trkpt lat="30.463088031167914" lon="-5.7024232486839175"><ele>787.0</ele><time>2026-03-25T09:15:59.978Z</time></trkpt><trkpt lat="30.463019281627805" lon="-5.702242487929294"><ele>787.0</ele><time>2026-03-25T09:16:00.978Z</time></trkpt><trkpt lat="30.462960442651003" lon="-5.702067634709781"><ele>787.0</ele><time>2026-03-25T09:16:01.978Z</time></trkpt><trkpt lat="30.462902607035375" lon="-5.701898959036151"><ele>787.0</ele><time>2026-03-25T09:16:02.978Z</time></trkpt><trkpt lat="30.462842621607127" lon="-5.701734874752975"><ele>787.0</ele><time>2026-03-25T09:16:03.978Z</time></trkpt><trkpt lat="30.462786653790367" lon="-5.701577833837616"><ele>787.0</ele><time>2026-03-25T09:16:04.978Z</time></trkpt><trkpt lat="30.46273123246854" lon="-5.701424792744848"><ele>787.0</ele><time>2026-03-25T09:16:05.978Z</time></trkpt><trkpt lat="30.4626745061405" lon="-5.70126690001827"><ele>787.0</ele><time>2026-03-25T09:16:06.978Z</time></trkpt><trkpt lat="30.46262175015808" lon="-5.7011060848667245"><ele>787.0</ele><time>2026-03-25T09:16:07.978Z</time></trkpt><trkpt lat="30.462559153671247" lon="-5.700946889801849"><ele>787.0</ele><time>2026-03-25T09:16:08.978Z</time></trkpt><trkpt lat="30.46250714764251" lon="-5.700793246246642"><ele>787.0</ele><time>2026-03-25T09:16:09.978Z</time></trkpt><trkpt lat="30.46244684680664" lon="-5.7006390443265875"><ele>787.0</ele><time>2026-03-25T09:16:10.978Z</time></trkpt><trkpt lat="30.462388129157272" lon="-5.700479056828057"><ele>787.0</ele><time>2026-03-25T09:16:11.978Z</time></trkpt><trkpt lat="30.46233539334086" lon="-5.700312199331909"><ele>787.0</ele><time>2026-03-25T09:16:12.978Z</time></trkpt><trkpt lat="30.462276049733646" lon="-5.700150620357891"><ele>787.25</ele><time>2026-03-25T09:16:13.978Z</time></trkpt><trkpt lat="30.462223383773303" lon="-5.699993472597629"><ele>787.5</ele><time>2026-03-25T09:16:14.978Z</time></trkpt><trkpt lat="30.462166529535782" lon="-5.699837891091104"><ele>787.75</ele><time>2026-03-25T09:16:15.978Z</time></trkpt><trkpt lat="30.46210592975083" lon="-5.699682874130716"><ele>788.0</ele><time>2026-03-25T09:16:16.978Z</time></trkpt><trkpt lat="30.4620497278385" lon="-5.69953053755607"><ele>788.3333333333334</ele><time>2026-03-25T09:16:17.978Z</time></trkpt><trkpt lat="30.461991069732985" lon="-5.6993646776570195"><ele>788.6666666666667</ele><time>2026-03-25T09:16:18.978Z</time></trkpt><trkpt lat="30.46191885202473" lon="-5.6991911533211885"><ele>789.0</ele><time>2026-03-25T09:16:19.978Z</time></trkpt><trkpt lat="30.461855880635614" lon="-5.699028955068647"><ele>789.0</ele><time>2026-03-25T09:16:20.978Z</time></trkpt><trkpt lat="30.461793806094718" lon="-5.698877218147639"><ele>789.0</ele><time>2026-03-25T09:16:21.978Z</time></trkpt><trkpt lat="30.461735683912888" lon="-5.698730095083175"><ele>789.0</ele><time>2026-03-25T09:16:22.978Z</time></trkpt><trkpt lat="30.461677602029845" lon="-5.698586206109344"><ele>789.0</ele><time>2026-03-25T09:16:23.978Z</time></trkpt><trkpt lat="30.46162240799215" lon="-5.698453270711972"><ele>788.75</ele><time>2026-03-25T09:16:24.979Z</time></trkpt><trkpt lat="30.46157569252633" lon="-5.698327118395558"><ele>788.5</ele><time>2026-03-25T09:16:25.979Z</time></trkpt><trkpt lat="30.461536489030344" lon="-5.698195904485319"><ele>788.25</ele><time>2026-03-25T09:16:26.977Z</time></trkpt><trkpt lat="30.461495069573758" lon="-5.698060478432492"><ele>788.0</ele><time>2026-03-25T09:16:27.978Z</time></trkpt><trkpt lat="30.461441767654314" lon="-5.697927498798434"><ele>788.0</ele><time>2026-03-25T09:16:28.978Z</time></trkpt><trkpt lat="30.46135802381059" lon="-5.6978064334109435"><ele>788.0</ele><time>2026-03-25T09:16:29.978Z</time></trkpt><trkpt lat="30.461278525812656" lon="-5.6976972895698115"><ele>788.0</ele><time>2026-03-25T09:16:30.978Z</time></trkpt><trkpt lat="30.46121211626765" lon="-5.6975722701370755"><ele>788.0</ele><time>2026-03-25T09:16:31.978Z</time></trkpt><trkpt lat="30.461147766014896" lon="-5.697432631025596"><ele>788.0</ele><time>2026-03-25T09:16:32.978Z</time></trkpt><trkpt lat="30.461088518184827" lon="-5.697278584778191"><ele>788.0</ele><time>2026-03-25T09:16:33.978Z</time></trkpt><trkpt lat="30.461034991566578" lon="-5.69712103900776"><ele>788.0</ele><time>2026-03-25T09:16:34.978Z</time></trkpt><trkpt lat="30.460974720284245" lon="-5.696969558970032"><ele>788.0</ele><time>2026-03-25T09:16:35.978Z</time></trkpt><trkpt lat="30.46091732166211" lon="-5.696815161777621"><ele>788.6666666666667</ele><time>2026-03-25T09:16:36.978Z</time></trkpt><trkpt lat="30.460849400695324" lon="-5.696646849614934"><ele>789.3333333333333</ele><time>2026-03-25T09:16:37.978Z</time></trkpt><trkpt lat="30.460786004076752" lon="-5.6964807777971"><ele>790.0</ele><time>2026-03-25T09:16:38.978Z</time></trkpt><trkpt lat="30.46071967559615" lon="-5.696321779897071"><ele>790.0</ele><time>2026-03-25T09:16:39.978Z</time></trkpt><trkpt lat="30.46065413626891" lon="-5.696161989892447"><ele>790.0</ele><time>2026-03-25T09:16:40.978Z</time></trkpt><trkpt lat="30.46059355352228" lon="-5.695994468503818"><ele>790.0</ele><time>2026-03-25T09:16:41.978Z</time></trkpt><trkpt lat="30.460531149893495" lon="-5.695826251281897"><ele>790.3333333333333</ele><time>2026-03-25T09:16:42.978Z</time></trkpt><trkpt lat="30.460471654347955" lon="-5.695655161266707"><ele>790.6666666666667</ele><time>2026-03-25T09:16:43.978Z</time></trkpt><trkpt lat="30.460405560652834" lon="-5.6954722480401205"><ele>791.0</ele><time>2026-03-25T09:16:44.978Z</time></trkpt><trkpt lat="30.460341466523577" lon="-5.695295288867781"><ele>790.6666666666667</ele><time>2026-03-25T09:16:45.978Z</time></trkpt><trkpt lat="30.460284110849276" lon="-5.69512930606131"><ele>790.3333333333333</ele><time>2026-03-25T09:16:46.978Z</time></trkpt><trkpt lat="30.46021958498809" lon="-5.694953790595058"><ele>790.0</ele><time>2026-03-25T09:16:47.978Z</time></trkpt><trkpt lat="30.460150078878293" lon="-5.694789766642273"><ele>790.0</ele><time>2026-03-25T09:16:48.978Z</time></trkpt><trkpt lat="30.46008596059994" lon="-5.694632147616174"><ele>790.0</ele><time>2026-03-25T09:16:49.978Z</time></trkpt><trkpt lat="30.460021699503432" lon="-5.694463760365998"><ele>790.0</ele><time>2026-03-25T09:16:50.978Z</time></trkpt><trkpt lat="30.45995582404938" lon="-5.694293764424416"><ele>790.0</ele><time>2026-03-25T09:16:51.978Z</time></trkpt><trkpt lat="30.45988835973719" lon="-5.694133406284313"><ele>790.0</ele><time>2026-03-25T09:16:52.978Z</time></trkpt><trkpt lat="30.45983352478029" lon="-5.6939759376794505"><ele>790.0</ele><time>2026-03-25T09:16:53.978Z</time></trkpt><trkpt lat="30.45977638743189" lon="-5.693830520232648"><ele>790.0</ele><time>2026-03-25T09:16:54.978Z</time></trkpt><trkpt lat="30.459722478562824" lon="-5.69368202412731"><ele>790.6666666666666</ele><time>2026-03-25T09:16:55.978Z</time></trkpt><trkpt lat="30.459663608080685" lon="-5.693522149792645"><ele>791.3333333333333</ele><time>2026-03-25T09:16:56.978Z</time></trkpt><trkpt lat="30.459599144305326" lon="-5.69334573410018"><ele>792.0</ele><time>2026-03-25T09:16:57.978Z</time></trkpt><trkpt lat="30.45953252067796" lon="-5.693165259921157"><ele>792.0</ele><time>2026-03-25T09:16:58.978Z</time></trkpt><trkpt lat="30.459468553559752" lon="-5.692988017387917"><ele>792.0</ele><time>2026-03-25T09:16:59.978Z</time></trkpt><trkpt lat="30.459396255633052" lon="-5.6928069877058896"><ele>792.0</ele><time>2026-03-25T09:17:00.978Z</time></trkpt><trkpt lat="30.45933374900724" lon="-5.692630278856619"><ele>792.0</ele><time>2026-03-25T09:17:01.978Z</time></trkpt><trkpt lat="30.459271694983062" lon="-5.692457114080003"><ele>792.0</ele><time>2026-03-25T09:17:02.978Z</time></trkpt><trkpt lat="30.45920910959962" lon="-5.692287825710972"><ele>792.0</ele><time>2026-03-25T09:17:03.978Z</time></trkpt><trkpt lat="30.459150195954273" lon="-5.692121188127392"><ele>792.0</ele><time>2026-03-25T09:17:04.978Z</time></trkpt><trkpt lat="30.459092575448445" lon="-5.691952403477518"><ele>792.0</ele><time>2026-03-25T09:17:05.978Z</time></trkpt><trkpt lat="30.459030148679872" lon="-5.691782977154711"><ele>792.0</ele><time>2026-03-25T09:17:06.978Z</time></trkpt><trkpt lat="30.458968606806753" lon="-5.691617184626733"><ele>792.3333333333333</ele><time>2026-03-25T09:17:07.978Z</time></trkpt><trkpt lat="30.45890043285271" lon="-5.69144919458596"><ele>792.6666666666666</ele><time>2026-03-25T09:17:08.978Z</time></trkpt><trkpt lat="30.458833300195266" lon="-5.69127697607682"><ele>793.0</ele><time>2026-03-25T09:17:09.978Z</time></trkpt><trkpt lat="30.458768326668583" lon="-5.691102449086221"><ele>793.6666666666666</ele><time>2026-03-25T09:17:10.978Z</time></trkpt><trkpt lat="30.45869953117818" lon="-5.690936147401474"><ele>794.3333333333333</ele><time>2026-03-25T09:17:11.978Z</time></trkpt><trkpt lat="30.458640871475595" lon="-5.6907778603135775"><ele>795.0</ele><time>2026-03-25T09:17:12.978Z</time></trkpt><trkpt lat="30.45857594167109" lon="-5.690612473923522"><ele>795.0</ele><time>2026-03-25T09:17:13.978Z</time></trkpt><trkpt lat="30.458525282007102" lon="-5.690459927922602"><ele>795.0</ele><time>2026-03-25T09:17:14.978Z</time></trkpt><trkpt lat="30.45845990617046" lon="-5.690292185219183"><ele>795.0</ele><time>2026-03-25T09:17:15.978Z</time></trkpt><trkpt lat="30.45839043871237" lon="-5.690115786680638"><ele>795.3333333333333</ele><time>2026-03-25T09:17:16.978Z</time></trkpt><trkpt lat="30.45832677900746" lon="-5.689943047592016"><ele>795.6666666666666</ele><time>2026-03-25T09:17:17.978Z</time></trkpt><trkpt lat="30.45825329910224" lon="-5.689766449603363"><ele>796.0</ele><time>2026-03-25T09:17:18.978Z</time></trkpt><trkpt lat="30.458196589596806" lon="-5.689598981547764"><ele>796.0</ele><time>2026-03-25T09:17:19.978Z</time></trkpt><trkpt lat="30.458139035924845" lon="-5.689431567665579"><ele>796.0</ele><time>2026-03-25T09:17:20.978Z</time></trkpt><trkpt lat="30.458081948235208" lon="-5.689267315990298"><ele>796.0</ele><time>2026-03-25T09:17:21.978Z</time></trkpt><trkpt lat="30.45801527965281" lon="-5.689096943097717"><ele>796.3333333333333</ele><time>2026-03-25T09:17:22.978Z</time></trkpt><trkpt lat="30.45795304799789" lon="-5.6889284545651"><ele>796.6666666666667</ele><time>2026-03-25T09:17:23.978Z</time></trkpt><trkpt lat="30.45788200671021" lon="-5.688752450292004"><ele>797.0</ele><time>2026-03-25T09:17:24.978Z</time></trkpt><trkpt lat="30.457806673188298" lon="-5.688566559200227"><ele>797.3333333333334</ele><time>2026-03-25T09:17:25.978Z</time></trkpt><trkpt lat="30.457746411323416" lon="-5.688391876686789"><ele>797.6666666666667</ele><time>2026-03-25T09:17:26.978Z</time></trkpt><trkpt lat="30.457681433113255" lon="-5.688222453733918"><ele>798.0</ele><time>2026-03-25T09:17:27.978Z</time></trkpt><trkpt lat="30.45761525837325" lon="-5.688049086494648"><ele>798.0</ele><time>2026-03-25T09:17:28.978Z</time></trkpt><trkpt lat="30.457554167985833" lon="-5.687872829586668"><ele>798.0</ele><time>2026-03-25T09:17:29.978Z</time></trkpt><trkpt lat="30.4574887687064" lon="-5.687700451402492"><ele>798.0</ele><time>2026-03-25T09:17:30.978Z</time></trkpt><trkpt lat="30.457426228947803" lon="-5.687530702297474"><ele>798.0</ele><time>2026-03-25T09:17:31.978Z</time></trkpt><trkpt lat="30.457363914361895" lon="-5.6873660997440565"><ele>798.0</ele><time>2026-03-25T09:17:32.978Z</time></trkpt><trkpt lat="30.45730378340203" lon="-5.687204848269728"><ele>798.0</ele><time>2026-03-25T09:17:33.978Z</time></trkpt><trkpt lat="30.45724530497614" lon="-5.687046834497387"><ele>798.0</ele><time>2026-03-25T09:17:34.978Z</time></trkpt><trkpt lat="30.457191499917155" lon="-5.686893202964893"><ele>798.0</ele><time>2026-03-25T09:17:35.978Z</time></trkpt><trkpt lat="30.457130818255568" lon="-5.686733525037886"><ele>798.0</ele><time>2026-03-25T09:17:36.978Z</time></trkpt><trkpt lat="30.45706707564502" lon="-5.686569283065705"><ele>798.0</ele><time>2026-03-25T09:17:37.978Z</time></trkpt><trkpt lat="30.45700313076209" lon="-5.6864029201441015"><ele>798.0</ele><time>2026-03-25T09:17:38.978Z</time></trkpt><trkpt lat="30.45693748312503" lon="-5.686229320692731"><ele>798.0</ele><time>2026-03-25T09:17:39.978Z</time></trkpt><trkpt lat="30.45687275720502" lon="-5.686062604746323"><ele>798.0</ele><time>2026-03-25T09:17:40.978Z</time></trkpt><trkpt lat="30.456813964152705" lon="-5.6859112005761885"><ele>798.25</ele><time>2026-03-25T09:17:41.978Z</time></trkpt><trkpt lat="30.45676012396751" lon="-5.685760699284916"><ele>798.5</ele><time>2026-03-25T09:17:42.978Z</time></trkpt><trkpt lat="30.456705436395065" lon="-5.685609329136652"><ele>798.75</ele><time>2026-03-25T09:17:43.978Z</time></trkpt><trkpt lat="30.456632396272266" lon="-5.685440602229081"><ele>799.0</ele><time>2026-03-25T09:17:44.978Z</time></trkpt><trkpt lat="30.456531249931835" lon="-5.685262361376609"><ele>799.0</ele><time>2026-03-25T09:17:45.978Z</time></trkpt><trkpt lat="30.456426320695563" lon="-5.685116792655137"><ele>799.0</ele><time>2026-03-25T09:17:46.978Z</time></trkpt><trkpt lat="30.45633125617732" lon="-5.684979147536945"><ele>799.0</ele><time>2026-03-25T09:17:47.978Z</time></trkpt><trkpt lat="30.45624274068019" lon="-5.684839813071947"><ele>799.0</ele><time>2026-03-25T09:17:48.978Z</time></trkpt><trkpt lat="30.45615065412842" lon="-5.684701800036463"><ele>799.0</ele><time>2026-03-25T09:17:49.978Z</time></trkpt><trkpt lat="30.456044163065947" lon="-5.6845720571936"><ele>799.0</ele><time>2026-03-25T09:17:50.978Z</time></trkpt><trkpt lat="30.455940828373198" lon="-5.68444493686822"><ele>799.25</ele><time>2026-03-25T09:17:51.978Z</time></trkpt><trkpt lat="30.455839642297246" lon="-5.684329541914647"><ele>799.5</ele><time>2026-03-25T09:17:52.978Z</time></trkpt><trkpt lat="30.455742006545005" lon="-5.684223760887834"><ele>799.75</ele><time>2026-03-25T09:17:53.978Z</time></trkpt><trkpt lat="30.455650880593282" lon="-5.684123897081589"><ele>800.0</ele><time>2026-03-25T09:17:54.978Z</time></trkpt><trkpt lat="30.45556511766281" lon="-5.6840297558981385"><ele>800.0</ele><time>2026-03-25T09:17:55.978Z</time></trkpt><trkpt lat="30.4554908939899" lon="-5.683941430812234"><ele>800.0</ele><time>2026-03-25T09:17:56.978Z</time></trkpt><trkpt lat="30.455423698917574" lon="-5.683861537311281"><ele>800.0</ele><time>2026-03-25T09:17:57.978Z</time></trkpt><trkpt lat="30.45536311810631" lon="-5.683790722887475"><ele>800.0</ele><time>2026-03-25T09:17:58.978Z</time></trkpt><trkpt lat="30.455297959181667" lon="-5.683699185221171"><ele>800.0</ele><time>2026-03-25T09:17:59.978Z</time></trkpt><trkpt lat="30.455213561819747" lon="-5.683599155683792"><ele>799.0</ele><time>2026-03-25T09:18:00.978Z</time></trkpt><trkpt lat="30.455127671873374" lon="-5.683514476855643"><ele>798.0</ele><time>2026-03-25T09:18:01.978Z</time></trkpt><trkpt lat="30.45503217245154" lon="-5.6834302514866515"><ele>797.0</ele><time>2026-03-25T09:18:02.978Z</time></trkpt><trkpt lat="30.454950717637114" lon="-5.683335216319412"><ele>796.0</ele><time>2026-03-25T09:18:03.978Z</time></trkpt><trkpt lat="30.454870337108385" lon="-5.683188766160931"><ele>796.0</ele><time>2026-03-25T09:18:04.978Z</time></trkpt><trkpt lat="30.454790040165793" lon="-5.683031079419909"><ele>796.0</ele><time>2026-03-25T09:18:05.978Z</time></trkpt><trkpt lat="30.454711410816852" lon="-5.682905900610573"><ele>796.0</ele><time>2026-03-25T09:18:06.978Z</time></trkpt><trkpt lat="30.454647311217496" lon="-5.682789711108409"><ele>796.0</ele><time>2026-03-25T09:18:07.978Z</time></trkpt><trkpt lat="30.45457781658977" lon="-5.682672106894059"><ele>795.4</ele><time>2026-03-25T09:18:08.978Z</time></trkpt><trkpt lat="30.45451690108292" lon="-5.682545532549259"><ele>794.8</ele><time>2026-03-25T09:18:09.978Z</time></trkpt><trkpt lat="30.45446495846771" lon="-5.682419441941698"><ele>794.1999999999999</ele><time>2026-03-25T09:18:10.978Z</time></trkpt><trkpt lat="30.454423744320884" lon="-5.6823022241977945"><ele>793.5999999999999</ele><time>2026-03-25T09:18:11.978Z</time></trkpt><trkpt lat="30.45439630175941" lon="-5.682196801980194"><ele>793.0</ele><time>2026-03-25T09:18:12.978Z</time></trkpt><trkpt lat="30.454360336044115" lon="-5.682081563174568"><ele>793.0</ele><time>2026-03-25T09:18:13.978Z</time></trkpt><trkpt lat="30.45432834207483" lon="-5.681963154967422"><ele>793.0</ele><time>2026-03-25T09:18:14.978Z</time></trkpt><trkpt lat="30.454291259924478" lon="-5.681847266090073"><ele>793.0</ele><time>2026-03-25T09:18:15.978Z</time></trkpt><trkpt lat="30.454245554015444" lon="-5.681729358235483"><ele>793.0</ele><time>2026-03-25T09:18:16.978Z</time></trkpt><trkpt lat="30.454191363605524" lon="-5.681616095613441"><ele>793.0</ele><time>2026-03-25T09:18:17.978Z</time></trkpt><trkpt lat="30.45416305248345" lon="-5.681499083979695"><ele>792.75</ele><time>2026-03-25T09:18:18.978Z</time></trkpt><trkpt lat="30.454119417980586" lon="-5.681366662133779"><ele>792.5</ele><time>2026-03-25T09:18:19.978Z</time></trkpt><trkpt lat="30.454081657363773" lon="-5.681239429522021"><ele>792.25</ele><time>2026-03-25T09:18:20.978Z</time></trkpt><trkpt lat="30.45404809320331" lon="-5.681122507229595"><ele>792.0</ele><time>2026-03-25T09:18:21.978Z</time></trkpt><trkpt lat="30.454011555063225" lon="-5.680994499956101"><ele>792.0</ele><time>2026-03-25T09:18:22.978Z</time></trkpt><trkpt lat="30.453975014957305" lon="-5.680845165248364"><ele>792.0</ele><time>2026-03-25T09:18:23.977Z</time></trkpt><trkpt lat="30.453924775517276" lon="-5.680715042614908"><ele>792.0</ele><time>2026-03-25T09:18:24.978Z</time></trkpt><trkpt lat="30.45387082652621" lon="-5.680582029347123"><ele>792.0</ele><time>2026-03-25T09:18:25.978Z</time></trkpt><trkpt lat="30.453829847462053" lon="-5.680442150092458"><ele>792.5</ele><time>2026-03-25T09:18:26.978Z</time></trkpt><trkpt lat="30.453788474700858" lon="-5.680304699909097"><ele>793.0</ele><time>2026-03-25T09:18:27.977Z</time></trkpt><trkpt lat="30.453742105356074" lon="-5.68016008824706"><ele>793.5</ele><time>2026-03-25T09:18:28.977Z</time></trkpt><trkpt lat="30.453704449476138" lon="-5.680019131045941"><ele>794.0</ele><time>2026-03-25T09:18:29.978Z</time></trkpt><trkpt lat="30.4536576879095" lon="-5.6798797858807655"><ele>794.0</ele><time>2026-03-25T09:18:30.977Z</time></trkpt><trkpt lat="30.45362043272813" lon="-5.67974634117176"><ele>794.0</ele><time>2026-03-25T09:18:31.977Z</time></trkpt><trkpt lat="30.453585428132403" lon="-5.679612250727481"><ele>794.0</ele><time>2026-03-25T09:18:32.977Z</time></trkpt><trkpt lat="30.45354883580486" lon="-5.679481051122916"><ele>794.0</ele><time>2026-03-25T09:18:33.977Z</time></trkpt><trkpt lat="30.453511942613545" lon="-5.67935640191756"><ele>793.75</ele><time>2026-03-25T09:18:34.977Z</time></trkpt><trkpt lat="30.45347433097152" lon="-5.679244834478593"><ele>793.5</ele><time>2026-03-25T09:18:35.977Z</time></trkpt><trkpt lat="30.453430825824327" lon="-5.679131502606665"><ele>793.25</ele><time>2026-03-25T09:18:36.977Z</time></trkpt><trkpt lat="30.453378216260912" lon="-5.679005678936288"><ele>793.0</ele><time>2026-03-25T09:18:37.977Z</time></trkpt><trkpt lat="30.45332436094935" lon="-5.678866526470477"><ele>793.0</ele><time>2026-03-25T09:18:38.977Z</time></trkpt><trkpt lat="30.453277734435456" lon="-5.678738979437279"><ele>793.0</ele><time>2026-03-25T09:18:39.977Z</time></trkpt><trkpt lat="30.453234225438145" lon="-5.678608800487326"><ele>793.0</ele><time>2026-03-25T09:18:40.977Z</time></trkpt><trkpt lat="30.453192725312896" lon="-5.678474305653108"><ele>793.0</ele><time>2026-03-25T09:18:41.977Z</time></trkpt><trkpt lat="30.453147359289243" lon="-5.678336464795345"><ele>793.0</ele><time>2026-03-25T09:18:42.977Z</time></trkpt><trkpt lat="30.453102407287332" lon="-5.678199976823595"><ele>793.0</ele><time>2026-03-25T09:18:43.977Z</time></trkpt><trkpt lat="30.453056928575666" lon="-5.6780603301522445"><ele>793.0</ele><time>2026-03-25T09:18:44.977Z</time></trkpt><trkpt lat="30.45300963851738" lon="-5.6779135457215215"><ele>793.0</ele><time>2026-03-25T09:18:45.977Z</time></trkpt><trkpt lat="30.452969430827387" lon="-5.677767463120302"><ele>794.5</ele><time>2026-03-25T09:18:46.977Z</time></trkpt><trkpt lat="30.452923854749027" lon="-5.677608994323244"><ele>796.0</ele><time>2026-03-25T09:18:47.977Z</time></trkpt><trkpt lat="30.45290216543359" lon="-5.677445501919125"><ele>797.5</ele><time>2026-03-25T09:18:48.977Z</time></trkpt><trkpt lat="30.452882596711373" lon="-5.677296235837204"><ele>799.0</ele><time>2026-03-25T09:18:49.977Z</time></trkpt><trkpt lat="30.45286833975627" lon="-5.677162058030809"><ele>799.0</ele><time>2026-03-25T09:18:50.977Z</time></trkpt><trkpt lat="30.452850643482392" lon="-5.6770353669510545"><ele>799.0</ele><time>2026-03-25T09:18:51.977Z</time></trkpt><trkpt lat="30.45283947808755" lon="-5.676914961328554"><ele>799.0</ele><time>2026-03-25T09:18:52.977Z</time></trkpt><trkpt lat="30.45282765502815" lon="-5.676779228814215"><ele>799.0</ele><time>2026-03-25T09:18:53.977Z</time></trkpt><trkpt lat="30.452811425996156" lon="-5.676624967715667"><ele>798.75</ele><time>2026-03-25T09:18:54.977Z</time></trkpt><trkpt lat="30.452788942054045" lon="-5.676473793426761"><ele>798.5</ele><time>2026-03-25T09:18:55.977Z</time></trkpt><trkpt lat="30.45277786506049" lon="-5.6763401458031755"><ele>798.25</ele><time>2026-03-25T09:18:56.977Z</time></trkpt><trkpt lat="30.45276226366002" lon="-5.676205474877391"><ele>798.0</ele><time>2026-03-25T09:18:57.977Z</time></trkpt><trkpt lat="30.452739626073942" lon="-5.676073614649014"><ele>798.0</ele><time>2026-03-25T09:18:58.977Z</time></trkpt><trkpt lat="30.45272315699501" lon="-5.675927775224805"><ele>798.0</ele><time>2026-03-25T09:18:59.977Z</time></trkpt><trkpt lat="30.452707362929296" lon="-5.675780985793132"><ele>798.0</ele><time>2026-03-25T09:19:00.977Z</time></trkpt><trkpt lat="30.452690232025105" lon="-5.6756320344645514"><ele>798.0</ele><time>2026-03-25T09:19:01.977Z</time></trkpt><trkpt lat="30.452667206006435" lon="-5.6754775910805915"><ele>798.0</ele><time>2026-03-25T09:19:02.977Z</time></trkpt><trkpt lat="30.452646966141142" lon="-5.675317877115601"><ele>798.0</ele><time>2026-03-25T09:19:03.977Z</time></trkpt><trkpt lat="30.45262710302229" lon="-5.67514926530165"><ele>798.0</ele><time>2026-03-25T09:19:04.977Z</time></trkpt><trkpt lat="30.452602485461963" lon="-5.674975767601364"><ele>798.0</ele><time>2026-03-25T09:19:05.977Z</time></trkpt><trkpt lat="30.452582096670074" lon="-5.674821665161976"><ele>797.75</ele><time>2026-03-25T09:19:06.977Z</time></trkpt><trkpt lat="30.452557237767465" lon="-5.674676046538228"><ele>797.5</ele><time>2026-03-25T09:19:07.977Z</time></trkpt><trkpt lat="30.45253572752988" lon="-5.674544334086147"><ele>797.25</ele><time>2026-03-25T09:19:08.977Z</time></trkpt><trkpt lat="30.452520558902442" lon="-5.674408908126699"><ele>797.0</ele><time>2026-03-25T09:19:09.977Z</time></trkpt><trkpt lat="30.452501921933308" lon="-5.67427251179923"><ele>797.75</ele><time>2026-03-25T09:19:10.977Z</time></trkpt><trkpt lat="30.45248424067012" lon="-5.674129052783498"><ele>798.5</ele><time>2026-03-25T09:19:11.977Z</time></trkpt><trkpt lat="30.452466098319913" lon="-5.673974737380174"><ele>799.25</ele><time>2026-03-25T09:19:12.977Z</time></trkpt><trkpt lat="30.45244782411857" lon="-5.673799408689627"><ele>800.0</ele><time>2026-03-25T09:19:13.977Z</time></trkpt><trkpt lat="30.452423587336504" lon="-5.67360193542756"><ele>801.0</ele><time>2026-03-25T09:19:14.977Z</time></trkpt><trkpt lat="30.45240952314066" lon="-5.673396229625684"><ele>802.0</ele><time>2026-03-25T09:19:15.977Z</time></trkpt><trkpt lat="30.452391258829262" lon="-5.673193755594856"><ele>803.0</ele><time>2026-03-25T09:19:16.977Z</time></trkpt><trkpt lat="30.452383329334474" lon="-5.673024987055989"><ele>803.0</ele><time>2026-03-25T09:19:17.977Z</time></trkpt><trkpt lat="30.45238023878617" lon="-5.6728873496979295"><ele>803.0</ele><time>2026-03-25T09:19:18.977Z</time></trkpt><trkpt lat="30.452377569664975" lon="-5.672738275188932"><ele>803.0</ele><time>2026-03-25T09:19:19.977Z</time></trkpt><trkpt lat="30.452366269361512" lon="-5.672585593235565"><ele>803.0</ele><time>2026-03-25T09:19:20.977Z</time></trkpt><trkpt lat="30.452361374211577" lon="-5.672423215745636"><ele>804.0</ele><time>2026-03-25T09:19:21.977Z</time></trkpt><trkpt lat="30.452358388370655" lon="-5.672252486955264"><ele>805.0</ele><time>2026-03-25T09:19:22.977Z</time></trkpt><trkpt lat="30.45234058867637" lon="-5.672076252324434"><ele>806.0</ele><time>2026-03-25T09:19:23.977Z</time></trkpt><trkpt lat="30.45232156688765" lon="-5.6719219043619775"><ele>807.0</ele><time>2026-03-25T09:19:24.977Z</time></trkpt><trkpt lat="30.452293861425147" lon="-5.671768146223545"><ele>807.25</ele><time>2026-03-25T09:19:25.977Z</time></trkpt><trkpt lat="30.452268763888952" lon="-5.671608009237028"><ele>807.5</ele><time>2026-03-25T09:19:26.977Z</time></trkpt><trkpt lat="30.45224546980657" lon="-5.671479198970371"><ele>807.75</ele><time>2026-03-25T09:19:27.977Z</time></trkpt><trkpt lat="30.452231399687744" lon="-5.671354405964105"><ele>808.0</ele><time>2026-03-25T09:19:28.977Z</time></trkpt><trkpt lat="30.452224442849257" lon="-5.671233634612419"><ele>807.75</ele><time>2026-03-25T09:19:29.977Z</time></trkpt><trkpt lat="30.45218448418748" lon="-5.671101922984026"><ele>807.5</ele><time>2026-03-25T09:19:30.977Z</time></trkpt><trkpt lat="30.452120869600023" lon="-5.670992265752568"><ele>807.25</ele><time>2026-03-25T09:19:31.977Z</time></trkpt><trkpt lat="30.452050422648032" lon="-5.67089467036647"><ele>807.0</ele><time>2026-03-25T09:19:32.977Z</time></trkpt><trkpt lat="30.451975148273444" lon="-5.670784586253546"><ele>807.25</ele><time>2026-03-25T09:19:33.977Z</time></trkpt><trkpt lat="30.45191267146215" lon="-5.670663657992725"><ele>807.5</ele><time>2026-03-25T09:19:34.977Z</time></trkpt><trkpt lat="30.45184905987661" lon="-5.670542475421141"><ele>807.75</ele><time>2026-03-25T09:19:35.977Z</time></trkpt><trkpt lat="30.451787844174575" lon="-5.670405753514631"><ele>808.0</ele><time>2026-03-25T09:19:36.977Z</time></trkpt><trkpt lat="30.451733567580234" lon="-5.670248004147965"><ele>808.0</ele><time>2026-03-25T09:19:37.977Z</time></trkpt><trkpt lat="30.451673522888196" lon="-5.670104710808081"><ele>808.0</ele><time>2026-03-25T09:19:38.977Z</time></trkpt><trkpt lat="30.451624238895825" lon="-5.66998206156647"><ele>808.0</ele><time>2026-03-25T09:19:39.977Z</time></trkpt><trkpt lat="30.451570246523108" lon="-5.669851304884849"><ele>808.0</ele><time>2026-03-25T09:19:40.977Z</time></trkpt><trkpt lat="30.451512431474946" lon="-5.669734443822257"><ele>808.0</ele><time>2026-03-25T09:19:41.977Z</time></trkpt><trkpt lat="30.451452734934108" lon="-5.669594645625668"><ele>808.0</ele><time>2026-03-25T09:19:42.977Z</time></trkpt><trkpt lat="30.451387750428655" lon="-5.669456143505115"><ele>808.0</ele><time>2026-03-25T09:19:43.977Z</time></trkpt><trkpt lat="30.451313962355304" lon="-5.669332538854949"><ele>808.0</ele><time>2026-03-25T09:19:44.977Z</time></trkpt><trkpt lat="30.451227257910677" lon="-5.66920122172501"><ele>808.25</ele><time>2026-03-25T09:19:45.977Z</time></trkpt><trkpt lat="30.451142667734977" lon="-5.669082269644841"><ele>808.5</ele><time>2026-03-25T09:19:46.977Z</time></trkpt><trkpt lat="30.45105915327274" lon="-5.6689634818534635"><ele>808.75</ele><time>2026-03-25T09:19:47.977Z</time></trkpt><trkpt lat="30.450971617272096" lon="-5.668854707886267"><ele>809.0</ele><time>2026-03-25T09:19:48.977Z</time></trkpt><trkpt lat="30.45089332215611" lon="-5.668749196134142"><ele>809.0</ele><time>2026-03-25T09:19:49.977Z</time></trkpt><trkpt lat="30.450816107246162" lon="-5.6686442142456945"><ele>809.0</ele><time>2026-03-25T09:19:50.977Z</time></trkpt><trkpt lat="30.450736448526655" lon="-5.668549248522523"><ele>809.0</ele><time>2026-03-25T09:19:51.977Z</time></trkpt><trkpt lat="30.450659399330387" lon="-5.668454893779036"><ele>809.0</ele><time>2026-03-25T09:19:52.977Z</time></trkpt><trkpt lat="30.450586906024245" lon="-5.668369898593763"><ele>809.0</ele><time>2026-03-25T09:19:53.977Z</time></trkpt><trkpt lat="30.450504301844624" lon="-5.668279429078447"><ele>808.75</ele><time>2026-03-25T09:19:54.977Z</time></trkpt><trkpt lat="30.450419427306713" lon="-5.668181214140646"><ele>808.5</ele><time>2026-03-25T09:19:55.977Z</time></trkpt><trkpt lat="30.450326478785936" lon="-5.668076645325647"><ele>808.25</ele><time>2026-03-25T09:19:56.977Z</time></trkpt><trkpt lat="30.45022910338848" lon="-5.667978071166045"><ele>808.0</ele><time>2026-03-25T09:19:57.977Z</time></trkpt><trkpt lat="30.450135282994708" lon="-5.667845513441219"><ele>808.25</ele><time>2026-03-25T09:19:58.977Z</time></trkpt><trkpt lat="30.450049280806923" lon="-5.667715167665189"><ele>808.5</ele><time>2026-03-25T09:19:59.977Z</time></trkpt><trkpt lat="30.44995808051353" lon="-5.667595014730256"><ele>808.75</ele><time>2026-03-25T09:20:00.977Z</time></trkpt><trkpt lat="30.44986436405556" lon="-5.667479049404967"><ele>809.0</ele><time>2026-03-25T09:20:01.977Z</time></trkpt><trkpt lat="30.449774766393183" lon="-5.667362982319074"><ele>809.0</ele><time>2026-03-25T09:20:02.977Z</time></trkpt><trkpt lat="30.44968682815892" lon="-5.667242063322566"><ele>809.0</ele><time>2026-03-25T09:20:03.977Z</time></trkpt><trkpt lat="30.44959557353773" lon="-5.667116538137166"><ele>809.0</ele><time>2026-03-25T09:20:04.977Z</time></trkpt><trkpt lat="30.44950665110567" lon="-5.667009686893506"><ele>809.0</ele><time>2026-03-25T09:20:05.977Z</time></trkpt><trkpt lat="30.44940365102025" lon="-5.666908932161825"><ele>809.75</ele><time>2026-03-25T09:20:06.977Z</time></trkpt><trkpt lat="30.449313257449575" lon="-5.66680385009231"><ele>810.5</ele><time>2026-03-25T09:20:07.977Z</time></trkpt><trkpt lat="30.449228094058412" lon="-5.666681876662812"><ele>811.25</ele><time>2026-03-25T09:20:08.977Z</time></trkpt><trkpt lat="30.449141256641447" lon="-5.666569251324832"><ele>812.0</ele><time>2026-03-25T09:20:09.977Z</time></trkpt><trkpt lat="30.449051602560463" lon="-5.66646695121239"><ele>812.0</ele><time>2026-03-25T09:20:10.977Z</time></trkpt><trkpt lat="30.448969884443425" lon="-5.666358450182475"><ele>812.0</ele><time>2026-03-25T09:20:11.977Z</time></trkpt><trkpt lat="30.448885176028657" lon="-5.666241143638028"><ele>812.0</ele><time>2026-03-25T09:20:12.977Z</time></trkpt><trkpt lat="30.448793059984382" lon="-5.666132072556747"><ele>812.0</ele><time>2026-03-25T09:20:13.977Z</time></trkpt><trkpt lat="30.448702056226885" lon="-5.666031989570864"><ele>811.75</ele><time>2026-03-25T09:20:14.977Z</time></trkpt><trkpt lat="30.448613573787117" lon="-5.665922701570465"><ele>811.5</ele><time>2026-03-25T09:20:15.977Z</time></trkpt><trkpt lat="30.448527386784153" lon="-5.665816914428496"><ele>811.25</ele><time>2026-03-25T09:20:16.977Z</time></trkpt><trkpt lat="30.44844084890215" lon="-5.665711331639592"><ele>811.0</ele><time>2026-03-25T09:20:17.977Z</time></trkpt><trkpt lat="30.448350062282135" lon="-5.6656037699262765"><ele>811.0</ele><time>2026-03-25T09:20:18.977Z</time></trkpt><trkpt lat="30.448267228028627" lon="-5.665503939478904"><ele>811.0</ele><time>2026-03-25T09:20:19.977Z</time></trkpt><trkpt lat="30.448185588266387" lon="-5.6653990734861175"><ele>811.0</ele><time>2026-03-25T09:20:20.977Z</time></trkpt><trkpt lat="30.448102130617393" lon="-5.665288959315515"><ele>811.0</ele><time>2026-03-25T09:20:21.977Z</time></trkpt><trkpt lat="30.448022072326307" lon="-5.665175933185048"><ele>811.0</ele><time>2026-03-25T09:20:22.977Z</time></trkpt><trkpt lat="30.447950061391676" lon="-5.665057151602745"><ele>811.0</ele><time>2026-03-25T09:20:23.977Z</time></trkpt><trkpt lat="30.447878377062665" lon="-5.66492739655866"><ele>811.0</ele><time>2026-03-25T09:20:24.977Z</time></trkpt><trkpt lat="30.447792916782443" lon="-5.664810291719604"><ele>811.0</ele><time>2026-03-25T09:20:25.977Z</time></trkpt><trkpt lat="30.447709784630213" lon="-5.664698068036846"><ele>811.0</ele><time>2026-03-25T09:20:26.977Z</time></trkpt><trkpt lat="30.447632117493043" lon="-5.6645870934926394"><ele>811.0</ele><time>2026-03-25T09:20:27.977Z</time></trkpt><trkpt lat="30.447547933529854" lon="-5.6644692804964185"><ele>811.0</ele><time>2026-03-25T09:20:28.977Z</time></trkpt><trkpt lat="30.447467567456997" lon="-5.664348988586532"><ele>811.0</ele><time>2026-03-25T09:20:29.978Z</time></trkpt><trkpt lat="30.447375621972235" lon="-5.664227337816444"><ele>810.4</ele><time>2026-03-25T09:20:30.977Z</time></trkpt><trkpt lat="30.44729395568677" lon="-5.664111205217064"><ele>809.8</ele><time>2026-03-25T09:20:31.977Z</time></trkpt><trkpt lat="30.447222448872054" lon="-5.6640098521909215"><ele>809.1999999999999</ele><time>2026-03-25T09:20:32.977Z</time></trkpt><trkpt lat="30.44715294047093" lon="-5.663917454738532"><ele>808.5999999999999</ele><time>2026-03-25T09:20:33.977Z</time></trkpt><trkpt lat="30.44710105620136" lon="-5.663830803195435"><ele>808.0</ele><time>2026-03-25T09:20:34.977Z</time></trkpt><trkpt lat="30.44703222148236" lon="-5.663745771245305"><ele>807.9999999999999</ele><time>2026-03-25T09:20:35.977Z</time></trkpt><trkpt lat="30.446972933691438" lon="-5.663659365505538"><ele>808.0</ele><time>2026-03-25T09:20:36.977Z</time></trkpt><trkpt lat="30.44691818512543" lon="-5.663583867519188"><ele>808.0</ele><time>2026-03-25T09:20:37.977Z</time></trkpt><trkpt lat="30.44686617991566" lon="-5.6634997913563625"><ele>808.0</ele><time>2026-03-25T09:20:38.978Z</time></trkpt><trkpt lat="30.44683560183558" lon="-5.663403266503389"><ele>807.9999999999999</ele><time>2026-03-25T09:20:39.977Z</time></trkpt><trkpt lat="30.446797106272925" lon="-5.663328272204223"><ele>808.0</ele><time>2026-03-25T09:20:40.977Z</time></trkpt><trkpt lat="30.44677120867031" lon="-5.663245044285053"><ele>808.0</ele><time>2026-03-25T09:20:41.977Z</time></trkpt><trkpt lat="30.446747138355306" lon="-5.663162013460114"><ele>808.0</ele><time>2026-03-25T09:20:42.977Z</time></trkpt><trkpt lat="30.446686884146228" lon="-5.663018714298235"><ele>808.0</ele><time>2026-03-25T09:20:44.977Z</time></trkpt><trkpt lat="30.446642594412044" lon="-5.6629369150411595"><ele>808.0</ele><time>2026-03-25T09:20:45.977Z</time></trkpt><trkpt lat="30.44659928536852" lon="-5.662846726773827"><ele>808.0</ele><time>2026-03-25T09:20:46.977Z</time></trkpt><trkpt lat="30.446558932522613" lon="-5.6627544727901675"><ele>807.9999999999999</ele><time>2026-03-25T09:20:47.977Z</time></trkpt><trkpt lat="30.44652021055933" lon="-5.662658096337995"><ele>808.0</ele><time>2026-03-25T09:20:48.977Z</time></trkpt><trkpt lat="30.446490283114787" lon="-5.66256735781387"><ele>808.0</ele><time>2026-03-25T09:20:49.977Z</time></trkpt><trkpt lat="30.446460981376557" lon="-5.662476198931959"><ele>808.0</ele><time>2026-03-25T09:20:50.977Z</time></trkpt><trkpt lat="30.446424409651332" lon="-5.662390439889076"><ele>807.9999999999999</ele><time>2026-03-25T09:20:51.977Z</time></trkpt><trkpt lat="30.44638107619488" lon="-5.6623105138167125"><ele>808.0</ele><time>2026-03-25T09:20:52.977Z</time></trkpt><trkpt lat="30.44632286226502" lon="-5.662235051640692"><ele>807.9999999999999</ele><time>2026-03-25T09:20:53.977Z</time></trkpt><trkpt lat="30.446262229856828" lon="-5.662160571701848"><ele>808.0</ele><time>2026-03-25T09:20:54.977Z</time></trkpt><trkpt lat="30.446208752620713" lon="-5.662094841934157"><ele>808.0</ele><time>2026-03-25T09:20:55.977Z</time></trkpt><trkpt lat="30.446156107980542" lon="-5.662036951259237"><ele>808.0</ele><time>2026-03-25T09:20:56.977Z</time></trkpt><trkpt lat="30.446112233938152" lon="-5.6619679151247535"><ele>807.9999999999999</ele><time>2026-03-25T09:20:57.977Z</time></trkpt><trkpt lat="30.446063100889376" lon="-5.661888831147479"><ele>808.0</ele><time>2026-03-25T09:20:58.977Z</time></trkpt><trkpt lat="30.44603016156252" lon="-5.661805213112956"><ele>808.5999999999999</ele><time>2026-03-25T09:20:59.977Z</time></trkpt><trkpt lat="30.445982838082436" lon="-5.661719157731446"><ele>809.1999999999999</ele><time>2026-03-25T09:21:00.977Z</time></trkpt><trkpt lat="30.445938167534486" lon="-5.661624113439746"><ele>809.8</ele><time>2026-03-25T09:21:01.977Z</time></trkpt><trkpt lat="30.445895675475953" lon="-5.661521157992414"><ele>810.4</ele><time>2026-03-25T09:21:02.977Z</time></trkpt><trkpt lat="30.445852488097394" lon="-5.6614088303714025"><ele>811.0</ele><time>2026-03-25T09:21:03.977Z</time></trkpt><trkpt lat="30.445792305147776" lon="-5.6613018946190214"><ele>811.0</ele><time>2026-03-25T09:21:04.977Z</time></trkpt><trkpt lat="30.445722376836294" lon="-5.6611925371176275"><ele>811.0</ele><time>2026-03-25T09:21:05.977Z</time></trkpt><trkpt lat="30.445662371370176" lon="-5.661092457844141"><ele>811.0</ele><time>2026-03-25T09:21:06.977Z</time></trkpt><trkpt lat="30.445602748391032" lon="-5.660999490982072"><ele>811.0</ele><time>2026-03-25T09:21:07.977Z</time></trkpt><trkpt lat="30.445543556326452" lon="-5.660900128579087"><ele>811.0</ele><time>2026-03-25T09:21:08.977Z</time></trkpt><trkpt lat="30.44548119381222" lon="-5.66079634250725"><ele>810.5999999999999</ele><time>2026-03-25T09:21:09.977Z</time></trkpt><trkpt lat="30.445420672788174" lon="-5.660695435270988"><ele>810.2</ele><time>2026-03-25T09:21:10.977Z</time></trkpt><trkpt lat="30.44535797532354" lon="-5.660589531514279"><ele>809.8</ele><time>2026-03-25T09:21:11.977Z</time></trkpt><trkpt lat="30.4452975075456" lon="-5.660478006134217"><ele>809.4000000000001</ele><time>2026-03-25T09:21:12.977Z</time></trkpt><trkpt lat="30.445245011083045" lon="-5.6603669622054635"><ele>809.0</ele><time>2026-03-25T09:21:13.977Z</time></trkpt><trkpt lat="30.445191748030247" lon="-5.660255546444476"><ele>809.0</ele><time>2026-03-25T09:21:14.977Z</time></trkpt><trkpt lat="30.445138049197972" lon="-5.6601414941344315"><ele>809.0</ele><time>2026-03-25T09:21:15.977Z</time></trkpt><trkpt lat="30.445081338896642" lon="-5.66001806251705"><ele>809.0</ele><time>2026-03-25T09:21:16.977Z</time></trkpt><trkpt lat="30.445022347988647" lon="-5.659889906286612"><ele>809.0</ele><time>2026-03-25T09:21:17.977Z</time></trkpt><trkpt lat="30.44497642966496" lon="-5.659768626929471"><ele>809.0</ele><time>2026-03-25T09:21:18.977Z</time></trkpt><trkpt lat="30.444921889626585" lon="-5.659639782225227"><ele>809.0</ele><time>2026-03-25T09:21:19.977Z</time></trkpt><trkpt lat="30.444866034156913" lon="-5.659517492035205"><ele>809.0</ele><time>2026-03-25T09:21:20.977Z</time></trkpt><trkpt lat="30.444818010138338" lon="-5.659398565927038"><ele>809.0</ele><time>2026-03-25T09:21:21.977Z</time></trkpt><trkpt lat="30.444775171605208" lon="-5.659309709592113"><ele>809.0</ele><time>2026-03-25T09:21:22.977Z</time></trkpt><trkpt lat="30.444728425292055" lon="-5.659231993825997"><ele>809.0000000000001</ele><time>2026-03-25T09:21:23.977Z</time></trkpt><trkpt lat="30.444674599935794" lon="-5.6591648130595456"><ele>809.0</ele><time>2026-03-25T09:21:24.977Z</time></trkpt><trkpt lat="30.4446228828175" lon="-5.659119069507734"><ele>809.0</ele><time>2026-03-25T09:21:25.977Z</time></trkpt><trkpt lat="30.44457337257829" lon="-5.6590703285027475"><ele>809.0</ele><time>2026-03-25T09:21:27.977Z</time></trkpt><trkpt lat="30.444522088715996" lon="-5.659003781259081"><ele>809.0000000000001</ele><time>2026-03-25T09:21:28.977Z</time></trkpt><trkpt lat="30.444416988530097" lon="-5.658928559448323"><ele>809.0</ele><time>2026-03-25T09:21:29.977Z</time></trkpt><trkpt lat="30.444324947765843" lon="-5.658857803983058"><ele>809.0000000000001</ele><time>2026-03-25T09:21:30.977Z</time></trkpt><trkpt lat="30.444247065116393" lon="-5.658819144360563"><ele>809.0</ele><time>2026-03-25T09:21:31.977Z</time></trkpt><trkpt lat="30.444178255186564" lon="-5.65875392811729"><ele>809.0</ele><time>2026-03-25T09:21:32.977Z</time></trkpt><trkpt lat="30.44408631212068" lon="-5.658712537724296"><ele>809.0</ele><time>2026-03-25T09:21:33.977Z</time></trkpt><trkpt lat="30.4440136630056" lon="-5.658672485383618"><ele>809.0000000000001</ele><time>2026-03-25T09:21:34.977Z</time></trkpt><trkpt lat="30.44394766990074" lon="-5.65862256110497"><ele>809.0</ele><time>2026-03-25T09:21:35.977Z</time></trkpt><trkpt lat="30.44386165851668" lon="-5.658578651660713"><ele>809.0</ele><time>2026-03-25T09:21:37.977Z</time></trkpt><trkpt lat="30.443737318025413" lon="-5.658516160635801"><ele>809.0</ele><time>2026-03-25T09:21:39.977Z</time></trkpt><trkpt lat="30.443664179292504" lon="-5.658469151724573"><ele>809.0</ele><time>2026-03-25T09:21:40.977Z</time></trkpt><trkpt lat="30.44355903406935" lon="-5.658398986266219"><ele>809.0</ele><time>2026-03-25T09:21:42.977Z</time></trkpt><trkpt lat="30.44344899531124" lon="-5.658322809338654"><ele>809.0</ele><time>2026-03-25T09:21:44.977Z</time></trkpt><trkpt lat="30.443398578349985" lon="-5.658277419745233"><ele>809.0</ele><time>2026-03-25T09:21:45.977Z</time></trkpt><trkpt lat="30.443315037134507" lon="-5.658219941243345"><ele>809.0</ele><time>2026-03-25T09:21:47.977Z</time></trkpt><trkpt lat="30.44324999162298" lon="-5.658174533775109"><ele>809.0</ele><time>2026-03-25T09:21:49.977Z</time></trkpt><trkpt lat="30.443195732419642" lon="-5.658133403516806"><ele>809.0</ele><time>2026-03-25T09:21:51.976Z</time></trkpt><trkpt lat="30.443132132520866" lon="-5.658081475027498"><ele>809.0</ele><time>2026-03-25T09:21:53.976Z</time></trkpt><trkpt lat="30.44308683974327" lon="-5.658029272758796"><ele>809.0</ele><time>2026-03-25T09:21:55.976Z</time></trkpt><trkpt lat="30.443030043360487" lon="-5.657931649946714"><ele>809.0000000000001</ele><time>2026-03-25T09:21:58.976Z</time></trkpt><trkpt lat="30.442991953024425" lon="-5.657864435542144"><ele>809.0</ele><time>2026-03-25T09:22:01.976Z</time></trkpt><trkpt lat="30.442975626441303" lon="-5.657785414446245"><ele>809.0</ele><time>2026-03-25T09:22:05.976Z</time></trkpt><trkpt lat="30.442889352074268" lon="-5.657773997862446"><ele>809.0</ele><time>2026-03-25T09:22:10.976Z</time></trkpt><trkpt lat="30.442843145566535" lon="-5.657716297568248"><ele>809.0000000000001</ele><time>2026-03-25T09:22:14.976Z</time></trkpt><trkpt lat="30.442766740352162" lon="-5.657650079272534"><ele>809.0</ele><time>2026-03-25T09:22:16.976Z</time></trkpt><trkpt lat="30.442696392965733" lon="-5.657625982252692"><ele>809.2</ele><time>2026-03-25T09:22:17.976Z</time></trkpt><trkpt lat="30.442605020027806" lon="-5.657599524475739"><ele>809.4000000000001</ele><time>2026-03-25T09:22:18.976Z</time></trkpt><trkpt lat="30.442489046807655" lon="-5.657579736812491"><ele>809.6</ele><time>2026-03-25T09:22:19.976Z</time></trkpt><trkpt lat="30.442374455077765" lon="-5.65757127880142"><ele>809.8</ele><time>2026-03-25T09:22:20.976Z</time></trkpt><trkpt lat="30.44229757023205" lon="-5.657557850374446"><ele>810.0</ele><time>2026-03-25T09:22:21.976Z</time></trkpt><trkpt lat="30.44224014687872" lon="-5.6575241837873245"><ele>810.0</ele><time>2026-03-25T09:22:22.976Z</time></trkpt><trkpt lat="30.442184156537664" lon="-5.657483002284704"><ele>810.0</ele><time>2026-03-25T09:22:23.976Z</time></trkpt><trkpt lat="30.442098724051075" lon="-5.6574281618514926"><ele>810.0</ele><time>2026-03-25T09:22:25.976Z</time></trkpt><trkpt lat="30.441996751425698" lon="-5.657364104076661"><ele>810.0</ele><time>2026-03-25T09:22:27.976Z</time></trkpt><trkpt lat="30.441937610478448" lon="-5.657335599858053"><ele>810.0</ele><time>2026-03-25T09:22:28.976Z</time></trkpt><trkpt lat="30.441870055576" lon="-5.657306586058996"><ele>810.0</ele><time>2026-03-25T09:22:29.976Z</time></trkpt><trkpt lat="30.441786268694546" lon="-5.657259669947241"><ele>810.0</ele><time>2026-03-25T09:22:30.976Z</time></trkpt><trkpt lat="30.441701569647723" lon="-5.6572173206665175"><ele>810.0</ele><time>2026-03-25T09:22:31.976Z</time></trkpt><trkpt lat="30.441619687505092" lon="-5.657162123178024"><ele>810.0</ele><time>2026-03-25T09:22:32.977Z</time></trkpt><trkpt lat="30.44153726647132" lon="-5.6571092765371205"><ele>810.0</ele><time>2026-03-25T09:22:33.976Z</time></trkpt><trkpt lat="30.44144867546923" lon="-5.657056918076921"><ele>810.0</ele><time>2026-03-25T09:22:34.976Z</time></trkpt><trkpt lat="30.44135423026987" lon="-5.657003083505649"><ele>810.0</ele><time>2026-03-25T09:22:35.976Z</time></trkpt><trkpt lat="30.44126330851345" lon="-5.656953866666059"><ele>810.0</ele><time>2026-03-25T09:22:36.976Z</time></trkpt><trkpt lat="30.441174956552953" lon="-5.6569019458148055"><ele>810.0</ele><time>2026-03-25T09:22:37.976Z</time></trkpt><trkpt lat="30.441095682305114" lon="-5.656854084385288"><ele>810.0</ele><time>2026-03-25T09:22:38.977Z</time></trkpt><trkpt lat="30.44102989052515" lon="-5.656803908018098"><ele>810.0</ele><time>2026-03-25T09:22:39.977Z</time></trkpt><trkpt lat="30.440947847059547" lon="-5.6567543163674046"><ele>810.8</ele><time>2026-03-25T09:22:40.977Z</time></trkpt><trkpt lat="30.44086744889998" lon="-5.656710138966323"><ele>811.6</ele><time>2026-03-25T09:22:41.976Z</time></trkpt><trkpt lat="30.440777759968423" lon="-5.65665267307142"><ele>812.4000000000001</ele><time>2026-03-25T09:22:42.976Z</time></trkpt><trkpt lat="30.440677445412213" lon="-5.656607648143772"><ele>813.2</ele><time>2026-03-25T09:22:43.976Z</time></trkpt><trkpt lat="30.44059624182432" lon="-5.656559104133647"><ele>814.0</ele><time>2026-03-25T09:22:44.976Z</time></trkpt><trkpt lat="30.440520561845887" lon="-5.6565065387956865"><ele>813.9999999999999</ele><time>2026-03-25T09:22:45.977Z</time></trkpt><trkpt lat="30.440447846903623" lon="-5.656459073989353"><ele>814.0</ele><time>2026-03-25T09:22:46.977Z</time></trkpt><trkpt lat="30.440369490295684" lon="-5.6564133866114155"><ele>814.0</ele><time>2026-03-25T09:22:47.977Z</time></trkpt><trkpt lat="30.44028721397311" lon="-5.656375345436752"><ele>814.0</ele><time>2026-03-25T09:22:48.977Z</time></trkpt><trkpt lat="30.440199271702973" lon="-5.6563589742727824"><ele>813.9999999999999</ele><time>2026-03-25T09:22:49.977Z</time></trkpt><trkpt lat="30.440112590678265" lon="-5.656376267460719"><ele>814.0</ele><time>2026-03-25T09:22:50.977Z</time></trkpt><trkpt lat="30.440040704318022" lon="-5.656379706675098"><ele>813.9999999999999</ele><time>2026-03-25T09:22:51.977Z</time></trkpt><trkpt lat="30.439973581083006" lon="-5.656356194429509"><ele>814.0</ele><time>2026-03-25T09:22:52.977Z</time></trkpt><trkpt lat="30.43991961143525" lon="-5.656305592116566"><ele>814.0</ele><time>2026-03-25T09:22:53.977Z</time></trkpt><trkpt lat="30.439864512686675" lon="-5.656241242968715"><ele>814.0</ele><time>2026-03-25T09:22:54.977Z</time></trkpt><trkpt lat="30.439811723439895" lon="-5.656162407793476"><ele>813.9999999999999</ele><time>2026-03-25T09:22:55.977Z</time></trkpt><trkpt lat="30.43975039535315" lon="-5.656091301487573"><ele>814.0</ele><time>2026-03-25T09:22:56.977Z</time></trkpt><trkpt lat="30.43968000970285" lon="-5.656030393492319"><ele>814.0</ele><time>2026-03-25T09:22:57.977Z</time></trkpt><trkpt lat="30.43959824251632" lon="-5.655972719140855"><ele>814.0</ele><time>2026-03-25T09:22:58.977Z</time></trkpt><trkpt lat="30.43951001802779" lon="-5.655926353845991"><ele>814.0</ele><time>2026-03-25T09:22:59.977Z</time></trkpt><trkpt lat="30.439422702912857" lon="-5.655876911209785"><ele>814.0</ele><time>2026-03-25T09:23:00.977Z</time></trkpt><trkpt lat="30.43933212163717" lon="-5.655822408984954"><ele>814.0</ele><time>2026-03-25T09:23:01.977Z</time></trkpt><trkpt lat="30.4392387443868" lon="-5.655759975656224"><ele>814.0</ele><time>2026-03-25T09:23:02.977Z</time></trkpt><trkpt lat="30.439134690833068" lon="-5.655710115301351"><ele>814.0</ele><time>2026-03-25T09:23:03.977Z</time></trkpt><trkpt lat="30.43902333156285" lon="-5.655657255246948"><ele>814.0</ele><time>2026-03-25T09:23:04.977Z</time></trkpt><trkpt lat="30.438912492580233" lon="-5.655600863268835"><ele>814.0</ele><time>2026-03-25T09:23:05.977Z</time></trkpt><trkpt lat="30.438802556355853" lon="-5.655541247969874"><ele>814.0</ele><time>2026-03-25T09:23:06.977Z</time></trkpt><trkpt lat="30.438694805754245" lon="-5.65546669367521"><ele>814.0</ele><time>2026-03-25T09:23:07.977Z</time></trkpt><trkpt lat="30.438599008120168" lon="-5.655401139387562"><ele>814.0</ele><time>2026-03-25T09:23:08.977Z</time></trkpt><trkpt lat="30.438503440576707" lon="-5.655344012423121"><ele>814.0</ele><time>2026-03-25T09:23:09.977Z</time></trkpt><trkpt lat="30.438418877155666" lon="-5.655293169424193"><ele>814.0</ele><time>2026-03-25T09:23:10.977Z</time></trkpt><trkpt lat="30.43833215393327" lon="-5.6552534241077215"><ele>814.2</ele><time>2026-03-25T09:23:11.977Z</time></trkpt><trkpt lat="30.43825077032216" lon="-5.655216326966606"><ele>814.4000000000001</ele><time>2026-03-25T09:23:12.977Z</time></trkpt><trkpt lat="30.438167539488585" lon="-5.655170743026846"><ele>814.6</ele><time>2026-03-25T09:23:13.977Z</time></trkpt><trkpt lat="30.438084082249237" lon="-5.655112236915467"><ele>814.8</ele><time>2026-03-25T09:23:14.977Z</time></trkpt><trkpt lat="30.43800629695741" lon="-5.655050441196085"><ele>815.0</ele><time>2026-03-25T09:23:15.977Z</time></trkpt><trkpt lat="30.437928115051314" lon="-5.654997670005213"><ele>815.0</ele><time>2026-03-25T09:23:16.977Z</time></trkpt><trkpt lat="30.437863496069035" lon="-5.6549500130221375"><ele>815.0</ele><time>2026-03-25T09:23:17.977Z</time></trkpt><trkpt lat="30.43778822740655" lon="-5.6548975137943085"><ele>815.0</ele><time>2026-03-25T09:23:18.977Z</time></trkpt><trkpt lat="30.4377067039675" lon="-5.654850932315887"><ele>815.0</ele><time>2026-03-25T09:23:19.977Z</time></trkpt><trkpt lat="30.43760200260106" lon="-5.654804412230863"><ele>815.0</ele><time>2026-03-25T09:23:20.977Z</time></trkpt><trkpt lat="30.437508728723664" lon="-5.6547567052696355"><ele>815.0</ele><time>2026-03-25T09:23:21.977Z</time></trkpt><trkpt lat="30.437414301721144" lon="-5.65469924552342"><ele>815.0</ele><time>2026-03-25T09:23:22.977Z</time></trkpt><trkpt lat="30.437312765568368" lon="-5.654642693253801"><ele>815.0</ele><time>2026-03-25T09:23:23.977Z</time></trkpt><trkpt lat="30.437219096921726" lon="-5.654586565171408"><ele>815.0</ele><time>2026-03-25T09:23:24.977Z</time></trkpt><trkpt lat="30.437112961931057" lon="-5.65452105870936"><ele>815.0</ele><time>2026-03-25T09:23:25.977Z</time></trkpt><trkpt lat="30.437006250012" lon="-5.654458917331052"><ele>815.25</ele><time>2026-03-25T09:23:26.977Z</time></trkpt><trkpt lat="30.43689956625972" lon="-5.654395636531581"><ele>815.5</ele><time>2026-03-25T09:23:27.977Z</time></trkpt><trkpt lat="30.436796652225627" lon="-5.654332018493885"><ele>815.75</ele><time>2026-03-25T09:23:28.977Z</time></trkpt><trkpt lat="30.436695543464946" lon="-5.65425482829671"><ele>816.0</ele><time>2026-03-25T09:23:29.977Z</time></trkpt><trkpt lat="30.4365994933597" lon="-5.654187007610108"><ele>816.0</ele><time>2026-03-25T09:23:30.977Z</time></trkpt><trkpt lat="30.436497486685123" lon="-5.65410828766953"><ele>816.0</ele><time>2026-03-25T09:23:31.977Z</time></trkpt><trkpt lat="30.436389895323348" lon="-5.6540311571297694"><ele>816.0</ele><time>2026-03-25T09:23:32.977Z</time></trkpt><trkpt lat="30.436288485005957" lon="-5.653958461852469"><ele>816.0</ele><time>2026-03-25T09:23:33.977Z</time></trkpt><trkpt lat="30.43619915153848" lon="-5.653883717355819"><ele>816.0</ele><time>2026-03-25T09:23:34.977Z</time></trkpt><trkpt lat="30.43610266923964" lon="-5.653811638043269"><ele>816.0</ele><time>2026-03-25T09:23:35.977Z</time></trkpt><trkpt lat="30.435998760935664" lon="-5.653741452173685"><ele>816.0</ele><time>2026-03-25T09:23:36.977Z</time></trkpt><trkpt lat="30.435894928930967" lon="-5.653673709382801"><ele>816.0</ele><time>2026-03-25T09:23:37.977Z</time></trkpt><trkpt lat="30.43579319614174" lon="-5.653599244229154"><ele>816.0</ele><time>2026-03-25T09:23:38.977Z</time></trkpt><trkpt lat="30.435691971749744" lon="-5.653538831655082"><ele>816.0</ele><time>2026-03-25T09:23:39.977Z</time></trkpt><trkpt lat="30.435585081244312" lon="-5.653468894838091"><ele>816.0</ele><time>2026-03-25T09:23:40.977Z</time></trkpt><trkpt lat="30.435493143459674" lon="-5.653398400769742"><ele>816.0</ele><time>2026-03-25T09:23:41.976Z</time></trkpt><trkpt lat="30.435401594340092" lon="-5.6533215247798045"><ele>815.5999999999999</ele><time>2026-03-25T09:23:42.976Z</time></trkpt><trkpt lat="30.435314471344594" lon="-5.65325034030099"><ele>815.2</ele><time>2026-03-25T09:23:43.976Z</time></trkpt><trkpt lat="30.435229874986057" lon="-5.65318559081551"><ele>814.8</ele><time>2026-03-25T09:23:44.976Z</time></trkpt><trkpt lat="30.435139668290297" lon="-5.65312835251492"><ele>814.4000000000001</ele><time>2026-03-25T09:23:45.976Z</time></trkpt><trkpt lat="30.435045276892083" lon="-5.653059442743178"><ele>814.0</ele><time>2026-03-25T09:23:46.976Z</time></trkpt><trkpt lat="30.43494984989509" lon="-5.652992485934987"><ele>814.0</ele><time>2026-03-25T09:23:47.976Z</time></trkpt><trkpt lat="30.434850308302234" lon="-5.652915856467526"><ele>814.0</ele><time>2026-03-25T09:23:48.976Z</time></trkpt><trkpt lat="30.434754465129636" lon="-5.652836952929902"><ele>814.0</ele><time>2026-03-25T09:23:49.976Z</time></trkpt><trkpt lat="30.434658799474903" lon="-5.652765566541688"><ele>814.0</ele><time>2026-03-25T09:23:50.976Z</time></trkpt><trkpt lat="30.434548045609798" lon="-5.652693004382299"><ele>813.75</ele><time>2026-03-25T09:23:51.976Z</time></trkpt><trkpt lat="30.43443953330519" lon="-5.652618585308566"><ele>813.5</ele><time>2026-03-25T09:23:52.976Z</time></trkpt><trkpt lat="30.434335347724293" lon="-5.652522682010548"><ele>813.25</ele><time>2026-03-25T09:23:53.976Z</time></trkpt><trkpt lat="30.434236613551107" lon="-5.652433980040089"><ele>813.0</ele><time>2026-03-25T09:23:54.976Z</time></trkpt><trkpt lat="30.43414146918465" lon="-5.652366823290036"><ele>813.0</ele><time>2026-03-25T09:23:55.976Z</time></trkpt><trkpt lat="30.434058709278997" lon="-5.652302621426954"><ele>813.0</ele><time>2026-03-25T09:23:56.976Z</time></trkpt><trkpt lat="30.433980145085386" lon="-5.652240125304919"><ele>813.0</ele><time>2026-03-25T09:23:57.976Z</time></trkpt><trkpt lat="30.433889435592903" lon="-5.652182545932371"><ele>813.0</ele><time>2026-03-25T09:23:58.976Z</time></trkpt><trkpt lat="30.43380144401231" lon="-5.652119108303934"><ele>813.0</ele><time>2026-03-25T09:23:59.976Z</time></trkpt><trkpt lat="30.433706228208475" lon="-5.652050048396138"><ele>813.25</ele><time>2026-03-25T09:24:00.976Z</time></trkpt><trkpt lat="30.43360885234038" lon="-5.651957625540575"><ele>813.5</ele><time>2026-03-25T09:24:01.976Z</time></trkpt><trkpt lat="30.433508444815573" lon="-5.651885418092031"><ele>813.75</ele><time>2026-03-25T09:24:02.976Z</time></trkpt><trkpt lat="30.433419806967102" lon="-5.651822697938468"><ele>814.0</ele><time>2026-03-25T09:24:03.976Z</time></trkpt><trkpt lat="30.4333240282749" lon="-5.651748158053467"><ele>814.0</ele><time>2026-03-25T09:24:04.976Z</time></trkpt><trkpt lat="30.433213685212795" lon="-5.651662158289537"><ele>814.0</ele><time>2026-03-25T09:24:05.976Z</time></trkpt><trkpt lat="30.433105372998483" lon="-5.651576685245952"><ele>814.0</ele><time>2026-03-25T09:24:06.976Z</time></trkpt><trkpt lat="30.43300450499198" lon="-5.651503474658272"><ele>814.0</ele><time>2026-03-25T09:24:07.976Z</time></trkpt><trkpt lat="30.432899998884306" lon="-5.651423243303428"><ele>814.0</ele><time>2026-03-25T09:24:08.976Z</time></trkpt><trkpt lat="30.4327929281676" lon="-5.65133775433882"><ele>814.0</ele><time>2026-03-25T09:24:09.976Z</time></trkpt><trkpt lat="30.432690008456483" lon="-5.651255563818346"><ele>814.0</ele><time>2026-03-25T09:24:10.976Z</time></trkpt><trkpt lat="30.432588465545397" lon="-5.651178350776639"><ele>814.0</ele><time>2026-03-25T09:24:11.976Z</time></trkpt><trkpt lat="30.432487712247926" lon="-5.651100408080164"><ele>813.25</ele><time>2026-03-25T09:24:12.976Z</time></trkpt><trkpt lat="30.432389806543295" lon="-5.651022119586851"><ele>812.5</ele><time>2026-03-25T09:24:13.976Z</time></trkpt><trkpt lat="30.432276410890328" lon="-5.650936680070001"><ele>811.75</ele><time>2026-03-25T09:24:14.976Z</time></trkpt><trkpt lat="30.432159382454483" lon="-5.650850434027775"><ele>811.0</ele><time>2026-03-25T09:24:15.976Z</time></trkpt><trkpt lat="30.432044915053464" lon="-5.650759250124339"><ele>811.0</ele><time>2026-03-25T09:24:16.976Z</time></trkpt><trkpt lat="30.431941057763726" lon="-5.650678065010247"><ele>811.0</ele><time>2026-03-25T09:24:17.976Z</time></trkpt><trkpt lat="30.431839440705687" lon="-5.650605456610233"><ele>811.0</ele><time>2026-03-25T09:24:18.976Z</time></trkpt><trkpt lat="30.43174012006113" lon="-5.650535985868988"><ele>811.0</ele><time>2026-03-25T09:24:19.976Z</time></trkpt><trkpt lat="30.43163924082732" lon="-5.650461196509315"><ele>811.0</ele><time>2026-03-25T09:24:20.976Z</time></trkpt><trkpt lat="30.431533793354102" lon="-5.650382287462071"><ele>811.0</ele><time>2026-03-25T09:24:21.976Z</time></trkpt><trkpt lat="30.43143521482025" lon="-5.650303264167646"><ele>811.0</ele><time>2026-03-25T09:24:22.976Z</time></trkpt><trkpt lat="30.43133596126538" lon="-5.650227736932207"><ele>811.0</ele><time>2026-03-25T09:24:23.976Z</time></trkpt><trkpt lat="30.431231823907943" lon="-5.650143036572336"><ele>810.75</ele><time>2026-03-25T09:24:24.976Z</time></trkpt><trkpt lat="30.431127789120463" lon="-5.650067377825815"><ele>810.5</ele><time>2026-03-25T09:24:25.976Z</time></trkpt><trkpt lat="30.431028312275583" lon="-5.6499940944966776"><ele>810.25</ele><time>2026-03-25T09:24:26.976Z</time></trkpt><trkpt lat="30.4309257539741" lon="-5.649921616121693"><ele>810.0</ele><time>2026-03-25T09:24:27.976Z</time></trkpt><trkpt lat="30.43082263697169" lon="-5.649842827988301"><ele>810.0</ele><time>2026-03-25T09:24:28.976Z</time></trkpt><trkpt lat="30.430716493612866" lon="-5.649755545552977"><ele>810.0</ele><time>2026-03-25T09:24:29.976Z</time></trkpt><trkpt lat="30.430607908008096" lon="-5.649673196038744"><ele>810.0</ele><time>2026-03-25T09:24:30.976Z</time></trkpt><trkpt lat="30.430508356695782" lon="-5.649589566448718"><ele>810.0</ele><time>2026-03-25T09:24:31.976Z</time></trkpt><trkpt lat="30.430411609819263" lon="-5.649506596344623"><ele>809.8</ele><time>2026-03-25T09:24:32.976Z</time></trkpt><trkpt lat="30.430319578855887" lon="-5.6494277453575"><ele>809.6</ele><time>2026-03-25T09:24:33.976Z</time></trkpt><trkpt lat="30.43024108724945" lon="-5.64935310274703"><ele>809.4000000000001</ele><time>2026-03-25T09:24:34.976Z</time></trkpt><trkpt lat="30.430165326830224" lon="-5.649279692125191"><ele>809.2</ele><time>2026-03-25T09:24:35.976Z</time></trkpt><trkpt lat="30.430097515472756" lon="-5.649221183067169"><ele>809.0</ele><time>2026-03-25T09:24:36.976Z</time></trkpt><trkpt lat="30.430027110428746" lon="-5.649169061951042"><ele>809.0</ele><time>2026-03-25T09:24:37.976Z</time></trkpt><trkpt lat="30.429949101930706" lon="-5.649108634879718"><ele>809.0</ele><time>2026-03-25T09:24:38.977Z</time></trkpt><trkpt lat="30.429864273405894" lon="-5.649050122494266"><ele>809.0</ele><time>2026-03-25T09:24:39.976Z</time></trkpt><trkpt lat="30.42978960918938" lon="-5.648985238398948"><ele>809.0</ele><time>2026-03-25T09:24:40.976Z</time></trkpt><trkpt lat="30.42970662024201" lon="-5.648917133094155"><ele>809.0</ele><time>2026-03-25T09:24:41.977Z</time></trkpt><trkpt lat="30.429605604777556" lon="-5.648840387074691"><ele>809.0</ele><time>2026-03-25T09:24:42.977Z</time></trkpt><trkpt lat="30.42951223426506" lon="-5.648761909369108"><ele>809.0</ele><time>2026-03-25T09:24:43.977Z</time></trkpt><trkpt lat="30.42942251201544" lon="-5.648691091749806"><ele>809.0</ele><time>2026-03-25T09:24:44.976Z</time></trkpt><trkpt lat="30.429327507725546" lon="-5.648613055226024"><ele>809.0</ele><time>2026-03-25T09:24:45.977Z</time></trkpt><trkpt lat="30.42923131247139" lon="-5.648534787706223"><ele>809.0</ele><time>2026-03-25T09:24:46.977Z</time></trkpt><trkpt lat="30.429133967054963" lon="-5.648446201541607"><ele>809.0</ele><time>2026-03-25T09:24:47.977Z</time></trkpt><trkpt lat="30.429022542887445" lon="-5.648371421308913"><ele>809.0</ele><time>2026-03-25T09:24:48.976Z</time></trkpt><trkpt lat="30.428917662197115" lon="-5.648271445985795"><ele>809.0</ele><time>2026-03-25T09:24:49.976Z</time></trkpt><trkpt lat="30.428816954579727" lon="-5.648186281256068"><ele>809.5</ele><time>2026-03-25T09:24:50.976Z</time></trkpt><trkpt lat="30.42871033750205" lon="-5.648100956922374"><ele>810.0</ele><time>2026-03-25T09:24:51.976Z</time></trkpt><trkpt lat="30.428605553992618" lon="-5.6480112429908145"><ele>810.5</ele><time>2026-03-25T09:24:52.976Z</time></trkpt><trkpt lat="30.42850012134631" lon="-5.647921464239634"><ele>811.0</ele><time>2026-03-25T09:24:53.976Z</time></trkpt><trkpt lat="30.42839138557392" lon="-5.64783200011469"><ele>810.0</ele><time>2026-03-25T09:24:54.976Z</time></trkpt><trkpt lat="30.428288726507574" lon="-5.647745642869017"><ele>809.0</ele><time>2026-03-25T09:24:55.976Z</time></trkpt><trkpt lat="30.428188937824913" lon="-5.647654362679839"><ele>808.0</ele><time>2026-03-25T09:24:56.976Z</time></trkpt><trkpt lat="30.428085262422186" lon="-5.6475631280078336"><ele>807.0</ele><time>2026-03-25T09:24:57.976Z</time></trkpt><trkpt lat="30.427981667130595" lon="-5.64747720931256"><ele>806.75</ele><time>2026-03-25T09:24:58.976Z</time></trkpt><trkpt lat="30.427885451041753" lon="-5.647391170447708"><ele>806.5</ele><time>2026-03-25T09:24:59.976Z</time></trkpt><trkpt lat="30.427776476545766" lon="-5.647300026234801"><ele>806.25</ele><time>2026-03-25T09:25:00.976Z</time></trkpt><trkpt lat="30.427675176631745" lon="-5.647211645692168"><ele>806.0</ele><time>2026-03-25T09:25:01.976Z</time></trkpt><trkpt lat="30.427565812686495" lon="-5.647122489299795"><ele>806.0</ele><time>2026-03-25T09:25:02.976Z</time></trkpt><trkpt lat="30.42745519955768" lon="-5.647038556188565"><ele>806.0</ele><time>2026-03-25T09:25:03.976Z</time></trkpt><trkpt lat="30.427354333477073" lon="-5.646943725318991"><ele>806.0</ele><time>2026-03-25T09:25:04.976Z</time></trkpt><trkpt lat="30.427243253257288" lon="-5.646855344228034"><ele>806.0</ele><time>2026-03-25T09:25:05.976Z</time></trkpt><trkpt lat="30.427141684364674" lon="-5.646768660145353"><ele>806.4</ele><time>2026-03-25T09:25:06.976Z</time></trkpt><trkpt lat="30.427051895100014" lon="-5.646694509924938"><ele>806.8</ele><time>2026-03-25T09:25:07.976Z</time></trkpt><trkpt lat="30.42697800001172" lon="-5.646623189451764"><ele>807.1999999999999</ele><time>2026-03-25T09:25:08.976Z</time></trkpt><trkpt lat="30.42690865476846" lon="-5.646551034452438"><ele>807.5999999999999</ele><time>2026-03-25T09:25:09.976Z</time></trkpt><trkpt lat="30.42685016475383" lon="-5.6464852278424384"><ele>808.0</ele><time>2026-03-25T09:25:10.976Z</time></trkpt><trkpt lat="30.426774311366167" lon="-5.646424470938201"><ele>808.0</ele><time>2026-03-25T09:25:11.976Z</time></trkpt><trkpt lat="30.42668960532057" lon="-5.646363556287209"><ele>808.0</ele><time>2026-03-25T09:25:12.976Z</time></trkpt><trkpt lat="30.42660026142437" lon="-5.646307192504247"><ele>808.0</ele><time>2026-03-25T09:25:13.976Z</time></trkpt><trkpt lat="30.42650519632641" lon="-5.646237936194952"><ele>808.0</ele><time>2026-03-25T09:25:14.976Z</time></trkpt><trkpt lat="30.426413782833308" lon="-5.646173915965973"><ele>808.0</ele><time>2026-03-25T09:25:15.976Z</time></trkpt><trkpt lat="30.42632794891264" lon="-5.646103628832749"><ele>808.4</ele><time>2026-03-25T09:25:16.976Z</time></trkpt><trkpt lat="30.426248708227714" lon="-5.64604165933061"><ele>808.8</ele><time>2026-03-25T09:25:17.976Z</time></trkpt><trkpt lat="30.426167832635407" lon="-5.645988132235501"><ele>809.2</ele><time>2026-03-25T09:25:18.976Z</time></trkpt><trkpt lat="30.426076493728548" lon="-5.645952758610352"><ele>809.6</ele><time>2026-03-25T09:25:19.976Z</time></trkpt><trkpt lat="30.425980662305633" lon="-5.64591838998275"><ele>810.0</ele><time>2026-03-25T09:25:20.976Z</time></trkpt><trkpt lat="30.425892187885612" lon="-5.645858667601575"><ele>810.0</ele><time>2026-03-25T09:25:21.976Z</time></trkpt><trkpt lat="30.425801904331134" lon="-5.645786748855361"><ele>810.0</ele><time>2026-03-25T09:25:22.976Z</time></trkpt><trkpt lat="30.425697943993526" lon="-5.645705942402464"><ele>810.0</ele><time>2026-03-25T09:25:23.976Z</time></trkpt><trkpt lat="30.425592742921655" lon="-5.645630021762574"><ele>810.0</ele><time>2026-03-25T09:25:24.976Z</time></trkpt><trkpt lat="30.425496154090467" lon="-5.645564805830452"><ele>810.25</ele><time>2026-03-25T09:25:25.976Z</time></trkpt><trkpt lat="30.425401449134316" lon="-5.6454936768373765"><ele>810.5</ele><time>2026-03-25T09:25:26.976Z</time></trkpt><trkpt lat="30.4253050813151" lon="-5.645415553201791"><ele>810.75</ele><time>2026-03-25T09:25:27.976Z</time></trkpt><trkpt lat="30.425209814005544" lon="-5.645342160348445"><ele>811.0</ele><time>2026-03-25T09:25:28.976Z</time></trkpt><trkpt lat="30.425121426558373" lon="-5.64526880566624"><ele>811.5999999999999</ele><time>2026-03-25T09:25:29.976Z</time></trkpt><trkpt lat="30.42502665050692" lon="-5.645196999567759"><ele>812.2</ele><time>2026-03-25T09:25:30.976Z</time></trkpt><trkpt lat="30.42494290314883" lon="-5.645128017870609"><ele>812.8</ele><time>2026-03-25T09:25:31.976Z</time></trkpt><trkpt lat="30.424866793585373" lon="-5.645055643099015"><ele>813.4000000000001</ele><time>2026-03-25T09:25:32.976Z</time></trkpt><trkpt lat="30.424790047352772" lon="-5.644991469600251"><ele>814.0</ele><time>2026-03-25T09:25:33.976Z</time></trkpt><trkpt lat="30.424703888283993" lon="-5.644910554338281"><ele>813.6666666666666</ele><time>2026-03-25T09:25:34.976Z</time></trkpt><trkpt lat="30.424587301757725" lon="-5.644813288441614"><ele>813.3333333333333</ele><time>2026-03-25T09:25:35.976Z</time></trkpt><trkpt lat="30.42444128904389" lon="-5.644700552083368"><ele>813.0</ele><time>2026-03-25T09:25:36.976Z</time></trkpt><trkpt lat="30.424277011608133" lon="-5.644571685975732"><ele>813.0</ele><time>2026-03-25T09:25:37.976Z</time></trkpt><trkpt lat="30.424140499024805" lon="-5.644458809149481"><ele>813.0</ele><time>2026-03-25T09:25:38.976Z</time></trkpt><trkpt lat="30.42403523614354" lon="-5.644369027070267"><ele>813.0</ele><time>2026-03-25T09:25:39.976Z</time></trkpt><trkpt lat="30.423948002792194" lon="-5.644294987917134"><ele>813.0</ele><time>2026-03-25T09:25:40.976Z</time></trkpt><trkpt lat="30.42388331427826" lon="-5.644225022636487"><ele>813.0</ele><time>2026-03-25T09:25:41.976Z</time></trkpt><trkpt lat="30.423815149378644" lon="-5.644158192986258"><ele>813.0</ele><time>2026-03-25T09:25:42.976Z</time></trkpt><trkpt lat="30.423751625241316" lon="-5.6440953007674874"><ele>813.0</ele><time>2026-03-25T09:25:43.976Z</time></trkpt><trkpt lat="30.42366072400308" lon="-5.6440334886109955"><ele>813.0</ele><time>2026-03-25T09:25:44.976Z</time></trkpt><trkpt lat="30.423568955351623" lon="-5.643968222064815"><ele>813.0</ele><time>2026-03-25T09:25:45.976Z</time></trkpt><trkpt lat="30.42346913079711" lon="-5.643896245289598"><ele>812.8</ele><time>2026-03-25T09:25:46.976Z</time></trkpt><trkpt lat="30.423380021890203" lon="-5.643828346438167"><ele>812.5999999999999</ele><time>2026-03-25T09:25:47.976Z</time></trkpt><trkpt lat="30.423300877017954" lon="-5.643767716492976"><ele>812.4000000000001</ele><time>2026-03-25T09:25:48.976Z</time></trkpt><trkpt lat="30.423212161759874" lon="-5.64372805325551"><ele>812.2</ele><time>2026-03-25T09:25:49.976Z</time></trkpt><trkpt lat="30.42311228458732" lon="-5.643674402890791"><ele>812.0</ele><time>2026-03-25T09:25:50.976Z</time></trkpt><trkpt lat="30.42299098621224" lon="-5.64359994353463"><ele>813.0</ele><time>2026-03-25T09:25:51.976Z</time></trkpt><trkpt lat="30.42286530739663" lon="-5.643510647656966"><ele>814.0</ele><time>2026-03-25T09:25:52.976Z</time></trkpt><trkpt lat="30.422755724926805" lon="-5.643414689246609"><ele>815.0</ele><time>2026-03-25T09:25:53.976Z</time></trkpt><trkpt lat="30.42267204377278" lon="-5.643346010044166"><ele>816.0</ele><time>2026-03-25T09:25:54.976Z</time></trkpt><trkpt lat="30.422586400712078" lon="-5.643275692957495"><ele>816.0</ele><time>2026-03-25T09:25:55.976Z</time></trkpt><trkpt lat="30.422508912299037" lon="-5.643212806515718"><ele>816.0</ele><time>2026-03-25T09:25:56.976Z</time></trkpt><trkpt lat="30.422434887363856" lon="-5.643158765022503"><ele>816.0</ele><time>2026-03-25T09:25:57.976Z</time></trkpt><trkpt lat="30.4223526237436" lon="-5.643112960112911"><ele>816.0</ele><time>2026-03-25T09:25:58.976Z</time></trkpt><trkpt lat="30.42229576811472" lon="-5.643058054896948"><ele>816.0</ele><time>2026-03-25T09:25:59.976Z</time></trkpt><trkpt lat="30.422209334600808" lon="-5.643001808885701"><ele>816.0</ele><time>2026-03-25T09:26:00.976Z</time></trkpt><trkpt lat="30.422128856838082" lon="-5.642937027690736"><ele>816.0</ele><time>2026-03-25T09:26:01.976Z</time></trkpt><trkpt lat="30.422043655187352" lon="-5.642871549050848"><ele>816.0</ele><time>2026-03-25T09:26:02.976Z</time></trkpt><trkpt lat="30.421957492881734" lon="-5.642799272618767"><ele>816.0</ele><time>2026-03-25T09:26:03.976Z</time></trkpt><trkpt lat="30.421876195738637" lon="-5.642724686487313"><ele>816.0</ele><time>2026-03-25T09:26:04.976Z</time></trkpt><trkpt lat="30.421790135225425" lon="-5.6426563966504375"><ele>816.0</ele><time>2026-03-25T09:26:05.976Z</time></trkpt><trkpt lat="30.421711550534297" lon="-5.642577593860839"><ele>816.25</ele><time>2026-03-25T09:26:06.975Z</time></trkpt><trkpt lat="30.421637259065996" lon="-5.642472844523799"><ele>816.5</ele><time>2026-03-25T09:26:07.975Z</time></trkpt><trkpt lat="30.42156788873049" lon="-5.642362274315654"><ele>816.75</ele><time>2026-03-25T09:26:08.975Z</time></trkpt><trkpt lat="30.42151451824576" lon="-5.642266708219711"><ele>817.0</ele><time>2026-03-25T09:26:09.975Z</time></trkpt><trkpt lat="30.421457833158787" lon="-5.6421448253368665"><ele>817.0</ele><time>2026-03-25T09:26:10.975Z</time></trkpt><trkpt lat="30.421404836839407" lon="-5.642044738780195"><ele>817.0</ele><time>2026-03-25T09:26:11.975Z</time></trkpt><trkpt lat="30.421357322226918" lon="-5.641952191404498"><ele>817.0</ele><time>2026-03-25T09:26:12.975Z</time></trkpt><trkpt lat="30.421303827065667" lon="-5.641853144599923"><ele>817.0</ele><time>2026-03-25T09:26:13.975Z</time></trkpt><trkpt lat="30.421245002919377" lon="-5.641753434463005"><ele>817.0</ele><time>2026-03-25T09:26:14.975Z</time></trkpt><trkpt lat="30.421186539689913" lon="-5.641660270051474"><ele>817.4000000000001</ele><time>2026-03-25T09:26:15.975Z</time></trkpt><trkpt lat="30.421126163553495" lon="-5.641575099838031"><ele>817.8000000000001</ele><time>2026-03-25T09:26:16.975Z</time></trkpt><trkpt lat="30.421073933642027" lon="-5.6414914072833025"><ele>818.2</ele><time>2026-03-25T09:26:17.975Z</time></trkpt><trkpt lat="30.421027120097573" lon="-5.641397328069469"><ele>818.6</ele><time>2026-03-25T09:26:18.975Z</time></trkpt><trkpt lat="30.42098062269589" lon="-5.641290823337854"><ele>819.0</ele><time>2026-03-25T09:26:19.975Z</time></trkpt><trkpt lat="30.420934271608036" lon="-5.641191815596609"><ele>819.6</ele><time>2026-03-25T09:26:20.975Z</time></trkpt><trkpt lat="30.42088589199561" lon="-5.641091099951527"><ele>820.2</ele><time>2026-03-25T09:26:21.975Z</time></trkpt><trkpt lat="30.42084141578242" lon="-5.640973563879794"><ele>820.8000000000001</ele><time>2026-03-25T09:26:22.975Z</time></trkpt><trkpt lat="30.42080964927266" lon="-5.6408436485902715"><ele>821.4000000000001</ele><time>2026-03-25T09:26:23.975Z</time></trkpt><trkpt lat="30.420780488730905" lon="-5.6407115067573805"><ele>822.0</ele><time>2026-03-25T09:26:24.975Z</time></trkpt><trkpt lat="30.42075438964779" lon="-5.640583994375778"><ele>822.0</ele><time>2026-03-25T09:26:25.975Z</time></trkpt><trkpt lat="30.420737509745887" lon="-5.640469825316945"><ele>822.0</ele><time>2026-03-25T09:26:26.975Z</time></trkpt><trkpt lat="30.420714850942396" lon="-5.640349935531185"><ele>822.0</ele><time>2026-03-25T09:26:27.975Z</time></trkpt><trkpt lat="30.420690364306335" lon="-5.640226637663657"><ele>822.0</ele><time>2026-03-25T09:26:28.975Z</time></trkpt><trkpt lat="30.42066915523041" lon="-5.640107482333959"><ele>822.0</ele><time>2026-03-25T09:26:29.975Z</time></trkpt><trkpt lat="30.420648834253953" lon="-5.63998053295915"><ele>823.25</ele><time>2026-03-25T09:26:30.975Z</time></trkpt><trkpt lat="30.420625257847302" lon="-5.639849607677875"><ele>824.5</ele><time>2026-03-25T09:26:31.975Z</time></trkpt><trkpt lat="30.420610600930207" lon="-5.639720136220888"><ele>825.75</ele><time>2026-03-25T09:26:32.975Z</time></trkpt><trkpt lat="30.420594049034786" lon="-5.639595083465379"><ele>827.0</ele><time>2026-03-25T09:26:33.975Z</time></trkpt><trkpt lat="30.420576689789932" lon="-5.639465465935607"><ele>827.0</ele><time>2026-03-25T09:26:34.975Z</time></trkpt><trkpt lat="30.42056941226729" lon="-5.63934260296482"><ele>827.0</ele><time>2026-03-25T09:26:35.975Z</time></trkpt><trkpt lat="30.420560632399894" lon="-5.639209028206009"><ele>827.0</ele><time>2026-03-25T09:26:36.975Z</time></trkpt><trkpt lat="30.42055703610357" lon="-5.639080885292253"><ele>827.0</ele><time>2026-03-25T09:26:37.975Z</time></trkpt><trkpt lat="30.420562752000258" lon="-5.638955694508746"><ele>827.0</ele><time>2026-03-25T09:26:38.975Z</time></trkpt><trkpt lat="30.420562042522146" lon="-5.6388253974127425"><ele>827.0</ele><time>2026-03-25T09:26:39.975Z</time></trkpt><trkpt lat="30.42056976008612" lon="-5.638692520152534"><ele>827.0</ele><time>2026-03-25T09:26:40.975Z</time></trkpt><trkpt lat="30.420592643161996" lon="-5.6385635672262024"><ele>827.0</ele><time>2026-03-25T09:26:41.975Z</time></trkpt><trkpt lat="30.42062431034742" lon="-5.63845698422455"><ele>827.0</ele><time>2026-03-25T09:26:42.975Z</time></trkpt><trkpt lat="30.420655199025617" lon="-5.638328256208376"><ele>827.0</ele><time>2026-03-25T09:26:43.975Z</time></trkpt><trkpt lat="30.420694586711253" lon="-5.638189298344451"><ele>826.75</ele><time>2026-03-25T09:26:44.976Z</time></trkpt><trkpt lat="30.420733469324208" lon="-5.638038174036934"><ele>826.5</ele><time>2026-03-25T09:26:45.975Z</time></trkpt><trkpt lat="30.42076390988667" lon="-5.637887956691665"><ele>826.25</ele><time>2026-03-25T09:26:46.975Z</time></trkpt><trkpt lat="30.42078784748149" lon="-5.6377420014004835"><ele>826.0</ele><time>2026-03-25T09:26:47.976Z</time></trkpt><trkpt lat="30.42081910029524" lon="-5.637603554571093"><ele>826.0</ele><time>2026-03-25T09:26:48.976Z</time></trkpt><trkpt lat="30.420849628449968" lon="-5.637459881906804"><ele>826.0</ele><time>2026-03-25T09:26:49.976Z</time></trkpt><trkpt lat="30.42087894508584" lon="-5.637323852372934"><ele>826.0</ele><time>2026-03-25T09:26:50.976Z</time></trkpt><trkpt lat="30.4209078117921" lon="-5.6371829934820274"><ele>826.0</ele><time>2026-03-25T09:26:51.976Z</time></trkpt><trkpt lat="30.420946220154775" lon="-5.637052893101548"><ele>825.25</ele><time>2026-03-25T09:26:52.976Z</time></trkpt><trkpt lat="30.420989606044373" lon="-5.636911852924334"><ele>824.5</ele><time>2026-03-25T09:26:53.976Z</time></trkpt><trkpt lat="30.421032583699155" lon="-5.636771343214507"><ele>823.75</ele><time>2026-03-25T09:26:54.975Z</time></trkpt><trkpt lat="30.421064550649177" lon="-5.636625845705416"><ele>823.0</ele><time>2026-03-25T09:26:55.975Z</time></trkpt><trkpt lat="30.42109625045088" lon="-5.636495571690587"><ele>823.0</ele><time>2026-03-25T09:26:56.976Z</time></trkpt><trkpt lat="30.421124140375333" lon="-5.636373244812907"><ele>823.0</ele><time>2026-03-25T09:26:57.975Z</time></trkpt><trkpt lat="30.42115851196106" lon="-5.636271769570107"><ele>823.0</ele><time>2026-03-25T09:26:58.975Z</time></trkpt><trkpt lat="30.42118189392838" lon="-5.636167669928147"><ele>823.0</ele><time>2026-03-25T09:26:59.975Z</time></trkpt><trkpt lat="30.421186859197977" lon="-5.636052591048178"><ele>823.0</ele><time>2026-03-25T09:27:00.975Z</time></trkpt><trkpt lat="30.42121795621245" lon="-5.635946252656007"><ele>823.4</ele><time>2026-03-25T09:27:01.975Z</time></trkpt><trkpt lat="30.421235830781303" lon="-5.63583857117628"><ele>823.8</ele><time>2026-03-25T09:27:02.975Z</time></trkpt><trkpt lat="30.421254497860023" lon="-5.6357314776109355"><ele>824.2</ele><time>2026-03-25T09:27:03.975Z</time></trkpt><trkpt lat="30.42127168231085" lon="-5.635622593336907"><ele>824.6</ele><time>2026-03-25T09:27:04.975Z</time></trkpt><trkpt lat="30.42128443257448" lon="-5.635507956561289"><ele>825.0</ele><time>2026-03-25T09:27:05.975Z</time></trkpt><trkpt lat="30.421294319011505" lon="-5.63539040248803"><ele>825.2</ele><time>2026-03-25T09:27:06.975Z</time></trkpt><trkpt lat="30.421291573039976" lon="-5.635282268707183"><ele>825.4</ele><time>2026-03-25T09:27:07.975Z</time></trkpt><trkpt lat="30.421286299541148" lon="-5.635168629737993"><ele>825.5999999999999</ele><time>2026-03-25T09:27:08.975Z</time></trkpt><trkpt lat="30.421283808329434" lon="-5.635064575192387"><ele>825.8</ele><time>2026-03-25T09:27:09.975Z</time></trkpt><trkpt lat="30.42129007421499" lon="-5.634946636404375"><ele>826.0</ele><time>2026-03-25T09:27:10.975Z</time></trkpt><trkpt lat="30.421303652503035" lon="-5.634832830287689"><ele>826.0</ele><time>2026-03-25T09:27:11.975Z</time></trkpt><trkpt lat="30.421303380404996" lon="-5.634709727658039"><ele>826.0</ele><time>2026-03-25T09:27:12.975Z</time></trkpt><trkpt lat="30.421308488863943" lon="-5.634592268207459"><ele>826.0</ele><time>2026-03-25T09:27:13.975Z</time></trkpt><trkpt lat="30.421304313996597" lon="-5.634478095429276"><ele>826.0</ele><time>2026-03-25T09:27:14.975Z</time></trkpt><trkpt lat="30.421304074191596" lon="-5.634365680656365"><ele>826.0</ele><time>2026-03-25T09:27:15.975Z</time></trkpt><trkpt lat="30.421323696763853" lon="-5.634236168593594"><ele>827.1999999999999</ele><time>2026-03-25T09:27:16.975Z</time></trkpt><trkpt lat="30.421334041582114" lon="-5.634111854040162"><ele>828.4</ele><time>2026-03-25T09:27:17.975Z</time></trkpt><trkpt lat="30.421347724104315" lon="-5.633995443032413"><ele>829.6</ele><time>2026-03-25T09:27:18.975Z</time></trkpt><trkpt lat="30.421354414634692" lon="-5.633880065397896"><ele>830.8</ele><time>2026-03-25T09:27:19.975Z</time></trkpt><trkpt lat="30.421351609198485" lon="-5.633754727142547"><ele>832.0</ele><time>2026-03-25T09:27:20.975Z</time></trkpt><trkpt lat="30.421345331897584" lon="-5.633637454929063"><ele>832.0</ele><time>2026-03-25T09:27:21.975Z</time></trkpt><trkpt lat="30.421338708034938" lon="-5.633516933554594"><ele>832.0</ele><time>2026-03-25T09:27:22.975Z</time></trkpt><trkpt lat="30.42134032484353" lon="-5.633393185039738"><ele>832.0</ele><time>2026-03-25T09:27:23.975Z</time></trkpt><trkpt lat="30.421357749125548" lon="-5.633263279945661"><ele>832.0</ele><time>2026-03-25T09:27:24.975Z</time></trkpt><trkpt lat="30.42137444757885" lon="-5.633142974444703"><ele>832.0</ele><time>2026-03-25T09:27:25.975Z</time></trkpt><trkpt lat="30.421384371433128" lon="-5.633027414897736"><ele>831.9999999999999</ele><time>2026-03-25T09:27:26.975Z</time></trkpt><trkpt lat="30.421381721671004" lon="-5.632919146688522"><ele>832.0</ele><time>2026-03-25T09:27:27.975Z</time></trkpt><trkpt lat="30.421364861164747" lon="-5.632817400706899"><ele>832.0</ele><time>2026-03-25T09:27:28.975Z</time></trkpt><trkpt lat="30.421351910960716" lon="-5.632733401043928"><ele>832.0</ele><time>2026-03-25T09:27:29.975Z</time></trkpt><trkpt lat="30.421337118424923" lon="-5.632659374000611"><ele>831.9999999999999</ele><time>2026-03-25T09:27:30.975Z</time></trkpt><trkpt lat="30.42134151492345" lon="-5.632534755016108"><ele>832.0</ele><time>2026-03-25T09:27:32.975Z</time></trkpt><trkpt lat="30.421342947210338" lon="-5.632445902265419"><ele>831.9999999999999</ele><time>2026-03-25T09:27:34.975Z</time></trkpt><trkpt lat="30.421326197281935" lon="-5.632374935187578"><ele>832.0</ele><time>2026-03-25T09:27:37.975Z</time></trkpt><trkpt lat="30.42131104327662" lon="-5.632303933611103"><ele>832.0</ele><time>2026-03-25T09:27:41.975Z</time></trkpt><trkpt lat="30.421254303330805" lon="-5.632204082743564"><ele>832.0</ele><time>2026-03-25T09:27:46.975Z</time></trkpt><trkpt lat="30.4212032574417" lon="-5.632158565385159"><ele>831.9999999999999</ele><time>2026-03-25T09:27:47.975Z</time></trkpt><trkpt lat="30.421101697051025" lon="-5.632096563340233"><ele>832.0</ele><time>2026-03-25T09:27:49.975Z</time></trkpt><trkpt lat="30.42099567026559" lon="-5.6321036857591515"><ele>831.9999999999999</ele><time>2026-03-25T09:27:51.975Z</time></trkpt><trkpt lat="30.42091866372074" lon="-5.632142455157343"><ele>832.0</ele><time>2026-03-25T09:27:52.975Z</time></trkpt><trkpt lat="30.42082799424029" lon="-5.632192844920817"><ele>832.0</ele><time>2026-03-25T09:27:54.975Z</time></trkpt><trkpt lat="30.420750779112712" lon="-5.63225779066066"><ele>832.0</ele><time>2026-03-25T09:27:56.975Z</time></trkpt><trkpt lat="30.42067416378365" lon="-5.6322785873067795"><ele>831.9999999999999</ele><time>2026-03-25T09:27:58.975Z</time></trkpt><trkpt lat="30.42060848865108" lon="-5.632210414511464"><ele>832.0</ele><time>2026-03-25T09:28:00.975Z</time></trkpt><trkpt lat="30.42061109900855" lon="-5.632101670294919"><ele>831.9999999999999</ele><time>2026-03-25T09:28:02.975Z</time></trkpt><trkpt lat="30.420656335090953" lon="-5.6320122074281285"><ele>832.0</ele><time>2026-03-25T09:28:04.975Z</time></trkpt><trkpt lat="30.4206821336109" lon="-5.631929695366657"><ele>832.0</ele><time>2026-03-25T09:28:06.975Z</time></trkpt><trkpt lat="30.42069019998157" lon="-5.631848210258965"><ele>832.0</ele><time>2026-03-25T09:28:10.975Z</time></trkpt><trkpt lat="30.420739503924825" lon="-5.631793221682256"><ele>831.9999999999999</ele><time>2026-03-25T09:28:20.975Z</time></trkpt><trkpt lat="30.42079959898439" lon="-5.631702113790322"><ele>832.0</ele><time>2026-03-25T09:28:23.975Z</time></trkpt><trkpt lat="30.420820384706868" lon="-5.631591204620526"><ele>832.4999999999999</ele><time>2026-03-25T09:28:25.975Z</time></trkpt><trkpt lat="30.42083208815037" lon="-5.631463546697742"><ele>833.0</ele><time>2026-03-25T09:28:27.975Z</time></trkpt><trkpt lat="30.420819676570584" lon="-5.631343414254733"><ele>833.5</ele><time>2026-03-25T09:28:29.975Z</time></trkpt><trkpt lat="30.420796697428298" lon="-5.631273783306507"><ele>834.0</ele><time>2026-03-25T09:28:30.975Z</time></trkpt><trkpt lat="30.42077159193181" lon="-5.631204933648114"><ele>834.4999999999999</ele><time>2026-03-25T09:28:31.975Z</time></trkpt><trkpt lat="30.42073871645275" lon="-5.631130703291849"><ele>835.0</ele><time>2026-03-25T09:28:32.975Z</time></trkpt><trkpt lat="30.420706132005375" lon="-5.631050725328512"><ele>835.25</ele><time>2026-03-25T09:28:33.975Z</time></trkpt><trkpt lat="30.42067876696382" lon="-5.630943466133049"><ele>835.5</ele><time>2026-03-25T09:28:34.975Z</time></trkpt><trkpt lat="30.420647160696728" lon="-5.630810780851453"><ele>835.75</ele><time>2026-03-25T09:28:35.975Z</time></trkpt><trkpt lat="30.420628807439705" lon="-5.6306582648252945"><ele>836.0</ele><time>2026-03-25T09:28:36.975Z</time></trkpt><trkpt lat="30.42061279334513" lon="-5.630529143027583"><ele>836.0</ele><time>2026-03-25T09:28:37.975Z</time></trkpt><trkpt lat="30.420583295564303" lon="-5.630418070928136"><ele>836.0</ele><time>2026-03-25T09:28:38.975Z</time></trkpt><trkpt lat="30.420555583279413" lon="-5.630318417472917"><ele>836.0</ele><time>2026-03-25T09:28:39.975Z</time></trkpt><trkpt lat="30.420522221488376" lon="-5.630222474352038"><ele>836.0</ele><time>2026-03-25T09:28:40.975Z</time></trkpt><trkpt lat="30.420488439055504" lon="-5.630126451689201"><ele>836.0</ele><time>2026-03-25T09:28:41.975Z</time></trkpt><trkpt lat="30.420460527353832" lon="-5.63002429005178"><ele>836.0</ele><time>2026-03-25T09:28:42.975Z</time></trkpt><trkpt lat="30.420449936884758" lon="-5.629909315805529"><ele>836.0</ele><time>2026-03-25T09:28:43.975Z</time></trkpt><trkpt lat="30.420456257821524" lon="-5.6298224657850975"><ele>836.0</ele><time>2026-03-25T09:28:44.975Z</time></trkpt><trkpt lat="30.420445380433467" lon="-5.6297178679377815"><ele>836.0</ele><time>2026-03-25T09:28:46.975Z</time></trkpt><trkpt lat="30.420398934233663" lon="-5.629638154627388"><ele>836.0</ele><time>2026-03-25T09:28:49.975Z</time></trkpt><trkpt lat="30.420418466628664" lon="-5.629514435970947"><ele>836.5999999999999</ele><time>2026-03-25T09:28:51.975Z</time></trkpt><trkpt lat="30.420457167393614" lon="-5.629446656671454"><ele>837.2</ele><time>2026-03-25T09:28:52.975Z</time></trkpt><trkpt lat="30.420495202328947" lon="-5.629355716248157"><ele>837.8</ele><time>2026-03-25T09:28:53.975Z</time></trkpt><trkpt lat="30.420543782774995" lon="-5.629263990679345"><ele>838.4000000000001</ele><time>2026-03-25T09:28:54.975Z</time></trkpt><trkpt lat="30.420596423178303" lon="-5.629140982544277"><ele>839.0</ele><time>2026-03-25T09:28:55.975Z</time></trkpt><trkpt lat="30.42065744242869" lon="-5.6290029336097565"><ele>839.0</ele><time>2026-03-25T09:28:56.975Z</time></trkpt><trkpt lat="30.420729795938357" lon="-5.628839269863858"><ele>839.0</ele><time>2026-03-25T09:28:57.975Z</time></trkpt><trkpt lat="30.420807338134093" lon="-5.628649196424131"><ele>839.0</ele><time>2026-03-25T09:28:58.975Z</time></trkpt><trkpt lat="30.420894636071797" lon="-5.628450175800607"><ele>841.0</ele><time>2026-03-25T09:28:59.975Z</time></trkpt><trkpt lat="30.420961230074845" lon="-5.62826658696642"><ele>843.0</ele><time>2026-03-25T09:29:00.975Z</time></trkpt><trkpt lat="30.42101736728957" lon="-5.6281145922593945"><ele>845.0</ele><time>2026-03-25T09:29:01.975Z</time></trkpt><trkpt lat="30.4210728704004" lon="-5.627958315282995"><ele>846.0</ele><time>2026-03-25T09:29:02.975Z</time></trkpt><trkpt lat="30.42113160606873" lon="-5.627808992141607"><ele>847.0</ele><time>2026-03-25T09:29:03.975Z</time></trkpt><trkpt lat="30.421182999682127" lon="-5.627655973474583"><ele>848.0</ele><time>2026-03-25T09:29:04.975Z</time></trkpt><trkpt lat="30.421236309689856" lon="-5.627499901518077"><ele>849.0</ele><time>2026-03-25T09:29:05.975Z</time></trkpt><trkpt lat="30.421285426953425" lon="-5.627340670168888"><ele>847.5</ele><time>2026-03-25T09:29:06.975Z</time></trkpt><trkpt lat="30.421326547024165" lon="-5.627182801558417"><ele>846.0</ele><time>2026-03-25T09:29:07.975Z</time></trkpt><trkpt lat="30.42137252522179" lon="-5.627022747115138"><ele>844.5</ele><time>2026-03-25T09:29:08.975Z</time></trkpt><trkpt lat="30.421418567129738" lon="-5.6268618766180145"><ele>843.0</ele><time>2026-03-25T09:29:09.975Z</time></trkpt><trkpt lat="30.42146420651558" lon="-5.626697233853844"><ele>843.0</ele><time>2026-03-25T09:29:10.975Z</time></trkpt><trkpt lat="30.421499282675" lon="-5.6265296157259765"><ele>843.0</ele><time>2026-03-25T09:29:11.975Z</time></trkpt><trkpt lat="30.421542270970402" lon="-5.626357898488693"><ele>843.0</ele><time>2026-03-25T09:29:12.975Z</time></trkpt><trkpt lat="30.421577948391615" lon="-5.626179924497978"><ele>843.75</ele><time>2026-03-25T09:29:13.975Z</time></trkpt><trkpt lat="30.421612940598212" lon="-5.6260152557198575"><ele>844.5</ele><time>2026-03-25T09:29:14.975Z</time></trkpt><trkpt lat="30.421642017093657" lon="-5.625854574038296"><ele>845.25</ele><time>2026-03-25T09:29:15.975Z</time></trkpt><trkpt lat="30.421667151171953" lon="-5.625701328184344"><ele>846.0</ele><time>2026-03-25T09:29:16.975Z</time></trkpt><trkpt lat="30.421700940502095" lon="-5.625554397641983"><ele>846.0</ele><time>2026-03-25T09:29:17.975Z</time></trkpt><trkpt lat="30.421726294837153" lon="-5.625392757671658"><ele>846.0</ele><time>2026-03-25T09:29:18.975Z</time></trkpt><trkpt lat="30.421752528711895" lon="-5.625231345313024"><ele>846.0</ele><time>2026-03-25T09:29:19.975Z</time></trkpt><trkpt lat="30.42177712115129" lon="-5.625072060920938"><ele>846.0</ele><time>2026-03-25T09:29:20.975Z</time></trkpt><trkpt lat="30.42179475868462" lon="-5.624910837070689"><ele>846.0</ele><time>2026-03-25T09:29:21.975Z</time></trkpt><trkpt lat="30.421817263452883" lon="-5.624747061457655"><ele>846.0</ele><time>2026-03-25T09:29:22.975Z</time></trkpt><trkpt lat="30.421831763768203" lon="-5.624571490771331"><ele>846.0</ele><time>2026-03-25T09:29:23.975Z</time></trkpt><trkpt lat="30.421856067448136" lon="-5.624402995508358"><ele>846.0</ele><time>2026-03-25T09:29:24.975Z</time></trkpt><trkpt lat="30.421871010201073" lon="-5.624226257823688"><ele>846.6666666666667</ele><time>2026-03-25T09:29:25.975Z</time></trkpt><trkpt lat="30.42188649545115" lon="-5.624047447674773"><ele>847.3333333333334</ele><time>2026-03-25T09:29:26.975Z</time></trkpt><trkpt lat="30.42189869249197" lon="-5.6238691634569875"><ele>848.0</ele><time>2026-03-25T09:29:27.975Z</time></trkpt><trkpt lat="30.421910243663845" lon="-5.623689193729789"><ele>848.75</ele><time>2026-03-25T09:29:28.975Z</time></trkpt><trkpt lat="30.421919853411715" lon="-5.62352319837217"><ele>849.5</ele><time>2026-03-25T09:29:29.975Z</time></trkpt><trkpt lat="30.421922416928393" lon="-5.6233553704513835"><ele>850.25</ele><time>2026-03-25T09:29:30.975Z</time></trkpt><trkpt lat="30.421922531555584" lon="-5.623189760136783"><ele>851.0</ele><time>2026-03-25T09:29:31.975Z</time></trkpt><trkpt lat="30.421926036140025" lon="-5.623022250839364"><ele>851.0</ele><time>2026-03-25T09:29:32.975Z</time></trkpt><trkpt lat="30.42192775283351" lon="-5.622857006667436"><ele>851.0</ele><time>2026-03-25T09:29:33.975Z</time></trkpt><trkpt lat="30.421921283939582" lon="-5.622688935976467"><ele>851.0</ele><time>2026-03-25T09:29:34.975Z</time></trkpt><trkpt lat="30.421922594777573" lon="-5.622527807694379"><ele>851.0</ele><time>2026-03-25T09:29:35.975Z</time></trkpt><trkpt lat="30.42191966842783" lon="-5.62236385012118"><ele>851.25</ele><time>2026-03-25T09:29:36.975Z</time></trkpt><trkpt lat="30.421917214748095" lon="-5.622196303306059"><ele>851.5</ele><time>2026-03-25T09:29:37.975Z</time></trkpt><trkpt lat="30.421921482788644" lon="-5.622028286040565"><ele>851.75</ele><time>2026-03-25T09:29:38.975Z</time></trkpt><trkpt lat="30.421916866116764" lon="-5.621852386996614"><ele>852.0</ele><time>2026-03-25T09:29:39.975Z</time></trkpt><trkpt lat="30.421917691849593" lon="-5.621677889806707"><ele>852.6666666666667</ele><time>2026-03-25T09:29:40.975Z</time></trkpt><trkpt lat="30.421917211509335" lon="-5.621500867661135"><ele>853.3333333333334</ele><time>2026-03-25T09:29:41.975Z</time></trkpt><trkpt lat="30.42192114219197" lon="-5.62132420825194"><ele>854.0</ele><time>2026-03-25T09:29:42.975Z</time></trkpt><trkpt lat="30.421918175225496" lon="-5.621145527654327"><ele>854.3333333333334</ele><time>2026-03-25T09:29:43.975Z</time></trkpt><trkpt lat="30.421914650757614" lon="-5.6209564951729085"><ele>854.6666666666667</ele><time>2026-03-25T09:29:44.975Z</time></trkpt><trkpt lat="30.42191651148662" lon="-5.620766576654692"><ele>855.0</ele><time>2026-03-25T09:29:45.975Z</time></trkpt><trkpt lat="30.42192052815679" lon="-5.62057608585272"><ele>855.0</ele><time>2026-03-25T09:29:46.975Z</time></trkpt><trkpt lat="30.421920035984694" lon="-5.620380898886561"><ele>855.0</ele><time>2026-03-25T09:29:47.975Z</time></trkpt><trkpt lat="30.42191174050895" lon="-5.620180990204423"><ele>855.0</ele><time>2026-03-25T09:29:48.975Z</time></trkpt><trkpt lat="30.4219154192622" lon="-5.619990120874642"><ele>855.6666666666667</ele><time>2026-03-25T09:29:49.975Z</time></trkpt><trkpt lat="30.421911421363607" lon="-5.619795985778876"><ele>856.3333333333334</ele><time>2026-03-25T09:29:50.975Z</time></trkpt><trkpt lat="30.42191059443612" lon="-5.619600174050223"><ele>857.0</ele><time>2026-03-25T09:29:51.975Z</time></trkpt><trkpt lat="30.42190435805002" lon="-5.6194142701799725"><ele>857.8</ele><time>2026-03-25T09:29:52.975Z</time></trkpt><trkpt lat="30.421902841325092" lon="-5.619271117533998"><ele>858.6</ele><time>2026-03-25T09:29:53.975Z</time></trkpt><trkpt lat="30.421901064283826" lon="-5.619146378071114"><ele>859.3999999999999</ele><time>2026-03-25T09:29:54.975Z</time></trkpt><trkpt lat="30.421901764249704" lon="-5.61902568531704"><ele>860.1999999999999</ele><time>2026-03-25T09:29:55.975Z</time></trkpt><trkpt lat="30.42189486013933" lon="-5.618909291650786"><ele>861.0</ele><time>2026-03-25T09:29:56.975Z</time></trkpt><trkpt lat="30.421872011586984" lon="-5.618787343179815"><ele>861.0</ele><time>2026-03-25T09:29:57.975Z</time></trkpt><trkpt lat="30.421828455200895" lon="-5.618661243738601"><ele>860.9999999999999</ele><time>2026-03-25T09:29:58.975Z</time></trkpt><trkpt lat="30.421792245117306" lon="-5.618544877116296"><ele>860.9999999999999</ele><time>2026-03-25T09:29:59.975Z</time></trkpt><trkpt lat="30.42180679419187" lon="-5.618439594727933"><ele>861.0</ele><time>2026-03-25T09:30:00.975Z</time></trkpt><trkpt lat="30.42180606476096" lon="-5.618357486347393"><ele>861.0</ele><time>2026-03-25T09:30:01.975Z</time></trkpt><trkpt lat="30.421805415356108" lon="-5.618284391416495"><ele>861.1666666666666</ele><time>2026-03-25T09:30:02.975Z</time></trkpt><trkpt lat="30.42180416156945" lon="-5.618150386674199"><ele>861.3333333333333</ele><time>2026-03-25T09:30:04.975Z</time></trkpt><trkpt lat="30.421803278701706" lon="-5.618073929665689"><ele>861.5</ele><time>2026-03-25T09:30:05.975Z</time></trkpt><trkpt lat="30.421802325899286" lon="-5.617991415897355"><ele>861.6666666666666</ele><time>2026-03-25T09:30:06.975Z</time></trkpt><trkpt lat="30.42180137064454" lon="-5.617908689000572"><ele>861.8333333333333</ele><time>2026-03-25T09:30:07.975Z</time></trkpt><trkpt lat="30.421800001407465" lon="-5.617801570725948"><ele>862.0</ele><time>2026-03-25T09:30:08.975Z</time></trkpt><trkpt lat="30.421782351403102" lon="-5.617688722381796"><ele>863.0</ele><time>2026-03-25T09:30:09.975Z</time></trkpt><trkpt lat="30.42179882477335" lon="-5.617578720541213"><ele>864.0</ele><time>2026-03-25T09:30:10.975Z</time></trkpt><trkpt lat="30.42179438874847" lon="-5.617443650137868"><ele>865.0</ele><time>2026-03-25T09:30:11.975Z</time></trkpt><trkpt lat="30.4218016070179" lon="-5.617305631516175"><ele>866.0</ele><time>2026-03-25T09:30:12.975Z</time></trkpt><trkpt lat="30.421800181772912" lon="-5.617163058109549"><ele>866.0</ele><time>2026-03-25T09:30:13.975Z</time></trkpt><trkpt lat="30.421794600095968" lon="-5.617029584186662"><ele>865.9999999999999</ele><time>2026-03-25T09:30:14.975Z</time></trkpt><trkpt lat="30.42178672419779" lon="-5.616906702831697"><ele>865.9999999999999</ele><time>2026-03-25T09:30:15.975Z</time></trkpt><trkpt lat="30.42177874907045" lon="-5.616810352381077"><ele>866.0</ele><time>2026-03-25T09:30:16.975Z</time></trkpt><trkpt lat="30.421795476451088" lon="-5.616675399660297"><ele>866.0</ele><time>2026-03-25T09:30:18.975Z</time></trkpt><trkpt lat="30.42178939866219" lon="-5.616569776691964"><ele>866.0</ele><time>2026-03-25T09:30:19.975Z</time></trkpt><trkpt lat="30.42177531058937" lon="-5.616456353470813"><ele>865.9999999999999</ele><time>2026-03-25T09:30:20.975Z</time></trkpt><trkpt lat="30.42176598462314" lon="-5.616349844716948"><ele>865.9999999999999</ele><time>2026-03-25T09:30:21.975Z</time></trkpt><trkpt lat="30.421778614494027" lon="-5.616248661024908"><ele>866.0</ele><time>2026-03-25T09:30:22.975Z</time></trkpt><trkpt lat="30.421777036468594" lon="-5.616153202453506"><ele>866.0</ele><time>2026-03-25T09:30:23.975Z</time></trkpt><trkpt lat="30.421775289871892" lon="-5.616047549973356"><ele>866.5999999999999</ele><time>2026-03-25T09:30:24.975Z</time></trkpt><trkpt lat="30.421773428921124" lon="-5.615934981290233"><ele>867.1999999999999</ele><time>2026-03-25T09:30:25.975Z</time></trkpt><trkpt lat="30.421771636310684" lon="-5.615826545911135"><ele>867.8000000000001</ele><time>2026-03-25T09:30:26.975Z</time></trkpt><trkpt lat="30.42177035349252" lon="-5.615722893512869"><ele>868.4000000000001</ele><time>2026-03-25T09:30:27.975Z</time></trkpt><trkpt lat="30.421769631677233" lon="-5.615647134096267"><ele>869.0</ele><time>2026-03-25T09:30:28.975Z</time></trkpt><trkpt lat="30.42176831742939" lon="-5.61551689835477"><ele>869.0</ele><time>2026-03-25T09:30:30.975Z</time></trkpt><trkpt lat="30.421767034660153" lon="-5.6154131803822205"><ele>869.0000000000001</ele><time>2026-03-25T09:30:32.975Z</time></trkpt><trkpt lat="30.421765878949383" lon="-5.615319730783619"><ele>869.0000000000001</ele><time>2026-03-25T09:30:34.975Z</time></trkpt><trkpt lat="30.421772354856387" lon="-5.615241612907586"><ele>869.0</ele><time>2026-03-25T09:30:36.975Z</time></trkpt><trkpt lat="30.42184168206111" lon="-5.615216439625155"><ele>869.0</ele><time>2026-03-25T09:30:38.975Z</time></trkpt><trkpt lat="30.42196775372928" lon="-5.615132595972619"><ele>869.5</ele><time>2026-03-25T09:30:41.975Z</time></trkpt><trkpt lat="30.42197530875594" lon="-5.615042662558278"><ele>870.0</ele><time>2026-03-25T09:30:42.975Z</time></trkpt><trkpt lat="30.421836875879066" lon="-5.614926731276687"><ele>870.5</ele><time>2026-03-25T09:30:43.975Z</time></trkpt><trkpt lat="30.421835389905766" lon="-5.614790869981852"><ele>871.0</ele><time>2026-03-25T09:30:44.975Z</time></trkpt><trkpt lat="30.421833680952215" lon="-5.614635726384936"><ele>871.0</ele><time>2026-03-25T09:30:45.975Z</time></trkpt><trkpt lat="30.42183208154888" lon="-5.614490528642942"><ele>871.0</ele><time>2026-03-25T09:30:46.975Z</time></trkpt><trkpt lat="30.421830545968216" lon="-5.614351124348752"><ele>871.0</ele><time>2026-03-25T09:30:47.975Z</time></trkpt><trkpt lat="30.421828756231964" lon="-5.614202830438236"><ele>871.0</ele><time>2026-03-25T09:30:48.975Z</time></trkpt><trkpt lat="30.421826646507693" lon="-5.614039537774886"><ele>871.3333333333333</ele><time>2026-03-25T09:30:49.975Z</time></trkpt><trkpt lat="30.42182409226143" lon="-5.613846596813793"><ele>871.6666666666667</ele><time>2026-03-25T09:30:50.975Z</time></trkpt><trkpt lat="30.421821573801935" lon="-5.61366215327949"><ele>872.0</ele><time>2026-03-25T09:30:51.975Z</time></trkpt><trkpt lat="30.42181885492483" lon="-5.61346523396594"><ele>873.0</ele><time>2026-03-25T09:30:52.975Z</time></trkpt><trkpt lat="30.421816056723884" lon="-5.6132653041637735"><ele>874.0</ele><time>2026-03-25T09:30:53.975Z</time></trkpt><trkpt lat="30.421812832182514" lon="-5.613094638788018"><ele>875.0</ele><time>2026-03-25T09:30:54.975Z</time></trkpt><trkpt lat="30.421811931289128" lon="-5.612919227373481"><ele>875.75</ele><time>2026-03-25T09:30:55.975Z</time></trkpt><trkpt lat="30.421812676321633" lon="-5.61274642023741"><ele>876.5</ele><time>2026-03-25T09:30:56.974Z</time></trkpt><trkpt lat="30.421815787603865" lon="-5.61257465088703"><ele>877.25</ele><time>2026-03-25T09:30:57.974Z</time></trkpt><trkpt lat="30.42181428874055" lon="-5.6124006294118995"><ele>878.0</ele><time>2026-03-25T09:30:58.974Z</time></trkpt><trkpt lat="30.42181418308134" lon="-5.612231689507731"><ele>878.0</ele><time>2026-03-25T09:30:59.975Z</time></trkpt><trkpt lat="30.421798227282178" lon="-5.612062235618353"><ele>878.0</ele><time>2026-03-25T09:31:00.975Z</time></trkpt><trkpt lat="30.421797212451306" lon="-5.611892701130969"><ele>878.0</ele><time>2026-03-25T09:31:01.975Z</time></trkpt><trkpt lat="30.421794262002326" lon="-5.611719216385421"><ele>878.0</ele><time>2026-03-25T09:31:02.975Z</time></trkpt><trkpt lat="30.421791725915487" lon="-5.6115518406881515"><ele>879.25</ele><time>2026-03-25T09:31:03.975Z</time></trkpt><trkpt lat="30.421791270407283" lon="-5.611383912448988"><ele>880.5</ele><time>2026-03-25T09:31:04.975Z</time></trkpt><trkpt lat="30.42178935458516" lon="-5.611215690717059"><ele>881.75</ele><time>2026-03-25T09:31:05.975Z</time></trkpt><trkpt lat="30.421784447294634" lon="-5.611046482142491"><ele>883.0</ele><time>2026-03-25T09:31:06.975Z</time></trkpt><trkpt lat="30.421782581564184" lon="-5.61087172494741"><ele>883.3333333333333</ele><time>2026-03-25T09:31:07.975Z</time></trkpt><trkpt lat="30.421778676628357" lon="-5.610697821323443"><ele>883.6666666666667</ele><time>2026-03-25T09:31:08.974Z</time></trkpt><trkpt lat="30.421779501513864" lon="-5.6105244346350425"><ele>884.0</ele><time>2026-03-25T09:31:09.975Z</time></trkpt><trkpt lat="30.4217789671765" lon="-5.610343835193211"><ele>885.6666666666667</ele><time>2026-03-25T09:31:10.975Z</time></trkpt><trkpt lat="30.42177824687777" lon="-5.610158376957202"><ele>887.3333333333333</ele><time>2026-03-25T09:31:11.975Z</time></trkpt><trkpt lat="30.421774012094666" lon="-5.60997141016214"><ele>889.0</ele><time>2026-03-25T09:31:12.975Z</time></trkpt><trkpt lat="30.42176925789466" lon="-5.609782836247776"><ele>889.0</ele><time>2026-03-25T09:31:13.975Z</time></trkpt><trkpt lat="30.421769211028487" lon="-5.60959389899539"><ele>889.0</ele><time>2026-03-25T09:31:14.975Z</time></trkpt><trkpt lat="30.421768875358204" lon="-5.60940769747672"><ele>889.0</ele><time>2026-03-25T09:31:15.975Z</time></trkpt><trkpt lat="30.42176563099757" lon="-5.609218469933355"><ele>889.3333333333333</ele><time>2026-03-25T09:31:16.975Z</time></trkpt><trkpt lat="30.421767685254334" lon="-5.609034139619054"><ele>889.6666666666667</ele><time>2026-03-25T09:31:17.975Z</time></trkpt><trkpt lat="30.421764598142612" lon="-5.608848082900273"><ele>890.0</ele><time>2026-03-25T09:31:18.975Z</time></trkpt><trkpt lat="30.42176038189675" lon="-5.608658409857456"><ele>891.0</ele><time>2026-03-25T09:31:19.975Z</time></trkpt><trkpt lat="30.421758863339235" lon="-5.608463053582311"><ele>892.0</ele><time>2026-03-25T09:31:20.975Z</time></trkpt><trkpt lat="30.421755272792545" lon="-5.608262998222371"><ele>893.0</ele><time>2026-03-25T09:31:21.975Z</time></trkpt><trkpt lat="30.421757470471565" lon="-5.60806493799932"><ele>893.0</ele><time>2026-03-25T09:31:22.975Z</time></trkpt><trkpt lat="30.42176481723563" lon="-5.607867010824073"><ele>893.0</ele><time>2026-03-25T09:31:23.975Z</time></trkpt><trkpt lat="30.421770385391156" lon="-5.607659985922681"><ele>893.0</ele><time>2026-03-25T09:31:24.975Z</time></trkpt><trkpt lat="30.421773295406755" lon="-5.6074402274570305"><ele>894.3333333333334</ele><time>2026-03-25T09:31:25.975Z</time></trkpt><trkpt lat="30.421781341102605" lon="-5.607200889637724"><ele>895.6666666666667</ele><time>2026-03-25T09:31:26.975Z</time></trkpt><trkpt lat="30.421788243697183" lon="-5.6069918392206635"><ele>897.0</ele><time>2026-03-25T09:31:27.975Z</time></trkpt><trkpt lat="30.421792785281962" lon="-5.606803053295945"><ele>897.3333333333333</ele><time>2026-03-25T09:31:28.975Z</time></trkpt><trkpt lat="30.42179662280656" lon="-5.6066293230364055"><ele>897.6666666666666</ele><time>2026-03-25T09:31:29.975Z</time></trkpt><trkpt lat="30.421797313331357" lon="-5.606452329870775"><ele>898.0</ele><time>2026-03-25T09:31:30.975Z</time></trkpt><trkpt lat="30.42180154382284" lon="-5.606278321436761"><ele>896.6666666666666</ele><time>2026-03-25T09:31:31.975Z</time></trkpt><trkpt lat="30.421811357137326" lon="-5.606104617367556"><ele>895.3333333333333</ele><time>2026-03-25T09:31:32.975Z</time></trkpt><trkpt lat="30.421822399714518" lon="-5.605928124795724"><ele>894.0</ele><time>2026-03-25T09:31:33.975Z</time></trkpt><trkpt lat="30.421827456328906" lon="-5.605742716162012"><ele>894.0</ele><time>2026-03-25T09:31:34.975Z</time></trkpt><trkpt lat="30.42183527135173" lon="-5.605552039968114"><ele>894.0</ele><time>2026-03-25T09:31:35.975Z</time></trkpt><trkpt lat="30.42184646520441" lon="-5.605352794523517"><ele>894.0</ele><time>2026-03-25T09:31:36.975Z</time></trkpt><trkpt lat="30.421859465414315" lon="-5.605144361635689"><ele>894.0</ele><time>2026-03-25T09:31:37.975Z</time></trkpt><trkpt lat="30.421874283287142" lon="-5.604934718376949"><ele>894.0</ele><time>2026-03-25T09:31:38.975Z</time></trkpt><trkpt lat="30.421887273116102" lon="-5.604716403848649"><ele>894.0</ele><time>2026-03-25T09:31:39.975Z</time></trkpt><trkpt lat="30.42190116106431" lon="-5.604498229770196"><ele>893.6666666666667</ele><time>2026-03-25T09:31:40.975Z</time></trkpt><trkpt lat="30.421915735950826" lon="-5.604274809256397"><ele>893.3333333333334</ele><time>2026-03-25T09:31:41.975Z</time></trkpt><trkpt lat="30.42193187085617" lon="-5.604050487650778"><ele>893.0</ele><time>2026-03-25T09:31:42.975Z</time></trkpt><trkpt lat="30.421950831098606" lon="-5.603835406210692"><ele>893.6666666666667</ele><time>2026-03-25T09:31:43.975Z</time></trkpt><trkpt lat="30.421964472854" lon="-5.603622909020777"><ele>894.3333333333333</ele><time>2026-03-25T09:31:44.975Z</time></trkpt><trkpt lat="30.421982750959724" lon="-5.603392827221162"><ele>895.0</ele><time>2026-03-25T09:31:45.975Z</time></trkpt><trkpt lat="30.421999318578397" lon="-5.603160731034906"><ele>895.0</ele><time>2026-03-25T09:31:46.975Z</time></trkpt><trkpt lat="30.422021335704887" lon="-5.602932696458461"><ele>895.0</ele><time>2026-03-25T09:31:47.975Z</time></trkpt><trkpt lat="30.422043290130016" lon="-5.602707334590446"><ele>895.0</ele><time>2026-03-25T09:31:48.975Z</time></trkpt><trkpt lat="30.42206423402327" lon="-5.602490223594788"><ele>894.6666666666666</ele><time>2026-03-25T09:31:49.975Z</time></trkpt><trkpt lat="30.422087421246864" lon="-5.60227854495066"><ele>894.3333333333333</ele><time>2026-03-25T09:31:50.975Z</time></trkpt><trkpt lat="30.42211250145199" lon="-5.6020767863462995"><ele>894.0</ele><time>2026-03-25T09:31:51.975Z</time></trkpt><trkpt lat="30.422136956424442" lon="-5.601884774476552"><ele>897.3333333333333</ele><time>2026-03-25T09:31:52.975Z</time></trkpt><trkpt lat="30.422163364800983" lon="-5.60168971169463"><ele>900.6666666666666</ele><time>2026-03-25T09:31:53.975Z</time></trkpt><trkpt lat="30.422174056518386" lon="-5.601488025724276"><ele>904.0</ele><time>2026-03-25T09:31:54.975Z</time></trkpt><trkpt lat="30.422198511968734" lon="-5.601280450809281"><ele>907.0</ele><time>2026-03-25T09:31:55.975Z</time></trkpt><trkpt lat="30.422233903512634" lon="-5.601074907338238"><ele>910.0</ele><time>2026-03-25T09:31:56.975Z</time></trkpt><trkpt lat="30.42226922723523" lon="-5.600869043708985"><ele>913.0</ele><time>2026-03-25T09:31:57.975Z</time></trkpt><trkpt lat="30.42230555728772" lon="-5.600665145720063"><ele>913.0</ele><time>2026-03-25T09:31:58.975Z</time></trkpt><trkpt lat="30.422342484753482" lon="-5.6004603817676415"><ele>913.0</ele><time>2026-03-25T09:31:59.975Z</time></trkpt><trkpt lat="30.422384329371578" lon="-5.600248987865555"><ele>913.0</ele><time>2026-03-25T09:32:00.975Z</time></trkpt><trkpt lat="30.422431856932672" lon="-5.600033673179316"><ele>913.3333333333333</ele><time>2026-03-25T09:32:01.975Z</time></trkpt><trkpt lat="30.422478300820842" lon="-5.599821962348033"><ele>913.6666666666667</ele><time>2026-03-25T09:32:02.975Z</time></trkpt><trkpt lat="30.42252201468072" lon="-5.599621231504377"><ele>914.0</ele><time>2026-03-25T09:32:03.975Z</time></trkpt><trkpt lat="30.42255251217429" lon="-5.59942043323121"><ele>912.0</ele><time>2026-03-25T09:32:04.975Z</time></trkpt><trkpt lat="30.422582462214937" lon="-5.599226488110391"><ele>910.0</ele><time>2026-03-25T09:32:05.975Z</time></trkpt><trkpt lat="30.422612304883543" lon="-5.599032869927797"><ele>908.0</ele><time>2026-03-25T09:32:06.975Z</time></trkpt><trkpt lat="30.422638569616858" lon="-5.598844060670167"><ele>908.0</ele><time>2026-03-25T09:32:07.975Z</time></trkpt><trkpt lat="30.422652655599695" lon="-5.598649690310959"><ele>908.0</ele><time>2026-03-25T09:32:08.975Z</time></trkpt><trkpt lat="30.422667149872034" lon="-5.598448092155318"><ele>908.0</ele><time>2026-03-25T09:32:09.975Z</time></trkpt><trkpt lat="30.422675400929375" lon="-5.598248496357364"><ele>908.0</ele><time>2026-03-25T09:32:10.975Z</time></trkpt><trkpt lat="30.422680232998577" lon="-5.59804642743364"><ele>908.0</ele><time>2026-03-25T09:32:11.975Z</time></trkpt><trkpt lat="30.422698080064215" lon="-5.597849714971977"><ele>908.0</ele><time>2026-03-25T09:32:12.975Z</time></trkpt><trkpt lat="30.422675304845367" lon="-5.597655764804031"><ele>909.3333333333334</ele><time>2026-03-25T09:32:13.975Z</time></trkpt><trkpt lat="30.42266164798135" lon="-5.597468495582785"><ele>910.6666666666667</ele><time>2026-03-25T09:32:14.975Z</time></trkpt><trkpt lat="30.42264761103925" lon="-5.597290820355209"><ele>912.0</ele><time>2026-03-25T09:32:15.975Z</time></trkpt><trkpt lat="30.422631395082004" lon="-5.597106251622421"><ele>915.6666666666667</ele><time>2026-03-25T09:32:16.975Z</time></trkpt><trkpt lat="30.42261945313812" lon="-5.596908171133038"><ele>919.3333333333334</ele><time>2026-03-25T09:32:17.975Z</time></trkpt><trkpt lat="30.422611530647135" lon="-5.59671054128347"><ele>923.0</ele><time>2026-03-25T09:32:18.975Z</time></trkpt><trkpt lat="30.422605601296166" lon="-5.596516574022883"><ele>923.0</ele><time>2026-03-25T09:32:19.975Z</time></trkpt><trkpt lat="30.42259976401269" lon="-5.596328631678488"><ele>923.0</ele><time>2026-03-25T09:32:20.975Z</time></trkpt><trkpt lat="30.422595461920537" lon="-5.596143974062117"><ele>923.0</ele><time>2026-03-25T09:32:21.975Z</time></trkpt><trkpt lat="30.422590664539925" lon="-5.5959656014585635"><ele>923.3333333333334</ele><time>2026-03-25T09:32:22.975Z</time></trkpt><trkpt lat="30.422586898216707" lon="-5.595786159217265"><ele>923.6666666666667</ele><time>2026-03-25T09:32:23.975Z</time></trkpt><trkpt lat="30.422586214647264" lon="-5.595605161824726"><ele>924.0</ele><time>2026-03-25T09:32:24.975Z</time></trkpt><trkpt lat="30.422586214648184" lon="-5.595426347902404"><ele>923.0</ele><time>2026-03-25T09:32:25.975Z</time></trkpt><trkpt lat="30.422585419565557" lon="-5.595245764336447"><ele>922.0</ele><time>2026-03-25T09:32:26.975Z</time></trkpt><trkpt lat="30.422595714421515" lon="-5.595056954751848"><ele>921.0</ele><time>2026-03-25T09:32:27.975Z</time></trkpt><trkpt lat="30.422589157188252" lon="-5.594850750026177"><ele>921.0</ele><time>2026-03-25T09:32:28.975Z</time></trkpt><trkpt lat="30.42258670453461" lon="-5.594629293441375"><ele>921.0</ele><time>2026-03-25T09:32:29.975Z</time></trkpt><trkpt lat="30.422576561534804" lon="-5.594381822509882"><ele>921.0</ele><time>2026-03-25T09:32:30.975Z</time></trkpt><trkpt lat="30.42257133535857" lon="-5.59415077176844"><ele>920.6666666666667</ele><time>2026-03-25T09:32:31.975Z</time></trkpt><trkpt lat="30.42257642927007" lon="-5.593952019211921"><ele>920.3333333333334</ele><time>2026-03-25T09:32:32.975Z</time></trkpt><trkpt lat="30.42258427285402" lon="-5.5937707868663935"><ele>920.0</ele><time>2026-03-25T09:32:33.975Z</time></trkpt><trkpt lat="30.4225712556047" lon="-5.593598069804167"><ele>921.6666666666667</ele><time>2026-03-25T09:32:34.975Z</time></trkpt><trkpt lat="30.422573941439417" lon="-5.593423631943221"><ele>923.3333333333333</ele><time>2026-03-25T09:32:35.975Z</time></trkpt><trkpt lat="30.42257668993955" lon="-5.593245124204193"><ele>925.0</ele><time>2026-03-25T09:32:36.975Z</time></trkpt><trkpt lat="30.422590059407796" lon="-5.593047038486943"><ele>925.0</ele><time>2026-03-25T09:32:37.975Z</time></trkpt><trkpt lat="30.422619164409134" lon="-5.592844428377889"><ele>925.0</ele><time>2026-03-25T09:32:38.975Z</time></trkpt><trkpt lat="30.42264943653231" lon="-5.592632774502136"><ele>925.0</ele><time>2026-03-25T09:32:39.975Z</time></trkpt><trkpt lat="30.422687157404788" lon="-5.592423651748952"><ele>924.6666666666666</ele><time>2026-03-25T09:32:40.975Z</time></trkpt><trkpt lat="30.42273195194017" lon="-5.592227996421212"><ele>924.3333333333333</ele><time>2026-03-25T09:32:41.975Z</time></trkpt><trkpt lat="30.422785439570582" lon="-5.592047952190307"><ele>924.0</ele><time>2026-03-25T09:32:42.975Z</time></trkpt><trkpt lat="30.422819945025342" lon="-5.591853593366307"><ele>924.0</ele><time>2026-03-25T09:32:43.975Z</time></trkpt><trkpt lat="30.422874089014414" lon="-5.591672383236805"><ele>924.0</ele><time>2026-03-25T09:32:44.975Z</time></trkpt><trkpt lat="30.422927602057744" lon="-5.591496572607"><ele>924.0</ele><time>2026-03-25T09:32:45.975Z</time></trkpt><trkpt lat="30.42298145716238" lon="-5.591323878198553"><ele>924.0</ele><time>2026-03-25T09:32:46.975Z</time></trkpt><trkpt lat="30.423020620654057" lon="-5.591140031482933"><ele>924.0</ele><time>2026-03-25T09:32:47.975Z</time></trkpt><trkpt lat="30.423070594246916" lon="-5.590984331348729"><ele>924.0</ele><time>2026-03-25T09:32:48.975Z</time></trkpt><trkpt lat="30.42311729041012" lon="-5.590834810976519"><ele>924.0</ele><time>2026-03-25T09:32:49.975Z</time></trkpt><trkpt lat="30.42316808744084" lon="-5.590686574540337"><ele>924.0</ele><time>2026-03-25T09:32:50.975Z</time></trkpt><trkpt lat="30.423221321052623" lon="-5.590537281388787"><ele>924.0</ele><time>2026-03-25T09:32:51.975Z</time></trkpt><trkpt lat="30.423274180510603" lon="-5.590375522827349"><ele>924.0</ele><time>2026-03-25T09:32:52.975Z</time></trkpt><trkpt lat="30.42332178676485" lon="-5.5902107644786145"><ele>924.0</ele><time>2026-03-25T09:32:53.975Z</time></trkpt><trkpt lat="30.423363454856734" lon="-5.590072906682991"><ele>924.5</ele><time>2026-03-25T09:32:54.975Z</time></trkpt><trkpt lat="30.423405760437934" lon="-5.58993455439658"><ele>925.0</ele><time>2026-03-25T09:32:55.975Z</time></trkpt><trkpt lat="30.42344830439863" lon="-5.589790594390019"><ele>925.5</ele><time>2026-03-25T09:32:56.975Z</time></trkpt><trkpt lat="30.42349134092527" lon="-5.589642711536136"><ele>926.0</ele><time>2026-03-25T09:32:57.975Z</time></trkpt><trkpt lat="30.423541017724254" lon="-5.589483534948286"><ele>926.3333333333334</ele><time>2026-03-25T09:32:58.975Z</time></trkpt><trkpt lat="30.423596447933264" lon="-5.589325706926508"><ele>926.6666666666667</ele><time>2026-03-25T09:32:59.975Z</time></trkpt><trkpt lat="30.423645927232688" lon="-5.589156630872367"><ele>927.0</ele><time>2026-03-25T09:33:00.975Z</time></trkpt><trkpt lat="30.42369887636724" lon="-5.588991426605686"><ele>927.0</ele><time>2026-03-25T09:33:01.974Z</time></trkpt><trkpt lat="30.423753269214874" lon="-5.588820213630573"><ele>927.0</ele><time>2026-03-25T09:33:02.974Z</time></trkpt><trkpt lat="30.423804983097952" lon="-5.588644853247403"><ele>927.0</ele><time>2026-03-25T09:33:03.975Z</time></trkpt><trkpt lat="30.423857198098208" lon="-5.588471381784517"><ele>927.6666666666667</ele><time>2026-03-25T09:33:04.975Z</time></trkpt><trkpt lat="30.42391912910958" lon="-5.5882827515193325"><ele>928.3333333333334</ele><time>2026-03-25T09:33:05.975Z</time></trkpt><trkpt lat="30.423980924168667" lon="-5.588099177021978"><ele>929.0</ele><time>2026-03-25T09:33:06.974Z</time></trkpt><trkpt lat="30.424041182918817" lon="-5.587912636317795"><ele>929.3333333333334</ele><time>2026-03-25T09:33:07.974Z</time></trkpt><trkpt lat="30.4241016000992" lon="-5.587723278847447"><ele>929.6666666666667</ele><time>2026-03-25T09:33:08.974Z</time></trkpt><trkpt lat="30.424156518263292" lon="-5.587560020845375"><ele>930.0</ele><time>2026-03-25T09:33:09.974Z</time></trkpt><trkpt lat="30.42420744010242" lon="-5.587401845141157"><ele>930.0</ele><time>2026-03-25T09:33:10.974Z</time></trkpt><trkpt lat="30.424255960274923" lon="-5.58723899475503"><ele>930.0</ele><time>2026-03-25T09:33:11.975Z</time></trkpt><trkpt lat="30.42430393109369" lon="-5.587075422241406"><ele>930.0</ele><time>2026-03-25T09:33:12.974Z</time></trkpt><trkpt lat="30.424360571969878" lon="-5.586900433576122"><ele>930.0</ele><time>2026-03-25T09:33:13.974Z</time></trkpt><trkpt lat="30.42442035499375" lon="-5.586715472358025"><ele>930.0</ele><time>2026-03-25T09:33:14.974Z</time></trkpt><trkpt lat="30.42448422985446" lon="-5.586518868907422"><ele>930.0</ele><time>2026-03-25T09:33:15.974Z</time></trkpt><trkpt lat="30.424544833585184" lon="-5.586322308860959"><ele>930.0</ele><time>2026-03-25T09:33:16.974Z</time></trkpt><trkpt lat="30.424606421685336" lon="-5.586131577006881"><ele>930.0</ele><time>2026-03-25T09:33:17.974Z</time></trkpt><trkpt lat="30.42467110631412" lon="-5.58593451128042"><ele>930.0</ele><time>2026-03-25T09:33:18.974Z</time></trkpt><trkpt lat="30.424718754384664" lon="-5.585729944703479"><ele>931.0</ele><time>2026-03-25T09:33:19.974Z</time></trkpt><trkpt lat="30.42478083655867" lon="-5.585529437929047"><ele>932.0</ele><time>2026-03-25T09:33:20.974Z</time></trkpt><trkpt lat="30.424843810378047" lon="-5.585328941234655"><ele>933.0</ele><time>2026-03-25T09:33:21.974Z</time></trkpt><trkpt lat="30.424907701284873" lon="-5.5851255247242255"><ele>933.3333333333333</ele><time>2026-03-25T09:33:22.974Z</time></trkpt><trkpt lat="30.4249709942799" lon="-5.584924203665167"><ele>933.6666666666666</ele><time>2026-03-25T09:33:23.974Z</time></trkpt><trkpt lat="30.425030200260796" lon="-5.584735884808455"><ele>934.0</ele><time>2026-03-25T09:33:24.974Z</time></trkpt><trkpt lat="30.4251058617539" lon="-5.584550423485386"><ele>933.6666666666666</ele><time>2026-03-25T09:33:25.974Z</time></trkpt><trkpt lat="30.42516662431936" lon="-5.584356594561378"><ele>933.3333333333333</ele><time>2026-03-25T09:33:26.974Z</time></trkpt><trkpt lat="30.425227359513226" lon="-5.584163955637822"><ele>933.0</ele><time>2026-03-25T09:33:27.974Z</time></trkpt><trkpt lat="30.425286212284973" lon="-5.58396923300848"><ele>933.0</ele><time>2026-03-25T09:33:28.974Z</time></trkpt><trkpt lat="30.425330683284983" lon="-5.583777757777312"><ele>933.0</ele><time>2026-03-25T09:33:29.974Z</time></trkpt><trkpt lat="30.425400184412748" lon="-5.583599049763271"><ele>933.0</ele><time>2026-03-25T09:33:30.974Z</time></trkpt><trkpt lat="30.425457226924113" lon="-5.583415908849336"><ele>933.6666666666667</ele><time>2026-03-25T09:33:31.974Z</time></trkpt><trkpt lat="30.425516881963166" lon="-5.58323376099695"><ele>934.3333333333334</ele><time>2026-03-25T09:33:32.974Z</time></trkpt><trkpt lat="30.42555765328491" lon="-5.58304421016534"><ele>935.0</ele><time>2026-03-25T09:33:33.974Z</time></trkpt><trkpt lat="30.42561395662249" lon="-5.582862788292037"><ele>934.6666666666667</ele><time>2026-03-25T09:33:34.974Z</time></trkpt><trkpt lat="30.425670957919667" lon="-5.582679117451013"><ele>934.3333333333333</ele><time>2026-03-25T09:33:35.974Z</time></trkpt><trkpt lat="30.4257257777513" lon="-5.582504663911245"><ele>934.0</ele><time>2026-03-25T09:33:36.974Z</time></trkpt><trkpt lat="30.425777076254597" lon="-5.58234134811969"><ele>934.0</ele><time>2026-03-25T09:33:37.974Z</time></trkpt><trkpt lat="30.425829935985377" lon="-5.582170782905767"><ele>934.0</ele><time>2026-03-25T09:33:38.974Z</time></trkpt><trkpt lat="30.425882845824596" lon="-5.581999865602479"><ele>934.0</ele><time>2026-03-25T09:33:39.974Z</time></trkpt><trkpt lat="30.425936529614294" lon="-5.581825477691953"><ele>933.3333333333333</ele><time>2026-03-25T09:33:40.974Z</time></trkpt><trkpt lat="30.42600727951656" lon="-5.581654592453176"><ele>932.6666666666667</ele><time>2026-03-25T09:33:41.974Z</time></trkpt><trkpt lat="30.426063515938438" lon="-5.581474168183901"><ele>932.0</ele><time>2026-03-25T09:33:42.974Z</time></trkpt><trkpt lat="30.426120784598925" lon="-5.581291193140119"><ele>932.6666666666667</ele><time>2026-03-25T09:33:43.974Z</time></trkpt><trkpt lat="30.426175332088782" lon="-5.581108353448146"><ele>933.3333333333333</ele><time>2026-03-25T09:33:44.974Z</time></trkpt><trkpt lat="30.426233080100285" lon="-5.580931263792338"><ele>934.0</ele><time>2026-03-25T09:33:45.974Z</time></trkpt><trkpt lat="30.4262890235671" lon="-5.580752729008004"><ele>934.6666666666666</ele><time>2026-03-25T09:33:46.974Z</time></trkpt><trkpt lat="30.426346351800962" lon="-5.580560573327066"><ele>935.3333333333333</ele><time>2026-03-25T09:33:47.974Z</time></trkpt><trkpt lat="30.4264087699833" lon="-5.580367453802113"><ele>936.0</ele><time>2026-03-25T09:33:48.974Z</time></trkpt><trkpt lat="30.426473735340878" lon="-5.580171408682647"><ele>936.6666666666667</ele><time>2026-03-25T09:33:49.974Z</time></trkpt><trkpt lat="30.426539438543912" lon="-5.579981023819405"><ele>937.3333333333334</ele><time>2026-03-25T09:33:50.974Z</time></trkpt><trkpt lat="30.426604733131096" lon="-5.579796729707191"><ele>938.0</ele><time>2026-03-25T09:33:51.974Z</time></trkpt><trkpt lat="30.426669380286494" lon="-5.579615946421445"><ele>938.0</ele><time>2026-03-25T09:33:52.974Z</time></trkpt><trkpt lat="30.426735030488008" lon="-5.579437755640295"><ele>938.0</ele><time>2026-03-25T09:33:53.974Z</time></trkpt><trkpt lat="30.426799411399347" lon="-5.579260841725544"><ele>938.0</ele><time>2026-03-25T09:33:54.974Z</time></trkpt><trkpt lat="30.42684859229571" lon="-5.579074924430887"><ele>938.0</ele><time>2026-03-25T09:33:55.974Z</time></trkpt><trkpt lat="30.42691130353068" lon="-5.578894547329318"><ele>938.0</ele><time>2026-03-25T09:33:56.974Z</time></trkpt><trkpt lat="30.426973565156285" lon="-5.578714996804105"><ele>938.0</ele><time>2026-03-25T09:33:57.974Z</time></trkpt><trkpt lat="30.427045512016946" lon="-5.578528791548129"><ele>938.3333333333334</ele><time>2026-03-25T09:33:58.974Z</time></trkpt><trkpt lat="30.427127439946776" lon="-5.578342773376036"><ele>938.6666666666667</ele><time>2026-03-25T09:33:59.974Z</time></trkpt><trkpt lat="30.427209453756706" lon="-5.57815749066371"><ele>939.0</ele><time>2026-03-25T09:34:00.974Z</time></trkpt><trkpt lat="30.427289069083855" lon="-5.5779781200103145"><ele>940.6666666666667</ele><time>2026-03-25T09:34:01.974Z</time></trkpt><trkpt lat="30.42736788819293" lon="-5.577799850282515"><ele>942.3333333333334</ele><time>2026-03-25T09:34:02.974Z</time></trkpt><trkpt lat="30.427447439977502" lon="-5.577619923421363"><ele>944.0</ele><time>2026-03-25T09:34:03.974Z</time></trkpt><trkpt lat="30.42753387431449" lon="-5.577440894337032"><ele>944.0</ele><time>2026-03-25T09:34:04.974Z</time></trkpt><trkpt lat="30.42761885014415" lon="-5.5772718512979695"><ele>944.0</ele><time>2026-03-25T09:34:05.974Z</time></trkpt><trkpt lat="30.427705134032703" lon="-5.577100205275626"><ele>944.0</ele><time>2026-03-25T09:34:06.974Z</time></trkpt><trkpt lat="30.427789962207967" lon="-5.576930512251315"><ele>943.3333333333334</ele><time>2026-03-25T09:34:07.974Z</time></trkpt><trkpt lat="30.42787337472453" lon="-5.5767636511586"><ele>942.6666666666667</ele><time>2026-03-25T09:34:08.974Z</time></trkpt><trkpt lat="30.42795876700896" lon="-5.576597284212534"><ele>942.0</ele><time>2026-03-25T09:34:09.974Z</time></trkpt><trkpt lat="30.42804607304917" lon="-5.576440133337017"><ele>943.0</ele><time>2026-03-25T09:34:10.974Z</time></trkpt><trkpt lat="30.428132524451268" lon="-5.576284520812676"><ele>944.0</ele><time>2026-03-25T09:34:11.974Z</time></trkpt><trkpt lat="30.428218190189867" lon="-5.576130322481377"><ele>945.0</ele><time>2026-03-25T09:34:12.974Z</time></trkpt><trkpt lat="30.428305546998985" lon="-5.575978763669505"><ele>945.0</ele><time>2026-03-25T09:34:13.974Z</time></trkpt><trkpt lat="30.428395647726813" lon="-5.575825309161009"><ele>945.0</ele><time>2026-03-25T09:34:14.974Z</time></trkpt><trkpt lat="30.42848769955722" lon="-5.575669542159699"><ele>945.0</ele><time>2026-03-25T09:34:15.974Z</time></trkpt><trkpt lat="30.428578403081477" lon="-5.575516278300389"><ele>945.0</ele><time>2026-03-25T09:34:16.974Z</time></trkpt><trkpt lat="30.428671347739886" lon="-5.575370887613282"><ele>945.0</ele><time>2026-03-25T09:34:17.974Z</time></trkpt><trkpt lat="30.428762121627877" lon="-5.575234615975945"><ele>945.0</ele><time>2026-03-25T09:34:18.974Z</time></trkpt><trkpt lat="30.4288451273401" lon="-5.575109785676444"><ele>945.0</ele><time>2026-03-25T09:34:19.974Z</time></trkpt><trkpt lat="30.4289209311569" lon="-5.574995761918482"><ele>944.4</ele><time>2026-03-25T09:34:20.974Z</time></trkpt><trkpt lat="30.428990265580858" lon="-5.574891414872237"><ele>943.8</ele><time>2026-03-25T09:34:21.974Z</time></trkpt><trkpt lat="30.429052855324578" lon="-5.574797041885807"><ele>943.2</ele><time>2026-03-25T09:34:22.974Z</time></trkpt><trkpt lat="30.42912054560141" lon="-5.574701912695599"><ele>942.6</ele><time>2026-03-25T09:34:23.974Z</time></trkpt><trkpt lat="30.429185600682235" lon="-5.574605526156676"><ele>942.0</ele><time>2026-03-25T09:34:24.974Z</time></trkpt><trkpt lat="30.429248608982203" lon="-5.574514317697091"><ele>942.0</ele><time>2026-03-25T09:34:25.974Z</time></trkpt><trkpt lat="30.42930313159477" lon="-5.574433869858763"><ele>942.0</ele><time>2026-03-25T09:34:26.974Z</time></trkpt><trkpt lat="30.429355558672867" lon="-5.574353913998275"><ele>942.0</ele><time>2026-03-25T09:34:27.974Z</time></trkpt><trkpt lat="30.429422064151808" lon="-5.574262419348737"><ele>942.0</ele><time>2026-03-25T09:34:28.974Z</time></trkpt><trkpt lat="30.42949548056233" lon="-5.574156671962984"><ele>942.0</ele><time>2026-03-25T09:34:29.974Z</time></trkpt><trkpt lat="30.429566232957818" lon="-5.574026706079869"><ele>942.5</ele><time>2026-03-25T09:34:30.974Z</time></trkpt><trkpt lat="30.429655607589922" lon="-5.573906759873149"><ele>943.0</ele><time>2026-03-25T09:34:31.974Z</time></trkpt><trkpt lat="30.429748302069985" lon="-5.573776311191027"><ele>943.5</ele><time>2026-03-25T09:34:32.974Z</time></trkpt><trkpt lat="30.429846643242488" lon="-5.573641794125818"><ele>944.0</ele><time>2026-03-25T09:34:33.974Z</time></trkpt><trkpt lat="30.429947288239298" lon="-5.573503812571588"><ele>944.0</ele><time>2026-03-25T09:34:34.974Z</time></trkpt><trkpt lat="30.430023200841717" lon="-5.573396853280834"><ele>944.0000000000001</ele><time>2026-03-25T09:34:35.974Z</time></trkpt><trkpt lat="30.43008612350827" lon="-5.573310771944983"><ele>944.0000000000001</ele><time>2026-03-25T09:34:36.973Z</time></trkpt><trkpt lat="30.430133404446746" lon="-5.5732096013262336"><ele>944.0</ele><time>2026-03-25T09:34:37.973Z</time></trkpt><trkpt lat="30.430186260828815" lon="-5.573133739154837"><ele>944.0</ele><time>2026-03-25T09:34:38.973Z</time></trkpt><trkpt lat="30.430229999761107" lon="-5.5730781571458925"><ele>944.0000000000001</ele><time>2026-03-25T09:34:39.973Z</time></trkpt><trkpt lat="30.43029655474365" lon="-5.57299033897609"><ele>944.0</ele><time>2026-03-25T09:34:41.973Z</time></trkpt><trkpt lat="30.430330012210387" lon="-5.57291597639588"><ele>944.0</ele><time>2026-03-25T09:34:43.973Z</time></trkpt><trkpt lat="30.430278262445928" lon="-5.572870364391764"><ele>944.0</ele><time>2026-03-25T09:34:46.973Z</time></trkpt><trkpt lat="30.430208725779213" lon="-5.572889332629714"><ele>944.0000000000001</ele><time>2026-03-25T09:34:49.973Z</time></trkpt><trkpt lat="30.430146041887607" lon="-5.572911854248776"><ele>944.0</ele><time>2026-03-25T09:34:51.973Z</time></trkpt><trkpt lat="30.43010215722563" lon="-5.5728352442439855"><ele>944.0000000000001</ele><time>2026-03-25T09:34:54.973Z</time></trkpt><trkpt lat="30.43014019169491" lon="-5.57277262628655"><ele>944.0</ele><time>2026-03-25T09:34:55.973Z</time></trkpt><trkpt lat="30.430196268378438" lon="-5.57271746995853"><ele>944.0</ele><time>2026-03-25T09:34:56.973Z</time></trkpt><trkpt lat="30.4302671386129" lon="-5.572601341158853"><ele>944.0</ele><time>2026-03-25T09:34:58.973Z</time></trkpt><trkpt lat="30.43033095095058" lon="-5.5725340526012985"><ele>944.0000000000001</ele><time>2026-03-25T09:34:59.973Z</time></trkpt><trkpt lat="30.430379633421236" lon="-5.572475305662778"><ele>944.0</ele><time>2026-03-25T09:35:00.973Z</time></trkpt><trkpt lat="30.430535000142292" lon="-5.572517947541296"><ele>944.2</ele><time>2026-03-25T09:35:01.973Z</time></trkpt><trkpt lat="30.430594352356323" lon="-5.57243456118861"><ele>944.4000000000001</ele><time>2026-03-25T09:35:02.973Z</time></trkpt><trkpt lat="30.430655088662807" lon="-5.572349230275357"><ele>944.6</ele><time>2026-03-25T09:35:03.973Z</time></trkpt><trkpt lat="30.430714486579383" lon="-5.572265810745329"><ele>944.8</ele><time>2026-03-25T09:35:04.973Z</time></trkpt><trkpt lat="30.43076888135994" lon="-5.572189418538848"><ele>945.0</ele><time>2026-03-25T09:35:05.973Z</time></trkpt><trkpt lat="30.43082170666559" lon="-5.572115230428899"><ele>944.4</ele><time>2026-03-25T09:35:06.973Z</time></trkpt><trkpt lat="30.43074232852055" lon="-5.571915045878181"><ele>943.8</ele><time>2026-03-25T09:35:07.973Z</time></trkpt><trkpt lat="30.43079726134759" lon="-5.571827051778177"><ele>943.2</ele><time>2026-03-25T09:35:08.974Z</time></trkpt><trkpt lat="30.43084528407276" lon="-5.571756686377295"><ele>942.6</ele><time>2026-03-25T09:35:09.973Z</time></trkpt><trkpt lat="30.430898803332354" lon="-5.571687175199039"><ele>942.0</ele><time>2026-03-25T09:35:11.974Z</time></trkpt><trkpt lat="30.430941472222457" lon="-5.571632320262917"><ele>942.0</ele><time>2026-03-25T09:35:14.974Z</time></trkpt><trkpt lat="30.431024176179232" lon="-5.5715256773768775"><ele>942.0</ele><time>2026-03-25T09:35:16.974Z</time></trkpt><trkpt lat="30.431100109221354" lon="-5.57142344318227"><ele>942.0</ele><time>2026-03-25T09:35:18.974Z</time></trkpt><trkpt lat="30.431189982041655" lon="-5.571325606732137"><ele>942.0</ele><time>2026-03-25T09:35:20.974Z</time></trkpt><trkpt lat="30.431241240791195" lon="-5.571253461673168"><ele>942.0</ele><time>2026-03-25T09:35:21.974Z</time></trkpt><trkpt lat="30.431295714733736" lon="-5.57114637516967"><ele>942.4000000000001</ele><time>2026-03-25T09:35:22.974Z</time></trkpt><trkpt lat="30.43137862343322" lon="-5.571036985894624"><ele>942.8000000000001</ele><time>2026-03-25T09:35:23.974Z</time></trkpt><trkpt lat="30.431458663836484" lon="-5.5709438300597025"><ele>943.2</ele><time>2026-03-25T09:35:24.974Z</time></trkpt><trkpt lat="30.43152596770784" lon="-5.570855677716454"><ele>943.6</ele><time>2026-03-25T09:35:25.974Z</time></trkpt><trkpt lat="30.43158673745455" lon="-5.570764189294848"><ele>944.0</ele><time>2026-03-25T09:35:26.974Z</time></trkpt><trkpt lat="30.431648112145357" lon="-5.570669379809369"><ele>944.0</ele><time>2026-03-25T09:35:27.974Z</time></trkpt><trkpt lat="30.431715392475393" lon="-5.570575191708244"><ele>944.0000000000001</ele><time>2026-03-25T09:35:28.974Z</time></trkpt><trkpt lat="30.431781453012324" lon="-5.570492411146275"><ele>944.0000000000001</ele><time>2026-03-25T09:35:29.974Z</time></trkpt><trkpt lat="30.43183899464688" lon="-5.57040036151708"><ele>944.0</ele><time>2026-03-25T09:35:30.974Z</time></trkpt><trkpt lat="30.431887876186547" lon="-5.570327065816531"><ele>944.0</ele><time>2026-03-25T09:35:31.974Z</time></trkpt><trkpt lat="30.43193266444464" lon="-5.570255180866196"><ele>944.0</ele><time>2026-03-25T09:35:32.974Z</time></trkpt><trkpt lat="30.431978712325098" lon="-5.570185108217692"><ele>944.0000000000001</ele><time>2026-03-25T09:35:33.974Z</time></trkpt><trkpt lat="30.432028215526255" lon="-5.570099779543717"><ele>944.0000000000001</ele><time>2026-03-25T09:35:34.974Z</time></trkpt><trkpt lat="30.432084782826877" lon="-5.569991599625424"><ele>944.0</ele><time>2026-03-25T09:35:35.974Z</time></trkpt><trkpt lat="30.43215089235264" lon="-5.56988723286803"><ele>944.0</ele><time>2026-03-25T09:35:36.974Z</time></trkpt><trkpt lat="30.432225057720327" lon="-5.569781302353406"><ele>944.25</ele><time>2026-03-25T09:35:37.974Z</time></trkpt><trkpt lat="30.43230635014062" lon="-5.569677953097743"><ele>944.5</ele><time>2026-03-25T09:35:38.974Z</time></trkpt><trkpt lat="30.432404890407298" lon="-5.569576839469238"><ele>944.75</ele><time>2026-03-25T09:35:39.974Z</time></trkpt><trkpt lat="30.432493912908853" lon="-5.56947017628608"><ele>945.0</ele><time>2026-03-25T09:35:40.974Z</time></trkpt><trkpt lat="30.43258491718372" lon="-5.569353311565129"><ele>946.0</ele><time>2026-03-25T09:35:41.974Z</time></trkpt><trkpt lat="30.432674288037894" lon="-5.56923726000771"><ele>947.0</ele><time>2026-03-25T09:35:42.974Z</time></trkpt><trkpt lat="30.432758468472734" lon="-5.569123702836863"><ele>948.0</ele><time>2026-03-25T09:35:43.974Z</time></trkpt><trkpt lat="30.43284335855614" lon="-5.569015311368859"><ele>949.0</ele><time>2026-03-25T09:35:44.974Z</time></trkpt><trkpt lat="30.432928370842642" lon="-5.568900714116909"><ele>948.5</ele><time>2026-03-25T09:35:45.974Z</time></trkpt><trkpt lat="30.433013919781832" lon="-5.568784019739847"><ele>948.0</ele><time>2026-03-25T09:35:46.974Z</time></trkpt><trkpt lat="30.433099470107603" lon="-5.568672451111861"><ele>947.5</ele><time>2026-03-25T09:35:47.974Z</time></trkpt><trkpt lat="30.433178313072098" lon="-5.5685725896246305"><ele>947.0</ele><time>2026-03-25T09:35:48.974Z</time></trkpt><trkpt lat="30.433248784698026" lon="-5.568482427777523"><ele>947.0</ele><time>2026-03-25T09:35:49.974Z</time></trkpt><trkpt lat="30.43332342619969" lon="-5.5683883024458085"><ele>947.0</ele><time>2026-03-25T09:35:50.974Z</time></trkpt><trkpt lat="30.433400997562828" lon="-5.568271685143105"><ele>947.0</ele><time>2026-03-25T09:35:51.974Z</time></trkpt><trkpt lat="30.433489851689913" lon="-5.5681357681709125"><ele>947.0</ele><time>2026-03-25T09:35:52.974Z</time></trkpt><trkpt lat="30.433570315957088" lon="-5.568005821281023"><ele>947.0</ele><time>2026-03-25T09:35:53.974Z</time></trkpt><trkpt lat="30.43364839154398" lon="-5.567888061600517"><ele>947.0</ele><time>2026-03-25T09:35:54.974Z</time></trkpt><trkpt lat="30.433730878194506" lon="-5.567771183731812"><ele>947.0</ele><time>2026-03-25T09:35:55.974Z</time></trkpt><trkpt lat="30.433816875149464" lon="-5.567650355765052"><ele>947.0</ele><time>2026-03-25T09:35:56.974Z</time></trkpt><trkpt lat="30.433905541367192" lon="-5.567525060161901"><ele>948.0</ele><time>2026-03-25T09:35:57.974Z</time></trkpt><trkpt lat="30.433991460267904" lon="-5.567401233638825"><ele>949.0</ele><time>2026-03-25T09:35:58.974Z</time></trkpt><trkpt lat="30.434075325447285" lon="-5.5672808288138205"><ele>950.0</ele><time>2026-03-25T09:35:59.974Z</time></trkpt><trkpt lat="30.434161691814364" lon="-5.567149809747835"><ele>951.0</ele><time>2026-03-25T09:36:00.974Z</time></trkpt><trkpt lat="30.434248880078023" lon="-5.567018529563421"><ele>951.5</ele><time>2026-03-25T09:36:01.974Z</time></trkpt><trkpt lat="30.43433928198172" lon="-5.566886504430712"><ele>952.0</ele><time>2026-03-25T09:36:02.974Z</time></trkpt><trkpt lat="30.434431297978158" lon="-5.566750702128118"><ele>952.5</ele><time>2026-03-25T09:36:03.974Z</time></trkpt><trkpt lat="30.43452510669974" lon="-5.5666138219639585"><ele>953.0</ele><time>2026-03-25T09:36:04.974Z</time></trkpt><trkpt lat="30.434619760509495" lon="-5.56647434843346"><ele>953.25</ele><time>2026-03-25T09:36:05.974Z</time></trkpt><trkpt lat="30.43471290795448" lon="-5.566329926640522"><ele>953.5</ele><time>2026-03-25T09:36:06.974Z</time></trkpt><trkpt lat="30.434800007924498" lon="-5.56619115638786"><ele>953.75</ele><time>2026-03-25T09:36:07.974Z</time></trkpt><trkpt lat="30.434882376482168" lon="-5.566066971964077"><ele>954.0</ele><time>2026-03-25T09:36:08.974Z</time></trkpt><trkpt lat="30.4349616276674" lon="-5.565959240860181"><ele>954.2</ele><time>2026-03-25T09:36:09.973Z</time></trkpt><trkpt lat="30.43502710585841" lon="-5.565875721772737"><ele>954.4000000000001</ele><time>2026-03-25T09:36:10.973Z</time></trkpt><trkpt lat="30.435103303460174" lon="-5.565808357337403"><ele>954.6</ele><time>2026-03-25T09:36:12.973Z</time></trkpt><trkpt lat="30.435190033300735" lon="-5.565797352111993"><ele>954.8</ele><time>2026-03-25T09:36:15.973Z</time></trkpt><trkpt lat="30.435267823050268" lon="-5.565864823991084"><ele>955.0</ele><time>2026-03-25T09:36:18.973Z</time></trkpt><trkpt lat="30.435334488391028" lon="-5.565908490162207"><ele>954.9999999999999</ele><time>2026-03-25T09:36:21.973Z</time></trkpt><trkpt lat="30.43540930874875" lon="-5.5658282716923555"><ele>955.0</ele><time>2026-03-25T09:36:23.973Z</time></trkpt><trkpt lat="30.435449522636617" lon="-5.565761525694721"><ele>955.0</ele><time>2026-03-25T09:36:24.973Z</time></trkpt><trkpt lat="30.435495689896335" lon="-5.565689852441084"><ele>955.0</ele><time>2026-03-25T09:36:25.973Z</time></trkpt><trkpt lat="30.43554432089341" lon="-5.565612368204226"><ele>954.9999999999999</ele><time>2026-03-25T09:36:26.973Z</time></trkpt><trkpt lat="30.43560107751036" lon="-5.5655246680829995"><ele>955.0</ele><time>2026-03-25T09:36:27.973Z</time></trkpt><trkpt lat="30.435664317518413" lon="-5.565433452144717"><ele>955.25</ele><time>2026-03-25T09:36:28.973Z</time></trkpt><trkpt lat="30.435731560735224" lon="-5.565339332079968"><ele>955.5</ele><time>2026-03-25T09:36:29.973Z</time></trkpt><trkpt lat="30.435804174988412" lon="-5.565232789769719"><ele>955.75</ele><time>2026-03-25T09:36:30.973Z</time></trkpt><trkpt lat="30.435882259265764" lon="-5.565118871589507"><ele>956.0</ele><time>2026-03-25T09:36:31.973Z</time></trkpt><trkpt lat="30.435962712193152" lon="-5.565008049780491"><ele>956.0</ele><time>2026-03-25T09:36:32.973Z</time></trkpt><trkpt lat="30.436043775633802" lon="-5.564898945389066"><ele>956.0</ele><time>2026-03-25T09:36:33.973Z</time></trkpt><trkpt lat="30.436127137877833" lon="-5.564778600743623"><ele>956.0</ele><time>2026-03-25T09:36:34.973Z</time></trkpt><trkpt lat="30.436207856065334" lon="-5.5646642420099255"><ele>956.0</ele><time>2026-03-25T09:36:35.973Z</time></trkpt><trkpt lat="30.436288410758365" lon="-5.564551956301416"><ele>957.0</ele><time>2026-03-25T09:36:36.973Z</time></trkpt><trkpt lat="30.43636926772808" lon="-5.56443510822433"><ele>958.0</ele><time>2026-03-25T09:36:37.973Z</time></trkpt><trkpt lat="30.436455880237602" lon="-5.564315363520119"><ele>959.0</ele><time>2026-03-25T09:36:38.973Z</time></trkpt><trkpt lat="30.436544729701914" lon="-5.564193133622461"><ele>960.0</ele><time>2026-03-25T09:36:39.973Z</time></trkpt><trkpt lat="30.436632503724837" lon="-5.564075187633167"><ele>960.0</ele><time>2026-03-25T09:36:40.973Z</time></trkpt><trkpt lat="30.436720493175233" lon="-5.563955848578253"><ele>960.0</ele><time>2026-03-25T09:36:41.973Z</time></trkpt><trkpt lat="30.436801890365967" lon="-5.5638352714641535"><ele>960.0</ele><time>2026-03-25T09:36:42.973Z</time></trkpt><trkpt lat="30.436885234358243" lon="-5.563716246601035"><ele>960.0</ele><time>2026-03-25T09:36:43.973Z</time></trkpt><trkpt lat="30.436975625928245" lon="-5.563611013177124"><ele>960.0</ele><time>2026-03-25T09:36:44.973Z</time></trkpt><trkpt lat="30.437055841399705" lon="-5.5634887851584205"><ele>960.0</ele><time>2026-03-25T09:36:45.973Z</time></trkpt><trkpt lat="30.43712829994711" lon="-5.563363735280118"><ele>960.0</ele><time>2026-03-25T09:36:46.973Z</time></trkpt><trkpt lat="30.437209603052477" lon="-5.563238625838337"><ele>960.0</ele><time>2026-03-25T09:36:47.973Z</time></trkpt><trkpt lat="30.43731020186646" lon="-5.56309546606501"><ele>959.3333333333333</ele><time>2026-03-25T09:36:48.973Z</time></trkpt><trkpt lat="30.437425335423814" lon="-5.562939115953742"><ele>958.6666666666666</ele><time>2026-03-25T09:36:49.973Z</time></trkpt><trkpt lat="30.43753538478911" lon="-5.562795431100756"><ele>958.0</ele><time>2026-03-25T09:36:50.973Z</time></trkpt><trkpt lat="30.437635242710762" lon="-5.562644620998187"><ele>958.0</ele><time>2026-03-25T09:36:51.973Z</time></trkpt><trkpt lat="30.437727484951832" lon="-5.56251418801401"><ele>958.0</ele><time>2026-03-25T09:36:52.973Z</time></trkpt><trkpt lat="30.43780989177823" lon="-5.562386592624571"><ele>958.0</ele><time>2026-03-25T09:36:53.973Z</time></trkpt><trkpt lat="30.43789925446753" lon="-5.562261487165286"><ele>958.0</ele><time>2026-03-25T09:36:54.973Z</time></trkpt><trkpt lat="30.43798818686018" lon="-5.562141726857487"><ele>958.4</ele><time>2026-03-25T09:36:55.973Z</time></trkpt><trkpt lat="30.438060942892708" lon="-5.562033189776933"><ele>958.8</ele><time>2026-03-25T09:36:56.973Z</time></trkpt><trkpt lat="30.438128280716633" lon="-5.561934850094014"><ele>959.2</ele><time>2026-03-25T09:36:57.973Z</time></trkpt><trkpt lat="30.438184199433977" lon="-5.561856866821115"><ele>959.6</ele><time>2026-03-25T09:36:58.973Z</time></trkpt><trkpt lat="30.4382467506407" lon="-5.561739355924914"><ele>960.0</ele><time>2026-03-25T09:37:00.973Z</time></trkpt><trkpt lat="30.43822532772387" lon="-5.561600452173081"><ele>960.0</ele><time>2026-03-25T09:37:02.973Z</time></trkpt><trkpt lat="30.438175065907956" lon="-5.561543500085763"><ele>960.0</ele><time>2026-03-25T09:37:03.973Z</time></trkpt><trkpt lat="30.438146757989244" lon="-5.5614253198189765"><ele>960.0</ele><time>2026-03-25T09:37:05.973Z</time></trkpt><trkpt lat="30.438173787977966" lon="-5.5613570802205"><ele>960.0</ele><time>2026-03-25T09:37:06.973Z</time></trkpt><trkpt lat="30.43822479975692" lon="-5.5612754460677065"><ele>960.0</ele><time>2026-03-25T09:37:07.973Z</time></trkpt><trkpt lat="30.438284819620016" lon="-5.561198452038125"><ele>960.0</ele><time>2026-03-25T09:37:08.973Z</time></trkpt><trkpt lat="30.438344317631582" lon="-5.561105148552624"><ele>960.0</ele><time>2026-03-25T09:37:09.973Z</time></trkpt><trkpt lat="30.43839091263638" lon="-5.561010984595903"><ele>960.0</ele><time>2026-03-25T09:37:10.973Z</time></trkpt><trkpt lat="30.438438447505273" lon="-5.560947462523544"><ele>960.0</ele><time>2026-03-25T09:37:11.973Z</time></trkpt><trkpt lat="30.438485750807086" lon="-5.560869375179542"><ele>960.0</ele><time>2026-03-25T09:37:12.973Z</time></trkpt><trkpt lat="30.438539815625145" lon="-5.560756140087619"><ele>960.0</ele><time>2026-03-25T09:37:13.973Z</time></trkpt><trkpt lat="30.43859063685859" lon="-5.560683193463825"><ele>960.0</ele><time>2026-03-25T09:37:14.973Z</time></trkpt><trkpt lat="30.438649723523376" lon="-5.560626029474389"><ele>960.0</ele><time>2026-03-25T09:37:15.973Z</time></trkpt><trkpt lat="30.43870262366417" lon="-5.560545430909096"><ele>960.0</ele><time>2026-03-25T09:37:16.973Z</time></trkpt><trkpt lat="30.438764448988803" lon="-5.560460124236328"><ele>960.0</ele><time>2026-03-25T09:37:17.973Z</time></trkpt><trkpt lat="30.438827732513328" lon="-5.560371759756295"><ele>960.0</ele><time>2026-03-25T09:37:18.973Z</time></trkpt><trkpt lat="30.438892073373175" lon="-5.5602818618451"><ele>960.0</ele><time>2026-03-25T09:37:19.973Z</time></trkpt><trkpt lat="30.43895701875919" lon="-5.56019173092834"><ele>960.0</ele><time>2026-03-25T09:37:20.973Z</time></trkpt><trkpt lat="30.4390125003189" lon="-5.5601169027001065"><ele>960.0</ele><time>2026-03-25T09:37:21.973Z</time></trkpt><trkpt lat="30.439061610565794" lon="-5.560049310603901"><ele>960.0</ele><time>2026-03-25T09:37:22.973Z</time></trkpt><trkpt lat="30.43912126921395" lon="-5.559969145770765"><ele>960.0</ele><time>2026-03-25T09:37:23.973Z</time></trkpt><trkpt lat="30.439178149208313" lon="-5.559893263344573"><ele>960.0</ele><time>2026-03-25T09:37:24.973Z</time></trkpt><trkpt lat="30.43923784081014" lon="-5.5598234722040445"><ele>960.0</ele><time>2026-03-25T09:37:25.973Z</time></trkpt><trkpt lat="30.439291594615693" lon="-5.559757418954228"><ele>960.0</ele><time>2026-03-25T09:37:26.973Z</time></trkpt><trkpt lat="30.439351334048524" lon="-5.559680666031837"><ele>960.0</ele><time>2026-03-25T09:37:27.973Z</time></trkpt><trkpt lat="30.43942289455065" lon="-5.5595880625368865"><ele>960.0</ele><time>2026-03-25T09:37:28.973Z</time></trkpt><trkpt lat="30.439483113723142" lon="-5.559515678498191"><ele>960.0</ele><time>2026-03-25T09:37:29.973Z</time></trkpt><trkpt lat="30.43953569250692" lon="-5.559442317055666"><ele>960.0</ele><time>2026-03-25T09:37:30.973Z</time></trkpt><trkpt lat="30.439578371563147" lon="-5.559386328952656"><ele>960.0</ele><time>2026-03-25T09:37:31.973Z</time></trkpt><trkpt lat="30.439631216432918" lon="-5.559313271705388"><ele>960.1666666666666</ele><time>2026-03-25T09:37:32.973Z</time></trkpt><trkpt lat="30.439697598129918" lon="-5.559232810782029"><ele>960.3333333333333</ele><time>2026-03-25T09:37:33.973Z</time></trkpt><trkpt lat="30.43975413461612" lon="-5.559166273178156"><ele>960.5</ele><time>2026-03-25T09:37:34.973Z</time></trkpt><trkpt lat="30.439806532939116" lon="-5.559100848582209"><ele>960.6666666666666</ele><time>2026-03-25T09:37:35.973Z</time></trkpt><trkpt lat="30.43986204959192" lon="-5.559027530242239"><ele>960.8333333333333</ele><time>2026-03-25T09:37:36.973Z</time></trkpt><trkpt lat="30.439918204747155" lon="-5.558959028952386"><ele>961.0</ele><time>2026-03-25T09:37:37.973Z</time></trkpt><trkpt lat="30.439972140649388" lon="-5.558900226694757"><ele>961.0</ele><time>2026-03-25T09:37:38.973Z</time></trkpt><trkpt lat="30.44001677877961" lon="-5.558843139027107"><ele>960.9999999999999</ele><time>2026-03-25T09:37:39.973Z</time></trkpt><trkpt lat="30.440067825714003" lon="-5.558772369269725"><ele>960.9999999999999</ele><time>2026-03-25T09:37:40.973Z</time></trkpt><trkpt lat="30.440127730300837" lon="-5.558690196421971"><ele>961.0</ele><time>2026-03-25T09:37:41.973Z</time></trkpt><trkpt lat="30.440194279952454" lon="-5.558592748359487"><ele>961.0</ele><time>2026-03-25T09:37:42.973Z</time></trkpt><trkpt lat="30.440261512406266" lon="-5.558497469702028"><ele>960.9999999999999</ele><time>2026-03-25T09:37:43.973Z</time></trkpt><trkpt lat="30.44031868776642" lon="-5.558412487892479"><ele>961.0</ele><time>2026-03-25T09:37:44.973Z</time></trkpt><trkpt lat="30.440367160105634" lon="-5.558337805628446"><ele>961.0</ele><time>2026-03-25T09:37:45.973Z</time></trkpt><trkpt lat="30.440408908807445" lon="-5.55827113051435"><ele>961.0</ele><time>2026-03-25T09:37:46.973Z</time></trkpt><trkpt lat="30.440446295636914" lon="-5.5582034469800154"><ele>960.9999999999999</ele><time>2026-03-25T09:37:47.973Z</time></trkpt><trkpt lat="30.440501324284487" lon="-5.55811259106033"><ele>961.0</ele><time>2026-03-25T09:37:48.973Z</time></trkpt><trkpt lat="30.440555923305713" lon="-5.558026476020504"><ele>960.9999999999999</ele><time>2026-03-25T09:37:49.973Z</time></trkpt><trkpt lat="30.440593064838108" lon="-5.557956466245182"><ele>961.0</ele><time>2026-03-25T09:37:50.973Z</time></trkpt><trkpt lat="30.440626158595467" lon="-5.557888263906924"><ele>961.0</ele><time>2026-03-25T09:37:51.973Z</time></trkpt><trkpt lat="30.440665612112124" lon="-5.557819973938275"><ele>961.0</ele><time>2026-03-25T09:37:52.973Z</time></trkpt><trkpt lat="30.440703995239218" lon="-5.557755318624744"><ele>960.9999999999999</ele><time>2026-03-25T09:37:53.973Z</time></trkpt><trkpt lat="30.440771425629688" lon="-5.557645777257912"><ele>961.0</ele><time>2026-03-25T09:37:55.973Z</time></trkpt><trkpt lat="30.440843492007488" lon="-5.55752892716901"><ele>961.0</ele><time>2026-03-25T09:37:57.973Z</time></trkpt><trkpt lat="30.440906728351553" lon="-5.557422727379297"><ele>960.9999999999999</ele><time>2026-03-25T09:37:59.973Z</time></trkpt><trkpt lat="30.44098641127361" lon="-5.5573860885386654"><ele>960.9999999999999</ele><time>2026-03-25T09:38:01.973Z</time></trkpt><trkpt lat="30.441077008963692" lon="-5.557413462584309"><ele>961.0</ele><time>2026-03-25T09:38:03.973Z</time></trkpt><trkpt lat="30.441136222475585" lon="-5.557510288543713"><ele>961.0</ele><time>2026-03-25T09:38:05.973Z</time></trkpt><trkpt lat="30.441219093455906" lon="-5.557536557112716"><ele>961.0</ele><time>2026-03-25T09:38:07.973Z</time></trkpt><trkpt lat="30.44128465809432" lon="-5.557504134832998"><ele>960.9999999999999</ele><time>2026-03-25T09:38:08.973Z</time></trkpt><trkpt lat="30.441330435389713" lon="-5.557436740017898"><ele>960.9999999999999</ele><time>2026-03-25T09:38:09.973Z</time></trkpt><trkpt lat="30.4413890801679" lon="-5.55734134761351"><ele>961.0</ele><time>2026-03-25T09:38:10.973Z</time></trkpt><trkpt lat="30.44146726846208" lon="-5.5572267779994995"><ele>961.0</ele><time>2026-03-25T09:38:11.973Z</time></trkpt><trkpt lat="30.44155340331878" lon="-5.557112767308242"><ele>960.25</ele><time>2026-03-25T09:38:12.973Z</time></trkpt><trkpt lat="30.441639386640148" lon="-5.556990982477749"><ele>959.5</ele><time>2026-03-25T09:38:13.973Z</time></trkpt><trkpt lat="30.441727732074657" lon="-5.55686145273474"><ele>958.75</ele><time>2026-03-25T09:38:14.972Z</time></trkpt><trkpt lat="30.441815788783746" lon="-5.556731279330745"><ele>958.0</ele><time>2026-03-25T09:38:15.972Z</time></trkpt><trkpt lat="30.441903775482416" lon="-5.556600193131302"><ele>958.0</ele><time>2026-03-25T09:38:16.972Z</time></trkpt><trkpt lat="30.441993696687973" lon="-5.55647550686224"><ele>958.0</ele><time>2026-03-25T09:38:17.972Z</time></trkpt><trkpt lat="30.44208283462139" lon="-5.556348126518421"><ele>958.0</ele><time>2026-03-25T09:38:18.972Z</time></trkpt><trkpt lat="30.44217090346947" lon="-5.55621872449742"><ele>958.0</ele><time>2026-03-25T09:38:19.972Z</time></trkpt><trkpt lat="30.44225707627123" lon="-5.556101659424469"><ele>958.75</ele><time>2026-03-25T09:38:20.972Z</time></trkpt><trkpt lat="30.44233822865901" lon="-5.555983048294001"><ele>959.5</ele><time>2026-03-25T09:38:21.972Z</time></trkpt><trkpt lat="30.442417525574307" lon="-5.555863721127575"><ele>960.25</ele><time>2026-03-25T09:38:22.972Z</time></trkpt><trkpt lat="30.442499950358133" lon="-5.555749933870881"><ele>961.0</ele><time>2026-03-25T09:38:23.972Z</time></trkpt><trkpt lat="30.44258000902924" lon="-5.555628566178343"><ele>961.0</ele><time>2026-03-25T09:38:24.972Z</time></trkpt><trkpt lat="30.44265998277425" lon="-5.5555109287438444"><ele>961.0</ele><time>2026-03-25T09:38:25.972Z</time></trkpt><trkpt lat="30.44273933203162" lon="-5.555397488659923"><ele>961.0</ele><time>2026-03-25T09:38:26.972Z</time></trkpt><trkpt lat="30.442822892955252" lon="-5.555284598992522"><ele>961.0</ele><time>2026-03-25T09:38:27.972Z</time></trkpt><trkpt lat="30.442909506309228" lon="-5.555159048064256"><ele>960.75</ele><time>2026-03-25T09:38:28.972Z</time></trkpt><trkpt lat="30.44300376555575" lon="-5.555032316794418"><ele>960.5</ele><time>2026-03-25T09:38:29.972Z</time></trkpt><trkpt lat="30.443099259525628" lon="-5.554900621768583"><ele>960.25</ele><time>2026-03-25T09:38:30.972Z</time></trkpt><trkpt lat="30.443193053166247" lon="-5.554765699743081"><ele>960.0</ele><time>2026-03-25T09:38:31.972Z</time></trkpt><trkpt lat="30.44328390921319" lon="-5.554627568577236"><ele>959.25</ele><time>2026-03-25T09:38:32.972Z</time></trkpt><trkpt lat="30.44337593390325" lon="-5.55449274892485"><ele>958.5</ele><time>2026-03-25T09:38:33.972Z</time></trkpt><trkpt lat="30.443471522851823" lon="-5.554362256836108"><ele>957.75</ele><time>2026-03-25T09:38:34.972Z</time></trkpt><trkpt lat="30.443564132426953" lon="-5.554228802212514"><ele>957.0</ele><time>2026-03-25T09:38:35.972Z</time></trkpt><trkpt lat="30.443653542128477" lon="-5.554097804316555"><ele>957.0</ele><time>2026-03-25T09:38:36.972Z</time></trkpt><trkpt lat="30.44374244112208" lon="-5.553970072681562"><ele>957.0</ele><time>2026-03-25T09:38:37.972Z</time></trkpt><trkpt lat="30.443835216920178" lon="-5.553840869563289"><ele>957.0</ele><time>2026-03-25T09:38:38.972Z</time></trkpt><trkpt lat="30.443930314871135" lon="-5.553709685113518"><ele>957.0</ele><time>2026-03-25T09:38:39.972Z</time></trkpt><trkpt lat="30.444012829082347" lon="-5.553596054515459"><ele>957.3333333333334</ele><time>2026-03-25T09:38:40.972Z</time></trkpt><trkpt lat="30.444078148505373" lon="-5.553497366834371"><ele>957.6666666666667</ele><time>2026-03-25T09:38:41.972Z</time></trkpt><trkpt lat="30.44413323703009" lon="-5.553416664345461"><ele>958.0</ele><time>2026-03-25T09:38:42.972Z</time></trkpt><trkpt lat="30.444180019541427" lon="-5.553347308706614"><ele>958.3333333333334</ele><time>2026-03-25T09:38:43.971Z</time></trkpt><trkpt lat="30.444216552724406" lon="-5.553276923843589"><ele>958.6666666666667</ele><time>2026-03-25T09:38:44.971Z</time></trkpt><trkpt lat="30.444268553196377" lon="-5.553173853156567"><ele>959.0</ele><time>2026-03-25T09:38:46.971Z</time></trkpt><trkpt lat="30.44426086286935" lon="-5.553033773591338"><ele>959.0</ele><time>2026-03-25T09:38:48.97Z</time></trkpt><trkpt lat="30.444219117252402" lon="-5.552976875720795"><ele>959.0000000000001</ele><time>2026-03-25T09:38:49.97Z</time></trkpt><trkpt lat="30.444184177814776" lon="-5.552915123125326"><ele>959.0000000000001</ele><time>2026-03-25T09:38:50.97Z</time></trkpt><trkpt lat="30.44419255124109" lon="-5.552758887479903"><ele>959.0</ele><time>2026-03-25T09:38:52.969Z</time></trkpt><trkpt lat="30.444238019534247" lon="-5.5526636960707005"><ele>959.0</ele><time>2026-03-25T09:38:53.969Z</time></trkpt><trkpt lat="30.44432786556778" lon="-5.552561993821692"><ele>959.25</ele><time>2026-03-25T09:38:54.969Z</time></trkpt><trkpt lat="30.444438137655553" lon="-5.552462747238933"><ele>959.5</ele><time>2026-03-25T09:38:55.969Z</time></trkpt><trkpt lat="30.444510554966797" lon="-5.552336512968245"><ele>959.75</ele><time>2026-03-25T09:38:56.969Z</time></trkpt><trkpt lat="30.444574545534767" lon="-5.552207997864492"><ele>960.0</ele><time>2026-03-25T09:38:57.969Z</time></trkpt><trkpt lat="30.444646540204275" lon="-5.552085040567373"><ele>959.25</ele><time>2026-03-25T09:38:58.968Z</time></trkpt><trkpt lat="30.444715862056643" lon="-5.551981655709182"><ele>958.5</ele><time>2026-03-25T09:38:59.968Z</time></trkpt><trkpt lat="30.4447944229148" lon="-5.551864103081372"><ele>957.75</ele><time>2026-03-25T09:39:00.968Z</time></trkpt><trkpt lat="30.444865086384656" lon="-5.551758022712733"><ele>957.0</ele><time>2026-03-25T09:39:01.968Z</time></trkpt><trkpt lat="30.444921393188572" lon="-5.551668316734781"><ele>957.0</ele><time>2026-03-25T09:39:02.968Z</time></trkpt><trkpt lat="30.44497357748471" lon="-5.5515895336447665"><ele>957.0</ele><time>2026-03-25T09:39:03.968Z</time></trkpt><trkpt lat="30.445028524462415" lon="-5.551495693057513"><ele>957.0</ele><time>2026-03-25T09:39:04.968Z</time></trkpt><trkpt lat="30.445095665838114" lon="-5.551382957128253"><ele>957.0</ele><time>2026-03-25T09:39:05.968Z</time></trkpt><trkpt lat="30.445163994505073" lon="-5.551272882462974"><ele>957.0</ele><time>2026-03-25T09:39:06.968Z</time></trkpt><trkpt lat="30.445219724150455" lon="-5.551178256041354"><ele>957.0</ele><time>2026-03-25T09:39:07.968Z</time></trkpt><trkpt lat="30.445278326277514" lon="-5.5510787917662245"><ele>957.0</ele><time>2026-03-25T09:39:08.967Z</time></trkpt><trkpt lat="30.4453306169394" lon="-5.550981441753567"><ele>957.0</ele><time>2026-03-25T09:39:09.967Z</time></trkpt><trkpt lat="30.44539551224903" lon="-5.5508843002858175"><ele>957.0</ele><time>2026-03-25T09:39:10.967Z</time></trkpt><trkpt lat="30.445460911660238" lon="-5.550782081428452"><ele>957.0</ele><time>2026-03-25T09:39:11.967Z</time></trkpt><trkpt lat="30.445534563835242" lon="-5.5506708291409295"><ele>957.0</ele><time>2026-03-25T09:39:12.967Z</time></trkpt><trkpt lat="30.44561045921805" lon="-5.550557635582568"><ele>957.0</ele><time>2026-03-25T09:39:13.967Z</time></trkpt><trkpt lat="30.445678710757203" lon="-5.550463637533842"><ele>957.0</ele><time>2026-03-25T09:39:14.967Z</time></trkpt><trkpt lat="30.44574382727028" lon="-5.550374213168747"><ele>957.0</ele><time>2026-03-25T09:39:15.967Z</time></trkpt><trkpt lat="30.445808913561788" lon="-5.550280436453943"><ele>957.0</ele><time>2026-03-25T09:39:16.967Z</time></trkpt><trkpt lat="30.445883966521404" lon="-5.550188912421112"><ele>957.0</ele><time>2026-03-25T09:39:17.967Z</time></trkpt><trkpt lat="30.445962155474657" lon="-5.550083154289169"><ele>957.0</ele><time>2026-03-25T09:39:18.967Z</time></trkpt><trkpt lat="30.44603168459631" lon="-5.54997770756163"><ele>957.0</ele><time>2026-03-25T09:39:19.967Z</time></trkpt><trkpt lat="30.446086467663704" lon="-5.549895322153795"><ele>957.0</ele><time>2026-03-25T09:39:20.967Z</time></trkpt><trkpt lat="30.446149640879373" lon="-5.549802840816923"><ele>957.0</ele><time>2026-03-25T09:39:21.967Z</time></trkpt><trkpt lat="30.446236228722277" lon="-5.5496965074984095"><ele>956.5</ele><time>2026-03-25T09:39:22.967Z</time></trkpt><trkpt lat="30.446320751468914" lon="-5.549575863836063"><ele>956.0</ele><time>2026-03-25T09:39:23.968Z</time></trkpt><trkpt lat="30.44639662310047" lon="-5.549468769417487"><ele>955.5</ele><time>2026-03-25T09:39:24.967Z</time></trkpt><trkpt lat="30.446463986364652" lon="-5.549361971183221"><ele>955.0</ele><time>2026-03-25T09:39:25.967Z</time></trkpt><trkpt lat="30.446532305227645" lon="-5.549261905092728"><ele>956.0</ele><time>2026-03-25T09:39:26.968Z</time></trkpt><trkpt lat="30.446606072515806" lon="-5.549171846595698"><ele>957.0</ele><time>2026-03-25T09:39:27.967Z</time></trkpt><trkpt lat="30.446685265762852" lon="-5.5490732503689895"><ele>958.0</ele><time>2026-03-25T09:39:28.967Z</time></trkpt><trkpt lat="30.446766266044584" lon="-5.548962543705842"><ele>959.0</ele><time>2026-03-25T09:39:29.967Z</time></trkpt><trkpt lat="30.446857818343663" lon="-5.548836187805196"><ele>959.0</ele><time>2026-03-25T09:39:30.967Z</time></trkpt><trkpt lat="30.44694665013756" lon="-5.548727802309901"><ele>959.0</ele><time>2026-03-25T09:39:31.967Z</time></trkpt><trkpt lat="30.44702993708597" lon="-5.548623945239918"><ele>959.0</ele><time>2026-03-25T09:39:32.967Z</time></trkpt><trkpt lat="30.447109195601595" lon="-5.54852482603679"><ele>959.0</ele><time>2026-03-25T09:39:33.967Z</time></trkpt><trkpt lat="30.447190388304293" lon="-5.5484228033652645"><ele>958.0</ele><time>2026-03-25T09:39:34.967Z</time></trkpt><trkpt lat="30.447276775446305" lon="-5.548314023169252"><ele>957.0</ele><time>2026-03-25T09:39:35.967Z</time></trkpt><trkpt lat="30.44736804835531" lon="-5.548203585574527"><ele>956.0</ele><time>2026-03-25T09:39:36.967Z</time></trkpt><trkpt lat="30.447463094098104" lon="-5.548103288404874"><ele>955.0</ele><time>2026-03-25T09:39:37.967Z</time></trkpt><trkpt lat="30.447558121089386" lon="-5.547994701914125"><ele>955.0</ele><time>2026-03-25T09:39:38.967Z</time></trkpt><trkpt lat="30.44764409398356" lon="-5.547889172544654"><ele>955.0</ele><time>2026-03-25T09:39:39.967Z</time></trkpt><trkpt lat="30.447720292407876" lon="-5.547792103838859"><ele>955.0</ele><time>2026-03-25T09:39:40.967Z</time></trkpt><trkpt lat="30.447784361867416" lon="-5.547698666701539"><ele>955.0</ele><time>2026-03-25T09:39:41.967Z</time></trkpt><trkpt lat="30.44786442325532" lon="-5.547624192900733"><ele>955.0</ele><time>2026-03-25T09:39:42.967Z</time></trkpt><trkpt lat="30.447947072445697" lon="-5.547523965424301"><ele>954.5</ele><time>2026-03-25T09:39:43.967Z</time></trkpt><trkpt lat="30.448039233091233" lon="-5.547428157277864"><ele>954.0</ele><time>2026-03-25T09:39:44.967Z</time></trkpt><trkpt lat="30.448132621765527" lon="-5.547321282996095"><ele>953.5</ele><time>2026-03-25T09:39:45.967Z</time></trkpt><trkpt lat="30.448223948776157" lon="-5.547206598304963"><ele>953.0</ele><time>2026-03-25T09:39:46.967Z</time></trkpt><trkpt lat="30.44831430288627" lon="-5.54708348971781"><ele>952.25</ele><time>2026-03-25T09:39:47.967Z</time></trkpt><trkpt lat="30.448402759441976" lon="-5.546957134804077"><ele>951.5</ele><time>2026-03-25T09:39:48.967Z</time></trkpt><trkpt lat="30.448498016310747" lon="-5.546824170232134"><ele>950.75</ele><time>2026-03-25T09:39:49.967Z</time></trkpt><trkpt lat="30.44859432549964" lon="-5.546694569832154"><ele>950.0</ele><time>2026-03-25T09:39:50.967Z</time></trkpt><trkpt lat="30.44869009004113" lon="-5.54654792998314"><ele>950.0</ele><time>2026-03-25T09:39:51.967Z</time></trkpt><trkpt lat="30.448783866123645" lon="-5.546405772181674"><ele>950.0</ele><time>2026-03-25T09:39:52.967Z</time></trkpt><trkpt lat="30.448873301689304" lon="-5.5462774932704235"><ele>950.0</ele><time>2026-03-25T09:39:53.967Z</time></trkpt><trkpt lat="30.44895430758926" lon="-5.54616431941635"><ele>950.0</ele><time>2026-03-25T09:39:54.967Z</time></trkpt><trkpt lat="30.44903829550154" lon="-5.546060417558483"><ele>949.25</ele><time>2026-03-25T09:39:55.967Z</time></trkpt><trkpt lat="30.44912690512256" lon="-5.545951814473053"><ele>948.5</ele><time>2026-03-25T09:39:56.967Z</time></trkpt><trkpt lat="30.449212457150878" lon="-5.545834658425952"><ele>947.75</ele><time>2026-03-25T09:39:57.967Z</time></trkpt><trkpt lat="30.449293279571517" lon="-5.5457123989026895"><ele>947.0</ele><time>2026-03-25T09:39:58.967Z</time></trkpt><trkpt lat="30.4493687900276" lon="-5.54560799255176"><ele>947.0</ele><time>2026-03-25T09:39:59.967Z</time></trkpt><trkpt lat="30.449448820495263" lon="-5.5454917702112825"><ele>947.0</ele><time>2026-03-25T09:40:00.966Z</time></trkpt><trkpt lat="30.449524481088453" lon="-5.545383057370687"><ele>947.0</ele><time>2026-03-25T09:40:01.966Z</time></trkpt><trkpt lat="30.44959738614438" lon="-5.545280996270979"><ele>947.0</ele><time>2026-03-25T09:40:02.966Z</time></trkpt><trkpt lat="30.449659192188957" lon="-5.545188038386184"><ele>947.6</ele><time>2026-03-25T09:40:03.966Z</time></trkpt><trkpt lat="30.449719876304865" lon="-5.545086505609334"><ele>948.2</ele><time>2026-03-25T09:40:04.966Z</time></trkpt><trkpt lat="30.449783854997285" lon="-5.544999779194407"><ele>948.8</ele><time>2026-03-25T09:40:05.966Z</time></trkpt><trkpt lat="30.44984302248688" lon="-5.544925073708373"><ele>949.4</ele><time>2026-03-25T09:40:06.966Z</time></trkpt><trkpt lat="30.449900562327894" lon="-5.54485488877152"><ele>950.0</ele><time>2026-03-25T09:40:07.966Z</time></trkpt><trkpt lat="30.44995232717685" lon="-5.544788455295394"><ele>950.0</ele><time>2026-03-25T09:40:08.966Z</time></trkpt><trkpt lat="30.450001328403612" lon="-5.54470669159735"><ele>950.0</ele><time>2026-03-25T09:40:09.966Z</time></trkpt><trkpt lat="30.450059536279248" lon="-5.544611932555285"><ele>950.0</ele><time>2026-03-25T09:40:10.966Z</time></trkpt><trkpt lat="30.450129716618896" lon="-5.544509977059"><ele>950.0</ele><time>2026-03-25T09:40:11.966Z</time></trkpt><trkpt lat="30.45019313861937" lon="-5.5444034956448105"><ele>950.0</ele><time>2026-03-25T09:40:12.966Z</time></trkpt><trkpt lat="30.450279111539817" lon="-5.544275226871083"><ele>949.6666666666667</ele><time>2026-03-25T09:40:13.966Z</time></trkpt><trkpt lat="30.45038042763495" lon="-5.544112111968296"><ele>949.3333333333333</ele><time>2026-03-25T09:40:14.966Z</time></trkpt><trkpt lat="30.450490673716192" lon="-5.543934661928839"><ele>949.0</ele><time>2026-03-25T09:40:15.966Z</time></trkpt><trkpt lat="30.450601646202244" lon="-5.543756796339861"><ele>947.5</ele><time>2026-03-25T09:40:16.966Z</time></trkpt><trkpt lat="30.450691902961243" lon="-5.543614565354475"><ele>946.0</ele><time>2026-03-25T09:40:17.966Z</time></trkpt><trkpt lat="30.45077371334403" lon="-5.5434829738297875"><ele>944.5</ele><time>2026-03-25T09:40:18.966Z</time></trkpt><trkpt lat="30.450853579345296" lon="-5.543356923482917"><ele>943.0</ele><time>2026-03-25T09:40:19.966Z</time></trkpt><trkpt lat="30.450931961331793" lon="-5.543227545464715"><ele>943.0</ele><time>2026-03-25T09:40:20.966Z</time></trkpt><trkpt lat="30.45101625691583" lon="-5.543095046181273"><ele>943.0</ele><time>2026-03-25T09:40:21.966Z</time></trkpt><trkpt lat="30.45110290640475" lon="-5.542957891863427"><ele>943.0</ele><time>2026-03-25T09:40:22.966Z</time></trkpt><trkpt lat="30.451199326937157" lon="-5.542808555077024"><ele>943.0</ele><time>2026-03-25T09:40:23.966Z</time></trkpt><trkpt lat="30.451298793590663" lon="-5.5426589521038645"><ele>943.0</ele><time>2026-03-25T09:40:24.966Z</time></trkpt><trkpt lat="30.451397993147406" lon="-5.542515750518882"><ele>943.0</ele><time>2026-03-25T09:40:25.966Z</time></trkpt><trkpt lat="30.451493149994832" lon="-5.542371470412542"><ele>943.0</ele><time>2026-03-25T09:40:26.966Z</time></trkpt><trkpt lat="30.451579237453476" lon="-5.542237925843268"><ele>943.0</ele><time>2026-03-25T09:40:27.966Z</time></trkpt><trkpt lat="30.4516560637955" lon="-5.542115705649016"><ele>943.0</ele><time>2026-03-25T09:40:28.966Z</time></trkpt><trkpt lat="30.451727901455158" lon="-5.542021137910266"><ele>943.0</ele><time>2026-03-25T09:40:29.966Z</time></trkpt><trkpt lat="30.451790548972426" lon="-5.5419315763570935"><ele>943.0</ele><time>2026-03-25T09:40:30.966Z</time></trkpt><trkpt lat="30.451842730139152" lon="-5.541855544529538"><ele>943.0</ele><time>2026-03-25T09:40:31.966Z</time></trkpt><trkpt lat="30.451898126580378" lon="-5.541792937336869"><ele>943.0</ele><time>2026-03-25T09:40:32.966Z</time></trkpt><trkpt lat="30.451967017199873" lon="-5.541718434557776"><ele>943.0</ele><time>2026-03-25T09:40:33.966Z</time></trkpt><trkpt lat="30.452039461455982" lon="-5.541624510815963"><ele>943.0</ele><time>2026-03-25T09:40:34.966Z</time></trkpt><trkpt lat="30.452113007647974" lon="-5.541516613719312"><ele>943.0</ele><time>2026-03-25T09:40:35.966Z</time></trkpt><trkpt lat="30.45217276151804" lon="-5.5414286965341315"><ele>943.0</ele><time>2026-03-25T09:40:36.966Z</time></trkpt><trkpt lat="30.4522345257142" lon="-5.541327670292037"><ele>943.0</ele><time>2026-03-25T09:40:37.966Z</time></trkpt><trkpt lat="30.452299997507986" lon="-5.541226566589956"><ele>943.0</ele><time>2026-03-25T09:40:38.966Z</time></trkpt><trkpt lat="30.45236766014486" lon="-5.5411282675371885"><ele>943.0</ele><time>2026-03-25T09:40:39.966Z</time></trkpt><trkpt lat="30.45242780500683" lon="-5.541040320633614"><ele>943.0</ele><time>2026-03-25T09:40:40.966Z</time></trkpt><trkpt lat="30.452474530383377" lon="-5.540968260803728"><ele>943.0</ele><time>2026-03-25T09:40:41.966Z</time></trkpt><trkpt lat="30.452516288229493" lon="-5.5408958751626916"><ele>943.1666666666666</ele><time>2026-03-25T09:40:42.966Z</time></trkpt><trkpt lat="30.452562919591095" lon="-5.540824996137661"><ele>943.3333333333333</ele><time>2026-03-25T09:40:43.966Z</time></trkpt><trkpt lat="30.452605308187312" lon="-5.540761874625087"><ele>943.5</ele><time>2026-03-25T09:40:44.966Z</time></trkpt><trkpt lat="30.452672458644344" lon="-5.540653675635975"><ele>943.6666666666667</ele><time>2026-03-25T09:40:46.966Z</time></trkpt><trkpt lat="30.452739863851278" lon="-5.540595520741489"><ele>943.8333333333334</ele><time>2026-03-25T09:40:48.966Z</time></trkpt><trkpt lat="30.452823928373423" lon="-5.540634608534732"><ele>944.0</ele><time>2026-03-25T09:40:50.966Z</time></trkpt><trkpt lat="30.45289745664548" lon="-5.540726683314585"><ele>943.4000000000001</ele><time>2026-03-25T09:40:52.966Z</time></trkpt><trkpt lat="30.453013834810907" lon="-5.540750377356014"><ele>942.8000000000001</ele><time>2026-03-25T09:40:54.966Z</time></trkpt><trkpt lat="30.453078011156258" lon="-5.540690170005932"><ele>942.1999999999999</ele><time>2026-03-25T09:40:55.966Z</time></trkpt><trkpt lat="30.45312338824194" lon="-5.540602609812607"><ele>941.5999999999999</ele><time>2026-03-25T09:40:56.966Z</time></trkpt><trkpt lat="30.453174864407824" lon="-5.54049673938133"><ele>941.0</ele><time>2026-03-25T09:40:57.966Z</time></trkpt><trkpt lat="30.45323830424321" lon="-5.540387566069259"><ele>940.25</ele><time>2026-03-25T09:40:58.966Z</time></trkpt><trkpt lat="30.45331105244927" lon="-5.540277298576551"><ele>939.5</ele><time>2026-03-25T09:40:59.966Z</time></trkpt><trkpt lat="30.453385709851794" lon="-5.54015802369809"><ele>938.75</ele><time>2026-03-25T09:41:00.966Z</time></trkpt><trkpt lat="30.453458570910104" lon="-5.540026468436219"><ele>938.0</ele><time>2026-03-25T09:41:01.966Z</time></trkpt><trkpt lat="30.453531867291982" lon="-5.53990025669066"><ele>938.0</ele><time>2026-03-25T09:41:02.966Z</time></trkpt><trkpt lat="30.453608672206734" lon="-5.539769955231402"><ele>938.0</ele><time>2026-03-25T09:41:03.966Z</time></trkpt><trkpt lat="30.45367444485003" lon="-5.5396552933504815"><ele>938.0</ele><time>2026-03-25T09:41:04.966Z</time></trkpt><trkpt lat="30.45373381754985" lon="-5.539555299240984"><ele>938.0</ele><time>2026-03-25T09:41:05.966Z</time></trkpt><trkpt lat="30.45378617609427" lon="-5.539466848489883"><ele>938.0000000000001</ele><time>2026-03-25T09:41:06.966Z</time></trkpt><trkpt lat="30.453836242542064" lon="-5.539392382098301"><ele>938.0</ele><time>2026-03-25T09:41:07.966Z</time></trkpt><trkpt lat="30.45387018802934" lon="-5.539326371905919"><ele>938.0</ele><time>2026-03-25T09:41:08.966Z</time></trkpt><trkpt lat="30.453887427595497" lon="-5.539246761509004"><ele>938.0</ele><time>2026-03-25T09:41:09.966Z</time></trkpt><trkpt lat="30.45383201888551" lon="-5.539124945768147"><ele>938.0000000000001</ele><time>2026-03-25T09:41:11.966Z</time></trkpt><trkpt lat="30.45377376504534" lon="-5.539067622051309"><ele>938.0</ele><time>2026-03-25T09:41:12.966Z</time></trkpt><trkpt lat="30.453731826006223" lon="-5.539001201157805"><ele>938.0</ele><time>2026-03-25T09:41:13.966Z</time></trkpt><trkpt lat="30.45372627301762" lon="-5.538900901000041"><ele>938.0</ele><time>2026-03-25T09:41:14.966Z</time></trkpt><trkpt lat="30.45378147711041" lon="-5.538798256703512"><ele>938.0</ele><time>2026-03-25T09:41:15.966Z</time></trkpt><trkpt lat="30.453856332149098" lon="-5.538694233883619"><ele>938.0</ele><time>2026-03-25T09:41:16.966Z</time></trkpt><trkpt lat="30.453913505616768" lon="-5.538570557250347"><ele>938.0</ele><time>2026-03-25T09:41:17.966Z</time></trkpt><trkpt lat="30.45395346339058" lon="-5.538471050881118"><ele>938.2</ele><time>2026-03-25T09:41:18.966Z</time></trkpt><trkpt lat="30.45399198991237" lon="-5.5383813976807525"><ele>938.4</ele><time>2026-03-25T09:41:19.966Z</time></trkpt><trkpt lat="30.45403923400933" lon="-5.538278185577264"><ele>938.6000000000001</ele><time>2026-03-25T09:41:20.966Z</time></trkpt><trkpt lat="30.45409423400882" lon="-5.538169163389408"><ele>938.8000000000001</ele><time>2026-03-25T09:41:21.966Z</time></trkpt><trkpt lat="30.454160683213043" lon="-5.538048860348636"><ele>939.0</ele><time>2026-03-25T09:41:22.966Z</time></trkpt><trkpt lat="30.45422864075736" lon="-5.537924434097172"><ele>938.75</ele><time>2026-03-25T09:41:23.966Z</time></trkpt><trkpt lat="30.45429804488889" lon="-5.537793705028675"><ele>938.5</ele><time>2026-03-25T09:41:24.966Z</time></trkpt><trkpt lat="30.454367823576945" lon="-5.537663434444708"><ele>938.25</ele><time>2026-03-25T09:41:25.966Z</time></trkpt><trkpt lat="30.454427913129194" lon="-5.537545061475836"><ele>938.0</ele><time>2026-03-25T09:41:26.967Z</time></trkpt><trkpt lat="30.454482217470485" lon="-5.53743891239164"><ele>938.0000000000001</ele><time>2026-03-25T09:41:27.966Z</time></trkpt><trkpt lat="30.454532042007916" lon="-5.537353109727744"><ele>938.0</ele><time>2026-03-25T09:41:28.966Z</time></trkpt><trkpt lat="30.45458826733457" lon="-5.537286125435065"><ele>938.0</ele><time>2026-03-25T09:41:29.967Z</time></trkpt><trkpt lat="30.454657119414993" lon="-5.53721452424256"><ele>938.0</ele><time>2026-03-25T09:41:30.966Z</time></trkpt><trkpt lat="30.454733032612538" lon="-5.537169426197133"><ele>938.0000000000001</ele><time>2026-03-25T09:41:31.966Z</time></trkpt><trkpt lat="30.454800943241764" lon="-5.537144561432782"><ele>938.0</ele><time>2026-03-25T09:41:32.966Z</time></trkpt><trkpt lat="30.454866885721433" lon="-5.537120104060562"><ele>938.2</ele><time>2026-03-25T09:41:33.966Z</time></trkpt><trkpt lat="30.454936863931977" lon="-5.537089768229514"><ele>938.4</ele><time>2026-03-25T09:41:34.966Z</time></trkpt><trkpt lat="30.455020553261345" lon="-5.537043732247233"><ele>938.6000000000001</ele><time>2026-03-25T09:41:35.967Z</time></trkpt><trkpt lat="30.455112273884883" lon="-5.536988221992299"><ele>938.8000000000001</ele><time>2026-03-25T09:41:36.966Z</time></trkpt><trkpt lat="30.45519969318459" lon="-5.536904259777788"><ele>939.0</ele><time>2026-03-25T09:41:37.966Z</time></trkpt><trkpt lat="30.45524577938096" lon="-5.536812742819506"><ele>939.0</ele><time>2026-03-25T09:41:38.967Z</time></trkpt><trkpt lat="30.455285202577127" lon="-5.536692956677014"><ele>939.0</ele><time>2026-03-25T09:41:39.966Z</time></trkpt><trkpt lat="30.455333891656807" lon="-5.536573896176474"><ele>939.0</ele><time>2026-03-25T09:41:40.966Z</time></trkpt><trkpt lat="30.45539470718793" lon="-5.536451022428805"><ele>939.0</ele><time>2026-03-25T09:41:41.966Z</time></trkpt><trkpt lat="30.455455953227386" lon="-5.536330191511336"><ele>939.0</ele><time>2026-03-25T09:41:42.966Z</time></trkpt><trkpt lat="30.455513395196405" lon="-5.536208796223836"><ele>939.0</ele><time>2026-03-25T09:41:43.966Z</time></trkpt><trkpt lat="30.4555738069439" lon="-5.536079862883657"><ele>939.0</ele><time>2026-03-25T09:41:44.966Z</time></trkpt><trkpt lat="30.455637913904045" lon="-5.535947542444757"><ele>939.0</ele><time>2026-03-25T09:41:45.966Z</time></trkpt><trkpt lat="30.455701558429958" lon="-5.535807972174155"><ele>939.0</ele><time>2026-03-25T09:41:46.966Z</time></trkpt><trkpt lat="30.45576557026332" lon="-5.535664219008803"><ele>939.0</ele><time>2026-03-25T09:41:47.966Z</time></trkpt><trkpt lat="30.45583285358193" lon="-5.5355188128628185"><ele>939.0</ele><time>2026-03-25T09:41:48.966Z</time></trkpt><trkpt lat="30.45590285599147" lon="-5.535370440268183"><ele>939.0</ele><time>2026-03-25T09:41:49.966Z</time></trkpt><trkpt lat="30.455971018070148" lon="-5.535217425988356"><ele>939.0</ele><time>2026-03-25T09:41:50.966Z</time></trkpt><trkpt lat="30.456040702807275" lon="-5.5350626298471255"><ele>939.0</ele><time>2026-03-25T09:41:51.966Z</time></trkpt><trkpt lat="30.45610580165031" lon="-5.534915019614253"><ele>939.0</ele><time>2026-03-25T09:41:52.966Z</time></trkpt><trkpt lat="30.456164893323294" lon="-5.5347709620566095"><ele>939.0</ele><time>2026-03-25T09:41:53.966Z</time></trkpt><trkpt lat="30.456229282138267" lon="-5.5346284303777535"><ele>939.5</ele><time>2026-03-25T09:41:54.966Z</time></trkpt><trkpt lat="30.45628740004316" lon="-5.5344993561468865"><ele>940.0</ele><time>2026-03-25T09:41:55.966Z</time></trkpt><trkpt lat="30.456345006681996" lon="-5.534370557637472"><ele>940.5</ele><time>2026-03-25T09:41:56.966Z</time></trkpt><trkpt lat="30.456401394664827" lon="-5.534227659783129"><ele>941.0</ele><time>2026-03-25T09:41:57.966Z</time></trkpt><trkpt lat="30.4564637226941" lon="-5.5340747285646845"><ele>941.0</ele><time>2026-03-25T09:41:58.966Z</time></trkpt><trkpt lat="30.45653200806604" lon="-5.533924685486795"><ele>941.0</ele><time>2026-03-25T09:41:59.966Z</time></trkpt><trkpt lat="30.45660403129892" lon="-5.533750654930512"><ele>941.0</ele><time>2026-03-25T09:42:00.966Z</time></trkpt><trkpt lat="30.45667031081829" lon="-5.533575205548323"><ele>940.0</ele><time>2026-03-25T09:42:01.966Z</time></trkpt><trkpt lat="30.456736573975483" lon="-5.533411023654106"><ele>939.0</ele><time>2026-03-25T09:42:02.966Z</time></trkpt><trkpt lat="30.456803890613692" lon="-5.53323908404788"><ele>938.0</ele><time>2026-03-25T09:42:03.966Z</time></trkpt><trkpt lat="30.456866982024952" lon="-5.5330735001257"><ele>938.0</ele><time>2026-03-25T09:42:04.966Z</time></trkpt><trkpt lat="30.456930870113236" lon="-5.5329080955102485"><ele>938.0</ele><time>2026-03-25T09:42:05.966Z</time></trkpt><trkpt lat="30.456989485524947" lon="-5.532753133846502"><ele>938.0</ele><time>2026-03-25T09:42:06.966Z</time></trkpt><trkpt lat="30.457041456063767" lon="-5.532618413294544"><ele>938.0</ele><time>2026-03-25T09:42:07.966Z</time></trkpt><trkpt lat="30.457086749705233" lon="-5.532487639083217"><ele>937.75</ele><time>2026-03-25T09:42:08.966Z</time></trkpt><trkpt lat="30.457140800033827" lon="-5.532350550130392"><ele>937.5</ele><time>2026-03-25T09:42:09.966Z</time></trkpt><trkpt lat="30.45719542535194" lon="-5.532212391959752"><ele>937.25</ele><time>2026-03-25T09:42:10.966Z</time></trkpt><trkpt lat="30.45724704177139" lon="-5.53206959499527"><ele>937.0</ele><time>2026-03-25T09:42:11.966Z</time></trkpt><trkpt lat="30.457299195310586" lon="-5.531920779080529"><ele>937.0</ele><time>2026-03-25T09:42:12.966Z</time></trkpt><trkpt lat="30.457354572727223" lon="-5.53176657669198"><ele>937.0</ele><time>2026-03-25T09:42:13.966Z</time></trkpt><trkpt lat="30.45741244212146" lon="-5.531603679198776"><ele>937.0</ele><time>2026-03-25T09:42:14.966Z</time></trkpt><trkpt lat="30.45747058603287" lon="-5.531434688427678"><ele>937.0</ele><time>2026-03-25T09:42:15.966Z</time></trkpt><trkpt lat="30.457531057332172" lon="-5.531259579089213"><ele>937.0</ele><time>2026-03-25T09:42:16.966Z</time></trkpt><trkpt lat="30.457590564136574" lon="-5.531087193757957"><ele>937.0</ele><time>2026-03-25T09:42:17.966Z</time></trkpt><trkpt lat="30.457642422186723" lon="-5.530931700905215"><ele>936.6666666666666</ele><time>2026-03-25T09:42:18.966Z</time></trkpt><trkpt lat="30.457694158879264" lon="-5.5307552894310925"><ele>936.3333333333333</ele><time>2026-03-25T09:42:19.966Z</time></trkpt><trkpt lat="30.45776266472098" lon="-5.530553796918887"><ele>936.0</ele><time>2026-03-25T09:42:20.966Z</time></trkpt><trkpt lat="30.45782539529798" lon="-5.530353186740835"><ele>935.3333333333333</ele><time>2026-03-25T09:42:21.966Z</time></trkpt><trkpt lat="30.45788482040939" lon="-5.530184894531043"><ele>934.6666666666666</ele><time>2026-03-25T09:42:22.966Z</time></trkpt><trkpt lat="30.457938188691745" lon="-5.53001173863797"><ele>934.0</ele><time>2026-03-25T09:42:23.966Z</time></trkpt><trkpt lat="30.45798630682677" lon="-5.52985975454257"><ele>934.0</ele><time>2026-03-25T09:42:24.966Z</time></trkpt><trkpt lat="30.4580333004934" lon="-5.5297049873727575"><ele>934.0</ele><time>2026-03-25T09:42:25.966Z</time></trkpt><trkpt lat="30.45807923387177" lon="-5.52955083923945"><ele>934.0</ele><time>2026-03-25T09:42:26.966Z</time></trkpt><trkpt lat="30.45812578600306" lon="-5.529391211736566"><ele>934.0</ele><time>2026-03-25T09:42:27.966Z</time></trkpt><trkpt lat="30.45817324524141" lon="-5.529228056359934"><ele>933.75</ele><time>2026-03-25T09:42:28.966Z</time></trkpt><trkpt lat="30.45822062432252" lon="-5.529074059846305"><ele>933.5</ele><time>2026-03-25T09:42:29.966Z</time></trkpt><trkpt lat="30.45826928500006" lon="-5.528910427391226"><ele>933.25</ele><time>2026-03-25T09:42:30.966Z</time></trkpt><trkpt lat="30.458317496400866" lon="-5.528743805959651"><ele>933.0</ele><time>2026-03-25T09:42:31.966Z</time></trkpt><trkpt lat="30.458368618626015" lon="-5.528573637364149"><ele>932.6666666666667</ele><time>2026-03-25T09:42:32.966Z</time></trkpt><trkpt lat="30.458423135137778" lon="-5.528399808557501"><ele>932.3333333333334</ele><time>2026-03-25T09:42:33.966Z</time></trkpt><trkpt lat="30.45848008722403" lon="-5.52821881511851"><ele>932.0</ele><time>2026-03-25T09:42:34.966Z</time></trkpt><trkpt lat="30.458537968362613" lon="-5.528030936171867"><ele>931.3333333333334</ele><time>2026-03-25T09:42:35.966Z</time></trkpt><trkpt lat="30.458596191258334" lon="-5.527842129454365"><ele>930.6666666666667</ele><time>2026-03-25T09:42:36.966Z</time></trkpt><trkpt lat="30.458654297533567" lon="-5.527651386418418"><ele>930.0</ele><time>2026-03-25T09:42:37.966Z</time></trkpt><trkpt lat="30.458712426765132" lon="-5.527461242073244"><ele>930.0</ele><time>2026-03-25T09:42:38.966Z</time></trkpt><trkpt lat="30.458770638102706" lon="-5.527265180814904"><ele>930.0</ele><time>2026-03-25T09:42:39.966Z</time></trkpt><trkpt lat="30.458830017733487" lon="-5.527068189059361"><ele>930.0</ele><time>2026-03-25T09:42:40.966Z</time></trkpt><trkpt lat="30.458892148242203" lon="-5.5268653052786005"><ele>931.0</ele><time>2026-03-25T09:42:41.966Z</time></trkpt><trkpt lat="30.458954444179785" lon="-5.52665948009404"><ele>932.0</ele><time>2026-03-25T09:42:42.966Z</time></trkpt><trkpt lat="30.45901889716825" lon="-5.526452414295598"><ele>933.0</ele><time>2026-03-25T09:42:43.966Z</time></trkpt><trkpt lat="30.459083557672987" lon="-5.526244397936364"><ele>932.0</ele><time>2026-03-25T09:42:44.966Z</time></trkpt><trkpt lat="30.459145353565305" lon="-5.526032842440967"><ele>931.0</ele><time>2026-03-25T09:42:45.966Z</time></trkpt><trkpt lat="30.45920667760375" lon="-5.525827361886351"><ele>930.0</ele><time>2026-03-25T09:42:46.966Z</time></trkpt><trkpt lat="30.459267843737823" lon="-5.525626157870875"><ele>930.0</ele><time>2026-03-25T09:42:47.966Z</time></trkpt><trkpt lat="30.459326505925784" lon="-5.525425797312478"><ele>930.0</ele><time>2026-03-25T09:42:48.966Z</time></trkpt><trkpt lat="30.459369491891373" lon="-5.525227648363838"><ele>930.0</ele><time>2026-03-25T09:42:49.966Z</time></trkpt><trkpt lat="30.45942929757601" lon="-5.52502720436753"><ele>930.0</ele><time>2026-03-25T09:42:50.966Z</time></trkpt><trkpt lat="30.459489388383425" lon="-5.524825804755445"><ele>930.0</ele><time>2026-03-25T09:42:51.966Z</time></trkpt><trkpt lat="30.45955018456281" lon="-5.524622041029895"><ele>930.0</ele><time>2026-03-25T09:42:52.966Z</time></trkpt><trkpt lat="30.459609397568528" lon="-5.524424087951771"><ele>931.0</ele><time>2026-03-25T09:42:53.966Z</time></trkpt><trkpt lat="30.45966808092748" lon="-5.5242279644371814"><ele>932.0</ele><time>2026-03-25T09:42:54.966Z</time></trkpt><trkpt lat="30.45972876235521" lon="-5.524029095502435"><ele>933.0</ele><time>2026-03-25T09:42:55.966Z</time></trkpt><trkpt lat="30.459791325367135" lon="-5.523827242186049"><ele>932.3333333333333</ele><time>2026-03-25T09:42:56.966Z</time></trkpt><trkpt lat="30.4598534355195" lon="-5.523626855989094"><ele>931.6666666666666</ele><time>2026-03-25T09:42:57.966Z</time></trkpt><trkpt lat="30.459915469509692" lon="-5.523427724160827"><ele>931.0</ele><time>2026-03-25T09:42:58.966Z</time></trkpt><trkpt lat="30.459975348102944" lon="-5.523234683602852"><ele>931.0</ele><time>2026-03-25T09:42:59.966Z</time></trkpt><trkpt lat="30.460037464712915" lon="-5.523033839120291"><ele>931.0</ele><time>2026-03-25T09:43:00.966Z</time></trkpt><trkpt lat="30.460109327764258" lon="-5.5228447136594925"><ele>931.0</ele><time>2026-03-25T09:43:01.966Z</time></trkpt><trkpt lat="30.460150702583935" lon="-5.522680975251796"><ele>930.5999999999999</ele><time>2026-03-25T09:43:02.966Z</time></trkpt><trkpt lat="30.460190006246187" lon="-5.522538665497143"><ele>930.1999999999999</ele><time>2026-03-25T09:43:03.966Z</time></trkpt><trkpt lat="30.46023115418956" lon="-5.522414296593027"><ele>929.8000000000001</ele><time>2026-03-25T09:43:04.966Z</time></trkpt><trkpt lat="30.460267291228888" lon="-5.522299734696055"><ele>929.4000000000001</ele><time>2026-03-25T09:43:05.966Z</time></trkpt><trkpt lat="30.46029520224787" lon="-5.522201830134298"><ele>929.0</ele><time>2026-03-25T09:43:06.966Z</time></trkpt><trkpt lat="30.46031694236517" lon="-5.522130976321288"><ele>929.0000000000001</ele><time>2026-03-25T09:43:07.966Z</time></trkpt><trkpt lat="30.460342327134256" lon="-5.522039639702168"><ele>929.0</ele><time>2026-03-25T09:43:09.966Z</time></trkpt><trkpt lat="30.46035761132908" lon="-5.5221156160669915"><ele>929.0</ele><time>2026-03-25T09:45:33.965Z</time></trkpt><trkpt lat="30.460343119806197" lon="-5.522044538797296"><ele>929.0</ele><time>2026-03-25T09:49:34.964Z</time></trkpt><trkpt lat="30.460393370152975" lon="-5.52215516014805"><ele>929.0000000000001</ele><time>2026-03-25T09:50:00.964Z</time></trkpt><trkpt lat="30.46045655263457" lon="-5.522204068826865"><ele>929.0</ele><time>2026-03-25T09:50:01.964Z</time></trkpt><trkpt lat="30.460543293559393" lon="-5.522235278264638"><ele>929.5000000000001</ele><time>2026-03-25T09:50:02.964Z</time></trkpt><trkpt lat="30.46064407317452" lon="-5.5222568064894295"><ele>930.0</ele><time>2026-03-25T09:50:03.964Z</time></trkpt><trkpt lat="30.460732651432544" lon="-5.522213967532306"><ele>930.5</ele><time>2026-03-25T09:50:04.964Z</time></trkpt><trkpt lat="30.46080420385577" lon="-5.522222042791408"><ele>931.0</ele><time>2026-03-25T09:50:05.964Z</time></trkpt><trkpt lat="30.46087996882169" lon="-5.522257133395788"><ele>931.5000000000001</ele><time>2026-03-25T09:50:06.964Z</time></trkpt><trkpt lat="30.460974380933866" lon="-5.52225374931102"><ele>932.0</ele><time>2026-03-25T09:50:07.964Z</time></trkpt><trkpt lat="30.46106519539641" lon="-5.5222565990307855"><ele>932.0</ele><time>2026-03-25T09:50:08.964Z</time></trkpt><trkpt lat="30.46116014955445" lon="-5.522252218597599"><ele>932.0</ele><time>2026-03-25T09:50:09.964Z</time></trkpt><trkpt lat="30.46125853592508" lon="-5.522250384380292"><ele>932.0</ele><time>2026-03-25T09:50:10.964Z</time></trkpt><trkpt lat="30.46136550646622" lon="-5.5222496293399885"><ele>932.0</ele><time>2026-03-25T09:50:11.964Z</time></trkpt><trkpt lat="30.46147876068233" lon="-5.522247026512992"><ele>932.0</ele><time>2026-03-25T09:50:12.964Z</time></trkpt><trkpt lat="30.46159504615569" lon="-5.522240316778613"><ele>931.5</ele><time>2026-03-25T09:50:13.964Z</time></trkpt><trkpt lat="30.461707158812935" lon="-5.522243780687944"><ele>931.0</ele><time>2026-03-25T09:50:14.964Z</time></trkpt><trkpt lat="30.46182352433061" lon="-5.5222478383314035"><ele>930.5</ele><time>2026-03-25T09:50:15.964Z</time></trkpt><trkpt lat="30.461941231787023" lon="-5.522255022871847"><ele>930.0</ele><time>2026-03-25T09:50:16.964Z</time></trkpt><trkpt lat="30.462052223404232" lon="-5.522258538754223"><ele>929.5</ele><time>2026-03-25T09:50:17.964Z</time></trkpt><trkpt lat="30.462171349453563" lon="-5.522261401145518"><ele>929.0</ele><time>2026-03-25T09:50:18.964Z</time></trkpt><trkpt lat="30.46231234711081" lon="-5.522264251948009"><ele>928.5</ele><time>2026-03-25T09:50:19.964Z</time></trkpt><trkpt lat="30.462474992277084" lon="-5.522262917339702"><ele>928.0</ele><time>2026-03-25T09:50:20.964Z</time></trkpt><trkpt lat="30.462662164439326" lon="-5.52228377545309"><ele>928.0</ele><time>2026-03-25T09:50:21.964Z</time></trkpt><trkpt lat="30.462844102508477" lon="-5.522320295423687"><ele>928.0</ele><time>2026-03-25T09:50:22.964Z</time></trkpt><trkpt lat="30.46299704730486" lon="-5.52234499241522"><ele>928.0</ele><time>2026-03-25T09:50:23.964Z</time></trkpt><trkpt lat="30.463129771538632" lon="-5.52234732539697"><ele>928.75</ele><time>2026-03-25T09:50:24.964Z</time></trkpt><trkpt lat="30.463243397898395" lon="-5.52234446825932"><ele>929.5</ele><time>2026-03-25T09:50:25.964Z</time></trkpt><trkpt lat="30.463359676731155" lon="-5.522347882396378"><ele>930.25</ele><time>2026-03-25T09:50:26.964Z</time></trkpt><trkpt lat="30.46346390254422" lon="-5.522343411565279"><ele>931.0</ele><time>2026-03-25T09:50:27.964Z</time></trkpt><trkpt lat="30.46358189136599" lon="-5.522328822033728"><ele>931.0</ele><time>2026-03-25T09:50:28.964Z</time></trkpt><trkpt lat="30.463713148727965" lon="-5.522351972731622"><ele>931.0</ele><time>2026-03-25T09:50:29.964Z</time></trkpt><trkpt lat="30.46385778494739" lon="-5.522394457846662"><ele>931.0</ele><time>2026-03-25T09:50:30.964Z</time></trkpt><trkpt lat="30.463984634338168" lon="-5.5224084395441215"><ele>931.0</ele><time>2026-03-25T09:50:31.964Z</time></trkpt><trkpt lat="30.464102426209013" lon="-5.522401502372534"><ele>931.25</ele><time>2026-03-25T09:50:32.964Z</time></trkpt><trkpt lat="30.464232422757092" lon="-5.522374984457355"><ele>931.5</ele><time>2026-03-25T09:50:33.964Z</time></trkpt><trkpt lat="30.464363428041818" lon="-5.522354265595961"><ele>931.75</ele><time>2026-03-25T09:50:34.964Z</time></trkpt><trkpt lat="30.464494089441413" lon="-5.522352092927338"><ele>932.0</ele><time>2026-03-25T09:50:35.964Z</time></trkpt><trkpt lat="30.464609302272507" lon="-5.522352211116284"><ele>932.0</ele><time>2026-03-25T09:50:36.964Z</time></trkpt><trkpt lat="30.464726019347477" lon="-5.522339215260225"><ele>932.0</ele><time>2026-03-25T09:50:37.964Z</time></trkpt><trkpt lat="30.464857555992765" lon="-5.5223246096358585"><ele>932.0</ele><time>2026-03-25T09:50:38.964Z</time></trkpt><trkpt lat="30.464980042016283" lon="-5.522295110559214"><ele>932.0</ele><time>2026-03-25T09:50:39.964Z</time></trkpt><trkpt lat="30.465086774862378" lon="-5.522263379360752"><ele>932.0</ele><time>2026-03-25T09:50:40.964Z</time></trkpt><trkpt lat="30.465196988319473" lon="-5.522265085983703"><ele>932.0</ele><time>2026-03-25T09:50:41.964Z</time></trkpt><trkpt lat="30.46530131938846" lon="-5.522296367265533"><ele>932.0</ele><time>2026-03-25T09:50:42.964Z</time></trkpt><trkpt lat="30.465398712903614" lon="-5.522340193310202"><ele>932.0</ele><time>2026-03-25T09:50:43.964Z</time></trkpt><trkpt lat="30.46548924696885" lon="-5.522406499984176"><ele>932.0</ele><time>2026-03-25T09:50:44.964Z</time></trkpt><trkpt lat="30.465583361757602" lon="-5.522498221013652"><ele>932.25</ele><time>2026-03-25T09:50:45.964Z</time></trkpt><trkpt lat="30.465669625184407" lon="-5.52261081937326"><ele>932.5</ele><time>2026-03-25T09:50:46.964Z</time></trkpt><trkpt lat="30.465750694886335" lon="-5.522738524812884"><ele>932.75</ele><time>2026-03-25T09:50:47.964Z</time></trkpt><trkpt lat="30.46583311142046" lon="-5.522856156457818"><ele>933.0</ele><time>2026-03-25T09:50:48.964Z</time></trkpt><trkpt lat="30.46593040746034" lon="-5.522975264403794"><ele>933.25</ele><time>2026-03-25T09:50:49.964Z</time></trkpt><trkpt lat="30.466025123264707" lon="-5.5231033504679985"><ele>933.5</ele><time>2026-03-25T09:50:50.964Z</time></trkpt><trkpt lat="30.466119042378025" lon="-5.523231685593679"><ele>933.75</ele><time>2026-03-25T09:50:51.964Z</time></trkpt><trkpt lat="30.46622050420589" lon="-5.523365009033967"><ele>934.0</ele><time>2026-03-25T09:50:52.964Z</time></trkpt><trkpt lat="30.46632389770702" lon="-5.5234982926576555"><ele>934.3333333333333</ele><time>2026-03-25T09:50:53.964Z</time></trkpt><trkpt lat="30.46642671890953" lon="-5.523630372022778"><ele>934.6666666666667</ele><time>2026-03-25T09:50:54.964Z</time></trkpt><trkpt lat="30.466528536781876" lon="-5.523759646185956"><ele>935.0</ele><time>2026-03-25T09:50:55.964Z</time></trkpt><trkpt lat="30.466630404775245" lon="-5.523890368176609"><ele>936.0</ele><time>2026-03-25T09:50:56.964Z</time></trkpt><trkpt lat="30.466732209916287" lon="-5.524022016259133"><ele>937.0</ele><time>2026-03-25T09:50:57.964Z</time></trkpt><trkpt lat="30.46684093809174" lon="-5.524156250800646"><ele>938.0</ele><time>2026-03-25T09:50:58.964Z</time></trkpt><trkpt lat="30.466940443180288" lon="-5.524290077100292"><ele>938.0</ele><time>2026-03-25T09:50:59.964Z</time></trkpt><trkpt lat="30.46704984763606" lon="-5.524421576967328"><ele>938.0</ele><time>2026-03-25T09:51:00.964Z</time></trkpt><trkpt lat="30.467151463999986" lon="-5.524553123667911"><ele>938.0</ele><time>2026-03-25T09:51:01.964Z</time></trkpt><trkpt lat="30.467249604263532" lon="-5.524682282198908"><ele>938.0</ele><time>2026-03-25T09:51:02.964Z</time></trkpt><trkpt lat="30.46733465423981" lon="-5.5248007891848285"><ele>938.0</ele><time>2026-03-25T09:51:03.964Z</time></trkpt><trkpt lat="30.46742087529568" lon="-5.524914903914735"><ele>938.0</ele><time>2026-03-25T09:51:04.964Z</time></trkpt><trkpt lat="30.467513268890627" lon="-5.525029034641437"><ele>938.0</ele><time>2026-03-25T09:51:05.964Z</time></trkpt><trkpt lat="30.46759500976162" lon="-5.525147993092952"><ele>938.0</ele><time>2026-03-25T09:51:06.964Z</time></trkpt><trkpt lat="30.467690099838364" lon="-5.525263124248793"><ele>938.0</ele><time>2026-03-25T09:51:07.964Z</time></trkpt><trkpt lat="30.46778154830399" lon="-5.525385043718152"><ele>938.0</ele><time>2026-03-25T09:51:08.964Z</time></trkpt><trkpt lat="30.467873825992836" lon="-5.525512342864373"><ele>938.0</ele><time>2026-03-25T09:51:09.964Z</time></trkpt><trkpt lat="30.467978537954966" lon="-5.525646448251674"><ele>937.6666666666667</ele><time>2026-03-25T09:51:10.964Z</time></trkpt><trkpt lat="30.468071753710483" lon="-5.525784959551175"><ele>937.3333333333333</ele><time>2026-03-25T09:51:11.964Z</time></trkpt><trkpt lat="30.468166803276834" lon="-5.5259202688292035"><ele>937.0</ele><time>2026-03-25T09:51:12.964Z</time></trkpt><trkpt lat="30.46827069068213" lon="-5.5260581702271505"><ele>937.0</ele><time>2026-03-25T09:51:13.964Z</time></trkpt><trkpt lat="30.46837393871672" lon="-5.526202766287408"><ele>937.0</ele><time>2026-03-25T09:51:14.964Z</time></trkpt><trkpt lat="30.468484951383658" lon="-5.526343533395491"><ele>937.0</ele><time>2026-03-25T09:51:15.964Z</time></trkpt><trkpt lat="30.468597182085166" lon="-5.526492753693177"><ele>937.3333333333333</ele><time>2026-03-25T09:51:16.964Z</time></trkpt><trkpt lat="30.468715216848285" lon="-5.5266338196571185"><ele>937.6666666666667</ele><time>2026-03-25T09:51:17.964Z</time></trkpt><trkpt lat="30.46882665980182" lon="-5.526779599386315"><ele>938.0</ele><time>2026-03-25T09:51:18.964Z</time></trkpt><trkpt lat="30.468946952941675" lon="-5.526930955044223"><ele>938.0</ele><time>2026-03-25T09:51:19.964Z</time></trkpt><trkpt lat="30.469065749658288" lon="-5.527072044665226"><ele>938.0</ele><time>2026-03-25T09:51:20.964Z</time></trkpt><trkpt lat="30.46917279183447" lon="-5.52720362806274"><ele>938.0</ele><time>2026-03-25T09:51:21.964Z</time></trkpt><trkpt lat="30.469276377327255" lon="-5.527331293714639"><ele>938.0</ele><time>2026-03-25T09:51:22.964Z</time></trkpt><trkpt lat="30.469379707936806" lon="-5.527465947628929"><ele>938.0</ele><time>2026-03-25T09:51:23.964Z</time></trkpt><trkpt lat="30.469481857977275" lon="-5.527602292765233"><ele>938.0</ele><time>2026-03-25T09:51:24.964Z</time></trkpt><trkpt lat="30.46958813446973" lon="-5.527736150815296"><ele>939.0</ele><time>2026-03-25T09:51:25.964Z</time></trkpt><trkpt lat="30.469694559135775" lon="-5.5278745641030556"><ele>940.0</ele><time>2026-03-25T09:51:26.964Z</time></trkpt><trkpt lat="30.469800262963012" lon="-5.5280143394928745"><ele>941.0</ele><time>2026-03-25T09:51:27.964Z</time></trkpt><trkpt lat="30.46990776406414" lon="-5.528155675613211"><ele>942.0</ele><time>2026-03-25T09:51:28.964Z</time></trkpt><trkpt lat="30.47001161915001" lon="-5.528292149125913"><ele>943.0</ele><time>2026-03-25T09:51:29.964Z</time></trkpt><trkpt lat="30.47012156870097" lon="-5.528427744827578"><ele>944.0</ele><time>2026-03-25T09:51:30.964Z</time></trkpt><trkpt lat="30.470227517087576" lon="-5.528561066328377"><ele>944.0</ele><time>2026-03-25T09:51:31.964Z</time></trkpt><trkpt lat="30.470333394414347" lon="-5.528697027575619"><ele>944.0</ele><time>2026-03-25T09:51:32.964Z</time></trkpt><trkpt lat="30.470434475884133" lon="-5.528833669382746"><ele>944.0</ele><time>2026-03-25T09:51:33.964Z</time></trkpt><trkpt lat="30.470530110217158" lon="-5.528964885870871"><ele>943.5</ele><time>2026-03-25T09:51:34.964Z</time></trkpt><trkpt lat="30.470616092230042" lon="-5.529080273065992"><ele>943.0</ele><time>2026-03-25T09:51:35.964Z</time></trkpt><trkpt lat="30.470700118306592" lon="-5.529187150056905"><ele>942.5</ele><time>2026-03-25T09:51:36.964Z</time></trkpt><trkpt lat="30.470780082030874" lon="-5.529291606829874"><ele>942.0</ele><time>2026-03-25T09:51:37.964Z</time></trkpt><trkpt lat="30.470855101488763" lon="-5.529399895875255"><ele>942.0</ele><time>2026-03-25T09:51:38.964Z</time></trkpt><trkpt lat="30.470933799544014" lon="-5.529500944267667"><ele>942.0</ele><time>2026-03-25T09:51:39.964Z</time></trkpt><trkpt lat="30.471018392309684" lon="-5.529610650389375"><ele>942.0</ele><time>2026-03-25T09:51:40.964Z</time></trkpt><trkpt lat="30.47111027959655" lon="-5.529710935612343"><ele>942.0</ele><time>2026-03-25T09:51:41.964Z</time></trkpt><trkpt lat="30.47120125428404" lon="-5.5298209782578125"><ele>942.75</ele><time>2026-03-25T09:51:42.964Z</time></trkpt><trkpt lat="30.471296136319545" lon="-5.529939148190339"><ele>943.5</ele><time>2026-03-25T09:51:43.964Z</time></trkpt><trkpt lat="30.471386447343104" lon="-5.530063558823918"><ele>944.25</ele><time>2026-03-25T09:51:44.964Z</time></trkpt><trkpt lat="30.471473281667496" lon="-5.530189877363322"><ele>945.0</ele><time>2026-03-25T09:51:45.964Z</time></trkpt><trkpt lat="30.471573651105757" lon="-5.530316453619549"><ele>944.75</ele><time>2026-03-25T09:51:46.964Z</time></trkpt><trkpt lat="30.471680112547862" lon="-5.53044611249513"><ele>944.5</ele><time>2026-03-25T09:51:47.964Z</time></trkpt><trkpt lat="30.471778585757477" lon="-5.53057296949954"><ele>944.25</ele><time>2026-03-25T09:51:48.964Z</time></trkpt><trkpt lat="30.47187563215276" lon="-5.530696915742606"><ele>944.0</ele><time>2026-03-25T09:51:49.964Z</time></trkpt><trkpt lat="30.471973969427548" lon="-5.530822402928188"><ele>944.0</ele><time>2026-03-25T09:51:50.964Z</time></trkpt><trkpt lat="30.47207024948881" lon="-5.530941026137485"><ele>944.0</ele><time>2026-03-25T09:51:51.964Z</time></trkpt><trkpt lat="30.472155437066085" lon="-5.531053302730625"><ele>944.0</ele><time>2026-03-25T09:51:52.964Z</time></trkpt><trkpt lat="30.472240449121042" lon="-5.531166158357073"><ele>944.0</ele><time>2026-03-25T09:51:53.964Z</time></trkpt><trkpt lat="30.472334517405432" lon="-5.5312853560450685"><ele>944.5</ele><time>2026-03-25T09:51:54.964Z</time></trkpt><trkpt lat="30.472426278710657" lon="-5.53140560378318"><ele>945.0</ele><time>2026-03-25T09:51:55.964Z</time></trkpt><trkpt lat="30.472516723966578" lon="-5.531525041966416"><ele>945.5</ele><time>2026-03-25T09:51:56.964Z</time></trkpt><trkpt lat="30.472614318344434" lon="-5.531647610883081"><ele>946.0</ele><time>2026-03-25T09:51:57.964Z</time></trkpt><trkpt lat="30.47271538447175" lon="-5.531777274685739"><ele>946.0</ele><time>2026-03-25T09:51:58.964Z</time></trkpt><trkpt lat="30.47280851310866" lon="-5.531903240745548"><ele>946.0</ele><time>2026-03-25T09:51:59.963Z</time></trkpt><trkpt lat="30.472922693354217" lon="-5.532018607883553"><ele>946.0</ele><time>2026-03-25T09:52:00.964Z</time></trkpt><trkpt lat="30.47302235730285" lon="-5.532127730767323"><ele>946.0</ele><time>2026-03-25T09:52:01.964Z</time></trkpt><trkpt lat="30.47311299188699" lon="-5.532245667233689"><ele>946.0</ele><time>2026-03-25T09:52:02.963Z</time></trkpt><trkpt lat="30.47321064796813" lon="-5.532368609510895"><ele>946.0</ele><time>2026-03-25T09:52:03.963Z</time></trkpt><trkpt lat="30.473314331736713" lon="-5.532496098213705"><ele>946.0</ele><time>2026-03-25T09:52:04.963Z</time></trkpt><trkpt lat="30.473413917269227" lon="-5.532629381476404"><ele>946.0</ele><time>2026-03-25T09:52:05.964Z</time></trkpt><trkpt lat="30.473512853427824" lon="-5.532758223724813"><ele>948.0</ele><time>2026-03-25T09:52:06.963Z</time></trkpt><trkpt lat="30.47361472942422" lon="-5.532894073728132"><ele>950.0</ele><time>2026-03-25T09:52:07.963Z</time></trkpt><trkpt lat="30.473724974254022" lon="-5.533040295355504"><ele>952.0</ele><time>2026-03-25T09:52:08.964Z</time></trkpt><trkpt lat="30.473839615859976" lon="-5.533193864681842"><ele>952.0</ele><time>2026-03-25T09:52:09.963Z</time></trkpt><trkpt lat="30.473943847458184" lon="-5.5333299511451415"><ele>952.0</ele><time>2026-03-25T09:52:10.963Z</time></trkpt><trkpt lat="30.474027962875184" lon="-5.5334485889357055"><ele>952.0</ele><time>2026-03-25T09:52:11.963Z</time></trkpt><trkpt lat="30.474104780281277" lon="-5.533553626022929"><ele>952.0</ele><time>2026-03-25T09:52:12.963Z</time></trkpt><trkpt lat="30.474175203649708" lon="-5.533659171999461"><ele>952.0</ele><time>2026-03-25T09:52:13.963Z</time></trkpt><trkpt lat="30.47424750641751" lon="-5.533732796601148"><ele>952.0</ele><time>2026-03-25T09:52:14.963Z</time></trkpt><trkpt lat="30.474331948696882" lon="-5.533761722083851"><ele>952.0</ele><time>2026-03-25T09:52:15.963Z</time></trkpt><trkpt lat="30.474411631911916" lon="-5.533759737120581"><ele>952.0</ele><time>2026-03-25T09:52:16.963Z</time></trkpt><trkpt lat="30.474537275802984" lon="-5.533700872426774"><ele>952.0</ele><time>2026-03-25T09:52:17.963Z</time></trkpt><trkpt lat="30.474663975433906" lon="-5.533662280190801"><ele>951.6666666666666</ele><time>2026-03-25T09:52:18.963Z</time></trkpt><trkpt lat="30.474761570295602" lon="-5.5336468963034715"><ele>951.3333333333333</ele><time>2026-03-25T09:52:19.963Z</time></trkpt><trkpt lat="30.47484925477371" lon="-5.533629182605492"><ele>951.0</ele><time>2026-03-25T09:52:20.963Z</time></trkpt><trkpt lat="30.474930159238912" lon="-5.5336133913319685"><ele>950.6666666666667</ele><time>2026-03-25T09:52:21.963Z</time></trkpt><trkpt lat="30.475010846396884" lon="-5.5336002970104845"><ele>950.3333333333334</ele><time>2026-03-25T09:52:22.963Z</time></trkpt><trkpt lat="30.47508782638426" lon="-5.533590377693818"><ele>950.0</ele><time>2026-03-25T09:52:23.963Z</time></trkpt><trkpt lat="30.47516508533856" lon="-5.5335762714347085"><ele>950.0</ele><time>2026-03-25T09:52:24.963Z</time></trkpt><trkpt lat="30.475241522926165" lon="-5.53356211194943"><ele>950.0</ele><time>2026-03-25T09:52:25.963Z</time></trkpt><trkpt lat="30.47533672359104" lon="-5.533558465229838"><ele>950.0</ele><time>2026-03-25T09:52:26.963Z</time></trkpt><trkpt lat="30.475435855341605" lon="-5.533555342255791"><ele>950.0</ele><time>2026-03-25T09:52:27.963Z</time></trkpt><trkpt lat="30.475537243831525" lon="-5.533550458992073"><ele>950.0</ele><time>2026-03-25T09:52:28.963Z</time></trkpt><trkpt lat="30.475647213829436" lon="-5.53355222726748"><ele>950.0</ele><time>2026-03-25T09:52:29.963Z</time></trkpt><trkpt lat="30.475761497437855" lon="-5.533546201503398"><ele>950.0</ele><time>2026-03-25T09:52:30.963Z</time></trkpt><trkpt lat="30.475873891561832" lon="-5.5335255541850135"><ele>950.0</ele><time>2026-03-25T09:52:31.963Z</time></trkpt><trkpt lat="30.475987589533286" lon="-5.533501851355729"><ele>950.0</ele><time>2026-03-25T09:52:32.963Z</time></trkpt><trkpt lat="30.47609584284323" lon="-5.53347520027143"><ele>950.0</ele><time>2026-03-25T09:52:33.963Z</time></trkpt><trkpt lat="30.476209830111163" lon="-5.533449860706518"><ele>950.0</ele><time>2026-03-25T09:52:34.963Z</time></trkpt><trkpt lat="30.47630585977254" lon="-5.53341804076252"><ele>950.0</ele><time>2026-03-25T09:52:35.963Z</time></trkpt><trkpt lat="30.47639518213897" lon="-5.533365924899235"><ele>950.0</ele><time>2026-03-25T09:52:36.963Z</time></trkpt><trkpt lat="30.47648640534004" lon="-5.533281542596339"><ele>950.0</ele><time>2026-03-25T09:52:37.963Z</time></trkpt><trkpt lat="30.476574054473566" lon="-5.53319634070477"><ele>950.5</ele><time>2026-03-25T09:52:38.963Z</time></trkpt><trkpt lat="30.476667733474446" lon="-5.53312338947324"><ele>951.0</ele><time>2026-03-25T09:52:39.963Z</time></trkpt><trkpt lat="30.476782897800497" lon="-5.533060520557443"><ele>951.5</ele><time>2026-03-25T09:52:40.963Z</time></trkpt><trkpt lat="30.47689239780036" lon="-5.532983000968334"><ele>952.0</ele><time>2026-03-25T09:52:41.963Z</time></trkpt><trkpt lat="30.476994178268374" lon="-5.532915316571513"><ele>951.9999999999999</ele><time>2026-03-25T09:52:42.963Z</time></trkpt><trkpt lat="30.477083621390978" lon="-5.532877030968972"><ele>952.0</ele><time>2026-03-25T09:52:43.963Z</time></trkpt><trkpt lat="30.47715880813391" lon="-5.53285646892358"><ele>952.0</ele><time>2026-03-25T09:52:44.963Z</time></trkpt><trkpt lat="30.477229013474087" lon="-5.532850472235749"><ele>952.0</ele><time>2026-03-25T09:52:45.963Z</time></trkpt><trkpt lat="30.477297053759166" lon="-5.532864286086072"><ele>951.9999999999999</ele><time>2026-03-25T09:52:46.963Z</time></trkpt><trkpt lat="30.477383084227018" lon="-5.532902921288967"><ele>952.0</ele><time>2026-03-25T09:52:47.963Z</time></trkpt><trkpt lat="30.477463407314985" lon="-5.532962643408303"><ele>952.0</ele><time>2026-03-25T09:52:48.963Z</time></trkpt><trkpt lat="30.47754707039439" lon="-5.533021675293123"><ele>952.0</ele><time>2026-03-25T09:52:49.963Z</time></trkpt><trkpt lat="30.477620956592794" lon="-5.533081252521095"><ele>952.0</ele><time>2026-03-25T09:52:50.963Z</time></trkpt><trkpt lat="30.477701238325132" lon="-5.53315440281803"><ele>952.0</ele><time>2026-03-25T09:52:51.963Z</time></trkpt><trkpt lat="30.477812409396247" lon="-5.533225152267731"><ele>952.0</ele><time>2026-03-25T09:52:52.963Z</time></trkpt><trkpt lat="30.477928675149993" lon="-5.533283955635436"><ele>952.8</ele><time>2026-03-25T09:52:53.963Z</time></trkpt><trkpt lat="30.478034831612216" lon="-5.533316956141539"><ele>953.6</ele><time>2026-03-25T09:52:54.963Z</time></trkpt><trkpt lat="30.478125085403672" lon="-5.533343094312003"><ele>954.3999999999999</ele><time>2026-03-25T09:52:55.963Z</time></trkpt><trkpt lat="30.478207481810916" lon="-5.533346665675895"><ele>955.1999999999999</ele><time>2026-03-25T09:52:56.963Z</time></trkpt><trkpt lat="30.478294665383746" lon="-5.533348605385389"><ele>956.0</ele><time>2026-03-25T09:52:57.963Z</time></trkpt><trkpt lat="30.478400637452012" lon="-5.5333427858725095"><ele>956.0</ele><time>2026-03-25T09:52:58.963Z</time></trkpt><trkpt lat="30.47849586954186" lon="-5.533328665969327"><ele>955.9999999999999</ele><time>2026-03-25T09:52:59.963Z</time></trkpt><trkpt lat="30.47859110077388" lon="-5.533288887605447"><ele>955.9999999999999</ele><time>2026-03-25T09:53:00.963Z</time></trkpt><trkpt lat="30.478700022956513" lon="-5.533208714732031"><ele>956.0</ele><time>2026-03-25T09:53:01.963Z</time></trkpt><trkpt lat="30.478795006291925" lon="-5.533134832904798"><ele>956.0</ele><time>2026-03-25T09:53:02.963Z</time></trkpt><trkpt lat="30.47886817301749" lon="-5.533052399332663"><ele>956.1999999999999</ele><time>2026-03-25T09:53:03.963Z</time></trkpt><trkpt lat="30.47893814898796" lon="-5.532953047323703"><ele>956.3999999999999</ele><time>2026-03-25T09:53:04.963Z</time></trkpt><trkpt lat="30.479014180776442" lon="-5.5328569758252"><ele>956.6</ele><time>2026-03-25T09:53:05.963Z</time></trkpt><trkpt lat="30.47908912680545" lon="-5.532773063021382"><ele>956.8</ele><time>2026-03-25T09:53:06.963Z</time></trkpt><trkpt lat="30.47918374993481" lon="-5.5326912780829245"><ele>957.0</ele><time>2026-03-25T09:53:07.963Z</time></trkpt><trkpt lat="30.479277095430405" lon="-5.532606215376719"><ele>957.5</ele><time>2026-03-25T09:53:08.962Z</time></trkpt><trkpt lat="30.479374679494846" lon="-5.532523838811872"><ele>958.0</ele><time>2026-03-25T09:53:09.962Z</time></trkpt><trkpt lat="30.479464261641944" lon="-5.532436225338585"><ele>958.5</ele><time>2026-03-25T09:53:10.962Z</time></trkpt><trkpt lat="30.479551879844276" lon="-5.532356236292267"><ele>959.0</ele><time>2026-03-25T09:53:11.962Z</time></trkpt><trkpt lat="30.479643651337526" lon="-5.532280152132501"><ele>959.25</ele><time>2026-03-25T09:53:12.962Z</time></trkpt><trkpt lat="30.47973442470472" lon="-5.532211314385603"><ele>959.5</ele><time>2026-03-25T09:53:13.962Z</time></trkpt><trkpt lat="30.479828265169015" lon="-5.5321256591618155"><ele>959.75</ele><time>2026-03-25T09:53:14.962Z</time></trkpt><trkpt lat="30.47992506985411" lon="-5.53204148824368"><ele>960.0</ele><time>2026-03-25T09:53:15.962Z</time></trkpt><trkpt lat="30.48002021057726" lon="-5.531965795144227"><ele>960.75</ele><time>2026-03-25T09:53:16.962Z</time></trkpt><trkpt lat="30.48011082733095" lon="-5.5318746581719624"><ele>961.5</ele><time>2026-03-25T09:53:17.962Z</time></trkpt><trkpt lat="30.480201040068053" lon="-5.531776297410573"><ele>962.25</ele><time>2026-03-25T09:53:18.962Z</time></trkpt><trkpt lat="30.480287301157475" lon="-5.531670529199118"><ele>963.0</ele><time>2026-03-25T09:53:19.962Z</time></trkpt><trkpt lat="30.480358677413317" lon="-5.531548334086679"><ele>963.0</ele><time>2026-03-25T09:53:20.962Z</time></trkpt><trkpt lat="30.48041508854226" lon="-5.53141449547644"><ele>963.0</ele><time>2026-03-25T09:53:21.962Z</time></trkpt><trkpt lat="30.480459266438128" lon="-5.531275619170096"><ele>963.0</ele><time>2026-03-25T09:53:22.962Z</time></trkpt><trkpt lat="30.48050398200738" lon="-5.531141637388908"><ele>963.0</ele><time>2026-03-25T09:53:23.962Z</time></trkpt><trkpt lat="30.480548208711106" lon="-5.5310082929567095"><ele>964.75</ele><time>2026-03-25T09:53:24.962Z</time></trkpt><trkpt lat="30.480592702949327" lon="-5.530862059237084"><ele>966.5</ele><time>2026-03-25T09:53:25.962Z</time></trkpt><trkpt lat="30.480644646389347" lon="-5.5307078672976955"><ele>968.25</ele><time>2026-03-25T09:53:26.962Z</time></trkpt><trkpt lat="30.480699717201762" lon="-5.530554033247114"><ele>970.0</ele><time>2026-03-25T09:53:27.962Z</time></trkpt><trkpt lat="30.480759991443062" lon="-5.530402159938866"><ele>970.0</ele><time>2026-03-25T09:53:28.962Z</time></trkpt><trkpt lat="30.48082749958167" lon="-5.530287669860385"><ele>970.0</ele><time>2026-03-25T09:53:29.962Z</time></trkpt><trkpt lat="30.480902130627936" lon="-5.530195535473771"><ele>970.0</ele><time>2026-03-25T09:53:30.962Z</time></trkpt><trkpt lat="30.48098622758036" lon="-5.530125392587818"><ele>970.0</ele><time>2026-03-25T09:53:31.962Z</time></trkpt><trkpt lat="30.481077794078587" lon="-5.530068253033819"><ele>970.0</ele><time>2026-03-25T09:53:32.962Z</time></trkpt><trkpt lat="30.48117728256641" lon="-5.530035238581834"><ele>970.4</ele><time>2026-03-25T09:53:33.962Z</time></trkpt><trkpt lat="30.4812761253876" lon="-5.530033053627418"><ele>970.8</ele><time>2026-03-25T09:53:34.962Z</time></trkpt><trkpt lat="30.48136368532011" lon="-5.530050157634098"><ele>971.2</ele><time>2026-03-25T09:53:35.962Z</time></trkpt><trkpt lat="30.481443959263935" lon="-5.530079035372236"><ele>971.6</ele><time>2026-03-25T09:53:36.962Z</time></trkpt><trkpt lat="30.481534295312684" lon="-5.530096044756243"><ele>972.0</ele><time>2026-03-25T09:53:37.962Z</time></trkpt><trkpt lat="30.481629219614863" lon="-5.530098891730187"><ele>972.0</ele><time>2026-03-25T09:53:38.962Z</time></trkpt><trkpt lat="30.481734924984178" lon="-5.530103148803011"><ele>972.0</ele><time>2026-03-25T09:53:39.962Z</time></trkpt><trkpt lat="30.48184690367881" lon="-5.530123938158422"><ele>972.0</ele><time>2026-03-25T09:53:40.962Z</time></trkpt><trkpt lat="30.48195623985375" lon="-5.53014455056305"><ele>972.0</ele><time>2026-03-25T09:53:41.962Z</time></trkpt><trkpt lat="30.48206366085697" lon="-5.530174524380855"><ele>972.0</ele><time>2026-03-25T09:53:42.962Z</time></trkpt><trkpt lat="30.48216728570559" lon="-5.530215685062751"><ele>972.25</ele><time>2026-03-25T09:53:43.962Z</time></trkpt><trkpt lat="30.48227484882827" lon="-5.530265106934068"><ele>972.5</ele><time>2026-03-25T09:53:44.962Z</time></trkpt><trkpt lat="30.48237976735863" lon="-5.530343799917648"><ele>972.75</ele><time>2026-03-25T09:53:45.962Z</time></trkpt><trkpt lat="30.482496445153437" lon="-5.530447675189939"><ele>973.0</ele><time>2026-03-25T09:53:46.962Z</time></trkpt><trkpt lat="30.482623429691504" lon="-5.530555870242659"><ele>973.0</ele><time>2026-03-25T09:53:47.962Z</time></trkpt><trkpt lat="30.48274033064471" lon="-5.5306866554805625"><ele>973.0</ele><time>2026-03-25T09:53:48.962Z</time></trkpt><trkpt lat="30.48287667749032" lon="-5.530829746830706"><ele>973.0</ele><time>2026-03-25T09:53:49.962Z</time></trkpt><trkpt lat="30.482980739679086" lon="-5.530961335105497"><ele>973.0</ele><time>2026-03-25T09:53:50.962Z</time></trkpt><trkpt lat="30.483063012577787" lon="-5.531102691193818"><ele>973.0</ele><time>2026-03-25T09:53:51.962Z</time></trkpt><trkpt lat="30.48314929079503" lon="-5.5312263103192985"><ele>973.0</ele><time>2026-03-25T09:53:52.962Z</time></trkpt><trkpt lat="30.483252739169753" lon="-5.53136779747222"><ele>973.0</ele><time>2026-03-25T09:53:53.962Z</time></trkpt><trkpt lat="30.48335321866601" lon="-5.531507281045469"><ele>973.0</ele><time>2026-03-25T09:53:54.962Z</time></trkpt><trkpt lat="30.48345157419397" lon="-5.531643669074613"><ele>973.0</ele><time>2026-03-25T09:53:55.962Z</time></trkpt><trkpt lat="30.483560825162687" lon="-5.531790488263702"><ele>973.0</ele><time>2026-03-25T09:53:56.962Z</time></trkpt><trkpt lat="30.483671062812984" lon="-5.531938749191737"><ele>974.3333333333333</ele><time>2026-03-25T09:53:57.962Z</time></trkpt><trkpt lat="30.48378438489114" lon="-5.532088604741294"><ele>975.6666666666667</ele><time>2026-03-25T09:53:58.962Z</time></trkpt><trkpt lat="30.483892261275162" lon="-5.532235594200133"><ele>977.0</ele><time>2026-03-25T09:53:59.962Z</time></trkpt><trkpt lat="30.484004860395718" lon="-5.532386400445326"><ele>977.0</ele><time>2026-03-25T09:54:00.962Z</time></trkpt><trkpt lat="30.48410410928266" lon="-5.532530059196892"><ele>977.0</ele><time>2026-03-25T09:54:01.962Z</time></trkpt><trkpt lat="30.484179482699787" lon="-5.532652737209896"><ele>977.0</ele><time>2026-03-25T09:54:02.964Z</time></trkpt><trkpt lat="30.484247460974068" lon="-5.53276922183338"><ele>977.0</ele><time>2026-03-25T09:54:03.963Z</time></trkpt><trkpt lat="30.484327252380098" lon="-5.532884382810903"><ele>977.0</ele><time>2026-03-25T09:54:04.963Z</time></trkpt><trkpt lat="30.48441527759933" lon="-5.532993288031809"><ele>977.0</ele><time>2026-03-25T09:54:05.963Z</time></trkpt><trkpt lat="30.484515940428878" lon="-5.5330926629075705"><ele>977.0</ele><time>2026-03-25T09:54:06.963Z</time></trkpt><trkpt lat="30.484630678278112" lon="-5.533194694197045"><ele>977.0</ele><time>2026-03-25T09:54:07.963Z</time></trkpt><trkpt lat="30.48474626882309" lon="-5.533286259596344"><ele>976.5</ele><time>2026-03-25T09:54:08.963Z</time></trkpt><trkpt lat="30.484865843248535" lon="-5.533348714567367"><ele>976.0</ele><time>2026-03-25T09:54:09.963Z</time></trkpt><trkpt lat="30.484973902601624" lon="-5.533419726553316"><ele>975.5</ele><time>2026-03-25T09:54:10.963Z</time></trkpt><trkpt lat="30.485092954031156" lon="-5.533483183141077"><ele>975.0</ele><time>2026-03-25T09:54:11.963Z</time></trkpt><trkpt lat="30.48522193386258" lon="-5.533530388542342"><ele>975.0</ele><time>2026-03-25T09:54:12.963Z</time></trkpt><trkpt lat="30.48535425725831" lon="-5.533572843512873"><ele>975.0</ele><time>2026-03-25T09:54:13.963Z</time></trkpt><trkpt lat="30.485486551455192" lon="-5.5336420166498055"><ele>975.0</ele><time>2026-03-25T09:54:14.962Z</time></trkpt><trkpt lat="30.485616278314442" lon="-5.533728316055815"><ele>975.0</ele><time>2026-03-25T09:54:15.963Z</time></trkpt><trkpt lat="30.485736921357276" lon="-5.533819963700905"><ele>975.5</ele><time>2026-03-25T09:54:16.963Z</time></trkpt><trkpt lat="30.4858461666932" lon="-5.533921218619785"><ele>976.0</ele><time>2026-03-25T09:54:17.963Z</time></trkpt><trkpt lat="30.48596442959455" lon="-5.534019823820225"><ele>976.5</ele><time>2026-03-25T09:54:18.963Z</time></trkpt><trkpt lat="30.48609014878749" lon="-5.534109400560253"><ele>977.0</ele><time>2026-03-25T09:54:19.963Z</time></trkpt><trkpt lat="30.48622572386135" lon="-5.534192945685104"><ele>978.0</ele><time>2026-03-25T09:54:20.963Z</time></trkpt><trkpt lat="30.48636650399669" lon="-5.534275606716157"><ele>979.0</ele><time>2026-03-25T09:54:21.963Z</time></trkpt><trkpt lat="30.486504669848923" lon="-5.534360520353796"><ele>980.0</ele><time>2026-03-25T09:54:22.963Z</time></trkpt><trkpt lat="30.48663984545942" lon="-5.534454414863929"><ele>980.0</ele><time>2026-03-25T09:54:23.963Z</time></trkpt><trkpt lat="30.48677316742181" lon="-5.534550968183864"><ele>980.0</ele><time>2026-03-25T09:54:24.963Z</time></trkpt><trkpt lat="30.4869056794094" lon="-5.534639347831402"><ele>980.0</ele><time>2026-03-25T09:54:25.963Z</time></trkpt><trkpt lat="30.487042232656247" lon="-5.5347136987699495"><ele>979.0</ele><time>2026-03-25T09:54:26.963Z</time></trkpt><trkpt lat="30.48718291975064" lon="-5.534786424380812"><ele>978.0</ele><time>2026-03-25T09:54:27.963Z</time></trkpt><trkpt lat="30.487331500882505" lon="-5.534861387371427"><ele>977.0</ele><time>2026-03-25T09:54:28.963Z</time></trkpt><trkpt lat="30.48746122010968" lon="-5.534921340441129"><ele>977.0</ele><time>2026-03-25T09:54:29.963Z</time></trkpt><trkpt lat="30.487589903954607" lon="-5.534963176055542"><ele>977.0</ele><time>2026-03-25T09:54:30.963Z</time></trkpt><trkpt lat="30.487716457502316" lon="-5.535005609624169"><ele>977.0</ele><time>2026-03-25T09:54:31.963Z</time></trkpt><trkpt lat="30.487834650103935" lon="-5.535056500597117"><ele>977.0</ele><time>2026-03-25T09:54:32.963Z</time></trkpt><trkpt lat="30.487955904026744" lon="-5.535117573838222"><ele>977.0</ele><time>2026-03-25T09:54:33.963Z</time></trkpt><trkpt lat="30.488084834916748" lon="-5.53518123273673"><ele>977.0</ele><time>2026-03-25T09:54:34.963Z</time></trkpt><trkpt lat="30.488224868480042" lon="-5.535236602190275"><ele>977.0</ele><time>2026-03-25T09:54:35.963Z</time></trkpt><trkpt lat="30.488368778790598" lon="-5.535303086833473"><ele>977.0</ele><time>2026-03-25T09:54:36.963Z</time></trkpt><trkpt lat="30.488536519432497" lon="-5.5353813320238965"><ele>976.25</ele><time>2026-03-25T09:54:37.963Z</time></trkpt><trkpt lat="30.488685037991022" lon="-5.535457943276151"><ele>975.5</ele><time>2026-03-25T09:54:38.963Z</time></trkpt><trkpt lat="30.488796124453245" lon="-5.535505254326635"><ele>974.75</ele><time>2026-03-25T09:54:39.963Z</time></trkpt><trkpt lat="30.48889316420053" lon="-5.5355353238784195"><ele>974.0</ele><time>2026-03-25T09:54:40.963Z</time></trkpt><trkpt lat="30.488998507848887" lon="-5.535538350212837"><ele>973.5</ele><time>2026-03-25T09:54:41.963Z</time></trkpt><trkpt lat="30.489126874051053" lon="-5.535521682054884"><ele>973.0</ele><time>2026-03-25T09:54:42.963Z</time></trkpt><trkpt lat="30.489252433719155" lon="-5.535500209614066"><ele>972.5</ele><time>2026-03-25T09:54:43.963Z</time></trkpt><trkpt lat="30.48937957321161" lon="-5.535473134765707"><ele>972.0</ele><time>2026-03-25T09:54:44.963Z</time></trkpt><trkpt lat="30.489511757809783" lon="-5.535458035855241"><ele>972.0</ele><time>2026-03-25T09:54:45.963Z</time></trkpt><trkpt lat="30.489654922667533" lon="-5.535442355117239"><ele>972.0</ele><time>2026-03-25T09:54:46.963Z</time></trkpt><trkpt lat="30.489809652590782" lon="-5.535427627281819"><ele>972.0</ele><time>2026-03-25T09:54:47.963Z</time></trkpt><trkpt lat="30.489975411917673" lon="-5.535404784137732"><ele>975.6666666666667</ele><time>2026-03-25T09:54:48.963Z</time></trkpt><trkpt lat="30.490139715201263" lon="-5.535378942354858"><ele>979.3333333333334</ele><time>2026-03-25T09:54:49.963Z</time></trkpt><trkpt lat="30.490303477251206" lon="-5.535352676041721"><ele>983.0</ele><time>2026-03-25T09:54:50.963Z</time></trkpt><trkpt lat="30.490463476125313" lon="-5.535324980459925"><ele>983.0</ele><time>2026-03-25T09:54:51.963Z</time></trkpt><trkpt lat="30.49059966794308" lon="-5.5352915673433625"><ele>983.0</ele><time>2026-03-25T09:54:52.963Z</time></trkpt><trkpt lat="30.490727084819515" lon="-5.535265364242651"><ele>983.0</ele><time>2026-03-25T09:54:53.963Z</time></trkpt><trkpt lat="30.490856274006084" lon="-5.5352407223740245"><ele>983.0</ele><time>2026-03-25T09:54:54.963Z</time></trkpt><trkpt lat="30.4910016427445" lon="-5.535211519145734"><ele>983.0</ele><time>2026-03-25T09:54:55.963Z</time></trkpt><trkpt lat="30.491140555569867" lon="-5.535184141192592"><ele>983.0</ele><time>2026-03-25T09:54:56.963Z</time></trkpt><trkpt lat="30.49127941909366" lon="-5.535157538361478"><ele>983.0</ele><time>2026-03-25T09:54:57.963Z</time></trkpt><trkpt lat="30.491422838721757" lon="-5.535130033637847"><ele>983.0</ele><time>2026-03-25T09:54:58.963Z</time></trkpt><trkpt lat="30.491582577767886" lon="-5.535100275776488"><ele>983.0</ele><time>2026-03-25T09:54:59.963Z</time></trkpt><trkpt lat="30.491763003155643" lon="-5.5350617997287515"><ele>983.0</ele><time>2026-03-25T09:55:00.963Z</time></trkpt><trkpt lat="30.491933881644215" lon="-5.535027626862332"><ele>983.0</ele><time>2026-03-25T09:55:01.963Z</time></trkpt><trkpt lat="30.49209797281061" lon="-5.534999943128959"><ele>983.0</ele><time>2026-03-25T09:55:02.962Z</time></trkpt><trkpt lat="30.49225627504572" lon="-5.534973430417424"><ele>983.0</ele><time>2026-03-25T09:55:03.962Z</time></trkpt><trkpt lat="30.492407356170478" lon="-5.534945552773799"><ele>983.0</ele><time>2026-03-25T09:55:04.962Z</time></trkpt><trkpt lat="30.492556881213897" lon="-5.534915345831596"><ele>983.0</ele><time>2026-03-25T09:55:05.962Z</time></trkpt><trkpt lat="30.492701303277865" lon="-5.534888883120364"><ele>983.0</ele><time>2026-03-25T09:55:06.962Z</time></trkpt><trkpt lat="30.49284252298628" lon="-5.534862012060392"><ele>983.0</ele><time>2026-03-25T09:55:07.962Z</time></trkpt><trkpt lat="30.492988053026316" lon="-5.534840757743602"><ele>983.0</ele><time>2026-03-25T09:55:08.962Z</time></trkpt><trkpt lat="30.49313451712328" lon="-5.534819251551383"><ele>982.3333333333334</ele><time>2026-03-25T09:55:09.962Z</time></trkpt><trkpt lat="30.493281395103434" lon="-5.534793956311092"><ele>981.6666666666667</ele><time>2026-03-25T09:55:10.962Z</time></trkpt><trkpt lat="30.493430559981498" lon="-5.534769523445475"><ele>981.0</ele><time>2026-03-25T09:55:11.962Z</time></trkpt><trkpt lat="30.493599649271303" lon="-5.534747927646197"><ele>981.3333333333333</ele><time>2026-03-25T09:55:12.962Z</time></trkpt><trkpt lat="30.493782012672472" lon="-5.534710588683116"><ele>981.6666666666666</ele><time>2026-03-25T09:55:13.962Z</time></trkpt><trkpt lat="30.49394454882001" lon="-5.534681129033649"><ele>982.0</ele><time>2026-03-25T09:55:14.962Z</time></trkpt><trkpt lat="30.494093653171923" lon="-5.534665044032558"><ele>982.0</ele><time>2026-03-25T09:55:15.962Z</time></trkpt><trkpt lat="30.49422927648897" lon="-5.534654645392412"><ele>982.0</ele><time>2026-03-25T09:55:16.962Z</time></trkpt><trkpt lat="30.494384497117412" lon="-5.534640371134501"><ele>982.0</ele><time>2026-03-25T09:55:17.962Z</time></trkpt><trkpt lat="30.49452937394041" lon="-5.534604902691749"><ele>982.0</ele><time>2026-03-25T09:55:18.962Z</time></trkpt><trkpt lat="30.4946799616484" lon="-5.5345695841979285"><ele>980.3333333333333</ele><time>2026-03-25T09:55:19.962Z</time></trkpt><trkpt lat="30.494829206358553" lon="-5.534530393977635"><ele>978.6666666666667</ele><time>2026-03-25T09:55:20.962Z</time></trkpt><trkpt lat="30.494979529555057" lon="-5.534506932301865"><ele>977.0</ele><time>2026-03-25T09:55:21.962Z</time></trkpt><trkpt lat="30.495126613063473" lon="-5.534486153206936"><ele>977.0</ele><time>2026-03-25T09:55:22.962Z</time></trkpt><trkpt lat="30.49526632208317" lon="-5.534471538738725"><ele>977.0</ele><time>2026-03-25T09:55:23.962Z</time></trkpt><trkpt lat="30.495406396499213" lon="-5.534464007160661"><ele>977.0</ele><time>2026-03-25T09:55:24.962Z</time></trkpt><trkpt lat="30.495553203464354" lon="-5.534467260879012"><ele>977.0</ele><time>2026-03-25T09:55:25.962Z</time></trkpt><trkpt lat="30.495702274193427" lon="-5.534479847117991"><ele>977.25</ele><time>2026-03-25T09:55:26.962Z</time></trkpt><trkpt lat="30.495858134594528" lon="-5.534494070866594"><ele>977.5</ele><time>2026-03-25T09:55:27.962Z</time></trkpt><trkpt lat="30.49601472258126" lon="-5.53450865863525"><ele>977.75</ele><time>2026-03-25T09:55:28.962Z</time></trkpt><trkpt lat="30.49614642239288" lon="-5.534529312872358"><ele>978.0</ele><time>2026-03-25T09:55:29.962Z</time></trkpt><trkpt lat="30.496271815838636" lon="-5.534540420341159"><ele>978.0</ele><time>2026-03-25T09:55:30.962Z</time></trkpt><trkpt lat="30.49639781792831" lon="-5.5345544187658735"><ele>978.0</ele><time>2026-03-25T09:55:31.962Z</time></trkpt><trkpt lat="30.496533959032465" lon="-5.534563818576072"><ele>978.0</ele><time>2026-03-25T09:55:32.962Z</time></trkpt><trkpt lat="30.49665477407921" lon="-5.5345659428614455"><ele>978.0</ele><time>2026-03-25T09:55:33.962Z</time></trkpt><trkpt lat="30.496776299493654" lon="-5.534578828778943"><ele>978.4</ele><time>2026-03-25T09:55:34.962Z</time></trkpt><trkpt lat="30.496876986505082" lon="-5.534594044372482"><ele>978.8</ele><time>2026-03-25T09:55:35.962Z</time></trkpt><trkpt lat="30.496961258488856" lon="-5.534626854042746"><ele>979.2</ele><time>2026-03-25T09:55:36.962Z</time></trkpt><trkpt lat="30.49703630757731" lon="-5.534663760270478"><ele>979.6</ele><time>2026-03-25T09:55:37.962Z</time></trkpt><trkpt lat="30.4971245586258" lon="-5.534712342016848"><ele>980.0</ele><time>2026-03-25T09:55:38.962Z</time></trkpt><trkpt lat="30.497210808823908" lon="-5.534766161386519"><ele>980.4</ele><time>2026-03-25T09:55:39.962Z</time></trkpt><trkpt lat="30.497320614439825" lon="-5.534810767885621"><ele>980.8</ele><time>2026-03-25T09:55:40.962Z</time></trkpt><trkpt lat="30.497418631860835" lon="-5.534854246183037"><ele>981.2</ele><time>2026-03-25T09:55:41.962Z</time></trkpt><trkpt lat="30.49751131786203" lon="-5.534883828857632"><ele>981.6</ele><time>2026-03-25T09:55:42.962Z</time></trkpt><trkpt lat="30.497600565368884" lon="-5.534920767353222"><ele>982.0</ele><time>2026-03-25T09:55:43.962Z</time></trkpt><trkpt lat="30.49768629490621" lon="-5.5349541110275915"><ele>982.0</ele><time>2026-03-25T09:55:44.962Z</time></trkpt><trkpt lat="30.49778296767795" lon="-5.534978855323364"><ele>982.0</ele><time>2026-03-25T09:55:45.962Z</time></trkpt><trkpt lat="30.49788237112414" lon="-5.534968751570933"><ele>982.0</ele><time>2026-03-25T09:55:46.962Z</time></trkpt><trkpt lat="30.497984794969305" lon="-5.534909725831011"><ele>982.0</ele><time>2026-03-25T09:55:47.962Z</time></trkpt><trkpt lat="30.498100784205278" lon="-5.5348478903952145"><ele>982.0</ele><time>2026-03-25T09:55:48.962Z</time></trkpt><trkpt lat="30.498252058325164" lon="-5.53479156280811"><ele>983.25</ele><time>2026-03-25T09:55:49.962Z</time></trkpt><trkpt lat="30.49840175572977" lon="-5.534740817596475"><ele>984.5</ele><time>2026-03-25T09:55:50.962Z</time></trkpt><trkpt lat="30.498534061351855" lon="-5.534700183883401"><ele>985.75</ele><time>2026-03-25T09:55:51.962Z</time></trkpt><trkpt lat="30.498680455507046" lon="-5.534649760634309"><ele>987.0</ele><time>2026-03-25T09:55:52.962Z</time></trkpt><trkpt lat="30.4988250518863" lon="-5.534603529055481"><ele>987.0</ele><time>2026-03-25T09:55:53.962Z</time></trkpt><trkpt lat="30.498977493865883" lon="-5.534567654572362"><ele>987.0</ele><time>2026-03-25T09:55:54.962Z</time></trkpt><trkpt lat="30.49913193264503" lon="-5.534548623758319"><ele>987.0</ele><time>2026-03-25T09:55:55.962Z</time></trkpt><trkpt lat="30.499276696969666" lon="-5.534528355355342"><ele>986.8</ele><time>2026-03-25T09:55:56.962Z</time></trkpt><trkpt lat="30.499406702178465" lon="-5.534513950160592"><ele>986.6</ele><time>2026-03-25T09:55:57.962Z</time></trkpt><trkpt lat="30.499519783649855" lon="-5.534490748842585"><ele>986.3999999999999</ele><time>2026-03-25T09:55:58.962Z</time></trkpt><trkpt lat="30.499613384414033" lon="-5.534456994297491"><ele>986.1999999999999</ele><time>2026-03-25T09:55:59.962Z</time></trkpt><trkpt lat="30.49968838969453" lon="-5.5344009774431004"><ele>986.0</ele><time>2026-03-25T09:56:00.962Z</time></trkpt><trkpt lat="30.499754729665685" lon="-5.534323955692066"><ele>986.5999999999999</ele><time>2026-03-25T09:56:01.962Z</time></trkpt><trkpt lat="30.49981070698777" lon="-5.534222466096917"><ele>987.1999999999999</ele><time>2026-03-25T09:56:02.962Z</time></trkpt><trkpt lat="30.499867619515484" lon="-5.534126999938713"><ele>987.8000000000001</ele><time>2026-03-25T09:56:03.962Z</time></trkpt><trkpt lat="30.49993568188916" lon="-5.5340485966140305"><ele>988.4000000000001</ele><time>2026-03-25T09:56:04.962Z</time></trkpt><trkpt lat="30.500022696446717" lon="-5.5340046112451535"><ele>989.0</ele><time>2026-03-25T09:56:05.962Z</time></trkpt><trkpt lat="30.50012460992941" lon="-5.534001905339214"><ele>989.0</ele><time>2026-03-25T09:56:06.962Z</time></trkpt><trkpt lat="30.50023523168271" lon="-5.533978607970739"><ele>989.0000000000001</ele><time>2026-03-25T09:56:07.962Z</time></trkpt><trkpt lat="30.500343310098707" lon="-5.5339444420570025"><ele>989.0000000000001</ele><time>2026-03-25T09:56:08.963Z</time></trkpt><trkpt lat="30.50043525238038" lon="-5.533906372023933"><ele>989.0</ele><time>2026-03-25T09:56:09.963Z</time></trkpt><trkpt lat="30.50053001805409" lon="-5.533877069950248"><ele>989.0</ele><time>2026-03-25T09:56:10.963Z</time></trkpt><trkpt lat="30.500629570089522" lon="-5.533852462719358"><ele>988.25</ele><time>2026-03-25T09:56:11.962Z</time></trkpt><trkpt lat="30.500735743971095" lon="-5.533840226953379"><ele>987.5</ele><time>2026-03-25T09:56:12.962Z</time></trkpt><trkpt lat="30.50086013328271" lon="-5.5338394514915645"><ele>986.75</ele><time>2026-03-25T09:56:13.962Z</time></trkpt><trkpt lat="30.50099081879433" lon="-5.5338472100795535"><ele>986.0</ele><time>2026-03-25T09:56:14.962Z</time></trkpt><trkpt lat="30.50110930070577" lon="-5.533853975498607"><ele>986.0</ele><time>2026-03-25T09:56:15.963Z</time></trkpt><trkpt lat="30.50122763448427" lon="-5.533851930491774"><ele>986.0</ele><time>2026-03-25T09:56:16.963Z</time></trkpt><trkpt lat="30.50134442416126" lon="-5.533837066035943"><ele>986.0</ele><time>2026-03-25T09:56:17.963Z</time></trkpt><trkpt lat="30.50145786450079" lon="-5.533809413235204"><ele>986.0</ele><time>2026-03-25T09:56:18.963Z</time></trkpt><trkpt lat="30.50156723349288" lon="-5.533815483226625"><ele>986.25</ele><time>2026-03-25T09:56:19.963Z</time></trkpt><trkpt lat="30.501682918642715" lon="-5.533857711938144"><ele>986.5</ele><time>2026-03-25T09:56:20.962Z</time></trkpt><trkpt lat="30.501799958069466" lon="-5.533915123461394"><ele>986.75</ele><time>2026-03-25T09:56:21.962Z</time></trkpt><trkpt lat="30.50192372556125" lon="-5.533970768386413"><ele>987.0</ele><time>2026-03-25T09:56:22.962Z</time></trkpt><trkpt lat="30.502062764377825" lon="-5.534027011143281"><ele>988.0</ele><time>2026-03-25T09:56:23.962Z</time></trkpt><trkpt lat="30.502188054086787" lon="-5.534071225650503"><ele>989.0</ele><time>2026-03-25T09:56:24.962Z</time></trkpt><trkpt lat="30.5023219737698" lon="-5.534124690881393"><ele>990.0</ele><time>2026-03-25T09:56:25.962Z</time></trkpt><trkpt lat="30.502452452692157" lon="-5.534175286935999"><ele>991.0</ele><time>2026-03-25T09:56:26.962Z</time></trkpt><trkpt lat="30.502590048004592" lon="-5.5342127034688"><ele>991.0</ele><time>2026-03-25T09:56:27.962Z</time></trkpt><trkpt lat="30.50273444997302" lon="-5.53422811884072"><ele>991.0</ele><time>2026-03-25T09:56:28.962Z</time></trkpt><trkpt lat="30.50284618171435" lon="-5.534250428266687"><ele>991.0</ele><time>2026-03-25T09:56:29.962Z</time></trkpt><trkpt lat="30.502956766999482" lon="-5.534264074986043"><ele>991.0</ele><time>2026-03-25T09:56:30.962Z</time></trkpt><trkpt lat="30.503058972289324" lon="-5.534273717953749"><ele>990.9999999999999</ele><time>2026-03-25T09:56:31.962Z</time></trkpt><trkpt lat="30.503155171443836" lon="-5.534285665935766"><ele>991.0</ele><time>2026-03-25T09:56:32.962Z</time></trkpt><trkpt lat="30.503240879435516" lon="-5.534293838930809"><ele>991.0</ele><time>2026-03-25T09:56:33.962Z</time></trkpt><trkpt lat="30.50332819308663" lon="-5.534303830073794"><ele>991.0</ele><time>2026-03-25T09:56:34.962Z</time></trkpt><trkpt lat="30.503418817326285" lon="-5.534302583829328"><ele>990.9999999999999</ele><time>2026-03-25T09:56:35.962Z</time></trkpt><trkpt lat="30.503504576659147" lon="-5.534302611914435"><ele>991.0</ele><time>2026-03-25T09:56:36.962Z</time></trkpt><trkpt lat="30.50358751867409" lon="-5.53433282786189"><ele>991.0</ele><time>2026-03-25T09:56:37.962Z</time></trkpt><trkpt lat="30.503678769311588" lon="-5.534394397361325"><ele>990.9999999999999</ele><time>2026-03-25T09:56:38.962Z</time></trkpt><trkpt lat="30.50378822728156" lon="-5.534445759993168"><ele>990.9999999999999</ele><time>2026-03-25T09:56:39.962Z</time></trkpt><trkpt lat="30.503901163718382" lon="-5.534468222795664"><ele>991.0</ele><time>2026-03-25T09:56:40.962Z</time></trkpt><trkpt lat="30.50400076791484" lon="-5.5344551659179535"><ele>991.0</ele><time>2026-03-25T09:56:41.962Z</time></trkpt><trkpt lat="30.504101179643307" lon="-5.534422020084383"><ele>991.5999999999999</ele><time>2026-03-25T09:56:42.962Z</time></trkpt><trkpt lat="30.504216983356933" lon="-5.534384882708378"><ele>992.1999999999999</ele><time>2026-03-25T09:56:43.962Z</time></trkpt><trkpt lat="30.504337295178498" lon="-5.534363083949824"><ele>992.8000000000001</ele><time>2026-03-25T09:56:44.962Z</time></trkpt><trkpt lat="30.504447827576346" lon="-5.534344413279362"><ele>993.4000000000001</ele><time>2026-03-25T09:56:45.962Z</time></trkpt><trkpt lat="30.50452429488857" lon="-5.53432356622873"><ele>994.0</ele><time>2026-03-25T09:56:46.962Z</time></trkpt><trkpt lat="30.504601585284938" lon="-5.534295954381695"><ele>994.0</ele><time>2026-03-25T09:56:47.962Z</time></trkpt><trkpt lat="30.504683534634452" lon="-5.534277401841538"><ele>994.0000000000001</ele><time>2026-03-25T09:56:48.962Z</time></trkpt><trkpt lat="30.50478486667687" lon="-5.534274878575842"><ele>994.0000000000001</ele><time>2026-03-25T09:56:49.962Z</time></trkpt><trkpt lat="30.504907500691893" lon="-5.534296682913539"><ele>994.0</ele><time>2026-03-25T09:56:50.962Z</time></trkpt><trkpt lat="30.505018318277177" lon="-5.534336928021316"><ele>994.0</ele><time>2026-03-25T09:56:51.962Z</time></trkpt><trkpt lat="30.505132236311432" lon="-5.534388701934713"><ele>994.0</ele><time>2026-03-25T09:56:52.962Z</time></trkpt><trkpt lat="30.50523594613399" lon="-5.53444954322905"><ele>994.0</ele><time>2026-03-25T09:56:53.962Z</time></trkpt><trkpt lat="30.505359472362056" lon="-5.534518366183439"><ele>994.0</ele><time>2026-03-25T09:56:54.962Z</time></trkpt><trkpt lat="30.505477659372428" lon="-5.534581543868916"><ele>994.0</ele><time>2026-03-25T09:56:55.962Z</time></trkpt><trkpt lat="30.505587761036132" lon="-5.534634256454145"><ele>993.5</ele><time>2026-03-25T09:56:56.962Z</time></trkpt><trkpt lat="30.505706663080836" lon="-5.534701095226457"><ele>993.0</ele><time>2026-03-25T09:56:57.962Z</time></trkpt><trkpt lat="30.505815386774323" lon="-5.534766507116645"><ele>992.5</ele><time>2026-03-25T09:56:58.962Z</time></trkpt><trkpt lat="30.505908610023564" lon="-5.534833284391532"><ele>992.0</ele><time>2026-03-25T09:56:59.962Z</time></trkpt><trkpt lat="30.506022044043718" lon="-5.534898598351004"><ele>992.0</ele><time>2026-03-25T09:57:00.962Z</time></trkpt><trkpt lat="30.506114284203402" lon="-5.534963853678471"><ele>992.0</ele><time>2026-03-25T09:57:01.962Z</time></trkpt><trkpt lat="30.506212343160783" lon="-5.535022716614206"><ele>992.0</ele><time>2026-03-25T09:57:02.962Z</time></trkpt><trkpt lat="30.506309942741936" lon="-5.535094429232886"><ele>992.0</ele><time>2026-03-25T09:57:03.962Z</time></trkpt><trkpt lat="30.506415095954658" lon="-5.535168659668184"><ele>992.75</ele><time>2026-03-25T09:57:04.962Z</time></trkpt><trkpt lat="30.506516384319106" lon="-5.53524478255599"><ele>993.5</ele><time>2026-03-25T09:57:05.962Z</time></trkpt><trkpt lat="30.50661920213243" lon="-5.5353212584171585"><ele>994.25</ele><time>2026-03-25T09:57:06.962Z</time></trkpt><trkpt lat="30.50671504640917" lon="-5.535392554386599"><ele>995.0</ele><time>2026-03-25T09:57:07.962Z</time></trkpt><trkpt lat="30.50680608779581" lon="-5.535463084842138"><ele>995.0</ele><time>2026-03-25T09:57:08.962Z</time></trkpt><trkpt lat="30.506891582879653" lon="-5.535552925644357"><ele>995.0</ele><time>2026-03-25T09:57:09.962Z</time></trkpt><trkpt lat="30.506968994677383" lon="-5.53564077573092"><ele>995.0</ele><time>2026-03-25T09:57:10.962Z</time></trkpt><trkpt lat="30.507051354750637" lon="-5.535726775143397"><ele>995.0</ele><time>2026-03-25T09:57:11.962Z</time></trkpt><trkpt lat="30.507128461899242" lon="-5.535805015938822"><ele>995.0</ele><time>2026-03-25T09:57:12.962Z</time></trkpt><trkpt lat="30.50721211825864" lon="-5.535885152112296"><ele>995.0</ele><time>2026-03-25T09:57:13.962Z</time></trkpt><trkpt lat="30.50730242009543" lon="-5.535970937596792"><ele>995.0</ele><time>2026-03-25T09:57:14.962Z</time></trkpt><trkpt lat="30.507395143838643" lon="-5.536059156394163"><ele>995.0</ele><time>2026-03-25T09:57:15.962Z</time></trkpt><trkpt lat="30.507478948449453" lon="-5.536156374735638"><ele>995.0</ele><time>2026-03-25T09:57:16.962Z</time></trkpt><trkpt lat="30.507558559716166" lon="-5.536247180569948"><ele>995.0</ele><time>2026-03-25T09:57:17.962Z</time></trkpt><trkpt lat="30.507640669826678" lon="-5.5363329065376545"><ele>995.0</ele><time>2026-03-25T09:57:18.962Z</time></trkpt><trkpt lat="30.507735220447515" lon="-5.536413025005292"><ele>995.0</ele><time>2026-03-25T09:57:19.962Z</time></trkpt><trkpt lat="30.507844472956798" lon="-5.536485995902122"><ele>995.0</ele><time>2026-03-25T09:57:20.962Z</time></trkpt><trkpt lat="30.507955944690377" lon="-5.536540619489247"><ele>995.2</ele><time>2026-03-25T09:57:21.962Z</time></trkpt><trkpt lat="30.50804812742217" lon="-5.53658307267141"><ele>995.4</ele><time>2026-03-25T09:57:22.962Z</time></trkpt><trkpt lat="30.50814017017243" lon="-5.5366176307750905"><ele>995.5999999999999</ele><time>2026-03-25T09:57:23.962Z</time></trkpt><trkpt lat="30.50823779175317" lon="-5.536684934626168"><ele>995.8</ele><time>2026-03-25T09:57:24.962Z</time></trkpt><trkpt lat="30.508332098800903" lon="-5.536758102655074"><ele>996.0</ele><time>2026-03-25T09:57:25.962Z</time></trkpt><trkpt lat="30.50845634939728" lon="-5.536826442384179"><ele>996.0</ele><time>2026-03-25T09:57:26.962Z</time></trkpt><trkpt lat="30.508578262843944" lon="-5.53688814986388"><ele>996.0</ele><time>2026-03-25T09:57:27.962Z</time></trkpt><trkpt lat="30.508689251214896" lon="-5.536950437805762"><ele>996.0</ele><time>2026-03-25T09:57:28.962Z</time></trkpt><trkpt lat="30.508793503474774" lon="-5.537014954623339"><ele>996.0</ele><time>2026-03-25T09:57:29.962Z</time></trkpt><trkpt lat="30.508907685054936" lon="-5.537066353970125"><ele>996.5</ele><time>2026-03-25T09:57:30.962Z</time></trkpt><trkpt lat="30.509017024386214" lon="-5.537120678465148"><ele>997.0</ele><time>2026-03-25T09:57:31.962Z</time></trkpt><trkpt lat="30.509126580506052" lon="-5.537175912067684"><ele>997.5</ele><time>2026-03-25T09:57:32.962Z</time></trkpt><trkpt lat="30.509237240424447" lon="-5.537237035584161"><ele>998.0</ele><time>2026-03-25T09:57:33.962Z</time></trkpt><trkpt lat="30.509360038591353" lon="-5.537290452210893"><ele>998.0</ele><time>2026-03-25T09:57:34.962Z</time></trkpt><trkpt lat="30.509490592054476" lon="-5.537341469123862"><ele>998.0</ele><time>2026-03-25T09:57:35.962Z</time></trkpt><trkpt lat="30.509631120973193" lon="-5.537396696681028"><ele>998.0</ele><time>2026-03-25T09:57:36.962Z</time></trkpt><trkpt lat="30.50976363754542" lon="-5.537447360185139"><ele>998.0</ele><time>2026-03-25T09:57:37.962Z</time></trkpt><trkpt lat="30.509887452607856" lon="-5.537501730363446"><ele>998.75</ele><time>2026-03-25T09:57:38.962Z</time></trkpt><trkpt lat="30.510021622919385" lon="-5.537553710070124"><ele>999.5</ele><time>2026-03-25T09:57:39.962Z</time></trkpt><trkpt lat="30.51014734105607" lon="-5.537604373460036"><ele>1000.25</ele><time>2026-03-25T09:57:40.962Z</time></trkpt><trkpt lat="30.51027971231498" lon="-5.537671546040528"><ele>1001.0</ele><time>2026-03-25T09:57:41.962Z</time></trkpt><trkpt lat="30.510414199170476" lon="-5.53773375044136"><ele>1001.0</ele><time>2026-03-25T09:57:42.962Z</time></trkpt><trkpt lat="30.510554866756028" lon="-5.537780111474743"><ele>1001.0</ele><time>2026-03-25T09:57:43.961Z</time></trkpt><trkpt lat="30.5107098066517" lon="-5.537824031949538"><ele>1001.0</ele><time>2026-03-25T09:57:44.961Z</time></trkpt><trkpt lat="30.51085372904161" lon="-5.537873553723007"><ele>1001.0</ele><time>2026-03-25T09:57:45.961Z</time></trkpt><trkpt lat="30.51098340157054" lon="-5.537935335236571"><ele>1001.0</ele><time>2026-03-25T09:57:46.961Z</time></trkpt><trkpt lat="30.51109385401713" lon="-5.537979816230964"><ele>1001.0</ele><time>2026-03-25T09:57:47.961Z</time></trkpt><trkpt lat="30.51119300355637" lon="-5.538018332766504"><ele>1001.0</ele><time>2026-03-25T09:57:48.961Z</time></trkpt><trkpt lat="30.51129871212406" lon="-5.538054407168303"><ele>1001.0</ele><time>2026-03-25T09:57:49.961Z</time></trkpt><trkpt lat="30.511402406903926" lon="-5.538094020203832"><ele>1001.0</ele><time>2026-03-25T09:57:50.961Z</time></trkpt><trkpt lat="30.511508616210715" lon="-5.538129758465732"><ele>1001.0</ele><time>2026-03-25T09:57:51.961Z</time></trkpt><trkpt lat="30.51162547585279" lon="-5.538172929065229"><ele>1001.0</ele><time>2026-03-25T09:57:52.961Z</time></trkpt><trkpt lat="30.511750298621752" lon="-5.5382182975228185"><ele>1001.0</ele><time>2026-03-25T09:57:53.961Z</time></trkpt><trkpt lat="30.511872225624987" lon="-5.538263264742643"><ele>1001.0</ele><time>2026-03-25T09:57:54.961Z</time></trkpt><trkpt lat="30.5119871188411" lon="-5.538303094906223"><ele>1001.0</ele><time>2026-03-25T09:57:55.961Z</time></trkpt><trkpt lat="30.5121121771194" lon="-5.5383473193048065"><ele>1001.0</ele><time>2026-03-25T09:57:56.961Z</time></trkpt><trkpt lat="30.512239037360033" lon="-5.538395303656778"><ele>1001.25</ele><time>2026-03-25T09:57:57.961Z</time></trkpt><trkpt lat="30.51237472127765" lon="-5.538443397833823"><ele>1001.5</ele><time>2026-03-25T09:57:58.961Z</time></trkpt><trkpt lat="30.512500503802773" lon="-5.53848874922172"><ele>1001.75</ele><time>2026-03-25T09:57:59.961Z</time></trkpt><trkpt lat="30.51263384319594" lon="-5.53853553200229"><ele>1002.0</ele><time>2026-03-25T09:58:00.961Z</time></trkpt><trkpt lat="30.512758018433654" lon="-5.538583577966446"><ele>1002.0</ele><time>2026-03-25T09:58:01.961Z</time></trkpt><trkpt lat="30.512872617088533" lon="-5.53862961576386"><ele>1002.0</ele><time>2026-03-25T09:58:02.961Z</time></trkpt><trkpt lat="30.51299849577477" lon="-5.5386707792810235"><ele>1002.0</ele><time>2026-03-25T09:58:03.961Z</time></trkpt><trkpt lat="30.513120938367475" lon="-5.538715201753249"><ele>1002.0</ele><time>2026-03-25T09:58:04.961Z</time></trkpt><trkpt lat="30.513243911399194" lon="-5.538748471370996"><ele>1002.0</ele><time>2026-03-25T09:58:05.961Z</time></trkpt><trkpt lat="30.513376254909982" lon="-5.538790088461368"><ele>1002.0</ele><time>2026-03-25T09:58:06.961Z</time></trkpt><trkpt lat="30.513504983367284" lon="-5.538834320869579"><ele>1002.0</ele><time>2026-03-25T09:58:07.961Z</time></trkpt><trkpt lat="30.513627066627063" lon="-5.538883470356742"><ele>1002.0</ele><time>2026-03-25T09:58:08.961Z</time></trkpt><trkpt lat="30.513759227166286" lon="-5.538934973967221"><ele>1002.75</ele><time>2026-03-25T09:58:09.961Z</time></trkpt><trkpt lat="30.513878493463736" lon="-5.538984571143072"><ele>1003.5</ele><time>2026-03-25T09:58:10.961Z</time></trkpt><trkpt lat="30.51399834905296" lon="-5.539034885758033"><ele>1004.25</ele><time>2026-03-25T09:58:11.961Z</time></trkpt><trkpt lat="30.514112400306836" lon="-5.539072219370235"><ele>1005.0</ele><time>2026-03-25T09:58:12.961Z</time></trkpt><trkpt lat="30.514226290111615" lon="-5.539108728450021"><ele>1005.0</ele><time>2026-03-25T09:58:13.962Z</time></trkpt><trkpt lat="30.514333029083552" lon="-5.53914339510023"><ele>1005.0</ele><time>2026-03-25T09:58:14.962Z</time></trkpt><trkpt lat="30.51444207065437" lon="-5.539179754855162"><ele>1005.0</ele><time>2026-03-25T09:58:15.962Z</time></trkpt><trkpt lat="30.514547401839465" lon="-5.53921738273579"><ele>1005.0</ele><time>2026-03-25T09:58:16.962Z</time></trkpt><trkpt lat="30.514647926047058" lon="-5.539253510567357"><ele>1005.0</ele><time>2026-03-25T09:58:17.962Z</time></trkpt><trkpt lat="30.514743792968055" lon="-5.539289852379479"><ele>1004.8</ele><time>2026-03-25T09:58:18.962Z</time></trkpt><trkpt lat="30.51484605718087" lon="-5.539325073746562"><ele>1004.6</ele><time>2026-03-25T09:58:19.962Z</time></trkpt><trkpt lat="30.51494903451969" lon="-5.539362329174692"><ele>1004.4000000000001</ele><time>2026-03-25T09:58:20.962Z</time></trkpt><trkpt lat="30.515050679871678" lon="-5.53940015857728"><ele>1004.2</ele><time>2026-03-25T09:58:21.962Z</time></trkpt><trkpt lat="30.51514884547103" lon="-5.539436788821964"><ele>1004.0</ele><time>2026-03-25T09:58:22.962Z</time></trkpt><trkpt lat="30.515248817617316" lon="-5.539475293618957"><ele>1004.0</ele><time>2026-03-25T09:58:23.962Z</time></trkpt><trkpt lat="30.51535218464405" lon="-5.539515630917542"><ele>1004.0</ele><time>2026-03-25T09:58:24.962Z</time></trkpt><trkpt lat="30.515462305147178" lon="-5.539559315774173"><ele>1004.0</ele><time>2026-03-25T09:58:25.962Z</time></trkpt><trkpt lat="30.515578419925504" lon="-5.539603265787783"><ele>1004.0</ele><time>2026-03-25T09:58:26.962Z</time></trkpt><trkpt lat="30.515694887861564" lon="-5.539647500195829"><ele>1004.75</ele><time>2026-03-25T09:58:27.962Z</time></trkpt><trkpt lat="30.51582035298803" lon="-5.539690099422876"><ele>1005.5</ele><time>2026-03-25T09:58:28.962Z</time></trkpt><trkpt lat="30.51593777947994" lon="-5.539740484354697"><ele>1006.25</ele><time>2026-03-25T09:58:29.962Z</time></trkpt><trkpt lat="30.516064286885296" lon="-5.539785351326621"><ele>1007.0</ele><time>2026-03-25T09:58:30.962Z</time></trkpt><trkpt lat="30.516187320439798" lon="-5.539827394135388"><ele>1006.0</ele><time>2026-03-25T09:58:31.962Z</time></trkpt><trkpt lat="30.51630432295671" lon="-5.539871100927434"><ele>1005.0</ele><time>2026-03-25T09:58:32.962Z</time></trkpt><trkpt lat="30.51642236369206" lon="-5.539912053585775"><ele>1004.0</ele><time>2026-03-25T09:58:33.962Z</time></trkpt><trkpt lat="30.51653463607966" lon="-5.539949717794512"><ele>1003.0</ele><time>2026-03-25T09:58:34.962Z</time></trkpt><trkpt lat="30.516643658978392" lon="-5.539988176884617"><ele>1003.0</ele><time>2026-03-25T09:58:35.962Z</time></trkpt><trkpt lat="30.516748608634934" lon="-5.540029466618598"><ele>1003.0</ele><time>2026-03-25T09:58:36.962Z</time></trkpt><trkpt lat="30.516862859809844" lon="-5.540069337026759"><ele>1003.0</ele><time>2026-03-25T09:58:37.962Z</time></trkpt><trkpt lat="30.516979814994304" lon="-5.540108597106607"><ele>1003.0</ele><time>2026-03-25T09:58:38.962Z</time></trkpt><trkpt lat="30.517093525302858" lon="-5.540152812480627"><ele>1004.0</ele><time>2026-03-25T09:58:39.962Z</time></trkpt><trkpt lat="30.517210447326775" lon="-5.540201131286804"><ele>1005.0</ele><time>2026-03-25T09:58:40.962Z</time></trkpt><trkpt lat="30.517339049674167" lon="-5.5402449381958725"><ele>1006.0</ele><time>2026-03-25T09:58:41.962Z</time></trkpt><trkpt lat="30.517483269838145" lon="-5.540298702532327"><ele>1007.0</ele><time>2026-03-25T09:58:42.962Z</time></trkpt><trkpt lat="30.517617179402947" lon="-5.54033862124639"><ele>1007.0</ele><time>2026-03-25T09:58:43.962Z</time></trkpt><trkpt lat="30.51773136125279" lon="-5.540378957610741"><ele>1007.0</ele><time>2026-03-25T09:58:44.962Z</time></trkpt><trkpt lat="30.517839551729995" lon="-5.540421637460719"><ele>1007.0</ele><time>2026-03-25T09:58:45.962Z</time></trkpt><trkpt lat="30.517945710496917" lon="-5.540457050278413"><ele>1007.0</ele><time>2026-03-25T09:58:46.962Z</time></trkpt><trkpt lat="30.518046468183954" lon="-5.540497100749549"><ele>1007.75</ele><time>2026-03-25T09:58:47.962Z</time></trkpt><trkpt lat="30.518149384669055" lon="-5.54054420485595"><ele>1008.5</ele><time>2026-03-25T09:58:48.962Z</time></trkpt><trkpt lat="30.518253660157626" lon="-5.540604068105452"><ele>1009.25</ele><time>2026-03-25T09:58:49.962Z</time></trkpt><trkpt lat="30.518363683008786" lon="-5.540666344863247"><ele>1010.0</ele><time>2026-03-25T09:58:50.962Z</time></trkpt><trkpt lat="30.51849253760052" lon="-5.540713504502249"><ele>1010.0</ele><time>2026-03-25T09:58:51.962Z</time></trkpt><trkpt lat="30.518624023175246" lon="-5.54074942588218"><ele>1010.0</ele><time>2026-03-25T09:58:52.962Z</time></trkpt><trkpt lat="30.51875881643998" lon="-5.540785348000435"><ele>1010.0</ele><time>2026-03-25T09:58:53.962Z</time></trkpt><trkpt lat="30.51889358718591" lon="-5.54083066820112"><ele>1010.0</ele><time>2026-03-25T09:58:54.962Z</time></trkpt><trkpt lat="30.51902506128503" lon="-5.540891639625319"><ele>1009.75</ele><time>2026-03-25T09:58:55.962Z</time></trkpt><trkpt lat="30.519154211534524" lon="-5.540953618976144"><ele>1009.5</ele><time>2026-03-25T09:58:56.962Z</time></trkpt><trkpt lat="30.519269072548923" lon="-5.541007391543787"><ele>1009.25</ele><time>2026-03-25T09:58:57.962Z</time></trkpt><trkpt lat="30.51938394943991" lon="-5.541048829942632"><ele>1009.0</ele><time>2026-03-25T09:58:58.962Z</time></trkpt><trkpt lat="30.519478867469587" lon="-5.541103944193514"><ele>1008.75</ele><time>2026-03-25T09:58:59.962Z</time></trkpt><trkpt lat="30.519612292429283" lon="-5.541162452017847"><ele>1008.5</ele><time>2026-03-25T09:59:00.962Z</time></trkpt><trkpt lat="30.519746370361258" lon="-5.541228997896902"><ele>1008.25</ele><time>2026-03-25T09:59:01.962Z</time></trkpt><trkpt lat="30.519889027104856" lon="-5.5412900749180825"><ele>1008.0</ele><time>2026-03-25T09:59:02.962Z</time></trkpt><trkpt lat="30.520033225393075" lon="-5.541341907142988"><ele>1007.75</ele><time>2026-03-25T09:59:03.962Z</time></trkpt><trkpt lat="30.520161330027964" lon="-5.541398085557561"><ele>1007.5</ele><time>2026-03-25T09:59:04.962Z</time></trkpt><trkpt lat="30.520298563356796" lon="-5.5414536774532905"><ele>1007.25</ele><time>2026-03-25T09:59:05.962Z</time></trkpt><trkpt lat="30.520426215360317" lon="-5.541510707864009"><ele>1007.0</ele><time>2026-03-25T09:59:06.962Z</time></trkpt><trkpt lat="30.520550182903456" lon="-5.541569777786159"><ele>1007.0</ele><time>2026-03-25T09:59:07.962Z</time></trkpt><trkpt lat="30.520673573474294" lon="-5.541633922850173"><ele>1007.0</ele><time>2026-03-25T09:59:08.962Z</time></trkpt><trkpt lat="30.52080160259081" lon="-5.541691456404636"><ele>1007.0</ele><time>2026-03-25T09:59:09.962Z</time></trkpt><trkpt lat="30.520914159080174" lon="-5.54174333586813"><ele>1007.0</ele><time>2026-03-25T09:59:10.962Z</time></trkpt><trkpt lat="30.521016496434974" lon="-5.5417891016919"><ele>1007.0</ele><time>2026-03-25T09:59:11.962Z</time></trkpt><trkpt lat="30.521117008353247" lon="-5.541817834986605"><ele>1007.0</ele><time>2026-03-25T09:59:12.962Z</time></trkpt><trkpt lat="30.521210936586122" lon="-5.541844435958605"><ele>1007.0</ele><time>2026-03-25T09:59:13.962Z</time></trkpt><trkpt lat="30.521313151947638" lon="-5.5418841639473575"><ele>1007.0</ele><time>2026-03-25T09:59:14.962Z</time></trkpt><trkpt lat="30.52143202762374" lon="-5.5419435050858645"><ele>1007.0</ele><time>2026-03-25T09:59:15.962Z</time></trkpt><trkpt lat="30.521573256716305" lon="-5.542037803028333"><ele>1007.6666666666667</ele><time>2026-03-25T09:59:16.962Z</time></trkpt><trkpt lat="30.521724157837802" lon="-5.542121145959411"><ele>1008.3333333333333</ele><time>2026-03-25T09:59:17.962Z</time></trkpt><trkpt lat="30.52188873663729" lon="-5.542178610379777"><ele>1009.0</ele><time>2026-03-25T09:59:18.962Z</time></trkpt><trkpt lat="30.52203048661677" lon="-5.542223799136824"><ele>1008.75</ele><time>2026-03-25T09:59:19.962Z</time></trkpt><trkpt lat="30.522153808475675" lon="-5.542279367697206"><ele>1008.5</ele><time>2026-03-25T09:59:20.962Z</time></trkpt><trkpt lat="30.52226752052421" lon="-5.542330123618987"><ele>1008.25</ele><time>2026-03-25T09:59:21.962Z</time></trkpt><trkpt lat="30.522377807644904" lon="-5.5423695333249094"><ele>1008.0</ele><time>2026-03-25T09:59:22.962Z</time></trkpt><trkpt lat="30.52249039614712" lon="-5.5424217933888436"><ele>1008.0</ele><time>2026-03-25T09:59:23.962Z</time></trkpt><trkpt lat="30.522604118336538" lon="-5.542469095805497"><ele>1008.0</ele><time>2026-03-25T09:59:24.962Z</time></trkpt><trkpt lat="30.522706670605647" lon="-5.5425162196100395"><ele>1008.0</ele><time>2026-03-25T09:59:25.962Z</time></trkpt><trkpt lat="30.522796661694876" lon="-5.542558774747192"><ele>1008.0</ele><time>2026-03-25T09:59:26.962Z</time></trkpt><trkpt lat="30.522881410659082" lon="-5.542601800605994"><ele>1008.0</ele><time>2026-03-25T09:59:27.962Z</time></trkpt><trkpt lat="30.522974584651738" lon="-5.542651441926662"><ele>1009.5</ele><time>2026-03-25T09:59:28.962Z</time></trkpt><trkpt lat="30.523067278122834" lon="-5.5426983797781295"><ele>1011.0</ele><time>2026-03-25T09:59:29.962Z</time></trkpt><trkpt lat="30.523178619958475" lon="-5.542743680865665"><ele>1012.5</ele><time>2026-03-25T09:59:30.962Z</time></trkpt><trkpt lat="30.523294270174723" lon="-5.5427873964161085"><ele>1014.0</ele><time>2026-03-25T09:59:31.962Z</time></trkpt><trkpt lat="30.52340982675774" lon="-5.542837874013687"><ele>1012.75</ele><time>2026-03-25T09:59:32.962Z</time></trkpt><trkpt lat="30.52352738186739" lon="-5.542896500847598"><ele>1011.5</ele><time>2026-03-25T09:59:33.962Z</time></trkpt><trkpt lat="30.523645101699852" lon="-5.542949333377693"><ele>1010.25</ele><time>2026-03-25T09:59:34.962Z</time></trkpt><trkpt lat="30.523761637251262" lon="-5.543000215994773"><ele>1009.0</ele><time>2026-03-25T09:59:35.962Z</time></trkpt><trkpt lat="30.523877276806907" lon="-5.543052698609778"><ele>1008.75</ele><time>2026-03-25T09:59:36.962Z</time></trkpt><trkpt lat="30.52399731520858" lon="-5.543097705106278"><ele>1008.5</ele><time>2026-03-25T09:59:37.962Z</time></trkpt><trkpt lat="30.52411503265382" lon="-5.543147314278072"><ele>1008.25</ele><time>2026-03-25T09:59:38.962Z</time></trkpt><trkpt lat="30.524236812870033" lon="-5.543190657074397"><ele>1008.0</ele><time>2026-03-25T09:59:39.962Z</time></trkpt><trkpt lat="30.524343145213468" lon="-5.543232606950792"><ele>1008.0</ele><time>2026-03-25T09:59:40.962Z</time></trkpt><trkpt lat="30.52445525063796" lon="-5.543280691459663"><ele>1008.0</ele><time>2026-03-25T09:59:41.962Z</time></trkpt><trkpt lat="30.52457632801106" lon="-5.543332960000436"><ele>1008.0</ele><time>2026-03-25T09:59:42.962Z</time></trkpt><trkpt lat="30.524703609781305" lon="-5.5433971474138035"><ele>1008.0</ele><time>2026-03-25T09:59:43.962Z</time></trkpt><trkpt lat="30.524824228277602" lon="-5.543461911805749"><ele>1009.25</ele><time>2026-03-25T09:59:44.962Z</time></trkpt><trkpt lat="30.524947580559818" lon="-5.543518741872175"><ele>1010.5</ele><time>2026-03-25T09:59:45.962Z</time></trkpt><trkpt lat="30.525068981806555" lon="-5.543573781895039"><ele>1011.75</ele><time>2026-03-25T09:59:46.962Z</time></trkpt><trkpt lat="30.525198434824453" lon="-5.543625655911887"><ele>1013.0</ele><time>2026-03-25T09:59:47.962Z</time></trkpt><trkpt lat="30.52532630616001" lon="-5.5436818514361885"><ele>1013.75</ele><time>2026-03-25T09:59:48.961Z</time></trkpt><trkpt lat="30.525459131853157" lon="-5.543748471003707"><ele>1014.5</ele><time>2026-03-25T09:59:49.961Z</time></trkpt><trkpt lat="30.525593242893986" lon="-5.5438099315050655"><ele>1015.25</ele><time>2026-03-25T09:59:50.961Z</time></trkpt><trkpt lat="30.52573224423799" lon="-5.543871400480725"><ele>1016.0</ele><time>2026-03-25T09:59:51.961Z</time></trkpt><trkpt lat="30.525871243523635" lon="-5.54392815746834"><ele>1016.0</ele><time>2026-03-25T09:59:52.961Z</time></trkpt><trkpt lat="30.526009937955486" lon="-5.543984383332516"><ele>1016.0</ele><time>2026-03-25T09:59:53.961Z</time></trkpt><trkpt lat="30.52613872560126" lon="-5.54403999698173"><ele>1016.0</ele><time>2026-03-25T09:59:54.961Z</time></trkpt><trkpt lat="30.52626955680322" lon="-5.544089453676857"><ele>1016.0</ele><time>2026-03-25T09:59:55.961Z</time></trkpt><trkpt lat="30.526395476141808" lon="-5.544148506775547"><ele>1016.0</ele><time>2026-03-25T09:59:56.961Z</time></trkpt><trkpt lat="30.526524212617122" lon="-5.544208735757494"><ele>1016.0</ele><time>2026-03-25T09:59:57.961Z</time></trkpt><trkpt lat="30.526663164075497" lon="-5.544264471875389"><ele>1016.0</ele><time>2026-03-25T09:59:58.961Z</time></trkpt><trkpt lat="30.526804307157818" lon="-5.5443229284622015"><ele>1016.0</ele><time>2026-03-25T09:59:59.961Z</time></trkpt><trkpt lat="30.52694286147454" lon="-5.544386946698609"><ele>1016.0</ele><time>2026-03-25T10:00:00.961Z</time></trkpt><trkpt lat="30.527080666711093" lon="-5.544454152137243"><ele>1016.0</ele><time>2026-03-25T10:00:01.961Z</time></trkpt><trkpt lat="30.527218163889334" lon="-5.544520634883954"><ele>1016.0</ele><time>2026-03-25T10:00:02.961Z</time></trkpt><trkpt lat="30.527343911324643" lon="-5.54458520400295"><ele>1016.0</ele><time>2026-03-25T10:00:03.961Z</time></trkpt><trkpt lat="30.527491178854454" lon="-5.54463639329832"><ele>1016.0</ele><time>2026-03-25T10:00:04.961Z</time></trkpt><trkpt lat="30.527623496197904" lon="-5.544699104924326"><ele>1016.0</ele><time>2026-03-25T10:00:05.961Z</time></trkpt><trkpt lat="30.52776041149482" lon="-5.544759784577327"><ele>1016.0</ele><time>2026-03-25T10:00:06.961Z</time></trkpt><trkpt lat="30.52790327788896" lon="-5.544823494807451"><ele>1016.0</ele><time>2026-03-25T10:00:07.961Z</time></trkpt><trkpt lat="30.528045065242598" lon="-5.544883636597181"><ele>1016.25</ele><time>2026-03-25T10:00:08.961Z</time></trkpt><trkpt lat="30.528182067140683" lon="-5.544942703533755"><ele>1016.5</ele><time>2026-03-25T10:00:09.961Z</time></trkpt><trkpt lat="30.528313544897113" lon="-5.544992531067861"><ele>1016.75</ele><time>2026-03-25T10:00:10.961Z</time></trkpt><trkpt lat="30.528440902549193" lon="-5.545046120563282"><ele>1017.0</ele><time>2026-03-25T10:00:11.961Z</time></trkpt><trkpt lat="30.528561988723613" lon="-5.545107629826269"><ele>1017.0</ele><time>2026-03-25T10:00:12.961Z</time></trkpt><trkpt lat="30.528682566234114" lon="-5.5451638904826215"><ele>1017.0</ele><time>2026-03-25T10:00:13.961Z</time></trkpt><trkpt lat="30.52880036014054" lon="-5.545218195744066"><ele>1017.0</ele><time>2026-03-25T10:00:14.961Z</time></trkpt><trkpt lat="30.528921572634964" lon="-5.545272969829257"><ele>1017.0</ele><time>2026-03-25T10:00:15.961Z</time></trkpt><trkpt lat="30.529042060364414" lon="-5.545328417043636"><ele>1016.5</ele><time>2026-03-25T10:00:16.961Z</time></trkpt><trkpt lat="30.529171852902937" lon="-5.545384444112659"><ele>1016.0</ele><time>2026-03-25T10:00:17.961Z</time></trkpt><trkpt lat="30.529297939644064" lon="-5.54544318437847"><ele>1015.5</ele><time>2026-03-25T10:00:18.961Z</time></trkpt><trkpt lat="30.529425254938136" lon="-5.545501536561903"><ele>1015.0</ele><time>2026-03-25T10:00:19.961Z</time></trkpt><trkpt lat="30.52955339338063" lon="-5.545557770564513"><ele>1015.75</ele><time>2026-03-25T10:00:20.962Z</time></trkpt><trkpt lat="30.529684656205223" lon="-5.545613961767072"><ele>1016.5</ele><time>2026-03-25T10:00:21.962Z</time></trkpt><trkpt lat="30.529822111064593" lon="-5.545670094618337"><ele>1017.25</ele><time>2026-03-25T10:00:22.961Z</time></trkpt><trkpt lat="30.52994949849198" lon="-5.545728123701782"><ele>1018.0</ele><time>2026-03-25T10:00:23.962Z</time></trkpt><trkpt lat="30.53007407582853" lon="-5.545786221447235"><ele>1018.0</ele><time>2026-03-25T10:00:24.962Z</time></trkpt><trkpt lat="30.53020212745599" lon="-5.545844828207412"><ele>1018.0</ele><time>2026-03-25T10:00:25.961Z</time></trkpt><trkpt lat="30.530330374408273" lon="-5.545904159021349"><ele>1018.0</ele><time>2026-03-25T10:00:26.961Z</time></trkpt><trkpt lat="30.530457240093504" lon="-5.545960732576235"><ele>1018.0</ele><time>2026-03-25T10:00:27.961Z</time></trkpt><trkpt lat="30.530588075650105" lon="-5.54601578490241"><ele>1018.25</ele><time>2026-03-25T10:00:28.961Z</time></trkpt><trkpt lat="30.530713821625525" lon="-5.5460757739308315"><ele>1018.5</ele><time>2026-03-25T10:00:29.961Z</time></trkpt><trkpt lat="30.530848396137785" lon="-5.546135519303608"><ele>1018.75</ele><time>2026-03-25T10:00:30.961Z</time></trkpt><trkpt lat="30.530978275686017" lon="-5.5461901507033815"><ele>1019.0</ele><time>2026-03-25T10:00:31.962Z</time></trkpt><trkpt lat="30.531096162536844" lon="-5.5462329170077505"><ele>1019.0</ele><time>2026-03-25T10:00:32.962Z</time></trkpt><trkpt lat="30.531210654624534" lon="-5.5462844391149435"><ele>1019.0</ele><time>2026-03-25T10:00:33.962Z</time></trkpt><trkpt lat="30.53133943050638" lon="-5.546335004701721"><ele>1019.0</ele><time>2026-03-25T10:00:34.962Z</time></trkpt><trkpt lat="30.531451587228453" lon="-5.546403029312118"><ele>1019.0</ele><time>2026-03-25T10:00:35.962Z</time></trkpt><trkpt lat="30.531569841159357" lon="-5.546478593119625"><ele>1019.25</ele><time>2026-03-25T10:00:36.962Z</time></trkpt><trkpt lat="30.531681422278456" lon="-5.546573614945279"><ele>1019.5</ele><time>2026-03-25T10:00:37.961Z</time></trkpt><trkpt lat="30.53178491292543" lon="-5.5466723368245905"><ele>1019.75</ele><time>2026-03-25T10:00:38.961Z</time></trkpt><trkpt lat="30.531890082460507" lon="-5.546766736457713"><ele>1020.0</ele><time>2026-03-25T10:00:39.961Z</time></trkpt><trkpt lat="30.531993226466533" lon="-5.546868322376061"><ele>1020.25</ele><time>2026-03-25T10:00:40.961Z</time></trkpt><trkpt lat="30.53209994601771" lon="-5.546970226079973"><ele>1020.5</ele><time>2026-03-25T10:00:41.961Z</time></trkpt><trkpt lat="30.532214405999248" lon="-5.547060437479962"><ele>1020.75</ele><time>2026-03-25T10:00:42.961Z</time></trkpt><trkpt lat="30.532328237069134" lon="-5.547156370489162"><ele>1021.0</ele><time>2026-03-25T10:00:43.961Z</time></trkpt><trkpt lat="30.53243709981842" lon="-5.5472500437684005"><ele>1021.0</ele><time>2026-03-25T10:00:44.961Z</time></trkpt><trkpt lat="30.532542128598607" lon="-5.547340170832908"><ele>1021.0</ele><time>2026-03-25T10:00:45.961Z</time></trkpt><trkpt lat="30.532648066764484" lon="-5.547430778840904"><ele>1021.0</ele><time>2026-03-25T10:00:46.961Z</time></trkpt><trkpt lat="30.532755448381824" lon="-5.54751325543601"><ele>1021.0</ele><time>2026-03-25T10:00:47.961Z</time></trkpt><trkpt lat="30.53286148367179" lon="-5.547600821851145"><ele>1021.25</ele><time>2026-03-25T10:00:48.961Z</time></trkpt><trkpt lat="30.532962412175475" lon="-5.547694500602218"><ele>1021.5</ele><time>2026-03-25T10:00:49.961Z</time></trkpt><trkpt lat="30.53306603077171" lon="-5.547789159451544"><ele>1021.75</ele><time>2026-03-25T10:00:50.961Z</time></trkpt><trkpt lat="30.533170795180723" lon="-5.547872767799091"><ele>1022.0</ele><time>2026-03-25T10:00:51.961Z</time></trkpt><trkpt lat="30.53327454180447" lon="-5.547967275599319"><ele>1021.25</ele><time>2026-03-25T10:00:52.961Z</time></trkpt><trkpt lat="30.533384490261525" lon="-5.548057100925574"><ele>1020.5</ele><time>2026-03-25T10:00:53.961Z</time></trkpt><trkpt lat="30.533485806822444" lon="-5.5481525547958555"><ele>1019.75</ele><time>2026-03-25T10:00:54.961Z</time></trkpt><trkpt lat="30.53359054677376" lon="-5.54824945995705"><ele>1019.0</ele><time>2026-03-25T10:00:55.961Z</time></trkpt><trkpt lat="30.533686860877946" lon="-5.548337144314571"><ele>1019.0</ele><time>2026-03-25T10:00:56.961Z</time></trkpt><trkpt lat="30.53377428027057" lon="-5.548414098749483"><ele>1019.0</ele><time>2026-03-25T10:00:57.961Z</time></trkpt><trkpt lat="30.533864015108527" lon="-5.548493697345058"><ele>1019.0</ele><time>2026-03-25T10:00:58.961Z</time></trkpt><trkpt lat="30.53394928212235" lon="-5.548568001590113"><ele>1019.0</ele><time>2026-03-25T10:00:59.961Z</time></trkpt><trkpt lat="30.534051470089917" lon="-5.54864739474349"><ele>1018.25</ele><time>2026-03-25T10:01:00.961Z</time></trkpt><trkpt lat="30.53414546179449" lon="-5.548727764975388"><ele>1017.5</ele><time>2026-03-25T10:01:01.961Z</time></trkpt><trkpt lat="30.534240048154846" lon="-5.54881084657682"><ele>1016.75</ele><time>2026-03-25T10:01:02.961Z</time></trkpt><trkpt lat="30.53434438598689" lon="-5.548906438875937"><ele>1016.0</ele><time>2026-03-25T10:01:03.961Z</time></trkpt><trkpt lat="30.534449182339984" lon="-5.5490031883421"><ele>1017.5</ele><time>2026-03-25T10:01:04.961Z</time></trkpt><trkpt lat="30.53455511982258" lon="-5.549095145786867"><ele>1019.0</ele><time>2026-03-25T10:01:05.961Z</time></trkpt><trkpt lat="30.53465722698131" lon="-5.5491845669124595"><ele>1020.5</ele><time>2026-03-25T10:01:06.961Z</time></trkpt><trkpt lat="30.53476367056264" lon="-5.549276275591131"><ele>1022.0</ele><time>2026-03-25T10:01:07.961Z</time></trkpt><trkpt lat="30.53486959040021" lon="-5.549365949192647"><ele>1022.0</ele><time>2026-03-25T10:01:08.961Z</time></trkpt><trkpt lat="30.534978122931737" lon="-5.54945761852416"><ele>1022.0</ele><time>2026-03-25T10:01:09.961Z</time></trkpt><trkpt lat="30.535087935400583" lon="-5.549558926284071"><ele>1022.0</ele><time>2026-03-25T10:01:10.961Z</time></trkpt><trkpt lat="30.535218274585173" lon="-5.549668901507819"><ele>1022.0</ele><time>2026-03-25T10:01:11.961Z</time></trkpt><trkpt lat="30.535336223860295" lon="-5.549770082538153"><ele>1021.0</ele><time>2026-03-25T10:01:12.961Z</time></trkpt><trkpt lat="30.535438626611366" lon="-5.549860887636623"><ele>1020.0</ele><time>2026-03-25T10:01:13.961Z</time></trkpt><trkpt lat="30.53553499861032" lon="-5.549951362008405"><ele>1019.0</ele><time>2026-03-25T10:01:14.961Z</time></trkpt><trkpt lat="30.535638740909622" lon="-5.550039495987925"><ele>1018.0</ele><time>2026-03-25T10:01:15.961Z</time></trkpt><trkpt lat="30.53573870650552" lon="-5.550124367237174"><ele>1018.0</ele><time>2026-03-25T10:01:16.961Z</time></trkpt><trkpt lat="30.535828925933256" lon="-5.550218591207919"><ele>1018.0</ele><time>2026-03-25T10:01:17.961Z</time></trkpt><trkpt lat="30.535924564293172" lon="-5.5503205497155275"><ele>1018.0</ele><time>2026-03-25T10:01:18.961Z</time></trkpt><trkpt lat="30.536028546710924" lon="-5.550419130025857"><ele>1018.0</ele><time>2026-03-25T10:01:19.961Z</time></trkpt><trkpt lat="30.536133188235333" lon="-5.550504626068251"><ele>1019.0</ele><time>2026-03-25T10:01:20.961Z</time></trkpt><trkpt lat="30.536247140608065" lon="-5.550591400600948"><ele>1020.0</ele><time>2026-03-25T10:01:21.961Z</time></trkpt><trkpt lat="30.53636900253708" lon="-5.5506887878600395"><ele>1021.0</ele><time>2026-03-25T10:01:22.961Z</time></trkpt><trkpt lat="30.536486045535035" lon="-5.550787915388939"><ele>1022.0</ele><time>2026-03-25T10:01:23.961Z</time></trkpt><trkpt lat="30.53660518487845" lon="-5.550891073939335"><ele>1022.0</ele><time>2026-03-25T10:01:24.961Z</time></trkpt><trkpt lat="30.536722740117842" lon="-5.551005118069829"><ele>1022.0</ele><time>2026-03-25T10:01:25.961Z</time></trkpt><trkpt lat="30.536840184117903" lon="-5.551109699609517"><ele>1022.0</ele><time>2026-03-25T10:01:26.961Z</time></trkpt><trkpt lat="30.53695764834478" lon="-5.551213088752126"><ele>1022.0</ele><time>2026-03-25T10:01:27.961Z</time></trkpt><trkpt lat="30.537076585884652" lon="-5.551315297820114"><ele>1022.5</ele><time>2026-03-25T10:01:28.961Z</time></trkpt><trkpt lat="30.537190738121712" lon="-5.5514183787311815"><ele>1023.0</ele><time>2026-03-25T10:01:29.961Z</time></trkpt><trkpt lat="30.537310398147866" lon="-5.5515205216110655"><ele>1023.5</ele><time>2026-03-25T10:01:30.961Z</time></trkpt><trkpt lat="30.537423262479713" lon="-5.551616329504613"><ele>1024.0</ele><time>2026-03-25T10:01:31.961Z</time></trkpt><trkpt lat="30.537521818531907" lon="-5.551687978577426"><ele>1024.0</ele><time>2026-03-25T10:01:32.961Z</time></trkpt><trkpt lat="30.537616685972807" lon="-5.551762277664674"><ele>1024.0</ele><time>2026-03-25T10:01:33.961Z</time></trkpt><trkpt lat="30.537709958588103" lon="-5.551837555154752"><ele>1024.0</ele><time>2026-03-25T10:01:34.961Z</time></trkpt><trkpt lat="30.537785959035983" lon="-5.5519219238522135"><ele>1024.0</ele><time>2026-03-25T10:01:35.961Z</time></trkpt><trkpt lat="30.537861601531137" lon="-5.552018694651537"><ele>1024.0</ele><time>2026-03-25T10:01:36.961Z</time></trkpt><trkpt lat="30.537951677291492" lon="-5.552106422141819"><ele>1024.0</ele><time>2026-03-25T10:01:37.961Z</time></trkpt><trkpt lat="30.53805237035309" lon="-5.552194539181833"><ele>1024.0</ele><time>2026-03-25T10:01:38.961Z</time></trkpt><trkpt lat="30.538158878261807" lon="-5.55230025414997"><ele>1024.0</ele><time>2026-03-25T10:01:39.961Z</time></trkpt><trkpt lat="30.53826612158367" lon="-5.5524275201089655"><ele>1024.0</ele><time>2026-03-25T10:01:40.961Z</time></trkpt><trkpt lat="30.53838159025464" lon="-5.5525541555330475"><ele>1024.0</ele><time>2026-03-25T10:01:41.961Z</time></trkpt><trkpt lat="30.53848219862995" lon="-5.552652374231911"><ele>1024.0</ele><time>2026-03-25T10:01:42.961Z</time></trkpt><trkpt lat="30.53857876428688" lon="-5.552731110367663"><ele>1024.0</ele><time>2026-03-25T10:01:43.961Z</time></trkpt><trkpt lat="30.538687811263905" lon="-5.552796750653838"><ele>1024.0</ele><time>2026-03-25T10:01:44.961Z</time></trkpt><trkpt lat="30.538811194475024" lon="-5.552869974616325"><ele>1023.6666666666666</ele><time>2026-03-25T10:01:45.961Z</time></trkpt><trkpt lat="30.538933656654986" lon="-5.552973926765927"><ele>1023.3333333333333</ele><time>2026-03-25T10:01:46.961Z</time></trkpt><trkpt lat="30.539043175149217" lon="-5.553100326834865"><ele>1023.0</ele><time>2026-03-25T10:01:47.961Z</time></trkpt><trkpt lat="30.539161040531887" lon="-5.553216118187701"><ele>1023.0</ele><time>2026-03-25T10:01:48.961Z</time></trkpt><trkpt lat="30.539275740400807" lon="-5.553308023931635"><ele>1023.0</ele><time>2026-03-25T10:01:49.961Z</time></trkpt><trkpt lat="30.539389422844092" lon="-5.553406236827191"><ele>1023.0</ele><time>2026-03-25T10:01:50.961Z</time></trkpt><trkpt lat="30.53949425036038" lon="-5.553513900158337"><ele>1023.0</ele><time>2026-03-25T10:01:51.961Z</time></trkpt><trkpt lat="30.539590461981778" lon="-5.553622730664073"><ele>1024.0</ele><time>2026-03-25T10:01:52.961Z</time></trkpt><trkpt lat="30.53969705234129" lon="-5.553711917339213"><ele>1025.0</ele><time>2026-03-25T10:01:53.961Z</time></trkpt><trkpt lat="30.539802895271094" lon="-5.553793332776133"><ele>1026.0</ele><time>2026-03-25T10:01:54.961Z</time></trkpt><trkpt lat="30.539905797372064" lon="-5.553872320217335"><ele>1027.0</ele><time>2026-03-25T10:01:55.961Z</time></trkpt><trkpt lat="30.54000252779158" lon="-5.5539433567013985"><ele>1027.0</ele><time>2026-03-25T10:01:56.961Z</time></trkpt><trkpt lat="30.540093796649135" lon="-5.554034612272998"><ele>1027.0</ele><time>2026-03-25T10:01:57.961Z</time></trkpt><trkpt lat="30.540200698342055" lon="-5.5541463506779944"><ele>1027.0</ele><time>2026-03-25T10:01:58.961Z</time></trkpt><trkpt lat="30.540310675183083" lon="-5.5542589097924795"><ele>1027.0</ele><time>2026-03-25T10:01:59.961Z</time></trkpt><trkpt lat="30.54042433699287" lon="-5.554359707945241"><ele>1027.25</ele><time>2026-03-25T10:02:00.961Z</time></trkpt><trkpt lat="30.540534148685687" lon="-5.554442619705827"><ele>1027.5</ele><time>2026-03-25T10:02:01.961Z</time></trkpt><trkpt lat="30.54061541316858" lon="-5.554540773747841"><ele>1027.75</ele><time>2026-03-25T10:02:02.961Z</time></trkpt><trkpt lat="30.540711893419637" lon="-5.554626347635665"><ele>1028.0</ele><time>2026-03-25T10:02:03.961Z</time></trkpt><trkpt lat="30.540826901225422" lon="-5.5547069751830085"><ele>1028.0</ele><time>2026-03-25T10:02:04.961Z</time></trkpt><trkpt lat="30.540930959653856" lon="-5.554810408480591"><ele>1028.0</ele><time>2026-03-25T10:02:05.961Z</time></trkpt><trkpt lat="30.54102813285399" lon="-5.55490653738164"><ele>1028.0</ele><time>2026-03-25T10:02:06.961Z</time></trkpt><trkpt lat="30.54110924602128" lon="-5.554997842152954"><ele>1028.0</ele><time>2026-03-25T10:02:07.961Z</time></trkpt><trkpt lat="30.541207949145495" lon="-5.555097810802165"><ele>1028.5</ele><time>2026-03-25T10:02:08.961Z</time></trkpt><trkpt lat="30.54131431659299" lon="-5.555201564398404"><ele>1029.0</ele><time>2026-03-25T10:02:09.961Z</time></trkpt><trkpt lat="30.541437742163648" lon="-5.555292258397036"><ele>1029.5</ele><time>2026-03-25T10:02:10.961Z</time></trkpt><trkpt lat="30.541561355005783" lon="-5.55540067271087"><ele>1030.0</ele><time>2026-03-25T10:02:11.961Z</time></trkpt><trkpt lat="30.54169264195538" lon="-5.55551429265355"><ele>1030.0</ele><time>2026-03-25T10:02:12.961Z</time></trkpt><trkpt lat="30.54182408087089" lon="-5.555633043271907"><ele>1030.0</ele><time>2026-03-25T10:02:13.961Z</time></trkpt><trkpt lat="30.54196103203918" lon="-5.555759371145821"><ele>1030.0</ele><time>2026-03-25T10:02:14.961Z</time></trkpt><trkpt lat="30.542095626070036" lon="-5.555874758301533"><ele>1030.3333333333333</ele><time>2026-03-25T10:02:15.961Z</time></trkpt><trkpt lat="30.54223003236261" lon="-5.555990487076316"><ele>1030.6666666666667</ele><time>2026-03-25T10:02:16.961Z</time></trkpt><trkpt lat="30.542360307008913" lon="-5.5561054909026915"><ele>1031.0</ele><time>2026-03-25T10:02:17.961Z</time></trkpt><trkpt lat="30.542471991849798" lon="-5.556212219542576"><ele>1031.0</ele><time>2026-03-25T10:02:18.961Z</time></trkpt><trkpt lat="30.542579064215975" lon="-5.556315773250407"><ele>1031.0</ele><time>2026-03-25T10:02:19.961Z</time></trkpt><trkpt lat="30.542683238412113" lon="-5.556391406000943"><ele>1031.0</ele><time>2026-03-25T10:02:20.961Z</time></trkpt><trkpt lat="30.542782476692114" lon="-5.556483662508449"><ele>1031.0</ele><time>2026-03-25T10:02:21.961Z</time></trkpt><trkpt lat="30.542887715024104" lon="-5.556584821753118"><ele>1031.25</ele><time>2026-03-25T10:02:22.961Z</time></trkpt><trkpt lat="30.542981338235084" lon="-5.556699208136322"><ele>1031.5</ele><time>2026-03-25T10:02:23.961Z</time></trkpt><trkpt lat="30.543086040706754" lon="-5.556795728991764"><ele>1031.75</ele><time>2026-03-25T10:02:24.961Z</time></trkpt><trkpt lat="30.543194898299596" lon="-5.556880432798965"><ele>1032.0</ele><time>2026-03-25T10:02:25.961Z</time></trkpt><trkpt lat="30.54328851770827" lon="-5.556939189764449"><ele>1032.0</ele><time>2026-03-25T10:02:26.96Z</time></trkpt><trkpt lat="30.543351482819762" lon="-5.5569817952275855"><ele>1032.0</ele><time>2026-03-25T10:02:27.96Z</time></trkpt><trkpt lat="30.543415066978476" lon="-5.557043132861101"><ele>1032.0</ele><time>2026-03-25T10:02:28.96Z</time></trkpt><trkpt lat="30.543469122170798" lon="-5.557103832318344"><ele>1032.0</ele><time>2026-03-25T10:02:29.961Z</time></trkpt><trkpt lat="30.5435400770407" lon="-5.557171476902334"><ele>1032.0</ele><time>2026-03-25T10:02:30.961Z</time></trkpt><trkpt lat="30.54360545950006" lon="-5.557248174033628"><ele>1032.0</ele><time>2026-03-25T10:02:31.961Z</time></trkpt><trkpt lat="30.543681657135767" lon="-5.557329663010445"><ele>1032.4</ele><time>2026-03-25T10:02:32.961Z</time></trkpt><trkpt lat="30.543768076748226" lon="-5.55740940508281"><ele>1032.8000000000002</ele><time>2026-03-25T10:02:33.961Z</time></trkpt><trkpt lat="30.54384511542258" lon="-5.557493531271389"><ele>1033.2</ele><time>2026-03-25T10:02:34.96Z</time></trkpt><trkpt lat="30.543937316468604" lon="-5.557570714278689"><ele>1033.6000000000001</ele><time>2026-03-25T10:02:35.961Z</time></trkpt><trkpt lat="30.544027700323927" lon="-5.557653158089922"><ele>1034.0</ele><time>2026-03-25T10:02:36.961Z</time></trkpt><trkpt lat="30.5441338857749" lon="-5.557735362632923"><ele>1034.0</ele><time>2026-03-25T10:02:37.96Z</time></trkpt><trkpt lat="30.544221447267876" lon="-5.557809308393868"><ele>1034.0</ele><time>2026-03-25T10:02:38.96Z</time></trkpt><trkpt lat="30.544296279564406" lon="-5.557875585790936"><ele>1034.0</ele><time>2026-03-25T10:02:39.96Z</time></trkpt><trkpt lat="30.54435981802229" lon="-5.557939720480922"><ele>1034.0</ele><time>2026-03-25T10:02:40.96Z</time></trkpt><trkpt lat="30.544425119348684" lon="-5.558002693810372"><ele>1034.0</ele><time>2026-03-25T10:02:41.96Z</time></trkpt><trkpt lat="30.54448798711329" lon="-5.55807560853339"><ele>1034.4</ele><time>2026-03-25T10:02:42.96Z</time></trkpt><trkpt lat="30.544551992475295" lon="-5.558149016123767"><ele>1034.8000000000002</ele><time>2026-03-25T10:02:43.96Z</time></trkpt><trkpt lat="30.544618554864417" lon="-5.558220687908283"><ele>1035.1999999999998</ele><time>2026-03-25T10:02:44.96Z</time></trkpt><trkpt lat="30.544702650043153" lon="-5.558295141474169"><ele>1035.6</ele><time>2026-03-25T10:02:45.96Z</time></trkpt><trkpt lat="30.544789449295894" lon="-5.558379712837012"><ele>1036.0</ele><time>2026-03-25T10:02:46.96Z</time></trkpt><trkpt lat="30.544886741466062" lon="-5.558458358681472"><ele>1036.0</ele><time>2026-03-25T10:02:47.96Z</time></trkpt><trkpt lat="30.544977338964518" lon="-5.558528132809324"><ele>1036.0</ele><time>2026-03-25T10:02:48.96Z</time></trkpt><trkpt lat="30.5450612613255" lon="-5.5585986391126045"><ele>1036.0</ele><time>2026-03-25T10:02:49.96Z</time></trkpt><trkpt lat="30.545149457365582" lon="-5.558684580791254"><ele>1036.0</ele><time>2026-03-25T10:02:50.96Z</time></trkpt><trkpt lat="30.545241316776302" lon="-5.558781717515218"><ele>1036.0</ele><time>2026-03-25T10:02:51.96Z</time></trkpt><trkpt lat="30.545337629713803" lon="-5.558870341040361"><ele>1036.0</ele><time>2026-03-25T10:02:52.96Z</time></trkpt><trkpt lat="30.545434094853015" lon="-5.558958659216479"><ele>1036.0</ele><time>2026-03-25T10:02:53.96Z</time></trkpt><trkpt lat="30.545522206612876" lon="-5.5590510441739385"><ele>1036.0</ele><time>2026-03-25T10:02:54.96Z</time></trkpt><trkpt lat="30.545613801861187" lon="-5.5591398609260025"><ele>1036.0</ele><time>2026-03-25T10:02:55.96Z</time></trkpt><trkpt lat="30.545706204392694" lon="-5.5592274639847234"><ele>1036.0</ele><time>2026-03-25T10:02:56.96Z</time></trkpt><trkpt lat="30.545797901244097" lon="-5.559319724249727"><ele>1036.0</ele><time>2026-03-25T10:02:57.96Z</time></trkpt><trkpt lat="30.545896353768512" lon="-5.559415412022"><ele>1036.0</ele><time>2026-03-25T10:02:58.96Z</time></trkpt><trkpt lat="30.545992322674085" lon="-5.559526092653618"><ele>1036.25</ele><time>2026-03-25T10:02:59.96Z</time></trkpt><trkpt lat="30.54609937702478" lon="-5.559647766818716"><ele>1036.5</ele><time>2026-03-25T10:03:00.96Z</time></trkpt><trkpt lat="30.546192735890582" lon="-5.559734374709107"><ele>1036.75</ele><time>2026-03-25T10:03:01.96Z</time></trkpt><trkpt lat="30.54628900241718" lon="-5.559818795095348"><ele>1037.0</ele><time>2026-03-25T10:03:02.96Z</time></trkpt><trkpt lat="30.546384309612147" lon="-5.559907112437497"><ele>1037.0</ele><time>2026-03-25T10:03:03.96Z</time></trkpt><trkpt lat="30.54648452325063" lon="-5.559996968521076"><ele>1037.0</ele><time>2026-03-25T10:03:04.96Z</time></trkpt><trkpt lat="30.54658813907653" lon="-5.560096935391607"><ele>1037.0</ele><time>2026-03-25T10:03:05.96Z</time></trkpt><trkpt lat="30.546686457301504" lon="-5.560187209839374"><ele>1037.0</ele><time>2026-03-25T10:03:06.96Z</time></trkpt><trkpt lat="30.546778673092128" lon="-5.560280957101335"><ele>1037.25</ele><time>2026-03-25T10:03:07.96Z</time></trkpt><trkpt lat="30.54687104422952" lon="-5.560366414763364"><ele>1037.5</ele><time>2026-03-25T10:03:08.96Z</time></trkpt><trkpt lat="30.54695938125848" lon="-5.560454615687753"><ele>1037.75</ele><time>2026-03-25T10:03:09.96Z</time></trkpt><trkpt lat="30.54705206932344" lon="-5.560540514054327"><ele>1038.0</ele><time>2026-03-25T10:03:10.96Z</time></trkpt><trkpt lat="30.547135613250703" lon="-5.560624526025752"><ele>1038.0</ele><time>2026-03-25T10:03:11.96Z</time></trkpt><trkpt lat="30.547223280719262" lon="-5.560707680960949"><ele>1038.0</ele><time>2026-03-25T10:03:12.96Z</time></trkpt><trkpt lat="30.547308844250512" lon="-5.560787675419436"><ele>1038.0</ele><time>2026-03-25T10:03:13.96Z</time></trkpt><trkpt lat="30.547396352615966" lon="-5.560874060316989"><ele>1038.0</ele><time>2026-03-25T10:03:14.96Z</time></trkpt><trkpt lat="30.54748825378112" lon="-5.560968130865247"><ele>1038.0</ele><time>2026-03-25T10:03:15.96Z</time></trkpt><trkpt lat="30.54758567631799" lon="-5.561070537175767"><ele>1038.0</ele><time>2026-03-25T10:03:16.96Z</time></trkpt><trkpt lat="30.547686230646477" lon="-5.561173440400044"><ele>1038.0</ele><time>2026-03-25T10:03:17.96Z</time></trkpt><trkpt lat="30.547782421836054" lon="-5.561274022927812"><ele>1038.0</ele><time>2026-03-25T10:03:18.96Z</time></trkpt><trkpt lat="30.54787806748872" lon="-5.561370879975348"><ele>1038.0</ele><time>2026-03-25T10:03:19.96Z</time></trkpt><trkpt lat="30.547974668390562" lon="-5.561466258852934"><ele>1038.0</ele><time>2026-03-25T10:03:20.96Z</time></trkpt><trkpt lat="30.548072163927014" lon="-5.561570681357905"><ele>1038.0</ele><time>2026-03-25T10:03:21.96Z</time></trkpt><trkpt lat="30.548176310271803" lon="-5.56167140563091"><ele>1038.0</ele><time>2026-03-25T10:03:22.96Z</time></trkpt><trkpt lat="30.548280567993157" lon="-5.561770993633354"><ele>1038.0</ele><time>2026-03-25T10:03:23.96Z</time></trkpt><trkpt lat="30.54839002609064" lon="-5.5618715215395325"><ele>1038.0</ele><time>2026-03-25T10:03:24.96Z</time></trkpt><trkpt lat="30.548493955592217" lon="-5.561973466712083"><ele>1038.0</ele><time>2026-03-25T10:03:25.96Z</time></trkpt><trkpt lat="30.548602347469178" lon="-5.5620787717707625"><ele>1038.0</ele><time>2026-03-25T10:03:26.96Z</time></trkpt><trkpt lat="30.54870287279962" lon="-5.562180443696134"><ele>1038.25</ele><time>2026-03-25T10:03:27.96Z</time></trkpt><trkpt lat="30.548804325219216" lon="-5.562281865623854"><ele>1038.5</ele><time>2026-03-25T10:03:28.96Z</time></trkpt><trkpt lat="30.54889636443138" lon="-5.562383335841065"><ele>1038.75</ele><time>2026-03-25T10:03:29.96Z</time></trkpt><trkpt lat="30.548996585519042" lon="-5.562482443559039"><ele>1039.0</ele><time>2026-03-25T10:03:30.96Z</time></trkpt><trkpt lat="30.549096280868564" lon="-5.562578401655594"><ele>1039.0</ele><time>2026-03-25T10:03:31.96Z</time></trkpt><trkpt lat="30.549196294935083" lon="-5.562674571023445"><ele>1039.0</ele><time>2026-03-25T10:03:32.96Z</time></trkpt><trkpt lat="30.549292253249828" lon="-5.562774690895065"><ele>1039.0</ele><time>2026-03-25T10:03:33.96Z</time></trkpt><trkpt lat="30.549399985911442" lon="-5.562872024187651"><ele>1039.0</ele><time>2026-03-25T10:03:34.96Z</time></trkpt><trkpt lat="30.54949677622626" lon="-5.5629590003253"><ele>1038.75</ele><time>2026-03-25T10:03:35.96Z</time></trkpt><trkpt lat="30.549589537365947" lon="-5.563043169951221"><ele>1038.5</ele><time>2026-03-25T10:03:36.96Z</time></trkpt><trkpt lat="30.549670098928235" lon="-5.563135258922324"><ele>1038.25</ele><time>2026-03-25T10:03:37.96Z</time></trkpt><trkpt lat="30.5497588091737" lon="-5.563232651887673"><ele>1038.0</ele><time>2026-03-25T10:03:38.96Z</time></trkpt><trkpt lat="30.54984311738508" lon="-5.563328015234727"><ele>1038.0</ele><time>2026-03-25T10:03:39.96Z</time></trkpt><trkpt lat="30.54993872501308" lon="-5.56341805118304"><ele>1038.0</ele><time>2026-03-25T10:03:40.96Z</time></trkpt><trkpt lat="30.550044979622584" lon="-5.563514262156961"><ele>1038.0</ele><time>2026-03-25T10:03:41.96Z</time></trkpt><trkpt lat="30.550155169679226" lon="-5.563615950827603"><ele>1038.0</ele><time>2026-03-25T10:03:42.96Z</time></trkpt><trkpt lat="30.550265699800196" lon="-5.5637207522486225"><ele>1038.0</ele><time>2026-03-25T10:03:43.96Z</time></trkpt><trkpt lat="30.550370150781163" lon="-5.563826334655148"><ele>1038.0</ele><time>2026-03-25T10:03:44.96Z</time></trkpt><trkpt lat="30.550475924610645" lon="-5.563931847538631"><ele>1038.0</ele><time>2026-03-25T10:03:45.96Z</time></trkpt><trkpt lat="30.550579907229523" lon="-5.564028936722297"><ele>1038.0</ele><time>2026-03-25T10:03:46.96Z</time></trkpt><trkpt lat="30.55068226270029" lon="-5.56413115170706"><ele>1038.0</ele><time>2026-03-25T10:03:47.96Z</time></trkpt><trkpt lat="30.550784940747604" lon="-5.564233283377921"><ele>1038.0</ele><time>2026-03-25T10:03:48.96Z</time></trkpt><trkpt lat="30.55088454094982" lon="-5.56433681875603"><ele>1038.0</ele><time>2026-03-25T10:03:49.96Z</time></trkpt><trkpt lat="30.550990127598265" lon="-5.564437240044982"><ele>1038.0</ele><time>2026-03-25T10:03:50.96Z</time></trkpt><trkpt lat="30.551100586986237" lon="-5.564542125960843"><ele>1038.75</ele><time>2026-03-25T10:03:51.96Z</time></trkpt><trkpt lat="30.55120969105744" lon="-5.564646639151381"><ele>1039.5</ele><time>2026-03-25T10:03:52.96Z</time></trkpt><trkpt lat="30.55131707383806" lon="-5.56475277568895"><ele>1040.25</ele><time>2026-03-25T10:03:53.96Z</time></trkpt><trkpt lat="30.55142032023364" lon="-5.564853717113935"><ele>1041.0</ele><time>2026-03-25T10:03:54.96Z</time></trkpt><trkpt lat="30.551523127633253" lon="-5.564954064666114"><ele>1041.0</ele><time>2026-03-25T10:03:55.96Z</time></trkpt><trkpt lat="30.551620900860552" lon="-5.565050063303917"><ele>1041.0</ele><time>2026-03-25T10:03:56.96Z</time></trkpt><trkpt lat="30.551717363254863" lon="-5.56513953269378"><ele>1041.0</ele><time>2026-03-25T10:03:57.96Z</time></trkpt><trkpt lat="30.551810670293726" lon="-5.5652342635268885"><ele>1041.0</ele><time>2026-03-25T10:03:58.96Z</time></trkpt><trkpt lat="30.551876291088846" lon="-5.5653213108802575"><ele>1040.8</ele><time>2026-03-25T10:03:59.96Z</time></trkpt><trkpt lat="30.551947134110584" lon="-5.565414590670754"><ele>1040.6</ele><time>2026-03-25T10:04:00.96Z</time></trkpt><trkpt lat="30.55198443732863" lon="-5.565515094044731"><ele>1040.4</ele><time>2026-03-25T10:04:01.959Z</time></trkpt><trkpt lat="30.55200373179395" lon="-5.5656147116004995"><ele>1040.2</ele><time>2026-03-25T10:04:02.959Z</time></trkpt><trkpt lat="30.552031026203455" lon="-5.56571727538103"><ele>1040.0</ele><time>2026-03-25T10:04:03.959Z</time></trkpt><trkpt lat="30.55206506314022" lon="-5.5658195404151565"><ele>1040.2</ele><time>2026-03-25T10:04:04.959Z</time></trkpt><trkpt lat="30.552110053142087" lon="-5.565915969184095"><ele>1040.4</ele><time>2026-03-25T10:04:05.959Z</time></trkpt><trkpt lat="30.552167829746384" lon="-5.566011188464579"><ele>1040.6</ele><time>2026-03-25T10:04:06.959Z</time></trkpt><trkpt lat="30.552238635149287" lon="-5.566104244581615"><ele>1040.8</ele><time>2026-03-25T10:04:07.959Z</time></trkpt><trkpt lat="30.55230596781389" lon="-5.566196149385503"><ele>1041.0</ele><time>2026-03-25T10:04:08.959Z</time></trkpt><trkpt lat="30.55237910255149" lon="-5.566295028138742"><ele>1041.0</ele><time>2026-03-25T10:04:09.959Z</time></trkpt><trkpt lat="30.55245050305424" lon="-5.566396872180924"><ele>1041.0</ele><time>2026-03-25T10:04:10.959Z</time></trkpt><trkpt lat="30.55252737113973" lon="-5.566500976379376"><ele>1041.0</ele><time>2026-03-25T10:04:11.959Z</time></trkpt><trkpt lat="30.55260637648218" lon="-5.566617267795467"><ele>1041.0</ele><time>2026-03-25T10:04:12.959Z</time></trkpt><trkpt lat="30.5526935766075" lon="-5.566733954846802"><ele>1041.0</ele><time>2026-03-25T10:04:13.959Z</time></trkpt><trkpt lat="30.55278886425586" lon="-5.566867293678026"><ele>1041.0</ele><time>2026-03-25T10:04:14.959Z</time></trkpt><trkpt lat="30.55290281413926" lon="-5.567042849717661"><ele>1041.0</ele><time>2026-03-25T10:04:15.959Z</time></trkpt><trkpt lat="30.55303993380487" lon="-5.567237718119301"><ele>1041.5</ele><time>2026-03-25T10:04:16.959Z</time></trkpt><trkpt lat="30.553196880704057" lon="-5.567463980590096"><ele>1042.0</ele><time>2026-03-25T10:04:17.959Z</time></trkpt><trkpt lat="30.55335481802656" lon="-5.567692970533872"><ele>1042.0</ele><time>2026-03-25T10:04:18.959Z</time></trkpt><trkpt lat="30.553487785200904" lon="-5.567895223350394"><ele>1042.0</ele><time>2026-03-25T10:04:19.959Z</time></trkpt><trkpt lat="30.553595495792237" lon="-5.568052185710364"><ele>1042.0</ele><time>2026-03-25T10:04:20.959Z</time></trkpt><trkpt lat="30.55368697745299" lon="-5.568191902845182"><ele>1042.0</ele><time>2026-03-25T10:04:21.959Z</time></trkpt><trkpt lat="30.55378633643886" lon="-5.5683363083759225"><ele>1042.0</ele><time>2026-03-25T10:04:22.959Z</time></trkpt><trkpt lat="30.55388045033514" lon="-5.568476259161482"><ele>1042.0</ele><time>2026-03-25T10:04:23.959Z</time></trkpt><trkpt lat="30.553975689679383" lon="-5.568614224808901"><ele>1042.3333333333333</ele><time>2026-03-25T10:04:24.959Z</time></trkpt><trkpt lat="30.554073579127163" lon="-5.568754153819785"><ele>1042.6666666666667</ele><time>2026-03-25T10:04:25.959Z</time></trkpt><trkpt lat="30.554180215057535" lon="-5.5688947610670425"><ele>1043.0</ele><time>2026-03-25T10:04:26.959Z</time></trkpt><trkpt lat="30.554300303116747" lon="-5.569037945185884"><ele>1043.0</ele><time>2026-03-25T10:04:27.959Z</time></trkpt><trkpt lat="30.55442571781203" lon="-5.5691697273210945"><ele>1043.0</ele><time>2026-03-25T10:04:28.959Z</time></trkpt><trkpt lat="30.554536208058508" lon="-5.5692803106055235"><ele>1043.0</ele><time>2026-03-25T10:04:29.959Z</time></trkpt><trkpt lat="30.554664820870205" lon="-5.569385390341331"><ele>1042.6666666666667</ele><time>2026-03-25T10:04:30.959Z</time></trkpt><trkpt lat="30.554798029725607" lon="-5.5694873300877425"><ele>1042.3333333333333</ele><time>2026-03-25T10:04:31.961Z</time></trkpt><trkpt lat="30.55492301642954" lon="-5.569589682789707"><ele>1042.0</ele><time>2026-03-25T10:04:32.96Z</time></trkpt><trkpt lat="30.55504706504076" lon="-5.56968979012578"><ele>1041.6666666666665</ele><time>2026-03-25T10:04:33.96Z</time></trkpt><trkpt lat="30.55517598489674" lon="-5.569794612512815"><ele>1041.3333333333333</ele><time>2026-03-25T10:04:34.96Z</time></trkpt><trkpt lat="30.55529481628037" lon="-5.569896136009025"><ele>1041.0</ele><time>2026-03-25T10:04:35.96Z</time></trkpt><trkpt lat="30.555418907451077" lon="-5.570006453040748"><ele>1041.0</ele><time>2026-03-25T10:04:36.96Z</time></trkpt><trkpt lat="30.555542995448643" lon="-5.570115883684659"><ele>1041.0</ele><time>2026-03-25T10:04:37.96Z</time></trkpt><trkpt lat="30.555667204651378" lon="-5.570226766854341"><ele>1041.0</ele><time>2026-03-25T10:04:38.961Z</time></trkpt><trkpt lat="30.555778652925696" lon="-5.570327844333659"><ele>1041.0</ele><time>2026-03-25T10:04:39.961Z</time></trkpt><trkpt lat="30.5558973720349" lon="-5.570427313137507"><ele>1041.0</ele><time>2026-03-25T10:04:40.96Z</time></trkpt><trkpt lat="30.55600825247949" lon="-5.570525337777101"><ele>1041.0</ele><time>2026-03-25T10:04:41.961Z</time></trkpt><trkpt lat="30.556118674093096" lon="-5.570626048125248"><ele>1041.0</ele><time>2026-03-25T10:04:42.961Z</time></trkpt><trkpt lat="30.55623244200791" lon="-5.5707287560002055"><ele>1041.0</ele><time>2026-03-25T10:04:43.96Z</time></trkpt><trkpt lat="30.556353700266225" lon="-5.57082127119279"><ele>1041.0</ele><time>2026-03-25T10:04:44.96Z</time></trkpt><trkpt lat="30.556460797532534" lon="-5.570904311272108"><ele>1041.0</ele><time>2026-03-25T10:04:45.96Z</time></trkpt><trkpt lat="30.556557734608383" lon="-5.570986036700062"><ele>1041.0</ele><time>2026-03-25T10:04:46.96Z</time></trkpt><trkpt lat="30.556650270509525" lon="-5.571088880718313"><ele>1041.75</ele><time>2026-03-25T10:04:47.96Z</time></trkpt><trkpt lat="30.55672314572872" lon="-5.5712005651973815"><ele>1042.5</ele><time>2026-03-25T10:04:48.96Z</time></trkpt><trkpt lat="30.556795144727985" lon="-5.571341646786287"><ele>1043.25</ele><time>2026-03-25T10:04:49.96Z</time></trkpt><trkpt lat="30.55687288868732" lon="-5.571473897160221"><ele>1044.0</ele><time>2026-03-25T10:04:50.96Z</time></trkpt><trkpt lat="30.556952776291634" lon="-5.571615122980395"><ele>1044.0</ele><time>2026-03-25T10:04:51.96Z</time></trkpt><trkpt lat="30.55703107400706" lon="-5.5717638767521"><ele>1044.0</ele><time>2026-03-25T10:04:52.96Z</time></trkpt><trkpt lat="30.557118020366058" lon="-5.571910973322789"><ele>1044.0</ele><time>2026-03-25T10:04:53.96Z</time></trkpt><trkpt lat="30.557204376189787" lon="-5.572061562842178"><ele>1043.5</ele><time>2026-03-25T10:04:54.96Z</time></trkpt><trkpt lat="30.55728927124722" lon="-5.572209337782333"><ele>1043.0</ele><time>2026-03-25T10:04:55.96Z</time></trkpt><trkpt lat="30.557364745880605" lon="-5.572344208282281"><ele>1042.5</ele><time>2026-03-25T10:04:56.96Z</time></trkpt><trkpt lat="30.55744217327319" lon="-5.572464273307773"><ele>1042.0</ele><time>2026-03-25T10:04:57.96Z</time></trkpt><trkpt lat="30.55752287711915" lon="-5.572595413496941"><ele>1042.0</ele><time>2026-03-25T10:04:58.96Z</time></trkpt><trkpt lat="30.55759770195393" lon="-5.572730018051545"><ele>1042.0</ele><time>2026-03-25T10:04:59.96Z</time></trkpt><trkpt lat="30.5576840485528" lon="-5.572882699168998"><ele>1042.0</ele><time>2026-03-25T10:05:00.96Z</time></trkpt><trkpt lat="30.557774426879433" lon="-5.57303326700819"><ele>1041.3333333333333</ele><time>2026-03-25T10:05:01.96Z</time></trkpt><trkpt lat="30.55786637797658" lon="-5.573193390170632"><ele>1040.6666666666667</ele><time>2026-03-25T10:05:02.96Z</time></trkpt><trkpt lat="30.557950693989074" lon="-5.573342060684003"><ele>1040.0</ele><time>2026-03-25T10:05:03.96Z</time></trkpt><trkpt lat="30.558042204518667" lon="-5.573492065548452"><ele>1040.0</ele><time>2026-03-25T10:05:04.96Z</time></trkpt><trkpt lat="30.558121178377956" lon="-5.573629918268324"><ele>1040.0</ele><time>2026-03-25T10:05:05.96Z</time></trkpt><trkpt lat="30.558196228984084" lon="-5.573757598804538"><ele>1040.0</ele><time>2026-03-25T10:05:06.96Z</time></trkpt><trkpt lat="30.558270854003535" lon="-5.573883870484887"><ele>1040.0</ele><time>2026-03-25T10:05:07.96Z</time></trkpt><trkpt lat="30.558357790406074" lon="-5.574010789231595"><ele>1039.5</ele><time>2026-03-25T10:05:08.96Z</time></trkpt><trkpt lat="30.5584485047925" lon="-5.574152453285226"><ele>1039.0</ele><time>2026-03-25T10:05:09.96Z</time></trkpt><trkpt lat="30.55853737809796" lon="-5.574295426517942"><ele>1038.5</ele><time>2026-03-25T10:05:10.96Z</time></trkpt><trkpt lat="30.558623014328433" lon="-5.574430557229548"><ele>1038.0</ele><time>2026-03-25T10:05:11.96Z</time></trkpt><trkpt lat="30.558703065865007" lon="-5.574565765200952"><ele>1037.4</ele><time>2026-03-25T10:05:12.96Z</time></trkpt><trkpt lat="30.5587697820077" lon="-5.574680309229155"><ele>1036.8</ele><time>2026-03-25T10:05:13.96Z</time></trkpt><trkpt lat="30.55882782622659" lon="-5.574784931893707"><ele>1036.2</ele><time>2026-03-25T10:05:14.96Z</time></trkpt><trkpt lat="30.558881206064076" lon="-5.574891288244118"><ele>1035.6</ele><time>2026-03-25T10:05:15.96Z</time></trkpt><trkpt lat="30.55891679482096" lon="-5.574993966711905"><ele>1035.0</ele><time>2026-03-25T10:05:16.96Z</time></trkpt><trkpt lat="30.558939147529244" lon="-5.575104402513292"><ele>1035.0</ele><time>2026-03-25T10:05:17.96Z</time></trkpt><trkpt lat="30.55897333104871" lon="-5.575239086656797"><ele>1035.0</ele><time>2026-03-25T10:05:18.96Z</time></trkpt><trkpt lat="30.559008615784983" lon="-5.575377803601285"><ele>1035.0</ele><time>2026-03-25T10:05:19.96Z</time></trkpt><trkpt lat="30.559047096938006" lon="-5.575512859908558"><ele>1035.0</ele><time>2026-03-25T10:05:20.96Z</time></trkpt><trkpt lat="30.559082605426678" lon="-5.575655200926044"><ele>1035.0</ele><time>2026-03-25T10:05:21.96Z</time></trkpt><trkpt lat="30.559116599958383" lon="-5.575791815223284"><ele>1035.0</ele><time>2026-03-25T10:05:22.96Z</time></trkpt><trkpt lat="30.559148932259905" lon="-5.575933497927514"><ele>1035.0</ele><time>2026-03-25T10:05:23.96Z</time></trkpt><trkpt lat="30.559176946620973" lon="-5.576077745705781"><ele>1035.0</ele><time>2026-03-25T10:05:24.96Z</time></trkpt><trkpt lat="30.559199903828677" lon="-5.576215937059876"><ele>1034.75</ele><time>2026-03-25T10:05:25.96Z</time></trkpt><trkpt lat="30.55921636877653" lon="-5.576350827893613"><ele>1034.5</ele><time>2026-03-25T10:05:26.96Z</time></trkpt><trkpt lat="30.55923806607569" lon="-5.576502227395069"><ele>1034.25</ele><time>2026-03-25T10:05:27.96Z</time></trkpt><trkpt lat="30.559269164340588" lon="-5.576648840767243"><ele>1034.0</ele><time>2026-03-25T10:05:28.96Z</time></trkpt><trkpt lat="30.55931298209312" lon="-5.576784259310792"><ele>1034.0</ele><time>2026-03-25T10:05:29.96Z</time></trkpt><trkpt lat="30.559348840037828" lon="-5.576923353840627"><ele>1034.0</ele><time>2026-03-25T10:05:30.96Z</time></trkpt><trkpt lat="30.559381136878187" lon="-5.577064666547568"><ele>1034.0</ele><time>2026-03-25T10:05:31.96Z</time></trkpt><trkpt lat="30.55942530010228" lon="-5.577220203042869"><ele>1034.0</ele><time>2026-03-25T10:05:32.96Z</time></trkpt><trkpt lat="30.55948412866664" lon="-5.577376182909527"><ele>1034.0</ele><time>2026-03-25T10:05:33.96Z</time></trkpt><trkpt lat="30.55955786859538" lon="-5.577512873918283"><ele>1034.0</ele><time>2026-03-25T10:05:34.96Z</time></trkpt><trkpt lat="30.5596435228006" lon="-5.577637244839771"><ele>1034.0</ele><time>2026-03-25T10:05:35.96Z</time></trkpt><trkpt lat="30.559728093692367" lon="-5.577745678180822"><ele>1034.0</ele><time>2026-03-25T10:05:36.96Z</time></trkpt><trkpt lat="30.55981540536242" lon="-5.577857294376231"><ele>1034.0</ele><time>2026-03-25T10:05:37.96Z</time></trkpt><trkpt lat="30.559909782594147" lon="-5.577964592284938"><ele>1034.0</ele><time>2026-03-25T10:05:38.96Z</time></trkpt><trkpt lat="30.56000469610138" lon="-5.57807161670042"><ele>1034.0</ele><time>2026-03-25T10:05:39.96Z</time></trkpt><trkpt lat="30.56011036077815" lon="-5.578182672715483"><ele>1034.0</ele><time>2026-03-25T10:05:40.96Z</time></trkpt><trkpt lat="30.56021023761935" lon="-5.57828772373103"><ele>1034.0</ele><time>2026-03-25T10:05:41.96Z</time></trkpt><trkpt lat="30.56030798944831" lon="-5.578375926544077"><ele>1034.0</ele><time>2026-03-25T10:05:42.96Z</time></trkpt><trkpt lat="30.560411703830006" lon="-5.5784654735705645"><ele>1034.0</ele><time>2026-03-25T10:05:43.96Z</time></trkpt><trkpt lat="30.56051241100402" lon="-5.578552904893155"><ele>1034.0</ele><time>2026-03-25T10:05:44.96Z</time></trkpt><trkpt lat="30.56060554624193" lon="-5.578650526632444"><ele>1033.25</ele><time>2026-03-25T10:05:45.96Z</time></trkpt><trkpt lat="30.56069717189854" lon="-5.57875993057589"><ele>1032.5</ele><time>2026-03-25T10:05:46.96Z</time></trkpt><trkpt lat="30.560796905456204" lon="-5.578879389632795"><ele>1031.75</ele><time>2026-03-25T10:05:47.96Z</time></trkpt><trkpt lat="30.560903595569872" lon="-5.578986899940478"><ele>1031.0</ele><time>2026-03-25T10:05:48.96Z</time></trkpt><trkpt lat="30.561010280227432" lon="-5.579089712109427"><ele>1031.0</ele><time>2026-03-25T10:05:49.96Z</time></trkpt><trkpt lat="30.56112012265913" lon="-5.579186840388651"><ele>1031.0</ele><time>2026-03-25T10:05:50.96Z</time></trkpt><trkpt lat="30.56124143524456" lon="-5.579274498445934"><ele>1031.0</ele><time>2026-03-25T10:05:51.96Z</time></trkpt><trkpt lat="30.561367618502814" lon="-5.579354053222495"><ele>1031.0</ele><time>2026-03-25T10:05:52.96Z</time></trkpt><trkpt lat="30.561504037433476" lon="-5.579430083609536"><ele>1031.0</ele><time>2026-03-25T10:05:53.96Z</time></trkpt><trkpt lat="30.56164005558898" lon="-5.5795029235357285"><ele>1031.0</ele><time>2026-03-25T10:05:54.96Z</time></trkpt><trkpt lat="30.56176907425531" lon="-5.57958164479643"><ele>1031.0</ele><time>2026-03-25T10:05:55.96Z</time></trkpt><trkpt lat="30.561886510396036" lon="-5.57966339696305"><ele>1031.0</ele><time>2026-03-25T10:05:56.96Z</time></trkpt><trkpt lat="30.562006805284483" lon="-5.579754129259344"><ele>1031.0</ele><time>2026-03-25T10:05:57.96Z</time></trkpt><trkpt lat="30.562130000813028" lon="-5.579861132642932"><ele>1031.0</ele><time>2026-03-25T10:05:58.96Z</time></trkpt><trkpt lat="30.562244703677234" lon="-5.579958205287709"><ele>1031.0</ele><time>2026-03-25T10:05:59.96Z</time></trkpt><trkpt lat="30.56237698548857" lon="-5.5800590877374585"><ele>1031.0</ele><time>2026-03-25T10:06:00.96Z</time></trkpt><trkpt lat="30.562505843552433" lon="-5.580161175700224"><ele>1031.0</ele><time>2026-03-25T10:06:01.96Z</time></trkpt><trkpt lat="30.562623261930323" lon="-5.580257143664928"><ele>1031.0</ele><time>2026-03-25T10:06:02.96Z</time></trkpt><trkpt lat="30.56273921956674" lon="-5.580353526647821"><ele>1031.0</ele><time>2026-03-25T10:06:03.96Z</time></trkpt><trkpt lat="30.562858393289375" lon="-5.580433141729528"><ele>1030.25</ele><time>2026-03-25T10:06:04.96Z</time></trkpt><trkpt lat="30.56298128886237" lon="-5.580490931650336"><ele>1029.5</ele><time>2026-03-25T10:06:05.959Z</time></trkpt><trkpt lat="30.563115416771442" lon="-5.580528647109895"><ele>1028.75</ele><time>2026-03-25T10:06:06.959Z</time></trkpt><trkpt lat="30.563249155884982" lon="-5.580577621408137"><ele>1028.0</ele><time>2026-03-25T10:06:07.959Z</time></trkpt><trkpt lat="30.563382931621554" lon="-5.5806509070822745"><ele>1028.0</ele><time>2026-03-25T10:06:08.959Z</time></trkpt><trkpt lat="30.563496763908702" lon="-5.5807272580368705"><ele>1028.0</ele><time>2026-03-25T10:06:09.959Z</time></trkpt><trkpt lat="30.563610096849413" lon="-5.580786432466981"><ele>1028.0</ele><time>2026-03-25T10:06:10.959Z</time></trkpt><trkpt lat="30.563717259044186" lon="-5.580820195257825"><ele>1028.0</ele><time>2026-03-25T10:06:11.959Z</time></trkpt><trkpt lat="30.563806463695574" lon="-5.58082112288196"><ele>1028.6</ele><time>2026-03-25T10:06:12.959Z</time></trkpt><trkpt lat="30.563887301795145" lon="-5.580800163875751"><ele>1029.1999999999998</ele><time>2026-03-25T10:06:13.959Z</time></trkpt><trkpt lat="30.563973697124165" lon="-5.58074454198019"><ele>1029.8</ele><time>2026-03-25T10:06:14.959Z</time></trkpt><trkpt lat="30.564048915073172" lon="-5.580671932946441"><ele>1030.3999999999999</ele><time>2026-03-25T10:06:15.959Z</time></trkpt><trkpt lat="30.56414858789681" lon="-5.580596139400773"><ele>1031.0</ele><time>2026-03-25T10:06:16.959Z</time></trkpt><trkpt lat="30.564278800598764" lon="-5.580559835395475"><ele>1031.0</ele><time>2026-03-25T10:06:17.959Z</time></trkpt><trkpt lat="30.56443847441135" lon="-5.580560882735998"><ele>1031.0</ele><time>2026-03-25T10:06:18.959Z</time></trkpt><trkpt lat="30.564576379342196" lon="-5.580567494309869"><ele>1031.0</ele><time>2026-03-25T10:06:19.959Z</time></trkpt><trkpt lat="30.564685594654232" lon="-5.580546718952642"><ele>1031.0</ele><time>2026-03-25T10:06:20.959Z</time></trkpt><trkpt lat="30.56476717964127" lon="-5.580520912230158"><ele>1030.3333333333335</ele><time>2026-03-25T10:06:21.959Z</time></trkpt><trkpt lat="30.56486202962377" lon="-5.5805027071383995"><ele>1029.6666666666667</ele><time>2026-03-25T10:06:22.959Z</time></trkpt><trkpt lat="30.564947393501154" lon="-5.580498943036469"><ele>1029.0</ele><time>2026-03-25T10:06:23.959Z</time></trkpt><trkpt lat="30.56503261691796" lon="-5.5805396006942605"><ele>1028.3333333333333</ele><time>2026-03-25T10:06:25.959Z</time></trkpt><trkpt lat="30.565094725526002" lon="-5.580586941766837"><ele>1027.6666666666665</ele><time>2026-03-25T10:06:27.959Z</time></trkpt><trkpt lat="30.565182005316885" lon="-5.5806464601185946"><ele>1027.0</ele><time>2026-03-25T10:06:29.959Z</time></trkpt><trkpt lat="30.565257850244414" lon="-5.580687741017095"><ele>1027.0</ele><time>2026-03-25T10:06:31.959Z</time></trkpt><trkpt lat="30.565333409023886" lon="-5.580734428263064"><ele>1027.0</ele><time>2026-03-25T10:06:34.959Z</time></trkpt><trkpt lat="30.5653925946492" lon="-5.580763291800164"><ele>1027.0</ele><time>2026-03-25T10:06:37.96Z</time></trkpt><trkpt lat="30.56545993492078" lon="-5.580823241143021"><ele>1027.0</ele><time>2026-03-25T10:08:49.959Z</time></trkpt><trkpt lat="30.56554337672722" lon="-5.580791694061601"><ele>1027.0</ele><time>2026-03-25T10:08:52.959Z</time></trkpt><trkpt lat="30.565561185141803" lon="-5.580677933046035"><ele>1027.0</ele><time>2026-03-25T10:08:54.959Z</time></trkpt><trkpt lat="30.565511845989217" lon="-5.580585851869474"><ele>1026.7142857142858</ele><time>2026-03-25T10:08:56.959Z</time></trkpt><trkpt lat="30.56547053637758" lon="-5.580523627570738"><ele>1026.4285714285716</ele><time>2026-03-25T10:08:58.959Z</time></trkpt><trkpt lat="30.565518056309458" lon="-5.580581694405227"><ele>1026.142857142857</ele><time>2026-03-25T10:09:14.959Z</time></trkpt><trkpt lat="30.56548375038409" lon="-5.580669082635197"><ele>1025.857142857143</ele><time>2026-03-25T10:09:27.959Z</time></trkpt><trkpt lat="30.565439000819712" lon="-5.580723394623574"><ele>1025.5714285714284</ele><time>2026-03-25T10:09:29.959Z</time></trkpt><trkpt lat="30.565435216973714" lon="-5.580803570289889"><ele>1025.2857142857142</ele><time>2026-03-25T10:09:34.959Z</time></trkpt><trkpt lat="30.56544736415888" lon="-5.580731334631057"><ele>1025.0</ele><time>2026-03-25T10:11:15.958Z</time></trkpt><trkpt lat="30.56546788102518" lon="-5.5808230269981545"><ele>1025.0</ele><time>2026-03-25T10:12:29.958Z</time></trkpt><trkpt lat="30.565524413237693" lon="-5.580864401737029"><ele>1025.0</ele><time>2026-03-25T10:12:30.958Z</time></trkpt><trkpt lat="30.565618598506408" lon="-5.580913494164753"><ele>1025.0</ele><time>2026-03-25T10:12:31.958Z</time></trkpt><trkpt lat="30.565759435191765" lon="-5.580981034340359"><ele>1025.0</ele><time>2026-03-25T10:12:32.958Z</time></trkpt><trkpt lat="30.565929300531085" lon="-5.581054323657191"><ele>1025.0</ele><time>2026-03-25T10:12:33.958Z</time></trkpt><trkpt lat="30.566092213206026" lon="-5.581130685763259"><ele>1025.0</ele><time>2026-03-25T10:12:34.958Z</time></trkpt><trkpt lat="30.56621036037752" lon="-5.581200439789303"><ele>1025.0</ele><time>2026-03-25T10:12:35.958Z</time></trkpt><trkpt lat="30.566308099307108" lon="-5.581284699505822"><ele>1025.0</ele><time>2026-03-25T10:12:36.958Z</time></trkpt><trkpt lat="30.566406047652496" lon="-5.581391900419286"><ele>1025.0</ele><time>2026-03-25T10:12:37.958Z</time></trkpt><trkpt lat="30.566524484692913" lon="-5.581515776652764"><ele>1025.0</ele><time>2026-03-25T10:12:38.957Z</time></trkpt><trkpt lat="30.566644578224007" lon="-5.581652100503208"><ele>1025.0</ele><time>2026-03-25T10:12:39.957Z</time></trkpt><trkpt lat="30.566746256142252" lon="-5.581754621999615"><ele>1025.0</ele><time>2026-03-25T10:12:40.957Z</time></trkpt><trkpt lat="30.566831026940548" lon="-5.581822663367682"><ele>1025.0</ele><time>2026-03-25T10:12:41.957Z</time></trkpt><trkpt lat="30.566929678327128" lon="-5.581884730172448"><ele>1025.0</ele><time>2026-03-25T10:12:42.957Z</time></trkpt><trkpt lat="30.567044174587966" lon="-5.581911779860047"><ele>1025.0</ele><time>2026-03-25T10:12:43.957Z</time></trkpt><trkpt lat="30.56718031015387" lon="-5.5819365176969145"><ele>1025.0</ele><time>2026-03-25T10:12:44.957Z</time></trkpt><trkpt lat="30.56733205265886" lon="-5.581973665358667"><ele>1025.0</ele><time>2026-03-25T10:12:45.957Z</time></trkpt><trkpt lat="30.56749098126962" lon="-5.58200969349225"><ele>1025.0</ele><time>2026-03-25T10:12:46.957Z</time></trkpt><trkpt lat="30.56761046179892" lon="-5.582039247936999"><ele>1025.0</ele><time>2026-03-25T10:12:47.957Z</time></trkpt><trkpt lat="30.567730066469476" lon="-5.582098882831523"><ele>1025.0</ele><time>2026-03-25T10:12:48.957Z</time></trkpt><trkpt lat="30.567851602088794" lon="-5.582201506033922"><ele>1025.0</ele><time>2026-03-25T10:12:49.957Z</time></trkpt><trkpt lat="30.56793277374442" lon="-5.582323596143696"><ele>1025.0</ele><time>2026-03-25T10:12:50.957Z</time></trkpt><trkpt lat="30.567984722897325" lon="-5.582490295775877"><ele>1025.0</ele><time>2026-03-25T10:12:51.957Z</time></trkpt><trkpt lat="30.568015303065128" lon="-5.582701950015506"><ele>1024.6666666666667</ele><time>2026-03-25T10:12:52.957Z</time></trkpt><trkpt lat="30.568059677836764" lon="-5.5829198505727655"><ele>1024.3333333333333</ele><time>2026-03-25T10:12:53.957Z</time></trkpt><trkpt lat="30.5680959065534" lon="-5.583146175240831"><ele>1024.0</ele><time>2026-03-25T10:12:54.957Z</time></trkpt><trkpt lat="30.56814462354606" lon="-5.583360352260011"><ele>1024.0</ele><time>2026-03-25T10:12:55.958Z</time></trkpt><trkpt lat="30.568196857843425" lon="-5.5835430760777545"><ele>1024.0</ele><time>2026-03-25T10:12:56.957Z</time></trkpt><trkpt lat="30.568241927335244" lon="-5.583704484879289"><ele>1024.0</ele><time>2026-03-25T10:12:57.957Z</time></trkpt><trkpt lat="30.568262293234373" lon="-5.583822096397606"><ele>1024.0</ele><time>2026-03-25T10:12:58.958Z</time></trkpt><trkpt lat="30.568282025717973" lon="-5.583908100951619"><ele>1023.0</ele><time>2026-03-25T10:12:59.958Z</time></trkpt><trkpt lat="30.568326927855725" lon="-5.583984807530734"><ele>1022.0000000000001</ele><time>2026-03-25T10:13:00.958Z</time></trkpt><trkpt lat="30.56841016248188" lon="-5.584046936149142"><ele>1021.0000000000001</ele><time>2026-03-25T10:13:01.958Z</time></trkpt><trkpt lat="30.568500540968287" lon="-5.584137214014466"><ele>1020.0</ele><time>2026-03-25T10:13:02.957Z</time></trkpt><trkpt lat="30.568581972387033" lon="-5.584249191166287"><ele>1019.0</ele><time>2026-03-25T10:13:03.957Z</time></trkpt><trkpt lat="30.56865698338547" lon="-5.584355695125879"><ele>1019.6</ele><time>2026-03-25T10:13:04.958Z</time></trkpt><trkpt lat="30.568725361697236" lon="-5.584426131538008"><ele>1020.2</ele><time>2026-03-25T10:13:05.957Z</time></trkpt><trkpt lat="30.56880374634654" lon="-5.584485155516579"><ele>1020.8000000000001</ele><time>2026-03-25T10:13:06.957Z</time></trkpt><trkpt lat="30.56889255566558" lon="-5.58453172289226"><ele>1021.4000000000001</ele><time>2026-03-25T10:13:07.958Z</time></trkpt><trkpt lat="30.568976149030988" lon="-5.584559823422509"><ele>1022.0</ele><time>2026-03-25T10:13:08.958Z</time></trkpt><trkpt lat="30.569066978379457" lon="-5.584611772214111"><ele>1022.2</ele><time>2026-03-25T10:13:09.958Z</time></trkpt><trkpt lat="30.56915891237179" lon="-5.584649462265973"><ele>1022.4000000000001</ele><time>2026-03-25T10:13:10.958Z</time></trkpt><trkpt lat="30.569237982869776" lon="-5.5847210640800204"><ele>1022.5999999999999</ele><time>2026-03-25T10:13:11.958Z</time></trkpt><trkpt lat="30.56929065356024" lon="-5.5848167339490695"><ele>1022.8</ele><time>2026-03-25T10:13:12.958Z</time></trkpt><trkpt lat="30.569321816889417" lon="-5.584939062924387"><ele>1023.0</ele><time>2026-03-25T10:13:13.958Z</time></trkpt><trkpt lat="30.569344650532095" lon="-5.585084158092208"><ele>1023.0</ele><time>2026-03-25T10:13:14.958Z</time></trkpt><trkpt lat="30.569369344183233" lon="-5.585217415695629"><ele>1023.0</ele><time>2026-03-25T10:13:15.958Z</time></trkpt><trkpt lat="30.569403704394997" lon="-5.58534677933165"><ele>1023.0</ele><time>2026-03-25T10:13:16.958Z</time></trkpt><trkpt lat="30.56944108057669" lon="-5.58546390313335"><ele>1023.0</ele><time>2026-03-25T10:13:17.958Z</time></trkpt><trkpt lat="30.56947486072796" lon="-5.585590074082589"><ele>1022.5999999999999</ele><time>2026-03-25T10:13:18.958Z</time></trkpt><trkpt lat="30.569488972841903" lon="-5.5857023629956615"><ele>1022.1999999999999</ele><time>2026-03-25T10:13:19.958Z</time></trkpt><trkpt lat="30.569494607811" lon="-5.5858022591341125"><ele>1021.8</ele><time>2026-03-25T10:13:20.958Z</time></trkpt><trkpt lat="30.56948385068082" lon="-5.585919537711804"><ele>1021.4</ele><time>2026-03-25T10:13:21.958Z</time></trkpt><trkpt lat="30.569467637530803" lon="-5.586026347351052"><ele>1021.0</ele><time>2026-03-25T10:13:22.958Z</time></trkpt><trkpt lat="30.56946146042513" lon="-5.586117697993789"><ele>1020.8</ele><time>2026-03-25T10:13:23.958Z</time></trkpt><trkpt lat="30.569463706893362" lon="-5.586201159146816"><ele>1020.5999999999999</ele><time>2026-03-25T10:13:24.958Z</time></trkpt><trkpt lat="30.569450966248123" lon="-5.586323717819952"><ele>1020.4</ele><time>2026-03-25T10:13:25.958Z</time></trkpt><trkpt lat="30.56942761666966" lon="-5.586447388498115"><ele>1020.2</ele><time>2026-03-25T10:13:26.958Z</time></trkpt><trkpt lat="30.569394632999924" lon="-5.586567575136328"><ele>1020.0</ele><time>2026-03-25T10:13:27.958Z</time></trkpt><trkpt lat="30.569370751603916" lon="-5.58666922499006"><ele>1020.0</ele><time>2026-03-25T10:13:28.958Z</time></trkpt><trkpt lat="30.56937330267037" lon="-5.586749134065175"><ele>1020.0</ele><time>2026-03-25T10:13:29.958Z</time></trkpt><trkpt lat="30.569385815357734" lon="-5.5868332836530605"><ele>1020.0</ele><time>2026-03-25T10:13:30.958Z</time></trkpt><trkpt lat="30.569405813673495" lon="-5.586907844243694"><ele>1020.0</ele><time>2026-03-25T10:13:31.958Z</time></trkpt><trkpt lat="30.56943718217734" lon="-5.587008334377985"><ele>1020.0</ele><time>2026-03-25T10:13:32.958Z</time></trkpt><trkpt lat="30.569478014675088" lon="-5.587125575457596"><ele>1020.0</ele><time>2026-03-25T10:13:33.958Z</time></trkpt><trkpt lat="30.56950728046546" lon="-5.587268495791595"><ele>1019.8</ele><time>2026-03-25T10:13:34.958Z</time></trkpt><trkpt lat="30.569525146369404" lon="-5.587409951553732"><ele>1019.6</ele><time>2026-03-25T10:13:35.958Z</time></trkpt><trkpt lat="30.569533749406343" lon="-5.587525232893899"><ele>1019.4000000000001</ele><time>2026-03-25T10:13:36.958Z</time></trkpt><trkpt lat="30.569558435707872" lon="-5.587628780798995"><ele>1019.2</ele><time>2026-03-25T10:13:37.958Z</time></trkpt><trkpt lat="30.56958759022296" lon="-5.587727083845261"><ele>1019.0</ele><time>2026-03-25T10:13:38.958Z</time></trkpt><trkpt lat="30.569607685926844" lon="-5.587838619623964"><ele>1018.75</ele><time>2026-03-25T10:13:39.958Z</time></trkpt><trkpt lat="30.569624163624248" lon="-5.587972593967519"><ele>1018.5</ele><time>2026-03-25T10:13:40.958Z</time></trkpt><trkpt lat="30.569640882144164" lon="-5.588109320096651"><ele>1018.25</ele><time>2026-03-25T10:13:41.958Z</time></trkpt><trkpt lat="30.569669618330742" lon="-5.588251121028112"><ele>1018.0</ele><time>2026-03-25T10:13:42.958Z</time></trkpt><trkpt lat="30.569710919911504" lon="-5.5883876626548625"><ele>1018.0</ele><time>2026-03-25T10:13:43.958Z</time></trkpt><trkpt lat="30.569764687294455" lon="-5.5885248110465735"><ele>1018.0</ele><time>2026-03-25T10:13:44.958Z</time></trkpt><trkpt lat="30.56983010314931" lon="-5.588667234333583"><ele>1018.0</ele><time>2026-03-25T10:13:45.958Z</time></trkpt><trkpt lat="30.56989487455227" lon="-5.588806186047606"><ele>1018.0</ele><time>2026-03-25T10:13:46.958Z</time></trkpt><trkpt lat="30.56996567429211" lon="-5.588955475670297"><ele>1017.75</ele><time>2026-03-25T10:13:47.958Z</time></trkpt><trkpt lat="30.570039739949166" lon="-5.5890989395749395"><ele>1017.5</ele><time>2026-03-25T10:13:48.958Z</time></trkpt><trkpt lat="30.570112958329496" lon="-5.589240309664127"><ele>1017.25</ele><time>2026-03-25T10:13:49.958Z</time></trkpt><trkpt lat="30.570186487747268" lon="-5.589376105994374"><ele>1017.0</ele><time>2026-03-25T10:13:50.958Z</time></trkpt><trkpt lat="30.570248449852333" lon="-5.5895049224174205"><ele>1017.25</ele><time>2026-03-25T10:13:51.958Z</time></trkpt><trkpt lat="30.570314751128734" lon="-5.589630128397151"><ele>1017.5</ele><time>2026-03-25T10:13:52.958Z</time></trkpt><trkpt lat="30.5703775218224" lon="-5.589750660166091"><ele>1017.75</ele><time>2026-03-25T10:13:53.958Z</time></trkpt><trkpt lat="30.570439866085973" lon="-5.589862636688356"><ele>1018.0</ele><time>2026-03-25T10:13:54.958Z</time></trkpt><trkpt lat="30.570500181473186" lon="-5.589953250834591"><ele>1018.0</ele><time>2026-03-25T10:13:55.958Z</time></trkpt><trkpt lat="30.570558644802592" lon="-5.590038989726944"><ele>1018.0</ele><time>2026-03-25T10:13:56.958Z</time></trkpt><trkpt lat="30.57060784880157" lon="-5.590130022552682"><ele>1018.0</ele><time>2026-03-25T10:13:57.958Z</time></trkpt><trkpt lat="30.57065165776388" lon="-5.590238657432111"><ele>1018.0</ele><time>2026-03-25T10:13:58.958Z</time></trkpt><trkpt lat="30.570673044319047" lon="-5.59033590793438"><ele>1018.0</ele><time>2026-03-25T10:13:59.958Z</time></trkpt><trkpt lat="30.570683341700924" lon="-5.590428076650729"><ele>1017.8333333333333</ele><time>2026-03-25T10:14:00.958Z</time></trkpt><trkpt lat="30.570686923900052" lon="-5.590529297869087"><ele>1017.6666666666666</ele><time>2026-03-25T10:14:01.958Z</time></trkpt><trkpt lat="30.570679659297348" lon="-5.590633586169472"><ele>1017.5</ele><time>2026-03-25T10:14:02.958Z</time></trkpt><trkpt lat="30.570668225619162" lon="-5.590737975948516"><ele>1017.3333333333333</ele><time>2026-03-25T10:14:03.958Z</time></trkpt><trkpt lat="30.570640248681197" lon="-5.590825524867866"><ele>1017.1666666666666</ele><time>2026-03-25T10:14:04.958Z</time></trkpt><trkpt lat="30.570615114841456" lon="-5.590904143589444"><ele>1017.0</ele><time>2026-03-25T10:14:05.958Z</time></trkpt><trkpt lat="30.57061558500407" lon="-5.591048954658285"><ele>1017.0</ele><time>2026-03-25T10:14:07.958Z</time></trkpt><trkpt lat="30.57063216214303" lon="-5.5911212755707345"><ele>1017.0</ele><time>2026-03-25T10:14:08.958Z</time></trkpt><trkpt lat="30.570640671706183" lon="-5.59125201548346"><ele>1017.0</ele><time>2026-03-25T10:14:10.958Z</time></trkpt><trkpt lat="30.570631717056525" lon="-5.591334716006244"><ele>1017.0</ele><time>2026-03-25T10:14:11.958Z</time></trkpt><trkpt lat="30.570634434811037" lon="-5.591439365030191"><ele>1017.0</ele><time>2026-03-25T10:14:12.958Z</time></trkpt><trkpt lat="30.570656697244065" lon="-5.591555472801024"><ele>1017.0</ele><time>2026-03-25T10:14:13.958Z</time></trkpt><trkpt lat="30.5706831395689" lon="-5.591653522562264"><ele>1016.6</ele><time>2026-03-25T10:14:14.958Z</time></trkpt><trkpt lat="30.5706914556237" lon="-5.591757399086969"><ele>1016.2</ele><time>2026-03-25T10:14:15.958Z</time></trkpt><trkpt lat="30.57069317002938" lon="-5.591876366857638"><ele>1015.8</ele><time>2026-03-25T10:14:16.958Z</time></trkpt><trkpt lat="30.570691901372125" lon="-5.59198660861508"><ele>1015.4</ele><time>2026-03-25T10:14:17.958Z</time></trkpt><trkpt lat="30.570702358513934" lon="-5.592083315510047"><ele>1015.0</ele><time>2026-03-25T10:14:18.958Z</time></trkpt><trkpt lat="30.57071833859994" lon="-5.592185841904798"><ele>1015.0</ele><time>2026-03-25T10:14:19.958Z</time></trkpt><trkpt lat="30.570735980871735" lon="-5.592283212230007"><ele>1015.0</ele><time>2026-03-25T10:14:20.958Z</time></trkpt><trkpt lat="30.570753067984064" lon="-5.592384097798887"><ele>1015.0</ele><time>2026-03-25T10:14:21.958Z</time></trkpt><trkpt lat="30.570774837375446" lon="-5.592495447889254"><ele>1015.0</ele><time>2026-03-25T10:14:22.958Z</time></trkpt><trkpt lat="30.570790885606907" lon="-5.592600027559799"><ele>1015.0</ele><time>2026-03-25T10:14:23.958Z</time></trkpt><trkpt lat="30.570797069348043" lon="-5.592714419809366"><ele>1015.0</ele><time>2026-03-25T10:14:24.958Z</time></trkpt><trkpt lat="30.5708100606016" lon="-5.592824252352706"><ele>1015.0</ele><time>2026-03-25T10:14:25.958Z</time></trkpt><trkpt lat="30.570841746171993" lon="-5.592928237408458"><ele>1015.0</ele><time>2026-03-25T10:14:26.958Z</time></trkpt><trkpt lat="30.57088614353195" lon="-5.593025603231302"><ele>1015.0</ele><time>2026-03-25T10:14:27.958Z</time></trkpt><trkpt lat="30.570934788298178" lon="-5.593126640762637"><ele>1015.0</ele><time>2026-03-25T10:14:28.958Z</time></trkpt><trkpt lat="30.570993018617074" lon="-5.593211189072493"><ele>1015.0</ele><time>2026-03-25T10:14:29.958Z</time></trkpt><trkpt lat="30.571051050060564" lon="-5.593296961197647"><ele>1015.0</ele><time>2026-03-25T10:14:30.958Z</time></trkpt><trkpt lat="30.57110932434515" lon="-5.5933904895976605"><ele>1015.0</ele><time>2026-03-25T10:14:31.958Z</time></trkpt><trkpt lat="30.571162737570685" lon="-5.593494383110234"><ele>1015.0</ele><time>2026-03-25T10:14:32.958Z</time></trkpt><trkpt lat="30.57121664754387" lon="-5.593598860802112"><ele>1015.0</ele><time>2026-03-25T10:14:33.958Z</time></trkpt><trkpt lat="30.571262436792257" lon="-5.593683845620117"><ele>1014.4999999999999</ele><time>2026-03-25T10:14:34.958Z</time></trkpt><trkpt lat="30.571283127408286" lon="-5.593759946489997"><ele>1014.0</ele><time>2026-03-25T10:14:35.958Z</time></trkpt><trkpt lat="30.571312257107532" lon="-5.593833368063872"><ele>1013.5</ele><time>2026-03-25T10:14:36.958Z</time></trkpt><trkpt lat="30.571348999371978" lon="-5.5939122035140345"><ele>1013.0</ele><time>2026-03-25T10:14:37.958Z</time></trkpt><trkpt lat="30.571407849490683" lon="-5.593983269472407"><ele>1012.4999999999999</ele><time>2026-03-25T10:14:38.958Z</time></trkpt><trkpt lat="30.57148380319026" lon="-5.5940348635961605"><ele>1012.0</ele><time>2026-03-25T10:14:39.958Z</time></trkpt><trkpt lat="30.571571590564314" lon="-5.594095252064869"><ele>1012.0</ele><time>2026-03-25T10:14:40.958Z</time></trkpt><trkpt lat="30.57166376927691" lon="-5.594157310562282"><ele>1012.0</ele><time>2026-03-25T10:14:41.958Z</time></trkpt><trkpt lat="30.571746491442116" lon="-5.594223688902869"><ele>1012.0</ele><time>2026-03-25T10:14:42.958Z</time></trkpt><trkpt lat="30.571831343333162" lon="-5.594296501013882"><ele>1012.0</ele><time>2026-03-25T10:14:43.958Z</time></trkpt><trkpt lat="30.571917895161235" lon="-5.594361622778115"><ele>1012.0</ele><time>2026-03-25T10:14:44.958Z</time></trkpt><trkpt lat="30.57202985000558" lon="-5.5944210443692794"><ele>1011.8</ele><time>2026-03-25T10:14:45.958Z</time></trkpt><trkpt lat="30.572136531027226" lon="-5.59447993260293"><ele>1011.6</ele><time>2026-03-25T10:14:46.958Z</time></trkpt><trkpt lat="30.572227577401307" lon="-5.594539545805831"><ele>1011.3999999999999</ele><time>2026-03-25T10:14:47.958Z</time></trkpt><trkpt lat="30.572312068217567" lon="-5.594579691180966"><ele>1011.1999999999999</ele><time>2026-03-25T10:14:48.958Z</time></trkpt><trkpt lat="30.572411708600292" lon="-5.594594999340633"><ele>1011.0</ele><time>2026-03-25T10:14:49.958Z</time></trkpt><trkpt lat="30.572508466979624" lon="-5.594580809741696"><ele>1011.0</ele><time>2026-03-25T10:14:50.958Z</time></trkpt><trkpt lat="30.57260345172092" lon="-5.594573014437675"><ele>1011.0</ele><time>2026-03-25T10:14:51.958Z</time></trkpt><trkpt lat="30.572701204935452" lon="-5.594576429542824"><ele>1011.0</ele><time>2026-03-25T10:14:52.958Z</time></trkpt><trkpt lat="30.572823370387983" lon="-5.594611938401673"><ele>1011.0</ele><time>2026-03-25T10:14:53.958Z</time></trkpt><trkpt lat="30.57294626601061" lon="-5.594678464254566"><ele>1010.8</ele><time>2026-03-25T10:14:54.958Z</time></trkpt><trkpt lat="30.57305413124304" lon="-5.594738595126985"><ele>1010.5999999999999</ele><time>2026-03-25T10:14:55.958Z</time></trkpt><trkpt lat="30.573156731451657" lon="-5.594766375843296"><ele>1010.4</ele><time>2026-03-25T10:14:56.958Z</time></trkpt><trkpt lat="30.573261717723874" lon="-5.594789848783772"><ele>1010.2</ele><time>2026-03-25T10:14:57.958Z</time></trkpt><trkpt lat="30.57336516904268" lon="-5.594814530089509"><ele>1010.0</ele><time>2026-03-25T10:14:58.958Z</time></trkpt><trkpt lat="30.573459705109826" lon="-5.59485422351766"><ele>1010.0</ele><time>2026-03-25T10:14:59.958Z</time></trkpt><trkpt lat="30.573544318326203" lon="-5.594908606835491"><ele>1010.0</ele><time>2026-03-25T10:15:00.958Z</time></trkpt><trkpt lat="30.573626720347622" lon="-5.594976044762493"><ele>1010.0</ele><time>2026-03-25T10:15:01.957Z</time></trkpt><trkpt lat="30.573710568656224" lon="-5.595033161647578"><ele>1010.0</ele><time>2026-03-25T10:15:02.957Z</time></trkpt><trkpt lat="30.57379839256516" lon="-5.595098367379718"><ele>1010.0</ele><time>2026-03-25T10:15:03.957Z</time></trkpt><trkpt lat="30.573922640363953" lon="-5.595162051363285"><ele>1010.4</ele><time>2026-03-25T10:15:04.957Z</time></trkpt><trkpt lat="30.574042103380236" lon="-5.595217756736387"><ele>1010.8</ele><time>2026-03-25T10:15:05.957Z</time></trkpt><trkpt lat="30.57410846312415" lon="-5.595265434542273"><ele>1011.2</ele><time>2026-03-25T10:15:06.957Z</time></trkpt><trkpt lat="30.574166893978216" lon="-5.595371578512501"><ele>1011.6</ele><time>2026-03-25T10:15:08.957Z</time></trkpt><trkpt lat="30.57420636386855" lon="-5.595473301521665"><ele>1012.0</ele><time>2026-03-25T10:15:10.957Z</time></trkpt><trkpt lat="30.574232532903856" lon="-5.595558139776506"><ele>1012.2</ele><time>2026-03-25T10:15:12.957Z</time></trkpt><trkpt lat="30.57428427572621" lon="-5.595643541219592"><ele>1012.4000000000001</ele><time>2026-03-25T10:15:14.957Z</time></trkpt><trkpt lat="30.57433474427731" lon="-5.595747292068945"><ele>1012.5999999999999</ele><time>2026-03-25T10:15:16.957Z</time></trkpt><trkpt lat="30.574409175057994" lon="-5.59585402811284"><ele>1012.8</ele><time>2026-03-25T10:15:18.957Z</time></trkpt><trkpt lat="30.574454078614135" lon="-5.59592102559044"><ele>1013.0</ele><time>2026-03-25T10:15:19.957Z</time></trkpt><trkpt lat="30.574496228268096" lon="-5.595991792188073"><ele>1013.1666666666667</ele><time>2026-03-25T10:15:20.957Z</time></trkpt><trkpt lat="30.574535366709057" lon="-5.596074531994329"><ele>1013.3333333333334</ele><time>2026-03-25T10:15:21.957Z</time></trkpt><trkpt lat="30.57456431735925" lon="-5.596159353314119"><ele>1013.5</ele><time>2026-03-25T10:15:22.957Z</time></trkpt><trkpt lat="30.574585415730244" lon="-5.596262548898911"><ele>1013.6666666666667</ele><time>2026-03-25T10:15:23.957Z</time></trkpt><trkpt lat="30.574604771248627" lon="-5.59637514494808"><ele>1013.8333333333334</ele><time>2026-03-25T10:15:24.957Z</time></trkpt><trkpt lat="30.57462533101156" lon="-5.596479869303571"><ele>1014.0</ele><time>2026-03-25T10:15:25.957Z</time></trkpt><trkpt lat="30.574659312639984" lon="-5.596584441156121"><ele>1014.0</ele><time>2026-03-25T10:15:26.957Z</time></trkpt><trkpt lat="30.574697985259125" lon="-5.596682139893065"><ele>1014.0000000000001</ele><time>2026-03-25T10:15:27.957Z</time></trkpt><trkpt lat="30.574744595758403" lon="-5.596774652248088"><ele>1014.0000000000001</ele><time>2026-03-25T10:15:28.957Z</time></trkpt><trkpt lat="30.57480713895132" lon="-5.596854404542447"><ele>1014.0</ele><time>2026-03-25T10:15:29.957Z</time></trkpt><trkpt lat="30.574877067134846" lon="-5.596941482955009"><ele>1014.0</ele><time>2026-03-25T10:15:30.957Z</time></trkpt><trkpt lat="30.574953505323943" lon="-5.597017696181116"><ele>1013.0</ele><time>2026-03-25T10:15:31.957Z</time></trkpt><trkpt lat="30.575045725937574" lon="-5.597100044040836"><ele>1012.0</ele><time>2026-03-25T10:15:32.957Z</time></trkpt><trkpt lat="30.575152948355782" lon="-5.597217170943924"><ele>1011.0</ele><time>2026-03-25T10:15:33.957Z</time></trkpt><trkpt lat="30.57524092884862" lon="-5.597327981992691"><ele>1010.0</ele><time>2026-03-25T10:15:34.957Z</time></trkpt><trkpt lat="30.575313273323427" lon="-5.597424468662936"><ele>1010.0000000000001</ele><time>2026-03-25T10:15:35.957Z</time></trkpt><trkpt lat="30.575385778491402" lon="-5.597519937541294"><ele>1010.0</ele><time>2026-03-25T10:15:36.957Z</time></trkpt><trkpt lat="30.575447518699157" lon="-5.597591282461078"><ele>1010.0</ele><time>2026-03-25T10:15:37.957Z</time></trkpt><trkpt lat="30.575506530679974" lon="-5.59765687758343"><ele>1010.0</ele><time>2026-03-25T10:15:38.957Z</time></trkpt><trkpt lat="30.575556912834603" lon="-5.597720132635326"><ele>1010.0000000000001</ele><time>2026-03-25T10:15:39.957Z</time></trkpt><trkpt lat="30.57559385258852" lon="-5.59778203599504"><ele>1010.0</ele><time>2026-03-25T10:15:40.957Z</time></trkpt><trkpt lat="30.575624856389734" lon="-5.597857554944171"><ele>1010.0000000000001</ele><time>2026-03-25T10:15:41.957Z</time></trkpt><trkpt lat="30.57565609140395" lon="-5.597938753154767"><ele>1010.0</ele><time>2026-03-25T10:15:42.957Z</time></trkpt><trkpt lat="30.57567225728073" lon="-5.598033457806397"><ele>1010.0</ele><time>2026-03-25T10:15:43.957Z</time></trkpt><trkpt lat="30.57567593399163" lon="-5.59813114918776"><ele>1010.0</ele><time>2026-03-25T10:15:44.957Z</time></trkpt><trkpt lat="30.575680812388114" lon="-5.5982455752463816"><ele>1010.0000000000001</ele><time>2026-03-25T10:15:45.957Z</time></trkpt><trkpt lat="30.57569584032941" lon="-5.598345908081069"><ele>1010.0</ele><time>2026-03-25T10:15:46.957Z</time></trkpt><trkpt lat="30.57573802164747" lon="-5.598454951479847"><ele>1010.0000000000001</ele><time>2026-03-25T10:15:47.957Z</time></trkpt><trkpt lat="30.575794944080886" lon="-5.598532663982045"><ele>1010.0</ele><time>2026-03-25T10:15:48.957Z</time></trkpt><trkpt lat="30.57585858783935" lon="-5.598613237392056"><ele>1010.0</ele><time>2026-03-25T10:15:49.957Z</time></trkpt><trkpt lat="30.575923869312092" lon="-5.598685088389861"><ele>1010.0</ele><time>2026-03-25T10:15:50.957Z</time></trkpt><trkpt lat="30.57597032062138" lon="-5.598746899680855"><ele>1010.0000000000001</ele><time>2026-03-25T10:15:51.957Z</time></trkpt><trkpt lat="30.576020252986897" lon="-5.598824887478407"><ele>1010.0</ele><time>2026-03-25T10:15:52.956Z</time></trkpt><trkpt lat="30.576066399489847" lon="-5.598907909330547"><ele>1009.6666666666667</ele><time>2026-03-25T10:15:53.956Z</time></trkpt><trkpt lat="30.576096765214835" lon="-5.59901012404593"><ele>1009.3333333333334</ele><time>2026-03-25T10:15:54.956Z</time></trkpt><trkpt lat="30.57611905422418" lon="-5.599107846547834"><ele>1009.0</ele><time>2026-03-25T10:15:55.956Z</time></trkpt><trkpt lat="30.576139700758027" lon="-5.599202240000507"><ele>1008.6666666666667</ele><time>2026-03-25T10:15:56.956Z</time></trkpt><trkpt lat="30.5761543997162" lon="-5.599295740117088"><ele>1008.3333333333334</ele><time>2026-03-25T10:15:57.956Z</time></trkpt><trkpt lat="30.57616979143897" lon="-5.599395000303551"><ele>1008.0</ele><time>2026-03-25T10:15:58.956Z</time></trkpt><trkpt lat="30.576176794114797" lon="-5.599507222018056"><ele>1007.4</ele><time>2026-03-25T10:15:59.956Z</time></trkpt><trkpt lat="30.57617611068369" lon="-5.599648978629103"><ele>1006.8</ele><time>2026-03-25T10:16:00.956Z</time></trkpt><trkpt lat="30.576161054127052" lon="-5.599769705483478"><ele>1006.2</ele><time>2026-03-25T10:16:01.956Z</time></trkpt><trkpt lat="30.57615065973511" lon="-5.599867999400655"><ele>1005.6</ele><time>2026-03-25T10:16:02.956Z</time></trkpt><trkpt lat="30.57615397789813" lon="-5.599962959235594"><ele>1005.0</ele><time>2026-03-25T10:16:03.956Z</time></trkpt><trkpt lat="30.57618489061653" lon="-5.60008300575329"><ele>1005.25</ele><time>2026-03-25T10:16:04.956Z</time></trkpt><trkpt lat="30.576254452610083" lon="-5.600212270339006"><ele>1005.5</ele><time>2026-03-25T10:16:05.956Z</time></trkpt><trkpt lat="30.576335157332707" lon="-5.600327001401527"><ele>1005.75</ele><time>2026-03-25T10:16:06.956Z</time></trkpt><trkpt lat="30.576405695930696" lon="-5.600419102937518"><ele>1006.0</ele><time>2026-03-25T10:16:07.956Z</time></trkpt><trkpt lat="30.576472857342235" lon="-5.6004977966349285"><ele>1005.4</ele><time>2026-03-25T10:16:08.956Z</time></trkpt><trkpt lat="30.576538462442397" lon="-5.600571894724616"><ele>1004.8</ele><time>2026-03-25T10:16:09.956Z</time></trkpt><trkpt lat="30.576605245105423" lon="-5.600667974267678"><ele>1004.1999999999999</ele><time>2026-03-25T10:16:10.956Z</time></trkpt><trkpt lat="30.576676876643774" lon="-5.600775428759636"><ele>1003.5999999999999</ele><time>2026-03-25T10:16:11.956Z</time></trkpt><trkpt lat="30.57675847489445" lon="-5.600879601061942"><ele>1003.0</ele><time>2026-03-25T10:16:12.956Z</time></trkpt><trkpt lat="30.576848276178623" lon="-5.600941183227793"><ele>1003.0</ele><time>2026-03-25T10:16:13.956Z</time></trkpt><trkpt lat="30.57692136024426" lon="-5.601013477115558"><ele>1003.0</ele><time>2026-03-25T10:16:14.956Z</time></trkpt><trkpt lat="30.576990893329217" lon="-5.601095349367116"><ele>1003.0</ele><time>2026-03-25T10:16:15.956Z</time></trkpt><trkpt lat="30.577069230110656" lon="-5.601171920308202"><ele>1003.0</ele><time>2026-03-25T10:16:16.956Z</time></trkpt><trkpt lat="30.577159960555356" lon="-5.6012406851233045"><ele>1003.0</ele><time>2026-03-25T10:16:17.956Z</time></trkpt><trkpt lat="30.577242756459224" lon="-5.6013128931330245"><ele>1002.4</ele><time>2026-03-25T10:16:18.956Z</time></trkpt><trkpt lat="30.57732579782579" lon="-5.601392971337952"><ele>1001.8</ele><time>2026-03-25T10:16:19.956Z</time></trkpt><trkpt lat="30.57740770605701" lon="-5.601469811974727"><ele>1001.2</ele><time>2026-03-25T10:16:20.956Z</time></trkpt><trkpt lat="30.57749143941103" lon="-5.601553998471309"><ele>1000.6</ele><time>2026-03-25T10:16:21.956Z</time></trkpt><trkpt lat="30.577571528514273" lon="-5.601631133741721"><ele>1000.0</ele><time>2026-03-25T10:16:22.956Z</time></trkpt><trkpt lat="30.57765986560555" lon="-5.601677658560421"><ele>1000.0</ele><time>2026-03-25T10:16:23.956Z</time></trkpt><trkpt lat="30.5777594124493" lon="-5.601717285081192"><ele>1000.0</ele><time>2026-03-25T10:16:24.956Z</time></trkpt><trkpt lat="30.577856424789307" lon="-5.6017458200232095"><ele>1000.0</ele><time>2026-03-25T10:16:25.956Z</time></trkpt><trkpt lat="30.57795791773712" lon="-5.601786866689528"><ele>1000.0</ele><time>2026-03-25T10:16:26.956Z</time></trkpt><trkpt lat="30.578055481577408" lon="-5.601837755018375"><ele>1000.0</ele><time>2026-03-25T10:16:27.956Z</time></trkpt><trkpt lat="30.578152886839224" lon="-5.60190073810066"><ele>1000.2</ele><time>2026-03-25T10:16:28.956Z</time></trkpt><trkpt lat="30.578224430145074" lon="-5.60197452498577"><ele>1000.4</ele><time>2026-03-25T10:16:29.956Z</time></trkpt><trkpt lat="30.578323724193094" lon="-5.602068254183294"><ele>1000.5999999999999</ele><time>2026-03-25T10:16:30.956Z</time></trkpt><trkpt lat="30.57841069488775" lon="-5.602141427242439"><ele>1000.8</ele><time>2026-03-25T10:16:31.956Z</time></trkpt><trkpt lat="30.578495395307474" lon="-5.6022022967798994"><ele>1001.0</ele><time>2026-03-25T10:16:32.956Z</time></trkpt><trkpt lat="30.578577552391156" lon="-5.6022536506779135"><ele>1001.0</ele><time>2026-03-25T10:16:33.956Z</time></trkpt><trkpt lat="30.578666452948635" lon="-5.602304771998421"><ele>1000.9999999999999</ele><time>2026-03-25T10:16:34.956Z</time></trkpt><trkpt lat="30.578762036970012" lon="-5.602364888641377"><ele>1000.9999999999999</ele><time>2026-03-25T10:16:35.956Z</time></trkpt><trkpt lat="30.578870179252448" lon="-5.6024269975347805"><ele>1001.0</ele><time>2026-03-25T10:16:36.956Z</time></trkpt><trkpt lat="30.5789628411548" lon="-5.602482089248136"><ele>1001.0</ele><time>2026-03-25T10:16:37.956Z</time></trkpt><trkpt lat="30.579047625774958" lon="-5.602554611901101"><ele>1001.0</ele><time>2026-03-25T10:16:38.956Z</time></trkpt><trkpt lat="30.579147978276318" lon="-5.602632584793137"><ele>1000.9999999999999</ele><time>2026-03-25T10:16:39.956Z</time></trkpt><trkpt lat="30.579239190484774" lon="-5.60270431384573"><ele>1000.9999999999999</ele><time>2026-03-25T10:16:40.956Z</time></trkpt><trkpt lat="30.57931692510822" lon="-5.602782733778118"><ele>1001.0</ele><time>2026-03-25T10:16:41.956Z</time></trkpt><trkpt lat="30.579381098190048" lon="-5.602864175019264"><ele>1001.0</ele><time>2026-03-25T10:16:42.956Z</time></trkpt><trkpt lat="30.579434315155034" lon="-5.602944389288147"><ele>1000.6666666666667</ele><time>2026-03-25T10:16:43.956Z</time></trkpt><trkpt lat="30.579485036624607" lon="-5.603019859422276"><ele>1000.3333333333334</ele><time>2026-03-25T10:16:44.956Z</time></trkpt><trkpt lat="30.579542395969447" lon="-5.603099296946832"><ele>1000.0</ele><time>2026-03-25T10:16:45.956Z</time></trkpt><trkpt lat="30.57960223534433" lon="-5.603169466142661"><ele>999.6666666666667</ele><time>2026-03-25T10:16:46.956Z</time></trkpt><trkpt lat="30.579674864964915" lon="-5.603224191743822"><ele>999.3333333333334</ele><time>2026-03-25T10:16:47.956Z</time></trkpt><trkpt lat="30.579754598283685" lon="-5.603263604537942"><ele>999.0</ele><time>2026-03-25T10:16:48.956Z</time></trkpt><trkpt lat="30.57983535634921" lon="-5.603304997728174"><ele>999.0</ele><time>2026-03-25T10:16:49.956Z</time></trkpt><trkpt lat="30.57991399147909" lon="-5.603366606527515"><ele>999.0000000000001</ele><time>2026-03-25T10:16:50.956Z</time></trkpt><trkpt lat="30.579997869121673" lon="-5.60344045522908"><ele>999.0000000000001</ele><time>2026-03-25T10:16:51.956Z</time></trkpt><trkpt lat="30.580043137114544" lon="-5.603494208806867"><ele>999.0</ele><time>2026-03-25T10:16:52.956Z</time></trkpt><trkpt lat="30.580101664261313" lon="-5.60357759352117"><ele>999.0</ele><time>2026-03-25T10:16:53.956Z</time></trkpt><trkpt lat="30.580173803689714" lon="-5.603645935174687"><ele>998.6666666666666</ele><time>2026-03-25T10:16:54.956Z</time></trkpt><trkpt lat="30.580241283285343" lon="-5.603708567227388"><ele>998.3333333333333</ele><time>2026-03-25T10:16:55.956Z</time></trkpt><trkpt lat="30.580306696705772" lon="-5.603775319287286"><ele>998.0</ele><time>2026-03-25T10:16:56.956Z</time></trkpt><trkpt lat="30.58037543331298" lon="-5.603844032506907"><ele>997.6666666666666</ele><time>2026-03-25T10:16:57.956Z</time></trkpt><trkpt lat="30.580447175561382" lon="-5.603909838615711"><ele>997.3333333333333</ele><time>2026-03-25T10:16:58.956Z</time></trkpt><trkpt lat="30.58050973532476" lon="-5.6039699534425"><ele>997.0</ele><time>2026-03-25T10:16:59.956Z</time></trkpt><trkpt lat="30.580583961945422" lon="-5.604047759666028"><ele>996.9999999999999</ele><time>2026-03-25T10:17:00.956Z</time></trkpt><trkpt lat="30.580660252034455" lon="-5.6041172932989785"><ele>997.0</ele><time>2026-03-25T10:17:01.956Z</time></trkpt><trkpt lat="30.580737058206385" lon="-5.60417355524993"><ele>997.0</ele><time>2026-03-25T10:17:02.956Z</time></trkpt><trkpt lat="30.58081041726009" lon="-5.6042290582426455"><ele>997.0</ele><time>2026-03-25T10:17:03.956Z</time></trkpt><trkpt lat="30.580885318654413" lon="-5.60427607236952"><ele>996.9999999999999</ele><time>2026-03-25T10:17:04.956Z</time></trkpt><trkpt lat="30.58095189823658" lon="-5.6043223192768234"><ele>997.0</ele><time>2026-03-25T10:17:05.956Z</time></trkpt><trkpt lat="30.58101829256552" lon="-5.604380025313126"><ele>996.9999999999999</ele><time>2026-03-25T10:17:06.956Z</time></trkpt><trkpt lat="30.581091367532185" lon="-5.604445150645939"><ele>997.0</ele><time>2026-03-25T10:17:07.957Z</time></trkpt><trkpt lat="30.58115907418377" lon="-5.6045058194263015"><ele>997.0</ele><time>2026-03-25T10:17:08.957Z</time></trkpt><trkpt lat="30.58122989198157" lon="-5.604562697752458"><ele>997.0</ele><time>2026-03-25T10:17:09.957Z</time></trkpt><trkpt lat="30.581305667496302" lon="-5.60460816322759"><ele>996.9999999999999</ele><time>2026-03-25T10:17:10.956Z</time></trkpt><trkpt lat="30.58138389191207" lon="-5.604613619390273"><ele>997.0</ele><time>2026-03-25T10:17:11.956Z</time></trkpt><trkpt lat="30.581455728214454" lon="-5.604585520688756"><ele>996.9999999999999</ele><time>2026-03-25T10:17:12.956Z</time></trkpt><trkpt lat="30.581527910086578" lon="-5.604546872055897"><ele>997.0</ele><time>2026-03-25T10:17:13.957Z</time></trkpt><trkpt lat="30.581602920402755" lon="-5.604493584252689"><ele>997.0</ele><time>2026-03-25T10:17:14.957Z</time></trkpt><trkpt lat="30.581678280593014" lon="-5.604438937820593"><ele>997.0</ele><time>2026-03-25T10:17:15.957Z</time></trkpt><trkpt lat="30.58174535392791" lon="-5.604408720787218"><ele>996.9999999999999</ele><time>2026-03-25T10:17:16.957Z</time></trkpt><trkpt lat="30.58181378374976" lon="-5.604435106148308"><ele>997.0</ele><time>2026-03-25T10:17:17.957Z</time></trkpt><trkpt lat="30.581865387115936" lon="-5.6044853735106805"><ele>996.9999999999999</ele><time>2026-03-25T10:17:18.957Z</time></trkpt><trkpt lat="30.581907899512487" lon="-5.604549746446973"><ele>997.0</ele><time>2026-03-25T10:17:19.956Z</time></trkpt><trkpt lat="30.581932229183327" lon="-5.6046502700183645"><ele>997.0</ele><time>2026-03-25T10:17:20.957Z</time></trkpt><trkpt lat="30.5819385079594" lon="-5.604772598195095"><ele>997.0</ele><time>2026-03-25T10:17:21.957Z</time></trkpt><trkpt lat="30.581926742846964" lon="-5.604865506267461"><ele>996.9999999999999</ele><time>2026-03-25T10:17:22.957Z</time></trkpt><trkpt lat="30.581901136901344" lon="-5.604966491652363"><ele>997.0</ele><time>2026-03-25T10:17:23.957Z</time></trkpt><trkpt lat="30.58186972813366" lon="-5.605074908030413"><ele>997.0</ele><time>2026-03-25T10:17:24.957Z</time></trkpt><trkpt lat="30.581850020192572" lon="-5.605178352528747"><ele>997.0</ele><time>2026-03-25T10:17:25.957Z</time></trkpt><trkpt lat="30.581832161140728" lon="-5.605283498365761"><ele>997.0</ele><time>2026-03-25T10:17:26.957Z</time></trkpt><trkpt lat="30.581828322764572" lon="-5.60539991531136"><ele>997.0</ele><time>2026-03-25T10:17:27.957Z</time></trkpt><trkpt lat="30.581836431779116" lon="-5.605520330421387"><ele>997.0</ele><time>2026-03-25T10:17:28.957Z</time></trkpt><trkpt lat="30.581868335089514" lon="-5.605614195689937"><ele>997.0</ele><time>2026-03-25T10:17:29.957Z</time></trkpt><trkpt lat="30.581916998915453" lon="-5.605741266747276"><ele>997.0</ele><time>2026-03-25T10:17:30.957Z</time></trkpt><trkpt lat="30.581986586185238" lon="-5.605869150253796"><ele>997.0</ele><time>2026-03-25T10:17:31.957Z</time></trkpt><trkpt lat="30.582063487575873" lon="-5.605997009275678"><ele>997.0</ele><time>2026-03-25T10:17:32.957Z</time></trkpt><trkpt lat="30.582137918782067" lon="-5.6061150579402"><ele>996.0</ele><time>2026-03-25T10:17:33.957Z</time></trkpt><trkpt lat="30.58221380331774" lon="-5.606238729989583"><ele>995.0</ele><time>2026-03-25T10:17:34.957Z</time></trkpt><trkpt lat="30.58228833677313" lon="-5.6063612994879035"><ele>994.0</ele><time>2026-03-25T10:17:35.957Z</time></trkpt><trkpt lat="30.582354389953707" lon="-5.606466551026729"><ele>993.0</ele><time>2026-03-25T10:17:36.957Z</time></trkpt><trkpt lat="30.582425241294633" lon="-5.606588790740284"><ele>993.0</ele><time>2026-03-25T10:17:37.957Z</time></trkpt><trkpt lat="30.58249378220119" lon="-5.6067055136630435"><ele>993.0</ele><time>2026-03-25T10:17:38.957Z</time></trkpt><trkpt lat="30.582562301885176" lon="-5.606822297954155"><ele>993.0</ele><time>2026-03-25T10:17:39.957Z</time></trkpt><trkpt lat="30.5826310724495" lon="-5.6069362592795295"><ele>993.0</ele><time>2026-03-25T10:17:40.957Z</time></trkpt><trkpt lat="30.582704063873702" lon="-5.607032191416864"><ele>992.5999999999999</ele><time>2026-03-25T10:17:41.957Z</time></trkpt><trkpt lat="30.582783677574376" lon="-5.607110748166608"><ele>992.1999999999999</ele><time>2026-03-25T10:17:42.957Z</time></trkpt><trkpt lat="30.5828703045847" lon="-5.60716039286662"><ele>991.8</ele><time>2026-03-25T10:17:43.957Z</time></trkpt><trkpt lat="30.58296546030051" lon="-5.607182352445663"><ele>991.4</ele><time>2026-03-25T10:17:44.957Z</time></trkpt><trkpt lat="30.583067916012485" lon="-5.607187505220045"><ele>991.0</ele><time>2026-03-25T10:17:45.957Z</time></trkpt><trkpt lat="30.58317605967608" lon="-5.607218846001254"><ele>991.0</ele><time>2026-03-25T10:17:46.957Z</time></trkpt><trkpt lat="30.58325695073466" lon="-5.607273564357572"><ele>991.0</ele><time>2026-03-25T10:17:47.957Z</time></trkpt><trkpt lat="30.583341352749255" lon="-5.607386506806763"><ele>991.0</ele><time>2026-03-25T10:17:48.957Z</time></trkpt><trkpt lat="30.583420583007378" lon="-5.607535764506425"><ele>991.0</ele><time>2026-03-25T10:17:49.957Z</time></trkpt><trkpt lat="30.58350473058381" lon="-5.607678561774084"><ele>991.0</ele><time>2026-03-25T10:17:50.957Z</time></trkpt><trkpt lat="30.583580887492335" lon="-5.607787508041922"><ele>991.0</ele><time>2026-03-25T10:17:51.957Z</time></trkpt><trkpt lat="30.58365912342964" lon="-5.607879841917107"><ele>991.0</ele><time>2026-03-25T10:17:52.957Z</time></trkpt><trkpt lat="30.58373997508067" lon="-5.607983014967062"><ele>991.0</ele><time>2026-03-25T10:17:53.957Z</time></trkpt><trkpt lat="30.58381549816908" lon="-5.6081036187432565"><ele>991.0</ele><time>2026-03-25T10:17:54.957Z</time></trkpt><trkpt lat="30.583883401665723" lon="-5.608199611456366"><ele>990.9999999999999</ele><time>2026-03-25T10:17:55.957Z</time></trkpt><trkpt lat="30.58395261440222" lon="-5.60827164436253"><ele>990.9999999999999</ele><time>2026-03-25T10:17:56.957Z</time></trkpt><trkpt lat="30.584022675190347" lon="-5.6083438363412785"><ele>991.0</ele><time>2026-03-25T10:17:57.957Z</time></trkpt><trkpt lat="30.584095297540358" lon="-5.608426975603473"><ele>991.0</ele><time>2026-03-25T10:17:58.957Z</time></trkpt><trkpt lat="30.584172069912583" lon="-5.608503701167813"><ele>991.0</ele><time>2026-03-25T10:17:59.957Z</time></trkpt><trkpt lat="30.58425727275764" lon="-5.608579167742846"><ele>990.9999999999999</ele><time>2026-03-25T10:18:00.957Z</time></trkpt><trkpt lat="30.58434635628475" lon="-5.608651466957271"><ele>990.9999999999999</ele><time>2026-03-25T10:18:01.957Z</time></trkpt><trkpt lat="30.584438711262983" lon="-5.608730094010922"><ele>991.0</ele><time>2026-03-25T10:18:02.957Z</time></trkpt><trkpt lat="30.584527687559017" lon="-5.608806150339019"><ele>991.0</ele><time>2026-03-25T10:18:03.957Z</time></trkpt><trkpt lat="30.58461394637649" lon="-5.608879691592577"><ele>990.1999999999999</ele><time>2026-03-25T10:18:04.957Z</time></trkpt><trkpt lat="30.584701306063632" lon="-5.608947542038717"><ele>989.3999999999999</ele><time>2026-03-25T10:18:05.957Z</time></trkpt><trkpt lat="30.584789068713956" lon="-5.609016794278324"><ele>988.6</ele><time>2026-03-25T10:18:06.957Z</time></trkpt><trkpt lat="30.584882060083537" lon="-5.609089371939364"><ele>987.8</ele><time>2026-03-25T10:18:07.957Z</time></trkpt><trkpt lat="30.58498314563163" lon="-5.609170746365311"><ele>987.0</ele><time>2026-03-25T10:18:08.957Z</time></trkpt><trkpt lat="30.585079388111144" lon="-5.609252669735211"><ele>987.0</ele><time>2026-03-25T10:18:09.957Z</time></trkpt><trkpt lat="30.585168920511755" lon="-5.609335494854091"><ele>987.0</ele><time>2026-03-25T10:18:10.957Z</time></trkpt><trkpt lat="30.585250485762455" lon="-5.609420045718725"><ele>987.0</ele><time>2026-03-25T10:18:11.957Z</time></trkpt><trkpt lat="30.585316786778375" lon="-5.60949491788101"><ele>987.0</ele><time>2026-03-25T10:18:12.957Z</time></trkpt><trkpt lat="30.585395644633024" lon="-5.609561542448288"><ele>987.0</ele><time>2026-03-25T10:18:13.957Z</time></trkpt><trkpt lat="30.58548195698825" lon="-5.609618663218085"><ele>987.25</ele><time>2026-03-25T10:18:14.957Z</time></trkpt><trkpt lat="30.58558218845162" lon="-5.609662218381508"><ele>987.5</ele><time>2026-03-25T10:18:15.957Z</time></trkpt><trkpt lat="30.585702480837625" lon="-5.609733630266373"><ele>987.75</ele><time>2026-03-25T10:18:16.957Z</time></trkpt><trkpt lat="30.58581753783428" lon="-5.609801662811023"><ele>988.0</ele><time>2026-03-25T10:18:17.957Z</time></trkpt><trkpt lat="30.585921245016063" lon="-5.609859519938355"><ele>988.0</ele><time>2026-03-25T10:18:18.957Z</time></trkpt><trkpt lat="30.586029442800044" lon="-5.609920764970372"><ele>988.0</ele><time>2026-03-25T10:18:19.957Z</time></trkpt><trkpt lat="30.58613736577591" lon="-5.61000378149043"><ele>988.0</ele><time>2026-03-25T10:18:20.957Z</time></trkpt><trkpt lat="30.58625442116733" lon="-5.610092809015689"><ele>988.0</ele><time>2026-03-25T10:18:21.957Z</time></trkpt><trkpt lat="30.586352615480582" lon="-5.610165840662363"><ele>987.8</ele><time>2026-03-25T10:18:22.957Z</time></trkpt><trkpt lat="30.586451185055502" lon="-5.610226112664773"><ele>987.5999999999999</ele><time>2026-03-25T10:18:23.957Z</time></trkpt><trkpt lat="30.586547449973818" lon="-5.610283302033259"><ele>987.4000000000001</ele><time>2026-03-25T10:18:24.957Z</time></trkpt><trkpt lat="30.586647291160403" lon="-5.610333919390229"><ele>987.2</ele><time>2026-03-25T10:18:25.957Z</time></trkpt><trkpt lat="30.58674907419317" lon="-5.610387811917"><ele>987.0</ele><time>2026-03-25T10:18:26.957Z</time></trkpt><trkpt lat="30.58686364045236" lon="-5.610444469222236"><ele>987.0</ele><time>2026-03-25T10:18:27.957Z</time></trkpt><trkpt lat="30.586985098396884" lon="-5.610504061770368"><ele>987.0</ele><time>2026-03-25T10:18:28.957Z</time></trkpt><trkpt lat="30.587097979997306" lon="-5.610559768533934"><ele>987.0</ele><time>2026-03-25T10:18:29.957Z</time></trkpt><trkpt lat="30.587209315508353" lon="-5.610629139700335"><ele>987.0</ele><time>2026-03-25T10:18:30.957Z</time></trkpt><trkpt lat="30.587318433412207" lon="-5.610704681904222"><ele>986.5</ele><time>2026-03-25T10:18:31.957Z</time></trkpt><trkpt lat="30.587440866168617" lon="-5.610801140354025"><ele>986.0</ele><time>2026-03-25T10:18:32.957Z</time></trkpt><trkpt lat="30.587558854402015" lon="-5.610917325903885"><ele>985.5</ele><time>2026-03-25T10:18:33.957Z</time></trkpt><trkpt lat="30.587665642334965" lon="-5.611002888679828"><ele>985.0</ele><time>2026-03-25T10:18:34.957Z</time></trkpt><trkpt lat="30.587777911478025" lon="-5.611084938192892"><ele>983.75</ele><time>2026-03-25T10:18:35.957Z</time></trkpt><trkpt lat="30.587898739516834" lon="-5.611182649927171"><ele>982.5</ele><time>2026-03-25T10:18:36.957Z</time></trkpt><trkpt lat="30.588020991115584" lon="-5.611261151268142"><ele>981.25</ele><time>2026-03-25T10:18:37.957Z</time></trkpt><trkpt lat="30.588134669634744" lon="-5.611350395061519"><ele>980.0</ele><time>2026-03-25T10:18:38.957Z</time></trkpt><trkpt lat="30.588239455616147" lon="-5.611447491065997"><ele>980.0</ele><time>2026-03-25T10:18:39.957Z</time></trkpt><trkpt lat="30.58833945592327" lon="-5.611552452806086"><ele>980.0</ele><time>2026-03-25T10:18:40.957Z</time></trkpt><trkpt lat="30.588443491167265" lon="-5.611652832035186"><ele>980.0</ele><time>2026-03-25T10:18:41.956Z</time></trkpt><trkpt lat="30.588544960984827" lon="-5.611748230955274"><ele>980.0</ele><time>2026-03-25T10:18:42.956Z</time></trkpt><trkpt lat="30.58862792102583" lon="-5.611859983432487"><ele>980.25</ele><time>2026-03-25T10:18:43.956Z</time></trkpt><trkpt lat="30.588699656786776" lon="-5.611974960192558"><ele>980.5</ele><time>2026-03-25T10:18:44.956Z</time></trkpt><trkpt lat="30.58876865405667" lon="-5.6120736733171706"><ele>980.75</ele><time>2026-03-25T10:18:45.956Z</time></trkpt><trkpt lat="30.58884757707515" lon="-5.612189180438315"><ele>981.0</ele><time>2026-03-25T10:18:46.956Z</time></trkpt><trkpt lat="30.588916486621955" lon="-5.61229223495413"><ele>980.5</ele><time>2026-03-25T10:18:47.956Z</time></trkpt><trkpt lat="30.589000002024786" lon="-5.612372605054853"><ele>980.0</ele><time>2026-03-25T10:18:48.956Z</time></trkpt><trkpt lat="30.58909656391712" lon="-5.612444325403051"><ele>979.5</ele><time>2026-03-25T10:18:49.956Z</time></trkpt><trkpt lat="30.589192645194515" lon="-5.612541869178713"><ele>979.0</ele><time>2026-03-25T10:18:50.956Z</time></trkpt><trkpt lat="30.589310464603066" lon="-5.612648177178658"><ele>979.0</ele><time>2026-03-25T10:18:51.956Z</time></trkpt><trkpt lat="30.589426818292765" lon="-5.61274105074912"><ele>979.0</ele><time>2026-03-25T10:18:52.956Z</time></trkpt><trkpt lat="30.58952848356066" lon="-5.612823645525971"><ele>979.0</ele><time>2026-03-25T10:18:53.956Z</time></trkpt><trkpt lat="30.589637666280307" lon="-5.612904631677352"><ele>979.0</ele><time>2026-03-25T10:18:54.956Z</time></trkpt><trkpt lat="30.58974804046349" lon="-5.61298903493346"><ele>979.3333333333333</ele><time>2026-03-25T10:18:55.956Z</time></trkpt><trkpt lat="30.58989007102989" lon="-5.613084376447354"><ele>979.6666666666667</ele><time>2026-03-25T10:18:56.956Z</time></trkpt><trkpt lat="30.590024889202212" lon="-5.6131704315076245"><ele>980.0</ele><time>2026-03-25T10:18:57.956Z</time></trkpt><trkpt lat="30.590147011324692" lon="-5.6132783940275965"><ele>980.0</ele><time>2026-03-25T10:18:58.956Z</time></trkpt><trkpt lat="30.59025674331479" lon="-5.61334199505852"><ele>980.0</ele><time>2026-03-25T10:18:59.956Z</time></trkpt><trkpt lat="30.59037445269057" lon="-5.613414508529256"><ele>980.0</ele><time>2026-03-25T10:19:00.956Z</time></trkpt><trkpt lat="30.590497146858645" lon="-5.6134814128360055"><ele>980.0</ele><time>2026-03-25T10:19:01.956Z</time></trkpt><trkpt lat="30.590604434175074" lon="-5.613543549599942"><ele>980.6</ele><time>2026-03-25T10:19:02.956Z</time></trkpt><trkpt lat="30.59070234604766" lon="-5.613609020310288"><ele>981.2</ele><time>2026-03-25T10:19:03.956Z</time></trkpt><trkpt lat="30.590795824855444" lon="-5.613672280955686"><ele>981.8</ele><time>2026-03-25T10:19:04.956Z</time></trkpt><trkpt lat="30.590881217123652" lon="-5.613734193607309"><ele>982.4</ele><time>2026-03-25T10:19:05.956Z</time></trkpt><trkpt lat="30.59096996472098" lon="-5.613792637173793"><ele>983.0</ele><time>2026-03-25T10:19:06.956Z</time></trkpt><trkpt lat="30.591052635539178" lon="-5.613847648532399"><ele>982.0</ele><time>2026-03-25T10:19:07.956Z</time></trkpt><trkpt lat="30.59113788465585" lon="-5.613895522769813"><ele>981.0</ele><time>2026-03-25T10:19:08.956Z</time></trkpt><trkpt lat="30.591226718494877" lon="-5.613928041241989"><ele>980.0</ele><time>2026-03-25T10:19:09.956Z</time></trkpt><trkpt lat="30.591317115032034" lon="-5.613945218315292"><ele>979.0</ele><time>2026-03-25T10:19:10.956Z</time></trkpt><trkpt lat="30.591407098562446" lon="-5.6139401810557885"><ele>978.0</ele><time>2026-03-25T10:19:11.956Z</time></trkpt><trkpt lat="30.591489608373188" lon="-5.613924604998473"><ele>978.0</ele><time>2026-03-25T10:19:12.956Z</time></trkpt><trkpt lat="30.59157008415037" lon="-5.613907252903693"><ele>978.0</ele><time>2026-03-25T10:19:13.956Z</time></trkpt><trkpt lat="30.591643525865425" lon="-5.613882647512313"><ele>978.0</ele><time>2026-03-25T10:19:14.956Z</time></trkpt><trkpt lat="30.59171462790046" lon="-5.613884585168734"><ele>978.0</ele><time>2026-03-25T10:19:15.956Z</time></trkpt><trkpt lat="30.591804804704157" lon="-5.6138927765133655"><ele>978.0</ele><time>2026-03-25T10:19:16.956Z</time></trkpt><trkpt lat="30.591874599620432" lon="-5.61391828384566"><ele>978.0</ele><time>2026-03-25T10:19:17.956Z</time></trkpt><trkpt lat="30.591956853547938" lon="-5.613945631379577"><ele>977.2</ele><time>2026-03-25T10:19:18.956Z</time></trkpt><trkpt lat="30.59203628418956" lon="-5.613954955198011"><ele>976.4</ele><time>2026-03-25T10:19:19.956Z</time></trkpt><trkpt lat="30.592112042415838" lon="-5.613945354958995"><ele>975.6000000000001</ele><time>2026-03-25T10:19:20.955Z</time></trkpt><trkpt lat="30.592180572567905" lon="-5.613920194163559"><ele>974.8000000000001</ele><time>2026-03-25T10:19:21.955Z</time></trkpt><trkpt lat="30.592292074645524" lon="-5.613872555312772"><ele>974.0</ele><time>2026-03-25T10:19:23.956Z</time></trkpt><trkpt lat="30.59240489479743" lon="-5.613814402915737"><ele>974.0</ele><time>2026-03-25T10:19:25.956Z</time></trkpt><trkpt lat="30.59246627650391" lon="-5.613788358135499"><ele>974.0000000000001</ele><time>2026-03-25T10:19:26.955Z</time></trkpt><trkpt lat="30.592571890383606" lon="-5.6137546451240965"><ele>974.0000000000001</ele><time>2026-03-25T10:19:28.955Z</time></trkpt><trkpt lat="30.59263677846641" lon="-5.613752768524472"><ele>974.0</ele><time>2026-03-25T10:19:30.954Z</time></trkpt><trkpt lat="30.59276143259008" lon="-5.6137351037552845"><ele>974.0</ele><time>2026-03-25T10:20:29.953Z</time></trkpt><trkpt lat="30.59285763974052" lon="-5.613716459597409"><ele>974.6</ele><time>2026-03-25T10:20:31.953Z</time></trkpt><trkpt lat="30.592990251451113" lon="-5.6137103675829225"><ele>975.2</ele><time>2026-03-25T10:20:33.953Z</time></trkpt><trkpt lat="30.59307086299169" lon="-5.613724049776409"><ele>975.8000000000001</ele><time>2026-03-25T10:20:34.953Z</time></trkpt><trkpt lat="30.593144450814403" lon="-5.613752470286002"><ele>976.4000000000001</ele><time>2026-03-25T10:20:35.953Z</time></trkpt><trkpt lat="30.59321356679953" lon="-5.613799238958601"><ele>977.0</ele><time>2026-03-25T10:20:36.953Z</time></trkpt><trkpt lat="30.59328395608275" lon="-5.613856393518888"><ele>977.0</ele><time>2026-03-25T10:20:37.953Z</time></trkpt><trkpt lat="30.593357118061405" lon="-5.613932701518779"><ele>977.0</ele><time>2026-03-25T10:20:38.953Z</time></trkpt><trkpt lat="30.593433947187943" lon="-5.614019726377365"><ele>977.0</ele><time>2026-03-25T10:20:39.953Z</time></trkpt><trkpt lat="30.593505103633408" lon="-5.614114612298112"><ele>977.0</ele><time>2026-03-25T10:20:40.952Z</time></trkpt><trkpt lat="30.593564014934536" lon="-5.614209466091605"><ele>977.0</ele><time>2026-03-25T10:20:41.952Z</time></trkpt><trkpt lat="30.593621517585465" lon="-5.614290606693418"><ele>977.0</ele><time>2026-03-25T10:20:42.952Z</time></trkpt><trkpt lat="30.593669254582107" lon="-5.614365755161163"><ele>977.0</ele><time>2026-03-25T10:20:43.952Z</time></trkpt><trkpt lat="30.59372210562044" lon="-5.6144436282943975"><ele>977.0</ele><time>2026-03-25T10:20:44.952Z</time></trkpt><trkpt lat="30.593786474646556" lon="-5.614521717032696"><ele>977.0</ele><time>2026-03-25T10:20:45.952Z</time></trkpt><trkpt lat="30.593859330217857" lon="-5.6146241482743395"><ele>977.0</ele><time>2026-03-25T10:20:46.952Z</time></trkpt><trkpt lat="30.5939228255711" lon="-5.614697220527147"><ele>976.2</ele><time>2026-03-25T10:20:47.952Z</time></trkpt><trkpt lat="30.59399255104044" lon="-5.614775956907686"><ele>975.4000000000001</ele><time>2026-03-25T10:20:48.952Z</time></trkpt><trkpt lat="30.594045079054247" lon="-5.614860215849274"><ele>974.5999999999999</ele><time>2026-03-25T10:20:49.952Z</time></trkpt><trkpt lat="30.594100064721932" lon="-5.614955724550348"><ele>973.8</ele><time>2026-03-25T10:20:50.952Z</time></trkpt><trkpt lat="30.594166661377916" lon="-5.615060373308046"><ele>973.0</ele><time>2026-03-25T10:20:51.952Z</time></trkpt><trkpt lat="30.594239527079836" lon="-5.615151152068888"><ele>973.0</ele><time>2026-03-25T10:20:52.952Z</time></trkpt><trkpt lat="30.594309269419288" lon="-5.6152476029798954"><ele>973.0</ele><time>2026-03-25T10:20:53.952Z</time></trkpt><trkpt lat="30.594371736184524" lon="-5.615331288473992"><ele>973.0</ele><time>2026-03-25T10:20:54.952Z</time></trkpt><trkpt lat="30.59445754623316" lon="-5.615389596548436"><ele>973.0</ele><time>2026-03-25T10:20:55.952Z</time></trkpt><trkpt lat="30.59454743854895" lon="-5.615422085687157"><ele>973.0</ele><time>2026-03-25T10:20:56.952Z</time></trkpt><trkpt lat="30.594626485058043" lon="-5.615442321321096"><ele>973.2</ele><time>2026-03-25T10:20:57.952Z</time></trkpt><trkpt lat="30.594725742361597" lon="-5.615506198641341"><ele>973.4</ele><time>2026-03-25T10:20:58.952Z</time></trkpt><trkpt lat="30.594792281075595" lon="-5.615562628329296"><ele>973.6000000000001</ele><time>2026-03-25T10:20:59.952Z</time></trkpt><trkpt lat="30.59482540253198" lon="-5.615685041376897"><ele>973.8000000000001</ele><time>2026-03-25T10:21:01.952Z</time></trkpt><trkpt lat="30.594819275864797" lon="-5.615770846467485"><ele>974.0</ele><time>2026-03-25T10:21:02.952Z</time></trkpt><trkpt lat="30.594815123281315" lon="-5.615864855001021"><ele>974.0000000000001</ele><time>2026-03-25T10:21:03.952Z</time></trkpt><trkpt lat="30.59482734050741" lon="-5.615963132662912"><ele>974.0</ele><time>2026-03-25T10:21:04.952Z</time></trkpt><trkpt lat="30.594859783877833" lon="-5.616037761195201"><ele>974.0</ele><time>2026-03-25T10:21:05.952Z</time></trkpt><trkpt lat="30.594918782354792" lon="-5.616105818993374"><ele>974.0</ele><time>2026-03-25T10:21:06.952Z</time></trkpt><trkpt lat="30.594991469045077" lon="-5.616154499554107"><ele>974.0000000000001</ele><time>2026-03-25T10:21:07.952Z</time></trkpt><trkpt lat="30.595068793450775" lon="-5.616208968372542"><ele>974.0</ele><time>2026-03-25T10:21:08.952Z</time></trkpt><trkpt lat="30.595134026489905" lon="-5.616305672099262"><ele>973.0</ele><time>2026-03-25T10:21:09.952Z</time></trkpt><trkpt lat="30.59517842804619" lon="-5.616440870279864"><ele>972.0</ele><time>2026-03-25T10:21:10.952Z</time></trkpt><trkpt lat="30.59522503919057" lon="-5.616606140172746"><ele>971.0</ele><time>2026-03-25T10:21:11.952Z</time></trkpt><trkpt lat="30.595271127244477" lon="-5.616752829861009"><ele>970.0</ele><time>2026-03-25T10:21:12.952Z</time></trkpt><trkpt lat="30.595315314481425" lon="-5.616864557901644"><ele>969.25</ele><time>2026-03-25T10:21:13.952Z</time></trkpt><trkpt lat="30.59537274882798" lon="-5.616974138027375"><ele>968.5</ele><time>2026-03-25T10:21:14.952Z</time></trkpt><trkpt lat="30.59546082115324" lon="-5.617074099524334"><ele>967.75</ele><time>2026-03-25T10:21:15.952Z</time></trkpt><trkpt lat="30.595569765414837" lon="-5.617139354418132"><ele>967.0</ele><time>2026-03-25T10:21:16.952Z</time></trkpt><trkpt lat="30.595694837883805" lon="-5.617181158896495"><ele>967.0</ele><time>2026-03-25T10:21:17.952Z</time></trkpt><trkpt lat="30.595827471407603" lon="-5.617228731040629"><ele>967.0</ele><time>2026-03-25T10:21:18.952Z</time></trkpt><trkpt lat="30.59596581642418" lon="-5.6172887441282855"><ele>967.0</ele><time>2026-03-25T10:21:19.953Z</time></trkpt><trkpt lat="30.596095908968252" lon="-5.61736070654864"><ele>967.0</ele><time>2026-03-25T10:21:20.953Z</time></trkpt><trkpt lat="30.596222557656553" lon="-5.617438998386848"><ele>968.0</ele><time>2026-03-25T10:21:21.953Z</time></trkpt><trkpt lat="30.59634606196591" lon="-5.6175334567966155"><ele>969.0</ele><time>2026-03-25T10:21:22.953Z</time></trkpt><trkpt lat="30.596466453907613" lon="-5.6176273982423375"><ele>970.0</ele><time>2026-03-25T10:21:23.953Z</time></trkpt><trkpt lat="30.596589824690255" lon="-5.617710090908857"><ele>971.0</ele><time>2026-03-25T10:21:24.953Z</time></trkpt><trkpt lat="30.59670660357962" lon="-5.617789723850435"><ele>970.0</ele><time>2026-03-25T10:21:25.953Z</time></trkpt><trkpt lat="30.596815153038953" lon="-5.617864882335761"><ele>969.0</ele><time>2026-03-25T10:21:26.952Z</time></trkpt><trkpt lat="30.59692155933924" lon="-5.617933107913338"><ele>968.0</ele><time>2026-03-25T10:21:27.952Z</time></trkpt><trkpt lat="30.597025963648754" lon="-5.617994090492596"><ele>967.0</ele><time>2026-03-25T10:21:28.953Z</time></trkpt><trkpt lat="30.597140152947652" lon="-5.61803309522883"><ele>966.25</ele><time>2026-03-25T10:21:29.953Z</time></trkpt><trkpt lat="30.597278997586248" lon="-5.618085429384491"><ele>965.5</ele><time>2026-03-25T10:21:30.953Z</time></trkpt><trkpt lat="30.597415795412893" lon="-5.6181335083859"><ele>964.75</ele><time>2026-03-25T10:21:31.953Z</time></trkpt><trkpt lat="30.59754886118297" lon="-5.618187807617581"><ele>964.0</ele><time>2026-03-25T10:21:32.953Z</time></trkpt><trkpt lat="30.597683916565554" lon="-5.618234498760443"><ele>964.0</ele><time>2026-03-25T10:21:33.953Z</time></trkpt><trkpt lat="30.59782282125522" lon="-5.6182934329351015"><ele>964.0</ele><time>2026-03-25T10:21:34.953Z</time></trkpt><trkpt lat="30.59795788142743" lon="-5.618354590839341"><ele>964.0</ele><time>2026-03-25T10:21:35.953Z</time></trkpt><trkpt lat="30.598080402638015" lon="-5.618417307062507"><ele>964.0</ele><time>2026-03-25T10:21:36.953Z</time></trkpt><trkpt lat="30.59820047686978" lon="-5.618483577954899"><ele>964.25</ele><time>2026-03-25T10:21:37.953Z</time></trkpt><trkpt lat="30.598321950706623" lon="-5.618546047460325"><ele>964.5</ele><time>2026-03-25T10:21:38.953Z</time></trkpt><trkpt lat="30.59842710636963" lon="-5.618596033419393"><ele>964.75</ele><time>2026-03-25T10:21:39.953Z</time></trkpt><trkpt lat="30.598513808219653" lon="-5.6186475710177515"><ele>965.0</ele><time>2026-03-25T10:21:40.953Z</time></trkpt><trkpt lat="30.598611755248175" lon="-5.618716937498244"><ele>965.4</ele><time>2026-03-25T10:21:41.953Z</time></trkpt><trkpt lat="30.598708812075184" lon="-5.618794333734889"><ele>965.8</ele><time>2026-03-25T10:21:42.953Z</time></trkpt><trkpt lat="30.598804780541865" lon="-5.618860050735361"><ele>966.2</ele><time>2026-03-25T10:21:43.953Z</time></trkpt><trkpt lat="30.59890046575071" lon="-5.618911069665803"><ele>966.6</ele><time>2026-03-25T10:21:44.953Z</time></trkpt><trkpt lat="30.598995223663266" lon="-5.618945549130056"><ele>967.0</ele><time>2026-03-25T10:21:45.953Z</time></trkpt><trkpt lat="30.59909214489966" lon="-5.618974601966732"><ele>967.0</ele><time>2026-03-25T10:21:46.953Z</time></trkpt><trkpt lat="30.5991985870363" lon="-5.619026505601648"><ele>967.0</ele><time>2026-03-25T10:21:47.953Z</time></trkpt><trkpt lat="30.59931041616023" lon="-5.619082483812882"><ele>967.0</ele><time>2026-03-25T10:21:48.953Z</time></trkpt><trkpt lat="30.599425698696425" lon="-5.619148420011104"><ele>967.0</ele><time>2026-03-25T10:21:49.953Z</time></trkpt><trkpt lat="30.599509569121505" lon="-5.619192505317781"><ele>967.0</ele><time>2026-03-25T10:21:50.953Z</time></trkpt><trkpt lat="30.59959080711882" lon="-5.619239603297002"><ele>967.0</ele><time>2026-03-25T10:21:51.953Z</time></trkpt><trkpt lat="30.599680656012907" lon="-5.61928688240065"><ele>967.0</ele><time>2026-03-25T10:21:52.953Z</time></trkpt><trkpt lat="30.59977560086268" lon="-5.619326350889969"><ele>967.0</ele><time>2026-03-25T10:21:53.953Z</time></trkpt><trkpt lat="30.599860875298283" lon="-5.619360826060477"><ele>967.0</ele><time>2026-03-25T10:21:54.953Z</time></trkpt><trkpt lat="30.599942244180138" lon="-5.619396812885952"><ele>966.9999999999999</ele><time>2026-03-25T10:21:55.953Z</time></trkpt><trkpt lat="30.60001330297509" lon="-5.619410256918225"><ele>967.0</ele><time>2026-03-25T10:21:56.953Z</time></trkpt><trkpt lat="30.600091478180406" lon="-5.619398727878357"><ele>967.0</ele><time>2026-03-25T10:21:57.953Z</time></trkpt><trkpt lat="30.600181685377464" lon="-5.619394142621089"><ele>967.0</ele><time>2026-03-25T10:21:58.953Z</time></trkpt><trkpt lat="30.600260364825196" lon="-5.619411286576792"><ele>966.9999999999999</ele><time>2026-03-25T10:21:59.953Z</time></trkpt><trkpt lat="30.60034888335944" lon="-5.619445447344166"><ele>967.0</ele><time>2026-03-25T10:22:00.953Z</time></trkpt><trkpt lat="30.600443280615437" lon="-5.619472528557802"><ele>966.4999999999999</ele><time>2026-03-25T10:22:01.953Z</time></trkpt><trkpt lat="30.60054128990198" lon="-5.619492023811237"><ele>966.0</ele><time>2026-03-25T10:22:02.953Z</time></trkpt><trkpt lat="30.60062539018235" lon="-5.61950543955373"><ele>965.5</ele><time>2026-03-25T10:22:03.953Z</time></trkpt><trkpt lat="30.600707369735545" lon="-5.61952714827744"><ele>965.0</ele><time>2026-03-25T10:22:04.953Z</time></trkpt><trkpt lat="30.600789295886337" lon="-5.619554128473533"><ele>964.4999999999999</ele><time>2026-03-25T10:22:05.953Z</time></trkpt><trkpt lat="30.60085477833186" lon="-5.619576896283273"><ele>964.0</ele><time>2026-03-25T10:22:06.953Z</time></trkpt><trkpt lat="30.600937047875746" lon="-5.619603286672503"><ele>963.9999999999999</ele><time>2026-03-25T10:22:07.953Z</time></trkpt><trkpt lat="30.60100818129808" lon="-5.6196223898762865"><ele>964.0</ele><time>2026-03-25T10:22:08.953Z</time></trkpt><trkpt lat="30.601083541956314" lon="-5.619635108086002"><ele>964.0</ele><time>2026-03-25T10:22:09.953Z</time></trkpt><trkpt lat="30.601188217936933" lon="-5.619674610205618"><ele>964.0</ele><time>2026-03-25T10:22:11.953Z</time></trkpt><trkpt lat="30.60125568736985" lon="-5.61975857564868"><ele>963.9999999999999</ele><time>2026-03-25T10:22:13.953Z</time></trkpt><trkpt lat="30.60130260500685" lon="-5.619831424658959"><ele>964.0</ele><time>2026-03-25T10:22:15.953Z</time></trkpt><trkpt lat="30.601368511456812" lon="-5.619918660528786"><ele>963.7142857142858</ele><time>2026-03-25T10:22:17.953Z</time></trkpt><trkpt lat="30.601416577718357" lon="-5.619974432972282"><ele>963.4285714285716</ele><time>2026-03-25T10:22:18.953Z</time></trkpt><trkpt lat="30.60147792996338" lon="-5.620029479644345"><ele>963.1428571428571</ele><time>2026-03-25T10:22:19.953Z</time></trkpt><trkpt lat="30.601535763364822" lon="-5.620086347356734"><ele>962.8571428571429</ele><time>2026-03-25T10:22:20.953Z</time></trkpt><trkpt lat="30.601585876505712" lon="-5.62015365858638"><ele>962.5714285714286</ele><time>2026-03-25T10:22:21.953Z</time></trkpt><trkpt lat="30.60162863553755" lon="-5.620216109930521"><ele>962.2857142857142</ele><time>2026-03-25T10:22:22.953Z</time></trkpt><trkpt lat="30.601654764004785" lon="-5.62028571478599"><ele>961.9999999999999</ele><time>2026-03-25T10:22:23.953Z</time></trkpt><trkpt lat="30.601672878574583" lon="-5.620363574257967"><ele>961.5000000000001</ele><time>2026-03-25T10:22:24.953Z</time></trkpt><trkpt lat="30.601690779141506" lon="-5.620436161938758"><ele>961.0</ele><time>2026-03-25T10:22:25.953Z</time></trkpt><trkpt lat="30.60170719462741" lon="-5.620512342766965"><ele>960.5</ele><time>2026-03-25T10:22:26.953Z</time></trkpt><trkpt lat="30.601741950064575" lon="-5.620611550917026"><ele>960.0</ele><time>2026-03-25T10:22:27.953Z</time></trkpt><trkpt lat="30.601783408083516" lon="-5.620724197604"><ele>959.5000000000001</ele><time>2026-03-25T10:22:28.953Z</time></trkpt><trkpt lat="30.601828765406527" lon="-5.620834328607653"><ele>959.0</ele><time>2026-03-25T10:22:29.953Z</time></trkpt><trkpt lat="30.6018957429635" lon="-5.620943819301601"><ele>959.0</ele><time>2026-03-25T10:22:30.953Z</time></trkpt><trkpt lat="30.601954566441403" lon="-5.621045119429139"><ele>959.0000000000001</ele><time>2026-03-25T10:22:31.953Z</time></trkpt><trkpt lat="30.60200248511357" lon="-5.621138925164241"><ele>959.0000000000001</ele><time>2026-03-25T10:22:32.953Z</time></trkpt><trkpt lat="30.602038229883302" lon="-5.621245751143822"><ele>959.0</ele><time>2026-03-25T10:22:33.953Z</time></trkpt><trkpt lat="30.6020690016818" lon="-5.621357830698364"><ele>959.0</ele><time>2026-03-25T10:22:34.953Z</time></trkpt><trkpt lat="30.60210190395689" lon="-5.621467305712528"><ele>958.6</ele><time>2026-03-25T10:22:35.953Z</time></trkpt><trkpt lat="30.602155665878406" lon="-5.621563846731059"><ele>958.2</ele><time>2026-03-25T10:22:36.953Z</time></trkpt><trkpt lat="30.602218119201087" lon="-5.621651489395563"><ele>957.8000000000001</ele><time>2026-03-25T10:22:37.953Z</time></trkpt><trkpt lat="30.602278814592182" lon="-5.621727167698163"><ele>957.4000000000001</ele><time>2026-03-25T10:22:38.953Z</time></trkpt><trkpt lat="30.6023228518466" lon="-5.621812036502593"><ele>957.0</ele><time>2026-03-25T10:22:39.953Z</time></trkpt><trkpt lat="30.602365207218487" lon="-5.621933654883172"><ele>957.0</ele><time>2026-03-25T10:22:40.953Z</time></trkpt><trkpt lat="30.602398228127164" lon="-5.622052405474128"><ele>957.0</ele><time>2026-03-25T10:22:41.953Z</time></trkpt><trkpt lat="30.60245300989672" lon="-5.622179218703014"><ele>957.0</ele><time>2026-03-25T10:22:42.953Z</time></trkpt><trkpt lat="30.602518564801482" lon="-5.622305265572977"><ele>957.0</ele><time>2026-03-25T10:22:43.953Z</time></trkpt><trkpt lat="30.6025855064508" lon="-5.622415080169815"><ele>957.0</ele><time>2026-03-25T10:22:44.953Z</time></trkpt><trkpt lat="30.60264163807103" lon="-5.622496683055279"><ele>957.0</ele><time>2026-03-25T10:22:45.952Z</time></trkpt><trkpt lat="30.602681276897197" lon="-5.622596610999814"><ele>957.0</ele><time>2026-03-25T10:22:46.952Z</time></trkpt><trkpt lat="30.602727404450533" lon="-5.622695263597052"><ele>957.0</ele><time>2026-03-25T10:22:47.952Z</time></trkpt><trkpt lat="30.602793340408997" lon="-5.622772768433988"><ele>957.0</ele><time>2026-03-25T10:22:48.952Z</time></trkpt><trkpt lat="30.602890426284453" lon="-5.622810340207267"><ele>957.2</ele><time>2026-03-25T10:22:49.952Z</time></trkpt><trkpt lat="30.60300422340281" lon="-5.622877954834391"><ele>957.4000000000001</ele><time>2026-03-25T10:22:50.952Z</time></trkpt><trkpt lat="30.603092358815275" lon="-5.622976920111561"><ele>957.5999999999999</ele><time>2026-03-25T10:22:51.952Z</time></trkpt><trkpt lat="30.60315350133477" lon="-5.623061735733586"><ele>957.8</ele><time>2026-03-25T10:22:52.952Z</time></trkpt><trkpt lat="30.6032245540659" lon="-5.623134801459379"><ele>958.0</ele><time>2026-03-25T10:22:53.952Z</time></trkpt><trkpt lat="30.603308769150065" lon="-5.623221946946021"><ele>958.0</ele><time>2026-03-25T10:22:54.952Z</time></trkpt><trkpt lat="30.60338861876129" lon="-5.623293398563215"><ele>958.0</ele><time>2026-03-25T10:22:55.952Z</time></trkpt><trkpt lat="30.60346383425641" lon="-5.623369346133849"><ele>958.0</ele><time>2026-03-25T10:22:56.952Z</time></trkpt><trkpt lat="30.60356078110414" lon="-5.623472924786404"><ele>958.0</ele><time>2026-03-25T10:22:57.952Z</time></trkpt><trkpt lat="30.603651995747757" lon="-5.6235673420736845"><ele>957.8333333333333</ele><time>2026-03-25T10:22:58.952Z</time></trkpt><trkpt lat="30.60374051271682" lon="-5.623637680627651"><ele>957.6666666666666</ele><time>2026-03-25T10:22:59.952Z</time></trkpt><trkpt lat="30.603818309649263" lon="-5.623657101173603"><ele>957.5</ele><time>2026-03-25T10:23:00.952Z</time></trkpt><trkpt lat="30.603903697152834" lon="-5.623640670236641"><ele>957.3333333333333</ele><time>2026-03-25T10:23:01.952Z</time></trkpt><trkpt lat="30.603989666280288" lon="-5.6236156740479"><ele>957.1666666666666</ele><time>2026-03-25T10:23:02.952Z</time></trkpt><trkpt lat="30.604076642091744" lon="-5.623606495536232"><ele>957.0</ele><time>2026-03-25T10:23:03.952Z</time></trkpt><trkpt lat="30.604149758461357" lon="-5.623639494478791"><ele>956.8</ele><time>2026-03-25T10:23:04.952Z</time></trkpt><trkpt lat="30.60423049491803" lon="-5.623749935078408"><ele>956.6</ele><time>2026-03-25T10:23:06.952Z</time></trkpt><trkpt lat="30.604286401615337" lon="-5.623814546197512"><ele>956.3999999999999</ele><time>2026-03-25T10:23:07.952Z</time></trkpt><trkpt lat="30.60434241159309" lon="-5.623886666675027"><ele>956.1999999999999</ele><time>2026-03-25T10:23:08.952Z</time></trkpt><trkpt lat="30.604413473204566" lon="-5.623944814665271"><ele>956.0</ele><time>2026-03-25T10:23:09.952Z</time></trkpt><trkpt lat="30.604500037789556" lon="-5.62394809619423"><ele>955.8</ele><time>2026-03-25T10:23:10.952Z</time></trkpt><trkpt lat="30.60458838486883" lon="-5.623922953717581"><ele>955.5999999999999</ele><time>2026-03-25T10:23:11.952Z</time></trkpt><trkpt lat="30.604697971544024" lon="-5.6239164551085645"><ele>955.4</ele><time>2026-03-25T10:23:12.952Z</time></trkpt><trkpt lat="30.604822921005937" lon="-5.623935009513618"><ele>955.2</ele><time>2026-03-25T10:23:13.952Z</time></trkpt><trkpt lat="30.604911346028633" lon="-5.623966489343323"><ele>955.0</ele><time>2026-03-25T10:23:14.952Z</time></trkpt><trkpt lat="30.60504159743548" lon="-5.62399209682356"><ele>955.0</ele><time>2026-03-25T10:23:16.952Z</time></trkpt><trkpt lat="30.605142176035425" lon="-5.624015261550729"><ele>955.0</ele><time>2026-03-25T10:23:17.952Z</time></trkpt><trkpt lat="30.605256167305733" lon="-5.624035234904239"><ele>955.0</ele><time>2026-03-25T10:23:18.952Z</time></trkpt><trkpt lat="30.605344536259285" lon="-5.624084298683103"><ele>955.0</ele><time>2026-03-25T10:23:19.952Z</time></trkpt><trkpt lat="30.605421892226733" lon="-5.62414285430931"><ele>955.0</ele><time>2026-03-25T10:23:20.952Z</time></trkpt><trkpt lat="30.605482792901558" lon="-5.624183026234183"><ele>955.3333333333333</ele><time>2026-03-25T10:23:21.952Z</time></trkpt><trkpt lat="30.605562985752194" lon="-5.624206134381685"><ele>955.6666666666666</ele><time>2026-03-25T10:23:22.952Z</time></trkpt><trkpt lat="30.605653793323775" lon="-5.6242073271105575"><ele>956.0</ele><time>2026-03-25T10:23:23.952Z</time></trkpt><trkpt lat="30.605731785168217" lon="-5.624215415330647"><ele>956.3333333333333</ele><time>2026-03-25T10:23:24.952Z</time></trkpt><trkpt lat="30.605796353234506" lon="-5.62422288429252"><ele>956.6666666666666</ele><time>2026-03-25T10:23:25.953Z</time></trkpt><trkpt lat="30.60585952974916" lon="-5.624224989380764"><ele>957.0</ele><time>2026-03-25T10:23:26.952Z</time></trkpt><trkpt lat="30.605929707505503" lon="-5.624224681166985"><ele>957.0</ele><time>2026-03-25T10:23:27.952Z</time></trkpt><trkpt lat="30.60600645456275" lon="-5.624231645299062"><ele>957.0</ele><time>2026-03-25T10:23:28.952Z</time></trkpt><trkpt lat="30.606132627994324" lon="-5.6243086903957575"><ele>957.0</ele><time>2026-03-25T10:23:30.952Z</time></trkpt><trkpt lat="30.606197388693996" lon="-5.6243761872527775"><ele>957.0</ele><time>2026-03-25T10:23:31.952Z</time></trkpt><trkpt lat="30.606248933652587" lon="-5.624434354859555"><ele>957.0</ele><time>2026-03-25T10:23:32.952Z</time></trkpt><trkpt lat="30.606302743489813" lon="-5.624480867133214"><ele>957.0</ele><time>2026-03-25T10:23:33.952Z</time></trkpt><trkpt lat="30.60636641119093" lon="-5.624544680762104"><ele>956.8</ele><time>2026-03-25T10:23:34.952Z</time></trkpt><trkpt lat="30.606444771667316" lon="-5.62460676493136"><ele>956.6</ele><time>2026-03-25T10:23:35.953Z</time></trkpt><trkpt lat="30.60652456426349" lon="-5.6246660197355025"><ele>956.3999999999999</ele><time>2026-03-25T10:23:36.953Z</time></trkpt><trkpt lat="30.606611165380894" lon="-5.624709928419585"><ele>956.1999999999999</ele><time>2026-03-25T10:23:37.952Z</time></trkpt><trkpt lat="30.606704082290765" lon="-5.624744839475291"><ele>956.0</ele><time>2026-03-25T10:23:38.952Z</time></trkpt><trkpt lat="30.606792544714082" lon="-5.624769490254936"><ele>956.0</ele><time>2026-03-25T10:23:39.952Z</time></trkpt><trkpt lat="30.606887132886435" lon="-5.624796506027677"><ele>955.9999999999999</ele><time>2026-03-25T10:23:40.952Z</time></trkpt><trkpt lat="30.60699373380191" lon="-5.624815180712337"><ele>955.9999999999999</ele><time>2026-03-25T10:23:41.952Z</time></trkpt><trkpt lat="30.607105905814386" lon="-5.624833420718669"><ele>956.0</ele><time>2026-03-25T10:23:42.952Z</time></trkpt><trkpt lat="30.607216335488516" lon="-5.624832115026101"><ele>956.0</ele><time>2026-03-25T10:23:43.952Z</time></trkpt><trkpt lat="30.607325761051513" lon="-5.62482472388351"><ele>955.25</ele><time>2026-03-25T10:23:44.952Z</time></trkpt><trkpt lat="30.607441581746873" lon="-5.624814859640142"><ele>954.5</ele><time>2026-03-25T10:23:45.952Z</time></trkpt><trkpt lat="30.60755503760099" lon="-5.62481031217315"><ele>953.75</ele><time>2026-03-25T10:23:46.952Z</time></trkpt><trkpt lat="30.607677774675242" lon="-5.6248118168751455"><ele>953.0</ele><time>2026-03-25T10:23:47.952Z</time></trkpt><trkpt lat="30.607794093792137" lon="-5.624820459154395"><ele>952.8</ele><time>2026-03-25T10:23:48.952Z</time></trkpt><trkpt lat="30.607905605555928" lon="-5.624828604345248"><ele>952.5999999999999</ele><time>2026-03-25T10:23:49.952Z</time></trkpt><trkpt lat="30.60800180384873" lon="-5.624837891731701"><ele>952.4000000000001</ele><time>2026-03-25T10:23:50.952Z</time></trkpt><trkpt lat="30.60811270646447" lon="-5.624851077079269"><ele>952.2</ele><time>2026-03-25T10:23:51.952Z</time></trkpt><trkpt lat="30.608222527924358" lon="-5.62488070875929"><ele>952.0</ele><time>2026-03-25T10:23:52.952Z</time></trkpt><trkpt lat="30.6083104178281" lon="-5.624908735601738"><ele>952.0</ele><time>2026-03-25T10:23:53.952Z</time></trkpt><trkpt lat="30.60840266984835" lon="-5.624956399575805"><ele>952.0</ele><time>2026-03-25T10:23:54.952Z</time></trkpt><trkpt lat="30.608489454605177" lon="-5.6250206160794844"><ele>952.0</ele><time>2026-03-25T10:23:55.952Z</time></trkpt><trkpt lat="30.608558407464805" lon="-5.625095120556461"><ele>952.0</ele><time>2026-03-25T10:23:56.952Z</time></trkpt><trkpt lat="30.60863779677112" lon="-5.625193193327962"><ele>952.0</ele><time>2026-03-25T10:23:57.952Z</time></trkpt><trkpt lat="30.608727680364396" lon="-5.625268194020955"><ele>952.2</ele><time>2026-03-25T10:23:58.952Z</time></trkpt><trkpt lat="30.60881140304693" lon="-5.625306945986916"><ele>952.4000000000001</ele><time>2026-03-25T10:23:59.952Z</time></trkpt><trkpt lat="30.608909265908935" lon="-5.62534855413716"><ele>952.5999999999999</ele><time>2026-03-25T10:24:00.952Z</time></trkpt><trkpt lat="30.609001140395044" lon="-5.625349332728925"><ele>952.8</ele><time>2026-03-25T10:24:01.952Z</time></trkpt><trkpt lat="30.609084441687028" lon="-5.62535070551014"><ele>953.0</ele><time>2026-03-25T10:24:02.952Z</time></trkpt><trkpt lat="30.60916492290621" lon="-5.625352538557478"><ele>953.0000000000001</ele><time>2026-03-25T10:24:03.952Z</time></trkpt><trkpt lat="30.609250285593408" lon="-5.6253548871921994"><ele>953.0</ele><time>2026-03-25T10:24:04.952Z</time></trkpt><trkpt lat="30.60932945211988" lon="-5.625373620514832"><ele>953.0</ele><time>2026-03-25T10:24:05.952Z</time></trkpt><trkpt lat="30.609412869361915" lon="-5.625399647496111"><ele>953.0</ele><time>2026-03-25T10:24:06.952Z</time></trkpt><trkpt lat="30.609493865901918" lon="-5.625401940832768"><ele>953.0000000000001</ele><time>2026-03-25T10:24:07.952Z</time></trkpt><trkpt lat="30.609580606121966" lon="-5.625391902429746"><ele>953.0</ele><time>2026-03-25T10:24:08.952Z</time></trkpt><trkpt lat="30.60967280370563" lon="-5.625413392799136"><ele>952.8</ele><time>2026-03-25T10:24:09.952Z</time></trkpt><trkpt lat="30.609764418430046" lon="-5.6254731089401195"><ele>952.5999999999999</ele><time>2026-03-25T10:24:10.952Z</time></trkpt><trkpt lat="30.6098469169233" lon="-5.625541296928717"><ele>952.4000000000001</ele><time>2026-03-25T10:24:11.952Z</time></trkpt><trkpt lat="30.609942168727812" lon="-5.625603925302476"><ele>952.2</ele><time>2026-03-25T10:24:12.952Z</time></trkpt><trkpt lat="30.61004864933412" lon="-5.625647941486267"><ele>952.0</ele><time>2026-03-25T10:24:13.952Z</time></trkpt><trkpt lat="30.610168939489277" lon="-5.625701064681881"><ele>952.0</ele><time>2026-03-25T10:24:14.952Z</time></trkpt><trkpt lat="30.61028391960185" lon="-5.625750192662009"><ele>952.0</ele><time>2026-03-25T10:24:15.952Z</time></trkpt><trkpt lat="30.610404371730915" lon="-5.6257812171876544"><ele>952.0</ele><time>2026-03-25T10:24:16.952Z</time></trkpt><trkpt lat="30.610526224055196" lon="-5.625811206713399"><ele>952.0</ele><time>2026-03-25T10:24:17.952Z</time></trkpt><trkpt lat="30.61066284811427" lon="-5.625842784950482"><ele>951.0</ele><time>2026-03-25T10:24:18.952Z</time></trkpt><trkpt lat="30.610813964638755" lon="-5.625901101935659"><ele>950.0</ele><time>2026-03-25T10:24:19.952Z</time></trkpt><trkpt lat="30.610990541656108" lon="-5.625955454235153"><ele>949.0</ele><time>2026-03-25T10:24:20.952Z</time></trkpt><trkpt lat="30.611153093418427" lon="-5.625997204032881"><ele>949.5</ele><time>2026-03-25T10:24:21.952Z</time></trkpt><trkpt lat="30.611283447556175" lon="-5.626028166525312"><ele>950.0</ele><time>2026-03-25T10:24:22.952Z</time></trkpt><trkpt lat="30.61140510241199" lon="-5.6260598679574505"><ele>950.5</ele><time>2026-03-25T10:24:23.952Z</time></trkpt><trkpt lat="30.61152691837004" lon="-5.626094249382282"><ele>951.0</ele><time>2026-03-25T10:24:24.952Z</time></trkpt><trkpt lat="30.611654285145377" lon="-5.626127282442893"><ele>950.5</ele><time>2026-03-25T10:24:25.952Z</time></trkpt><trkpt lat="30.61177483585371" lon="-5.626158693867647"><ele>950.0</ele><time>2026-03-25T10:24:26.952Z</time></trkpt><trkpt lat="30.611898810096548" lon="-5.626194017218601"><ele>949.5</ele><time>2026-03-25T10:24:27.952Z</time></trkpt><trkpt lat="30.61202795612274" lon="-5.626227760073165"><ele>949.0</ele><time>2026-03-25T10:24:28.952Z</time></trkpt><trkpt lat="30.61214325717673" lon="-5.626255823707289"><ele>949.0</ele><time>2026-03-25T10:24:29.952Z</time></trkpt><trkpt lat="30.612268572783247" lon="-5.626281068630652"><ele>949.0</ele><time>2026-03-25T10:24:30.952Z</time></trkpt><trkpt lat="30.612396915803643" lon="-5.6263132710408135"><ele>949.0</ele><time>2026-03-25T10:24:31.952Z</time></trkpt><trkpt lat="30.612521790537347" lon="-5.626349478727131"><ele>949.0</ele><time>2026-03-25T10:24:32.952Z</time></trkpt><trkpt lat="30.612644961492776" lon="-5.626393033299031"><ele>949.0</ele><time>2026-03-25T10:24:33.952Z</time></trkpt><trkpt lat="30.612757976699974" lon="-5.62644555647118"><ele>949.0000000000001</ele><time>2026-03-25T10:24:34.952Z</time></trkpt><trkpt lat="30.612850756940993" lon="-5.626499185195793"><ele>949.0000000000001</ele><time>2026-03-25T10:24:35.952Z</time></trkpt><trkpt lat="30.612945873436264" lon="-5.626545782356541"><ele>949.0</ele><time>2026-03-25T10:24:36.951Z</time></trkpt><trkpt lat="30.61304774313008" lon="-5.626588196728662"><ele>949.0</ele><time>2026-03-25T10:24:37.951Z</time></trkpt><trkpt lat="30.613156231576305" lon="-5.626610138084417"><ele>949.0</ele><time>2026-03-25T10:24:38.951Z</time></trkpt><trkpt lat="30.61328273592454" lon="-5.626643266637227"><ele>949.0</ele><time>2026-03-25T10:24:39.951Z</time></trkpt><trkpt lat="30.613392926527066" lon="-5.62667708438175"><ele>949.0</ele><time>2026-03-25T10:24:40.951Z</time></trkpt><trkpt lat="30.61350610569418" lon="-5.62670913696848"><ele>949.0</ele><time>2026-03-25T10:24:41.951Z</time></trkpt><trkpt lat="30.61361046765774" lon="-5.626746990388954"><ele>949.0</ele><time>2026-03-25T10:24:42.951Z</time></trkpt><trkpt lat="30.613708683312534" lon="-5.6267824391893715"><ele>949.0000000000001</ele><time>2026-03-25T10:24:43.951Z</time></trkpt><trkpt lat="30.613805791477564" lon="-5.626801602612089"><ele>949.0000000000001</ele><time>2026-03-25T10:24:44.951Z</time></trkpt><trkpt lat="30.613905724138014" lon="-5.626810172591657"><ele>949.0</ele><time>2026-03-25T10:24:45.951Z</time></trkpt><trkpt lat="30.614013165454796" lon="-5.626799904115949"><ele>949.0</ele><time>2026-03-25T10:24:46.951Z</time></trkpt><trkpt lat="30.614128219716747" lon="-5.626773256450509"><ele>949.0</ele><time>2026-03-25T10:24:47.951Z</time></trkpt><trkpt lat="30.61424153056826" lon="-5.626769221055546"><ele>949.0000000000001</ele><time>2026-03-25T10:24:48.951Z</time></trkpt><trkpt lat="30.614354479152706" lon="-5.626789449901329"><ele>949.0000000000001</ele><time>2026-03-25T10:24:49.951Z</time></trkpt><trkpt lat="30.614459299505622" lon="-5.626817032637599"><ele>949.0</ele><time>2026-03-25T10:24:50.951Z</time></trkpt><trkpt lat="30.61457308087428" lon="-5.626829300736955"><ele>949.0</ele><time>2026-03-25T10:24:51.951Z</time></trkpt><trkpt lat="30.614663936831818" lon="-5.62679714946921"><ele>948.9999999999999</ele><time>2026-03-25T10:24:52.951Z</time></trkpt><trkpt lat="30.614745471796333" lon="-5.626761552077837"><ele>949.0</ele><time>2026-03-25T10:24:53.951Z</time></trkpt><trkpt lat="30.614828960272305" lon="-5.626755201968079"><ele>949.0</ele><time>2026-03-25T10:24:54.951Z</time></trkpt><trkpt lat="30.61490056649251" lon="-5.626756111006936"><ele>949.0</ele><time>2026-03-25T10:24:55.951Z</time></trkpt><trkpt lat="30.614964569617587" lon="-5.626759278145481"><ele>948.9999999999999</ele><time>2026-03-25T10:24:56.951Z</time></trkpt><trkpt lat="30.615039280285554" lon="-5.6267762925766585"><ele>949.0</ele><time>2026-03-25T10:24:57.951Z</time></trkpt><trkpt lat="30.615126023545614" lon="-5.626790744581281"><ele>949.0</ele><time>2026-03-25T10:24:58.951Z</time></trkpt><trkpt lat="30.61522229814272" lon="-5.6268172816323885"><ele>949.0000000000001</ele><time>2026-03-25T10:25:00.951Z</time></trkpt><trkpt lat="30.615315687118812" lon="-5.626878555153997"><ele>949.0000000000001</ele><time>2026-03-25T10:25:03.951Z</time></trkpt><trkpt lat="30.615389088030856" lon="-5.626898737326904"><ele>949.0</ele><time>2026-03-25T10:25:04.951Z</time></trkpt><trkpt lat="30.61546725528301" lon="-5.626909196732535"><ele>949.0</ele><time>2026-03-25T10:25:05.951Z</time></trkpt><trkpt lat="30.615562485792914" lon="-5.6269171892499985"><ele>949.4000000000001</ele><time>2026-03-25T10:25:06.951Z</time></trkpt><trkpt lat="30.615670073183274" lon="-5.626933881723888"><ele>949.8000000000001</ele><time>2026-03-25T10:25:07.951Z</time></trkpt><trkpt lat="30.615766784206556" lon="-5.626941645909241"><ele>950.1999999999999</ele><time>2026-03-25T10:25:08.951Z</time></trkpt><trkpt lat="30.61586620316141" lon="-5.626926626725549"><ele>950.5999999999999</ele><time>2026-03-25T10:25:09.951Z</time></trkpt><trkpt lat="30.615983947770353" lon="-5.626932264886742"><ele>951.0</ele><time>2026-03-25T10:25:10.951Z</time></trkpt><trkpt lat="30.61612757580969" lon="-5.626929596571467"><ele>950.4</ele><time>2026-03-25T10:25:11.951Z</time></trkpt><trkpt lat="30.61627861983413" lon="-5.626935049554542"><ele>949.8</ele><time>2026-03-25T10:25:12.951Z</time></trkpt><trkpt lat="30.616371904083934" lon="-5.626948772622231"><ele>949.1999999999999</ele><time>2026-03-25T10:25:13.951Z</time></trkpt><trkpt lat="30.616447304959262" lon="-5.626966954758106"><ele>948.5999999999999</ele><time>2026-03-25T10:25:14.951Z</time></trkpt><trkpt lat="30.616525130171944" lon="-5.626980329914449"><ele>948.0</ele><time>2026-03-25T10:25:15.951Z</time></trkpt><trkpt lat="30.616608445219864" lon="-5.626991195398369"><ele>946.8</ele><time>2026-03-25T10:25:16.951Z</time></trkpt><trkpt lat="30.616691099874707" lon="-5.627011120894632"><ele>945.5999999999999</ele><time>2026-03-25T10:25:17.951Z</time></trkpt><trkpt lat="30.616749837862855" lon="-5.627048682698402"><ele>944.4000000000001</ele><time>2026-03-25T10:25:18.951Z</time></trkpt><trkpt lat="30.616864351560572" lon="-5.6271248469597595"><ele>943.2</ele><time>2026-03-25T10:25:20.951Z</time></trkpt><trkpt lat="30.616937478525866" lon="-5.627164851770279"><ele>942.0</ele><time>2026-03-25T10:25:21.951Z</time></trkpt><trkpt lat="30.61699804307158" lon="-5.627298682804115"><ele>941.2</ele><time>2026-03-25T10:25:23.951Z</time></trkpt><trkpt lat="30.617042871554396" lon="-5.627364555886761"><ele>940.4000000000001</ele><time>2026-03-25T10:25:25.951Z</time></trkpt><trkpt lat="30.617112254210117" lon="-5.627384454251384"><ele>939.5999999999999</ele><time>2026-03-25T10:25:26.951Z</time></trkpt><trkpt lat="30.617201121431446" lon="-5.627382843161183"><ele>938.8</ele><time>2026-03-25T10:25:27.951Z</time></trkpt><trkpt lat="30.61730906446443" lon="-5.6273963597322885"><ele>938.0</ele><time>2026-03-25T10:25:28.951Z</time></trkpt><trkpt lat="30.61745211966588" lon="-5.627430137090949"><ele>938.0</ele><time>2026-03-25T10:25:29.951Z</time></trkpt><trkpt lat="30.617597635669373" lon="-5.627483978879071"><ele>938.0</ele><time>2026-03-25T10:25:30.951Z</time></trkpt><trkpt lat="30.617716841811568" lon="-5.627529845345284"><ele>938.0</ele><time>2026-03-25T10:25:31.951Z</time></trkpt><trkpt lat="30.617811769404383" lon="-5.627548626359574"><ele>938.0</ele><time>2026-03-25T10:25:32.952Z</time></trkpt><trkpt lat="30.61789078377628" lon="-5.627569060842503"><ele>938.1666666666667</ele><time>2026-03-25T10:25:33.952Z</time></trkpt><trkpt lat="30.617967126019046" lon="-5.627572341055406"><ele>938.3333333333334</ele><time>2026-03-25T10:25:34.951Z</time></trkpt><trkpt lat="30.618046506903802" lon="-5.627573362100795"><ele>938.5</ele><time>2026-03-25T10:25:35.951Z</time></trkpt><trkpt lat="30.61816109595967" lon="-5.627549821412621"><ele>938.6666666666667</ele><time>2026-03-25T10:25:37.952Z</time></trkpt><trkpt lat="30.618225201648983" lon="-5.627543296861665"><ele>938.8333333333334</ele><time>2026-03-25T10:25:38.952Z</time></trkpt><trkpt lat="30.618323754352733" lon="-5.627567518675629"><ele>939.0</ele><time>2026-03-25T10:25:39.952Z</time></trkpt><trkpt lat="30.618444760419205" lon="-5.627610371645747"><ele>939.0</ele><time>2026-03-25T10:25:40.951Z</time></trkpt><trkpt lat="30.618565731257736" lon="-5.627665324477501"><ele>939.0</ele><time>2026-03-25T10:25:41.952Z</time></trkpt><trkpt lat="30.61867901648021" lon="-5.627720530185567"><ele>939.0</ele><time>2026-03-25T10:25:42.952Z</time></trkpt><trkpt lat="30.618785609205297" lon="-5.627792322827501"><ele>939.0</ele><time>2026-03-25T10:25:43.952Z</time></trkpt><trkpt lat="30.618906895202034" lon="-5.627865316833982"><ele>938.75</ele><time>2026-03-25T10:25:44.952Z</time></trkpt><trkpt lat="30.61902493831886" lon="-5.627936959203338"><ele>938.5</ele><time>2026-03-25T10:25:45.952Z</time></trkpt><trkpt lat="30.619148758066085" lon="-5.6279831837284755"><ele>938.25</ele><time>2026-03-25T10:25:46.952Z</time></trkpt><trkpt lat="30.61926357715313" lon="-5.6280016169688025"><ele>938.0</ele><time>2026-03-25T10:25:47.952Z</time></trkpt><trkpt lat="30.619373004232205" lon="-5.628006170663203"><ele>938.4</ele><time>2026-03-25T10:25:48.952Z</time></trkpt><trkpt lat="30.619489751425878" lon="-5.628003677222447"><ele>938.8</ele><time>2026-03-25T10:25:49.952Z</time></trkpt><trkpt lat="30.61958623587972" lon="-5.628027659149922"><ele>939.2</ele><time>2026-03-25T10:25:50.952Z</time></trkpt><trkpt lat="30.619679949099368" lon="-5.628051857982325"><ele>939.6</ele><time>2026-03-25T10:25:51.952Z</time></trkpt><trkpt lat="30.619768622986207" lon="-5.628057694140402"><ele>940.0</ele><time>2026-03-25T10:25:52.952Z</time></trkpt><trkpt lat="30.619854001171245" lon="-5.628051836893576"><ele>940.0</ele><time>2026-03-25T10:25:53.952Z</time></trkpt><trkpt lat="30.61995049893174" lon="-5.628048625425414"><ele>940.0</ele><time>2026-03-25T10:25:54.952Z</time></trkpt><trkpt lat="30.62004137431372" lon="-5.628058734532247"><ele>940.0</ele><time>2026-03-25T10:25:55.952Z</time></trkpt><trkpt lat="30.620134090777373" lon="-5.628079934453501"><ele>940.0</ele><time>2026-03-25T10:25:56.952Z</time></trkpt><trkpt lat="30.620223820336697" lon="-5.6281385013141305"><ele>940.0</ele><time>2026-03-25T10:25:57.952Z</time></trkpt><trkpt lat="30.62031021983787" lon="-5.6282202565312325"><ele>940.4</ele><time>2026-03-25T10:25:58.952Z</time></trkpt><trkpt lat="30.620384842508138" lon="-5.6282905059724815"><ele>940.8</ele><time>2026-03-25T10:25:59.952Z</time></trkpt><trkpt lat="30.620478254242148" lon="-5.62836838063829"><ele>941.2</ele><time>2026-03-25T10:26:00.952Z</time></trkpt><trkpt lat="30.620575527415106" lon="-5.628427086172167"><ele>941.6</ele><time>2026-03-25T10:26:01.952Z</time></trkpt><trkpt lat="30.62067841191302" lon="-5.6284841382463355"><ele>942.0</ele><time>2026-03-25T10:26:02.952Z</time></trkpt><trkpt lat="30.620792123399728" lon="-5.628557536961192"><ele>942.0</ele><time>2026-03-25T10:26:03.952Z</time></trkpt><trkpt lat="30.620890581611608" lon="-5.628642167544953"><ele>942.0</ele><time>2026-03-25T10:26:04.952Z</time></trkpt><trkpt lat="30.620987075383656" lon="-5.628731387169308"><ele>942.0</ele><time>2026-03-25T10:26:05.952Z</time></trkpt><trkpt lat="30.621068137408145" lon="-5.628815474530061"><ele>942.0</ele><time>2026-03-25T10:26:06.952Z</time></trkpt><trkpt lat="30.62114342936755" lon="-5.628890247094434"><ele>940.75</ele><time>2026-03-25T10:26:07.952Z</time></trkpt><trkpt lat="30.62122206092379" lon="-5.628974840891313"><ele>939.5</ele><time>2026-03-25T10:26:08.952Z</time></trkpt><trkpt lat="30.62131384252229" lon="-5.629041137629721"><ele>938.25</ele><time>2026-03-25T10:26:09.952Z</time></trkpt><trkpt lat="30.621420452908897" lon="-5.629112633510141"><ele>937.0</ele><time>2026-03-25T10:26:10.952Z</time></trkpt><trkpt lat="30.6215333852679" lon="-5.629177638886075"><ele>937.0</ele><time>2026-03-25T10:26:11.952Z</time></trkpt><trkpt lat="30.621626407074036" lon="-5.629247925295985"><ele>937.0</ele><time>2026-03-25T10:26:12.952Z</time></trkpt><trkpt lat="30.621694394988452" lon="-5.629314558608845"><ele>937.0</ele><time>2026-03-25T10:26:13.952Z</time></trkpt><trkpt lat="30.62176864121694" lon="-5.62938627261819"><ele>937.0</ele><time>2026-03-25T10:26:14.952Z</time></trkpt><trkpt lat="30.62184655078171" lon="-5.629438991385845"><ele>937.0</ele><time>2026-03-25T10:26:15.952Z</time></trkpt><trkpt lat="30.621925166183892" lon="-5.629488865465009"><ele>936.6</ele><time>2026-03-25T10:26:16.952Z</time></trkpt><trkpt lat="30.621989443473797" lon="-5.629530715467543"><ele>936.2</ele><time>2026-03-25T10:26:17.952Z</time></trkpt><trkpt lat="30.622092646663216" lon="-5.629603149058725"><ele>935.8</ele><time>2026-03-25T10:26:19.952Z</time></trkpt><trkpt lat="30.62214321457941" lon="-5.629650893719621"><ele>935.4</ele><time>2026-03-25T10:26:20.952Z</time></trkpt><trkpt lat="30.622227473836293" lon="-5.629716400016701"><ele>935.0</ele><time>2026-03-25T10:26:22.952Z</time></trkpt><trkpt lat="30.622295155753246" lon="-5.629857866184486"><ele>935.0000000000001</ele><time>2026-03-25T10:26:24.952Z</time></trkpt><trkpt lat="30.62231213912585" lon="-5.629951487330766"><ele>935.0</ele><time>2026-03-25T10:26:25.952Z</time></trkpt><trkpt lat="30.622374049897033" lon="-5.630049238272135"><ele>935.0</ele><time>2026-03-25T10:26:27.952Z</time></trkpt><trkpt lat="30.622430244017067" lon="-5.630083822998769"><ele>935.0</ele><time>2026-03-25T10:26:28.952Z</time></trkpt><trkpt lat="30.622544022236223" lon="-5.6301306371556405"><ele>935.0000000000001</ele><time>2026-03-25T10:26:30.952Z</time></trkpt><trkpt lat="30.622613161405305" lon="-5.630122685357865"><ele>935.0</ele><time>2026-03-25T10:26:31.952Z</time></trkpt><trkpt lat="30.622690174769424" lon="-5.630112323474118"><ele>935.0</ele><time>2026-03-25T10:26:32.952Z</time></trkpt><trkpt lat="30.622784061264824" lon="-5.63010513166558"><ele>935.0</ele><time>2026-03-25T10:26:33.952Z</time></trkpt><trkpt lat="30.622880668071907" lon="-5.630109574513011"><ele>935.0</ele><time>2026-03-25T10:26:34.952Z</time></trkpt><trkpt lat="30.622967386984836" lon="-5.6301258066486435"><ele>935.0</ele><time>2026-03-25T10:26:35.952Z</time></trkpt><trkpt lat="30.62305922051389" lon="-5.630140084331947"><ele>935.0</ele><time>2026-03-25T10:26:36.952Z</time></trkpt><trkpt lat="30.623159889905157" lon="-5.630164417955488"><ele>934.6</ele><time>2026-03-25T10:26:37.952Z</time></trkpt><trkpt lat="30.62326647819247" lon="-5.6301802969274"><ele>934.2</ele><time>2026-03-25T10:26:38.952Z</time></trkpt><trkpt lat="30.623364051710283" lon="-5.630210985077955"><ele>933.8</ele><time>2026-03-25T10:26:39.952Z</time></trkpt><trkpt lat="30.623452115002696" lon="-5.630236743249745"><ele>933.4</ele><time>2026-03-25T10:26:40.952Z</time></trkpt><trkpt lat="30.623539466889163" lon="-5.630235930059852"><ele>933.0</ele><time>2026-03-25T10:26:41.952Z</time></trkpt><trkpt lat="30.62361347816436" lon="-5.630239171348071"><ele>933.2</ele><time>2026-03-25T10:26:42.952Z</time></trkpt><trkpt lat="30.623733899966084" lon="-5.63025634561217"><ele>933.4</ele><time>2026-03-25T10:26:44.952Z</time></trkpt><trkpt lat="30.6238507032956" lon="-5.630273845311869"><ele>933.6000000000001</ele><time>2026-03-25T10:26:46.952Z</time></trkpt><trkpt lat="30.623925350759308" lon="-5.630283629332375"><ele>933.8000000000001</ele><time>2026-03-25T10:26:47.952Z</time></trkpt><trkpt lat="30.624003170662476" lon="-5.630286356130198"><ele>934.0</ele><time>2026-03-25T10:26:48.952Z</time></trkpt><trkpt lat="30.62408936542985" lon="-5.63028878687397"><ele>934.0</ele><time>2026-03-25T10:26:49.952Z</time></trkpt><trkpt lat="30.62417664382456" lon="-5.630300666847255"><ele>934.0000000000001</ele><time>2026-03-25T10:26:50.952Z</time></trkpt><trkpt lat="30.624262292617626" lon="-5.630296350673195"><ele>934.0000000000001</ele><time>2026-03-25T10:26:51.952Z</time></trkpt><trkpt lat="30.624346579884353" lon="-5.630280554324402"><ele>934.0</ele><time>2026-03-25T10:26:52.952Z</time></trkpt><trkpt lat="30.62444754857639" lon="-5.630280292220219"><ele>934.0</ele><time>2026-03-25T10:26:53.952Z</time></trkpt><trkpt lat="30.624557209934917" lon="-5.63028788242223"><ele>934.6</ele><time>2026-03-25T10:26:54.952Z</time></trkpt><trkpt lat="30.624664849879768" lon="-5.630304991229345"><ele>935.2</ele><time>2026-03-25T10:26:55.952Z</time></trkpt><trkpt lat="30.62477495821307" lon="-5.630325956289652"><ele>935.8000000000001</ele><time>2026-03-25T10:26:56.952Z</time></trkpt><trkpt lat="30.624866594700766" lon="-5.630343198431347"><ele>936.4000000000001</ele><time>2026-03-25T10:26:57.952Z</time></trkpt><trkpt lat="30.624943543481784" lon="-5.630355767685582"><ele>937.0</ele><time>2026-03-25T10:26:58.952Z</time></trkpt><trkpt lat="30.625069639263785" lon="-5.630377926675719"><ele>936.9999999999999</ele><time>2026-03-25T10:27:00.952Z</time></trkpt><trkpt lat="30.625143012919942" lon="-5.630375010667389"><ele>937.0</ele><time>2026-03-25T10:27:01.952Z</time></trkpt><trkpt lat="30.625201429172037" lon="-5.63034380906693"><ele>937.0</ele><time>2026-03-25T10:27:02.952Z</time></trkpt><trkpt lat="30.625269263415714" lon="-5.630263959282135"><ele>937.0</ele><time>2026-03-25T10:27:04.952Z</time></trkpt><trkpt lat="30.625357545659526" lon="-5.630201249028052"><ele>936.9999999999999</ele><time>2026-03-25T10:27:06.952Z</time></trkpt><trkpt lat="30.625463512946336" lon="-5.630199118862821"><ele>937.0</ele><time>2026-03-25T10:27:08.952Z</time></trkpt><trkpt lat="30.62554648598883" lon="-5.630195881184512"><ele>937.3333333333333</ele><time>2026-03-25T10:27:10.952Z</time></trkpt><trkpt lat="30.625650519244232" lon="-5.630193400326574"><ele>937.6666666666666</ele><time>2026-03-25T10:27:12.952Z</time></trkpt><trkpt lat="30.625758732514463" lon="-5.630200333931473"><ele>938.0</ele><time>2026-03-25T10:27:14.952Z</time></trkpt><trkpt lat="30.62583056493839" lon="-5.630221497082668"><ele>938.3333333333333</ele><time>2026-03-25T10:27:15.952Z</time></trkpt><trkpt lat="30.625901411155574" lon="-5.630248285999451"><ele>938.6666666666666</ele><time>2026-03-25T10:27:16.952Z</time></trkpt><trkpt lat="30.625966847955294" lon="-5.630299087762707"><ele>939.0</ele><time>2026-03-25T10:27:17.952Z</time></trkpt><trkpt lat="30.62603709894814" lon="-5.6303525636827825"><ele>937.8000000000001</ele><time>2026-03-25T10:27:18.951Z</time></trkpt><trkpt lat="30.626114338225886" lon="-5.630412351473449"><ele>936.6000000000001</ele><time>2026-03-25T10:27:19.951Z</time></trkpt><trkpt lat="30.626198804850596" lon="-5.630468055305629"><ele>935.4</ele><time>2026-03-25T10:27:20.951Z</time></trkpt><trkpt lat="30.62628565662653" lon="-5.630524938756923"><ele>934.2</ele><time>2026-03-25T10:27:21.951Z</time></trkpt><trkpt lat="30.626372904207308" lon="-5.6305830100152345"><ele>933.0</ele><time>2026-03-25T10:27:22.951Z</time></trkpt><trkpt lat="30.62646216866817" lon="-5.63063245203601"><ele>933.0</ele><time>2026-03-25T10:27:23.951Z</time></trkpt><trkpt lat="30.626550545551243" lon="-5.630678704844321"><ele>933.0</ele><time>2026-03-25T10:27:24.951Z</time></trkpt><trkpt lat="30.62663590333186" lon="-5.630723670663607"><ele>933.0</ele><time>2026-03-25T10:27:25.951Z</time></trkpt><trkpt lat="30.626745821819334" lon="-5.630800989500279"><ele>933.0</ele><time>2026-03-25T10:27:26.951Z</time></trkpt><trkpt lat="30.626836210014886" lon="-5.630876516879905"><ele>933.0</ele><time>2026-03-25T10:27:27.951Z</time></trkpt><trkpt lat="30.62693655512215" lon="-5.6309504856141235"><ele>933.0</ele><time>2026-03-25T10:27:28.951Z</time></trkpt><trkpt lat="30.627020171581485" lon="-5.630995856040687"><ele>933.0</ele><time>2026-03-25T10:27:29.951Z</time></trkpt><trkpt lat="30.627115192581492" lon="-5.631043709792096"><ele>933.0</ele><time>2026-03-25T10:27:30.951Z</time></trkpt><trkpt lat="30.627200638904785" lon="-5.631083934435442"><ele>933.0</ele><time>2026-03-25T10:27:31.951Z</time></trkpt><trkpt lat="30.627281468593516" lon="-5.63110772105318"><ele>933.0</ele><time>2026-03-25T10:27:32.951Z</time></trkpt><trkpt lat="30.627361532880627" lon="-5.631128753542578"><ele>932.3333333333334</ele><time>2026-03-25T10:27:33.951Z</time></trkpt><trkpt lat="30.627442470188928" lon="-5.631157268502675"><ele>931.6666666666667</ele><time>2026-03-25T10:27:34.951Z</time></trkpt><trkpt lat="30.62752261899338" lon="-5.6311762001812555"><ele>931.0</ele><time>2026-03-25T10:27:35.951Z</time></trkpt><trkpt lat="30.627601570235562" lon="-5.63119850017902"><ele>930.3333333333334</ele><time>2026-03-25T10:27:36.951Z</time></trkpt><trkpt lat="30.6276913476047" lon="-5.6312166031345505"><ele>929.6666666666667</ele><time>2026-03-25T10:27:37.951Z</time></trkpt><trkpt lat="30.627772459288366" lon="-5.631245694913323"><ele>929.0</ele><time>2026-03-25T10:27:38.951Z</time></trkpt><trkpt lat="30.627862130862038" lon="-5.631268987671077"><ele>928.8333333333334</ele><time>2026-03-25T10:27:39.951Z</time></trkpt><trkpt lat="30.627953179640457" lon="-5.631297459425015"><ele>928.6666666666667</ele><time>2026-03-25T10:27:40.951Z</time></trkpt><trkpt lat="30.628040370295775" lon="-5.631339290059819"><ele>928.5</ele><time>2026-03-25T10:27:41.951Z</time></trkpt><trkpt lat="30.628131378153842" lon="-5.631384932597951"><ele>928.3333333333333</ele><time>2026-03-25T10:27:42.951Z</time></trkpt><trkpt lat="30.628209345347987" lon="-5.631419631823796"><ele>928.1666666666666</ele><time>2026-03-25T10:27:43.951Z</time></trkpt><trkpt lat="30.628273471180886" lon="-5.631456611159918"><ele>928.0</ele><time>2026-03-25T10:27:44.951Z</time></trkpt><trkpt lat="30.628338653633232" lon="-5.631490290792666"><ele>928.0</ele><time>2026-03-25T10:27:45.951Z</time></trkpt><trkpt lat="30.628413381080374" lon="-5.6315239748921515"><ele>928.0</ele><time>2026-03-25T10:27:46.951Z</time></trkpt><trkpt lat="30.62849179677619" lon="-5.631561236423895"><ele>928.0</ele><time>2026-03-25T10:27:47.951Z</time></trkpt><trkpt lat="30.628570431339952" lon="-5.631599761481558"><ele>928.0</ele><time>2026-03-25T10:27:48.951Z</time></trkpt><trkpt lat="30.62866092687984" lon="-5.631644540746328"><ele>928.0</ele><time>2026-03-25T10:27:49.951Z</time></trkpt><trkpt lat="30.628764993674963" lon="-5.6316972856861485"><ele>928.0</ele><time>2026-03-25T10:27:50.951Z</time></trkpt><trkpt lat="30.62887635567907" lon="-5.631754456540278"><ele>928.0</ele><time>2026-03-25T10:27:51.951Z</time></trkpt><trkpt lat="30.62899115661365" lon="-5.6318281082650365"><ele>928.0</ele><time>2026-03-25T10:27:52.951Z</time></trkpt><trkpt lat="30.629098932147482" lon="-5.631890815101917"><ele>928.0</ele><time>2026-03-25T10:27:53.951Z</time></trkpt><trkpt lat="30.629199900615035" lon="-5.631935636487234"><ele>928.0</ele><time>2026-03-25T10:27:54.951Z</time></trkpt><trkpt lat="30.629314063008565" lon="-5.631950215060419"><ele>928.0</ele><time>2026-03-25T10:27:55.951Z</time></trkpt><trkpt lat="30.629429561776785" lon="-5.6319598235613535"><ele>928.0</ele><time>2026-03-25T10:27:56.951Z</time></trkpt><trkpt lat="30.629558605271534" lon="-5.631981747093404"><ele>928.0</ele><time>2026-03-25T10:27:57.951Z</time></trkpt><trkpt lat="30.629689333121565" lon="-5.632036634297523"><ele>927.5</ele><time>2026-03-25T10:27:58.951Z</time></trkpt><trkpt lat="30.62982003699149" lon="-5.632089452543289"><ele>927.0</ele><time>2026-03-25T10:27:59.951Z</time></trkpt><trkpt lat="30.629964800971827" lon="-5.632121361020104"><ele>926.5</ele><time>2026-03-25T10:28:00.951Z</time></trkpt><trkpt lat="30.630090404280665" lon="-5.632133187010406"><ele>926.0</ele><time>2026-03-25T10:28:01.951Z</time></trkpt><trkpt lat="30.630217627861253" lon="-5.632136042830893"><ele>925.75</ele><time>2026-03-25T10:28:02.951Z</time></trkpt><trkpt lat="30.63035077835515" lon="-5.632141297913494"><ele>925.5</ele><time>2026-03-25T10:28:03.951Z</time></trkpt><trkpt lat="30.630484084611293" lon="-5.632150953541896"><ele>925.25</ele><time>2026-03-25T10:28:04.951Z</time></trkpt><trkpt lat="30.630622315241524" lon="-5.6321652398897015"><ele>925.0</ele><time>2026-03-25T10:28:05.951Z</time></trkpt><trkpt lat="30.630767244645757" lon="-5.632183060378187"><ele>925.0</ele><time>2026-03-25T10:28:06.951Z</time></trkpt><trkpt lat="30.630913648884945" lon="-5.632199740974937"><ele>925.0</ele><time>2026-03-25T10:28:07.95Z</time></trkpt><trkpt lat="30.631068490425015" lon="-5.632227820283791"><ele>925.0</ele><time>2026-03-25T10:28:08.95Z</time></trkpt><trkpt lat="30.631222476999657" lon="-5.632254623381742"><ele>925.25</ele><time>2026-03-25T10:28:09.95Z</time></trkpt><trkpt lat="30.63136742970727" lon="-5.632288519878994"><ele>925.5</ele><time>2026-03-25T10:28:10.95Z</time></trkpt><trkpt lat="30.6315143207283" lon="-5.6323254212229035"><ele>925.75</ele><time>2026-03-25T10:28:11.95Z</time></trkpt><trkpt lat="30.631651217544352" lon="-5.632358100859617"><ele>926.0</ele><time>2026-03-25T10:28:12.95Z</time></trkpt><trkpt lat="30.631781900389978" lon="-5.6323880923585845"><ele>926.0</ele><time>2026-03-25T10:28:13.95Z</time></trkpt><trkpt lat="30.631896131525796" lon="-5.632408363551116"><ele>925.9999999999999</ele><time>2026-03-25T10:28:14.95Z</time></trkpt><trkpt lat="30.632006495200116" lon="-5.63242885578573"><ele>925.9999999999999</ele><time>2026-03-25T10:28:15.95Z</time></trkpt><trkpt lat="30.63210390866554" lon="-5.632442695276044"><ele>926.0</ele><time>2026-03-25T10:28:16.95Z</time></trkpt><trkpt lat="30.632218275824986" lon="-5.632462675008477"><ele>926.0</ele><time>2026-03-25T10:28:17.95Z</time></trkpt><trkpt lat="30.63233303893818" lon="-5.63248078883146"><ele>925.25</ele><time>2026-03-25T10:28:18.95Z</time></trkpt><trkpt lat="30.63245234012641" lon="-5.632503016684641"><ele>924.5</ele><time>2026-03-25T10:28:19.95Z</time></trkpt><trkpt lat="30.632567013240383" lon="-5.632516270758216"><ele>923.75</ele><time>2026-03-25T10:28:20.95Z</time></trkpt><trkpt lat="30.63268226637272" lon="-5.63251874527395"><ele>923.0</ele><time>2026-03-25T10:28:21.95Z</time></trkpt><trkpt lat="30.63279022923024" lon="-5.632513115479981"><ele>923.0</ele><time>2026-03-25T10:28:22.95Z</time></trkpt><trkpt lat="30.632905327561467" lon="-5.63250935114345"><ele>923.0</ele><time>2026-03-25T10:28:23.95Z</time></trkpt><trkpt lat="30.633024215487033" lon="-5.632511457902333"><ele>923.0</ele><time>2026-03-25T10:28:24.95Z</time></trkpt><trkpt lat="30.63313997576336" lon="-5.632526061100095"><ele>923.0</ele><time>2026-03-25T10:28:25.95Z</time></trkpt><trkpt lat="30.63325304317647" lon="-5.632554724050961"><ele>923.0</ele><time>2026-03-25T10:28:26.95Z</time></trkpt><trkpt lat="30.633359589504114" lon="-5.632577025113734"><ele>923.0</ele><time>2026-03-25T10:28:27.95Z</time></trkpt><trkpt lat="30.633473091785454" lon="-5.632603912211087"><ele>923.0</ele><time>2026-03-25T10:28:28.95Z</time></trkpt><trkpt lat="30.633588819290814" lon="-5.632650951362931"><ele>923.0</ele><time>2026-03-25T10:28:29.95Z</time></trkpt><trkpt lat="30.633700552095704" lon="-5.632674957714742"><ele>923.0</ele><time>2026-03-25T10:28:30.95Z</time></trkpt><trkpt lat="30.633797819832598" lon="-5.632689397414171"><ele>923.0</ele><time>2026-03-25T10:28:31.95Z</time></trkpt><trkpt lat="30.633899584167818" lon="-5.63271784103255"><ele>923.0</ele><time>2026-03-25T10:28:32.95Z</time></trkpt><trkpt lat="30.63401198388057" lon="-5.632733066994615"><ele>923.0</ele><time>2026-03-25T10:28:33.95Z</time></trkpt><trkpt lat="30.63412706931868" lon="-5.632733462381352"><ele>923.0</ele><time>2026-03-25T10:28:34.95Z</time></trkpt><trkpt lat="30.634275433549487" lon="-5.632737095459985"><ele>923.0</ele><time>2026-03-25T10:28:35.95Z</time></trkpt><trkpt lat="30.63442272134963" lon="-5.632725369994009"><ele>923.0</ele><time>2026-03-25T10:28:36.95Z</time></trkpt><trkpt lat="30.63454489735201" lon="-5.6327173874529"><ele>923.0</ele><time>2026-03-25T10:28:37.95Z</time></trkpt><trkpt lat="30.634670805227664" lon="-5.632712340315525"><ele>923.0</ele><time>2026-03-25T10:28:38.95Z</time></trkpt><trkpt lat="30.634783661560586" lon="-5.6327053782270395"><ele>923.0</ele><time>2026-03-25T10:28:39.95Z</time></trkpt><trkpt lat="30.63490052420526" lon="-5.632700753846483"><ele>923.0</ele><time>2026-03-25T10:28:40.95Z</time></trkpt><trkpt lat="30.635009532426388" lon="-5.632696563129773"><ele>923.0</ele><time>2026-03-25T10:28:41.95Z</time></trkpt><trkpt lat="30.635116085906475" lon="-5.632691160723524"><ele>923.0</ele><time>2026-03-25T10:28:42.95Z</time></trkpt><trkpt lat="30.63522593034573" lon="-5.632688225783791"><ele>923.0</ele><time>2026-03-25T10:28:43.95Z</time></trkpt><trkpt lat="30.63533566726837" lon="-5.632685876323583"><ele>923.0</ele><time>2026-03-25T10:28:44.95Z</time></trkpt><trkpt lat="30.635448378973063" lon="-5.6326798166201835"><ele>923.0</ele><time>2026-03-25T10:28:45.95Z</time></trkpt><trkpt lat="30.6355598853814" lon="-5.632678053353421"><ele>923.0</ele><time>2026-03-25T10:28:46.95Z</time></trkpt><trkpt lat="30.635672894187294" lon="-5.632672196778019"><ele>923.0</ele><time>2026-03-25T10:28:47.95Z</time></trkpt><trkpt lat="30.635782160261794" lon="-5.632668166708458"><ele>923.0</ele><time>2026-03-25T10:28:48.95Z</time></trkpt><trkpt lat="30.63589158052287" lon="-5.632664081572486"><ele>923.0</ele><time>2026-03-25T10:28:49.95Z</time></trkpt><trkpt lat="30.636005147405964" lon="-5.632658577862513"><ele>923.0</ele><time>2026-03-25T10:28:50.95Z</time></trkpt><trkpt lat="30.636118273202193" lon="-5.632654648785684"><ele>923.0</ele><time>2026-03-25T10:28:51.95Z</time></trkpt><trkpt lat="30.636231623559116" lon="-5.632653694370237"><ele>923.0</ele><time>2026-03-25T10:28:52.95Z</time></trkpt><trkpt lat="30.63635124466812" lon="-5.632653443249163"><ele>922.75</ele><time>2026-03-25T10:28:53.95Z</time></trkpt><trkpt lat="30.63647254468221" lon="-5.6326515194282845"><ele>922.5</ele><time>2026-03-25T10:28:54.95Z</time></trkpt><trkpt lat="30.636589607215058" lon="-5.632644644665568"><ele>922.25</ele><time>2026-03-25T10:28:55.95Z</time></trkpt><trkpt lat="30.636708912767624" lon="-5.63264056881118"><ele>922.0</ele><time>2026-03-25T10:28:56.95Z</time></trkpt><trkpt lat="30.636827767944094" lon="-5.632636252415636"><ele>922.0</ele><time>2026-03-25T10:28:57.95Z</time></trkpt><trkpt lat="30.63693653084625" lon="-5.63263410976929"><ele>922.0</ele><time>2026-03-25T10:28:58.95Z</time></trkpt><trkpt lat="30.637056837154397" lon="-5.632635341788048"><ele>922.0</ele><time>2026-03-25T10:28:59.95Z</time></trkpt><trkpt lat="30.63717241089062" lon="-5.632625256234535"><ele>922.0</ele><time>2026-03-25T10:29:00.95Z</time></trkpt><trkpt lat="30.637295974403944" lon="-5.632619663546084"><ele>922.25</ele><time>2026-03-25T10:29:01.95Z</time></trkpt><trkpt lat="30.63740866013938" lon="-5.63261443440867"><ele>922.5</ele><time>2026-03-25T10:29:02.95Z</time></trkpt><trkpt lat="30.637537467270697" lon="-5.632608639903043"><ele>922.75</ele><time>2026-03-25T10:29:03.95Z</time></trkpt><trkpt lat="30.637687281830907" lon="-5.632609128771627"><ele>923.0</ele><time>2026-03-25T10:29:04.95Z</time></trkpt><trkpt lat="30.637849596704065" lon="-5.632627659348989"><ele>923.0</ele><time>2026-03-25T10:29:05.95Z</time></trkpt><trkpt lat="30.638011385845022" lon="-5.632649310110848"><ele>923.0</ele><time>2026-03-25T10:29:06.95Z</time></trkpt><trkpt lat="30.63817349409532" lon="-5.632688259657531"><ele>923.0</ele><time>2026-03-25T10:29:07.95Z</time></trkpt><trkpt lat="30.63832181464283" lon="-5.632706333030405"><ele>923.0</ele><time>2026-03-25T10:29:08.95Z</time></trkpt><trkpt lat="30.638468390824844" lon="-5.632714072232885"><ele>923.0</ele><time>2026-03-25T10:29:09.95Z</time></trkpt><trkpt lat="30.638612383536746" lon="-5.632719202708234"><ele>923.0</ele><time>2026-03-25T10:29:10.95Z</time></trkpt><trkpt lat="30.638750907693858" lon="-5.632721596926203"><ele>923.0</ele><time>2026-03-25T10:29:11.95Z</time></trkpt><trkpt lat="30.638889549171918" lon="-5.632720635376766"><ele>923.0</ele><time>2026-03-25T10:29:12.95Z</time></trkpt><trkpt lat="30.639015409271632" lon="-5.632712142495062"><ele>923.0</ele><time>2026-03-25T10:29:13.95Z</time></trkpt><trkpt lat="30.639132993130584" lon="-5.632704627393358"><ele>923.0</ele><time>2026-03-25T10:29:14.95Z</time></trkpt><trkpt lat="30.639251054045637" lon="-5.632693562004038"><ele>923.0</ele><time>2026-03-25T10:29:15.95Z</time></trkpt><trkpt lat="30.63935360167845" lon="-5.63268706897464"><ele>923.0</ele><time>2026-03-25T10:29:16.95Z</time></trkpt><trkpt lat="30.639461612782085" lon="-5.632683618589125"><ele>923.0</ele><time>2026-03-25T10:29:17.95Z</time></trkpt><trkpt lat="30.639577856492526" lon="-5.632675564595719"><ele>923.0</ele><time>2026-03-25T10:29:18.95Z</time></trkpt><trkpt lat="30.63970081098467" lon="-5.632665163412901"><ele>923.0</ele><time>2026-03-25T10:29:19.95Z</time></trkpt><trkpt lat="30.639824068943238" lon="-5.632651354640893"><ele>922.75</ele><time>2026-03-25T10:29:20.95Z</time></trkpt><trkpt lat="30.639937312856777" lon="-5.632636230863"><ele>922.5</ele><time>2026-03-25T10:29:21.95Z</time></trkpt><trkpt lat="30.640041792573214" lon="-5.632626681614842"><ele>922.25</ele><time>2026-03-25T10:29:22.95Z</time></trkpt><trkpt lat="30.64017696913274" lon="-5.632621257689295"><ele>922.0</ele><time>2026-03-25T10:29:23.95Z</time></trkpt><trkpt lat="30.64032019393807" lon="-5.63261366752605"><ele>920.6666666666666</ele><time>2026-03-25T10:29:24.95Z</time></trkpt><trkpt lat="30.640482760912256" lon="-5.632607309715041"><ele>919.3333333333333</ele><time>2026-03-25T10:29:25.95Z</time></trkpt><trkpt lat="30.64065318372676" lon="-5.632598401487949"><ele>918.0</ele><time>2026-03-25T10:29:26.95Z</time></trkpt><trkpt lat="30.640814330953116" lon="-5.632590686736588"><ele>918.0</ele><time>2026-03-25T10:29:27.95Z</time></trkpt><trkpt lat="30.640986546569614" lon="-5.632577684929551"><ele>918.0</ele><time>2026-03-25T10:29:28.95Z</time></trkpt><trkpt lat="30.641168816265317" lon="-5.632549495545512"><ele>918.0</ele><time>2026-03-25T10:29:29.95Z</time></trkpt><trkpt lat="30.641383689957802" lon="-5.632528218200203"><ele>917.0</ele><time>2026-03-25T10:29:30.95Z</time></trkpt><trkpt lat="30.641557272585413" lon="-5.632517926867547"><ele>916.0</ele><time>2026-03-25T10:29:31.95Z</time></trkpt><trkpt lat="30.641704673166355" lon="-5.632504010150912"><ele>915.0</ele><time>2026-03-25T10:29:32.95Z</time></trkpt><trkpt lat="30.641836231350325" lon="-5.632494375310762"><ele>915.3333333333333</ele><time>2026-03-25T10:29:33.95Z</time></trkpt><trkpt lat="30.641983994260904" lon="-5.632483916412875"><ele>915.6666666666666</ele><time>2026-03-25T10:29:34.95Z</time></trkpt><trkpt lat="30.642138820103806" lon="-5.632470952871069"><ele>916.0</ele><time>2026-03-25T10:29:35.95Z</time></trkpt><trkpt lat="30.642297200398932" lon="-5.632460957743109"><ele>916.0</ele><time>2026-03-25T10:29:36.95Z</time></trkpt><trkpt lat="30.6424471758445" lon="-5.632448672532159"><ele>916.0</ele><time>2026-03-25T10:29:37.95Z</time></trkpt><trkpt lat="30.64259112501228" lon="-5.6324361789535295"><ele>916.0</ele><time>2026-03-25T10:29:38.95Z</time></trkpt><trkpt lat="30.642729619097054" lon="-5.632424254360676"><ele>916.0</ele><time>2026-03-25T10:29:39.95Z</time></trkpt><trkpt lat="30.642858721347185" lon="-5.632411944800062"><ele>915.5</ele><time>2026-03-25T10:29:40.95Z</time></trkpt><trkpt lat="30.64298867065697" lon="-5.6324044688965085"><ele>915.0</ele><time>2026-03-25T10:29:41.95Z</time></trkpt><trkpt lat="30.643123951122483" lon="-5.632391099683946"><ele>914.5</ele><time>2026-03-25T10:29:42.95Z</time></trkpt><trkpt lat="30.64325728639335" lon="-5.632368577232328"><ele>914.0</ele><time>2026-03-25T10:29:43.951Z</time></trkpt><trkpt lat="30.643397808283755" lon="-5.63233726249873"><ele>914.0</ele><time>2026-03-25T10:29:44.95Z</time></trkpt><trkpt lat="30.643539669790805" lon="-5.632290838920543"><ele>914.0</ele><time>2026-03-25T10:29:45.95Z</time></trkpt><trkpt lat="30.643681344842282" lon="-5.632231364448703"><ele>914.0</ele><time>2026-03-25T10:29:46.95Z</time></trkpt><trkpt lat="30.643821704838075" lon="-5.632162983320538"><ele>914.0</ele><time>2026-03-25T10:29:47.951Z</time></trkpt><trkpt lat="30.64396916061739" lon="-5.632090902090794"><ele>914.0</ele><time>2026-03-25T10:29:48.951Z</time></trkpt><trkpt lat="30.644120555148145" lon="-5.632016563439981"><ele>914.0</ele><time>2026-03-25T10:29:49.95Z</time></trkpt><trkpt lat="30.64426718397303" lon="-5.631945807123483"><ele>914.0</ele><time>2026-03-25T10:29:50.95Z</time></trkpt><trkpt lat="30.64442630130414" lon="-5.631869611641368"><ele>914.0</ele><time>2026-03-25T10:29:51.95Z</time></trkpt><trkpt lat="30.64459143630849" lon="-5.631789952704991"><ele>914.0</ele><time>2026-03-25T10:29:52.95Z</time></trkpt><trkpt lat="30.644756552676455" lon="-5.631711120725536"><ele>914.6666666666667</ele><time>2026-03-25T10:29:53.95Z</time></trkpt><trkpt lat="30.64491927824973" lon="-5.631629207530572"><ele>915.3333333333333</ele><time>2026-03-25T10:29:54.95Z</time></trkpt><trkpt lat="30.64507674825594" lon="-5.631548518596699"><ele>916.0</ele><time>2026-03-25T10:29:55.951Z</time></trkpt><trkpt lat="30.645242459329623" lon="-5.631471055415782"><ele>914.0</ele><time>2026-03-25T10:29:56.95Z</time></trkpt><trkpt lat="30.64540898715161" lon="-5.631387349669006"><ele>912.0</ele><time>2026-03-25T10:29:57.95Z</time></trkpt><trkpt lat="30.64558598936586" lon="-5.631295120773386"><ele>910.0</ele><time>2026-03-25T10:29:58.95Z</time></trkpt><trkpt lat="30.645767947050537" lon="-5.631209081724611"><ele>911.3333333333333</ele><time>2026-03-25T10:29:59.95Z</time></trkpt><trkpt lat="30.64596976758463" lon="-5.631110969187786"><ele>912.6666666666667</ele><time>2026-03-25T10:30:00.95Z</time></trkpt><trkpt lat="30.646158989844754" lon="-5.631020646144784"><ele>914.0</ele><time>2026-03-25T10:30:01.95Z</time></trkpt><trkpt lat="30.646323210903997" lon="-5.630940814382386"><ele>914.5</ele><time>2026-03-25T10:30:02.95Z</time></trkpt><trkpt lat="30.646465469225983" lon="-5.630870481111607"><ele>915.0</ele><time>2026-03-25T10:30:03.95Z</time></trkpt><trkpt lat="30.646601677253706" lon="-5.630804808713289"><ele>915.5</ele><time>2026-03-25T10:30:04.95Z</time></trkpt><trkpt lat="30.646733759856374" lon="-5.630740425628138"><ele>916.0</ele><time>2026-03-25T10:30:05.95Z</time></trkpt><trkpt lat="30.646861835273302" lon="-5.630677066243684"><ele>915.0</ele><time>2026-03-25T10:30:06.95Z</time></trkpt><trkpt lat="30.646987693351885" lon="-5.630615634943319"><ele>914.0</ele><time>2026-03-25T10:30:07.95Z</time></trkpt><trkpt lat="30.647112690011042" lon="-5.630558276095767"><ele>913.0</ele><time>2026-03-25T10:30:08.95Z</time></trkpt><trkpt lat="30.647234888572196" lon="-5.6305007622393655"><ele>912.0</ele><time>2026-03-25T10:30:09.95Z</time></trkpt><trkpt lat="30.6473644428972" lon="-5.630437180585655"><ele>912.0</ele><time>2026-03-25T10:30:10.95Z</time></trkpt><trkpt lat="30.647499538954587" lon="-5.630366779015415"><ele>912.0</ele><time>2026-03-25T10:30:11.95Z</time></trkpt><trkpt lat="30.64763042424437" lon="-5.630311441899516"><ele>912.0</ele><time>2026-03-25T10:30:12.95Z</time></trkpt><trkpt lat="30.647763297612485" lon="-5.630250278656117"><ele>912.0</ele><time>2026-03-25T10:30:13.95Z</time></trkpt><trkpt lat="30.64789544936807" lon="-5.630183960831411"><ele>913.0</ele><time>2026-03-25T10:30:14.95Z</time></trkpt><trkpt lat="30.64804267090047" lon="-5.630110666248432"><ele>914.0</ele><time>2026-03-25T10:30:15.95Z</time></trkpt><trkpt lat="30.648196685904466" lon="-5.630043603734493"><ele>915.0</ele><time>2026-03-25T10:30:16.95Z</time></trkpt><trkpt lat="30.648338254928888" lon="-5.629979773648154"><ele>915.0</ele><time>2026-03-25T10:30:17.95Z</time></trkpt><trkpt lat="30.648457429856972" lon="-5.629918665765958"><ele>915.0</ele><time>2026-03-25T10:30:18.95Z</time></trkpt><trkpt lat="30.64857157702489" lon="-5.629867250910955"><ele>915.0</ele><time>2026-03-25T10:30:19.95Z</time></trkpt><trkpt lat="30.648684885009263" lon="-5.629819966637866"><ele>915.0</ele><time>2026-03-25T10:30:20.95Z</time></trkpt><trkpt lat="30.648797365691582" lon="-5.629773530084804"><ele>914.25</ele><time>2026-03-25T10:30:21.95Z</time></trkpt><trkpt lat="30.648908487956156" lon="-5.629714585600765"><ele>913.5</ele><time>2026-03-25T10:30:22.95Z</time></trkpt><trkpt lat="30.649024621363612" lon="-5.629650871878283"><ele>912.75</ele><time>2026-03-25T10:30:23.95Z</time></trkpt><trkpt lat="30.649129912068574" lon="-5.629598328804137"><ele>912.0</ele><time>2026-03-25T10:30:24.95Z</time></trkpt><trkpt lat="30.649236141507803" lon="-5.629547286035924"><ele>912.0</ele><time>2026-03-25T10:30:25.95Z</time></trkpt><trkpt lat="30.649339764681784" lon="-5.629496368542365"><ele>912.0</ele><time>2026-03-25T10:30:26.95Z</time></trkpt><trkpt lat="30.649429688986476" lon="-5.629452714456818"><ele>912.0</ele><time>2026-03-25T10:30:27.95Z</time></trkpt><trkpt lat="30.649514126461764" lon="-5.6294111548972605"><ele>912.0</ele><time>2026-03-25T10:30:28.95Z</time></trkpt><trkpt lat="30.649600117096163" lon="-5.629379603113932"><ele>912.0</ele><time>2026-03-25T10:30:29.95Z</time></trkpt><trkpt lat="30.64968792669964" lon="-5.629336025641686"><ele>912.2</ele><time>2026-03-25T10:30:30.95Z</time></trkpt><trkpt lat="30.649773855662936" lon="-5.6292805568272515"><ele>912.4000000000001</ele><time>2026-03-25T10:30:31.95Z</time></trkpt><trkpt lat="30.64986066819741" lon="-5.629228627515872"><ele>912.5999999999999</ele><time>2026-03-25T10:30:32.95Z</time></trkpt><trkpt lat="30.64995404325822" lon="-5.62917675170625"><ele>912.8</ele><time>2026-03-25T10:30:33.95Z</time></trkpt><trkpt lat="30.650043169620673" lon="-5.629141816614494"><ele>913.0</ele><time>2026-03-25T10:30:34.95Z</time></trkpt><trkpt lat="30.650145121644027" lon="-5.629107590541542"><ele>913.0</ele><time>2026-03-25T10:30:35.95Z</time></trkpt><trkpt lat="30.650244693856376" lon="-5.629082657385582"><ele>913.0</ele><time>2026-03-25T10:30:36.95Z</time></trkpt><trkpt lat="30.650341061720624" lon="-5.629062495943592"><ele>913.0</ele><time>2026-03-25T10:30:37.95Z</time></trkpt><trkpt lat="30.650440258851415" lon="-5.629041175095389"><ele>913.0</ele><time>2026-03-25T10:30:38.949Z</time></trkpt><trkpt lat="30.650546819948897" lon="-5.629007470925927"><ele>913.0</ele><time>2026-03-25T10:30:39.949Z</time></trkpt><trkpt lat="30.650657242793905" lon="-5.628976393650916"><ele>913.5</ele><time>2026-03-25T10:30:40.949Z</time></trkpt><trkpt lat="30.65076835064774" lon="-5.628959628407828"><ele>914.0</ele><time>2026-03-25T10:30:41.949Z</time></trkpt><trkpt lat="30.650882640845108" lon="-5.628971045703039"><ele>914.5</ele><time>2026-03-25T10:30:42.949Z</time></trkpt><trkpt lat="30.65100423393908" lon="-5.628985582437297"><ele>915.0</ele><time>2026-03-25T10:30:43.949Z</time></trkpt><trkpt lat="30.65113084484516" lon="-5.629003055967384"><ele>915.0</ele><time>2026-03-25T10:30:44.949Z</time></trkpt><trkpt lat="30.65126995855524" lon="-5.629007209801047"><ele>915.0</ele><time>2026-03-25T10:30:45.949Z</time></trkpt><trkpt lat="30.651413286324814" lon="-5.628996102354182"><ele>915.0</ele><time>2026-03-25T10:30:46.949Z</time></trkpt><trkpt lat="30.65157043071878" lon="-5.628981005035898"><ele>915.0</ele><time>2026-03-25T10:30:47.949Z</time></trkpt><trkpt lat="30.65170997961231" lon="-5.628964226993225"><ele>915.0</ele><time>2026-03-25T10:30:48.949Z</time></trkpt><trkpt lat="30.651834040571888" lon="-5.6289480928667475"><ele>915.0</ele><time>2026-03-25T10:30:49.949Z</time></trkpt><trkpt lat="30.651957760378348" lon="-5.628939281212183"><ele>915.0</ele><time>2026-03-25T10:30:50.949Z</time></trkpt><trkpt lat="30.652091526895962" lon="-5.6289423417160505"><ele>915.0</ele><time>2026-03-25T10:30:51.949Z</time></trkpt><trkpt lat="30.65222177932898" lon="-5.628940708965475"><ele>915.25</ele><time>2026-03-25T10:30:52.949Z</time></trkpt><trkpt lat="30.652350461769174" lon="-5.628929569354735"><ele>915.5</ele><time>2026-03-25T10:30:53.949Z</time></trkpt><trkpt lat="30.652478142339792" lon="-5.628904836880289"><ele>915.75</ele><time>2026-03-25T10:30:54.949Z</time></trkpt><trkpt lat="30.652596882841245" lon="-5.628863927981833"><ele>916.0</ele><time>2026-03-25T10:30:55.949Z</time></trkpt><trkpt lat="30.65272545634533" lon="-5.628822746395637"><ele>914.75</ele><time>2026-03-25T10:30:56.949Z</time></trkpt><trkpt lat="30.652864732828498" lon="-5.628796359642043"><ele>913.5</ele><time>2026-03-25T10:30:57.949Z</time></trkpt><trkpt lat="30.65299028858509" lon="-5.628782968251213"><ele>912.25</ele><time>2026-03-25T10:30:58.949Z</time></trkpt><trkpt lat="30.653116957528635" lon="-5.6287628531825735"><ele>911.0</ele><time>2026-03-25T10:30:59.949Z</time></trkpt><trkpt lat="30.653252095571602" lon="-5.628738546744421"><ele>911.0</ele><time>2026-03-25T10:31:00.949Z</time></trkpt><trkpt lat="30.653385109043118" lon="-5.6287173027711885"><ele>911.0</ele><time>2026-03-25T10:31:01.949Z</time></trkpt><trkpt lat="30.65352248075594" lon="-5.628689981271729"><ele>911.0</ele><time>2026-03-25T10:31:02.949Z</time></trkpt><trkpt lat="30.653645597331373" lon="-5.628660751359589"><ele>911.0</ele><time>2026-03-25T10:31:03.949Z</time></trkpt><trkpt lat="30.65376677478429" lon="-5.628616584827831"><ele>911.5999999999999</ele><time>2026-03-25T10:31:04.949Z</time></trkpt><trkpt lat="30.65388047819924" lon="-5.6285716961993595"><ele>912.1999999999999</ele><time>2026-03-25T10:31:05.949Z</time></trkpt><trkpt lat="30.65396914216646" lon="-5.628535130756083"><ele>912.8000000000001</ele><time>2026-03-25T10:31:06.949Z</time></trkpt><trkpt lat="30.654066112792016" lon="-5.628510498224394"><ele>913.4000000000001</ele><time>2026-03-25T10:31:07.949Z</time></trkpt><trkpt lat="30.654164163574364" lon="-5.62849816322255"><ele>914.0</ele><time>2026-03-25T10:31:08.949Z</time></trkpt><trkpt lat="30.654268777679704" lon="-5.628483484694636"><ele>914.0</ele><time>2026-03-25T10:31:09.949Z</time></trkpt><trkpt lat="30.654361863900277" lon="-5.628467969426827"><ele>914.0000000000001</ele><time>2026-03-25T10:31:10.949Z</time></trkpt><trkpt lat="30.65446544242957" lon="-5.628453876029654"><ele>914.0000000000001</ele><time>2026-03-25T10:31:11.949Z</time></trkpt><trkpt lat="30.65456842147617" lon="-5.628443512584017"><ele>914.0</ele><time>2026-03-25T10:31:12.949Z</time></trkpt><trkpt lat="30.65467401177898" lon="-5.628422006842087"><ele>914.0</ele><time>2026-03-25T10:31:13.949Z</time></trkpt><trkpt lat="30.654788386638007" lon="-5.628373827419979"><ele>913.75</ele><time>2026-03-25T10:31:14.949Z</time></trkpt><trkpt lat="30.654902808522454" lon="-5.628312062458013"><ele>913.5</ele><time>2026-03-25T10:31:15.949Z</time></trkpt><trkpt lat="30.655012726492515" lon="-5.62828332035885"><ele>913.25</ele><time>2026-03-25T10:31:16.949Z</time></trkpt><trkpt lat="30.655138968147632" lon="-5.628278776040001"><ele>913.0</ele><time>2026-03-25T10:31:17.949Z</time></trkpt><trkpt lat="30.655278440370612" lon="-5.628257005999107"><ele>912.5</ele><time>2026-03-25T10:31:18.949Z</time></trkpt><trkpt lat="30.655411638327106" lon="-5.628214529832475"><ele>912.0</ele><time>2026-03-25T10:31:19.949Z</time></trkpt><trkpt lat="30.655533813234314" lon="-5.628172484363607"><ele>911.5</ele><time>2026-03-25T10:31:20.949Z</time></trkpt><trkpt lat="30.655638372350925" lon="-5.628137086497015"><ele>911.0</ele><time>2026-03-25T10:31:21.949Z</time></trkpt><trkpt lat="30.65574470659433" lon="-5.628099182764672"><ele>911.0</ele><time>2026-03-25T10:31:22.949Z</time></trkpt><trkpt lat="30.655869851228505" lon="-5.628052194366825"><ele>911.0</ele><time>2026-03-25T10:31:23.949Z</time></trkpt><trkpt lat="30.65597544904119" lon="-5.628006998313317"><ele>911.0</ele><time>2026-03-25T10:31:24.949Z</time></trkpt><trkpt lat="30.656080325441984" lon="-5.627970060854439"><ele>911.0</ele><time>2026-03-25T10:31:25.949Z</time></trkpt><trkpt lat="30.656190539483635" lon="-5.627938015285493"><ele>909.75</ele><time>2026-03-25T10:31:26.949Z</time></trkpt><trkpt lat="30.656296868205356" lon="-5.627912507597764"><ele>908.5</ele><time>2026-03-25T10:31:27.949Z</time></trkpt><trkpt lat="30.65641276533645" lon="-5.627890750932484"><ele>907.25</ele><time>2026-03-25T10:31:28.949Z</time></trkpt><trkpt lat="30.656521689841636" lon="-5.627869233848239"><ele>906.0</ele><time>2026-03-25T10:31:29.949Z</time></trkpt><trkpt lat="30.656642103061184" lon="-5.627836674082516"><ele>907.75</ele><time>2026-03-25T10:31:30.949Z</time></trkpt><trkpt lat="30.656763247400164" lon="-5.627808548823347"><ele>909.5</ele><time>2026-03-25T10:31:31.949Z</time></trkpt><trkpt lat="30.656878139481933" lon="-5.627773743068146"><ele>911.25</ele><time>2026-03-25T10:31:32.949Z</time></trkpt><trkpt lat="30.656991781006134" lon="-5.627730173803724"><ele>913.0</ele><time>2026-03-25T10:31:33.949Z</time></trkpt><trkpt lat="30.657099483214235" lon="-5.627676894317232"><ele>913.75</ele><time>2026-03-25T10:31:34.949Z</time></trkpt><trkpt lat="30.657218167357467" lon="-5.627610617759464"><ele>914.5</ele><time>2026-03-25T10:31:35.949Z</time></trkpt><trkpt lat="30.657333810060276" lon="-5.62753675734708"><ele>915.25</ele><time>2026-03-25T10:31:36.949Z</time></trkpt><trkpt lat="30.657446274900828" lon="-5.627465627578319"><ele>916.0</ele><time>2026-03-25T10:31:37.949Z</time></trkpt><trkpt lat="30.657554556931917" lon="-5.627400527447116"><ele>916.0</ele><time>2026-03-25T10:31:38.949Z</time></trkpt><trkpt lat="30.657678107676457" lon="-5.6273267300665974"><ele>916.0</ele><time>2026-03-25T10:31:39.949Z</time></trkpt><trkpt lat="30.65780499380516" lon="-5.627255463099531"><ele>916.0</ele><time>2026-03-25T10:31:40.949Z</time></trkpt><trkpt lat="30.657924428994676" lon="-5.627187351638671"><ele>916.0</ele><time>2026-03-25T10:31:41.949Z</time></trkpt><trkpt lat="30.658043907140815" lon="-5.627124635800699"><ele>915.75</ele><time>2026-03-25T10:31:42.949Z</time></trkpt><trkpt lat="30.658155656075746" lon="-5.627070130594927"><ele>915.5</ele><time>2026-03-25T10:31:43.949Z</time></trkpt><trkpt lat="30.65825821576055" lon="-5.627016844983582"><ele>915.25</ele><time>2026-03-25T10:31:44.949Z</time></trkpt><trkpt lat="30.658369124740428" lon="-5.626961388582148"><ele>915.0</ele><time>2026-03-25T10:31:45.949Z</time></trkpt><trkpt lat="30.65848502530685" lon="-5.62691206666043"><ele>915.0</ele><time>2026-03-25T10:31:46.949Z</time></trkpt><trkpt lat="30.65860400258849" lon="-5.626861846164063"><ele>915.0</ele><time>2026-03-25T10:31:47.949Z</time></trkpt><trkpt lat="30.658720082862512" lon="-5.62680853402146"><ele>915.0</ele><time>2026-03-25T10:31:48.949Z</time></trkpt><trkpt lat="30.65883246568672" lon="-5.626776310803426"><ele>915.0</ele><time>2026-03-25T10:31:49.95Z</time></trkpt><trkpt lat="30.658942291402532" lon="-5.626772248877688"><ele>914.75</ele><time>2026-03-25T10:31:50.949Z</time></trkpt><trkpt lat="30.659056224043294" lon="-5.626777522385182"><ele>914.5</ele><time>2026-03-25T10:31:51.949Z</time></trkpt><trkpt lat="30.65918178932066" lon="-5.626776454120864"><ele>914.25</ele><time>2026-03-25T10:31:52.95Z</time></trkpt><trkpt lat="30.65932208400436" lon="-5.626766955949868"><ele>914.0</ele><time>2026-03-25T10:31:53.949Z</time></trkpt><trkpt lat="30.659468564124683" lon="-5.626748495420605"><ele>913.75</ele><time>2026-03-25T10:31:54.949Z</time></trkpt><trkpt lat="30.659606690166513" lon="-5.6267291460543785"><ele>913.5</ele><time>2026-03-25T10:31:55.949Z</time></trkpt><trkpt lat="30.6597388483991" lon="-5.626701611819519"><ele>913.25</ele><time>2026-03-25T10:31:56.949Z</time></trkpt><trkpt lat="30.659871984559555" lon="-5.626654408256688"><ele>913.0</ele><time>2026-03-25T10:31:57.949Z</time></trkpt><trkpt lat="30.659981021336854" lon="-5.626586622415448"><ele>913.0</ele><time>2026-03-25T10:31:58.95Z</time></trkpt><trkpt lat="30.660105272913164" lon="-5.62649619339761"><ele>913.0</ele><time>2026-03-25T10:31:59.95Z</time></trkpt><trkpt lat="30.66024267470125" lon="-5.6263847829309555"><ele>913.0</ele><time>2026-03-25T10:32:00.95Z</time></trkpt><trkpt lat="30.66039138240783" lon="-5.6262671543264"><ele>912.6666666666666</ele><time>2026-03-25T10:32:01.949Z</time></trkpt><trkpt lat="30.660561709087617" lon="-5.626140488647687"><ele>912.3333333333333</ele><time>2026-03-25T10:32:02.949Z</time></trkpt><trkpt lat="30.660713375475346" lon="-5.626038723725921"><ele>912.0</ele><time>2026-03-25T10:32:03.949Z</time></trkpt><trkpt lat="30.660863980463457" lon="-5.625968992226222"><ele>912.0</ele><time>2026-03-25T10:32:04.949Z</time></trkpt><trkpt lat="30.661040382440483" lon="-5.62589810950292"><ele>912.0</ele><time>2026-03-25T10:32:05.949Z</time></trkpt><trkpt lat="30.661211760845152" lon="-5.625826343438518"><ele>912.0</ele><time>2026-03-25T10:32:06.949Z</time></trkpt><trkpt lat="30.66139060370461" lon="-5.625725890703849"><ele>910.3333333333333</ele><time>2026-03-25T10:32:07.949Z</time></trkpt><trkpt lat="30.66156685286107" lon="-5.6256270305353775"><ele>908.6666666666666</ele><time>2026-03-25T10:32:08.949Z</time></trkpt><trkpt lat="30.66172295560498" lon="-5.625551595443227"><ele>907.0</ele><time>2026-03-25T10:32:09.949Z</time></trkpt><trkpt lat="30.661881536514706" lon="-5.625493993725422"><ele>905.0</ele><time>2026-03-25T10:32:10.949Z</time></trkpt><trkpt lat="30.66204201655746" lon="-5.625453004192861"><ele>903.0</ele><time>2026-03-25T10:32:11.949Z</time></trkpt><trkpt lat="30.662196675571106" lon="-5.625406971692462"><ele>901.0</ele><time>2026-03-25T10:32:12.949Z</time></trkpt><trkpt lat="30.66233679683964" lon="-5.625335396547357"><ele>901.5</ele><time>2026-03-25T10:32:13.949Z</time></trkpt><trkpt lat="30.662468440984977" lon="-5.625265166472222"><ele>902.0</ele><time>2026-03-25T10:32:14.949Z</time></trkpt><trkpt lat="30.66260244203857" lon="-5.625214700270304"><ele>902.5</ele><time>2026-03-25T10:32:15.949Z</time></trkpt><trkpt lat="30.662737144516576" lon="-5.625172141826258"><ele>903.0</ele><time>2026-03-25T10:32:16.949Z</time></trkpt><trkpt lat="30.662884101299" lon="-5.625129734881873"><ele>903.0</ele><time>2026-03-25T10:32:17.949Z</time></trkpt><trkpt lat="30.663024986245638" lon="-5.625084977164366"><ele>903.0</ele><time>2026-03-25T10:32:18.949Z</time></trkpt><trkpt lat="30.66317208619878" lon="-5.625036609681638"><ele>903.0</ele><time>2026-03-25T10:32:19.949Z</time></trkpt><trkpt lat="30.663319673540908" lon="-5.624986396795059"><ele>903.0</ele><time>2026-03-25T10:32:20.949Z</time></trkpt><trkpt lat="30.663470968746463" lon="-5.624932911501263"><ele>903.0</ele><time>2026-03-25T10:32:21.949Z</time></trkpt><trkpt lat="30.66361632913092" lon="-5.624881773253957"><ele>903.0</ele><time>2026-03-25T10:32:22.949Z</time></trkpt><trkpt lat="30.663765162149968" lon="-5.624824713126843"><ele>901.6666666666667</ele><time>2026-03-25T10:32:23.949Z</time></trkpt><trkpt lat="30.66391070595828" lon="-5.624769359381574"><ele>900.3333333333334</ele><time>2026-03-25T10:32:24.949Z</time></trkpt><trkpt lat="30.66406158808927" lon="-5.624719499218811"><ele>899.0</ele><time>2026-03-25T10:32:25.949Z</time></trkpt><trkpt lat="30.664229441670866" lon="-5.624694035078693"><ele>899.0</ele><time>2026-03-25T10:32:26.949Z</time></trkpt><trkpt lat="30.664397164006157" lon="-5.624682256151329"><ele>899.0</ele><time>2026-03-25T10:32:27.949Z</time></trkpt><trkpt lat="30.66456445079937" lon="-5.624680612485356"><ele>899.0</ele><time>2026-03-25T10:32:28.949Z</time></trkpt><trkpt lat="30.66472316649957" lon="-5.624671117793342"><ele>897.3333333333334</ele><time>2026-03-25T10:32:29.949Z</time></trkpt><trkpt lat="30.664908654331697" lon="-5.624650321552977"><ele>895.6666666666667</ele><time>2026-03-25T10:32:30.949Z</time></trkpt><trkpt lat="30.66508795342731" lon="-5.624643556694567"><ele>894.0</ele><time>2026-03-25T10:32:31.949Z</time></trkpt><trkpt lat="30.66525805860082" lon="-5.624632673860611"><ele>893.6666666666667</ele><time>2026-03-25T10:32:32.949Z</time></trkpt><trkpt lat="30.665408681365196" lon="-5.624617429428078"><ele>893.3333333333334</ele><time>2026-03-25T10:32:33.949Z</time></trkpt><trkpt lat="30.66555395219138" lon="-5.624595420789047"><ele>893.0</ele><time>2026-03-25T10:32:34.949Z</time></trkpt><trkpt lat="30.665704969406438" lon="-5.624565999992771"><ele>893.0</ele><time>2026-03-25T10:32:35.949Z</time></trkpt><trkpt lat="30.665851542319434" lon="-5.624547136722834"><ele>893.0</ele><time>2026-03-25T10:32:36.949Z</time></trkpt><trkpt lat="30.666015189735546" lon="-5.624542233943538"><ele>893.0</ele><time>2026-03-25T10:32:37.949Z</time></trkpt><trkpt lat="30.6661789760175" lon="-5.624535790224677"><ele>893.0</ele><time>2026-03-25T10:32:38.949Z</time></trkpt><trkpt lat="30.66633669564072" lon="-5.624506118258292"><ele>893.0</ele><time>2026-03-25T10:32:39.949Z</time></trkpt><trkpt lat="30.66649488007278" lon="-5.624485178696413"><ele>893.0</ele><time>2026-03-25T10:32:40.949Z</time></trkpt><trkpt lat="30.666662191228102" lon="-5.624471747665857"><ele>893.0</ele><time>2026-03-25T10:32:41.949Z</time></trkpt><trkpt lat="30.666831974808193" lon="-5.624457457348135"><ele>893.0</ele><time>2026-03-25T10:32:42.949Z</time></trkpt><trkpt lat="30.66699472200349" lon="-5.624452753693754"><ele>893.0</ele><time>2026-03-25T10:32:43.949Z</time></trkpt><trkpt lat="30.6671567560483" lon="-5.624433085493265"><ele>893.0</ele><time>2026-03-25T10:32:44.949Z</time></trkpt><trkpt lat="30.667308442229892" lon="-5.624388745096073"><ele>893.0</ele><time>2026-03-25T10:32:45.949Z</time></trkpt><trkpt lat="30.667458476336435" lon="-5.624355907867898"><ele>893.0</ele><time>2026-03-25T10:32:46.949Z</time></trkpt><trkpt lat="30.667612982470402" lon="-5.624343907206337"><ele>893.0</ele><time>2026-03-25T10:32:47.949Z</time></trkpt><trkpt lat="30.667767609888077" lon="-5.624333244351745"><ele>893.0</ele><time>2026-03-25T10:32:48.949Z</time></trkpt><trkpt lat="30.6679272958431" lon="-5.624313291333707"><ele>893.0</ele><time>2026-03-25T10:32:49.949Z</time></trkpt><trkpt lat="30.66809620694953" lon="-5.624296833636418"><ele>893.0</ele><time>2026-03-25T10:32:50.949Z</time></trkpt><trkpt lat="30.668273036657194" lon="-5.624285874551094"><ele>893.0</ele><time>2026-03-25T10:32:51.949Z</time></trkpt><trkpt lat="30.6684364045924" lon="-5.6242759652709235"><ele>893.0</ele><time>2026-03-25T10:32:52.949Z</time></trkpt><trkpt lat="30.668580367346753" lon="-5.624265241392534"><ele>892.5</ele><time>2026-03-25T10:32:53.949Z</time></trkpt><trkpt lat="30.668723300727027" lon="-5.624253129254709"><ele>892.0</ele><time>2026-03-25T10:32:54.949Z</time></trkpt><trkpt lat="30.668868665223172" lon="-5.624235625638928"><ele>891.5</ele><time>2026-03-25T10:32:55.949Z</time></trkpt><trkpt lat="30.669017213869633" lon="-5.6241848184482075"><ele>891.0</ele><time>2026-03-25T10:32:56.949Z</time></trkpt><trkpt lat="30.669172625064604" lon="-5.624111222256933"><ele>891.0</ele><time>2026-03-25T10:32:57.949Z</time></trkpt><trkpt lat="30.66932024979089" lon="-5.624039826013873"><ele>891.0</ele><time>2026-03-25T10:32:58.949Z</time></trkpt><trkpt lat="30.66945252100326" lon="-5.623990483564635"><ele>891.0</ele><time>2026-03-25T10:32:59.949Z</time></trkpt><trkpt lat="30.669601986532346" lon="-5.623953372663677"><ele>890.5</ele><time>2026-03-25T10:33:00.949Z</time></trkpt><trkpt lat="30.669743040789534" lon="-5.62393009041673"><ele>890.0</ele><time>2026-03-25T10:33:01.949Z</time></trkpt><trkpt lat="30.669875386374873" lon="-5.6238891854334625"><ele>889.5</ele><time>2026-03-25T10:33:02.949Z</time></trkpt><trkpt lat="30.669988634580278" lon="-5.623842985201878"><ele>889.0</ele><time>2026-03-25T10:33:03.949Z</time></trkpt><trkpt lat="30.670092480132713" lon="-5.623797143879855"><ele>889.0</ele><time>2026-03-25T10:33:04.949Z</time></trkpt><trkpt lat="30.670198888631173" lon="-5.623755829538524"><ele>889.0</ele><time>2026-03-25T10:33:05.949Z</time></trkpt><trkpt lat="30.670298499187965" lon="-5.623721616131527"><ele>889.0</ele><time>2026-03-25T10:33:06.949Z</time></trkpt><trkpt lat="30.670413882498774" lon="-5.623688491570372"><ele>889.0</ele><time>2026-03-25T10:33:07.949Z</time></trkpt><trkpt lat="30.670537594186836" lon="-5.623649464739644"><ele>889.25</ele><time>2026-03-25T10:33:08.949Z</time></trkpt><trkpt lat="30.67067067954245" lon="-5.623598876344189"><ele>889.5</ele><time>2026-03-25T10:33:09.949Z</time></trkpt><trkpt lat="30.67082000252508" lon="-5.623552885762446"><ele>889.75</ele><time>2026-03-25T10:33:10.949Z</time></trkpt><trkpt lat="30.670963914256536" lon="-5.62350844846241"><ele>890.0</ele><time>2026-03-25T10:33:11.949Z</time></trkpt><trkpt lat="30.671109361414835" lon="-5.623455372477359"><ele>889.0</ele><time>2026-03-25T10:33:12.949Z</time></trkpt><trkpt lat="30.671247966956674" lon="-5.623396953184067"><ele>888.0</ele><time>2026-03-25T10:33:13.949Z</time></trkpt><trkpt lat="30.67139214704111" lon="-5.6233392400750315"><ele>887.0</ele><time>2026-03-25T10:33:14.949Z</time></trkpt><trkpt lat="30.671561948370755" lon="-5.623289787043323"><ele>887.0</ele><time>2026-03-25T10:33:15.949Z</time></trkpt><trkpt lat="30.67173797294814" lon="-5.623244274144042"><ele>887.0</ele><time>2026-03-25T10:33:16.949Z</time></trkpt><trkpt lat="30.671882022126322" lon="-5.623202897921437"><ele>887.0</ele><time>2026-03-25T10:33:17.949Z</time></trkpt><trkpt lat="30.672014726017927" lon="-5.623163771847383"><ele>886.25</ele><time>2026-03-25T10:33:18.949Z</time></trkpt><trkpt lat="30.672151131001865" lon="-5.6231173370431975"><ele>885.5</ele><time>2026-03-25T10:33:19.949Z</time></trkpt><trkpt lat="30.672288383191542" lon="-5.623066526206225"><ele>884.75</ele><time>2026-03-25T10:33:20.949Z</time></trkpt><trkpt lat="30.672429456574832" lon="-5.623030956502116"><ele>884.0</ele><time>2026-03-25T10:33:21.949Z</time></trkpt><trkpt lat="30.672525541735386" lon="-5.623005397546217"><ele>884.0000000000001</ele><time>2026-03-25T10:33:22.949Z</time></trkpt><trkpt lat="30.672590149182252" lon="-5.622987550229248"><ele>884.0</ele><time>2026-03-25T10:33:23.949Z</time></trkpt><trkpt lat="30.672693805570717" lon="-5.622956713250624"><ele>884.0</ele><time>2026-03-25T10:33:25.949Z</time></trkpt><trkpt lat="30.67277901365431" lon="-5.622918170460036"><ele>884.0</ele><time>2026-03-25T10:33:27.949Z</time></trkpt><trkpt lat="30.672856631688905" lon="-5.622885437120667"><ele>884.0000000000001</ele><time>2026-03-25T10:33:30.949Z</time></trkpt><trkpt lat="30.672920516621428" lon="-5.622869967454436"><ele>884.0</ele><time>2026-03-25T10:38:16.943Z</time></trkpt><trkpt lat="30.672988777614677" lon="-5.622852864969331"><ele>883.2</ele><time>2026-03-25T10:38:17.943Z</time></trkpt><trkpt lat="30.673086250651878" lon="-5.622826383973736"><ele>882.4000000000001</ele><time>2026-03-25T10:38:18.943Z</time></trkpt><trkpt lat="30.673192541563957" lon="-5.622801028720921"><ele>881.6</ele><time>2026-03-25T10:38:19.943Z</time></trkpt><trkpt lat="30.673289081497416" lon="-5.622769326103825"><ele>880.8</ele><time>2026-03-25T10:38:20.944Z</time></trkpt><trkpt lat="30.673387222302225" lon="-5.622735750119171"><ele>880.0</ele><time>2026-03-25T10:38:21.944Z</time></trkpt><trkpt lat="30.67348712333248" lon="-5.622697102568268"><ele>880.0</ele><time>2026-03-25T10:38:22.944Z</time></trkpt><trkpt lat="30.673589406404243" lon="-5.622655845575118"><ele>880.0</ele><time>2026-03-25T10:38:23.944Z</time></trkpt><trkpt lat="30.673691923258005" lon="-5.622571026208866"><ele>880.0</ele><time>2026-03-25T10:38:24.944Z</time></trkpt><trkpt lat="30.67380613570197" lon="-5.622540191481514"><ele>880.0</ele><time>2026-03-25T10:38:25.944Z</time></trkpt><trkpt lat="30.673922614719302" lon="-5.622527475989867"><ele>879.75</ele><time>2026-03-25T10:38:26.944Z</time></trkpt><trkpt lat="30.674058173478574" lon="-5.622491916833964"><ele>879.5</ele><time>2026-03-25T10:38:27.944Z</time></trkpt><trkpt lat="30.674210480815265" lon="-5.622449021168212"><ele>879.25</ele><time>2026-03-25T10:38:28.944Z</time></trkpt><trkpt lat="30.67435419565121" lon="-5.622411412569438"><ele>879.0</ele><time>2026-03-25T10:38:29.944Z</time></trkpt><trkpt lat="30.674486034016002" lon="-5.622373360571188"><ele>879.0</ele><time>2026-03-25T10:38:30.944Z</time></trkpt><trkpt lat="30.674611820403776" lon="-5.622339895192219"><ele>879.0</ele><time>2026-03-25T10:38:31.944Z</time></trkpt><trkpt lat="30.674735510941094" lon="-5.622313219932297"><ele>879.0</ele><time>2026-03-25T10:38:32.944Z</time></trkpt><trkpt lat="30.674862470178507" lon="-5.622300541413718"><ele>879.0</ele><time>2026-03-25T10:38:33.944Z</time></trkpt><trkpt lat="30.67499331299925" lon="-5.6223137216581405"><ele>879.0</ele><time>2026-03-25T10:38:34.944Z</time></trkpt><trkpt lat="30.6751238412623" lon="-5.622345767592752"><ele>879.0</ele><time>2026-03-25T10:38:35.944Z</time></trkpt><trkpt lat="30.675268163612195" lon="-5.622380422508483"><ele>879.0</ele><time>2026-03-25T10:38:36.944Z</time></trkpt><trkpt lat="30.675405961161143" lon="-5.622395961927419"><ele>879.0</ele><time>2026-03-25T10:38:37.944Z</time></trkpt><trkpt lat="30.675544510184732" lon="-5.6224131401917"><ele>878.25</ele><time>2026-03-25T10:38:38.944Z</time></trkpt><trkpt lat="30.675686351705334" lon="-5.622430365245413"><ele>877.5</ele><time>2026-03-25T10:38:39.944Z</time></trkpt><trkpt lat="30.67582702033468" lon="-5.62243501110828"><ele>876.75</ele><time>2026-03-25T10:38:40.944Z</time></trkpt><trkpt lat="30.675951137949244" lon="-5.622436571762435"><ele>876.0</ele><time>2026-03-25T10:38:41.944Z</time></trkpt><trkpt lat="30.67607639847695" lon="-5.622418180981196"><ele>875.5</ele><time>2026-03-25T10:38:42.944Z</time></trkpt><trkpt lat="30.67620047733902" lon="-5.62238910569356"><ele>875.0</ele><time>2026-03-25T10:38:43.944Z</time></trkpt><trkpt lat="30.67632849724229" lon="-5.622337830162481"><ele>874.5</ele><time>2026-03-25T10:38:44.944Z</time></trkpt><trkpt lat="30.676459288612804" lon="-5.6222973264723"><ele>874.0</ele><time>2026-03-25T10:38:45.944Z</time></trkpt><trkpt lat="30.676599348901625" lon="-5.622260193676016"><ele>874.0</ele><time>2026-03-25T10:38:46.944Z</time></trkpt><trkpt lat="30.676732986694603" lon="-5.622225842333406"><ele>874.0</ele><time>2026-03-25T10:38:47.944Z</time></trkpt><trkpt lat="30.676862639353043" lon="-5.622187150497446"><ele>874.0</ele><time>2026-03-25T10:38:48.944Z</time></trkpt><trkpt lat="30.676988514837504" lon="-5.6221525197627455"><ele>874.0</ele><time>2026-03-25T10:38:49.944Z</time></trkpt><trkpt lat="30.67711501689175" lon="-5.622114055586532"><ele>873.75</ele><time>2026-03-25T10:38:50.944Z</time></trkpt><trkpt lat="30.677238400385743" lon="-5.622075004372981"><ele>873.5</ele><time>2026-03-25T10:38:51.944Z</time></trkpt><trkpt lat="30.677382860972575" lon="-5.622044980944267"><ele>873.25</ele><time>2026-03-25T10:38:52.944Z</time></trkpt><trkpt lat="30.677526056708686" lon="-5.622039036323338"><ele>873.0</ele><time>2026-03-25T10:38:53.944Z</time></trkpt><trkpt lat="30.677671888856775" lon="-5.622045521036119"><ele>873.25</ele><time>2026-03-25T10:38:54.944Z</time></trkpt><trkpt lat="30.67781749923528" lon="-5.622044339887545"><ele>873.5</ele><time>2026-03-25T10:38:55.944Z</time></trkpt><trkpt lat="30.67795356587786" lon="-5.622023939146132"><ele>873.75</ele><time>2026-03-25T10:38:56.944Z</time></trkpt><trkpt lat="30.678083847790187" lon="-5.621991567333205"><ele>874.0</ele><time>2026-03-25T10:38:57.944Z</time></trkpt><trkpt lat="30.67821815230803" lon="-5.621946813858119"><ele>873.25</ele><time>2026-03-25T10:38:58.944Z</time></trkpt><trkpt lat="30.678346964279914" lon="-5.621900189896559"><ele>872.5</ele><time>2026-03-25T10:38:59.944Z</time></trkpt><trkpt lat="30.67849144985967" lon="-5.6218383391722355"><ele>871.75</ele><time>2026-03-25T10:39:00.944Z</time></trkpt><trkpt lat="30.678635091013458" lon="-5.621775805338782"><ele>871.0</ele><time>2026-03-25T10:39:01.944Z</time></trkpt><trkpt lat="30.67878599647348" lon="-5.621716829692905"><ele>871.0</ele><time>2026-03-25T10:39:02.944Z</time></trkpt><trkpt lat="30.678934211245853" lon="-5.621670460042004"><ele>871.0</ele><time>2026-03-25T10:39:03.944Z</time></trkpt><trkpt lat="30.679079267873366" lon="-5.62162564957976"><ele>871.0</ele><time>2026-03-25T10:39:04.944Z</time></trkpt><trkpt lat="30.67921484352327" lon="-5.621573192881952"><ele>871.0</ele><time>2026-03-25T10:39:05.944Z</time></trkpt><trkpt lat="30.679346162163636" lon="-5.621507353532158"><ele>871.0</ele><time>2026-03-25T10:39:06.944Z</time></trkpt><trkpt lat="30.679471345429498" lon="-5.621430268687409"><ele>871.0</ele><time>2026-03-25T10:39:07.944Z</time></trkpt><trkpt lat="30.679591850370745" lon="-5.621347638465865"><ele>871.0</ele><time>2026-03-25T10:39:08.944Z</time></trkpt><trkpt lat="30.67970690575239" lon="-5.621272726437458"><ele>871.0</ele><time>2026-03-25T10:39:09.944Z</time></trkpt><trkpt lat="30.679824634987295" lon="-5.621217319609661"><ele>871.0</ele><time>2026-03-25T10:39:10.944Z</time></trkpt><trkpt lat="30.679955353571703" lon="-5.621184153382946"><ele>871.0</ele><time>2026-03-25T10:39:11.944Z</time></trkpt><trkpt lat="30.680098040086477" lon="-5.6211589393597325"><ele>871.0</ele><time>2026-03-25T10:39:12.944Z</time></trkpt><trkpt lat="30.6802465686322" lon="-5.621127034006282"><ele>871.0</ele><time>2026-03-25T10:39:13.944Z</time></trkpt><trkpt lat="30.680389565847793" lon="-5.62110245416189"><ele>870.25</ele><time>2026-03-25T10:39:14.944Z</time></trkpt><trkpt lat="30.68052740830366" lon="-5.621095391951148"><ele>869.5</ele><time>2026-03-25T10:39:15.944Z</time></trkpt><trkpt lat="30.680677184792458" lon="-5.62110184592136"><ele>868.75</ele><time>2026-03-25T10:39:16.944Z</time></trkpt><trkpt lat="30.680823789821627" lon="-5.621085714091372"><ele>868.0</ele><time>2026-03-25T10:39:17.944Z</time></trkpt><trkpt lat="30.6809628071727" lon="-5.621055441068963"><ele>868.0</ele><time>2026-03-25T10:39:18.944Z</time></trkpt><trkpt lat="30.68109389003871" lon="-5.621015737885226"><ele>868.0</ele><time>2026-03-25T10:39:19.944Z</time></trkpt><trkpt lat="30.68121302517687" lon="-5.620970111534624"><ele>868.0</ele><time>2026-03-25T10:39:20.944Z</time></trkpt><trkpt lat="30.68132901177952" lon="-5.620921535854833"><ele>868.0</ele><time>2026-03-25T10:39:21.944Z</time></trkpt><trkpt lat="30.681448306284597" lon="-5.6208776616722504"><ele>867.75</ele><time>2026-03-25T10:39:22.944Z</time></trkpt><trkpt lat="30.681569995402604" lon="-5.620836313325975"><ele>867.5</ele><time>2026-03-25T10:39:23.944Z</time></trkpt><trkpt lat="30.68170651094539" lon="-5.620790611567167"><ele>867.25</ele><time>2026-03-25T10:39:24.944Z</time></trkpt><trkpt lat="30.68184692205832" lon="-5.620743675281836"><ele>867.0</ele><time>2026-03-25T10:39:25.944Z</time></trkpt><trkpt lat="30.681985543719925" lon="-5.620700708525955"><ele>867.0</ele><time>2026-03-25T10:39:26.944Z</time></trkpt><trkpt lat="30.682129134268727" lon="-5.620662318477186"><ele>867.0</ele><time>2026-03-25T10:39:27.944Z</time></trkpt><trkpt lat="30.68227773283891" lon="-5.620620675828607"><ele>867.0</ele><time>2026-03-25T10:39:28.944Z</time></trkpt><trkpt lat="30.682420300548927" lon="-5.620566466030703"><ele>867.0</ele><time>2026-03-25T10:39:29.944Z</time></trkpt><trkpt lat="30.68257087695616" lon="-5.6205044449976445"><ele>867.0</ele><time>2026-03-25T10:39:30.944Z</time></trkpt><trkpt lat="30.682723231184504" lon="-5.620448658022287"><ele>867.0</ele><time>2026-03-25T10:39:31.944Z</time></trkpt><trkpt lat="30.682871800929497" lon="-5.62039800999956"><ele>867.0</ele><time>2026-03-25T10:39:32.944Z</time></trkpt><trkpt lat="30.683024743953524" lon="-5.620349011817627"><ele>867.0</ele><time>2026-03-25T10:39:33.944Z</time></trkpt><trkpt lat="30.683183416182892" lon="-5.620302454605525"><ele>867.0</ele><time>2026-03-25T10:39:34.944Z</time></trkpt><trkpt lat="30.683339067480357" lon="-5.620255888878352"><ele>867.0</ele><time>2026-03-25T10:39:35.944Z</time></trkpt><trkpt lat="30.68349943005023" lon="-5.6202015141757835"><ele>867.0</ele><time>2026-03-25T10:39:36.944Z</time></trkpt><trkpt lat="30.683641419325685" lon="-5.620145665255846"><ele>867.0</ele><time>2026-03-25T10:39:37.944Z</time></trkpt><trkpt lat="30.683775023907483" lon="-5.620098733064788"><ele>867.5</ele><time>2026-03-25T10:39:38.944Z</time></trkpt><trkpt lat="30.683911241378343" lon="-5.620052841350715"><ele>868.0</ele><time>2026-03-25T10:39:39.944Z</time></trkpt><trkpt lat="30.684049770496674" lon="-5.620008113927157"><ele>868.5</ele><time>2026-03-25T10:39:40.944Z</time></trkpt><trkpt lat="30.68418681096131" lon="-5.619976699147261"><ele>869.0</ele><time>2026-03-25T10:39:41.944Z</time></trkpt><trkpt lat="30.6843300344011" lon="-5.619963138573377"><ele>870.0</ele><time>2026-03-25T10:39:42.944Z</time></trkpt><trkpt lat="30.68449201524013" lon="-5.619965550059033"><ele>871.0</ele><time>2026-03-25T10:39:43.943Z</time></trkpt><trkpt lat="30.68466273397341" lon="-5.61997863777782"><ele>872.0</ele><time>2026-03-25T10:39:44.943Z</time></trkpt><trkpt lat="30.684824227557655" lon="-5.619994259260917"><ele>872.0</ele><time>2026-03-25T10:39:45.943Z</time></trkpt><trkpt lat="30.68496106381015" lon="-5.619990147707756"><ele>872.0</ele><time>2026-03-25T10:39:46.943Z</time></trkpt><trkpt lat="30.68509173902955" lon="-5.619975377564356"><ele>872.0</ele><time>2026-03-25T10:39:47.943Z</time></trkpt><trkpt lat="30.68521836195827" lon="-5.619973866249433"><ele>872.0</ele><time>2026-03-25T10:39:48.943Z</time></trkpt><trkpt lat="30.68533625673028" lon="-5.619978556478789"><ele>870.8</ele><time>2026-03-25T10:39:49.943Z</time></trkpt><trkpt lat="30.68543438645105" lon="-5.619989590282919"><ele>869.6</ele><time>2026-03-25T10:39:50.943Z</time></trkpt><trkpt lat="30.685519056664404" lon="-5.619995879375965"><ele>868.3999999999999</ele><time>2026-03-25T10:39:51.943Z</time></trkpt><trkpt lat="30.685587640025467" lon="-5.6199934677642"><ele>867.1999999999999</ele><time>2026-03-25T10:39:52.943Z</time></trkpt><trkpt lat="30.68570560567523" lon="-5.619978981880139"><ele>866.0</ele><time>2026-03-25T10:39:54.943Z</time></trkpt><trkpt lat="30.685801342555383" lon="-5.619908360488204"><ele>866.0</ele><time>2026-03-25T10:39:56.943Z</time></trkpt><trkpt lat="30.6858287595573" lon="-5.619805805929526"><ele>865.9999999999999</ele><time>2026-03-25T10:39:58.943Z</time></trkpt><trkpt lat="30.68585907789738" lon="-5.619724761617413"><ele>865.9999999999999</ele><time>2026-03-25T10:40:02.943Z</time></trkpt><trkpt lat="30.685898693602123" lon="-5.619642957622853"><ele>866.0</ele><time>2026-03-25T10:40:04.943Z</time></trkpt><trkpt lat="30.685984000300692" lon="-5.6195629135255025"><ele>866.0</ele><time>2026-03-25T10:40:06.943Z</time></trkpt><trkpt lat="30.686077414823483" lon="-5.619505390720548"><ele>867.1999999999999</ele><time>2026-03-25T10:40:08.943Z</time></trkpt><trkpt lat="30.686195640075393" lon="-5.6194495769323405"><ele>868.3999999999999</ele><time>2026-03-25T10:40:10.943Z</time></trkpt><trkpt lat="30.686260943285276" lon="-5.619437956765277"><ele>869.6</ele><time>2026-03-25T10:40:11.943Z</time></trkpt><trkpt lat="30.686371823735495" lon="-5.619431314014196"><ele>870.8</ele><time>2026-03-25T10:40:13.943Z</time></trkpt><trkpt lat="30.68649381379903" lon="-5.619424618232198"><ele>872.0</ele><time>2026-03-25T10:40:15.943Z</time></trkpt><trkpt lat="30.686563975156503" lon="-5.619425362630348"><ele>872.0000000000001</ele><time>2026-03-25T10:40:16.943Z</time></trkpt><trkpt lat="30.68664185430621" lon="-5.619431950866498"><ele>872.0</ele><time>2026-03-25T10:40:17.943Z</time></trkpt><trkpt lat="30.686716244893255" lon="-5.619437709957215"><ele>872.0</ele><time>2026-03-25T10:40:18.943Z</time></trkpt><trkpt lat="30.68679512920682" lon="-5.619444108063372"><ele>872.0</ele><time>2026-03-25T10:40:19.943Z</time></trkpt><trkpt lat="30.686868148686496" lon="-5.619448242600457"><ele>872.0000000000001</ele><time>2026-03-25T10:40:20.942Z</time></trkpt><trkpt lat="30.686939717300252" lon="-5.6194571200656975"><ele>872.0</ele><time>2026-03-25T10:40:21.942Z</time></trkpt><trkpt lat="30.687033442819867" lon="-5.61946285192669"><ele>872.0</ele><time>2026-03-25T10:40:22.942Z</time></trkpt><trkpt lat="30.68712699064151" lon="-5.619469437056239"><ele>872.0</ele><time>2026-03-25T10:40:23.943Z</time></trkpt><trkpt lat="30.687214119258105" lon="-5.619468729124194"><ele>872.0</ele><time>2026-03-25T10:40:24.943Z</time></trkpt><trkpt lat="30.68730559898366" lon="-5.619468166907246"><ele>872.0</ele><time>2026-03-25T10:40:25.943Z</time></trkpt><trkpt lat="30.687400000715165" lon="-5.619471054565962"><ele>872.0</ele><time>2026-03-25T10:40:26.943Z</time></trkpt><trkpt lat="30.68749830758704" lon="-5.619474031829199"><ele>872.0</ele><time>2026-03-25T10:40:27.943Z</time></trkpt><trkpt lat="30.687603231045255" lon="-5.619480398881158"><ele>872.0</ele><time>2026-03-25T10:40:28.943Z</time></trkpt><trkpt lat="30.68770539897001" lon="-5.6194666160248765"><ele>872.0</ele><time>2026-03-25T10:40:29.943Z</time></trkpt><trkpt lat="30.68783008821386" lon="-5.619466145960397"><ele>872.0</ele><time>2026-03-25T10:40:30.943Z</time></trkpt><trkpt lat="30.68794544917756" lon="-5.619452138043551"><ele>872.0</ele><time>2026-03-25T10:40:31.943Z</time></trkpt><trkpt lat="30.68805944502241" lon="-5.619435316828086"><ele>871.25</ele><time>2026-03-25T10:40:32.943Z</time></trkpt><trkpt lat="30.688173220370235" lon="-5.619414507722897"><ele>870.5</ele><time>2026-03-25T10:40:33.943Z</time></trkpt><trkpt lat="30.68829373742278" lon="-5.619387757880788"><ele>869.75</ele><time>2026-03-25T10:40:34.943Z</time></trkpt><trkpt lat="30.688422972048507" lon="-5.61935346477232"><ele>869.0</ele><time>2026-03-25T10:40:35.943Z</time></trkpt><trkpt lat="30.688566665831555" lon="-5.619307545424308"><ele>867.6666666666667</ele><time>2026-03-25T10:40:36.943Z</time></trkpt><trkpt lat="30.688725874044604" lon="-5.6192455226423075"><ele>866.3333333333333</ele><time>2026-03-25T10:40:37.943Z</time></trkpt><trkpt lat="30.688868536311727" lon="-5.619163160664052"><ele>865.0</ele><time>2026-03-25T10:40:38.943Z</time></trkpt><trkpt lat="30.68898452575102" lon="-5.61908559805605"><ele>865.0</ele><time>2026-03-25T10:40:39.943Z</time></trkpt><trkpt lat="30.689097955063318" lon="-5.61901373350306"><ele>865.0</ele><time>2026-03-25T10:40:40.943Z</time></trkpt><trkpt lat="30.689204187397703" lon="-5.618942294268157"><ele>865.0</ele><time>2026-03-25T10:40:41.943Z</time></trkpt><trkpt lat="30.68931274401736" lon="-5.618859112133993"><ele>865.0</ele><time>2026-03-25T10:40:42.943Z</time></trkpt><trkpt lat="30.68942223306364" lon="-5.618757593772694"><ele>864.75</ele><time>2026-03-25T10:40:43.943Z</time></trkpt><trkpt lat="30.689528401716508" lon="-5.618650787174266"><ele>864.5</ele><time>2026-03-25T10:40:44.943Z</time></trkpt><trkpt lat="30.68964120739293" lon="-5.618539317519866"><ele>864.25</ele><time>2026-03-25T10:40:45.943Z</time></trkpt><trkpt lat="30.689750742717624" lon="-5.618416847467906"><ele>864.0</ele><time>2026-03-25T10:40:46.943Z</time></trkpt><trkpt lat="30.68985622170022" lon="-5.618293567591921"><ele>864.0</ele><time>2026-03-25T10:40:47.943Z</time></trkpt><trkpt lat="30.68995062512657" lon="-5.618161843268617"><ele>864.0</ele><time>2026-03-25T10:40:48.943Z</time></trkpt><trkpt lat="30.69004277162506" lon="-5.618026611210961"><ele>864.0</ele><time>2026-03-25T10:40:49.943Z</time></trkpt><trkpt lat="30.690141795317714" lon="-5.617881304316344"><ele>862.0</ele><time>2026-03-25T10:40:50.943Z</time></trkpt><trkpt lat="30.69024585525399" lon="-5.6177275705691585"><ele>860.0</ele><time>2026-03-25T10:40:51.943Z</time></trkpt><trkpt lat="30.69034767499775" lon="-5.617576288262908"><ele>858.0</ele><time>2026-03-25T10:40:52.943Z</time></trkpt><trkpt lat="30.69044497202315" lon="-5.617431532054327"><ele>858.0</ele><time>2026-03-25T10:40:53.943Z</time></trkpt><trkpt lat="30.690534077326497" lon="-5.617294358761857"><ele>858.0</ele><time>2026-03-25T10:40:54.943Z</time></trkpt><trkpt lat="30.6906259045848" lon="-5.61715804739363"><ele>858.0</ele><time>2026-03-25T10:40:55.943Z</time></trkpt><trkpt lat="30.69071424220052" lon="-5.617032328924739"><ele>858.0</ele><time>2026-03-25T10:40:56.943Z</time></trkpt><trkpt lat="30.690794889361143" lon="-5.616916830271942"><ele>858.5</ele><time>2026-03-25T10:40:57.943Z</time></trkpt><trkpt lat="30.69087393033143" lon="-5.616806283674068"><ele>859.0</ele><time>2026-03-25T10:40:58.943Z</time></trkpt><trkpt lat="30.690939317350928" lon="-5.616697018351901"><ele>859.5</ele><time>2026-03-25T10:40:59.943Z</time></trkpt><trkpt lat="30.691022906100383" lon="-5.616555038746146"><ele>860.0</ele><time>2026-03-25T10:41:00.943Z</time></trkpt><trkpt lat="30.691110268075086" lon="-5.61643003382667"><ele>860.0</ele><time>2026-03-25T10:41:01.943Z</time></trkpt><trkpt lat="30.691212856717875" lon="-5.616283764471607"><ele>860.0</ele><time>2026-03-25T10:41:02.943Z</time></trkpt><trkpt lat="30.691303570421336" lon="-5.616147550837757"><ele>860.0</ele><time>2026-03-25T10:41:03.943Z</time></trkpt><trkpt lat="30.691392819690428" lon="-5.616004804994391"><ele>859.6666666666667</ele><time>2026-03-25T10:41:04.943Z</time></trkpt><trkpt lat="30.691482390413572" lon="-5.6158521127220835"><ele>859.3333333333333</ele><time>2026-03-25T10:41:05.943Z</time></trkpt><trkpt lat="30.691564520726324" lon="-5.615691166700203"><ele>859.0</ele><time>2026-03-25T10:41:06.943Z</time></trkpt><trkpt lat="30.691652266230218" lon="-5.615499870717146"><ele>862.3333333333333</ele><time>2026-03-25T10:41:07.943Z</time></trkpt><trkpt lat="30.69172545367032" lon="-5.615296469254051"><ele>865.6666666666667</ele><time>2026-03-25T10:41:08.943Z</time></trkpt><trkpt lat="30.691775122175635" lon="-5.6151111074915985"><ele>869.0</ele><time>2026-03-25T10:41:09.943Z</time></trkpt><trkpt lat="30.691816047084263" lon="-5.614934558415852"><ele>869.0</ele><time>2026-03-25T10:41:10.943Z</time></trkpt><trkpt lat="30.691841818994888" lon="-5.614774674743698"><ele>869.0</ele><time>2026-03-25T10:41:11.943Z</time></trkpt><trkpt lat="30.691868926548974" lon="-5.614622224308923"><ele>869.0</ele><time>2026-03-25T10:41:12.943Z</time></trkpt><trkpt lat="30.691888573443617" lon="-5.614470989572738"><ele>869.0</ele><time>2026-03-25T10:41:13.943Z</time></trkpt><trkpt lat="30.691906042575273" lon="-5.614315485445117"><ele>869.5</ele><time>2026-03-25T10:41:14.943Z</time></trkpt><trkpt lat="30.691917564237794" lon="-5.61415789876127"><ele>870.0</ele><time>2026-03-25T10:41:15.943Z</time></trkpt><trkpt lat="30.69192647933155" lon="-5.613990049058331"><ele>870.5</ele><time>2026-03-25T10:41:16.943Z</time></trkpt><trkpt lat="30.69191968607768" lon="-5.61381385765516"><ele>871.0</ele><time>2026-03-25T10:41:17.943Z</time></trkpt><trkpt lat="30.69191886227386" lon="-5.613646410419332"><ele>872.5</ele><time>2026-03-25T10:41:18.943Z</time></trkpt><trkpt lat="30.69190328270042" lon="-5.61347303375968"><ele>874.0</ele><time>2026-03-25T10:41:19.943Z</time></trkpt><trkpt lat="30.691879643254392" lon="-5.613295199299502"><ele>875.5</ele><time>2026-03-25T10:41:20.943Z</time></trkpt><trkpt lat="30.691863058124465" lon="-5.613134050793585"><ele>877.0</ele><time>2026-03-25T10:41:21.943Z</time></trkpt><trkpt lat="30.691834633026556" lon="-5.612978903201568"><ele>872.6666666666666</ele><time>2026-03-25T10:41:22.943Z</time></trkpt><trkpt lat="30.691799439099924" lon="-5.612809994790837"><ele>868.3333333333333</ele><time>2026-03-25T10:41:23.943Z</time></trkpt><trkpt lat="30.691745936511925" lon="-5.612634474570386"><ele>864.0</ele><time>2026-03-25T10:41:24.943Z</time></trkpt><trkpt lat="30.69169277751683" lon="-5.612458955648886"><ele>864.0</ele><time>2026-03-25T10:41:25.943Z</time></trkpt><trkpt lat="30.69163897546021" lon="-5.612286208409124"><ele>864.0</ele><time>2026-03-25T10:41:26.943Z</time></trkpt><trkpt lat="30.69157783474794" lon="-5.612112035035292"><ele>864.0</ele><time>2026-03-25T10:41:27.943Z</time></trkpt><trkpt lat="30.69152049604194" lon="-5.611905928502404"><ele>861.6666666666667</ele><time>2026-03-25T10:41:28.943Z</time></trkpt><trkpt lat="30.69147114827262" lon="-5.611721993911256"><ele>859.3333333333334</ele><time>2026-03-25T10:41:29.943Z</time></trkpt><trkpt lat="30.691414004068534" lon="-5.611546297856328"><ele>857.0</ele><time>2026-03-25T10:41:30.943Z</time></trkpt><trkpt lat="30.691342479869636" lon="-5.611378302900222"><ele>857.0</ele><time>2026-03-25T10:41:31.943Z</time></trkpt><trkpt lat="30.69127397166312" lon="-5.611217875161269"><ele>857.0</ele><time>2026-03-25T10:41:32.943Z</time></trkpt><trkpt lat="30.691204359981477" lon="-5.611068137919501"><ele>857.0</ele><time>2026-03-25T10:41:33.943Z</time></trkpt><trkpt lat="30.69113115027451" lon="-5.610919759014935"><ele>857.0</ele><time>2026-03-25T10:41:34.943Z</time></trkpt><trkpt lat="30.691056795287654" lon="-5.6107753847521185"><ele>857.6666666666667</ele><time>2026-03-25T10:41:35.943Z</time></trkpt><trkpt lat="30.690976560282127" lon="-5.6106294781275645"><ele>858.3333333333333</ele><time>2026-03-25T10:41:36.943Z</time></trkpt><trkpt lat="30.690892108069896" lon="-5.610485020929948"><ele>859.0</ele><time>2026-03-25T10:41:37.943Z</time></trkpt><trkpt lat="30.69080286033823" lon="-5.610339479320809"><ele>856.0</ele><time>2026-03-25T10:41:38.943Z</time></trkpt><trkpt lat="30.690720353148784" lon="-5.610194897892791"><ele>853.0</ele><time>2026-03-25T10:41:39.943Z</time></trkpt><trkpt lat="30.69062604096732" lon="-5.61004760236167"><ele>850.0</ele><time>2026-03-25T10:41:40.943Z</time></trkpt><trkpt lat="30.690528290721783" lon="-5.609903842571811"><ele>850.0</ele><time>2026-03-25T10:41:41.943Z</time></trkpt><trkpt lat="30.690436639582593" lon="-5.6097783901480645"><ele>850.0</ele><time>2026-03-25T10:41:42.943Z</time></trkpt><trkpt lat="30.690353119501538" lon="-5.609645095287961"><ele>850.0</ele><time>2026-03-25T10:41:43.943Z</time></trkpt><trkpt lat="30.69027169831202" lon="-5.609517773940832"><ele>850.0</ele><time>2026-03-25T10:41:44.943Z</time></trkpt><trkpt lat="30.69017731847843" lon="-5.609385533764315"><ele>852.25</ele><time>2026-03-25T10:41:45.943Z</time></trkpt><trkpt lat="30.690088812016537" lon="-5.609250928924671"><ele>854.5</ele><time>2026-03-25T10:41:46.943Z</time></trkpt><trkpt lat="30.690008092960944" lon="-5.609112894448309"><ele>856.75</ele><time>2026-03-25T10:41:47.943Z</time></trkpt><trkpt lat="30.689933060940643" lon="-5.608984015406754"><ele>859.0</ele><time>2026-03-25T10:41:48.943Z</time></trkpt><trkpt lat="30.68987581531725" lon="-5.608869286351367"><ele>859.0</ele><time>2026-03-25T10:41:49.943Z</time></trkpt><trkpt lat="30.689825462277003" lon="-5.608757562854195"><ele>859.0</ele><time>2026-03-25T10:41:50.943Z</time></trkpt><trkpt lat="30.689773185070987" lon="-5.60863671822224"><ele>859.0</ele><time>2026-03-25T10:41:51.943Z</time></trkpt><trkpt lat="30.689716264330965" lon="-5.60849983870169"><ele>859.0</ele><time>2026-03-25T10:41:52.943Z</time></trkpt><trkpt lat="30.68965982820076" lon="-5.608345247696499"><ele>856.6666666666666</ele><time>2026-03-25T10:41:53.943Z</time></trkpt><trkpt lat="30.68960075480672" lon="-5.608178913750401"><ele>854.3333333333333</ele><time>2026-03-25T10:41:54.943Z</time></trkpt><trkpt lat="30.689547119278945" lon="-5.608007213865547"><ele>852.0</ele><time>2026-03-25T10:41:55.943Z</time></trkpt><trkpt lat="30.68950004119177" lon="-5.607843949939323"><ele>852.0</ele><time>2026-03-25T10:41:56.943Z</time></trkpt><trkpt lat="30.68944854466674" lon="-5.607682142447637"><ele>852.0</ele><time>2026-03-25T10:41:57.943Z</time></trkpt><trkpt lat="30.689395338023708" lon="-5.607517176152492"><ele>852.0</ele><time>2026-03-25T10:41:58.942Z</time></trkpt><trkpt lat="30.689343042395926" lon="-5.607358764881774"><ele>852.0</ele><time>2026-03-25T10:41:59.942Z</time></trkpt><trkpt lat="30.68929991840808" lon="-5.6072029228605915"><ele>853.5</ele><time>2026-03-25T10:42:00.942Z</time></trkpt><trkpt lat="30.689263130783033" lon="-5.6070543050202195"><ele>855.0</ele><time>2026-03-25T10:42:01.942Z</time></trkpt><trkpt lat="30.68921387931757" lon="-5.606908877197877"><ele>856.5</ele><time>2026-03-25T10:42:02.942Z</time></trkpt><trkpt lat="30.68915086742155" lon="-5.606784210796713"><ele>858.0</ele><time>2026-03-25T10:42:03.942Z</time></trkpt><trkpt lat="30.68909494615593" lon="-5.606649345660921"><ele>858.0</ele><time>2026-03-25T10:42:04.942Z</time></trkpt><trkpt lat="30.68903396534482" lon="-5.606487756034033"><ele>858.0</ele><time>2026-03-25T10:42:05.942Z</time></trkpt><trkpt lat="30.68898244295334" lon="-5.6063072538811065"><ele>858.0</ele><time>2026-03-25T10:42:06.942Z</time></trkpt><trkpt lat="30.688932410097777" lon="-5.606127732489535"><ele>856.6666666666667</ele><time>2026-03-25T10:42:07.942Z</time></trkpt><trkpt lat="30.688891429216564" lon="-5.605954568548969"><ele>855.3333333333334</ele><time>2026-03-25T10:42:08.942Z</time></trkpt><trkpt lat="30.688847622837304" lon="-5.605777982994013"><ele>854.0</ele><time>2026-03-25T10:42:09.942Z</time></trkpt><trkpt lat="30.688804043345964" lon="-5.605584880557936"><ele>854.0</ele><time>2026-03-25T10:42:10.942Z</time></trkpt><trkpt lat="30.68876553805002" lon="-5.605385583956146"><ele>854.0</ele><time>2026-03-25T10:42:11.942Z</time></trkpt><trkpt lat="30.68873217900638" lon="-5.605184933774487"><ele>854.0</ele><time>2026-03-25T10:42:12.942Z</time></trkpt><trkpt lat="30.688704891300855" lon="-5.60499353099362"><ele>852.6666666666667</ele><time>2026-03-25T10:42:13.942Z</time></trkpt><trkpt lat="30.68867196588934" lon="-5.604797014513261"><ele>851.3333333333333</ele><time>2026-03-25T10:42:14.942Z</time></trkpt><trkpt lat="30.688635428968002" lon="-5.604583238176797"><ele>850.0</ele><time>2026-03-25T10:42:15.942Z</time></trkpt><trkpt lat="30.68859346946032" lon="-5.604347959487134"><ele>854.3333333333333</ele><time>2026-03-25T10:42:16.942Z</time></trkpt><trkpt lat="30.68854560300877" lon="-5.604134816369688"><ele>858.6666666666667</ele><time>2026-03-25T10:42:17.942Z</time></trkpt><trkpt lat="30.688503684165838" lon="-5.60394358796454"><ele>863.0</ele><time>2026-03-25T10:42:18.942Z</time></trkpt><trkpt lat="30.688456468950434" lon="-5.603755797032974"><ele>861.6666666666667</ele><time>2026-03-25T10:42:19.942Z</time></trkpt><trkpt lat="30.68840312803437" lon="-5.603584381798301"><ele>860.3333333333333</ele><time>2026-03-25T10:42:20.943Z</time></trkpt><trkpt lat="30.688347712784566" lon="-5.6034125600515265"><ele>859.0</ele><time>2026-03-25T10:42:21.943Z</time></trkpt><trkpt lat="30.688288160488366" lon="-5.603243077351006"><ele>859.0</ele><time>2026-03-25T10:42:22.942Z</time></trkpt><trkpt lat="30.68822198821231" lon="-5.603072690079168"><ele>859.0</ele><time>2026-03-25T10:42:23.942Z</time></trkpt><trkpt lat="30.68815162659786" lon="-5.602894572056154"><ele>859.0</ele><time>2026-03-25T10:42:24.942Z</time></trkpt><trkpt lat="30.68807373014132" lon="-5.602737380518398"><ele>857.0</ele><time>2026-03-25T10:42:25.942Z</time></trkpt><trkpt lat="30.68798111422531" lon="-5.602565492356309"><ele>855.0</ele><time>2026-03-25T10:42:26.942Z</time></trkpt><trkpt lat="30.68786429987182" lon="-5.602377035347855"><ele>853.0</ele><time>2026-03-25T10:42:27.942Z</time></trkpt><trkpt lat="30.687754637137783" lon="-5.602200872606998"><ele>851.6666666666666</ele><time>2026-03-25T10:42:28.942Z</time></trkpt><trkpt lat="30.687637377793237" lon="-5.602039549285987"><ele>850.3333333333333</ele><time>2026-03-25T10:42:29.942Z</time></trkpt><trkpt lat="30.68752764845731" lon="-5.601876091975151"><ele>849.0</ele><time>2026-03-25T10:42:30.942Z</time></trkpt><trkpt lat="30.68740434066707" lon="-5.601711780574429"><ele>849.0</ele><time>2026-03-25T10:42:31.942Z</time></trkpt><trkpt lat="30.68728761900645" lon="-5.601557917554445"><ele>849.0</ele><time>2026-03-25T10:42:32.942Z</time></trkpt><trkpt lat="30.687167170343653" lon="-5.601410667082609"><ele>849.0</ele><time>2026-03-25T10:42:33.942Z</time></trkpt><trkpt lat="30.687041597156792" lon="-5.601270556500784"><ele>851.0</ele><time>2026-03-25T10:42:34.942Z</time></trkpt><trkpt lat="30.686917572722205" lon="-5.601132309015114"><ele>853.0</ele><time>2026-03-25T10:42:35.942Z</time></trkpt><trkpt lat="30.68677997512603" lon="-5.600994775492519"><ele>855.0</ele><time>2026-03-25T10:42:36.942Z</time></trkpt><trkpt lat="30.686647248741306" lon="-5.6008553750055174"><ele>855.0</ele><time>2026-03-25T10:42:37.942Z</time></trkpt><trkpt lat="30.68652170756235" lon="-5.600719023615191"><ele>855.0</ele><time>2026-03-25T10:42:38.942Z</time></trkpt><trkpt lat="30.686388694292205" lon="-5.6005846713734435"><ele>855.0</ele><time>2026-03-25T10:42:39.942Z</time></trkpt><trkpt lat="30.68625678562594" lon="-5.600455065399962"><ele>855.0</ele><time>2026-03-25T10:42:40.942Z</time></trkpt><trkpt lat="30.686119741734977" lon="-5.600333110290113"><ele>855.0</ele><time>2026-03-25T10:42:41.942Z</time></trkpt><trkpt lat="30.685979681127176" lon="-5.6002229121391265"><ele>855.0</ele><time>2026-03-25T10:42:42.942Z</time></trkpt><trkpt lat="30.685838947359102" lon="-5.600115974001095"><ele>853.6666666666667</ele><time>2026-03-25T10:42:43.942Z</time></trkpt><trkpt lat="30.68570850556071" lon="-5.6000095824226035"><ele>852.3333333333334</ele><time>2026-03-25T10:42:44.942Z</time></trkpt><trkpt lat="30.685579854596455" lon="-5.59990959645833"><ele>851.0</ele><time>2026-03-25T10:42:45.942Z</time></trkpt><trkpt lat="30.68546557121638" lon="-5.599812497809547"><ele>851.0</ele><time>2026-03-25T10:42:46.942Z</time></trkpt><trkpt lat="30.685347393620273" lon="-5.599714514944954"><ele>851.0</ele><time>2026-03-25T10:42:47.942Z</time></trkpt><trkpt lat="30.685236575258973" lon="-5.599615032187877"><ele>851.0</ele><time>2026-03-25T10:42:48.942Z</time></trkpt><trkpt lat="30.685138247367988" lon="-5.599508612485657"><ele>851.0</ele><time>2026-03-25T10:42:49.942Z</time></trkpt><trkpt lat="30.685044071366438" lon="-5.599388342455269"><ele>850.5</ele><time>2026-03-25T10:42:50.942Z</time></trkpt><trkpt lat="30.684947747656285" lon="-5.599261723902665"><ele>850.0</ele><time>2026-03-25T10:42:51.942Z</time></trkpt><trkpt lat="30.68485488217539" lon="-5.599137376664752"><ele>849.5</ele><time>2026-03-25T10:42:52.942Z</time></trkpt><trkpt lat="30.684779673764584" lon="-5.599025155921634"><ele>849.0</ele><time>2026-03-25T10:42:53.942Z</time></trkpt><trkpt lat="30.684709954437185" lon="-5.598908563411527"><ele>849.0</ele><time>2026-03-25T10:42:54.942Z</time></trkpt><trkpt lat="30.68463226459453" lon="-5.598784267361123"><ele>849.0</ele><time>2026-03-25T10:42:55.942Z</time></trkpt><trkpt lat="30.684543391551152" lon="-5.598688867363468"><ele>849.0</ele><time>2026-03-25T10:42:56.942Z</time></trkpt><trkpt lat="30.684445644456737" lon="-5.598589147321902"><ele>849.0</ele><time>2026-03-25T10:42:57.942Z</time></trkpt><trkpt lat="30.68434386569405" lon="-5.598498921859652"><ele>850.5</ele><time>2026-03-25T10:42:58.942Z</time></trkpt><trkpt lat="30.684249322232468" lon="-5.598424756020559"><ele>852.0</ele><time>2026-03-25T10:42:59.942Z</time></trkpt><trkpt lat="30.68414944980097" lon="-5.598342159881763"><ele>853.5</ele><time>2026-03-25T10:43:00.942Z</time></trkpt><trkpt lat="30.684033180831854" lon="-5.5982327662240445"><ele>855.0</ele><time>2026-03-25T10:43:01.942Z</time></trkpt><trkpt lat="30.683923251986553" lon="-5.598098254803429"><ele>855.0</ele><time>2026-03-25T10:43:02.942Z</time></trkpt><trkpt lat="30.683813733462145" lon="-5.5979383903709605"><ele>855.0</ele><time>2026-03-25T10:43:03.942Z</time></trkpt><trkpt lat="30.683693439788055" lon="-5.597786458944789"><ele>855.0</ele><time>2026-03-25T10:43:04.942Z</time></trkpt><trkpt lat="30.68357028751359" lon="-5.597643814542525"><ele>853.6666666666667</ele><time>2026-03-25T10:43:05.942Z</time></trkpt><trkpt lat="30.68345017523582" lon="-5.597497674961776"><ele>852.3333333333334</ele><time>2026-03-25T10:43:06.942Z</time></trkpt><trkpt lat="30.68333197521501" lon="-5.597348903223253"><ele>851.0</ele><time>2026-03-25T10:43:07.942Z</time></trkpt><trkpt lat="30.68321236035894" lon="-5.597203384114054"><ele>851.0</ele><time>2026-03-25T10:43:08.942Z</time></trkpt><trkpt lat="30.683092566201136" lon="-5.5970591883371945"><ele>851.0</ele><time>2026-03-25T10:43:09.942Z</time></trkpt><trkpt lat="30.682980721391928" lon="-5.596922296188959"><ele>851.0</ele><time>2026-03-25T10:43:10.942Z</time></trkpt><trkpt lat="30.6828871308767" lon="-5.5968080929678585"><ele>850.5</ele><time>2026-03-25T10:43:11.942Z</time></trkpt><trkpt lat="30.68279944454825" lon="-5.596700941329737"><ele>850.0</ele><time>2026-03-25T10:43:12.942Z</time></trkpt><trkpt lat="30.682693605062056" lon="-5.596585016320402"><ele>849.5</ele><time>2026-03-25T10:43:13.942Z</time></trkpt><trkpt lat="30.68257682935794" lon="-5.596468519490915"><ele>849.0</ele><time>2026-03-25T10:43:14.942Z</time></trkpt><trkpt lat="30.682469259517262" lon="-5.596348812190134"><ele>849.0</ele><time>2026-03-25T10:43:15.942Z</time></trkpt><trkpt lat="30.682388954268884" lon="-5.596239573079739"><ele>849.0</ele><time>2026-03-25T10:43:16.942Z</time></trkpt><trkpt lat="30.682324526805047" lon="-5.596139618693423"><ele>849.0</ele><time>2026-03-25T10:43:17.942Z</time></trkpt><trkpt lat="30.682274874370023" lon="-5.596039425853457"><ele>849.0</ele><time>2026-03-25T10:43:18.942Z</time></trkpt><trkpt lat="30.68225755253709" lon="-5.59595710965021"><ele>849.0</ele><time>2026-03-25T10:43:19.942Z</time></trkpt><trkpt lat="30.682240576361878" lon="-5.595859291678204"><ele>848.6666666666666</ele><time>2026-03-25T10:43:20.942Z</time></trkpt><trkpt lat="30.682232729327335" lon="-5.595776322220986"><ele>848.3333333333333</ele><time>2026-03-25T10:43:21.942Z</time></trkpt><trkpt lat="30.682244088642832" lon="-5.595691378285129"><ele>848.0</ele><time>2026-03-25T10:43:22.942Z</time></trkpt><trkpt lat="30.682278417223635" lon="-5.5956045307921105"><ele>847.6666666666666</ele><time>2026-03-25T10:43:23.942Z</time></trkpt><trkpt lat="30.682328924216666" lon="-5.595518230264344"><ele>847.3333333333333</ele><time>2026-03-25T10:43:24.942Z</time></trkpt><trkpt lat="30.682378401644517" lon="-5.595438672012994"><ele>847.0</ele><time>2026-03-25T10:43:25.942Z</time></trkpt><trkpt lat="30.682424984043294" lon="-5.595343802533202"><ele>846.3333333333333</ele><time>2026-03-25T10:43:26.942Z</time></trkpt><trkpt lat="30.682471898890228" lon="-5.595258495897332"><ele>845.6666666666666</ele><time>2026-03-25T10:43:27.942Z</time></trkpt><trkpt lat="30.682512765490873" lon="-5.59519393858694"><ele>845.0</ele><time>2026-03-25T10:43:28.942Z</time></trkpt><trkpt lat="30.68255543725844" lon="-5.595126828579746"><ele>844.3333333333333</ele><time>2026-03-25T10:43:29.942Z</time></trkpt><trkpt lat="30.682624558956398" lon="-5.595059146378481"><ele>843.6666666666666</ele><time>2026-03-25T10:43:30.942Z</time></trkpt><trkpt lat="30.68269335666401" lon="-5.594996636753326"><ele>843.0</ele><time>2026-03-25T10:43:31.942Z</time></trkpt><trkpt lat="30.682757192642697" lon="-5.594933720833556"><ele>843.0</ele><time>2026-03-25T10:43:32.942Z</time></trkpt><trkpt lat="30.682784871152123" lon="-5.594844472723115"><ele>843.0</ele><time>2026-03-25T10:43:33.942Z</time></trkpt><trkpt lat="30.68276911210871" lon="-5.59473610511097"><ele>843.0</ele><time>2026-03-25T10:43:34.942Z</time></trkpt><trkpt lat="30.682719796077883" lon="-5.594597193861504"><ele>843.0</ele><time>2026-03-25T10:43:35.942Z</time></trkpt><trkpt lat="30.682642610960194" lon="-5.594421551181822"><ele>842.6666666666667</ele><time>2026-03-25T10:43:36.942Z</time></trkpt><trkpt lat="30.68257365311912" lon="-5.594217256856746"><ele>842.3333333333334</ele><time>2026-03-25T10:43:37.942Z</time></trkpt><trkpt lat="30.68252437845161" lon="-5.594009416918883"><ele>842.0</ele><time>2026-03-25T10:43:38.942Z</time></trkpt><trkpt lat="30.68248857962352" lon="-5.593788186263938"><ele>842.3333333333334</ele><time>2026-03-25T10:43:39.942Z</time></trkpt><trkpt lat="30.68246625100735" lon="-5.593585185729903"><ele>842.6666666666667</ele><time>2026-03-25T10:43:40.942Z</time></trkpt><trkpt lat="30.682440326971584" lon="-5.593408564857813"><ele>843.0</ele><time>2026-03-25T10:43:41.942Z</time></trkpt><trkpt lat="30.682416863463498" lon="-5.593246012540187"><ele>843.0</ele><time>2026-03-25T10:43:42.942Z</time></trkpt><trkpt lat="30.682404311767986" lon="-5.593059885330782"><ele>843.0</ele><time>2026-03-25T10:43:43.942Z</time></trkpt><trkpt lat="30.682403126737213" lon="-5.59287507428762"><ele>843.0</ele><time>2026-03-25T10:43:44.942Z</time></trkpt><trkpt lat="30.682417197476095" lon="-5.59270060459933"><ele>842.3333333333333</ele><time>2026-03-25T10:43:45.942Z</time></trkpt><trkpt lat="30.682446720700298" lon="-5.592536278967486"><ele>841.6666666666666</ele><time>2026-03-25T10:43:46.942Z</time></trkpt><trkpt lat="30.682446174706136" lon="-5.592356098690345"><ele>841.0</ele><time>2026-03-25T10:43:47.942Z</time></trkpt><trkpt lat="30.682400445203744" lon="-5.592180223717141"><ele>841.0</ele><time>2026-03-25T10:43:48.942Z</time></trkpt><trkpt lat="30.682372671488015" lon="-5.592018316593175"><ele>841.0</ele><time>2026-03-25T10:43:49.942Z</time></trkpt><trkpt lat="30.682352156842757" lon="-5.591858148132937"><ele>841.0</ele><time>2026-03-25T10:43:50.942Z</time></trkpt><trkpt lat="30.68232829609956" lon="-5.5917177418348345"><ele>841.0</ele><time>2026-03-25T10:43:51.942Z</time></trkpt><trkpt lat="30.682291681111835" lon="-5.591588585212625"><ele>841.5</ele><time>2026-03-25T10:43:52.942Z</time></trkpt><trkpt lat="30.682236110764915" lon="-5.591464147380618"><ele>842.0</ele><time>2026-03-25T10:43:53.942Z</time></trkpt><trkpt lat="30.682168327485694" lon="-5.591349424265313"><ele>842.5</ele><time>2026-03-25T10:43:54.942Z</time></trkpt><trkpt lat="30.682093975628298" lon="-5.591226788436466"><ele>843.0</ele><time>2026-03-25T10:43:55.942Z</time></trkpt><trkpt lat="30.68201236613547" lon="-5.591096857078412"><ele>843.25</ele><time>2026-03-25T10:43:56.942Z</time></trkpt><trkpt lat="30.681936540623028" lon="-5.590962247637378"><ele>843.5</ele><time>2026-03-25T10:43:57.942Z</time></trkpt><trkpt lat="30.68186433200305" lon="-5.590831721671585"><ele>843.75</ele><time>2026-03-25T10:43:58.942Z</time></trkpt><trkpt lat="30.681787473751616" lon="-5.590720604428227"><ele>844.0</ele><time>2026-03-25T10:43:59.942Z</time></trkpt><trkpt lat="30.681705686116512" lon="-5.590593100258625"><ele>843.6666666666666</ele><time>2026-03-25T10:44:00.942Z</time></trkpt><trkpt lat="30.681654655792" lon="-5.590444904382117"><ele>843.3333333333333</ele><time>2026-03-25T10:44:01.941Z</time></trkpt><trkpt lat="30.681612329028297" lon="-5.590250290600481"><ele>843.0</ele><time>2026-03-25T10:44:02.941Z</time></trkpt><trkpt lat="30.681553299166886" lon="-5.590061207396354"><ele>843.0</ele><time>2026-03-25T10:44:03.941Z</time></trkpt><trkpt lat="30.681486504221482" lon="-5.589880451098675"><ele>843.0</ele><time>2026-03-25T10:44:04.941Z</time></trkpt><trkpt lat="30.68142851670646" lon="-5.589720718211265"><ele>843.0</ele><time>2026-03-25T10:44:05.941Z</time></trkpt><trkpt lat="30.68137290738688" lon="-5.589579983081533"><ele>842.25</ele><time>2026-03-25T10:44:06.941Z</time></trkpt><trkpt lat="30.681312318130985" lon="-5.589456202775439"><ele>841.5</ele><time>2026-03-25T10:44:07.941Z</time></trkpt><trkpt lat="30.68125826902216" lon="-5.589336477321"><ele>840.75</ele><time>2026-03-25T10:44:08.941Z</time></trkpt><trkpt lat="30.68120492857134" lon="-5.589223071244868"><ele>840.0</ele><time>2026-03-25T10:44:09.941Z</time></trkpt><trkpt lat="30.681154959733203" lon="-5.589090665363923"><ele>840.0</ele><time>2026-03-25T10:44:10.941Z</time></trkpt><trkpt lat="30.681096833095296" lon="-5.588961948306261"><ele>840.0</ele><time>2026-03-25T10:44:11.941Z</time></trkpt><trkpt lat="30.681041612397337" lon="-5.588850695521018"><ele>840.0</ele><time>2026-03-25T10:44:12.941Z</time></trkpt><trkpt lat="30.680987565839878" lon="-5.588762092455477"><ele>840.0</ele><time>2026-03-25T10:44:13.941Z</time></trkpt><trkpt lat="30.680934510331166" lon="-5.588691792077335"><ele>840.0</ele><time>2026-03-25T10:44:14.941Z</time></trkpt><trkpt lat="30.680871613091924" lon="-5.588632763745607"><ele>839.8</ele><time>2026-03-25T10:44:15.941Z</time></trkpt><trkpt lat="30.68077796691677" lon="-5.588589363942218"><ele>839.6</ele><time>2026-03-25T10:44:16.941Z</time></trkpt><trkpt lat="30.6806640080911" lon="-5.58855834344689"><ele>839.4000000000001</ele><time>2026-03-25T10:44:17.941Z</time></trkpt><trkpt lat="30.680556578509194" lon="-5.588515598257616"><ele>839.2</ele><time>2026-03-25T10:44:18.941Z</time></trkpt><trkpt lat="30.680454500988393" lon="-5.588463117878904"><ele>839.0</ele><time>2026-03-25T10:44:19.941Z</time></trkpt><trkpt lat="30.680351898594704" lon="-5.58839655290141"><ele>838.75</ele><time>2026-03-25T10:44:20.941Z</time></trkpt><trkpt lat="30.68025981391143" lon="-5.588326696521091"><ele>838.5</ele><time>2026-03-25T10:44:21.941Z</time></trkpt><trkpt lat="30.680157836391913" lon="-5.588244323038548"><ele>838.25</ele><time>2026-03-25T10:44:22.941Z</time></trkpt><trkpt lat="30.6800582837269" lon="-5.588160726014478"><ele>838.0</ele><time>2026-03-25T10:44:23.941Z</time></trkpt><trkpt lat="30.679956681439347" lon="-5.588076595668056"><ele>838.0</ele><time>2026-03-25T10:44:24.941Z</time></trkpt><trkpt lat="30.67985734914041" lon="-5.588003444719905"><ele>838.0</ele><time>2026-03-25T10:44:25.942Z</time></trkpt><trkpt lat="30.67975759768934" lon="-5.587944332961171"><ele>838.0</ele><time>2026-03-25T10:44:26.942Z</time></trkpt><trkpt lat="30.6796586626992" lon="-5.5878842268605275"><ele>838.0</ele><time>2026-03-25T10:44:27.942Z</time></trkpt><trkpt lat="30.6795671700677" lon="-5.587815884384675"><ele>838.5</ele><time>2026-03-25T10:44:28.942Z</time></trkpt><trkpt lat="30.67947252892215" lon="-5.587742320044369"><ele>839.0</ele><time>2026-03-25T10:44:29.942Z</time></trkpt><trkpt lat="30.679376974041997" lon="-5.587663481609142"><ele>839.5</ele><time>2026-03-25T10:44:30.942Z</time></trkpt><trkpt lat="30.67929182069502" lon="-5.587587186809938"><ele>840.0</ele><time>2026-03-25T10:44:31.942Z</time></trkpt><trkpt lat="30.679199477461356" lon="-5.587514931606049"><ele>840.0</ele><time>2026-03-25T10:44:32.941Z</time></trkpt><trkpt lat="30.679100392150126" lon="-5.587439026093882"><ele>840.0</ele><time>2026-03-25T10:44:33.941Z</time></trkpt><trkpt lat="30.678991902795904" lon="-5.587370114115538"><ele>840.0</ele><time>2026-03-25T10:44:34.942Z</time></trkpt><trkpt lat="30.678882812155173" lon="-5.587298366042865"><ele>840.0</ele><time>2026-03-25T10:44:35.942Z</time></trkpt><trkpt lat="30.678765464415335" lon="-5.587222895024162"><ele>840.0</ele><time>2026-03-25T10:44:36.942Z</time></trkpt><trkpt lat="30.678633927852125" lon="-5.587137900470728"><ele>840.0</ele><time>2026-03-25T10:44:37.941Z</time></trkpt><trkpt lat="30.6784942743088" lon="-5.587044845083873"><ele>840.0</ele><time>2026-03-25T10:44:38.942Z</time></trkpt><trkpt lat="30.67837311367801" lon="-5.586960581013702"><ele>840.0</ele><time>2026-03-25T10:44:39.942Z</time></trkpt><trkpt lat="30.678259902045056" lon="-5.5868682178341835"><ele>840.0</ele><time>2026-03-25T10:44:40.942Z</time></trkpt><trkpt lat="30.678164059310262" lon="-5.586768473118355"><ele>840.0</ele><time>2026-03-25T10:44:41.942Z</time></trkpt><trkpt lat="30.678083145477988" lon="-5.5866560137612105"><ele>840.0</ele><time>2026-03-25T10:44:42.942Z</time></trkpt><trkpt lat="30.67800813624865" lon="-5.58653006520253"><ele>840.0</ele><time>2026-03-25T10:44:43.942Z</time></trkpt><trkpt lat="30.677955660121242" lon="-5.586394304293546"><ele>840.0</ele><time>2026-03-25T10:44:44.942Z</time></trkpt><trkpt lat="30.677912241653438" lon="-5.586248706142556"><ele>840.0</ele><time>2026-03-25T10:44:45.942Z</time></trkpt><trkpt lat="30.677888001428624" lon="-5.586111809403357"><ele>840.0</ele><time>2026-03-25T10:44:46.942Z</time></trkpt><trkpt lat="30.677874853540853" lon="-5.58597238323646"><ele>839.5</ele><time>2026-03-25T10:44:47.942Z</time></trkpt><trkpt lat="30.67787543814731" lon="-5.585837102768965"><ele>839.0</ele><time>2026-03-25T10:44:48.942Z</time></trkpt><trkpt lat="30.67788748588852" lon="-5.585702013143374"><ele>838.5</ele><time>2026-03-25T10:44:49.942Z</time></trkpt><trkpt lat="30.67791234647857" lon="-5.585564654166322"><ele>838.0</ele><time>2026-03-25T10:44:50.942Z</time></trkpt><trkpt lat="30.67795347976568" lon="-5.585429839770744"><ele>838.0</ele><time>2026-03-25T10:44:51.942Z</time></trkpt><trkpt lat="30.678004521861325" lon="-5.585307107913816"><ele>838.0</ele><time>2026-03-25T10:44:52.942Z</time></trkpt><trkpt lat="30.678071136546823" lon="-5.5851933218547485"><ele>838.0</ele><time>2026-03-25T10:44:53.942Z</time></trkpt><trkpt lat="30.678148158340385" lon="-5.585087826047576"><ele>838.0</ele><time>2026-03-25T10:44:54.942Z</time></trkpt><trkpt lat="30.678232495529116" lon="-5.5849785237096725"><ele>838.0</ele><time>2026-03-25T10:44:55.942Z</time></trkpt><trkpt lat="30.678323812592325" lon="-5.584880688661095"><ele>838.0</ele><time>2026-03-25T10:44:56.942Z</time></trkpt><trkpt lat="30.678412445064527" lon="-5.5847694687813965"><ele>838.0</ele><time>2026-03-25T10:44:57.942Z</time></trkpt><trkpt lat="30.678500566280235" lon="-5.584654798876815"><ele>838.0</ele><time>2026-03-25T10:44:58.942Z</time></trkpt><trkpt lat="30.67858583682091" lon="-5.584542054840245"><ele>838.25</ele><time>2026-03-25T10:44:59.942Z</time></trkpt><trkpt lat="30.6786826706613" lon="-5.5844258024705935"><ele>838.5</ele><time>2026-03-25T10:45:00.942Z</time></trkpt><trkpt lat="30.67877423104763" lon="-5.584310997515553"><ele>838.75</ele><time>2026-03-25T10:45:01.942Z</time></trkpt><trkpt lat="30.67887699139656" lon="-5.584185984434723"><ele>839.0</ele><time>2026-03-25T10:45:02.942Z</time></trkpt><trkpt lat="30.678988286320006" lon="-5.584053610381371"><ele>839.0</ele><time>2026-03-25T10:45:03.942Z</time></trkpt><trkpt lat="30.679079951341247" lon="-5.5839398998144665"><ele>839.0</ele><time>2026-03-25T10:45:04.942Z</time></trkpt><trkpt lat="30.679156467998833" lon="-5.5838353097326"><ele>839.0</ele><time>2026-03-25T10:45:05.942Z</time></trkpt><trkpt lat="30.679233353762413" lon="-5.583729731144234"><ele>839.0</ele><time>2026-03-25T10:45:06.942Z</time></trkpt><trkpt lat="30.679319881374656" lon="-5.583611696164369"><ele>838.5</ele><time>2026-03-25T10:45:07.942Z</time></trkpt><trkpt lat="30.67941071403824" lon="-5.5834871005814515"><ele>838.0</ele><time>2026-03-25T10:45:08.942Z</time></trkpt><trkpt lat="30.679507594338737" lon="-5.583355545310132"><ele>837.5</ele><time>2026-03-25T10:45:09.942Z</time></trkpt><trkpt lat="30.67960419611631" lon="-5.583220572557357"><ele>837.0</ele><time>2026-03-25T10:45:10.942Z</time></trkpt><trkpt lat="30.679698494403652" lon="-5.5830817271338455"><ele>836.75</ele><time>2026-03-25T10:45:11.942Z</time></trkpt><trkpt lat="30.679783555269342" lon="-5.582940021992945"><ele>836.5</ele><time>2026-03-25T10:45:12.942Z</time></trkpt><trkpt lat="30.679859753467834" lon="-5.582803219783143"><ele>836.25</ele><time>2026-03-25T10:45:13.942Z</time></trkpt><trkpt lat="30.679931363074083" lon="-5.582661751420073"><ele>836.0</ele><time>2026-03-25T10:45:14.942Z</time></trkpt><trkpt lat="30.67999597272319" lon="-5.582511018635838"><ele>836.25</ele><time>2026-03-25T10:45:15.942Z</time></trkpt><trkpt lat="30.680063819263765" lon="-5.582364147428607"><ele>836.5</ele><time>2026-03-25T10:45:16.942Z</time></trkpt><trkpt lat="30.68010544706149" lon="-5.582242512583224"><ele>836.75</ele><time>2026-03-25T10:45:17.942Z</time></trkpt><trkpt lat="30.680151828547775" lon="-5.58212151324644"><ele>837.0</ele><time>2026-03-25T10:45:18.942Z</time></trkpt><trkpt lat="30.68020746663195" lon="-5.58199815643638"><ele>837.0</ele><time>2026-03-25T10:45:19.942Z</time></trkpt><trkpt lat="30.680269109158548" lon="-5.581881809846437"><ele>837.0</ele><time>2026-03-25T10:45:20.942Z</time></trkpt><trkpt lat="30.680329712691872" lon="-5.581762133935303"><ele>837.0</ele><time>2026-03-25T10:45:21.942Z</time></trkpt><trkpt lat="30.68039280811862" lon="-5.58163229756777"><ele>837.0</ele><time>2026-03-25T10:45:22.942Z</time></trkpt><trkpt lat="30.680456878916353" lon="-5.581491127256461"><ele>837.0</ele><time>2026-03-25T10:45:23.942Z</time></trkpt><trkpt lat="30.68052216490605" lon="-5.581344154116654"><ele>837.0</ele><time>2026-03-25T10:45:24.942Z</time></trkpt><trkpt lat="30.68058667275087" lon="-5.581196120014682"><ele>837.0</ele><time>2026-03-25T10:45:25.942Z</time></trkpt><trkpt lat="30.68065591682812" lon="-5.58104698050912"><ele>837.0</ele><time>2026-03-25T10:45:26.942Z</time></trkpt><trkpt lat="30.680732118625134" lon="-5.580896007393255"><ele>836.3333333333333</ele><time>2026-03-25T10:45:27.942Z</time></trkpt><trkpt lat="30.68080879663142" lon="-5.580741501608798"><ele>835.6666666666666</ele><time>2026-03-25T10:45:28.942Z</time></trkpt><trkpt lat="30.680883360232823" lon="-5.580590184345011"><ele>835.0</ele><time>2026-03-25T10:45:29.942Z</time></trkpt><trkpt lat="30.680964873168506" lon="-5.580424631096816"><ele>835.0</ele><time>2026-03-25T10:45:30.942Z</time></trkpt><trkpt lat="30.681041658781236" lon="-5.580265249865139"><ele>835.0</ele><time>2026-03-25T10:45:31.942Z</time></trkpt><trkpt lat="30.681125417828664" lon="-5.580093247755154"><ele>835.0</ele><time>2026-03-25T10:45:32.942Z</time></trkpt><trkpt lat="30.681229271331066" lon="-5.579899275143672"><ele>835.0</ele><time>2026-03-25T10:45:33.942Z</time></trkpt><trkpt lat="30.681321942458307" lon="-5.579713764728551"><ele>835.0</ele><time>2026-03-25T10:45:34.941Z</time></trkpt><trkpt lat="30.681409817500686" lon="-5.5795500957014585"><ele>835.0</ele><time>2026-03-25T10:45:35.941Z</time></trkpt><trkpt lat="30.68150589386033" lon="-5.579383459339809"><ele>834.6666666666666</ele><time>2026-03-25T10:45:36.941Z</time></trkpt><trkpt lat="30.68159935564056" lon="-5.57921968680261"><ele>834.3333333333333</ele><time>2026-03-25T10:45:37.941Z</time></trkpt><trkpt lat="30.68169306011164" lon="-5.579054673130209"><ele>834.0</ele><time>2026-03-25T10:45:38.941Z</time></trkpt><trkpt lat="30.68178572460886" lon="-5.578892350830683"><ele>834.0</ele><time>2026-03-25T10:45:39.941Z</time></trkpt><trkpt lat="30.68187097318526" lon="-5.578740847865173"><ele>834.0</ele><time>2026-03-25T10:45:40.941Z</time></trkpt><trkpt lat="30.68195610409321" lon="-5.578585530576856"><ele>834.0</ele><time>2026-03-25T10:45:41.941Z</time></trkpt><trkpt lat="30.682044732950498" lon="-5.578430367180546"><ele>834.0</ele><time>2026-03-25T10:45:42.941Z</time></trkpt><trkpt lat="30.682129107654884" lon="-5.578277302278144"><ele>834.0</ele><time>2026-03-25T10:45:43.941Z</time></trkpt><trkpt lat="30.68221873240851" lon="-5.578121423614403"><ele>834.0</ele><time>2026-03-25T10:45:44.941Z</time></trkpt><trkpt lat="30.682306606537786" lon="-5.577964472481454"><ele>833.3333333333333</ele><time>2026-03-25T10:45:45.941Z</time></trkpt><trkpt lat="30.682393983404904" lon="-5.577810130407274"><ele>832.6666666666666</ele><time>2026-03-25T10:45:46.941Z</time></trkpt><trkpt lat="30.68248508471492" lon="-5.577655124168257"><ele>832.0</ele><time>2026-03-25T10:45:47.941Z</time></trkpt><trkpt lat="30.682579127817544" lon="-5.577512207066568"><ele>832.0</ele><time>2026-03-25T10:45:48.941Z</time></trkpt><trkpt lat="30.682668612952302" lon="-5.57736785570296"><ele>832.0</ele><time>2026-03-25T10:45:49.941Z</time></trkpt><trkpt lat="30.68275892304803" lon="-5.577226937003308"><ele>832.0</ele><time>2026-03-25T10:45:50.941Z</time></trkpt><trkpt lat="30.682853355845594" lon="-5.577087008677648"><ele>832.3333333333333</ele><time>2026-03-25T10:45:51.941Z</time></trkpt><trkpt lat="30.682949634927414" lon="-5.576949178530383"><ele>832.6666666666667</ele><time>2026-03-25T10:45:52.941Z</time></trkpt><trkpt lat="30.683050162725184" lon="-5.576812906473583"><ele>833.0</ele><time>2026-03-25T10:45:53.941Z</time></trkpt><trkpt lat="30.683149580044336" lon="-5.576677337983236"><ele>833.0</ele><time>2026-03-25T10:45:54.941Z</time></trkpt><trkpt lat="30.683247960693876" lon="-5.576539469408416"><ele>833.0</ele><time>2026-03-25T10:45:55.941Z</time></trkpt><trkpt lat="30.683344364483172" lon="-5.57640257006161"><ele>833.0</ele><time>2026-03-25T10:45:56.941Z</time></trkpt><trkpt lat="30.683437271881107" lon="-5.576267348364938"><ele>833.25</ele><time>2026-03-25T10:45:57.941Z</time></trkpt><trkpt lat="30.683532313677336" lon="-5.5761371256882555"><ele>833.5</ele><time>2026-03-25T10:45:58.941Z</time></trkpt><trkpt lat="30.683607801571647" lon="-5.576008942525662"><ele>833.75</ele><time>2026-03-25T10:45:59.941Z</time></trkpt><trkpt lat="30.68368449857718" lon="-5.575849089883717"><ele>834.0</ele><time>2026-03-25T10:46:00.941Z</time></trkpt><trkpt lat="30.683753137451742" lon="-5.5756738151344996"><ele>834.3333333333333</ele><time>2026-03-25T10:46:01.941Z</time></trkpt><trkpt lat="30.683819342496413" lon="-5.5754935181897425"><ele>834.6666666666666</ele><time>2026-03-25T10:46:02.941Z</time></trkpt><trkpt lat="30.68387611482141" lon="-5.575315576384791"><ele>835.0</ele><time>2026-03-25T10:46:03.941Z</time></trkpt><trkpt lat="30.683923289559857" lon="-5.575146758427412"><ele>835.0</ele><time>2026-03-25T10:46:04.941Z</time></trkpt><trkpt lat="30.683958227704778" lon="-5.574978311387884"><ele>835.0</ele><time>2026-03-25T10:46:05.941Z</time></trkpt><trkpt lat="30.68398695030709" lon="-5.574816334294046"><ele>835.0</ele><time>2026-03-25T10:46:06.941Z</time></trkpt><trkpt lat="30.68402304432954" lon="-5.574658346975635"><ele>835.0</ele><time>2026-03-25T10:46:07.941Z</time></trkpt><trkpt lat="30.684057880342337" lon="-5.574507093286171"><ele>834.3333333333333</ele><time>2026-03-25T10:46:08.941Z</time></trkpt><trkpt lat="30.684090960869668" lon="-5.574341514044069"><ele>833.6666666666667</ele><time>2026-03-25T10:46:09.941Z</time></trkpt><trkpt lat="30.684127958857456" lon="-5.574165795967717"><ele>833.0</ele><time>2026-03-25T10:46:10.941Z</time></trkpt><trkpt lat="30.68417137780684" lon="-5.573989260054747"><ele>833.0</ele><time>2026-03-25T10:46:11.941Z</time></trkpt><trkpt lat="30.68422197313427" lon="-5.5738237530447865"><ele>833.0</ele><time>2026-03-25T10:46:12.941Z</time></trkpt><trkpt lat="30.684266934516096" lon="-5.573657200113505"><ele>833.0</ele><time>2026-03-25T10:46:13.941Z</time></trkpt><trkpt lat="30.684317673852913" lon="-5.5734977515691275"><ele>833.0</ele><time>2026-03-25T10:46:14.941Z</time></trkpt><trkpt lat="30.684378724693712" lon="-5.57333474725227"><ele>832.0</ele><time>2026-03-25T10:46:15.941Z</time></trkpt><trkpt lat="30.68445325565841" lon="-5.57316425865263"><ele>831.0</ele><time>2026-03-25T10:46:16.941Z</time></trkpt><trkpt lat="30.68453941585658" lon="-5.572999634702122"><ele>830.0</ele><time>2026-03-25T10:46:17.941Z</time></trkpt><trkpt lat="30.68462994878018" lon="-5.572842307994654"><ele>830.0</ele><time>2026-03-25T10:46:18.941Z</time></trkpt><trkpt lat="30.684727159743044" lon="-5.572689172292237"><ele>830.0</ele><time>2026-03-25T10:46:19.941Z</time></trkpt><trkpt lat="30.68482782059806" lon="-5.572548547233968"><ele>830.0</ele><time>2026-03-25T10:46:20.941Z</time></trkpt><trkpt lat="30.684933201233804" lon="-5.572414719347613"><ele>830.0</ele><time>2026-03-25T10:46:21.941Z</time></trkpt><trkpt lat="30.68503718107062" lon="-5.572277396812521"><ele>830.0</ele><time>2026-03-25T10:46:22.941Z</time></trkpt><trkpt lat="30.685138343121444" lon="-5.572140166376999"><ele>830.0</ele><time>2026-03-25T10:46:23.941Z</time></trkpt><trkpt lat="30.685239498298337" lon="-5.572003422348784"><ele>829.6666666666667</ele><time>2026-03-25T10:46:24.941Z</time></trkpt><trkpt lat="30.685344872891037" lon="-5.571865520181893"><ele>829.3333333333333</ele><time>2026-03-25T10:46:25.941Z</time></trkpt><trkpt lat="30.685447200643893" lon="-5.571722583650004"><ele>829.0</ele><time>2026-03-25T10:46:26.941Z</time></trkpt><trkpt lat="30.685550543251036" lon="-5.571574351959406"><ele>829.0</ele><time>2026-03-25T10:46:27.941Z</time></trkpt><trkpt lat="30.685658434238444" lon="-5.571437317931575"><ele>829.0</ele><time>2026-03-25T10:46:28.941Z</time></trkpt><trkpt lat="30.685767252664135" lon="-5.57129985722906"><ele>829.0</ele><time>2026-03-25T10:46:29.941Z</time></trkpt><trkpt lat="30.685883469509772" lon="-5.571145798242537"><ele>829.0</ele><time>2026-03-25T10:46:30.941Z</time></trkpt><trkpt lat="30.685996597975304" lon="-5.5709889496397365"><ele>829.0</ele><time>2026-03-25T10:46:31.941Z</time></trkpt><trkpt lat="30.686120803475948" lon="-5.5708353069389425"><ele>829.0</ele><time>2026-03-25T10:46:32.94Z</time></trkpt><trkpt lat="30.686244510710413" lon="-5.570676039969895"><ele>828.6666666666666</ele><time>2026-03-25T10:46:33.94Z</time></trkpt><trkpt lat="30.686365060407176" lon="-5.570513903293037"><ele>828.3333333333333</ele><time>2026-03-25T10:46:34.941Z</time></trkpt><trkpt lat="30.68648452691296" lon="-5.570358325292885"><ele>828.0</ele><time>2026-03-25T10:46:35.941Z</time></trkpt><trkpt lat="30.686598849256235" lon="-5.570204913291238"><ele>828.0</ele><time>2026-03-25T10:46:36.941Z</time></trkpt><trkpt lat="30.686709333001232" lon="-5.570051667399761"><ele>828.0</ele><time>2026-03-25T10:46:37.941Z</time></trkpt><trkpt lat="30.686821848561365" lon="-5.5699023906879495"><ele>828.0</ele><time>2026-03-25T10:46:38.941Z</time></trkpt><trkpt lat="30.686935089768316" lon="-5.569756094986478"><ele>827.6666666666667</ele><time>2026-03-25T10:46:39.941Z</time></trkpt><trkpt lat="30.687043939330746" lon="-5.569618465088414"><ele>827.3333333333334</ele><time>2026-03-25T10:46:40.94Z</time></trkpt><trkpt lat="30.687147243437572" lon="-5.569471671707029"><ele>827.0</ele><time>2026-03-25T10:46:41.941Z</time></trkpt><trkpt lat="30.68725423646948" lon="-5.569329325707692"><ele>827.0</ele><time>2026-03-25T10:46:42.941Z</time></trkpt><trkpt lat="30.687359601908856" lon="-5.569179213925597"><ele>827.0</ele><time>2026-03-25T10:46:43.941Z</time></trkpt><trkpt lat="30.687472021615715" lon="-5.569039902232876"><ele>827.0</ele><time>2026-03-25T10:46:44.941Z</time></trkpt><trkpt lat="30.687586152614212" lon="-5.568892729876701"><ele>827.0</ele><time>2026-03-25T10:46:45.941Z</time></trkpt><trkpt lat="30.687701536696935" lon="-5.568750807052548"><ele>827.0</ele><time>2026-03-25T10:46:46.941Z</time></trkpt><trkpt lat="30.687814214897504" lon="-5.56861154745815"><ele>827.0</ele><time>2026-03-25T10:46:47.941Z</time></trkpt><trkpt lat="30.68792983763005" lon="-5.568467030806928"><ele>827.3333333333334</ele><time>2026-03-25T10:46:48.941Z</time></trkpt><trkpt lat="30.688034851990576" lon="-5.568318804891796"><ele>827.6666666666667</ele><time>2026-03-25T10:46:49.941Z</time></trkpt><trkpt lat="30.688135893623677" lon="-5.568174594307047"><ele>828.0</ele><time>2026-03-25T10:46:50.941Z</time></trkpt><trkpt lat="30.68824289866128" lon="-5.568032356160379"><ele>828.0</ele><time>2026-03-25T10:46:51.941Z</time></trkpt><trkpt lat="30.68835283936325" lon="-5.567889355145103"><ele>828.0</ele><time>2026-03-25T10:46:52.941Z</time></trkpt><trkpt lat="30.688460942356887" lon="-5.567747616397178"><ele>828.0</ele><time>2026-03-25T10:46:53.941Z</time></trkpt><trkpt lat="30.688568962011477" lon="-5.567605041246193"><ele>828.0</ele><time>2026-03-25T10:46:54.941Z</time></trkpt><trkpt lat="30.6886770412866" lon="-5.567458105494162"><ele>828.0</ele><time>2026-03-25T10:46:55.941Z</time></trkpt><trkpt lat="30.688789465400156" lon="-5.5673120544890295"><ele>828.0</ele><time>2026-03-25T10:46:56.941Z</time></trkpt><trkpt lat="30.68890073866219" lon="-5.567162738442994"><ele>827.3333333333333</ele><time>2026-03-25T10:46:57.941Z</time></trkpt><trkpt lat="30.6890127236921" lon="-5.5670130865430565"><ele>826.6666666666666</ele><time>2026-03-25T10:46:58.941Z</time></trkpt><trkpt lat="30.689118139396935" lon="-5.566868217093283"><ele>826.0</ele><time>2026-03-25T10:46:59.941Z</time></trkpt><trkpt lat="30.6892313372345" lon="-5.5667204798868175"><ele>826.0</ele><time>2026-03-25T10:47:00.941Z</time></trkpt><trkpt lat="30.689350392984284" lon="-5.566574241412285"><ele>826.0</ele><time>2026-03-25T10:47:01.941Z</time></trkpt><trkpt lat="30.68945904599581" lon="-5.566425875436767"><ele>826.0</ele><time>2026-03-25T10:47:02.941Z</time></trkpt><trkpt lat="30.68956936320764" lon="-5.566285562798889"><ele>825.3333333333333</ele><time>2026-03-25T10:47:03.941Z</time></trkpt><trkpt lat="30.689675869005196" lon="-5.566145133581483"><ele>824.6666666666667</ele><time>2026-03-25T10:47:04.941Z</time></trkpt><trkpt lat="30.68978955917945" lon="-5.5660012610761305"><ele>824.0</ele><time>2026-03-25T10:47:05.941Z</time></trkpt><trkpt lat="30.68992178295621" lon="-5.565843099927271"><ele>824.0</ele><time>2026-03-25T10:47:06.941Z</time></trkpt><trkpt lat="30.69005341782349" lon="-5.565663556639513"><ele>824.0</ele><time>2026-03-25T10:47:07.941Z</time></trkpt><trkpt lat="30.690183374143466" lon="-5.565484310896641"><ele>824.0</ele><time>2026-03-25T10:47:08.941Z</time></trkpt><trkpt lat="30.690288252207495" lon="-5.565347431126608"><ele>824.0</ele><time>2026-03-25T10:47:09.941Z</time></trkpt><trkpt lat="30.690389295653166" lon="-5.565229297316633"><ele>824.0</ele><time>2026-03-25T10:47:10.941Z</time></trkpt><trkpt lat="30.69047133830827" lon="-5.565120867241739"><ele>824.0</ele><time>2026-03-25T10:47:11.941Z</time></trkpt><trkpt lat="30.690548933512915" lon="-5.565014636491967"><ele>824.0</ele><time>2026-03-25T10:47:12.941Z</time></trkpt><trkpt lat="30.690638565132428" lon="-5.564909797268659"><ele>824.0</ele><time>2026-03-25T10:47:13.941Z</time></trkpt><trkpt lat="30.690718741545396" lon="-5.564796874412163"><ele>824.0</ele><time>2026-03-25T10:47:14.941Z</time></trkpt><trkpt lat="30.690817485451895" lon="-5.564682222502953"><ele>824.0</ele><time>2026-03-25T10:47:15.941Z</time></trkpt><trkpt lat="30.6909078026797" lon="-5.564575256693543"><ele>824.0</ele><time>2026-03-25T10:47:16.941Z</time></trkpt><trkpt lat="30.69099729118911" lon="-5.56447136651623"><ele>824.0</ele><time>2026-03-25T10:47:17.941Z</time></trkpt><trkpt lat="30.6910751554166" lon="-5.564374061480767"><ele>824.0</ele><time>2026-03-25T10:47:18.941Z</time></trkpt><trkpt lat="30.691152565240817" lon="-5.56428308890367"><ele>824.0</ele><time>2026-03-25T10:47:19.941Z</time></trkpt><trkpt lat="30.69122014068222" lon="-5.564204475416744"><ele>824.0</ele><time>2026-03-25T10:47:20.941Z</time></trkpt><trkpt lat="30.691280866846135" lon="-5.5641382169678355"><ele>824.0</ele><time>2026-03-25T10:47:21.941Z</time></trkpt><trkpt lat="30.69134891988592" lon="-5.564066772938553"><ele>824.0</ele><time>2026-03-25T10:47:22.941Z</time></trkpt><trkpt lat="30.691424394422622" lon="-5.563995436242519"><ele>824.0</ele><time>2026-03-25T10:47:23.941Z</time></trkpt><trkpt lat="30.691506479308572" lon="-5.563929943606789"><ele>824.0</ele><time>2026-03-25T10:47:24.941Z</time></trkpt><trkpt lat="30.69159435032057" lon="-5.5638621605185365"><ele>824.0</ele><time>2026-03-25T10:47:25.941Z</time></trkpt><trkpt lat="30.691687707483712" lon="-5.563799292882756"><ele>824.0</ele><time>2026-03-25T10:47:26.941Z</time></trkpt><trkpt lat="30.691781250873834" lon="-5.563724398451545"><ele>824.0</ele><time>2026-03-25T10:47:27.941Z</time></trkpt><trkpt lat="30.691863584671715" lon="-5.563637220151046"><ele>824.0</ele><time>2026-03-25T10:47:28.941Z</time></trkpt><trkpt lat="30.691916132598426" lon="-5.5635522414942855"><ele>824.0</ele><time>2026-03-25T10:47:29.941Z</time></trkpt><trkpt lat="30.691978808276833" lon="-5.56346978097736"><ele>824.0</ele><time>2026-03-25T10:47:30.941Z</time></trkpt><trkpt lat="30.692028417223913" lon="-5.56338338806031"><ele>824.0</ele><time>2026-03-25T10:47:31.941Z</time></trkpt><trkpt lat="30.69207312104138" lon="-5.563301374319644"><ele>824.0</ele><time>2026-03-25T10:47:32.941Z</time></trkpt><trkpt lat="30.692133431113493" lon="-5.563219615360811"><ele>824.0</ele><time>2026-03-25T10:47:33.941Z</time></trkpt><trkpt lat="30.692200573857388" lon="-5.563129869766391"><ele>824.0</ele><time>2026-03-25T10:47:34.941Z</time></trkpt><trkpt lat="30.692267034530587" lon="-5.563036085535506"><ele>824.0</ele><time>2026-03-25T10:47:35.941Z</time></trkpt><trkpt lat="30.69234007948898" lon="-5.562949363141023"><ele>824.0</ele><time>2026-03-25T10:47:36.941Z</time></trkpt><trkpt lat="30.692417698608526" lon="-5.562866256982189"><ele>823.6</ele><time>2026-03-25T10:47:37.941Z</time></trkpt><trkpt lat="30.692507163604937" lon="-5.562785451086988"><ele>823.2</ele><time>2026-03-25T10:47:38.941Z</time></trkpt><trkpt lat="30.6926025247941" lon="-5.562704964459828"><ele>822.8000000000001</ele><time>2026-03-25T10:47:39.941Z</time></trkpt><trkpt lat="30.69268545444984" lon="-5.562629032840547"><ele>822.4000000000001</ele><time>2026-03-25T10:47:40.941Z</time></trkpt><trkpt lat="30.69275363755535" lon="-5.562537903955167"><ele>822.0</ele><time>2026-03-25T10:47:41.941Z</time></trkpt><trkpt lat="30.69280350204285" lon="-5.562424406937232"><ele>822.8</ele><time>2026-03-25T10:47:42.941Z</time></trkpt><trkpt lat="30.692848785855343" lon="-5.5623051300088235"><ele>823.6</ele><time>2026-03-25T10:47:43.941Z</time></trkpt><trkpt lat="30.69291769352743" lon="-5.5622164896158335"><ele>824.4</ele><time>2026-03-25T10:47:44.941Z</time></trkpt><trkpt lat="30.693000239329262" lon="-5.5621602136399435"><ele>825.1999999999999</ele><time>2026-03-25T10:47:45.941Z</time></trkpt><trkpt lat="30.69308029753253" lon="-5.562110614071908"><ele>826.0</ele><time>2026-03-25T10:47:46.941Z</time></trkpt><trkpt lat="30.693153199112665" lon="-5.562069803576623"><ele>826.1666666666666</ele><time>2026-03-25T10:47:47.941Z</time></trkpt><trkpt lat="30.69321758324538" lon="-5.562025649682964"><ele>826.3333333333333</ele><time>2026-03-25T10:47:48.941Z</time></trkpt><trkpt lat="30.69327466402778" lon="-5.561965189642387"><ele>826.5</ele><time>2026-03-25T10:47:49.941Z</time></trkpt><trkpt lat="30.693341423075633" lon="-5.561843325805453"><ele>826.6666666666667</ele><time>2026-03-25T10:47:51.94Z</time></trkpt><trkpt lat="30.693367682969896" lon="-5.561775086132592"><ele>826.8333333333334</ele><time>2026-03-25T10:47:52.94Z</time></trkpt><trkpt lat="30.693374473877725" lon="-5.561696100610349"><ele>827.0</ele><time>2026-03-25T10:47:53.94Z</time></trkpt><trkpt lat="30.693374192119244" lon="-5.561610617759283"><ele>827.0000000000001</ele><time>2026-03-25T10:47:54.94Z</time></trkpt><trkpt lat="30.693366336675155" lon="-5.561519136386441"><ele>827.0</ele><time>2026-03-25T10:47:55.94Z</time></trkpt><trkpt lat="30.693362511144855" lon="-5.561426951821526"><ele>827.0</ele><time>2026-03-25T10:47:56.94Z</time></trkpt><trkpt lat="30.693376825515596" lon="-5.561338603453049"><ele>827.0</ele><time>2026-03-25T10:47:57.94Z</time></trkpt><trkpt lat="30.69342432868816" lon="-5.561248111751526"><ele>827.0000000000001</ele><time>2026-03-25T10:47:58.94Z</time></trkpt><trkpt lat="30.69347786184139" lon="-5.561154194419435"><ele>827.0</ele><time>2026-03-25T10:47:59.94Z</time></trkpt><trkpt lat="30.693549903344422" lon="-5.561059163207745"><ele>826.8</ele><time>2026-03-25T10:48:00.94Z</time></trkpt><trkpt lat="30.69361516269149" lon="-5.560981760062054"><ele>826.6</ele><time>2026-03-25T10:48:01.94Z</time></trkpt><trkpt lat="30.69367180187801" lon="-5.560897634925211"><ele>826.4</ele><time>2026-03-25T10:48:02.94Z</time></trkpt><trkpt lat="30.693732694818973" lon="-5.5608198488578955"><ele>826.1999999999999</ele><time>2026-03-25T10:48:03.94Z</time></trkpt><trkpt lat="30.69379412716558" lon="-5.560737339181193"><ele>826.0</ele><time>2026-03-25T10:48:04.94Z</time></trkpt><trkpt lat="30.693862638240347" lon="-5.560653635570413"><ele>826.0</ele><time>2026-03-25T10:48:05.94Z</time></trkpt><trkpt lat="30.69393470108918" lon="-5.560568600002264"><ele>826.0</ele><time>2026-03-25T10:48:06.94Z</time></trkpt><trkpt lat="30.69401092569131" lon="-5.56047238587654"><ele>826.0</ele><time>2026-03-25T10:48:07.94Z</time></trkpt><trkpt lat="30.69408214072993" lon="-5.560371157947413"><ele>826.0</ele><time>2026-03-25T10:48:08.94Z</time></trkpt><trkpt lat="30.694146836952118" lon="-5.560267998851877"><ele>826.0</ele><time>2026-03-25T10:48:09.94Z</time></trkpt><trkpt lat="30.69421297120548" lon="-5.5601663719611105"><ele>826.25</ele><time>2026-03-25T10:48:10.94Z</time></trkpt><trkpt lat="30.6942899710968" lon="-5.560064427066079"><ele>826.5</ele><time>2026-03-25T10:48:11.94Z</time></trkpt><trkpt lat="30.69436660934877" lon="-5.559965861313376"><ele>826.75</ele><time>2026-03-25T10:48:12.94Z</time></trkpt><trkpt lat="30.694448250533867" lon="-5.559869066306433"><ele>827.0</ele><time>2026-03-25T10:48:13.94Z</time></trkpt><trkpt lat="30.694532255797508" lon="-5.559762105705848"><ele>827.0</ele><time>2026-03-25T10:48:14.94Z</time></trkpt><trkpt lat="30.69461119326208" lon="-5.559659840815753"><ele>827.0</ele><time>2026-03-25T10:48:15.94Z</time></trkpt><trkpt lat="30.69469539842587" lon="-5.559548667610398"><ele>827.0</ele><time>2026-03-25T10:48:16.94Z</time></trkpt><trkpt lat="30.69478237590156" lon="-5.559433634992406"><ele>827.0</ele><time>2026-03-25T10:48:17.94Z</time></trkpt><trkpt lat="30.694865749633813" lon="-5.5593261553034825"><ele>826.5</ele><time>2026-03-25T10:48:18.94Z</time></trkpt><trkpt lat="30.694958196613722" lon="-5.559198124252734"><ele>826.0</ele><time>2026-03-25T10:48:19.94Z</time></trkpt><trkpt lat="30.695044176722064" lon="-5.559089831409336"><ele>825.5</ele><time>2026-03-25T10:48:20.94Z</time></trkpt><trkpt lat="30.695122141040663" lon="-5.558974785288424"><ele>825.0</ele><time>2026-03-25T10:48:21.94Z</time></trkpt><trkpt lat="30.69520695800966" lon="-5.558857422076726"><ele>825.0</ele><time>2026-03-25T10:48:22.94Z</time></trkpt><trkpt lat="30.69529989482089" lon="-5.558734560450564"><ele>825.0</ele><time>2026-03-25T10:48:23.94Z</time></trkpt><trkpt lat="30.695395180064473" lon="-5.558609007039519"><ele>825.0</ele><time>2026-03-25T10:48:24.94Z</time></trkpt><trkpt lat="30.69549563468827" lon="-5.558483376051798"><ele>825.0</ele><time>2026-03-25T10:48:25.94Z</time></trkpt><trkpt lat="30.69559718400412" lon="-5.558351684858183"><ele>825.0</ele><time>2026-03-25T10:48:26.94Z</time></trkpt><trkpt lat="30.69569673984162" lon="-5.55822665114525"><ele>825.0</ele><time>2026-03-25T10:48:27.94Z</time></trkpt><trkpt lat="30.695800391806305" lon="-5.5580929927934575"><ele>825.0</ele><time>2026-03-25T10:48:28.94Z</time></trkpt><trkpt lat="30.695902449577666" lon="-5.5579562154693525"><ele>825.0</ele><time>2026-03-25T10:48:29.94Z</time></trkpt><trkpt lat="30.696008879518686" lon="-5.557820869675141"><ele>825.0</ele><time>2026-03-25T10:48:30.94Z</time></trkpt><trkpt lat="30.696114680512295" lon="-5.557686738779807"><ele>825.0</ele><time>2026-03-25T10:48:31.94Z</time></trkpt><trkpt lat="30.696216310884363" lon="-5.557548196306468"><ele>825.3333333333333</ele><time>2026-03-25T10:48:32.94Z</time></trkpt><trkpt lat="30.696322875402725" lon="-5.557406859088605"><ele>825.6666666666666</ele><time>2026-03-25T10:48:33.94Z</time></trkpt><trkpt lat="30.696430790407334" lon="-5.557263978458439"><ele>826.0</ele><time>2026-03-25T10:48:34.94Z</time></trkpt><trkpt lat="30.69653701641671" lon="-5.557118861384641"><ele>826.0</ele><time>2026-03-25T10:48:35.94Z</time></trkpt><trkpt lat="30.696643893686204" lon="-5.556977123143028"><ele>826.0</ele><time>2026-03-25T10:48:36.94Z</time></trkpt><trkpt lat="30.696752282400965" lon="-5.5568386947278485"><ele>826.0</ele><time>2026-03-25T10:48:37.941Z</time></trkpt><trkpt lat="30.69685922930491" lon="-5.5566948218146015"><ele>825.6666666666666</ele><time>2026-03-25T10:48:38.94Z</time></trkpt><trkpt lat="30.69697284037143" lon="-5.556553375053606"><ele>825.3333333333333</ele><time>2026-03-25T10:48:39.94Z</time></trkpt><trkpt lat="30.697082992311643" lon="-5.556407711478192"><ele>825.0</ele><time>2026-03-25T10:48:40.94Z</time></trkpt><trkpt lat="30.69719529656238" lon="-5.556266548442223"><ele>824.3333333333333</ele><time>2026-03-25T10:48:41.94Z</time></trkpt><trkpt lat="30.697307485003165" lon="-5.556121639977647"><ele>823.6666666666666</ele><time>2026-03-25T10:48:42.94Z</time></trkpt><trkpt lat="30.697422080110364" lon="-5.555974925168392"><ele>823.0</ele><time>2026-03-25T10:48:43.941Z</time></trkpt><trkpt lat="30.69753832025041" lon="-5.555823991814559"><ele>823.0</ele><time>2026-03-25T10:48:44.94Z</time></trkpt><trkpt lat="30.697656539092012" lon="-5.555679052035341"><ele>823.0</ele><time>2026-03-25T10:48:45.94Z</time></trkpt><trkpt lat="30.697768588000795" lon="-5.555538478588607"><ele>823.0</ele><time>2026-03-25T10:48:46.94Z</time></trkpt><trkpt lat="30.69787209900005" lon="-5.555406293102634"><ele>822.3333333333333</ele><time>2026-03-25T10:48:47.94Z</time></trkpt><trkpt lat="30.697972248636106" lon="-5.5552794569828965"><ele>821.6666666666667</ele><time>2026-03-25T10:48:48.94Z</time></trkpt><trkpt lat="30.698077066269228" lon="-5.555135616511347"><ele>821.0</ele><time>2026-03-25T10:48:49.94Z</time></trkpt><trkpt lat="30.69819111219091" lon="-5.554986900609008"><ele>821.0</ele><time>2026-03-25T10:48:50.94Z</time></trkpt><trkpt lat="30.69831058151993" lon="-5.554835255247452"><ele>821.0</ele><time>2026-03-25T10:48:51.94Z</time></trkpt><trkpt lat="30.698445551436354" lon="-5.554680838327863"><ele>821.0</ele><time>2026-03-25T10:48:52.94Z</time></trkpt><trkpt lat="30.6985908977327" lon="-5.554498959841645"><ele>821.3333333333334</ele><time>2026-03-25T10:48:53.94Z</time></trkpt><trkpt lat="30.698748316948098" lon="-5.554301585898742"><ele>821.6666666666667</ele><time>2026-03-25T10:48:54.94Z</time></trkpt><trkpt lat="30.698890191970133" lon="-5.5541254964498785"><ele>822.0</ele><time>2026-03-25T10:48:55.94Z</time></trkpt><trkpt lat="30.699026863388585" lon="-5.553959653496956"><ele>822.0</ele><time>2026-03-25T10:48:56.94Z</time></trkpt><trkpt lat="30.699158706427017" lon="-5.553796494173194"><ele>822.0</ele><time>2026-03-25T10:48:57.94Z</time></trkpt><trkpt lat="30.699285269586234" lon="-5.553643301912557"><ele>822.0</ele><time>2026-03-25T10:48:58.94Z</time></trkpt><trkpt lat="30.699408841043297" lon="-5.553496691770885"><ele>821.6666666666667</ele><time>2026-03-25T10:48:59.94Z</time></trkpt><trkpt lat="30.69955082681385" lon="-5.553322786130634"><ele>821.3333333333334</ele><time>2026-03-25T10:49:00.94Z</time></trkpt><trkpt lat="30.69966070125312" lon="-5.553166352177435"><ele>821.0</ele><time>2026-03-25T10:49:01.94Z</time></trkpt><trkpt lat="30.699775908387256" lon="-5.553040269514609"><ele>821.0</ele><time>2026-03-25T10:49:02.94Z</time></trkpt><trkpt lat="30.699868885803088" lon="-5.552926316892927"><ele>821.0</ele><time>2026-03-25T10:49:03.94Z</time></trkpt><trkpt lat="30.699961993502466" lon="-5.552818831275542"><ele>821.0</ele><time>2026-03-25T10:49:04.94Z</time></trkpt><trkpt lat="30.700044962223703" lon="-5.552711414015038"><ele>821.0</ele><time>2026-03-25T10:49:05.94Z</time></trkpt><trkpt lat="30.70013351610419" lon="-5.5526108202033395"><ele>820.6666666666667</ele><time>2026-03-25T10:49:06.939Z</time></trkpt><trkpt lat="30.700210914864726" lon="-5.5525261452991295"><ele>820.3333333333334</ele><time>2026-03-25T10:49:07.939Z</time></trkpt><trkpt lat="30.70028407534271" lon="-5.55245307823081"><ele>820.0</ele><time>2026-03-25T10:49:08.939Z</time></trkpt><trkpt lat="30.700359584500074" lon="-5.552396954990936"><ele>819.6666666666667</ele><time>2026-03-25T10:49:09.939Z</time></trkpt><trkpt lat="30.70042501732662" lon="-5.55235781551055"><ele>819.3333333333334</ele><time>2026-03-25T10:49:10.939Z</time></trkpt><trkpt lat="30.700489062608657" lon="-5.552332386520507"><ele>819.0</ele><time>2026-03-25T10:49:11.939Z</time></trkpt><trkpt lat="30.70054980566522" lon="-5.552309074354128"><ele>819.0</ele><time>2026-03-25T10:49:12.939Z</time></trkpt><trkpt lat="30.700609138301072" lon="-5.552270251754332"><ele>819.0</ele><time>2026-03-25T10:49:13.939Z</time></trkpt><trkpt lat="30.700678660357923" lon="-5.552205162859506"><ele>819.0</ele><time>2026-03-25T10:49:14.939Z</time></trkpt><trkpt lat="30.70074882323878" lon="-5.552117885075524"><ele>819.0</ele><time>2026-03-25T10:49:15.939Z</time></trkpt><trkpt lat="30.700831628409123" lon="-5.552011241180317"><ele>819.0</ele><time>2026-03-25T10:49:16.939Z</time></trkpt><trkpt lat="30.700922400545846" lon="-5.551909974301498"><ele>819.25</ele><time>2026-03-25T10:49:17.939Z</time></trkpt><trkpt lat="30.701017028747" lon="-5.551814842501108"><ele>819.5</ele><time>2026-03-25T10:49:18.939Z</time></trkpt><trkpt lat="30.70110318593529" lon="-5.551709572895072"><ele>819.75</ele><time>2026-03-25T10:49:19.939Z</time></trkpt><trkpt lat="30.701186426056037" lon="-5.5515867873432185"><ele>820.0</ele><time>2026-03-25T10:49:20.939Z</time></trkpt><trkpt lat="30.701261637911973" lon="-5.551472040796079"><ele>820.25</ele><time>2026-03-25T10:49:21.939Z</time></trkpt><trkpt lat="30.701348618319713" lon="-5.551361862555738"><ele>820.5</ele><time>2026-03-25T10:49:22.939Z</time></trkpt><trkpt lat="30.701441444831076" lon="-5.551254585295359"><ele>820.75</ele><time>2026-03-25T10:49:23.939Z</time></trkpt><trkpt lat="30.701523938607604" lon="-5.551153723421592"><ele>821.0</ele><time>2026-03-25T10:49:24.939Z</time></trkpt><trkpt lat="30.70159267924823" lon="-5.5510670178318975"><ele>820.6666666666667</ele><time>2026-03-25T10:49:25.939Z</time></trkpt><trkpt lat="30.701660761209318" lon="-5.550989273168888"><ele>820.3333333333334</ele><time>2026-03-25T10:49:26.939Z</time></trkpt><trkpt lat="30.701735170153945" lon="-5.55091997908555"><ele>820.0</ele><time>2026-03-25T10:49:27.939Z</time></trkpt><trkpt lat="30.701803729984604" lon="-5.550858047357792"><ele>819.6666666666667</ele><time>2026-03-25T10:49:28.939Z</time></trkpt><trkpt lat="30.701865398230236" lon="-5.5508218358357615"><ele>819.3333333333334</ele><time>2026-03-25T10:49:29.939Z</time></trkpt><trkpt lat="30.7019508602536" lon="-5.550778647348839"><ele>819.0</ele><time>2026-03-25T10:49:30.939Z</time></trkpt><trkpt lat="30.70202644904307" lon="-5.550723747347589"><ele>819.0</ele><time>2026-03-25T10:49:31.939Z</time></trkpt><trkpt lat="30.70208947386863" lon="-5.550649507859398"><ele>819.0</ele><time>2026-03-25T10:49:32.939Z</time></trkpt><trkpt lat="30.70212440979699" lon="-5.550557092792389"><ele>819.0</ele><time>2026-03-25T10:49:33.939Z</time></trkpt><trkpt lat="30.702174724278393" lon="-5.550424304801069"><ele>819.0</ele><time>2026-03-25T10:49:34.939Z</time></trkpt><trkpt lat="30.70226884149355" lon="-5.550262644093206"><ele>819.25</ele><time>2026-03-25T10:49:35.939Z</time></trkpt><trkpt lat="30.702386100407548" lon="-5.550118857397519"><ele>819.5</ele><time>2026-03-25T10:49:36.939Z</time></trkpt><trkpt lat="30.70247896073936" lon="-5.5500096425509895"><ele>819.75</ele><time>2026-03-25T10:49:37.939Z</time></trkpt><trkpt lat="30.702557439165393" lon="-5.54990295388444"><ele>820.0</ele><time>2026-03-25T10:49:38.939Z</time></trkpt><trkpt lat="30.70262560080282" lon="-5.54978526360228"><ele>820.0</ele><time>2026-03-25T10:49:39.939Z</time></trkpt><trkpt lat="30.70269318243685" lon="-5.54967633002036"><ele>820.0</ele><time>2026-03-25T10:49:40.939Z</time></trkpt><trkpt lat="30.702768573261594" lon="-5.549566852314933"><ele>820.0</ele><time>2026-03-25T10:49:41.939Z</time></trkpt><trkpt lat="30.702851296666626" lon="-5.549462729072623"><ele>820.0</ele><time>2026-03-25T10:49:42.939Z</time></trkpt><trkpt lat="30.702938444285742" lon="-5.549357599064015"><ele>819.75</ele><time>2026-03-25T10:49:43.939Z</time></trkpt><trkpt lat="30.703021327642432" lon="-5.54924198898478"><ele>819.5</ele><time>2026-03-25T10:49:44.939Z</time></trkpt><trkpt lat="30.70309789865393" lon="-5.549137988762474"><ele>819.25</ele><time>2026-03-25T10:49:45.939Z</time></trkpt><trkpt lat="30.703169017928918" lon="-5.549033392234628"><ele>819.0</ele><time>2026-03-25T10:49:46.939Z</time></trkpt><trkpt lat="30.703245385856835" lon="-5.548922136026694"><ele>819.0</ele><time>2026-03-25T10:49:47.939Z</time></trkpt><trkpt lat="30.703345533980922" lon="-5.5487917722144084"><ele>819.0</ele><time>2026-03-25T10:49:48.939Z</time></trkpt><trkpt lat="30.703448875598646" lon="-5.548666477855045"><ele>819.0</ele><time>2026-03-25T10:49:49.939Z</time></trkpt><trkpt lat="30.703546579400488" lon="-5.5485439840498865"><ele>819.0</ele><time>2026-03-25T10:49:50.939Z</time></trkpt><trkpt lat="30.70363849939046" lon="-5.548434223262014"><ele>818.6</ele><time>2026-03-25T10:49:51.939Z</time></trkpt><trkpt lat="30.703721575000404" lon="-5.5483408820440046"><ele>818.2</ele><time>2026-03-25T10:49:52.939Z</time></trkpt><trkpt lat="30.703803875033884" lon="-5.548253487588684"><ele>817.8000000000001</ele><time>2026-03-25T10:49:53.939Z</time></trkpt><trkpt lat="30.70388805002841" lon="-5.548175146977888"><ele>817.4000000000001</ele><time>2026-03-25T10:49:54.939Z</time></trkpt><trkpt lat="30.70397546106476" lon="-5.5481013124117835"><ele>817.0</ele><time>2026-03-25T10:49:55.939Z</time></trkpt><trkpt lat="30.704042710112706" lon="-5.548026830654741"><ele>817.0</ele><time>2026-03-25T10:49:56.939Z</time></trkpt><trkpt lat="30.70410474664488" lon="-5.547934959281503"><ele>817.0</ele><time>2026-03-25T10:49:57.939Z</time></trkpt><trkpt lat="30.704180485323207" lon="-5.547841130216183"><ele>817.0</ele><time>2026-03-25T10:49:58.939Z</time></trkpt><trkpt lat="30.704246920571705" lon="-5.547763161976806"><ele>817.0</ele><time>2026-03-25T10:49:59.939Z</time></trkpt><trkpt lat="30.704333431253556" lon="-5.547669214119763"><ele>817.0</ele><time>2026-03-25T10:50:00.939Z</time></trkpt><trkpt lat="30.704414512077527" lon="-5.547576368806406"><ele>818.25</ele><time>2026-03-25T10:50:01.939Z</time></trkpt><trkpt lat="30.70450080588217" lon="-5.54747292704106"><ele>819.5</ele><time>2026-03-25T10:50:02.939Z</time></trkpt><trkpt lat="30.704576554858104" lon="-5.547372433397827"><ele>820.75</ele><time>2026-03-25T10:50:03.939Z</time></trkpt><trkpt lat="30.70465194699363" lon="-5.547281548913346"><ele>822.0</ele><time>2026-03-25T10:50:04.939Z</time></trkpt><trkpt lat="30.704731814214433" lon="-5.547187489878195"><ele>822.0</ele><time>2026-03-25T10:50:05.939Z</time></trkpt><trkpt lat="30.70482297728836" lon="-5.54708188729045"><ele>822.0</ele><time>2026-03-25T10:50:06.939Z</time></trkpt><trkpt lat="30.704920075266344" lon="-5.546967852359193"><ele>822.0</ele><time>2026-03-25T10:50:07.939Z</time></trkpt><trkpt lat="30.70501555829501" lon="-5.546856958911182"><ele>822.0</ele><time>2026-03-25T10:50:08.939Z</time></trkpt><trkpt lat="30.705112768741817" lon="-5.546742931260212"><ele>821.25</ele><time>2026-03-25T10:50:09.939Z</time></trkpt><trkpt lat="30.705211285305296" lon="-5.546622135940207"><ele>820.5</ele><time>2026-03-25T10:50:10.939Z</time></trkpt><trkpt lat="30.70530933373652" lon="-5.546499768859688"><ele>819.75</ele><time>2026-03-25T10:50:11.939Z</time></trkpt><trkpt lat="30.705416552769623" lon="-5.546366959990859"><ele>819.0</ele><time>2026-03-25T10:50:12.939Z</time></trkpt><trkpt lat="30.70550687153708" lon="-5.546254181161394"><ele>819.0</ele><time>2026-03-25T10:50:13.939Z</time></trkpt><trkpt lat="30.705575823533085" lon="-5.546169029342065"><ele>819.0</ele><time>2026-03-25T10:50:14.939Z</time></trkpt><trkpt lat="30.705636868278" lon="-5.546090476665281"><ele>819.0</ele><time>2026-03-25T10:50:15.939Z</time></trkpt><trkpt lat="30.705701329329894" lon="-5.546024183318352"><ele>819.0</ele><time>2026-03-25T10:50:16.939Z</time></trkpt><trkpt lat="30.705771511943613" lon="-5.5459521751800205"><ele>819.0</ele><time>2026-03-25T10:50:17.939Z</time></trkpt><trkpt lat="30.705844468051517" lon="-5.545883911757323"><ele>819.0</ele><time>2026-03-25T10:50:18.939Z</time></trkpt><trkpt lat="30.705929644643323" lon="-5.545803245265874"><ele>819.0</ele><time>2026-03-25T10:50:19.939Z</time></trkpt><trkpt lat="30.706017253670755" lon="-5.545720870272521"><ele>819.0</ele><time>2026-03-25T10:50:20.939Z</time></trkpt><trkpt lat="30.706095225258174" lon="-5.54563083997525"><ele>819.0</ele><time>2026-03-25T10:50:21.939Z</time></trkpt><trkpt lat="30.706176121115647" lon="-5.545537366048999"><ele>819.0</ele><time>2026-03-25T10:50:22.939Z</time></trkpt><trkpt lat="30.706258570459568" lon="-5.54544440376739"><ele>819.2</ele><time>2026-03-25T10:50:23.939Z</time></trkpt><trkpt lat="30.706337870817396" lon="-5.545354766909967"><ele>819.4000000000001</ele><time>2026-03-25T10:50:24.939Z</time></trkpt><trkpt lat="30.70642148989555" lon="-5.5452756618714965"><ele>819.6</ele><time>2026-03-25T10:50:25.939Z</time></trkpt><trkpt lat="30.706503034055757" lon="-5.545210965934684"><ele>819.8</ele><time>2026-03-25T10:50:26.939Z</time></trkpt><trkpt lat="30.706572258445526" lon="-5.545145025285891"><ele>820.0</ele><time>2026-03-25T10:50:27.939Z</time></trkpt><trkpt lat="30.706643906389104" lon="-5.545024321473437"><ele>820.0</ele><time>2026-03-25T10:50:28.939Z</time></trkpt><trkpt lat="30.706733634220434" lon="-5.54494283351625"><ele>820.0</ele><time>2026-03-25T10:50:29.939Z</time></trkpt><trkpt lat="30.706855684404566" lon="-5.544853505424453"><ele>820.0</ele><time>2026-03-25T10:50:30.939Z</time></trkpt><trkpt lat="30.706948973931315" lon="-5.54478444842474"><ele>820.0</ele><time>2026-03-25T10:50:31.939Z</time></trkpt><trkpt lat="30.707032189537127" lon="-5.544722761156184"><ele>819.8</ele><time>2026-03-25T10:50:32.939Z</time></trkpt><trkpt lat="30.70711434897893" lon="-5.544658353765432"><ele>819.6</ele><time>2026-03-25T10:50:33.939Z</time></trkpt><trkpt lat="30.707199353915566" lon="-5.544577602074"><ele>819.4000000000001</ele><time>2026-03-25T10:50:34.939Z</time></trkpt><trkpt lat="30.707263289411994" lon="-5.544514786641096"><ele>819.2</ele><time>2026-03-25T10:50:35.939Z</time></trkpt><trkpt lat="30.707328180977388" lon="-5.544467722691692"><ele>819.0</ele><time>2026-03-25T10:50:36.939Z</time></trkpt><trkpt lat="30.707405002278623" lon="-5.544428143007652"><ele>818.6</ele><time>2026-03-25T10:50:37.939Z</time></trkpt><trkpt lat="30.707487984630347" lon="-5.544379982492897"><ele>818.2</ele><time>2026-03-25T10:50:38.939Z</time></trkpt><trkpt lat="30.707568699223923" lon="-5.5443311019959065"><ele>817.8000000000001</ele><time>2026-03-25T10:50:39.939Z</time></trkpt><trkpt lat="30.70764786520257" lon="-5.544272684083279"><ele>817.4000000000001</ele><time>2026-03-25T10:50:40.939Z</time></trkpt><trkpt lat="30.70773709214011" lon="-5.544226310364092"><ele>817.0</ele><time>2026-03-25T10:50:41.939Z</time></trkpt><trkpt lat="30.707837487349238" lon="-5.544181413248135"><ele>816.8</ele><time>2026-03-25T10:50:42.939Z</time></trkpt><trkpt lat="30.707937412900254" lon="-5.544132447229575"><ele>816.6</ele><time>2026-03-25T10:50:43.94Z</time></trkpt><trkpt lat="30.708033077441716" lon="-5.544087090217173"><ele>816.4</ele><time>2026-03-25T10:50:44.94Z</time></trkpt><trkpt lat="30.70812431986824" lon="-5.544037451354565"><ele>816.1999999999999</ele><time>2026-03-25T10:50:45.94Z</time></trkpt><trkpt lat="30.70821364534166" lon="-5.543983660817388"><ele>816.0</ele><time>2026-03-25T10:50:46.939Z</time></trkpt><trkpt lat="30.708305890374064" lon="-5.543936473487737"><ele>816.0</ele><time>2026-03-25T10:50:47.939Z</time></trkpt><trkpt lat="30.708389712373325" lon="-5.543879552048725"><ele>816.0</ele><time>2026-03-25T10:50:48.939Z</time></trkpt><trkpt lat="30.708473379513016" lon="-5.54381387155058"><ele>816.0</ele><time>2026-03-25T10:50:49.939Z</time></trkpt><trkpt lat="30.708574990792332" lon="-5.543727852341506"><ele>816.0</ele><time>2026-03-25T10:50:50.939Z</time></trkpt><trkpt lat="30.708701054748424" lon="-5.543641928014701"><ele>816.5</ele><time>2026-03-25T10:50:51.939Z</time></trkpt><trkpt lat="30.70883265688311" lon="-5.543584321277068"><ele>817.0</ele><time>2026-03-25T10:50:52.939Z</time></trkpt><trkpt lat="30.70895135731059" lon="-5.543544628441156"><ele>817.5</ele><time>2026-03-25T10:50:53.939Z</time></trkpt><trkpt lat="30.709076269123337" lon="-5.5435008516557085"><ele>818.0</ele><time>2026-03-25T10:50:54.939Z</time></trkpt><trkpt lat="30.709191387689387" lon="-5.543438682244858"><ele>818.0</ele><time>2026-03-25T10:50:55.939Z</time></trkpt><trkpt lat="30.70928345941024" lon="-5.543350779699941"><ele>818.0</ele><time>2026-03-25T10:50:56.939Z</time></trkpt><trkpt lat="30.7093845077515" lon="-5.543265093058762"><ele>818.0</ele><time>2026-03-25T10:50:57.939Z</time></trkpt><trkpt lat="30.709483458366144" lon="-5.543185058939387"><ele>818.0</ele><time>2026-03-25T10:50:58.939Z</time></trkpt><trkpt lat="30.709570875209753" lon="-5.543130288907744"><ele>817.8</ele><time>2026-03-25T10:50:59.939Z</time></trkpt><trkpt lat="30.70966092695495" lon="-5.543072041191699"><ele>817.5999999999999</ele><time>2026-03-25T10:51:00.939Z</time></trkpt><trkpt lat="30.70975510237682" lon="-5.543026566284975"><ele>817.4000000000001</ele><time>2026-03-25T10:51:01.939Z</time></trkpt><trkpt lat="30.70985962837825" lon="-5.542994160756553"><ele>817.2</ele><time>2026-03-25T10:51:02.939Z</time></trkpt><trkpt lat="30.709960261291236" lon="-5.54296444889127"><ele>817.0</ele><time>2026-03-25T10:51:03.939Z</time></trkpt><trkpt lat="30.710066983389613" lon="-5.542934442373088"><ele>817.0</ele><time>2026-03-25T10:51:04.939Z</time></trkpt><trkpt lat="30.71017336619655" lon="-5.542890381566842"><ele>817.0</ele><time>2026-03-25T10:51:05.939Z</time></trkpt><trkpt lat="30.710287909696493" lon="-5.542836484374104"><ele>817.0</ele><time>2026-03-25T10:51:06.939Z</time></trkpt><trkpt lat="30.710400479958274" lon="-5.542771697198179"><ele>817.0</ele><time>2026-03-25T10:51:07.939Z</time></trkpt><trkpt lat="30.710514596240802" lon="-5.542700116069149"><ele>816.75</ele><time>2026-03-25T10:51:08.939Z</time></trkpt><trkpt lat="30.710632886644728" lon="-5.542623693731256"><ele>816.5</ele><time>2026-03-25T10:51:09.939Z</time></trkpt><trkpt lat="30.71074468394779" lon="-5.542542719331716"><ele>816.25</ele><time>2026-03-25T10:51:10.939Z</time></trkpt><trkpt lat="30.710851871554368" lon="-5.542469429779162"><ele>816.0</ele><time>2026-03-25T10:51:11.939Z</time></trkpt><trkpt lat="30.710955319647486" lon="-5.542392598858463"><ele>816.0</ele><time>2026-03-25T10:51:12.939Z</time></trkpt><trkpt lat="30.71104995239746" lon="-5.542321841631738"><ele>816.0</ele><time>2026-03-25T10:51:13.939Z</time></trkpt><trkpt lat="30.71113731841822" lon="-5.542248872217693"><ele>816.0</ele><time>2026-03-25T10:51:14.939Z</time></trkpt><trkpt lat="30.7112224638054" lon="-5.542175161377037"><ele>816.0</ele><time>2026-03-25T10:51:15.939Z</time></trkpt><trkpt lat="30.711294659840412" lon="-5.542069671744512"><ele>816.0</ele><time>2026-03-25T10:51:16.939Z</time></trkpt><trkpt lat="30.711359443668382" lon="-5.54192866183157"><ele>816.5</ele><time>2026-03-25T10:51:17.939Z</time></trkpt><trkpt lat="30.711433726522024" lon="-5.541773488998107"><ele>817.0</ele><time>2026-03-25T10:51:18.939Z</time></trkpt><trkpt lat="30.711508401578044" lon="-5.541649427690259"><ele>817.5</ele><time>2026-03-25T10:51:19.939Z</time></trkpt><trkpt lat="30.7115870335798" lon="-5.541542221861474"><ele>818.0</ele><time>2026-03-25T10:51:20.939Z</time></trkpt><trkpt lat="30.711676476076477" lon="-5.541458673465316"><ele>818.0</ele><time>2026-03-25T10:51:21.939Z</time></trkpt><trkpt lat="30.711792880843092" lon="-5.541383188154384"><ele>818.0</ele><time>2026-03-25T10:51:22.939Z</time></trkpt><trkpt lat="30.71193253846069" lon="-5.541318076007462"><ele>818.0</ele><time>2026-03-25T10:51:23.939Z</time></trkpt><trkpt lat="30.712064216004613" lon="-5.541261795475862"><ele>818.0</ele><time>2026-03-25T10:51:24.939Z</time></trkpt><trkpt lat="30.712167601079432" lon="-5.541197397751943"><ele>817.75</ele><time>2026-03-25T10:51:25.939Z</time></trkpt><trkpt lat="30.712277076751956" lon="-5.541121923458524"><ele>817.5</ele><time>2026-03-25T10:51:26.939Z</time></trkpt><trkpt lat="30.712398187817016" lon="-5.541053300845257"><ele>817.25</ele><time>2026-03-25T10:51:27.939Z</time></trkpt><trkpt lat="30.712529495562464" lon="-5.540990240818543"><ele>817.0</ele><time>2026-03-25T10:51:28.939Z</time></trkpt><trkpt lat="30.712667207913828" lon="-5.540922828938353"><ele>817.5</ele><time>2026-03-25T10:51:29.939Z</time></trkpt><trkpt lat="30.712803639358658" lon="-5.5408489361540925"><ele>818.0</ele><time>2026-03-25T10:51:30.939Z</time></trkpt><trkpt lat="30.712943146228227" lon="-5.540777433655981"><ele>818.5</ele><time>2026-03-25T10:51:31.939Z</time></trkpt><trkpt lat="30.713069393435774" lon="-5.540705019877912"><ele>819.0</ele><time>2026-03-25T10:51:32.939Z</time></trkpt><trkpt lat="30.713208622341412" lon="-5.540634308050425"><ele>819.0</ele><time>2026-03-25T10:51:33.939Z</time></trkpt><trkpt lat="30.713349301046684" lon="-5.540564229553485"><ele>819.0</ele><time>2026-03-25T10:51:34.939Z</time></trkpt><trkpt lat="30.713477961709835" lon="-5.540505015556616"><ele>819.0</ele><time>2026-03-25T10:51:35.939Z</time></trkpt><trkpt lat="30.713606233711204" lon="-5.540453025281337"><ele>819.0</ele><time>2026-03-25T10:51:36.939Z</time></trkpt><trkpt lat="30.71373545440635" lon="-5.540407088932625"><ele>819.25</ele><time>2026-03-25T10:51:37.939Z</time></trkpt><trkpt lat="30.71387767591361" lon="-5.540360559002482"><ele>819.5</ele><time>2026-03-25T10:51:38.939Z</time></trkpt><trkpt lat="30.714012096049867" lon="-5.540303507412173"><ele>819.75</ele><time>2026-03-25T10:51:39.939Z</time></trkpt><trkpt lat="30.714152498823175" lon="-5.540229193887696"><ele>820.0</ele><time>2026-03-25T10:51:40.939Z</time></trkpt><trkpt lat="30.71429031399961" lon="-5.540146138169736"><ele>820.25</ele><time>2026-03-25T10:51:41.939Z</time></trkpt><trkpt lat="30.714413251939796" lon="-5.540081459037968"><ele>820.5</ele><time>2026-03-25T10:51:42.939Z</time></trkpt><trkpt lat="30.714523620450713" lon="-5.540026021680673"><ele>820.75</ele><time>2026-03-25T10:51:43.939Z</time></trkpt><trkpt lat="30.714623365664895" lon="-5.539966661732755"><ele>821.0</ele><time>2026-03-25T10:51:44.939Z</time></trkpt><trkpt lat="30.714727798314893" lon="-5.539915201125346"><ele>821.0</ele><time>2026-03-25T10:51:45.939Z</time></trkpt><trkpt lat="30.71483210172379" lon="-5.539861819270878"><ele>821.0</ele><time>2026-03-25T10:51:46.939Z</time></trkpt><trkpt lat="30.714939712312777" lon="-5.539798514547403"><ele>821.0</ele><time>2026-03-25T10:51:47.939Z</time></trkpt><trkpt lat="30.715051282063456" lon="-5.539724197438961"><ele>821.0</ele><time>2026-03-25T10:51:48.939Z</time></trkpt><trkpt lat="30.715169357228202" lon="-5.539658807901843"><ele>821.0</ele><time>2026-03-25T10:51:49.939Z</time></trkpt><trkpt lat="30.715298559892105" lon="-5.539608673839874"><ele>821.0</ele><time>2026-03-25T10:51:50.939Z</time></trkpt><trkpt lat="30.715452112842623" lon="-5.539543574526701"><ele>821.0</ele><time>2026-03-25T10:51:51.939Z</time></trkpt><trkpt lat="30.715624270415496" lon="-5.539444055148657"><ele>821.0</ele><time>2026-03-25T10:51:52.939Z</time></trkpt><trkpt lat="30.71580370406383" lon="-5.539341006569251"><ele>821.0</ele><time>2026-03-25T10:51:53.939Z</time></trkpt><trkpt lat="30.71594650479299" lon="-5.539261199065301"><ele>821.0</ele><time>2026-03-25T10:51:54.939Z</time></trkpt><trkpt lat="30.71607388121398" lon="-5.539207444666923"><ele>821.0</ele><time>2026-03-25T10:51:55.939Z</time></trkpt><trkpt lat="30.716204902607398" lon="-5.539157196699713"><ele>821.0</ele><time>2026-03-25T10:51:56.939Z</time></trkpt><trkpt lat="30.71633947389714" lon="-5.539109112601957"><ele>821.0</ele><time>2026-03-25T10:51:57.939Z</time></trkpt><trkpt lat="30.716472446613555" lon="-5.53905557689834"><ele>821.0</ele><time>2026-03-25T10:51:58.939Z</time></trkpt><trkpt lat="30.71660173013096" lon="-5.538999365246752"><ele>821.0</ele><time>2026-03-25T10:51:59.939Z</time></trkpt><trkpt lat="30.71672910627528" lon="-5.53894606538974"><ele>821.0</ele><time>2026-03-25T10:52:00.939Z</time></trkpt><trkpt lat="30.716836113422282" lon="-5.538898256899826"><ele>821.0</ele><time>2026-03-25T10:52:01.939Z</time></trkpt><trkpt lat="30.716933010828136" lon="-5.538855192302153"><ele>821.0</ele><time>2026-03-25T10:52:02.939Z</time></trkpt><trkpt lat="30.71703384333613" lon="-5.538810502458475"><ele>821.1999999999999</ele><time>2026-03-25T10:52:03.939Z</time></trkpt><trkpt lat="30.717135422777424" lon="-5.538763612982569"><ele>821.4</ele><time>2026-03-25T10:52:04.939Z</time></trkpt><trkpt lat="30.717234890206665" lon="-5.538716310748528"><ele>821.6</ele><time>2026-03-25T10:52:05.939Z</time></trkpt><trkpt lat="30.717330695461047" lon="-5.538668479256346"><ele>821.8</ele><time>2026-03-25T10:52:06.938Z</time></trkpt><trkpt lat="30.717421915444906" lon="-5.538617791466518"><ele>822.0</ele><time>2026-03-25T10:52:07.938Z</time></trkpt><trkpt lat="30.717505105730808" lon="-5.53855821617943"><ele>822.25</ele><time>2026-03-25T10:52:08.938Z</time></trkpt><trkpt lat="30.71759598500989" lon="-5.538497848003921"><ele>822.5</ele><time>2026-03-25T10:52:09.938Z</time></trkpt><trkpt lat="30.717691864866488" lon="-5.538436359506442"><ele>822.75</ele><time>2026-03-25T10:52:10.938Z</time></trkpt><trkpt lat="30.71780186337603" lon="-5.538382006212957"><ele>823.0</ele><time>2026-03-25T10:52:11.938Z</time></trkpt><trkpt lat="30.717921165610154" lon="-5.5383318726824236"><ele>823.0</ele><time>2026-03-25T10:52:12.938Z</time></trkpt><trkpt lat="30.71803884719264" lon="-5.538282747718809"><ele>823.0</ele><time>2026-03-25T10:52:13.938Z</time></trkpt><trkpt lat="30.7181636375634" lon="-5.538225025522056"><ele>823.0</ele><time>2026-03-25T10:52:14.938Z</time></trkpt><trkpt lat="30.718296109653167" lon="-5.538160901221164"><ele>823.0</ele><time>2026-03-25T10:52:15.938Z</time></trkpt><trkpt lat="30.718432847496675" lon="-5.538098154245429"><ele>823.0</ele><time>2026-03-25T10:52:16.938Z</time></trkpt><trkpt lat="30.71855288232297" lon="-5.538032927036181"><ele>823.0</ele><time>2026-03-25T10:52:17.938Z</time></trkpt><trkpt lat="30.718674861479727" lon="-5.537954253523872"><ele>823.0</ele><time>2026-03-25T10:52:18.938Z</time></trkpt><trkpt lat="30.718795611918107" lon="-5.537898308454892"><ele>823.0</ele><time>2026-03-25T10:52:19.937Z</time></trkpt><trkpt lat="30.71891392907373" lon="-5.537845018798323"><ele>823.5</ele><time>2026-03-25T10:52:20.937Z</time></trkpt><trkpt lat="30.719023533198914" lon="-5.53778963517947"><ele>824.0</ele><time>2026-03-25T10:52:21.936Z</time></trkpt><trkpt lat="30.71913244946469" lon="-5.5377108213291235"><ele>824.5</ele><time>2026-03-25T10:52:22.936Z</time></trkpt><trkpt lat="30.719242230773734" lon="-5.537625782346749"><ele>825.0</ele><time>2026-03-25T10:52:23.936Z</time></trkpt><trkpt lat="30.719349497585377" lon="-5.537542022292644"><ele>824.25</ele><time>2026-03-25T10:52:24.935Z</time></trkpt><trkpt lat="30.719461759935673" lon="-5.537480510771961"><ele>823.5</ele><time>2026-03-25T10:52:25.935Z</time></trkpt><trkpt lat="30.7195811652943" lon="-5.537444781025418"><ele>822.75</ele><time>2026-03-25T10:52:26.935Z</time></trkpt><trkpt lat="30.719696264390233" lon="-5.537414328022301"><ele>822.0</ele><time>2026-03-25T10:52:27.935Z</time></trkpt><trkpt lat="30.71981391676274" lon="-5.537378086668942"><ele>822.0</ele><time>2026-03-25T10:52:28.934Z</time></trkpt><trkpt lat="30.719920035304035" lon="-5.537340398069628"><ele>822.0</ele><time>2026-03-25T10:52:29.934Z</time></trkpt><trkpt lat="30.720027292461253" lon="-5.53730029104051"><ele>822.0</ele><time>2026-03-25T10:52:30.934Z</time></trkpt><trkpt lat="30.720134316999268" lon="-5.537262658598494"><ele>822.0</ele><time>2026-03-25T10:52:31.934Z</time></trkpt><trkpt lat="30.720249098839435" lon="-5.537222187012269"><ele>822.25</ele><time>2026-03-25T10:52:32.933Z</time></trkpt><trkpt lat="30.720364558300606" lon="-5.537184467766495"><ele>822.5</ele><time>2026-03-25T10:52:33.933Z</time></trkpt><trkpt lat="30.720481722064324" lon="-5.5371424297263445"><ele>822.75</ele><time>2026-03-25T10:52:34.933Z</time></trkpt><trkpt lat="30.720599195590374" lon="-5.537088805237548"><ele>823.0</ele><time>2026-03-25T10:52:35.933Z</time></trkpt><trkpt lat="30.720718007121192" lon="-5.537028761101268"><ele>823.0</ele><time>2026-03-25T10:52:36.933Z</time></trkpt><trkpt lat="30.720843716619655" lon="-5.5369605965694335"><ele>823.0</ele><time>2026-03-25T10:52:37.933Z</time></trkpt><trkpt lat="30.72097028309678" lon="-5.536891515944272"><ele>823.0</ele><time>2026-03-25T10:52:38.932Z</time></trkpt><trkpt lat="30.721099213613154" lon="-5.536823515243678"><ele>823.0</ele><time>2026-03-25T10:52:39.932Z</time></trkpt><trkpt lat="30.721224744860578" lon="-5.536762538361761"><ele>823.3333333333333</ele><time>2026-03-25T10:52:40.932Z</time></trkpt><trkpt lat="30.7213695211681" lon="-5.536681322513602"><ele>823.6666666666667</ele><time>2026-03-25T10:52:41.932Z</time></trkpt><trkpt lat="30.72152732148263" lon="-5.536588477276921"><ele>824.0</ele><time>2026-03-25T10:52:42.932Z</time></trkpt><trkpt lat="30.721689388369438" lon="-5.536498458447577"><ele>824.0</ele><time>2026-03-25T10:52:43.932Z</time></trkpt><trkpt lat="30.72185517261679" lon="-5.536416331540579"><ele>824.0</ele><time>2026-03-25T10:52:44.932Z</time></trkpt><trkpt lat="30.722008712929192" lon="-5.536336338192712"><ele>824.0</ele><time>2026-03-25T10:52:45.932Z</time></trkpt><trkpt lat="30.722132370610503" lon="-5.536270581422826"><ele>824.2</ele><time>2026-03-25T10:52:46.932Z</time></trkpt><trkpt lat="30.722242885380492" lon="-5.53620420299839"><ele>824.4000000000001</ele><time>2026-03-25T10:52:47.932Z</time></trkpt><trkpt lat="30.722340868849834" lon="-5.536139193907701"><ele>824.6</ele><time>2026-03-25T10:52:48.931Z</time></trkpt><trkpt lat="30.722430374976838" lon="-5.536082566871979"><ele>824.8</ele><time>2026-03-25T10:52:49.932Z</time></trkpt><trkpt lat="30.7225007739068" lon="-5.536017041854566"><ele>825.0</ele><time>2026-03-25T10:52:50.931Z</time></trkpt><trkpt lat="30.722563404692803" lon="-5.535942598313292"><ele>825.0</ele><time>2026-03-25T10:52:51.931Z</time></trkpt><trkpt lat="30.722626413530694" lon="-5.53586359288823"><ele>825.0</ele><time>2026-03-25T10:52:52.932Z</time></trkpt><trkpt lat="30.722703999364317" lon="-5.535815704633023"><ele>825.0</ele><time>2026-03-25T10:52:53.931Z</time></trkpt><trkpt lat="30.722810081831273" lon="-5.535791565105585"><ele>825.0</ele><time>2026-03-25T10:52:54.931Z</time></trkpt><trkpt lat="30.722931628060486" lon="-5.535767410229595"><ele>825.0</ele><time>2026-03-25T10:52:55.931Z</time></trkpt><trkpt lat="30.72304903512957" lon="-5.53572097617216"><ele>825.0</ele><time>2026-03-25T10:52:56.932Z</time></trkpt><trkpt lat="30.72315044315303" lon="-5.535661373490449"><ele>825.0</ele><time>2026-03-25T10:52:57.932Z</time></trkpt><trkpt lat="30.723257992769256" lon="-5.5355939938022845"><ele>825.0</ele><time>2026-03-25T10:52:58.932Z</time></trkpt><trkpt lat="30.723337772449312" lon="-5.53554916453335"><ele>825.0</ele><time>2026-03-25T10:52:59.931Z</time></trkpt><trkpt lat="30.723417432326283" lon="-5.5354996553934654"><ele>825.0</ele><time>2026-03-25T10:53:00.931Z</time></trkpt><trkpt lat="30.72348280412017" lon="-5.535431545694694"><ele>824.75</ele><time>2026-03-25T10:53:01.931Z</time></trkpt><trkpt lat="30.723546918221842" lon="-5.535341904147078"><ele>824.5</ele><time>2026-03-25T10:53:02.931Z</time></trkpt><trkpt lat="30.723607968553267" lon="-5.535236571654961"><ele>824.25</ele><time>2026-03-25T10:53:03.931Z</time></trkpt><trkpt lat="30.72369264658866" lon="-5.535119938650311"><ele>824.0</ele><time>2026-03-25T10:53:04.931Z</time></trkpt><trkpt lat="30.723797500556433" lon="-5.5350178046749345"><ele>824.75</ele><time>2026-03-25T10:53:05.931Z</time></trkpt><trkpt lat="30.723900553290424" lon="-5.53492366735946"><ele>825.5</ele><time>2026-03-25T10:53:06.931Z</time></trkpt><trkpt lat="30.724003162537514" lon="-5.5348344165172625"><ele>826.25</ele><time>2026-03-25T10:53:07.93Z</time></trkpt><trkpt lat="30.724102189914657" lon="-5.534750743859383"><ele>827.0</ele><time>2026-03-25T10:53:08.93Z</time></trkpt><trkpt lat="30.724196116717703" lon="-5.5346698027180405"><ele>827.0</ele><time>2026-03-25T10:53:09.93Z</time></trkpt><trkpt lat="30.72427341940227" lon="-5.534584103139142"><ele>827.0</ele><time>2026-03-25T10:53:10.93Z</time></trkpt><trkpt lat="30.724342404535868" lon="-5.534480921827264"><ele>827.0</ele><time>2026-03-25T10:53:11.93Z</time></trkpt><trkpt lat="30.72440647602687" lon="-5.534347150505749"><ele>827.0</ele><time>2026-03-25T10:53:12.93Z</time></trkpt><trkpt lat="30.724479228586127" lon="-5.534191584314229"><ele>827.0</ele><time>2026-03-25T10:53:13.93Z</time></trkpt><trkpt lat="30.724563294681584" lon="-5.53403740925335"><ele>827.0</ele><time>2026-03-25T10:53:14.93Z</time></trkpt><trkpt lat="30.724645765978096" lon="-5.5338966908681195"><ele>827.0</ele><time>2026-03-25T10:53:15.93Z</time></trkpt><trkpt lat="30.724726943411728" lon="-5.533761576385151"><ele>827.0</ele><time>2026-03-25T10:53:16.93Z</time></trkpt><trkpt lat="30.72480801917835" lon="-5.533631064020009"><ele>827.0</ele><time>2026-03-25T10:53:17.93Z</time></trkpt><trkpt lat="30.724887139690466" lon="-5.533494124255543"><ele>827.0</ele><time>2026-03-25T10:53:18.93Z</time></trkpt><trkpt lat="30.724967860204895" lon="-5.533351822138281"><ele>827.0</ele><time>2026-03-25T10:53:19.93Z</time></trkpt><trkpt lat="30.72504783738142" lon="-5.533216566684292"><ele>827.0</ele><time>2026-03-25T10:53:20.93Z</time></trkpt><trkpt lat="30.725126454032928" lon="-5.533082310992619"><ele>827.0</ele><time>2026-03-25T10:53:21.93Z</time></trkpt><trkpt lat="30.725207596769117" lon="-5.532944825541733"><ele>827.0</ele><time>2026-03-25T10:53:22.93Z</time></trkpt><trkpt lat="30.7252929030268" lon="-5.532811935590893"><ele>827.0</ele><time>2026-03-25T10:53:23.93Z</time></trkpt><trkpt lat="30.725377962486785" lon="-5.532666509327381"><ele>827.0</ele><time>2026-03-25T10:53:24.93Z</time></trkpt><trkpt lat="30.725463595309687" lon="-5.532515533260964"><ele>827.6666666666667</ele><time>2026-03-25T10:53:25.93Z</time></trkpt><trkpt lat="30.725552433302845" lon="-5.53236493109711"><ele>828.3333333333333</ele><time>2026-03-25T10:53:26.93Z</time></trkpt><trkpt lat="30.725641032425024" lon="-5.532214874181617"><ele>829.0</ele><time>2026-03-25T10:53:27.93Z</time></trkpt><trkpt lat="30.725727097425928" lon="-5.532069892459479"><ele>828.0</ele><time>2026-03-25T10:53:28.93Z</time></trkpt><trkpt lat="30.725819410099305" lon="-5.531917108293592"><ele>827.0</ele><time>2026-03-25T10:53:29.93Z</time></trkpt><trkpt lat="30.725915091113734" lon="-5.531763189829078"><ele>826.0</ele><time>2026-03-25T10:53:30.93Z</time></trkpt><trkpt lat="30.72600961294847" lon="-5.531611520950045"><ele>826.3333333333333</ele><time>2026-03-25T10:53:31.93Z</time></trkpt><trkpt lat="30.726107678809544" lon="-5.531457653382446"><ele>826.6666666666667</ele><time>2026-03-25T10:53:32.93Z</time></trkpt><trkpt lat="30.726202995385165" lon="-5.5313016149803245"><ele>827.0</ele><time>2026-03-25T10:53:33.93Z</time></trkpt><trkpt lat="30.726296442800773" lon="-5.531145924988417"><ele>827.6666666666667</ele><time>2026-03-25T10:53:34.93Z</time></trkpt><trkpt lat="30.72638665750696" lon="-5.530985593637418"><ele>828.3333333333333</ele><time>2026-03-25T10:53:35.93Z</time></trkpt><trkpt lat="30.726473482619205" lon="-5.530834378290118"><ele>829.0</ele><time>2026-03-25T10:53:36.93Z</time></trkpt><trkpt lat="30.726561734170826" lon="-5.53067255197953"><ele>829.0</ele><time>2026-03-25T10:53:37.93Z</time></trkpt><trkpt lat="30.72666857437535" lon="-5.530494278214519"><ele>829.0</ele><time>2026-03-25T10:53:38.93Z</time></trkpt><trkpt lat="30.726776213802037" lon="-5.530296363577743"><ele>829.0</ele><time>2026-03-25T10:53:39.93Z</time></trkpt><trkpt lat="30.726871290908704" lon="-5.530138920704667"><ele>828.3333333333333</ele><time>2026-03-25T10:53:40.93Z</time></trkpt><trkpt lat="30.7269516703684" lon="-5.529992070018211"><ele>827.6666666666667</ele><time>2026-03-25T10:53:41.93Z</time></trkpt><trkpt lat="30.72703479029305" lon="-5.529841995954601"><ele>827.0</ele><time>2026-03-25T10:53:42.93Z</time></trkpt><trkpt lat="30.727113981017272" lon="-5.5296830047866505"><ele>827.75</ele><time>2026-03-25T10:53:43.93Z</time></trkpt><trkpt lat="30.727189545749724" lon="-5.529530707934909"><ele>828.5</ele><time>2026-03-25T10:53:44.93Z</time></trkpt><trkpt lat="30.7272630694888" lon="-5.529374865075104"><ele>829.25</ele><time>2026-03-25T10:53:45.93Z</time></trkpt><trkpt lat="30.72732873110571" lon="-5.5292342667676255"><ele>830.0</ele><time>2026-03-25T10:53:46.93Z</time></trkpt><trkpt lat="30.727389545755173" lon="-5.529098668958676"><ele>830.0</ele><time>2026-03-25T10:53:47.93Z</time></trkpt><trkpt lat="30.72744842521944" lon="-5.528961865381539"><ele>830.0</ele><time>2026-03-25T10:53:48.93Z</time></trkpt><trkpt lat="30.727506363898343" lon="-5.528818657565643"><ele>830.0</ele><time>2026-03-25T10:53:49.93Z</time></trkpt><trkpt lat="30.727564109905856" lon="-5.528688182277221"><ele>830.0</ele><time>2026-03-25T10:53:50.93Z</time></trkpt><trkpt lat="30.72761172981022" lon="-5.528584814895654"><ele>829.8333333333334</ele><time>2026-03-25T10:53:51.93Z</time></trkpt><trkpt lat="30.727652633878115" lon="-5.5284976126860075"><ele>829.6666666666667</ele><time>2026-03-25T10:53:52.93Z</time></trkpt><trkpt lat="30.727688972221188" lon="-5.528420622238554"><ele>829.5</ele><time>2026-03-25T10:53:53.93Z</time></trkpt><trkpt lat="30.727727442843147" lon="-5.528345383402045"><ele>829.3333333333333</ele><time>2026-03-25T10:53:54.93Z</time></trkpt><trkpt lat="30.727759513790076" lon="-5.528273723031962"><ele>829.1666666666666</ele><time>2026-03-25T10:53:55.93Z</time></trkpt><trkpt lat="30.727811134376367" lon="-5.5281520366916475"><ele>829.0</ele><time>2026-03-25T10:53:57.93Z</time></trkpt><trkpt lat="30.7278510171459" lon="-5.528069204954732"><ele>828.9999999999999</ele><time>2026-03-25T10:53:59.93Z</time></trkpt><trkpt lat="30.727841410810644" lon="-5.527968293001402"><ele>829.0</ele><time>2026-03-25T10:54:01.93Z</time></trkpt><trkpt lat="30.72775547554839" lon="-5.527893720218034"><ele>829.0</ele><time>2026-03-25T10:54:03.93Z</time></trkpt><trkpt lat="30.727693526414214" lon="-5.527867801569271"><ele>829.0</ele><time>2026-03-25T10:54:04.93Z</time></trkpt><trkpt lat="30.727635095612857" lon="-5.527838936467323"><ele>828.9999999999999</ele><time>2026-03-25T10:54:05.93Z</time></trkpt><trkpt lat="30.727567189570856" lon="-5.527793984898843"><ele>829.0</ele><time>2026-03-25T10:54:06.93Z</time></trkpt><trkpt lat="30.727497111723793" lon="-5.5277366981280736"><ele>828.8000000000001</ele><time>2026-03-25T10:54:07.93Z</time></trkpt><trkpt lat="30.727406442994763" lon="-5.527678175491669"><ele>828.6</ele><time>2026-03-25T10:54:08.93Z</time></trkpt><trkpt lat="30.72731664516945" lon="-5.527614796198566"><ele>828.4</ele><time>2026-03-25T10:54:09.93Z</time></trkpt><trkpt lat="30.72722973620186" lon="-5.527551568068484"><ele>828.2</ele><time>2026-03-25T10:54:10.93Z</time></trkpt><trkpt lat="30.72713894279014" lon="-5.52748341519462"><ele>828.0</ele><time>2026-03-25T10:54:11.93Z</time></trkpt><trkpt lat="30.72704846561958" lon="-5.527416931607545"><ele>828.0</ele><time>2026-03-25T10:54:12.93Z</time></trkpt><trkpt lat="30.726969089758175" lon="-5.5273605595219415"><ele>828.0</ele><time>2026-03-25T10:54:13.93Z</time></trkpt><trkpt lat="30.726890694629702" lon="-5.527301358662662"><ele>828.0</ele><time>2026-03-25T10:54:14.93Z</time></trkpt><trkpt lat="30.726815175581713" lon="-5.52725064815294"><ele>828.0</ele><time>2026-03-25T10:54:15.93Z</time></trkpt><trkpt lat="30.726739761993617" lon="-5.527209253992269"><ele>828.0</ele><time>2026-03-25T10:54:16.93Z</time></trkpt><trkpt lat="30.726663778526493" lon="-5.527186803990022"><ele>828.0</ele><time>2026-03-25T10:54:17.93Z</time></trkpt><trkpt lat="30.72659985911162" lon="-5.527186514134471"><ele>828.1666666666666</ele><time>2026-03-25T10:54:18.93Z</time></trkpt><trkpt lat="30.726535286359233" lon="-5.527202792004576"><ele>828.3333333333333</ele><time>2026-03-25T10:54:19.93Z</time></trkpt><trkpt lat="30.72643438629134" lon="-5.527250881494465"><ele>828.5</ele><time>2026-03-25T10:54:21.93Z</time></trkpt><trkpt lat="30.726348086761668" lon="-5.527280368970352"><ele>828.6666666666666</ele><time>2026-03-25T10:54:23.93Z</time></trkpt><trkpt lat="30.72628299298415" lon="-5.5272724340440025"><ele>828.8333333333333</ele><time>2026-03-25T10:54:27.93Z</time></trkpt><trkpt lat="30.726210489546826" lon="-5.527247383151856"><ele>829.0</ele><time>2026-03-25T10:57:02.929Z</time></trkpt><trkpt lat="30.726243081747317" lon="-5.527315162124359"><ele>828.9999999999999</ele><time>2026-03-25T10:57:38.929Z</time></trkpt><trkpt lat="30.72617620196606" lon="-5.527310056036434"><ele>829.0</ele><time>2026-03-25T10:57:53.929Z</time></trkpt><trkpt lat="30.726172022281638" lon="-5.5272321895138115"><ele>829.0</ele><time>2026-03-25T10:58:02.929Z</time></trkpt><trkpt lat="30.72609343607155" lon="-5.527173311920167"><ele>829.0</ele><time>2026-03-25T11:03:03.926Z</time></trkpt><trkpt lat="30.726049195778227" lon="-5.527044491703672"><ele>828.9999999999999</ele><time>2026-03-25T11:03:05.926Z</time></trkpt><trkpt lat="30.726067931734747" lon="-5.526941539954786"><ele>829.0</ele><time>2026-03-25T11:03:07.926Z</time></trkpt><trkpt lat="30.72606825955" lon="-5.526801877755042"><ele>828.1666666666666</ele><time>2026-03-25T11:03:09.926Z</time></trkpt><trkpt lat="30.72601072863406" lon="-5.526692819265791"><ele>827.3333333333333</ele><time>2026-03-25T11:03:11.926Z</time></trkpt><trkpt lat="30.725954710755968" lon="-5.526647591714056"><ele>826.5</ele><time>2026-03-25T11:03:12.926Z</time></trkpt><trkpt lat="30.725891686321674" lon="-5.52660381892262"><ele>825.6666666666667</ele><time>2026-03-25T11:03:13.926Z</time></trkpt><trkpt lat="30.725817202042" lon="-5.526560683889918"><ele>824.8333333333334</ele><time>2026-03-25T11:03:14.926Z</time></trkpt><trkpt lat="30.725749599561002" lon="-5.526519719457561"><ele>824.0</ele><time>2026-03-25T11:03:15.926Z</time></trkpt><trkpt lat="30.725672839082442" lon="-5.5264624543479135"><ele>824.0</ele><time>2026-03-25T11:03:16.926Z</time></trkpt><trkpt lat="30.725581600119327" lon="-5.526395721099094"><ele>824.0</ele><time>2026-03-25T11:03:17.926Z</time></trkpt><trkpt lat="30.72548564604808" lon="-5.526322841605023"><ele>824.0</ele><time>2026-03-25T11:03:18.926Z</time></trkpt><trkpt lat="30.725390993927665" lon="-5.5262548754280925"><ele>824.0</ele><time>2026-03-25T11:03:19.927Z</time></trkpt><trkpt lat="30.72529749888341" lon="-5.526184796536506"><ele>824.0</ele><time>2026-03-25T11:03:20.927Z</time></trkpt><trkpt lat="30.725197111924274" lon="-5.52611247190868"><ele>824.75</ele><time>2026-03-25T11:03:21.927Z</time></trkpt><trkpt lat="30.725088729687684" lon="-5.526039411539489"><ele>825.5</ele><time>2026-03-25T11:03:22.927Z</time></trkpt><trkpt lat="30.72497847168208" lon="-5.525962702245676"><ele>826.25</ele><time>2026-03-25T11:03:23.927Z</time></trkpt><trkpt lat="30.724869825534483" lon="-5.525884426032285"><ele>827.0</ele><time>2026-03-25T11:03:24.927Z</time></trkpt><trkpt lat="30.724757567440705" lon="-5.525807996937292"><ele>827.0</ele><time>2026-03-25T11:03:25.927Z</time></trkpt><trkpt lat="30.724633540882557" lon="-5.525716929694429"><ele>827.0</ele><time>2026-03-25T11:03:26.927Z</time></trkpt><trkpt lat="30.724498242050228" lon="-5.525623931888726"><ele>827.0</ele><time>2026-03-25T11:03:27.927Z</time></trkpt><trkpt lat="30.72436643696622" lon="-5.5255364711388015"><ele>826.75</ele><time>2026-03-25T11:03:28.926Z</time></trkpt><trkpt lat="30.724242015272274" lon="-5.525442741782212"><ele>826.5</ele><time>2026-03-25T11:03:29.927Z</time></trkpt><trkpt lat="30.72410923956396" lon="-5.525375629880631"><ele>826.25</ele><time>2026-03-25T11:03:30.927Z</time></trkpt><trkpt lat="30.723982819517385" lon="-5.525295140709352"><ele>826.0</ele><time>2026-03-25T11:03:31.927Z</time></trkpt><trkpt lat="30.72385821550624" lon="-5.525219853994239"><ele>825.75</ele><time>2026-03-25T11:03:32.926Z</time></trkpt><trkpt lat="30.723735567137034" lon="-5.52514497228644"><ele>825.5</ele><time>2026-03-25T11:03:33.926Z</time></trkpt><trkpt lat="30.72361671917573" lon="-5.52506765736847"><ele>825.25</ele><time>2026-03-25T11:03:34.926Z</time></trkpt><trkpt lat="30.72349313424295" lon="-5.524992898927685"><ele>825.0</ele><time>2026-03-25T11:03:35.926Z</time></trkpt><trkpt lat="30.723370351513804" lon="-5.524913898706971"><ele>825.0</ele><time>2026-03-25T11:03:36.926Z</time></trkpt><trkpt lat="30.723239639824303" lon="-5.524851837417813"><ele>825.0</ele><time>2026-03-25T11:03:37.926Z</time></trkpt><trkpt lat="30.72313026992747" lon="-5.524778254587777"><ele>825.0</ele><time>2026-03-25T11:03:38.926Z</time></trkpt><trkpt lat="30.723041024611405" lon="-5.524730386762219"><ele>825.0</ele><time>2026-03-25T11:03:39.926Z</time></trkpt><trkpt lat="30.72295432365528" lon="-5.5246813336611575"><ele>825.0</ele><time>2026-03-25T11:03:40.926Z</time></trkpt><trkpt lat="30.722861446014278" lon="-5.524629001495484"><ele>825.0</ele><time>2026-03-25T11:03:41.926Z</time></trkpt><trkpt lat="30.722770387453068" lon="-5.524579664109323"><ele>825.0</ele><time>2026-03-25T11:03:42.926Z</time></trkpt><trkpt lat="30.722664915618225" lon="-5.52452362695676"><ele>825.0</ele><time>2026-03-25T11:03:43.926Z</time></trkpt><trkpt lat="30.722547366698926" lon="-5.524460100625373"><ele>825.0</ele><time>2026-03-25T11:03:44.926Z</time></trkpt><trkpt lat="30.72241654503859" lon="-5.524392404361193"><ele>824.3333333333333</ele><time>2026-03-25T11:03:45.926Z</time></trkpt><trkpt lat="30.722257936798258" lon="-5.524317115698567"><ele>823.6666666666666</ele><time>2026-03-25T11:03:46.926Z</time></trkpt><trkpt lat="30.722077771703134" lon="-5.52422501155643"><ele>823.0</ele><time>2026-03-25T11:03:47.926Z</time></trkpt><trkpt lat="30.721913194286998" lon="-5.5241453669706475"><ele>823.25</ele><time>2026-03-25T11:03:48.926Z</time></trkpt><trkpt lat="30.721777948848423" lon="-5.524074707482988"><ele>823.5</ele><time>2026-03-25T11:03:49.926Z</time></trkpt><trkpt lat="30.721649391918078" lon="-5.524013535787072"><ele>823.75</ele><time>2026-03-25T11:03:50.926Z</time></trkpt><trkpt lat="30.72151385508276" lon="-5.523949492411661"><ele>824.0</ele><time>2026-03-25T11:03:51.926Z</time></trkpt><trkpt lat="30.721376727088998" lon="-5.523881494606386"><ele>824.0</ele><time>2026-03-25T11:03:52.926Z</time></trkpt><trkpt lat="30.721236431859467" lon="-5.523819803354738"><ele>824.0</ele><time>2026-03-25T11:03:53.926Z</time></trkpt><trkpt lat="30.72109595428788" lon="-5.523751635817638"><ele>824.0</ele><time>2026-03-25T11:03:54.926Z</time></trkpt><trkpt lat="30.720957732079942" lon="-5.523681599352229"><ele>823.5</ele><time>2026-03-25T11:03:55.926Z</time></trkpt><trkpt lat="30.720825569590293" lon="-5.523619612298834"><ele>823.0</ele><time>2026-03-25T11:03:56.926Z</time></trkpt><trkpt lat="30.720690140610717" lon="-5.523554522701844"><ele>822.5</ele><time>2026-03-25T11:03:57.926Z</time></trkpt><trkpt lat="30.720551147653634" lon="-5.523489804119901"><ele>822.0</ele><time>2026-03-25T11:03:58.926Z</time></trkpt><trkpt lat="30.72041364821102" lon="-5.5234182521914965"><ele>822.0</ele><time>2026-03-25T11:03:59.926Z</time></trkpt><trkpt lat="30.720272624057568" lon="-5.523356797505195"><ele>822.0</ele><time>2026-03-25T11:04:00.926Z</time></trkpt><trkpt lat="30.720135930003085" lon="-5.52329248288412"><ele>822.0</ele><time>2026-03-25T11:04:01.926Z</time></trkpt><trkpt lat="30.719999274344627" lon="-5.523226037786426"><ele>822.0</ele><time>2026-03-25T11:04:02.926Z</time></trkpt><trkpt lat="30.719860663767378" lon="-5.523160434152794"><ele>822.6666666666667</ele><time>2026-03-25T11:04:03.926Z</time></trkpt><trkpt lat="30.71971318908894" lon="-5.523086886134936"><ele>823.3333333333334</ele><time>2026-03-25T11:04:04.926Z</time></trkpt><trkpt lat="30.719554108171934" lon="-5.52301391579526"><ele>824.0</ele><time>2026-03-25T11:04:05.926Z</time></trkpt><trkpt lat="30.719412688869827" lon="-5.522946784518237"><ele>824.0</ele><time>2026-03-25T11:04:06.926Z</time></trkpt><trkpt lat="30.71928685526937" lon="-5.52288219365485"><ele>824.0</ele><time>2026-03-25T11:04:07.926Z</time></trkpt><trkpt lat="30.719169106679317" lon="-5.522813752361634"><ele>824.0</ele><time>2026-03-25T11:04:08.926Z</time></trkpt><trkpt lat="30.719047398715926" lon="-5.522760999080637"><ele>824.0</ele><time>2026-03-25T11:04:09.926Z</time></trkpt><trkpt lat="30.718924712915364" lon="-5.52270798977374"><ele>824.0</ele><time>2026-03-25T11:04:10.926Z</time></trkpt><trkpt lat="30.718795497759718" lon="-5.522645010210472"><ele>824.0</ele><time>2026-03-25T11:04:11.926Z</time></trkpt><trkpt lat="30.71866261054123" lon="-5.522581378824643"><ele>824.0</ele><time>2026-03-25T11:04:12.926Z</time></trkpt><trkpt lat="30.718530075872085" lon="-5.522518365309693"><ele>824.0</ele><time>2026-03-25T11:04:13.926Z</time></trkpt><trkpt lat="30.718401446302817" lon="-5.522450526359412"><ele>823.5</ele><time>2026-03-25T11:04:14.926Z</time></trkpt><trkpt lat="30.718272298512463" lon="-5.5223852745373145"><ele>823.0</ele><time>2026-03-25T11:04:15.926Z</time></trkpt><trkpt lat="30.71814002222826" lon="-5.522326145767784"><ele>822.5</ele><time>2026-03-25T11:04:16.926Z</time></trkpt><trkpt lat="30.71800537068507" lon="-5.522262753935536"><ele>822.0</ele><time>2026-03-25T11:04:17.926Z</time></trkpt><trkpt lat="30.717869485528855" lon="-5.522197183747874"><ele>821.6666666666667</ele><time>2026-03-25T11:04:18.926Z</time></trkpt><trkpt lat="30.717728470179587" lon="-5.522135501328442"><ele>821.3333333333334</ele><time>2026-03-25T11:04:19.926Z</time></trkpt><trkpt lat="30.717586484455225" lon="-5.522063312406063"><ele>821.0</ele><time>2026-03-25T11:04:20.926Z</time></trkpt><trkpt lat="30.7174399067817" lon="-5.521994294571389"><ele>821.6666666666667</ele><time>2026-03-25T11:04:21.926Z</time></trkpt><trkpt lat="30.717290888093945" lon="-5.521920997601053"><ele>822.3333333333333</ele><time>2026-03-25T11:04:22.926Z</time></trkpt><trkpt lat="30.717139199621563" lon="-5.521847101990378"><ele>823.0</ele><time>2026-03-25T11:04:23.926Z</time></trkpt><trkpt lat="30.71698395916138" lon="-5.521774634534268"><ele>822.6666666666666</ele><time>2026-03-25T11:04:24.926Z</time></trkpt><trkpt lat="30.716831380706598" lon="-5.521700425332987"><ele>822.3333333333333</ele><time>2026-03-25T11:04:25.926Z</time></trkpt><trkpt lat="30.716680105270292" lon="-5.52162725576656"><ele>822.0</ele><time>2026-03-25T11:04:26.926Z</time></trkpt><trkpt lat="30.716523927430046" lon="-5.521553649484171"><ele>822.0</ele><time>2026-03-25T11:04:27.926Z</time></trkpt><trkpt lat="30.716369385449365" lon="-5.521478007144365"><ele>822.0</ele><time>2026-03-25T11:04:28.926Z</time></trkpt><trkpt lat="30.7162172467973" lon="-5.521397482953203"><ele>822.0</ele><time>2026-03-25T11:04:29.926Z</time></trkpt><trkpt lat="30.716052988105222" lon="-5.521324644500334"><ele>821.3333333333333</ele><time>2026-03-25T11:04:30.926Z</time></trkpt><trkpt lat="30.71589662827034" lon="-5.521245099317344"><ele>820.6666666666666</ele><time>2026-03-25T11:04:31.926Z</time></trkpt><trkpt lat="30.715734874921676" lon="-5.521166713642938"><ele>820.0</ele><time>2026-03-25T11:04:32.926Z</time></trkpt><trkpt lat="30.71557475352439" lon="-5.521089699135322"><ele>820.0</ele><time>2026-03-25T11:04:33.926Z</time></trkpt><trkpt lat="30.715425996327504" lon="-5.521015454607869"><ele>820.0</ele><time>2026-03-25T11:04:34.926Z</time></trkpt><trkpt lat="30.715273047006182" lon="-5.520946547346796"><ele>820.0</ele><time>2026-03-25T11:04:35.926Z</time></trkpt><trkpt lat="30.715120137497117" lon="-5.5208689395941475"><ele>820.0</ele><time>2026-03-25T11:04:36.926Z</time></trkpt><trkpt lat="30.714965210514222" lon="-5.520795298356139"><ele>820.0</ele><time>2026-03-25T11:04:37.926Z</time></trkpt><trkpt lat="30.71480898108339" lon="-5.520719020056875"><ele>820.0</ele><time>2026-03-25T11:04:38.926Z</time></trkpt><trkpt lat="30.714651339241314" lon="-5.520643614221332"><ele>820.0</ele><time>2026-03-25T11:04:39.926Z</time></trkpt><trkpt lat="30.7144897657793" lon="-5.52056792458312"><ele>820.0</ele><time>2026-03-25T11:04:40.926Z</time></trkpt><trkpt lat="30.71433016814982" lon="-5.520488454898327"><ele>820.0</ele><time>2026-03-25T11:04:41.926Z</time></trkpt><trkpt lat="30.714167295423135" lon="-5.520412433120142"><ele>820.0</ele><time>2026-03-25T11:04:42.926Z</time></trkpt><trkpt lat="30.71400754168069" lon="-5.520334548763438"><ele>820.0</ele><time>2026-03-25T11:04:43.926Z</time></trkpt><trkpt lat="30.71385112994767" lon="-5.52025586267007"><ele>820.0</ele><time>2026-03-25T11:04:44.926Z</time></trkpt><trkpt lat="30.71368968003245" lon="-5.52018325689589"><ele>819.3333333333333</ele><time>2026-03-25T11:04:45.926Z</time></trkpt><trkpt lat="30.713529376794725" lon="-5.520105166635765"><ele>818.6666666666667</ele><time>2026-03-25T11:04:46.926Z</time></trkpt><trkpt lat="30.713369376068613" lon="-5.520030269425469"><ele>818.0</ele><time>2026-03-25T11:04:47.926Z</time></trkpt><trkpt lat="30.713211764326015" lon="-5.519951707958535"><ele>818.0</ele><time>2026-03-25T11:04:48.926Z</time></trkpt><trkpt lat="30.71305496791025" lon="-5.51987444580674"><ele>818.0</ele><time>2026-03-25T11:04:49.926Z</time></trkpt><trkpt lat="30.712894183093876" lon="-5.519802863375743"><ele>818.0</ele><time>2026-03-25T11:04:50.926Z</time></trkpt><trkpt lat="30.712739261120774" lon="-5.519723603432423"><ele>818.0</ele><time>2026-03-25T11:04:51.926Z</time></trkpt><trkpt lat="30.71258775787269" lon="-5.519651702925808"><ele>818.0</ele><time>2026-03-25T11:04:52.926Z</time></trkpt><trkpt lat="30.712434114728058" lon="-5.5195796420421255"><ele>818.0</ele><time>2026-03-25T11:04:53.926Z</time></trkpt><trkpt lat="30.71228599382477" lon="-5.519508891539305"><ele>818.2</ele><time>2026-03-25T11:04:54.926Z</time></trkpt><trkpt lat="30.71215877320807" lon="-5.519448474373054"><ele>818.4</ele><time>2026-03-25T11:04:55.926Z</time></trkpt><trkpt lat="30.71205906882074" lon="-5.519406320510852"><ele>818.6</ele><time>2026-03-25T11:04:56.926Z</time></trkpt><trkpt lat="30.711979682635942" lon="-5.519369440552702"><ele>818.8000000000001</ele><time>2026-03-25T11:04:57.926Z</time></trkpt><trkpt lat="30.711912761609227" lon="-5.519337376058018"><ele>819.0</ele><time>2026-03-25T11:04:58.926Z</time></trkpt><trkpt lat="30.7118038856279" lon="-5.5192847282878095"><ele>819.0</ele><time>2026-03-25T11:05:00.926Z</time></trkpt><trkpt lat="30.711743301667013" lon="-5.519261685962446"><ele>819.0</ele><time>2026-03-25T11:05:02.926Z</time></trkpt><trkpt lat="30.711673210341306" lon="-5.519228672652903"><ele>819.0</ele><time>2026-03-25T11:05:06.926Z</time></trkpt><trkpt lat="30.711761749477173" lon="-5.519189877384228"><ele>819.0</ele><time>2026-03-25T11:05:12.926Z</time></trkpt><trkpt lat="30.711827196944807" lon="-5.5192322323976315"><ele>819.0</ele><time>2026-03-25T11:05:13.926Z</time></trkpt><trkpt lat="30.71189531269711" lon="-5.5192690831198234"><ele>819.0</ele><time>2026-03-25T11:05:14.926Z</time></trkpt><trkpt lat="30.711966305772503" lon="-5.519301297417119"><ele>819.0</ele><time>2026-03-25T11:05:15.926Z</time></trkpt><trkpt lat="30.71203918156105" lon="-5.519339654378116"><ele>819.0</ele><time>2026-03-25T11:05:16.926Z</time></trkpt><trkpt lat="30.71210921324785" lon="-5.51937432973442"><ele>819.0</ele><time>2026-03-25T11:05:17.926Z</time></trkpt><trkpt lat="30.712170262157667" lon="-5.519402179928141"><ele>819.0</ele><time>2026-03-25T11:05:18.926Z</time></trkpt><trkpt lat="30.712231987645783" lon="-5.519434645341259"><ele>819.0</ele><time>2026-03-25T11:05:19.926Z</time></trkpt><trkpt lat="30.71230508786256" lon="-5.519478121939484"><ele>819.0</ele><time>2026-03-25T11:05:20.926Z</time></trkpt><trkpt lat="30.712388297833094" lon="-5.519505598466168"><ele>819.0</ele><time>2026-03-25T11:05:21.926Z</time></trkpt><trkpt lat="30.712464350587908" lon="-5.519510082903916"><ele>819.0</ele><time>2026-03-25T11:05:22.926Z</time></trkpt><trkpt lat="30.71253672331734" lon="-5.519498652524075"><ele>819.0</ele><time>2026-03-25T11:05:23.926Z</time></trkpt><trkpt lat="30.712607149552227" lon="-5.519476671154799"><ele>819.0</ele><time>2026-03-25T11:05:24.926Z</time></trkpt><trkpt lat="30.71266909536205" lon="-5.5194328765533776"><ele>819.0</ele><time>2026-03-25T11:05:25.926Z</time></trkpt><trkpt lat="30.71270559418377" lon="-5.519358307016639"><ele>819.0</ele><time>2026-03-25T11:05:26.925Z</time></trkpt><trkpt lat="30.712718515025763" lon="-5.5192418591900845"><ele>819.0</ele><time>2026-03-25T11:05:27.925Z</time></trkpt><trkpt lat="30.71273549774135" lon="-5.519084486336677"><ele>819.0</ele><time>2026-03-25T11:05:28.926Z</time></trkpt><trkpt lat="30.712788969679227" lon="-5.518929714320876"><ele>819.0</ele><time>2026-03-25T11:05:29.926Z</time></trkpt><trkpt lat="30.71283425055248" lon="-5.518793634863304"><ele>819.0</ele><time>2026-03-25T11:05:30.926Z</time></trkpt><trkpt lat="30.71288355674941" lon="-5.518675906969547"><ele>819.25</ele><time>2026-03-25T11:05:31.926Z</time></trkpt><trkpt lat="30.712934925140104" lon="-5.51854902143206"><ele>819.5</ele><time>2026-03-25T11:05:32.926Z</time></trkpt><trkpt lat="30.71298893414232" lon="-5.518423330027816"><ele>819.75</ele><time>2026-03-25T11:05:33.926Z</time></trkpt><trkpt lat="30.71304846942657" lon="-5.5182888300429775"><ele>820.0</ele><time>2026-03-25T11:05:34.926Z</time></trkpt><trkpt lat="30.713106025276602" lon="-5.518144066981631"><ele>820.0</ele><time>2026-03-25T11:05:35.926Z</time></trkpt><trkpt lat="30.71315199781214" lon="-5.518019791771384"><ele>820.0</ele><time>2026-03-25T11:05:36.926Z</time></trkpt><trkpt lat="30.7131922588816" lon="-5.517895118737442"><ele>820.0</ele><time>2026-03-25T11:05:37.926Z</time></trkpt><trkpt lat="30.71323193441383" lon="-5.517774297204227"><ele>820.0</ele><time>2026-03-25T11:05:38.926Z</time></trkpt><trkpt lat="30.71328666962658" lon="-5.517652584061714"><ele>820.0</ele><time>2026-03-25T11:05:39.926Z</time></trkpt><trkpt lat="30.713351823546194" lon="-5.51753312863341"><ele>820.0</ele><time>2026-03-25T11:05:40.926Z</time></trkpt><trkpt lat="30.71340030018556" lon="-5.517422347371815"><ele>820.0</ele><time>2026-03-25T11:05:41.926Z</time></trkpt><trkpt lat="30.71344211222233" lon="-5.517317019585267"><ele>820.0</ele><time>2026-03-25T11:05:42.926Z</time></trkpt><trkpt lat="30.713483503092334" lon="-5.517194911369532"><ele>820.0</ele><time>2026-03-25T11:05:43.926Z</time></trkpt><trkpt lat="30.713521061500856" lon="-5.517050499531185"><ele>820.0</ele><time>2026-03-25T11:05:44.926Z</time></trkpt><trkpt lat="30.71355601034985" lon="-5.516904599311938"><ele>820.0</ele><time>2026-03-25T11:05:45.926Z</time></trkpt><trkpt lat="30.71358580134004" lon="-5.5167780097476316"><ele>820.0</ele><time>2026-03-25T11:05:46.926Z</time></trkpt><trkpt lat="30.713611771907253" lon="-5.5166661482197945"><ele>820.0</ele><time>2026-03-25T11:05:47.926Z</time></trkpt><trkpt lat="30.713639141618685" lon="-5.516549173516521"><ele>820.0</ele><time>2026-03-25T11:05:48.926Z</time></trkpt><trkpt lat="30.713664532975613" lon="-5.516423472872861"><ele>819.75</ele><time>2026-03-25T11:05:49.926Z</time></trkpt><trkpt lat="30.713693289802404" lon="-5.5162973855504465"><ele>819.5</ele><time>2026-03-25T11:05:50.926Z</time></trkpt><trkpt lat="30.713725734839343" lon="-5.5161663448291005"><ele>819.25</ele><time>2026-03-25T11:05:51.926Z</time></trkpt><trkpt lat="30.71375828399799" lon="-5.516036336919723"><ele>819.0</ele><time>2026-03-25T11:05:52.926Z</time></trkpt><trkpt lat="30.713792227182566" lon="-5.51590473100684"><ele>819.0</ele><time>2026-03-25T11:05:53.926Z</time></trkpt><trkpt lat="30.713824820958703" lon="-5.5157654329708965"><ele>819.0</ele><time>2026-03-25T11:05:54.926Z</time></trkpt><trkpt lat="30.713856480308912" lon="-5.515624209191043"><ele>819.0</ele><time>2026-03-25T11:05:55.926Z</time></trkpt><trkpt lat="30.71388930229626" lon="-5.515482474490909"><ele>819.0</ele><time>2026-03-25T11:05:56.926Z</time></trkpt><trkpt lat="30.713923530629966" lon="-5.515347473354002"><ele>819.0</ele><time>2026-03-25T11:05:57.926Z</time></trkpt><trkpt lat="30.71395369680847" lon="-5.515208683196724"><ele>819.0</ele><time>2026-03-25T11:05:58.925Z</time></trkpt><trkpt lat="30.713985474829226" lon="-5.515065194163745"><ele>819.0</ele><time>2026-03-25T11:05:59.925Z</time></trkpt><trkpt lat="30.71401580178733" lon="-5.514916422554463"><ele>819.0</ele><time>2026-03-25T11:06:00.925Z</time></trkpt><trkpt lat="30.714058019077093" lon="-5.514753988563049"><ele>819.0</ele><time>2026-03-25T11:06:01.925Z</time></trkpt><trkpt lat="30.71410256414514" lon="-5.514573252448694"><ele>819.0</ele><time>2026-03-25T11:06:02.925Z</time></trkpt><trkpt lat="30.71414513426353" lon="-5.514399265514265"><ele>819.0</ele><time>2026-03-25T11:06:03.925Z</time></trkpt><trkpt lat="30.714178992560882" lon="-5.514241605224872"><ele>818.25</ele><time>2026-03-25T11:06:04.925Z</time></trkpt><trkpt lat="30.71421359159432" lon="-5.514092012140918"><ele>817.5</ele><time>2026-03-25T11:06:05.925Z</time></trkpt><trkpt lat="30.714247837641164" lon="-5.513935303224443"><ele>816.75</ele><time>2026-03-25T11:06:06.925Z</time></trkpt><trkpt lat="30.71428430317042" lon="-5.513774753354111"><ele>816.0</ele><time>2026-03-25T11:06:07.925Z</time></trkpt><trkpt lat="30.714322734524824" lon="-5.513628797763081"><ele>815.75</ele><time>2026-03-25T11:06:08.925Z</time></trkpt><trkpt lat="30.71435271183804" lon="-5.513495478524484"><ele>815.5</ele><time>2026-03-25T11:06:09.925Z</time></trkpt><trkpt lat="30.71438245069247" lon="-5.513355192554378"><ele>815.25</ele><time>2026-03-25T11:06:10.925Z</time></trkpt><trkpt lat="30.71442176225762" lon="-5.513210907260051"><ele>815.0</ele><time>2026-03-25T11:06:11.925Z</time></trkpt><trkpt lat="30.714467092530736" lon="-5.513077844883264"><ele>815.6666666666667</ele><time>2026-03-25T11:06:12.925Z</time></trkpt><trkpt lat="30.714552478850013" lon="-5.512935150752977"><ele>816.3333333333333</ele><time>2026-03-25T11:06:13.925Z</time></trkpt><trkpt lat="30.714653579932353" lon="-5.512777372683332"><ele>817.0</ele><time>2026-03-25T11:06:14.925Z</time></trkpt><trkpt lat="30.714748563111378" lon="-5.512616787041645"><ele>817.0</ele><time>2026-03-25T11:06:15.925Z</time></trkpt><trkpt lat="30.714821702605178" lon="-5.512461386260003"><ele>817.0</ele><time>2026-03-25T11:06:16.925Z</time></trkpt><trkpt lat="30.714881838415263" lon="-5.512326747552905"><ele>817.0</ele><time>2026-03-25T11:06:17.925Z</time></trkpt><trkpt lat="30.71494866683563" lon="-5.512189880325735"><ele>817.0</ele><time>2026-03-25T11:06:18.925Z</time></trkpt><trkpt lat="30.715007937610224" lon="-5.512065292837357"><ele>817.0</ele><time>2026-03-25T11:06:19.925Z</time></trkpt><trkpt lat="30.715057678819424" lon="-5.511956257389607"><ele>817.0</ele><time>2026-03-25T11:06:20.925Z</time></trkpt><trkpt lat="30.71509516035261" lon="-5.511851902307983"><ele>817.0</ele><time>2026-03-25T11:06:21.925Z</time></trkpt><trkpt lat="30.715134999628418" lon="-5.51173735979859"><ele>817.0</ele><time>2026-03-25T11:06:22.925Z</time></trkpt><trkpt lat="30.715173896959097" lon="-5.511613951635813"><ele>817.0</ele><time>2026-03-25T11:06:23.925Z</time></trkpt><trkpt lat="30.715207453561693" lon="-5.5115005669266175"><ele>816.9999999999999</ele><time>2026-03-25T11:06:24.925Z</time></trkpt><trkpt lat="30.71523417842973" lon="-5.51139290533025"><ele>817.0</ele><time>2026-03-25T11:06:25.925Z</time></trkpt><trkpt lat="30.71524880758325" lon="-5.511300084763073"><ele>817.0</ele><time>2026-03-25T11:06:26.925Z</time></trkpt><trkpt lat="30.71525693437893" lon="-5.5112201986500295"><ele>817.0</ele><time>2026-03-25T11:06:27.925Z</time></trkpt><trkpt lat="30.715261611915444" lon="-5.511145142899725"><ele>816.9999999999999</ele><time>2026-03-25T11:06:28.925Z</time></trkpt><trkpt lat="30.71526254481176" lon="-5.511066831248621"><ele>817.0</ele><time>2026-03-25T11:06:30.925Z</time></trkpt><trkpt lat="30.71528211555254" lon="-5.510929102278757"><ele>816.8</ele><time>2026-03-25T11:06:33.925Z</time></trkpt><trkpt lat="30.715298653672" lon="-5.510834361619665"><ele>816.6</ele><time>2026-03-25T11:06:35.925Z</time></trkpt><trkpt lat="30.715327549883988" lon="-5.5107244289162285"><ele>816.4</ele><time>2026-03-25T11:07:03.925Z</time></trkpt><trkpt lat="30.715351562399203" lon="-5.51062887334225"><ele>816.1999999999999</ele><time>2026-03-25T11:07:05.925Z</time></trkpt><trkpt lat="30.71536995043865" lon="-5.510531002511443"><ele>816.0</ele><time>2026-03-25T11:07:07.925Z</time></trkpt><trkpt lat="30.715404901794358" lon="-5.510402998979657"><ele>815.6666666666666</ele><time>2026-03-25T11:07:09.925Z</time></trkpt><trkpt lat="30.715421705905328" lon="-5.510326673047904"><ele>815.3333333333333</ele><time>2026-03-25T11:07:10.925Z</time></trkpt><trkpt lat="30.715441093427998" lon="-5.510243425489481"><ele>815.0</ele><time>2026-03-25T11:07:11.925Z</time></trkpt><trkpt lat="30.715467093796345" lon="-5.510171537869936"><ele>814.6666666666666</ele><time>2026-03-25T11:07:12.925Z</time></trkpt><trkpt lat="30.715491808490217" lon="-5.510097057815111"><ele>814.3333333333333</ele><time>2026-03-25T11:07:13.925Z</time></trkpt><trkpt lat="30.7155219531896" lon="-5.509998543728019"><ele>814.0</ele><time>2026-03-25T11:07:14.925Z</time></trkpt><trkpt lat="30.715568109177028" lon="-5.509890988319471"><ele>814.0</ele><time>2026-03-25T11:07:15.925Z</time></trkpt><trkpt lat="30.715610665335785" lon="-5.509772049786407"><ele>814.0</ele><time>2026-03-25T11:07:16.925Z</time></trkpt><trkpt lat="30.71564902987726" lon="-5.509648930120399"><ele>814.0</ele><time>2026-03-25T11:07:17.925Z</time></trkpt><trkpt lat="30.715678624585248" lon="-5.509536607715168"><ele>814.0</ele><time>2026-03-25T11:07:18.925Z</time></trkpt><trkpt lat="30.715704786971568" lon="-5.509426720744032"><ele>814.0</ele><time>2026-03-25T11:07:19.925Z</time></trkpt><trkpt lat="30.715726425684352" lon="-5.509319405661578"><ele>814.0</ele><time>2026-03-25T11:07:20.925Z</time></trkpt><trkpt lat="30.715751025184385" lon="-5.509215102082312"><ele>814.0</ele><time>2026-03-25T11:07:21.925Z</time></trkpt><trkpt lat="30.715774680677853" lon="-5.509108478986873"><ele>814.0</ele><time>2026-03-25T11:07:22.925Z</time></trkpt><trkpt lat="30.715775901644335" lon="-5.508996605040428"><ele>814.0</ele><time>2026-03-25T11:07:23.925Z</time></trkpt><trkpt lat="30.715761596032912" lon="-5.508886038524741"><ele>814.0</ele><time>2026-03-25T11:07:24.925Z</time></trkpt><trkpt lat="30.715726585363953" lon="-5.508782132309026"><ele>814.6</ele><time>2026-03-25T11:07:25.925Z</time></trkpt><trkpt lat="30.715712399968275" lon="-5.508680199585598"><ele>815.2</ele><time>2026-03-25T11:07:26.925Z</time></trkpt><trkpt lat="30.71569096025915" lon="-5.508570573186799"><ele>815.8000000000001</ele><time>2026-03-25T11:07:27.925Z</time></trkpt><trkpt lat="30.715656199587016" lon="-5.508452539011992"><ele>816.4000000000001</ele><time>2026-03-25T11:07:28.925Z</time></trkpt><trkpt lat="30.715628832394767" lon="-5.5083260738254864"><ele>817.0</ele><time>2026-03-25T11:07:29.925Z</time></trkpt><trkpt lat="30.715592531607882" lon="-5.508176806874724"><ele>817.0</ele><time>2026-03-25T11:07:30.925Z</time></trkpt><trkpt lat="30.71556131307053" lon="-5.508033135880081"><ele>817.0</ele><time>2026-03-25T11:07:31.926Z</time></trkpt><trkpt lat="30.71552886014132" lon="-5.50790756477799"><ele>817.0</ele><time>2026-03-25T11:07:32.925Z</time></trkpt><trkpt lat="30.715510139750688" lon="-5.507782467293074"><ele>817.0</ele><time>2026-03-25T11:07:33.925Z</time></trkpt><trkpt lat="30.715485680888676" lon="-5.507643754551821"><ele>817.25</ele><time>2026-03-25T11:07:34.925Z</time></trkpt><trkpt lat="30.715463724210185" lon="-5.5075174197527685"><ele>817.5</ele><time>2026-03-25T11:07:35.925Z</time></trkpt><trkpt lat="30.715434493647088" lon="-5.507373600969598"><ele>817.75</ele><time>2026-03-25T11:07:36.925Z</time></trkpt><trkpt lat="30.715404577837678" lon="-5.507244799467582"><ele>818.0</ele><time>2026-03-25T11:07:37.925Z</time></trkpt><trkpt lat="30.715375788407094" lon="-5.507120043065866"><ele>817.8333333333334</ele><time>2026-03-25T11:07:38.925Z</time></trkpt><trkpt lat="30.715357640578482" lon="-5.507011853362123"><ele>817.6666666666667</ele><time>2026-03-25T11:07:39.925Z</time></trkpt><trkpt lat="30.715348852207903" lon="-5.506908875012906"><ele>817.5</ele><time>2026-03-25T11:07:40.925Z</time></trkpt><trkpt lat="30.715360127102056" lon="-5.5068190804139485"><ele>817.3333333333333</ele><time>2026-03-25T11:07:41.925Z</time></trkpt><trkpt lat="30.715372865171137" lon="-5.506726131280911"><ele>817.1666666666666</ele><time>2026-03-25T11:07:42.925Z</time></trkpt><trkpt lat="30.715396120332336" lon="-5.506627760259568"><ele>817.0</ele><time>2026-03-25T11:07:43.925Z</time></trkpt><trkpt lat="30.71544232153115" lon="-5.506536346624231"><ele>817.0</ele><time>2026-03-25T11:07:44.925Z</time></trkpt><trkpt lat="30.715489353528014" lon="-5.5064338189977144"><ele>817.0</ele><time>2026-03-25T11:07:45.925Z</time></trkpt><trkpt lat="30.715542339165818" lon="-5.506342498234496"><ele>817.0</ele><time>2026-03-25T11:07:46.925Z</time></trkpt><trkpt lat="30.71559990891334" lon="-5.506264557214053"><ele>817.0</ele><time>2026-03-25T11:07:47.925Z</time></trkpt><trkpt lat="30.715647180439426" lon="-5.506188734536473"><ele>817.0</ele><time>2026-03-25T11:07:48.925Z</time></trkpt><trkpt lat="30.71569041772901" lon="-5.506095400616298"><ele>817.0</ele><time>2026-03-25T11:07:49.925Z</time></trkpt><trkpt lat="30.715726873911386" lon="-5.505999306557728"><ele>817.0</ele><time>2026-03-25T11:07:50.925Z</time></trkpt><trkpt lat="30.715761936255294" lon="-5.505902818704239"><ele>817.0</ele><time>2026-03-25T11:07:51.925Z</time></trkpt><trkpt lat="30.715787283137125" lon="-5.505785924932361"><ele>817.0</ele><time>2026-03-25T11:07:52.925Z</time></trkpt><trkpt lat="30.715809453092398" lon="-5.505652288046222"><ele>817.0</ele><time>2026-03-25T11:07:53.925Z</time></trkpt><trkpt lat="30.715823754418334" lon="-5.505514447257966"><ele>816.25</ele><time>2026-03-25T11:07:54.925Z</time></trkpt><trkpt lat="30.71583783313958" lon="-5.505380102779548"><ele>815.5</ele><time>2026-03-25T11:07:55.925Z</time></trkpt><trkpt lat="30.715851046053423" lon="-5.505257711854826"><ele>814.75</ele><time>2026-03-25T11:07:56.925Z</time></trkpt><trkpt lat="30.715869047478538" lon="-5.5051281583996845"><ele>814.0</ele><time>2026-03-25T11:07:57.925Z</time></trkpt><trkpt lat="30.71589535982745" lon="-5.504991082229525"><ele>814.0</ele><time>2026-03-25T11:07:58.925Z</time></trkpt><trkpt lat="30.715928304737503" lon="-5.504841689277717"><ele>814.0</ele><time>2026-03-25T11:07:59.925Z</time></trkpt><trkpt lat="30.715956496974083" lon="-5.504681333701282"><ele>814.0</ele><time>2026-03-25T11:08:00.925Z</time></trkpt><trkpt lat="30.71597827863125" lon="-5.504517885306332"><ele>814.0</ele><time>2026-03-25T11:08:01.925Z</time></trkpt><trkpt lat="30.716010511946017" lon="-5.504385408981241"><ele>814.2</ele><time>2026-03-25T11:08:02.925Z</time></trkpt><trkpt lat="30.71602880434377" lon="-5.50427184586866"><ele>814.4000000000001</ele><time>2026-03-25T11:08:03.925Z</time></trkpt><trkpt lat="30.71604895151417" lon="-5.504148986625403"><ele>814.6</ele><time>2026-03-25T11:08:04.925Z</time></trkpt><trkpt lat="30.716082342438334" lon="-5.5040229211137595"><ele>814.8</ele><time>2026-03-25T11:08:05.925Z</time></trkpt><trkpt lat="30.716132469045355" lon="-5.503904249602665"><ele>815.0</ele><time>2026-03-25T11:08:06.925Z</time></trkpt><trkpt lat="30.71618900942844" lon="-5.503790441806106"><ele>815.2</ele><time>2026-03-25T11:08:07.925Z</time></trkpt><trkpt lat="30.716243439143526" lon="-5.503677002041968"><ele>815.4</ele><time>2026-03-25T11:08:08.925Z</time></trkpt><trkpt lat="30.716298541608968" lon="-5.503560801713938"><ele>815.5999999999999</ele><time>2026-03-25T11:08:09.925Z</time></trkpt><trkpt lat="30.716353803897928" lon="-5.5034468719340435"><ele>815.8</ele><time>2026-03-25T11:08:10.925Z</time></trkpt><trkpt lat="30.71640500810067" lon="-5.503341701077201"><ele>816.0</ele><time>2026-03-25T11:08:11.925Z</time></trkpt><trkpt lat="30.716458639628076" lon="-5.50323336763162"><ele>816.0</ele><time>2026-03-25T11:08:12.925Z</time></trkpt><trkpt lat="30.71651834748" lon="-5.5031374715599455"><ele>816.0</ele><time>2026-03-25T11:08:13.925Z</time></trkpt><trkpt lat="30.716583005519546" lon="-5.50304210935202"><ele>816.0</ele><time>2026-03-25T11:08:14.925Z</time></trkpt><trkpt lat="30.71663720333437" lon="-5.502932224377187"><ele>816.0</ele><time>2026-03-25T11:08:15.925Z</time></trkpt><trkpt lat="30.71668926785168" lon="-5.50279859045649"><ele>816.0</ele><time>2026-03-25T11:08:16.925Z</time></trkpt><trkpt lat="30.71673688524012" lon="-5.502651607388317"><ele>816.0</ele><time>2026-03-25T11:08:17.925Z</time></trkpt><trkpt lat="30.716792740334395" lon="-5.502511962556421"><ele>816.0</ele><time>2026-03-25T11:08:18.925Z</time></trkpt><trkpt lat="30.71686059618393" lon="-5.502371108746875"><ele>816.0</ele><time>2026-03-25T11:08:19.925Z</time></trkpt><trkpt lat="30.71693328048731" lon="-5.502240596572695"><ele>816.0</ele><time>2026-03-25T11:08:20.925Z</time></trkpt><trkpt lat="30.71698792597298" lon="-5.502119228592596"><ele>816.25</ele><time>2026-03-25T11:08:21.925Z</time></trkpt><trkpt lat="30.71701925412906" lon="-5.5019816095085465"><ele>816.5</ele><time>2026-03-25T11:08:22.925Z</time></trkpt><trkpt lat="30.717040146094355" lon="-5.501835777333776"><ele>816.75</ele><time>2026-03-25T11:08:23.925Z</time></trkpt><trkpt lat="30.717056117486983" lon="-5.501695721901973"><ele>817.0</ele><time>2026-03-25T11:08:24.925Z</time></trkpt><trkpt lat="30.717052319710554" lon="-5.501548843825712"><ele>817.0</ele><time>2026-03-25T11:08:25.925Z</time></trkpt><trkpt lat="30.717041142613503" lon="-5.501390668059024"><ele>817.0</ele><time>2026-03-25T11:08:26.925Z</time></trkpt><trkpt lat="30.71704008793365" lon="-5.501238088145642"><ele>817.0</ele><time>2026-03-25T11:08:27.926Z</time></trkpt><trkpt lat="30.717037632281762" lon="-5.501093528123067"><ele>817.0</ele><time>2026-03-25T11:08:28.926Z</time></trkpt><trkpt lat="30.717041371612957" lon="-5.500960605613921"><ele>817.25</ele><time>2026-03-25T11:08:29.926Z</time></trkpt><trkpt lat="30.717040952785826" lon="-5.500803663209737"><ele>817.5</ele><time>2026-03-25T11:08:30.926Z</time></trkpt><trkpt lat="30.71703752258438" lon="-5.500641278018416"><ele>817.75</ele><time>2026-03-25T11:08:31.926Z</time></trkpt><trkpt lat="30.717035933971637" lon="-5.500479149258315"><ele>818.0</ele><time>2026-03-25T11:08:32.926Z</time></trkpt><trkpt lat="30.717039841899492" lon="-5.500321396727397"><ele>818.0</ele><time>2026-03-25T11:08:33.926Z</time></trkpt><trkpt lat="30.717041555645075" lon="-5.5001711406702825"><ele>818.0</ele><time>2026-03-25T11:08:34.926Z</time></trkpt><trkpt lat="30.717046333365268" lon="-5.500016750357862"><ele>818.0</ele><time>2026-03-25T11:08:35.926Z</time></trkpt><trkpt lat="30.71706128460139" lon="-5.499863157509485"><ele>818.0</ele><time>2026-03-25T11:08:36.926Z</time></trkpt><trkpt lat="30.717061899042655" lon="-5.49971337122369"><ele>818.25</ele><time>2026-03-25T11:08:37.926Z</time></trkpt><trkpt lat="30.717044060329645" lon="-5.499572872072812"><ele>818.5</ele><time>2026-03-25T11:08:38.926Z</time></trkpt><trkpt lat="30.71704241364956" lon="-5.49944682334692"><ele>818.75</ele><time>2026-03-25T11:08:39.926Z</time></trkpt><trkpt lat="30.71702990979418" lon="-5.499324845613407"><ele>819.0</ele><time>2026-03-25T11:08:40.926Z</time></trkpt><trkpt lat="30.71700317815721" lon="-5.499195218951382"><ele>819.0</ele><time>2026-03-25T11:08:41.926Z</time></trkpt><trkpt lat="30.716970530242083" lon="-5.4990715973361"><ele>819.0</ele><time>2026-03-25T11:08:42.926Z</time></trkpt><trkpt lat="30.71691305039066" lon="-5.498938728389079"><ele>819.0</ele><time>2026-03-25T11:08:43.926Z</time></trkpt><trkpt lat="30.71687043960741" lon="-5.498800981522179"><ele>819.0</ele><time>2026-03-25T11:08:44.926Z</time></trkpt><trkpt lat="30.71685437519507" lon="-5.49865756100569"><ele>818.4000000000001</ele><time>2026-03-25T11:08:45.926Z</time></trkpt><trkpt lat="30.716840588104212" lon="-5.498519223336438"><ele>817.8</ele><time>2026-03-25T11:08:46.926Z</time></trkpt><trkpt lat="30.716817554995863" lon="-5.498392737076213"><ele>817.2</ele><time>2026-03-25T11:08:47.926Z</time></trkpt><trkpt lat="30.716783708010148" lon="-5.498273346085478"><ele>816.5999999999999</ele><time>2026-03-25T11:08:48.926Z</time></trkpt><trkpt lat="30.7167515848578" lon="-5.498155081171016"><ele>816.0</ele><time>2026-03-25T11:08:49.926Z</time></trkpt><trkpt lat="30.71671005998487" lon="-5.498024877193824"><ele>815.25</ele><time>2026-03-25T11:08:50.926Z</time></trkpt><trkpt lat="30.71666170497864" lon="-5.497894955520655"><ele>814.5</ele><time>2026-03-25T11:08:51.926Z</time></trkpt><trkpt lat="30.71659655877809" lon="-5.497771037793718"><ele>813.75</ele><time>2026-03-25T11:08:52.926Z</time></trkpt><trkpt lat="30.716498477531044" lon="-5.497658261804829"><ele>813.0</ele><time>2026-03-25T11:08:53.926Z</time></trkpt><trkpt lat="30.716388461145318" lon="-5.497546848227406"><ele>813.0</ele><time>2026-03-25T11:08:54.926Z</time></trkpt><trkpt lat="30.716297830460178" lon="-5.497427232097113"><ele>813.0</ele><time>2026-03-25T11:08:55.926Z</time></trkpt><trkpt lat="30.716221422518814" lon="-5.497301388819504"><ele>813.0</ele><time>2026-03-25T11:08:56.926Z</time></trkpt><trkpt lat="30.71616039775666" lon="-5.4971687956807935"><ele>813.0</ele><time>2026-03-25T11:08:57.926Z</time></trkpt><trkpt lat="30.716112603095876" lon="-5.497036823135912"><ele>813.5</ele><time>2026-03-25T11:08:58.926Z</time></trkpt><trkpt lat="30.71606736773788" lon="-5.496902452418807"><ele>814.0</ele><time>2026-03-25T11:08:59.926Z</time></trkpt><trkpt lat="30.716019003247514" lon="-5.496764508226493"><ele>814.5</ele><time>2026-03-25T11:09:00.926Z</time></trkpt><trkpt lat="30.715967594334597" lon="-5.496623963364866"><ele>815.0</ele><time>2026-03-25T11:09:01.926Z</time></trkpt><trkpt lat="30.715923060389475" lon="-5.496485852550578"><ele>815.0</ele><time>2026-03-25T11:09:02.926Z</time></trkpt><trkpt lat="30.715872685299402" lon="-5.496347629062678"><ele>815.0</ele><time>2026-03-25T11:09:03.926Z</time></trkpt><trkpt lat="30.715823916734962" lon="-5.496203803502127"><ele>815.0</ele><time>2026-03-25T11:09:04.926Z</time></trkpt><trkpt lat="30.71582559508444" lon="-5.4960320883354825"><ele>815.0</ele><time>2026-03-25T11:09:05.926Z</time></trkpt><trkpt lat="30.71580830857591" lon="-5.495843164334571"><ele>815.0</ele><time>2026-03-25T11:09:06.926Z</time></trkpt><trkpt lat="30.71579119513051" lon="-5.495641939142151"><ele>815.0</ele><time>2026-03-25T11:09:07.926Z</time></trkpt><trkpt lat="30.715766969989808" lon="-5.49544358577285"><ele>815.0</ele><time>2026-03-25T11:09:08.926Z</time></trkpt><trkpt lat="30.715745220644084" lon="-5.495249096849438"><ele>814.5</ele><time>2026-03-25T11:09:09.926Z</time></trkpt><trkpt lat="30.715721695746055" lon="-5.495066794426736"><ele>814.0</ele><time>2026-03-25T11:09:10.926Z</time></trkpt><trkpt lat="30.715693508267957" lon="-5.494903998671949"><ele>813.5</ele><time>2026-03-25T11:09:11.926Z</time></trkpt><trkpt lat="30.715676343065724" lon="-5.494751077147011"><ele>813.0</ele><time>2026-03-25T11:09:12.926Z</time></trkpt><trkpt lat="30.715651576200436" lon="-5.4946054728856035"><ele>813.5</ele><time>2026-03-25T11:09:13.926Z</time></trkpt><trkpt lat="30.71562494836068" lon="-5.494448927897052"><ele>814.0</ele><time>2026-03-25T11:09:14.926Z</time></trkpt><trkpt lat="30.715580157349052" lon="-5.494279776293632"><ele>814.5</ele><time>2026-03-25T11:09:15.926Z</time></trkpt><trkpt lat="30.715554304553866" lon="-5.4940972638337815"><ele>815.0</ele><time>2026-03-25T11:09:16.926Z</time></trkpt><trkpt lat="30.715527379057637" lon="-5.493933597492942"><ele>815.0</ele><time>2026-03-25T11:09:17.926Z</time></trkpt><trkpt lat="30.715513854967693" lon="-5.49378500043971"><ele>815.0</ele><time>2026-03-25T11:09:18.926Z</time></trkpt><trkpt lat="30.715507710723255" lon="-5.493642243723678"><ele>815.0</ele><time>2026-03-25T11:09:19.926Z</time></trkpt><trkpt lat="30.715476675832946" lon="-5.49350700007165"><ele>815.0</ele><time>2026-03-25T11:09:20.926Z</time></trkpt><trkpt lat="30.71543456002637" lon="-5.493380500718125"><ele>815.0</ele><time>2026-03-25T11:09:21.926Z</time></trkpt><trkpt lat="30.715378660963943" lon="-5.493269867283834"><ele>815.0</ele><time>2026-03-25T11:09:22.926Z</time></trkpt><trkpt lat="30.71530844728283" lon="-5.4931566845254665"><ele>815.0</ele><time>2026-03-25T11:09:23.926Z</time></trkpt><trkpt lat="30.715242432261313" lon="-5.493039582152699"><ele>815.0</ele><time>2026-03-25T11:09:24.926Z</time></trkpt><trkpt lat="30.715176204569644" lon="-5.492926324687513"><ele>815.0</ele><time>2026-03-25T11:09:25.926Z</time></trkpt><trkpt lat="30.715096650734747" lon="-5.492810337701659"><ele>815.0</ele><time>2026-03-25T11:09:26.926Z</time></trkpt><trkpt lat="30.71501512802238" lon="-5.4926711171604"><ele>815.0</ele><time>2026-03-25T11:09:27.926Z</time></trkpt><trkpt lat="30.714907933144698" lon="-5.492546151597317"><ele>815.0</ele><time>2026-03-25T11:09:28.926Z</time></trkpt><trkpt lat="30.71479637897327" lon="-5.492429033975683"><ele>815.0</ele><time>2026-03-25T11:09:29.926Z</time></trkpt><trkpt lat="30.714685678349294" lon="-5.49232261088144"><ele>815.0</ele><time>2026-03-25T11:09:30.926Z</time></trkpt><trkpt lat="30.714581935089758" lon="-5.492197261676934"><ele>815.0</ele><time>2026-03-25T11:09:31.926Z</time></trkpt><trkpt lat="30.71448731797244" lon="-5.4920581910671205"><ele>815.0</ele><time>2026-03-25T11:09:32.926Z</time></trkpt><trkpt lat="30.714368331297553" lon="-5.49193194555787"><ele>814.5</ele><time>2026-03-25T11:09:33.926Z</time></trkpt><trkpt lat="30.71425133490971" lon="-5.49181152999109"><ele>814.0</ele><time>2026-03-25T11:09:34.926Z</time></trkpt><trkpt lat="30.714146390993932" lon="-5.4916980370892805"><ele>813.5</ele><time>2026-03-25T11:09:35.926Z</time></trkpt><trkpt lat="30.71403587651264" lon="-5.491586045198528"><ele>813.0</ele><time>2026-03-25T11:09:36.926Z</time></trkpt><trkpt lat="30.713897692170008" lon="-5.49149739114234"><ele>813.0</ele><time>2026-03-25T11:09:37.925Z</time></trkpt><trkpt lat="30.713772609256573" lon="-5.491410199392216"><ele>813.0</ele><time>2026-03-25T11:09:38.925Z</time></trkpt><trkpt lat="30.71366871827185" lon="-5.491327910926282"><ele>813.0</ele><time>2026-03-25T11:09:39.925Z</time></trkpt><trkpt lat="30.71359285269413" lon="-5.49124198188208"><ele>813.0</ele><time>2026-03-25T11:09:40.926Z</time></trkpt><trkpt lat="30.71352367386207" lon="-5.4911414028411665"><ele>813.25</ele><time>2026-03-25T11:09:41.925Z</time></trkpt><trkpt lat="30.713456294731138" lon="-5.491035309075821"><ele>813.5</ele><time>2026-03-25T11:09:42.925Z</time></trkpt><trkpt lat="30.71339371517025" lon="-5.490910526530309"><ele>813.75</ele><time>2026-03-25T11:09:43.926Z</time></trkpt><trkpt lat="30.713330140780272" lon="-5.490780060964474"><ele>814.0</ele><time>2026-03-25T11:09:44.925Z</time></trkpt><trkpt lat="30.713263950126667" lon="-5.490658459930222"><ele>814.0</ele><time>2026-03-25T11:09:45.925Z</time></trkpt><trkpt lat="30.713205968328783" lon="-5.490544315279316"><ele>814.0</ele><time>2026-03-25T11:09:46.925Z</time></trkpt><trkpt lat="30.713143963381626" lon="-5.490444930081743"><ele>814.0</ele><time>2026-03-25T11:09:47.925Z</time></trkpt><trkpt lat="30.713097462613064" lon="-5.4903569698205335"><ele>814.0</ele><time>2026-03-25T11:09:48.925Z</time></trkpt><trkpt lat="30.713051486182458" lon="-5.49027045974055"><ele>814.0</ele><time>2026-03-25T11:09:49.925Z</time></trkpt><trkpt lat="30.713010786769363" lon="-5.490195679303533"><ele>813.9999999999999</ele><time>2026-03-25T11:09:50.925Z</time></trkpt><trkpt lat="30.71297618031711" lon="-5.490123314472349"><ele>814.0</ele><time>2026-03-25T11:09:51.925Z</time></trkpt><trkpt lat="30.712923656851338" lon="-5.489994808064189"><ele>814.0</ele><time>2026-03-25T11:09:53.925Z</time></trkpt><trkpt lat="30.712902611651025" lon="-5.489866341353816"><ele>814.0</ele><time>2026-03-25T11:09:55.925Z</time></trkpt><trkpt lat="30.71292191864458" lon="-5.489791343733236"><ele>813.9999999999999</ele><time>2026-03-25T11:09:56.925Z</time></trkpt><trkpt lat="30.712919217257724" lon="-5.489709202620361"><ele>814.0</ele><time>2026-03-25T11:09:57.925Z</time></trkpt><trkpt lat="30.712957983537205" lon="-5.489622597665959"><ele>814.1666666666666</ele><time>2026-03-25T11:09:58.925Z</time></trkpt><trkpt lat="30.71299873897939" lon="-5.48954571913296"><ele>814.3333333333333</ele><time>2026-03-25T11:09:59.925Z</time></trkpt><trkpt lat="30.7130262564984" lon="-5.489464910416104"><ele>814.5</ele><time>2026-03-25T11:10:00.925Z</time></trkpt><trkpt lat="30.713051368428495" lon="-5.489389758375402"><ele>814.6666666666667</ele><time>2026-03-25T11:10:01.925Z</time></trkpt><trkpt lat="30.71309036979474" lon="-5.489292961172186"><ele>814.8333333333334</ele><time>2026-03-25T11:10:02.925Z</time></trkpt><trkpt lat="30.71313053630421" lon="-5.4891873563898494"><ele>815.0</ele><time>2026-03-25T11:10:03.925Z</time></trkpt><trkpt lat="30.713174606970004" lon="-5.489077101622936"><ele>815.0</ele><time>2026-03-25T11:10:04.925Z</time></trkpt><trkpt lat="30.713227531723163" lon="-5.4889682861745674"><ele>815.0</ele><time>2026-03-25T11:10:05.925Z</time></trkpt><trkpt lat="30.713295301087562" lon="-5.488853982820799"><ele>815.0</ele><time>2026-03-25T11:10:06.925Z</time></trkpt><trkpt lat="30.71337656178918" lon="-5.488730423116716"><ele>815.0</ele><time>2026-03-25T11:10:07.925Z</time></trkpt><trkpt lat="30.713466534231678" lon="-5.488607505973562"><ele>814.75</ele><time>2026-03-25T11:10:08.925Z</time></trkpt><trkpt lat="30.713555678365644" lon="-5.488484567444917"><ele>814.5</ele><time>2026-03-25T11:10:09.925Z</time></trkpt><trkpt lat="30.713636679658993" lon="-5.488365389263211"><ele>814.25</ele><time>2026-03-25T11:10:10.925Z</time></trkpt><trkpt lat="30.713707228999873" lon="-5.488233837604854"><ele>814.0</ele><time>2026-03-25T11:10:11.925Z</time></trkpt><trkpt lat="30.713782956898942" lon="-5.488090596766726"><ele>814.0</ele><time>2026-03-25T11:10:12.925Z</time></trkpt><trkpt lat="30.71385785369806" lon="-5.4879545169095305"><ele>814.0</ele><time>2026-03-25T11:10:13.925Z</time></trkpt><trkpt lat="30.71393216011094" lon="-5.487818239605861"><ele>814.0</ele><time>2026-03-25T11:10:14.925Z</time></trkpt><trkpt lat="30.714011053355083" lon="-5.487679861331429"><ele>814.0</ele><time>2026-03-25T11:10:15.925Z</time></trkpt><trkpt lat="30.71408866665916" lon="-5.4875406951850065"><ele>814.0</ele><time>2026-03-25T11:10:16.925Z</time></trkpt><trkpt lat="30.714167305899508" lon="-5.4873924698473795"><ele>814.0</ele><time>2026-03-25T11:10:17.925Z</time></trkpt><trkpt lat="30.714244655254657" lon="-5.487250003680444"><ele>814.0</ele><time>2026-03-25T11:10:18.925Z</time></trkpt><trkpt lat="30.71431832302423" lon="-5.487103578616685"><ele>814.0</ele><time>2026-03-25T11:10:19.925Z</time></trkpt><trkpt lat="30.71438534866182" lon="-5.486958563420034"><ele>813.6666666666666</ele><time>2026-03-25T11:10:20.925Z</time></trkpt><trkpt lat="30.714466479957398" lon="-5.486785973240003"><ele>813.3333333333333</ele><time>2026-03-25T11:10:21.925Z</time></trkpt><trkpt lat="30.714566374950884" lon="-5.486588650002647"><ele>813.0</ele><time>2026-03-25T11:10:22.925Z</time></trkpt><trkpt lat="30.714657038595533" lon="-5.486405751532119"><ele>812.5</ele><time>2026-03-25T11:10:23.925Z</time></trkpt><trkpt lat="30.714728701551515" lon="-5.486249824232689"><ele>812.0</ele><time>2026-03-25T11:10:24.925Z</time></trkpt><trkpt lat="30.714796873628003" lon="-5.486104624842624"><ele>811.5</ele><time>2026-03-25T11:10:25.925Z</time></trkpt><trkpt lat="30.714862555399698" lon="-5.485951185107212"><ele>811.0</ele><time>2026-03-25T11:10:26.925Z</time></trkpt><trkpt lat="30.71492970600623" lon="-5.48580171045734"><ele>811.0</ele><time>2026-03-25T11:10:27.925Z</time></trkpt><trkpt lat="30.714992910278283" lon="-5.485645926559459"><ele>811.0</ele><time>2026-03-25T11:10:28.925Z</time></trkpt><trkpt lat="30.7150537495643" lon="-5.48549029864176"><ele>811.0</ele><time>2026-03-25T11:10:29.925Z</time></trkpt><trkpt lat="30.71510873673067" lon="-5.4853172997690995"><ele>811.3333333333333</ele><time>2026-03-25T11:10:30.925Z</time></trkpt><trkpt lat="30.71517321226818" lon="-5.48514884551746"><ele>811.6666666666667</ele><time>2026-03-25T11:10:31.925Z</time></trkpt><trkpt lat="30.7152319800052" lon="-5.484973952969542"><ele>812.0</ele><time>2026-03-25T11:10:32.925Z</time></trkpt><trkpt lat="30.71529574387786" lon="-5.484801709095693"><ele>813.0</ele><time>2026-03-25T11:10:33.925Z</time></trkpt><trkpt lat="30.715357978531653" lon="-5.484628645023114"><ele>814.0</ele><time>2026-03-25T11:10:34.925Z</time></trkpt><trkpt lat="30.71541946670541" lon="-5.48445561329242"><ele>815.0</ele><time>2026-03-25T11:10:35.925Z</time></trkpt><trkpt lat="30.715484599649137" lon="-5.484286173522402"><ele>815.0</ele><time>2026-03-25T11:10:36.925Z</time></trkpt><trkpt lat="30.715548596374177" lon="-5.484113964032299"><ele>815.0</ele><time>2026-03-25T11:10:37.925Z</time></trkpt><trkpt lat="30.71561419298873" lon="-5.483938063073652"><ele>815.0</ele><time>2026-03-25T11:10:38.925Z</time></trkpt><trkpt lat="30.71567651609291" lon="-5.483759723572471"><ele>814.0</ele><time>2026-03-25T11:10:39.925Z</time></trkpt><trkpt lat="30.71573949445345" lon="-5.483579920600363"><ele>813.0</ele><time>2026-03-25T11:10:40.925Z</time></trkpt><trkpt lat="30.715802453372632" lon="-5.483395516990949"><ele>812.0</ele><time>2026-03-25T11:10:41.925Z</time></trkpt><trkpt lat="30.715868561577693" lon="-5.4832142837388655"><ele>812.0</ele><time>2026-03-25T11:10:42.925Z</time></trkpt><trkpt lat="30.715938714635286" lon="-5.48302410855483"><ele>812.0</ele><time>2026-03-25T11:10:43.925Z</time></trkpt><trkpt lat="30.71600922811452" lon="-5.482828485989668"><ele>812.0</ele><time>2026-03-25T11:10:44.925Z</time></trkpt><trkpt lat="30.716079193288206" lon="-5.482639460713866"><ele>812.3333333333334</ele><time>2026-03-25T11:10:45.925Z</time></trkpt><trkpt lat="30.716144434976638" lon="-5.482454681823313"><ele>812.6666666666667</ele><time>2026-03-25T11:10:46.925Z</time></trkpt><trkpt lat="30.716208666594895" lon="-5.48228001654863"><ele>813.0</ele><time>2026-03-25T11:10:47.925Z</time></trkpt><trkpt lat="30.716277500548866" lon="-5.482108627786272"><ele>812.6666666666667</ele><time>2026-03-25T11:10:48.925Z</time></trkpt><trkpt lat="30.716346881991385" lon="-5.481934868220523"><ele>812.3333333333334</ele><time>2026-03-25T11:10:49.925Z</time></trkpt><trkpt lat="30.716415426067062" lon="-5.481758039907498"><ele>812.0</ele><time>2026-03-25T11:10:50.925Z</time></trkpt><trkpt lat="30.716478242610354" lon="-5.481584090318756"><ele>812.0</ele><time>2026-03-25T11:10:51.925Z</time></trkpt><trkpt lat="30.71654430886873" lon="-5.481411717000287"><ele>812.0</ele><time>2026-03-25T11:10:52.925Z</time></trkpt><trkpt lat="30.716603050257973" lon="-5.4812505574131976"><ele>812.0</ele><time>2026-03-25T11:10:53.925Z</time></trkpt><trkpt lat="30.716661596995504" lon="-5.481104623394882"><ele>812.75</ele><time>2026-03-25T11:10:54.925Z</time></trkpt><trkpt lat="30.716716473337147" lon="-5.480954625104832"><ele>813.5</ele><time>2026-03-25T11:10:55.925Z</time></trkpt><trkpt lat="30.7167549753808" lon="-5.4807997468857526"><ele>814.25</ele><time>2026-03-25T11:10:56.925Z</time></trkpt><trkpt lat="30.71677859652618" lon="-5.480652895950358"><ele>815.0</ele><time>2026-03-25T11:10:57.925Z</time></trkpt><trkpt lat="30.716792421403557" lon="-5.4805164957716235"><ele>814.6</ele><time>2026-03-25T11:10:58.925Z</time></trkpt><trkpt lat="30.716810262578253" lon="-5.480384721373507"><ele>814.2</ele><time>2026-03-25T11:10:59.925Z</time></trkpt><trkpt lat="30.716829157017894" lon="-5.4802591445473965"><ele>813.8</ele><time>2026-03-25T11:11:00.925Z</time></trkpt><trkpt lat="30.71686381695812" lon="-5.480141360868758"><ele>813.4</ele><time>2026-03-25T11:11:01.925Z</time></trkpt><trkpt lat="30.716903617893777" lon="-5.480013709663745"><ele>813.0</ele><time>2026-03-25T11:11:02.925Z</time></trkpt><trkpt lat="30.717006596427076" lon="-5.479900074728413"><ele>812.75</ele><time>2026-03-25T11:11:03.925Z</time></trkpt><trkpt lat="30.717094305146134" lon="-5.479759750254503"><ele>812.5</ele><time>2026-03-25T11:11:04.925Z</time></trkpt><trkpt lat="30.717191422752435" lon="-5.4796493528255"><ele>812.25</ele><time>2026-03-25T11:11:05.925Z</time></trkpt><trkpt lat="30.71724221079089" lon="-5.479509171653659"><ele>812.0</ele><time>2026-03-25T11:11:06.925Z</time></trkpt><trkpt lat="30.717298389460506" lon="-5.479357808508387"><ele>812.0</ele><time>2026-03-25T11:11:07.925Z</time></trkpt><trkpt lat="30.71735873935544" lon="-5.47917899395778"><ele>812.0</ele><time>2026-03-25T11:11:08.925Z</time></trkpt><trkpt lat="30.717423640556582" lon="-5.479016989982245"><ele>812.0</ele><time>2026-03-25T11:11:09.925Z</time></trkpt><trkpt lat="30.717468018375552" lon="-5.47886564573315"><ele>812.0</ele><time>2026-03-25T11:11:10.925Z</time></trkpt><trkpt lat="30.71751235431105" lon="-5.478726232508702"><ele>812.0</ele><time>2026-03-25T11:11:11.925Z</time></trkpt><trkpt lat="30.717558146142384" lon="-5.478617306679557"><ele>812.0</ele><time>2026-03-25T11:11:12.925Z</time></trkpt><trkpt lat="30.71760455949402" lon="-5.478518449437976"><ele>812.0</ele><time>2026-03-25T11:11:13.925Z</time></trkpt><trkpt lat="30.71766204753359" lon="-5.478439627147703"><ele>812.0</ele><time>2026-03-25T11:11:14.925Z</time></trkpt><trkpt lat="30.717772359380515" lon="-5.478407403812179"><ele>811.5</ele><time>2026-03-25T11:11:15.925Z</time></trkpt><trkpt lat="30.717885503163732" lon="-5.478400256074441"><ele>811.0</ele><time>2026-03-25T11:11:16.925Z</time></trkpt><trkpt lat="30.718019528110407" lon="-5.478386250134224"><ele>810.5</ele><time>2026-03-25T11:11:17.925Z</time></trkpt><trkpt lat="30.718150533388815" lon="-5.478372559752756"><ele>810.0</ele><time>2026-03-25T11:11:18.925Z</time></trkpt><trkpt lat="30.71827349279291" lon="-5.478359663462755"><ele>810.0</ele><time>2026-03-25T11:11:19.925Z</time></trkpt><trkpt lat="30.71840015325536" lon="-5.478347759499524"><ele>810.0</ele><time>2026-03-25T11:11:20.925Z</time></trkpt><trkpt lat="30.718512925308886" lon="-5.478337236734904"><ele>810.0</ele><time>2026-03-25T11:11:21.925Z</time></trkpt><trkpt lat="30.718617359961687" lon="-5.478342145853835"><ele>810.0</ele><time>2026-03-25T11:11:22.925Z</time></trkpt><trkpt lat="30.71873523130251" lon="-5.478343188605854"><ele>810.25</ele><time>2026-03-25T11:11:23.925Z</time></trkpt><trkpt lat="30.71885709248385" lon="-5.478462559789086"><ele>810.5</ele><time>2026-03-25T11:11:24.925Z</time></trkpt><trkpt lat="30.718982015337033" lon="-5.478518336076526"><ele>810.75</ele><time>2026-03-25T11:11:25.925Z</time></trkpt><trkpt lat="30.719095784605173" lon="-5.478520823226747"><ele>811.0</ele><time>2026-03-25T11:11:26.925Z</time></trkpt><trkpt lat="30.719192768474453" lon="-5.478520047059477"><ele>811.0</ele><time>2026-03-25T11:11:27.925Z</time></trkpt><trkpt lat="30.719273636077077" lon="-5.4785153591635165"><ele>811.0</ele><time>2026-03-25T11:11:28.925Z</time></trkpt><trkpt lat="30.71935570397926" lon="-5.478503540799723"><ele>811.0</ele><time>2026-03-25T11:11:29.925Z</time></trkpt><trkpt lat="30.71943610459498" lon="-5.478362924742027"><ele>811.0</ele><time>2026-03-25T11:11:31.925Z</time></trkpt><trkpt lat="30.719487832933066" lon="-5.478246651003772"><ele>811.0</ele><time>2026-03-25T11:11:32.925Z</time></trkpt><trkpt lat="30.719527565690314" lon="-5.4780844322831035"><ele>811.0</ele><time>2026-03-25T11:11:33.925Z</time></trkpt><trkpt lat="30.71958742368285" lon="-5.477920963577882"><ele>811.0</ele><time>2026-03-25T11:11:34.925Z</time></trkpt><trkpt lat="30.719676863774996" lon="-5.4777834040245805"><ele>811.0</ele><time>2026-03-25T11:11:35.925Z</time></trkpt><trkpt lat="30.719726865666924" lon="-5.477653126111389"><ele>811.0</ele><time>2026-03-25T11:11:36.924Z</time></trkpt><trkpt lat="30.719779462130088" lon="-5.4775320212539995"><ele>811.0</ele><time>2026-03-25T11:11:37.924Z</time></trkpt><trkpt lat="30.719816915608632" lon="-5.4773998615467"><ele>811.0</ele><time>2026-03-25T11:11:38.924Z</time></trkpt><trkpt lat="30.719862379394577" lon="-5.477274778552583"><ele>811.0</ele><time>2026-03-25T11:11:39.924Z</time></trkpt><trkpt lat="30.71990929315661" lon="-5.4771413072160655"><ele>811.0</ele><time>2026-03-25T11:11:40.924Z</time></trkpt><trkpt lat="30.71995750192792" lon="-5.476999762948379"><ele>810.5</ele><time>2026-03-25T11:11:41.924Z</time></trkpt><trkpt lat="30.72000942772149" lon="-5.476859430053075"><ele>810.0</ele><time>2026-03-25T11:11:42.924Z</time></trkpt><trkpt lat="30.720064441288734" lon="-5.476717173766069"><ele>809.5</ele><time>2026-03-25T11:11:43.925Z</time></trkpt><trkpt lat="30.72011554134982" lon="-5.476579251210517"><ele>809.0</ele><time>2026-03-25T11:11:44.925Z</time></trkpt><trkpt lat="30.72016851497813" lon="-5.476442972253749"><ele>809.0</ele><time>2026-03-25T11:11:45.925Z</time></trkpt><trkpt lat="30.720223234786893" lon="-5.476306254759945"><ele>809.0</ele><time>2026-03-25T11:11:46.925Z</time></trkpt><trkpt lat="30.720277182098833" lon="-5.47616588961814"><ele>809.0</ele><time>2026-03-25T11:11:47.924Z</time></trkpt><trkpt lat="30.720330933460847" lon="-5.476023753859531"><ele>809.0</ele><time>2026-03-25T11:11:48.924Z</time></trkpt><trkpt lat="30.72038479926405" lon="-5.475883634715861"><ele>809.0</ele><time>2026-03-25T11:11:49.925Z</time></trkpt><trkpt lat="30.720429323496923" lon="-5.475752831535123"><ele>809.0</ele><time>2026-03-25T11:11:50.925Z</time></trkpt><trkpt lat="30.720483081098475" lon="-5.475628506224853"><ele>809.0</ele><time>2026-03-25T11:11:51.925Z</time></trkpt><trkpt lat="30.72055861539767" lon="-5.475500359586184"><ele>809.0</ele><time>2026-03-25T11:11:52.924Z</time></trkpt><trkpt lat="30.720624191348303" lon="-5.475364637017883"><ele>809.0</ele><time>2026-03-25T11:11:53.925Z</time></trkpt><trkpt lat="30.720678925945148" lon="-5.475237454274234"><ele>809.0</ele><time>2026-03-25T11:11:54.925Z</time></trkpt><trkpt lat="30.720718479274456" lon="-5.475095113358866"><ele>809.0</ele><time>2026-03-25T11:11:55.924Z</time></trkpt><trkpt lat="30.720751610185577" lon="-5.47497201642701"><ele>809.0</ele><time>2026-03-25T11:11:56.925Z</time></trkpt><trkpt lat="30.72077630926939" lon="-5.474856743247654"><ele>809.0000000000001</ele><time>2026-03-25T11:11:57.925Z</time></trkpt><trkpt lat="30.720794069509086" lon="-5.474750700359054"><ele>809.0</ele><time>2026-03-25T11:11:58.925Z</time></trkpt><trkpt lat="30.72083351598056" lon="-5.474669692901679"><ele>809.0</ele><time>2026-03-25T11:11:59.925Z</time></trkpt><trkpt lat="30.720873545129745" lon="-5.474587487590333"><ele>809.0</ele><time>2026-03-25T11:12:00.925Z</time></trkpt><trkpt lat="30.720961377436996" lon="-5.474551401760399"><ele>809.0000000000001</ele><time>2026-03-25T11:12:01.925Z</time></trkpt><trkpt lat="30.720987099961178" lon="-5.47447238205625"><ele>809.0</ele><time>2026-03-25T11:12:02.925Z</time></trkpt><trkpt lat="30.7209820761815" lon="-5.47438587472172"><ele>809.2</ele><time>2026-03-25T11:12:03.925Z</time></trkpt><trkpt lat="30.720946549615235" lon="-5.474285109344414"><ele>809.4000000000001</ele><time>2026-03-25T11:12:04.925Z</time></trkpt><trkpt lat="30.72089518248774" lon="-5.474174239117349"><ele>809.6</ele><time>2026-03-25T11:12:05.925Z</time></trkpt><trkpt lat="30.720841778473538" lon="-5.474065878458895"><ele>809.8</ele><time>2026-03-25T11:12:06.925Z</time></trkpt><trkpt lat="30.720789335306726" lon="-5.473966418524052"><ele>810.0</ele><time>2026-03-25T11:12:07.925Z</time></trkpt><trkpt lat="30.720744875737445" lon="-5.473858488573875"><ele>810.0</ele><time>2026-03-25T11:12:08.925Z</time></trkpt><trkpt lat="30.720694308320592" lon="-5.4737560188891825"><ele>810.0</ele><time>2026-03-25T11:12:09.925Z</time></trkpt><trkpt lat="30.720653696489197" lon="-5.473652771802516"><ele>810.0</ele><time>2026-03-25T11:12:10.925Z</time></trkpt><trkpt lat="30.72061654458947" lon="-5.473548016644462"><ele>810.0</ele><time>2026-03-25T11:12:11.925Z</time></trkpt><trkpt lat="30.720597112209173" lon="-5.473433100511362"><ele>810.0</ele><time>2026-03-25T11:12:12.925Z</time></trkpt><trkpt lat="30.720597256916832" lon="-5.473307341250977"><ele>810.0</ele><time>2026-03-25T11:12:13.925Z</time></trkpt><trkpt lat="30.720621289363816" lon="-5.473174461849636"><ele>810.0</ele><time>2026-03-25T11:12:14.925Z</time></trkpt><trkpt lat="30.720652756286217" lon="-5.473041838305746"><ele>810.0</ele><time>2026-03-25T11:12:15.925Z</time></trkpt><trkpt lat="30.720686352365096" lon="-5.472909471642381"><ele>810.0</ele><time>2026-03-25T11:12:16.925Z</time></trkpt><trkpt lat="30.72072124506993" lon="-5.472772844328089"><ele>810.25</ele><time>2026-03-25T11:12:17.925Z</time></trkpt><trkpt lat="30.7207523797187" lon="-5.472623056589012"><ele>810.5</ele><time>2026-03-25T11:12:18.925Z</time></trkpt><trkpt lat="30.72078295057653" lon="-5.472474308329006"><ele>810.75</ele><time>2026-03-25T11:12:19.925Z</time></trkpt><trkpt lat="30.720809234404353" lon="-5.472332433336676"><ele>811.0</ele><time>2026-03-25T11:12:20.925Z</time></trkpt><trkpt lat="30.720831189906416" lon="-5.472192243291656"><ele>810.75</ele><time>2026-03-25T11:12:21.925Z</time></trkpt><trkpt lat="30.72086190768621" lon="-5.472042516539425"><ele>810.5</ele><time>2026-03-25T11:12:22.925Z</time></trkpt><trkpt lat="30.72089141182858" lon="-5.47189391649296"><ele>810.25</ele><time>2026-03-25T11:12:23.925Z</time></trkpt><trkpt lat="30.720920337377716" lon="-5.4717438085428824"><ele>810.0</ele><time>2026-03-25T11:12:24.925Z</time></trkpt><trkpt lat="30.720957162766194" lon="-5.471597504227387"><ele>810.0</ele><time>2026-03-25T11:12:25.925Z</time></trkpt><trkpt lat="30.72099693120741" lon="-5.471453455455616"><ele>810.0</ele><time>2026-03-25T11:12:26.925Z</time></trkpt><trkpt lat="30.72104984306905" lon="-5.471312562823892"><ele>810.0</ele><time>2026-03-25T11:12:27.925Z</time></trkpt><trkpt lat="30.72110558190805" lon="-5.471173263571615"><ele>810.0</ele><time>2026-03-25T11:12:28.925Z</time></trkpt><trkpt lat="30.72115523255098" lon="-5.471035748480812"><ele>809.5</ele><time>2026-03-25T11:12:29.925Z</time></trkpt><trkpt lat="30.721196707704408" lon="-5.470889390021825"><ele>809.0</ele><time>2026-03-25T11:12:30.925Z</time></trkpt><trkpt lat="30.72122411807975" lon="-5.470734316124513"><ele>808.5</ele><time>2026-03-25T11:12:31.925Z</time></trkpt><trkpt lat="30.721252994262976" lon="-5.47057589017497"><ele>808.0</ele><time>2026-03-25T11:12:32.925Z</time></trkpt><trkpt lat="30.721285187035015" lon="-5.470414832334135"><ele>808.0</ele><time>2026-03-25T11:12:33.925Z</time></trkpt><trkpt lat="30.721314355670287" lon="-5.470255217272766"><ele>808.0</ele><time>2026-03-25T11:12:34.925Z</time></trkpt><trkpt lat="30.72134558654278" lon="-5.470105013858168"><ele>808.0</ele><time>2026-03-25T11:12:35.925Z</time></trkpt><trkpt lat="30.721383747149726" lon="-5.469948144853441"><ele>808.0</ele><time>2026-03-25T11:12:36.925Z</time></trkpt><trkpt lat="30.72142909303799" lon="-5.469793874680069"><ele>808.0</ele><time>2026-03-25T11:12:37.925Z</time></trkpt><trkpt lat="30.721483143635886" lon="-5.469651076316135"><ele>808.0</ele><time>2026-03-25T11:12:38.925Z</time></trkpt><trkpt lat="30.72155005159377" lon="-5.469518403509843"><ele>808.0</ele><time>2026-03-25T11:12:39.925Z</time></trkpt><trkpt lat="30.72162146184675" lon="-5.469383206584847"><ele>808.0</ele><time>2026-03-25T11:12:40.925Z</time></trkpt><trkpt lat="30.72168706831918" lon="-5.469244081022746"><ele>808.25</ele><time>2026-03-25T11:12:41.925Z</time></trkpt><trkpt lat="30.721743841753216" lon="-5.469096208942486"><ele>808.5</ele><time>2026-03-25T11:12:42.925Z</time></trkpt><trkpt lat="30.72180684412295" lon="-5.468952748590281"><ele>808.75</ele><time>2026-03-25T11:12:43.925Z</time></trkpt><trkpt lat="30.721879362304723" lon="-5.468818733377457"><ele>809.0</ele><time>2026-03-25T11:12:44.925Z</time></trkpt><trkpt lat="30.721960902607343" lon="-5.468690323851737"><ele>808.25</ele><time>2026-03-25T11:12:45.925Z</time></trkpt><trkpt lat="30.722043744586035" lon="-5.468561611460115"><ele>807.5</ele><time>2026-03-25T11:12:46.925Z</time></trkpt><trkpt lat="30.72212068833251" lon="-5.468421817078481"><ele>806.75</ele><time>2026-03-25T11:12:47.925Z</time></trkpt><trkpt lat="30.722190811229414" lon="-5.468272534015275"><ele>806.0</ele><time>2026-03-25T11:12:48.925Z</time></trkpt><trkpt lat="30.722252928496488" lon="-5.4681228379529765"><ele>806.0</ele><time>2026-03-25T11:12:49.925Z</time></trkpt><trkpt lat="30.722319065057686" lon="-5.467968569504588"><ele>806.0</ele><time>2026-03-25T11:12:50.925Z</time></trkpt><trkpt lat="30.72238868588163" lon="-5.467817789221522"><ele>806.0</ele><time>2026-03-25T11:12:51.925Z</time></trkpt><trkpt lat="30.722463981351677" lon="-5.467664240399986"><ele>806.0</ele><time>2026-03-25T11:12:52.925Z</time></trkpt><trkpt lat="30.722542809810076" lon="-5.4675154124650245"><ele>806.0</ele><time>2026-03-25T11:12:53.925Z</time></trkpt><trkpt lat="30.72262038585384" lon="-5.467367448041951"><ele>806.0</ele><time>2026-03-25T11:12:54.925Z</time></trkpt><trkpt lat="30.722693979812504" lon="-5.467222075443341"><ele>806.0</ele><time>2026-03-25T11:12:55.925Z</time></trkpt><trkpt lat="30.722769514624495" lon="-5.467083581401505"><ele>806.0</ele><time>2026-03-25T11:12:56.925Z</time></trkpt><trkpt lat="30.722842687229715" lon="-5.466942977212424"><ele>806.5</ele><time>2026-03-25T11:12:57.925Z</time></trkpt><trkpt lat="30.722910526652786" lon="-5.466790939145798"><ele>807.0</ele><time>2026-03-25T11:12:58.925Z</time></trkpt><trkpt lat="30.72298631096001" lon="-5.4666426042061556"><ele>807.5</ele><time>2026-03-25T11:12:59.925Z</time></trkpt><trkpt lat="30.723062473380452" lon="-5.4664894619416575"><ele>808.0</ele><time>2026-03-25T11:13:00.925Z</time></trkpt><trkpt lat="30.723135457190697" lon="-5.466339624616205"><ele>808.75</ele><time>2026-03-25T11:13:01.925Z</time></trkpt><trkpt lat="30.723203575625117" lon="-5.4661940745884365"><ele>809.5</ele><time>2026-03-25T11:13:02.925Z</time></trkpt><trkpt lat="30.723263342316688" lon="-5.466048954729699"><ele>810.25</ele><time>2026-03-25T11:13:03.925Z</time></trkpt><trkpt lat="30.72332758549473" lon="-5.465908309528472"><ele>811.0</ele><time>2026-03-25T11:13:04.925Z</time></trkpt><trkpt lat="30.723395718291894" lon="-5.465764039538878"><ele>811.0</ele><time>2026-03-25T11:13:05.925Z</time></trkpt><trkpt lat="30.72346718969273" lon="-5.465617807135979"><ele>811.0</ele><time>2026-03-25T11:13:06.925Z</time></trkpt><trkpt lat="30.723543972546008" lon="-5.465477024172168"><ele>811.0</ele><time>2026-03-25T11:13:07.925Z</time></trkpt><trkpt lat="30.723624822776014" lon="-5.46532955778157"><ele>811.0</ele><time>2026-03-25T11:13:08.925Z</time></trkpt><trkpt lat="30.723714689582405" lon="-5.465173279190754"><ele>810.6666666666666</ele><time>2026-03-25T11:13:09.925Z</time></trkpt><trkpt lat="30.7238056632559" lon="-5.4650164573866915"><ele>810.3333333333333</ele><time>2026-03-25T11:13:10.925Z</time></trkpt><trkpt lat="30.723895281489252" lon="-5.4648752777371445"><ele>810.0</ele><time>2026-03-25T11:13:11.925Z</time></trkpt><trkpt lat="30.723985424690973" lon="-5.464732247758541"><ele>809.5</ele><time>2026-03-25T11:13:12.925Z</time></trkpt><trkpt lat="30.72407595220358" lon="-5.46459724347843"><ele>809.0</ele><time>2026-03-25T11:13:13.925Z</time></trkpt><trkpt lat="30.724163223210603" lon="-5.464465828104837"><ele>808.5</ele><time>2026-03-25T11:13:14.925Z</time></trkpt><trkpt lat="30.7242459713989" lon="-5.464330135172485"><ele>808.0</ele><time>2026-03-25T11:13:15.925Z</time></trkpt><trkpt lat="30.72431139864194" lon="-5.464202610803709"><ele>808.0</ele><time>2026-03-25T11:13:16.925Z</time></trkpt><trkpt lat="30.724354323019817" lon="-5.46406360883457"><ele>808.0</ele><time>2026-03-25T11:13:17.925Z</time></trkpt><trkpt lat="30.724390002148912" lon="-5.4639068170369525"><ele>808.0</ele><time>2026-03-25T11:13:18.925Z</time></trkpt><trkpt lat="30.724432238302985" lon="-5.463754873983355"><ele>808.0</ele><time>2026-03-25T11:13:19.924Z</time></trkpt><trkpt lat="30.72447743980809" lon="-5.4636066116009285"><ele>807.75</ele><time>2026-03-25T11:13:20.924Z</time></trkpt><trkpt lat="30.724517174217542" lon="-5.46345357657087"><ele>807.5</ele><time>2026-03-25T11:13:21.924Z</time></trkpt><trkpt lat="30.724560834993337" lon="-5.463302294137569"><ele>807.25</ele><time>2026-03-25T11:13:22.924Z</time></trkpt><trkpt lat="30.724609607149883" lon="-5.4631457105018955"><ele>807.0</ele><time>2026-03-25T11:13:23.924Z</time></trkpt><trkpt lat="30.724659273877073" lon="-5.462986028094661"><ele>806.0</ele><time>2026-03-25T11:13:24.924Z</time></trkpt><trkpt lat="30.724703840927273" lon="-5.462818690970501"><ele>805.0</ele><time>2026-03-25T11:13:25.924Z</time></trkpt><trkpt lat="30.724752094623344" lon="-5.462654586745517"><ele>804.0</ele><time>2026-03-25T11:13:26.924Z</time></trkpt><trkpt lat="30.724797639068733" lon="-5.462495081712881"><ele>803.0</ele><time>2026-03-25T11:13:27.924Z</time></trkpt><trkpt lat="30.724847968611265" lon="-5.462339496369297"><ele>803.0</ele><time>2026-03-25T11:13:28.924Z</time></trkpt><trkpt lat="30.724893353453204" lon="-5.4621921123334705"><ele>803.0</ele><time>2026-03-25T11:13:29.924Z</time></trkpt><trkpt lat="30.724938339529785" lon="-5.462038877617953"><ele>803.0</ele><time>2026-03-25T11:13:30.924Z</time></trkpt><trkpt lat="30.72498503716231" lon="-5.461884781933117"><ele>803.0</ele><time>2026-03-25T11:13:31.924Z</time></trkpt><trkpt lat="30.72503581470396" lon="-5.461729034347847"><ele>805.0</ele><time>2026-03-25T11:13:32.924Z</time></trkpt><trkpt lat="30.725085297102535" lon="-5.461569516966636"><ele>807.0</ele><time>2026-03-25T11:13:33.924Z</time></trkpt><trkpt lat="30.725134400719558" lon="-5.46140505558653"><ele>809.0</ele><time>2026-03-25T11:13:34.924Z</time></trkpt><trkpt lat="30.725185690733912" lon="-5.461236971714083"><ele>811.0</ele><time>2026-03-25T11:13:35.924Z</time></trkpt><trkpt lat="30.72523846678149" lon="-5.461058931283869"><ele>811.0</ele><time>2026-03-25T11:13:36.924Z</time></trkpt><trkpt lat="30.725295036001175" lon="-5.460877372213326"><ele>811.0</ele><time>2026-03-25T11:13:37.924Z</time></trkpt><trkpt lat="30.725350848716904" lon="-5.460694777196056"><ele>811.0</ele><time>2026-03-25T11:13:38.924Z</time></trkpt><trkpt lat="30.725403751370493" lon="-5.460516161259597"><ele>811.0</ele><time>2026-03-25T11:13:39.924Z</time></trkpt><trkpt lat="30.725456070344766" lon="-5.4603509644800825"><ele>811.0</ele><time>2026-03-25T11:13:40.924Z</time></trkpt><trkpt lat="30.725501237126437" lon="-5.460198514605381"><ele>811.0</ele><time>2026-03-25T11:13:41.924Z</time></trkpt><trkpt lat="30.725540315325098" lon="-5.460057203975306"><ele>811.0</ele><time>2026-03-25T11:13:42.924Z</time></trkpt><trkpt lat="30.725580791232645" lon="-5.459924116988878"><ele>811.0</ele><time>2026-03-25T11:13:43.924Z</time></trkpt><trkpt lat="30.72561865978656" lon="-5.459793987028481"><ele>811.0</ele><time>2026-03-25T11:13:44.924Z</time></trkpt><trkpt lat="30.725656618899297" lon="-5.459664967640115"><ele>811.0</ele><time>2026-03-25T11:13:45.924Z</time></trkpt><trkpt lat="30.725687245983494" lon="-5.459543034326051"><ele>811.0</ele><time>2026-03-25T11:13:46.924Z</time></trkpt><trkpt lat="30.725696294593167" lon="-5.4594275727843655"><ele>811.0</ele><time>2026-03-25T11:13:47.924Z</time></trkpt><trkpt lat="30.725714695850968" lon="-5.459341572804391"><ele>811.6666666666666</ele><time>2026-03-25T11:13:48.924Z</time></trkpt><trkpt lat="30.72575160503299" lon="-5.459230120681702"><ele>812.3333333333333</ele><time>2026-03-25T11:13:50.923Z</time></trkpt><trkpt lat="30.725963157663422" lon="-5.459319901151088"><ele>813.0</ele><time>2026-03-25T11:13:57.924Z</time></trkpt><trkpt lat="30.726012101218327" lon="-5.459455742369437"><ele>813.0</ele><time>2026-03-25T11:13:59.924Z</time></trkpt><trkpt lat="30.726030841546244" lon="-5.459533646805781"><ele>813.0</ele><time>2026-03-25T11:14:00.924Z</time></trkpt><trkpt lat="30.726061766284037" lon="-5.459636036723692"><ele>813.0</ele><time>2026-03-25T11:14:02.924Z</time></trkpt><trkpt lat="30.72608081204632" lon="-5.459726568603324"><ele>813.0</ele><time>2026-03-25T11:14:03.924Z</time></trkpt><trkpt lat="30.726098369150247" lon="-5.459834939168761"><ele>813.0</ele><time>2026-03-25T11:14:04.924Z</time></trkpt><trkpt lat="30.726125843560336" lon="-5.459959816710259"><ele>813.0</ele><time>2026-03-25T11:14:05.924Z</time></trkpt><trkpt lat="30.726169327472896" lon="-5.460087296691789"><ele>812.75</ele><time>2026-03-25T11:14:06.924Z</time></trkpt><trkpt lat="30.72622263228342" lon="-5.460213692965406"><ele>812.5</ele><time>2026-03-25T11:14:07.924Z</time></trkpt><trkpt lat="30.726296257502536" lon="-5.460295746309558"><ele>812.25</ele><time>2026-03-25T11:14:08.924Z</time></trkpt><trkpt lat="30.726394781796593" lon="-5.4603717764976185"><ele>812.0</ele><time>2026-03-25T11:14:09.924Z</time></trkpt><trkpt lat="30.726532322957976" lon="-5.460464572036176"><ele>811.6666666666667</ele><time>2026-03-25T11:14:10.924Z</time></trkpt><trkpt lat="30.726654997268948" lon="-5.460576871549334"><ele>811.3333333333333</ele><time>2026-03-25T11:14:11.924Z</time></trkpt><trkpt lat="30.726787932233055" lon="-5.460698644871264"><ele>811.0</ele><time>2026-03-25T11:14:12.924Z</time></trkpt><trkpt lat="30.726904536985806" lon="-5.46080241658789"><ele>811.0</ele><time>2026-03-25T11:14:13.924Z</time></trkpt><trkpt lat="30.727000334481662" lon="-5.460894476493811"><ele>811.0</ele><time>2026-03-25T11:14:14.924Z</time></trkpt><trkpt lat="30.727111940286502" lon="-5.460992508689728"><ele>811.0</ele><time>2026-03-25T11:14:15.924Z</time></trkpt><trkpt lat="30.727220740834678" lon="-5.461094084599745"><ele>811.0</ele><time>2026-03-25T11:14:16.924Z</time></trkpt><trkpt lat="30.72732119175409" lon="-5.461179582562599"><ele>811.0</ele><time>2026-03-25T11:14:17.924Z</time></trkpt><trkpt lat="30.727419900917578" lon="-5.461269542726611"><ele>811.0</ele><time>2026-03-25T11:14:18.924Z</time></trkpt><trkpt lat="30.727523019840216" lon="-5.461351750975492"><ele>811.0</ele><time>2026-03-25T11:14:19.924Z</time></trkpt><trkpt lat="30.727635142110437" lon="-5.4614486131545545"><ele>811.0</ele><time>2026-03-25T11:14:20.924Z</time></trkpt><trkpt lat="30.727743213690715" lon="-5.461548042208653"><ele>812.0</ele><time>2026-03-25T11:14:21.924Z</time></trkpt><trkpt lat="30.727860284495765" lon="-5.461650810117383"><ele>813.0</ele><time>2026-03-25T11:14:22.924Z</time></trkpt><trkpt lat="30.727977828960398" lon="-5.461754425303007"><ele>814.0</ele><time>2026-03-25T11:14:23.924Z</time></trkpt><trkpt lat="30.72810439415085" lon="-5.461859972248857"><ele>814.0</ele><time>2026-03-25T11:14:24.924Z</time></trkpt><trkpt lat="30.728236178320564" lon="-5.461960667673582"><ele>814.0</ele><time>2026-03-25T11:14:25.924Z</time></trkpt><trkpt lat="30.72837215355156" lon="-5.462057846249689"><ele>814.0</ele><time>2026-03-25T11:14:26.924Z</time></trkpt><trkpt lat="30.728500195564873" lon="-5.4621490268598265"><ele>813.3333333333333</ele><time>2026-03-25T11:14:27.924Z</time></trkpt><trkpt lat="30.72862960537259" lon="-5.462250359390866"><ele>812.6666666666667</ele><time>2026-03-25T11:14:28.924Z</time></trkpt><trkpt lat="30.728751887030295" lon="-5.462349560152396"><ele>812.0</ele><time>2026-03-25T11:14:29.924Z</time></trkpt><trkpt lat="30.728883549682575" lon="-5.462461667523055"><ele>812.0</ele><time>2026-03-25T11:14:30.924Z</time></trkpt><trkpt lat="30.72901966178865" lon="-5.462576374404417"><ele>812.0</ele><time>2026-03-25T11:14:31.924Z</time></trkpt><trkpt lat="30.729084625161402" lon="-5.46277960713882"><ele>812.0</ele><time>2026-03-25T11:14:32.924Z</time></trkpt><trkpt lat="30.729202823032526" lon="-5.462870988129581"><ele>812.0</ele><time>2026-03-25T11:14:33.924Z</time></trkpt><trkpt lat="30.729305940603194" lon="-5.462950710235283"><ele>812.0</ele><time>2026-03-25T11:14:34.924Z</time></trkpt><trkpt lat="30.729403675816883" lon="-5.463026271249578"><ele>812.0</ele><time>2026-03-25T11:14:35.924Z</time></trkpt><trkpt lat="30.729491627950786" lon="-5.463093947648499"><ele>812.0</ele><time>2026-03-25T11:14:36.924Z</time></trkpt><trkpt lat="30.729578142949638" lon="-5.463160480745356"><ele>812.25</ele><time>2026-03-25T11:14:37.924Z</time></trkpt><trkpt lat="30.729668629565644" lon="-5.4632304941395615"><ele>812.5</ele><time>2026-03-25T11:14:38.924Z</time></trkpt><trkpt lat="30.729768527933402" lon="-5.463307789767224"><ele>812.75</ele><time>2026-03-25T11:14:39.924Z</time></trkpt><trkpt lat="30.72987238666545" lon="-5.463388149790957"><ele>813.0</ele><time>2026-03-25T11:14:40.924Z</time></trkpt><trkpt lat="30.72995721224177" lon="-5.463475124865521"><ele>813.0</ele><time>2026-03-25T11:14:41.923Z</time></trkpt><trkpt lat="30.73006121883499" lon="-5.463547378601943"><ele>813.0</ele><time>2026-03-25T11:14:42.923Z</time></trkpt><trkpt lat="30.730160081278285" lon="-5.463620731681919"><ele>813.0</ele><time>2026-03-25T11:14:43.923Z</time></trkpt><trkpt lat="30.7302581304952" lon="-5.463703800046578"><ele>813.0</ele><time>2026-03-25T11:14:44.923Z</time></trkpt><trkpt lat="30.730363229383112" lon="-5.463767319098997"><ele>813.25</ele><time>2026-03-25T11:14:45.923Z</time></trkpt><trkpt lat="30.73046411211714" lon="-5.463845855831004"><ele>813.5</ele><time>2026-03-25T11:14:46.923Z</time></trkpt><trkpt lat="30.730564879261774" lon="-5.463922584055616"><ele>813.75</ele><time>2026-03-25T11:14:47.923Z</time></trkpt><trkpt lat="30.73065481112353" lon="-5.464029316594845"><ele>814.0</ele><time>2026-03-25T11:14:48.923Z</time></trkpt><trkpt lat="30.730780118717316" lon="-5.4640865178564395"><ele>814.0</ele><time>2026-03-25T11:14:49.923Z</time></trkpt><trkpt lat="30.730910641414823" lon="-5.464153667090621"><ele>814.0</ele><time>2026-03-25T11:14:50.923Z</time></trkpt><trkpt lat="30.73103466269457" lon="-5.464248971419284"><ele>814.0</ele><time>2026-03-25T11:14:51.923Z</time></trkpt><trkpt lat="30.731146558915363" lon="-5.464335785174679"><ele>814.0</ele><time>2026-03-25T11:14:52.923Z</time></trkpt><trkpt lat="30.73126575362808" lon="-5.464403647763161"><ele>814.0</ele><time>2026-03-25T11:14:53.923Z</time></trkpt><trkpt lat="30.73140026572369" lon="-5.464465419749566"><ele>814.0</ele><time>2026-03-25T11:14:54.923Z</time></trkpt><trkpt lat="30.73154698185179" lon="-5.464532757784606"><ele>814.0</ele><time>2026-03-25T11:14:55.923Z</time></trkpt><trkpt lat="30.731687010629976" lon="-5.464612745295586"><ele>814.25</ele><time>2026-03-25T11:14:56.923Z</time></trkpt><trkpt lat="30.731806451554423" lon="-5.464702352410411"><ele>814.5</ele><time>2026-03-25T11:14:57.923Z</time></trkpt><trkpt lat="30.73192545384065" lon="-5.4648077668671196"><ele>814.75</ele><time>2026-03-25T11:14:58.923Z</time></trkpt><trkpt lat="30.732028245635973" lon="-5.464910841506788"><ele>815.0</ele><time>2026-03-25T11:14:59.923Z</time></trkpt><trkpt lat="30.732138475731258" lon="-5.465006426192672"><ele>815.3333333333334</ele><time>2026-03-25T11:15:00.923Z</time></trkpt><trkpt lat="30.732275597645884" lon="-5.4650704019636756"><ele>815.6666666666667</ele><time>2026-03-25T11:15:01.923Z</time></trkpt><trkpt lat="30.73244850692627" lon="-5.4651117702259135"><ele>816.0</ele><time>2026-03-25T11:15:02.923Z</time></trkpt><trkpt lat="30.73261265035626" lon="-5.465172891087189"><ele>816.3333333333333</ele><time>2026-03-25T11:15:03.923Z</time></trkpt><trkpt lat="30.732756397862108" lon="-5.465240361756623"><ele>816.6666666666666</ele><time>2026-03-25T11:15:04.923Z</time></trkpt><trkpt lat="30.7328964805323" lon="-5.465319805081476"><ele>817.0</ele><time>2026-03-25T11:15:05.923Z</time></trkpt><trkpt lat="30.733031598660265" lon="-5.4653933822451375"><ele>817.0</ele><time>2026-03-25T11:15:06.923Z</time></trkpt><trkpt lat="30.7331557524399" lon="-5.465464155287045"><ele>817.0</ele><time>2026-03-25T11:15:07.923Z</time></trkpt><trkpt lat="30.733275571149463" lon="-5.465524817867162"><ele>817.0</ele><time>2026-03-25T11:15:08.923Z</time></trkpt><trkpt lat="30.733392520993394" lon="-5.465592253637204"><ele>817.0</ele><time>2026-03-25T11:15:09.923Z</time></trkpt><trkpt lat="30.733514284572617" lon="-5.465652159391287"><ele>817.2</ele><time>2026-03-25T11:15:10.923Z</time></trkpt><trkpt lat="30.733628695838043" lon="-5.465708966090969"><ele>817.4000000000001</ele><time>2026-03-25T11:15:11.923Z</time></trkpt><trkpt lat="30.733721104165465" lon="-5.46574961498159"><ele>817.5999999999999</ele><time>2026-03-25T11:15:12.923Z</time></trkpt><trkpt lat="30.73379872674583" lon="-5.465784654656336"><ele>817.8</ele><time>2026-03-25T11:15:13.923Z</time></trkpt><trkpt lat="30.733868320988535" lon="-5.465818080611784"><ele>818.0</ele><time>2026-03-25T11:15:14.923Z</time></trkpt><trkpt lat="30.733936559078423" lon="-5.4658584815214395"><ele>818.0</ele><time>2026-03-25T11:15:15.923Z</time></trkpt><trkpt lat="30.734017346385766" lon="-5.465907268001289"><ele>818.0</ele><time>2026-03-25T11:15:16.923Z</time></trkpt><trkpt lat="30.734099397442066" lon="-5.465959484771765"><ele>818.0</ele><time>2026-03-25T11:15:17.923Z</time></trkpt><trkpt lat="30.734184649319744" lon="-5.466018478552708"><ele>818.0</ele><time>2026-03-25T11:15:18.923Z</time></trkpt><trkpt lat="30.73427185148932" lon="-5.4660806578134915"><ele>818.0</ele><time>2026-03-25T11:15:19.923Z</time></trkpt><trkpt lat="30.734356562917093" lon="-5.46614072461725"><ele>818.2</ele><time>2026-03-25T11:15:20.923Z</time></trkpt><trkpt lat="30.734441332208352" lon="-5.466201565681349"><ele>818.4</ele><time>2026-03-25T11:15:21.923Z</time></trkpt><trkpt lat="30.734537901986826" lon="-5.466262293732614"><ele>818.6</ele><time>2026-03-25T11:15:22.923Z</time></trkpt><trkpt lat="30.73463513847425" lon="-5.466326937860842"><ele>818.8000000000001</ele><time>2026-03-25T11:15:23.923Z</time></trkpt><trkpt lat="30.734707504245435" lon="-5.466378320972758"><ele>819.0</ele><time>2026-03-25T11:15:24.923Z</time></trkpt><trkpt lat="30.734773767304546" lon="-5.466413973789798"><ele>819.1666666666666</ele><time>2026-03-25T11:15:25.923Z</time></trkpt><trkpt lat="30.734842017913568" lon="-5.466394806804265"><ele>819.3333333333333</ele><time>2026-03-25T11:15:26.923Z</time></trkpt><trkpt lat="30.73493332992099" lon="-5.466454139967753"><ele>819.5</ele><time>2026-03-25T11:15:28.923Z</time></trkpt><trkpt lat="30.734991044930563" lon="-5.4665099831283905"><ele>819.6666666666666</ele><time>2026-03-25T11:15:30.923Z</time></trkpt><trkpt lat="30.735055228939128" lon="-5.4665558892647805"><ele>819.8333333333333</ele><time>2026-03-25T11:15:32.923Z</time></trkpt><trkpt lat="30.735119747269284" lon="-5.46658952475247"><ele>820.0</ele><time>2026-03-25T11:15:34.923Z</time></trkpt><trkpt lat="30.735185061292615" lon="-5.466649540462432"><ele>820.0</ele><time>2026-03-25T11:15:36.923Z</time></trkpt><trkpt lat="30.735314971130304" lon="-5.466257206313985"><ele>820.0</ele><time>2026-03-25T11:15:41.923Z</time></trkpt><trkpt lat="30.73530009022256" lon="-5.466115941447159"><ele>820.0</ele><time>2026-03-25T11:15:42.923Z</time></trkpt><trkpt lat="30.735265284078565" lon="-5.465935634853301"><ele>820.0</ele><time>2026-03-25T11:15:43.923Z</time></trkpt><trkpt lat="30.735219157736438" lon="-5.465757806360529"><ele>820.0</ele><time>2026-03-25T11:15:44.923Z</time></trkpt><trkpt lat="30.73517878618044" lon="-5.465595434011879"><ele>819.75</ele><time>2026-03-25T11:15:45.923Z</time></trkpt><trkpt lat="30.735137912238834" lon="-5.465448594238364"><ele>819.5</ele><time>2026-03-25T11:15:46.923Z</time></trkpt><trkpt lat="30.735107932188427" lon="-5.465298959746562"><ele>819.25</ele><time>2026-03-25T11:15:47.923Z</time></trkpt><trkpt lat="30.735077181911358" lon="-5.465138872520579"><ele>819.0</ele><time>2026-03-25T11:15:48.923Z</time></trkpt><trkpt lat="30.734925155331798" lon="-5.465031727907717"><ele>818.5</ele><time>2026-03-25T11:15:49.923Z</time></trkpt><trkpt lat="30.73486425266788" lon="-5.464877834947552"><ele>818.0</ele><time>2026-03-25T11:15:50.923Z</time></trkpt><trkpt lat="30.734805787842905" lon="-5.464732230394754"><ele>817.5</ele><time>2026-03-25T11:15:51.923Z</time></trkpt><trkpt lat="30.734751054269857" lon="-5.464595918418124"><ele>817.0</ele><time>2026-03-25T11:15:52.923Z</time></trkpt><trkpt lat="30.734694267927164" lon="-5.464454494089766"><ele>817.0</ele><time>2026-03-25T11:15:53.923Z</time></trkpt><trkpt lat="30.7346400183704" lon="-5.464319387458925"><ele>817.0</ele><time>2026-03-25T11:15:54.923Z</time></trkpt><trkpt lat="30.73459212939808" lon="-5.464218413924672"><ele>817.0</ele><time>2026-03-25T11:15:55.924Z</time></trkpt><trkpt lat="30.734529231307977" lon="-5.46409456648372"><ele>817.0</ele><time>2026-03-25T11:15:56.923Z</time></trkpt><trkpt lat="30.73476385981277" lon="-5.463773730927355"><ele>816.6666666666666</ele><time>2026-03-25T11:15:57.923Z</time></trkpt><trkpt lat="30.73473139690366" lon="-5.463642884140805"><ele>816.3333333333333</ele><time>2026-03-25T11:15:58.923Z</time></trkpt><trkpt lat="30.734708715960974" lon="-5.463510728834756"><ele>816.0</ele><time>2026-03-25T11:15:59.923Z</time></trkpt><trkpt lat="30.734285767054125" lon="-5.463614500743461"><ele>815.75</ele><time>2026-03-25T11:16:00.923Z</time></trkpt><trkpt lat="30.73422815331226" lon="-5.463492583112649"><ele>815.5</ele><time>2026-03-25T11:16:01.923Z</time></trkpt><trkpt lat="30.734168748074605" lon="-5.4633665944218075"><ele>815.25</ele><time>2026-03-25T11:16:02.923Z</time></trkpt><trkpt lat="30.734102614248826" lon="-5.463226324690694"><ele>815.0</ele><time>2026-03-25T11:16:03.923Z</time></trkpt><trkpt lat="30.73404436348294" lon="-5.463102774815901"><ele>815.0</ele><time>2026-03-25T11:16:04.923Z</time></trkpt><trkpt lat="30.733993096484483" lon="-5.462994037621074"><ele>815.0</ele><time>2026-03-25T11:16:05.923Z</time></trkpt><trkpt lat="30.733908259449265" lon="-5.462809838109776"><ele>815.0</ele><time>2026-03-25T11:16:06.923Z</time></trkpt><trkpt lat="30.73386776991928" lon="-5.4626893224448505"><ele>815.0</ele><time>2026-03-25T11:16:07.923Z</time></trkpt><trkpt lat="30.733857703902753" lon="-5.462557213925742"><ele>815.25</ele><time>2026-03-25T11:16:08.923Z</time></trkpt><trkpt lat="30.73384491927257" lon="-5.462411207084118"><ele>815.5</ele><time>2026-03-25T11:16:09.923Z</time></trkpt><trkpt lat="30.7338328073375" lon="-5.4622648697480845"><ele>815.75</ele><time>2026-03-25T11:16:10.923Z</time></trkpt><trkpt lat="30.733822890818402" lon="-5.462124617735997"><ele>816.0</ele><time>2026-03-25T11:16:11.923Z</time></trkpt><trkpt lat="30.7338114519763" lon="-5.461976604646383"><ele>816.6666666666667</ele><time>2026-03-25T11:16:12.923Z</time></trkpt><trkpt lat="30.733799180587862" lon="-5.461819612081572"><ele>817.3333333333334</ele><time>2026-03-25T11:16:13.923Z</time></trkpt><trkpt lat="30.733784565832085" lon="-5.461649611558816"><ele>818.0</ele><time>2026-03-25T11:16:14.923Z</time></trkpt><trkpt lat="30.733761534043694" lon="-5.4614505625806595"><ele>817.6666666666667</ele><time>2026-03-25T11:16:15.923Z</time></trkpt><trkpt lat="30.733748523238507" lon="-5.461277287525851"><ele>817.3333333333333</ele><time>2026-03-25T11:16:16.923Z</time></trkpt><trkpt lat="30.733732656617185" lon="-5.4611011141873345"><ele>817.0</ele><time>2026-03-25T11:16:17.923Z</time></trkpt><trkpt lat="30.73372069831064" lon="-5.460928917767634"><ele>817.0</ele><time>2026-03-25T11:16:18.923Z</time></trkpt><trkpt lat="30.733710689804752" lon="-5.460759905283461"><ele>817.0</ele><time>2026-03-25T11:16:19.923Z</time></trkpt><trkpt lat="30.733696599789084" lon="-5.460587417129637"><ele>817.0</ele><time>2026-03-25T11:16:20.923Z</time></trkpt><trkpt lat="30.73369440038435" lon="-5.460425231875553"><ele>817.0</ele><time>2026-03-25T11:16:21.923Z</time></trkpt><trkpt lat="30.733872285483656" lon="-5.460161609153399"><ele>816.75</ele><time>2026-03-25T11:16:22.923Z</time></trkpt><trkpt lat="30.733826781989684" lon="-5.460011605819293"><ele>816.5</ele><time>2026-03-25T11:16:23.923Z</time></trkpt><trkpt lat="30.733776698501668" lon="-5.459862158654068"><ele>816.25</ele><time>2026-03-25T11:16:24.923Z</time></trkpt><trkpt lat="30.73372011081391" lon="-5.459713694671033"><ele>816.0</ele><time>2026-03-25T11:16:25.923Z</time></trkpt><trkpt lat="30.73366323897165" lon="-5.4595601303839905"><ele>815.6666666666667</ele><time>2026-03-25T11:16:26.923Z</time></trkpt><trkpt lat="30.73360553391996" lon="-5.459399424728426"><ele>815.3333333333334</ele><time>2026-03-25T11:16:27.923Z</time></trkpt><trkpt lat="30.733541243437674" lon="-5.459235937597422"><ele>815.0</ele><time>2026-03-25T11:16:28.923Z</time></trkpt><trkpt lat="30.73348591530398" lon="-5.459069780022307"><ele>815.0</ele><time>2026-03-25T11:16:29.923Z</time></trkpt><trkpt lat="30.733422279032407" lon="-5.4589090588701685"><ele>815.0</ele><time>2026-03-25T11:16:30.923Z</time></trkpt><trkpt lat="30.733365654461537" lon="-5.4587476488260585"><ele>815.0</ele><time>2026-03-25T11:16:31.923Z</time></trkpt><trkpt lat="30.733302407738044" lon="-5.45857287209835"><ele>815.0</ele><time>2026-03-25T11:16:32.923Z</time></trkpt><trkpt lat="30.73324016847539" lon="-5.45839764406221"><ele>815.0</ele><time>2026-03-25T11:16:33.923Z</time></trkpt><trkpt lat="30.733183486385315" lon="-5.45823165802465"><ele>815.0</ele><time>2026-03-25T11:16:34.923Z</time></trkpt><trkpt lat="30.733130854863813" lon="-5.458068137862344"><ele>814.5</ele><time>2026-03-25T11:16:35.923Z</time></trkpt><trkpt lat="30.7330808283506" lon="-5.457907540726857"><ele>814.0</ele><time>2026-03-25T11:16:36.923Z</time></trkpt><trkpt lat="30.73303410989666" lon="-5.457749803314949"><ele>813.5</ele><time>2026-03-25T11:16:37.923Z</time></trkpt><trkpt lat="30.732994153193488" lon="-5.457594147504217"><ele>813.0</ele><time>2026-03-25T11:16:38.923Z</time></trkpt><trkpt lat="30.732960117071137" lon="-5.457449272030981"><ele>813.0</ele><time>2026-03-25T11:16:39.923Z</time></trkpt><trkpt lat="30.73291626109085" lon="-5.457305374812202"><ele>813.0</ele><time>2026-03-25T11:16:40.923Z</time></trkpt><trkpt lat="30.7328646652075" lon="-5.457154877380584"><ele>813.0</ele><time>2026-03-25T11:16:41.923Z</time></trkpt><trkpt lat="30.732815585611764" lon="-5.456994680410553"><ele>813.0</ele><time>2026-03-25T11:16:42.923Z</time></trkpt><trkpt lat="30.73276310338675" lon="-5.456837675881731"><ele>813.6666666666667</ele><time>2026-03-25T11:16:43.923Z</time></trkpt><trkpt lat="30.73271479811692" lon="-5.456673449089263"><ele>814.3333333333334</ele><time>2026-03-25T11:16:44.923Z</time></trkpt><trkpt lat="30.73266820201014" lon="-5.456500757954504"><ele>815.0</ele><time>2026-03-25T11:16:45.923Z</time></trkpt><trkpt lat="30.73261284841124" lon="-5.456331751950442"><ele>814.3333333333334</ele><time>2026-03-25T11:16:46.923Z</time></trkpt><trkpt lat="30.732560703216528" lon="-5.4561609858768"><ele>813.6666666666667</ele><time>2026-03-25T11:16:47.923Z</time></trkpt><trkpt lat="30.732507382942423" lon="-5.455993965355116"><ele>813.0</ele><time>2026-03-25T11:16:48.923Z</time></trkpt><trkpt lat="30.73245643797997" lon="-5.455815590784442"><ele>813.0</ele><time>2026-03-25T11:16:49.923Z</time></trkpt><trkpt lat="30.73240369398473" lon="-5.455638019594645"><ele>813.0</ele><time>2026-03-25T11:16:50.923Z</time></trkpt><trkpt lat="30.732356215420694" lon="-5.455465261503441"><ele>813.0</ele><time>2026-03-25T11:16:51.923Z</time></trkpt><trkpt lat="30.73230119339572" lon="-5.455293330937732"><ele>813.0</ele><time>2026-03-25T11:16:52.923Z</time></trkpt><trkpt lat="30.732240148836677" lon="-5.455114338395478"><ele>813.0</ele><time>2026-03-25T11:16:53.923Z</time></trkpt><trkpt lat="30.732181593612736" lon="-5.454929298313054"><ele>813.0</ele><time>2026-03-25T11:16:54.923Z</time></trkpt><trkpt lat="30.732126884382918" lon="-5.454748907880647"><ele>814.0</ele><time>2026-03-25T11:16:55.923Z</time></trkpt><trkpt lat="30.732067049835845" lon="-5.454562137435718"><ele>815.0</ele><time>2026-03-25T11:16:56.923Z</time></trkpt><trkpt lat="30.732016551329107" lon="-5.454388231511084"><ele>816.0</ele><time>2026-03-25T11:16:57.923Z</time></trkpt><trkpt lat="30.731961669779675" lon="-5.454218181521706"><ele>816.0</ele><time>2026-03-25T11:16:58.923Z</time></trkpt><trkpt lat="30.731914865539117" lon="-5.454058336907431"><ele>816.0</ele><time>2026-03-25T11:16:59.923Z</time></trkpt><trkpt lat="30.731871590169654" lon="-5.453894927087891"><ele>816.0</ele><time>2026-03-25T11:17:00.923Z</time></trkpt><trkpt lat="30.73181319746805" lon="-5.453719775155773"><ele>813.3333333333333</ele><time>2026-03-25T11:17:01.923Z</time></trkpt><trkpt lat="30.731756623935564" lon="-5.453540667125209"><ele>810.6666666666666</ele><time>2026-03-25T11:17:02.923Z</time></trkpt><trkpt lat="30.731702163824" lon="-5.453357864506363"><ele>808.0</ele><time>2026-03-25T11:17:03.923Z</time></trkpt><trkpt lat="30.731655083060144" lon="-5.453178652942151"><ele>808.0</ele><time>2026-03-25T11:17:04.923Z</time></trkpt><trkpt lat="30.73160711855273" lon="-5.453008686375932"><ele>808.0</ele><time>2026-03-25T11:17:05.923Z</time></trkpt><trkpt lat="30.73156408659463" lon="-5.452837995895059"><ele>808.0</ele><time>2026-03-25T11:17:06.923Z</time></trkpt><trkpt lat="30.731524536274698" lon="-5.4526638032000925"><ele>807.6666666666666</ele><time>2026-03-25T11:17:07.923Z</time></trkpt><trkpt lat="30.73147830163398" lon="-5.452494255517309"><ele>807.3333333333333</ele><time>2026-03-25T11:17:08.923Z</time></trkpt><trkpt lat="30.7314247710253" lon="-5.452328245664268"><ele>807.0</ele><time>2026-03-25T11:17:09.923Z</time></trkpt><trkpt lat="30.731372597763322" lon="-5.452167879467816"><ele>807.0</ele><time>2026-03-25T11:17:10.923Z</time></trkpt><trkpt lat="30.73132738621246" lon="-5.4520207634814914"><ele>807.0</ele><time>2026-03-25T11:17:11.923Z</time></trkpt><trkpt lat="30.731288135768025" lon="-5.45186362470113"><ele>807.0</ele><time>2026-03-25T11:17:12.923Z</time></trkpt><trkpt lat="30.731257754525803" lon="-5.451707829849299"><ele>807.0</ele><time>2026-03-25T11:17:13.923Z</time></trkpt><trkpt lat="30.731238060516848" lon="-5.451550401845751"><ele>807.0</ele><time>2026-03-25T11:17:14.923Z</time></trkpt><trkpt lat="30.73122123017939" lon="-5.451394315630628"><ele>807.0</ele><time>2026-03-25T11:17:15.923Z</time></trkpt><trkpt lat="30.731201105793094" lon="-5.451230051946693"><ele>807.0</ele><time>2026-03-25T11:17:16.923Z</time></trkpt><trkpt lat="30.73118164042863" lon="-5.451061175835964"><ele>807.0</ele><time>2026-03-25T11:17:17.923Z</time></trkpt><trkpt lat="30.73116228211372" lon="-5.450902468055344"><ele>807.75</ele><time>2026-03-25T11:17:18.923Z</time></trkpt><trkpt lat="30.731141030827086" lon="-5.450766630598659"><ele>808.5</ele><time>2026-03-25T11:17:19.923Z</time></trkpt><trkpt lat="30.73112256625294" lon="-5.450635199440242"><ele>809.25</ele><time>2026-03-25T11:17:20.923Z</time></trkpt><trkpt lat="30.73109976840374" lon="-5.450500997906197"><ele>810.0</ele><time>2026-03-25T11:17:21.923Z</time></trkpt><trkpt lat="30.7310722452671" lon="-5.450353218347654"><ele>810.0</ele><time>2026-03-25T11:17:22.923Z</time></trkpt><trkpt lat="30.731034726011636" lon="-5.450192449353016"><ele>810.0</ele><time>2026-03-25T11:17:23.923Z</time></trkpt><trkpt lat="30.730996933095277" lon="-5.45001619307501"><ele>810.0</ele><time>2026-03-25T11:17:24.923Z</time></trkpt><trkpt lat="30.730954269875976" lon="-5.449860461498978"><ele>810.0</ele><time>2026-03-25T11:17:25.923Z</time></trkpt><trkpt lat="30.730919361964226" lon="-5.449715027920283"><ele>810.5</ele><time>2026-03-25T11:17:26.923Z</time></trkpt><trkpt lat="30.730882027537355" lon="-5.449568006976319"><ele>811.0</ele><time>2026-03-25T11:17:27.923Z</time></trkpt><trkpt lat="30.730848389273294" lon="-5.449421802850611"><ele>811.5</ele><time>2026-03-25T11:17:28.923Z</time></trkpt><trkpt lat="30.730824718368474" lon="-5.449278416443787"><ele>812.0</ele><time>2026-03-25T11:17:29.923Z</time></trkpt><trkpt lat="30.730787998787786" lon="-5.4491248263050185"><ele>812.0</ele><time>2026-03-25T11:17:30.923Z</time></trkpt><trkpt lat="30.730753807317793" lon="-5.448955786126292"><ele>812.0</ele><time>2026-03-25T11:17:31.923Z</time></trkpt><trkpt lat="30.730716044898735" lon="-5.448769110528422"><ele>812.0</ele><time>2026-03-25T11:17:32.923Z</time></trkpt><trkpt lat="30.730678909749493" lon="-5.448607123545754"><ele>811.3333333333334</ele><time>2026-03-25T11:17:33.923Z</time></trkpt><trkpt lat="30.730649411965448" lon="-5.448427710484747"><ele>810.6666666666667</ele><time>2026-03-25T11:17:34.923Z</time></trkpt><trkpt lat="30.73061643596271" lon="-5.448239133205281"><ele>810.0</ele><time>2026-03-25T11:17:35.923Z</time></trkpt><trkpt lat="30.73059597468132" lon="-5.448076134296925"><ele>809.75</ele><time>2026-03-25T11:17:36.923Z</time></trkpt><trkpt lat="30.73058908662281" lon="-5.44792074354837"><ele>809.5</ele><time>2026-03-25T11:17:37.923Z</time></trkpt><trkpt lat="30.73059992932131" lon="-5.447767236908068"><ele>809.25</ele><time>2026-03-25T11:17:38.923Z</time></trkpt><trkpt lat="30.730610198785627" lon="-5.44761790305145"><ele>809.0</ele><time>2026-03-25T11:17:39.923Z</time></trkpt><trkpt lat="30.73062111323288" lon="-5.447473098559915"><ele>809.0</ele><time>2026-03-25T11:17:40.923Z</time></trkpt><trkpt lat="30.730638246344412" lon="-5.4473317595968345"><ele>809.0</ele><time>2026-03-25T11:17:41.923Z</time></trkpt><trkpt lat="30.730664440299073" lon="-5.4472025941017375"><ele>809.0</ele><time>2026-03-25T11:17:42.923Z</time></trkpt><trkpt lat="30.730696805769995" lon="-5.4470721778282805"><ele>809.0</ele><time>2026-03-25T11:17:43.923Z</time></trkpt><trkpt lat="30.73073099649268" lon="-5.446946107699626"><ele>808.25</ele><time>2026-03-25T11:17:44.923Z</time></trkpt><trkpt lat="30.730762708543523" lon="-5.44681078244708"><ele>807.5</ele><time>2026-03-25T11:17:45.923Z</time></trkpt><trkpt lat="30.730800470698014" lon="-5.446663380980303"><ele>806.75</ele><time>2026-03-25T11:17:46.923Z</time></trkpt><trkpt lat="30.7308353286593" lon="-5.446523623576962"><ele>806.0</ele><time>2026-03-25T11:17:47.923Z</time></trkpt><trkpt lat="30.730877651156483" lon="-5.4463971425090225"><ele>806.5</ele><time>2026-03-25T11:17:48.923Z</time></trkpt><trkpt lat="30.730941242515897" lon="-5.446278898232947"><ele>807.0</ele><time>2026-03-25T11:17:49.923Z</time></trkpt><trkpt lat="30.73102141681944" lon="-5.446174317510559"><ele>807.5</ele><time>2026-03-25T11:17:50.923Z</time></trkpt><trkpt lat="30.731112984381372" lon="-5.446072242834218"><ele>808.0</ele><time>2026-03-25T11:17:51.923Z</time></trkpt><trkpt lat="30.731213021939226" lon="-5.445977269642025"><ele>808.0</ele><time>2026-03-25T11:17:52.923Z</time></trkpt><trkpt lat="30.731308289292272" lon="-5.445913422748903"><ele>808.0</ele><time>2026-03-25T11:17:53.923Z</time></trkpt><trkpt lat="30.73140950161741" lon="-5.445862601841036"><ele>808.0</ele><time>2026-03-25T11:17:54.923Z</time></trkpt><trkpt lat="30.731528883824545" lon="-5.445825163390195"><ele>808.0</ele><time>2026-03-25T11:17:55.923Z</time></trkpt><trkpt lat="30.731661057350504" lon="-5.445784913456024"><ele>808.0</ele><time>2026-03-25T11:17:56.923Z</time></trkpt><trkpt lat="30.731787977939934" lon="-5.44574882850814"><ele>808.0</ele><time>2026-03-25T11:17:57.923Z</time></trkpt><trkpt lat="30.731905383071833" lon="-5.4456823401731125"><ele>808.0</ele><time>2026-03-25T11:17:58.923Z</time></trkpt><trkpt lat="30.732033392465716" lon="-5.445630153162504"><ele>808.0</ele><time>2026-03-25T11:17:59.923Z</time></trkpt><trkpt lat="30.732171718781537" lon="-5.445591275053332"><ele>807.75</ele><time>2026-03-25T11:18:00.923Z</time></trkpt><trkpt lat="30.732292880680745" lon="-5.445536957451193"><ele>807.5</ele><time>2026-03-25T11:18:01.923Z</time></trkpt><trkpt lat="30.73241401283237" lon="-5.445493023010848"><ele>807.25</ele><time>2026-03-25T11:18:02.923Z</time></trkpt><trkpt lat="30.732523347777846" lon="-5.445427462733759"><ele>807.0</ele><time>2026-03-25T11:18:03.923Z</time></trkpt><trkpt lat="30.732633110869333" lon="-5.445379818948498"><ele>806.2</ele><time>2026-03-25T11:18:04.922Z</time></trkpt><trkpt lat="30.732734489699286" lon="-5.445335814491392"><ele>805.4000000000001</ele><time>2026-03-25T11:18:05.923Z</time></trkpt><trkpt lat="30.73284377187441" lon="-5.445307974921592"><ele>804.5999999999999</ele><time>2026-03-25T11:18:06.923Z</time></trkpt><trkpt lat="30.732930127190226" lon="-5.445267563707175"><ele>803.8</ele><time>2026-03-25T11:18:07.923Z</time></trkpt><trkpt lat="30.733015628368435" lon="-5.445228163220379"><ele>803.0</ele><time>2026-03-25T11:18:08.923Z</time></trkpt><trkpt lat="30.7331019482295" lon="-5.4452112925066825"><ele>803.0</ele><time>2026-03-25T11:18:09.923Z</time></trkpt><trkpt lat="30.733183885369833" lon="-5.445140491185645"><ele>803.0</ele><time>2026-03-25T11:18:10.923Z</time></trkpt><trkpt lat="30.73323399807827" lon="-5.4450580526665195"><ele>803.0</ele><time>2026-03-25T11:18:11.923Z</time></trkpt><trkpt lat="30.733320761835785" lon="-5.444989364270403"><ele>803.0</ele><time>2026-03-25T11:18:12.923Z</time></trkpt><trkpt lat="30.733408029069864" lon="-5.4448915341576685"><ele>803.0</ele><time>2026-03-25T11:18:13.923Z</time></trkpt><trkpt lat="30.73349116474908" lon="-5.444774157248509"><ele>801.0</ele><time>2026-03-25T11:18:14.923Z</time></trkpt><trkpt lat="30.7335908290934" lon="-5.444685995397857"><ele>799.0</ele><time>2026-03-25T11:18:15.923Z</time></trkpt><trkpt lat="30.733679316064602" lon="-5.444607459093375"><ele>797.0</ele><time>2026-03-25T11:18:16.923Z</time></trkpt><trkpt lat="30.73376872243776" lon="-5.444528140782841"><ele>795.0</ele><time>2026-03-25T11:18:17.923Z</time></trkpt><trkpt lat="30.733876975940102" lon="-5.444432434079757"><ele>795.0</ele><time>2026-03-25T11:18:18.923Z</time></trkpt><trkpt lat="30.733993807347098" lon="-5.444328862848111"><ele>795.0</ele><time>2026-03-25T11:18:19.923Z</time></trkpt><trkpt lat="30.734110368396085" lon="-5.444227721458602"><ele>795.0</ele><time>2026-03-25T11:18:20.923Z</time></trkpt><trkpt lat="30.734223394812435" lon="-5.4441306565417555"><ele>795.0</ele><time>2026-03-25T11:18:21.923Z</time></trkpt><trkpt lat="30.73435779780943" lon="-5.444037398091069"><ele>795.0</ele><time>2026-03-25T11:18:22.923Z</time></trkpt><trkpt lat="30.734465234200787" lon="-5.44393278628331"><ele>795.0</ele><time>2026-03-25T11:18:23.923Z</time></trkpt><trkpt lat="30.73458129504715" lon="-5.443816342289056"><ele>795.0</ele><time>2026-03-25T11:18:24.923Z</time></trkpt><trkpt lat="30.73470952709298" lon="-5.443699872141533"><ele>795.0</ele><time>2026-03-25T11:18:25.923Z</time></trkpt><trkpt lat="30.734848030334152" lon="-5.443602864115303"><ele>795.0</ele><time>2026-03-25T11:18:26.922Z</time></trkpt><trkpt lat="30.734985379594058" lon="-5.443537656138041"><ele>795.0</ele><time>2026-03-25T11:18:27.922Z</time></trkpt><trkpt lat="30.73512955136113" lon="-5.443477411489447"><ele>795.75</ele><time>2026-03-25T11:18:28.922Z</time></trkpt><trkpt lat="30.735276069376592" lon="-5.443439306640758"><ele>796.5</ele><time>2026-03-25T11:18:29.922Z</time></trkpt><trkpt lat="30.735395467142716" lon="-5.443389422045804"><ele>797.25</ele><time>2026-03-25T11:18:30.922Z</time></trkpt><trkpt lat="30.73550774544625" lon="-5.443361153211749"><ele>798.0</ele><time>2026-03-25T11:18:31.922Z</time></trkpt><trkpt lat="30.73564361304224" lon="-5.443341531758936"><ele>798.0</ele><time>2026-03-25T11:18:32.922Z</time></trkpt><trkpt lat="30.73578536818806" lon="-5.4433278210584515"><ele>798.0</ele><time>2026-03-25T11:18:33.922Z</time></trkpt><trkpt lat="30.735920817839755" lon="-5.443307685347552"><ele>798.0</ele><time>2026-03-25T11:18:34.922Z</time></trkpt><trkpt lat="30.736055183601465" lon="-5.443287832264001"><ele>798.0</ele><time>2026-03-25T11:18:35.922Z</time></trkpt><trkpt lat="30.73618748300479" lon="-5.443256821276394"><ele>797.75</ele><time>2026-03-25T11:18:36.922Z</time></trkpt><trkpt lat="30.736325836943664" lon="-5.443226018219108"><ele>797.5</ele><time>2026-03-25T11:18:37.922Z</time></trkpt><trkpt lat="30.73646279711412" lon="-5.443195625733171"><ele>797.25</ele><time>2026-03-25T11:18:38.922Z</time></trkpt><trkpt lat="30.736595700733005" lon="-5.443171984880062"><ele>797.0</ele><time>2026-03-25T11:18:39.922Z</time></trkpt><trkpt lat="30.736725798047583" lon="-5.443149980244768"><ele>797.0</ele><time>2026-03-25T11:18:40.922Z</time></trkpt><trkpt lat="30.736857663984406" lon="-5.443125378467824"><ele>797.0</ele><time>2026-03-25T11:18:41.922Z</time></trkpt><trkpt lat="30.737003639942795" lon="-5.443089993950777"><ele>797.0</ele><time>2026-03-25T11:18:42.922Z</time></trkpt><trkpt lat="30.737145012260758" lon="-5.4430435969030375"><ele>797.0</ele><time>2026-03-25T11:18:43.922Z</time></trkpt><trkpt lat="30.737277128577905" lon="-5.442994033654639"><ele>796.25</ele><time>2026-03-25T11:18:44.922Z</time></trkpt><trkpt lat="30.737405753729135" lon="-5.4429389461205595"><ele>795.5</ele><time>2026-03-25T11:18:45.922Z</time></trkpt><trkpt lat="30.73752950687839" lon="-5.442874026318781"><ele>794.75</ele><time>2026-03-25T11:18:46.922Z</time></trkpt><trkpt lat="30.737654285538852" lon="-5.442808012596621"><ele>794.0</ele><time>2026-03-25T11:18:47.922Z</time></trkpt><trkpt lat="30.73778579230992" lon="-5.442741515058678"><ele>794.0</ele><time>2026-03-25T11:18:48.922Z</time></trkpt><trkpt lat="30.737924219506375" lon="-5.442676282858526"><ele>794.0</ele><time>2026-03-25T11:18:49.922Z</time></trkpt><trkpt lat="30.738055268869847" lon="-5.442601935666964"><ele>794.0</ele><time>2026-03-25T11:18:50.922Z</time></trkpt><trkpt lat="30.738190358336738" lon="-5.442530516294617"><ele>794.0</ele><time>2026-03-25T11:18:51.922Z</time></trkpt><trkpt lat="30.738323758319343" lon="-5.4424611032788865"><ele>794.0</ele><time>2026-03-25T11:18:52.922Z</time></trkpt><trkpt lat="30.738447916591184" lon="-5.4423851593706045"><ele>794.0</ele><time>2026-03-25T11:18:53.922Z</time></trkpt><trkpt lat="30.73857419436977" lon="-5.442314909157689"><ele>794.0</ele><time>2026-03-25T11:18:54.922Z</time></trkpt><trkpt lat="30.738708032379023" lon="-5.4422344188417595"><ele>794.0</ele><time>2026-03-25T11:18:55.922Z</time></trkpt><trkpt lat="30.738845568545855" lon="-5.442153481676601"><ele>794.0</ele><time>2026-03-25T11:18:56.922Z</time></trkpt><trkpt lat="30.738983339064617" lon="-5.442080246981409"><ele>794.0</ele><time>2026-03-25T11:18:57.922Z</time></trkpt><trkpt lat="30.739127386598792" lon="-5.442005935982996"><ele>794.0</ele><time>2026-03-25T11:18:58.922Z</time></trkpt><trkpt lat="30.73927125350776" lon="-5.441938296989494"><ele>794.3333333333334</ele><time>2026-03-25T11:18:59.922Z</time></trkpt><trkpt lat="30.739417210352926" lon="-5.441867830928532"><ele>794.6666666666667</ele><time>2026-03-25T11:19:00.922Z</time></trkpt><trkpt lat="30.7395693867313" lon="-5.44179527914375"><ele>795.0</ele><time>2026-03-25T11:19:01.922Z</time></trkpt><trkpt lat="30.73973603347496" lon="-5.441717112550037"><ele>795.0</ele><time>2026-03-25T11:19:02.922Z</time></trkpt><trkpt lat="30.739915279521743" lon="-5.441633081234057"><ele>795.0</ele><time>2026-03-25T11:19:03.922Z</time></trkpt><trkpt lat="30.74008858758232" lon="-5.441549993022642"><ele>795.0</ele><time>2026-03-25T11:19:04.922Z</time></trkpt><trkpt lat="30.740248945100277" lon="-5.441475047436609"><ele>796.0</ele><time>2026-03-25T11:19:05.922Z</time></trkpt><trkpt lat="30.74039931290682" lon="-5.441405251501382"><ele>797.0</ele><time>2026-03-25T11:19:06.922Z</time></trkpt><trkpt lat="30.740551518702304" lon="-5.441349390109924"><ele>798.0</ele><time>2026-03-25T11:19:07.922Z</time></trkpt><trkpt lat="30.74070397505559" lon="-5.441299320958228"><ele>797.6666666666667</ele><time>2026-03-25T11:19:08.922Z</time></trkpt><trkpt lat="30.7408650743418" lon="-5.441256264153202"><ele>797.3333333333334</ele><time>2026-03-25T11:19:09.922Z</time></trkpt><trkpt lat="30.74100818679806" lon="-5.4412208777034055"><ele>797.0</ele><time>2026-03-25T11:19:10.922Z</time></trkpt><trkpt lat="30.741143851961937" lon="-5.441186199449227"><ele>797.0</ele><time>2026-03-25T11:19:11.922Z</time></trkpt><trkpt lat="30.741280428591192" lon="-5.441168071861115"><ele>797.0</ele><time>2026-03-25T11:19:12.922Z</time></trkpt><trkpt lat="30.74140646939564" lon="-5.4411605508472585"><ele>797.0</ele><time>2026-03-25T11:19:13.922Z</time></trkpt><trkpt lat="30.741518171575525" lon="-5.441167606902051"><ele>797.0</ele><time>2026-03-25T11:19:14.922Z</time></trkpt><trkpt lat="30.741629281242748" lon="-5.44120590223266"><ele>797.0</ele><time>2026-03-25T11:19:15.922Z</time></trkpt><trkpt lat="30.74175722754768" lon="-5.441258293844789"><ele>797.0</ele><time>2026-03-25T11:19:16.922Z</time></trkpt><trkpt lat="30.741881517377188" lon="-5.4413331951225885"><ele>797.0</ele><time>2026-03-25T11:19:17.922Z</time></trkpt><trkpt lat="30.742019690507366" lon="-5.441404063313363"><ele>797.0</ele><time>2026-03-25T11:19:18.922Z</time></trkpt><trkpt lat="30.742167007549394" lon="-5.4414662870561985"><ele>798.25</ele><time>2026-03-25T11:19:19.922Z</time></trkpt><trkpt lat="30.74229941224516" lon="-5.441515928135926"><ele>799.5</ele><time>2026-03-25T11:19:20.922Z</time></trkpt><trkpt lat="30.742410293816476" lon="-5.441556382725464"><ele>800.75</ele><time>2026-03-25T11:19:21.922Z</time></trkpt><trkpt lat="30.74252229813847" lon="-5.441583188852068"><ele>802.0</ele><time>2026-03-25T11:19:22.922Z</time></trkpt><trkpt lat="30.74263334989504" lon="-5.441586933029704"><ele>802.0</ele><time>2026-03-25T11:19:23.922Z</time></trkpt><trkpt lat="30.742749927541066" lon="-5.441566732058537"><ele>802.0</ele><time>2026-03-25T11:19:24.922Z</time></trkpt><trkpt lat="30.742882028009" lon="-5.441513995061373"><ele>802.0</ele><time>2026-03-25T11:19:25.922Z</time></trkpt><trkpt lat="30.743032335290266" lon="-5.441457467927059"><ele>802.0</ele><time>2026-03-25T11:19:26.922Z</time></trkpt><trkpt lat="30.743201452726122" lon="-5.4414145320741"><ele>802.0</ele><time>2026-03-25T11:19:27.922Z</time></trkpt><trkpt lat="30.74337051736259" lon="-5.441370981730386"><ele>802.0</ele><time>2026-03-25T11:19:28.922Z</time></trkpt><trkpt lat="30.743512274249355" lon="-5.441329717180027"><ele>802.0</ele><time>2026-03-25T11:19:29.922Z</time></trkpt><trkpt lat="30.743625918067394" lon="-5.441300102655544"><ele>802.0</ele><time>2026-03-25T11:19:30.922Z</time></trkpt><trkpt lat="30.7437247662435" lon="-5.441278609787293"><ele>801.8</ele><time>2026-03-25T11:19:31.922Z</time></trkpt><trkpt lat="30.743821760115665" lon="-5.44125036271675"><ele>801.6</ele><time>2026-03-25T11:19:32.922Z</time></trkpt><trkpt lat="30.743921414806024" lon="-5.441225501526263"><ele>801.4</ele><time>2026-03-25T11:19:33.922Z</time></trkpt><trkpt lat="30.744031585928795" lon="-5.441193519426896"><ele>801.1999999999999</ele><time>2026-03-25T11:19:34.922Z</time></trkpt><trkpt lat="30.74414419394194" lon="-5.44116665681344"><ele>801.0</ele><time>2026-03-25T11:19:35.922Z</time></trkpt><trkpt lat="30.744248554681846" lon="-5.441146608578608"><ele>801.0</ele><time>2026-03-25T11:19:36.922Z</time></trkpt><trkpt lat="30.744342354032213" lon="-5.44112397848539"><ele>801.0</ele><time>2026-03-25T11:19:37.922Z</time></trkpt><trkpt lat="30.744428009712482" lon="-5.441107487844052"><ele>801.0</ele><time>2026-03-25T11:19:38.922Z</time></trkpt><trkpt lat="30.744512221477436" lon="-5.44108726454498"><ele>801.0</ele><time>2026-03-25T11:19:39.922Z</time></trkpt><trkpt lat="30.744587933735524" lon="-5.441074233967566"><ele>801.0</ele><time>2026-03-25T11:19:40.922Z</time></trkpt><trkpt lat="30.744657466056704" lon="-5.44106275268397"><ele>801.0</ele><time>2026-03-25T11:19:41.922Z</time></trkpt><trkpt lat="30.744760705556995" lon="-5.441050571469678"><ele>801.0</ele><time>2026-03-25T11:19:43.922Z</time></trkpt><trkpt lat="30.744835749557403" lon="-5.4410404214025805"><ele>801.0</ele><time>2026-03-25T11:19:45.922Z</time></trkpt><trkpt lat="30.744913043862816" lon="-5.441021229270251"><ele>801.0</ele><time>2026-03-25T11:19:49.922Z</time></trkpt><trkpt lat="30.745073913805545" lon="-5.440992426102253"><ele>801.0</ele><time>2026-03-25T11:21:34.921Z</time></trkpt><trkpt lat="30.745144454061087" lon="-5.440976186381519"><ele>801.0</ele><time>2026-03-25T11:21:35.921Z</time></trkpt><trkpt lat="30.745225828997146" lon="-5.440966654316402"><ele>801.0</ele><time>2026-03-25T11:21:36.921Z</time></trkpt><trkpt lat="30.745318165998125" lon="-5.440958926206123"><ele>801.0</ele><time>2026-03-25T11:21:37.921Z</time></trkpt><trkpt lat="30.745444889054315" lon="-5.440947741351806"><ele>801.0</ele><time>2026-03-25T11:21:38.921Z</time></trkpt><trkpt lat="30.745597854035605" lon="-5.440921278722137"><ele>801.0</ele><time>2026-03-25T11:21:39.921Z</time></trkpt><trkpt lat="30.74576230442265" lon="-5.440917904716104"><ele>801.0</ele><time>2026-03-25T11:21:40.921Z</time></trkpt><trkpt lat="30.745898225626835" lon="-5.440912612847458"><ele>801.0</ele><time>2026-03-25T11:21:41.921Z</time></trkpt><trkpt lat="30.746018779627477" lon="-5.4409001829686385"><ele>801.0</ele><time>2026-03-25T11:21:42.921Z</time></trkpt><trkpt lat="30.746122388277147" lon="-5.440863599360979"><ele>801.0</ele><time>2026-03-25T11:21:43.921Z</time></trkpt><trkpt lat="30.74622291038314" lon="-5.440843789793021"><ele>801.4</ele><time>2026-03-25T11:21:44.921Z</time></trkpt><trkpt lat="30.74631643502508" lon="-5.44082450695744"><ele>801.8</ele><time>2026-03-25T11:21:45.921Z</time></trkpt><trkpt lat="30.7464074074729" lon="-5.440792353150312"><ele>802.1999999999999</ele><time>2026-03-25T11:21:46.921Z</time></trkpt><trkpt lat="30.746492514304702" lon="-5.440752059932858"><ele>802.5999999999999</ele><time>2026-03-25T11:21:47.921Z</time></trkpt><trkpt lat="30.746583627472234" lon="-5.440709363461417"><ele>803.0</ele><time>2026-03-25T11:21:48.921Z</time></trkpt><trkpt lat="30.746678423082066" lon="-5.440664664724717"><ele>803.0</ele><time>2026-03-25T11:21:49.921Z</time></trkpt><trkpt lat="30.746774066474885" lon="-5.4406195660060535"><ele>803.0</ele><time>2026-03-25T11:21:50.921Z</time></trkpt><trkpt lat="30.746884351320958" lon="-5.440594100027353"><ele>803.0</ele><time>2026-03-25T11:21:51.921Z</time></trkpt><trkpt lat="30.746989981757682" lon="-5.440579771270746"><ele>803.0</ele><time>2026-03-25T11:21:52.921Z</time></trkpt><trkpt lat="30.74709069038502" lon="-5.44055258272946"><ele>803.0</ele><time>2026-03-25T11:21:53.921Z</time></trkpt><trkpt lat="30.747204908960217" lon="-5.440527603162536"><ele>803.5</ele><time>2026-03-25T11:21:54.921Z</time></trkpt><trkpt lat="30.747327878107395" lon="-5.440510857614679"><ele>804.0</ele><time>2026-03-25T11:21:55.921Z</time></trkpt><trkpt lat="30.747451805436256" lon="-5.440524297254144"><ele>804.5</ele><time>2026-03-25T11:21:56.921Z</time></trkpt><trkpt lat="30.747575228658523" lon="-5.440510695046089"><ele>805.0</ele><time>2026-03-25T11:21:57.921Z</time></trkpt><trkpt lat="30.74770269065662" lon="-5.440495912806727"><ele>805.5</ele><time>2026-03-25T11:21:58.921Z</time></trkpt><trkpt lat="30.74782475244172" lon="-5.4404936525141245"><ele>806.0</ele><time>2026-03-25T11:21:59.921Z</time></trkpt><trkpt lat="30.74794456112492" lon="-5.44048942898653"><ele>806.5</ele><time>2026-03-25T11:22:00.921Z</time></trkpt><trkpt lat="30.748064117514872" lon="-5.440479231056275"><ele>807.0</ele><time>2026-03-25T11:22:01.921Z</time></trkpt><trkpt lat="30.748180679562815" lon="-5.440468690815251"><ele>806.0</ele><time>2026-03-25T11:22:02.921Z</time></trkpt><trkpt lat="30.74829700540844" lon="-5.440439838183064"><ele>805.0</ele><time>2026-03-25T11:22:03.921Z</time></trkpt><trkpt lat="30.74840924209793" lon="-5.4404209841743585"><ele>804.0</ele><time>2026-03-25T11:22:04.921Z</time></trkpt><trkpt lat="30.748530205596936" lon="-5.4404006642035565"><ele>803.0</ele><time>2026-03-25T11:22:05.921Z</time></trkpt><trkpt lat="30.74865119691591" lon="-5.440380339581807"><ele>803.0</ele><time>2026-03-25T11:22:06.921Z</time></trkpt><trkpt lat="30.748778200517823" lon="-5.4403775355434885"><ele>803.0</ele><time>2026-03-25T11:22:07.921Z</time></trkpt><trkpt lat="30.748892858530393" lon="-5.440380377636057"><ele>803.0</ele><time>2026-03-25T11:22:08.921Z</time></trkpt><trkpt lat="30.74901978380187" lon="-5.4403835238266955"><ele>803.0</ele><time>2026-03-25T11:22:09.921Z</time></trkpt><trkpt lat="30.749169070440203" lon="-5.4403966110902315"><ele>803.0</ele><time>2026-03-25T11:22:10.921Z</time></trkpt><trkpt lat="30.74933570060341" lon="-5.440432967999412"><ele>803.0</ele><time>2026-03-25T11:22:11.921Z</time></trkpt><trkpt lat="30.749489587008163" lon="-5.44047085197418"><ele>803.0</ele><time>2026-03-25T11:22:12.921Z</time></trkpt><trkpt lat="30.749626738161435" lon="-5.440510920910455"><ele>802.3333333333334</ele><time>2026-03-25T11:22:13.921Z</time></trkpt><trkpt lat="30.749775534165003" lon="-5.440557642463641"><ele>801.6666666666667</ele><time>2026-03-25T11:22:14.921Z</time></trkpt><trkpt lat="30.749939612807967" lon="-5.440612489015608"><ele>801.0</ele><time>2026-03-25T11:22:15.921Z</time></trkpt><trkpt lat="30.75007971803317" lon="-5.440645257071336"><ele>800.75</ele><time>2026-03-25T11:22:16.921Z</time></trkpt><trkpt lat="30.750211835673277" lon="-5.440675518937187"><ele>800.5</ele><time>2026-03-25T11:22:17.921Z</time></trkpt><trkpt lat="30.750313861878425" lon="-5.440672981696744"><ele>800.25</ele><time>2026-03-25T11:22:18.921Z</time></trkpt><trkpt lat="30.75045081400665" lon="-5.440672981700666"><ele>800.0</ele><time>2026-03-25T11:22:19.921Z</time></trkpt><trkpt lat="30.75060383193917" lon="-5.440675088320406"><ele>800.0</ele><time>2026-03-25T11:22:20.921Z</time></trkpt><trkpt lat="30.750724826753043" lon="-5.440651858369199"><ele>800.0</ele><time>2026-03-25T11:22:21.921Z</time></trkpt><trkpt lat="30.750847544295986" lon="-5.440643712988532"><ele>800.0</ele><time>2026-03-25T11:22:22.921Z</time></trkpt><trkpt lat="30.75098527352637" lon="-5.4406282274070366"><ele>800.0</ele><time>2026-03-25T11:22:23.921Z</time></trkpt><trkpt lat="30.75110240753517" lon="-5.440594820661172"><ele>800.5</ele><time>2026-03-25T11:22:24.921Z</time></trkpt><trkpt lat="30.751217538870545" lon="-5.44053213001134"><ele>801.0</ele><time>2026-03-25T11:22:25.921Z</time></trkpt><trkpt lat="30.751345292750184" lon="-5.440458879099549"><ele>801.5</ele><time>2026-03-25T11:22:26.92Z</time></trkpt><trkpt lat="30.751494451554347" lon="-5.440390332770696"><ele>802.0</ele><time>2026-03-25T11:22:27.92Z</time></trkpt><trkpt lat="30.75164748200726" lon="-5.440297429267357"><ele>802.0</ele><time>2026-03-25T11:22:28.92Z</time></trkpt><trkpt lat="30.751795380700617" lon="-5.440243433913335"><ele>802.0</ele><time>2026-03-25T11:22:29.92Z</time></trkpt><trkpt lat="30.75192486721389" lon="-5.440236987088743"><ele>802.0</ele><time>2026-03-25T11:22:30.92Z</time></trkpt><trkpt lat="30.752053622152584" lon="-5.440218888565513"><ele>802.0</ele><time>2026-03-25T11:22:31.92Z</time></trkpt><trkpt lat="30.752177921773846" lon="-5.440180432082454"><ele>802.5</ele><time>2026-03-25T11:22:32.92Z</time></trkpt><trkpt lat="30.752312425487794" lon="-5.440184383828684"><ele>803.0</ele><time>2026-03-25T11:22:33.92Z</time></trkpt><trkpt lat="30.752439399839663" lon="-5.440181475240519"><ele>803.5</ele><time>2026-03-25T11:22:34.92Z</time></trkpt><trkpt lat="30.75256682065717" lon="-5.44015673846157"><ele>804.0</ele><time>2026-03-25T11:22:35.92Z</time></trkpt><trkpt lat="30.752697358592926" lon="-5.440157736157615"><ele>803.8000000000001</ele><time>2026-03-25T11:22:36.92Z</time></trkpt><trkpt lat="30.75282640679395" lon="-5.440164154291569"><ele>803.6</ele><time>2026-03-25T11:22:37.92Z</time></trkpt><trkpt lat="30.75293263458535" lon="-5.440169437482123"><ele>803.4</ele><time>2026-03-25T11:22:38.92Z</time></trkpt><trkpt lat="30.753039293166704" lon="-5.44017474208499"><ele>803.2</ele><time>2026-03-25T11:22:39.92Z</time></trkpt><trkpt lat="30.753124312485028" lon="-5.440178970463798"><ele>803.0</ele><time>2026-03-25T11:22:40.92Z</time></trkpt><trkpt lat="30.753190095949428" lon="-5.440184813111564"><ele>803.0</ele><time>2026-03-25T11:22:41.92Z</time></trkpt><trkpt lat="30.753292059156266" lon="-5.440178467097852"><ele>803.0</ele><time>2026-03-25T11:22:43.92Z</time></trkpt><trkpt lat="30.753390621957802" lon="-5.440332266163568"><ele>803.0</ele><time>2026-03-25T11:22:47.92Z</time></trkpt><trkpt lat="30.75342019185406" lon="-5.440418009333112"><ele>803.0</ele><time>2026-03-25T11:22:48.92Z</time></trkpt><trkpt lat="30.753468395882265" lon="-5.440523257026643"><ele>803.0</ele><time>2026-03-25T11:22:49.92Z</time></trkpt><trkpt lat="30.753518998644065" lon="-5.440616384776088"><ele>802.8333333333334</ele><time>2026-03-25T11:22:50.92Z</time></trkpt><trkpt lat="30.753564182260508" lon="-5.440688790283762"><ele>802.6666666666667</ele><time>2026-03-25T11:22:51.92Z</time></trkpt><trkpt lat="30.753606235593892" lon="-5.44075012276771"><ele>802.5</ele><time>2026-03-25T11:22:52.92Z</time></trkpt><trkpt lat="30.75364983716988" lon="-5.440810726034141"><ele>802.3333333333333</ele><time>2026-03-25T11:22:53.92Z</time></trkpt><trkpt lat="30.753701184320587" lon="-5.440881497383862"><ele>802.1666666666666</ele><time>2026-03-25T11:22:54.92Z</time></trkpt><trkpt lat="30.753760189670658" lon="-5.440951679553268"><ele>802.0</ele><time>2026-03-25T11:22:55.92Z</time></trkpt><trkpt lat="30.75381422017383" lon="-5.4410251980660576"><ele>802.0</ele><time>2026-03-25T11:22:56.92Z</time></trkpt><trkpt lat="30.75386974731947" lon="-5.441106138890316"><ele>802.0</ele><time>2026-03-25T11:22:57.92Z</time></trkpt><trkpt lat="30.753930653064344" lon="-5.441190563448928"><ele>802.0</ele><time>2026-03-25T11:22:58.92Z</time></trkpt><trkpt lat="30.753983379082236" lon="-5.4412744975267575"><ele>802.0</ele><time>2026-03-25T11:22:59.92Z</time></trkpt><trkpt lat="30.75405472511933" lon="-5.441376039017775"><ele>802.0</ele><time>2026-03-25T11:23:00.92Z</time></trkpt><trkpt lat="30.754121731041256" lon="-5.441459738671063"><ele>802.5</ele><time>2026-03-25T11:23:01.92Z</time></trkpt><trkpt lat="30.75420272284517" lon="-5.441538442780169"><ele>803.0</ele><time>2026-03-25T11:23:02.92Z</time></trkpt><trkpt lat="30.75428616978574" lon="-5.441623351133554"><ele>803.5</ele><time>2026-03-25T11:23:03.92Z</time></trkpt><trkpt lat="30.754377677449835" lon="-5.441709396071508"><ele>804.0</ele><time>2026-03-25T11:23:04.92Z</time></trkpt><trkpt lat="30.75446822180702" lon="-5.441808547486081"><ele>804.0</ele><time>2026-03-25T11:23:05.92Z</time></trkpt><trkpt lat="30.754547178878617" lon="-5.441903526941397"><ele>804.0</ele><time>2026-03-25T11:23:06.92Z</time></trkpt><trkpt lat="30.754629173274257" lon="-5.441996013871039"><ele>804.0</ele><time>2026-03-25T11:23:07.92Z</time></trkpt><trkpt lat="30.754716474947013" lon="-5.442092260738292"><ele>804.0</ele><time>2026-03-25T11:23:08.92Z</time></trkpt><trkpt lat="30.754806182590382" lon="-5.442190022383512"><ele>804.25</ele><time>2026-03-25T11:23:09.92Z</time></trkpt><trkpt lat="30.754894661521554" lon="-5.442289144087691"><ele>804.5</ele><time>2026-03-25T11:23:10.92Z</time></trkpt><trkpt lat="30.754986444231402" lon="-5.442390212740534"><ele>804.75</ele><time>2026-03-25T11:23:11.92Z</time></trkpt><trkpt lat="30.75508578459005" lon="-5.442493688584727"><ele>805.0</ele><time>2026-03-25T11:23:12.92Z</time></trkpt><trkpt lat="30.75518466092617" lon="-5.4425955185061135"><ele>805.0</ele><time>2026-03-25T11:23:13.92Z</time></trkpt><trkpt lat="30.755273915189395" lon="-5.44270153472135"><ele>805.0</ele><time>2026-03-25T11:23:14.92Z</time></trkpt><trkpt lat="30.755366271262428" lon="-5.4428265392482"><ele>805.0</ele><time>2026-03-25T11:23:15.92Z</time></trkpt><trkpt lat="30.75545146052851" lon="-5.442965288026633"><ele>805.0</ele><time>2026-03-25T11:23:16.92Z</time></trkpt><trkpt lat="30.755541502953747" lon="-5.443117238116254"><ele>805.0</ele><time>2026-03-25T11:23:17.92Z</time></trkpt><trkpt lat="30.755629853591852" lon="-5.443256326396148"><ele>805.0</ele><time>2026-03-25T11:23:18.92Z</time></trkpt><trkpt lat="30.755715652630837" lon="-5.443393428182702"><ele>805.0</ele><time>2026-03-25T11:23:19.92Z</time></trkpt><trkpt lat="30.755805318106127" lon="-5.443526167608473"><ele>805.0</ele><time>2026-03-25T11:23:20.92Z</time></trkpt><trkpt lat="30.755908179274787" lon="-5.443651211325024"><ele>805.0</ele><time>2026-03-25T11:23:21.92Z</time></trkpt><trkpt lat="30.75601087909962" lon="-5.443772552689616"><ele>805.0</ele><time>2026-03-25T11:23:22.92Z</time></trkpt><trkpt lat="30.756097307017992" lon="-5.443884649033639"><ele>805.0</ele><time>2026-03-25T11:23:23.92Z</time></trkpt><trkpt lat="30.7561850852245" lon="-5.444008601194023"><ele>805.0</ele><time>2026-03-25T11:23:24.92Z</time></trkpt><trkpt lat="30.756280187943467" lon="-5.444125183108923"><ele>805.0</ele><time>2026-03-25T11:23:25.92Z</time></trkpt><trkpt lat="30.75637889832202" lon="-5.444233486774664"><ele>805.0</ele><time>2026-03-25T11:23:26.92Z</time></trkpt><trkpt lat="30.756474645422657" lon="-5.4443437874242475"><ele>805.0</ele><time>2026-03-25T11:23:27.92Z</time></trkpt><trkpt lat="30.756572971628092" lon="-5.444477840367105"><ele>805.0</ele><time>2026-03-25T11:23:28.92Z</time></trkpt><trkpt lat="30.756643217383523" lon="-5.444610591710807"><ele>805.75</ele><time>2026-03-25T11:23:29.92Z</time></trkpt><trkpt lat="30.75672569027943" lon="-5.44473355673247"><ele>806.5</ele><time>2026-03-25T11:23:30.92Z</time></trkpt><trkpt lat="30.756799691817648" lon="-5.444849879682605"><ele>807.25</ele><time>2026-03-25T11:23:31.92Z</time></trkpt><trkpt lat="30.756869957495898" lon="-5.444968721187494"><ele>808.0</ele><time>2026-03-25T11:23:32.92Z</time></trkpt><trkpt lat="30.756922592574224" lon="-5.4450981652141195"><ele>808.25</ele><time>2026-03-25T11:23:33.92Z</time></trkpt><trkpt lat="30.756958724945783" lon="-5.445242417868755"><ele>808.5</ele><time>2026-03-25T11:23:34.92Z</time></trkpt><trkpt lat="30.75699031149807" lon="-5.445395706665651"><ele>808.75</ele><time>2026-03-25T11:23:35.92Z</time></trkpt><trkpt lat="30.75701847627412" lon="-5.445551440085978"><ele>809.0</ele><time>2026-03-25T11:23:36.92Z</time></trkpt><trkpt lat="30.7570432561157" lon="-5.445715779919137"><ele>809.25</ele><time>2026-03-25T11:23:37.92Z</time></trkpt><trkpt lat="30.75706005328462" lon="-5.445878113522129"><ele>809.5</ele><time>2026-03-25T11:23:38.92Z</time></trkpt><trkpt lat="30.757082522882097" lon="-5.446033738401582"><ele>809.75</ele><time>2026-03-25T11:23:39.92Z</time></trkpt><trkpt lat="30.757111278992177" lon="-5.446185208575216"><ele>810.0</ele><time>2026-03-25T11:23:40.92Z</time></trkpt><trkpt lat="30.757137511354504" lon="-5.446333524407943"><ele>810.25</ele><time>2026-03-25T11:23:41.92Z</time></trkpt><trkpt lat="30.7571674110329" lon="-5.446477363443239"><ele>810.5</ele><time>2026-03-25T11:23:42.92Z</time></trkpt><trkpt lat="30.757192337261365" lon="-5.44662891606402"><ele>810.75</ele><time>2026-03-25T11:23:43.92Z</time></trkpt><trkpt lat="30.757226626170755" lon="-5.446782034774127"><ele>811.0</ele><time>2026-03-25T11:23:44.92Z</time></trkpt><trkpt lat="30.757249865055304" lon="-5.446931176205904"><ele>811.0</ele><time>2026-03-25T11:23:45.92Z</time></trkpt><trkpt lat="30.757275295106094" lon="-5.447094530597388"><ele>811.0</ele><time>2026-03-25T11:23:46.92Z</time></trkpt><trkpt lat="30.757304127398456" lon="-5.447259907125416"><ele>811.0</ele><time>2026-03-25T11:23:47.92Z</time></trkpt><trkpt lat="30.757335345473194" lon="-5.447424140966255"><ele>811.0</ele><time>2026-03-25T11:23:48.92Z</time></trkpt><trkpt lat="30.757362820585083" lon="-5.447586545228904"><ele>811.25</ele><time>2026-03-25T11:23:49.92Z</time></trkpt><trkpt lat="30.75739575052175" lon="-5.447740474563617"><ele>811.5</ele><time>2026-03-25T11:23:50.92Z</time></trkpt><trkpt lat="30.757429336572354" lon="-5.447874852130878"><ele>811.75</ele><time>2026-03-25T11:23:51.92Z</time></trkpt><trkpt lat="30.757473175860945" lon="-5.448018376919546"><ele>812.0</ele><time>2026-03-25T11:23:52.92Z</time></trkpt><trkpt lat="30.757521841885403" lon="-5.448167329147521"><ele>812.75</ele><time>2026-03-25T11:23:53.919Z</time></trkpt><trkpt lat="30.757571973029005" lon="-5.448306822941661"><ele>813.5</ele><time>2026-03-25T11:23:54.919Z</time></trkpt><trkpt lat="30.757621361865766" lon="-5.448440971202832"><ele>814.25</ele><time>2026-03-25T11:23:55.919Z</time></trkpt><trkpt lat="30.757667119019917" lon="-5.448569596817325"><ele>815.0</ele><time>2026-03-25T11:23:56.919Z</time></trkpt><trkpt lat="30.757701304093615" lon="-5.448685322249371"><ele>815.8</ele><time>2026-03-25T11:23:57.919Z</time></trkpt><trkpt lat="30.757738444891068" lon="-5.448797452411672"><ele>816.6</ele><time>2026-03-25T11:23:58.919Z</time></trkpt><trkpt lat="30.757780642304102" lon="-5.448908517267103"><ele>817.4000000000001</ele><time>2026-03-25T11:23:59.919Z</time></trkpt><trkpt lat="30.757828375380363" lon="-5.449009692521569"><ele>818.2</ele><time>2026-03-25T11:24:00.919Z</time></trkpt><trkpt lat="30.757870209382297" lon="-5.449102042130113"><ele>819.0</ele><time>2026-03-25T11:24:01.919Z</time></trkpt><trkpt lat="30.75791202493471" lon="-5.4491712626323965"><ele>819.0</ele><time>2026-03-25T11:24:02.919Z</time></trkpt><trkpt lat="30.757955832413078" lon="-5.449235868271993"><ele>819.0</ele><time>2026-03-25T11:24:03.919Z</time></trkpt><trkpt lat="30.758000935641792" lon="-5.449317490150039"><ele>819.0</ele><time>2026-03-25T11:24:04.919Z</time></trkpt><trkpt lat="30.758027954989085" lon="-5.449427160361328"><ele>819.0</ele><time>2026-03-25T11:24:05.919Z</time></trkpt><trkpt lat="30.758017969276327" lon="-5.44954993708675"><ele>819.0</ele><time>2026-03-25T11:24:06.919Z</time></trkpt><trkpt lat="30.757990186523426" lon="-5.449668742973465"><ele>818.8000000000001</ele><time>2026-03-25T11:24:07.919Z</time></trkpt><trkpt lat="30.757977229799526" lon="-5.449768678612401"><ele>818.6</ele><time>2026-03-25T11:24:08.919Z</time></trkpt><trkpt lat="30.757994659025847" lon="-5.44988369987675"><ele>818.4</ele><time>2026-03-25T11:24:09.919Z</time></trkpt><trkpt lat="30.75803960948002" lon="-5.45001216907973"><ele>818.2</ele><time>2026-03-25T11:24:10.919Z</time></trkpt><trkpt lat="30.75808708472349" lon="-5.450129808981229"><ele>818.0</ele><time>2026-03-25T11:24:11.919Z</time></trkpt><trkpt lat="30.758121438088136" lon="-5.450247894246198"><ele>818.0</ele><time>2026-03-25T11:24:12.919Z</time></trkpt><trkpt lat="30.758155740937912" lon="-5.45038027488688"><ele>818.0</ele><time>2026-03-25T11:24:13.919Z</time></trkpt><trkpt lat="30.758170324050653" lon="-5.450513933800063"><ele>818.0</ele><time>2026-03-25T11:24:14.919Z</time></trkpt><trkpt lat="30.7581880982043" lon="-5.450648346762485"><ele>818.0</ele><time>2026-03-25T11:24:15.919Z</time></trkpt><trkpt lat="30.758214221938342" lon="-5.450786217984275"><ele>818.25</ele><time>2026-03-25T11:24:16.919Z</time></trkpt><trkpt lat="30.758249475372576" lon="-5.450919784285484"><ele>818.5</ele><time>2026-03-25T11:24:17.919Z</time></trkpt><trkpt lat="30.75828817412061" lon="-5.451055749740496"><ele>818.75</ele><time>2026-03-25T11:24:18.919Z</time></trkpt><trkpt lat="30.758328138714294" lon="-5.4511904472631025"><ele>819.0</ele><time>2026-03-25T11:24:19.92Z</time></trkpt><trkpt lat="30.75836627475317" lon="-5.451325383018015"><ele>819.75</ele><time>2026-03-25T11:24:20.92Z</time></trkpt><trkpt lat="30.758392585199307" lon="-5.451456347377567"><ele>820.5</ele><time>2026-03-25T11:24:21.92Z</time></trkpt><trkpt lat="30.758431986227833" lon="-5.451589577870037"><ele>821.25</ele><time>2026-03-25T11:24:22.92Z</time></trkpt><trkpt lat="30.75847320272306" lon="-5.451717239184108"><ele>822.0</ele><time>2026-03-25T11:24:23.92Z</time></trkpt><trkpt lat="30.75850813284465" lon="-5.451850140373803"><ele>822.0</ele><time>2026-03-25T11:24:24.92Z</time></trkpt><trkpt lat="30.758538198157797" lon="-5.451983697340086"><ele>822.0</ele><time>2026-03-25T11:24:25.92Z</time></trkpt><trkpt lat="30.758562993281924" lon="-5.4521111694933895"><ele>822.0</ele><time>2026-03-25T11:24:26.92Z</time></trkpt><trkpt lat="30.758590225535663" lon="-5.452234429388304"><ele>822.0</ele><time>2026-03-25T11:24:27.92Z</time></trkpt><trkpt lat="30.75861423287929" lon="-5.452345034782346"><ele>822.0</ele><time>2026-03-25T11:24:28.92Z</time></trkpt><trkpt lat="30.75862417456723" lon="-5.452430807675651"><ele>822.0</ele><time>2026-03-25T11:24:29.92Z</time></trkpt><trkpt lat="30.758629526877776" lon="-5.452511379469115"><ele>822.0</ele><time>2026-03-25T11:24:30.92Z</time></trkpt><trkpt lat="30.75857427348771" lon="-5.452620658764305"><ele>822.0</ele><time>2026-03-25T11:24:32.92Z</time></trkpt><trkpt lat="30.75851644720771" lon="-5.4527459906570535"><ele>822.0</ele><time>2026-03-25T11:24:34.92Z</time></trkpt><trkpt lat="30.758493450101657" lon="-5.45284582275055"><ele>822.0</ele><time>2026-03-25T11:24:35.92Z</time></trkpt><trkpt lat="30.758461824036566" lon="-5.452956007134958"><ele>822.0</ele><time>2026-03-25T11:24:36.92Z</time></trkpt><trkpt lat="30.7584495012858" lon="-5.453069916986541"><ele>822.0</ele><time>2026-03-25T11:24:37.92Z</time></trkpt><trkpt lat="30.758458441995767" lon="-5.453189790709663"><ele>822.0</ele><time>2026-03-25T11:24:38.92Z</time></trkpt><trkpt lat="30.75847437175721" lon="-5.45330184142561"><ele>822.0</ele><time>2026-03-25T11:24:39.92Z</time></trkpt><trkpt lat="30.758501305952436" lon="-5.453418298817895"><ele>822.0</ele><time>2026-03-25T11:24:40.92Z</time></trkpt><trkpt lat="30.758545977885834" lon="-5.45352473369315"><ele>821.1666666666666</ele><time>2026-03-25T11:24:41.92Z</time></trkpt><trkpt lat="30.75860402869191" lon="-5.453613619316788"><ele>820.3333333333333</ele><time>2026-03-25T11:24:42.92Z</time></trkpt><trkpt lat="30.75867051373245" lon="-5.453685128199899"><ele>819.5</ele><time>2026-03-25T11:24:43.92Z</time></trkpt><trkpt lat="30.75871700970962" lon="-5.453750400183049"><ele>818.6666666666666</ele><time>2026-03-25T11:24:44.92Z</time></trkpt><trkpt lat="30.758756641285856" lon="-5.453819030628808"><ele>817.8333333333333</ele><time>2026-03-25T11:24:45.92Z</time></trkpt><trkpt lat="30.75879732146039" lon="-5.453881558403082"><ele>817.0</ele><time>2026-03-25T11:24:46.92Z</time></trkpt><trkpt lat="30.758907026188616" lon="-5.453973369811253"><ele>817.0</ele><time>2026-03-25T11:24:48.92Z</time></trkpt><trkpt lat="30.75897300505546" lon="-5.4540116092999185"><ele>817.0</ele><time>2026-03-25T11:24:49.92Z</time></trkpt><trkpt lat="30.759048636950542" lon="-5.454046016757866"><ele>817.0</ele><time>2026-03-25T11:24:50.92Z</time></trkpt><trkpt lat="30.75913240514121" lon="-5.454108356813491"><ele>817.0</ele><time>2026-03-25T11:24:51.92Z</time></trkpt><trkpt lat="30.75922060879452" lon="-5.454166525860176"><ele>817.0</ele><time>2026-03-25T11:24:52.92Z</time></trkpt><trkpt lat="30.759299848533335" lon="-5.454226358184739"><ele>817.0</ele><time>2026-03-25T11:24:53.92Z</time></trkpt><trkpt lat="30.759379619222408" lon="-5.45429095936047"><ele>817.0</ele><time>2026-03-25T11:24:54.92Z</time></trkpt><trkpt lat="30.75944572374569" lon="-5.454377592196693"><ele>817.0</ele><time>2026-03-25T11:24:55.92Z</time></trkpt><trkpt lat="30.7594975431752" lon="-5.454484997687783"><ele>817.0</ele><time>2026-03-25T11:24:56.92Z</time></trkpt><trkpt lat="30.7595289294951" lon="-5.454615911672032"><ele>817.0</ele><time>2026-03-25T11:24:57.92Z</time></trkpt><trkpt lat="30.759554846783868" lon="-5.454775217053499"><ele>819.3333333333333</ele><time>2026-03-25T11:24:58.92Z</time></trkpt><trkpt lat="30.75956885125558" lon="-5.454957760872342"><ele>821.6666666666667</ele><time>2026-03-25T11:24:59.92Z</time></trkpt><trkpt lat="30.759583769590808" lon="-5.455156970233928"><ele>824.0</ele><time>2026-03-25T11:25:00.92Z</time></trkpt><trkpt lat="30.759583705642278" lon="-5.455353577012455"><ele>824.0</ele><time>2026-03-25T11:25:01.92Z</time></trkpt><trkpt lat="30.759604870904724" lon="-5.455531251853105"><ele>824.0</ele><time>2026-03-25T11:25:02.92Z</time></trkpt><trkpt lat="30.759647837828048" lon="-5.455670238758731"><ele>824.0</ele><time>2026-03-25T11:25:03.92Z</time></trkpt><trkpt lat="30.759684017111212" lon="-5.455778550019066"><ele>824.0</ele><time>2026-03-25T11:25:04.92Z</time></trkpt><trkpt lat="30.759710869070556" lon="-5.455876974918975"><ele>824.0</ele><time>2026-03-25T11:25:05.92Z</time></trkpt><trkpt lat="30.7597545772513" lon="-5.455985478353605"><ele>824.0</ele><time>2026-03-25T11:25:06.92Z</time></trkpt><trkpt lat="30.759808507099553" lon="-5.456087254334127"><ele>824.0</ele><time>2026-03-25T11:25:07.92Z</time></trkpt><trkpt lat="30.759882842794664" lon="-5.456198817448338"><ele>824.0</ele><time>2026-03-25T11:25:08.92Z</time></trkpt><trkpt lat="30.759967137847102" lon="-5.456316839835428"><ele>822.5</ele><time>2026-03-25T11:25:09.92Z</time></trkpt><trkpt lat="30.760036903749654" lon="-5.456449021263137"><ele>821.0</ele><time>2026-03-25T11:25:10.92Z</time></trkpt><trkpt lat="30.7600958244011" lon="-5.456571145577328"><ele>819.5</ele><time>2026-03-25T11:25:11.92Z</time></trkpt><trkpt lat="30.760139485180694" lon="-5.456698654890319"><ele>818.0</ele><time>2026-03-25T11:25:12.92Z</time></trkpt><trkpt lat="30.760164429344552" lon="-5.456819865689262"><ele>818.0</ele><time>2026-03-25T11:25:13.92Z</time></trkpt><trkpt lat="30.760190628483535" lon="-5.45695039335804"><ele>818.0</ele><time>2026-03-25T11:25:14.92Z</time></trkpt><trkpt lat="30.76022643573793" lon="-5.4570720905078876"><ele>818.0</ele><time>2026-03-25T11:25:15.92Z</time></trkpt><trkpt lat="30.760238606245466" lon="-5.457179599399336"><ele>818.0</ele><time>2026-03-25T11:25:16.92Z</time></trkpt><trkpt lat="30.760255535068243" lon="-5.457307360834207"><ele>818.0</ele><time>2026-03-25T11:25:17.92Z</time></trkpt><trkpt lat="30.76027423336534" lon="-5.457437551470117"><ele>818.2</ele><time>2026-03-25T11:25:18.92Z</time></trkpt><trkpt lat="30.760295449453835" lon="-5.457543494296741"><ele>818.4</ele><time>2026-03-25T11:25:19.92Z</time></trkpt><trkpt lat="30.760325184395057" lon="-5.457629055157124"><ele>818.6</ele><time>2026-03-25T11:25:20.92Z</time></trkpt><trkpt lat="30.760371847290735" lon="-5.45772923184044"><ele>818.8000000000001</ele><time>2026-03-25T11:25:21.92Z</time></trkpt><trkpt lat="30.76044010665892" lon="-5.457841814569439"><ele>819.0</ele><time>2026-03-25T11:25:22.92Z</time></trkpt><trkpt lat="30.760498138613062" lon="-5.457954930303374"><ele>819.0</ele><time>2026-03-25T11:25:23.92Z</time></trkpt><trkpt lat="30.760543345687985" lon="-5.458074598768826"><ele>819.0</ele><time>2026-03-25T11:25:24.92Z</time></trkpt><trkpt lat="30.760606790426813" lon="-5.458181038731115"><ele>819.0</ele><time>2026-03-25T11:25:25.92Z</time></trkpt><trkpt lat="30.760691620979866" lon="-5.458291135981349"><ele>819.0</ele><time>2026-03-25T11:25:26.92Z</time></trkpt><trkpt lat="30.76077544777417" lon="-5.458401836092934"><ele>819.0</ele><time>2026-03-25T11:25:27.92Z</time></trkpt><trkpt lat="30.76085174601218" lon="-5.458513313870277"><ele>819.0</ele><time>2026-03-25T11:25:28.92Z</time></trkpt><trkpt lat="30.760934827608413" lon="-5.458605896425453"><ele>819.0</ele><time>2026-03-25T11:25:29.92Z</time></trkpt><trkpt lat="30.76102290944983" lon="-5.4587010074326985"><ele>819.0</ele><time>2026-03-25T11:25:30.92Z</time></trkpt><trkpt lat="30.76109141982406" lon="-5.458798636066923"><ele>818.8000000000001</ele><time>2026-03-25T11:25:31.92Z</time></trkpt><trkpt lat="30.761152928449828" lon="-5.4589040686455705"><ele>818.6</ele><time>2026-03-25T11:25:32.92Z</time></trkpt><trkpt lat="30.761196364879165" lon="-5.459001017986477"><ele>818.4</ele><time>2026-03-25T11:25:33.92Z</time></trkpt><trkpt lat="30.76123486260622" lon="-5.45910968406775"><ele>818.2</ele><time>2026-03-25T11:25:34.92Z</time></trkpt><trkpt lat="30.761260789000865" lon="-5.459216065627992"><ele>818.0</ele><time>2026-03-25T11:25:35.92Z</time></trkpt><trkpt lat="30.761291971108424" lon="-5.459331059786723"><ele>818.0</ele><time>2026-03-25T11:25:36.92Z</time></trkpt><trkpt lat="30.761337745562248" lon="-5.4594516681805745"><ele>818.0</ele><time>2026-03-25T11:25:37.92Z</time></trkpt><trkpt lat="30.76139214007901" lon="-5.459570637348519"><ele>818.0</ele><time>2026-03-25T11:25:38.92Z</time></trkpt><trkpt lat="30.76147878525217" lon="-5.4596707627832135"><ele>818.0</ele><time>2026-03-25T11:25:39.92Z</time></trkpt><trkpt lat="30.76157074797248" lon="-5.459751792575997"><ele>817.5</ele><time>2026-03-25T11:25:40.92Z</time></trkpt><trkpt lat="30.761628697480695" lon="-5.459863874975598"><ele>817.0</ele><time>2026-03-25T11:25:41.92Z</time></trkpt><trkpt lat="30.761668968131698" lon="-5.459992215567406"><ele>816.5</ele><time>2026-03-25T11:25:42.92Z</time></trkpt><trkpt lat="30.761686570514645" lon="-5.460130064672103"><ele>816.0</ele><time>2026-03-25T11:25:43.92Z</time></trkpt><trkpt lat="30.761668359770383" lon="-5.460270687475129"><ele>816.0</ele><time>2026-03-25T11:25:44.92Z</time></trkpt><trkpt lat="30.761645196766743" lon="-5.460411386375792"><ele>816.0</ele><time>2026-03-25T11:25:45.92Z</time></trkpt><trkpt lat="30.76161160649894" lon="-5.460551575562956"><ele>816.0</ele><time>2026-03-25T11:25:46.92Z</time></trkpt><trkpt lat="30.761561883663035" lon="-5.460690573571395"><ele>816.0</ele><time>2026-03-25T11:25:47.92Z</time></trkpt><trkpt lat="30.76152213764858" lon="-5.460832711658708"><ele>816.0</ele><time>2026-03-25T11:25:48.92Z</time></trkpt><trkpt lat="30.76150172579625" lon="-5.460973832787578"><ele>816.0</ele><time>2026-03-25T11:25:49.92Z</time></trkpt><trkpt lat="30.76148015482609" lon="-5.461104719052604"><ele>816.0</ele><time>2026-03-25T11:25:50.92Z</time></trkpt><trkpt lat="30.761446068565846" lon="-5.461237792986974"><ele>816.0</ele><time>2026-03-25T11:25:51.919Z</time></trkpt><trkpt lat="30.761418256003854" lon="-5.461364190700639"><ele>816.0</ele><time>2026-03-25T11:25:52.919Z</time></trkpt><trkpt lat="30.761395384293785" lon="-5.461477281809234"><ele>816.0</ele><time>2026-03-25T11:25:53.919Z</time></trkpt><trkpt lat="30.761365415391197" lon="-5.461577057296296"><ele>816.0</ele><time>2026-03-25T11:25:54.919Z</time></trkpt><trkpt lat="30.761341198608903" lon="-5.461662925821128"><ele>816.0</ele><time>2026-03-25T11:25:55.919Z</time></trkpt><trkpt lat="30.761328886919813" lon="-5.461744512925018"><ele>816.0</ele><time>2026-03-25T11:25:56.919Z</time></trkpt><trkpt lat="30.761320117863008" lon="-5.461837663391864"><ele>816.0</ele><time>2026-03-25T11:25:57.919Z</time></trkpt><trkpt lat="30.761333560479653" lon="-5.461948524994225"><ele>816.0</ele><time>2026-03-25T11:25:58.919Z</time></trkpt><trkpt lat="30.761376365882587" lon="-5.462064215713428"><ele>816.0</ele><time>2026-03-25T11:25:59.919Z</time></trkpt><trkpt lat="30.76143796163038" lon="-5.4622074298690855"><ele>816.0</ele><time>2026-03-25T11:26:00.919Z</time></trkpt><trkpt lat="30.761489981110117" lon="-5.462353585784492"><ele>816.0</ele><time>2026-03-25T11:26:01.919Z</time></trkpt><trkpt lat="30.761532202120506" lon="-5.462487210297827"><ele>816.75</ele><time>2026-03-25T11:26:02.919Z</time></trkpt><trkpt lat="30.761583217032598" lon="-5.462649742803707"><ele>817.5</ele><time>2026-03-25T11:26:03.919Z</time></trkpt><trkpt lat="30.761631591926932" lon="-5.462813736280987"><ele>818.25</ele><time>2026-03-25T11:26:04.919Z</time></trkpt><trkpt lat="30.76166230571256" lon="-5.4629381332424165"><ele>819.0</ele><time>2026-03-25T11:26:05.919Z</time></trkpt><trkpt lat="30.7616755938152" lon="-5.463053681671708"><ele>819.0</ele><time>2026-03-25T11:26:06.919Z</time></trkpt><trkpt lat="30.761679195332857" lon="-5.4631818774955185"><ele>819.0</ele><time>2026-03-25T11:26:07.919Z</time></trkpt><trkpt lat="30.76167897031568" lon="-5.463328856887212"><ele>819.0</ele><time>2026-03-25T11:26:08.919Z</time></trkpt><trkpt lat="30.761689744343" lon="-5.463491160824068"><ele>819.0</ele><time>2026-03-25T11:26:09.919Z</time></trkpt><trkpt lat="30.76172733693897" lon="-5.463664886049996"><ele>818.5</ele><time>2026-03-25T11:26:10.919Z</time></trkpt><trkpt lat="30.761768380642057" lon="-5.463830574167435"><ele>818.0</ele><time>2026-03-25T11:26:11.919Z</time></trkpt><trkpt lat="30.761787248091323" lon="-5.463990113159601"><ele>817.5</ele><time>2026-03-25T11:26:12.919Z</time></trkpt><trkpt lat="30.76181654483308" lon="-5.464143062167079"><ele>817.0</ele><time>2026-03-25T11:26:13.919Z</time></trkpt><trkpt lat="30.761845149839893" lon="-5.464294909005847"><ele>817.0</ele><time>2026-03-25T11:26:14.919Z</time></trkpt><trkpt lat="30.76185597152934" lon="-5.4644586821715215"><ele>817.0</ele><time>2026-03-25T11:26:15.919Z</time></trkpt><trkpt lat="30.761858647212147" lon="-5.464645235411048"><ele>817.0</ele><time>2026-03-25T11:26:16.919Z</time></trkpt><trkpt lat="30.761858688650687" lon="-5.464835535190375"><ele>817.6666666666666</ele><time>2026-03-25T11:26:17.919Z</time></trkpt><trkpt lat="30.761858686442515" lon="-5.465030816993263"><ele>818.3333333333333</ele><time>2026-03-25T11:26:18.919Z</time></trkpt><trkpt lat="30.76184702333971" lon="-5.465230182641404"><ele>819.0</ele><time>2026-03-25T11:26:19.919Z</time></trkpt><trkpt lat="30.761833560387117" lon="-5.465412571785239"><ele>819.6666666666667</ele><time>2026-03-25T11:26:20.919Z</time></trkpt><trkpt lat="30.761818160894105" lon="-5.465589505712706"><ele>820.3333333333334</ele><time>2026-03-25T11:26:21.919Z</time></trkpt><trkpt lat="30.76180798909466" lon="-5.465760048527469"><ele>821.0</ele><time>2026-03-25T11:26:22.919Z</time></trkpt><trkpt lat="30.76182507653141" lon="-5.465948679585307"><ele>821.0</ele><time>2026-03-25T11:26:23.919Z</time></trkpt><trkpt lat="30.761869673879648" lon="-5.466148615030698"><ele>821.0</ele><time>2026-03-25T11:26:24.919Z</time></trkpt><trkpt lat="30.761910265342884" lon="-5.466338071977695"><ele>821.0</ele><time>2026-03-25T11:26:25.919Z</time></trkpt><trkpt lat="30.761962232648578" lon="-5.46653107842042"><ele>823.0</ele><time>2026-03-25T11:26:26.919Z</time></trkpt><trkpt lat="30.76201955091097" lon="-5.46672926591507"><ele>825.0</ele><time>2026-03-25T11:26:27.919Z</time></trkpt><trkpt lat="30.76205789982396" lon="-5.466892944157483"><ele>827.0</ele><time>2026-03-25T11:26:28.919Z</time></trkpt><trkpt lat="30.762086357018795" lon="-5.46705432217141"><ele>826.6666666666667</ele><time>2026-03-25T11:26:29.919Z</time></trkpt><trkpt lat="30.76210565111043" lon="-5.467217757475047"><ele>826.3333333333333</ele><time>2026-03-25T11:26:30.919Z</time></trkpt><trkpt lat="30.76210259685462" lon="-5.467396449857713"><ele>826.0</ele><time>2026-03-25T11:26:31.919Z</time></trkpt><trkpt lat="30.762094784852653" lon="-5.467585045691908"><ele>826.0</ele><time>2026-03-25T11:26:32.919Z</time></trkpt><trkpt lat="30.76209728440699" lon="-5.467757803625667"><ele>826.0</ele><time>2026-03-25T11:26:33.919Z</time></trkpt><trkpt lat="30.76210043528319" lon="-5.467913435010214"><ele>826.0</ele><time>2026-03-25T11:26:34.919Z</time></trkpt><trkpt lat="30.76211134791048" lon="-5.468063730038204"><ele>826.0</ele><time>2026-03-25T11:26:35.919Z</time></trkpt><trkpt lat="30.762131344406566" lon="-5.468203071468522"><ele>825.75</ele><time>2026-03-25T11:26:36.919Z</time></trkpt><trkpt lat="30.762136674155148" lon="-5.468335960168827"><ele>825.5</ele><time>2026-03-25T11:26:37.919Z</time></trkpt><trkpt lat="30.762107085696126" lon="-5.468488576104272"><ele>825.25</ele><time>2026-03-25T11:26:38.92Z</time></trkpt><trkpt lat="30.76205874280159" lon="-5.468631341918226"><ele>825.0</ele><time>2026-03-25T11:26:39.92Z</time></trkpt><trkpt lat="30.76200977752226" lon="-5.468763013601413"><ele>824.75</ele><time>2026-03-25T11:26:40.92Z</time></trkpt><trkpt lat="30.76196122065207" lon="-5.468885828353141"><ele>824.5</ele><time>2026-03-25T11:26:41.92Z</time></trkpt><trkpt lat="30.76190000775638" lon="-5.469007802942157"><ele>824.25</ele><time>2026-03-25T11:26:42.92Z</time></trkpt><trkpt lat="30.761852595240068" lon="-5.4691308607843085"><ele>824.0</ele><time>2026-03-25T11:26:43.92Z</time></trkpt><trkpt lat="30.76180336578752" lon="-5.469259230526133"><ele>824.0</ele><time>2026-03-25T11:26:44.92Z</time></trkpt><trkpt lat="30.761751063066612" lon="-5.469377696775775"><ele>824.0</ele><time>2026-03-25T11:26:45.92Z</time></trkpt><trkpt lat="30.761693141173435" lon="-5.469483668125958"><ele>824.0</ele><time>2026-03-25T11:26:46.92Z</time></trkpt><trkpt lat="30.76163943916225" lon="-5.469603503184076"><ele>824.0</ele><time>2026-03-25T11:26:47.92Z</time></trkpt><trkpt lat="30.761609423654956" lon="-5.469735672602362"><ele>823.6</ele><time>2026-03-25T11:26:48.92Z</time></trkpt><trkpt lat="30.76159879667113" lon="-5.469872265703229"><ele>823.2</ele><time>2026-03-25T11:26:49.92Z</time></trkpt><trkpt lat="30.761593743045104" lon="-5.470008287661833"><ele>822.8000000000001</ele><time>2026-03-25T11:26:50.92Z</time></trkpt><trkpt lat="30.761594537733277" lon="-5.470129964937484"><ele>822.4000000000001</ele><time>2026-03-25T11:26:51.92Z</time></trkpt><trkpt lat="30.761597260775886" lon="-5.470248430179517"><ele>822.0</ele><time>2026-03-25T11:26:52.92Z</time></trkpt><trkpt lat="30.761604449132214" lon="-5.4703690941928516"><ele>822.4000000000001</ele><time>2026-03-25T11:26:53.919Z</time></trkpt><trkpt lat="30.761596508020656" lon="-5.4704644100542845"><ele>822.8000000000001</ele><time>2026-03-25T11:26:54.919Z</time></trkpt><trkpt lat="30.76157066127481" lon="-5.470580753153519"><ele>823.2</ele><time>2026-03-25T11:26:55.919Z</time></trkpt><trkpt lat="30.761533295246508" lon="-5.470686440188908"><ele>823.6</ele><time>2026-03-25T11:26:56.919Z</time></trkpt><trkpt lat="30.76148365761509" lon="-5.470793901303792"><ele>824.0</ele><time>2026-03-25T11:26:57.919Z</time></trkpt><trkpt lat="30.761448269232766" lon="-5.4709110882976875"><ele>824.0</ele><time>2026-03-25T11:26:58.919Z</time></trkpt><trkpt lat="30.761432721784832" lon="-5.471013642384288"><ele>824.0</ele><time>2026-03-25T11:26:59.919Z</time></trkpt><trkpt lat="30.761429632889087" lon="-5.471134641546727"><ele>824.0</ele><time>2026-03-25T11:27:00.919Z</time></trkpt><trkpt lat="30.761424139682173" lon="-5.471252028467702"><ele>824.0</ele><time>2026-03-25T11:27:01.919Z</time></trkpt><trkpt lat="30.76140568974598" lon="-5.471375292270236"><ele>824.0</ele><time>2026-03-25T11:27:02.919Z</time></trkpt><trkpt lat="30.761369070592732" lon="-5.471491966510076"><ele>823.8000000000001</ele><time>2026-03-25T11:27:03.919Z</time></trkpt><trkpt lat="30.76131672756766" lon="-5.471601360885418"><ele>823.6</ele><time>2026-03-25T11:27:04.919Z</time></trkpt><trkpt lat="30.761262304198922" lon="-5.471708775159404"><ele>823.4</ele><time>2026-03-25T11:27:05.919Z</time></trkpt><trkpt lat="30.76120347099247" lon="-5.4718180212436165"><ele>823.2</ele><time>2026-03-25T11:27:06.919Z</time></trkpt><trkpt lat="30.761150652617978" lon="-5.471929331391079"><ele>823.0</ele><time>2026-03-25T11:27:07.919Z</time></trkpt><trkpt lat="30.761091006795823" lon="-5.472040210674085"><ele>823.75</ele><time>2026-03-25T11:27:08.919Z</time></trkpt><trkpt lat="30.761027756645465" lon="-5.472151953082885"><ele>824.5</ele><time>2026-03-25T11:27:09.919Z</time></trkpt><trkpt lat="30.760964138141443" lon="-5.472271827851946"><ele>825.25</ele><time>2026-03-25T11:27:10.919Z</time></trkpt><trkpt lat="30.760919484449083" lon="-5.472380118883663"><ele>826.0</ele><time>2026-03-25T11:27:11.919Z</time></trkpt><trkpt lat="30.760881401085335" lon="-5.472504465504171"><ele>826.0</ele><time>2026-03-25T11:27:12.919Z</time></trkpt><trkpt lat="30.76085626684041" lon="-5.4726267780730575"><ele>826.0</ele><time>2026-03-25T11:27:13.919Z</time></trkpt><trkpt lat="30.7608398875629" lon="-5.4727451448339846"><ele>826.0</ele><time>2026-03-25T11:27:14.919Z</time></trkpt><trkpt lat="30.760822035240228" lon="-5.472870277444615"><ele>826.0</ele><time>2026-03-25T11:27:15.919Z</time></trkpt><trkpt lat="30.76079782446975" lon="-5.473006656266937"><ele>826.0</ele><time>2026-03-25T11:27:16.919Z</time></trkpt><trkpt lat="30.76075955078665" lon="-5.473153250804292"><ele>826.25</ele><time>2026-03-25T11:27:17.919Z</time></trkpt><trkpt lat="30.760711155734047" lon="-5.473298914431297"><ele>826.5</ele><time>2026-03-25T11:27:18.919Z</time></trkpt><trkpt lat="30.760670776447935" lon="-5.473436518928799"><ele>826.75</ele><time>2026-03-25T11:27:19.919Z</time></trkpt><trkpt lat="30.76062893092712" lon="-5.473571594706287"><ele>827.0</ele><time>2026-03-25T11:27:20.919Z</time></trkpt><trkpt lat="30.76056061300074" lon="-5.4737233192968375"><ele>826.3333333333334</ele><time>2026-03-25T11:27:21.919Z</time></trkpt><trkpt lat="30.760463173280975" lon="-5.473898219076285"><ele>825.6666666666667</ele><time>2026-03-25T11:27:22.919Z</time></trkpt><trkpt lat="30.760392128737198" lon="-5.474061104836331"><ele>825.0</ele><time>2026-03-25T11:27:23.919Z</time></trkpt><trkpt lat="30.760349484633988" lon="-5.474209668333863"><ele>825.0</ele><time>2026-03-25T11:27:24.919Z</time></trkpt><trkpt lat="30.760319140784166" lon="-5.474360505842721"><ele>825.0</ele><time>2026-03-25T11:27:25.919Z</time></trkpt><trkpt lat="30.760289927522578" lon="-5.474520103746715"><ele>825.0</ele><time>2026-03-25T11:27:26.919Z</time></trkpt><trkpt lat="30.76026619599107" lon="-5.474649324158469"><ele>825.0</ele><time>2026-03-25T11:27:27.919Z</time></trkpt><trkpt lat="30.760240063861083" lon="-5.474766220807443"><ele>825.5</ele><time>2026-03-25T11:27:28.919Z</time></trkpt><trkpt lat="30.760214243737643" lon="-5.474869811970886"><ele>826.0</ele><time>2026-03-25T11:27:29.919Z</time></trkpt><trkpt lat="30.760192913896834" lon="-5.474975477302195"><ele>826.5</ele><time>2026-03-25T11:27:30.919Z</time></trkpt><trkpt lat="30.760172008796836" lon="-5.475061125178378"><ele>827.0</ele><time>2026-03-25T11:27:31.919Z</time></trkpt><trkpt lat="30.76015767318593" lon="-5.475144178230587"><ele>827.5</ele><time>2026-03-25T11:27:32.919Z</time></trkpt><trkpt lat="30.760125235108802" lon="-5.47526388281079"><ele>828.0</ele><time>2026-03-25T11:27:34.919Z</time></trkpt><trkpt lat="30.76009264358397" lon="-5.475345712324176"><ele>828.4285714285714</ele><time>2026-03-25T11:27:36.919Z</time></trkpt><trkpt lat="30.76002318880285" lon="-5.475370017314607"><ele>828.8571428571429</ele><time>2026-03-25T11:27:39.919Z</time></trkpt><trkpt lat="30.759958551271442" lon="-5.475319697190372"><ele>829.2857142857142</ele><time>2026-03-25T11:27:46.919Z</time></trkpt><trkpt lat="30.7598943427861" lon="-5.475267969383977"><ele>829.7142857142858</ele><time>2026-03-25T11:28:34.918Z</time></trkpt><trkpt lat="30.75981077209436" lon="-5.475232635779901"><ele>830.1428571428571</ele><time>2026-03-25T11:28:36.919Z</time></trkpt><trkpt lat="30.759752665416396" lon="-5.475203772707298"><ele>830.5714285714286</ele><time>2026-03-25T11:28:37.919Z</time></trkpt><trkpt lat="30.759689211827638" lon="-5.475191025759475"><ele>831.0</ele><time>2026-03-25T11:28:38.918Z</time></trkpt><trkpt lat="30.759625981314127" lon="-5.475201044498209"><ele>831.0</ele><time>2026-03-25T11:28:39.918Z</time></trkpt><trkpt lat="30.7595583241931" lon="-5.475223385836055"><ele>831.0</ele><time>2026-03-25T11:28:40.918Z</time></trkpt><trkpt lat="30.759476074229507" lon="-5.475252520688418"><ele>831.0</ele><time>2026-03-25T11:28:41.919Z</time></trkpt><trkpt lat="30.759412915619563" lon="-5.475268605426235"><ele>831.0</ele><time>2026-03-25T11:28:42.919Z</time></trkpt><trkpt lat="30.75934392982044" lon="-5.475287340285253"><ele>831.0</ele><time>2026-03-25T11:28:43.918Z</time></trkpt><trkpt lat="30.759257180716652" lon="-5.47529288370945"><ele>831.0</ele><time>2026-03-25T11:28:44.918Z</time></trkpt><trkpt lat="30.759167817127043" lon="-5.475291222963434"><ele>831.0</ele><time>2026-03-25T11:28:45.918Z</time></trkpt><trkpt lat="30.759089990678962" lon="-5.475303799555551"><ele>831.0</ele><time>2026-03-25T11:28:46.918Z</time></trkpt><trkpt lat="30.75901957995364" lon="-5.475319449803054"><ele>831.0</ele><time>2026-03-25T11:28:47.918Z</time></trkpt><trkpt lat="30.758953658727496" lon="-5.475332789960343"><ele>831.0</ele><time>2026-03-25T11:28:48.918Z</time></trkpt><trkpt lat="30.758839294568844" lon="-5.4753508425159"><ele>831.0</ele><time>2026-03-25T11:28:50.918Z</time></trkpt><trkpt lat="30.758752377755297" lon="-5.475360732953511"><ele>831.0</ele><time>2026-03-25T11:28:52.918Z</time></trkpt><trkpt lat="30.758676049974778" lon="-5.475412294537483"><ele>831.4</ele><time>2026-03-25T11:28:54.918Z</time></trkpt><trkpt lat="30.758613426427488" lon="-5.475460859680002"><ele>831.8</ele><time>2026-03-25T11:28:55.918Z</time></trkpt><trkpt lat="30.758523041602732" lon="-5.475514634517953"><ele>832.1999999999999</ele><time>2026-03-25T11:28:56.918Z</time></trkpt><trkpt lat="30.758423732302806" lon="-5.47558254366933"><ele>832.5999999999999</ele><time>2026-03-25T11:28:57.918Z</time></trkpt><trkpt lat="30.75833316538974" lon="-5.475663794510976"><ele>833.0</ele><time>2026-03-25T11:28:58.918Z</time></trkpt><trkpt lat="30.758230345159983" lon="-5.475755489872344"><ele>833.6666666666667</ele><time>2026-03-25T11:29:00.918Z</time></trkpt><trkpt lat="30.75816996852017" lon="-5.475813180949234"><ele>834.3333333333334</ele><time>2026-03-25T11:29:01.918Z</time></trkpt><trkpt lat="30.758094924348924" lon="-5.475862861121093"><ele>835.0</ele><time>2026-03-25T11:29:02.918Z</time></trkpt><trkpt lat="30.758017793553872" lon="-5.475895913011161"><ele>835.6666666666667</ele><time>2026-03-25T11:29:03.918Z</time></trkpt><trkpt lat="30.757940860799145" lon="-5.475906809976307"><ele>836.3333333333334</ele><time>2026-03-25T11:29:04.918Z</time></trkpt><trkpt lat="30.75787177567073" lon="-5.47587470300669"><ele>837.0</ele><time>2026-03-25T11:29:05.918Z</time></trkpt><trkpt lat="30.757811988222723" lon="-5.475781307092203"><ele>837.0</ele><time>2026-03-25T11:29:06.918Z</time></trkpt><trkpt lat="30.757750519200073" lon="-5.475660250612137"><ele>837.0</ele><time>2026-03-25T11:29:07.918Z</time></trkpt><trkpt lat="30.75769457860399" lon="-5.475598788712311"><ele>837.0</ele><time>2026-03-25T11:29:08.918Z</time></trkpt><trkpt lat="30.757628382659124" lon="-5.475560897094142"><ele>837.0</ele><time>2026-03-25T11:29:09.918Z</time></trkpt><trkpt lat="30.757547536693682" lon="-5.475537181206541"><ele>837.0</ele><time>2026-03-25T11:29:10.918Z</time></trkpt><trkpt lat="30.757457528930622" lon="-5.475484753771445"><ele>837.5</ele><time>2026-03-25T11:29:11.918Z</time></trkpt><trkpt lat="30.757377627674895" lon="-5.475438166133902"><ele>838.0</ele><time>2026-03-25T11:29:12.918Z</time></trkpt><trkpt lat="30.75730623519231" lon="-5.475377527100178"><ele>838.5</ele><time>2026-03-25T11:29:13.918Z</time></trkpt><trkpt lat="30.757252166989858" lon="-5.475332076202844"><ele>839.0</ele><time>2026-03-25T11:29:14.918Z</time></trkpt><trkpt lat="30.757202618930755" lon="-5.4752784325092065"><ele>839.5</ele><time>2026-03-25T11:29:15.918Z</time></trkpt><trkpt lat="30.757119843094245" lon="-5.475187985960962"><ele>840.0</ele><time>2026-03-25T11:29:17.918Z</time></trkpt><trkpt lat="30.757035925081244" lon="-5.475105113783867"><ele>840.0</ele><time>2026-03-25T11:29:19.918Z</time></trkpt><trkpt lat="30.756965915522493" lon="-5.47504532038103"><ele>840.0</ele><time>2026-03-25T11:29:21.918Z</time></trkpt><trkpt lat="30.75689758501403" lon="-5.474999222044032"><ele>840.0</ele><time>2026-03-25T11:29:24.918Z</time></trkpt><trkpt lat="30.756816822151922" lon="-5.4750134561306325"><ele>840.0</ele><time>2026-03-25T11:29:28.918Z</time></trkpt><trkpt lat="30.756746829777178" lon="-5.475049684152583"><ele>840.0</ele><time>2026-03-25T11:29:31.918Z</time></trkpt><trkpt lat="30.756682955938874" lon="-5.475027377209732"><ele>840.0</ele><time>2026-03-25T11:29:34.918Z</time></trkpt><trkpt lat="30.75662069049213" lon="-5.474993581026517"><ele>840.5714285714286</ele><time>2026-03-25T11:29:37.918Z</time></trkpt><trkpt lat="30.756614850238215" lon="-5.4749138420480135"><ele>841.1428571428571</ele><time>2026-03-25T11:29:40.918Z</time></trkpt><trkpt lat="30.756664136466608" lon="-5.474850562461307"><ele>841.7142857142858</ele><time>2026-03-25T11:29:44.918Z</time></trkpt><trkpt lat="30.75671924634708" lon="-5.474887274119292"><ele>842.2857142857142</ele><time>2026-03-25T11:29:47.917Z</time></trkpt><trkpt lat="30.75673913486943" lon="-5.474957061957256"><ele>842.8571428571429</ele><time>2026-03-25T11:29:51.917Z</time></trkpt><trkpt lat="30.756675930409866" lon="-5.47497950164401"><ele>843.4285714285714</ele><time>2026-03-25T11:30:49.917Z</time></trkpt><trkpt lat="30.756611264618705" lon="-5.4749673401226895"><ele>844.0</ele><time>2026-03-25T11:30:57.917Z</time></trkpt><trkpt lat="30.756678685517013" lon="-5.474951700950333"><ele>843.9999999999999</ele><time>2026-03-25T11:32:09.916Z</time></trkpt><trkpt lat="30.756744141843416" lon="-5.4749490075024605"><ele>844.0</ele><time>2026-03-25T11:32:17.916Z</time></trkpt><trkpt lat="30.756727559227283" lon="-5.475039607148016"><ele>844.0</ele><time>2026-03-25T11:37:09.915Z</time></trkpt><trkpt lat="30.75665370888279" lon="-5.47500332462908"><ele>844.0</ele><time>2026-03-25T11:37:12.915Z</time></trkpt><trkpt lat="30.756605658488784" lon="-5.474941440640258"><ele>843.9999999999999</ele><time>2026-03-25T11:37:14.915Z</time></trkpt><trkpt lat="30.756559201824516" lon="-5.474826087310761"><ele>844.0</ele><time>2026-03-25T11:37:16.915Z</time></trkpt><trkpt lat="30.75652308882912" lon="-5.474765347328729"><ele>843.9999999999999</ele><time>2026-03-25T11:37:17.915Z</time></trkpt><trkpt lat="30.756472811088077" lon="-5.4746936126604036"><ele>844.0</ele><time>2026-03-25T11:37:18.915Z</time></trkpt><trkpt lat="30.756416622332356" lon="-5.47460794573608"><ele>844.0</ele><time>2026-03-25T11:37:19.915Z</time></trkpt><trkpt lat="30.75636552323462" lon="-5.474533665891813"><ele>844.0</ele><time>2026-03-25T11:37:20.915Z</time></trkpt><trkpt lat="30.75631817335883" lon="-5.474460093876165"><ele>843.9999999999999</ele><time>2026-03-25T11:37:21.915Z</time></trkpt><trkpt lat="30.756266972873895" lon="-5.474379028282932"><ele>844.0</ele><time>2026-03-25T11:37:22.915Z</time></trkpt><trkpt lat="30.756227275094297" lon="-5.474290316023332"><ele>844.0</ele><time>2026-03-25T11:37:23.915Z</time></trkpt><trkpt lat="30.756178371131437" lon="-5.474201947395047"><ele>844.0</ele><time>2026-03-25T11:37:24.915Z</time></trkpt><trkpt lat="30.75612590857921" lon="-5.47410042272227"><ele>844.0</ele><time>2026-03-25T11:37:25.915Z</time></trkpt><trkpt lat="30.75610399940385" lon="-5.474002056239836"><ele>844.0</ele><time>2026-03-25T11:37:26.915Z</time></trkpt><trkpt lat="30.756117727655408" lon="-5.473893903216204"><ele>844.0</ele><time>2026-03-25T11:37:27.915Z</time></trkpt><trkpt lat="30.756135277478318" lon="-5.473776993887716"><ele>844.6</ele><time>2026-03-25T11:37:28.915Z</time></trkpt><trkpt lat="30.756149604515766" lon="-5.473676034697437"><ele>845.2</ele><time>2026-03-25T11:37:29.915Z</time></trkpt><trkpt lat="30.75616900116655" lon="-5.4735631529648945"><ele>845.8000000000001</ele><time>2026-03-25T11:37:30.915Z</time></trkpt><trkpt lat="30.75619599328434" lon="-5.473454610077206"><ele>846.4000000000001</ele><time>2026-03-25T11:37:31.915Z</time></trkpt><trkpt lat="30.75621851531445" lon="-5.4733340587268655"><ele>847.0</ele><time>2026-03-25T11:37:32.915Z</time></trkpt><trkpt lat="30.756240730184192" lon="-5.473224153545395"><ele>846.9999999999999</ele><time>2026-03-25T11:37:33.915Z</time></trkpt><trkpt lat="30.756270135682524" lon="-5.473148652748193"><ele>847.0</ele><time>2026-03-25T11:37:34.915Z</time></trkpt><trkpt lat="30.756323683097467" lon="-5.473039271607648"><ele>847.0</ele><time>2026-03-25T11:37:36.915Z</time></trkpt><trkpt lat="30.756369889647505" lon="-5.472968631751553"><ele>847.0</ele><time>2026-03-25T11:37:38.915Z</time></trkpt><trkpt lat="30.756345863909434" lon="-5.47286235092674"><ele>846.9999999999999</ele><time>2026-03-25T11:37:40.915Z</time></trkpt><trkpt lat="30.75629052826859" lon="-5.472823395318552"><ele>847.0</ele><time>2026-03-25T11:37:41.915Z</time></trkpt><trkpt lat="30.75620393506174" lon="-5.472786665808185"><ele>846.3333333333333</ele><time>2026-03-25T11:37:42.915Z</time></trkpt><trkpt lat="30.7561200488885" lon="-5.472725725045768"><ele>845.6666666666666</ele><time>2026-03-25T11:37:43.915Z</time></trkpt><trkpt lat="30.756049438642428" lon="-5.472657171291212"><ele>845.0</ele><time>2026-03-25T11:37:44.915Z</time></trkpt><trkpt lat="30.755986443449554" lon="-5.472608207923367"><ele>844.3333333333333</ele><time>2026-03-25T11:37:45.915Z</time></trkpt><trkpt lat="30.75593073228957" lon="-5.472548177884477"><ele>843.6666666666666</ele><time>2026-03-25T11:37:46.915Z</time></trkpt><trkpt lat="30.755862929743575" lon="-5.472468215341224"><ele>843.0</ele><time>2026-03-25T11:37:48.915Z</time></trkpt><trkpt lat="30.755767435314784" lon="-5.472395251594852"><ele>844.6666666666666</ele><time>2026-03-25T11:37:50.915Z</time></trkpt><trkpt lat="30.75571544222103" lon="-5.472341487766092"><ele>846.3333333333333</ele><time>2026-03-25T11:37:51.915Z</time></trkpt><trkpt lat="30.755709617463364" lon="-5.472230368805248"><ele>848.0</ele><time>2026-03-25T11:37:53.915Z</time></trkpt><trkpt lat="30.755790184018558" lon="-5.472163511984907"><ele>849.6666666666666</ele><time>2026-03-25T11:37:55.915Z</time></trkpt><trkpt lat="30.755896145444922" lon="-5.4721459927722895"><ele>851.3333333333333</ele><time>2026-03-25T11:37:57.915Z</time></trkpt><trkpt lat="30.755963621287915" lon="-5.472158684138996"><ele>853.0</ele><time>2026-03-25T11:37:58.915Z</time></trkpt><trkpt lat="30.756030033199874" lon="-5.4722144479750785"><ele>851.3333333333333</ele><time>2026-03-25T11:37:59.915Z</time></trkpt><trkpt lat="30.756127816983234" lon="-5.472244380139026"><ele>849.6666666666666</ele><time>2026-03-25T11:38:00.915Z</time></trkpt><trkpt lat="30.756213662855178" lon="-5.472273392843998"><ele>848.0</ele><time>2026-03-25T11:38:01.915Z</time></trkpt><trkpt lat="30.756295768239347" lon="-5.472322341752474"><ele>846.3333333333333</ele><time>2026-03-25T11:38:02.915Z</time></trkpt><trkpt lat="30.756350390627478" lon="-5.4723666787577745"><ele>844.6666666666666</ele><time>2026-03-25T11:38:03.915Z</time></trkpt><trkpt lat="30.756393387519566" lon="-5.4724290447269075"><ele>843.0</ele><time>2026-03-25T11:38:05.915Z</time></trkpt><trkpt lat="30.75643552314541" lon="-5.472529136924"><ele>843.0</ele><time>2026-03-25T11:38:07.915Z</time></trkpt><trkpt lat="30.75648283907967" lon="-5.472582977532001"><ele>843.0</ele><time>2026-03-25T11:38:08.915Z</time></trkpt><trkpt lat="30.756537071574947" lon="-5.472669264764387"><ele>843.0</ele><time>2026-03-25T11:38:10.915Z</time></trkpt><trkpt lat="30.75654732534143" lon="-5.47279745276021"><ele>843.0</ele><time>2026-03-25T11:38:12.915Z</time></trkpt><trkpt lat="30.756560166039076" lon="-5.472875933792311"><ele>843.0</ele><time>2026-03-25T11:38:13.915Z</time></trkpt><trkpt lat="30.756568601073546" lon="-5.472957252904959"><ele>843.0</ele><time>2026-03-25T11:38:14.915Z</time></trkpt><trkpt lat="30.756548566436773" lon="-5.473046046065733"><ele>843.6666666666666</ele><time>2026-03-25T11:38:15.915Z</time></trkpt><trkpt lat="30.756512945381" lon="-5.473154290031996"><ele>844.3333333333333</ele><time>2026-03-25T11:38:16.915Z</time></trkpt><trkpt lat="30.756530261130244" lon="-5.473255617017196"><ele>845.0</ele><time>2026-03-25T11:38:17.915Z</time></trkpt><trkpt lat="30.75657653722248" lon="-5.473344610161711"><ele>845.6666666666666</ele><time>2026-03-25T11:38:18.915Z</time></trkpt><trkpt lat="30.756621200596406" lon="-5.473416952191041"><ele>846.3333333333333</ele><time>2026-03-25T11:38:19.915Z</time></trkpt><trkpt lat="30.756664547896754" lon="-5.473513553354994"><ele>847.0</ele><time>2026-03-25T11:38:21.915Z</time></trkpt><trkpt lat="30.756740859570964" lon="-5.473641154012463"><ele>846.9999999999999</ele><time>2026-03-25T11:38:23.915Z</time></trkpt><trkpt lat="30.756787393029832" lon="-5.473692708778306"><ele>847.0</ele><time>2026-03-25T11:38:24.915Z</time></trkpt><trkpt lat="30.75685431625662" lon="-5.473748571908114"><ele>847.0</ele><time>2026-03-25T11:38:25.915Z</time></trkpt><trkpt lat="30.756923246011667" lon="-5.473806097742393"><ele>847.0</ele><time>2026-03-25T11:38:26.915Z</time></trkpt><trkpt lat="30.756981647218087" lon="-5.4738808258231115"><ele>846.9999999999999</ele><time>2026-03-25T11:38:27.915Z</time></trkpt><trkpt lat="30.757037185978575" lon="-5.473952863504381"><ele>847.0</ele><time>2026-03-25T11:38:28.915Z</time></trkpt><trkpt lat="30.757090553317088" lon="-5.474021333177365"><ele>845.1666666666666</ele><time>2026-03-25T11:38:29.915Z</time></trkpt><trkpt lat="30.757148059283836" lon="-5.474103485754465"><ele>843.3333333333333</ele><time>2026-03-25T11:38:30.915Z</time></trkpt><trkpt lat="30.75719768995172" lon="-5.474201179369847"><ele>841.5</ele><time>2026-03-25T11:38:31.915Z</time></trkpt><trkpt lat="30.757241992933437" lon="-5.474285787606439"><ele>839.6666666666667</ele><time>2026-03-25T11:38:32.915Z</time></trkpt><trkpt lat="30.757294634755002" lon="-5.4743526990057925"><ele>837.8333333333334</ele><time>2026-03-25T11:38:33.915Z</time></trkpt><trkpt lat="30.757349734059147" lon="-5.474394743217496"><ele>836.0</ele><time>2026-03-25T11:38:34.915Z</time></trkpt><trkpt lat="30.757411690542934" lon="-5.474423303295735"><ele>836.0</ele><time>2026-03-25T11:38:35.915Z</time></trkpt><trkpt lat="30.757511827208546" lon="-5.47449546630804"><ele>836.0</ele><time>2026-03-25T11:38:37.914Z</time></trkpt><trkpt lat="30.757594886873456" lon="-5.474581631357423"><ele>836.0</ele><time>2026-03-25T11:38:39.914Z</time></trkpt><trkpt lat="30.757668091776182" lon="-5.474649659979422"><ele>836.0</ele><time>2026-03-25T11:38:41.914Z</time></trkpt><trkpt lat="30.75776189610159" lon="-5.4747044798731554"><ele>836.0</ele><time>2026-03-25T11:38:43.914Z</time></trkpt><trkpt lat="30.757861411000604" lon="-5.474745070019759"><ele>835.5999999999999</ele><time>2026-03-25T11:38:45.914Z</time></trkpt><trkpt lat="30.75794355692366" lon="-5.4747624694190185"><ele>835.2</ele><time>2026-03-25T11:38:46.914Z</time></trkpt><trkpt lat="30.758038256810394" lon="-5.474797672400524"><ele>834.8</ele><time>2026-03-25T11:38:47.914Z</time></trkpt><trkpt lat="30.7581398129914" lon="-5.474823352036861"><ele>834.4000000000001</ele><time>2026-03-25T11:38:48.914Z</time></trkpt><trkpt lat="30.758242652432223" lon="-5.474843777972599"><ele>834.0</ele><time>2026-03-25T11:38:49.914Z</time></trkpt><trkpt lat="30.75831946696252" lon="-5.474856604550883"><ele>834.0</ele><time>2026-03-25T11:38:50.914Z</time></trkpt><trkpt lat="30.7583863846093" lon="-5.4748677858014885"><ele>834.0</ele><time>2026-03-25T11:38:51.914Z</time></trkpt><trkpt lat="30.758455703014697" lon="-5.474891015879183"><ele>834.0</ele><time>2026-03-25T11:38:52.914Z</time></trkpt><trkpt lat="30.7585426263224" lon="-5.4749152491348205"><ele>834.0</ele><time>2026-03-25T11:38:53.914Z</time></trkpt><trkpt lat="30.7586192615711" lon="-5.474921971971142"><ele>834.0</ele><time>2026-03-25T11:38:54.914Z</time></trkpt><trkpt lat="30.758688410233457" lon="-5.474909589344097"><ele>834.0</ele><time>2026-03-25T11:38:55.914Z</time></trkpt><trkpt lat="30.758790291651387" lon="-5.474832598443774"><ele>833.5</ele><time>2026-03-25T11:38:57.914Z</time></trkpt><trkpt lat="30.75884033455617" lon="-5.474763857550936"><ele>833.0</ele><time>2026-03-25T11:38:58.914Z</time></trkpt><trkpt lat="30.75889476233192" lon="-5.474685542040945"><ele>832.5</ele><time>2026-03-25T11:38:59.914Z</time></trkpt><trkpt lat="30.75894048840656" lon="-5.474616865175758"><ele>832.0</ele><time>2026-03-25T11:39:00.914Z</time></trkpt><trkpt lat="30.75898771046089" lon="-5.4745670006873794"><ele>831.5</ele><time>2026-03-25T11:39:01.914Z</time></trkpt><trkpt lat="30.759088115644435" lon="-5.474503423921342"><ele>831.0</ele><time>2026-03-25T11:39:03.915Z</time></trkpt><trkpt lat="30.759202692895084" lon="-5.4745193977248725"><ele>831.0</ele><time>2026-03-25T11:39:05.914Z</time></trkpt><trkpt lat="30.759322795728387" lon="-5.474586309126949"><ele>831.0</ele><time>2026-03-25T11:39:07.914Z</time></trkpt><trkpt lat="30.759390840775374" lon="-5.474638330909953"><ele>831.0</ele><time>2026-03-25T11:39:08.914Z</time></trkpt><trkpt lat="30.759456308650638" lon="-5.47469340279278"><ele>831.0</ele><time>2026-03-25T11:39:09.914Z</time></trkpt><trkpt lat="30.759511864445955" lon="-5.474743484956841"><ele>831.0</ele><time>2026-03-25T11:39:10.914Z</time></trkpt><trkpt lat="30.759568646805338" lon="-5.474787648235399"><ele>831.0</ele><time>2026-03-25T11:39:11.913Z</time></trkpt><trkpt lat="30.75963552067674" lon="-5.474824287362511"><ele>831.0</ele><time>2026-03-25T11:39:12.913Z</time></trkpt><trkpt lat="30.759712107633064" lon="-5.474848776692176"><ele>831.0</ele><time>2026-03-25T11:39:13.914Z</time></trkpt><trkpt lat="30.759799783578792" lon="-5.47485713843854"><ele>831.0</ele><time>2026-03-25T11:39:14.914Z</time></trkpt><trkpt lat="30.75986671864731" lon="-5.474873332841541"><ele>831.0</ele><time>2026-03-25T11:39:15.914Z</time></trkpt><trkpt lat="30.759935463262885" lon="-5.474907769432856"><ele>831.0</ele><time>2026-03-25T11:39:17.914Z</time></trkpt><trkpt lat="30.7599991683614" lon="-5.474966815583462"><ele>831.0</ele><time>2026-03-25T11:39:19.914Z</time></trkpt><trkpt lat="30.76005856944823" lon="-5.475065936356"><ele>831.0</ele><time>2026-03-25T11:39:21.914Z</time></trkpt><trkpt lat="30.760069677344234" lon="-5.475180289787447"><ele>831.0</ele><time>2026-03-25T11:39:23.914Z</time></trkpt><trkpt lat="30.760063816197945" lon="-5.475264957241889"><ele>831.0</ele><time>2026-03-25T11:39:25.914Z</time></trkpt><trkpt lat="30.76005366585112" lon="-5.475340591732353"><ele>831.0</ele><time>2026-03-25T11:39:27.914Z</time></trkpt><trkpt lat="30.7600453674121" lon="-5.475439053790722"><ele>831.0</ele><time>2026-03-25T11:39:29.914Z</time></trkpt><trkpt lat="30.76003911284535" lon="-5.475541246334864"><ele>831.0</ele><time>2026-03-25T11:39:31.914Z</time></trkpt><trkpt lat="30.76004397794483" lon="-5.475632743031931"><ele>831.1428571428571</ele><time>2026-03-25T11:39:33.914Z</time></trkpt><trkpt lat="30.760042484927" lon="-5.475729456415217"><ele>831.2857142857142</ele><time>2026-03-25T11:39:36.914Z</time></trkpt><trkpt lat="30.760019543256373" lon="-5.475813090540555"><ele>831.4285714285713</ele><time>2026-03-25T11:39:39.914Z</time></trkpt><trkpt lat="30.759988992984123" lon="-5.475882662546124"><ele>831.5714285714286</ele><time>2026-03-25T11:39:42.914Z</time></trkpt><trkpt lat="30.759972787029465" lon="-5.475972063341254"><ele>831.7142857142858</ele><time>2026-03-25T11:39:45.914Z</time></trkpt><trkpt lat="30.75996034042064" lon="-5.4760468235797335"><ele>831.8571428571428</ele><time>2026-03-25T11:39:48.914Z</time></trkpt><trkpt lat="30.759947466156632" lon="-5.476131319375033"><ele>832.0</ele><time>2026-03-25T11:39:52.914Z</time></trkpt><trkpt lat="30.75992928345689" lon="-5.476252036894102"><ele>831.8333333333333</ele><time>2026-03-25T11:39:54.914Z</time></trkpt><trkpt lat="30.75992169898626" lon="-5.476337300877462"><ele>831.6666666666666</ele><time>2026-03-25T11:39:55.914Z</time></trkpt><trkpt lat="30.759916307706185" lon="-5.476440714323317"><ele>831.5</ele><time>2026-03-25T11:39:56.914Z</time></trkpt><trkpt lat="30.759910307913685" lon="-5.476543814099508"><ele>831.3333333333333</ele><time>2026-03-25T11:39:57.913Z</time></trkpt><trkpt lat="30.75989296377093" lon="-5.476636867614321"><ele>831.1666666666666</ele><time>2026-03-25T11:39:58.913Z</time></trkpt><trkpt lat="30.75986238570908" lon="-5.476708460326678"><ele>831.0</ele><time>2026-03-25T11:39:59.912Z</time></trkpt><trkpt lat="30.75983483622022" lon="-5.476792067647017"><ele>831.0</ele><time>2026-03-25T11:40:00.912Z</time></trkpt><trkpt lat="30.75979555034508" lon="-5.476857624146194"><ele>831.0</ele><time>2026-03-25T11:40:01.912Z</time></trkpt><trkpt lat="30.75974978847258" lon="-5.47693126810706"><ele>831.0</ele><time>2026-03-25T11:40:02.911Z</time></trkpt><trkpt lat="30.75970059843855" lon="-5.477009260393024"><ele>831.0</ele><time>2026-03-25T11:40:03.911Z</time></trkpt><trkpt lat="30.759649863492772" lon="-5.477088947092742"><ele>831.0</ele><time>2026-03-25T11:40:04.911Z</time></trkpt><trkpt lat="30.759596462013118" lon="-5.4771715899045"><ele>831.0</ele><time>2026-03-25T11:40:05.911Z</time></trkpt><trkpt lat="30.759537532338936" lon="-5.477270134860775"><ele>831.25</ele><time>2026-03-25T11:40:06.91Z</time></trkpt><trkpt lat="30.75947404562826" lon="-5.477375116978436"><ele>831.5</ele><time>2026-03-25T11:40:07.91Z</time></trkpt><trkpt lat="30.75940972684262" lon="-5.477481634327101"><ele>831.75</ele><time>2026-03-25T11:40:08.91Z</time></trkpt><trkpt lat="30.759330296101002" lon="-5.47760482274096"><ele>832.0</ele><time>2026-03-25T11:40:09.91Z</time></trkpt><trkpt lat="30.759236613344356" lon="-5.477747584554207"><ele>832.0</ele><time>2026-03-25T11:40:10.909Z</time></trkpt><trkpt lat="30.75913620700917" lon="-5.477889807374677"><ele>832.0</ele><time>2026-03-25T11:40:11.909Z</time></trkpt><trkpt lat="30.75903882397485" lon="-5.478016802621758"><ele>832.0</ele><time>2026-03-25T11:40:12.909Z</time></trkpt><trkpt lat="30.758944667734223" lon="-5.478137384769737"><ele>832.0</ele><time>2026-03-25T11:40:13.909Z</time></trkpt><trkpt lat="30.75885074939084" lon="-5.478257646318215"><ele>832.0</ele><time>2026-03-25T11:40:14.909Z</time></trkpt><trkpt lat="30.758742896078136" lon="-5.478374736213379"><ele>832.0</ele><time>2026-03-25T11:40:15.908Z</time></trkpt><trkpt lat="30.758625943862214" lon="-5.478490370515695"><ele>832.0</ele><time>2026-03-25T11:40:16.908Z</time></trkpt><trkpt lat="30.75851188803528" lon="-5.478617249059883"><ele>832.6666666666666</ele><time>2026-03-25T11:40:17.908Z</time></trkpt><trkpt lat="30.758408217695983" lon="-5.478753385752984"><ele>833.3333333333333</ele><time>2026-03-25T11:40:18.908Z</time></trkpt><trkpt lat="30.758306069471548" lon="-5.4789150264492275"><ele>834.0</ele><time>2026-03-25T11:40:19.908Z</time></trkpt><trkpt lat="30.75820131690981" lon="-5.4791005317802135"><ele>834.0</ele><time>2026-03-25T11:40:20.908Z</time></trkpt><trkpt lat="30.758109729319525" lon="-5.479270376992146"><ele>834.0</ele><time>2026-03-25T11:40:21.908Z</time></trkpt><trkpt lat="30.758031572805812" lon="-5.479424897732056"><ele>834.0</ele><time>2026-03-25T11:40:22.907Z</time></trkpt><trkpt lat="30.757951529758465" lon="-5.479592779988715"><ele>834.0</ele><time>2026-03-25T11:40:23.907Z</time></trkpt><trkpt lat="30.75787628635979" lon="-5.479764869880353"><ele>834.0</ele><time>2026-03-25T11:40:24.907Z</time></trkpt><trkpt lat="30.75781275160518" lon="-5.47992286412579"><ele>834.0</ele><time>2026-03-25T11:40:25.907Z</time></trkpt><trkpt lat="30.757756340614044" lon="-5.480063588468803"><ele>834.0</ele><time>2026-03-25T11:40:26.907Z</time></trkpt><trkpt lat="30.75770545492853" lon="-5.480195037741488"><ele>833.75</ele><time>2026-03-25T11:40:27.907Z</time></trkpt><trkpt lat="30.757650051333684" lon="-5.480339199525027"><ele>833.5</ele><time>2026-03-25T11:40:28.907Z</time></trkpt><trkpt lat="30.75759290743167" lon="-5.480476260742242"><ele>833.25</ele><time>2026-03-25T11:40:29.907Z</time></trkpt><trkpt lat="30.75754028432911" lon="-5.480614988225713"><ele>833.0</ele><time>2026-03-25T11:40:30.907Z</time></trkpt><trkpt lat="30.757492780858218" lon="-5.48074365952737"><ele>832.25</ele><time>2026-03-25T11:40:31.907Z</time></trkpt><trkpt lat="30.757445583260434" lon="-5.480866458647639"><ele>831.5</ele><time>2026-03-25T11:40:32.907Z</time></trkpt><trkpt lat="30.757392591144566" lon="-5.480998937080638"><ele>830.75</ele><time>2026-03-25T11:40:33.907Z</time></trkpt><trkpt lat="30.757338687977715" lon="-5.481146086756398"><ele>830.0</ele><time>2026-03-25T11:40:34.907Z</time></trkpt><trkpt lat="30.757283298805348" lon="-5.481292450652025"><ele>829.75</ele><time>2026-03-25T11:40:35.907Z</time></trkpt><trkpt lat="30.75722736220444" lon="-5.481435151202485"><ele>829.5</ele><time>2026-03-25T11:40:36.907Z</time></trkpt><trkpt lat="30.757175183234555" lon="-5.48157203189499"><ele>829.25</ele><time>2026-03-25T11:40:37.906Z</time></trkpt><trkpt lat="30.75712415507089" lon="-5.4817103222787"><ele>829.0</ele><time>2026-03-25T11:40:38.906Z</time></trkpt><trkpt lat="30.75707127531348" lon="-5.481844789423223"><ele>829.0</ele><time>2026-03-25T11:40:39.906Z</time></trkpt><trkpt lat="30.75701973829011" lon="-5.481978382717465"><ele>829.0</ele><time>2026-03-25T11:40:40.906Z</time></trkpt><trkpt lat="30.756973849758023" lon="-5.482117583564925"><ele>829.0</ele><time>2026-03-25T11:40:41.906Z</time></trkpt><trkpt lat="30.756923045232014" lon="-5.48226458776299"><ele>829.0</ele><time>2026-03-25T11:40:42.906Z</time></trkpt><trkpt lat="30.756871665973165" lon="-5.482402202239285"><ele>829.25</ele><time>2026-03-25T11:40:43.906Z</time></trkpt><trkpt lat="30.75682287493706" lon="-5.482548112436488"><ele>829.5</ele><time>2026-03-25T11:40:44.906Z</time></trkpt><trkpt lat="30.756773570308454" lon="-5.482678114842703"><ele>829.75</ele><time>2026-03-25T11:40:45.906Z</time></trkpt><trkpt lat="30.75672476992948" lon="-5.482811815041647"><ele>830.0</ele><time>2026-03-25T11:40:46.906Z</time></trkpt><trkpt lat="30.756672514779947" lon="-5.482949685355127"><ele>830.0</ele><time>2026-03-25T11:40:47.906Z</time></trkpt><trkpt lat="30.75661693633012" lon="-5.4830952105634685"><ele>830.0</ele><time>2026-03-25T11:40:48.906Z</time></trkpt><trkpt lat="30.75656564788121" lon="-5.483238207347517"><ele>830.0</ele><time>2026-03-25T11:40:49.906Z</time></trkpt><trkpt lat="30.756511000255376" lon="-5.483369137408767"><ele>830.0</ele><time>2026-03-25T11:40:50.906Z</time></trkpt><trkpt lat="30.75646238195867" lon="-5.483503324197843"><ele>830.0</ele><time>2026-03-25T11:40:51.906Z</time></trkpt><trkpt lat="30.756413247647927" lon="-5.483642854079696"><ele>830.0</ele><time>2026-03-25T11:40:52.906Z</time></trkpt><trkpt lat="30.756364185597185" lon="-5.483803576461543"><ele>830.0</ele><time>2026-03-25T11:40:53.906Z</time></trkpt><trkpt lat="30.756306075707588" lon="-5.48398091320602"><ele>830.0</ele><time>2026-03-25T11:40:54.906Z</time></trkpt><trkpt lat="30.75624386777345" lon="-5.48414650023973"><ele>830.0</ele><time>2026-03-25T11:40:55.906Z</time></trkpt><trkpt lat="30.756188853279856" lon="-5.484292140859506"><ele>830.0</ele><time>2026-03-25T11:40:56.906Z</time></trkpt><trkpt lat="30.756137305851777" lon="-5.484436750901398"><ele>830.0</ele><time>2026-03-25T11:40:57.906Z</time></trkpt><trkpt lat="30.756082816127613" lon="-5.484581643798393"><ele>830.0</ele><time>2026-03-25T11:40:58.906Z</time></trkpt><trkpt lat="30.756022253713205" lon="-5.484730221198693"><ele>831.0</ele><time>2026-03-25T11:40:59.906Z</time></trkpt><trkpt lat="30.75595768865471" lon="-5.484898618938276"><ele>832.0</ele><time>2026-03-25T11:41:00.906Z</time></trkpt><trkpt lat="30.75589395451881" lon="-5.4850677747676615"><ele>833.0</ele><time>2026-03-25T11:41:01.906Z</time></trkpt><trkpt lat="30.75583008935577" lon="-5.48522015334955"><ele>833.0</ele><time>2026-03-25T11:41:02.906Z</time></trkpt><trkpt lat="30.75575985860963" lon="-5.485366899731297"><ele>833.0</ele><time>2026-03-25T11:41:03.906Z</time></trkpt><trkpt lat="30.755684042723395" lon="-5.48552079796642"><ele>833.0</ele><time>2026-03-25T11:41:04.906Z</time></trkpt><trkpt lat="30.755612056941164" lon="-5.485681309235153"><ele>832.6666666666667</ele><time>2026-03-25T11:41:05.906Z</time></trkpt><trkpt lat="30.755537207882906" lon="-5.485843196760687"><ele>832.3333333333333</ele><time>2026-03-25T11:41:06.906Z</time></trkpt><trkpt lat="30.75546411501299" lon="-5.485993214610384"><ele>832.0</ele><time>2026-03-25T11:41:07.906Z</time></trkpt><trkpt lat="30.755391571860255" lon="-5.486153166021513"><ele>831.25</ele><time>2026-03-25T11:41:08.906Z</time></trkpt><trkpt lat="30.755320537869334" lon="-5.486303711389958"><ele>830.5</ele><time>2026-03-25T11:41:09.906Z</time></trkpt><trkpt lat="30.755246206610984" lon="-5.486457778830868"><ele>829.75</ele><time>2026-03-25T11:41:10.906Z</time></trkpt><trkpt lat="30.75516507615599" lon="-5.486604255364626"><ele>829.0</ele><time>2026-03-25T11:41:11.905Z</time></trkpt><trkpt lat="30.755078590767127" lon="-5.486735226287685"><ele>829.0</ele><time>2026-03-25T11:41:12.905Z</time></trkpt><trkpt lat="30.754990595444276" lon="-5.486867572946219"><ele>829.0</ele><time>2026-03-25T11:41:13.906Z</time></trkpt><trkpt lat="30.754899649281946" lon="-5.486990884224422"><ele>829.0</ele><time>2026-03-25T11:41:14.906Z</time></trkpt><trkpt lat="30.75480394309456" lon="-5.487108792480833"><ele>829.0</ele><time>2026-03-25T11:41:15.906Z</time></trkpt><trkpt lat="30.754704807543135" lon="-5.487223247389928"><ele>829.0</ele><time>2026-03-25T11:41:16.906Z</time></trkpt><trkpt lat="30.754607404684794" lon="-5.487338594268354"><ele>829.0</ele><time>2026-03-25T11:41:17.906Z</time></trkpt><trkpt lat="30.754520878313386" lon="-5.487457434169345"><ele>829.0</ele><time>2026-03-25T11:41:18.906Z</time></trkpt><trkpt lat="30.754442085736333" lon="-5.487573298602766"><ele>829.0</ele><time>2026-03-25T11:41:19.905Z</time></trkpt><trkpt lat="30.75436271643157" lon="-5.487705800342384"><ele>829.0</ele><time>2026-03-25T11:41:20.905Z</time></trkpt><trkpt lat="30.754290547417916" lon="-5.487839169766293"><ele>829.0</ele><time>2026-03-25T11:41:21.905Z</time></trkpt><trkpt lat="30.754224298043837" lon="-5.487982100436469"><ele>829.0</ele><time>2026-03-25T11:41:22.905Z</time></trkpt><trkpt lat="30.75416820691724" lon="-5.488119474857728"><ele>829.0</ele><time>2026-03-25T11:41:23.905Z</time></trkpt><trkpt lat="30.75411468414196" lon="-5.4882410038432115"><ele>829.0</ele><time>2026-03-25T11:41:24.905Z</time></trkpt><trkpt lat="30.7540630868495" lon="-5.488355031949354"><ele>829.0</ele><time>2026-03-25T11:41:25.905Z</time></trkpt><trkpt lat="30.754014335261985" lon="-5.48845276523964"><ele>829.0</ele><time>2026-03-25T11:41:26.905Z</time></trkpt><trkpt lat="30.75396982741014" lon="-5.488543634447789"><ele>829.0</ele><time>2026-03-25T11:41:27.905Z</time></trkpt><trkpt lat="30.753931883400888" lon="-5.488632394024216"><ele>829.0</ele><time>2026-03-25T11:41:28.905Z</time></trkpt><trkpt lat="30.75391311417144" lon="-5.488712135310792"><ele>829.1666666666666</ele><time>2026-03-25T11:41:29.905Z</time></trkpt><trkpt lat="30.753924059370895" lon="-5.488793850462995"><ele>829.3333333333333</ele><time>2026-03-25T11:41:30.905Z</time></trkpt><trkpt lat="30.753964862625327" lon="-5.488874054064517"><ele>829.5</ele><time>2026-03-25T11:41:31.905Z</time></trkpt><trkpt lat="30.75400961120281" lon="-5.488948529834693"><ele>829.6666666666667</ele><time>2026-03-25T11:41:32.905Z</time></trkpt><trkpt lat="30.75405353023677" lon="-5.489010170019666"><ele>829.8333333333334</ele><time>2026-03-25T11:41:33.905Z</time></trkpt><trkpt lat="30.754121291831787" lon="-5.489057125548287"><ele>830.0</ele><time>2026-03-25T11:41:34.905Z</time></trkpt><trkpt lat="30.754196129677325" lon="-5.489108642250396"><ele>830.0000000000001</ele><time>2026-03-25T11:41:35.905Z</time></trkpt><trkpt lat="30.754273076703313" lon="-5.489156527601965"><ele>830.0</ele><time>2026-03-25T11:41:36.905Z</time></trkpt><trkpt lat="30.75433841001559" lon="-5.489223186313774"><ele>830.0</ele><time>2026-03-25T11:41:37.905Z</time></trkpt><trkpt lat="30.754388294851488" lon="-5.489296726532558"><ele>830.0</ele><time>2026-03-25T11:41:38.905Z</time></trkpt><trkpt lat="30.754430123160237" lon="-5.489374992160095"><ele>830.0000000000001</ele><time>2026-03-25T11:41:39.905Z</time></trkpt><trkpt lat="30.754443040849047" lon="-5.489475004257844"><ele>830.0</ele><time>2026-03-25T11:41:40.905Z</time></trkpt><trkpt lat="30.754443350613332" lon="-5.489591990876569"><ele>830.0</ele><time>2026-03-25T11:41:41.905Z</time></trkpt><trkpt lat="30.754435560523593" lon="-5.489693973458814"><ele>830.0</ele><time>2026-03-25T11:41:42.905Z</time></trkpt><trkpt lat="30.754436423044673" lon="-5.489779793817363"><ele>830.0</ele><time>2026-03-25T11:41:43.905Z</time></trkpt><trkpt lat="30.75443644913178" lon="-5.489854577957283"><ele>830.0</ele><time>2026-03-25T11:41:44.905Z</time></trkpt><trkpt lat="30.754441480211888" lon="-5.489939214564516"><ele>830.0</ele><time>2026-03-25T11:41:45.905Z</time></trkpt><trkpt lat="30.75443091301949" lon="-5.490027199906521"><ele>830.0</ele><time>2026-03-25T11:41:46.905Z</time></trkpt><trkpt lat="30.754411841100932" lon="-5.490109917642151"><ele>830.0</ele><time>2026-03-25T11:41:47.905Z</time></trkpt><trkpt lat="30.75438971589434" lon="-5.490200060168674"><ele>830.75</ele><time>2026-03-25T11:41:48.905Z</time></trkpt><trkpt lat="30.754369156722113" lon="-5.490304078494894"><ele>831.5</ele><time>2026-03-25T11:41:49.905Z</time></trkpt><trkpt lat="30.754351814623906" lon="-5.49042317369869"><ele>832.25</ele><time>2026-03-25T11:41:50.905Z</time></trkpt><trkpt lat="30.754338251251117" lon="-5.490552403957769"><ele>833.0</ele><time>2026-03-25T11:41:51.905Z</time></trkpt><trkpt lat="30.75431413132199" lon="-5.490719386853279"><ele>833.6666666666667</ele><time>2026-03-25T11:41:52.905Z</time></trkpt><trkpt lat="30.754287860669997" lon="-5.490900935275042"><ele>834.3333333333333</ele><time>2026-03-25T11:41:53.905Z</time></trkpt><trkpt lat="30.75426090081934" lon="-5.4911030353918076"><ele>835.0</ele><time>2026-03-25T11:41:54.905Z</time></trkpt><trkpt lat="30.754237466330185" lon="-5.491287028656103"><ele>833.75</ele><time>2026-03-25T11:41:55.905Z</time></trkpt><trkpt lat="30.7542132021396" lon="-5.491446780202522"><ele>832.5</ele><time>2026-03-25T11:41:56.905Z</time></trkpt><trkpt lat="30.754193177920595" lon="-5.491598982128561"><ele>831.25</ele><time>2026-03-25T11:41:57.905Z</time></trkpt><trkpt lat="30.754171195364222" lon="-5.4917499130005085"><ele>830.0</ele><time>2026-03-25T11:41:58.905Z</time></trkpt><trkpt lat="30.754150564892765" lon="-5.491886707763118"><ele>830.0</ele><time>2026-03-25T11:41:59.905Z</time></trkpt><trkpt lat="30.75412938860646" lon="-5.492029608914346"><ele>830.0</ele><time>2026-03-25T11:42:00.905Z</time></trkpt><trkpt lat="30.754107022175997" lon="-5.492180004269107"><ele>830.0</ele><time>2026-03-25T11:42:01.905Z</time></trkpt><trkpt lat="30.75408529282027" lon="-5.492326132928181"><ele>830.0</ele><time>2026-03-25T11:42:02.905Z</time></trkpt><trkpt lat="30.754065856858492" lon="-5.492469638187717"><ele>829.75</ele><time>2026-03-25T11:42:03.905Z</time></trkpt><trkpt lat="30.75404649957437" lon="-5.492620927951471"><ele>829.5</ele><time>2026-03-25T11:42:04.905Z</time></trkpt><trkpt lat="30.754018445971106" lon="-5.4927614450308235"><ele>829.25</ele><time>2026-03-25T11:42:05.905Z</time></trkpt><trkpt lat="30.7539971490012" lon="-5.492904119078703"><ele>829.0</ele><time>2026-03-25T11:42:06.905Z</time></trkpt><trkpt lat="30.75398381372092" lon="-5.493054309542404"><ele>829.0</ele><time>2026-03-25T11:42:07.905Z</time></trkpt><trkpt lat="30.753959640212173" lon="-5.4932156601107724"><ele>829.0</ele><time>2026-03-25T11:42:08.905Z</time></trkpt><trkpt lat="30.75393188877643" lon="-5.493390411201451"><ele>829.0</ele><time>2026-03-25T11:42:09.905Z</time></trkpt><trkpt lat="30.75390813734292" lon="-5.49354914867718"><ele>829.0</ele><time>2026-03-25T11:42:10.905Z</time></trkpt><trkpt lat="30.753892224970777" lon="-5.493702860342429"><ele>829.25</ele><time>2026-03-25T11:42:11.905Z</time></trkpt><trkpt lat="30.7538743896808" lon="-5.493843908884095"><ele>829.5</ele><time>2026-03-25T11:42:12.905Z</time></trkpt><trkpt lat="30.753852420198406" lon="-5.493983024412782"><ele>829.75</ele><time>2026-03-25T11:42:13.905Z</time></trkpt><trkpt lat="30.753829546225315" lon="-5.494118457050311"><ele>830.0</ele><time>2026-03-25T11:42:14.905Z</time></trkpt><trkpt lat="30.753819780547843" lon="-5.494242226277222"><ele>830.0</ele><time>2026-03-25T11:42:15.905Z</time></trkpt><trkpt lat="30.75382082217435" lon="-5.494362496033435"><ele>830.0</ele><time>2026-03-25T11:42:16.905Z</time></trkpt><trkpt lat="30.75382658582176" lon="-5.494495669525967"><ele>830.0</ele><time>2026-03-25T11:42:17.905Z</time></trkpt><trkpt lat="30.75383672794477" lon="-5.494621504445059"><ele>830.0</ele><time>2026-03-25T11:42:18.905Z</time></trkpt><trkpt lat="30.75383184339669" lon="-5.494751048353021"><ele>830.0</ele><time>2026-03-25T11:42:19.905Z</time></trkpt><trkpt lat="30.753814416846915" lon="-5.494879251315146"><ele>829.75</ele><time>2026-03-25T11:42:20.905Z</time></trkpt><trkpt lat="30.753768413792795" lon="-5.495015845966166"><ele>829.5</ele><time>2026-03-25T11:42:21.905Z</time></trkpt><trkpt lat="30.753692071909246" lon="-5.495180986551319"><ele>829.25</ele><time>2026-03-25T11:42:22.905Z</time></trkpt><trkpt lat="30.753629059115838" lon="-5.495333118510964"><ele>829.0</ele><time>2026-03-25T11:42:23.905Z</time></trkpt><trkpt lat="30.75357412696928" lon="-5.495466316843234"><ele>829.0</ele><time>2026-03-25T11:42:24.905Z</time></trkpt><trkpt lat="30.753509929549576" lon="-5.495589069011502"><ele>829.0</ele><time>2026-03-25T11:42:25.905Z</time></trkpt><trkpt lat="30.753446625516695" lon="-5.4957131416031215"><ele>829.0</ele><time>2026-03-25T11:42:26.905Z</time></trkpt><trkpt lat="30.753393964607508" lon="-5.495842401303204"><ele>829.0</ele><time>2026-03-25T11:42:27.905Z</time></trkpt><trkpt lat="30.753368330492293" lon="-5.49598840840098"><ele>829.0</ele><time>2026-03-25T11:42:28.905Z</time></trkpt><trkpt lat="30.753341401221338" lon="-5.49611628659797"><ele>829.0</ele><time>2026-03-25T11:42:29.905Z</time></trkpt><trkpt lat="30.753314324740437" lon="-5.496248341055279"><ele>829.0</ele><time>2026-03-25T11:42:30.905Z</time></trkpt><trkpt lat="30.753297543450824" lon="-5.496358175640781"><ele>829.0</ele><time>2026-03-25T11:42:31.905Z</time></trkpt><trkpt lat="30.75329214729258" lon="-5.496454577358411"><ele>829.0</ele><time>2026-03-25T11:42:32.905Z</time></trkpt><trkpt lat="30.75329574156449" lon="-5.496540796173792"><ele>828.6</ele><time>2026-03-25T11:42:33.905Z</time></trkpt><trkpt lat="30.753306160854144" lon="-5.496620985732039"><ele>828.2</ele><time>2026-03-25T11:42:34.905Z</time></trkpt><trkpt lat="30.75332225796445" lon="-5.496694334127004"><ele>827.8000000000001</ele><time>2026-03-25T11:42:35.905Z</time></trkpt><trkpt lat="30.753369112549816" lon="-5.496817254088317"><ele>827.4000000000001</ele><time>2026-03-25T11:42:37.905Z</time></trkpt><trkpt lat="30.753452044084618" lon="-5.496922262077995"><ele>827.0</ele><time>2026-03-25T11:42:39.904Z</time></trkpt><trkpt lat="30.753523115881617" lon="-5.497036899248992"><ele>827.3333333333334</ele><time>2026-03-25T11:42:41.904Z</time></trkpt><trkpt lat="30.753588721197993" lon="-5.4971337441325065"><ele>827.6666666666667</ele><time>2026-03-25T11:42:43.904Z</time></trkpt><trkpt lat="30.753632868779274" lon="-5.497198045218325"><ele>828.0</ele><time>2026-03-25T11:42:44.904Z</time></trkpt><trkpt lat="30.753687793356665" lon="-5.49726730539346"><ele>828.3333333333333</ele><time>2026-03-25T11:42:45.904Z</time></trkpt><trkpt lat="30.75373398884288" lon="-5.4973289424223974"><ele>828.6666666666666</ele><time>2026-03-25T11:42:46.904Z</time></trkpt><trkpt lat="30.75377300191296" lon="-5.4973959196062765"><ele>829.0</ele><time>2026-03-25T11:42:47.904Z</time></trkpt><trkpt lat="30.75380610945947" lon="-5.497462842872911"><ele>828.9999999999999</ele><time>2026-03-25T11:42:48.904Z</time></trkpt><trkpt lat="30.753841891394938" lon="-5.497535547713023"><ele>829.0</ele><time>2026-03-25T11:42:49.904Z</time></trkpt><trkpt lat="30.753867032245047" lon="-5.497620721276892"><ele>829.0</ele><time>2026-03-25T11:42:50.904Z</time></trkpt><trkpt lat="30.753885366013744" lon="-5.497718625214386"><ele>829.0</ele><time>2026-03-25T11:42:51.904Z</time></trkpt><trkpt lat="30.753918422526187" lon="-5.497811934097266"><ele>828.9999999999999</ele><time>2026-03-25T11:42:52.904Z</time></trkpt><trkpt lat="30.753996618210998" lon="-5.49790773002183"><ele>829.0</ele><time>2026-03-25T11:42:53.904Z</time></trkpt><trkpt lat="30.754085672505532" lon="-5.4979750346728675"><ele>829.6</ele><time>2026-03-25T11:42:54.904Z</time></trkpt><trkpt lat="30.75414608524291" lon="-5.498049762516722"><ele>830.2</ele><time>2026-03-25T11:42:55.904Z</time></trkpt><trkpt lat="30.754207461203816" lon="-5.498147419355565"><ele>830.8000000000001</ele><time>2026-03-25T11:42:56.904Z</time></trkpt><trkpt lat="30.754265908719724" lon="-5.498241191117988"><ele>831.4000000000001</ele><time>2026-03-25T11:42:57.904Z</time></trkpt><trkpt lat="30.754317551901035" lon="-5.498343523583915"><ele>832.0</ele><time>2026-03-25T11:42:58.904Z</time></trkpt><trkpt lat="30.754368105421445" lon="-5.498439045194055"><ele>831.75</ele><time>2026-03-25T11:42:59.904Z</time></trkpt><trkpt lat="30.754436821453496" lon="-5.4985525336090255"><ele>831.5</ele><time>2026-03-25T11:43:00.904Z</time></trkpt><trkpt lat="30.75449537719381" lon="-5.4986593341357475"><ele>831.25</ele><time>2026-03-25T11:43:01.904Z</time></trkpt><trkpt lat="30.75455854108863" lon="-5.498767627029019"><ele>831.0</ele><time>2026-03-25T11:43:02.904Z</time></trkpt><trkpt lat="30.754626807084634" lon="-5.498880285275117"><ele>831.0</ele><time>2026-03-25T11:43:03.904Z</time></trkpt><trkpt lat="30.754700159879174" lon="-5.498999785691597"><ele>831.0</ele><time>2026-03-25T11:43:04.904Z</time></trkpt><trkpt lat="30.75477332489145" lon="-5.499123559209136"><ele>831.0</ele><time>2026-03-25T11:43:05.904Z</time></trkpt><trkpt lat="30.75484616082385" lon="-5.499252103295565"><ele>831.0</ele><time>2026-03-25T11:43:06.904Z</time></trkpt><trkpt lat="30.754919400287946" lon="-5.499380715655561"><ele>831.0</ele><time>2026-03-25T11:43:07.904Z</time></trkpt><trkpt lat="30.754981549785303" lon="-5.499511268438532"><ele>831.0</ele><time>2026-03-25T11:43:08.904Z</time></trkpt><trkpt lat="30.75506505993305" lon="-5.499649693676301"><ele>831.0</ele><time>2026-03-25T11:43:09.904Z</time></trkpt><trkpt lat="30.755149567899995" lon="-5.499784670713042"><ele>831.0</ele><time>2026-03-25T11:43:10.904Z</time></trkpt><trkpt lat="30.755234032178535" lon="-5.499918606071828"><ele>831.0</ele><time>2026-03-25T11:43:11.904Z</time></trkpt><trkpt lat="30.75531288130648" lon="-5.5000456226004095"><ele>831.0</ele><time>2026-03-25T11:43:12.904Z</time></trkpt><trkpt lat="30.75537557297864" lon="-5.500160506873519"><ele>831.0</ele><time>2026-03-25T11:43:13.905Z</time></trkpt><trkpt lat="30.75541468327452" lon="-5.500294759051563"><ele>831.0</ele><time>2026-03-25T11:43:14.905Z</time></trkpt><trkpt lat="30.75542062455351" lon="-5.500434649634739"><ele>831.1999999999999</ele><time>2026-03-25T11:43:15.905Z</time></trkpt><trkpt lat="30.75542718067972" lon="-5.500567039236991"><ele>831.4</ele><time>2026-03-25T11:43:16.905Z</time></trkpt><trkpt lat="30.755429146592515" lon="-5.500692056207526"><ele>831.6</ele><time>2026-03-25T11:43:17.904Z</time></trkpt><trkpt lat="30.755438813438563" lon="-5.500812085020158"><ele>831.8</ele><time>2026-03-25T11:43:18.904Z</time></trkpt><trkpt lat="30.755457145567235" lon="-5.500927043219159"><ele>832.0</ele><time>2026-03-25T11:43:19.904Z</time></trkpt><trkpt lat="30.75547238854153" lon="-5.501053665023387"><ele>832.0</ele><time>2026-03-25T11:43:20.904Z</time></trkpt><trkpt lat="30.755483587075908" lon="-5.501189456322446"><ele>832.0</ele><time>2026-03-25T11:43:21.904Z</time></trkpt><trkpt lat="30.755510839510897" lon="-5.5013508073667"><ele>832.0</ele><time>2026-03-25T11:43:22.904Z</time></trkpt><trkpt lat="30.755576254567064" lon="-5.50151669371065"><ele>832.0</ele><time>2026-03-25T11:43:23.904Z</time></trkpt><trkpt lat="30.755650168013148" lon="-5.501699083870135"><ele>831.3333333333333</ele><time>2026-03-25T11:43:24.904Z</time></trkpt><trkpt lat="30.755727479844918" lon="-5.501874518289149"><ele>830.6666666666667</ele><time>2026-03-25T11:43:25.904Z</time></trkpt><trkpt lat="30.75581301189633" lon="-5.5020250232982395"><ele>830.0</ele><time>2026-03-25T11:43:26.904Z</time></trkpt><trkpt lat="30.755891893895722" lon="-5.502177777512692"><ele>829.0</ele><time>2026-03-25T11:43:27.904Z</time></trkpt><trkpt lat="30.755987266862792" lon="-5.502330209308338"><ele>828.0</ele><time>2026-03-25T11:43:28.904Z</time></trkpt><trkpt lat="30.756084724606612" lon="-5.502501004461934"><ele>827.0</ele><time>2026-03-25T11:43:29.904Z</time></trkpt><trkpt lat="30.75618813506203" lon="-5.502640938355618"><ele>826.6666666666667</ele><time>2026-03-25T11:43:30.904Z</time></trkpt><trkpt lat="30.756273531241018" lon="-5.5027870524269415"><ele>826.3333333333333</ele><time>2026-03-25T11:43:31.904Z</time></trkpt><trkpt lat="30.756351491593925" lon="-5.502942044089868"><ele>826.0</ele><time>2026-03-25T11:43:32.904Z</time></trkpt><trkpt lat="30.756407298139933" lon="-5.503126919020947"><ele>827.3333333333333</ele><time>2026-03-25T11:43:33.904Z</time></trkpt><trkpt lat="30.75646689225943" lon="-5.503330855705848"><ele>828.6666666666667</ele><time>2026-03-25T11:43:34.904Z</time></trkpt><trkpt lat="30.756539329717047" lon="-5.503531710741862"><ele>830.0</ele><time>2026-03-25T11:43:35.904Z</time></trkpt><trkpt lat="30.75660735138715" lon="-5.503696126299212"><ele>830.5</ele><time>2026-03-25T11:43:36.904Z</time></trkpt><trkpt lat="30.756665744057578" lon="-5.503833023781171"><ele>831.0</ele><time>2026-03-25T11:43:37.904Z</time></trkpt><trkpt lat="30.75672955142617" lon="-5.503964871130323"><ele>831.5</ele><time>2026-03-25T11:43:38.904Z</time></trkpt><trkpt lat="30.75679917723322" lon="-5.504081361086109"><ele>832.0</ele><time>2026-03-25T11:43:39.904Z</time></trkpt><trkpt lat="30.756881089748067" lon="-5.504184067849202"><ele>832.5</ele><time>2026-03-25T11:43:40.904Z</time></trkpt><trkpt lat="30.756969040696717" lon="-5.504269710328492"><ele>833.0</ele><time>2026-03-25T11:43:41.904Z</time></trkpt><trkpt lat="30.757048294971693" lon="-5.504360622893843"><ele>833.5</ele><time>2026-03-25T11:43:42.904Z</time></trkpt><trkpt lat="30.757108190401357" lon="-5.504483914682244"><ele>834.0</ele><time>2026-03-25T11:43:43.904Z</time></trkpt><trkpt lat="30.757165590184623" lon="-5.50460766489443"><ele>834.0</ele><time>2026-03-25T11:43:44.904Z</time></trkpt><trkpt lat="30.75725148050019" lon="-5.5047200351141985"><ele>834.0</ele><time>2026-03-25T11:43:45.904Z</time></trkpt><trkpt lat="30.757363672702187" lon="-5.504816705606853"><ele>834.0</ele><time>2026-03-25T11:43:46.904Z</time></trkpt><trkpt lat="30.757475063922747" lon="-5.504927324595029"><ele>834.0</ele><time>2026-03-25T11:43:47.904Z</time></trkpt><trkpt lat="30.757560611178942" lon="-5.505033905764728"><ele>834.0</ele><time>2026-03-25T11:43:48.904Z</time></trkpt><trkpt lat="30.75764842495583" lon="-5.505124875871782"><ele>834.0</ele><time>2026-03-25T11:43:49.904Z</time></trkpt><trkpt lat="30.75772652507779" lon="-5.505218868192517"><ele>834.0</ele><time>2026-03-25T11:43:50.904Z</time></trkpt><trkpt lat="30.75780665224381" lon="-5.505318596618802"><ele>834.0</ele><time>2026-03-25T11:43:51.904Z</time></trkpt><trkpt lat="30.757878567502463" lon="-5.505410264125501"><ele>834.0</ele><time>2026-03-25T11:43:52.904Z</time></trkpt><trkpt lat="30.757947983309943" lon="-5.505510666229433"><ele>834.0</ele><time>2026-03-25T11:43:53.904Z</time></trkpt><trkpt lat="30.75800350474902" lon="-5.505618288339912"><ele>834.0</ele><time>2026-03-25T11:43:54.904Z</time></trkpt><trkpt lat="30.758040372214836" lon="-5.50572741324725"><ele>834.0</ele><time>2026-03-25T11:43:55.904Z</time></trkpt><trkpt lat="30.75809383708424" lon="-5.5058143355582825"><ele>834.0</ele><time>2026-03-25T11:43:56.904Z</time></trkpt><trkpt lat="30.758191510588162" lon="-5.505869192091553"><ele>834.0</ele><time>2026-03-25T11:43:57.904Z</time></trkpt><trkpt lat="30.758315731347462" lon="-5.505902227998433"><ele>834.0</ele><time>2026-03-25T11:43:58.904Z</time></trkpt><trkpt lat="30.758398512305366" lon="-5.505968968563118"><ele>834.0</ele><time>2026-03-25T11:43:59.904Z</time></trkpt><trkpt lat="30.758437590404696" lon="-5.50608019609566"><ele>834.0</ele><time>2026-03-25T11:44:00.904Z</time></trkpt><trkpt lat="30.758475767556845" lon="-5.506228843868309"><ele>833.25</ele><time>2026-03-25T11:44:01.904Z</time></trkpt><trkpt lat="30.75853813956671" lon="-5.506368066593071"><ele>832.5</ele><time>2026-03-25T11:44:02.904Z</time></trkpt><trkpt lat="30.758632699932804" lon="-5.506475480690935"><ele>831.75</ele><time>2026-03-25T11:44:03.904Z</time></trkpt><trkpt lat="30.758754601001364" lon="-5.506562526171969"><ele>831.0</ele><time>2026-03-25T11:44:04.904Z</time></trkpt><trkpt lat="30.75887377914761" lon="-5.506674554098871"><ele>831.0</ele><time>2026-03-25T11:44:05.904Z</time></trkpt><trkpt lat="30.758975337760596" lon="-5.506797840038997"><ele>831.0</ele><time>2026-03-25T11:44:06.904Z</time></trkpt><trkpt lat="30.759081031408748" lon="-5.506933663249413"><ele>831.0</ele><time>2026-03-25T11:44:07.904Z</time></trkpt><trkpt lat="30.75919216488288" lon="-5.507051191326338"><ele>831.0</ele><time>2026-03-25T11:44:08.904Z</time></trkpt><trkpt lat="30.759310103871695" lon="-5.5071822972085815"><ele>831.0</ele><time>2026-03-25T11:44:09.904Z</time></trkpt><trkpt lat="30.759416643946775" lon="-5.507304279380376"><ele>831.0</ele><time>2026-03-25T11:44:10.904Z</time></trkpt><trkpt lat="30.759519027741856" lon="-5.50742297317728"><ele>831.3333333333333</ele><time>2026-03-25T11:44:11.904Z</time></trkpt><trkpt lat="30.759618595559804" lon="-5.507552559625882"><ele>831.6666666666666</ele><time>2026-03-25T11:44:12.904Z</time></trkpt><trkpt lat="30.759717290414116" lon="-5.5076852584314056"><ele>832.0</ele><time>2026-03-25T11:44:13.904Z</time></trkpt><trkpt lat="30.75981379416822" lon="-5.507830086238924"><ele>832.0</ele><time>2026-03-25T11:44:14.904Z</time></trkpt><trkpt lat="30.759919032639164" lon="-5.507974057243992"><ele>832.0</ele><time>2026-03-25T11:44:15.904Z</time></trkpt><trkpt lat="30.76001930372632" lon="-5.508093792217309"><ele>832.0</ele><time>2026-03-25T11:44:16.904Z</time></trkpt><trkpt lat="30.760126325555316" lon="-5.508201835292572"><ele>832.0</ele><time>2026-03-25T11:44:17.904Z</time></trkpt><trkpt lat="30.760246543734652" lon="-5.508293314433976"><ele>832.5</ele><time>2026-03-25T11:44:18.904Z</time></trkpt><trkpt lat="30.760368530669307" lon="-5.508378902510185"><ele>833.0</ele><time>2026-03-25T11:44:19.904Z</time></trkpt><trkpt lat="30.760492424657116" lon="-5.508463557718424"><ele>833.5</ele><time>2026-03-25T11:44:20.904Z</time></trkpt><trkpt lat="30.7606048263168" lon="-5.508546057610844"><ele>834.0</ele><time>2026-03-25T11:44:21.904Z</time></trkpt><trkpt lat="30.760706263347586" lon="-5.50862864746556"><ele>834.0</ele><time>2026-03-25T11:44:22.904Z</time></trkpt><trkpt lat="30.76080624475149" lon="-5.508707838370828"><ele>834.0</ele><time>2026-03-25T11:44:23.904Z</time></trkpt><trkpt lat="30.76091071311857" lon="-5.508774362253321"><ele>834.0</ele><time>2026-03-25T11:44:24.904Z</time></trkpt><trkpt lat="30.76102074403792" lon="-5.508839783660888"><ele>834.0</ele><time>2026-03-25T11:44:25.904Z</time></trkpt><trkpt lat="30.761128175123883" lon="-5.508943213067369"><ele>833.75</ele><time>2026-03-25T11:44:26.904Z</time></trkpt><trkpt lat="30.761219393007416" lon="-5.509077120907337"><ele>833.5</ele><time>2026-03-25T11:44:27.904Z</time></trkpt><trkpt lat="30.76130027587602" lon="-5.509199149647306"><ele>833.25</ele><time>2026-03-25T11:44:28.904Z</time></trkpt><trkpt lat="30.761401622400545" lon="-5.509304361089018"><ele>833.0</ele><time>2026-03-25T11:44:29.903Z</time></trkpt><trkpt lat="30.761539214727527" lon="-5.509400654535469"><ele>833.0</ele><time>2026-03-25T11:44:30.903Z</time></trkpt><trkpt lat="30.76167053791434" lon="-5.509505822065848"><ele>833.0</ele><time>2026-03-25T11:44:31.903Z</time></trkpt><trkpt lat="30.76178880874047" lon="-5.509625647157386"><ele>833.0</ele><time>2026-03-25T11:44:32.903Z</time></trkpt><trkpt lat="30.761906760536196" lon="-5.509749931065778"><ele>833.6666666666667</ele><time>2026-03-25T11:44:33.903Z</time></trkpt><trkpt lat="30.762042704935826" lon="-5.50987640443781"><ele>834.3333333333333</ele><time>2026-03-25T11:44:34.903Z</time></trkpt><trkpt lat="30.762193233001014" lon="-5.5100109454258455"><ele>835.0</ele><time>2026-03-25T11:44:35.903Z</time></trkpt><trkpt lat="30.762345141233478" lon="-5.510146524664164"><ele>835.0</ele><time>2026-03-25T11:44:36.903Z</time></trkpt><trkpt lat="30.76248103929204" lon="-5.510269060296127"><ele>835.0</ele><time>2026-03-25T11:44:37.903Z</time></trkpt><trkpt lat="30.762581008791802" lon="-5.510374450506488"><ele>835.0</ele><time>2026-03-25T11:44:38.903Z</time></trkpt><trkpt lat="30.762684665802983" lon="-5.510472656833665"><ele>835.0</ele><time>2026-03-25T11:44:39.903Z</time></trkpt><trkpt lat="30.76277649416323" lon="-5.510570120125761"><ele>835.25</ele><time>2026-03-25T11:44:40.903Z</time></trkpt><trkpt lat="30.762862330256276" lon="-5.5106578276134135"><ele>835.5</ele><time>2026-03-25T11:44:41.903Z</time></trkpt><trkpt lat="30.76293997339873" lon="-5.510747213296868"><ele>835.75</ele><time>2026-03-25T11:44:42.903Z</time></trkpt><trkpt lat="30.76302842443082" lon="-5.510833520913006"><ele>836.0</ele><time>2026-03-25T11:44:43.903Z</time></trkpt><trkpt lat="30.763119095691728" lon="-5.5109086680114485"><ele>836.0</ele><time>2026-03-25T11:44:44.903Z</time></trkpt><trkpt lat="30.763231355125804" lon="-5.510996597701855"><ele>836.0</ele><time>2026-03-25T11:44:45.903Z</time></trkpt><trkpt lat="30.763340262682515" lon="-5.51108153785612"><ele>836.0</ele><time>2026-03-25T11:44:46.903Z</time></trkpt><trkpt lat="30.763468124481992" lon="-5.511197229110004"><ele>836.0</ele><time>2026-03-25T11:44:47.903Z</time></trkpt><trkpt lat="30.76359726199853" lon="-5.51131479071031"><ele>836.5</ele><time>2026-03-25T11:44:48.903Z</time></trkpt><trkpt lat="30.763719459179782" lon="-5.511425619281508"><ele>837.0</ele><time>2026-03-25T11:44:49.903Z</time></trkpt><trkpt lat="30.763822766952103" lon="-5.511533511269628"><ele>837.5</ele><time>2026-03-25T11:44:50.903Z</time></trkpt><trkpt lat="30.76392445014173" lon="-5.511632488916756"><ele>838.0</ele><time>2026-03-25T11:44:51.903Z</time></trkpt><trkpt lat="30.764020862908918" lon="-5.511739230059482"><ele>838.0</ele><time>2026-03-25T11:44:52.903Z</time></trkpt><trkpt lat="30.76411420945305" lon="-5.511846232838118"><ele>838.0</ele><time>2026-03-25T11:44:53.903Z</time></trkpt><trkpt lat="30.764221295697347" lon="-5.511948748439346"><ele>838.0</ele><time>2026-03-25T11:44:54.903Z</time></trkpt><trkpt lat="30.764354694342487" lon="-5.512026585171709"><ele>838.0</ele><time>2026-03-25T11:44:55.903Z</time></trkpt><trkpt lat="30.764499815344028" lon="-5.5121271651370956"><ele>838.0</ele><time>2026-03-25T11:44:56.903Z</time></trkpt><trkpt lat="30.764625664071932" lon="-5.51224361687187"><ele>838.0</ele><time>2026-03-25T11:44:57.903Z</time></trkpt><trkpt lat="30.76472771313755" lon="-5.512347881907445"><ele>838.0</ele><time>2026-03-25T11:44:58.903Z</time></trkpt><trkpt lat="30.764817354590942" lon="-5.512469005800402"><ele>838.0</ele><time>2026-03-25T11:44:59.903Z</time></trkpt><trkpt lat="30.764903982198483" lon="-5.5126277401571775"><ele>838.0</ele><time>2026-03-25T11:45:00.903Z</time></trkpt><trkpt lat="30.76499206318602" lon="-5.5128027863825695"><ele>838.0</ele><time>2026-03-25T11:45:01.903Z</time></trkpt><trkpt lat="30.765090534870428" lon="-5.51295396955721"><ele>838.0</ele><time>2026-03-25T11:45:02.903Z</time></trkpt><trkpt lat="30.765180941619608" lon="-5.513080852001898"><ele>837.4</ele><time>2026-03-25T11:45:03.903Z</time></trkpt><trkpt lat="30.765272171228908" lon="-5.513177274842283"><ele>836.8</ele><time>2026-03-25T11:45:04.903Z</time></trkpt><trkpt lat="30.765367041600946" lon="-5.513255565432262"><ele>836.2</ele><time>2026-03-25T11:45:05.903Z</time></trkpt><trkpt lat="30.765445098302898" lon="-5.513334614198969"><ele>835.6</ele><time>2026-03-25T11:45:06.903Z</time></trkpt><trkpt lat="30.76549063397154" lon="-5.513429765149026"><ele>835.0</ele><time>2026-03-25T11:45:07.903Z</time></trkpt><trkpt lat="30.765540827631668" lon="-5.513547144217298"><ele>835.0</ele><time>2026-03-25T11:45:08.903Z</time></trkpt><trkpt lat="30.76560755785173" lon="-5.513662555493892"><ele>835.0</ele><time>2026-03-25T11:45:09.903Z</time></trkpt><trkpt lat="30.76569612395159" lon="-5.513756929690086"><ele>835.0</ele><time>2026-03-25T11:45:10.903Z</time></trkpt><trkpt lat="30.765782247849682" lon="-5.513852330857715"><ele>835.0</ele><time>2026-03-25T11:45:11.903Z</time></trkpt><trkpt lat="30.765879996027067" lon="-5.513956949255791"><ele>835.25</ele><time>2026-03-25T11:45:12.903Z</time></trkpt><trkpt lat="30.765964258161677" lon="-5.514064872237184"><ele>835.5</ele><time>2026-03-25T11:45:13.903Z</time></trkpt><trkpt lat="30.766067118589483" lon="-5.51418893541493"><ele>835.75</ele><time>2026-03-25T11:45:14.903Z</time></trkpt><trkpt lat="30.76618539263889" lon="-5.514335602963017"><ele>836.0</ele><time>2026-03-25T11:45:15.903Z</time></trkpt><trkpt lat="30.766327445312303" lon="-5.514489585707768"><ele>836.3333333333334</ele><time>2026-03-25T11:45:16.903Z</time></trkpt><trkpt lat="30.7664546319404" lon="-5.514655147138257"><ele>836.6666666666667</ele><time>2026-03-25T11:45:17.903Z</time></trkpt><trkpt lat="30.766564852055826" lon="-5.514852336450899"><ele>837.0</ele><time>2026-03-25T11:45:18.903Z</time></trkpt><trkpt lat="30.766677405504232" lon="-5.515049918914267"><ele>837.0</ele><time>2026-03-25T11:45:19.903Z</time></trkpt><trkpt lat="30.766801151059443" lon="-5.515232705525467"><ele>837.0</ele><time>2026-03-25T11:45:20.904Z</time></trkpt><trkpt lat="30.766912370185654" lon="-5.51539430737047"><ele>837.0</ele><time>2026-03-25T11:45:21.904Z</time></trkpt><trkpt lat="30.767019929408065" lon="-5.515557578013398"><ele>838.3333333333333</ele><time>2026-03-25T11:45:22.903Z</time></trkpt><trkpt lat="30.767131664373146" lon="-5.515726918412462"><ele>839.6666666666666</ele><time>2026-03-25T11:45:23.904Z</time></trkpt><trkpt lat="30.76724027444076" lon="-5.515896497596185"><ele>841.0</ele><time>2026-03-25T11:45:24.904Z</time></trkpt><trkpt lat="30.76734083702469" lon="-5.516053874862328"><ele>841.0</ele><time>2026-03-25T11:45:25.904Z</time></trkpt><trkpt lat="30.767430696315813" lon="-5.516197188172301"><ele>841.0</ele><time>2026-03-25T11:45:26.904Z</time></trkpt><trkpt lat="30.767526261976393" lon="-5.5163285932269694"><ele>841.0</ele><time>2026-03-25T11:45:27.904Z</time></trkpt><trkpt lat="30.76761905673092" lon="-5.516464038555093"><ele>841.0</ele><time>2026-03-25T11:45:28.903Z</time></trkpt><trkpt lat="30.767706490344374" lon="-5.516593245157404"><ele>840.25</ele><time>2026-03-25T11:45:29.903Z</time></trkpt><trkpt lat="30.76779600109404" lon="-5.516723204969013"><ele>839.5</ele><time>2026-03-25T11:45:30.903Z</time></trkpt><trkpt lat="30.767876577796223" lon="-5.516845106409573"><ele>838.75</ele><time>2026-03-25T11:45:31.903Z</time></trkpt><trkpt lat="30.767957722257208" lon="-5.516973837066856"><ele>838.0</ele><time>2026-03-25T11:45:32.904Z</time></trkpt><trkpt lat="30.768036016432642" lon="-5.51711224334737"><ele>837.6666666666666</ele><time>2026-03-25T11:45:33.904Z</time></trkpt><trkpt lat="30.768113971628402" lon="-5.517270825824793"><ele>837.3333333333333</ele><time>2026-03-25T11:45:34.904Z</time></trkpt><trkpt lat="30.768184987327256" lon="-5.517447772551909"><ele>837.0</ele><time>2026-03-25T11:45:35.904Z</time></trkpt><trkpt lat="30.7682387515746" lon="-5.517656823606439"><ele>837.0</ele><time>2026-03-25T11:45:36.904Z</time></trkpt><trkpt lat="30.76829028189257" lon="-5.517862533689695"><ele>837.0</ele><time>2026-03-25T11:45:37.904Z</time></trkpt><trkpt lat="30.76835770334793" lon="-5.518061668753854"><ele>837.0</ele><time>2026-03-25T11:45:38.903Z</time></trkpt><trkpt lat="30.76841918579117" lon="-5.518250521986577"><ele>837.3333333333333</ele><time>2026-03-25T11:45:39.903Z</time></trkpt><trkpt lat="30.768473221456258" lon="-5.518443786256698"><ele>837.6666666666666</ele><time>2026-03-25T11:45:40.903Z</time></trkpt><trkpt lat="30.768524607985462" lon="-5.518639752256636"><ele>838.0</ele><time>2026-03-25T11:45:41.903Z</time></trkpt><trkpt lat="30.768572554711824" lon="-5.518834367604212"><ele>839.0</ele><time>2026-03-25T11:45:42.903Z</time></trkpt><trkpt lat="30.76860806768112" lon="-5.519024016139276"><ele>840.0</ele><time>2026-03-25T11:45:43.903Z</time></trkpt><trkpt lat="30.768635221785427" lon="-5.519199050171593"><ele>841.0</ele><time>2026-03-25T11:45:44.903Z</time></trkpt><trkpt lat="30.768669673611697" lon="-5.519369313167712"><ele>841.0</ele><time>2026-03-25T11:45:45.903Z</time></trkpt><trkpt lat="30.76872606111086" lon="-5.51952973359539"><ele>841.0</ele><time>2026-03-25T11:45:46.903Z</time></trkpt><trkpt lat="30.768789375686243" lon="-5.5196831617935"><ele>841.0</ele><time>2026-03-25T11:45:47.903Z</time></trkpt><trkpt lat="30.768853751441515" lon="-5.519829241760202"><ele>841.0</ele><time>2026-03-25T11:45:48.903Z</time></trkpt><trkpt lat="30.768919956527686" lon="-5.519964698736609"><ele>841.0</ele><time>2026-03-25T11:45:49.903Z</time></trkpt><trkpt lat="30.76898275368476" lon="-5.5200989535289"><ele>841.0</ele><time>2026-03-25T11:45:50.903Z</time></trkpt><trkpt lat="30.769054936393427" lon="-5.520254487551143"><ele>841.0</ele><time>2026-03-25T11:45:51.903Z</time></trkpt><trkpt lat="30.76912378374262" lon="-5.520439466267596"><ele>841.0</ele><time>2026-03-25T11:45:52.903Z</time></trkpt><trkpt lat="30.769194049080603" lon="-5.5206343396374935"><ele>841.0</ele><time>2026-03-25T11:45:53.903Z</time></trkpt><trkpt lat="30.769296025510464" lon="-5.520815630652544"><ele>841.0</ele><time>2026-03-25T11:45:54.903Z</time></trkpt><trkpt lat="30.76940188952408" lon="-5.5209774057828165"><ele>840.75</ele><time>2026-03-25T11:45:55.903Z</time></trkpt><trkpt lat="30.769476668024975" lon="-5.521101190423573"><ele>840.5</ele><time>2026-03-25T11:45:56.903Z</time></trkpt><trkpt lat="30.769548558587385" lon="-5.521204623737193"><ele>840.25</ele><time>2026-03-25T11:45:57.903Z</time></trkpt><trkpt lat="30.769631871113596" lon="-5.52129645706315"><ele>840.0</ele><time>2026-03-25T11:45:58.903Z</time></trkpt><trkpt lat="30.769721389627858" lon="-5.5213534145605845"><ele>840.0</ele><time>2026-03-25T11:45:59.903Z</time></trkpt><trkpt lat="30.7698268611114" lon="-5.521399585742112"><ele>840.0</ele><time>2026-03-25T11:46:00.903Z</time></trkpt><trkpt lat="30.769925879258768" lon="-5.521424969599101"><ele>840.0</ele><time>2026-03-25T11:46:01.903Z</time></trkpt><trkpt lat="30.770013072703104" lon="-5.521445069186104"><ele>840.0</ele><time>2026-03-25T11:46:02.903Z</time></trkpt><trkpt lat="30.77009306583351" lon="-5.5214576954075385"><ele>840.0</ele><time>2026-03-25T11:46:03.903Z</time></trkpt><trkpt lat="30.77017259592012" lon="-5.521462314229393"><ele>840.1666666666666</ele><time>2026-03-25T11:46:04.903Z</time></trkpt><trkpt lat="30.770252159775385" lon="-5.521463048206567"><ele>840.3333333333333</ele><time>2026-03-25T11:46:05.903Z</time></trkpt><trkpt lat="30.77032536951826" lon="-5.521453763791683"><ele>840.5</ele><time>2026-03-25T11:46:06.903Z</time></trkpt><trkpt lat="30.770413721263207" lon="-5.521430256285847"><ele>840.6666666666666</ele><time>2026-03-25T11:46:07.903Z</time></trkpt><trkpt lat="30.770499320425614" lon="-5.5214216131234375"><ele>840.8333333333333</ele><time>2026-03-25T11:46:08.903Z</time></trkpt><trkpt lat="30.770577784849035" lon="-5.521437533418953"><ele>841.0</ele><time>2026-03-25T11:46:09.903Z</time></trkpt><trkpt lat="30.77065919497305" lon="-5.521491154190266"><ele>841.0</ele><time>2026-03-25T11:46:10.903Z</time></trkpt><trkpt lat="30.770718551704967" lon="-5.521589244989603"><ele>841.0</ele><time>2026-03-25T11:46:11.903Z</time></trkpt><trkpt lat="30.77078987724951" lon="-5.521705219178349"><ele>841.0</ele><time>2026-03-25T11:46:12.903Z</time></trkpt><trkpt lat="30.770876853816596" lon="-5.5218301084832815"><ele>841.0</ele><time>2026-03-25T11:46:13.903Z</time></trkpt><trkpt lat="30.770952230599445" lon="-5.521945563513602"><ele>841.25</ele><time>2026-03-25T11:46:14.903Z</time></trkpt><trkpt lat="30.771023893430673" lon="-5.522068403123511"><ele>841.5</ele><time>2026-03-25T11:46:15.903Z</time></trkpt><trkpt lat="30.77109493103203" lon="-5.522207769689583"><ele>841.75</ele><time>2026-03-25T11:46:16.903Z</time></trkpt><trkpt lat="30.77114878115504" lon="-5.522350594164816"><ele>842.0</ele><time>2026-03-25T11:46:17.903Z</time></trkpt><trkpt lat="30.771185421237366" lon="-5.522493790233351"><ele>841.75</ele><time>2026-03-25T11:46:18.903Z</time></trkpt><trkpt lat="30.77122656600753" lon="-5.522638375068289"><ele>841.5</ele><time>2026-03-25T11:46:19.903Z</time></trkpt><trkpt lat="30.771252370170874" lon="-5.522771148738606"><ele>841.25</ele><time>2026-03-25T11:46:20.903Z</time></trkpt><trkpt lat="30.771286844883434" lon="-5.522889770512881"><ele>841.0</ele><time>2026-03-25T11:46:21.903Z</time></trkpt><trkpt lat="30.771337125991398" lon="-5.523006932865445"><ele>841.0</ele><time>2026-03-25T11:46:22.903Z</time></trkpt><trkpt lat="30.77141206782309" lon="-5.523118328251363"><ele>841.0</ele><time>2026-03-25T11:46:23.903Z</time></trkpt><trkpt lat="30.771503738049407" lon="-5.523228624695007"><ele>841.0</ele><time>2026-03-25T11:46:24.903Z</time></trkpt><trkpt lat="30.771601685124782" lon="-5.5233298161050675"><ele>841.0</ele><time>2026-03-25T11:46:25.903Z</time></trkpt><trkpt lat="30.7717117755432" lon="-5.5234130769830525"><ele>841.0</ele><time>2026-03-25T11:46:26.903Z</time></trkpt><trkpt lat="30.77181776972498" lon="-5.5235057526667735"><ele>841.0</ele><time>2026-03-25T11:46:27.903Z</time></trkpt><trkpt lat="30.77190214601689" lon="-5.523615956896891"><ele>841.0</ele><time>2026-03-25T11:46:28.903Z</time></trkpt><trkpt lat="30.771950688305182" lon="-5.523733231633943"><ele>841.0</ele><time>2026-03-25T11:46:29.903Z</time></trkpt><trkpt lat="30.7719878365913" lon="-5.5238346121568425"><ele>841.4999999999999</ele><time>2026-03-25T11:46:30.903Z</time></trkpt><trkpt lat="30.772023554325738" lon="-5.5239209276791845"><ele>842.0</ele><time>2026-03-25T11:46:31.903Z</time></trkpt><trkpt lat="30.772068686825264" lon="-5.523991961845939"><ele>842.5</ele><time>2026-03-25T11:46:32.903Z</time></trkpt><trkpt lat="30.772110291065236" lon="-5.524078784414688"><ele>843.0</ele><time>2026-03-25T11:46:33.903Z</time></trkpt><trkpt lat="30.77214603921594" lon="-5.524189657149099"><ele>843.4999999999999</ele><time>2026-03-25T11:46:34.903Z</time></trkpt><trkpt lat="30.772181131128672" lon="-5.524302683928837"><ele>844.0</ele><time>2026-03-25T11:46:35.903Z</time></trkpt><trkpt lat="30.772225535908483" lon="-5.52440322093235"><ele>844.0</ele><time>2026-03-25T11:46:36.903Z</time></trkpt><trkpt lat="30.77227215528828" lon="-5.524492539832546"><ele>844.0</ele><time>2026-03-25T11:46:37.903Z</time></trkpt><trkpt lat="30.772326716947" lon="-5.5245818103661355"><ele>844.0</ele><time>2026-03-25T11:46:38.903Z</time></trkpt><trkpt lat="30.77240271358037" lon="-5.524669419289535"><ele>844.0</ele><time>2026-03-25T11:46:39.903Z</time></trkpt><trkpt lat="30.772501688642947" lon="-5.524744557917443"><ele>844.0</ele><time>2026-03-25T11:46:40.903Z</time></trkpt><trkpt lat="30.772595497088414" lon="-5.524816984846202"><ele>843.5</ele><time>2026-03-25T11:46:41.903Z</time></trkpt><trkpt lat="30.77268119818321" lon="-5.524900236797428"><ele>843.0</ele><time>2026-03-25T11:46:42.903Z</time></trkpt><trkpt lat="30.772757547480957" lon="-5.525003614198816"><ele>842.5</ele><time>2026-03-25T11:46:43.903Z</time></trkpt><trkpt lat="30.772824977340058" lon="-5.525119794304273"><ele>842.0</ele><time>2026-03-25T11:46:44.903Z</time></trkpt><trkpt lat="30.77289665071805" lon="-5.52524293696359"><ele>841.75</ele><time>2026-03-25T11:46:45.903Z</time></trkpt><trkpt lat="30.77297837405558" lon="-5.525375864106241"><ele>841.5</ele><time>2026-03-25T11:46:46.903Z</time></trkpt><trkpt lat="30.773062897901625" lon="-5.525512476314611"><ele>841.25</ele><time>2026-03-25T11:46:47.903Z</time></trkpt><trkpt lat="30.77315495815401" lon="-5.5256506367945875"><ele>841.0</ele><time>2026-03-25T11:46:48.903Z</time></trkpt><trkpt lat="30.7732324625709" lon="-5.525784017044335"><ele>841.0</ele><time>2026-03-25T11:46:49.903Z</time></trkpt><trkpt lat="30.773303177883207" lon="-5.525910060382318"><ele>841.0</ele><time>2026-03-25T11:46:50.903Z</time></trkpt><trkpt lat="30.773353485550476" lon="-5.526044922535314"><ele>841.0</ele><time>2026-03-25T11:46:51.903Z</time></trkpt><trkpt lat="30.77338843513838" lon="-5.526190061930305"><ele>841.0</ele><time>2026-03-25T11:46:52.903Z</time></trkpt><trkpt lat="30.773417564439473" lon="-5.526335615689624"><ele>841.75</ele><time>2026-03-25T11:46:53.903Z</time></trkpt><trkpt lat="30.773455551530226" lon="-5.526473657455851"><ele>842.5</ele><time>2026-03-25T11:46:54.903Z</time></trkpt><trkpt lat="30.773514081723476" lon="-5.526610647729819"><ele>843.25</ele><time>2026-03-25T11:46:55.903Z</time></trkpt><trkpt lat="30.773577760795764" lon="-5.526742646828401"><ele>844.0</ele><time>2026-03-25T11:46:56.903Z</time></trkpt><trkpt lat="30.773633608391062" lon="-5.526873970803846"><ele>844.0</ele><time>2026-03-25T11:46:57.903Z</time></trkpt><trkpt lat="30.773674964188718" lon="-5.526997604821976"><ele>844.0</ele><time>2026-03-25T11:46:58.903Z</time></trkpt><trkpt lat="30.77370376910401" lon="-5.527110297812854"><ele>844.0</ele><time>2026-03-25T11:46:59.903Z</time></trkpt><trkpt lat="30.773730887007318" lon="-5.527220594819104"><ele>844.0</ele><time>2026-03-25T11:47:00.903Z</time></trkpt><trkpt lat="30.773757753552818" lon="-5.527317250125693"><ele>844.0</ele><time>2026-03-25T11:47:01.903Z</time></trkpt><trkpt lat="30.773802270133245" lon="-5.527394296299385"><ele>844.1666666666666</ele><time>2026-03-25T11:47:02.903Z</time></trkpt><trkpt lat="30.773862017951444" lon="-5.52745360276145"><ele>844.3333333333333</ele><time>2026-03-25T11:47:03.903Z</time></trkpt><trkpt lat="30.77393123999111" lon="-5.527486158662063"><ele>844.5</ele><time>2026-03-25T11:47:04.903Z</time></trkpt><trkpt lat="30.773999429997648" lon="-5.527534169118465"><ele>844.6666666666667</ele><time>2026-03-25T11:47:05.903Z</time></trkpt><trkpt lat="30.774058302364942" lon="-5.527593167647072"><ele>844.8333333333334</ele><time>2026-03-25T11:47:06.903Z</time></trkpt><trkpt lat="30.77411362109518" lon="-5.527671365941191"><ele>845.0</ele><time>2026-03-25T11:47:07.903Z</time></trkpt><trkpt lat="30.77414323524422" lon="-5.527755643984482"><ele>845.0000000000001</ele><time>2026-03-25T11:47:08.903Z</time></trkpt><trkpt lat="30.77416610172439" lon="-5.527842149703921"><ele>845.0</ele><time>2026-03-25T11:47:09.903Z</time></trkpt><trkpt lat="30.774189096348092" lon="-5.527938106012996"><ele>845.0</ele><time>2026-03-25T11:47:10.903Z</time></trkpt><trkpt lat="30.774211035779622" lon="-5.528035274625163"><ele>845.0</ele><time>2026-03-25T11:47:11.903Z</time></trkpt><trkpt lat="30.77422520624588" lon="-5.528120511764225"><ele>845.0000000000001</ele><time>2026-03-25T11:47:12.903Z</time></trkpt><trkpt lat="30.774240933126926" lon="-5.528199019971756"><ele>845.0</ele><time>2026-03-25T11:47:13.903Z</time></trkpt><trkpt lat="30.774258007630905" lon="-5.528270315622148"><ele>845.4</ele><time>2026-03-25T11:47:14.903Z</time></trkpt><trkpt lat="30.77428459637939" lon="-5.528379828293155"><ele>845.8</ele><time>2026-03-25T11:47:16.903Z</time></trkpt><trkpt lat="30.774329569535514" lon="-5.528449970609436"><ele>846.2</ele><time>2026-03-25T11:47:18.903Z</time></trkpt><trkpt lat="30.774338676128913" lon="-5.528541991966317"><ele>846.6</ele><time>2026-03-25T11:47:21.903Z</time></trkpt><trkpt lat="30.774272925492028" lon="-5.528612866310462"><ele>847.0</ele><time>2026-03-25T11:47:25.903Z</time></trkpt><trkpt lat="30.774251539734788" lon="-5.528735699329271"><ele>847.3333333333333</ele><time>2026-03-25T11:47:27.903Z</time></trkpt><trkpt lat="30.774251029211882" lon="-5.5288158710287645"><ele>847.6666666666666</ele><time>2026-03-25T11:47:28.903Z</time></trkpt><trkpt lat="30.77425587335006" lon="-5.52890078141491"><ele>848.0</ele><time>2026-03-25T11:47:29.903Z</time></trkpt><trkpt lat="30.77426635522444" lon="-5.528994599080816"><ele>848.3333333333333</ele><time>2026-03-25T11:47:30.903Z</time></trkpt><trkpt lat="30.7742763218472" lon="-5.529087485685681"><ele>848.6666666666666</ele><time>2026-03-25T11:47:31.903Z</time></trkpt><trkpt lat="30.774284990870132" lon="-5.529180173821081"><ele>849.0</ele><time>2026-03-25T11:47:32.902Z</time></trkpt><trkpt lat="30.77431362503722" lon="-5.529282879788786"><ele>849.0</ele><time>2026-03-25T11:47:33.902Z</time></trkpt><trkpt lat="30.774341329136988" lon="-5.529389259053123"><ele>849.0</ele><time>2026-03-25T11:47:34.903Z</time></trkpt><trkpt lat="30.774370498912152" lon="-5.529505390623416"><ele>849.0</ele><time>2026-03-25T11:47:35.902Z</time></trkpt><trkpt lat="30.774399631782014" lon="-5.529622813126518"><ele>849.0</ele><time>2026-03-25T11:47:36.902Z</time></trkpt><trkpt lat="30.774429096413414" lon="-5.529740586585655"><ele>849.0</ele><time>2026-03-25T11:47:37.903Z</time></trkpt><trkpt lat="30.77446777440853" lon="-5.529867254525453"><ele>850.25</ele><time>2026-03-25T11:47:38.902Z</time></trkpt><trkpt lat="30.77451480593014" lon="-5.530011957359364"><ele>851.5</ele><time>2026-03-25T11:47:39.902Z</time></trkpt><trkpt lat="30.774564306961256" lon="-5.530162497879855"><ele>852.75</ele><time>2026-03-25T11:47:40.902Z</time></trkpt><trkpt lat="30.77461471752086" lon="-5.5302968122900324"><ele>854.0</ele><time>2026-03-25T11:47:41.902Z</time></trkpt><trkpt lat="30.77468442099574" lon="-5.530428216117269"><ele>854.0</ele><time>2026-03-25T11:47:42.902Z</time></trkpt><trkpt lat="30.774759740270728" lon="-5.530566346269595"><ele>854.0</ele><time>2026-03-25T11:47:43.902Z</time></trkpt><trkpt lat="30.774816992808145" lon="-5.530707051264963"><ele>854.0</ele><time>2026-03-25T11:47:44.902Z</time></trkpt><trkpt lat="30.774867613557014" lon="-5.530834700459381"><ele>854.0</ele><time>2026-03-25T11:47:45.902Z</time></trkpt><trkpt lat="30.774914806990342" lon="-5.53095023203726"><ele>854.0</ele><time>2026-03-25T11:47:46.902Z</time></trkpt><trkpt lat="30.774975062121502" lon="-5.531054715045651"><ele>854.0000000000001</ele><time>2026-03-25T11:47:47.902Z</time></trkpt><trkpt lat="30.7750440155138" lon="-5.531153018380097"><ele>854.0000000000001</ele><time>2026-03-25T11:47:48.902Z</time></trkpt><trkpt lat="30.7751159548389" lon="-5.531259325417617"><ele>854.0</ele><time>2026-03-25T11:47:49.902Z</time></trkpt><trkpt lat="30.775191829126463" lon="-5.531360092724993"><ele>854.0</ele><time>2026-03-25T11:47:50.902Z</time></trkpt><trkpt lat="30.775261677462794" lon="-5.531462381181653"><ele>855.25</ele><time>2026-03-25T11:47:51.902Z</time></trkpt><trkpt lat="30.775347326460707" lon="-5.531558124627443"><ele>856.5</ele><time>2026-03-25T11:47:52.902Z</time></trkpt><trkpt lat="30.775439697084682" lon="-5.531646225242154"><ele>857.75</ele><time>2026-03-25T11:47:53.902Z</time></trkpt><trkpt lat="30.775518997359654" lon="-5.531738240770346"><ele>859.0</ele><time>2026-03-25T11:47:54.902Z</time></trkpt><trkpt lat="30.775597960731076" lon="-5.531864139866321"><ele>859.0</ele><time>2026-03-25T11:47:55.902Z</time></trkpt><trkpt lat="30.775664221688196" lon="-5.532008915329337"><ele>859.0</ele><time>2026-03-25T11:47:56.902Z</time></trkpt><trkpt lat="30.775721387631478" lon="-5.532138605955045"><ele>859.0</ele><time>2026-03-25T11:47:57.902Z</time></trkpt><trkpt lat="30.775779795614724" lon="-5.532249921306905"><ele>859.0</ele><time>2026-03-25T11:47:58.902Z</time></trkpt><trkpt lat="30.775844412404552" lon="-5.532349037251881"><ele>860.25</ele><time>2026-03-25T11:47:59.902Z</time></trkpt><trkpt lat="30.775932096339353" lon="-5.53243881036083"><ele>861.5</ele><time>2026-03-25T11:48:00.902Z</time></trkpt><trkpt lat="30.776002872667323" lon="-5.532557069110149"><ele>862.75</ele><time>2026-03-25T11:48:01.902Z</time></trkpt><trkpt lat="30.776042541085648" lon="-5.532691693043882"><ele>864.0</ele><time>2026-03-25T11:48:02.902Z</time></trkpt><trkpt lat="30.77607027640241" lon="-5.53283994254493"><ele>862.25</ele><time>2026-03-25T11:48:03.902Z</time></trkpt><trkpt lat="30.776088743778853" lon="-5.532983830433477"><ele>860.5</ele><time>2026-03-25T11:48:04.902Z</time></trkpt><trkpt lat="30.776114921914935" lon="-5.533107159926875"><ele>858.75</ele><time>2026-03-25T11:48:05.902Z</time></trkpt><trkpt lat="30.776157655989927" lon="-5.533240564642806"><ele>857.0</ele><time>2026-03-25T11:48:06.902Z</time></trkpt><trkpt lat="30.776236488105766" lon="-5.533373233030509"><ele>857.0</ele><time>2026-03-25T11:48:07.902Z</time></trkpt><trkpt lat="30.776320577531788" lon="-5.533513508897506"><ele>857.0</ele><time>2026-03-25T11:48:08.902Z</time></trkpt><trkpt lat="30.77638899754575" lon="-5.5336259720737715"><ele>857.0</ele><time>2026-03-25T11:48:09.902Z</time></trkpt><trkpt lat="30.776450195484774" lon="-5.533742571402705"><ele>857.0</ele><time>2026-03-25T11:48:10.902Z</time></trkpt><trkpt lat="30.776507756013018" lon="-5.533859792893014"><ele>856.0</ele><time>2026-03-25T11:48:11.902Z</time></trkpt><trkpt lat="30.77656809293148" lon="-5.53398389594574"><ele>855.0</ele><time>2026-03-25T11:48:12.902Z</time></trkpt><trkpt lat="30.776640906936176" lon="-5.534106009152768"><ele>854.0</ele><time>2026-03-25T11:48:13.902Z</time></trkpt><trkpt lat="30.776702931891993" lon="-5.534228405646938"><ele>853.0</ele><time>2026-03-25T11:48:14.902Z</time></trkpt><trkpt lat="30.776757537439316" lon="-5.534351324246336"><ele>853.0</ele><time>2026-03-25T11:48:15.902Z</time></trkpt><trkpt lat="30.776803879898377" lon="-5.534465430693789"><ele>853.0</ele><time>2026-03-25T11:48:16.902Z</time></trkpt><trkpt lat="30.776849071507307" lon="-5.5345691094632725"><ele>853.0</ele><time>2026-03-25T11:48:17.902Z</time></trkpt><trkpt lat="30.7768958309046" lon="-5.5346749809253115"><ele>853.0</ele><time>2026-03-25T11:48:18.902Z</time></trkpt><trkpt lat="30.776924284487514" lon="-5.534791630042082"><ele>853.0</ele><time>2026-03-25T11:48:19.902Z</time></trkpt><trkpt lat="30.77693634432357" lon="-5.5349133083344295"><ele>854.5</ele><time>2026-03-25T11:48:20.902Z</time></trkpt><trkpt lat="30.77696606956323" lon="-5.535029237236768"><ele>856.0</ele><time>2026-03-25T11:48:21.902Z</time></trkpt><trkpt lat="30.777023192058873" lon="-5.5351510708153775"><ele>857.5</ele><time>2026-03-25T11:48:22.902Z</time></trkpt><trkpt lat="30.77709087395718" lon="-5.535270968545143"><ele>859.0</ele><time>2026-03-25T11:48:23.902Z</time></trkpt><trkpt lat="30.77716471077839" lon="-5.535382835733863"><ele>857.5</ele><time>2026-03-25T11:48:24.902Z</time></trkpt><trkpt lat="30.777230546581798" lon="-5.535498119648148"><ele>856.0</ele><time>2026-03-25T11:48:25.902Z</time></trkpt><trkpt lat="30.7773039264683" lon="-5.535604410515125"><ele>854.5</ele><time>2026-03-25T11:48:26.902Z</time></trkpt><trkpt lat="30.77736762870774" lon="-5.535701473346419"><ele>853.0</ele><time>2026-03-25T11:48:27.902Z</time></trkpt><trkpt lat="30.777438972390815" lon="-5.535808895845309"><ele>853.0</ele><time>2026-03-25T11:48:28.902Z</time></trkpt><trkpt lat="30.777513708867193" lon="-5.535922734488348"><ele>853.0</ele><time>2026-03-25T11:48:29.902Z</time></trkpt><trkpt lat="30.777596559506875" lon="-5.536033895513181"><ele>853.0</ele><time>2026-03-25T11:48:30.902Z</time></trkpt><trkpt lat="30.777670049422376" lon="-5.53615212191389"><ele>853.0</ele><time>2026-03-25T11:48:31.902Z</time></trkpt><trkpt lat="30.77770935084196" lon="-5.536312227376966"><ele>854.25</ele><time>2026-03-25T11:48:32.902Z</time></trkpt><trkpt lat="30.77775147552903" lon="-5.536460610826188"><ele>855.5</ele><time>2026-03-25T11:48:33.902Z</time></trkpt><trkpt lat="30.77779341141992" lon="-5.536584111494874"><ele>856.75</ele><time>2026-03-25T11:48:34.902Z</time></trkpt><trkpt lat="30.777842112959394" lon="-5.536703492230005"><ele>858.0</ele><time>2026-03-25T11:48:35.902Z</time></trkpt><trkpt lat="30.777895736134926" lon="-5.5368261576152635"><ele>858.0</ele><time>2026-03-25T11:48:36.902Z</time></trkpt><trkpt lat="30.77792904593739" lon="-5.5369512766257225"><ele>858.0</ele><time>2026-03-25T11:48:37.902Z</time></trkpt><trkpt lat="30.777956732603688" lon="-5.537086717635116"><ele>858.0</ele><time>2026-03-25T11:48:38.902Z</time></trkpt><trkpt lat="30.77800040984894" lon="-5.537210107918909"><ele>858.0</ele><time>2026-03-25T11:48:39.902Z</time></trkpt><trkpt lat="30.778030759319833" lon="-5.53731628764544"><ele>858.0</ele><time>2026-03-25T11:48:40.902Z</time></trkpt><trkpt lat="30.778052535596345" lon="-5.537420665078776"><ele>857.1666666666666</ele><time>2026-03-25T11:48:41.902Z</time></trkpt><trkpt lat="30.778086990658583" lon="-5.537521184379564"><ele>856.3333333333333</ele><time>2026-03-25T11:48:42.902Z</time></trkpt><trkpt lat="30.778122425493788" lon="-5.537619281053671"><ele>855.5</ele><time>2026-03-25T11:48:43.902Z</time></trkpt><trkpt lat="30.778155610705234" lon="-5.537701876145781"><ele>854.6666666666666</ele><time>2026-03-25T11:48:44.902Z</time></trkpt><trkpt lat="30.778178571007754" lon="-5.537789746197061"><ele>853.8333333333333</ele><time>2026-03-25T11:48:45.902Z</time></trkpt><trkpt lat="30.778202966741805" lon="-5.537883735393681"><ele>853.0</ele><time>2026-03-25T11:48:46.902Z</time></trkpt><trkpt lat="30.778228326494833" lon="-5.537982309171003"><ele>852.8333333333333</ele><time>2026-03-25T11:48:47.902Z</time></trkpt><trkpt lat="30.778249160617015" lon="-5.538067711373731"><ele>852.6666666666666</ele><time>2026-03-25T11:48:48.902Z</time></trkpt><trkpt lat="30.778272530636947" lon="-5.538160251398088"><ele>852.5</ele><time>2026-03-25T11:48:49.901Z</time></trkpt><trkpt lat="30.77829786044109" lon="-5.538247097452207"><ele>852.3333333333333</ele><time>2026-03-25T11:48:50.901Z</time></trkpt><trkpt lat="30.77833078394695" lon="-5.538327952070441"><ele>852.1666666666666</ele><time>2026-03-25T11:48:51.901Z</time></trkpt><trkpt lat="30.778364583644283" lon="-5.538415823606012"><ele>852.0</ele><time>2026-03-25T11:48:52.901Z</time></trkpt><trkpt lat="30.77840437911128" lon="-5.538507669843692"><ele>852.0</ele><time>2026-03-25T11:48:53.901Z</time></trkpt><trkpt lat="30.778447156801356" lon="-5.538601073663365"><ele>852.0</ele><time>2026-03-25T11:48:54.901Z</time></trkpt><trkpt lat="30.778486596709023" lon="-5.538705831699017"><ele>852.0</ele><time>2026-03-25T11:48:55.901Z</time></trkpt><trkpt lat="30.778514596318846" lon="-5.538811736433228"><ele>852.0</ele><time>2026-03-25T11:48:56.901Z</time></trkpt><trkpt lat="30.778549488653557" lon="-5.5389099091808"><ele>852.0</ele><time>2026-03-25T11:48:57.901Z</time></trkpt><trkpt lat="30.77858175022712" lon="-5.539001380891928"><ele>853.5</ele><time>2026-03-25T11:48:58.901Z</time></trkpt><trkpt lat="30.7786027177253" lon="-5.53910146225998"><ele>855.0</ele><time>2026-03-25T11:48:59.901Z</time></trkpt><trkpt lat="30.778621736537275" lon="-5.539185613634827"><ele>856.5</ele><time>2026-03-25T11:49:00.901Z</time></trkpt><trkpt lat="30.77864355573426" lon="-5.5392787299045345"><ele>858.0</ele><time>2026-03-25T11:49:01.901Z</time></trkpt><trkpt lat="30.778668368432637" lon="-5.539369167562283"><ele>859.5</ele><time>2026-03-25T11:49:02.901Z</time></trkpt><trkpt lat="30.77869017656591" lon="-5.539457415452807"><ele>861.0</ele><time>2026-03-25T11:49:03.901Z</time></trkpt><trkpt lat="30.7787077597297" lon="-5.53954152060205"><ele>860.5</ele><time>2026-03-25T11:49:04.901Z</time></trkpt><trkpt lat="30.77872654805931" lon="-5.539638609848514"><ele>860.0</ele><time>2026-03-25T11:49:05.901Z</time></trkpt><trkpt lat="30.778754779347004" lon="-5.539732834942056"><ele>859.5</ele><time>2026-03-25T11:49:06.901Z</time></trkpt><trkpt lat="30.77877855418253" lon="-5.539832438304753"><ele>859.0</ele><time>2026-03-25T11:49:07.901Z</time></trkpt><trkpt lat="30.77880361466256" lon="-5.5399265910441695"><ele>858.5</ele><time>2026-03-25T11:49:08.901Z</time></trkpt><trkpt lat="30.778836280791424" lon="-5.5400218697002"><ele>858.0</ele><time>2026-03-25T11:49:09.901Z</time></trkpt><trkpt lat="30.778873591333245" lon="-5.540111406571226"><ele>858.0</ele><time>2026-03-25T11:49:10.901Z</time></trkpt><trkpt lat="30.77890282970154" lon="-5.540207147551893"><ele>858.0</ele><time>2026-03-25T11:49:11.901Z</time></trkpt><trkpt lat="30.77897274748575" lon="-5.540285403885562"><ele>858.0</ele><time>2026-03-25T11:49:12.901Z</time></trkpt><trkpt lat="30.77904286274953" lon="-5.5403508728361155"><ele>858.0</ele><time>2026-03-25T11:49:13.901Z</time></trkpt><trkpt lat="30.779095211922233" lon="-5.540434952107132"><ele>858.0</ele><time>2026-03-25T11:49:14.901Z</time></trkpt><trkpt lat="30.779143118467648" lon="-5.540503368745282"><ele>858.0</ele><time>2026-03-25T11:49:15.901Z</time></trkpt><trkpt lat="30.779183661185357" lon="-5.540584889006305"><ele>857.5</ele><time>2026-03-25T11:49:16.901Z</time></trkpt><trkpt lat="30.779227885965703" lon="-5.540672092912401"><ele>857.0</ele><time>2026-03-25T11:49:17.901Z</time></trkpt><trkpt lat="30.77927080587667" lon="-5.5407567801430435"><ele>856.5</ele><time>2026-03-25T11:49:18.901Z</time></trkpt><trkpt lat="30.779315094273997" lon="-5.540842978447027"><ele>856.0</ele><time>2026-03-25T11:49:19.901Z</time></trkpt><trkpt lat="30.779356158694327" lon="-5.540935147595464"><ele>855.5</ele><time>2026-03-25T11:49:20.901Z</time></trkpt><trkpt lat="30.779400970350334" lon="-5.541024519034916"><ele>855.0</ele><time>2026-03-25T11:49:21.901Z</time></trkpt><trkpt lat="30.779437604706178" lon="-5.54111824844989"><ele>856.8</ele><time>2026-03-25T11:49:22.901Z</time></trkpt><trkpt lat="30.779486927531533" lon="-5.541214057458678"><ele>858.6</ele><time>2026-03-25T11:49:23.901Z</time></trkpt><trkpt lat="30.779527928253415" lon="-5.541314833825052"><ele>860.4000000000001</ele><time>2026-03-25T11:49:24.901Z</time></trkpt><trkpt lat="30.77956924972917" lon="-5.541416166526948"><ele>862.2</ele><time>2026-03-25T11:49:25.901Z</time></trkpt><trkpt lat="30.77960916427072" lon="-5.541515967707118"><ele>864.0</ele><time>2026-03-25T11:49:26.901Z</time></trkpt><trkpt lat="30.77964912209566" lon="-5.541618748614851"><ele>864.0</ele><time>2026-03-25T11:49:27.901Z</time></trkpt><trkpt lat="30.779672194860836" lon="-5.541724685023201"><ele>864.0</ele><time>2026-03-25T11:49:28.901Z</time></trkpt><trkpt lat="30.779677695256503" lon="-5.541822636253284"><ele>864.0</ele><time>2026-03-25T11:49:29.901Z</time></trkpt><trkpt lat="30.779682409457557" lon="-5.541912398163363"><ele>864.0</ele><time>2026-03-25T11:49:30.901Z</time></trkpt><trkpt lat="30.77969350099653" lon="-5.54200470456705"><ele>864.0</ele><time>2026-03-25T11:49:31.902Z</time></trkpt><trkpt lat="30.779715334829657" lon="-5.542084732052956"><ele>864.0</ele><time>2026-03-25T11:49:32.902Z</time></trkpt><trkpt lat="30.779744652309265" lon="-5.542165974963049"><ele>863.0</ele><time>2026-03-25T11:49:33.902Z</time></trkpt><trkpt lat="30.77979513799962" lon="-5.5422568017473175"><ele>862.0000000000001</ele><time>2026-03-25T11:49:34.902Z</time></trkpt><trkpt lat="30.779852944378355" lon="-5.5423486246387395"><ele>861.0000000000001</ele><time>2026-03-25T11:49:35.902Z</time></trkpt><trkpt lat="30.779902876401245" lon="-5.542443359215611"><ele>860.0</ele><time>2026-03-25T11:49:36.902Z</time></trkpt><trkpt lat="30.77993207642799" lon="-5.54254613918798"><ele>859.0</ele><time>2026-03-25T11:49:37.902Z</time></trkpt><trkpt lat="30.779957046034976" lon="-5.542662636630301"><ele>859.0</ele><time>2026-03-25T11:49:38.902Z</time></trkpt><trkpt lat="30.779994686873525" lon="-5.542759041816814"><ele>859.0000000000001</ele><time>2026-03-25T11:49:39.902Z</time></trkpt><trkpt lat="30.780025675018067" lon="-5.542874382955614"><ele>859.0000000000001</ele><time>2026-03-25T11:49:40.902Z</time></trkpt><trkpt lat="30.78005820632748" lon="-5.543007560558937"><ele>859.0</ele><time>2026-03-25T11:49:41.901Z</time></trkpt><trkpt lat="30.780100933268354" lon="-5.543130470813754"><ele>859.0</ele><time>2026-03-25T11:49:42.901Z</time></trkpt><trkpt lat="30.78015994436817" lon="-5.543242405689928"><ele>859.0</ele><time>2026-03-25T11:49:43.902Z</time></trkpt><trkpt lat="30.78022411172411" lon="-5.543344197641057"><ele>859.0000000000001</ele><time>2026-03-25T11:49:44.901Z</time></trkpt><trkpt lat="30.78028349743337" lon="-5.54344691944625"><ele>859.0000000000001</ele><time>2026-03-25T11:49:45.901Z</time></trkpt><trkpt lat="30.78033384745829" lon="-5.5435570196129875"><ele>859.0</ele><time>2026-03-25T11:49:46.901Z</time></trkpt><trkpt lat="30.78038064550664" lon="-5.543669907083344"><ele>859.0</ele><time>2026-03-25T11:49:47.901Z</time></trkpt><trkpt lat="30.7804088020072" lon="-5.543785777498635"><ele>859.0</ele><time>2026-03-25T11:49:48.901Z</time></trkpt><trkpt lat="30.78044434834062" lon="-5.543904129603842"><ele>859.0000000000001</ele><time>2026-03-25T11:49:49.901Z</time></trkpt><trkpt lat="30.780487120642285" lon="-5.544005091858435"><ele>859.0000000000001</ele><time>2026-03-25T11:49:50.901Z</time></trkpt><trkpt lat="30.780530336030733" lon="-5.544123434143243"><ele>859.0</ele><time>2026-03-25T11:49:51.901Z</time></trkpt><trkpt lat="30.78059406935324" lon="-5.544243833130301"><ele>859.0</ele><time>2026-03-25T11:49:52.901Z</time></trkpt><trkpt lat="30.780651862820864" lon="-5.54436024021104"><ele>859.0</ele><time>2026-03-25T11:49:53.901Z</time></trkpt><trkpt lat="30.780712652615367" lon="-5.544473126125994"><ele>859.0</ele><time>2026-03-25T11:49:54.901Z</time></trkpt><trkpt lat="30.780784853653106" lon="-5.544590242926301"><ele>859.0</ele><time>2026-03-25T11:49:55.901Z</time></trkpt><trkpt lat="30.780853413701486" lon="-5.544696550767115"><ele>859.0</ele><time>2026-03-25T11:49:56.901Z</time></trkpt><trkpt lat="30.780923138071326" lon="-5.544806316645964"><ele>857.75</ele><time>2026-03-25T11:49:57.901Z</time></trkpt><trkpt lat="30.780990095090864" lon="-5.544920139879963"><ele>856.5</ele><time>2026-03-25T11:49:58.901Z</time></trkpt><trkpt lat="30.78105221843879" lon="-5.545030812900865"><ele>855.25</ele><time>2026-03-25T11:49:59.901Z</time></trkpt><trkpt lat="30.78111637603175" lon="-5.545142020005032"><ele>854.0</ele><time>2026-03-25T11:50:00.901Z</time></trkpt><trkpt lat="30.781176086502533" lon="-5.545243700058741"><ele>855.5</ele><time>2026-03-25T11:50:01.901Z</time></trkpt><trkpt lat="30.781235896158645" lon="-5.545349851525398"><ele>857.0</ele><time>2026-03-25T11:50:02.901Z</time></trkpt><trkpt lat="30.781292657967125" lon="-5.545451559260462"><ele>858.5</ele><time>2026-03-25T11:50:03.901Z</time></trkpt><trkpt lat="30.781352105451134" lon="-5.545570336304968"><ele>860.0</ele><time>2026-03-25T11:50:04.901Z</time></trkpt><trkpt lat="30.781411288572865" lon="-5.545690495466624"><ele>860.0</ele><time>2026-03-25T11:50:05.901Z</time></trkpt><trkpt lat="30.781468145406432" lon="-5.545816251482189"><ele>860.0</ele><time>2026-03-25T11:50:06.901Z</time></trkpt><trkpt lat="30.78152520645523" lon="-5.545939470459963"><ele>860.0</ele><time>2026-03-25T11:50:07.901Z</time></trkpt><trkpt lat="30.78155213379797" lon="-5.546063950135944"><ele>860.0</ele><time>2026-03-25T11:50:08.901Z</time></trkpt><trkpt lat="30.781573397051865" lon="-5.546172860431592"><ele>860.0</ele><time>2026-03-25T11:50:09.901Z</time></trkpt><trkpt lat="30.78159745660723" lon="-5.546277037396562"><ele>859.6</ele><time>2026-03-25T11:50:10.901Z</time></trkpt><trkpt lat="30.78162185272093" lon="-5.546391391441424"><ele>859.2</ele><time>2026-03-25T11:50:11.901Z</time></trkpt><trkpt lat="30.781647899060594" lon="-5.546492166392732"><ele>858.8</ele><time>2026-03-25T11:50:12.901Z</time></trkpt><trkpt lat="30.78168189228744" lon="-5.54658431780141"><ele>858.4</ele><time>2026-03-25T11:50:13.901Z</time></trkpt><trkpt lat="30.781738919855147" lon="-5.546674870085681"><ele>858.0</ele><time>2026-03-25T11:50:14.901Z</time></trkpt><trkpt lat="30.78179999978712" lon="-5.546773365829556"><ele>858.4</ele><time>2026-03-25T11:50:15.901Z</time></trkpt><trkpt lat="30.781858005178115" lon="-5.546852973605268"><ele>858.8</ele><time>2026-03-25T11:50:16.901Z</time></trkpt><trkpt lat="30.781935970329727" lon="-5.546947230382026"><ele>859.2</ele><time>2026-03-25T11:50:17.901Z</time></trkpt><trkpt lat="30.782011302061854" lon="-5.5470251610655685"><ele>859.6</ele><time>2026-03-25T11:50:18.901Z</time></trkpt><trkpt lat="30.782075716561035" lon="-5.547089487550504"><ele>860.0</ele><time>2026-03-25T11:50:19.901Z</time></trkpt><trkpt lat="30.782138805226282" lon="-5.547162162880656"><ele>860.0</ele><time>2026-03-25T11:50:20.901Z</time></trkpt><trkpt lat="30.78219892486727" lon="-5.547252935409831"><ele>860.0</ele><time>2026-03-25T11:50:21.901Z</time></trkpt><trkpt lat="30.782252381435583" lon="-5.547363785529839"><ele>860.0</ele><time>2026-03-25T11:50:22.901Z</time></trkpt><trkpt lat="30.782291618906253" lon="-5.547477050215651"><ele>860.0</ele><time>2026-03-25T11:50:23.901Z</time></trkpt><trkpt lat="30.782326082900653" lon="-5.547584358533708"><ele>860.0</ele><time>2026-03-25T11:50:24.901Z</time></trkpt><trkpt lat="30.782355169814807" lon="-5.547686806061216"><ele>860.0</ele><time>2026-03-25T11:50:25.901Z</time></trkpt><trkpt lat="30.782399482073952" lon="-5.547789764583097"><ele>860.0</ele><time>2026-03-25T11:50:26.901Z</time></trkpt><trkpt lat="30.782445717238367" lon="-5.547895425052455"><ele>860.0</ele><time>2026-03-25T11:50:27.901Z</time></trkpt><trkpt lat="30.782490383846106" lon="-5.548006163019029"><ele>860.0</ele><time>2026-03-25T11:50:28.901Z</time></trkpt><trkpt lat="30.782542790784422" lon="-5.548125670742478"><ele>860.0</ele><time>2026-03-25T11:50:29.901Z</time></trkpt><trkpt lat="30.782590939218114" lon="-5.548246450503652"><ele>860.2</ele><time>2026-03-25T11:50:30.901Z</time></trkpt><trkpt lat="30.782633391209362" lon="-5.5483582002437135"><ele>860.4</ele><time>2026-03-25T11:50:31.901Z</time></trkpt><trkpt lat="30.7826766523485" lon="-5.5484677242687885"><ele>860.5999999999999</ele><time>2026-03-25T11:50:32.901Z</time></trkpt><trkpt lat="30.78271818075756" lon="-5.548575822437023"><ele>860.8</ele><time>2026-03-25T11:50:33.901Z</time></trkpt><trkpt lat="30.782755524647015" lon="-5.548680603195579"><ele>861.0</ele><time>2026-03-25T11:50:34.901Z</time></trkpt><trkpt lat="30.78279961183098" lon="-5.548792189726934"><ele>860.5999999999999</ele><time>2026-03-25T11:50:35.901Z</time></trkpt><trkpt lat="30.782838348548516" lon="-5.548908152905797"><ele>860.1999999999999</ele><time>2026-03-25T11:50:36.901Z</time></trkpt><trkpt lat="30.78287865895695" lon="-5.549024427345742"><ele>859.8000000000001</ele><time>2026-03-25T11:50:37.901Z</time></trkpt><trkpt lat="30.782918161844997" lon="-5.549133305812113"><ele>859.4000000000001</ele><time>2026-03-25T11:50:38.901Z</time></trkpt><trkpt lat="30.78294972231125" lon="-5.549234721032631"><ele>859.0</ele><time>2026-03-25T11:50:39.901Z</time></trkpt><trkpt lat="30.782981532269584" lon="-5.549340577712189"><ele>858.9999999999999</ele><time>2026-03-25T11:50:40.901Z</time></trkpt><trkpt lat="30.783007194037435" lon="-5.549443284251443"><ele>859.0</ele><time>2026-03-25T11:50:41.901Z</time></trkpt><trkpt lat="30.78304210979232" lon="-5.549543792949558"><ele>859.0</ele><time>2026-03-25T11:50:42.901Z</time></trkpt><trkpt lat="30.78307521162812" lon="-5.549653777426842"><ele>859.0</ele><time>2026-03-25T11:50:43.901Z</time></trkpt><trkpt lat="30.7830995612494" lon="-5.549753712426883"><ele>858.9999999999999</ele><time>2026-03-25T11:50:44.901Z</time></trkpt><trkpt lat="30.783122614922366" lon="-5.549833944822423"><ele>859.0</ele><time>2026-03-25T11:50:45.901Z</time></trkpt><trkpt lat="30.78314688033322" lon="-5.549913178048234"><ele>859.6</ele><time>2026-03-25T11:50:46.901Z</time></trkpt><trkpt lat="30.78319940843641" lon="-5.550041804715812"><ele>860.2</ele><time>2026-03-25T11:50:48.901Z</time></trkpt><trkpt lat="30.78325842835012" lon="-5.55012858132561"><ele>860.8000000000001</ele><time>2026-03-25T11:50:50.901Z</time></trkpt><trkpt lat="30.783317190807015" lon="-5.55021109797131"><ele>861.4000000000001</ele><time>2026-03-25T11:50:52.901Z</time></trkpt><trkpt lat="30.783345060334067" lon="-5.550325947294627"><ele>862.0</ele><time>2026-03-25T11:50:54.901Z</time></trkpt><trkpt lat="30.783326644109422" lon="-5.55040423138149"><ele>863.1666666666666</ele><time>2026-03-25T11:50:55.901Z</time></trkpt><trkpt lat="30.783287701872997" lon="-5.550482214902745"><ele>864.3333333333333</ele><time>2026-03-25T11:50:56.901Z</time></trkpt><trkpt lat="30.783243294664143" lon="-5.550559592706072"><ele>865.5</ele><time>2026-03-25T11:50:57.901Z</time></trkpt><trkpt lat="30.783206503073714" lon="-5.550639550091644"><ele>866.6666666666667</ele><time>2026-03-25T11:50:58.901Z</time></trkpt><trkpt lat="30.783169551824816" lon="-5.550715956964505"><ele>867.8333333333334</ele><time>2026-03-25T11:50:59.901Z</time></trkpt><trkpt lat="30.783135401760052" lon="-5.550812494008778"><ele>869.0</ele><time>2026-03-25T11:51:00.901Z</time></trkpt><trkpt lat="30.783105411309453" lon="-5.5509117267631884"><ele>869.0</ele><time>2026-03-25T11:51:01.901Z</time></trkpt><trkpt lat="30.7830922822285" lon="-5.551006281901255"><ele>869.0000000000001</ele><time>2026-03-25T11:51:02.901Z</time></trkpt><trkpt lat="30.783075806572455" lon="-5.551107014719063"><ele>869.0000000000001</ele><time>2026-03-25T11:51:03.901Z</time></trkpt><trkpt lat="30.783066559492873" lon="-5.55120438915826"><ele>869.0</ele><time>2026-03-25T11:51:04.901Z</time></trkpt><trkpt lat="30.783079116390947" lon="-5.551334162617313"><ele>869.0</ele><time>2026-03-25T11:51:05.901Z</time></trkpt><trkpt lat="30.783086359468882" lon="-5.551456123202246"><ele>869.25</ele><time>2026-03-25T11:51:06.901Z</time></trkpt><trkpt lat="30.78309274925363" lon="-5.551595103312735"><ele>869.5</ele><time>2026-03-25T11:51:07.901Z</time></trkpt><trkpt lat="30.783102736348045" lon="-5.551742326218594"><ele>869.75</ele><time>2026-03-25T11:51:08.901Z</time></trkpt><trkpt lat="30.783114516703197" lon="-5.55189191150464"><ele>870.0</ele><time>2026-03-25T11:51:09.901Z</time></trkpt><trkpt lat="30.783145269533083" lon="-5.552042297900528"><ele>868.25</ele><time>2026-03-25T11:51:10.9Z</time></trkpt><trkpt lat="30.783163353305365" lon="-5.552193549495223"><ele>866.5</ele><time>2026-03-25T11:51:11.9Z</time></trkpt><trkpt lat="30.783174882996004" lon="-5.552339909322005"><ele>864.75</ele><time>2026-03-25T11:51:12.9Z</time></trkpt><trkpt lat="30.783191571327766" lon="-5.552476449725606"><ele>863.0</ele><time>2026-03-25T11:51:13.9Z</time></trkpt><trkpt lat="30.78320858740563" lon="-5.552613858211724"><ele>863.0</ele><time>2026-03-25T11:51:14.9Z</time></trkpt><trkpt lat="30.783227929001683" lon="-5.552747435096086"><ele>863.0</ele><time>2026-03-25T11:51:15.9Z</time></trkpt><trkpt lat="30.78324783942467" lon="-5.552883213929884"><ele>863.0</ele><time>2026-03-25T11:51:16.9Z</time></trkpt><trkpt lat="30.783265691581995" lon="-5.553021868501487"><ele>863.0</ele><time>2026-03-25T11:51:17.9Z</time></trkpt><trkpt lat="30.783285170512457" lon="-5.553164874580648"><ele>862.75</ele><time>2026-03-25T11:51:18.9Z</time></trkpt><trkpt lat="30.78330874751204" lon="-5.553316297797062"><ele>862.5</ele><time>2026-03-25T11:51:19.9Z</time></trkpt><trkpt lat="30.78332885134431" lon="-5.553464132613182"><ele>862.25</ele><time>2026-03-25T11:51:20.9Z</time></trkpt><trkpt lat="30.783342490342967" lon="-5.553619579755273"><ele>862.0</ele><time>2026-03-25T11:51:21.9Z</time></trkpt><trkpt lat="30.78337088195369" lon="-5.553765911319555"><ele>862.0</ele><time>2026-03-25T11:51:22.9Z</time></trkpt><trkpt lat="30.78338548947392" lon="-5.553915706709275"><ele>862.0</ele><time>2026-03-25T11:51:23.9Z</time></trkpt><trkpt lat="30.783409324031094" lon="-5.554066312518516"><ele>862.0</ele><time>2026-03-25T11:51:24.9Z</time></trkpt><trkpt lat="30.783427963940888" lon="-5.554220742239456"><ele>862.0</ele><time>2026-03-25T11:51:25.9Z</time></trkpt><trkpt lat="30.78344139148866" lon="-5.554380677173433"><ele>862.0</ele><time>2026-03-25T11:51:26.9Z</time></trkpt><trkpt lat="30.783464131955064" lon="-5.554534001602427"><ele>862.0</ele><time>2026-03-25T11:51:27.9Z</time></trkpt><trkpt lat="30.783486853692853" lon="-5.554691151688874"><ele>862.0</ele><time>2026-03-25T11:51:28.9Z</time></trkpt><trkpt lat="30.783499555593483" lon="-5.554838405550608"><ele>862.0</ele><time>2026-03-25T11:51:29.9Z</time></trkpt><trkpt lat="30.783519681129555" lon="-5.554984151102759"><ele>862.0</ele><time>2026-03-25T11:51:30.9Z</time></trkpt><trkpt lat="30.78353461346116" lon="-5.555136176709259"><ele>862.0</ele><time>2026-03-25T11:51:31.9Z</time></trkpt><trkpt lat="30.783550137497794" lon="-5.555286096306234"><ele>862.0</ele><time>2026-03-25T11:51:32.9Z</time></trkpt><trkpt lat="30.78357084297667" lon="-5.555446757981478"><ele>862.0</ele><time>2026-03-25T11:51:33.9Z</time></trkpt><trkpt lat="30.783581378122488" lon="-5.555618350726605"><ele>862.0</ele><time>2026-03-25T11:51:34.9Z</time></trkpt><trkpt lat="30.78359371327166" lon="-5.555789693836921"><ele>862.0</ele><time>2026-03-25T11:51:35.9Z</time></trkpt><trkpt lat="30.783606682857187" lon="-5.555957917926442"><ele>862.0</ele><time>2026-03-25T11:51:36.9Z</time></trkpt><trkpt lat="30.78362261067174" lon="-5.556118782480191"><ele>862.0</ele><time>2026-03-25T11:51:37.901Z</time></trkpt><trkpt lat="30.783637844378884" lon="-5.556281974473694"><ele>862.25</ele><time>2026-03-25T11:51:38.901Z</time></trkpt><trkpt lat="30.78365715828561" lon="-5.556445945698917"><ele>862.5</ele><time>2026-03-25T11:51:39.901Z</time></trkpt><trkpt lat="30.78367036953958" lon="-5.55661132526337"><ele>862.75</ele><time>2026-03-25T11:51:40.901Z</time></trkpt><trkpt lat="30.7836812529927" lon="-5.556767730193657"><ele>863.0</ele><time>2026-03-25T11:51:41.9Z</time></trkpt><trkpt lat="30.783686743884168" lon="-5.556917354343115"><ele>863.5</ele><time>2026-03-25T11:51:42.9Z</time></trkpt><trkpt lat="30.78369714529133" lon="-5.557052630445555"><ele>864.0</ele><time>2026-03-25T11:51:43.901Z</time></trkpt><trkpt lat="30.783706333359692" lon="-5.557192274776309"><ele>864.5</ele><time>2026-03-25T11:51:44.901Z</time></trkpt><trkpt lat="30.783725491618465" lon="-5.557324846452801"><ele>865.0</ele><time>2026-03-25T11:51:45.901Z</time></trkpt><trkpt lat="30.78373278782921" lon="-5.557460376649191"><ele>865.0</ele><time>2026-03-25T11:51:46.901Z</time></trkpt><trkpt lat="30.783749286660324" lon="-5.557599220478601"><ele>865.0</ele><time>2026-03-25T11:51:47.901Z</time></trkpt><trkpt lat="30.783755879031393" lon="-5.557741272350722"><ele>865.0</ele><time>2026-03-25T11:51:48.901Z</time></trkpt><trkpt lat="30.783755654758505" lon="-5.557887536898651"><ele>865.0</ele><time>2026-03-25T11:51:49.901Z</time></trkpt><trkpt lat="30.78376217340435" lon="-5.558019447873208"><ele>865.5</ele><time>2026-03-25T11:51:50.901Z</time></trkpt><trkpt lat="30.78376743518163" lon="-5.558147596653386"><ele>866.0</ele><time>2026-03-25T11:51:51.901Z</time></trkpt><trkpt lat="30.783771883024794" lon="-5.558279875205458"><ele>866.5</ele><time>2026-03-25T11:51:52.901Z</time></trkpt><trkpt lat="30.783783030989426" lon="-5.558410932701095"><ele>867.0</ele><time>2026-03-25T11:51:53.901Z</time></trkpt><trkpt lat="30.783789319961226" lon="-5.55854638197143"><ele>867.0</ele><time>2026-03-25T11:51:54.901Z</time></trkpt><trkpt lat="30.783799221609446" lon="-5.558684871400728"><ele>867.0</ele><time>2026-03-25T11:51:55.901Z</time></trkpt><trkpt lat="30.783812135327356" lon="-5.558816479690432"><ele>867.0</ele><time>2026-03-25T11:51:56.901Z</time></trkpt><trkpt lat="30.78382529012523" lon="-5.558950281823945"><ele>867.0</ele><time>2026-03-25T11:51:57.901Z</time></trkpt><trkpt lat="30.783832825320626" lon="-5.559080144182266"><ele>867.6</ele><time>2026-03-25T11:51:58.901Z</time></trkpt><trkpt lat="30.78382128179148" lon="-5.559209424389399"><ele>868.2</ele><time>2026-03-25T11:51:59.901Z</time></trkpt><trkpt lat="30.78383134887385" lon="-5.559330985165862"><ele>868.8</ele><time>2026-03-25T11:52:00.901Z</time></trkpt><trkpt lat="30.783826375456194" lon="-5.5594425561046235"><ele>869.4</ele><time>2026-03-25T11:52:01.901Z</time></trkpt><trkpt lat="30.78381562400279" lon="-5.5595573536692555"><ele>870.0</ele><time>2026-03-25T11:52:02.901Z</time></trkpt><trkpt lat="30.783808298657767" lon="-5.559660818525396"><ele>870.2</ele><time>2026-03-25T11:52:03.901Z</time></trkpt><trkpt lat="30.78380228333877" lon="-5.559773884269969"><ele>870.4</ele><time>2026-03-25T11:52:04.901Z</time></trkpt><trkpt lat="30.783780999693402" lon="-5.559891724130076"><ele>870.5999999999999</ele><time>2026-03-25T11:52:05.901Z</time></trkpt><trkpt lat="30.783749601420386" lon="-5.5600179131714365"><ele>870.8</ele><time>2026-03-25T11:52:06.901Z</time></trkpt><trkpt lat="30.783717109196726" lon="-5.560140201711929"><ele>871.0</ele><time>2026-03-25T11:52:07.901Z</time></trkpt><trkpt lat="30.783684847819686" lon="-5.560252993825143"><ele>870.9999999999999</ele><time>2026-03-25T11:52:08.901Z</time></trkpt><trkpt lat="30.78364752094099" lon="-5.5603580361158755"><ele>871.0</ele><time>2026-03-25T11:52:09.901Z</time></trkpt><trkpt lat="30.783607613525437" lon="-5.560447161296321"><ele>871.0</ele><time>2026-03-25T11:52:10.901Z</time></trkpt><trkpt lat="30.783572435201947" lon="-5.560536373031845"><ele>871.0</ele><time>2026-03-25T11:52:11.9Z</time></trkpt><trkpt lat="30.783536197109935" lon="-5.5606269752034025"><ele>870.9999999999999</ele><time>2026-03-25T11:52:12.9Z</time></trkpt><trkpt lat="30.783501001631638" lon="-5.560710696384293"><ele>871.0</ele><time>2026-03-25T11:52:13.9Z</time></trkpt><trkpt lat="30.783462062874285" lon="-5.560805121317702"><ele>869.8</ele><time>2026-03-25T11:52:14.9Z</time></trkpt><trkpt lat="30.783418398024477" lon="-5.560900489586696"><ele>868.5999999999999</ele><time>2026-03-25T11:52:15.9Z</time></trkpt><trkpt lat="30.783369087936354" lon="-5.560996857502684"><ele>867.4</ele><time>2026-03-25T11:52:16.9Z</time></trkpt><trkpt lat="30.783323128440554" lon="-5.561096374349788"><ele>866.2</ele><time>2026-03-25T11:52:17.9Z</time></trkpt><trkpt lat="30.78328261795552" lon="-5.561184878500227"><ele>865.0</ele><time>2026-03-25T11:52:18.9Z</time></trkpt><trkpt lat="30.783244498523324" lon="-5.561263583854842"><ele>864.9999999999999</ele><time>2026-03-25T11:52:19.9Z</time></trkpt><trkpt lat="30.783210585134047" lon="-5.561335655105245"><ele>865.0</ele><time>2026-03-25T11:52:20.9Z</time></trkpt><trkpt lat="30.783171225975206" lon="-5.56140896113267"><ele>865.0</ele><time>2026-03-25T11:52:21.9Z</time></trkpt><trkpt lat="30.78312929264641" lon="-5.561484126678329"><ele>865.0</ele><time>2026-03-25T11:52:22.9Z</time></trkpt><trkpt lat="30.78308596154761" lon="-5.56156717966775"><ele>864.9999999999999</ele><time>2026-03-25T11:52:23.9Z</time></trkpt><trkpt lat="30.783043856006234" lon="-5.56164629959341"><ele>865.0</ele><time>2026-03-25T11:52:24.9Z</time></trkpt><trkpt lat="30.783006299332165" lon="-5.561720116560622"><ele>864.9999999999999</ele><time>2026-03-25T11:52:25.9Z</time></trkpt><trkpt lat="30.782965229036996" lon="-5.561802853218183"><ele>865.0</ele><time>2026-03-25T11:52:26.9Z</time></trkpt><trkpt lat="30.782923942390287" lon="-5.561881818351559"><ele>865.0</ele><time>2026-03-25T11:52:27.9Z</time></trkpt><trkpt lat="30.782884664149726" lon="-5.561961922772764"><ele>865.0</ele><time>2026-03-25T11:52:28.9Z</time></trkpt><trkpt lat="30.782842827038188" lon="-5.562037179327843"><ele>864.9999999999999</ele><time>2026-03-25T11:52:29.9Z</time></trkpt><trkpt lat="30.7828023824514" lon="-5.562124154079375"><ele>865.0</ele><time>2026-03-25T11:52:30.9Z</time></trkpt><trkpt lat="30.782767902784837" lon="-5.562205157776557"><ele>865.0</ele><time>2026-03-25T11:52:31.9Z</time></trkpt><trkpt lat="30.782736024181997" lon="-5.562269067781724"><ele>865.0</ele><time>2026-03-25T11:52:32.9Z</time></trkpt><trkpt lat="30.782672291635574" lon="-5.562382011128232"><ele>865.0</ele><time>2026-03-25T11:52:34.9Z</time></trkpt><trkpt lat="30.78261590068684" lon="-5.562481233792775"><ele>865.0</ele><time>2026-03-25T11:52:36.9Z</time></trkpt><trkpt lat="30.782560197862587" lon="-5.562608920812776"><ele>865.0</ele><time>2026-03-25T11:52:38.9Z</time></trkpt><trkpt lat="30.782531812435952" lon="-5.562677799816"><ele>864.9999999999999</ele><time>2026-03-25T11:52:39.9Z</time></trkpt><trkpt lat="30.78246752349235" lon="-5.562809330354041"><ele>865.0</ele><time>2026-03-25T11:52:41.9Z</time></trkpt><trkpt lat="30.78243289901269" lon="-5.56287258775453"><ele>865.0</ele><time>2026-03-25T11:52:42.9Z</time></trkpt><trkpt lat="30.782393356879847" lon="-5.562932220756043"><ele>865.0</ele><time>2026-03-25T11:52:43.9Z</time></trkpt><trkpt lat="30.78235686341162" lon="-5.562992218677529"><ele>864.9999999999999</ele><time>2026-03-25T11:52:44.9Z</time></trkpt><trkpt lat="30.78230609095281" lon="-5.5631090267262"><ele>865.0</ele><time>2026-03-25T11:52:46.9Z</time></trkpt><trkpt lat="30.782266387960878" lon="-5.563194562946447"><ele>864.9999999999999</ele><time>2026-03-25T11:52:48.9Z</time></trkpt><trkpt lat="30.782223929117453" lon="-5.563273014315709"><ele>865.0</ele><time>2026-03-25T11:52:50.9Z</time></trkpt><trkpt lat="30.782192144032262" lon="-5.5633460105746035"><ele>865.0</ele><time>2026-03-25T11:52:52.9Z</time></trkpt><trkpt lat="30.782148863225867" lon="-5.563453388427166"><ele>865.0</ele><time>2026-03-25T11:52:54.9Z</time></trkpt><trkpt lat="30.782107051516473" lon="-5.563546552398741"><ele>864.9999999999999</ele><time>2026-03-25T11:52:56.9Z</time></trkpt><trkpt lat="30.78207221659613" lon="-5.563607866164939"><ele>865.0</ele><time>2026-03-25T11:52:58.9Z</time></trkpt><trkpt lat="30.782029984531185" lon="-5.563679104976392"><ele>865.0</ele><time>2026-03-25T11:53:05.9Z</time></trkpt><trkpt lat="30.782070164856027" lon="-5.563606886821483"><ele>865.0</ele><time>2026-03-25T11:53:29.9Z</time></trkpt><trkpt lat="30.782109157280868" lon="-5.5635235417049325"><ele>865.0</ele><time>2026-03-25T11:54:10.9Z</time></trkpt><trkpt lat="30.782108686827982" lon="-5.563601731266207"><ele>865.0</ele><time>2026-03-25T11:54:29.9Z</time></trkpt><trkpt lat="30.782173424657703" lon="-5.563612728226489"><ele>865.0</ele><time>2026-03-25T11:56:45.894Z</time></trkpt></trkseg><trkseg><trkpt lat="30.791870062216624" lon="-5.576339613294045"><ele>881.0</ele><time>2026-03-25T13:41:21.342Z</time></trkpt><trkpt lat="30.79192326787705" lon="-5.5764107941441585"><ele>880.9999999999999</ele><time>2026-03-25T13:41:24.191Z</time></trkpt><trkpt lat="30.79197608858054" lon="-5.576535832342343"><ele>880.9999999999999</ele><time>2026-03-25T13:41:26.092Z</time></trkpt><trkpt lat="30.79202503789955" lon="-5.57667868210306"><ele>881.0</ele><time>2026-03-25T13:41:27.994Z</time></trkpt><trkpt lat="30.792064236678492" lon="-5.576792473519701"><ele>881.0</ele><time>2026-03-25T13:41:28.994Z</time></trkpt><trkpt lat="30.792139483969144" lon="-5.577003265081928"><ele>877.0</ele><time>2026-03-25T13:41:29.994Z</time></trkpt><trkpt lat="30.792245928558955" lon="-5.577296919425231"><ele>873.0</ele><time>2026-03-25T13:41:30.994Z</time></trkpt><trkpt lat="30.79233715257481" lon="-5.577580083695753"><ele>873.0</ele><time>2026-03-25T13:41:31.994Z</time></trkpt><trkpt lat="30.792367522314546" lon="-5.577773208136363"><ele>873.0</ele><time>2026-03-25T13:41:32.994Z</time></trkpt><trkpt lat="30.7923480874416" lon="-5.5778711312633575"><ele>873.0</ele><time>2026-03-25T13:41:33.994Z</time></trkpt><trkpt lat="30.792302853838" lon="-5.578003484323062"><ele>873.0</ele><time>2026-03-25T13:41:34.994Z</time></trkpt><trkpt lat="30.79228071132038" lon="-5.578175316575076"><ele>873.0</ele><time>2026-03-25T13:41:35.994Z</time></trkpt><trkpt lat="30.79224290134501" lon="-5.578357147599524"><ele>873.0</ele><time>2026-03-25T13:41:36.994Z</time></trkpt><trkpt lat="30.792203729514924" lon="-5.578511940538849"><ele>873.0</ele><time>2026-03-25T13:41:37.994Z</time></trkpt><trkpt lat="30.792174158204475" lon="-5.578657483163313"><ele>873.0</ele><time>2026-03-25T13:41:38.994Z</time></trkpt><trkpt lat="30.792163682584665" lon="-5.578738649290174"><ele>873.0</ele><time>2026-03-25T13:41:39.994Z</time></trkpt><trkpt lat="30.79215236530812" lon="-5.578868247996284"><ele>873.0</ele><time>2026-03-25T13:41:40.994Z</time></trkpt><trkpt lat="30.792143546340984" lon="-5.5790042222169"><ele>873.0</ele><time>2026-03-25T13:41:41.994Z</time></trkpt><trkpt lat="30.79211188939976" lon="-5.579130202862847"><ele>873.0</ele><time>2026-03-25T13:41:42.994Z</time></trkpt><trkpt lat="30.79211350254111" lon="-5.57925266949271"><ele>873.0</ele><time>2026-03-25T13:41:43.994Z</time></trkpt><trkpt lat="30.792054868808012" lon="-5.579410062577571"><ele>872.3333333333333</ele><time>2026-03-25T13:41:44.994Z</time></trkpt><trkpt lat="30.792026083685013" lon="-5.579587152073562"><ele>871.6666666666666</ele><time>2026-03-25T13:41:45.994Z</time></trkpt><trkpt lat="30.791997720307993" lon="-5.579783976870077"><ele>871.0</ele><time>2026-03-25T13:41:46.994Z</time></trkpt><trkpt lat="30.791955767999546" lon="-5.579936428758674"><ele>871.0</ele><time>2026-03-25T13:41:47.994Z</time></trkpt><trkpt lat="30.79189430193219" lon="-5.580043554960838"><ele>871.0</ele><time>2026-03-25T13:41:48.994Z</time></trkpt><trkpt lat="30.79181540569651" lon="-5.5801529849124"><ele>871.0</ele><time>2026-03-25T13:41:49.994Z</time></trkpt><trkpt lat="30.79171187337644" lon="-5.580286783396665"><ele>871.0</ele><time>2026-03-25T13:41:50.994Z</time></trkpt><trkpt lat="30.791638384284617" lon="-5.580421711601857"><ele>870.75</ele><time>2026-03-25T13:41:51.994Z</time></trkpt><trkpt lat="30.79157961771227" lon="-5.580543793918759"><ele>870.5</ele><time>2026-03-25T13:41:52.994Z</time></trkpt><trkpt lat="30.791505363135865" lon="-5.5806796334463655"><ele>870.25</ele><time>2026-03-25T13:41:53.994Z</time></trkpt><trkpt lat="30.791432401836648" lon="-5.580842713135899"><ele>870.0</ele><time>2026-03-25T13:41:54.994Z</time></trkpt><trkpt lat="30.79137991697939" lon="-5.581024239587982"><ele>869.6666666666667</ele><time>2026-03-25T13:41:55.994Z</time></trkpt><trkpt lat="30.791335283928714" lon="-5.58119139009488"><ele>869.3333333333334</ele><time>2026-03-25T13:41:56.994Z</time></trkpt><trkpt lat="30.791280034152418" lon="-5.581377776381542"><ele>869.0</ele><time>2026-03-25T13:41:57.994Z</time></trkpt><trkpt lat="30.791229052269586" lon="-5.5815724090601435"><ele>869.0</ele><time>2026-03-25T13:41:58.994Z</time></trkpt><trkpt lat="30.791179247390456" lon="-5.581730212004751"><ele>869.0</ele><time>2026-03-25T13:41:59.994Z</time></trkpt><trkpt lat="30.791092811727257" lon="-5.581903070201469"><ele>869.0</ele><time>2026-03-25T13:42:00.994Z</time></trkpt><trkpt lat="30.79102967393794" lon="-5.582051381769292"><ele>869.25</ele><time>2026-03-25T13:42:01.994Z</time></trkpt><trkpt lat="30.791006122683218" lon="-5.582186989212118"><ele>869.5</ele><time>2026-03-25T13:42:02.994Z</time></trkpt><trkpt lat="30.790970610946967" lon="-5.582356198463809"><ele>869.75</ele><time>2026-03-25T13:42:03.994Z</time></trkpt><trkpt lat="30.790942047539442" lon="-5.582523165628893"><ele>870.0</ele><time>2026-03-25T13:42:04.994Z</time></trkpt><trkpt lat="30.790931620199057" lon="-5.582628976963599"><ele>870.0</ele><time>2026-03-25T13:42:05.994Z</time></trkpt><trkpt lat="30.790920410857417" lon="-5.582722780928269"><ele>870.0</ele><time>2026-03-25T13:42:06.994Z</time></trkpt><trkpt lat="30.79093370231034" lon="-5.582825165277702"><ele>870.0</ele><time>2026-03-25T13:42:07.994Z</time></trkpt><trkpt lat="30.790951680981692" lon="-5.582932547922492"><ele>870.0</ele><time>2026-03-25T13:42:08.994Z</time></trkpt><trkpt lat="30.790971110542014" lon="-5.583057203552839"><ele>870.0</ele><time>2026-03-25T13:42:09.994Z</time></trkpt><trkpt lat="30.79099012463421" lon="-5.5831999300312924"><ele>870.0</ele><time>2026-03-25T13:42:10.994Z</time></trkpt><trkpt lat="30.79101052676139" lon="-5.583338966719373"><ele>870.0</ele><time>2026-03-25T13:42:11.994Z</time></trkpt><trkpt lat="30.791027978504353" lon="-5.583440650660849"><ele>870.0</ele><time>2026-03-25T13:42:12.994Z</time></trkpt><trkpt lat="30.791011523268942" lon="-5.583530869109319"><ele>870.0</ele><time>2026-03-25T13:42:13.994Z</time></trkpt><trkpt lat="30.790949022823984" lon="-5.583611388109027"><ele>870.0</ele><time>2026-03-25T13:42:14.994Z</time></trkpt><trkpt lat="30.790891156798793" lon="-5.583701210627483"><ele>869.4</ele><time>2026-03-25T13:42:15.994Z</time></trkpt><trkpt lat="30.79086799402158" lon="-5.583800891093844"><ele>868.8</ele><time>2026-03-25T13:42:16.994Z</time></trkpt><trkpt lat="30.79087497795263" lon="-5.583908816079494"><ele>868.2</ele><time>2026-03-25T13:42:17.994Z</time></trkpt><trkpt lat="30.790892951854016" lon="-5.584028878993926"><ele>867.6</ele><time>2026-03-25T13:42:18.994Z</time></trkpt><trkpt lat="30.790909784915808" lon="-5.584139959109955"><ele>867.0</ele><time>2026-03-25T13:42:19.994Z</time></trkpt><trkpt lat="30.790918240636522" lon="-5.584245579593276"><ele>867.0</ele><time>2026-03-25T13:42:20.994Z</time></trkpt><trkpt lat="30.790924938685997" lon="-5.584371067077207"><ele>867.0</ele><time>2026-03-25T13:42:21.994Z</time></trkpt><trkpt lat="30.790927837095545" lon="-5.584486759298846"><ele>867.0</ele><time>2026-03-25T13:42:22.994Z</time></trkpt><trkpt lat="30.790942934267687" lon="-5.5845807385908035"><ele>867.0</ele><time>2026-03-25T13:42:23.994Z</time></trkpt><trkpt lat="30.790966903063385" lon="-5.5846652879722924"><ele>867.0</ele><time>2026-03-25T13:42:24.994Z</time></trkpt><trkpt lat="30.790962743465357" lon="-5.584774591653835"><ele>867.3333333333334</ele><time>2026-03-25T13:42:25.994Z</time></trkpt><trkpt lat="30.790940478753814" lon="-5.584875583716509"><ele>867.6666666666667</ele><time>2026-03-25T13:42:26.994Z</time></trkpt><trkpt lat="30.79092168398111" lon="-5.5849754227065125"><ele>868.0</ele><time>2026-03-25T13:42:27.994Z</time></trkpt><trkpt lat="30.79089706669799" lon="-5.58507422168531"><ele>868.3333333333334</ele><time>2026-03-25T13:42:28.994Z</time></trkpt><trkpt lat="30.79085448277949" lon="-5.585149691171854"><ele>868.6666666666667</ele><time>2026-03-25T13:42:29.994Z</time></trkpt><trkpt lat="30.790829958467285" lon="-5.585237735549431"><ele>869.0</ele><time>2026-03-25T13:42:30.994Z</time></trkpt><trkpt lat="30.79080921138879" lon="-5.58533079981728"><ele>869.2</ele><time>2026-03-25T13:42:31.994Z</time></trkpt><trkpt lat="30.79078513080559" lon="-5.585421123441662"><ele>869.4000000000001</ele><time>2026-03-25T13:42:32.994Z</time></trkpt><trkpt lat="30.79077292204588" lon="-5.585526971757852"><ele>869.6</ele><time>2026-03-25T13:42:33.994Z</time></trkpt><trkpt lat="30.79076542787839" lon="-5.585646675199662"><ele>869.8</ele><time>2026-03-25T13:42:34.994Z</time></trkpt><trkpt lat="30.790753155386373" lon="-5.585767901401804"><ele>870.0</ele><time>2026-03-25T13:42:35.994Z</time></trkpt><trkpt lat="30.790746492312785" lon="-5.585874901691659"><ele>870.0</ele><time>2026-03-25T13:42:36.994Z</time></trkpt><trkpt lat="30.790760908887762" lon="-5.585969854538911"><ele>870.0</ele><time>2026-03-25T13:42:37.994Z</time></trkpt><trkpt lat="30.7907986149403" lon="-5.586069736346812"><ele>870.0</ele><time>2026-03-25T13:42:38.994Z</time></trkpt><trkpt lat="30.790843628868533" lon="-5.586181207959448"><ele>870.0</ele><time>2026-03-25T13:42:39.994Z</time></trkpt><trkpt lat="30.79086468534912" lon="-5.5863012907633625"><ele>870.0</ele><time>2026-03-25T13:42:40.994Z</time></trkpt><trkpt lat="30.79087154157859" lon="-5.586413597472521"><ele>869.3333333333334</ele><time>2026-03-25T13:42:41.994Z</time></trkpt><trkpt lat="30.790861957518086" lon="-5.586502870965629"><ele>868.6666666666667</ele><time>2026-03-25T13:42:42.994Z</time></trkpt><trkpt lat="30.790842997889445" lon="-5.586577846819257"><ele>868.0</ele><time>2026-03-25T13:42:43.994Z</time></trkpt><trkpt lat="30.790758425654207" lon="-5.586718980524941"><ele>867.3333333333334</ele><time>2026-03-25T13:42:45.994Z</time></trkpt><trkpt lat="30.790723458359253" lon="-5.5867901917887455"><ele>866.6666666666667</ele><time>2026-03-25T13:42:46.994Z</time></trkpt><trkpt lat="30.79072983797938" lon="-5.586865145604444"><ele>866.0</ele><time>2026-03-25T13:42:47.994Z</time></trkpt><trkpt lat="30.79077919948654" lon="-5.5869831222593"><ele>868.25</ele><time>2026-03-25T13:42:48.994Z</time></trkpt><trkpt lat="30.79084590213393" lon="-5.587111029374127"><ele>870.5</ele><time>2026-03-25T13:42:49.994Z</time></trkpt><trkpt lat="30.79089914651631" lon="-5.587244805442846"><ele>872.75</ele><time>2026-03-25T13:42:50.994Z</time></trkpt><trkpt lat="30.790927545015926" lon="-5.5873574071562535"><ele>875.0</ele><time>2026-03-25T13:42:51.994Z</time></trkpt><trkpt lat="30.79089683536919" lon="-5.587480081643371"><ele>875.0</ele><time>2026-03-25T13:42:52.994Z</time></trkpt><trkpt lat="30.790852986860774" lon="-5.5875874224306905"><ele>875.0</ele><time>2026-03-25T13:42:53.994Z</time></trkpt><trkpt lat="30.790836229301643" lon="-5.587747094342408"><ele>875.0</ele><time>2026-03-25T13:42:54.994Z</time></trkpt><trkpt lat="30.790849536624755" lon="-5.587921240606832"><ele>875.0</ele><time>2026-03-25T13:42:55.994Z</time></trkpt><trkpt lat="30.790863246138777" lon="-5.588060265494864"><ele>875.5000000000001</ele><time>2026-03-25T13:42:56.994Z</time></trkpt><trkpt lat="30.790866299249213" lon="-5.58815307411445"><ele>876.0</ele><time>2026-03-25T13:42:57.994Z</time></trkpt><trkpt lat="30.79087234379338" lon="-5.5882451037496494"><ele>876.5</ele><time>2026-03-25T13:42:58.994Z</time></trkpt><trkpt lat="30.79087964532018" lon="-5.58834378660972"><ele>877.0</ele><time>2026-03-25T13:42:59.994Z</time></trkpt><trkpt lat="30.79089411340724" lon="-5.58846072035419"><ele>877.5000000000001</ele><time>2026-03-25T13:43:00.994Z</time></trkpt><trkpt lat="30.790915043097907" lon="-5.588576554568007"><ele>878.0</ele><time>2026-03-25T13:43:01.994Z</time></trkpt><trkpt lat="30.790932501178922" lon="-5.588684425521801"><ele>878.2</ele><time>2026-03-25T13:43:02.994Z</time></trkpt><trkpt lat="30.790946615745845" lon="-5.58879397722576"><ele>878.4</ele><time>2026-03-25T13:43:03.994Z</time></trkpt><trkpt lat="30.79095938409447" lon="-5.5889133151217765"><ele>878.6000000000001</ele><time>2026-03-25T13:43:04.994Z</time></trkpt><trkpt lat="30.790974948756485" lon="-5.58903862791611"><ele>878.8000000000001</ele><time>2026-03-25T13:43:05.994Z</time></trkpt><trkpt lat="30.790990615868726" lon="-5.589169112231116"><ele>879.0</ele><time>2026-03-25T13:43:06.994Z</time></trkpt><trkpt lat="30.791015982501996" lon="-5.589318439863688"><ele>878.6666666666667</ele><time>2026-03-25T13:43:07.994Z</time></trkpt><trkpt lat="30.791058638878212" lon="-5.589496373554297"><ele>878.3333333333334</ele><time>2026-03-25T13:43:08.994Z</time></trkpt><trkpt lat="30.79109685404415" lon="-5.589697939429362"><ele>878.0</ele><time>2026-03-25T13:43:09.994Z</time></trkpt><trkpt lat="30.79112382921125" lon="-5.5899129618203744"><ele>878.0</ele><time>2026-03-25T13:43:10.994Z</time></trkpt><trkpt lat="30.79115202197914" lon="-5.59011338613005"><ele>878.0</ele><time>2026-03-25T13:43:11.994Z</time></trkpt><trkpt lat="30.79118792019875" lon="-5.590322594484412"><ele>878.0</ele><time>2026-03-25T13:43:12.994Z</time></trkpt><trkpt lat="30.791225168579636" lon="-5.590536042071177"><ele>881.3333333333334</ele><time>2026-03-25T13:43:13.994Z</time></trkpt><trkpt lat="30.791266121961083" lon="-5.590728647109666"><ele>884.6666666666667</ele><time>2026-03-25T13:43:14.994Z</time></trkpt><trkpt lat="30.791313874872632" lon="-5.590895151871027"><ele>888.0</ele><time>2026-03-25T13:43:15.994Z</time></trkpt><trkpt lat="30.79136519302473" lon="-5.5910504790197235"><ele>886.0</ele><time>2026-03-25T13:43:16.994Z</time></trkpt><trkpt lat="30.79141985983939" lon="-5.5911942266977865"><ele>884.0</ele><time>2026-03-25T13:43:17.994Z</time></trkpt><trkpt lat="30.791477065797434" lon="-5.591338201520723"><ele>882.0</ele><time>2026-03-25T13:43:18.994Z</time></trkpt><trkpt lat="30.79153665515787" lon="-5.591483904660943"><ele>880.0</ele><time>2026-03-25T13:43:19.994Z</time></trkpt><trkpt lat="30.791590032125093" lon="-5.591608660126004"><ele>880.0</ele><time>2026-03-25T13:43:20.994Z</time></trkpt><trkpt lat="30.791625223936467" lon="-5.5917487337503715"><ele>880.0</ele><time>2026-03-25T13:43:21.994Z</time></trkpt><trkpt lat="30.791649287392477" lon="-5.591894984731874"><ele>880.0</ele><time>2026-03-25T13:43:22.994Z</time></trkpt><trkpt lat="30.791656024838638" lon="-5.592029855506122"><ele>880.0</ele><time>2026-03-25T13:43:23.994Z</time></trkpt><trkpt lat="30.791660566449142" lon="-5.592155284057054"><ele>880.0</ele><time>2026-03-25T13:43:24.993Z</time></trkpt><trkpt lat="30.791666045298786" lon="-5.592282202652993"><ele>880.0</ele><time>2026-03-25T13:43:25.993Z</time></trkpt><trkpt lat="30.791678423160025" lon="-5.592405235264631"><ele>880.0</ele><time>2026-03-25T13:43:26.994Z</time></trkpt><trkpt lat="30.791691241265696" lon="-5.592531751595133"><ele>880.0</ele><time>2026-03-25T13:43:27.993Z</time></trkpt><trkpt lat="30.791708363141996" lon="-5.592670120789491"><ele>880.0</ele><time>2026-03-25T13:43:28.993Z</time></trkpt><trkpt lat="30.79172903741314" lon="-5.592790988233732"><ele>878.0</ele><time>2026-03-25T13:43:29.993Z</time></trkpt><trkpt lat="30.79175078663473" lon="-5.592922462700114"><ele>876.0</ele><time>2026-03-25T13:43:30.993Z</time></trkpt><trkpt lat="30.79177396798959" lon="-5.593059320892411"><ele>874.0</ele><time>2026-03-25T13:43:31.993Z</time></trkpt><trkpt lat="30.791801268352092" lon="-5.593194722625207"><ele>872.0</ele><time>2026-03-25T13:43:32.994Z</time></trkpt><trkpt lat="30.79183204806765" lon="-5.593333024558796"><ele>872.25</ele><time>2026-03-25T13:43:33.993Z</time></trkpt><trkpt lat="30.79186397400568" lon="-5.593476961724004"><ele>872.5</ele><time>2026-03-25T13:43:34.993Z</time></trkpt><trkpt lat="30.79189143634846" lon="-5.593622315396704"><ele>872.75</ele><time>2026-03-25T13:43:35.993Z</time></trkpt><trkpt lat="30.79191984494525" lon="-5.593753013766131"><ele>873.0</ele><time>2026-03-25T13:43:36.993Z</time></trkpt><trkpt lat="30.791951286972814" lon="-5.593885804354427"><ele>873.0</ele><time>2026-03-25T13:43:37.993Z</time></trkpt><trkpt lat="30.791982771692812" lon="-5.594013685786958"><ele>873.0</ele><time>2026-03-25T13:43:38.993Z</time></trkpt><trkpt lat="30.792014196096225" lon="-5.594145926851909"><ele>873.0</ele><time>2026-03-25T13:43:39.993Z</time></trkpt><trkpt lat="30.79204876020653" lon="-5.594273611397692"><ele>873.0</ele><time>2026-03-25T13:43:40.993Z</time></trkpt><trkpt lat="30.792069967216527" lon="-5.594405291102041"><ele>872.5999999999999</ele><time>2026-03-25T13:43:41.993Z</time></trkpt><trkpt lat="30.792095300144908" lon="-5.594527618054292"><ele>872.1999999999999</ele><time>2026-03-25T13:43:42.993Z</time></trkpt><trkpt lat="30.792117118824038" lon="-5.594643193097602"><ele>871.8</ele><time>2026-03-25T13:43:43.993Z</time></trkpt><trkpt lat="30.792146128762866" lon="-5.594760059735278"><ele>871.4</ele><time>2026-03-25T13:43:44.993Z</time></trkpt><trkpt lat="30.792176994901126" lon="-5.594878784885738"><ele>871.0</ele><time>2026-03-25T13:43:45.993Z</time></trkpt><trkpt lat="30.792214881775937" lon="-5.59500472426137"><ele>871.0</ele><time>2026-03-25T13:43:46.993Z</time></trkpt><trkpt lat="30.792240793435955" lon="-5.595129046275434"><ele>871.0</ele><time>2026-03-25T13:43:47.993Z</time></trkpt><trkpt lat="30.79226679953049" lon="-5.595257352988884"><ele>871.0</ele><time>2026-03-25T13:43:48.993Z</time></trkpt><trkpt lat="30.792288940145408" lon="-5.595400014899566"><ele>871.0</ele><time>2026-03-25T13:43:49.993Z</time></trkpt><trkpt lat="30.792312763024725" lon="-5.595551054496484"><ele>871.8</ele><time>2026-03-25T13:43:50.993Z</time></trkpt><trkpt lat="30.792332705486178" lon="-5.5956811570576495"><ele>872.5999999999999</ele><time>2026-03-25T13:43:51.993Z</time></trkpt><trkpt lat="30.792348916857858" lon="-5.595805526149389"><ele>873.4</ele><time>2026-03-25T13:43:52.993Z</time></trkpt><trkpt lat="30.792365733072977" lon="-5.595932300503996"><ele>874.2</ele><time>2026-03-25T13:43:53.993Z</time></trkpt><trkpt lat="30.792379750832" lon="-5.596047419750202"><ele>875.0</ele><time>2026-03-25T13:43:54.993Z</time></trkpt><trkpt lat="30.792395989923204" lon="-5.596176949580685"><ele>875.0</ele><time>2026-03-25T13:43:55.993Z</time></trkpt><trkpt lat="30.792414744652692" lon="-5.596319199235011"><ele>875.0</ele><time>2026-03-25T13:43:56.993Z</time></trkpt><trkpt lat="30.792437380564834" lon="-5.596466854400402"><ele>875.0</ele><time>2026-03-25T13:43:57.993Z</time></trkpt><trkpt lat="30.792441956384565" lon="-5.5965785512015245"><ele>875.0</ele><time>2026-03-25T13:43:58.993Z</time></trkpt><trkpt lat="30.79244556501705" lon="-5.596656549833412"><ele>875.0</ele><time>2026-03-25T13:43:59.993Z</time></trkpt><trkpt lat="30.792453594784316" lon="-5.596735448473651"><ele>875.0</ele><time>2026-03-25T13:44:00.993Z</time></trkpt><trkpt lat="30.79254427862238" lon="-5.596816627159019"><ele>875.0</ele><time>2026-03-25T13:44:02.993Z</time></trkpt><trkpt lat="30.792625607749805" lon="-5.596798693821663"><ele>875.0</ele><time>2026-03-25T13:44:03.993Z</time></trkpt><trkpt lat="30.7927351791509" lon="-5.596739331492609"><ele>875.0</ele><time>2026-03-25T13:44:04.993Z</time></trkpt><trkpt lat="30.79287776556356" lon="-5.59666877288714"><ele>874.25</ele><time>2026-03-25T13:44:05.993Z</time></trkpt><trkpt lat="30.793048189091397" lon="-5.596596187214969"><ele>873.5</ele><time>2026-03-25T13:44:06.993Z</time></trkpt><trkpt lat="30.793184743100394" lon="-5.596533867393486"><ele>872.75</ele><time>2026-03-25T13:44:07.993Z</time></trkpt><trkpt lat="30.793286192526452" lon="-5.596478468674565"><ele>872.0</ele><time>2026-03-25T13:44:08.993Z</time></trkpt><trkpt lat="30.79339346379505" lon="-5.596421514794342"><ele>871.75</ele><time>2026-03-25T13:44:09.993Z</time></trkpt><trkpt lat="30.793507895364893" lon="-5.596358658680206"><ele>871.5</ele><time>2026-03-25T13:44:10.993Z</time></trkpt><trkpt lat="30.79362337715426" lon="-5.59629969764788"><ele>871.25</ele><time>2026-03-25T13:44:11.993Z</time></trkpt><trkpt lat="30.793750493197578" lon="-5.596250983907434"><ele>871.0</ele><time>2026-03-25T13:44:12.993Z</time></trkpt><trkpt lat="30.79388016518337" lon="-5.596199535181622"><ele>871.75</ele><time>2026-03-25T13:44:13.993Z</time></trkpt><trkpt lat="30.794016200604844" lon="-5.596142128055487"><ele>872.5</ele><time>2026-03-25T13:44:14.993Z</time></trkpt><trkpt lat="30.79414896636754" lon="-5.596092954993745"><ele>873.25</ele><time>2026-03-25T13:44:15.993Z</time></trkpt><trkpt lat="30.794281319031263" lon="-5.596051621596098"><ele>874.0</ele><time>2026-03-25T13:44:16.993Z</time></trkpt><trkpt lat="30.794412462078594" lon="-5.596007287795681"><ele>875.0</ele><time>2026-03-25T13:44:17.993Z</time></trkpt><trkpt lat="30.794548895440986" lon="-5.595963691469902"><ele>876.0</ele><time>2026-03-25T13:44:18.993Z</time></trkpt><trkpt lat="30.794681955497367" lon="-5.59592532312286"><ele>877.0</ele><time>2026-03-25T13:44:19.993Z</time></trkpt><trkpt lat="30.7948228301417" lon="-5.595880031946557"><ele>878.0</ele><time>2026-03-25T13:44:20.993Z</time></trkpt><trkpt lat="30.79496038531623" lon="-5.595832386477318"><ele>878.0</ele><time>2026-03-25T13:44:21.993Z</time></trkpt><trkpt lat="30.79510571863116" lon="-5.595782798583054"><ele>878.0</ele><time>2026-03-25T13:44:22.993Z</time></trkpt><trkpt lat="30.795256367994043" lon="-5.595743280282566"><ele>878.0</ele><time>2026-03-25T13:44:23.993Z</time></trkpt><trkpt lat="30.795402980368596" lon="-5.595699336312718"><ele>877.3333333333334</ele><time>2026-03-25T13:44:24.993Z</time></trkpt><trkpt lat="30.795549111120394" lon="-5.595654981625852"><ele>876.6666666666667</ele><time>2026-03-25T13:44:25.993Z</time></trkpt><trkpt lat="30.795696985236248" lon="-5.595619912235836"><ele>876.0</ele><time>2026-03-25T13:44:26.993Z</time></trkpt><trkpt lat="30.795844817447783" lon="-5.59558888317736"><ele>876.0</ele><time>2026-03-25T13:44:27.993Z</time></trkpt><trkpt lat="30.795993780570726" lon="-5.595550447725015"><ele>876.0</ele><time>2026-03-25T13:44:28.993Z</time></trkpt><trkpt lat="30.796120900370177" lon="-5.595520556675472"><ele>876.0</ele><time>2026-03-25T13:44:29.993Z</time></trkpt><trkpt lat="30.796247796242355" lon="-5.595486437094348"><ele>876.0</ele><time>2026-03-25T13:44:30.993Z</time></trkpt><trkpt lat="30.79636377253071" lon="-5.595446849119196"><ele>876.75</ele><time>2026-03-25T13:44:31.993Z</time></trkpt><trkpt lat="30.796476295706622" lon="-5.595399352632817"><ele>877.5</ele><time>2026-03-25T13:44:32.993Z</time></trkpt><trkpt lat="30.796578234767235" lon="-5.595332188145284"><ele>878.25</ele><time>2026-03-25T13:44:33.993Z</time></trkpt><trkpt lat="30.796684560823547" lon="-5.595280204046012"><ele>879.0</ele><time>2026-03-25T13:44:34.993Z</time></trkpt><trkpt lat="30.796792954692773" lon="-5.5952107771109105"><ele>878.5</ele><time>2026-03-25T13:44:35.993Z</time></trkpt><trkpt lat="30.79690503008923" lon="-5.595139572212622"><ele>878.0</ele><time>2026-03-25T13:44:36.993Z</time></trkpt><trkpt lat="30.797016317652766" lon="-5.595062204242985"><ele>877.5</ele><time>2026-03-25T13:44:37.993Z</time></trkpt><trkpt lat="30.797120405377882" lon="-5.594979961592713"><ele>877.0</ele><time>2026-03-25T13:44:38.993Z</time></trkpt><trkpt lat="30.797234916685102" lon="-5.594903876815567"><ele>877.0</ele><time>2026-03-25T13:44:39.993Z</time></trkpt><trkpt lat="30.797341739319002" lon="-5.5948313487468555"><ele>877.0</ele><time>2026-03-25T13:44:40.993Z</time></trkpt><trkpt lat="30.7974486416183" lon="-5.594765849924096"><ele>877.0</ele><time>2026-03-25T13:44:41.993Z</time></trkpt><trkpt lat="30.797560210239684" lon="-5.594697474628449"><ele>877.0</ele><time>2026-03-25T13:44:42.993Z</time></trkpt><trkpt lat="30.797675795475936" lon="-5.594628249883946"><ele>877.75</ele><time>2026-03-25T13:44:43.993Z</time></trkpt><trkpt lat="30.797779708190845" lon="-5.594547441128105"><ele>878.5</ele><time>2026-03-25T13:44:44.993Z</time></trkpt><trkpt lat="30.797882397309955" lon="-5.594477190702282"><ele>879.25</ele><time>2026-03-25T13:44:45.993Z</time></trkpt><trkpt lat="30.797996604216298" lon="-5.594416545285845"><ele>880.0</ele><time>2026-03-25T13:44:46.993Z</time></trkpt><trkpt lat="30.798124760865793" lon="-5.594385862194377"><ele>880.25</ele><time>2026-03-25T13:44:47.993Z</time></trkpt><trkpt lat="30.798258542430077" lon="-5.59435023211592"><ele>880.5</ele><time>2026-03-25T13:44:48.993Z</time></trkpt><trkpt lat="30.798390481180974" lon="-5.594309865438559"><ele>880.75</ele><time>2026-03-25T13:44:49.993Z</time></trkpt><trkpt lat="30.798504778834594" lon="-5.594278123274139"><ele>881.0</ele><time>2026-03-25T13:44:50.993Z</time></trkpt><trkpt lat="30.798607727476384" lon="-5.594243002213957"><ele>880.5</ele><time>2026-03-25T13:44:51.993Z</time></trkpt><trkpt lat="30.798705005591998" lon="-5.594203947858306"><ele>880.0</ele><time>2026-03-25T13:44:52.993Z</time></trkpt><trkpt lat="30.798814784903" lon="-5.594156671272288"><ele>879.5</ele><time>2026-03-25T13:44:53.993Z</time></trkpt><trkpt lat="30.79892397403234" lon="-5.594079210943567"><ele>879.0</ele><time>2026-03-25T13:44:54.993Z</time></trkpt><trkpt lat="30.79904610943326" lon="-5.5940023236584535"><ele>879.0</ele><time>2026-03-25T13:44:55.993Z</time></trkpt><trkpt lat="30.799163230420728" lon="-5.593927995207237"><ele>879.0</ele><time>2026-03-25T13:44:56.993Z</time></trkpt><trkpt lat="30.799266957469445" lon="-5.593861827190767"><ele>879.0</ele><time>2026-03-25T13:44:57.993Z</time></trkpt><trkpt lat="30.799359147468405" lon="-5.59379716948628"><ele>879.0</ele><time>2026-03-25T13:44:58.993Z</time></trkpt><trkpt lat="30.79946883670967" lon="-5.59373752614098"><ele>879.0</ele><time>2026-03-25T13:44:59.993Z</time></trkpt><trkpt lat="30.799593543493824" lon="-5.593678477965442"><ele>879.0</ele><time>2026-03-25T13:45:00.993Z</time></trkpt><trkpt lat="30.79972424429875" lon="-5.593620158646808"><ele>879.0</ele><time>2026-03-25T13:45:01.993Z</time></trkpt><trkpt lat="30.799826671287704" lon="-5.593576600165935"><ele>879.0</ele><time>2026-03-25T13:45:02.993Z</time></trkpt><trkpt lat="30.799918675284598" lon="-5.593553229999987"><ele>879.0</ele><time>2026-03-25T13:45:03.993Z</time></trkpt><trkpt lat="30.799990319690536" lon="-5.593548502902697"><ele>879.0</ele><time>2026-03-25T13:45:04.993Z</time></trkpt><trkpt lat="30.80011271088924" lon="-5.593527015113375"><ele>879.0</ele><time>2026-03-25T13:45:06.993Z</time></trkpt><trkpt lat="30.80018748362482" lon="-5.593514206245236"><ele>879.0</ele><time>2026-03-25T13:45:07.993Z</time></trkpt><trkpt lat="30.80025614424181" lon="-5.593501086428936"><ele>879.0</ele><time>2026-03-25T13:45:08.993Z</time></trkpt><trkpt lat="30.80034181064877" lon="-5.593464989206226"><ele>879.0</ele><time>2026-03-25T13:45:10.993Z</time></trkpt><trkpt lat="30.800414173638384" lon="-5.593425229751319"><ele>878.8333333333334</ele><time>2026-03-25T13:45:12.993Z</time></trkpt><trkpt lat="30.800453739008532" lon="-5.593308973219564"><ele>878.6666666666667</ele><time>2026-03-25T13:45:14.993Z</time></trkpt><trkpt lat="30.800446020713924" lon="-5.593233201084825"><ele>878.5</ele><time>2026-03-25T13:45:15.993Z</time></trkpt><trkpt lat="30.800429052324013" lon="-5.593147307413034"><ele>878.3333333333334</ele><time>2026-03-25T13:45:16.993Z</time></trkpt><trkpt lat="30.80040716670718" lon="-5.593041600192609"><ele>878.1666666666667</ele><time>2026-03-25T13:45:17.993Z</time></trkpt><trkpt lat="30.80038620715051" lon="-5.592968243027836"><ele>878.0</ele><time>2026-03-25T13:45:18.993Z</time></trkpt><trkpt lat="30.800368610694626" lon="-5.592895077329555"><ele>878.0</ele><time>2026-03-25T13:45:19.993Z</time></trkpt><trkpt lat="30.800357467136806" lon="-5.592763567148496"><ele>878.0</ele><time>2026-03-25T13:45:21.993Z</time></trkpt><trkpt lat="30.80041282784609" lon="-5.592707604145507"><ele>878.0</ele><time>2026-03-25T13:45:23.993Z</time></trkpt><trkpt lat="30.80052632195535" lon="-5.592719728480568"><ele>878.0</ele><time>2026-03-25T13:45:25.993Z</time></trkpt><trkpt lat="30.80058794210796" lon="-5.592767523745095"><ele>878.0</ele><time>2026-03-25T13:45:26.993Z</time></trkpt><trkpt lat="30.800661483748033" lon="-5.592797186372228"><ele>878.0</ele><time>2026-03-25T13:45:27.993Z</time></trkpt><trkpt lat="30.800759286986853" lon="-5.5927961854970265"><ele>878.0</ele><time>2026-03-25T13:45:28.994Z</time></trkpt><trkpt lat="30.800868109406522" lon="-5.592778499358353"><ele>878.0</ele><time>2026-03-25T13:45:29.994Z</time></trkpt><trkpt lat="30.8009812157355" lon="-5.592764347824906"><ele>878.0</ele><time>2026-03-25T13:45:30.994Z</time></trkpt><trkpt lat="30.801081857155467" lon="-5.592757118516459"><ele>878.0</ele><time>2026-03-25T13:45:31.994Z</time></trkpt><trkpt lat="30.801183637200875" lon="-5.592768813688907"><ele>878.2</ele><time>2026-03-25T13:45:32.994Z</time></trkpt><trkpt lat="30.801285235819044" lon="-5.592756752531241"><ele>878.4</ele><time>2026-03-25T13:45:33.994Z</time></trkpt><trkpt lat="30.801378484473357" lon="-5.592709088748837"><ele>878.6000000000001</ele><time>2026-03-25T13:45:34.994Z</time></trkpt><trkpt lat="30.801480695176558" lon="-5.592657219571927"><ele>878.8000000000001</ele><time>2026-03-25T13:45:35.994Z</time></trkpt><trkpt lat="30.801584002749088" lon="-5.592610438273871"><ele>879.0</ele><time>2026-03-25T13:45:36.993Z</time></trkpt><trkpt lat="30.801668182146102" lon="-5.592572141878494"><ele>879.0</ele><time>2026-03-25T13:45:37.993Z</time></trkpt><trkpt lat="30.80175495070636" lon="-5.59254712339444"><ele>879.0000000000001</ele><time>2026-03-25T13:45:38.993Z</time></trkpt><trkpt lat="30.801844641721868" lon="-5.5925276346606685"><ele>879.0000000000001</ele><time>2026-03-25T13:45:39.993Z</time></trkpt><trkpt lat="30.801939270607612" lon="-5.592509456451639"><ele>879.0</ele><time>2026-03-25T13:45:40.993Z</time></trkpt><trkpt lat="30.802032970212537" lon="-5.59250997747479"><ele>879.0</ele><time>2026-03-25T13:45:41.993Z</time></trkpt><trkpt lat="30.802126320185575" lon="-5.592507976990487"><ele>878.8000000000001</ele><time>2026-03-25T13:45:42.994Z</time></trkpt><trkpt lat="30.802233090453722" lon="-5.592500622579417"><ele>878.6000000000001</ele><time>2026-03-25T13:45:43.994Z</time></trkpt><trkpt lat="30.80233725179358" lon="-5.592500676075424"><ele>878.4</ele><time>2026-03-25T13:45:44.994Z</time></trkpt><trkpt lat="30.802441384588406" lon="-5.592507782049771"><ele>878.2</ele><time>2026-03-25T13:45:45.994Z</time></trkpt><trkpt lat="30.802551391931793" lon="-5.592507919957344"><ele>878.0</ele><time>2026-03-25T13:45:46.994Z</time></trkpt><trkpt lat="30.802672087999756" lon="-5.592514516589812"><ele>879.0</ele><time>2026-03-25T13:45:47.994Z</time></trkpt><trkpt lat="30.802794530341554" lon="-5.592513175035213"><ele>880.0</ele><time>2026-03-25T13:45:48.994Z</time></trkpt><trkpt lat="30.80291048214967" lon="-5.592520859778164"><ele>881.0</ele><time>2026-03-25T13:45:49.994Z</time></trkpt><trkpt lat="30.803040057056876" lon="-5.592534559548884"><ele>882.0</ele><time>2026-03-25T13:45:50.994Z</time></trkpt><trkpt lat="30.803177923591697" lon="-5.592553838920898"><ele>882.0</ele><time>2026-03-25T13:45:51.994Z</time></trkpt><trkpt lat="30.80331283097523" lon="-5.592567841466833"><ele>882.0</ele><time>2026-03-25T13:45:52.994Z</time></trkpt><trkpt lat="30.803441562895703" lon="-5.592578090330672"><ele>882.0</ele><time>2026-03-25T13:45:53.994Z</time></trkpt><trkpt lat="30.803578865996187" lon="-5.5925696821023"><ele>882.0</ele><time>2026-03-25T13:45:54.994Z</time></trkpt><trkpt lat="30.803720927143324" lon="-5.592545930165826"><ele>882.0</ele><time>2026-03-25T13:45:55.994Z</time></trkpt><trkpt lat="30.80386791880747" lon="-5.592501296706522"><ele>882.0</ele><time>2026-03-25T13:45:56.994Z</time></trkpt><trkpt lat="30.80399537276046" lon="-5.592438516176612"><ele>882.0</ele><time>2026-03-25T13:45:57.994Z</time></trkpt><trkpt lat="30.80412610785218" lon="-5.592389834178463"><ele>882.0</ele><time>2026-03-25T13:45:58.994Z</time></trkpt><trkpt lat="30.8042503726135" lon="-5.592354934144534"><ele>881.6</ele><time>2026-03-25T13:45:59.994Z</time></trkpt><trkpt lat="30.80436928902823" lon="-5.592317774147786"><ele>881.2</ele><time>2026-03-25T13:46:00.994Z</time></trkpt><trkpt lat="30.804487547523696" lon="-5.592281908147943"><ele>880.8</ele><time>2026-03-25T13:46:01.994Z</time></trkpt><trkpt lat="30.804591037771687" lon="-5.592253125944391"><ele>880.4</ele><time>2026-03-25T13:46:02.994Z</time></trkpt><trkpt lat="30.80468192071983" lon="-5.592229249213502"><ele>880.0</ele><time>2026-03-25T13:46:03.994Z</time></trkpt><trkpt lat="30.804767727099257" lon="-5.592207153797017"><ele>879.9999999999999</ele><time>2026-03-25T13:46:04.994Z</time></trkpt><trkpt lat="30.804840450712888" lon="-5.592195808046889"><ele>880.0</ele><time>2026-03-25T13:46:05.994Z</time></trkpt><trkpt lat="30.804906772180914" lon="-5.592186174288125"><ele>880.0</ele><time>2026-03-25T13:46:06.994Z</time></trkpt><trkpt lat="30.805017511953967" lon="-5.592214590015829"><ele>880.0</ele><time>2026-03-25T13:46:08.994Z</time></trkpt><trkpt lat="30.805085999789792" lon="-5.592249399434121"><ele>879.9999999999999</ele><time>2026-03-25T13:46:09.994Z</time></trkpt><trkpt lat="30.805156414899546" lon="-5.592299021591307"><ele>880.0</ele><time>2026-03-25T13:46:10.994Z</time></trkpt><trkpt lat="30.805232360760357" lon="-5.592370087374947"><ele>879.6666666666666</ele><time>2026-03-25T13:46:11.994Z</time></trkpt><trkpt lat="30.805286428378896" lon="-5.5924369112872165"><ele>879.3333333333333</ele><time>2026-03-25T13:46:12.994Z</time></trkpt><trkpt lat="30.805334449880647" lon="-5.592508469551929"><ele>879.0</ele><time>2026-03-25T13:46:13.994Z</time></trkpt><trkpt lat="30.80538640700696" lon="-5.592596365454435"><ele>878.6666666666667</ele><time>2026-03-25T13:46:14.994Z</time></trkpt><trkpt lat="30.80543639634696" lon="-5.592693210374477"><ele>878.3333333333334</ele><time>2026-03-25T13:46:15.994Z</time></trkpt><trkpt lat="30.805468345453438" lon="-5.592767622393566"><ele>878.0</ele><time>2026-03-25T13:46:16.994Z</time></trkpt><trkpt lat="30.80547245863576" lon="-5.592858144096881"><ele>878.0000000000001</ele><time>2026-03-25T13:46:17.994Z</time></trkpt><trkpt lat="30.80544425928304" lon="-5.592953471883425"><ele>878.0</ele><time>2026-03-25T13:46:18.994Z</time></trkpt><trkpt lat="30.805405451126433" lon="-5.59303506256789"><ele>878.0</ele><time>2026-03-25T13:46:19.994Z</time></trkpt><trkpt lat="30.805360074301188" lon="-5.593101860129963"><ele>878.0</ele><time>2026-03-25T13:46:20.994Z</time></trkpt><trkpt lat="30.805318088962427" lon="-5.593164437614465"><ele>878.0000000000001</ele><time>2026-03-25T13:46:21.994Z</time></trkpt><trkpt lat="30.80525822359259" lon="-5.5932512857656835"><ele>878.0</ele><time>2026-03-25T13:46:22.994Z</time></trkpt><trkpt lat="30.805207066972645" lon="-5.59335404923368"><ele>878.0000000000001</ele><time>2026-03-25T13:46:23.994Z</time></trkpt><trkpt lat="30.805179054177607" lon="-5.593424529937415"><ele>878.0</ele><time>2026-03-25T13:46:24.994Z</time></trkpt><trkpt lat="30.805156009111233" lon="-5.593495722580517"><ele>878.0</ele><time>2026-03-25T13:46:25.994Z</time></trkpt><trkpt lat="30.805128454034932" lon="-5.593576215528962"><ele>878.0</ele><time>2026-03-25T13:46:26.994Z</time></trkpt><trkpt lat="30.805095296278253" lon="-5.593664469938675"><ele>878.0000000000001</ele><time>2026-03-25T13:46:27.994Z</time></trkpt><trkpt lat="30.80507595941929" lon="-5.593736869979392"><ele>878.0</ele><time>2026-03-25T13:46:28.994Z</time></trkpt><trkpt lat="30.80505189186238" lon="-5.5938472964692085"><ele>879.0</ele><time>2026-03-25T13:46:30.994Z</time></trkpt><trkpt lat="30.80503682853478" lon="-5.59396325653844"><ele>880.0</ele><time>2026-03-25T13:46:32.994Z</time></trkpt><trkpt lat="30.80501010679774" lon="-5.594044592324587"><ele>881.0</ele><time>2026-03-25T13:46:33.994Z</time></trkpt><trkpt lat="30.804987770612012" lon="-5.594140131250717"><ele>882.0</ele><time>2026-03-25T13:46:34.994Z</time></trkpt><trkpt lat="30.80495954734903" lon="-5.594240851332133"><ele>883.0</ele><time>2026-03-25T13:46:35.994Z</time></trkpt><trkpt lat="30.804930907741415" lon="-5.594359907237197"><ele>883.0</ele><time>2026-03-25T13:46:36.994Z</time></trkpt><trkpt lat="30.80488578307159" lon="-5.594476195790572"><ele>883.0</ele><time>2026-03-25T13:46:37.994Z</time></trkpt><trkpt lat="30.804865284497282" lon="-5.594597119541161"><ele>883.0</ele><time>2026-03-25T13:46:38.994Z</time></trkpt><trkpt lat="30.80485409192242" lon="-5.594747515392595"><ele>883.0</ele><time>2026-03-25T13:46:39.994Z</time></trkpt><trkpt lat="30.80483853206465" lon="-5.5949258970110645"><ele>883.25</ele><time>2026-03-25T13:46:40.994Z</time></trkpt><trkpt lat="30.804798897196203" lon="-5.595131270753581"><ele>883.5</ele><time>2026-03-25T13:46:41.994Z</time></trkpt><trkpt lat="30.804776287498502" lon="-5.595299750508821"><ele>883.75</ele><time>2026-03-25T13:46:42.994Z</time></trkpt><trkpt lat="30.8047678171902" lon="-5.595438757973738"><ele>884.0</ele><time>2026-03-25T13:46:43.994Z</time></trkpt><trkpt lat="30.804758228682786" lon="-5.595564744832135"><ele>884.0</ele><time>2026-03-25T13:46:44.994Z</time></trkpt><trkpt lat="30.804745774180166" lon="-5.595692255641551"><ele>884.0</ele><time>2026-03-25T13:46:45.994Z</time></trkpt><trkpt lat="30.804731926020363" lon="-5.595826194729464"><ele>884.0</ele><time>2026-03-25T13:46:46.994Z</time></trkpt><trkpt lat="30.80471819864498" lon="-5.595965535000976"><ele>884.0</ele><time>2026-03-25T13:46:47.994Z</time></trkpt><trkpt lat="30.80470517152851" lon="-5.596114169606995"><ele>883.75</ele><time>2026-03-25T13:46:48.994Z</time></trkpt><trkpt lat="30.80468872181135" lon="-5.596266247805773"><ele>883.5</ele><time>2026-03-25T13:46:49.994Z</time></trkpt><trkpt lat="30.804673687332915" lon="-5.5964259240368"><ele>883.25</ele><time>2026-03-25T13:46:50.994Z</time></trkpt><trkpt lat="30.804660217117007" lon="-5.596581405246406"><ele>883.0</ele><time>2026-03-25T13:46:51.994Z</time></trkpt><trkpt lat="30.804642496695934" lon="-5.59672920489412"><ele>883.0</ele><time>2026-03-25T13:46:52.994Z</time></trkpt><trkpt lat="30.804626888884936" lon="-5.5968889045387495"><ele>883.0</ele><time>2026-03-25T13:46:53.994Z</time></trkpt><trkpt lat="30.804606254995143" lon="-5.597061876137593"><ele>883.0</ele><time>2026-03-25T13:46:54.994Z</time></trkpt><trkpt lat="30.8045875420674" lon="-5.597240837218847"><ele>883.0</ele><time>2026-03-25T13:46:55.994Z</time></trkpt><trkpt lat="30.804573243287983" lon="-5.59740705268482"><ele>882.5</ele><time>2026-03-25T13:46:56.994Z</time></trkpt><trkpt lat="30.80456093582304" lon="-5.597553097071054"><ele>882.0</ele><time>2026-03-25T13:46:57.994Z</time></trkpt><trkpt lat="30.804550360722267" lon="-5.597688546491591"><ele>881.5</ele><time>2026-03-25T13:46:58.994Z</time></trkpt><trkpt lat="30.804533200722705" lon="-5.597818128719158"><ele>881.0</ele><time>2026-03-25T13:46:59.994Z</time></trkpt><trkpt lat="30.804517587655884" lon="-5.597951000876351"><ele>882.1999999999999</ele><time>2026-03-25T13:47:00.994Z</time></trkpt><trkpt lat="30.80450433852093" lon="-5.598082803361146"><ele>883.3999999999999</ele><time>2026-03-25T13:47:01.994Z</time></trkpt><trkpt lat="30.80449472504317" lon="-5.598209642350587"><ele>884.6</ele><time>2026-03-25T13:47:02.994Z</time></trkpt><trkpt lat="30.80448511756701" lon="-5.598327831110376"><ele>885.8</ele><time>2026-03-25T13:47:03.994Z</time></trkpt><trkpt lat="30.804470326615284" lon="-5.598446031208477"><ele>887.0</ele><time>2026-03-25T13:47:04.994Z</time></trkpt><trkpt lat="30.804452394617698" lon="-5.598563649815127"><ele>886.6</ele><time>2026-03-25T13:47:05.994Z</time></trkpt><trkpt lat="30.80443241779691" lon="-5.598679732674886"><ele>886.2</ele><time>2026-03-25T13:47:06.994Z</time></trkpt><trkpt lat="30.804407152848185" lon="-5.598806697328718"><ele>885.8</ele><time>2026-03-25T13:47:07.994Z</time></trkpt><trkpt lat="30.80437717089298" lon="-5.598931270934747"><ele>885.4</ele><time>2026-03-25T13:47:08.994Z</time></trkpt><trkpt lat="30.804351827085735" lon="-5.599037076910651"><ele>885.0</ele><time>2026-03-25T13:47:09.994Z</time></trkpt><trkpt lat="30.80432101919417" lon="-5.599131586912533"><ele>885.0</ele><time>2026-03-25T13:47:10.994Z</time></trkpt><trkpt lat="30.804297329207127" lon="-5.599230691242992"><ele>885.0</ele><time>2026-03-25T13:47:11.994Z</time></trkpt><trkpt lat="30.804354372993227" lon="-5.599336640485404"><ele>885.0</ele><time>2026-03-25T13:47:13.994Z</time></trkpt><trkpt lat="30.804430235876637" lon="-5.5993528850596705"><ele>885.0</ele><time>2026-03-25T13:47:14.994Z</time></trkpt><trkpt lat="30.8045354692987" lon="-5.599326934896129"><ele>885.0</ele><time>2026-03-25T13:47:15.994Z</time></trkpt><trkpt lat="30.804643880690698" lon="-5.59927283014562"><ele>885.0</ele><time>2026-03-25T13:47:16.994Z</time></trkpt><trkpt lat="30.80472828465538" lon="-5.59919457807"><ele>885.0</ele><time>2026-03-25T13:47:17.994Z</time></trkpt><trkpt lat="30.80476565951565" lon="-5.599095457865516"><ele>885.0</ele><time>2026-03-25T13:47:18.994Z</time></trkpt><trkpt lat="30.804790623492526" lon="-5.598968966690503"><ele>885.0</ele><time>2026-03-25T13:47:19.994Z</time></trkpt><trkpt lat="30.804821343862574" lon="-5.598834695525381"><ele>885.0</ele><time>2026-03-25T13:47:20.994Z</time></trkpt><trkpt lat="30.804870319804333" lon="-5.598714242384266"><ele>885.4</ele><time>2026-03-25T13:47:21.994Z</time></trkpt><trkpt lat="30.8049304514539" lon="-5.598631125585385"><ele>885.8</ele><time>2026-03-25T13:47:22.994Z</time></trkpt><trkpt lat="30.805006360043674" lon="-5.598581401203245"><ele>886.2</ele><time>2026-03-25T13:47:23.994Z</time></trkpt><trkpt lat="30.8051097572155" lon="-5.598556882222257"><ele>886.6</ele><time>2026-03-25T13:47:24.994Z</time></trkpt><trkpt lat="30.80521989184" lon="-5.5985446818822115"><ele>887.0</ele><time>2026-03-25T13:47:25.994Z</time></trkpt><trkpt lat="30.80532518063868" lon="-5.598513091333917"><ele>887.0000000000001</ele><time>2026-03-25T13:47:26.994Z</time></trkpt><trkpt lat="30.805406931398487" lon="-5.5984817433353875"><ele>887.0</ele><time>2026-03-25T13:47:27.994Z</time></trkpt><trkpt lat="30.8054792520755" lon="-5.59844947429649"><ele>887.0</ele><time>2026-03-25T13:47:28.994Z</time></trkpt><trkpt lat="30.805559669595716" lon="-5.598422754211085"><ele>887.0</ele><time>2026-03-25T13:47:29.994Z</time></trkpt><trkpt lat="30.80564495677556" lon="-5.598385723668978"><ele>887.0000000000001</ele><time>2026-03-25T13:47:30.994Z</time></trkpt><trkpt lat="30.8057418913761" lon="-5.598362518774137"><ele>887.0</ele><time>2026-03-25T13:47:31.994Z</time></trkpt><trkpt lat="30.80583042252142" lon="-5.598336427240988"><ele>887.0000000000001</ele><time>2026-03-25T13:47:32.994Z</time></trkpt><trkpt lat="30.805915919287763" lon="-5.598314226325744"><ele>887.0</ele><time>2026-03-25T13:47:33.994Z</time></trkpt><trkpt lat="30.805997937103182" lon="-5.598299180228697"><ele>887.0</ele><time>2026-03-25T13:47:34.994Z</time></trkpt><trkpt lat="30.806079916046365" lon="-5.598289123461466"><ele>887.0</ele><time>2026-03-25T13:47:35.994Z</time></trkpt><trkpt lat="30.80615288565525" lon="-5.598284967742866"><ele>887.0000000000001</ele><time>2026-03-25T13:47:36.993Z</time></trkpt><trkpt lat="30.806220978718155" lon="-5.598285562921532"><ele>887.0</ele><time>2026-03-25T13:47:37.993Z</time></trkpt><trkpt lat="30.806290987588064" lon="-5.598282769908048"><ele>886.0</ele><time>2026-03-25T13:47:38.995Z</time></trkpt><trkpt lat="30.80636512881732" lon="-5.59828968104235"><ele>885.0</ele><time>2026-03-25T13:47:39.994Z</time></trkpt><trkpt lat="30.806449595674557" lon="-5.598299875375308"><ele>884.0</ele><time>2026-03-25T13:47:40.994Z</time></trkpt><trkpt lat="30.806555463399995" lon="-5.598326782123639"><ele>883.0</ele><time>2026-03-25T13:47:41.994Z</time></trkpt><trkpt lat="30.806683277868924" lon="-5.59835232603896"><ele>882.0</ele><time>2026-03-25T13:47:42.994Z</time></trkpt><trkpt lat="30.806800659377924" lon="-5.598384987287635"><ele>881.8</ele><time>2026-03-25T13:47:43.994Z</time></trkpt><trkpt lat="30.806910099737475" lon="-5.598414965759525"><ele>881.6</ele><time>2026-03-25T13:47:44.994Z</time></trkpt><trkpt lat="30.807013799969404" lon="-5.598451794340661"><ele>881.3999999999999</ele><time>2026-03-25T13:47:45.994Z</time></trkpt><trkpt lat="30.807125718699844" lon="-5.598485838251944"><ele>881.1999999999999</ele><time>2026-03-25T13:47:46.994Z</time></trkpt><trkpt lat="30.807228969479482" lon="-5.598528491721836"><ele>881.0</ele><time>2026-03-25T13:47:47.994Z</time></trkpt><trkpt lat="30.807327294153506" lon="-5.598553554128871"><ele>881.0</ele><time>2026-03-25T13:47:48.994Z</time></trkpt><trkpt lat="30.807430711949127" lon="-5.598585521503179"><ele>880.9999999999999</ele><time>2026-03-25T13:47:49.994Z</time></trkpt><trkpt lat="30.807528578854622" lon="-5.598608567020043"><ele>880.9999999999999</ele><time>2026-03-25T13:47:50.994Z</time></trkpt><trkpt lat="30.80763171805588" lon="-5.598645320793514"><ele>881.0</ele><time>2026-03-25T13:47:51.994Z</time></trkpt><trkpt lat="30.807726996051475" lon="-5.598698203420519"><ele>881.0</ele><time>2026-03-25T13:47:52.994Z</time></trkpt><trkpt lat="30.807815130786103" lon="-5.598777877903699"><ele>882.0</ele><time>2026-03-25T13:47:53.994Z</time></trkpt><trkpt lat="30.80790421558" lon="-5.598856929629528"><ele>882.9999999999999</ele><time>2026-03-25T13:47:54.994Z</time></trkpt><trkpt lat="30.808014640423323" lon="-5.598923388149951"><ele>883.9999999999999</ele><time>2026-03-25T13:47:55.994Z</time></trkpt><trkpt lat="30.80811063942637" lon="-5.598967381380995"><ele>885.0</ele><time>2026-03-25T13:47:56.994Z</time></trkpt><trkpt lat="30.80821317298964" lon="-5.599002514418502"><ele>886.0</ele><time>2026-03-25T13:47:57.994Z</time></trkpt><trkpt lat="30.8083159689548" lon="-5.599033558945531"><ele>886.0</ele><time>2026-03-25T13:47:58.994Z</time></trkpt><trkpt lat="30.80840240472474" lon="-5.599041720639425"><ele>885.9999999999999</ele><time>2026-03-25T13:47:59.994Z</time></trkpt><trkpt lat="30.808503156050566" lon="-5.599028099768429"><ele>885.9999999999999</ele><time>2026-03-25T13:48:00.994Z</time></trkpt><trkpt lat="30.808586745974107" lon="-5.599010492989785"><ele>886.0</ele><time>2026-03-25T13:48:01.994Z</time></trkpt><trkpt lat="30.808669546603628" lon="-5.598980402187033"><ele>886.0</ele><time>2026-03-25T13:48:02.994Z</time></trkpt><trkpt lat="30.80876614835395" lon="-5.598960625411895"><ele>886.5999999999999</ele><time>2026-03-25T13:48:03.994Z</time></trkpt><trkpt lat="30.80886343084169" lon="-5.598981536141537"><ele>887.1999999999999</ele><time>2026-03-25T13:48:04.994Z</time></trkpt><trkpt lat="30.808962385016077" lon="-5.599019421549156"><ele>887.8000000000001</ele><time>2026-03-25T13:48:05.994Z</time></trkpt><trkpt lat="30.809061955357343" lon="-5.599065089949628"><ele>888.4000000000001</ele><time>2026-03-25T13:48:06.994Z</time></trkpt><trkpt lat="30.80915978215373" lon="-5.5990862121300395"><ele>889.0</ele><time>2026-03-25T13:48:07.994Z</time></trkpt><trkpt lat="30.809263517007132" lon="-5.599082120230852"><ele>889.25</ele><time>2026-03-25T13:48:08.994Z</time></trkpt><trkpt lat="30.80937052463375" lon="-5.599093019505582"><ele>889.5</ele><time>2026-03-25T13:48:09.994Z</time></trkpt><trkpt lat="30.809471428199725" lon="-5.599145242251146"><ele>889.75</ele><time>2026-03-25T13:48:10.994Z</time></trkpt><trkpt lat="30.80958271539423" lon="-5.599221593328013"><ele>890.0</ele><time>2026-03-25T13:48:11.994Z</time></trkpt><trkpt lat="30.809686269460585" lon="-5.59927381055173"><ele>890.0</ele><time>2026-03-25T13:48:12.994Z</time></trkpt><trkpt lat="30.809782929956995" lon="-5.59929776266417"><ele>890.0</ele><time>2026-03-25T13:48:13.994Z</time></trkpt><trkpt lat="30.809866601548926" lon="-5.599327074290111"><ele>890.0</ele><time>2026-03-25T13:48:14.994Z</time></trkpt><trkpt lat="30.809934152478107" lon="-5.59936745410464"><ele>890.0</ele><time>2026-03-25T13:48:15.994Z</time></trkpt><trkpt lat="30.809995393612837" lon="-5.599412284986462"><ele>890.0</ele><time>2026-03-25T13:48:16.994Z</time></trkpt><trkpt lat="30.81011435313465" lon="-5.5994653379700265"><ele>890.6</ele><time>2026-03-25T13:48:18.994Z</time></trkpt><trkpt lat="30.81017907798585" lon="-5.599483787403083"><ele>891.2</ele><time>2026-03-25T13:48:19.994Z</time></trkpt><trkpt lat="30.810286972562793" lon="-5.5995300336969684"><ele>891.8</ele><time>2026-03-25T13:48:21.994Z</time></trkpt><trkpt lat="30.810385393895903" lon="-5.599520891429806"><ele>892.4</ele><time>2026-03-25T13:48:23.994Z</time></trkpt><trkpt lat="30.810469169680204" lon="-5.599471031753416"><ele>893.0</ele><time>2026-03-25T13:48:25.994Z</time></trkpt><trkpt lat="30.81053721385844" lon="-5.599429083019678"><ele>893.0</ele><time>2026-03-25T13:48:27.994Z</time></trkpt><trkpt lat="30.810607773184923" lon="-5.599391082400497"><ele>893.0</ele><time>2026-03-25T13:48:30.994Z</time></trkpt><trkpt lat="30.810661186241717" lon="-5.5992900236370735"><ele>893.0</ele><time>2026-03-25T13:50:34.994Z</time></trkpt><trkpt lat="30.81074398729571" lon="-5.599242792039225"><ele>893.0</ele><time>2026-03-25T13:50:36.994Z</time></trkpt><trkpt lat="30.81083831959909" lon="-5.599242000070862"><ele>893.0</ele><time>2026-03-25T13:50:38.994Z</time></trkpt><trkpt lat="30.810927861702076" lon="-5.599254734824626"><ele>894.0</ele><time>2026-03-25T13:50:40.994Z</time></trkpt><trkpt lat="30.81103872984305" lon="-5.599277672340022"><ele>895.0</ele><time>2026-03-25T13:50:42.994Z</time></trkpt><trkpt lat="30.811118930298736" lon="-5.599286247681886"><ele>896.0</ele><time>2026-03-25T13:50:43.994Z</time></trkpt><trkpt lat="30.81120587721923" lon="-5.599281874785213"><ele>897.0</ele><time>2026-03-25T13:50:44.994Z</time></trkpt><trkpt lat="30.811297002279648" lon="-5.599265880222603"><ele>898.0</ele><time>2026-03-25T13:50:45.994Z</time></trkpt><trkpt lat="30.81139704949765" lon="-5.5992610479165945"><ele>898.0</ele><time>2026-03-25T13:50:46.994Z</time></trkpt><trkpt lat="30.811493373929157" lon="-5.599261680822978"><ele>898.0</ele><time>2026-03-25T13:50:47.994Z</time></trkpt><trkpt lat="30.811589174137065" lon="-5.599252996484143"><ele>898.0</ele><time>2026-03-25T13:50:48.994Z</time></trkpt><trkpt lat="30.81167473371585" lon="-5.599236838623072"><ele>898.0</ele><time>2026-03-25T13:50:49.994Z</time></trkpt><trkpt lat="30.811764109556435" lon="-5.599230311899592"><ele>898.0</ele><time>2026-03-25T13:50:50.994Z</time></trkpt><trkpt lat="30.81185120686564" lon="-5.599222144997222"><ele>898.6666666666666</ele><time>2026-03-25T13:50:51.994Z</time></trkpt><trkpt lat="30.811929904886092" lon="-5.599204875428666"><ele>899.3333333333333</ele><time>2026-03-25T13:50:52.994Z</time></trkpt><trkpt lat="30.812009756752968" lon="-5.5991854885116705"><ele>900.0</ele><time>2026-03-25T13:50:53.994Z</time></trkpt><trkpt lat="30.812082357990786" lon="-5.599171570132354"><ele>900.6666666666667</ele><time>2026-03-25T13:50:54.994Z</time></trkpt><trkpt lat="30.812163122027815" lon="-5.599175947940896"><ele>901.3333333333334</ele><time>2026-03-25T13:50:55.994Z</time></trkpt><trkpt lat="30.812268000524337" lon="-5.599191838180077"><ele>902.0</ele><time>2026-03-25T13:50:57.994Z</time></trkpt><trkpt lat="30.812383543397473" lon="-5.599163168521056"><ele>902.0</ele><time>2026-03-25T13:50:59.994Z</time></trkpt><trkpt lat="30.812450592379097" lon="-5.599142739441981"><ele>902.0</ele><time>2026-03-25T13:51:00.994Z</time></trkpt><trkpt lat="30.812525973460243" lon="-5.599102739195282"><ele>902.0</ele><time>2026-03-25T13:51:01.994Z</time></trkpt><trkpt lat="30.81260942166583" lon="-5.5990799019251085"><ele>902.0</ele><time>2026-03-25T13:51:02.994Z</time></trkpt><trkpt lat="30.812682688029984" lon="-5.599067652176945"><ele>902.0</ele><time>2026-03-25T13:51:03.994Z</time></trkpt><trkpt lat="30.812747640230786" lon="-5.599075038226862"><ele>902.0</ele><time>2026-03-25T13:51:04.994Z</time></trkpt><trkpt lat="30.812810695875577" lon="-5.599085008548832"><ele>902.0</ele><time>2026-03-25T13:51:05.994Z</time></trkpt><trkpt lat="30.81288442837885" lon="-5.599101535661156"><ele>900.8</ele><time>2026-03-25T13:51:06.994Z</time></trkpt><trkpt lat="30.812977556409006" lon="-5.599129631577601"><ele>899.6</ele><time>2026-03-25T13:51:07.994Z</time></trkpt><trkpt lat="30.813085660454465" lon="-5.599185379622835"><ele>898.3999999999999</ele><time>2026-03-25T13:51:08.994Z</time></trkpt><trkpt lat="30.813185361475387" lon="-5.599244832456523"><ele>897.1999999999999</ele><time>2026-03-25T13:51:09.994Z</time></trkpt><trkpt lat="30.81328042268275" lon="-5.599293845737296"><ele>896.0</ele><time>2026-03-25T13:51:10.994Z</time></trkpt><trkpt lat="30.813377738692168" lon="-5.599321762741325"><ele>896.0</ele><time>2026-03-25T13:51:11.994Z</time></trkpt><trkpt lat="30.813484400383746" lon="-5.59933645654139"><ele>895.9999999999999</ele><time>2026-03-25T13:51:12.994Z</time></trkpt><trkpt lat="30.813599519986035" lon="-5.5993494761010005"><ele>895.9999999999999</ele><time>2026-03-25T13:51:13.994Z</time></trkpt><trkpt lat="30.813710727273833" lon="-5.599357623965977"><ele>896.0</ele><time>2026-03-25T13:51:14.994Z</time></trkpt><trkpt lat="30.81382195094639" lon="-5.599350620651371"><ele>896.0</ele><time>2026-03-25T13:51:15.994Z</time></trkpt><trkpt lat="30.8139441934412" lon="-5.59933187032692"><ele>895.0000000000001</ele><time>2026-03-25T13:51:16.994Z</time></trkpt><trkpt lat="30.814061434005357" lon="-5.599305374447345"><ele>894.0</ele><time>2026-03-25T13:51:17.994Z</time></trkpt><trkpt lat="30.814150815580614" lon="-5.599278483222173"><ele>893.0</ele><time>2026-03-25T13:51:18.994Z</time></trkpt><trkpt lat="30.81422843267349" lon="-5.599254859421808"><ele>892.0</ele><time>2026-03-25T13:51:19.994Z</time></trkpt><trkpt lat="30.81430091895876" lon="-5.599234373799902"><ele>891.0000000000001</ele><time>2026-03-25T13:51:20.994Z</time></trkpt><trkpt lat="30.814372328245693" lon="-5.599220058523665"><ele>890.0</ele><time>2026-03-25T13:51:21.994Z</time></trkpt><trkpt lat="30.81443784459295" lon="-5.599206548227544"><ele>889.6666666666667</ele><time>2026-03-25T13:51:22.994Z</time></trkpt><trkpt lat="30.814508655230515" lon="-5.599194507760985"><ele>889.3333333333334</ele><time>2026-03-25T13:51:23.994Z</time></trkpt><trkpt lat="30.81458274570797" lon="-5.59918079595169"><ele>889.0</ele><time>2026-03-25T13:51:24.994Z</time></trkpt><trkpt lat="30.814661918157864" lon="-5.5991670615961"><ele>888.6666666666667</ele><time>2026-03-25T13:51:25.994Z</time></trkpt><trkpt lat="30.8147380740238" lon="-5.599157936305018"><ele>888.3333333333334</ele><time>2026-03-25T13:51:26.994Z</time></trkpt><trkpt lat="30.814824222466978" lon="-5.599144151451514"><ele>888.0</ele><time>2026-03-25T13:51:27.994Z</time></trkpt><trkpt lat="30.814905076169538" lon="-5.599138371303378"><ele>888.0</ele><time>2026-03-25T13:51:28.994Z</time></trkpt><trkpt lat="30.814976723286744" lon="-5.599118847581116"><ele>888.0</ele><time>2026-03-25T13:51:29.994Z</time></trkpt><trkpt lat="30.815055475332503" lon="-5.5991109324420085"><ele>888.0</ele><time>2026-03-25T13:51:30.993Z</time></trkpt><trkpt lat="30.815135566068516" lon="-5.599112505100016"><ele>888.0</ele><time>2026-03-25T13:51:31.993Z</time></trkpt><trkpt lat="30.815213284806152" lon="-5.59910984596344"><ele>888.0</ele><time>2026-03-25T13:51:32.993Z</time></trkpt><trkpt lat="30.81528384086792" lon="-5.599105650669315"><ele>888.0</ele><time>2026-03-25T13:51:33.993Z</time></trkpt><trkpt lat="30.815354412291548" lon="-5.599098467381516"><ele>888.8333333333334</ele><time>2026-03-25T13:51:34.993Z</time></trkpt><trkpt lat="30.815427816395175" lon="-5.599084863622058"><ele>889.6666666666667</ele><time>2026-03-25T13:51:35.993Z</time></trkpt><trkpt lat="30.815502267687222" lon="-5.599083027660623"><ele>890.5</ele><time>2026-03-25T13:51:36.992Z</time></trkpt><trkpt lat="30.815581928796245" lon="-5.599080040597367"><ele>891.3333333333334</ele><time>2026-03-25T13:51:37.992Z</time></trkpt><trkpt lat="30.815672982917857" lon="-5.599059366884877"><ele>892.1666666666667</ele><time>2026-03-25T13:51:38.992Z</time></trkpt><trkpt lat="30.81575595858973" lon="-5.599040185566795"><ele>893.0</ele><time>2026-03-25T13:51:39.992Z</time></trkpt><trkpt lat="30.8158316786798" lon="-5.599021276383845"><ele>893.0000000000001</ele><time>2026-03-25T13:51:40.992Z</time></trkpt><trkpt lat="30.815898149867525" lon="-5.59901372513831"><ele>893.0</ele><time>2026-03-25T13:51:41.992Z</time></trkpt><trkpt lat="30.81596801974715" lon="-5.599002653010592"><ele>893.0</ele><time>2026-03-25T13:51:42.992Z</time></trkpt><trkpt lat="30.816051690700903" lon="-5.598988826383077"><ele>893.0</ele><time>2026-03-25T13:51:43.992Z</time></trkpt><trkpt lat="30.816137725542273" lon="-5.598985989069722"><ele>893.0000000000001</ele><time>2026-03-25T13:51:44.991Z</time></trkpt><trkpt lat="30.81621756859315" lon="-5.598976695180225"><ele>893.0</ele><time>2026-03-25T13:51:45.991Z</time></trkpt><trkpt lat="30.816283609271984" lon="-5.598965255401992"><ele>891.8571428571429</ele><time>2026-03-25T13:51:46.991Z</time></trkpt><trkpt lat="30.816351908667638" lon="-5.598955220374585"><ele>890.7142857142858</ele><time>2026-03-25T13:51:47.991Z</time></trkpt><trkpt lat="30.816415059881702" lon="-5.59894807288665"><ele>889.5714285714286</ele><time>2026-03-25T13:51:48.992Z</time></trkpt><trkpt lat="30.816483474768454" lon="-5.598949900510622"><ele>888.4285714285714</ele><time>2026-03-25T13:51:49.992Z</time></trkpt><trkpt lat="30.816549783197846" lon="-5.598963971202074"><ele>887.2857142857142</ele><time>2026-03-25T13:51:50.991Z</time></trkpt><trkpt lat="30.816629944982243" lon="-5.598966701931395"><ele>886.1428571428571</ele><time>2026-03-25T13:51:51.991Z</time></trkpt><trkpt lat="30.81672171679039" lon="-5.598980271329397"><ele>885.0</ele><time>2026-03-25T13:51:53.991Z</time></trkpt><trkpt lat="30.81680315975333" lon="-5.599005904071959"><ele>885.1666666666666</ele><time>2026-03-25T13:51:55.991Z</time></trkpt><trkpt lat="30.816919446863018" lon="-5.5990272432381065"><ele>885.3333333333333</ele><time>2026-03-25T13:51:57.99Z</time></trkpt><trkpt lat="30.816989971184878" lon="-5.599034489946326"><ele>885.5</ele><time>2026-03-25T13:51:58.99Z</time></trkpt><trkpt lat="30.817057283369678" lon="-5.599038373391391"><ele>885.6666666666666</ele><time>2026-03-25T13:51:59.991Z</time></trkpt><trkpt lat="30.81712061309647" lon="-5.599048041607356"><ele>885.8333333333333</ele><time>2026-03-25T13:52:00.99Z</time></trkpt><trkpt lat="30.81720304735571" lon="-5.599061724365724"><ele>886.0</ele><time>2026-03-25T13:52:02.99Z</time></trkpt><trkpt lat="30.817269822767702" lon="-5.59909513572096"><ele>885.9999999999999</ele><time>2026-03-25T13:52:05.99Z</time></trkpt><trkpt lat="30.81733420093304" lon="-5.599118864496137"><ele>886.0</ele><time>2026-03-25T13:52:46.99Z</time></trkpt><trkpt lat="30.817389267671263" lon="-5.599205936341811"><ele>886.0</ele><time>2026-03-25T13:52:48.99Z</time></trkpt><trkpt lat="30.817371605327164" lon="-5.599346649383968"><ele>886.0</ele><time>2026-03-25T13:52:50.99Z</time></trkpt><trkpt lat="30.817353308340632" lon="-5.599420279123535"><ele>885.9999999999999</ele><time>2026-03-25T13:52:51.99Z</time></trkpt><trkpt lat="30.817340808137992" lon="-5.5995178250077275"><ele>886.0</ele><time>2026-03-25T13:52:52.99Z</time></trkpt><trkpt lat="30.817320891653264" lon="-5.599628096724227"><ele>886.0</ele><time>2026-03-25T13:52:53.99Z</time></trkpt><trkpt lat="30.817306456236963" lon="-5.599742660968978"><ele>885.9999999999999</ele><time>2026-03-25T13:52:54.99Z</time></trkpt><trkpt lat="30.817279498056724" lon="-5.599860056357555"><ele>885.9999999999999</ele><time>2026-03-25T13:52:55.99Z</time></trkpt><trkpt lat="30.817242561410108" lon="-5.5999813179204425"><ele>886.0</ele><time>2026-03-25T13:52:56.99Z</time></trkpt><trkpt lat="30.817196676591042" lon="-5.600092983367101"><ele>886.0</ele><time>2026-03-25T13:52:57.99Z</time></trkpt><trkpt lat="30.817146566581464" lon="-5.600204266310781"><ele>886.0</ele><time>2026-03-25T13:52:58.99Z</time></trkpt><trkpt lat="30.81709675999878" lon="-5.600296678889422"><ele>885.9999999999999</ele><time>2026-03-25T13:52:59.99Z</time></trkpt><trkpt lat="30.817057251407366" lon="-5.600410094286145"><ele>885.9999999999999</ele><time>2026-03-25T13:53:00.99Z</time></trkpt><trkpt lat="30.81703340598564" lon="-5.600541955786854"><ele>886.0</ele><time>2026-03-25T13:53:01.99Z</time></trkpt><trkpt lat="30.81701278440197" lon="-5.600674613445628"><ele>886.0</ele><time>2026-03-25T13:53:02.99Z</time></trkpt><trkpt lat="30.816987135339367" lon="-5.600787638131248"><ele>886.0</ele><time>2026-03-25T13:53:03.99Z</time></trkpt><trkpt lat="30.81696731449996" lon="-5.6008956159135925"><ele>885.9999999999999</ele><time>2026-03-25T13:53:04.99Z</time></trkpt><trkpt lat="30.816939358779194" lon="-5.601002900231084"><ele>885.9999999999999</ele><time>2026-03-25T13:53:05.99Z</time></trkpt><trkpt lat="30.816910479055718" lon="-5.601106803917651"><ele>886.0</ele><time>2026-03-25T13:53:06.99Z</time></trkpt><trkpt lat="30.816877822146868" lon="-5.601208407133232"><ele>886.0</ele><time>2026-03-25T13:53:07.99Z</time></trkpt><trkpt lat="30.816846886579338" lon="-5.601302393626669"><ele>885.5999999999999</ele><time>2026-03-25T13:53:08.99Z</time></trkpt><trkpt lat="30.816808799538105" lon="-5.601401262436215"><ele>885.1999999999999</ele><time>2026-03-25T13:53:09.99Z</time></trkpt><trkpt lat="30.8167700823984" lon="-5.601501300105952"><ele>884.8000000000001</ele><time>2026-03-25T13:53:10.99Z</time></trkpt><trkpt lat="30.816727000894772" lon="-5.601603629875582"><ele>884.4000000000001</ele><time>2026-03-25T13:53:11.99Z</time></trkpt><trkpt lat="30.816684960871754" lon="-5.601704390254121"><ele>884.0</ele><time>2026-03-25T13:53:12.99Z</time></trkpt><trkpt lat="30.816641920224228" lon="-5.601799338847774"><ele>884.0</ele><time>2026-03-25T13:53:13.99Z</time></trkpt><trkpt lat="30.816601869798024" lon="-5.601894054955796"><ele>884.0000000000001</ele><time>2026-03-25T13:53:14.99Z</time></trkpt><trkpt lat="30.816565414721904" lon="-5.601990210437511"><ele>884.0000000000001</ele><time>2026-03-25T13:53:15.99Z</time></trkpt><trkpt lat="30.816534610863197" lon="-5.602084359452287"><ele>884.0</ele><time>2026-03-25T13:53:16.99Z</time></trkpt><trkpt lat="30.816497429978597" lon="-5.602187353647696"><ele>884.0</ele><time>2026-03-25T13:53:17.99Z</time></trkpt><trkpt lat="30.816463718784238" lon="-5.602302520303297"><ele>884.4000000000001</ele><time>2026-03-25T13:53:18.99Z</time></trkpt><trkpt lat="30.81643289143367" lon="-5.602416917436533"><ele>884.8000000000001</ele><time>2026-03-25T13:53:19.99Z</time></trkpt><trkpt lat="30.816401956586287" lon="-5.60253564542667"><ele>885.1999999999999</ele><time>2026-03-25T13:53:20.99Z</time></trkpt><trkpt lat="30.816370838455313" lon="-5.602656646771718"><ele>885.5999999999999</ele><time>2026-03-25T13:53:21.99Z</time></trkpt><trkpt lat="30.81634051377911" lon="-5.602770366828833"><ele>886.0</ele><time>2026-03-25T13:53:22.99Z</time></trkpt><trkpt lat="30.81631645284621" lon="-5.602876240774021"><ele>886.4999999999999</ele><time>2026-03-25T13:53:23.99Z</time></trkpt><trkpt lat="30.816297105172602" lon="-5.602975602636478"><ele>887.0</ele><time>2026-03-25T13:53:24.99Z</time></trkpt><trkpt lat="30.81627549859275" lon="-5.603072357694478"><ele>887.5</ele><time>2026-03-25T13:53:25.99Z</time></trkpt><trkpt lat="30.8162574977716" lon="-5.603166005961821"><ele>888.0</ele><time>2026-03-25T13:53:26.99Z</time></trkpt><trkpt lat="30.81623908318021" lon="-5.603252140435825"><ele>888.4999999999999</ele><time>2026-03-25T13:53:27.99Z</time></trkpt><trkpt lat="30.816214287168805" lon="-5.603348395559307"><ele>889.0</ele><time>2026-03-25T13:53:28.99Z</time></trkpt><trkpt lat="30.81619277966521" lon="-5.603443051584243"><ele>888.9999999999999</ele><time>2026-03-25T13:53:29.99Z</time></trkpt><trkpt lat="30.816170825977945" lon="-5.6035382060132335"><ele>889.0</ele><time>2026-03-25T13:53:30.99Z</time></trkpt><trkpt lat="30.816150808352383" lon="-5.60363599181293"><ele>889.0</ele><time>2026-03-25T13:53:31.99Z</time></trkpt><trkpt lat="30.816128305522707" lon="-5.603738979380088"><ele>889.0</ele><time>2026-03-25T13:53:32.99Z</time></trkpt><trkpt lat="30.816109002502888" lon="-5.603848512952115"><ele>888.9999999999999</ele><time>2026-03-25T13:53:33.99Z</time></trkpt><trkpt lat="30.81608984891105" lon="-5.603949447322371"><ele>889.0</ele><time>2026-03-25T13:53:34.99Z</time></trkpt><trkpt lat="30.81606239062059" lon="-5.604048878601491"><ele>888.8333333333333</ele><time>2026-03-25T13:53:35.99Z</time></trkpt><trkpt lat="30.816029804814274" lon="-5.604136617904912"><ele>888.6666666666666</ele><time>2026-03-25T13:53:36.99Z</time></trkpt><trkpt lat="30.816002173659573" lon="-5.604222262874991"><ele>888.5</ele><time>2026-03-25T13:53:37.99Z</time></trkpt><trkpt lat="30.815982156971984" lon="-5.604307836890688"><ele>888.3333333333333</ele><time>2026-03-25T13:53:38.99Z</time></trkpt><trkpt lat="30.81597590367303" lon="-5.604397858935311"><ele>888.1666666666666</ele><time>2026-03-25T13:53:39.99Z</time></trkpt><trkpt lat="30.8159876421744" lon="-5.60447955977299"><ele>888.0</ele><time>2026-03-25T13:53:40.99Z</time></trkpt><trkpt lat="30.816018261318053" lon="-5.604552782461891"><ele>888.0</ele><time>2026-03-25T13:53:41.99Z</time></trkpt><trkpt lat="30.816090170615915" lon="-5.6046670487825345"><ele>888.0</ele><time>2026-03-25T13:53:43.99Z</time></trkpt><trkpt lat="30.816141852904465" lon="-5.604725131938651"><ele>888.0</ele><time>2026-03-25T13:53:44.99Z</time></trkpt><trkpt lat="30.816196126507016" lon="-5.604774876463341"><ele>888.0</ele><time>2026-03-25T13:53:45.99Z</time></trkpt><trkpt lat="30.816246606217057" lon="-5.604825014603968"><ele>888.0</ele><time>2026-03-25T13:53:46.99Z</time></trkpt><trkpt lat="30.81630344220104" lon="-5.604875402768279"><ele>888.0</ele><time>2026-03-25T13:53:47.99Z</time></trkpt><trkpt lat="30.81638110309553" lon="-5.6049224022839175"><ele>888.0</ele><time>2026-03-25T13:53:48.99Z</time></trkpt><trkpt lat="30.81647345863494" lon="-5.604966132614337"><ele>888.0</ele><time>2026-03-25T13:53:49.99Z</time></trkpt><trkpt lat="30.81656889511213" lon="-5.605018537508298"><ele>888.0</ele><time>2026-03-25T13:53:50.99Z</time></trkpt><trkpt lat="30.816669416758238" lon="-5.605075234419683"><ele>888.0</ele><time>2026-03-25T13:53:51.99Z</time></trkpt><trkpt lat="30.81677317962316" lon="-5.605131994645875"><ele>888.0</ele><time>2026-03-25T13:53:52.99Z</time></trkpt><trkpt lat="30.816897047697708" lon="-5.60518697640304"><ele>887.5999999999999</ele><time>2026-03-25T13:53:53.991Z</time></trkpt><trkpt lat="30.8169977029342" lon="-5.6052279995496495"><ele>887.1999999999999</ele><time>2026-03-25T13:53:54.99Z</time></trkpt><trkpt lat="30.817071248621332" lon="-5.6052568474878"><ele>886.8</ele><time>2026-03-25T13:53:55.99Z</time></trkpt><trkpt lat="30.817141695619455" lon="-5.605317904524212"><ele>886.4</ele><time>2026-03-25T13:53:56.99Z</time></trkpt><trkpt lat="30.81721711048301" lon="-5.605384670752199"><ele>886.0</ele><time>2026-03-25T13:53:57.99Z</time></trkpt><trkpt lat="30.817297236727907" lon="-5.605428283051815"><ele>885.9999999999999</ele><time>2026-03-25T13:53:58.99Z</time></trkpt><trkpt lat="30.817373380221945" lon="-5.605437713865485"><ele>886.0</ele><time>2026-03-25T13:53:59.99Z</time></trkpt><trkpt lat="30.817460837219127" lon="-5.605436668808541"><ele>886.0</ele><time>2026-03-25T13:54:00.99Z</time></trkpt><trkpt lat="30.817527188303163" lon="-5.605433151907098"><ele>886.0</ele><time>2026-03-25T13:54:01.99Z</time></trkpt><trkpt lat="30.81762208024674" lon="-5.605430650075469"><ele>885.9999999999999</ele><time>2026-03-25T13:54:03.99Z</time></trkpt><trkpt lat="30.817696555368876" lon="-5.60543435786731"><ele>886.0</ele><time>2026-03-25T13:54:05.99Z</time></trkpt><trkpt lat="30.81776735931002" lon="-5.6054559187778725"><ele>886.0</ele><time>2026-03-25T13:54:07.99Z</time></trkpt><trkpt lat="30.81781818436018" lon="-5.605522896098558"><ele>885.9999999999999</ele><time>2026-03-25T13:54:09.99Z</time></trkpt><trkpt lat="30.817806346886535" lon="-5.605613069616171"><ele>885.9999999999999</ele><time>2026-03-25T13:54:11.99Z</time></trkpt><trkpt lat="30.817722426457127" lon="-5.605724425110532"><ele>886.0</ele><time>2026-03-25T13:54:13.99Z</time></trkpt><trkpt lat="30.81764757684727" lon="-5.605800197838513"><ele>886.0</ele><time>2026-03-25T13:54:14.99Z</time></trkpt><trkpt lat="30.817572973261775" lon="-5.605912677696859"><ele>886.75</ele><time>2026-03-25T13:54:15.99Z</time></trkpt><trkpt lat="30.81752088711778" lon="-5.606061092265121"><ele>887.5</ele><time>2026-03-25T13:54:16.99Z</time></trkpt><trkpt lat="30.817461117428078" lon="-5.606233523155046"><ele>888.25</ele><time>2026-03-25T13:54:17.99Z</time></trkpt><trkpt lat="30.81740468347633" lon="-5.606376417042395"><ele>889.0</ele><time>2026-03-25T13:54:18.99Z</time></trkpt><trkpt lat="30.817362915260414" lon="-5.606485312984293"><ele>889.0</ele><time>2026-03-25T13:54:19.99Z</time></trkpt><trkpt lat="30.81732940162855" lon="-5.606579519222216"><ele>889.0000000000001</ele><time>2026-03-25T13:54:20.99Z</time></trkpt><trkpt lat="30.817293402444598" lon="-5.606669832307082"><ele>889.0000000000001</ele><time>2026-03-25T13:54:21.99Z</time></trkpt><trkpt lat="30.81725151721741" lon="-5.6067642035180505"><ele>889.0</ele><time>2026-03-25T13:54:22.99Z</time></trkpt><trkpt lat="30.817201789517853" lon="-5.606868621167172"><ele>889.0</ele><time>2026-03-25T13:54:23.99Z</time></trkpt><trkpt lat="30.817155456489743" lon="-5.60697350099053"><ele>889.0</ele><time>2026-03-25T13:54:24.99Z</time></trkpt><trkpt lat="30.81712712703596" lon="-5.607091721676321"><ele>889.0000000000001</ele><time>2026-03-25T13:54:25.99Z</time></trkpt><trkpt lat="30.817113959911048" lon="-5.607207950817351"><ele>889.0000000000001</ele><time>2026-03-25T13:54:26.99Z</time></trkpt><trkpt lat="30.817105802949204" lon="-5.607323523477063"><ele>889.0</ele><time>2026-03-25T13:54:27.99Z</time></trkpt><trkpt lat="30.81710070047852" lon="-5.607435518370708"><ele>889.0</ele><time>2026-03-25T13:54:28.99Z</time></trkpt><trkpt lat="30.817080590367567" lon="-5.607545092518107"><ele>888.9999999999999</ele><time>2026-03-25T13:54:29.99Z</time></trkpt><trkpt lat="30.817062069060118" lon="-5.60765387850878"><ele>889.0</ele><time>2026-03-25T13:54:30.99Z</time></trkpt><trkpt lat="30.81704695609815" lon="-5.607743331552352"><ele>889.0</ele><time>2026-03-25T13:54:31.99Z</time></trkpt><trkpt lat="30.817032653856227" lon="-5.607830115169336"><ele>889.0</ele><time>2026-03-25T13:54:32.99Z</time></trkpt><trkpt lat="30.81700038302883" lon="-5.607912403144173"><ele>888.9999999999999</ele><time>2026-03-25T13:54:33.99Z</time></trkpt><trkpt lat="30.81693243321442" lon="-5.607983221326032"><ele>889.0</ele><time>2026-03-25T13:54:34.99Z</time></trkpt><trkpt lat="30.81682945180298" lon="-5.608051736268658"><ele>888.9999999999999</ele><time>2026-03-25T13:54:35.99Z</time></trkpt><trkpt lat="30.816740652129376" lon="-5.608130537682123"><ele>889.0</ele><time>2026-03-25T13:54:36.99Z</time></trkpt><trkpt lat="30.81667250049623" lon="-5.608209480759926"><ele>889.0</ele><time>2026-03-25T13:54:37.99Z</time></trkpt><trkpt lat="30.816613283275334" lon="-5.608289330499622"><ele>889.0</ele><time>2026-03-25T13:54:38.99Z</time></trkpt><trkpt lat="30.816561505705906" lon="-5.608364111149554"><ele>888.9999999999999</ele><time>2026-03-25T13:54:39.99Z</time></trkpt><trkpt lat="30.816518753562335" lon="-5.608421870555161"><ele>889.0</ele><time>2026-03-25T13:54:40.99Z</time></trkpt><trkpt lat="30.816454016866924" lon="-5.608520602704115"><ele>888.9999999999999</ele><time>2026-03-25T13:54:42.99Z</time></trkpt><trkpt lat="30.81643110413969" lon="-5.608604871589045"><ele>889.0</ele><time>2026-03-25T13:54:44.99Z</time></trkpt><trkpt lat="30.816418597533794" lon="-5.608696060320953"><ele>889.0</ele><time>2026-03-25T13:54:47.99Z</time></trkpt><trkpt lat="30.816448418235453" lon="-5.608766139085212"><ele>889.0</ele><time>2026-03-25T13:54:53.991Z</time></trkpt><trkpt lat="30.816484916575938" lon="-5.608867015482937"><ele>888.9999999999999</ele><time>2026-03-25T13:55:35.991Z</time></trkpt><trkpt lat="30.81644767780724" lon="-5.608981039954137"><ele>889.0</ele><time>2026-03-25T13:55:37.991Z</time></trkpt><trkpt lat="30.81637938698443" lon="-5.609068903979591"><ele>889.2</ele><time>2026-03-25T13:55:39.991Z</time></trkpt><trkpt lat="30.81633082040727" lon="-5.609118046271071"><ele>889.4000000000001</ele><time>2026-03-25T13:55:40.991Z</time></trkpt><trkpt lat="30.816270289764855" lon="-5.6091724252398985"><ele>889.6</ele><time>2026-03-25T13:55:41.991Z</time></trkpt><trkpt lat="30.816183854561018" lon="-5.609215970019817"><ele>889.8</ele><time>2026-03-25T13:55:42.991Z</time></trkpt><trkpt lat="30.81606194089789" lon="-5.609269653449371"><ele>890.0</ele><time>2026-03-25T13:55:43.991Z</time></trkpt><trkpt lat="30.81596143963836" lon="-5.60935475944271"><ele>890.5</ele><time>2026-03-25T13:55:44.991Z</time></trkpt><trkpt lat="30.81590535313013" lon="-5.609476459732572"><ele>891.0</ele><time>2026-03-25T13:55:45.991Z</time></trkpt><trkpt lat="30.81588300332172" lon="-5.6096520619060035"><ele>891.5</ele><time>2026-03-25T13:55:46.991Z</time></trkpt><trkpt lat="30.81586707000456" lon="-5.609849974973119"><ele>892.0</ele><time>2026-03-25T13:55:47.991Z</time></trkpt><trkpt lat="30.815836636163557" lon="-5.610052774764908"><ele>891.0</ele><time>2026-03-25T13:55:48.991Z</time></trkpt><trkpt lat="30.815803661595147" lon="-5.610234870196959"><ele>890.0</ele><time>2026-03-25T13:55:49.991Z</time></trkpt><trkpt lat="30.815808961335954" lon="-5.610399451220427"><ele>889.0</ele><time>2026-03-25T13:55:50.991Z</time></trkpt><trkpt lat="30.815844952480933" lon="-5.610558865544492"><ele>888.0</ele><time>2026-03-25T13:55:51.991Z</time></trkpt><trkpt lat="30.815901186414845" lon="-5.610714594981508"><ele>888.0</ele><time>2026-03-25T13:55:52.991Z</time></trkpt><trkpt lat="30.815958106348564" lon="-5.610873653031792"><ele>888.0</ele><time>2026-03-25T13:55:53.991Z</time></trkpt><trkpt lat="30.81600419669635" lon="-5.611026793215834"><ele>888.0</ele><time>2026-03-25T13:55:54.991Z</time></trkpt><trkpt lat="30.816055410615522" lon="-5.611177739857844"><ele>888.0</ele><time>2026-03-25T13:55:55.991Z</time></trkpt><trkpt lat="30.816101869873506" lon="-5.611322339958925"><ele>887.75</ele><time>2026-03-25T13:55:56.991Z</time></trkpt><trkpt lat="30.816159475741955" lon="-5.61146506930182"><ele>887.5</ele><time>2026-03-25T13:55:57.991Z</time></trkpt><trkpt lat="30.816210652259215" lon="-5.611599803875614"><ele>887.25</ele><time>2026-03-25T13:55:58.991Z</time></trkpt><trkpt lat="30.81625377345261" lon="-5.611735930576001"><ele>887.0</ele><time>2026-03-25T13:55:59.991Z</time></trkpt><trkpt lat="30.816300115525543" lon="-5.611874389429436"><ele>887.3333333333334</ele><time>2026-03-25T13:56:00.99Z</time></trkpt><trkpt lat="30.816338148575817" lon="-5.612031894694484"><ele>887.6666666666667</ele><time>2026-03-25T13:56:01.99Z</time></trkpt><trkpt lat="30.816378704994296" lon="-5.612224043977594"><ele>888.0</ele><time>2026-03-25T13:56:02.991Z</time></trkpt><trkpt lat="30.816431865297115" lon="-5.612441241020022"><ele>888.0</ele><time>2026-03-25T13:56:03.991Z</time></trkpt><trkpt lat="30.816472746620484" lon="-5.612668514499038"><ele>888.0</ele><time>2026-03-25T13:56:04.991Z</time></trkpt><trkpt lat="30.816491007844988" lon="-5.612860920703961"><ele>888.0</ele><time>2026-03-25T13:56:05.99Z</time></trkpt><trkpt lat="30.816530151728657" lon="-5.613032801723153"><ele>889.0</ele><time>2026-03-25T13:56:06.99Z</time></trkpt><trkpt lat="30.81656595876372" lon="-5.61320389392385"><ele>890.0</ele><time>2026-03-25T13:56:07.99Z</time></trkpt><trkpt lat="30.816604445332672" lon="-5.613377013288632"><ele>891.0</ele><time>2026-03-25T13:56:08.99Z</time></trkpt><trkpt lat="30.816629996449652" lon="-5.613549976335871"><ele>892.0</ele><time>2026-03-25T13:56:09.99Z</time></trkpt><trkpt lat="30.81665668361929" lon="-5.613725913518193"><ele>893.0</ele><time>2026-03-25T13:56:10.99Z</time></trkpt><trkpt lat="30.816681346582886" lon="-5.613899156901745"><ele>894.0</ele><time>2026-03-25T13:56:11.991Z</time></trkpt><trkpt lat="30.816704610226328" lon="-5.614068849146177"><ele>894.0</ele><time>2026-03-25T13:56:12.991Z</time></trkpt><trkpt lat="30.816727037547995" lon="-5.61424338759366"><ele>894.0</ele><time>2026-03-25T13:56:13.991Z</time></trkpt><trkpt lat="30.816738339653973" lon="-5.61440484381957"><ele>894.0</ele><time>2026-03-25T13:56:14.991Z</time></trkpt><trkpt lat="30.816753209007686" lon="-5.614571905758132"><ele>894.0</ele><time>2026-03-25T13:56:15.991Z</time></trkpt><trkpt lat="30.816762264476576" lon="-5.614749028816819"><ele>893.75</ele><time>2026-03-25T13:56:16.991Z</time></trkpt><trkpt lat="30.81676584892483" lon="-5.61491448826452"><ele>893.5</ele><time>2026-03-25T13:56:17.991Z</time></trkpt><trkpt lat="30.816767344494657" lon="-5.615067685254115"><ele>893.25</ele><time>2026-03-25T13:56:18.991Z</time></trkpt><trkpt lat="30.816766440448557" lon="-5.615223171774277"><ele>893.0</ele><time>2026-03-25T13:56:19.991Z</time></trkpt><trkpt lat="30.816762661015975" lon="-5.61537877931701"><ele>891.0</ele><time>2026-03-25T13:56:20.991Z</time></trkpt><trkpt lat="30.81675022704339" lon="-5.615542748730208"><ele>889.0</ele><time>2026-03-25T13:56:21.991Z</time></trkpt><trkpt lat="30.816737717347376" lon="-5.615709263387511"><ele>887.0</ele><time>2026-03-25T13:56:22.991Z</time></trkpt><trkpt lat="30.816726485090012" lon="-5.6158779086160635"><ele>885.0</ele><time>2026-03-25T13:56:23.991Z</time></trkpt><trkpt lat="30.816713162252082" lon="-5.616046279522538"><ele>887.0</ele><time>2026-03-25T13:56:24.991Z</time></trkpt><trkpt lat="30.816695774466083" lon="-5.61619475379248"><ele>889.0</ele><time>2026-03-25T13:56:25.991Z</time></trkpt><trkpt lat="30.81667873336163" lon="-5.616347101192736"><ele>891.0</ele><time>2026-03-25T13:56:26.991Z</time></trkpt><trkpt lat="30.81665877069569" lon="-5.616507562787084"><ele>893.0</ele><time>2026-03-25T13:56:27.991Z</time></trkpt><trkpt lat="30.81665547916337" lon="-5.616673845871138"><ele>893.0</ele><time>2026-03-25T13:56:28.991Z</time></trkpt><trkpt lat="30.816655832875846" lon="-5.616831690519979"><ele>893.0</ele><time>2026-03-25T13:56:29.991Z</time></trkpt><trkpt lat="30.816663549197994" lon="-5.616978672685835"><ele>893.0</ele><time>2026-03-25T13:56:30.991Z</time></trkpt><trkpt lat="30.816675600397453" lon="-5.617124082539797"><ele>893.0</ele><time>2026-03-25T13:56:31.991Z</time></trkpt><trkpt lat="30.816685643536278" lon="-5.617283789711138"><ele>893.5</ele><time>2026-03-25T13:56:32.991Z</time></trkpt><trkpt lat="30.816681164303382" lon="-5.617444945952953"><ele>894.0</ele><time>2026-03-25T13:56:33.991Z</time></trkpt><trkpt lat="30.816680388283636" lon="-5.617608764530706"><ele>894.5</ele><time>2026-03-25T13:56:34.991Z</time></trkpt><trkpt lat="30.816687582534335" lon="-5.617772699440112"><ele>895.0</ele><time>2026-03-25T13:56:35.991Z</time></trkpt><trkpt lat="30.816682425518053" lon="-5.617946702580542"><ele>895.0</ele><time>2026-03-25T13:56:36.991Z</time></trkpt><trkpt lat="30.81666433155555" lon="-5.61812967355385"><ele>895.0</ele><time>2026-03-25T13:56:37.991Z</time></trkpt><trkpt lat="30.816643149719198" lon="-5.618303048945996"><ele>895.0</ele><time>2026-03-25T13:56:38.991Z</time></trkpt><trkpt lat="30.81662083662341" lon="-5.618493364958416"><ele>895.0</ele><time>2026-03-25T13:56:39.991Z</time></trkpt><trkpt lat="30.81660269048361" lon="-5.618689786382336"><ele>895.0</ele><time>2026-03-25T13:56:40.991Z</time></trkpt><trkpt lat="30.816591830000142" lon="-5.61888254434559"><ele>895.0</ele><time>2026-03-25T13:56:41.991Z</time></trkpt><trkpt lat="30.816598106399336" lon="-5.619081285116154"><ele>895.0</ele><time>2026-03-25T13:56:42.991Z</time></trkpt><trkpt lat="30.816610545578474" lon="-5.61928565390269"><ele>895.0</ele><time>2026-03-25T13:56:43.991Z</time></trkpt><trkpt lat="30.816616692626678" lon="-5.619476220985371"><ele>895.0</ele><time>2026-03-25T13:56:44.991Z</time></trkpt><trkpt lat="30.816616899793043" lon="-5.619659775411723"><ele>894.3333333333333</ele><time>2026-03-25T13:56:45.991Z</time></trkpt><trkpt lat="30.81661138577832" lon="-5.619841486307689"><ele>893.6666666666667</ele><time>2026-03-25T13:56:46.991Z</time></trkpt><trkpt lat="30.816609015116164" lon="-5.620013907826744"><ele>893.0</ele><time>2026-03-25T13:56:47.991Z</time></trkpt><trkpt lat="30.816609726997875" lon="-5.620185945674568"><ele>893.0</ele><time>2026-03-25T13:56:48.991Z</time></trkpt><trkpt lat="30.816617086406524" lon="-5.620370385632462"><ele>893.0</ele><time>2026-03-25T13:56:49.991Z</time></trkpt><trkpt lat="30.816628181102786" lon="-5.620533625089768"><ele>893.0</ele><time>2026-03-25T13:56:50.991Z</time></trkpt><trkpt lat="30.81663865061099" lon="-5.620689154221543"><ele>893.0</ele><time>2026-03-25T13:56:51.991Z</time></trkpt><trkpt lat="30.81665242749967" lon="-5.620845983841214"><ele>893.0</ele><time>2026-03-25T13:56:52.991Z</time></trkpt><trkpt lat="30.81668277110348" lon="-5.621015926076701"><ele>893.0</ele><time>2026-03-25T13:56:53.991Z</time></trkpt><trkpt lat="30.81673732254177" lon="-5.62119112316404"><ele>893.0</ele><time>2026-03-25T13:56:54.991Z</time></trkpt><trkpt lat="30.81679166948974" lon="-5.62137212181505"><ele>892.3333333333334</ele><time>2026-03-25T13:56:55.991Z</time></trkpt><trkpt lat="30.816843514621848" lon="-5.621548123510288"><ele>891.6666666666667</ele><time>2026-03-25T13:56:56.991Z</time></trkpt><trkpt lat="30.816890059666218" lon="-5.6217139577723385"><ele>891.0</ele><time>2026-03-25T13:56:57.991Z</time></trkpt><trkpt lat="30.81694558063542" lon="-5.621882373085134"><ele>891.6666666666667</ele><time>2026-03-25T13:56:58.991Z</time></trkpt><trkpt lat="30.816998552584085" lon="-5.622050291948639"><ele>892.3333333333334</ele><time>2026-03-25T13:56:59.991Z</time></trkpt><trkpt lat="30.817057512854618" lon="-5.622243873563821"><ele>893.0</ele><time>2026-03-25T13:57:00.991Z</time></trkpt><trkpt lat="30.817119438594297" lon="-5.622441164869906"><ele>893.0</ele><time>2026-03-25T13:57:01.991Z</time></trkpt><trkpt lat="30.81718020501769" lon="-5.622637100033269"><ele>893.0</ele><time>2026-03-25T13:57:02.991Z</time></trkpt><trkpt lat="30.81725010527778" lon="-5.622845905831795"><ele>893.0</ele><time>2026-03-25T13:57:03.991Z</time></trkpt><trkpt lat="30.81731689439741" lon="-5.623054022380265"><ele>892.6666666666667</ele><time>2026-03-25T13:57:04.991Z</time></trkpt><trkpt lat="30.817387887586722" lon="-5.623241370540869"><ele>892.3333333333333</ele><time>2026-03-25T13:57:05.991Z</time></trkpt><trkpt lat="30.817457535167662" lon="-5.623426545821405"><ele>892.0</ele><time>2026-03-25T13:57:06.991Z</time></trkpt><trkpt lat="30.8175250368723" lon="-5.623620640978017"><ele>891.6666666666666</ele><time>2026-03-25T13:57:07.991Z</time></trkpt><trkpt lat="30.817602709485964" lon="-5.623831488476951"><ele>891.3333333333333</ele><time>2026-03-25T13:57:08.991Z</time></trkpt><trkpt lat="30.81768294384773" lon="-5.624048385532608"><ele>891.0</ele><time>2026-03-25T13:57:09.991Z</time></trkpt><trkpt lat="30.81775781427088" lon="-5.6242436797991955"><ele>891.0</ele><time>2026-03-25T13:57:10.991Z</time></trkpt><trkpt lat="30.817826295980016" lon="-5.624420104923197"><ele>891.0</ele><time>2026-03-25T13:57:11.991Z</time></trkpt><trkpt lat="30.817888828271723" lon="-5.624597847304767"><ele>891.0</ele><time>2026-03-25T13:57:12.991Z</time></trkpt><trkpt lat="30.81795209402174" lon="-5.6247728350335136"><ele>891.0</ele><time>2026-03-25T13:57:13.991Z</time></trkpt><trkpt lat="30.818021579027363" lon="-5.624959404204518"><ele>891.0</ele><time>2026-03-25T13:57:14.991Z</time></trkpt><trkpt lat="30.818097374240754" lon="-5.625164079316381"><ele>891.0</ele><time>2026-03-25T13:57:15.991Z</time></trkpt><trkpt lat="30.818173109739913" lon="-5.6253740340808"><ele>891.3333333333333</ele><time>2026-03-25T13:57:16.991Z</time></trkpt><trkpt lat="30.81824472387209" lon="-5.62558026074694"><ele>891.6666666666666</ele><time>2026-03-25T13:57:17.991Z</time></trkpt><trkpt lat="30.818312780345053" lon="-5.625785496064843"><ele>892.0</ele><time>2026-03-25T13:57:18.991Z</time></trkpt><trkpt lat="30.818380710388077" lon="-5.625984632802453"><ele>893.0</ele><time>2026-03-25T13:57:19.991Z</time></trkpt><trkpt lat="30.818444390843112" lon="-5.626169927281408"><ele>894.0</ele><time>2026-03-25T13:57:20.991Z</time></trkpt><trkpt lat="30.818497607979612" lon="-5.6263361796790194"><ele>895.0</ele><time>2026-03-25T13:57:21.991Z</time></trkpt><trkpt lat="30.81855051960064" lon="-5.626487119337467"><ele>895.5</ele><time>2026-03-25T13:57:22.991Z</time></trkpt><trkpt lat="30.818591217583432" lon="-5.626622808503353"><ele>896.0</ele><time>2026-03-25T13:57:23.991Z</time></trkpt><trkpt lat="30.818629951472936" lon="-5.626761173745754"><ele>896.5</ele><time>2026-03-25T13:57:24.991Z</time></trkpt><trkpt lat="30.81865152495125" lon="-5.626887760928638"><ele>897.0</ele><time>2026-03-25T13:57:25.991Z</time></trkpt><trkpt lat="30.818672020820415" lon="-5.627007058702705"><ele>897.0</ele><time>2026-03-25T13:57:26.991Z</time></trkpt><trkpt lat="30.81868818745723" lon="-5.627118547472775"><ele>897.0</ele><time>2026-03-25T13:57:27.991Z</time></trkpt><trkpt lat="30.818698706620744" lon="-5.627226412378159"><ele>897.0</ele><time>2026-03-25T13:57:28.991Z</time></trkpt><trkpt lat="30.81869786286309" lon="-5.627347297957189"><ele>897.0</ele><time>2026-03-25T13:57:29.991Z</time></trkpt><trkpt lat="30.818705673548557" lon="-5.6274649858949495"><ele>897.0</ele><time>2026-03-25T13:57:30.991Z</time></trkpt><trkpt lat="30.81871740730319" lon="-5.627567270206058"><ele>897.0</ele><time>2026-03-25T13:57:31.991Z</time></trkpt><trkpt lat="30.81873056477497" lon="-5.62766160962256"><ele>897.0</ele><time>2026-03-25T13:57:32.991Z</time></trkpt><trkpt lat="30.818740878899884" lon="-5.62775285936499"><ele>897.0</ele><time>2026-03-25T13:57:33.991Z</time></trkpt><trkpt lat="30.81875968646141" lon="-5.6278453797060495"><ele>897.0</ele><time>2026-03-25T13:57:34.991Z</time></trkpt><trkpt lat="30.81878896451611" lon="-5.627928111256118"><ele>897.0</ele><time>2026-03-25T13:57:35.991Z</time></trkpt><trkpt lat="30.81880722645863" lon="-5.628002177592964"><ele>897.0</ele><time>2026-03-25T13:57:36.991Z</time></trkpt><trkpt lat="30.81881231269799" lon="-5.628144914824756"><ele>896.8333333333334</ele><time>2026-03-25T13:57:38.991Z</time></trkpt><trkpt lat="30.818807876035127" lon="-5.628276557186919"><ele>896.6666666666667</ele><time>2026-03-25T13:57:40.991Z</time></trkpt><trkpt lat="30.81881239516738" lon="-5.628374912885541"><ele>896.5</ele><time>2026-03-25T13:57:42.991Z</time></trkpt><trkpt lat="30.81883966996195" lon="-5.628457376694201"><ele>896.3333333333334</ele><time>2026-03-25T13:57:44.991Z</time></trkpt><trkpt lat="30.818912518355933" lon="-5.628515303472235"><ele>896.1666666666667</ele><time>2026-03-25T13:57:46.991Z</time></trkpt><trkpt lat="30.818978668597538" lon="-5.628504981548658"><ele>896.0</ele><time>2026-03-25T13:57:48.991Z</time></trkpt><trkpt lat="30.819051348616647" lon="-5.62842672174258"><ele>896.0</ele><time>2026-03-25T13:57:50.991Z</time></trkpt><trkpt lat="30.819128471364678" lon="-5.628346286369658"><ele>895.9999999999999</ele><time>2026-03-25T13:57:52.991Z</time></trkpt><trkpt lat="30.819236103693353" lon="-5.628281924092477"><ele>895.9999999999999</ele><time>2026-03-25T13:57:54.991Z</time></trkpt><trkpt lat="30.81930509857935" lon="-5.628270726653783"><ele>896.0</ele><time>2026-03-25T13:57:55.991Z</time></trkpt><trkpt lat="30.819379733442315" lon="-5.628268711408545"><ele>896.0</ele><time>2026-03-25T13:57:56.991Z</time></trkpt><trkpt lat="30.819468197373073" lon="-5.628287253196425"><ele>896.1999999999999</ele><time>2026-03-25T13:57:57.991Z</time></trkpt><trkpt lat="30.819574675723846" lon="-5.628317992400687"><ele>896.3999999999999</ele><time>2026-03-25T13:57:58.991Z</time></trkpt><trkpt lat="30.819680467671297" lon="-5.628332425202851"><ele>896.6</ele><time>2026-03-25T13:57:59.991Z</time></trkpt><trkpt lat="30.819782585900956" lon="-5.6283293445275255"><ele>896.8</ele><time>2026-03-25T13:58:00.991Z</time></trkpt><trkpt lat="30.819860718231773" lon="-5.628321336106996"><ele>897.0</ele><time>2026-03-25T13:58:01.991Z</time></trkpt><trkpt lat="30.819935621465532" lon="-5.628312115215705"><ele>897.0</ele><time>2026-03-25T13:58:02.991Z</time></trkpt><trkpt lat="30.820014662531317" lon="-5.6283085204087095"><ele>897.0</ele><time>2026-03-25T13:58:03.991Z</time></trkpt><trkpt lat="30.82010069891288" lon="-5.62831181426214"><ele>897.0</ele><time>2026-03-25T13:58:04.991Z</time></trkpt><trkpt lat="30.82019291557982" lon="-5.62832615945761"><ele>897.0</ele><time>2026-03-25T13:58:05.991Z</time></trkpt><trkpt lat="30.820291948891757" lon="-5.628353085420496"><ele>897.0</ele><time>2026-03-25T13:58:06.991Z</time></trkpt><trkpt lat="30.82040595391637" lon="-5.628389917693609"><ele>898.3333333333333</ele><time>2026-03-25T13:58:07.991Z</time></trkpt><trkpt lat="30.820544920954607" lon="-5.628436694557633"><ele>899.6666666666666</ele><time>2026-03-25T13:58:08.991Z</time></trkpt><trkpt lat="30.820704349491727" lon="-5.6284978466743665"><ele>901.0</ele><time>2026-03-25T13:58:09.991Z</time></trkpt><trkpt lat="30.820884625770102" lon="-5.628559572310312"><ele>900.75</ele><time>2026-03-25T13:58:10.991Z</time></trkpt><trkpt lat="30.821035995222353" lon="-5.628615393083661"><ele>900.5</ele><time>2026-03-25T13:58:11.991Z</time></trkpt><trkpt lat="30.821162807116956" lon="-5.628666530825305"><ele>900.25</ele><time>2026-03-25T13:58:12.991Z</time></trkpt><trkpt lat="30.821280338258266" lon="-5.628712985886689"><ele>900.0</ele><time>2026-03-25T13:58:13.991Z</time></trkpt><trkpt lat="30.82139353368564" lon="-5.62874855298533"><ele>900.0</ele><time>2026-03-25T13:58:14.99Z</time></trkpt><trkpt lat="30.821506271425566" lon="-5.628790162323239"><ele>900.0</ele><time>2026-03-25T13:58:15.991Z</time></trkpt><trkpt lat="30.82162601976706" lon="-5.628823641542464"><ele>900.0</ele><time>2026-03-25T13:58:16.991Z</time></trkpt><trkpt lat="30.821749491650124" lon="-5.628848607226509"><ele>900.0</ele><time>2026-03-25T13:58:17.991Z</time></trkpt><trkpt lat="30.82185723608662" lon="-5.628876285538683"><ele>900.0</ele><time>2026-03-25T13:58:18.99Z</time></trkpt><trkpt lat="30.8219699631508" lon="-5.628899044209591"><ele>900.0</ele><time>2026-03-25T13:58:19.99Z</time></trkpt><trkpt lat="30.822079450123134" lon="-5.6289247676558105"><ele>900.0</ele><time>2026-03-25T13:58:20.99Z</time></trkpt><trkpt lat="30.82219634266941" lon="-5.62895831197766"><ele>900.0</ele><time>2026-03-25T13:58:21.99Z</time></trkpt><trkpt lat="30.82231500025511" lon="-5.628987182888168"><ele>900.0</ele><time>2026-03-25T13:58:22.99Z</time></trkpt><trkpt lat="30.822437884913175" lon="-5.629014286998552"><ele>900.0</ele><time>2026-03-25T13:58:23.99Z</time></trkpt><trkpt lat="30.82255882558973" lon="-5.629040685682683"><ele>900.0</ele><time>2026-03-25T13:58:24.99Z</time></trkpt><trkpt lat="30.822698177709558" lon="-5.629067230454502"><ele>900.0</ele><time>2026-03-25T13:58:25.99Z</time></trkpt><trkpt lat="30.822841758413865" lon="-5.62910213337142"><ele>900.6666666666667</ele><time>2026-03-25T13:58:26.99Z</time></trkpt><trkpt lat="30.822980706518965" lon="-5.629162213315066"><ele>901.3333333333334</ele><time>2026-03-25T13:58:27.99Z</time></trkpt><trkpt lat="30.823116105261942" lon="-5.629251206662903"><ele>902.0</ele><time>2026-03-25T13:58:28.99Z</time></trkpt><trkpt lat="30.823260956028733" lon="-5.629343942741508"><ele>902.0</ele><time>2026-03-25T13:58:29.99Z</time></trkpt><trkpt lat="30.823419205446257" lon="-5.62942676200789"><ele>902.0</ele><time>2026-03-25T13:58:30.99Z</time></trkpt><trkpt lat="30.823554632279507" lon="-5.629498129756085"><ele>902.0</ele><time>2026-03-25T13:58:31.99Z</time></trkpt><trkpt lat="30.82368737904572" lon="-5.629569483307166"><ele>902.5</ele><time>2026-03-25T13:58:32.99Z</time></trkpt><trkpt lat="30.823821187628877" lon="-5.629628043203187"><ele>903.0</ele><time>2026-03-25T13:58:33.99Z</time></trkpt><trkpt lat="30.823953340293638" lon="-5.629683409149981"><ele>903.5</ele><time>2026-03-25T13:58:34.99Z</time></trkpt><trkpt lat="30.82409075949944" lon="-5.629731542601859"><ele>904.0</ele><time>2026-03-25T13:58:35.99Z</time></trkpt><trkpt lat="30.82423063444414" lon="-5.6297772620064634"><ele>904.5</ele><time>2026-03-25T13:58:36.99Z</time></trkpt><trkpt lat="30.824371873416233" lon="-5.6298239571908875"><ele>905.0</ele><time>2026-03-25T13:58:37.99Z</time></trkpt><trkpt lat="30.824497344856066" lon="-5.629874856415645"><ele>905.5</ele><time>2026-03-25T13:58:38.99Z</time></trkpt><trkpt lat="30.82462040522511" lon="-5.629935677981061"><ele>906.0</ele><time>2026-03-25T13:58:39.99Z</time></trkpt><trkpt lat="30.82474350660519" lon="-5.629999909769349"><ele>906.0</ele><time>2026-03-25T13:58:40.99Z</time></trkpt><trkpt lat="30.824862367724222" lon="-5.630067835244501"><ele>906.0</ele><time>2026-03-25T13:58:41.99Z</time></trkpt><trkpt lat="30.82499077155264" lon="-5.630132007423734"><ele>906.0</ele><time>2026-03-25T13:58:42.99Z</time></trkpt><trkpt lat="30.825106282646427" lon="-5.630199646127564"><ele>906.0</ele><time>2026-03-25T13:58:43.99Z</time></trkpt><trkpt lat="30.82522594878877" lon="-5.6302639569054005"><ele>907.0</ele><time>2026-03-25T13:58:44.99Z</time></trkpt><trkpt lat="30.82532881850149" lon="-5.630332989757161"><ele>908.0</ele><time>2026-03-25T13:58:45.99Z</time></trkpt><trkpt lat="30.825430766892715" lon="-5.630413590957982"><ele>909.0</ele><time>2026-03-25T13:58:46.99Z</time></trkpt><trkpt lat="30.82553584521033" lon="-5.630502437063956"><ele>910.0</ele><time>2026-03-25T13:58:47.99Z</time></trkpt><trkpt lat="30.825646388533805" lon="-5.630586137670222"><ele>910.0</ele><time>2026-03-25T13:58:48.99Z</time></trkpt><trkpt lat="30.82577330141665" lon="-5.630655636037488"><ele>910.0</ele><time>2026-03-25T13:58:49.99Z</time></trkpt><trkpt lat="30.82589586097275" lon="-5.630723616970359"><ele>910.0</ele><time>2026-03-25T13:58:50.99Z</time></trkpt><trkpt lat="30.826015073959656" lon="-5.630795482833167"><ele>910.0</ele><time>2026-03-25T13:58:51.99Z</time></trkpt><trkpt lat="30.826137358448463" lon="-5.630862336901369"><ele>910.25</ele><time>2026-03-25T13:58:52.99Z</time></trkpt><trkpt lat="30.82625797770205" lon="-5.630920441087066"><ele>910.5</ele><time>2026-03-25T13:58:53.99Z</time></trkpt><trkpt lat="30.82638006347698" lon="-5.630974057496864"><ele>910.75</ele><time>2026-03-25T13:58:54.99Z</time></trkpt><trkpt lat="30.82651392196811" lon="-5.631020376205782"><ele>911.0</ele><time>2026-03-25T13:58:55.99Z</time></trkpt><trkpt lat="30.826640174803554" lon="-5.631088831881152"><ele>911.0</ele><time>2026-03-25T13:58:56.99Z</time></trkpt><trkpt lat="30.82675792815254" lon="-5.631157812643029"><ele>911.0</ele><time>2026-03-25T13:58:57.99Z</time></trkpt><trkpt lat="30.826872282693472" lon="-5.631224543523559"><ele>911.0</ele><time>2026-03-25T13:58:58.99Z</time></trkpt><trkpt lat="30.826970079153156" lon="-5.631300955013527"><ele>911.0</ele><time>2026-03-25T13:58:59.99Z</time></trkpt><trkpt lat="30.827065032719403" lon="-5.631375592433528"><ele>911.1999999999999</ele><time>2026-03-25T13:59:00.99Z</time></trkpt><trkpt lat="30.827154192881363" lon="-5.631447433255977"><ele>911.3999999999999</ele><time>2026-03-25T13:59:01.99Z</time></trkpt><trkpt lat="30.827252186651567" lon="-5.631502364174316"><ele>911.6</ele><time>2026-03-25T13:59:02.99Z</time></trkpt><trkpt lat="30.827357913346546" lon="-5.631549828316384"><ele>911.8</ele><time>2026-03-25T13:59:03.99Z</time></trkpt><trkpt lat="30.827458223263605" lon="-5.631590767318261"><ele>912.0</ele><time>2026-03-25T13:59:04.99Z</time></trkpt><trkpt lat="30.827564207302817" lon="-5.631628543830291"><ele>912.8</ele><time>2026-03-25T13:59:05.99Z</time></trkpt><trkpt lat="30.82766935595575" lon="-5.631664804311672"><ele>913.6</ele><time>2026-03-25T13:59:06.99Z</time></trkpt><trkpt lat="30.827766324262722" lon="-5.631697034993139"><ele>914.3999999999999</ele><time>2026-03-25T13:59:07.99Z</time></trkpt><trkpt lat="30.827864957481616" lon="-5.631727749908858"><ele>915.1999999999999</ele><time>2026-03-25T13:59:08.99Z</time></trkpt><trkpt lat="30.82796153108226" lon="-5.631762637809871"><ele>916.0</ele><time>2026-03-25T13:59:09.99Z</time></trkpt><trkpt lat="30.828054146588546" lon="-5.631808717402552"><ele>916.0</ele><time>2026-03-25T13:59:10.99Z</time></trkpt><trkpt lat="30.828152357538027" lon="-5.631852808222595"><ele>915.9999999999999</ele><time>2026-03-25T13:59:11.99Z</time></trkpt><trkpt lat="30.828257792325736" lon="-5.631894772520839"><ele>915.9999999999999</ele><time>2026-03-25T13:59:12.99Z</time></trkpt><trkpt lat="30.82836015173504" lon="-5.6319391437163135"><ele>916.0</ele><time>2026-03-25T13:59:13.99Z</time></trkpt><trkpt lat="30.82845313773551" lon="-5.632010407570892"><ele>916.0</ele><time>2026-03-25T13:59:14.99Z</time></trkpt><trkpt lat="30.828545422616497" lon="-5.632117798659029"><ele>917.0</ele><time>2026-03-25T13:59:15.99Z</time></trkpt><trkpt lat="30.82864600128983" lon="-5.632222077688621"><ele>918.0</ele><time>2026-03-25T13:59:16.99Z</time></trkpt><trkpt lat="30.828738054450092" lon="-5.632316179847692"><ele>919.0</ele><time>2026-03-25T13:59:17.99Z</time></trkpt><trkpt lat="30.82882930917346" lon="-5.632407407405917"><ele>920.0</ele><time>2026-03-25T13:59:18.99Z</time></trkpt><trkpt lat="30.828920640800163" lon="-5.632491643334779"><ele>920.0</ele><time>2026-03-25T13:59:19.99Z</time></trkpt><trkpt lat="30.829011740203924" lon="-5.6325746320910515"><ele>920.0</ele><time>2026-03-25T13:59:20.99Z</time></trkpt><trkpt lat="30.829098653051567" lon="-5.6326550483251605"><ele>920.0</ele><time>2026-03-25T13:59:21.99Z</time></trkpt><trkpt lat="30.829188780305817" lon="-5.632732628899353"><ele>920.0</ele><time>2026-03-25T13:59:22.99Z</time></trkpt><trkpt lat="30.829278962949754" lon="-5.632805199208537"><ele>920.0</ele><time>2026-03-25T13:59:23.99Z</time></trkpt><trkpt lat="30.829365479590223" lon="-5.632884160364646"><ele>920.2</ele><time>2026-03-25T13:59:24.99Z</time></trkpt><trkpt lat="30.82945146749602" lon="-5.632951599641999"><ele>920.4</ele><time>2026-03-25T13:59:25.99Z</time></trkpt><trkpt lat="30.82954180878045" lon="-5.633005725037521"><ele>920.5999999999999</ele><time>2026-03-25T13:59:26.99Z</time></trkpt><trkpt lat="30.829625593420765" lon="-5.633057302126944"><ele>920.8</ele><time>2026-03-25T13:59:27.99Z</time></trkpt><trkpt lat="30.829701768725897" lon="-5.633105301197454"><ele>921.0</ele><time>2026-03-25T13:59:28.99Z</time></trkpt><trkpt lat="30.82977313279437" lon="-5.63314291217962"><ele>921.0</ele><time>2026-03-25T13:59:29.99Z</time></trkpt><trkpt lat="30.829865375449415" lon="-5.633185076290907"><ele>921.0</ele><time>2026-03-25T13:59:30.99Z</time></trkpt><trkpt lat="30.829949473289144" lon="-5.633217537902139"><ele>921.0</ele><time>2026-03-25T13:59:31.99Z</time></trkpt><trkpt lat="30.83002135557718" lon="-5.633250373874275"><ele>921.0</ele><time>2026-03-25T13:59:32.99Z</time></trkpt><trkpt lat="30.830079063032382" lon="-5.633282604877417"><ele>921.0</ele><time>2026-03-25T13:59:33.99Z</time></trkpt><trkpt lat="30.830157787390476" lon="-5.633336111778825"><ele>921.0</ele><time>2026-03-25T13:59:35.99Z</time></trkpt><trkpt lat="30.830216538256888" lon="-5.633392751817047"><ele>921.5999999999999</ele><time>2026-03-25T13:59:37.99Z</time></trkpt><trkpt lat="30.830266945998165" lon="-5.633480241457017"><ele>922.1999999999999</ele><time>2026-03-25T13:59:39.99Z</time></trkpt><trkpt lat="30.830305580145737" lon="-5.633578795161233"><ele>922.8000000000001</ele><time>2026-03-25T13:59:41.99Z</time></trkpt><trkpt lat="30.830370844225985" lon="-5.633691221245403"><ele>923.4000000000001</ele><time>2026-03-25T13:59:43.99Z</time></trkpt><trkpt lat="30.83042625038918" lon="-5.63372802141897"><ele>924.0</ele><time>2026-03-25T13:59:44.99Z</time></trkpt><trkpt lat="30.83052057502043" lon="-5.633785560502851"><ele>924.0</ele><time>2026-03-25T13:59:46.99Z</time></trkpt><trkpt lat="30.830600738096763" lon="-5.633859980178892"><ele>924.0000000000001</ele><time>2026-03-25T13:59:48.99Z</time></trkpt><trkpt lat="30.830674418570364" lon="-5.63395701936306"><ele>924.0000000000001</ele><time>2026-03-25T13:59:50.99Z</time></trkpt><trkpt lat="30.830745967461286" lon="-5.634060814035968"><ele>924.0</ele><time>2026-03-25T13:59:52.99Z</time></trkpt><trkpt lat="30.83084260072395" lon="-5.634123059030338"><ele>924.0</ele><time>2026-03-25T13:59:54.99Z</time></trkpt><trkpt lat="30.830911304611206" lon="-5.634161705659554"><ele>924.8333333333334</ele><time>2026-03-25T13:59:55.99Z</time></trkpt><trkpt lat="30.83098468894901" lon="-5.634191951455676"><ele>925.6666666666667</ele><time>2026-03-25T13:59:56.99Z</time></trkpt><trkpt lat="30.831064334381153" lon="-5.634221185242334"><ele>926.5</ele><time>2026-03-25T13:59:57.99Z</time></trkpt><trkpt lat="30.831135286036798" lon="-5.634227290364129"><ele>927.3333333333334</ele><time>2026-03-25T13:59:58.99Z</time></trkpt><trkpt lat="30.831212800014892" lon="-5.634223707724818"><ele>928.1666666666667</ele><time>2026-03-25T13:59:59.99Z</time></trkpt><trkpt lat="30.831294694619007" lon="-5.634218838547615"><ele>929.0</ele><time>2026-03-25T14:00:00.99Z</time></trkpt><trkpt lat="30.831381707542988" lon="-5.634203197675009"><ele>929.0</ele><time>2026-03-25T14:00:01.99Z</time></trkpt><trkpt lat="30.83146709179382" lon="-5.6341839050629385"><ele>929.0000000000001</ele><time>2026-03-25T14:00:02.99Z</time></trkpt><trkpt lat="30.83153104198277" lon="-5.634179176290804"><ele>929.0000000000001</ele><time>2026-03-25T14:00:03.99Z</time></trkpt><trkpt lat="30.83164822281111" lon="-5.634156530509098"><ele>929.0</ele><time>2026-03-25T14:00:05.99Z</time></trkpt><trkpt lat="30.831766799380507" lon="-5.634145692734368"><ele>929.0</ele><time>2026-03-25T14:00:07.99Z</time></trkpt><trkpt lat="30.831833713904345" lon="-5.6341183590654795"><ele>929.6</ele><time>2026-03-25T14:00:08.99Z</time></trkpt><trkpt lat="30.831941230001597" lon="-5.6340974295052115"><ele>930.2</ele><time>2026-03-25T14:00:10.99Z</time></trkpt><trkpt lat="30.83206111285755" lon="-5.634147846378921"><ele>930.8000000000001</ele><time>2026-03-25T14:00:12.991Z</time></trkpt><trkpt lat="30.83212548003205" lon="-5.6341717144172945"><ele>931.4000000000001</ele><time>2026-03-25T14:00:13.991Z</time></trkpt><trkpt lat="30.832203462474677" lon="-5.634181305013754"><ele>932.0</ele><time>2026-03-25T14:00:14.991Z</time></trkpt><trkpt lat="30.83228882171845" lon="-5.634183260937519"><ele>932.0000000000001</ele><time>2026-03-25T14:00:15.991Z</time></trkpt><trkpt lat="30.832375365024536" lon="-5.634187272414479"><ele>932.0</ele><time>2026-03-25T14:00:16.991Z</time></trkpt><trkpt lat="30.832468147847383" lon="-5.634193650926266"><ele>932.0</ele><time>2026-03-25T14:00:17.991Z</time></trkpt><trkpt lat="30.83255747103553" lon="-5.634202838904864"><ele>932.0</ele><time>2026-03-25T14:00:18.991Z</time></trkpt><trkpt lat="30.832643646893892" lon="-5.634210200435408"><ele>932.0000000000001</ele><time>2026-03-25T14:00:19.991Z</time></trkpt><trkpt lat="30.832716534195004" lon="-5.634233104088689"><ele>932.0</ele><time>2026-03-25T14:00:20.991Z</time></trkpt><trkpt lat="30.832778188749963" lon="-5.634257083904337"><ele>933.0</ele><time>2026-03-25T14:00:21.991Z</time></trkpt><trkpt lat="30.832837304167864" lon="-5.634283333901224"><ele>934.0</ele><time>2026-03-25T14:00:22.991Z</time></trkpt><trkpt lat="30.832939667499115" lon="-5.6343347434672495"><ele>935.0</ele><time>2026-03-25T14:00:24.991Z</time></trkpt><trkpt lat="30.833053007943416" lon="-5.634376125099233"><ele>936.0</ele><time>2026-03-25T14:00:26.991Z</time></trkpt><trkpt lat="30.833115257126707" lon="-5.634424016043618"><ele>937.0</ele><time>2026-03-25T14:00:27.991Z</time></trkpt><trkpt lat="30.833187535254627" lon="-5.634471428876831"><ele>936.9999999999999</ele><time>2026-03-25T14:00:28.991Z</time></trkpt><trkpt lat="30.833254401163185" lon="-5.63453760481242"><ele>937.0</ele><time>2026-03-25T14:00:29.991Z</time></trkpt><trkpt lat="30.83331490848791" lon="-5.634597950138587"><ele>937.0</ele><time>2026-03-25T14:00:30.991Z</time></trkpt><trkpt lat="30.83337292154901" lon="-5.634663999252955"><ele>937.0</ele><time>2026-03-25T14:00:31.991Z</time></trkpt><trkpt lat="30.83343081781728" lon="-5.634729090864351"><ele>936.9999999999999</ele><time>2026-03-25T14:00:32.991Z</time></trkpt><trkpt lat="30.833491179225028" lon="-5.634771797619229"><ele>937.0</ele><time>2026-03-25T14:00:33.992Z</time></trkpt><trkpt lat="30.833555919140345" lon="-5.634806256530062"><ele>937.0</ele><time>2026-03-25T14:00:34.992Z</time></trkpt><trkpt lat="30.833624970267557" lon="-5.634830416746831"><ele>937.0</ele><time>2026-03-25T14:00:35.992Z</time></trkpt><trkpt lat="30.833728875691914" lon="-5.6349084077911575"><ele>937.0</ele><time>2026-03-25T14:00:37.992Z</time></trkpt><trkpt lat="30.833843337173843" lon="-5.634977854119202"><ele>937.0</ele><time>2026-03-25T14:00:39.992Z</time></trkpt><trkpt lat="30.833917248766006" lon="-5.634998341315123"><ele>937.0</ele><time>2026-03-25T14:00:40.992Z</time></trkpt><trkpt lat="30.833993615787012" lon="-5.635036612194195"><ele>936.9999999999999</ele><time>2026-03-25T14:00:41.992Z</time></trkpt><trkpt lat="30.834080077049467" lon="-5.635065968233282"><ele>937.0</ele><time>2026-03-25T14:00:42.992Z</time></trkpt><trkpt lat="30.83415633184045" lon="-5.635093521732832"><ele>937.0</ele><time>2026-03-25T14:00:43.992Z</time></trkpt><trkpt lat="30.834220760174862" lon="-5.635129613784039"><ele>937.0</ele><time>2026-03-25T14:00:44.992Z</time></trkpt><trkpt lat="30.834285751152077" lon="-5.635156991801997"><ele>936.9999999999999</ele><time>2026-03-25T14:00:45.992Z</time></trkpt><trkpt lat="30.834359440889344" lon="-5.635195239693188"><ele>937.0</ele><time>2026-03-25T14:00:46.992Z</time></trkpt><trkpt lat="30.83442105633974" lon="-5.635230725207222"><ele>937.3333333333333</ele><time>2026-03-25T14:00:47.992Z</time></trkpt><trkpt lat="30.8345042069085" lon="-5.635264870019043"><ele>937.6666666666666</ele><time>2026-03-25T14:00:48.992Z</time></trkpt><trkpt lat="30.83459506954313" lon="-5.635294475230142"><ele>938.0</ele><time>2026-03-25T14:00:49.992Z</time></trkpt><trkpt lat="30.834684443942063" lon="-5.635320196767576"><ele>938.3333333333333</ele><time>2026-03-25T14:00:50.992Z</time></trkpt><trkpt lat="30.834773234005215" lon="-5.63533020640107"><ele>938.6666666666666</ele><time>2026-03-25T14:00:51.992Z</time></trkpt><trkpt lat="30.834836706670572" lon="-5.635323629892842"><ele>939.0</ele><time>2026-03-25T14:00:52.992Z</time></trkpt><trkpt lat="30.834952109080213" lon="-5.6353238901292215"><ele>938.8333333333334</ele><time>2026-03-25T14:00:54.992Z</time></trkpt><trkpt lat="30.835078657546894" lon="-5.635306935619009"><ele>938.6666666666667</ele><time>2026-03-25T14:00:56.992Z</time></trkpt><trkpt lat="30.83514182540173" lon="-5.6352634504473365"><ele>938.5</ele><time>2026-03-25T14:00:57.992Z</time></trkpt><trkpt lat="30.835212547297836" lon="-5.635217615846491"><ele>938.3333333333334</ele><time>2026-03-25T14:00:58.992Z</time></trkpt><trkpt lat="30.83527704229429" lon="-5.6351772607036"><ele>938.1666666666667</ele><time>2026-03-25T14:00:59.992Z</time></trkpt><trkpt lat="30.835335192078333" lon="-5.63514336775072"><ele>938.0</ele><time>2026-03-25T14:01:00.992Z</time></trkpt><trkpt lat="30.835439441924773" lon="-5.635086983092581"><ele>938.0000000000001</ele><time>2026-03-25T14:01:02.992Z</time></trkpt><trkpt lat="30.835507056485334" lon="-5.635068636112193"><ele>938.0</ele><time>2026-03-25T14:01:03.992Z</time></trkpt><trkpt lat="30.835565055423643" lon="-5.635033408565426"><ele>938.0</ele><time>2026-03-25T14:01:04.992Z</time></trkpt><trkpt lat="30.835657151953786" lon="-5.634956617860964"><ele>938.0</ele><time>2026-03-25T14:01:06.992Z</time></trkpt><trkpt lat="30.835747240365063" lon="-5.634891551671553"><ele>938.0000000000001</ele><time>2026-03-25T14:01:08.992Z</time></trkpt><trkpt lat="30.83581876126722" lon="-5.634848534032114"><ele>938.0</ele><time>2026-03-25T14:01:11.992Z</time></trkpt><trkpt lat="30.8358853796651" lon="-5.634858834464678"><ele>938.2</ele><time>2026-03-25T14:01:13.992Z</time></trkpt><trkpt lat="30.836016016907994" lon="-5.634840513337606"><ele>938.4</ele><time>2026-03-25T14:01:15.992Z</time></trkpt><trkpt lat="30.836136774397055" lon="-5.634831954958375"><ele>938.6000000000001</ele><time>2026-03-25T14:01:17.992Z</time></trkpt><trkpt lat="30.83620896355154" lon="-5.63483466969085"><ele>938.8000000000001</ele><time>2026-03-25T14:01:18.992Z</time></trkpt><trkpt lat="30.836286921211308" lon="-5.634813712898899"><ele>939.0</ele><time>2026-03-25T14:01:19.992Z</time></trkpt><trkpt lat="30.836351324193934" lon="-5.634794564970347"><ele>939.0</ele><time>2026-03-25T14:01:20.992Z</time></trkpt><trkpt lat="30.836417451434535" lon="-5.634774309244679"><ele>939.0</ele><time>2026-03-25T14:01:21.992Z</time></trkpt><trkpt lat="30.836479361575876" lon="-5.634750850413026"><ele>939.0</ele><time>2026-03-25T14:01:22.992Z</time></trkpt><trkpt lat="30.836597481073376" lon="-5.634734679893421"><ele>939.0</ele><time>2026-03-25T14:01:24.992Z</time></trkpt><trkpt lat="30.836665449462046" lon="-5.634737371504006"><ele>939.0</ele><time>2026-03-25T14:01:25.992Z</time></trkpt><trkpt lat="30.836731743146057" lon="-5.634741869617332"><ele>939.0</ele><time>2026-03-25T14:01:26.992Z</time></trkpt><trkpt lat="30.836804895139156" lon="-5.634741697960728"><ele>939.0</ele><time>2026-03-25T14:01:27.992Z</time></trkpt><trkpt lat="30.836884598979516" lon="-5.634740322517977"><ele>939.0</ele><time>2026-03-25T14:01:28.992Z</time></trkpt><trkpt lat="30.8369595236817" lon="-5.634734777433941"><ele>939.0</ele><time>2026-03-25T14:01:29.992Z</time></trkpt><trkpt lat="30.83704575443179" lon="-5.634721467082017"><ele>939.0</ele><time>2026-03-25T14:01:30.992Z</time></trkpt><trkpt lat="30.83711840577575" lon="-5.63470709212956"><ele>939.0</ele><time>2026-03-25T14:01:31.992Z</time></trkpt><trkpt lat="30.837188393453484" lon="-5.634679726964762"><ele>939.0</ele><time>2026-03-25T14:01:32.992Z</time></trkpt><trkpt lat="30.837246830432303" lon="-5.6346461037255615"><ele>939.0</ele><time>2026-03-25T14:01:33.992Z</time></trkpt><trkpt lat="30.83734356145728" lon="-5.634574249209963"><ele>939.0</ele><time>2026-03-25T14:01:35.992Z</time></trkpt><trkpt lat="30.83743711483057" lon="-5.634541401840848"><ele>939.0</ele><time>2026-03-25T14:01:37.992Z</time></trkpt><trkpt lat="30.837504181403844" lon="-5.63451506115788"><ele>939.0</ele><time>2026-03-25T14:01:38.992Z</time></trkpt><trkpt lat="30.837568670258236" lon="-5.634491883779991"><ele>939.0</ele><time>2026-03-25T14:01:39.992Z</time></trkpt><trkpt lat="30.837633918801238" lon="-5.634474347539646"><ele>939.0</ele><time>2026-03-25T14:01:40.992Z</time></trkpt><trkpt lat="30.837710135607594" lon="-5.634454263775106"><ele>939.8000000000001</ele><time>2026-03-25T14:01:41.992Z</time></trkpt><trkpt lat="30.837772440586704" lon="-5.634437065380539"><ele>940.6000000000001</ele><time>2026-03-25T14:01:42.992Z</time></trkpt><trkpt lat="30.837864482572925" lon="-5.6344023599173685"><ele>941.4</ele><time>2026-03-25T14:01:44.992Z</time></trkpt><trkpt lat="30.83793819394229" lon="-5.6343556431523485"><ele>942.2</ele><time>2026-03-25T14:01:49.992Z</time></trkpt><trkpt lat="30.83808520263709" lon="-5.634279466120176"><ele>943.0</ele><time>2026-03-25T14:01:51.992Z</time></trkpt><trkpt lat="30.838198159341626" lon="-5.634215264847027"><ele>943.0</ele><time>2026-03-25T14:01:52.992Z</time></trkpt><trkpt lat="30.838301292226543" lon="-5.634120805348691"><ele>943.0</ele><time>2026-03-25T14:01:53.992Z</time></trkpt><trkpt lat="30.838399118370955" lon="-5.634041331547243"><ele>943.0</ele><time>2026-03-25T14:01:54.992Z</time></trkpt><trkpt lat="30.83849012418232" lon="-5.633974353951677"><ele>943.0</ele><time>2026-03-25T14:01:55.992Z</time></trkpt><trkpt lat="30.838573217506376" lon="-5.633916801684135"><ele>944.6666666666666</ele><time>2026-03-25T14:01:56.992Z</time></trkpt><trkpt lat="30.838646198059717" lon="-5.633855707540464"><ele>946.3333333333333</ele><time>2026-03-25T14:01:57.992Z</time></trkpt><trkpt lat="30.838703193440722" lon="-5.633792593090223"><ele>948.0</ele><time>2026-03-25T14:01:59.992Z</time></trkpt><trkpt lat="30.83879791300323" lon="-5.633758898756149"><ele>949.6666666666667</ele><time>2026-03-25T14:02:01.992Z</time></trkpt><trkpt lat="30.83885310110159" lon="-5.6337056188643055"><ele>951.3333333333334</ele><time>2026-03-25T14:02:04.992Z</time></trkpt><trkpt lat="30.838929160736676" lon="-5.633677628798392"><ele>953.0</ele><time>2026-03-25T14:02:07.992Z</time></trkpt><trkpt lat="30.838999249169795" lon="-5.633658009829536"><ele>953.0</ele><time>2026-03-25T14:02:09.992Z</time></trkpt><trkpt lat="30.839087867994305" lon="-5.63368598123898"><ele>953.0</ele><time>2026-03-25T14:02:11.992Z</time></trkpt><trkpt lat="30.8391922136174" lon="-5.633705037368825"><ele>953.0</ele><time>2026-03-25T14:02:13.992Z</time></trkpt><trkpt lat="30.839258466314057" lon="-5.633711648703396"><ele>953.0</ele><time>2026-03-25T14:02:14.992Z</time></trkpt><trkpt lat="30.839360832287362" lon="-5.633662072066879"><ele>953.0</ele><time>2026-03-25T14:02:16.992Z</time></trkpt><trkpt lat="30.83946254098954" lon="-5.63360848321441"><ele>953.0000000000001</ele><time>2026-03-25T14:02:18.991Z</time></trkpt><trkpt lat="30.839526299207716" lon="-5.633626636791959"><ele>953.0</ele><time>2026-03-25T14:02:19.991Z</time></trkpt><trkpt lat="30.839589664965928" lon="-5.633648120399306"><ele>953.0</ele><time>2026-03-25T14:02:20.991Z</time></trkpt><trkpt lat="30.839658886084113" lon="-5.633657149684283"><ele>953.0</ele><time>2026-03-25T14:02:21.991Z</time></trkpt><trkpt lat="30.839777125654948" lon="-5.633666667316129"><ele>953.0000000000001</ele><time>2026-03-25T14:02:23.991Z</time></trkpt><trkpt lat="30.839844608441766" lon="-5.63366022438776"><ele>953.0</ele><time>2026-03-25T14:02:24.991Z</time></trkpt><trkpt lat="30.839922523348434" lon="-5.633652565518036"><ele>953.1666666666667</ele><time>2026-03-25T14:02:25.991Z</time></trkpt><trkpt lat="30.840005705485872" lon="-5.633644875869265"><ele>953.3333333333334</ele><time>2026-03-25T14:02:26.991Z</time></trkpt><trkpt lat="30.840070366911274" lon="-5.63364511921791"><ele>953.5</ele><time>2026-03-25T14:02:27.991Z</time></trkpt><trkpt lat="30.840137158570666" lon="-5.633658742604669"><ele>953.6666666666667</ele><time>2026-03-25T14:02:28.991Z</time></trkpt><trkpt lat="30.840221626260412" lon="-5.63367522305071"><ele>953.8333333333334</ele><time>2026-03-25T14:02:29.991Z</time></trkpt><trkpt lat="30.840319962091513" lon="-5.633677025749033"><ele>954.0</ele><time>2026-03-25T14:02:30.991Z</time></trkpt><trkpt lat="30.840407080495204" lon="-5.6336717829553"><ele>954.2</ele><time>2026-03-25T14:02:31.991Z</time></trkpt><trkpt lat="30.840496678321692" lon="-5.633638047883737"><ele>954.4000000000001</ele><time>2026-03-25T14:02:32.991Z</time></trkpt><trkpt lat="30.840596848930552" lon="-5.633600078760666"><ele>954.6</ele><time>2026-03-25T14:02:33.991Z</time></trkpt><trkpt lat="30.840682895967944" lon="-5.63358580481779"><ele>954.8</ele><time>2026-03-25T14:02:34.991Z</time></trkpt><trkpt lat="30.840752236708305" lon="-5.6335814138180105"><ele>955.0</ele><time>2026-03-25T14:02:35.991Z</time></trkpt><trkpt lat="30.840849093654253" lon="-5.633565154347042"><ele>955.4</ele><time>2026-03-25T14:02:37.991Z</time></trkpt><trkpt lat="30.84098101699648" lon="-5.633603353510028"><ele>955.8</ele><time>2026-03-25T14:02:39.991Z</time></trkpt><trkpt lat="30.841059257853235" lon="-5.633616594360017"><ele>956.2</ele><time>2026-03-25T14:02:40.991Z</time></trkpt><trkpt lat="30.841154143561635" lon="-5.633626190837818"><ele>956.6</ele><time>2026-03-25T14:02:41.991Z</time></trkpt><trkpt lat="30.841256936118537" lon="-5.633624693720096"><ele>957.0</ele><time>2026-03-25T14:02:42.991Z</time></trkpt><trkpt lat="30.841361175276376" lon="-5.633601897774891"><ele>957.0</ele><time>2026-03-25T14:02:43.991Z</time></trkpt><trkpt lat="30.841436378499708" lon="-5.633610489722581"><ele>957.0</ele><time>2026-03-25T14:02:44.991Z</time></trkpt><trkpt lat="30.8414944224317" lon="-5.633649203289803"><ele>957.0</ele><time>2026-03-25T14:02:45.991Z</time></trkpt><trkpt lat="30.84156012097792" lon="-5.633696242884377"><ele>957.0</ele><time>2026-03-25T14:02:46.991Z</time></trkpt><trkpt lat="30.84162022556449" lon="-5.63373332860633"><ele>957.0</ele><time>2026-03-25T14:02:47.991Z</time></trkpt><trkpt lat="30.841696529283467" lon="-5.633762125375284"><ele>957.0</ele><time>2026-03-25T14:02:48.991Z</time></trkpt><trkpt lat="30.841781335708326" lon="-5.633769863766013"><ele>958.0</ele><time>2026-03-25T14:02:49.991Z</time></trkpt><trkpt lat="30.8418516523953" lon="-5.633762520126752"><ele>959.0</ele><time>2026-03-25T14:02:50.991Z</time></trkpt><trkpt lat="30.841947416030997" lon="-5.633715857642498"><ele>960.0</ele><time>2026-03-25T14:02:52.991Z</time></trkpt><trkpt lat="30.841982940059406" lon="-5.633647636914975"><ele>961.0</ele><time>2026-03-25T14:02:53.991Z</time></trkpt><trkpt lat="30.842045398676746" lon="-5.633513823077539"><ele>962.0</ele><time>2026-03-25T14:02:55.991Z</time></trkpt><trkpt lat="30.842092492420733" lon="-5.633442222157663"><ele>962.1666666666667</ele><time>2026-03-25T14:02:56.991Z</time></trkpt><trkpt lat="30.8421574028315" lon="-5.633388505509993"><ele>962.3333333333334</ele><time>2026-03-25T14:02:57.991Z</time></trkpt><trkpt lat="30.84222898435333" lon="-5.633340813018696"><ele>962.5</ele><time>2026-03-25T14:02:58.991Z</time></trkpt><trkpt lat="30.842300902824945" lon="-5.63329785192752"><ele>962.6666666666667</ele><time>2026-03-25T14:02:59.991Z</time></trkpt><trkpt lat="30.84237703507588" lon="-5.633245598785407"><ele>962.8333333333334</ele><time>2026-03-25T14:03:00.991Z</time></trkpt><trkpt lat="30.842449380179172" lon="-5.633185999631661"><ele>963.0</ele><time>2026-03-25T14:03:01.991Z</time></trkpt><trkpt lat="30.84251895969074" lon="-5.633126091761292"><ele>963.0</ele><time>2026-03-25T14:03:02.991Z</time></trkpt><trkpt lat="30.8425868092922" lon="-5.633080244476943"><ele>963.0</ele><time>2026-03-25T14:03:03.991Z</time></trkpt><trkpt lat="30.842646224489485" lon="-5.633020112724175"><ele>963.0</ele><time>2026-03-25T14:03:04.991Z</time></trkpt><trkpt lat="30.8427018836438" lon="-5.6329623301214635"><ele>963.0</ele><time>2026-03-25T14:03:05.991Z</time></trkpt><trkpt lat="30.84275762895318" lon="-5.632918369701826"><ele>963.0</ele><time>2026-03-25T14:03:06.991Z</time></trkpt><trkpt lat="30.84284400382142" lon="-5.632883229815435"><ele>963.0</ele><time>2026-03-25T14:03:08.991Z</time></trkpt><trkpt lat="30.84291526623303" lon="-5.632864742508486"><ele>963.0</ele><time>2026-03-25T14:03:12.991Z</time></trkpt><trkpt lat="30.84295439414268" lon="-5.632959954686222"><ele>963.0</ele><time>2026-03-25T14:05:16.991Z</time></trkpt><trkpt lat="30.843002458500592" lon="-5.633039682259853"><ele>963.0</ele><time>2026-03-25T14:05:17.991Z</time></trkpt><trkpt lat="30.843072541119714" lon="-5.633120055143434"><ele>963.0</ele><time>2026-03-25T14:05:18.991Z</time></trkpt><trkpt lat="30.843171434465415" lon="-5.633193640642717"><ele>963.0</ele><time>2026-03-25T14:05:19.991Z</time></trkpt><trkpt lat="30.84330436896931" lon="-5.633264927292096"><ele>962.0</ele><time>2026-03-25T14:05:20.991Z</time></trkpt><trkpt lat="30.843472688869543" lon="-5.633329198334317"><ele>961.0</ele><time>2026-03-25T14:05:21.991Z</time></trkpt><trkpt lat="30.843649310441833" lon="-5.633377225458595"><ele>960.0</ele><time>2026-03-25T14:05:22.991Z</time></trkpt><trkpt lat="30.843810992517138" lon="-5.633431627324512"><ele>960.0</ele><time>2026-03-25T14:05:23.991Z</time></trkpt><trkpt lat="30.843956397191494" lon="-5.6335133088288805"><ele>960.0</ele><time>2026-03-25T14:05:24.991Z</time></trkpt><trkpt lat="30.844082592630194" lon="-5.63357463850446"><ele>960.0</ele><time>2026-03-25T14:05:25.991Z</time></trkpt><trkpt lat="30.844224790312527" lon="-5.633572270686418"><ele>960.0</ele><time>2026-03-25T14:05:26.991Z</time></trkpt><trkpt lat="30.844375855206078" lon="-5.633559471845319"><ele>959.0</ele><time>2026-03-25T14:05:27.991Z</time></trkpt><trkpt lat="30.84454101421771" lon="-5.633583344330373"><ele>958.0</ele><time>2026-03-25T14:05:28.991Z</time></trkpt><trkpt lat="30.84470078844499" lon="-5.63360176625822"><ele>957.0</ele><time>2026-03-25T14:05:29.991Z</time></trkpt><trkpt lat="30.844876296509312" lon="-5.633585483995262"><ele>957.0</ele><time>2026-03-25T14:05:30.991Z</time></trkpt><trkpt lat="30.845036128631246" lon="-5.633574261960596"><ele>957.0</ele><time>2026-03-25T14:05:31.991Z</time></trkpt><trkpt lat="30.845197100264173" lon="-5.633629340741586"><ele>957.0</ele><time>2026-03-25T14:05:32.991Z</time></trkpt><trkpt lat="30.845378064834705" lon="-5.633695637111717"><ele>955.3333333333333</ele><time>2026-03-25T14:05:33.991Z</time></trkpt><trkpt lat="30.845575571949624" lon="-5.633776080293347"><ele>953.6666666666666</ele><time>2026-03-25T14:05:34.991Z</time></trkpt><trkpt lat="30.84577815153834" lon="-5.633851617053121"><ele>952.0</ele><time>2026-03-25T14:05:35.991Z</time></trkpt><trkpt lat="30.845946533439587" lon="-5.633907738658242"><ele>951.3333333333333</ele><time>2026-03-25T14:05:36.991Z</time></trkpt><trkpt lat="30.84609224129998" lon="-5.6339690960547255"><ele>950.6666666666667</ele><time>2026-03-25T14:05:37.991Z</time></trkpt><trkpt lat="30.84624429954049" lon="-5.634015245251952"><ele>950.0</ele><time>2026-03-25T14:05:38.991Z</time></trkpt><trkpt lat="30.846397339372274" lon="-5.6340440575963555"><ele>950.0</ele><time>2026-03-25T14:05:39.991Z</time></trkpt><trkpt lat="30.846536488975318" lon="-5.634077061369183"><ele>950.0</ele><time>2026-03-25T14:05:40.991Z</time></trkpt><trkpt lat="30.846667082799765" lon="-5.634110864082351"><ele>950.0</ele><time>2026-03-25T14:05:41.991Z</time></trkpt><trkpt lat="30.846791954117847" lon="-5.634147505806013"><ele>950.0</ele><time>2026-03-25T14:05:42.991Z</time></trkpt><trkpt lat="30.846921932763767" lon="-5.634181653423645"><ele>950.0</ele><time>2026-03-25T14:05:43.991Z</time></trkpt><trkpt lat="30.847055259454198" lon="-5.634206378916883"><ele>950.0</ele><time>2026-03-25T14:05:44.991Z</time></trkpt><trkpt lat="30.84718966206563" lon="-5.6342408869901"><ele>950.0</ele><time>2026-03-25T14:05:45.991Z</time></trkpt><trkpt lat="30.84731518294113" lon="-5.6342766646153635"><ele>950.0</ele><time>2026-03-25T14:05:46.991Z</time></trkpt><trkpt lat="30.847433068773487" lon="-5.634322943458155"><ele>950.0</ele><time>2026-03-25T14:05:47.991Z</time></trkpt><trkpt lat="30.847549227250504" lon="-5.63436672892006"><ele>950.0</ele><time>2026-03-25T14:05:48.991Z</time></trkpt><trkpt lat="30.847663919789415" lon="-5.634411355639097"><ele>950.0</ele><time>2026-03-25T14:05:49.991Z</time></trkpt><trkpt lat="30.847776550582164" lon="-5.634466033744885"><ele>950.0</ele><time>2026-03-25T14:05:50.991Z</time></trkpt><trkpt lat="30.847893115408752" lon="-5.634521409478137"><ele>949.0</ele><time>2026-03-25T14:05:51.991Z</time></trkpt><trkpt lat="30.848006846245152" lon="-5.634568361429576"><ele>948.0</ele><time>2026-03-25T14:05:52.991Z</time></trkpt><trkpt lat="30.848118052623704" lon="-5.634611528185058"><ele>947.0</ele><time>2026-03-25T14:05:53.991Z</time></trkpt><trkpt lat="30.848238225173706" lon="-5.634647979189951"><ele>946.0</ele><time>2026-03-25T14:05:54.991Z</time></trkpt><trkpt lat="30.848367032486493" lon="-5.6346752894271965"><ele>945.75</ele><time>2026-03-25T14:05:55.991Z</time></trkpt><trkpt lat="30.848496834650604" lon="-5.634715397963544"><ele>945.5</ele><time>2026-03-25T14:05:56.991Z</time></trkpt><trkpt lat="30.848642364853838" lon="-5.6347676475866955"><ele>945.25</ele><time>2026-03-25T14:05:57.991Z</time></trkpt><trkpt lat="30.84879144430759" lon="-5.634827428841501"><ele>945.0</ele><time>2026-03-25T14:05:58.991Z</time></trkpt><trkpt lat="30.84892898697746" lon="-5.6348979301565585"><ele>945.0</ele><time>2026-03-25T14:05:59.991Z</time></trkpt><trkpt lat="30.84908346419972" lon="-5.634962563448652"><ele>945.0</ele><time>2026-03-25T14:06:00.991Z</time></trkpt><trkpt lat="30.849241480664823" lon="-5.635035025704614"><ele>945.0</ele><time>2026-03-25T14:06:01.991Z</time></trkpt><trkpt lat="30.8493970576319" lon="-5.635114242441111"><ele>944.0</ele><time>2026-03-25T14:06:02.991Z</time></trkpt><trkpt lat="30.849554401370874" lon="-5.635197441497714"><ele>943.0</ele><time>2026-03-25T14:06:03.991Z</time></trkpt><trkpt lat="30.84971507337145" lon="-5.635282395963754"><ele>942.0</ele><time>2026-03-25T14:06:04.991Z</time></trkpt><trkpt lat="30.84987639272834" lon="-5.635369605645822"><ele>941.3333333333333</ele><time>2026-03-25T14:06:05.991Z</time></trkpt><trkpt lat="30.850041229950484" lon="-5.635456765489351"><ele>940.6666666666666</ele><time>2026-03-25T14:06:06.991Z</time></trkpt><trkpt lat="30.850207320982324" lon="-5.635545314863867"><ele>940.0</ele><time>2026-03-25T14:06:07.991Z</time></trkpt><trkpt lat="30.850369084724047" lon="-5.63563519467889"><ele>939.3333333333333</ele><time>2026-03-25T14:06:08.991Z</time></trkpt><trkpt lat="30.850528629736154" lon="-5.635727461412854"><ele>938.6666666666667</ele><time>2026-03-25T14:06:09.991Z</time></trkpt><trkpt lat="30.850689648920117" lon="-5.635828507449697"><ele>938.0</ele><time>2026-03-25T14:06:10.991Z</time></trkpt><trkpt lat="30.85085046896433" lon="-5.635938328625308"><ele>938.6666666666667</ele><time>2026-03-25T14:06:11.991Z</time></trkpt><trkpt lat="30.851009195470496" lon="-5.6360512493351616"><ele>939.3333333333333</ele><time>2026-03-25T14:06:12.991Z</time></trkpt><trkpt lat="30.85116325112133" lon="-5.636164078628645"><ele>940.0</ele><time>2026-03-25T14:06:13.991Z</time></trkpt><trkpt lat="30.851314735086206" lon="-5.636279051707385"><ele>940.3333333333333</ele><time>2026-03-25T14:06:14.991Z</time></trkpt><trkpt lat="30.851458142065173" lon="-5.636387744356161"><ele>940.6666666666667</ele><time>2026-03-25T14:06:15.991Z</time></trkpt><trkpt lat="30.85158935807198" lon="-5.636486361964211"><ele>941.0</ele><time>2026-03-25T14:06:16.991Z</time></trkpt><trkpt lat="30.851715065473794" lon="-5.636579597397319"><ele>941.25</ele><time>2026-03-25T14:06:17.991Z</time></trkpt><trkpt lat="30.851827802851535" lon="-5.636677501708461"><ele>941.5</ele><time>2026-03-25T14:06:18.991Z</time></trkpt><trkpt lat="30.851912319578673" lon="-5.636780901015718"><ele>941.75</ele><time>2026-03-25T14:06:19.991Z</time></trkpt><trkpt lat="30.851990712077843" lon="-5.636894978245414"><ele>942.0</ele><time>2026-03-25T14:06:20.991Z</time></trkpt><trkpt lat="30.85205045543344" lon="-5.6370068037578"><ele>941.6</ele><time>2026-03-25T14:06:21.991Z</time></trkpt><trkpt lat="30.85209157567231" lon="-5.637117827271668"><ele>941.2</ele><time>2026-03-25T14:06:22.991Z</time></trkpt><trkpt lat="30.852117006965205" lon="-5.637236053371679"><ele>940.8</ele><time>2026-03-25T14:06:23.991Z</time></trkpt><trkpt lat="30.852149119362625" lon="-5.6373420309536435"><ele>940.4</ele><time>2026-03-25T14:06:24.991Z</time></trkpt><trkpt lat="30.852201508779743" lon="-5.637432954062406"><ele>940.0</ele><time>2026-03-25T14:06:25.991Z</time></trkpt><trkpt lat="30.852270675578595" lon="-5.6375148319811625"><ele>940.0</ele><time>2026-03-25T14:06:26.991Z</time></trkpt><trkpt lat="30.852333293645" lon="-5.637603667932482"><ele>940.0</ele><time>2026-03-25T14:06:27.991Z</time></trkpt><trkpt lat="30.85240431772463" lon="-5.637683190614177"><ele>940.0</ele><time>2026-03-25T14:06:28.991Z</time></trkpt><trkpt lat="30.852501168426834" lon="-5.637747427206961"><ele>940.0</ele><time>2026-03-25T14:06:29.991Z</time></trkpt><trkpt lat="30.852635641203303" lon="-5.637775811101633"><ele>940.0</ele><time>2026-03-25T14:06:30.991Z</time></trkpt><trkpt lat="30.852792095271287" lon="-5.637794535072145"><ele>940.3333333333333</ele><time>2026-03-25T14:06:31.991Z</time></trkpt><trkpt lat="30.852961665068626" lon="-5.6378427957727615"><ele>940.6666666666667</ele><time>2026-03-25T14:06:32.992Z</time></trkpt><trkpt lat="30.8531092572962" lon="-5.637888381027492"><ele>941.0</ele><time>2026-03-25T14:06:33.992Z</time></trkpt><trkpt lat="30.853230939056818" lon="-5.63794077512048"><ele>941.0</ele><time>2026-03-25T14:06:34.992Z</time></trkpt><trkpt lat="30.853333169883083" lon="-5.6379993029626325"><ele>940.9999999999999</ele><time>2026-03-25T14:06:35.992Z</time></trkpt><trkpt lat="30.853421438198307" lon="-5.638064658803754"><ele>940.9999999999999</ele><time>2026-03-25T14:06:36.992Z</time></trkpt><trkpt lat="30.85349380709592" lon="-5.638137962805918"><ele>941.0</ele><time>2026-03-25T14:06:37.992Z</time></trkpt><trkpt lat="30.853564257269856" lon="-5.638194965747154"><ele>941.0</ele><time>2026-03-25T14:06:38.991Z</time></trkpt><trkpt lat="30.853637564834962" lon="-5.638229249776516"><ele>940.4</ele><time>2026-03-25T14:06:39.992Z</time></trkpt><trkpt lat="30.853721825559564" lon="-5.638244668030731"><ele>939.8</ele><time>2026-03-25T14:06:40.992Z</time></trkpt><trkpt lat="30.853820280378656" lon="-5.638233834916214"><ele>939.1999999999999</ele><time>2026-03-25T14:06:41.991Z</time></trkpt><trkpt lat="30.853935252140953" lon="-5.638214284756988"><ele>938.5999999999999</ele><time>2026-03-25T14:06:42.991Z</time></trkpt><trkpt lat="30.854058750014065" lon="-5.638218308692889"><ele>938.0</ele><time>2026-03-25T14:06:43.991Z</time></trkpt><trkpt lat="30.85415040701686" lon="-5.638245102342661"><ele>938.0000000000001</ele><time>2026-03-25T14:06:44.991Z</time></trkpt><trkpt lat="30.85422602575701" lon="-5.6382705012194885"><ele>938.0</ele><time>2026-03-25T14:06:45.991Z</time></trkpt><trkpt lat="30.85431443568077" lon="-5.638310891848516"><ele>938.0</ele><time>2026-03-25T14:06:46.991Z</time></trkpt><trkpt lat="30.854404854630946" lon="-5.63833187798375"><ele>938.0</ele><time>2026-03-25T14:06:47.991Z</time></trkpt><trkpt lat="30.854481589139873" lon="-5.638344132885501"><ele>938.0000000000001</ele><time>2026-03-25T14:06:48.991Z</time></trkpt><trkpt lat="30.854549940288663" lon="-5.638359747075231"><ele>938.0</ele><time>2026-03-25T14:06:49.991Z</time></trkpt><trkpt lat="30.8546311503861" lon="-5.638358473995363"><ele>937.5999999999999</ele><time>2026-03-25T14:06:50.991Z</time></trkpt><trkpt lat="30.85472056021651" lon="-5.638376727651492"><ele>937.1999999999999</ele><time>2026-03-25T14:06:51.991Z</time></trkpt><trkpt lat="30.85481217759764" lon="-5.638382200601655"><ele>936.8</ele><time>2026-03-25T14:06:52.991Z</time></trkpt><trkpt lat="30.854900052541485" lon="-5.638389276879096"><ele>936.4</ele><time>2026-03-25T14:06:53.991Z</time></trkpt><trkpt lat="30.854991518622967" lon="-5.638406619814366"><ele>936.0</ele><time>2026-03-25T14:06:54.991Z</time></trkpt><trkpt lat="30.855081907856814" lon="-5.6384358890764315"><ele>936.4</ele><time>2026-03-25T14:06:55.991Z</time></trkpt><trkpt lat="30.855176864778695" lon="-5.638476863445628"><ele>936.8</ele><time>2026-03-25T14:06:56.991Z</time></trkpt><trkpt lat="30.85527468760687" lon="-5.638520766892854"><ele>937.1999999999999</ele><time>2026-03-25T14:06:57.991Z</time></trkpt><trkpt lat="30.855381302213512" lon="-5.6385677258900175"><ele>937.5999999999999</ele><time>2026-03-25T14:06:58.991Z</time></trkpt><trkpt lat="30.855503972073418" lon="-5.638614057534866"><ele>938.0</ele><time>2026-03-25T14:06:59.991Z</time></trkpt><trkpt lat="30.85565388142507" lon="-5.638656968203811"><ele>937.25</ele><time>2026-03-25T14:07:00.991Z</time></trkpt><trkpt lat="30.855796851925778" lon="-5.638705085555661"><ele>936.5</ele><time>2026-03-25T14:07:01.991Z</time></trkpt><trkpt lat="30.855907499154515" lon="-5.638753387150419"><ele>935.75</ele><time>2026-03-25T14:07:02.991Z</time></trkpt><trkpt lat="30.856009954489057" lon="-5.638809046336142"><ele>935.0</ele><time>2026-03-25T14:07:03.991Z</time></trkpt><trkpt lat="30.85612564534854" lon="-5.638853186497015"><ele>935.0</ele><time>2026-03-25T14:07:04.991Z</time></trkpt><trkpt lat="30.856234115473537" lon="-5.638884355876589"><ele>935.0</ele><time>2026-03-25T14:07:05.991Z</time></trkpt><trkpt lat="30.856332118838527" lon="-5.638931467496304"><ele>935.0</ele><time>2026-03-25T14:07:06.991Z</time></trkpt><trkpt lat="30.856402214288682" lon="-5.6389887481195204"><ele>935.0</ele><time>2026-03-25T14:07:07.991Z</time></trkpt><trkpt lat="30.85647598225463" lon="-5.639038371057182"><ele>935.0</ele><time>2026-03-25T14:07:08.991Z</time></trkpt><trkpt lat="30.856550489711765" lon="-5.639105224293513"><ele>935.0000000000001</ele><time>2026-03-25T14:07:09.991Z</time></trkpt><trkpt lat="30.85664339140258" lon="-5.639174587599328"><ele>935.0</ele><time>2026-03-25T14:07:10.991Z</time></trkpt><trkpt lat="30.85671657983207" lon="-5.639207715471229"><ele>935.0</ele><time>2026-03-25T14:07:11.991Z</time></trkpt><trkpt lat="30.856751947225504" lon="-5.639305566383736"><ele>935.0</ele><time>2026-03-25T14:07:13.991Z</time></trkpt><trkpt lat="30.85672186793643" lon="-5.639370983492347"><ele>935.0000000000001</ele><time>2026-03-25T14:07:26.991Z</time></trkpt><trkpt lat="30.856724600614598" lon="-5.639445677106782"><ele>935.0</ele><time>2026-03-25T14:07:27.991Z</time></trkpt><trkpt lat="30.856739145931922" lon="-5.6395404543081575"><ele>935.2</ele><time>2026-03-25T14:07:28.991Z</time></trkpt><trkpt lat="30.856748171831672" lon="-5.639634999332709"><ele>935.4</ele><time>2026-03-25T14:07:29.991Z</time></trkpt><trkpt lat="30.856772064526425" lon="-5.639746124592986"><ele>935.5999999999999</ele><time>2026-03-25T14:07:30.991Z</time></trkpt><trkpt lat="30.856781820975776" lon="-5.639845756851389"><ele>935.8</ele><time>2026-03-25T14:07:31.991Z</time></trkpt><trkpt lat="30.85679409934847" lon="-5.639951097718098"><ele>936.0</ele><time>2026-03-25T14:07:32.991Z</time></trkpt><trkpt lat="30.856803158455286" lon="-5.64006155292152"><ele>936.0</ele><time>2026-03-25T14:07:33.991Z</time></trkpt><trkpt lat="30.856813829015792" lon="-5.640169014417454"><ele>936.0</ele><time>2026-03-25T14:07:34.991Z</time></trkpt><trkpt lat="30.856828579510196" lon="-5.640275842626757"><ele>936.0</ele><time>2026-03-25T14:07:35.991Z</time></trkpt><trkpt lat="30.856838737188422" lon="-5.6403738664583525"><ele>936.0</ele><time>2026-03-25T14:07:36.991Z</time></trkpt><trkpt lat="30.85684884058201" lon="-5.640466098496"><ele>936.0</ele><time>2026-03-25T14:07:37.991Z</time></trkpt><trkpt lat="30.85685849423145" lon="-5.640551477259869"><ele>936.0</ele><time>2026-03-25T14:07:38.991Z</time></trkpt><trkpt lat="30.856868830495245" lon="-5.640643228870597"><ele>936.4</ele><time>2026-03-25T14:07:39.991Z</time></trkpt><trkpt lat="30.856890391406605" lon="-5.640741095281038"><ele>936.8</ele><time>2026-03-25T14:07:40.991Z</time></trkpt><trkpt lat="30.85690829024618" lon="-5.640857846025805"><ele>937.1999999999999</ele><time>2026-03-25T14:07:41.991Z</time></trkpt><trkpt lat="30.856923173924507" lon="-5.640975499712116"><ele>937.5999999999999</ele><time>2026-03-25T14:07:42.991Z</time></trkpt><trkpt lat="30.856941180927212" lon="-5.641115020195755"><ele>938.0</ele><time>2026-03-25T14:07:43.991Z</time></trkpt><trkpt lat="30.856958981228345" lon="-5.641265964798219"><ele>938.0</ele><time>2026-03-25T14:07:44.991Z</time></trkpt><trkpt lat="30.85696576273755" lon="-5.641425488865367"><ele>938.0</ele><time>2026-03-25T14:07:45.991Z</time></trkpt><trkpt lat="30.85697584866094" lon="-5.641593829090588"><ele>938.0</ele><time>2026-03-25T14:07:46.991Z</time></trkpt><trkpt lat="30.85699026912029" lon="-5.6417425404040635"><ele>938.0</ele><time>2026-03-25T14:07:47.991Z</time></trkpt><trkpt lat="30.857013532555413" lon="-5.641884170588429"><ele>937.75</ele><time>2026-03-25T14:07:48.991Z</time></trkpt><trkpt lat="30.857033799777636" lon="-5.642022040914379"><ele>937.5</ele><time>2026-03-25T14:07:49.991Z</time></trkpt><trkpt lat="30.857054574513775" lon="-5.642163453358175"><ele>937.25</ele><time>2026-03-25T14:07:50.991Z</time></trkpt><trkpt lat="30.857068844195016" lon="-5.642302378480987"><ele>937.0</ele><time>2026-03-25T14:07:51.991Z</time></trkpt><trkpt lat="30.857076753872207" lon="-5.64243523719824"><ele>937.0</ele><time>2026-03-25T14:07:52.991Z</time></trkpt><trkpt lat="30.857096527313985" lon="-5.642553932941675"><ele>937.0</ele><time>2026-03-25T14:07:53.991Z</time></trkpt><trkpt lat="30.857144182937592" lon="-5.642643063644943"><ele>937.0</ele><time>2026-03-25T14:07:54.991Z</time></trkpt><trkpt lat="30.857189099648558" lon="-5.6427269408061695"><ele>937.0</ele><time>2026-03-25T14:07:55.991Z</time></trkpt><trkpt lat="30.857204636736725" lon="-5.642832655362212"><ele>937.0</ele><time>2026-03-25T14:07:56.991Z</time></trkpt><trkpt lat="30.857201986751615" lon="-5.642973835290314"><ele>937.8</ele><time>2026-03-25T14:07:57.991Z</time></trkpt><trkpt lat="30.85721002968848" lon="-5.643106623716035"><ele>938.6</ele><time>2026-03-25T14:07:58.991Z</time></trkpt><trkpt lat="30.857224490876202" lon="-5.643207902648979"><ele>939.3999999999999</ele><time>2026-03-25T14:07:59.991Z</time></trkpt><trkpt lat="30.85724502393448" lon="-5.643322417996468"><ele>940.1999999999999</ele><time>2026-03-25T14:08:00.991Z</time></trkpt><trkpt lat="30.857255547890624" lon="-5.643437132116464"><ele>941.0</ele><time>2026-03-25T14:08:01.991Z</time></trkpt><trkpt lat="30.85726895558602" lon="-5.643558306766404"><ele>941.0</ele><time>2026-03-25T14:08:02.991Z</time></trkpt><trkpt lat="30.857284393944287" lon="-5.6436845877796555"><ele>941.0</ele><time>2026-03-25T14:08:03.991Z</time></trkpt><trkpt lat="30.857303348160567" lon="-5.643819054973561"><ele>941.0</ele><time>2026-03-25T14:08:04.991Z</time></trkpt><trkpt lat="30.8573171001627" lon="-5.64396201611458"><ele>941.0</ele><time>2026-03-25T14:08:05.991Z</time></trkpt><trkpt lat="30.85733319061298" lon="-5.644130512694227"><ele>941.0</ele><time>2026-03-25T14:08:06.991Z</time></trkpt><trkpt lat="30.85735558349133" lon="-5.6442959291683055"><ele>941.0</ele><time>2026-03-25T14:08:07.991Z</time></trkpt><trkpt lat="30.85737801979578" lon="-5.644459452682947"><ele>941.0</ele><time>2026-03-25T14:08:08.991Z</time></trkpt><trkpt lat="30.85739342057028" lon="-5.64461385297893"><ele>941.0</ele><time>2026-03-25T14:08:09.991Z</time></trkpt><trkpt lat="30.857400395856192" lon="-5.644753534509842"><ele>940.5000000000001</ele><time>2026-03-25T14:08:10.991Z</time></trkpt><trkpt lat="30.857403038583634" lon="-5.6448721197626766"><ele>940.0</ele><time>2026-03-25T14:08:11.991Z</time></trkpt><trkpt lat="30.857408252264136" lon="-5.644976324879004"><ele>939.5</ele><time>2026-03-25T14:08:12.991Z</time></trkpt><trkpt lat="30.857408230518647" lon="-5.64507818310044"><ele>939.0</ele><time>2026-03-25T14:08:13.991Z</time></trkpt><trkpt lat="30.857406072566715" lon="-5.645174183625457"><ele>938.5000000000001</ele><time>2026-03-25T14:08:14.991Z</time></trkpt><trkpt lat="30.85740983663313" lon="-5.645271148300657"><ele>938.0</ele><time>2026-03-25T14:08:15.991Z</time></trkpt><trkpt lat="30.85740851229988" lon="-5.645358763744168"><ele>937.8</ele><time>2026-03-25T14:08:16.991Z</time></trkpt><trkpt lat="30.857430220904565" lon="-5.645434792703581"><ele>937.5999999999999</ele><time>2026-03-25T14:08:17.991Z</time></trkpt><trkpt lat="30.85745531933096" lon="-5.645544028033866"><ele>937.4000000000001</ele><time>2026-03-25T14:08:19.991Z</time></trkpt><trkpt lat="30.857487129104324" lon="-5.6456348140610535"><ele>937.2</ele><time>2026-03-25T14:08:21.991Z</time></trkpt><trkpt lat="30.857528254089402" lon="-5.645787346400084"><ele>937.0</ele><time>2026-03-25T14:08:23.991Z</time></trkpt><trkpt lat="30.857538832943536" lon="-5.645887584033809"><ele>937.0</ele><time>2026-03-25T14:08:24.991Z</time></trkpt><trkpt lat="30.857558288487283" lon="-5.645985250312097"><ele>937.0</ele><time>2026-03-25T14:08:25.991Z</time></trkpt><trkpt lat="30.857617299138827" lon="-5.64607106537558"><ele>937.0</ele><time>2026-03-25T14:08:26.991Z</time></trkpt><trkpt lat="30.857685830834424" lon="-5.646165071659331"><ele>937.0</ele><time>2026-03-25T14:08:27.991Z</time></trkpt><trkpt lat="30.857766991709944" lon="-5.646275194816894"><ele>937.0</ele><time>2026-03-25T14:08:28.991Z</time></trkpt><trkpt lat="30.857851867539427" lon="-5.646396016586269"><ele>937.0</ele><time>2026-03-25T14:08:29.991Z</time></trkpt><trkpt lat="30.85793524493329" lon="-5.646503937368288"><ele>937.0</ele><time>2026-03-25T14:08:30.991Z</time></trkpt><trkpt lat="30.858016482905654" lon="-5.6465994661360135"><ele>937.0</ele><time>2026-03-25T14:08:31.991Z</time></trkpt><trkpt lat="30.858102005005776" lon="-5.646687377469472"><ele>937.0</ele><time>2026-03-25T14:08:32.991Z</time></trkpt><trkpt lat="30.858177166952462" lon="-5.646770363875243"><ele>937.0</ele><time>2026-03-25T14:08:33.991Z</time></trkpt><trkpt lat="30.85824650287224" lon="-5.646847041867987"><ele>937.0</ele><time>2026-03-25T14:08:34.991Z</time></trkpt><trkpt lat="30.858311716006085" lon="-5.646924337386137"><ele>937.0</ele><time>2026-03-25T14:08:35.992Z</time></trkpt><trkpt lat="30.858369026886898" lon="-5.647005873576499"><ele>937.0</ele><time>2026-03-25T14:08:36.992Z</time></trkpt><trkpt lat="30.858421191335584" lon="-5.6470880929138865"><ele>937.0</ele><time>2026-03-25T14:08:37.992Z</time></trkpt><trkpt lat="30.85847390169385" lon="-5.647171449182971"><ele>936.6</ele><time>2026-03-25T14:08:38.991Z</time></trkpt><trkpt lat="30.85851932026066" lon="-5.647252049044806"><ele>936.2</ele><time>2026-03-25T14:08:39.992Z</time></trkpt><trkpt lat="30.85856378730204" lon="-5.647347037915977"><ele>935.8</ele><time>2026-03-25T14:08:40.992Z</time></trkpt><trkpt lat="30.858597360859907" lon="-5.64744766983733"><ele>935.4</ele><time>2026-03-25T14:08:41.991Z</time></trkpt><trkpt lat="30.858618854952926" lon="-5.647551742106278"><ele>935.0</ele><time>2026-03-25T14:08:42.992Z</time></trkpt><trkpt lat="30.858634902566834" lon="-5.647677156904479"><ele>935.6</ele><time>2026-03-25T14:08:43.992Z</time></trkpt><trkpt lat="30.85867361159568" lon="-5.647799393209307"><ele>936.2</ele><time>2026-03-25T14:08:44.991Z</time></trkpt><trkpt lat="30.85870666686605" lon="-5.647917310014339"><ele>936.8</ele><time>2026-03-25T14:08:45.992Z</time></trkpt><trkpt lat="30.858740217330304" lon="-5.648042491422122"><ele>937.4</ele><time>2026-03-25T14:08:46.992Z</time></trkpt><trkpt lat="30.858774526184302" lon="-5.648166997875116"><ele>938.0</ele><time>2026-03-25T14:08:47.991Z</time></trkpt><trkpt lat="30.858809945155897" lon="-5.64829094827649"><ele>938.0</ele><time>2026-03-25T14:08:48.992Z</time></trkpt><trkpt lat="30.858846819680785" lon="-5.648414623229745"><ele>938.0</ele><time>2026-03-25T14:08:49.992Z</time></trkpt><trkpt lat="30.8588766472278" lon="-5.648524469977848"><ele>938.0</ele><time>2026-03-25T14:08:50.992Z</time></trkpt><trkpt lat="30.858897749808378" lon="-5.6486352883943045"><ele>938.0</ele><time>2026-03-25T14:08:51.992Z</time></trkpt><trkpt lat="30.85891491222951" lon="-5.6487435602795815"><ele>938.0</ele><time>2026-03-25T14:08:52.992Z</time></trkpt><trkpt lat="30.858927473446972" lon="-5.648838554678766"><ele>937.8333333333334</ele><time>2026-03-25T14:08:53.992Z</time></trkpt><trkpt lat="30.858941094459986" lon="-5.648924772312621"><ele>937.6666666666667</ele><time>2026-03-25T14:08:54.992Z</time></trkpt><trkpt lat="30.858950315092105" lon="-5.649014392647848"><ele>937.5</ele><time>2026-03-25T14:08:55.992Z</time></trkpt><trkpt lat="30.858952135727428" lon="-5.649109421332707"><ele>937.3333333333333</ele><time>2026-03-25T14:08:56.992Z</time></trkpt><trkpt lat="30.858954660563054" lon="-5.6492203350962935"><ele>937.1666666666666</ele><time>2026-03-25T14:08:57.992Z</time></trkpt><trkpt lat="30.858963084165364" lon="-5.649337955589853"><ele>937.0</ele><time>2026-03-25T14:08:58.992Z</time></trkpt><trkpt lat="30.858961071296708" lon="-5.649434865125599"><ele>936.8</ele><time>2026-03-25T14:08:59.992Z</time></trkpt><trkpt lat="30.85897686013943" lon="-5.649520721184071"><ele>936.6</ele><time>2026-03-25T14:09:00.992Z</time></trkpt><trkpt lat="30.859050519656705" lon="-5.649633357236953"><ele>936.3999999999999</ele><time>2026-03-25T14:09:02.992Z</time></trkpt><trkpt lat="30.859104834315453" lon="-5.649692762165467"><ele>936.1999999999999</ele><time>2026-03-25T14:09:03.992Z</time></trkpt><trkpt lat="30.859189476232928" lon="-5.6497468107841025"><ele>936.0</ele><time>2026-03-25T14:09:04.992Z</time></trkpt><trkpt lat="30.859289587089837" lon="-5.649783798873031"><ele>936.75</ele><time>2026-03-25T14:09:05.992Z</time></trkpt><trkpt lat="30.859366499878778" lon="-5.649829626758808"><ele>937.5</ele><time>2026-03-25T14:09:06.992Z</time></trkpt><trkpt lat="30.859404480117494" lon="-5.649991842113672"><ele>938.25</ele><time>2026-03-25T14:09:08.992Z</time></trkpt><trkpt lat="30.859436454412105" lon="-5.650112644047204"><ele>939.0</ele><time>2026-03-25T14:09:09.992Z</time></trkpt><trkpt lat="30.8594722763231" lon="-5.650236973869973"><ele>939.2</ele><time>2026-03-25T14:09:10.992Z</time></trkpt><trkpt lat="30.859511310967846" lon="-5.650364986689608"><ele>939.4000000000001</ele><time>2026-03-25T14:09:11.992Z</time></trkpt><trkpt lat="30.8595508223809" lon="-5.6504923588376"><ele>939.6</ele><time>2026-03-25T14:09:12.992Z</time></trkpt><trkpt lat="30.85959037611323" lon="-5.650611484722481"><ele>939.8</ele><time>2026-03-25T14:09:13.992Z</time></trkpt><trkpt lat="30.859627057877905" lon="-5.65071917008792"><ele>940.0</ele><time>2026-03-25T14:09:14.992Z</time></trkpt><trkpt lat="30.85966839627381" lon="-5.650830986303629"><ele>940.0</ele><time>2026-03-25T14:09:15.992Z</time></trkpt><trkpt lat="30.859713784118924" lon="-5.650940821696577"><ele>940.0</ele><time>2026-03-25T14:09:16.992Z</time></trkpt><trkpt lat="30.859751161129314" lon="-5.65105679149121"><ele>940.0</ele><time>2026-03-25T14:09:17.992Z</time></trkpt><trkpt lat="30.859779204607797" lon="-5.651180764002985"><ele>940.0</ele><time>2026-03-25T14:09:18.992Z</time></trkpt><trkpt lat="30.85980661923428" lon="-5.6513149764789"><ele>940.0</ele><time>2026-03-25T14:09:19.992Z</time></trkpt><trkpt lat="30.859845204841907" lon="-5.6514442787494295"><ele>940.0</ele><time>2026-03-25T14:09:20.992Z</time></trkpt><trkpt lat="30.859883021288137" lon="-5.651560668862361"><ele>940.0</ele><time>2026-03-25T14:09:21.992Z</time></trkpt><trkpt lat="30.859930316060268" lon="-5.651677081929925"><ele>940.0</ele><time>2026-03-25T14:09:22.992Z</time></trkpt><trkpt lat="30.859968586894876" lon="-5.651793354321634"><ele>940.0</ele><time>2026-03-25T14:09:23.992Z</time></trkpt><trkpt lat="30.860004265041937" lon="-5.651900231377608"><ele>940.0</ele><time>2026-03-25T14:09:24.992Z</time></trkpt><trkpt lat="30.86003542308861" lon="-5.6520017425436855"><ele>939.4999999999999</ele><time>2026-03-25T14:09:25.992Z</time></trkpt><trkpt lat="30.86007190333902" lon="-5.652100375154525"><ele>939.0</ele><time>2026-03-25T14:09:26.992Z</time></trkpt><trkpt lat="30.860101948522917" lon="-5.652185895783762"><ele>938.5</ele><time>2026-03-25T14:09:27.992Z</time></trkpt><trkpt lat="30.860127920851692" lon="-5.652257633123532"><ele>938.0</ele><time>2026-03-25T14:09:28.992Z</time></trkpt><trkpt lat="30.860168360596003" lon="-5.6523943745280105"><ele>937.4999999999999</ele><time>2026-03-25T14:09:30.992Z</time></trkpt><trkpt lat="30.860195721477133" lon="-5.652482175442863"><ele>937.0</ele><time>2026-03-25T14:09:31.992Z</time></trkpt><trkpt lat="30.86022272115253" lon="-5.652583320504435"><ele>936.9999999999999</ele><time>2026-03-25T14:09:32.992Z</time></trkpt><trkpt lat="30.860266641195064" lon="-5.652685153127183"><ele>937.0</ele><time>2026-03-25T14:09:33.992Z</time></trkpt><trkpt lat="30.860295332444377" lon="-5.652776334489328"><ele>937.0</ele><time>2026-03-25T14:09:34.992Z</time></trkpt><trkpt lat="30.8603175174656" lon="-5.652859521207966"><ele>937.0</ele><time>2026-03-25T14:09:35.992Z</time></trkpt><trkpt lat="30.86034347725801" lon="-5.6529470471395875"><ele>936.9999999999999</ele><time>2026-03-25T14:09:36.992Z</time></trkpt><trkpt lat="30.860364154884028" lon="-5.653034993733706"><ele>937.0</ele><time>2026-03-25T14:09:37.992Z</time></trkpt><trkpt lat="30.86038208340376" lon="-5.653122948907745"><ele>937.4000000000001</ele><time>2026-03-25T14:09:38.992Z</time></trkpt><trkpt lat="30.8604132314994" lon="-5.6532118149873325"><ele>937.8000000000001</ele><time>2026-03-25T14:09:39.992Z</time></trkpt><trkpt lat="30.860452261951256" lon="-5.653307257738686"><ele>938.2</ele><time>2026-03-25T14:09:40.992Z</time></trkpt><trkpt lat="30.860491425018925" lon="-5.6534022720854145"><ele>938.6</ele><time>2026-03-25T14:09:41.992Z</time></trkpt><trkpt lat="30.860534900863005" lon="-5.653505343308697"><ele>939.0</ele><time>2026-03-25T14:09:42.992Z</time></trkpt><trkpt lat="30.860569540248477" lon="-5.653620472467623"><ele>939.4000000000001</ele><time>2026-03-25T14:09:43.992Z</time></trkpt><trkpt lat="30.860600711311356" lon="-5.653743589132851"><ele>939.8000000000001</ele><time>2026-03-25T14:09:44.992Z</time></trkpt><trkpt lat="30.860635316523865" lon="-5.65385163670896"><ele>940.1999999999999</ele><time>2026-03-25T14:09:45.992Z</time></trkpt><trkpt lat="30.860683137482813" lon="-5.6539716838266365"><ele>940.5999999999999</ele><time>2026-03-25T14:09:46.992Z</time></trkpt><trkpt lat="30.86072153169485" lon="-5.654103125254464"><ele>941.0</ele><time>2026-03-25T14:09:47.992Z</time></trkpt><trkpt lat="30.860760677244194" lon="-5.65420698952473"><ele>941.0</ele><time>2026-03-25T14:09:48.992Z</time></trkpt><trkpt lat="30.860804279598312" lon="-5.654312489934498"><ele>940.9999999999999</ele><time>2026-03-25T14:09:49.992Z</time></trkpt><trkpt lat="30.860835878697117" lon="-5.654426329070512"><ele>940.9999999999999</ele><time>2026-03-25T14:09:50.992Z</time></trkpt><trkpt lat="30.860868922142004" lon="-5.654543762183277"><ele>941.0</ele><time>2026-03-25T14:09:51.992Z</time></trkpt><trkpt lat="30.86091357508066" lon="-5.654657300737083"><ele>941.0</ele><time>2026-03-25T14:09:52.992Z</time></trkpt><trkpt lat="30.86097929392776" lon="-5.654759495992758"><ele>941.0</ele><time>2026-03-25T14:09:53.992Z</time></trkpt><trkpt lat="30.86104501255632" lon="-5.654853631589922"><ele>941.0</ele><time>2026-03-25T14:09:54.992Z</time></trkpt><trkpt lat="30.861104175207696" lon="-5.654979267901736"><ele>941.0</ele><time>2026-03-25T14:09:55.992Z</time></trkpt><trkpt lat="30.86116877426473" lon="-5.655133191703178"><ele>941.0</ele><time>2026-03-25T14:09:56.992Z</time></trkpt><trkpt lat="30.86121049389233" lon="-5.655285785798671"><ele>940.5</ele><time>2026-03-25T14:09:57.992Z</time></trkpt><trkpt lat="30.861234873353855" lon="-5.655424355085465"><ele>940.0</ele><time>2026-03-25T14:09:58.992Z</time></trkpt><trkpt lat="30.861222254358466" lon="-5.65557167358068"><ele>939.5</ele><time>2026-03-25T14:09:59.992Z</time></trkpt><trkpt lat="30.86120736037558" lon="-5.6557496039307384"><ele>939.0</ele><time>2026-03-25T14:10:00.992Z</time></trkpt><trkpt lat="30.86121068883014" lon="-5.655903019543093"><ele>939.0</ele><time>2026-03-25T14:10:01.992Z</time></trkpt><trkpt lat="30.861227667697996" lon="-5.656023868980689"><ele>939.0000000000001</ele><time>2026-03-25T14:10:02.992Z</time></trkpt><trkpt lat="30.8612421219064" lon="-5.656136554463765"><ele>939.0000000000001</ele><time>2026-03-25T14:10:03.992Z</time></trkpt><trkpt lat="30.86124784822725" lon="-5.6562423932278225"><ele>939.0</ele><time>2026-03-25T14:10:04.992Z</time></trkpt><trkpt lat="30.86125591931992" lon="-5.656343619741929"><ele>939.0</ele><time>2026-03-25T14:10:05.992Z</time></trkpt><trkpt lat="30.861275366069304" lon="-5.656447931869031"><ele>938.8333333333334</ele><time>2026-03-25T14:10:06.992Z</time></trkpt><trkpt lat="30.861291945135758" lon="-5.656536824664335"><ele>938.6666666666667</ele><time>2026-03-25T14:10:07.992Z</time></trkpt><trkpt lat="30.861301341901747" lon="-5.656619023311636"><ele>938.5</ele><time>2026-03-25T14:10:08.992Z</time></trkpt><trkpt lat="30.861314988359034" lon="-5.656696670259533"><ele>938.3333333333334</ele><time>2026-03-25T14:10:09.992Z</time></trkpt><trkpt lat="30.861328454668374" lon="-5.656778747467236"><ele>938.1666666666667</ele><time>2026-03-25T14:10:10.992Z</time></trkpt><trkpt lat="30.861342923588218" lon="-5.656873721776891"><ele>938.0</ele><time>2026-03-25T14:10:11.992Z</time></trkpt><trkpt lat="30.861358983910094" lon="-5.6569816638055705"><ele>938.0000000000001</ele><time>2026-03-25T14:10:12.992Z</time></trkpt><trkpt lat="30.8613753383217" lon="-5.657081782641084"><ele>938.0</ele><time>2026-03-25T14:10:13.992Z</time></trkpt><trkpt lat="30.86139087186231" lon="-5.6571724011578866"><ele>938.0</ele><time>2026-03-25T14:10:14.992Z</time></trkpt><trkpt lat="30.86141094616207" lon="-5.65726761247546"><ele>938.0</ele><time>2026-03-25T14:10:15.992Z</time></trkpt><trkpt lat="30.861428185434516" lon="-5.657366712092776"><ele>938.0000000000001</ele><time>2026-03-25T14:10:16.992Z</time></trkpt><trkpt lat="30.86144690876319" lon="-5.657469711626055"><ele>938.0</ele><time>2026-03-25T14:10:17.992Z</time></trkpt><trkpt lat="30.861463152490987" lon="-5.657579743268043"><ele>938.0</ele><time>2026-03-25T14:10:18.992Z</time></trkpt><trkpt lat="30.86148057161322" lon="-5.657679981880619"><ele>938.0</ele><time>2026-03-25T14:10:19.992Z</time></trkpt><trkpt lat="30.8614962995807" lon="-5.6577845246598555"><ele>938.0</ele><time>2026-03-25T14:10:20.992Z</time></trkpt><trkpt lat="30.8615141014819" lon="-5.65789221325152"><ele>938.0</ele><time>2026-03-25T14:10:21.992Z</time></trkpt><trkpt lat="30.861534475869977" lon="-5.658007105831173"><ele>938.0</ele><time>2026-03-25T14:10:22.992Z</time></trkpt><trkpt lat="30.86155238951406" lon="-5.65811841908774"><ele>937.5999999999999</ele><time>2026-03-25T14:10:23.992Z</time></trkpt><trkpt lat="30.86157029680532" lon="-5.6582354796714505"><ele>937.1999999999999</ele><time>2026-03-25T14:10:24.992Z</time></trkpt><trkpt lat="30.861587363389656" lon="-5.658350449227252"><ele>936.8</ele><time>2026-03-25T14:10:25.992Z</time></trkpt><trkpt lat="30.861608144159607" lon="-5.658468184609907"><ele>936.4</ele><time>2026-03-25T14:10:26.992Z</time></trkpt><trkpt lat="30.861642935929638" lon="-5.658591671336622"><ele>936.0</ele><time>2026-03-25T14:10:27.992Z</time></trkpt><trkpt lat="30.861707651597676" lon="-5.6587050548855515"><ele>937.0</ele><time>2026-03-25T14:10:28.992Z</time></trkpt><trkpt lat="30.86179360789515" lon="-5.658822158075444"><ele>938.0</ele><time>2026-03-25T14:10:29.992Z</time></trkpt><trkpt lat="30.86190112252422" lon="-5.658933750502377"><ele>939.0</ele><time>2026-03-25T14:10:30.992Z</time></trkpt><trkpt lat="30.861981047376357" lon="-5.659044122671771"><ele>940.0</ele><time>2026-03-25T14:10:31.992Z</time></trkpt><trkpt lat="30.862031235558792" lon="-5.659157595435433"><ele>940.0</ele><time>2026-03-25T14:10:32.992Z</time></trkpt><trkpt lat="30.862051753741405" lon="-5.659269472340077"><ele>940.0</ele><time>2026-03-25T14:10:33.992Z</time></trkpt><trkpt lat="30.86204076113338" lon="-5.65938220979954"><ele>940.0</ele><time>2026-03-25T14:10:34.992Z</time></trkpt><trkpt lat="30.8620113900394" lon="-5.659545394720693"><ele>940.0</ele><time>2026-03-25T14:10:35.992Z</time></trkpt><trkpt lat="30.861985460363194" lon="-5.659713395522015"><ele>939.5</ele><time>2026-03-25T14:10:36.992Z</time></trkpt><trkpt lat="30.861934051619432" lon="-5.65985664679332"><ele>939.0</ele><time>2026-03-25T14:10:37.992Z</time></trkpt><trkpt lat="30.861875083677344" lon="-5.659985383219733"><ele>938.5</ele><time>2026-03-25T14:10:38.992Z</time></trkpt><trkpt lat="30.86181769625759" lon="-5.660114173825915"><ele>938.0</ele><time>2026-03-25T14:10:39.992Z</time></trkpt><trkpt lat="30.86175658672176" lon="-5.660237656142462"><ele>938.25</ele><time>2026-03-25T14:10:40.992Z</time></trkpt><trkpt lat="30.86168611074533" lon="-5.660343826943317"><ele>938.5</ele><time>2026-03-25T14:10:41.992Z</time></trkpt><trkpt lat="30.86158907672964" lon="-5.660436213346355"><ele>938.75</ele><time>2026-03-25T14:10:42.991Z</time></trkpt><trkpt lat="30.861462696564434" lon="-5.660518899375195"><ele>939.0</ele><time>2026-03-25T14:10:43.991Z</time></trkpt><trkpt lat="30.861334816130302" lon="-5.660606531272117"><ele>939.0</ele><time>2026-03-25T14:10:44.992Z</time></trkpt><trkpt lat="30.861228130405678" lon="-5.660680545961098"><ele>939.0</ele><time>2026-03-25T14:10:45.992Z</time></trkpt><trkpt lat="30.86113298273321" lon="-5.6607467070812865"><ele>939.0</ele><time>2026-03-25T14:10:46.992Z</time></trkpt><trkpt lat="30.861031716082245" lon="-5.6608188937589"><ele>939.0</ele><time>2026-03-25T14:10:47.992Z</time></trkpt><trkpt lat="30.860921236716152" lon="-5.660892757692202"><ele>939.0</ele><time>2026-03-25T14:10:48.991Z</time></trkpt><trkpt lat="30.86080764408736" lon="-5.660966918256898"><ele>939.0</ele><time>2026-03-25T14:10:49.991Z</time></trkpt><trkpt lat="30.86069768243923" lon="-5.661034341241598"><ele>939.0</ele><time>2026-03-25T14:10:50.992Z</time></trkpt><trkpt lat="30.860587061517215" lon="-5.6611038107502365"><ele>939.0</ele><time>2026-03-25T14:10:51.991Z</time></trkpt><trkpt lat="30.860475185387443" lon="-5.661172989165233"><ele>939.0</ele><time>2026-03-25T14:10:52.991Z</time></trkpt><trkpt lat="30.860362420067926" lon="-5.6612343635141"><ele>939.0</ele><time>2026-03-25T14:10:53.992Z</time></trkpt><trkpt lat="30.860255813698082" lon="-5.6613015641955355"><ele>939.0</ele><time>2026-03-25T14:10:54.992Z</time></trkpt><trkpt lat="30.860147150586553" lon="-5.66138032439232"><ele>939.0</ele><time>2026-03-25T14:10:55.992Z</time></trkpt><trkpt lat="30.860036167296183" lon="-5.661461103006943"><ele>938.5</ele><time>2026-03-25T14:10:56.992Z</time></trkpt><trkpt lat="30.85992277743569" lon="-5.661546561325211"><ele>938.0</ele><time>2026-03-25T14:10:57.992Z</time></trkpt><trkpt lat="30.85981207020448" lon="-5.66164422251792"><ele>937.5</ele><time>2026-03-25T14:10:58.992Z</time></trkpt><trkpt lat="30.859709670615096" lon="-5.661764298215381"><ele>937.0</ele><time>2026-03-25T14:10:59.992Z</time></trkpt><trkpt lat="30.859603410286716" lon="-5.661888854249103"><ele>936.5</ele><time>2026-03-25T14:11:00.992Z</time></trkpt><trkpt lat="30.859501867486845" lon="-5.6619888486951"><ele>936.0</ele><time>2026-03-25T14:11:01.992Z</time></trkpt><trkpt lat="30.85940646567708" lon="-5.662084358444014"><ele>935.5</ele><time>2026-03-25T14:11:02.992Z</time></trkpt><trkpt lat="30.85930908198868" lon="-5.662181031108616"><ele>935.0</ele><time>2026-03-25T14:11:03.992Z</time></trkpt><trkpt lat="30.859208600493037" lon="-5.662290736977344"><ele>934.25</ele><time>2026-03-25T14:11:04.992Z</time></trkpt><trkpt lat="30.859108468473636" lon="-5.662399274733384"><ele>933.5</ele><time>2026-03-25T14:11:05.992Z</time></trkpt><trkpt lat="30.859005476735128" lon="-5.662505663435968"><ele>932.75</ele><time>2026-03-25T14:11:06.992Z</time></trkpt><trkpt lat="30.858903893150984" lon="-5.662609652965634"><ele>932.0</ele><time>2026-03-25T14:11:07.992Z</time></trkpt><trkpt lat="30.858807940098632" lon="-5.662712687924257"><ele>932.5</ele><time>2026-03-25T14:11:08.992Z</time></trkpt><trkpt lat="30.858710668223168" lon="-5.6628233392823715"><ele>933.0</ele><time>2026-03-25T14:11:09.992Z</time></trkpt><trkpt lat="30.858615639599726" lon="-5.662946569619388"><ele>933.5</ele><time>2026-03-25T14:11:10.992Z</time></trkpt><trkpt lat="30.858526893973917" lon="-5.6630757534872975"><ele>934.0</ele><time>2026-03-25T14:11:11.992Z</time></trkpt><trkpt lat="30.85844733552111" lon="-5.663224512470359"><ele>933.5</ele><time>2026-03-25T14:11:12.992Z</time></trkpt><trkpt lat="30.85838769480237" lon="-5.663381366215431"><ele>933.0</ele><time>2026-03-25T14:11:13.992Z</time></trkpt><trkpt lat="30.858334198633475" lon="-5.663521233599188"><ele>932.5</ele><time>2026-03-25T14:11:14.992Z</time></trkpt><trkpt lat="30.85828477931738" lon="-5.663656486633555"><ele>932.0</ele><time>2026-03-25T14:11:15.992Z</time></trkpt><trkpt lat="30.858230877839645" lon="-5.663782885029172"><ele>932.0</ele><time>2026-03-25T14:11:16.992Z</time></trkpt><trkpt lat="30.858177469649604" lon="-5.663911767807576"><ele>932.0</ele><time>2026-03-25T14:11:17.992Z</time></trkpt><trkpt lat="30.858123058333284" lon="-5.664063674910463"><ele>932.0</ele><time>2026-03-25T14:11:18.992Z</time></trkpt><trkpt lat="30.858065075594713" lon="-5.664211572930935"><ele>932.0</ele><time>2026-03-25T14:11:19.992Z</time></trkpt><trkpt lat="30.858008503143797" lon="-5.664348876969678"><ele>932.6666666666667</ele><time>2026-03-25T14:11:20.992Z</time></trkpt><trkpt lat="30.85795089030691" lon="-5.664486293258141"><ele>933.3333333333333</ele><time>2026-03-25T14:11:21.992Z</time></trkpt><trkpt lat="30.857876248079354" lon="-5.664640213220812"><ele>934.0</ele><time>2026-03-25T14:11:22.992Z</time></trkpt><trkpt lat="30.85778210878389" lon="-5.6648191690035965"><ele>934.0</ele><time>2026-03-25T14:11:23.992Z</time></trkpt><trkpt lat="30.857692430127425" lon="-5.664983216854638"><ele>934.0</ele><time>2026-03-25T14:11:24.992Z</time></trkpt><trkpt lat="30.85761500774889" lon="-5.6651335260696385"><ele>934.0</ele><time>2026-03-25T14:11:25.992Z</time></trkpt><trkpt lat="30.85755588505513" lon="-5.665280783878435"><ele>934.25</ele><time>2026-03-25T14:11:26.992Z</time></trkpt><trkpt lat="30.85749635120096" lon="-5.665415543151765"><ele>934.5</ele><time>2026-03-25T14:11:27.992Z</time></trkpt><trkpt lat="30.85743124501546" lon="-5.665545274012175"><ele>934.75</ele><time>2026-03-25T14:11:28.992Z</time></trkpt><trkpt lat="30.85736028390571" lon="-5.665657755783875"><ele>935.0</ele><time>2026-03-25T14:11:29.992Z</time></trkpt><trkpt lat="30.857288684936307" lon="-5.665776771461631"><ele>935.0</ele><time>2026-03-25T14:11:30.992Z</time></trkpt><trkpt lat="30.85723244410946" lon="-5.665896434512313"><ele>935.0</ele><time>2026-03-25T14:11:31.992Z</time></trkpt><trkpt lat="30.85718450294876" lon="-5.666011830052978"><ele>935.0</ele><time>2026-03-25T14:11:32.992Z</time></trkpt><trkpt lat="30.857132380663558" lon="-5.666123238591474"><ele>935.0</ele><time>2026-03-25T14:11:33.992Z</time></trkpt><trkpt lat="30.85707922329454" lon="-5.666227751754922"><ele>935.0</ele><time>2026-03-25T14:11:34.992Z</time></trkpt><trkpt lat="30.857025694402292" lon="-5.666330255879977"><ele>936.0</ele><time>2026-03-25T14:11:35.992Z</time></trkpt><trkpt lat="30.856978900403764" lon="-5.666424137472861"><ele>937.0</ele><time>2026-03-25T14:11:36.992Z</time></trkpt><trkpt lat="30.856933660863483" lon="-5.666513229143356"><ele>938.0</ele><time>2026-03-25T14:11:37.992Z</time></trkpt><trkpt lat="30.85688704998053" lon="-5.66661062278325"><ele>939.0</ele><time>2026-03-25T14:11:38.992Z</time></trkpt><trkpt lat="30.85684146201479" lon="-5.6667006439669745"><ele>940.0</ele><time>2026-03-25T14:11:39.992Z</time></trkpt><trkpt lat="30.856796115774923" lon="-5.66679644650286"><ele>938.2</ele><time>2026-03-25T14:11:40.992Z</time></trkpt><trkpt lat="30.856749614684173" lon="-5.666893321710643"><ele>936.4</ele><time>2026-03-25T14:11:41.992Z</time></trkpt><trkpt lat="30.856701117314223" lon="-5.666984893966186"><ele>934.5999999999999</ele><time>2026-03-25T14:11:42.992Z</time></trkpt><trkpt lat="30.85665042328016" lon="-5.667083504340377"><ele>932.8</ele><time>2026-03-25T14:11:43.992Z</time></trkpt><trkpt lat="30.856602608853457" lon="-5.667193008427642"><ele>931.0</ele><time>2026-03-25T14:11:44.992Z</time></trkpt><trkpt lat="30.856550783911075" lon="-5.667304984959869"><ele>931.0</ele><time>2026-03-25T14:11:45.992Z</time></trkpt><trkpt lat="30.856493306365483" lon="-5.667414771886272"><ele>930.9999999999999</ele><time>2026-03-25T14:11:46.992Z</time></trkpt><trkpt lat="30.856434525899644" lon="-5.667525567651322"><ele>930.9999999999999</ele><time>2026-03-25T14:11:47.992Z</time></trkpt><trkpt lat="30.856377463225993" lon="-5.667639989369365"><ele>931.0</ele><time>2026-03-25T14:11:48.992Z</time></trkpt><trkpt lat="30.85632531331891" lon="-5.667751957911534"><ele>931.0</ele><time>2026-03-25T14:11:49.992Z</time></trkpt><trkpt lat="30.856272890613337" lon="-5.667868915050572"><ele>931.5999999999999</ele><time>2026-03-25T14:11:50.992Z</time></trkpt><trkpt lat="30.85623420501102" lon="-5.667959471310887"><ele>932.1999999999999</ele><time>2026-03-25T14:11:51.992Z</time></trkpt><trkpt lat="30.85620095255041" lon="-5.668045134006517"><ele>932.8000000000001</ele><time>2026-03-25T14:11:52.992Z</time></trkpt><trkpt lat="30.856172704834197" lon="-5.668151008739903"><ele>933.4000000000001</ele><time>2026-03-25T14:11:53.992Z</time></trkpt><trkpt lat="30.856141722803788" lon="-5.66827195008224"><ele>934.0</ele><time>2026-03-25T14:11:54.992Z</time></trkpt><trkpt lat="30.856104636773257" lon="-5.6684053598492135"><ele>934.0</ele><time>2026-03-25T14:11:55.992Z</time></trkpt><trkpt lat="30.85606831574318" lon="-5.668551444159263"><ele>934.0</ele><time>2026-03-25T14:11:56.992Z</time></trkpt><trkpt lat="30.856046470876695" lon="-5.66868584281015"><ele>934.0</ele><time>2026-03-25T14:11:57.992Z</time></trkpt><trkpt lat="30.856037252821235" lon="-5.6688137129615885"><ele>934.0</ele><time>2026-03-25T14:11:58.992Z</time></trkpt><trkpt lat="30.856022047219593" lon="-5.6689238746434"><ele>934.2</ele><time>2026-03-25T14:11:59.992Z</time></trkpt><trkpt lat="30.85600528891305" lon="-5.669050091737342"><ele>934.4000000000001</ele><time>2026-03-25T14:12:00.992Z</time></trkpt><trkpt lat="30.855988660722822" lon="-5.669168085408844"><ele>934.6</ele><time>2026-03-25T14:12:01.992Z</time></trkpt><trkpt lat="30.85597000801087" lon="-5.669286257015176"><ele>934.8</ele><time>2026-03-25T14:12:02.992Z</time></trkpt><trkpt lat="30.8559553066521" lon="-5.669399806397148"><ele>935.0</ele><time>2026-03-25T14:12:03.992Z</time></trkpt><trkpt lat="30.855937336198" lon="-5.669519198786884"><ele>934.5000000000001</ele><time>2026-03-25T14:12:04.992Z</time></trkpt><trkpt lat="30.855924618399342" lon="-5.66963348741596"><ele>934.0</ele><time>2026-03-25T14:12:05.992Z</time></trkpt><trkpt lat="30.855912565911673" lon="-5.669737691878553"><ele>933.5</ele><time>2026-03-25T14:12:06.992Z</time></trkpt><trkpt lat="30.855898975579784" lon="-5.669840372086271"><ele>933.0</ele><time>2026-03-25T14:12:07.992Z</time></trkpt><trkpt lat="30.855879864028655" lon="-5.669939552030427"><ele>932.5000000000001</ele><time>2026-03-25T14:12:08.992Z</time></trkpt><trkpt lat="30.85585631228665" lon="-5.6700303432605175"><ele>932.0</ele><time>2026-03-25T14:12:09.992Z</time></trkpt><trkpt lat="30.855812114195597" lon="-5.670117277522804"><ele>932.0</ele><time>2026-03-25T14:12:10.992Z</time></trkpt><trkpt lat="30.855730825812316" lon="-5.670202991696293"><ele>932.0</ele><time>2026-03-25T14:12:11.992Z</time></trkpt><trkpt lat="30.855631156612468" lon="-5.670279259203599"><ele>932.0</ele><time>2026-03-25T14:12:12.992Z</time></trkpt><trkpt lat="30.855515121289287" lon="-5.670373529980746"><ele>932.0</ele><time>2026-03-25T14:12:13.992Z</time></trkpt><trkpt lat="30.85539886290478" lon="-5.670488448263885"><ele>932.25</ele><time>2026-03-25T14:12:14.992Z</time></trkpt><trkpt lat="30.85529010954096" lon="-5.6706037397257285"><ele>932.5</ele><time>2026-03-25T14:12:15.992Z</time></trkpt><trkpt lat="30.85519263537453" lon="-5.6707028836512"><ele>932.75</ele><time>2026-03-25T14:12:16.992Z</time></trkpt><trkpt lat="30.855100274240442" lon="-5.670797875930822"><ele>933.0</ele><time>2026-03-25T14:12:17.992Z</time></trkpt><trkpt lat="30.8550023059098" lon="-5.670888275054879"><ele>933.0</ele><time>2026-03-25T14:12:18.992Z</time></trkpt><trkpt lat="30.85490554959422" lon="-5.6709725532202375"><ele>933.0</ele><time>2026-03-25T14:12:19.992Z</time></trkpt><trkpt lat="30.854806106401938" lon="-5.6710582202185815"><ele>933.0</ele><time>2026-03-25T14:12:20.992Z</time></trkpt><trkpt lat="30.854706708407512" lon="-5.671158172017902"><ele>933.0</ele><time>2026-03-25T14:12:21.992Z</time></trkpt><trkpt lat="30.854600545952316" lon="-5.671248664742604"><ele>933.0</ele><time>2026-03-25T14:12:22.992Z</time></trkpt><trkpt lat="30.854499118306457" lon="-5.671349844880578"><ele>933.0</ele><time>2026-03-25T14:12:23.992Z</time></trkpt><trkpt lat="30.854402372550663" lon="-5.671462193995752"><ele>933.0</ele><time>2026-03-25T14:12:24.992Z</time></trkpt><trkpt lat="30.85431405607309" lon="-5.671575400374236"><ele>933.0</ele><time>2026-03-25T14:12:25.992Z</time></trkpt><trkpt lat="30.854223189823973" lon="-5.671698549217236"><ele>933.0</ele><time>2026-03-25T14:12:26.992Z</time></trkpt><trkpt lat="30.85413082058469" lon="-5.671831947255081"><ele>933.0</ele><time>2026-03-25T14:12:27.992Z</time></trkpt><trkpt lat="30.85403210185141" lon="-5.671989137783462"><ele>933.0</ele><time>2026-03-25T14:12:28.992Z</time></trkpt><trkpt lat="30.853922638812865" lon="-5.6721548964692845"><ele>933.0</ele><time>2026-03-25T14:12:29.992Z</time></trkpt><trkpt lat="30.853810498069862" lon="-5.672318529277655"><ele>933.0</ele><time>2026-03-25T14:12:30.992Z</time></trkpt><trkpt lat="30.853698983008055" lon="-5.672474128757088"><ele>933.0</ele><time>2026-03-25T14:12:31.992Z</time></trkpt><trkpt lat="30.853600056734564" lon="-5.672628596655437"><ele>933.0</ele><time>2026-03-25T14:12:32.992Z</time></trkpt><trkpt lat="30.853507471009465" lon="-5.672779381156516"><ele>933.0</ele><time>2026-03-25T14:12:33.992Z</time></trkpt><trkpt lat="30.85342062546396" lon="-5.672920504236495"><ele>933.0</ele><time>2026-03-25T14:12:34.992Z</time></trkpt><trkpt lat="30.853319668578752" lon="-5.6730584457491995"><ele>933.0</ele><time>2026-03-25T14:12:35.992Z</time></trkpt><trkpt lat="30.853217536396198" lon="-5.673198422734496"><ele>933.0</ele><time>2026-03-25T14:12:36.992Z</time></trkpt><trkpt lat="30.853119510735404" lon="-5.67334512364681"><ele>933.0</ele><time>2026-03-25T14:12:37.992Z</time></trkpt><trkpt lat="30.8530237487047" lon="-5.673477293997816"><ele>933.6666666666667</ele><time>2026-03-25T14:12:38.992Z</time></trkpt><trkpt lat="30.85292471789987" lon="-5.673609270772408"><ele>934.3333333333334</ele><time>2026-03-25T14:12:39.992Z</time></trkpt><trkpt lat="30.852824945625443" lon="-5.673750746311863"><ele>935.0</ele><time>2026-03-25T14:12:40.992Z</time></trkpt><trkpt lat="30.85272776343049" lon="-5.673900267092383"><ele>935.0</ele><time>2026-03-25T14:12:41.992Z</time></trkpt><trkpt lat="30.852635584035163" lon="-5.674054442317667"><ele>935.0</ele><time>2026-03-25T14:12:42.992Z</time></trkpt><trkpt lat="30.852544709779732" lon="-5.67420728791946"><ele>935.0</ele><time>2026-03-25T14:12:43.992Z</time></trkpt><trkpt lat="30.85245118082156" lon="-5.6743587210263975"><ele>934.0</ele><time>2026-03-25T14:12:44.992Z</time></trkpt><trkpt lat="30.852353739941734" lon="-5.674507148526228"><ele>933.0</ele><time>2026-03-25T14:12:45.992Z</time></trkpt><trkpt lat="30.852264919098776" lon="-5.674654266000922"><ele>932.0</ele><time>2026-03-25T14:12:46.992Z</time></trkpt><trkpt lat="30.852181610902438" lon="-5.674784740991307"><ele>932.0</ele><time>2026-03-25T14:12:47.992Z</time></trkpt><trkpt lat="30.852101524279412" lon="-5.674911059598153"><ele>932.0</ele><time>2026-03-25T14:12:48.991Z</time></trkpt><trkpt lat="30.85202835347553" lon="-5.6750216788065915"><ele>932.0</ele><time>2026-03-25T14:12:49.991Z</time></trkpt><trkpt lat="30.851959989159923" lon="-5.675127740295419"><ele>932.0</ele><time>2026-03-25T14:12:50.992Z</time></trkpt><trkpt lat="30.851898127817968" lon="-5.6752183474492846"><ele>932.5000000000001</ele><time>2026-03-25T14:12:51.992Z</time></trkpt><trkpt lat="30.85183962320031" lon="-5.675295221059663"><ele>933.0</ele><time>2026-03-25T14:12:52.992Z</time></trkpt><trkpt lat="30.85178233214953" lon="-5.675370268400695"><ele>933.5</ele><time>2026-03-25T14:12:53.992Z</time></trkpt><trkpt lat="30.85171739950622" lon="-5.67544228539377"><ele>934.0</ele><time>2026-03-25T14:12:54.992Z</time></trkpt><trkpt lat="30.85164959761346" lon="-5.675511376880875"><ele>934.5000000000001</ele><time>2026-03-25T14:12:55.992Z</time></trkpt><trkpt lat="30.85158211106416" lon="-5.675587044747863"><ele>935.0</ele><time>2026-03-25T14:12:56.992Z</time></trkpt><trkpt lat="30.85152098388381" lon="-5.675666484952466"><ele>935.0</ele><time>2026-03-25T14:12:57.992Z</time></trkpt><trkpt lat="30.85146785219585" lon="-5.675756581979924"><ele>935.0</ele><time>2026-03-25T14:12:58.992Z</time></trkpt><trkpt lat="30.85140679401547" lon="-5.675853777741605"><ele>935.0</ele><time>2026-03-25T14:12:59.992Z</time></trkpt><trkpt lat="30.851348762322434" lon="-5.675960172104859"><ele>935.0</ele><time>2026-03-25T14:13:00.992Z</time></trkpt><trkpt lat="30.85131150453805" lon="-5.676068629374632"><ele>935.0</ele><time>2026-03-25T14:13:01.992Z</time></trkpt><trkpt lat="30.851291508768096" lon="-5.676195888901861"><ele>935.5</ele><time>2026-03-25T14:13:02.992Z</time></trkpt><trkpt lat="30.851274530718996" lon="-5.676346549967884"><ele>936.0</ele><time>2026-03-25T14:13:03.992Z</time></trkpt><trkpt lat="30.851249122003505" lon="-5.676498989048778"><ele>936.5</ele><time>2026-03-25T14:13:04.992Z</time></trkpt><trkpt lat="30.85122751699118" lon="-5.6766585403742384"><ele>937.0</ele><time>2026-03-25T14:13:05.992Z</time></trkpt><trkpt lat="30.85122861552913" lon="-5.676838244362892"><ele>936.0</ele><time>2026-03-25T14:13:06.992Z</time></trkpt><trkpt lat="30.851230509309204" lon="-5.6770254057941045"><ele>935.0</ele><time>2026-03-25T14:13:07.992Z</time></trkpt><trkpt lat="30.851249502274378" lon="-5.677198033203185"><ele>934.0</ele><time>2026-03-25T14:13:08.992Z</time></trkpt><trkpt lat="30.851277008612637" lon="-5.677366834757168"><ele>934.0</ele><time>2026-03-25T14:13:09.992Z</time></trkpt><trkpt lat="30.851302955645085" lon="-5.677527541412643"><ele>934.0</ele><time>2026-03-25T14:13:10.992Z</time></trkpt><trkpt lat="30.851331681854784" lon="-5.677673603948411"><ele>934.0</ele><time>2026-03-25T14:13:11.992Z</time></trkpt><trkpt lat="30.851338292579033" lon="-5.677828648741426"><ele>934.0</ele><time>2026-03-25T14:13:12.992Z</time></trkpt><trkpt lat="30.851314346641207" lon="-5.67798241498219"><ele>933.2</ele><time>2026-03-25T14:13:13.992Z</time></trkpt><trkpt lat="30.851275302701332" lon="-5.678117238139225"><ele>932.4000000000001</ele><time>2026-03-25T14:13:14.992Z</time></trkpt><trkpt lat="30.85122033189282" lon="-5.678233854614445"><ele>931.6</ele><time>2026-03-25T14:13:15.992Z</time></trkpt><trkpt lat="30.85116975651033" lon="-5.67834597720203"><ele>930.8</ele><time>2026-03-25T14:13:16.992Z</time></trkpt><trkpt lat="30.851130055467664" lon="-5.678447985621199"><ele>930.0</ele><time>2026-03-25T14:13:17.992Z</time></trkpt><trkpt lat="30.85109391766862" lon="-5.678532097785693"><ele>930.0</ele><time>2026-03-25T14:13:18.992Z</time></trkpt><trkpt lat="30.851066098044" lon="-5.678600551247537"><ele>930.0</ele><time>2026-03-25T14:13:19.992Z</time></trkpt><trkpt lat="30.85103011610409" lon="-5.678690286880466"><ele>930.0</ele><time>2026-03-25T14:13:21.992Z</time></trkpt><trkpt lat="30.851016071743008" lon="-5.678763553060495"><ele>930.0</ele><time>2026-03-25T14:13:24.992Z</time></trkpt><trkpt lat="30.85096192659468" lon="-5.678854236093274"><ele>930.0</ele><time>2026-03-25T14:15:30.984Z</time></trkpt><trkpt lat="30.850935756876297" lon="-5.678921010642477"><ele>930.0</ele><time>2026-03-25T14:15:31.984Z</time></trkpt><trkpt lat="30.850891565798555" lon="-5.679008800856872"><ele>930.0</ele><time>2026-03-25T14:15:32.984Z</time></trkpt><trkpt lat="30.85084433768196" lon="-5.679123536268081"><ele>930.0</ele><time>2026-03-25T14:15:33.984Z</time></trkpt><trkpt lat="30.850819657220363" lon="-5.679250877705628"><ele>930.0</ele><time>2026-03-25T14:15:34.984Z</time></trkpt><trkpt lat="30.850811186950477" lon="-5.679389378789034"><ele>930.0</ele><time>2026-03-25T14:15:35.984Z</time></trkpt><trkpt lat="30.850796776011087" lon="-5.679529555836259"><ele>930.4</ele><time>2026-03-25T14:15:36.984Z</time></trkpt><trkpt lat="30.850790393090065" lon="-5.679668875971143"><ele>930.8</ele><time>2026-03-25T14:15:37.984Z</time></trkpt><trkpt lat="30.850792212158076" lon="-5.679798306080734"><ele>931.2</ele><time>2026-03-25T14:15:38.984Z</time></trkpt><trkpt lat="30.85079486878872" lon="-5.679914109930888"><ele>931.6</ele><time>2026-03-25T14:15:39.984Z</time></trkpt><trkpt lat="30.850806623545115" lon="-5.680030713386791"><ele>932.0</ele><time>2026-03-25T14:15:40.984Z</time></trkpt><trkpt lat="30.850814103255477" lon="-5.680146405853668"><ele>932.0000000000001</ele><time>2026-03-25T14:15:41.984Z</time></trkpt><trkpt lat="30.850821120159324" lon="-5.680252291726589"><ele>932.0</ele><time>2026-03-25T14:15:42.984Z</time></trkpt><trkpt lat="30.85082630369798" lon="-5.680363511937837"><ele>932.0</ele><time>2026-03-25T14:15:43.984Z</time></trkpt><trkpt lat="30.850820565559168" lon="-5.680465826880737"><ele>932.0</ele><time>2026-03-25T14:15:44.984Z</time></trkpt><trkpt lat="30.85080620975158" lon="-5.68055575664977"><ele>932.0000000000001</ele><time>2026-03-25T14:15:45.984Z</time></trkpt><trkpt lat="30.85078378432124" lon="-5.680636201161976"><ele>932.0</ele><time>2026-03-25T14:15:46.984Z</time></trkpt><trkpt lat="30.850741225111758" lon="-5.680715356398527"><ele>931.4000000000001</ele><time>2026-03-25T14:15:47.984Z</time></trkpt><trkpt lat="30.850688637678154" lon="-5.680806572349013"><ele>930.8000000000001</ele><time>2026-03-25T14:15:48.984Z</time></trkpt><trkpt lat="30.850648802718734" lon="-5.680907411254597"><ele>930.2</ele><time>2026-03-25T14:15:49.984Z</time></trkpt><trkpt lat="30.850613205461418" lon="-5.681010867338603"><ele>929.6</ele><time>2026-03-25T14:15:50.984Z</time></trkpt><trkpt lat="30.850585172453638" lon="-5.681104910498263"><ele>929.0</ele><time>2026-03-25T14:15:51.984Z</time></trkpt><trkpt lat="30.85055289092574" lon="-5.681191236600685"><ele>929.0000000000001</ele><time>2026-03-25T14:15:52.984Z</time></trkpt><trkpt lat="30.850522511552946" lon="-5.681272494815853"><ele>929.0</ele><time>2026-03-25T14:15:53.984Z</time></trkpt><trkpt lat="30.85049686967813" lon="-5.6813422774902005"><ele>929.0</ele><time>2026-03-25T14:15:54.984Z</time></trkpt><trkpt lat="30.850473650062213" lon="-5.681410662490106"><ele>929.0</ele><time>2026-03-25T14:15:55.984Z</time></trkpt><trkpt lat="30.850446733558268" lon="-5.6815076077579665"><ele>929.0000000000001</ele><time>2026-03-25T14:15:56.984Z</time></trkpt><trkpt lat="30.850417616746203" lon="-5.681609912935279"><ele>929.0</ele><time>2026-03-25T14:15:57.984Z</time></trkpt><trkpt lat="30.850391656685858" lon="-5.681709121528155"><ele>929.0</ele><time>2026-03-25T14:15:58.984Z</time></trkpt><trkpt lat="30.85036467747012" lon="-5.681801876384571"><ele>929.0000000000001</ele><time>2026-03-25T14:15:59.984Z</time></trkpt><trkpt lat="30.85033394388446" lon="-5.681878642980409"><ele>929.0</ele><time>2026-03-25T14:16:00.984Z</time></trkpt><trkpt lat="30.85031232969207" lon="-5.681955744979279"><ele>929.0</ele><time>2026-03-25T14:16:01.984Z</time></trkpt><trkpt lat="30.850292140318032" lon="-5.682027353485031"><ele>929.0000000000001</ele><time>2026-03-25T14:16:02.984Z</time></trkpt><trkpt lat="30.850268779149907" lon="-5.682109150039313"><ele>929.0</ele><time>2026-03-25T14:16:03.984Z</time></trkpt><trkpt lat="30.850247207541607" lon="-5.682202271186396"><ele>929.0</ele><time>2026-03-25T14:16:04.984Z</time></trkpt><trkpt lat="30.85021768191338" lon="-5.682290832766362"><ele>928.8333333333334</ele><time>2026-03-25T14:16:05.984Z</time></trkpt><trkpt lat="30.850188461532735" lon="-5.682384347990071"><ele>928.6666666666667</ele><time>2026-03-25T14:16:06.984Z</time></trkpt><trkpt lat="30.85016111683698" lon="-5.682471362973243"><ele>928.5</ele><time>2026-03-25T14:16:07.984Z</time></trkpt><trkpt lat="30.850142432998116" lon="-5.68255210459491"><ele>928.3333333333333</ele><time>2026-03-25T14:16:08.984Z</time></trkpt><trkpt lat="30.85012706668944" lon="-5.682644673251604"><ele>928.1666666666666</ele><time>2026-03-25T14:16:09.984Z</time></trkpt><trkpt lat="30.85009535147637" lon="-5.682750904028756"><ele>928.0</ele><time>2026-03-25T14:16:10.984Z</time></trkpt><trkpt lat="30.85004660962736" lon="-5.682836462776997"><ele>927.5999999999999</ele><time>2026-03-25T14:16:11.984Z</time></trkpt><trkpt lat="30.84999764794943" lon="-5.682930050801042"><ele>927.1999999999999</ele><time>2026-03-25T14:16:12.984Z</time></trkpt><trkpt lat="30.849946563573468" lon="-5.683013649763608"><ele>926.8</ele><time>2026-03-25T14:16:13.984Z</time></trkpt><trkpt lat="30.849900370418514" lon="-5.683109851989715"><ele>926.4</ele><time>2026-03-25T14:16:14.984Z</time></trkpt><trkpt lat="30.84985453941921" lon="-5.683207178452334"><ele>926.0</ele><time>2026-03-25T14:16:15.984Z</time></trkpt><trkpt lat="30.84980918368034" lon="-5.683301925116524"><ele>926.0</ele><time>2026-03-25T14:16:16.984Z</time></trkpt><trkpt lat="30.849770419361988" lon="-5.683390692745486"><ele>925.9999999999999</ele><time>2026-03-25T14:16:17.984Z</time></trkpt><trkpt lat="30.849736275296944" lon="-5.683486361722455"><ele>925.9999999999999</ele><time>2026-03-25T14:16:18.984Z</time></trkpt><trkpt lat="30.84969809525166" lon="-5.683595670148062"><ele>926.0</ele><time>2026-03-25T14:16:19.984Z</time></trkpt><trkpt lat="30.849659464099886" lon="-5.683697192151861"><ele>926.0</ele><time>2026-03-25T14:16:20.984Z</time></trkpt><trkpt lat="30.849629783735338" lon="-5.683798134759766"><ele>926.4285714285713</ele><time>2026-03-25T14:16:21.984Z</time></trkpt><trkpt lat="30.849597850206845" lon="-5.6838834153552105"><ele>926.8571428571428</ele><time>2026-03-25T14:16:22.984Z</time></trkpt><trkpt lat="30.849573921580266" lon="-5.683960930627955"><ele>927.2857142857142</ele><time>2026-03-25T14:16:23.984Z</time></trkpt><trkpt lat="30.849554385672725" lon="-5.684040147480599"><ele>927.7142857142858</ele><time>2026-03-25T14:16:24.984Z</time></trkpt><trkpt lat="30.84954050087488" lon="-5.684113111918995"><ele>928.1428571428572</ele><time>2026-03-25T14:16:25.984Z</time></trkpt><trkpt lat="30.84951009634286" lon="-5.684180871041971"><ele>928.5714285714287</ele><time>2026-03-25T14:16:26.984Z</time></trkpt><trkpt lat="30.849467299138425" lon="-5.684263825605214"><ele>929.0</ele><time>2026-03-25T14:16:27.984Z</time></trkpt><trkpt lat="30.8493891332409" lon="-5.684333616534403"><ele>929.0000000000001</ele><time>2026-03-25T14:16:28.984Z</time></trkpt><trkpt lat="30.849291577457713" lon="-5.68439176095352"><ele>929.0</ele><time>2026-03-25T14:16:29.984Z</time></trkpt><trkpt lat="30.849214853014136" lon="-5.684454775042614"><ele>929.0</ele><time>2026-03-25T14:16:30.984Z</time></trkpt><trkpt lat="30.84914056309195" lon="-5.684489085433075"><ele>929.0</ele><time>2026-03-25T14:16:31.984Z</time></trkpt><trkpt lat="30.849070335781967" lon="-5.684531256121629"><ele>929.0000000000001</ele><time>2026-03-25T14:16:32.984Z</time></trkpt><trkpt lat="30.849015368560774" lon="-5.684584669404192"><ele>929.0</ele><time>2026-03-25T14:16:33.984Z</time></trkpt><trkpt lat="30.849006481706937" lon="-5.684722197099632"><ele>929.0</ele><time>2026-03-25T14:16:35.984Z</time></trkpt><trkpt lat="30.84904329093932" lon="-5.684815136861452"><ele>929.0</ele><time>2026-03-25T14:16:36.984Z</time></trkpt><trkpt lat="30.849120026766208" lon="-5.684923327627511"><ele>929.0</ele><time>2026-03-25T14:16:37.984Z</time></trkpt><trkpt lat="30.849214758457585" lon="-5.685035680839359"><ele>929.0</ele><time>2026-03-25T14:16:38.984Z</time></trkpt><trkpt lat="30.849292865083164" lon="-5.685145633194673"><ele>929.25</ele><time>2026-03-25T14:16:39.984Z</time></trkpt><trkpt lat="30.849355818476088" lon="-5.685245672002521"><ele>929.5</ele><time>2026-03-25T14:16:40.984Z</time></trkpt><trkpt lat="30.84938921357765" lon="-5.685367173090099"><ele>929.75</ele><time>2026-03-25T14:16:41.984Z</time></trkpt><trkpt lat="30.849404259656527" lon="-5.6855267177792035"><ele>930.0</ele><time>2026-03-25T14:16:42.984Z</time></trkpt><trkpt lat="30.849430311215215" lon="-5.6856845521421056"><ele>930.0</ele><time>2026-03-25T14:16:43.984Z</time></trkpt><trkpt lat="30.849452519219234" lon="-5.685826812165788"><ele>930.0</ele><time>2026-03-25T14:16:44.984Z</time></trkpt><trkpt lat="30.849479184772" lon="-5.685958874278394"><ele>930.0</ele><time>2026-03-25T14:16:45.984Z</time></trkpt><trkpt lat="30.849508181206325" lon="-5.68609214247954"><ele>930.0</ele><time>2026-03-25T14:16:46.984Z</time></trkpt><trkpt lat="30.849535640405698" lon="-5.686227685169171"><ele>930.5</ele><time>2026-03-25T14:16:47.984Z</time></trkpt><trkpt lat="30.84956049475591" lon="-5.686375814798389"><ele>931.0</ele><time>2026-03-25T14:16:48.984Z</time></trkpt><trkpt lat="30.849595241548144" lon="-5.6865032962444895"><ele>931.5</ele><time>2026-03-25T14:16:49.984Z</time></trkpt><trkpt lat="30.84962590954229" lon="-5.686628280326768"><ele>932.0</ele><time>2026-03-25T14:16:50.984Z</time></trkpt><trkpt lat="30.849655796303622" lon="-5.686747162713567"><ele>932.0</ele><time>2026-03-25T14:16:51.984Z</time></trkpt><trkpt lat="30.84967783203412" lon="-5.686864255942083"><ele>932.0</ele><time>2026-03-25T14:16:52.984Z</time></trkpt><trkpt lat="30.849688243179926" lon="-5.686968456691357"><ele>932.0</ele><time>2026-03-25T14:16:53.984Z</time></trkpt><trkpt lat="30.849699941502138" lon="-5.687070160028509"><ele>932.0</ele><time>2026-03-25T14:16:54.984Z</time></trkpt><trkpt lat="30.84970964559686" lon="-5.687166089825991"><ele>932.0</ele><time>2026-03-25T14:16:55.984Z</time></trkpt><trkpt lat="30.849737723413547" lon="-5.687261177394228"><ele>932.0</ele><time>2026-03-25T14:16:56.984Z</time></trkpt><trkpt lat="30.849783470321675" lon="-5.687359503536951"><ele>932.0</ele><time>2026-03-25T14:16:57.984Z</time></trkpt><trkpt lat="30.849836362777936" lon="-5.687452540717408"><ele>932.0</ele><time>2026-03-25T14:16:58.984Z</time></trkpt><trkpt lat="30.849894980651253" lon="-5.687537044201833"><ele>932.0</ele><time>2026-03-25T14:16:59.984Z</time></trkpt><trkpt lat="30.849960878641433" lon="-5.6876174236612735"><ele>932.0</ele><time>2026-03-25T14:17:00.983Z</time></trkpt><trkpt lat="30.85003401041492" lon="-5.687694589002917"><ele>932.0</ele><time>2026-03-25T14:17:01.983Z</time></trkpt><trkpt lat="30.85010733916056" lon="-5.687761353245762"><ele>932.0</ele><time>2026-03-25T14:17:02.984Z</time></trkpt><trkpt lat="30.850171034336135" lon="-5.6878403837888305"><ele>932.0</ele><time>2026-03-25T14:17:03.983Z</time></trkpt><trkpt lat="30.8502325885608" lon="-5.68792586309858"><ele>932.0</ele><time>2026-03-25T14:17:04.983Z</time></trkpt><trkpt lat="30.85028492938096" lon="-5.6880170136076496"><ele>932.0</ele><time>2026-03-25T14:17:05.983Z</time></trkpt><trkpt lat="30.85033715374719" lon="-5.6881181697564935"><ele>932.2</ele><time>2026-03-25T14:17:06.983Z</time></trkpt><trkpt lat="30.850380868874808" lon="-5.688218140886698"><ele>932.4000000000001</ele><time>2026-03-25T14:17:07.983Z</time></trkpt><trkpt lat="30.850429190626553" lon="-5.688321846265901"><ele>932.5999999999999</ele><time>2026-03-25T14:17:08.983Z</time></trkpt><trkpt lat="30.850481560876624" lon="-5.688431611866614"><ele>932.8</ele><time>2026-03-25T14:17:09.984Z</time></trkpt><trkpt lat="30.850544128153768" lon="-5.688541631685933"><ele>933.0</ele><time>2026-03-25T14:17:10.984Z</time></trkpt><trkpt lat="30.85060994981009" lon="-5.6886460826361"><ele>933.25</ele><time>2026-03-25T14:17:11.983Z</time></trkpt><trkpt lat="30.850692618033555" lon="-5.688745433615882"><ele>933.5</ele><time>2026-03-25T14:17:12.983Z</time></trkpt><trkpt lat="30.850772503577357" lon="-5.688844634241084"><ele>933.75</ele><time>2026-03-25T14:17:13.983Z</time></trkpt><trkpt lat="30.850842600492996" lon="-5.688949032700274"><ele>934.0</ele><time>2026-03-25T14:17:14.983Z</time></trkpt><trkpt lat="30.850909146971762" lon="-5.6890465724011765"><ele>933.8333333333333</ele><time>2026-03-25T14:17:15.983Z</time></trkpt><trkpt lat="30.85097233652033" lon="-5.689132436873219"><ele>933.6666666666666</ele><time>2026-03-25T14:17:16.983Z</time></trkpt><trkpt lat="30.851042104778042" lon="-5.689204706575653"><ele>933.5</ele><time>2026-03-25T14:17:17.983Z</time></trkpt><trkpt lat="30.851110448834955" lon="-5.6892631091052355"><ele>933.3333333333333</ele><time>2026-03-25T14:17:18.983Z</time></trkpt><trkpt lat="30.851173143560864" lon="-5.689303984418927"><ele>933.1666666666666</ele><time>2026-03-25T14:17:19.983Z</time></trkpt><trkpt lat="30.85125498136285" lon="-5.689350206713147"><ele>933.0</ele><time>2026-03-25T14:17:21.983Z</time></trkpt><trkpt lat="30.851321599581485" lon="-5.6894032838780735"><ele>933.5999999999999</ele><time>2026-03-25T14:17:23.983Z</time></trkpt><trkpt lat="30.851361636576247" lon="-5.689514684974255"><ele>934.1999999999999</ele><time>2026-03-25T14:17:25.983Z</time></trkpt><trkpt lat="30.851366021109097" lon="-5.689613164749517"><ele>934.8</ele><time>2026-03-25T14:17:26.983Z</time></trkpt><trkpt lat="30.851366217112332" lon="-5.68972259971619"><ele>935.4</ele><time>2026-03-25T14:17:27.983Z</time></trkpt><trkpt lat="30.851368885848686" lon="-5.689841985624576"><ele>936.0</ele><time>2026-03-25T14:17:28.983Z</time></trkpt><trkpt lat="30.8513670205302" lon="-5.689976210057124"><ele>936.0</ele><time>2026-03-25T14:17:29.983Z</time></trkpt><trkpt lat="30.85135725928532" lon="-5.690145426343184"><ele>936.0</ele><time>2026-03-25T14:17:30.983Z</time></trkpt><trkpt lat="30.85133770291426" lon="-5.690299516398527"><ele>936.0</ele><time>2026-03-25T14:17:31.983Z</time></trkpt><trkpt lat="30.851328567827608" lon="-5.690437596472603"><ele>936.0</ele><time>2026-03-25T14:17:32.983Z</time></trkpt><trkpt lat="30.85132212877683" lon="-5.690563585534954"><ele>936.0</ele><time>2026-03-25T14:17:33.983Z</time></trkpt><trkpt lat="30.851315956781672" lon="-5.690676249180502"><ele>935.9999999999999</ele><time>2026-03-25T14:17:34.983Z</time></trkpt><trkpt lat="30.85130652693077" lon="-5.690781887770062"><ele>935.9999999999999</ele><time>2026-03-25T14:17:35.983Z</time></trkpt><trkpt lat="30.851297383339354" lon="-5.6909029712745935"><ele>936.0</ele><time>2026-03-25T14:17:36.983Z</time></trkpt><trkpt lat="30.851290559682162" lon="-5.691032853466939"><ele>936.0</ele><time>2026-03-25T14:17:37.983Z</time></trkpt><trkpt lat="30.85128378716582" lon="-5.691168723707322"><ele>936.0</ele><time>2026-03-25T14:17:38.983Z</time></trkpt><trkpt lat="30.851277929617897" lon="-5.691310999645613"><ele>936.0</ele><time>2026-03-25T14:17:39.983Z</time></trkpt><trkpt lat="30.851264859280267" lon="-5.691457988069748"><ele>936.0</ele><time>2026-03-25T14:17:40.983Z</time></trkpt><trkpt lat="30.851257025897596" lon="-5.691618819138335"><ele>936.0</ele><time>2026-03-25T14:17:41.983Z</time></trkpt><trkpt lat="30.8512500636211" lon="-5.691784274672"><ele>935.5</ele><time>2026-03-25T14:17:42.983Z</time></trkpt><trkpt lat="30.851239782335096" lon="-5.691952808486354"><ele>935.0</ele><time>2026-03-25T14:17:43.983Z</time></trkpt><trkpt lat="30.851231273633758" lon="-5.692123295507325"><ele>934.5</ele><time>2026-03-25T14:17:44.983Z</time></trkpt><trkpt lat="30.85122009614138" lon="-5.692292869735676"><ele>934.0</ele><time>2026-03-25T14:17:45.983Z</time></trkpt><trkpt lat="30.851202079564988" lon="-5.692460067435908"><ele>934.0</ele><time>2026-03-25T14:17:46.983Z</time></trkpt><trkpt lat="30.851195772474657" lon="-5.692635030845271"><ele>934.0</ele><time>2026-03-25T14:17:47.983Z</time></trkpt><trkpt lat="30.851185185925832" lon="-5.692816788934464"><ele>934.0</ele><time>2026-03-25T14:17:48.983Z</time></trkpt><trkpt lat="30.851171312811417" lon="-5.693005679302411"><ele>935.3333333333333</ele><time>2026-03-25T14:17:49.983Z</time></trkpt><trkpt lat="30.851156644332114" lon="-5.693205153412528"><ele>936.6666666666667</ele><time>2026-03-25T14:17:50.983Z</time></trkpt><trkpt lat="30.851140599867897" lon="-5.6934149551449265"><ele>938.0</ele><time>2026-03-25T14:17:51.983Z</time></trkpt><trkpt lat="30.85112221222004" lon="-5.6936310596477355"><ele>938.0</ele><time>2026-03-25T14:17:52.983Z</time></trkpt><trkpt lat="30.851108037545252" lon="-5.693824616117166"><ele>938.0</ele><time>2026-03-25T14:17:53.983Z</time></trkpt><trkpt lat="30.851097665812294" lon="-5.694004403581242"><ele>938.0</ele><time>2026-03-25T14:17:54.983Z</time></trkpt><trkpt lat="30.851084096149588" lon="-5.6941880640906355"><ele>938.0</ele><time>2026-03-25T14:17:55.983Z</time></trkpt><trkpt lat="30.851067390383836" lon="-5.694361504940158"><ele>938.0</ele><time>2026-03-25T14:17:56.983Z</time></trkpt><trkpt lat="30.851055017683365" lon="-5.694516354597429"><ele>938.0</ele><time>2026-03-25T14:17:57.983Z</time></trkpt><trkpt lat="30.8510498719988" lon="-5.694670073200609"><ele>938.0</ele><time>2026-03-25T14:17:58.983Z</time></trkpt><trkpt lat="30.851038001863255" lon="-5.694799498858512"><ele>938.2</ele><time>2026-03-25T14:17:59.983Z</time></trkpt><trkpt lat="30.85103191592094" lon="-5.694926201511481"><ele>938.4</ele><time>2026-03-25T14:18:00.983Z</time></trkpt><trkpt lat="30.8510216808344" lon="-5.695042199598882"><ele>938.6000000000001</ele><time>2026-03-25T14:18:01.983Z</time></trkpt><trkpt lat="30.85101621154953" lon="-5.695138410125878"><ele>938.8000000000001</ele><time>2026-03-25T14:18:02.983Z</time></trkpt><trkpt lat="30.851009147860815" lon="-5.695225553810401"><ele>939.0</ele><time>2026-03-25T14:18:03.983Z</time></trkpt><trkpt lat="30.850998800481136" lon="-5.695347084655348"><ele>938.6666666666666</ele><time>2026-03-25T14:18:05.983Z</time></trkpt><trkpt lat="30.851001626548996" lon="-5.695463768602443"><ele>938.3333333333333</ele><time>2026-03-25T14:18:22.983Z</time></trkpt><trkpt lat="30.850997353130435" lon="-5.695544795387926"><ele>938.0</ele><time>2026-03-25T14:18:23.983Z</time></trkpt><trkpt lat="30.850995668662964" lon="-5.695653009026179"><ele>937.6666666666666</ele><time>2026-03-25T14:18:24.983Z</time></trkpt><trkpt lat="30.850989952957068" lon="-5.69574187741443"><ele>937.3333333333333</ele><time>2026-03-25T14:18:25.983Z</time></trkpt><trkpt lat="30.85098004299257" lon="-5.695821423281473"><ele>937.0</ele><time>2026-03-25T14:18:26.983Z</time></trkpt><trkpt lat="30.850973612387566" lon="-5.695912807495161"><ele>937.0</ele><time>2026-03-25T14:18:27.983Z</time></trkpt><trkpt lat="30.85096782788667" lon="-5.696022570809608"><ele>937.0</ele><time>2026-03-25T14:18:28.983Z</time></trkpt><trkpt lat="30.85096142632742" lon="-5.696131745237892"><ele>937.0</ele><time>2026-03-25T14:18:29.983Z</time></trkpt><trkpt lat="30.85095336252525" lon="-5.6962446671846125"><ele>937.0</ele><time>2026-03-25T14:18:30.983Z</time></trkpt><trkpt lat="30.85094485394876" lon="-5.69636183625862"><ele>937.0</ele><time>2026-03-25T14:18:31.983Z</time></trkpt><trkpt lat="30.85093698938876" lon="-5.696498257975647"><ele>936.75</ele><time>2026-03-25T14:18:32.983Z</time></trkpt><trkpt lat="30.850925434841475" lon="-5.696639168865839"><ele>936.5</ele><time>2026-03-25T14:18:33.983Z</time></trkpt><trkpt lat="30.850913354553523" lon="-5.696786425596981"><ele>936.25</ele><time>2026-03-25T14:18:34.983Z</time></trkpt><trkpt lat="30.85090146158123" lon="-5.69693825432128"><ele>936.0</ele><time>2026-03-25T14:18:35.983Z</time></trkpt><trkpt lat="30.850891609883945" lon="-5.697101117356126"><ele>937.0</ele><time>2026-03-25T14:18:36.983Z</time></trkpt><trkpt lat="30.850881593662294" lon="-5.697276472204976"><ele>938.0</ele><time>2026-03-25T14:18:37.983Z</time></trkpt><trkpt lat="30.85086529638336" lon="-5.697453402508938"><ele>939.0</ele><time>2026-03-25T14:18:38.983Z</time></trkpt><trkpt lat="30.850854632208033" lon="-5.697641100346647"><ele>939.3333333333333</ele><time>2026-03-25T14:18:39.983Z</time></trkpt><trkpt lat="30.850840586913808" lon="-5.697830130438034"><ele>939.6666666666666</ele><time>2026-03-25T14:18:40.983Z</time></trkpt><trkpt lat="30.850827192320498" lon="-5.698022099395354"><ele>940.0</ele><time>2026-03-25T14:18:41.983Z</time></trkpt><trkpt lat="30.850820445554884" lon="-5.698205296983084"><ele>940.0</ele><time>2026-03-25T14:18:42.983Z</time></trkpt><trkpt lat="30.850809415086974" lon="-5.6983727416442855"><ele>940.0</ele><time>2026-03-25T14:18:43.983Z</time></trkpt><trkpt lat="30.85079853490811" lon="-5.698527107777972"><ele>940.0</ele><time>2026-03-25T14:18:44.983Z</time></trkpt><trkpt lat="30.850786857624904" lon="-5.698686601804006"><ele>940.0</ele><time>2026-03-25T14:18:45.983Z</time></trkpt><trkpt lat="30.850781202874288" lon="-5.698868070230098"><ele>940.0</ele><time>2026-03-25T14:18:46.983Z</time></trkpt><trkpt lat="30.85076959069202" lon="-5.699056275531698"><ele>940.0</ele><time>2026-03-25T14:18:47.983Z</time></trkpt><trkpt lat="30.850756664176586" lon="-5.699247267136566"><ele>940.0</ele><time>2026-03-25T14:18:48.983Z</time></trkpt><trkpt lat="30.850742893179348" lon="-5.699440563200922"><ele>939.6666666666666</ele><time>2026-03-25T14:18:49.983Z</time></trkpt><trkpt lat="30.850733137229536" lon="-5.699633709018785"><ele>939.3333333333333</ele><time>2026-03-25T14:18:50.983Z</time></trkpt><trkpt lat="30.850722865229045" lon="-5.699832269112804"><ele>939.0</ele><time>2026-03-25T14:18:51.983Z</time></trkpt><trkpt lat="30.850707435340972" lon="-5.70003520541534"><ele>939.0</ele><time>2026-03-25T14:18:52.983Z</time></trkpt><trkpt lat="30.850691437656092" lon="-5.700242840917057"><ele>939.0</ele><time>2026-03-25T14:18:53.983Z</time></trkpt><trkpt lat="30.85067745338719" lon="-5.7004478998033035"><ele>939.0</ele><time>2026-03-25T14:18:54.983Z</time></trkpt><trkpt lat="30.850665973455925" lon="-5.700659058042893"><ele>939.0</ele><time>2026-03-25T14:18:55.983Z</time></trkpt><trkpt lat="30.85065398050449" lon="-5.7008640871858"><ele>939.0</ele><time>2026-03-25T14:18:56.983Z</time></trkpt><trkpt lat="30.850637250353884" lon="-5.701062110227901"><ele>939.0</ele><time>2026-03-25T14:18:57.983Z</time></trkpt><trkpt lat="30.850621505202877" lon="-5.7012661838893655"><ele>939.3333333333333</ele><time>2026-03-25T14:18:58.983Z</time></trkpt><trkpt lat="30.85060333201453" lon="-5.701472890473926"><ele>939.6666666666666</ele><time>2026-03-25T14:18:59.983Z</time></trkpt><trkpt lat="30.85059446924844" lon="-5.701683367273155"><ele>940.0</ele><time>2026-03-25T14:19:00.983Z</time></trkpt><trkpt lat="30.850576767556063" lon="-5.7018715767369645"><ele>940.0</ele><time>2026-03-25T14:19:01.983Z</time></trkpt><trkpt lat="30.850566048453214" lon="-5.70205174884279"><ele>940.0</ele><time>2026-03-25T14:19:02.983Z</time></trkpt><trkpt lat="30.85055734092796" lon="-5.70222972570636"><ele>940.0</ele><time>2026-03-25T14:19:03.983Z</time></trkpt><trkpt lat="30.850543506203554" lon="-5.7024076199188665"><ele>940.0</ele><time>2026-03-25T14:19:04.983Z</time></trkpt><trkpt lat="30.85052963991301" lon="-5.702589053567258"><ele>940.0</ele><time>2026-03-25T14:19:05.983Z</time></trkpt><trkpt lat="30.850514295670546" lon="-5.702769296791549"><ele>940.0</ele><time>2026-03-25T14:19:06.983Z</time></trkpt><trkpt lat="30.85049952860555" lon="-5.702939777910418"><ele>940.3333333333333</ele><time>2026-03-25T14:19:07.983Z</time></trkpt><trkpt lat="30.850490178857093" lon="-5.7031151636080315"><ele>940.6666666666667</ele><time>2026-03-25T14:19:08.984Z</time></trkpt><trkpt lat="30.850479052900283" lon="-5.703293565134178"><ele>941.0</ele><time>2026-03-25T14:19:09.983Z</time></trkpt><trkpt lat="30.850466078268635" lon="-5.703475070675009"><ele>941.75</ele><time>2026-03-25T14:19:10.983Z</time></trkpt><trkpt lat="30.850452012840442" lon="-5.703652161906763"><ele>942.5</ele><time>2026-03-25T14:19:11.983Z</time></trkpt><trkpt lat="30.850437499489853" lon="-5.703823470084517"><ele>943.25</ele><time>2026-03-25T14:19:12.983Z</time></trkpt><trkpt lat="30.850423129523683" lon="-5.703988774330238"><ele>944.0</ele><time>2026-03-25T14:19:13.983Z</time></trkpt><trkpt lat="30.850410888439455" lon="-5.704155769092006"><ele>944.0</ele><time>2026-03-25T14:19:14.983Z</time></trkpt><trkpt lat="30.850396906207134" lon="-5.704339709646427"><ele>944.0</ele><time>2026-03-25T14:19:15.983Z</time></trkpt><trkpt lat="30.850384131289594" lon="-5.704534605717423"><ele>944.0</ele><time>2026-03-25T14:19:16.983Z</time></trkpt><trkpt lat="30.850373844351388" lon="-5.704706733845334"><ele>944.0</ele><time>2026-03-25T14:19:17.983Z</time></trkpt><trkpt lat="30.850361029712637" lon="-5.704859722720278"><ele>944.0</ele><time>2026-03-25T14:19:18.983Z</time></trkpt><trkpt lat="30.850348414514624" lon="-5.705005190779344"><ele>944.0</ele><time>2026-03-25T14:19:19.983Z</time></trkpt><trkpt lat="30.85033594480687" lon="-5.705142296980211"><ele>944.0</ele><time>2026-03-25T14:19:20.983Z</time></trkpt><trkpt lat="30.85032364497439" lon="-5.705273526013378"><ele>943.6</ele><time>2026-03-25T14:19:21.983Z</time></trkpt><trkpt lat="30.850314347460436" lon="-5.705396850245295"><ele>943.2</ele><time>2026-03-25T14:19:22.983Z</time></trkpt><trkpt lat="30.850305074195006" lon="-5.705516704789271"><ele>942.8000000000001</ele><time>2026-03-25T14:19:23.983Z</time></trkpt><trkpt lat="30.850293136780795" lon="-5.705641907227218"><ele>942.4000000000001</ele><time>2026-03-25T14:19:24.983Z</time></trkpt><trkpt lat="30.85028310259026" lon="-5.705776714159597"><ele>942.0</ele><time>2026-03-25T14:19:25.983Z</time></trkpt><trkpt lat="30.850271688850288" lon="-5.705920792281783"><ele>942.0</ele><time>2026-03-25T14:19:26.983Z</time></trkpt><trkpt lat="30.850263162267414" lon="-5.706072589439096"><ele>942.0</ele><time>2026-03-25T14:19:27.983Z</time></trkpt><trkpt lat="30.850253572770704" lon="-5.706234985703985"><ele>942.0</ele><time>2026-03-25T14:19:28.983Z</time></trkpt><trkpt lat="30.850237170796948" lon="-5.706396986136246"><ele>942.0</ele><time>2026-03-25T14:19:29.983Z</time></trkpt><trkpt lat="30.850226583499197" lon="-5.706569585287932"><ele>942.5</ele><time>2026-03-25T14:19:30.983Z</time></trkpt><trkpt lat="30.850214675760732" lon="-5.706745006801154"><ele>943.0</ele><time>2026-03-25T14:19:31.983Z</time></trkpt><trkpt lat="30.850196564423754" lon="-5.7069153739765435"><ele>943.5</ele><time>2026-03-25T14:19:32.983Z</time></trkpt><trkpt lat="30.850179994278736" lon="-5.707082966016636"><ele>944.0</ele><time>2026-03-25T14:19:33.983Z</time></trkpt><trkpt lat="30.85016393758703" lon="-5.707247764172233"><ele>943.75</ele><time>2026-03-25T14:19:34.983Z</time></trkpt><trkpt lat="30.850151188868196" lon="-5.707412886002779"><ele>943.5</ele><time>2026-03-25T14:19:35.983Z</time></trkpt><trkpt lat="30.85013859428304" lon="-5.707573861289888"><ele>943.25</ele><time>2026-03-25T14:19:36.983Z</time></trkpt><trkpt lat="30.85012903967488" lon="-5.707734383445561"><ele>943.0</ele><time>2026-03-25T14:19:37.983Z</time></trkpt><trkpt lat="30.850117895533256" lon="-5.7078932913710565"><ele>943.0</ele><time>2026-03-25T14:19:38.983Z</time></trkpt><trkpt lat="30.850104568375873" lon="-5.708051931355754"><ele>943.0</ele><time>2026-03-25T14:19:39.983Z</time></trkpt><trkpt lat="30.850089632652487" lon="-5.708213159362418"><ele>943.0</ele><time>2026-03-25T14:19:40.983Z</time></trkpt><trkpt lat="30.850074968776042" lon="-5.708382773274778"><ele>943.0</ele><time>2026-03-25T14:19:41.983Z</time></trkpt><trkpt lat="30.85006020517594" lon="-5.708560665828831"><ele>943.3333333333333</ele><time>2026-03-25T14:19:42.983Z</time></trkpt><trkpt lat="30.85004290268034" lon="-5.708741099109206"><ele>943.6666666666667</ele><time>2026-03-25T14:19:43.983Z</time></trkpt><trkpt lat="30.850027983294833" lon="-5.708926105496582"><ele>944.0</ele><time>2026-03-25T14:19:44.983Z</time></trkpt><trkpt lat="30.850014034148224" lon="-5.709123364143163"><ele>944.0</ele><time>2026-03-25T14:19:45.983Z</time></trkpt><trkpt lat="30.849991362623154" lon="-5.709317296134219"><ele>944.0</ele><time>2026-03-25T14:19:46.983Z</time></trkpt><trkpt lat="30.849970658046228" lon="-5.709514906674076"><ele>944.0</ele><time>2026-03-25T14:19:47.983Z</time></trkpt><trkpt lat="30.849955121289426" lon="-5.709711384690051"><ele>944.0</ele><time>2026-03-25T14:19:48.983Z</time></trkpt><trkpt lat="30.84993863315995" lon="-5.709892533899841"><ele>944.0</ele><time>2026-03-25T14:19:49.983Z</time></trkpt><trkpt lat="30.849922825556025" lon="-5.710064574855444"><ele>944.0</ele><time>2026-03-25T14:19:50.983Z</time></trkpt><trkpt lat="30.84991720416796" lon="-5.710227468528842"><ele>944.0</ele><time>2026-03-25T14:19:51.983Z</time></trkpt><trkpt lat="30.849908274721543" lon="-5.710378436926293"><ele>944.0</ele><time>2026-03-25T14:19:52.983Z</time></trkpt><trkpt lat="30.849902746722602" lon="-5.710512236771374"><ele>944.0000000000001</ele><time>2026-03-25T14:19:53.983Z</time></trkpt><trkpt lat="30.849896171985968" lon="-5.710620917368683"><ele>944.0000000000001</ele><time>2026-03-25T14:19:54.983Z</time></trkpt><trkpt lat="30.84988946713895" lon="-5.710711374971313"><ele>944.0</ele><time>2026-03-25T14:19:55.983Z</time></trkpt><trkpt lat="30.849886223852312" lon="-5.710789380095058"><ele>944.0</ele><time>2026-03-25T14:19:56.983Z</time></trkpt><trkpt lat="30.84989675791236" lon="-5.710914358647953"><ele>944.0</ele><time>2026-03-25T14:19:58.983Z</time></trkpt><trkpt lat="30.84989670362433" lon="-5.7109881102185645"><ele>944.0000000000001</ele><time>2026-03-25T14:20:00.983Z</time></trkpt><trkpt lat="30.849906213649632" lon="-5.7110605962171235"><ele>944.0000000000001</ele><time>2026-03-25T14:20:03.983Z</time></trkpt><trkpt lat="30.84985157026919" lon="-5.711240823409386"><ele>944.0</ele><time>2026-03-25T14:21:08.983Z</time></trkpt><trkpt lat="30.84984626094126" lon="-5.71132796909955"><ele>944.0</ele><time>2026-03-25T14:21:09.983Z</time></trkpt><trkpt lat="30.84983784317191" lon="-5.711437851163347"><ele>944.4000000000001</ele><time>2026-03-25T14:21:10.983Z</time></trkpt><trkpt lat="30.849826029654526" lon="-5.711543281608574"><ele>944.8000000000001</ele><time>2026-03-25T14:21:11.984Z</time></trkpt><trkpt lat="30.849812605116224" lon="-5.711672708025291"><ele>945.1999999999999</ele><time>2026-03-25T14:21:12.983Z</time></trkpt><trkpt lat="30.849798837304327" lon="-5.71180162689912"><ele>945.5999999999999</ele><time>2026-03-25T14:21:13.983Z</time></trkpt><trkpt lat="30.849783978497733" lon="-5.711929196021823"><ele>946.0</ele><time>2026-03-25T14:21:14.983Z</time></trkpt><trkpt lat="30.849769894011505" lon="-5.712043511836172"><ele>945.9999999999999</ele><time>2026-03-25T14:21:15.983Z</time></trkpt><trkpt lat="30.849760867950593" lon="-5.712154493869576"><ele>946.0</ele><time>2026-03-25T14:21:16.983Z</time></trkpt><trkpt lat="30.849754549652822" lon="-5.712261269477177"><ele>946.0</ele><time>2026-03-25T14:21:17.983Z</time></trkpt><trkpt lat="30.849746048203617" lon="-5.712357926339843"><ele>946.0</ele><time>2026-03-25T14:21:18.983Z</time></trkpt><trkpt lat="30.849740054279135" lon="-5.712446188991359"><ele>945.9999999999999</ele><time>2026-03-25T14:21:19.983Z</time></trkpt><trkpt lat="30.84972757336772" lon="-5.712525502431154"><ele>946.0</ele><time>2026-03-25T14:21:20.983Z</time></trkpt><trkpt lat="30.84966060348006" lon="-5.712643057578533"><ele>945.9999999999999</ele><time>2026-03-25T14:21:22.984Z</time></trkpt><trkpt lat="30.849609252432916" lon="-5.712689569665694"><ele>946.0</ele><time>2026-03-25T14:21:23.983Z</time></trkpt><trkpt lat="30.84953616505019" lon="-5.712698629114932"><ele>946.0</ele><time>2026-03-25T14:21:24.983Z</time></trkpt><trkpt lat="30.84944712100498" lon="-5.712688887788577"><ele>946.0</ele><time>2026-03-25T14:21:25.983Z</time></trkpt><trkpt lat="30.84936386377204" lon="-5.7126742530214685"><ele>945.9999999999999</ele><time>2026-03-25T14:21:26.983Z</time></trkpt><trkpt lat="30.849266564263154" lon="-5.712665506033835"><ele>946.0</ele><time>2026-03-25T14:21:27.983Z</time></trkpt><trkpt lat="30.84916630947933" lon="-5.712657552317143"><ele>945.6666666666666</ele><time>2026-03-25T14:21:28.983Z</time></trkpt><trkpt lat="30.849076105605743" lon="-5.712647074930803"><ele>945.3333333333333</ele><time>2026-03-25T14:21:29.983Z</time></trkpt><trkpt lat="30.848987357622413" lon="-5.712646097005072"><ele>945.0</ele><time>2026-03-25T14:21:30.983Z</time></trkpt><trkpt lat="30.848909100462393" lon="-5.7126385066172745"><ele>944.6666666666667</ele><time>2026-03-25T14:21:31.983Z</time></trkpt><trkpt lat="30.848837357223633" lon="-5.712626307663593"><ele>944.3333333333334</ele><time>2026-03-25T14:21:32.983Z</time></trkpt><trkpt lat="30.84876763731402" lon="-5.712608004081992"><ele>944.0</ele><time>2026-03-25T14:21:33.983Z</time></trkpt><trkpt lat="30.848653214512073" lon="-5.7125803291450055"><ele>944.0</ele><time>2026-03-25T14:21:35.983Z</time></trkpt><trkpt lat="30.848545886191737" lon="-5.712622993643547"><ele>944.0000000000001</ele><time>2026-03-25T14:21:37.983Z</time></trkpt><trkpt lat="30.84851693793527" lon="-5.7127587068607895"><ele>944.0000000000001</ele><time>2026-03-25T14:21:39.983Z</time></trkpt><trkpt lat="30.848527700465482" lon="-5.712867335990989"><ele>944.0</ele><time>2026-03-25T14:21:40.983Z</time></trkpt><trkpt lat="30.848527562571302" lon="-5.712996445384494"><ele>944.0</ele><time>2026-03-25T14:21:41.983Z</time></trkpt><trkpt lat="30.848519699023427" lon="-5.713134802281923"><ele>944.0</ele><time>2026-03-25T14:21:42.983Z</time></trkpt><trkpt lat="30.84852004874767" lon="-5.71326334551513"><ele>944.0000000000001</ele><time>2026-03-25T14:21:43.983Z</time></trkpt><trkpt lat="30.8485170524245" lon="-5.713389776130373"><ele>944.0000000000001</ele><time>2026-03-25T14:21:44.983Z</time></trkpt><trkpt lat="30.848504626143576" lon="-5.713508009960565"><ele>944.0</ele><time>2026-03-25T14:21:45.983Z</time></trkpt><trkpt lat="30.84850279419621" lon="-5.713644781734761"><ele>944.0</ele><time>2026-03-25T14:21:46.983Z</time></trkpt><trkpt lat="30.84849744685406" lon="-5.7137906379739105"><ele>944.0</ele><time>2026-03-25T14:21:47.983Z</time></trkpt><trkpt lat="30.848491636511696" lon="-5.713940100608758"><ele>944.0</ele><time>2026-03-25T14:21:48.983Z</time></trkpt><trkpt lat="30.848487506279586" lon="-5.7140965027033985"><ele>944.0</ele><time>2026-03-25T14:21:49.983Z</time></trkpt><trkpt lat="30.84848182070471" lon="-5.714268395673023"><ele>944.0</ele><time>2026-03-25T14:21:50.983Z</time></trkpt><trkpt lat="30.848470936960148" lon="-5.714427498369571"><ele>944.0</ele><time>2026-03-25T14:21:51.983Z</time></trkpt><trkpt lat="30.848466049783223" lon="-5.714571829302215"><ele>944.0</ele><time>2026-03-25T14:21:52.983Z</time></trkpt><trkpt lat="30.848457648366615" lon="-5.714705330769751"><ele>944.0</ele><time>2026-03-25T14:21:53.983Z</time></trkpt><trkpt lat="30.84845653665799" lon="-5.7148337963349745"><ele>944.0</ele><time>2026-03-25T14:21:54.983Z</time></trkpt><trkpt lat="30.84845316022432" lon="-5.714963584048187"><ele>944.4000000000001</ele><time>2026-03-25T14:21:55.983Z</time></trkpt><trkpt lat="30.848449258649364" lon="-5.715091804026823"><ele>944.8000000000001</ele><time>2026-03-25T14:21:56.983Z</time></trkpt><trkpt lat="30.8484437128836" lon="-5.71521457806669"><ele>945.1999999999999</ele><time>2026-03-25T14:21:57.983Z</time></trkpt><trkpt lat="30.848440861288893" lon="-5.715320245812456"><ele>945.5999999999999</ele><time>2026-03-25T14:21:58.983Z</time></trkpt><trkpt lat="30.84843729639671" lon="-5.715415647609047"><ele>946.0</ele><time>2026-03-25T14:21:59.983Z</time></trkpt><trkpt lat="30.848435130925463" lon="-5.715510541669438"><ele>946.0</ele><time>2026-03-25T14:22:00.983Z</time></trkpt><trkpt lat="30.8484305252889" lon="-5.715600268223551"><ele>945.9999999999999</ele><time>2026-03-25T14:22:01.983Z</time></trkpt><trkpt lat="30.848424381838374" lon="-5.715699803919731"><ele>945.9999999999999</ele><time>2026-03-25T14:22:02.983Z</time></trkpt><trkpt lat="30.848418073105094" lon="-5.715799018419338"><ele>946.0</ele><time>2026-03-25T14:22:03.983Z</time></trkpt><trkpt lat="30.848413844378193" lon="-5.7159155416990535"><ele>946.0</ele><time>2026-03-25T14:22:04.983Z</time></trkpt><trkpt lat="30.848408836520083" lon="-5.716040420076026"><ele>945.75</ele><time>2026-03-25T14:22:05.983Z</time></trkpt><trkpt lat="30.848396626251887" lon="-5.71618535945376"><ele>945.5</ele><time>2026-03-25T14:22:06.983Z</time></trkpt><trkpt lat="30.84838915045276" lon="-5.716331306844949"><ele>945.25</ele><time>2026-03-25T14:22:07.983Z</time></trkpt><trkpt lat="30.848386481074805" lon="-5.716477291445984"><ele>945.0</ele><time>2026-03-25T14:22:08.983Z</time></trkpt><trkpt lat="30.84838055100958" lon="-5.716617076207243"><ele>945.0</ele><time>2026-03-25T14:22:09.983Z</time></trkpt><trkpt lat="30.848375314357288" lon="-5.716766495924726"><ele>945.0</ele><time>2026-03-25T14:22:10.983Z</time></trkpt><trkpt lat="30.84836802650147" lon="-5.716920897881516"><ele>945.0</ele><time>2026-03-25T14:22:11.983Z</time></trkpt><trkpt lat="30.84835406868289" lon="-5.717075831553081"><ele>945.0</ele><time>2026-03-25T14:22:12.983Z</time></trkpt><trkpt lat="30.848341933596434" lon="-5.717219703123827"><ele>945.0</ele><time>2026-03-25T14:22:13.983Z</time></trkpt><trkpt lat="30.8483289310708" lon="-5.717369158396256"><ele>945.0</ele><time>2026-03-25T14:22:14.983Z</time></trkpt><trkpt lat="30.84832060150628" lon="-5.717522875389974"><ele>945.0</ele><time>2026-03-25T14:22:15.983Z</time></trkpt><trkpt lat="30.848314122873422" lon="-5.717671724947451"><ele>945.0</ele><time>2026-03-25T14:22:16.983Z</time></trkpt><trkpt lat="30.848311450876643" lon="-5.717820607868626"><ele>945.0</ele><time>2026-03-25T14:22:17.983Z</time></trkpt><trkpt lat="30.848302599768385" lon="-5.717979310190452"><ele>945.0</ele><time>2026-03-25T14:22:18.983Z</time></trkpt><trkpt lat="30.84829635351864" lon="-5.7181374861742436"><ele>945.0</ele><time>2026-03-25T14:22:19.983Z</time></trkpt><trkpt lat="30.848290173983298" lon="-5.718300867923251"><ele>945.0</ele><time>2026-03-25T14:22:20.983Z</time></trkpt><trkpt lat="30.848283915418197" lon="-5.718476564146297"><ele>945.5</ele><time>2026-03-25T14:22:21.983Z</time></trkpt><trkpt lat="30.84828832713577" lon="-5.718649799165336"><ele>946.0</ele><time>2026-03-25T14:22:22.983Z</time></trkpt><trkpt lat="30.84829758251888" lon="-5.718809579730905"><ele>946.5</ele><time>2026-03-25T14:22:23.983Z</time></trkpt><trkpt lat="30.848313503864578" lon="-5.718948311988044"><ele>947.0</ele><time>2026-03-25T14:22:24.983Z</time></trkpt><trkpt lat="30.848310900907876" lon="-5.719070463893441"><ele>947.0</ele><time>2026-03-25T14:22:25.983Z</time></trkpt><trkpt lat="30.848312616480758" lon="-5.719184869468874"><ele>947.0</ele><time>2026-03-25T14:22:26.983Z</time></trkpt><trkpt lat="30.84832088766843" lon="-5.719301055746705"><ele>947.0</ele><time>2026-03-25T14:22:27.983Z</time></trkpt><trkpt lat="30.84832171935643" lon="-5.71942611767192"><ele>947.0</ele><time>2026-03-25T14:22:28.983Z</time></trkpt><trkpt lat="30.84831897597978" lon="-5.719539601257892"><ele>947.0</ele><time>2026-03-25T14:22:29.983Z</time></trkpt><trkpt lat="30.848317461851032" lon="-5.719670002407365"><ele>947.2</ele><time>2026-03-25T14:22:30.983Z</time></trkpt><trkpt lat="30.84832089188813" lon="-5.71979650504383"><ele>947.4000000000001</ele><time>2026-03-25T14:22:31.983Z</time></trkpt><trkpt lat="30.84833156520107" lon="-5.719921672705947"><ele>947.5999999999999</ele><time>2026-03-25T14:22:32.983Z</time></trkpt><trkpt lat="30.84833322241893" lon="-5.720046278379103"><ele>947.8</ele><time>2026-03-25T14:22:33.983Z</time></trkpt><trkpt lat="30.848338261073817" lon="-5.720166980248168"><ele>948.0</ele><time>2026-03-25T14:22:34.983Z</time></trkpt><trkpt lat="30.84833576017582" lon="-5.720297191687246"><ele>948.75</ele><time>2026-03-25T14:22:35.983Z</time></trkpt><trkpt lat="30.84834018121464" lon="-5.72043861536504"><ele>949.5</ele><time>2026-03-25T14:22:36.983Z</time></trkpt><trkpt lat="30.84834404098418" lon="-5.720581057183847"><ele>950.25</ele><time>2026-03-25T14:22:37.983Z</time></trkpt><trkpt lat="30.848344920251957" lon="-5.7207231251145645"><ele>951.0</ele><time>2026-03-25T14:22:38.983Z</time></trkpt><trkpt lat="30.848337697707827" lon="-5.720864001938464"><ele>951.0</ele><time>2026-03-25T14:22:39.983Z</time></trkpt><trkpt lat="30.84833633509798" lon="-5.721015925644302"><ele>951.0</ele><time>2026-03-25T14:22:40.983Z</time></trkpt><trkpt lat="30.848335617121858" lon="-5.721157227224696"><ele>951.0</ele><time>2026-03-25T14:22:41.983Z</time></trkpt><trkpt lat="30.848337902482726" lon="-5.721289939324743"><ele>951.0</ele><time>2026-03-25T14:22:42.983Z</time></trkpt><trkpt lat="30.84834373993941" lon="-5.72140088247442"><ele>950.8333333333334</ele><time>2026-03-25T14:22:43.983Z</time></trkpt><trkpt lat="30.84834465932127" lon="-5.721481100539027"><ele>950.6666666666667</ele><time>2026-03-25T14:22:44.983Z</time></trkpt><trkpt lat="30.848349191930154" lon="-5.721585216425559"><ele>950.5</ele><time>2026-03-25T14:22:46.983Z</time></trkpt><trkpt lat="30.84836174020575" lon="-5.721670428287224"><ele>950.3333333333334</ele><time>2026-03-25T14:22:49.983Z</time></trkpt><trkpt lat="30.848364438409977" lon="-5.721773101650738"><ele>950.1666666666667</ele><time>2026-03-25T14:22:54.983Z</time></trkpt><trkpt lat="30.848354262689593" lon="-5.7218776863350955"><ele>950.0</ele><time>2026-03-25T14:22:56.983Z</time></trkpt><trkpt lat="30.848360300838248" lon="-5.722029107248471"><ele>949.8333333333334</ele><time>2026-03-25T14:22:58.983Z</time></trkpt><trkpt lat="30.84835345608297" lon="-5.722119972748844"><ele>949.6666666666667</ele><time>2026-03-25T14:22:59.983Z</time></trkpt><trkpt lat="30.84835556291117" lon="-5.722200274710516"><ele>949.5</ele><time>2026-03-25T14:23:00.983Z</time></trkpt><trkpt lat="30.84835269313136" lon="-5.722292952974656"><ele>949.3333333333333</ele><time>2026-03-25T14:23:01.983Z</time></trkpt><trkpt lat="30.848353948378676" lon="-5.722400992451715"><ele>949.1666666666666</ele><time>2026-03-25T14:23:02.983Z</time></trkpt><trkpt lat="30.84835682562729" lon="-5.722532204987901"><ele>949.0</ele><time>2026-03-25T14:23:03.983Z</time></trkpt><trkpt lat="30.84836391263748" lon="-5.722653772984508"><ele>949.0</ele><time>2026-03-25T14:23:04.983Z</time></trkpt><trkpt lat="30.84836108732449" lon="-5.722767816011529"><ele>949.0000000000001</ele><time>2026-03-25T14:23:05.983Z</time></trkpt><trkpt lat="30.84835950214726" lon="-5.7228717337849995"><ele>949.0000000000001</ele><time>2026-03-25T14:23:06.983Z</time></trkpt><trkpt lat="30.848361850256712" lon="-5.722972473771697"><ele>949.0</ele><time>2026-03-25T14:23:07.983Z</time></trkpt><trkpt lat="30.848365049759888" lon="-5.723078199558523"><ele>949.0</ele><time>2026-03-25T14:23:08.983Z</time></trkpt><trkpt lat="30.84836999448338" lon="-5.723183325988114"><ele>949.0</ele><time>2026-03-25T14:23:09.983Z</time></trkpt><trkpt lat="30.848374469042255" lon="-5.723285486007755"><ele>949.0000000000001</ele><time>2026-03-25T14:23:10.983Z</time></trkpt><trkpt lat="30.848363652780392" lon="-5.723390586856626"><ele>949.0000000000001</ele><time>2026-03-25T14:23:11.983Z</time></trkpt><trkpt lat="30.848360628062757" lon="-5.723499067313047"><ele>949.0</ele><time>2026-03-25T14:23:12.983Z</time></trkpt><trkpt lat="30.848373470032445" lon="-5.723605899327359"><ele>949.0</ele><time>2026-03-25T14:23:13.983Z</time></trkpt><trkpt lat="30.848395510193054" lon="-5.723710440593339"><ele>949.2</ele><time>2026-03-25T14:23:14.983Z</time></trkpt><trkpt lat="30.84839358066761" lon="-5.723814513112741"><ele>949.4000000000001</ele><time>2026-03-25T14:23:15.983Z</time></trkpt><trkpt lat="30.848388746142515" lon="-5.723924153474905"><ele>949.6</ele><time>2026-03-25T14:23:16.983Z</time></trkpt><trkpt lat="30.848370673135825" lon="-5.724018416584346"><ele>949.8</ele><time>2026-03-25T14:23:17.983Z</time></trkpt><trkpt lat="30.84835787436778" lon="-5.724145639175615"><ele>950.0</ele><time>2026-03-25T14:23:18.983Z</time></trkpt><trkpt lat="30.84835365844538" lon="-5.724260279238587"><ele>950.0</ele><time>2026-03-25T14:23:19.983Z</time></trkpt><trkpt lat="30.848353160958315" lon="-5.724387093852668"><ele>950.0</ele><time>2026-03-25T14:23:20.983Z</time></trkpt><trkpt lat="30.8483565502131" lon="-5.7245136822712"><ele>950.0</ele><time>2026-03-25T14:23:21.983Z</time></trkpt><trkpt lat="30.848356763464196" lon="-5.7246345302176955"><ele>950.0</ele><time>2026-03-25T14:23:22.983Z</time></trkpt><trkpt lat="30.848360345853788" lon="-5.724760209486286"><ele>950.0</ele><time>2026-03-25T14:23:23.983Z</time></trkpt><trkpt lat="30.84835733564335" lon="-5.724903487500604"><ele>950.0</ele><time>2026-03-25T14:23:24.983Z</time></trkpt><trkpt lat="30.848363347487727" lon="-5.725056223874217"><ele>950.0</ele><time>2026-03-25T14:23:25.983Z</time></trkpt><trkpt lat="30.848374168606348" lon="-5.725212317818973"><ele>950.0</ele><time>2026-03-25T14:23:26.983Z</time></trkpt><trkpt lat="30.848374147965856" lon="-5.725399001707241"><ele>950.0</ele><time>2026-03-25T14:23:27.983Z</time></trkpt><trkpt lat="30.84836634553983" lon="-5.7255838457263115"><ele>950.3333333333334</ele><time>2026-03-25T14:23:28.983Z</time></trkpt><trkpt lat="30.848364380990454" lon="-5.725748429738338"><ele>950.6666666666667</ele><time>2026-03-25T14:23:29.983Z</time></trkpt><trkpt lat="30.848378613207828" lon="-5.725934090608236"><ele>951.0</ele><time>2026-03-25T14:23:30.983Z</time></trkpt><trkpt lat="30.84839116904612" lon="-5.726112100675567"><ele>951.0</ele><time>2026-03-25T14:23:31.983Z</time></trkpt><trkpt lat="30.84839371576659" lon="-5.726268044834721"><ele>951.0</ele><time>2026-03-25T14:23:32.983Z</time></trkpt><trkpt lat="30.848391160570852" lon="-5.726409422337814"><ele>951.0</ele><time>2026-03-25T14:23:33.983Z</time></trkpt><trkpt lat="30.848395564760864" lon="-5.72653530030206"><ele>951.0</ele><time>2026-03-25T14:23:34.983Z</time></trkpt><trkpt lat="30.848390569171976" lon="-5.726656880144708"><ele>951.0</ele><time>2026-03-25T14:23:35.983Z</time></trkpt><trkpt lat="30.848383598472267" lon="-5.726765359389594"><ele>951.0</ele><time>2026-03-25T14:23:36.983Z</time></trkpt><trkpt lat="30.848386045619982" lon="-5.726872303456101"><ele>951.0</ele><time>2026-03-25T14:23:37.983Z</time></trkpt><trkpt lat="30.84838495077782" lon="-5.726978128575818"><ele>951.0</ele><time>2026-03-25T14:23:38.983Z</time></trkpt><trkpt lat="30.848384211122173" lon="-5.727079954269756"><ele>951.0</ele><time>2026-03-25T14:23:39.983Z</time></trkpt><trkpt lat="30.848390680430704" lon="-5.727166873425384"><ele>951.0</ele><time>2026-03-25T14:23:40.983Z</time></trkpt><trkpt lat="30.848400257968358" lon="-5.727248022541289"><ele>951.1999999999999</ele><time>2026-03-25T14:23:41.983Z</time></trkpt><trkpt lat="30.848414084027592" lon="-5.727332247617667"><ele>951.3999999999999</ele><time>2026-03-25T14:23:42.983Z</time></trkpt><trkpt lat="30.848422626309862" lon="-5.727438739122598"><ele>951.6</ele><time>2026-03-25T14:23:43.983Z</time></trkpt><trkpt lat="30.84841298718671" lon="-5.7275534117640525"><ele>951.8</ele><time>2026-03-25T14:23:44.983Z</time></trkpt><trkpt lat="30.84839481120229" lon="-5.7276866988636455"><ele>952.0</ele><time>2026-03-25T14:23:45.983Z</time></trkpt><trkpt lat="30.848383891685053" lon="-5.727840614644281"><ele>952.25</ele><time>2026-03-25T14:23:46.983Z</time></trkpt><trkpt lat="30.84838404904907" lon="-5.7280046317619755"><ele>952.5</ele><time>2026-03-25T14:23:47.983Z</time></trkpt><trkpt lat="30.848375875137986" lon="-5.728161878046159"><ele>952.75</ele><time>2026-03-25T14:23:48.983Z</time></trkpt><trkpt lat="30.848376306359505" lon="-5.728323122772484"><ele>953.0</ele><time>2026-03-25T14:23:49.983Z</time></trkpt><trkpt lat="30.848388376273583" lon="-5.7284901593507715"><ele>951.75</ele><time>2026-03-25T14:23:50.983Z</time></trkpt><trkpt lat="30.848404729182448" lon="-5.728645695373053"><ele>950.5</ele><time>2026-03-25T14:23:51.983Z</time></trkpt><trkpt lat="30.848418126711003" lon="-5.728784390264219"><ele>949.25</ele><time>2026-03-25T14:23:52.983Z</time></trkpt><trkpt lat="30.84842665224297" lon="-5.728919425760253"><ele>948.0</ele><time>2026-03-25T14:23:53.983Z</time></trkpt><trkpt lat="30.848433287410515" lon="-5.729053746537817"><ele>948.0</ele><time>2026-03-25T14:23:54.983Z</time></trkpt><trkpt lat="30.84844315740917" lon="-5.729188302284587"><ele>948.0</ele><time>2026-03-25T14:23:55.983Z</time></trkpt><trkpt lat="30.848456085161697" lon="-5.729320282815441"><ele>948.0</ele><time>2026-03-25T14:23:56.983Z</time></trkpt><trkpt lat="30.84846651390475" lon="-5.729434773329204"><ele>948.0</ele><time>2026-03-25T14:23:57.983Z</time></trkpt><trkpt lat="30.848477502223737" lon="-5.729556871263978"><ele>948.0</ele><time>2026-03-25T14:23:58.983Z</time></trkpt><trkpt lat="30.848475537159047" lon="-5.729665624663728"><ele>948.8</ele><time>2026-03-25T14:23:59.983Z</time></trkpt><trkpt lat="30.848484917419935" lon="-5.729770780358547"><ele>949.5999999999999</ele><time>2026-03-25T14:24:00.983Z</time></trkpt><trkpt lat="30.84849343785563" lon="-5.7298778596600455"><ele>950.4000000000001</ele><time>2026-03-25T14:24:01.983Z</time></trkpt><trkpt lat="30.848500325197023" lon="-5.729994342872097"><ele>951.2</ele><time>2026-03-25T14:24:02.983Z</time></trkpt><trkpt lat="30.84851519088908" lon="-5.730117199123416"><ele>952.0</ele><time>2026-03-25T14:24:03.983Z</time></trkpt><trkpt lat="30.8485305792513" lon="-5.730231106200705"><ele>952.4000000000001</ele><time>2026-03-25T14:24:04.983Z</time></trkpt><trkpt lat="30.848529168222075" lon="-5.730346371319824"><ele>952.8000000000001</ele><time>2026-03-25T14:24:05.983Z</time></trkpt><trkpt lat="30.84853246405993" lon="-5.730469679969146"><ele>953.2</ele><time>2026-03-25T14:24:06.983Z</time></trkpt><trkpt lat="30.84854285060182" lon="-5.73059303435818"><ele>953.6</ele><time>2026-03-25T14:24:07.983Z</time></trkpt><trkpt lat="30.84855890567758" lon="-5.730712022943876"><ele>954.0</ele><time>2026-03-25T14:24:08.983Z</time></trkpt><trkpt lat="30.848567288772365" lon="-5.730817559069931"><ele>954.0</ele><time>2026-03-25T14:24:09.983Z</time></trkpt><trkpt lat="30.848575128135934" lon="-5.730909717513603"><ele>954.0</ele><time>2026-03-25T14:24:10.983Z</time></trkpt><trkpt lat="30.84858265767371" lon="-5.730993358240738"><ele>954.0</ele><time>2026-03-25T14:24:11.983Z</time></trkpt><trkpt lat="30.84860232023357" lon="-5.7311273467233095"><ele>954.0</ele><time>2026-03-25T14:24:13.983Z</time></trkpt><trkpt lat="30.84861205846185" lon="-5.731241364480729"><ele>954.0</ele><time>2026-03-25T14:24:15.983Z</time></trkpt><trkpt lat="30.848613126094026" lon="-5.731315450693387"><ele>954.0</ele><time>2026-03-25T14:24:16.983Z</time></trkpt><trkpt lat="30.84861113652041" lon="-5.7314004071111935"><ele>954.0</ele><time>2026-03-25T14:24:17.983Z</time></trkpt><trkpt lat="30.84862102677592" lon="-5.73150752596561"><ele>954.0000000000001</ele><time>2026-03-25T14:24:18.983Z</time></trkpt><trkpt lat="30.848645700889524" lon="-5.731625845232648"><ele>954.0000000000001</ele><time>2026-03-25T14:24:19.983Z</time></trkpt><trkpt lat="30.848659808760736" lon="-5.731745391566572"><ele>954.0</ele><time>2026-03-25T14:24:20.983Z</time></trkpt><trkpt lat="30.848665137068394" lon="-5.731856744337156"><ele>954.0</ele><time>2026-03-25T14:24:21.983Z</time></trkpt><trkpt lat="30.84867161681429" lon="-5.731967277026029"><ele>953.8333333333334</ele><time>2026-03-25T14:24:22.983Z</time></trkpt><trkpt lat="30.848678691075353" lon="-5.732068641242699"><ele>953.6666666666667</ele><time>2026-03-25T14:24:23.983Z</time></trkpt><trkpt lat="30.848686326843268" lon="-5.732161668776806"><ele>953.5</ele><time>2026-03-25T14:24:24.983Z</time></trkpt><trkpt lat="30.848693922035384" lon="-5.732248367910035"><ele>953.3333333333334</ele><time>2026-03-25T14:24:25.983Z</time></trkpt><trkpt lat="30.848699130061778" lon="-5.732329730782713"><ele>953.1666666666667</ele><time>2026-03-25T14:24:26.983Z</time></trkpt><trkpt lat="30.848712353858218" lon="-5.732449953666945"><ele>953.0</ele><time>2026-03-25T14:24:28.983Z</time></trkpt><trkpt lat="30.848687008677693" lon="-5.732522310376378"><ele>953.0000000000001</ele><time>2026-03-25T14:24:58.983Z</time></trkpt><trkpt lat="30.84861760467235" lon="-5.732513575345506"><ele>953.0</ele><time>2026-03-25T14:25:00.983Z</time></trkpt><trkpt lat="30.84861193244634" lon="-5.73242354901267"><ele>953.0</ele><time>2026-03-25T14:25:03.983Z</time></trkpt><trkpt lat="30.848637719579468" lon="-5.7323279225439405"><ele>953.0</ele><time>2026-03-25T14:25:05.983Z</time></trkpt><trkpt lat="30.848694152391154" lon="-5.732204337408734"><ele>953.0000000000001</ele><time>2026-03-25T14:25:07.983Z</time></trkpt><trkpt lat="30.84870965273834" lon="-5.732130639930237"><ele>953.0</ele><time>2026-03-25T14:25:08.983Z</time></trkpt><trkpt lat="30.848698442998426" lon="-5.732009476296803"><ele>953.2</ele><time>2026-03-25T14:25:10.983Z</time></trkpt><trkpt lat="30.84868220496901" lon="-5.731882862237323"><ele>953.4</ele><time>2026-03-25T14:25:12.983Z</time></trkpt><trkpt lat="30.848679778841408" lon="-5.731765636953301"><ele>953.6000000000001</ele><time>2026-03-25T14:25:14.983Z</time></trkpt><trkpt lat="30.848676957600553" lon="-5.731626233864746"><ele>953.8000000000001</ele><time>2026-03-25T14:25:16.983Z</time></trkpt><trkpt lat="30.848660472072662" lon="-5.731493163653877"><ele>954.0</ele><time>2026-03-25T14:25:18.983Z</time></trkpt><trkpt lat="30.84865073710357" lon="-5.731379288225482"><ele>954.0</ele><time>2026-03-25T14:25:20.983Z</time></trkpt><trkpt lat="30.848644735587317" lon="-5.731260904720574"><ele>954.0</ele><time>2026-03-25T14:25:22.983Z</time></trkpt><trkpt lat="30.848639757754146" lon="-5.7311847782574015"><ele>954.0</ele><time>2026-03-25T14:25:23.983Z</time></trkpt><trkpt lat="30.848635116366577" lon="-5.731104988313893"><ele>954.0</ele><time>2026-03-25T14:25:24.983Z</time></trkpt><trkpt lat="30.848633587185606" lon="-5.7310303586769535"><ele>954.0</ele><time>2026-03-25T14:25:25.983Z</time></trkpt><trkpt lat="30.848642654796716" lon="-5.730891166210434"><ele>954.0</ele><time>2026-03-25T14:25:27.983Z</time></trkpt><trkpt lat="30.848626618075933" lon="-5.73080778505843"><ele>954.0</ele><time>2026-03-25T14:25:28.983Z</time></trkpt><trkpt lat="30.84860589583099" lon="-5.730730770921722"><ele>954.0000000000001</ele><time>2026-03-25T14:25:29.983Z</time></trkpt><trkpt lat="30.84858860164217" lon="-5.730608829812672"><ele>954.0000000000001</ele><time>2026-03-25T14:25:31.983Z</time></trkpt><trkpt lat="30.848643640361402" lon="-5.7305116655766355"><ele>954.0</ele><time>2026-03-25T14:25:34.983Z</time></trkpt><trkpt lat="30.84872432385168" lon="-5.730419360671942"><ele>954.0</ele><time>2026-03-25T14:25:36.983Z</time></trkpt><trkpt lat="30.848801604633305" lon="-5.730365984020115"><ele>954.0</ele><time>2026-03-25T14:25:38.983Z</time></trkpt><trkpt lat="30.848862913923668" lon="-5.730387406764433"><ele>954.0000000000001</ele><time>2026-03-25T14:25:42.983Z</time></trkpt><trkpt lat="30.848915751166643" lon="-5.730538255792445"><ele>954.0000000000001</ele><time>2026-03-25T14:25:44.983Z</time></trkpt><trkpt lat="30.848940166688852" lon="-5.730644001372168"><ele>954.0</ele><time>2026-03-25T14:25:45.983Z</time></trkpt><trkpt lat="30.848964622809184" lon="-5.730763305664752"><ele>954.0</ele><time>2026-03-25T14:25:46.983Z</time></trkpt><trkpt lat="30.848986399535146" lon="-5.730891774113092"><ele>954.0</ele><time>2026-03-25T14:25:47.983Z</time></trkpt><trkpt lat="30.849009693095017" lon="-5.731021297495788"><ele>954.0</ele><time>2026-03-25T14:25:48.983Z</time></trkpt><trkpt lat="30.849033248800897" lon="-5.731136261976784"><ele>954.0</ele><time>2026-03-25T14:25:49.983Z</time></trkpt><trkpt lat="30.84905892860094" lon="-5.731258136118949"><ele>954.0</ele><time>2026-03-25T14:25:50.983Z</time></trkpt><trkpt lat="30.849092592660245" lon="-5.731403041174348"><ele>954.0</ele><time>2026-03-25T14:25:51.983Z</time></trkpt><trkpt lat="30.84912516289121" lon="-5.731568669478299"><ele>954.0</ele><time>2026-03-25T14:25:52.983Z</time></trkpt><trkpt lat="30.849155395416048" lon="-5.731758814670984"><ele>954.0</ele><time>2026-03-25T14:25:53.983Z</time></trkpt><trkpt lat="30.849193346828017" lon="-5.731984098332929"><ele>954.0</ele><time>2026-03-25T14:25:54.983Z</time></trkpt><trkpt lat="30.84922584793825" lon="-5.7322081202009665"><ele>954.0</ele><time>2026-03-25T14:25:55.983Z</time></trkpt><trkpt lat="30.84925969765148" lon="-5.73240643364474"><ele>954.0</ele><time>2026-03-25T14:25:56.983Z</time></trkpt><trkpt lat="30.84929787925736" lon="-5.73257951978468"><ele>953.75</ele><time>2026-03-25T14:25:57.983Z</time></trkpt><trkpt lat="30.84933353021499" lon="-5.732740548070127"><ele>953.5</ele><time>2026-03-25T14:25:58.983Z</time></trkpt><trkpt lat="30.849367635285596" lon="-5.732896019629801"><ele>953.25</ele><time>2026-03-25T14:25:59.983Z</time></trkpt><trkpt lat="30.84941089942331" lon="-5.733083167759467"><ele>953.0</ele><time>2026-03-25T14:26:00.983Z</time></trkpt><trkpt lat="30.849450541554653" lon="-5.733276618127228"><ele>953.0</ele><time>2026-03-25T14:26:01.983Z</time></trkpt><trkpt lat="30.849481384302415" lon="-5.733488247935097"><ele>953.0</ele><time>2026-03-25T14:26:02.983Z</time></trkpt><trkpt lat="30.849516161940173" lon="-5.7337109567337"><ele>953.0</ele><time>2026-03-25T14:26:03.983Z</time></trkpt><trkpt lat="30.8495515114447" lon="-5.733933238256539"><ele>953.3333333333334</ele><time>2026-03-25T14:26:04.983Z</time></trkpt><trkpt lat="30.84958536693178" lon="-5.734144495309486"><ele>953.6666666666667</ele><time>2026-03-25T14:26:05.983Z</time></trkpt><trkpt lat="30.849617878078302" lon="-5.734339442887226"><ele>954.0</ele><time>2026-03-25T14:26:06.983Z</time></trkpt><trkpt lat="30.849643820178404" lon="-5.734522034223128"><ele>954.25</ele><time>2026-03-25T14:26:07.983Z</time></trkpt><trkpt lat="30.84967719845968" lon="-5.73469136180565"><ele>954.5</ele><time>2026-03-25T14:26:08.983Z</time></trkpt><trkpt lat="30.849710338398246" lon="-5.734852053577396"><ele>954.75</ele><time>2026-03-25T14:26:09.983Z</time></trkpt><trkpt lat="30.849740123596703" lon="-5.735014266713322"><ele>955.0</ele><time>2026-03-25T14:26:10.983Z</time></trkpt><trkpt lat="30.849772429006457" lon="-5.735185819818315"><ele>955.0</ele><time>2026-03-25T14:26:11.983Z</time></trkpt><trkpt lat="30.84980134119884" lon="-5.735357766086715"><ele>955.0</ele><time>2026-03-25T14:26:12.983Z</time></trkpt><trkpt lat="30.849832291066335" lon="-5.73552580541353"><ele>955.0</ele><time>2026-03-25T14:26:13.983Z</time></trkpt><trkpt lat="30.84986110879417" lon="-5.7356816731286795"><ele>955.0</ele><time>2026-03-25T14:26:14.983Z</time></trkpt><trkpt lat="30.849890570885538" lon="-5.735834307787697"><ele>955.0</ele><time>2026-03-25T14:26:15.983Z</time></trkpt><trkpt lat="30.849918203194616" lon="-5.735984426458511"><ele>955.0</ele><time>2026-03-25T14:26:16.983Z</time></trkpt><trkpt lat="30.84994845911187" lon="-5.7361305970000735"><ele>955.0</ele><time>2026-03-25T14:26:17.983Z</time></trkpt><trkpt lat="30.84997937141334" lon="-5.736267119818815"><ele>955.0</ele><time>2026-03-25T14:26:18.983Z</time></trkpt><trkpt lat="30.85000247905456" lon="-5.7363900696710575"><ele>955.1666666666666</ele><time>2026-03-25T14:26:19.983Z</time></trkpt><trkpt lat="30.8500269102257" lon="-5.736509238470974"><ele>955.3333333333333</ele><time>2026-03-25T14:26:20.983Z</time></trkpt><trkpt lat="30.850044792703812" lon="-5.736620469180782"><ele>955.5</ele><time>2026-03-25T14:26:21.983Z</time></trkpt><trkpt lat="30.850059841700375" lon="-5.7367205119267455"><ele>955.6666666666667</ele><time>2026-03-25T14:26:22.983Z</time></trkpt><trkpt lat="30.850074615649316" lon="-5.7368098377340315"><ele>955.8333333333334</ele><time>2026-03-25T14:26:23.983Z</time></trkpt><trkpt lat="30.85008775007363" lon="-5.73688654836182"><ele>956.0</ele><time>2026-03-25T14:26:24.983Z</time></trkpt><trkpt lat="30.8501114089924" lon="-5.737004126625441"><ele>956.0000000000001</ele><time>2026-03-25T14:26:26.983Z</time></trkpt><trkpt lat="30.85013099075886" lon="-5.737101875705904"><ele>956.0</ele><time>2026-03-25T14:26:28.983Z</time></trkpt><trkpt lat="30.85014031265049" lon="-5.737184905583451"><ele>956.0</ele><time>2026-03-25T14:26:31.983Z</time></trkpt><trkpt lat="30.850076867851314" lon="-5.737183490976348"><ele>956.0</ele><time>2026-03-25T14:26:37.983Z</time></trkpt><trkpt lat="30.85007946778061" lon="-5.7370419374969375"><ele>956.0000000000001</ele><time>2026-03-25T14:26:39.983Z</time></trkpt><trkpt lat="30.85008006052298" lon="-5.736938402261555"><ele>956.0</ele><time>2026-03-25T14:26:40.983Z</time></trkpt><trkpt lat="30.850058182761366" lon="-5.736826300940012"><ele>956.0</ele><time>2026-03-25T14:26:41.983Z</time></trkpt><trkpt lat="30.85001975580517" lon="-5.736716771672083"><ele>955.9999999999999</ele><time>2026-03-25T14:26:42.983Z</time></trkpt><trkpt lat="30.849968361417723" lon="-5.736630569981713"><ele>955.9999999999999</ele><time>2026-03-25T14:26:43.983Z</time></trkpt><trkpt lat="30.84990595817418" lon="-5.736569698128252"><ele>956.0</ele><time>2026-03-25T14:26:44.983Z</time></trkpt><trkpt lat="30.849831332938297" lon="-5.7365206538603655"><ele>956.0</ele><time>2026-03-25T14:26:45.983Z</time></trkpt><trkpt lat="30.849731321013323" lon="-5.7364939263344406"><ele>956.0</ele><time>2026-03-25T14:26:46.983Z</time></trkpt><trkpt lat="30.849606542546006" lon="-5.736500508930904"><ele>955.9999999999999</ele><time>2026-03-25T14:26:47.983Z</time></trkpt><trkpt lat="30.849497689275914" lon="-5.7365279254051025"><ele>955.9999999999999</ele><time>2026-03-25T14:26:48.983Z</time></trkpt><trkpt lat="30.849403210697652" lon="-5.736566252967402"><ele>956.0</ele><time>2026-03-25T14:26:49.983Z</time></trkpt><trkpt lat="30.849312793287705" lon="-5.736604669963664"><ele>956.0</ele><time>2026-03-25T14:26:50.983Z</time></trkpt><trkpt lat="30.84923635595064" lon="-5.736638622069516"><ele>956.0</ele><time>2026-03-25T14:26:51.983Z</time></trkpt><trkpt lat="30.84912220844598" lon="-5.736690780885816"><ele>955.9999999999999</ele><time>2026-03-25T14:26:53.983Z</time></trkpt><trkpt lat="30.84903270221181" lon="-5.736757836445126"><ele>955.9999999999999</ele><time>2026-03-25T14:26:55.983Z</time></trkpt><trkpt lat="30.849040297183965" lon="-5.736842886878735"><ele>956.0</ele><time>2026-03-25T14:26:56.983Z</time></trkpt><trkpt lat="30.84906901103523" lon="-5.736936187022929"><ele>956.0</ele><time>2026-03-25T14:26:57.983Z</time></trkpt><trkpt lat="30.849100066465482" lon="-5.737039248562563"><ele>956.0</ele><time>2026-03-25T14:26:58.983Z</time></trkpt><trkpt lat="30.849114477033346" lon="-5.737181411584436"><ele>955.9999999999999</ele><time>2026-03-25T14:27:00.983Z</time></trkpt><trkpt lat="30.84912240417305" lon="-5.737260856508373"><ele>955.9999999999999</ele><time>2026-03-25T14:27:01.983Z</time></trkpt><trkpt lat="30.849128371613084" lon="-5.73738070154861"><ele>956.0</ele><time>2026-03-25T14:27:02.983Z</time></trkpt><trkpt lat="30.849133148579238" lon="-5.737510346613126"><ele>956.0</ele><time>2026-03-25T14:27:03.983Z</time></trkpt><trkpt lat="30.84914493794891" lon="-5.737642588221557"><ele>956.0000000000001</ele><time>2026-03-25T14:27:04.983Z</time></trkpt><trkpt lat="30.84915995452618" lon="-5.737756518900463"><ele>956.0</ele><time>2026-03-25T14:27:05.983Z</time></trkpt><trkpt lat="30.849177373593" lon="-5.737866576503298"><ele>956.0</ele><time>2026-03-25T14:27:06.983Z</time></trkpt><trkpt lat="30.849183813174257" lon="-5.737976529788155"><ele>956.0</ele><time>2026-03-25T14:27:07.983Z</time></trkpt><trkpt lat="30.849185226854434" lon="-5.738069040254697"><ele>956.0000000000001</ele><time>2026-03-25T14:27:08.983Z</time></trkpt><trkpt lat="30.84918508450011" lon="-5.738151534213705"><ele>956.0</ele><time>2026-03-25T14:27:09.983Z</time></trkpt><trkpt lat="30.84919225772904" lon="-5.738277704355931"><ele>956.0</ele><time>2026-03-25T14:27:11.983Z</time></trkpt><trkpt lat="30.849199774555174" lon="-5.73838462417517"><ele>955.9999999999999</ele><time>2026-03-25T14:27:13.983Z</time></trkpt><trkpt lat="30.84920464587016" lon="-5.73851699142748"><ele>955.9999999999999</ele><time>2026-03-25T14:27:15.983Z</time></trkpt><trkpt lat="30.849210291156908" lon="-5.73859221193855"><ele>956.0</ele><time>2026-03-25T14:27:16.983Z</time></trkpt><trkpt lat="30.849215587489645" lon="-5.738692087425193"><ele>956.0</ele><time>2026-03-25T14:27:17.983Z</time></trkpt><trkpt lat="30.849232415345774" lon="-5.738800779064258"><ele>955.8333333333334</ele><time>2026-03-25T14:27:18.983Z</time></trkpt><trkpt lat="30.84924626178494" lon="-5.73891415538442"><ele>955.6666666666667</ele><time>2026-03-25T14:27:19.983Z</time></trkpt><trkpt lat="30.849252916016443" lon="-5.739020020645107"><ele>955.5</ele><time>2026-03-25T14:27:20.983Z</time></trkpt><trkpt lat="30.84925724190784" lon="-5.739121491236241"><ele>955.3333333333333</ele><time>2026-03-25T14:27:21.983Z</time></trkpt><trkpt lat="30.84926394544514" lon="-5.739217059126119"><ele>955.1666666666666</ele><time>2026-03-25T14:27:22.983Z</time></trkpt><trkpt lat="30.84926583969406" lon="-5.739294303548465"><ele>955.0</ele><time>2026-03-25T14:27:23.983Z</time></trkpt><trkpt lat="30.84927095161746" lon="-5.739369769652592"><ele>955.2</ele><time>2026-03-25T14:27:24.983Z</time></trkpt><trkpt lat="30.84929992242689" lon="-5.739495419861652"><ele>955.4</ele><time>2026-03-25T14:27:26.983Z</time></trkpt><trkpt lat="30.84930349658219" lon="-5.739595545261351"><ele>955.5999999999999</ele><time>2026-03-25T14:27:28.983Z</time></trkpt><trkpt lat="30.84930370815208" lon="-5.739697736946462"><ele>955.8</ele><time>2026-03-25T14:27:30.982Z</time></trkpt><trkpt lat="30.849301854462915" lon="-5.739810526272405"><ele>956.0</ele><time>2026-03-25T14:27:32.983Z</time></trkpt><trkpt lat="30.849311033483644" lon="-5.739896890028328"><ele>956.0000000000001</ele><time>2026-03-25T14:27:33.983Z</time></trkpt><trkpt lat="30.849322742976664" lon="-5.739998497461249"><ele>956.0</ele><time>2026-03-25T14:27:34.983Z</time></trkpt><trkpt lat="30.849325970630826" lon="-5.7401054960905835"><ele>956.0</ele><time>2026-03-25T14:27:35.983Z</time></trkpt><trkpt lat="30.849332511969294" lon="-5.740214943819918"><ele>956.0</ele><time>2026-03-25T14:27:36.983Z</time></trkpt><trkpt lat="30.849339952160058" lon="-5.740323549880898"><ele>956.0000000000001</ele><time>2026-03-25T14:27:37.983Z</time></trkpt><trkpt lat="30.849349065983727" lon="-5.740415816510062"><ele>956.0</ele><time>2026-03-25T14:27:38.983Z</time></trkpt><trkpt lat="30.849356896269622" lon="-5.740510529909643"><ele>956.1666666666667</ele><time>2026-03-25T14:27:39.983Z</time></trkpt><trkpt lat="30.84936504571112" lon="-5.740612124095991"><ele>956.3333333333334</ele><time>2026-03-25T14:27:40.983Z</time></trkpt><trkpt lat="30.849372179104268" lon="-5.740717338026037"><ele>956.5</ele><time>2026-03-25T14:27:41.983Z</time></trkpt><trkpt lat="30.849374062135063" lon="-5.740816493470109"><ele>956.6666666666667</ele><time>2026-03-25T14:27:42.983Z</time></trkpt><trkpt lat="30.849388509075204" lon="-5.740919741056987"><ele>956.8333333333334</ele><time>2026-03-25T14:27:43.983Z</time></trkpt><trkpt lat="30.849400554197533" lon="-5.741022194462764"><ele>957.0</ele><time>2026-03-25T14:27:44.983Z</time></trkpt><trkpt lat="30.849404876835116" lon="-5.741124289525116"><ele>957.0</ele><time>2026-03-25T14:27:45.983Z</time></trkpt><trkpt lat="30.84940822097703" lon="-5.741236716085099"><ele>957.0</ele><time>2026-03-25T14:27:46.983Z</time></trkpt><trkpt lat="30.8494172684577" lon="-5.741359222854486"><ele>957.0</ele><time>2026-03-25T14:27:47.983Z</time></trkpt><trkpt lat="30.849431832282274" lon="-5.741482498948382"><ele>957.0</ele><time>2026-03-25T14:27:48.983Z</time></trkpt><trkpt lat="30.849443890039865" lon="-5.741604700864227"><ele>957.0</ele><time>2026-03-25T14:27:49.983Z</time></trkpt><trkpt lat="30.849449968356424" lon="-5.741721675566502"><ele>957.0</ele><time>2026-03-25T14:27:50.983Z</time></trkpt><trkpt lat="30.84945292926547" lon="-5.741821154363939"><ele>957.0</ele><time>2026-03-25T14:27:51.983Z</time></trkpt><trkpt lat="30.849460117670777" lon="-5.741922954897439"><ele>957.0</ele><time>2026-03-25T14:27:52.983Z</time></trkpt><trkpt lat="30.849461872372864" lon="-5.742020687612321"><ele>957.0</ele><time>2026-03-25T14:27:53.983Z</time></trkpt><trkpt lat="30.84947029759038" lon="-5.742109878406069"><ele>957.0</ele><time>2026-03-25T14:27:54.983Z</time></trkpt><trkpt lat="30.849484232054476" lon="-5.7421922811184745"><ele>957.0</ele><time>2026-03-25T14:27:55.983Z</time></trkpt><trkpt lat="30.849486822011855" lon="-5.742277573842163"><ele>957.1666666666666</ele><time>2026-03-25T14:27:56.983Z</time></trkpt><trkpt lat="30.849498353269052" lon="-5.742373602570136"><ele>957.3333333333333</ele><time>2026-03-25T14:27:57.983Z</time></trkpt><trkpt lat="30.84950695685103" lon="-5.742463081151072"><ele>957.5</ele><time>2026-03-25T14:27:58.983Z</time></trkpt><trkpt lat="30.849505154173887" lon="-5.742546738882067"><ele>957.6666666666666</ele><time>2026-03-25T14:27:59.983Z</time></trkpt><trkpt lat="30.84950532736865" lon="-5.742629970201735"><ele>957.8333333333333</ele><time>2026-03-25T14:28:00.983Z</time></trkpt><trkpt lat="30.849526147187788" lon="-5.742743021723494"><ele>958.0</ele><time>2026-03-25T14:28:02.983Z</time></trkpt><trkpt lat="30.849537931585818" lon="-5.7428417907037"><ele>958.0</ele><time>2026-03-25T14:28:04.983Z</time></trkpt><trkpt lat="30.849544873637544" lon="-5.7429337297504395"><ele>958.0</ele><time>2026-03-25T14:28:06.983Z</time></trkpt><trkpt lat="30.84956516363704" lon="-5.743073086255924"><ele>958.0</ele><time>2026-03-25T14:28:08.983Z</time></trkpt><trkpt lat="30.849564208816343" lon="-5.743204741386445"><ele>958.0</ele><time>2026-03-25T14:28:10.983Z</time></trkpt><trkpt lat="30.849552106773725" lon="-5.743277128536663"><ele>958.0</ele><time>2026-03-25T14:28:11.983Z</time></trkpt><trkpt lat="30.849540141971072" lon="-5.743409037294484"><ele>958.0</ele><time>2026-03-25T14:28:13.983Z</time></trkpt><trkpt lat="30.84955859520638" lon="-5.743530568923338"><ele>958.0</ele><time>2026-03-25T14:28:15.983Z</time></trkpt><trkpt lat="30.84956405148079" lon="-5.743611378788741"><ele>958.0</ele><time>2026-03-25T14:28:16.983Z</time></trkpt><trkpt lat="30.849575832068844" lon="-5.743723546713498"><ele>958.0</ele><time>2026-03-25T14:28:17.983Z</time></trkpt><trkpt lat="30.849597226771888" lon="-5.743843883589061"><ele>958.0</ele><time>2026-03-25T14:28:18.983Z</time></trkpt><trkpt lat="30.849607058850854" lon="-5.743949810680419"><ele>958.0</ele><time>2026-03-25T14:28:19.983Z</time></trkpt><trkpt lat="30.849606797562974" lon="-5.744053616346443"><ele>958.0</ele><time>2026-03-25T14:28:20.983Z</time></trkpt><trkpt lat="30.84960475337307" lon="-5.744152268189428"><ele>958.0</ele><time>2026-03-25T14:28:21.983Z</time></trkpt><trkpt lat="30.84960525537249" lon="-5.74425156238932"><ele>958.0</ele><time>2026-03-25T14:28:22.983Z</time></trkpt><trkpt lat="30.849612446743823" lon="-5.744357762235996"><ele>958.0</ele><time>2026-03-25T14:28:23.983Z</time></trkpt><trkpt lat="30.849621338372067" lon="-5.744476073817733"><ele>958.0</ele><time>2026-03-25T14:28:24.983Z</time></trkpt><trkpt lat="30.84963617163518" lon="-5.744595138149202"><ele>958.0</ele><time>2026-03-25T14:28:25.983Z</time></trkpt><trkpt lat="30.84964429956994" lon="-5.744724439489581"><ele>958.0</ele><time>2026-03-25T14:28:26.983Z</time></trkpt><trkpt lat="30.849652470700466" lon="-5.744846032973731"><ele>958.0</ele><time>2026-03-25T14:28:27.983Z</time></trkpt><trkpt lat="30.849657744359945" lon="-5.744964420774044"><ele>958.0</ele><time>2026-03-25T14:28:28.983Z</time></trkpt><trkpt lat="30.849662067795737" lon="-5.745063538638269"><ele>957.9999999999999</ele><time>2026-03-25T14:28:29.983Z</time></trkpt><trkpt lat="30.84968113978109" lon="-5.745175132539605"><ele>958.0</ele><time>2026-03-25T14:28:30.983Z</time></trkpt><trkpt lat="30.849694648916593" lon="-5.745281809798339"><ele>958.0</ele><time>2026-03-25T14:28:31.983Z</time></trkpt><trkpt lat="30.849694240320353" lon="-5.745387718129711"><ele>958.0</ele><time>2026-03-25T14:28:32.983Z</time></trkpt><trkpt lat="30.849698751760208" lon="-5.745478683051432"><ele>957.9999999999999</ele><time>2026-03-25T14:28:33.983Z</time></trkpt><trkpt lat="30.84970842746604" lon="-5.745579666668637"><ele>958.0</ele><time>2026-03-25T14:28:34.983Z</time></trkpt><trkpt lat="30.849715981004955" lon="-5.74567753497458"><ele>958.2</ele><time>2026-03-25T14:28:35.983Z</time></trkpt><trkpt lat="30.849725395436618" lon="-5.745781453544928"><ele>958.4</ele><time>2026-03-25T14:28:36.983Z</time></trkpt><trkpt lat="30.849737178151518" lon="-5.74588970604852"><ele>958.6000000000001</ele><time>2026-03-25T14:28:37.983Z</time></trkpt><trkpt lat="30.849748505294983" lon="-5.745983987468247"><ele>958.8000000000001</ele><time>2026-03-25T14:28:38.983Z</time></trkpt><trkpt lat="30.849755158730147" lon="-5.746098570481052"><ele>959.0</ele><time>2026-03-25T14:28:39.983Z</time></trkpt><trkpt lat="30.849765771617808" lon="-5.746213817142277"><ele>959.2</ele><time>2026-03-25T14:28:40.983Z</time></trkpt><trkpt lat="30.84978263995797" lon="-5.746329994701306"><ele>959.4000000000001</ele><time>2026-03-25T14:28:41.983Z</time></trkpt><trkpt lat="30.849786590002292" lon="-5.746451306017408"><ele>959.6</ele><time>2026-03-25T14:28:42.983Z</time></trkpt><trkpt lat="30.849795830969278" lon="-5.746578247680742"><ele>959.8</ele><time>2026-03-25T14:28:43.983Z</time></trkpt><trkpt lat="30.849809764417316" lon="-5.746708222077812"><ele>960.0</ele><time>2026-03-25T14:28:44.983Z</time></trkpt><trkpt lat="30.849821198606858" lon="-5.746855183121032"><ele>960.25</ele><time>2026-03-25T14:28:45.983Z</time></trkpt><trkpt lat="30.84983433541802" lon="-5.747013015804106"><ele>960.5</ele><time>2026-03-25T14:28:46.983Z</time></trkpt><trkpt lat="30.84984355072752" lon="-5.747164799228319"><ele>960.75</ele><time>2026-03-25T14:28:47.983Z</time></trkpt><trkpt lat="30.84984905640599" lon="-5.747299134570042"><ele>961.0</ele><time>2026-03-25T14:28:48.983Z</time></trkpt><trkpt lat="30.849860578796154" lon="-5.74742990915068"><ele>961.0</ele><time>2026-03-25T14:28:49.983Z</time></trkpt><trkpt lat="30.84987310135944" lon="-5.747551100235488"><ele>960.9999999999999</ele><time>2026-03-25T14:28:50.983Z</time></trkpt><trkpt lat="30.84989207232333" lon="-5.7476676306236545"><ele>960.9999999999999</ele><time>2026-03-25T14:28:51.983Z</time></trkpt><trkpt lat="30.849902644863057" lon="-5.747783411114453"><ele>961.0</ele><time>2026-03-25T14:28:52.983Z</time></trkpt><trkpt lat="30.84991062296407" lon="-5.7478928746842515"><ele>961.0</ele><time>2026-03-25T14:28:53.983Z</time></trkpt><trkpt lat="30.84992472737851" lon="-5.7480051914930295"><ele>960.8</ele><time>2026-03-25T14:28:54.983Z</time></trkpt><trkpt lat="30.84993580518701" lon="-5.748109651990553"><ele>960.5999999999999</ele><time>2026-03-25T14:28:55.983Z</time></trkpt><trkpt lat="30.84994760724261" lon="-5.748223851058999"><ele>960.4</ele><time>2026-03-25T14:28:56.983Z</time></trkpt><trkpt lat="30.84995518584929" lon="-5.748340390719771"><ele>960.2</ele><time>2026-03-25T14:28:57.983Z</time></trkpt><trkpt lat="30.849965972620005" lon="-5.748464360224081"><ele>960.0</ele><time>2026-03-25T14:28:58.983Z</time></trkpt><trkpt lat="30.849971089453465" lon="-5.748579057767353"><ele>959.8</ele><time>2026-03-25T14:28:59.983Z</time></trkpt><trkpt lat="30.849982904935654" lon="-5.748702562462468"><ele>959.6</ele><time>2026-03-25T14:29:00.983Z</time></trkpt><trkpt lat="30.849989067180964" lon="-5.7488175375715675"><ele>959.4000000000001</ele><time>2026-03-25T14:29:01.983Z</time></trkpt><trkpt lat="30.849985517824567" lon="-5.748926200935791"><ele>959.2</ele><time>2026-03-25T14:29:02.983Z</time></trkpt><trkpt lat="30.849984075090106" lon="-5.74903990667035"><ele>959.0</ele><time>2026-03-25T14:29:03.983Z</time></trkpt><trkpt lat="30.850002628264512" lon="-5.749146743034225"><ele>959.0</ele><time>2026-03-25T14:29:04.983Z</time></trkpt><trkpt lat="30.850024469749883" lon="-5.749250914949301"><ele>959.0000000000001</ele><time>2026-03-25T14:29:05.983Z</time></trkpt><trkpt lat="30.850032576783384" lon="-5.7493551725177445"><ele>959.0000000000001</ele><time>2026-03-25T14:29:06.983Z</time></trkpt><trkpt lat="30.850037967695037" lon="-5.749458044972395"><ele>959.0</ele><time>2026-03-25T14:29:07.983Z</time></trkpt><trkpt lat="30.850041501920764" lon="-5.749565010349325"><ele>959.0</ele><time>2026-03-25T14:29:08.983Z</time></trkpt><trkpt lat="30.8500503305079" lon="-5.749675012016451"><ele>958.8000000000001</ele><time>2026-03-25T14:29:09.983Z</time></trkpt><trkpt lat="30.850064158842244" lon="-5.749786785786484"><ele>958.6000000000001</ele><time>2026-03-25T14:29:10.983Z</time></trkpt><trkpt lat="30.850066392130532" lon="-5.749900293624489"><ele>958.4</ele><time>2026-03-25T14:29:11.983Z</time></trkpt><trkpt lat="30.85006981385261" lon="-5.750034890991239"><ele>958.2</ele><time>2026-03-25T14:29:12.983Z</time></trkpt><trkpt lat="30.85008840435734" lon="-5.750155657368944"><ele>958.0</ele><time>2026-03-25T14:29:13.983Z</time></trkpt><trkpt lat="30.850107639163344" lon="-5.7502754745799365"><ele>958.2</ele><time>2026-03-25T14:29:14.983Z</time></trkpt><trkpt lat="30.850125262652075" lon="-5.7504062803292175"><ele>958.4</ele><time>2026-03-25T14:29:15.983Z</time></trkpt><trkpt lat="30.85013942022595" lon="-5.750536749602474"><ele>958.6000000000001</ele><time>2026-03-25T14:29:16.983Z</time></trkpt><trkpt lat="30.850152478197693" lon="-5.75065977185384"><ele>958.8000000000001</ele><time>2026-03-25T14:29:17.983Z</time></trkpt><trkpt lat="30.850160059880828" lon="-5.750775253919299"><ele>959.0</ele><time>2026-03-25T14:29:18.983Z</time></trkpt><trkpt lat="30.85016903295198" lon="-5.7509010215689065"><ele>959.0000000000001</ele><time>2026-03-25T14:29:19.983Z</time></trkpt><trkpt lat="30.85018113618109" lon="-5.751034039505348"><ele>959.0</ele><time>2026-03-25T14:29:20.983Z</time></trkpt><trkpt lat="30.850190822377364" lon="-5.7511239791381845"><ele>959.0</ele><time>2026-03-25T14:29:21.983Z</time></trkpt><trkpt lat="30.85021077499646" lon="-5.751251580047084"><ele>959.0</ele><time>2026-03-25T14:29:23.983Z</time></trkpt><trkpt lat="30.850223216084864" lon="-5.751328125118606"><ele>959.0000000000001</ele><time>2026-03-25T14:29:25.983Z</time></trkpt><trkpt lat="30.850207762351157" lon="-5.7514042294048435"><ele>959.0</ele><time>2026-03-25T14:29:29.983Z</time></trkpt><trkpt lat="30.850195392760632" lon="-5.751477401697652"><ele>958.8333333333334</ele><time>2026-03-25T14:29:40.983Z</time></trkpt><trkpt lat="30.85014588978557" lon="-5.75153055007872"><ele>958.6666666666667</ele><time>2026-03-25T14:29:42.983Z</time></trkpt><trkpt lat="30.850077501906263" lon="-5.751517134836989"><ele>958.5</ele><time>2026-03-25T14:30:06.983Z</time></trkpt><trkpt lat="30.850068031925776" lon="-5.751417639811724"><ele>958.3333333333333</ele><time>2026-03-25T14:30:09.983Z</time></trkpt><trkpt lat="30.85014696107475" lon="-5.751360627541897"><ele>958.1666666666666</ele><time>2026-03-25T14:30:12.983Z</time></trkpt><trkpt lat="30.850238433673365" lon="-5.75133391829756"><ele>958.0</ele><time>2026-03-25T14:30:15.983Z</time></trkpt><trkpt lat="30.85030941869735" lon="-5.751296839768476"><ele>958.0</ele><time>2026-03-25T14:30:17.983Z</time></trkpt><trkpt lat="30.850374999435232" lon="-5.751198655141825"><ele>958.0</ele><time>2026-03-25T14:30:19.983Z</time></trkpt><trkpt lat="30.85044917610275" lon="-5.751096465681125"><ele>958.0</ele><time>2026-03-25T14:30:21.983Z</time></trkpt><trkpt lat="30.85050183818227" lon="-5.750977955273925"><ele>958.0</ele><time>2026-03-25T14:30:23.983Z</time></trkpt><trkpt lat="30.850531650384834" lon="-5.750903116252859"><ele>958.0</ele><time>2026-03-25T14:30:24.983Z</time></trkpt><trkpt lat="30.850553943580902" lon="-5.75081579246244"><ele>958.2</ele><time>2026-03-25T14:30:25.983Z</time></trkpt><trkpt lat="30.85058768951036" lon="-5.750708484057159"><ele>958.4</ele><time>2026-03-25T14:30:26.983Z</time></trkpt><trkpt lat="30.85063574858429" lon="-5.750592049496749"><ele>958.6000000000001</ele><time>2026-03-25T14:30:27.983Z</time></trkpt><trkpt lat="30.850694978065178" lon="-5.750481953271396"><ele>958.8000000000001</ele><time>2026-03-25T14:30:28.983Z</time></trkpt><trkpt lat="30.85075845505191" lon="-5.750396397548347"><ele>959.0</ele><time>2026-03-25T14:30:29.983Z</time></trkpt><trkpt lat="30.85082023835463" lon="-5.750306911630375"><ele>959.0</ele><time>2026-03-25T14:30:30.983Z</time></trkpt><trkpt lat="30.850888779973584" lon="-5.750234841584532"><ele>959.0000000000001</ele><time>2026-03-25T14:30:31.983Z</time></trkpt><trkpt lat="30.850967348342003" lon="-5.750166026850341"><ele>959.0000000000001</ele><time>2026-03-25T14:30:32.983Z</time></trkpt><trkpt lat="30.851041523550943" lon="-5.750075147631377"><ele>959.0</ele><time>2026-03-25T14:30:33.983Z</time></trkpt><trkpt lat="30.851112061778252" lon="-5.749982880415998"><ele>959.0</ele><time>2026-03-25T14:30:34.983Z</time></trkpt><trkpt lat="30.851184121571215" lon="-5.749896521693034"><ele>959.0</ele><time>2026-03-25T14:30:35.983Z</time></trkpt><trkpt lat="30.8512548551704" lon="-5.749815948055365"><ele>959.0</ele><time>2026-03-25T14:30:36.983Z</time></trkpt><trkpt lat="30.851327104865064" lon="-5.749725511172944"><ele>959.0</ele><time>2026-03-25T14:30:37.983Z</time></trkpt><trkpt lat="30.851411966124356" lon="-5.749635806033975"><ele>959.0</ele><time>2026-03-25T14:30:38.983Z</time></trkpt><trkpt lat="30.85152536809777" lon="-5.749540459647865"><ele>959.0</ele><time>2026-03-25T14:30:39.983Z</time></trkpt><trkpt lat="30.851628951840894" lon="-5.749453064116738"><ele>959.0000000000001</ele><time>2026-03-25T14:30:40.983Z</time></trkpt><trkpt lat="30.85170031490979" lon="-5.749379794850577"><ele>959.0000000000001</ele><time>2026-03-25T14:30:41.983Z</time></trkpt><trkpt lat="30.851744798438535" lon="-5.749320120065013"><ele>959.0</ele><time>2026-03-25T14:30:42.983Z</time></trkpt><trkpt lat="30.85178863878255" lon="-5.749255803916858"><ele>959.0</ele><time>2026-03-25T14:30:43.983Z</time></trkpt><trkpt lat="30.851856542431655" lon="-5.7491467022477245"><ele>959.2</ele><time>2026-03-25T14:30:45.983Z</time></trkpt><trkpt lat="30.851932297099204" lon="-5.74907827471287"><ele>959.4000000000001</ele><time>2026-03-25T14:30:47.983Z</time></trkpt><trkpt lat="30.85201279933636" lon="-5.749045908188433"><ele>959.6</ele><time>2026-03-25T14:30:49.983Z</time></trkpt><trkpt lat="30.852087889159407" lon="-5.7491054177899334"><ele>959.8</ele><time>2026-03-25T14:30:51.983Z</time></trkpt><trkpt lat="30.852106167450913" lon="-5.749266960186372"><ele>960.0</ele><time>2026-03-25T14:30:53.983Z</time></trkpt><trkpt lat="30.85209836880678" lon="-5.749399448854609"><ele>960.0</ele><time>2026-03-25T14:30:54.983Z</time></trkpt><trkpt lat="30.85209991928436" lon="-5.7495532322431115"><ele>960.0</ele><time>2026-03-25T14:30:55.983Z</time></trkpt><trkpt lat="30.852109628835763" lon="-5.749740232529583"><ele>960.0</ele><time>2026-03-25T14:30:56.983Z</time></trkpt><trkpt lat="30.85211560478668" lon="-5.749953501015892"><ele>960.0</ele><time>2026-03-25T14:30:57.983Z</time></trkpt><trkpt lat="30.852123304202912" lon="-5.7501772071945005"><ele>960.0</ele><time>2026-03-25T14:30:58.983Z</time></trkpt><trkpt lat="30.852127310795" lon="-5.750387750944175"><ele>960.0</ele><time>2026-03-25T14:30:59.983Z</time></trkpt><trkpt lat="30.852135140257115" lon="-5.7505714064201054"><ele>960.0</ele><time>2026-03-25T14:31:00.983Z</time></trkpt><trkpt lat="30.852139230641345" lon="-5.750740910942858"><ele>960.0</ele><time>2026-03-25T14:31:01.983Z</time></trkpt><trkpt lat="30.852141346176122" lon="-5.750908607369126"><ele>960.0</ele><time>2026-03-25T14:31:02.983Z</time></trkpt><trkpt lat="30.852147897431337" lon="-5.751085734327218"><ele>960.0</ele><time>2026-03-25T14:31:03.983Z</time></trkpt><trkpt lat="30.85215292330437" lon="-5.751265849367897"><ele>960.0</ele><time>2026-03-25T14:31:04.983Z</time></trkpt><trkpt lat="30.852158581512338" lon="-5.751443092055953"><ele>960.0</ele><time>2026-03-25T14:31:05.983Z</time></trkpt><trkpt lat="30.852162898981156" lon="-5.751615077934807"><ele>960.0</ele><time>2026-03-25T14:31:06.983Z</time></trkpt><trkpt lat="30.8521611350786" lon="-5.751793758812852"><ele>960.3333333333333</ele><time>2026-03-25T14:31:07.983Z</time></trkpt><trkpt lat="30.85216804058366" lon="-5.751986944260214"><ele>960.6666666666666</ele><time>2026-03-25T14:31:08.983Z</time></trkpt><trkpt lat="30.85217186201625" lon="-5.752201025584377"><ele>961.0</ele><time>2026-03-25T14:31:09.983Z</time></trkpt><trkpt lat="30.852177579704083" lon="-5.752413776797768"><ele>961.0</ele><time>2026-03-25T14:31:10.983Z</time></trkpt><trkpt lat="30.852180625754418" lon="-5.752617085699476"><ele>961.0</ele><time>2026-03-25T14:31:11.983Z</time></trkpt><trkpt lat="30.852180813516757" lon="-5.752813770661475"><ele>961.0</ele><time>2026-03-25T14:31:12.983Z</time></trkpt><trkpt lat="30.852185447642604" lon="-5.753008785643321"><ele>961.0</ele><time>2026-03-25T14:31:13.983Z</time></trkpt><trkpt lat="30.852197698237887" lon="-5.753209117905222"><ele>961.0</ele><time>2026-03-25T14:31:14.983Z</time></trkpt><trkpt lat="30.85221133827233" lon="-5.753408102378611"><ele>961.0</ele><time>2026-03-25T14:31:15.983Z</time></trkpt><trkpt lat="30.85221928204158" lon="-5.753611820092671"><ele>961.3333333333333</ele><time>2026-03-25T14:31:16.983Z</time></trkpt><trkpt lat="30.85222376311835" lon="-5.753823242132762"><ele>961.6666666666667</ele><time>2026-03-25T14:31:17.983Z</time></trkpt><trkpt lat="30.85223046672094" lon="-5.754034737820192"><ele>962.0</ele><time>2026-03-25T14:31:18.983Z</time></trkpt><trkpt lat="30.852238142226433" lon="-5.754252647971535"><ele>961.6666666666667</ele><time>2026-03-25T14:31:19.983Z</time></trkpt><trkpt lat="30.852248562333546" lon="-5.754463489377354"><ele>961.3333333333333</ele><time>2026-03-25T14:31:20.983Z</time></trkpt><trkpt lat="30.85225647487079" lon="-5.754674072013247"><ele>961.0</ele><time>2026-03-25T14:31:21.983Z</time></trkpt><trkpt lat="30.85225988388524" lon="-5.754871844498681"><ele>961.0</ele><time>2026-03-25T14:31:22.983Z</time></trkpt><trkpt lat="30.85226894094503" lon="-5.75506840554457"><ele>961.0</ele><time>2026-03-25T14:31:23.983Z</time></trkpt><trkpt lat="30.852275972297733" lon="-5.755265177341585"><ele>961.0</ele><time>2026-03-25T14:31:24.983Z</time></trkpt><trkpt lat="30.852280277406038" lon="-5.755459857947185"><ele>961.6666666666666</ele><time>2026-03-25T14:31:25.983Z</time></trkpt><trkpt lat="30.8522866235171" lon="-5.755655400426996"><ele>962.3333333333333</ele><time>2026-03-25T14:31:26.983Z</time></trkpt><trkpt lat="30.852289641394393" lon="-5.755844114444255"><ele>963.0</ele><time>2026-03-25T14:31:27.983Z</time></trkpt><trkpt lat="30.85229285739173" lon="-5.756034925565142"><ele>963.0</ele><time>2026-03-25T14:31:28.983Z</time></trkpt><trkpt lat="30.852297087325805" lon="-5.756213734394582"><ele>963.0</ele><time>2026-03-25T14:31:29.983Z</time></trkpt><trkpt lat="30.852301428515137" lon="-5.756412678045971"><ele>963.0</ele><time>2026-03-25T14:31:30.983Z</time></trkpt><trkpt lat="30.852304662003714" lon="-5.756600071832219"><ele>963.0</ele><time>2026-03-25T14:31:31.983Z</time></trkpt><trkpt lat="30.852309114547502" lon="-5.756794021554409"><ele>963.0</ele><time>2026-03-25T14:31:32.983Z</time></trkpt><trkpt lat="30.852315079647052" lon="-5.756986396910702"><ele>963.0</ele><time>2026-03-25T14:31:33.983Z</time></trkpt><trkpt lat="30.852317902478063" lon="-5.757183277464043"><ele>963.3333333333333</ele><time>2026-03-25T14:31:34.983Z</time></trkpt><trkpt lat="30.852327734285563" lon="-5.75737622704554"><ele>963.6666666666666</ele><time>2026-03-25T14:31:35.983Z</time></trkpt><trkpt lat="30.852336016988133" lon="-5.75758195918109"><ele>964.0</ele><time>2026-03-25T14:31:36.983Z</time></trkpt><trkpt lat="30.85234358862662" lon="-5.7577881489898735"><ele>964.0</ele><time>2026-03-25T14:31:37.983Z</time></trkpt><trkpt lat="30.852351942891513" lon="-5.757992741054519"><ele>964.0</ele><time>2026-03-25T14:31:38.983Z</time></trkpt><trkpt lat="30.852352908120334" lon="-5.75819698750424"><ele>964.0</ele><time>2026-03-25T14:31:39.983Z</time></trkpt><trkpt lat="30.85235712228163" lon="-5.75840619677137"><ele>964.0</ele><time>2026-03-25T14:31:40.983Z</time></trkpt><trkpt lat="30.852366184334446" lon="-5.758631826731296"><ele>964.0</ele><time>2026-03-25T14:31:41.983Z</time></trkpt><trkpt lat="30.852376169138154" lon="-5.7588563010023845"><ele>964.0</ele><time>2026-03-25T14:31:42.983Z</time></trkpt><trkpt lat="30.852382196834967" lon="-5.759074337158146"><ele>964.0</ele><time>2026-03-25T14:31:43.983Z</time></trkpt><trkpt lat="30.852388114258854" lon="-5.759296612511455"><ele>964.0</ele><time>2026-03-25T14:31:44.983Z</time></trkpt><trkpt lat="30.852393954454516" lon="-5.759534732610429"><ele>964.0</ele><time>2026-03-25T14:31:45.983Z</time></trkpt><trkpt lat="30.85240200857526" lon="-5.759780116852292"><ele>964.3333333333333</ele><time>2026-03-25T14:31:46.983Z</time></trkpt><trkpt lat="30.852410951092427" lon="-5.7600212046200685"><ele>964.6666666666667</ele><time>2026-03-25T14:31:47.984Z</time></trkpt><trkpt lat="30.852416965590976" lon="-5.760247236236169"><ele>965.0</ele><time>2026-03-25T14:31:48.983Z</time></trkpt><trkpt lat="30.852420591814298" lon="-5.7604766537101835"><ele>965.0</ele><time>2026-03-25T14:31:49.983Z</time></trkpt><trkpt lat="30.852426039048733" lon="-5.76070769189082"><ele>965.0</ele><time>2026-03-25T14:31:50.983Z</time></trkpt><trkpt lat="30.852433659748904" lon="-5.760941863473129"><ele>965.0</ele><time>2026-03-25T14:31:51.983Z</time></trkpt><trkpt lat="30.85244299022153" lon="-5.761175749796464"><ele>965.0</ele><time>2026-03-25T14:31:52.983Z</time></trkpt><trkpt lat="30.852451736473473" lon="-5.761409703686365"><ele>965.0</ele><time>2026-03-25T14:31:53.983Z</time></trkpt><trkpt lat="30.85245877003534" lon="-5.761647753007365"><ele>965.0</ele><time>2026-03-25T14:31:54.983Z</time></trkpt><trkpt lat="30.852464293967497" lon="-5.761872026140294"><ele>965.6666666666667</ele><time>2026-03-25T14:31:55.983Z</time></trkpt><trkpt lat="30.852470215906056" lon="-5.762100480298057"><ele>966.3333333333333</ele><time>2026-03-25T14:31:56.983Z</time></trkpt><trkpt lat="30.852475573790677" lon="-5.76233195911935"><ele>967.0</ele><time>2026-03-25T14:31:57.983Z</time></trkpt><trkpt lat="30.852484960500302" lon="-5.762562324695729"><ele>967.3333333333333</ele><time>2026-03-25T14:31:58.983Z</time></trkpt><trkpt lat="30.852489749048186" lon="-5.762787385159208"><ele>967.6666666666667</ele><time>2026-03-25T14:31:59.983Z</time></trkpt><trkpt lat="30.85249728764663" lon="-5.763014845945181"><ele>968.0</ele><time>2026-03-25T14:32:00.983Z</time></trkpt><trkpt lat="30.852500730050547" lon="-5.763234148003771"><ele>968.0</ele><time>2026-03-25T14:32:01.983Z</time></trkpt><trkpt lat="30.852507998555573" lon="-5.763450528187791"><ele>968.0</ele><time>2026-03-25T14:32:02.983Z</time></trkpt><trkpt lat="30.852515568204325" lon="-5.763672201795307"><ele>968.0</ele><time>2026-03-25T14:32:03.983Z</time></trkpt><trkpt lat="30.85252356119007" lon="-5.763896757510176"><ele>968.0</ele><time>2026-03-25T14:32:04.983Z</time></trkpt><trkpt lat="30.852530808282346" lon="-5.7641219013344935"><ele>968.0</ele><time>2026-03-25T14:32:05.983Z</time></trkpt><trkpt lat="30.852537746589853" lon="-5.764349515079174"><ele>968.0</ele><time>2026-03-25T14:32:06.983Z</time></trkpt><trkpt lat="30.852545150723866" lon="-5.764579588662986"><ele>967.6666666666667</ele><time>2026-03-25T14:32:07.983Z</time></trkpt><trkpt lat="30.852551480411893" lon="-5.764807470555815"><ele>967.3333333333333</ele><time>2026-03-25T14:32:08.983Z</time></trkpt><trkpt lat="30.852575563779844" lon="-5.76503108852344"><ele>967.0</ele><time>2026-03-25T14:32:09.983Z</time></trkpt><trkpt lat="30.852583081727282" lon="-5.765252280291984"><ele>966.6666666666666</ele><time>2026-03-25T14:32:10.983Z</time></trkpt><trkpt lat="30.852590837808815" lon="-5.765476322393936"><ele>966.3333333333333</ele><time>2026-03-25T14:32:11.983Z</time></trkpt><trkpt lat="30.852582302393408" lon="-5.765699273685631"><ele>966.0</ele><time>2026-03-25T14:32:12.983Z</time></trkpt><trkpt lat="30.852592831790233" lon="-5.765921732110274"><ele>966.0</ele><time>2026-03-25T14:32:13.983Z</time></trkpt><trkpt lat="30.85260133467752" lon="-5.766146453383894"><ele>966.0</ele><time>2026-03-25T14:32:14.983Z</time></trkpt><trkpt lat="30.85260768121543" lon="-5.766365332516138"><ele>966.0</ele><time>2026-03-25T14:32:15.983Z</time></trkpt><trkpt lat="30.852613344352847" lon="-5.766577095775823"><ele>966.0</ele><time>2026-03-25T14:32:16.983Z</time></trkpt><trkpt lat="30.852621788537" lon="-5.76678586959749"><ele>966.0</ele><time>2026-03-25T14:32:17.983Z</time></trkpt><trkpt lat="30.85263268840369" lon="-5.766991882128918"><ele>966.0</ele><time>2026-03-25T14:32:18.983Z</time></trkpt><trkpt lat="30.852640463876238" lon="-5.767196621189305"><ele>967.0</ele><time>2026-03-25T14:32:19.983Z</time></trkpt><trkpt lat="30.85264622893416" lon="-5.76739938909365"><ele>968.0</ele><time>2026-03-25T14:32:20.983Z</time></trkpt><trkpt lat="30.8526514218102" lon="-5.767600932619995"><ele>969.0</ele><time>2026-03-25T14:32:21.983Z</time></trkpt><trkpt lat="30.85265319700923" lon="-5.767790406608019"><ele>969.3333333333333</ele><time>2026-03-25T14:32:22.983Z</time></trkpt><trkpt lat="30.852657046758967" lon="-5.767972398882888"><ele>969.6666666666666</ele><time>2026-03-25T14:32:23.983Z</time></trkpt><trkpt lat="30.852660664368052" lon="-5.768151042635271"><ele>970.0</ele><time>2026-03-25T14:32:24.983Z</time></trkpt><trkpt lat="30.852667337012047" lon="-5.76832867814363"><ele>970.0</ele><time>2026-03-25T14:32:25.983Z</time></trkpt><trkpt lat="30.852672095472773" lon="-5.76850637220334"><ele>970.0</ele><time>2026-03-25T14:32:26.983Z</time></trkpt><trkpt lat="30.852679006918702" lon="-5.768686761314271"><ele>970.0</ele><time>2026-03-25T14:32:27.983Z</time></trkpt><trkpt lat="30.852683229842683" lon="-5.768865166703314"><ele>970.0</ele><time>2026-03-25T14:32:28.983Z</time></trkpt><trkpt lat="30.852683881150107" lon="-5.769026848148192"><ele>970.0</ele><time>2026-03-25T14:32:29.983Z</time></trkpt><trkpt lat="30.85268764950727" lon="-5.769186654532781"><ele>970.0</ele><time>2026-03-25T14:32:30.983Z</time></trkpt><trkpt lat="30.852705828582422" lon="-5.769338203784923"><ele>970.0</ele><time>2026-03-25T14:32:31.983Z</time></trkpt><trkpt lat="30.85271877044658" lon="-5.769478876456377"><ele>969.8</ele><time>2026-03-25T14:32:32.983Z</time></trkpt><trkpt lat="30.8527207320791" lon="-5.769610056706126"><ele>969.6</ele><time>2026-03-25T14:32:33.983Z</time></trkpt><trkpt lat="30.85272212718573" lon="-5.769732902888786"><ele>969.4000000000001</ele><time>2026-03-25T14:32:34.983Z</time></trkpt><trkpt lat="30.852721944178736" lon="-5.76984671585933"><ele>969.2</ele><time>2026-03-25T14:32:35.983Z</time></trkpt><trkpt lat="30.85272357041369" lon="-5.769952485341579"><ele>969.0</ele><time>2026-03-25T14:32:36.983Z</time></trkpt><trkpt lat="30.852725755000478" lon="-5.770050692579657"><ele>969.0</ele><time>2026-03-25T14:32:37.983Z</time></trkpt><trkpt lat="30.852733268274033" lon="-5.770141340093779"><ele>969.0</ele><time>2026-03-25T14:32:38.983Z</time></trkpt><trkpt lat="30.852738682445928" lon="-5.770226032552914"><ele>969.0</ele><time>2026-03-25T14:32:39.983Z</time></trkpt><trkpt lat="30.85274456588146" lon="-5.770301770674972"><ele>969.0</ele><time>2026-03-25T14:32:40.983Z</time></trkpt><trkpt lat="30.852750762664844" lon="-5.770433768518192"><ele>969.0</ele><time>2026-03-25T14:32:42.983Z</time></trkpt><trkpt lat="30.852749657203855" lon="-5.77053306087744"><ele>969.0</ele><time>2026-03-25T14:32:44.983Z</time></trkpt><trkpt lat="30.85274938236168" lon="-5.770616582648914"><ele>969.4000000000001</ele><time>2026-03-25T14:32:47.983Z</time></trkpt><trkpt lat="30.85276013838968" lon="-5.770711854755394"><ele>969.8000000000001</ele><time>2026-03-25T14:34:06.983Z</time></trkpt><trkpt lat="30.8527619504698" lon="-5.770835461056553"><ele>970.1999999999999</ele><time>2026-03-25T14:34:07.983Z</time></trkpt><trkpt lat="30.85277042958036" lon="-5.770946536324162"><ele>970.5999999999999</ele><time>2026-03-25T14:34:08.983Z</time></trkpt><trkpt lat="30.852770392001318" lon="-5.771021453559354"><ele>971.0</ele><time>2026-03-25T14:34:09.983Z</time></trkpt><trkpt lat="30.852765257602105" lon="-5.771151717130186"><ele>971.0</ele><time>2026-03-25T14:34:11.983Z</time></trkpt><trkpt lat="30.85274745976426" lon="-5.771278371472979"><ele>971.0</ele><time>2026-03-25T14:34:13.983Z</time></trkpt><trkpt lat="30.85273519774933" lon="-5.771363044862254"><ele>971.0</ele><time>2026-03-25T14:34:15.983Z</time></trkpt><trkpt lat="30.852583277807494" lon="-5.771407756112207"><ele>971.0</ele><time>2026-03-25T14:34:17.983Z</time></trkpt><trkpt lat="30.852475110024404" lon="-5.7714236020046386"><ele>971.1999999999999</ele><time>2026-03-25T14:34:19.983Z</time></trkpt><trkpt lat="30.852352335334718" lon="-5.771426527243241"><ele>971.3999999999999</ele><time>2026-03-25T14:34:21.983Z</time></trkpt><trkpt lat="30.85228821840564" lon="-5.771433349072458"><ele>971.6</ele><time>2026-03-25T14:34:22.983Z</time></trkpt><trkpt lat="30.852163903800488" lon="-5.771440578106138"><ele>971.8</ele><time>2026-03-25T14:34:24.983Z</time></trkpt><trkpt lat="30.85204252655547" lon="-5.771458951292425"><ele>972.0</ele><time>2026-03-25T14:34:26.983Z</time></trkpt><trkpt lat="30.85197269592226" lon="-5.771467021974681"><ele>972.0</ele><time>2026-03-25T14:34:27.983Z</time></trkpt><trkpt lat="30.851903491722577" lon="-5.771469638918812"><ele>972.0</ele><time>2026-03-25T14:34:28.983Z</time></trkpt><trkpt lat="30.85184017375558" lon="-5.7714901697043315"><ele>972.0</ele><time>2026-03-25T14:34:29.983Z</time></trkpt><trkpt lat="30.851768975188676" lon="-5.771497875524728"><ele>972.0</ele><time>2026-03-25T14:34:30.983Z</time></trkpt><trkpt lat="30.851692317643604" lon="-5.771505922165861"><ele>972.0</ele><time>2026-03-25T14:34:31.983Z</time></trkpt><trkpt lat="30.8515897094542" lon="-5.771516692809085"><ele>972.0</ele><time>2026-03-25T14:34:32.983Z</time></trkpt><trkpt lat="30.851474984698132" lon="-5.771528735318444"><ele>971.25</ele><time>2026-03-25T14:34:33.983Z</time></trkpt><trkpt lat="30.85135944489031" lon="-5.771542818497034"><ele>970.5</ele><time>2026-03-25T14:34:34.983Z</time></trkpt><trkpt lat="30.851238213474726" lon="-5.771532146082251"><ele>969.75</ele><time>2026-03-25T14:34:35.983Z</time></trkpt><trkpt lat="30.851094977451567" lon="-5.771548348449231"><ele>969.0</ele><time>2026-03-25T14:34:36.983Z</time></trkpt><trkpt lat="30.850945434756348" lon="-5.771567414784396"><ele>968.3333333333333</ele><time>2026-03-25T14:34:37.983Z</time></trkpt><trkpt lat="30.850796479061007" lon="-5.771590777408899"><ele>967.6666666666666</ele><time>2026-03-25T14:34:38.983Z</time></trkpt><trkpt lat="30.850648311830124" lon="-5.771605685083312"><ele>967.0</ele><time>2026-03-25T14:34:39.983Z</time></trkpt><trkpt lat="30.850497490179997" lon="-5.771612078001418"><ele>967.0</ele><time>2026-03-25T14:34:40.983Z</time></trkpt><trkpt lat="30.85034876759963" lon="-5.771624232209764"><ele>967.0</ele><time>2026-03-25T14:34:41.983Z</time></trkpt><trkpt lat="30.850192279605086" lon="-5.771636839350257"><ele>967.0</ele><time>2026-03-25T14:34:42.983Z</time></trkpt><trkpt lat="30.850019508296086" lon="-5.771649065295093"><ele>966.6666666666666</ele><time>2026-03-25T14:34:43.983Z</time></trkpt><trkpt lat="30.849826530081835" lon="-5.7716612684973"><ele>966.3333333333333</ele><time>2026-03-25T14:34:44.983Z</time></trkpt><trkpt lat="30.849612530936405" lon="-5.771648538194628"><ele>966.0</ele><time>2026-03-25T14:34:45.983Z</time></trkpt><trkpt lat="30.849418391758547" lon="-5.771627107713976"><ele>966.0</ele><time>2026-03-25T14:34:46.983Z</time></trkpt><trkpt lat="30.849261889634107" lon="-5.7715931902832525"><ele>966.0</ele><time>2026-03-25T14:34:47.983Z</time></trkpt><trkpt lat="30.849126114061296" lon="-5.771557607178655"><ele>966.0</ele><time>2026-03-25T14:34:48.983Z</time></trkpt><trkpt lat="30.848989871266422" lon="-5.771522666567609"><ele>966.0</ele><time>2026-03-25T14:34:49.983Z</time></trkpt><trkpt lat="30.848867232841787" lon="-5.771488622059396"><ele>966.0</ele><time>2026-03-25T14:34:50.983Z</time></trkpt><trkpt lat="30.84875411323389" lon="-5.771459999388792"><ele>966.0</ele><time>2026-03-25T14:34:51.983Z</time></trkpt><trkpt lat="30.848639421189898" lon="-5.771427992565565"><ele>966.0</ele><time>2026-03-25T14:34:52.983Z</time></trkpt><trkpt lat="30.84852243006498" lon="-5.771403443909568"><ele>966.0</ele><time>2026-03-25T14:34:53.983Z</time></trkpt><trkpt lat="30.84840686585084" lon="-5.771385203326251"><ele>966.25</ele><time>2026-03-25T14:34:54.983Z</time></trkpt><trkpt lat="30.848287440910255" lon="-5.771376816913138"><ele>966.5</ele><time>2026-03-25T14:34:55.983Z</time></trkpt><trkpt lat="30.84816819126306" lon="-5.7713745275371195"><ele>966.75</ele><time>2026-03-25T14:34:56.983Z</time></trkpt><trkpt lat="30.848048638610617" lon="-5.771380774909492"><ele>967.0</ele><time>2026-03-25T14:34:57.983Z</time></trkpt><trkpt lat="30.84791443855659" lon="-5.771402255584373"><ele>967.0</ele><time>2026-03-25T14:34:58.983Z</time></trkpt><trkpt lat="30.847776148454557" lon="-5.771419641477408"><ele>967.0</ele><time>2026-03-25T14:34:59.983Z</time></trkpt><trkpt lat="30.847620088027348" lon="-5.771415711022815"><ele>967.0</ele><time>2026-03-25T14:35:00.983Z</time></trkpt><trkpt lat="30.84746946043221" lon="-5.7714014227962025"><ele>967.0</ele><time>2026-03-25T14:35:01.983Z</time></trkpt><trkpt lat="30.847326148031446" lon="-5.771386262517324"><ele>966.25</ele><time>2026-03-25T14:35:02.983Z</time></trkpt><trkpt lat="30.847187565099535" lon="-5.771371525317866"><ele>965.5</ele><time>2026-03-25T14:35:03.983Z</time></trkpt><trkpt lat="30.84705135349386" lon="-5.771357707191711"><ele>964.75</ele><time>2026-03-25T14:35:04.983Z</time></trkpt><trkpt lat="30.846926917119944" lon="-5.771352479406015"><ele>964.0</ele><time>2026-03-25T14:35:05.983Z</time></trkpt><trkpt lat="30.84682254024531" lon="-5.771348149395477"><ele>963.8333333333333</ele><time>2026-03-25T14:35:06.983Z</time></trkpt><trkpt lat="30.84673980579969" lon="-5.771344256037081"><ele>963.6666666666666</ele><time>2026-03-25T14:35:07.983Z</time></trkpt><trkpt lat="30.846664027632123" lon="-5.7713356814721415"><ele>963.5</ele><time>2026-03-25T14:35:08.983Z</time></trkpt><trkpt lat="30.84658050831439" lon="-5.771331799509958"><ele>963.3333333333333</ele><time>2026-03-25T14:35:09.983Z</time></trkpt><trkpt lat="30.846490661964758" lon="-5.77133215959952"><ele>963.1666666666666</ele><time>2026-03-25T14:35:10.983Z</time></trkpt><trkpt lat="30.846384412507216" lon="-5.771334295659318"><ele>963.0</ele><time>2026-03-25T14:35:11.983Z</time></trkpt><trkpt lat="30.846268094495937" lon="-5.771339506251415"><ele>963.0</ele><time>2026-03-25T14:35:12.983Z</time></trkpt><trkpt lat="30.846144451577512" lon="-5.771338072344623"><ele>963.0</ele><time>2026-03-25T14:35:13.983Z</time></trkpt><trkpt lat="30.84601992957573" lon="-5.771335748554141"><ele>963.0</ele><time>2026-03-25T14:35:14.983Z</time></trkpt><trkpt lat="30.84588711471194" lon="-5.771339987272958"><ele>963.0</ele><time>2026-03-25T14:35:15.983Z</time></trkpt><trkpt lat="30.845754370555827" lon="-5.771339468188504"><ele>962.75</ele><time>2026-03-25T14:35:16.983Z</time></trkpt><trkpt lat="30.84562210022431" lon="-5.77133943843835"><ele>962.5</ele><time>2026-03-25T14:35:17.983Z</time></trkpt><trkpt lat="30.845503630526544" lon="-5.77134047104779"><ele>962.25</ele><time>2026-03-25T14:35:18.983Z</time></trkpt><trkpt lat="30.845398456041238" lon="-5.7713444235751865"><ele>962.0</ele><time>2026-03-25T14:35:19.983Z</time></trkpt><trkpt lat="30.84530230270885" lon="-5.771350765618009"><ele>962.0000000000001</ele><time>2026-03-25T14:35:20.983Z</time></trkpt><trkpt lat="30.845218482669218" lon="-5.771357605510983"><ele>962.0</ele><time>2026-03-25T14:35:21.983Z</time></trkpt><trkpt lat="30.84515087804202" lon="-5.7713551491336705"><ele>962.0</ele><time>2026-03-25T14:35:22.983Z</time></trkpt><trkpt lat="30.845051636971665" lon="-5.771374708279204"><ele>962.0</ele><time>2026-03-25T14:35:24.983Z</time></trkpt><trkpt lat="30.845002270103183" lon="-5.771441629754351"><ele>962.0000000000001</ele><time>2026-03-25T14:35:26.983Z</time></trkpt><trkpt lat="30.845000530182087" lon="-5.771518452311413"><ele>962.0</ele><time>2026-03-25T14:35:28.983Z</time></trkpt><trkpt lat="30.845052731232997" lon="-5.771565976036664"><ele>962.0</ele><time>2026-03-25T14:35:31.983Z</time></trkpt><trkpt lat="30.845113200304926" lon="-5.771541256598843"><ele>962.0</ele><time>2026-03-25T14:35:33.983Z</time></trkpt><trkpt lat="30.845199716276525" lon="-5.771472821080596"><ele>962.0</ele><time>2026-03-25T14:37:54.983Z</time></trkpt><trkpt lat="30.845279983009462" lon="-5.771430811413797"><ele>962.0</ele><time>2026-03-25T14:37:55.983Z</time></trkpt><trkpt lat="30.8453686129627" lon="-5.771372467167301"><ele>962.0</ele><time>2026-03-25T14:37:56.983Z</time></trkpt><trkpt lat="30.84544616235306" lon="-5.771303936527546"><ele>962.0</ele><time>2026-03-25T14:37:57.983Z</time></trkpt><trkpt lat="30.845542747201847" lon="-5.7712748859177845"><ele>962.0</ele><time>2026-03-25T14:37:58.983Z</time></trkpt><trkpt lat="30.84565833629178" lon="-5.771276881114971"><ele>962.0</ele><time>2026-03-25T14:37:59.983Z</time></trkpt><trkpt lat="30.84580399442568" lon="-5.771298911789034"><ele>962.0</ele><time>2026-03-25T14:38:00.983Z</time></trkpt><trkpt lat="30.84597990448234" lon="-5.771317968239196"><ele>962.3333333333334</ele><time>2026-03-25T14:38:01.983Z</time></trkpt><trkpt lat="30.846186757487338" lon="-5.771310994140727"><ele>962.6666666666667</ele><time>2026-03-25T14:38:02.983Z</time></trkpt><trkpt lat="30.846397554426332" lon="-5.7712593347454515"><ele>963.0</ele><time>2026-03-25T14:38:03.983Z</time></trkpt><trkpt lat="30.84665870575306" lon="-5.77131110899268"><ele>963.5</ele><time>2026-03-25T14:38:04.983Z</time></trkpt><trkpt lat="30.846921811521742" lon="-5.77131498339681"><ele>964.0</ele><time>2026-03-25T14:38:05.983Z</time></trkpt><trkpt lat="30.847194376031045" lon="-5.771329560927991"><ele>964.0</ele><time>2026-03-25T14:38:06.983Z</time></trkpt><trkpt lat="30.847453799371564" lon="-5.771350276097947"><ele>964.0</ele><time>2026-03-25T14:38:07.983Z</time></trkpt><trkpt lat="30.847667004590743" lon="-5.771364145899304"><ele>965.0</ele><time>2026-03-25T14:38:08.983Z</time></trkpt><trkpt lat="30.847855340558883" lon="-5.771366673310807"><ele>966.0</ele><time>2026-03-25T14:38:09.983Z</time></trkpt><trkpt lat="30.848015276512452" lon="-5.771341175311567"><ele>967.0</ele><time>2026-03-25T14:38:10.983Z</time></trkpt><trkpt lat="30.848157649135" lon="-5.771321871510333"><ele>967.0</ele><time>2026-03-25T14:38:11.983Z</time></trkpt><trkpt lat="30.84829412173433" lon="-5.77132169088593"><ele>967.0</ele><time>2026-03-25T14:38:12.983Z</time></trkpt><trkpt lat="30.84844511945795" lon="-5.771339122414407"><ele>967.0</ele><time>2026-03-25T14:38:13.983Z</time></trkpt><trkpt lat="30.848630029089918" lon="-5.771382590332215"><ele>966.6666666666666</ele><time>2026-03-25T14:38:14.983Z</time></trkpt><trkpt lat="30.848828404492295" lon="-5.771434338627685"><ele>966.3333333333333</ele><time>2026-03-25T14:38:15.983Z</time></trkpt><trkpt lat="30.849051090071715" lon="-5.771483670699594"><ele>966.0</ele><time>2026-03-25T14:38:16.983Z</time></trkpt><trkpt lat="30.849256023434357" lon="-5.771536227455437"><ele>966.0</ele><time>2026-03-25T14:38:17.983Z</time></trkpt><trkpt lat="30.84944961260154" lon="-5.771578560998138"><ele>966.0</ele><time>2026-03-25T14:38:18.983Z</time></trkpt><trkpt lat="30.849633000509197" lon="-5.77160340065301"><ele>966.0</ele><time>2026-03-25T14:38:19.983Z</time></trkpt><trkpt lat="30.84980066666313" lon="-5.771616006582461"><ele>966.0</ele><time>2026-03-25T14:38:20.983Z</time></trkpt><trkpt lat="30.84997018879621" lon="-5.771613665107499"><ele>966.0</ele><time>2026-03-25T14:38:21.983Z</time></trkpt><trkpt lat="30.850148987057363" lon="-5.771596404694166"><ele>966.0</ele><time>2026-03-25T14:38:22.983Z</time></trkpt><trkpt lat="30.85032615135699" lon="-5.771587711726149"><ele>966.3333333333333</ele><time>2026-03-25T14:38:23.983Z</time></trkpt><trkpt lat="30.850497227041537" lon="-5.771580412008197"><ele>966.6666666666666</ele><time>2026-03-25T14:38:24.983Z</time></trkpt><trkpt lat="30.850667060223756" lon="-5.771567833021842"><ele>967.0</ele><time>2026-03-25T14:38:25.983Z</time></trkpt><trkpt lat="30.850853947791972" lon="-5.771543805469778"><ele>967.6666666666666</ele><time>2026-03-25T14:38:26.983Z</time></trkpt><trkpt lat="30.85104510085505" lon="-5.771524269254875"><ele>968.3333333333333</ele><time>2026-03-25T14:38:27.983Z</time></trkpt><trkpt lat="30.851219335278255" lon="-5.771506557218427"><ele>969.0</ele><time>2026-03-25T14:38:28.983Z</time></trkpt><trkpt lat="30.851371534385613" lon="-5.771496540533268"><ele>969.0</ele><time>2026-03-25T14:38:29.983Z</time></trkpt><trkpt lat="30.851514409521048" lon="-5.77149013101099"><ele>969.0</ele><time>2026-03-25T14:38:30.983Z</time></trkpt><trkpt lat="30.85165697497351" lon="-5.77147622907396"><ele>969.0</ele><time>2026-03-25T14:38:31.983Z</time></trkpt><trkpt lat="30.851821525420448" lon="-5.771462990071413"><ele>969.75</ele><time>2026-03-25T14:38:32.983Z</time></trkpt><trkpt lat="30.851982217333735" lon="-5.771461016057451"><ele>970.5</ele><time>2026-03-25T14:38:33.983Z</time></trkpt><trkpt lat="30.852129911096686" lon="-5.771458944154101"><ele>971.25</ele><time>2026-03-25T14:38:34.983Z</time></trkpt><trkpt lat="30.852254343458085" lon="-5.771448529031418"><ele>972.0</ele><time>2026-03-25T14:38:35.983Z</time></trkpt><trkpt lat="30.852368111453274" lon="-5.771435546961099"><ele>972.0</ele><time>2026-03-25T14:38:36.983Z</time></trkpt><trkpt lat="30.852472092084213" lon="-5.771421433139072"><ele>972.0</ele><time>2026-03-25T14:38:37.983Z</time></trkpt><trkpt lat="30.852558698515043" lon="-5.771402087015118"><ele>972.0</ele><time>2026-03-25T14:38:38.983Z</time></trkpt><trkpt lat="30.852622365130085" lon="-5.771369032114205"><ele>972.0</ele><time>2026-03-25T14:38:39.983Z</time></trkpt><trkpt lat="30.852668292371362" lon="-5.771317815524152"><ele>972.0</ele><time>2026-03-25T14:38:40.983Z</time></trkpt><trkpt lat="30.852711291190484" lon="-5.771202209987122"><ele>972.0</ele><time>2026-03-25T14:38:42.983Z</time></trkpt><trkpt lat="30.852720986740234" lon="-5.771118964590692"><ele>971.8333333333334</ele><time>2026-03-25T14:38:43.983Z</time></trkpt><trkpt lat="30.85272255539196" lon="-5.7710330879285054"><ele>971.6666666666667</ele><time>2026-03-25T14:38:44.983Z</time></trkpt><trkpt lat="30.852712726610864" lon="-5.770933358731142"><ele>971.5</ele><time>2026-03-25T14:38:45.983Z</time></trkpt><trkpt lat="30.852707274516092" lon="-5.7708229746417"><ele>971.3333333333334</ele><time>2026-03-25T14:38:46.983Z</time></trkpt><trkpt lat="30.852701776885947" lon="-5.7707153405968805"><ele>971.1666666666667</ele><time>2026-03-25T14:38:47.983Z</time></trkpt><trkpt lat="30.852701795229375" lon="-5.770625906345045"><ele>971.0</ele><time>2026-03-25T14:38:48.983Z</time></trkpt><trkpt lat="30.85271313201261" lon="-5.770521296048741"><ele>971.0000000000001</ele><time>2026-03-25T14:38:50.983Z</time></trkpt><trkpt lat="30.852758996050948" lon="-5.770655494403886"><ele>971.0</ele><time>2026-03-25T14:39:54.983Z</time></trkpt><trkpt lat="30.85278754991491" lon="-5.7705888550558395"><ele>971.0</ele><time>2026-03-25T14:46:35.982Z</time></trkpt><trkpt lat="30.852791124604128" lon="-5.770662489962228"><ele>971.0</ele><time>2026-03-25T14:47:05.978Z</time></trkpt><trkpt lat="30.8528042729942" lon="-5.770573299008075"><ele>971.0000000000001</ele><time>2026-03-25T14:52:03.976Z</time></trkpt><trkpt lat="30.85277682079597" lon="-5.770665879452895"><ele>971.0</ele><time>2026-03-25T14:55:19.976Z</time></trkpt><trkpt lat="30.85277924069046" lon="-5.770785804146144"><ele>971.0000000000001</ele><time>2026-03-25T14:55:21.976Z</time></trkpt><trkpt lat="30.85279183432544" lon="-5.770882140065306"><ele>971.0</ele><time>2026-03-25T14:55:23.976Z</time></trkpt><trkpt lat="30.852809040328086" lon="-5.771014562926294"><ele>971.0</ele><time>2026-03-25T14:55:25.976Z</time></trkpt><trkpt lat="30.85280686432031" lon="-5.771090458949047"><ele>971.0</ele><time>2026-03-25T14:55:26.976Z</time></trkpt><trkpt lat="30.852806522471642" lon="-5.771167369709192"><ele>971.0000000000001</ele><time>2026-03-25T14:55:27.976Z</time></trkpt><trkpt lat="30.852794022270366" lon="-5.771285845847222"><ele>971.0</ele><time>2026-03-25T14:55:29.976Z</time></trkpt><trkpt lat="30.85275882311385" lon="-5.7713488685174"><ele>971.0</ele><time>2026-03-25T14:55:30.976Z</time></trkpt><trkpt lat="30.852650234998354" lon="-5.771423529061407"><ele>970.9999999999999</ele><time>2026-03-25T14:55:32.976Z</time></trkpt><trkpt lat="30.852579997025895" lon="-5.771445550155021"><ele>970.9999999999999</ele><time>2026-03-25T14:55:33.976Z</time></trkpt><trkpt lat="30.852502709488963" lon="-5.771453267942864"><ele>971.0</ele><time>2026-03-25T14:55:34.976Z</time></trkpt><trkpt lat="30.852410689044305" lon="-5.771451685898726"><ele>971.0</ele><time>2026-03-25T14:55:35.976Z</time></trkpt><trkpt lat="30.852307569459438" lon="-5.771463209751278"><ele>971.25</ele><time>2026-03-25T14:55:36.976Z</time></trkpt><trkpt lat="30.852197142044552" lon="-5.771472730651531"><ele>971.5</ele><time>2026-03-25T14:55:37.976Z</time></trkpt><trkpt lat="30.852076752775652" lon="-5.771481476957063"><ele>971.75</ele><time>2026-03-25T14:55:38.976Z</time></trkpt><trkpt lat="30.851948247524227" lon="-5.771490064275507"><ele>972.0</ele><time>2026-03-25T14:55:39.976Z</time></trkpt><trkpt lat="30.85180913417325" lon="-5.771497924170071"><ele>971.25</ele><time>2026-03-25T14:55:40.976Z</time></trkpt><trkpt lat="30.851669553010638" lon="-5.771503539584583"><ele>970.5</ele><time>2026-03-25T14:55:41.976Z</time></trkpt><trkpt lat="30.8515295493004" lon="-5.771512208311739"><ele>969.75</ele><time>2026-03-25T14:55:42.976Z</time></trkpt><trkpt lat="30.85138620466783" lon="-5.7715290205063825"><ele>969.0</ele><time>2026-03-25T14:55:43.976Z</time></trkpt><trkpt lat="30.851226199042657" lon="-5.771549257452985"><ele>969.0</ele><time>2026-03-25T14:55:44.976Z</time></trkpt><trkpt lat="30.851072895621673" lon="-5.771564835979784"><ele>969.0</ele><time>2026-03-25T14:55:45.976Z</time></trkpt><trkpt lat="30.850918566230753" lon="-5.771585519234261"><ele>969.0</ele><time>2026-03-25T14:55:46.976Z</time></trkpt><trkpt lat="30.8507688576839" lon="-5.771595177180276"><ele>968.3333333333333</ele><time>2026-03-25T14:55:47.976Z</time></trkpt><trkpt lat="30.850616957749008" lon="-5.7716070623583065"><ele>967.6666666666666</ele><time>2026-03-25T14:55:48.976Z</time></trkpt><trkpt lat="30.850457276864773" lon="-5.771617789384332"><ele>967.0</ele><time>2026-03-25T14:55:49.976Z</time></trkpt><trkpt lat="30.850291024689255" lon="-5.7716305470560725"><ele>967.0</ele><time>2026-03-25T14:55:50.976Z</time></trkpt><trkpt lat="30.850128376039873" lon="-5.77164023062969"><ele>967.0</ele><time>2026-03-25T14:55:51.976Z</time></trkpt><trkpt lat="30.849966938878186" lon="-5.771652432861252"><ele>967.0</ele><time>2026-03-25T14:55:52.976Z</time></trkpt><trkpt lat="30.849807397899696" lon="-5.77165600376834"><ele>966.6666666666666</ele><time>2026-03-25T14:55:53.976Z</time></trkpt><trkpt lat="30.849652928210087" lon="-5.771663433558949"><ele>966.3333333333333</ele><time>2026-03-25T14:55:54.976Z</time></trkpt><trkpt lat="30.849500181641844" lon="-5.771654648114995"><ele>966.0</ele><time>2026-03-25T14:55:55.976Z</time></trkpt><trkpt lat="30.849335221649383" lon="-5.771614096160017"><ele>966.0</ele><time>2026-03-25T14:55:56.976Z</time></trkpt><trkpt lat="30.849165299333865" lon="-5.771574622200167"><ele>966.0</ele><time>2026-03-25T14:55:57.976Z</time></trkpt><trkpt lat="30.8490032979297" lon="-5.771537331572405"><ele>966.0</ele><time>2026-03-25T14:55:58.976Z</time></trkpt><trkpt lat="30.848849296545527" lon="-5.771502743877632"><ele>966.0</ele><time>2026-03-25T14:55:59.976Z</time></trkpt><trkpt lat="30.848703013073443" lon="-5.771469471884558"><ele>966.0</ele><time>2026-03-25T14:56:00.976Z</time></trkpt><trkpt lat="30.84858319848523" lon="-5.771386534457655"><ele>966.0</ele><time>2026-03-25T14:56:01.976Z</time></trkpt><trkpt lat="30.848443669177126" lon="-5.771367646058607"><ele>966.0</ele><time>2026-03-25T14:56:02.976Z</time></trkpt><trkpt lat="30.84828773006043" lon="-5.771347841825993"><ele>966.3333333333333</ele><time>2026-03-25T14:56:03.976Z</time></trkpt><trkpt lat="30.848116917442077" lon="-5.771335650505061"><ele>966.6666666666666</ele><time>2026-03-25T14:56:04.976Z</time></trkpt><trkpt lat="30.84795168481042" lon="-5.7713490619901"><ele>967.0</ele><time>2026-03-25T14:56:05.976Z</time></trkpt><trkpt lat="30.84777309722527" lon="-5.771356594914668"><ele>966.0</ele><time>2026-03-25T14:56:06.976Z</time></trkpt><trkpt lat="30.847578638407292" lon="-5.771340948385647"><ele>965.0</ele><time>2026-03-25T14:56:07.976Z</time></trkpt><trkpt lat="30.847380468886996" lon="-5.77132572642906"><ele>964.0</ele><time>2026-03-25T14:56:08.976Z</time></trkpt><trkpt lat="30.847193430883433" lon="-5.771310577288779"><ele>964.0</ele><time>2026-03-25T14:56:09.976Z</time></trkpt><trkpt lat="30.84700944276358" lon="-5.771305441699177"><ele>964.0</ele><time>2026-03-25T14:56:10.976Z</time></trkpt><trkpt lat="30.84682804345273" lon="-5.771302990490774"><ele>964.0</ele><time>2026-03-25T14:56:11.976Z</time></trkpt><trkpt lat="30.846658281280234" lon="-5.771300703766606"><ele>963.6666666666666</ele><time>2026-03-25T14:56:12.976Z</time></trkpt><trkpt lat="30.84649262990797" lon="-5.771298392349592"><ele>963.3333333333333</ele><time>2026-03-25T14:56:13.976Z</time></trkpt><trkpt lat="30.846333267827752" lon="-5.771361881523898"><ele>963.0</ele><time>2026-03-25T14:56:14.976Z</time></trkpt><trkpt lat="30.84619334170654" lon="-5.771363733049983"><ele>963.0</ele><time>2026-03-25T14:56:15.976Z</time></trkpt><trkpt lat="30.84605384156874" lon="-5.771364859700342"><ele>963.0</ele><time>2026-03-25T14:56:16.976Z</time></trkpt><trkpt lat="30.84591334747902" lon="-5.771367959566376"><ele>963.0</ele><time>2026-03-25T14:56:17.976Z</time></trkpt><trkpt lat="30.8457738932137" lon="-5.771368146663524"><ele>963.0</ele><time>2026-03-25T14:56:18.976Z</time></trkpt><trkpt lat="30.84564025189868" lon="-5.771361490663741"><ele>962.8</ele><time>2026-03-25T14:56:19.976Z</time></trkpt><trkpt lat="30.845515959106997" lon="-5.7713593169522195"><ele>962.5999999999999</ele><time>2026-03-25T14:56:20.976Z</time></trkpt><trkpt lat="30.845394054667377" lon="-5.771368096418384"><ele>962.4000000000001</ele><time>2026-03-25T14:56:21.976Z</time></trkpt><trkpt lat="30.84529177465959" lon="-5.771375419155687"><ele>962.2</ele><time>2026-03-25T14:56:22.976Z</time></trkpt><trkpt lat="30.845212563299153" lon="-5.771373180162755"><ele>962.0</ele><time>2026-03-25T14:56:23.976Z</time></trkpt><trkpt lat="30.84510933925522" lon="-5.771390878209059"><ele>962.0000000000001</ele><time>2026-03-25T14:56:25.976Z</time></trkpt><trkpt lat="30.845027844163436" lon="-5.7714662749147045"><ele>962.0</ele><time>2026-03-25T14:56:27.976Z</time></trkpt><trkpt lat="30.845035593977773" lon="-5.771539469004158"><ele>962.0</ele><time>2026-03-25T14:56:29.976Z</time></trkpt><trkpt lat="30.845105030946183" lon="-5.771562485463151"><ele>962.0</ele><time>2026-03-25T14:56:33.976Z</time></trkpt><trkpt lat="30.84519572468445" lon="-5.771554675538462"><ele>962.0000000000001</ele><time>2026-03-25T14:56:43.976Z</time></trkpt><trkpt lat="30.845242745968534" lon="-5.771632315742182"><ele>962.0</ele><time>2026-03-25T14:56:45.976Z</time></trkpt><trkpt lat="30.845281557885137" lon="-5.77173614221885"><ele>962.1666666666667</ele><time>2026-03-25T14:56:47.976Z</time></trkpt><trkpt lat="30.845308369141232" lon="-5.771872437966102"><ele>962.3333333333334</ele><time>2026-03-25T14:56:49.976Z</time></trkpt><trkpt lat="30.845322595754947" lon="-5.771950415767378"><ele>962.5</ele><time>2026-03-25T14:56:50.976Z</time></trkpt><trkpt lat="30.845342543211572" lon="-5.772033100020078"><ele>962.6666666666667</ele><time>2026-03-25T14:56:51.976Z</time></trkpt><trkpt lat="30.845372804365322" lon="-5.772119629191779"><ele>962.8333333333334</ele><time>2026-03-25T14:56:52.976Z</time></trkpt><trkpt lat="30.84540362305458" lon="-5.772213477493822"><ele>963.0</ele><time>2026-03-25T14:56:53.976Z</time></trkpt><trkpt lat="30.845442791899778" lon="-5.772313061238027"><ele>963.0</ele><time>2026-03-25T14:56:54.976Z</time></trkpt><trkpt lat="30.845494223482344" lon="-5.772422997501039"><ele>963.0</ele><time>2026-03-25T14:56:55.976Z</time></trkpt><trkpt lat="30.845553501484723" lon="-5.772552112785031"><ele>963.0</ele><time>2026-03-25T14:56:56.976Z</time></trkpt><trkpt lat="30.845608826504705" lon="-5.772697165944578"><ele>963.0</ele><time>2026-03-25T14:56:57.976Z</time></trkpt><trkpt lat="30.84566698081627" lon="-5.772844563523183"><ele>963.6666666666667</ele><time>2026-03-25T14:56:58.976Z</time></trkpt><trkpt lat="30.84574472214399" lon="-5.77299055158492"><ele>964.3333333333334</ele><time>2026-03-25T14:56:59.976Z</time></trkpt><trkpt lat="30.845820290409776" lon="-5.773158080778251"><ele>965.0</ele><time>2026-03-25T14:57:00.976Z</time></trkpt><trkpt lat="30.84588735803318" lon="-5.77333325509078"><ele>965.0</ele><time>2026-03-25T14:57:01.976Z</time></trkpt><trkpt lat="30.84595708958107" lon="-5.773506832974228"><ele>965.0</ele><time>2026-03-25T14:57:02.976Z</time></trkpt><trkpt lat="30.84601937059187" lon="-5.773668431777614"><ele>965.0</ele><time>2026-03-25T14:57:03.975Z</time></trkpt><trkpt lat="30.846076728341693" lon="-5.773839093161263"><ele>965.0</ele><time>2026-03-25T14:57:04.975Z</time></trkpt><trkpt lat="30.846135088966914" lon="-5.774021186803243"><ele>965.0</ele><time>2026-03-25T14:57:05.976Z</time></trkpt><trkpt lat="30.84620052521849" lon="-5.774199358090075"><ele>965.0</ele><time>2026-03-25T14:57:06.975Z</time></trkpt><trkpt lat="30.846265228410278" lon="-5.774373837448604"><ele>965.0</ele><time>2026-03-25T14:57:07.975Z</time></trkpt><trkpt lat="30.84631831207306" lon="-5.774545362701801"><ele>965.0</ele><time>2026-03-25T14:57:08.975Z</time></trkpt><trkpt lat="30.846373888154886" lon="-5.774718418890976"><ele>965.0</ele><time>2026-03-25T14:57:09.975Z</time></trkpt><trkpt lat="30.846428538797177" lon="-5.774888659204906"><ele>965.0</ele><time>2026-03-25T14:57:10.975Z</time></trkpt><trkpt lat="30.846494613227392" lon="-5.77504410905457"><ele>965.0</ele><time>2026-03-25T14:57:11.975Z</time></trkpt><trkpt lat="30.84656723619305" lon="-5.775192696508914"><ele>965.0</ele><time>2026-03-25T14:57:12.975Z</time></trkpt><trkpt lat="30.846634742173162" lon="-5.775331717065339"><ele>965.0</ele><time>2026-03-25T14:57:13.975Z</time></trkpt><trkpt lat="30.846698057841515" lon="-5.7754703565488885"><ele>965.0</ele><time>2026-03-25T14:57:14.975Z</time></trkpt><trkpt lat="30.84674295848625" lon="-5.775618792706697"><ele>965.0</ele><time>2026-03-25T14:57:15.975Z</time></trkpt><trkpt lat="30.846778997666874" lon="-5.7757581538190506"><ele>965.0</ele><time>2026-03-25T14:57:16.975Z</time></trkpt><trkpt lat="30.846812127221735" lon="-5.775882917745557"><ele>965.0</ele><time>2026-03-25T14:57:17.975Z</time></trkpt><trkpt lat="30.846864279897872" lon="-5.775987394575609"><ele>964.8</ele><time>2026-03-25T14:57:18.975Z</time></trkpt><trkpt lat="30.846937328237704" lon="-5.776067280046906"><ele>964.6</ele><time>2026-03-25T14:57:19.975Z</time></trkpt><trkpt lat="30.847021434697087" lon="-5.776126682262632"><ele>964.4000000000001</ele><time>2026-03-25T14:57:20.975Z</time></trkpt><trkpt lat="30.84711613733821" lon="-5.776183100437517"><ele>964.2</ele><time>2026-03-25T14:57:21.975Z</time></trkpt><trkpt lat="30.847227847041122" lon="-5.7762353306885075"><ele>964.0</ele><time>2026-03-25T14:57:22.975Z</time></trkpt><trkpt lat="30.847349442233103" lon="-5.776311318248835"><ele>964.0</ele><time>2026-03-25T14:57:23.975Z</time></trkpt><trkpt lat="30.847470607948196" lon="-5.776393363216181"><ele>964.0</ele><time>2026-03-25T14:57:24.975Z</time></trkpt><trkpt lat="30.847577140938775" lon="-5.776469791812147"><ele>964.0</ele><time>2026-03-25T14:57:25.975Z</time></trkpt><trkpt lat="30.84768249448383" lon="-5.776559580229519"><ele>964.0</ele><time>2026-03-25T14:57:26.975Z</time></trkpt><trkpt lat="30.84777690062744" lon="-5.776679752746174"><ele>964.5</ele><time>2026-03-25T14:57:27.975Z</time></trkpt><trkpt lat="30.847866772386457" lon="-5.776796179727143"><ele>965.0</ele><time>2026-03-25T14:57:28.975Z</time></trkpt><trkpt lat="30.84793932655339" lon="-5.776896758485186"><ele>965.5</ele><time>2026-03-25T14:57:29.975Z</time></trkpt><trkpt lat="30.848011159561718" lon="-5.777011575453476"><ele>966.0</ele><time>2026-03-25T14:57:30.975Z</time></trkpt><trkpt lat="30.84807536909438" lon="-5.77712063808608"><ele>966.5999999999999</ele><time>2026-03-25T14:57:31.975Z</time></trkpt><trkpt lat="30.848137422879777" lon="-5.777234676944984"><ele>967.1999999999999</ele><time>2026-03-25T14:57:32.975Z</time></trkpt><trkpt lat="30.848206531219" lon="-5.777338009339133"><ele>967.8000000000001</ele><time>2026-03-25T14:57:33.975Z</time></trkpt><trkpt lat="30.84828676161966" lon="-5.777436456252011"><ele>968.4000000000001</ele><time>2026-03-25T14:57:34.975Z</time></trkpt><trkpt lat="30.848364215620364" lon="-5.777515871902054"><ele>969.0</ele><time>2026-03-25T14:57:35.975Z</time></trkpt><trkpt lat="30.84844946793657" lon="-5.7775902898237534"><ele>969.25</ele><time>2026-03-25T14:57:36.975Z</time></trkpt><trkpt lat="30.848543231718285" lon="-5.777660406785692"><ele>969.5</ele><time>2026-03-25T14:57:37.975Z</time></trkpt><trkpt lat="30.848648061886248" lon="-5.777725607257895"><ele>969.75</ele><time>2026-03-25T14:57:38.975Z</time></trkpt><trkpt lat="30.848742952949106" lon="-5.777789199905422"><ele>970.0</ele><time>2026-03-25T14:57:39.975Z</time></trkpt><trkpt lat="30.84885512951959" lon="-5.777842735557653"><ele>970.0</ele><time>2026-03-25T14:57:40.975Z</time></trkpt><trkpt lat="30.848958973922635" lon="-5.777909509197031"><ele>970.0</ele><time>2026-03-25T14:57:41.975Z</time></trkpt><trkpt lat="30.84905728620857" lon="-5.777984797996117"><ele>970.0</ele><time>2026-03-25T14:57:42.975Z</time></trkpt><trkpt lat="30.849146554480583" lon="-5.778056910420278"><ele>970.0</ele><time>2026-03-25T14:57:43.975Z</time></trkpt><trkpt lat="30.849223847498923" lon="-5.778123659440134"><ele>970.0</ele><time>2026-03-25T14:57:44.975Z</time></trkpt><trkpt lat="30.849288352854163" lon="-5.778187804263273"><ele>969.9999999999999</ele><time>2026-03-25T14:57:45.975Z</time></trkpt><trkpt lat="30.849339977324295" lon="-5.778250868306356"><ele>970.0</ele><time>2026-03-25T14:57:46.975Z</time></trkpt><trkpt lat="30.8494056485709" lon="-5.778296882094065"><ele>970.0</ele><time>2026-03-25T14:57:47.975Z</time></trkpt><trkpt lat="30.849480565207237" lon="-5.7782776629163495"><ele>970.0</ele><time>2026-03-25T14:57:48.975Z</time></trkpt><trkpt lat="30.849576272605614" lon="-5.77826649757143"><ele>969.9999999999999</ele><time>2026-03-25T14:57:49.975Z</time></trkpt><trkpt lat="30.84965865878342" lon="-5.778274353102027"><ele>970.0</ele><time>2026-03-25T14:57:50.975Z</time></trkpt><trkpt lat="30.84969720249188" lon="-5.778340831971117"><ele>970.0</ele><time>2026-03-25T14:57:51.975Z</time></trkpt><trkpt lat="30.84973047192885" lon="-5.77845143704731"><ele>970.0</ele><time>2026-03-25T14:57:52.975Z</time></trkpt><trkpt lat="30.84975117729037" lon="-5.778603049447743"><ele>970.0</ele><time>2026-03-25T14:57:53.975Z</time></trkpt><trkpt lat="30.84979600751101" lon="-5.77876342959197"><ele>970.0</ele><time>2026-03-25T14:57:54.975Z</time></trkpt><trkpt lat="30.849864209652356" lon="-5.778901002378782"><ele>970.25</ele><time>2026-03-25T14:57:55.975Z</time></trkpt><trkpt lat="30.84994620717456" lon="-5.779018684836022"><ele>970.5</ele><time>2026-03-25T14:57:56.975Z</time></trkpt><trkpt lat="30.850021327998775" lon="-5.7791382165863245"><ele>970.75</ele><time>2026-03-25T14:57:57.975Z</time></trkpt><trkpt lat="30.850069800428724" lon="-5.77927375262938"><ele>971.0</ele><time>2026-03-25T14:57:58.975Z</time></trkpt><trkpt lat="30.850102595196837" lon="-5.779432248616685"><ele>972.0</ele><time>2026-03-25T14:57:59.975Z</time></trkpt><trkpt lat="30.850137404919753" lon="-5.7796129639430935"><ele>973.0</ele><time>2026-03-25T14:58:00.975Z</time></trkpt><trkpt lat="30.850174688981784" lon="-5.779791865206154"><ele>974.0</ele><time>2026-03-25T14:58:01.975Z</time></trkpt><trkpt lat="30.850207556957052" lon="-5.779958395157575"><ele>974.0</ele><time>2026-03-25T14:58:02.975Z</time></trkpt><trkpt lat="30.850236214780427" lon="-5.780123353535325"><ele>974.0</ele><time>2026-03-25T14:58:03.975Z</time></trkpt><trkpt lat="30.85026998812841" lon="-5.780296977524184"><ele>974.0</ele><time>2026-03-25T14:58:04.975Z</time></trkpt><trkpt lat="30.850303700833436" lon="-5.780461010091089"><ele>974.0</ele><time>2026-03-25T14:58:05.975Z</time></trkpt><trkpt lat="30.85034138553116" lon="-5.78060983847799"><ele>974.0</ele><time>2026-03-25T14:58:06.975Z</time></trkpt><trkpt lat="30.85039834525697" lon="-5.780740843313153"><ele>974.0</ele><time>2026-03-25T14:58:07.975Z</time></trkpt><trkpt lat="30.85047861387914" lon="-5.7808650631417"><ele>974.0</ele><time>2026-03-25T14:58:08.975Z</time></trkpt><trkpt lat="30.850561054452076" lon="-5.780984043701976"><ele>974.0</ele><time>2026-03-25T14:58:09.975Z</time></trkpt><trkpt lat="30.850636141070506" lon="-5.781091054666386"><ele>974.0</ele><time>2026-03-25T14:58:10.975Z</time></trkpt><trkpt lat="30.850699164373463" lon="-5.781191480538128"><ele>974.0</ele><time>2026-03-25T14:58:11.975Z</time></trkpt><trkpt lat="30.850766569436175" lon="-5.781308208256766"><ele>974.0</ele><time>2026-03-25T14:58:12.975Z</time></trkpt><trkpt lat="30.850835674163243" lon="-5.781442886567557"><ele>974.0</ele><time>2026-03-25T14:58:13.975Z</time></trkpt><trkpt lat="30.85088491157276" lon="-5.781584824688291"><ele>974.0</ele><time>2026-03-25T14:58:14.975Z</time></trkpt><trkpt lat="30.850924781106983" lon="-5.78174259529904"><ele>974.0</ele><time>2026-03-25T14:58:15.975Z</time></trkpt><trkpt lat="30.85096075749358" lon="-5.78189317253913"><ele>974.0</ele><time>2026-03-25T14:58:16.975Z</time></trkpt><trkpt lat="30.851003526306634" lon="-5.782026928720964"><ele>974.0</ele><time>2026-03-25T14:58:17.975Z</time></trkpt><trkpt lat="30.851060426669275" lon="-5.782150271098865"><ele>973.8000000000001</ele><time>2026-03-25T14:58:18.975Z</time></trkpt><trkpt lat="30.851096576779696" lon="-5.782270094030393"><ele>973.6000000000001</ele><time>2026-03-25T14:58:19.975Z</time></trkpt><trkpt lat="30.851110626157322" lon="-5.782386941755967"><ele>973.4</ele><time>2026-03-25T14:58:20.975Z</time></trkpt><trkpt lat="30.8511086542463" lon="-5.782496413418637"><ele>973.2</ele><time>2026-03-25T14:58:21.975Z</time></trkpt><trkpt lat="30.851119745985493" lon="-5.782607454513299"><ele>973.0</ele><time>2026-03-25T14:58:22.975Z</time></trkpt><trkpt lat="30.851143739121543" lon="-5.782706822236204"><ele>973.0</ele><time>2026-03-25T14:58:23.975Z</time></trkpt><trkpt lat="30.85118143516448" lon="-5.782817494682914"><ele>973.0</ele><time>2026-03-25T14:58:24.975Z</time></trkpt><trkpt lat="30.85122099409483" lon="-5.782937886503296"><ele>973.0</ele><time>2026-03-25T14:58:25.975Z</time></trkpt><trkpt lat="30.851253288592122" lon="-5.783050929450416"><ele>973.0</ele><time>2026-03-25T14:58:26.975Z</time></trkpt><trkpt lat="30.851276738906893" lon="-5.783149770365008"><ele>973.0</ele><time>2026-03-25T14:58:27.975Z</time></trkpt><trkpt lat="30.85130213923482" lon="-5.783244779248384"><ele>972.9999999999999</ele><time>2026-03-25T14:58:28.975Z</time></trkpt><trkpt lat="30.85131839801697" lon="-5.783327009877367"><ele>973.0</ele><time>2026-03-25T14:58:29.975Z</time></trkpt><trkpt lat="30.851332039688515" lon="-5.783413065788368"><ele>973.0</ele><time>2026-03-25T14:58:30.975Z</time></trkpt><trkpt lat="30.8513349631427" lon="-5.783504134216837"><ele>973.0</ele><time>2026-03-25T14:58:31.975Z</time></trkpt><trkpt lat="30.85131821616661" lon="-5.783584023551919"><ele>972.9999999999999</ele><time>2026-03-25T14:58:32.975Z</time></trkpt><trkpt lat="30.851289754241428" lon="-5.783654086696764"><ele>973.0</ele><time>2026-03-25T14:58:33.975Z</time></trkpt><trkpt lat="30.85122852209091" lon="-5.783746370086669"><ele>973.0</ele><time>2026-03-25T14:58:35.975Z</time></trkpt><trkpt lat="30.851186645189685" lon="-5.783828118052388"><ele>973.0</ele><time>2026-03-25T14:58:38.975Z</time></trkpt><trkpt lat="30.851166628498877" lon="-5.783902953240107"><ele>973.0</ele><time>2026-03-25T14:58:40.975Z</time></trkpt><trkpt lat="30.85112291621072" lon="-5.784010756707334"><ele>973.0</ele><time>2026-03-25T14:58:42.975Z</time></trkpt><trkpt lat="30.85108721537223" lon="-5.7841527628078655"><ele>973.0</ele><time>2026-03-25T14:58:44.975Z</time></trkpt><trkpt lat="30.85107246092644" lon="-5.7842390932110925"><ele>972.9999999999999</ele><time>2026-03-25T14:58:45.975Z</time></trkpt><trkpt lat="30.85105701167925" lon="-5.78432275586427"><ele>973.0</ele><time>2026-03-25T14:58:46.975Z</time></trkpt><trkpt lat="30.851038680223393" lon="-5.78441199241719"><ele>973.0</ele><time>2026-03-25T14:58:47.975Z</time></trkpt><trkpt lat="30.851030071794753" lon="-5.784512782797488"><ele>973.0</ele><time>2026-03-25T14:58:48.975Z</time></trkpt><trkpt lat="30.85102860047139" lon="-5.7846173289483644"><ele>972.9999999999999</ele><time>2026-03-25T14:58:49.975Z</time></trkpt><trkpt lat="30.85103105900242" lon="-5.7847230648770465"><ele>973.0</ele><time>2026-03-25T14:58:50.975Z</time></trkpt><trkpt lat="30.85104204324328" lon="-5.784812936994982"><ele>972.9999999999999</ele><time>2026-03-25T14:58:51.975Z</time></trkpt><trkpt lat="30.851061500233715" lon="-5.7849101631720945"><ele>973.0</ele><time>2026-03-25T14:58:52.975Z</time></trkpt><trkpt lat="30.851078799114735" lon="-5.785001337909991"><ele>973.0</ele><time>2026-03-25T14:58:53.975Z</time></trkpt><trkpt lat="30.85109960973638" lon="-5.785091162083661"><ele>973.0</ele><time>2026-03-25T14:58:54.975Z</time></trkpt><trkpt lat="30.851125919839077" lon="-5.785184724246278"><ele>972.9999999999999</ele><time>2026-03-25T14:58:55.975Z</time></trkpt><trkpt lat="30.85115343891058" lon="-5.78528675383982"><ele>973.0</ele><time>2026-03-25T14:58:56.975Z</time></trkpt><trkpt lat="30.85118352580879" lon="-5.785387987813976"><ele>973.0</ele><time>2026-03-25T14:58:57.975Z</time></trkpt><trkpt lat="30.851220643902938" lon="-5.785503884124086"><ele>973.0</ele><time>2026-03-25T14:58:58.975Z</time></trkpt><trkpt lat="30.8512625944286" lon="-5.785618450752094"><ele>973.0</ele><time>2026-03-25T14:58:59.976Z</time></trkpt><trkpt lat="30.851320547999354" lon="-5.785745035415996"><ele>973.0</ele><time>2026-03-25T14:59:00.975Z</time></trkpt><trkpt lat="30.851373025008428" lon="-5.785859951254152"><ele>973.0</ele><time>2026-03-25T14:59:01.975Z</time></trkpt><trkpt lat="30.851423439373864" lon="-5.785969857856304"><ele>973.0</ele><time>2026-03-25T14:59:02.976Z</time></trkpt><trkpt lat="30.85147387959166" lon="-5.786090886358423"><ele>973.0</ele><time>2026-03-25T14:59:03.975Z</time></trkpt><trkpt lat="30.85152536553834" lon="-5.7862104057742485"><ele>973.0</ele><time>2026-03-25T14:59:04.975Z</time></trkpt><trkpt lat="30.851578088327503" lon="-5.78632730903741"><ele>973.0</ele><time>2026-03-25T14:59:05.976Z</time></trkpt><trkpt lat="30.851619375218124" lon="-5.7864375562283135"><ele>973.0</ele><time>2026-03-25T14:59:06.975Z</time></trkpt><trkpt lat="30.851655138676115" lon="-5.786546957294622"><ele>973.0</ele><time>2026-03-25T14:59:07.975Z</time></trkpt><trkpt lat="30.851689785689608" lon="-5.786664692035852"><ele>973.0</ele><time>2026-03-25T14:59:08.975Z</time></trkpt><trkpt lat="30.85171013876556" lon="-5.786796199088146"><ele>973.0</ele><time>2026-03-25T14:59:09.976Z</time></trkpt><trkpt lat="30.85172005567911" lon="-5.786924407975611"><ele>973.0</ele><time>2026-03-25T14:59:10.976Z</time></trkpt><trkpt lat="30.851732361975017" lon="-5.787040125747894"><ele>973.0</ele><time>2026-03-25T14:59:11.976Z</time></trkpt><trkpt lat="30.85174267155708" lon="-5.7871457208985655"><ele>973.5</ele><time>2026-03-25T14:59:12.976Z</time></trkpt><trkpt lat="30.851757135759634" lon="-5.7872593647704464"><ele>974.0</ele><time>2026-03-25T14:59:13.976Z</time></trkpt><trkpt lat="30.85176897387998" lon="-5.787395723155679"><ele>974.5</ele><time>2026-03-25T14:59:14.976Z</time></trkpt><trkpt lat="30.85177823085982" lon="-5.787538825423352"><ele>975.0</ele><time>2026-03-25T14:59:15.976Z</time></trkpt><trkpt lat="30.851790893610954" lon="-5.787670582393258"><ele>974.8</ele><time>2026-03-25T14:59:16.976Z</time></trkpt><trkpt lat="30.85179881551376" lon="-5.787791120765914"><ele>974.6</ele><time>2026-03-25T14:59:17.976Z</time></trkpt><trkpt lat="30.851814400683143" lon="-5.7879136535927564"><ele>974.4000000000001</ele><time>2026-03-25T14:59:18.976Z</time></trkpt><trkpt lat="30.851827949158785" lon="-5.788029058445174"><ele>974.2</ele><time>2026-03-25T14:59:19.976Z</time></trkpt><trkpt lat="30.851836154476448" lon="-5.7881409031196975"><ele>974.0</ele><time>2026-03-25T14:59:20.976Z</time></trkpt><trkpt lat="30.851844684187828" lon="-5.788257214525313"><ele>974.0</ele><time>2026-03-25T14:59:21.976Z</time></trkpt><trkpt lat="30.851856298560616" lon="-5.788369468502514"><ele>974.0000000000001</ele><time>2026-03-25T14:59:22.976Z</time></trkpt><trkpt lat="30.85187240917974" lon="-5.788476612816166"><ele>974.0000000000001</ele><time>2026-03-25T14:59:23.976Z</time></trkpt><trkpt lat="30.851890776450745" lon="-5.78858494851872"><ele>974.0</ele><time>2026-03-25T14:59:24.976Z</time></trkpt><trkpt lat="30.851904894382454" lon="-5.788690146786032"><ele>974.0</ele><time>2026-03-25T14:59:25.976Z</time></trkpt><trkpt lat="30.851917097767412" lon="-5.7887843182079175"><ele>973.8333333333334</ele><time>2026-03-25T14:59:26.976Z</time></trkpt><trkpt lat="30.851931738132837" lon="-5.788882546505595"><ele>973.6666666666667</ele><time>2026-03-25T14:59:27.976Z</time></trkpt><trkpt lat="30.851946448637364" lon="-5.788984394899415"><ele>973.5</ele><time>2026-03-25T14:59:28.976Z</time></trkpt><trkpt lat="30.851952913912704" lon="-5.78908173209209"><ele>973.3333333333333</ele><time>2026-03-25T14:59:29.976Z</time></trkpt><trkpt lat="30.851968681125822" lon="-5.789181914936076"><ele>973.1666666666666</ele><time>2026-03-25T14:59:30.976Z</time></trkpt><trkpt lat="30.851980231821063" lon="-5.7892725003201155"><ele>973.0</ele><time>2026-03-25T14:59:31.976Z</time></trkpt><trkpt lat="30.851991626134065" lon="-5.789360067035841"><ele>973.8333333333333</ele><time>2026-03-25T14:59:32.976Z</time></trkpt><trkpt lat="30.852002075658657" lon="-5.789456697337448"><ele>974.6666666666666</ele><time>2026-03-25T14:59:33.976Z</time></trkpt><trkpt lat="30.8519980077509" lon="-5.789554788259348"><ele>975.5</ele><time>2026-03-25T14:59:34.976Z</time></trkpt><trkpt lat="30.851997887500175" lon="-5.789661997200765"><ele>976.3333333333333</ele><time>2026-03-25T14:59:35.976Z</time></trkpt><trkpt lat="30.851998680390263" lon="-5.789768634367361"><ele>977.1666666666666</ele><time>2026-03-25T14:59:36.976Z</time></trkpt><trkpt lat="30.851996709602982" lon="-5.789873737171749"><ele>978.0</ele><time>2026-03-25T14:59:37.976Z</time></trkpt><trkpt lat="30.85199982818752" lon="-5.789988213544579"><ele>978.0</ele><time>2026-03-25T14:59:38.976Z</time></trkpt><trkpt lat="30.85198634596912" lon="-5.790101592089903"><ele>978.0</ele><time>2026-03-25T14:59:39.976Z</time></trkpt><trkpt lat="30.851969947181196" lon="-5.790217471052503"><ele>978.0</ele><time>2026-03-25T14:59:40.976Z</time></trkpt><trkpt lat="30.851952853732964" lon="-5.790336703849965"><ele>978.0</ele><time>2026-03-25T14:59:41.976Z</time></trkpt><trkpt lat="30.851925548295377" lon="-5.790456300145892"><ele>978.0</ele><time>2026-03-25T14:59:42.976Z</time></trkpt><trkpt lat="30.85189058067001" lon="-5.7905799007417595"><ele>978.5999999999999</ele><time>2026-03-25T14:59:43.976Z</time></trkpt><trkpt lat="30.851853161789304" lon="-5.79070541518784"><ele>979.1999999999999</ele><time>2026-03-25T14:59:44.976Z</time></trkpt><trkpt lat="30.85182675498653" lon="-5.79083071664203"><ele>979.8</ele><time>2026-03-25T14:59:45.976Z</time></trkpt><trkpt lat="30.851801235090935" lon="-5.790956542357731"><ele>980.4</ele><time>2026-03-25T14:59:46.976Z</time></trkpt><trkpt lat="30.851776386756406" lon="-5.791077778990499"><ele>981.0</ele><time>2026-03-25T14:59:47.976Z</time></trkpt><trkpt lat="30.851748431610755" lon="-5.791179735525811"><ele>981.0</ele><time>2026-03-25T14:59:48.976Z</time></trkpt><trkpt lat="30.851727901752724" lon="-5.791268484010615"><ele>981.0</ele><time>2026-03-25T14:59:49.976Z</time></trkpt><trkpt lat="30.851712518885638" lon="-5.791358430973711"><ele>981.0</ele><time>2026-03-25T14:59:50.976Z</time></trkpt><trkpt lat="30.85169608304521" lon="-5.791458033463748"><ele>981.0</ele><time>2026-03-25T14:59:51.976Z</time></trkpt><trkpt lat="30.851677067594615" lon="-5.7915498331631445"><ele>981.0</ele><time>2026-03-25T14:59:52.976Z</time></trkpt><trkpt lat="30.851664577076164" lon="-5.791653837008728"><ele>981.0</ele><time>2026-03-25T14:59:53.976Z</time></trkpt><trkpt lat="30.851644188854067" lon="-5.791770701840543"><ele>980.4</ele><time>2026-03-25T14:59:54.976Z</time></trkpt><trkpt lat="30.85161582914436" lon="-5.791880897430874"><ele>979.8</ele><time>2026-03-25T14:59:55.976Z</time></trkpt><trkpt lat="30.851592211970342" lon="-5.7920091597993935"><ele>979.1999999999999</ele><time>2026-03-25T14:59:56.976Z</time></trkpt><trkpt lat="30.851577405231943" lon="-5.792136268096858"><ele>978.5999999999999</ele><time>2026-03-25T14:59:57.976Z</time></trkpt><trkpt lat="30.851573881513332" lon="-5.792243317336821"><ele>978.0</ele><time>2026-03-25T14:59:58.976Z</time></trkpt><trkpt lat="30.851578894873203" lon="-5.792339062677508"><ele>978.0</ele><time>2026-03-25T14:59:59.976Z</time></trkpt><trkpt lat="30.851604182118532" lon="-5.792440671999764"><ele>978.0</ele><time>2026-03-25T15:00:00.976Z</time></trkpt><trkpt lat="30.851643935728166" lon="-5.792539053646079"><ele>978.0</ele><time>2026-03-25T15:00:01.976Z</time></trkpt><trkpt lat="30.851692583821684" lon="-5.792634853942443"><ele>978.0</ele><time>2026-03-25T15:00:02.976Z</time></trkpt><trkpt lat="30.85176121003301" lon="-5.792734958634991"><ele>978.0</ele><time>2026-03-25T15:00:03.976Z</time></trkpt><trkpt lat="30.851830200329932" lon="-5.792842525855643"><ele>978.0</ele><time>2026-03-25T15:00:04.976Z</time></trkpt><trkpt lat="30.851897938970424" lon="-5.7929620758485365"><ele>978.0</ele><time>2026-03-25T15:00:05.976Z</time></trkpt><trkpt lat="30.851957453674643" lon="-5.793084369950271"><ele>978.0</ele><time>2026-03-25T15:00:06.976Z</time></trkpt><trkpt lat="30.852012065066567" lon="-5.793202327941174"><ele>978.0</ele><time>2026-03-25T15:00:07.976Z</time></trkpt><trkpt lat="30.852080167673222" lon="-5.793321939518567"><ele>978.0</ele><time>2026-03-25T15:00:08.976Z</time></trkpt><trkpt lat="30.852149095117063" lon="-5.793453786543361"><ele>978.0</ele><time>2026-03-25T15:00:09.976Z</time></trkpt><trkpt lat="30.85222431256639" lon="-5.7935742096822"><ele>978.0</ele><time>2026-03-25T15:00:10.976Z</time></trkpt><trkpt lat="30.85229430514167" lon="-5.793698817271808"><ele>978.0</ele><time>2026-03-25T15:00:11.976Z</time></trkpt><trkpt lat="30.852370436225947" lon="-5.793817263665564"><ele>978.25</ele><time>2026-03-25T15:00:12.976Z</time></trkpt><trkpt lat="30.852443369869597" lon="-5.793935291993678"><ele>978.5</ele><time>2026-03-25T15:00:13.976Z</time></trkpt><trkpt lat="30.852518297917587" lon="-5.794053147111799"><ele>978.75</ele><time>2026-03-25T15:00:14.976Z</time></trkpt><trkpt lat="30.852594848188634" lon="-5.794182750681378"><ele>979.0</ele><time>2026-03-25T15:00:15.976Z</time></trkpt><trkpt lat="30.852673244088614" lon="-5.794315409124473"><ele>980.0</ele><time>2026-03-25T15:00:16.976Z</time></trkpt><trkpt lat="30.85276588953397" lon="-5.794446775367216"><ele>981.0</ele><time>2026-03-25T15:00:17.976Z</time></trkpt><trkpt lat="30.85286040511903" lon="-5.7945727956490165"><ele>982.0</ele><time>2026-03-25T15:00:18.976Z</time></trkpt><trkpt lat="30.852955586511708" lon="-5.794712031310331"><ele>983.0</ele><time>2026-03-25T15:00:19.976Z</time></trkpt><trkpt lat="30.85304887063042" lon="-5.794846898494678"><ele>983.0</ele><time>2026-03-25T15:00:20.976Z</time></trkpt><trkpt lat="30.853151716803065" lon="-5.794966946420181"><ele>983.0</ele><time>2026-03-25T15:00:21.976Z</time></trkpt><trkpt lat="30.85323815200589" lon="-5.795078902402409"><ele>983.0</ele><time>2026-03-25T15:00:22.976Z</time></trkpt><trkpt lat="30.8533278019249" lon="-5.795180035238901"><ele>983.0</ele><time>2026-03-25T15:00:23.976Z</time></trkpt><trkpt lat="30.85341044623161" lon="-5.795283127632906"><ele>983.0</ele><time>2026-03-25T15:00:24.976Z</time></trkpt><trkpt lat="30.853497911723913" lon="-5.795378374276549"><ele>983.0</ele><time>2026-03-25T15:00:25.976Z</time></trkpt><trkpt lat="30.853587160014463" lon="-5.795476164447418"><ele>983.0</ele><time>2026-03-25T15:00:26.976Z</time></trkpt><trkpt lat="30.853672292040038" lon="-5.795584932549453"><ele>983.0</ele><time>2026-03-25T15:00:27.976Z</time></trkpt><trkpt lat="30.853762750625936" lon="-5.795693711394257"><ele>983.0</ele><time>2026-03-25T15:00:28.976Z</time></trkpt><trkpt lat="30.85384077079608" lon="-5.795787402444619"><ele>983.0</ele><time>2026-03-25T15:00:29.976Z</time></trkpt><trkpt lat="30.853922961347912" lon="-5.795881825913742"><ele>983.0</ele><time>2026-03-25T15:00:30.976Z</time></trkpt><trkpt lat="30.853991528569182" lon="-5.795989369740365"><ele>983.0</ele><time>2026-03-25T15:00:31.976Z</time></trkpt><trkpt lat="30.85406467471092" lon="-5.7961026932132285"><ele>983.0</ele><time>2026-03-25T15:00:32.976Z</time></trkpt><trkpt lat="30.854128985783372" lon="-5.7962244589391405"><ele>983.0</ele><time>2026-03-25T15:00:33.976Z</time></trkpt><trkpt lat="30.85417351843175" lon="-5.79635412066949"><ele>983.0</ele><time>2026-03-25T15:00:34.976Z</time></trkpt><trkpt lat="30.854200312195374" lon="-5.796492559142829"><ele>983.0</ele><time>2026-03-25T15:00:35.976Z</time></trkpt><trkpt lat="30.854231974421946" lon="-5.796634985062185"><ele>983.0</ele><time>2026-03-25T15:00:36.976Z</time></trkpt><trkpt lat="30.85426650729038" lon="-5.79676597216546"><ele>983.0</ele><time>2026-03-25T15:00:37.976Z</time></trkpt><trkpt lat="30.85428830119934" lon="-5.796895612106808"><ele>983.0</ele><time>2026-03-25T15:00:38.976Z</time></trkpt><trkpt lat="30.854301613139736" lon="-5.7970166438092"><ele>983.0</ele><time>2026-03-25T15:00:39.976Z</time></trkpt><trkpt lat="30.854312065513223" lon="-5.797124822952435"><ele>983.0</ele><time>2026-03-25T15:00:40.976Z</time></trkpt><trkpt lat="30.85432720865489" lon="-5.797232697308429"><ele>983.1666666666667</ele><time>2026-03-25T15:00:41.976Z</time></trkpt><trkpt lat="30.8543576140901" lon="-5.797335114992499"><ele>983.3333333333334</ele><time>2026-03-25T15:00:42.976Z</time></trkpt><trkpt lat="30.8544048121159" lon="-5.797422188896866"><ele>983.5</ele><time>2026-03-25T15:00:43.976Z</time></trkpt><trkpt lat="30.854456890064863" lon="-5.797480258635462"><ele>983.6666666666667</ele><time>2026-03-25T15:00:44.976Z</time></trkpt><trkpt lat="30.854520139141506" lon="-5.79752364478708"><ele>983.8333333333334</ele><time>2026-03-25T15:00:45.976Z</time></trkpt><trkpt lat="30.85457481648841" lon="-5.797569588622873"><ele>984.0</ele><time>2026-03-25T15:00:46.976Z</time></trkpt><trkpt lat="30.854616607646566" lon="-5.797630728195163"><ele>984.2</ele><time>2026-03-25T15:00:47.976Z</time></trkpt><trkpt lat="30.854646927545925" lon="-5.797722215048342"><ele>984.4000000000001</ele><time>2026-03-25T15:00:48.976Z</time></trkpt><trkpt lat="30.854679745627877" lon="-5.797819255696012"><ele>984.6</ele><time>2026-03-25T15:00:49.976Z</time></trkpt><trkpt lat="30.85471369023509" lon="-5.797914679554882"><ele>984.8</ele><time>2026-03-25T15:00:50.976Z</time></trkpt><trkpt lat="30.85474400666612" lon="-5.798035394704779"><ele>985.0</ele><time>2026-03-25T15:00:51.976Z</time></trkpt><trkpt lat="30.854770455315965" lon="-5.798158321369261"><ele>985.0</ele><time>2026-03-25T15:00:52.976Z</time></trkpt><trkpt lat="30.85480170170422" lon="-5.798292368949147"><ele>985.0</ele><time>2026-03-25T15:00:53.976Z</time></trkpt><trkpt lat="30.854834658300202" lon="-5.798433596853071"><ele>985.0</ele><time>2026-03-25T15:00:54.976Z</time></trkpt><trkpt lat="30.85486641687059" lon="-5.798572279195012"><ele>985.0</ele><time>2026-03-25T15:00:55.976Z</time></trkpt><trkpt lat="30.8548989197691" lon="-5.798711742320991"><ele>985.25</ele><time>2026-03-25T15:00:56.976Z</time></trkpt><trkpt lat="30.854937118082077" lon="-5.7988557922004"><ele>985.5</ele><time>2026-03-25T15:00:57.976Z</time></trkpt><trkpt lat="30.854973625704368" lon="-5.7990068063117555"><ele>985.75</ele><time>2026-03-25T15:00:58.976Z</time></trkpt><trkpt lat="30.855004656110943" lon="-5.799158381358666"><ele>986.0</ele><time>2026-03-25T15:00:59.976Z</time></trkpt><trkpt lat="30.855046213047604" lon="-5.799324190245631"><ele>985.6666666666667</ele><time>2026-03-25T15:01:00.976Z</time></trkpt><trkpt lat="30.855088582518672" lon="-5.799497496288977"><ele>985.3333333333333</ele><time>2026-03-25T15:01:01.976Z</time></trkpt><trkpt lat="30.855132018597157" lon="-5.799679177699804"><ele>985.0</ele><time>2026-03-25T15:01:02.976Z</time></trkpt><trkpt lat="30.855178743706478" lon="-5.799879696217285"><ele>985.0</ele><time>2026-03-25T15:01:03.976Z</time></trkpt><trkpt lat="30.8552298216259" lon="-5.800092171978101"><ele>985.0</ele><time>2026-03-25T15:01:04.976Z</time></trkpt><trkpt lat="30.855278444683275" lon="-5.8002930225298455"><ele>985.0</ele><time>2026-03-25T15:01:05.975Z</time></trkpt><trkpt lat="30.855324969796754" lon="-5.800486231057039"><ele>985.0</ele><time>2026-03-25T15:01:06.976Z</time></trkpt><trkpt lat="30.855369165700516" lon="-5.800679421121038"><ele>985.0</ele><time>2026-03-25T15:01:07.976Z</time></trkpt><trkpt lat="30.855417224375103" lon="-5.800878800284306"><ele>985.0</ele><time>2026-03-25T15:01:08.975Z</time></trkpt><trkpt lat="30.855465800118587" lon="-5.801084496534027"><ele>984.6666666666666</ele><time>2026-03-25T15:01:09.976Z</time></trkpt><trkpt lat="30.855514590394296" lon="-5.801290080273257"><ele>984.3333333333333</ele><time>2026-03-25T15:01:10.976Z</time></trkpt><trkpt lat="30.855562772259603" lon="-5.801488399667527"><ele>984.0</ele><time>2026-03-25T15:01:11.975Z</time></trkpt><trkpt lat="30.85561297197574" lon="-5.801689744370879"><ele>984.0</ele><time>2026-03-25T15:01:12.976Z</time></trkpt><trkpt lat="30.855661436222984" lon="-5.801886198173965"><ele>984.0</ele><time>2026-03-25T15:01:13.976Z</time></trkpt><trkpt lat="30.855708482796825" lon="-5.802083281611584"><ele>984.0</ele><time>2026-03-25T15:01:14.975Z</time></trkpt><trkpt lat="30.855755222030442" lon="-5.8022786410499645"><ele>984.0</ele><time>2026-03-25T15:01:15.976Z</time></trkpt><trkpt lat="30.855805934287286" lon="-5.802480894473608"><ele>984.0</ele><time>2026-03-25T15:01:16.976Z</time></trkpt><trkpt lat="30.855854192278674" lon="-5.802685137288468"><ele>984.0</ele><time>2026-03-25T15:01:17.976Z</time></trkpt><trkpt lat="30.85590188407702" lon="-5.802888627163471"><ele>984.0</ele><time>2026-03-25T15:01:18.975Z</time></trkpt><trkpt lat="30.855949794949282" lon="-5.803094119396583"><ele>984.0</ele><time>2026-03-25T15:01:19.975Z</time></trkpt><trkpt lat="30.85599866435452" lon="-5.803297851025864"><ele>984.0</ele><time>2026-03-25T15:01:20.975Z</time></trkpt><trkpt lat="30.856046023897374" lon="-5.803502706818183"><ele>984.3333333333333</ele><time>2026-03-25T15:01:21.975Z</time></trkpt><trkpt lat="30.85609701704367" lon="-5.803710180760907"><ele>984.6666666666666</ele><time>2026-03-25T15:01:22.975Z</time></trkpt><trkpt lat="30.85614721235876" lon="-5.8039153350963195"><ele>985.0</ele><time>2026-03-25T15:01:23.975Z</time></trkpt><trkpt lat="30.856194906391448" lon="-5.80411351074402"><ele>985.0</ele><time>2026-03-25T15:01:24.975Z</time></trkpt><trkpt lat="30.856243334106157" lon="-5.804308198694791"><ele>985.0</ele><time>2026-03-25T15:01:25.975Z</time></trkpt><trkpt lat="30.85629007879627" lon="-5.804508558811028"><ele>985.0</ele><time>2026-03-25T15:01:26.975Z</time></trkpt><trkpt lat="30.856337892218292" lon="-5.804712132332521"><ele>985.0</ele><time>2026-03-25T15:01:27.975Z</time></trkpt><trkpt lat="30.856391389447623" lon="-5.804919925521229"><ele>985.0</ele><time>2026-03-25T15:01:28.975Z</time></trkpt><trkpt lat="30.856441087816876" lon="-5.805129771337156"><ele>985.0</ele><time>2026-03-25T15:01:29.975Z</time></trkpt><trkpt lat="30.856494595462035" lon="-5.8053429480544425"><ele>984.6666666666666</ele><time>2026-03-25T15:01:30.975Z</time></trkpt><trkpt lat="30.856544171459518" lon="-5.805554871850405"><ele>984.3333333333333</ele><time>2026-03-25T15:01:31.975Z</time></trkpt><trkpt lat="30.85659429817723" lon="-5.8057645448194455"><ele>984.0</ele><time>2026-03-25T15:01:32.975Z</time></trkpt><trkpt lat="30.85664390543608" lon="-5.805974946218149"><ele>984.0</ele><time>2026-03-25T15:01:33.975Z</time></trkpt><trkpt lat="30.8566961230742" lon="-5.806185501901284"><ele>984.0</ele><time>2026-03-25T15:01:34.975Z</time></trkpt><trkpt lat="30.856747213409566" lon="-5.806392308295688"><ele>984.0</ele><time>2026-03-25T15:01:35.975Z</time></trkpt><trkpt lat="30.856798218967842" lon="-5.806602003639206"><ele>984.6666666666667</ele><time>2026-03-25T15:01:36.975Z</time></trkpt><trkpt lat="30.856848594298384" lon="-5.806807816045931"><ele>985.3333333333334</ele><time>2026-03-25T15:01:37.975Z</time></trkpt><trkpt lat="30.856900767400692" lon="-5.807014603151953"><ele>986.0</ele><time>2026-03-25T15:01:38.975Z</time></trkpt><trkpt lat="30.856950727208666" lon="-5.807220958279673"><ele>986.0</ele><time>2026-03-25T15:01:39.975Z</time></trkpt><trkpt lat="30.857002205218343" lon="-5.80743100051897"><ele>986.0</ele><time>2026-03-25T15:01:40.975Z</time></trkpt><trkpt lat="30.857052374888234" lon="-5.807644526411261"><ele>986.0</ele><time>2026-03-25T15:01:41.975Z</time></trkpt><trkpt lat="30.85709449028749" lon="-5.807859416238814"><ele>986.0</ele><time>2026-03-25T15:01:42.975Z</time></trkpt><trkpt lat="30.85713420796348" lon="-5.808069940761559"><ele>986.0</ele><time>2026-03-25T15:01:43.975Z</time></trkpt><trkpt lat="30.857165988792467" lon="-5.808283145405376"><ele>986.0</ele><time>2026-03-25T15:01:44.975Z</time></trkpt><trkpt lat="30.857194089108024" lon="-5.808509782213063"><ele>986.3333333333334</ele><time>2026-03-25T15:01:45.975Z</time></trkpt><trkpt lat="30.857214385433448" lon="-5.8087544414592545"><ele>986.6666666666667</ele><time>2026-03-25T15:01:46.975Z</time></trkpt><trkpt lat="30.85722350321137" lon="-5.809027551288811"><ele>987.0</ele><time>2026-03-25T15:01:47.975Z</time></trkpt><trkpt lat="30.85723206691038" lon="-5.809322113005867"><ele>987.0</ele><time>2026-03-25T15:01:48.975Z</time></trkpt><trkpt lat="30.857241936078157" lon="-5.809591491170736"><ele>987.0</ele><time>2026-03-25T15:01:49.975Z</time></trkpt><trkpt lat="30.857251209670373" lon="-5.809831693319209"><ele>987.0</ele><time>2026-03-25T15:01:50.975Z</time></trkpt><trkpt lat="30.857262524860435" lon="-5.810065069621752"><ele>987.0</ele><time>2026-03-25T15:01:51.975Z</time></trkpt><trkpt lat="30.857273363227176" lon="-5.810309292187411"><ele>987.0</ele><time>2026-03-25T15:01:52.975Z</time></trkpt><trkpt lat="30.857284842525544" lon="-5.810577655325944"><ele>987.0</ele><time>2026-03-25T15:01:53.975Z</time></trkpt><trkpt lat="30.857293182903508" lon="-5.810872577785279"><ele>986.5</ele><time>2026-03-25T15:01:54.975Z</time></trkpt><trkpt lat="30.85731269463842" lon="-5.811162224805368"><ele>986.0</ele><time>2026-03-25T15:01:55.975Z</time></trkpt><trkpt lat="30.85734312543968" lon="-5.811417441306417"><ele>986.0</ele><time>2026-03-25T15:01:56.975Z</time></trkpt><trkpt lat="30.857386118188575" lon="-5.81164936728388"><ele>986.0</ele><time>2026-03-25T15:01:57.975Z</time></trkpt><trkpt lat="30.857443265410183" lon="-5.811882189030826"><ele>986.0</ele><time>2026-03-25T15:01:58.975Z</time></trkpt><trkpt lat="30.857511411848723" lon="-5.812107970755448"><ele>986.5</ele><time>2026-03-25T15:01:59.975Z</time></trkpt><trkpt lat="30.857608174227423" lon="-5.812353073930508"><ele>987.0</ele><time>2026-03-25T15:02:00.975Z</time></trkpt><trkpt lat="30.85772575181055" lon="-5.81257480712149"><ele>987.0</ele><time>2026-03-25T15:02:01.975Z</time></trkpt><trkpt lat="30.857840555194056" lon="-5.8127690294037"><ele>987.0</ele><time>2026-03-25T15:02:02.975Z</time></trkpt><trkpt lat="30.857947556005424" lon="-5.812954802554591"><ele>987.0</ele><time>2026-03-25T15:02:03.975Z</time></trkpt><trkpt lat="30.85804774068132" lon="-5.813128725384855"><ele>987.0</ele><time>2026-03-25T15:02:04.975Z</time></trkpt><trkpt lat="30.8581461365331" lon="-5.813295493382716"><ele>987.0</ele><time>2026-03-25T15:02:05.975Z</time></trkpt><trkpt lat="30.85824952557032" lon="-5.8134693629719605"><ele>987.0</ele><time>2026-03-25T15:02:06.975Z</time></trkpt><trkpt lat="30.85835483537044" lon="-5.813649681675585"><ele>987.3333333333333</ele><time>2026-03-25T15:02:07.975Z</time></trkpt><trkpt lat="30.85845592257325" lon="-5.813829281623043"><ele>987.6666666666666</ele><time>2026-03-25T15:02:08.975Z</time></trkpt><trkpt lat="30.858556546529194" lon="-5.814004269405625"><ele>988.0</ele><time>2026-03-25T15:02:09.975Z</time></trkpt><trkpt lat="30.858654481663166" lon="-5.81417656000096"><ele>988.3333333333333</ele><time>2026-03-25T15:02:10.975Z</time></trkpt><trkpt lat="30.8587565724591" lon="-5.814352510035327"><ele>988.6666666666667</ele><time>2026-03-25T15:02:11.975Z</time></trkpt><trkpt lat="30.85885800504415" lon="-5.814531327228233"><ele>989.0</ele><time>2026-03-25T15:02:12.975Z</time></trkpt><trkpt lat="30.858952976608204" lon="-5.814703731407499"><ele>989.0</ele><time>2026-03-25T15:02:13.975Z</time></trkpt><trkpt lat="30.85905171174757" lon="-5.8148736519984725"><ele>989.0</ele><time>2026-03-25T15:02:14.975Z</time></trkpt><trkpt lat="30.859146601971233" lon="-5.815030701612143"><ele>989.0</ele><time>2026-03-25T15:02:15.975Z</time></trkpt><trkpt lat="30.85923377929799" lon="-5.815185300593611"><ele>991.3333333333334</ele><time>2026-03-25T15:02:16.975Z</time></trkpt><trkpt lat="30.85931531088539" lon="-5.815333774845748"><ele>993.6666666666667</ele><time>2026-03-25T15:02:17.975Z</time></trkpt><trkpt lat="30.859396345259036" lon="-5.815479651640565"><ele>996.0</ele><time>2026-03-25T15:02:18.975Z</time></trkpt><trkpt lat="30.85947742049279" lon="-5.815635393788018"><ele>996.0</ele><time>2026-03-25T15:02:19.975Z</time></trkpt><trkpt lat="30.85955244756286" lon="-5.815803403603343"><ele>996.0</ele><time>2026-03-25T15:02:20.975Z</time></trkpt><trkpt lat="30.859614404177677" lon="-5.815988418841648"><ele>996.0</ele><time>2026-03-25T15:02:21.975Z</time></trkpt><trkpt lat="30.859655894386357" lon="-5.816180541931966"><ele>996.0</ele><time>2026-03-25T15:02:22.975Z</time></trkpt><trkpt lat="30.85968089262256" lon="-5.816389357368184"><ele>996.0</ele><time>2026-03-25T15:02:23.975Z</time></trkpt><trkpt lat="30.859687362501944" lon="-5.81660151449162"><ele>996.0</ele><time>2026-03-25T15:02:24.975Z</time></trkpt><trkpt lat="30.85968524887188" lon="-5.816810584132652"><ele>994.6666666666667</ele><time>2026-03-25T15:02:25.975Z</time></trkpt><trkpt lat="30.859682403370297" lon="-5.817020673077688"><ele>993.3333333333334</ele><time>2026-03-25T15:02:26.975Z</time></trkpt><trkpt lat="30.859682342573247" lon="-5.817236352606232"><ele>992.0</ele><time>2026-03-25T15:02:27.975Z</time></trkpt><trkpt lat="30.859680180337687" lon="-5.817451895992113"><ele>991.3333333333334</ele><time>2026-03-25T15:02:28.975Z</time></trkpt><trkpt lat="30.859674067990294" lon="-5.817660144652075"><ele>990.6666666666667</ele><time>2026-03-25T15:02:29.975Z</time></trkpt><trkpt lat="30.85967435632521" lon="-5.8178630232388215"><ele>990.0</ele><time>2026-03-25T15:02:30.975Z</time></trkpt><trkpt lat="30.859670090931672" lon="-5.818062768090968"><ele>990.0</ele><time>2026-03-25T15:02:31.975Z</time></trkpt><trkpt lat="30.859664000043125" lon="-5.818267512536701"><ele>990.0</ele><time>2026-03-25T15:02:32.975Z</time></trkpt><trkpt lat="30.85966018136227" lon="-5.818467862517011"><ele>990.0</ele><time>2026-03-25T15:02:33.975Z</time></trkpt><trkpt lat="30.859660527976924" lon="-5.818665283246788"><ele>990.3333333333333</ele><time>2026-03-25T15:02:34.975Z</time></trkpt><trkpt lat="30.859658273906792" lon="-5.8188544236306825"><ele>990.6666666666666</ele><time>2026-03-25T15:02:35.975Z</time></trkpt><trkpt lat="30.859656641984436" lon="-5.819028507845533"><ele>991.0</ele><time>2026-03-25T15:02:36.975Z</time></trkpt><trkpt lat="30.85965374765147" lon="-5.819197177706696"><ele>991.0</ele><time>2026-03-25T15:02:37.975Z</time></trkpt><trkpt lat="30.859649654661776" lon="-5.81935488834601"><ele>991.0</ele><time>2026-03-25T15:02:38.975Z</time></trkpt><trkpt lat="30.859645095797536" lon="-5.819523344227568"><ele>991.0</ele><time>2026-03-25T15:02:39.975Z</time></trkpt><trkpt lat="30.859643415738613" lon="-5.819699534788245"><ele>991.0</ele><time>2026-03-25T15:02:40.975Z</time></trkpt><trkpt lat="30.859638691158192" lon="-5.81986391369655"><ele>991.0</ele><time>2026-03-25T15:02:41.975Z</time></trkpt><trkpt lat="30.859626984490617" lon="-5.8200099354963095"><ele>990.9999999999999</ele><time>2026-03-25T15:02:42.975Z</time></trkpt><trkpt lat="30.859614923729477" lon="-5.820142389236309"><ele>990.9999999999999</ele><time>2026-03-25T15:02:43.975Z</time></trkpt><trkpt lat="30.859605540082985" lon="-5.820256536625249"><ele>991.0</ele><time>2026-03-25T15:02:44.975Z</time></trkpt><trkpt lat="30.85959778435884" lon="-5.820356858774657"><ele>991.0</ele><time>2026-03-25T15:02:45.974Z</time></trkpt><trkpt lat="30.85959049875017" lon="-5.820449590475814"><ele>991.1666666666666</ele><time>2026-03-25T15:02:46.974Z</time></trkpt><trkpt lat="30.859581744518888" lon="-5.820535446140524"><ele>991.3333333333333</ele><time>2026-03-25T15:02:47.973Z</time></trkpt><trkpt lat="30.859571629247295" lon="-5.820610504276792"><ele>991.5</ele><time>2026-03-25T15:02:48.973Z</time></trkpt><trkpt lat="30.859562899215007" lon="-5.820683862999247"><ele>991.6666666666667</ele><time>2026-03-25T15:02:49.973Z</time></trkpt><trkpt lat="30.859549035226696" lon="-5.820799101039644"><ele>991.8333333333334</ele><time>2026-03-25T15:02:51.972Z</time></trkpt><trkpt lat="30.85952545233829" lon="-5.820898776059563"><ele>992.0</ele><time>2026-03-25T15:02:54.971Z</time></trkpt><trkpt lat="30.859499112958982" lon="-5.820982378689389"><ele>992.2857142857143</ele><time>2026-03-25T15:02:57.971Z</time></trkpt><trkpt lat="30.8594907674242" lon="-5.821071312289608"><ele>992.5714285714287</ele><time>2026-03-25T15:02:59.97Z</time></trkpt><trkpt lat="30.85949882796078" lon="-5.8211448287504295"><ele>992.8571428571429</ele><time>2026-03-25T15:03:01.97Z</time></trkpt><trkpt lat="30.859532586383285" lon="-5.821078222047545"><ele>993.1428571428571</ele><time>2026-03-25T15:04:59.968Z</time></trkpt><trkpt lat="30.859567739171002" lon="-5.821008959578786"><ele>993.4285714285714</ele><time>2026-03-25T15:05:06.967Z</time></trkpt><trkpt lat="30.859509739487137" lon="-5.821037556503735"><ele>993.7142857142858</ele><time>2026-03-25T15:07:31.967Z</time></trkpt><trkpt lat="30.859479160828133" lon="-5.821104629751853"><ele>994.0</ele><time>2026-03-25T15:07:45.967Z</time></trkpt><trkpt lat="30.859513762614206" lon="-5.821219087130395"><ele>994.0</ele><time>2026-03-25T15:08:29.966Z</time></trkpt><trkpt lat="30.859545683304226" lon="-5.821286684960988"><ele>994.0000000000001</ele><time>2026-03-25T15:08:30.966Z</time></trkpt><trkpt lat="30.85960561620371" lon="-5.8213932675208175"><ele>994.0000000000001</ele><time>2026-03-25T15:08:32.966Z</time></trkpt><trkpt lat="30.859665620409917" lon="-5.821532229733614"><ele>994.0</ele><time>2026-03-25T15:08:34.966Z</time></trkpt><trkpt lat="30.859704431942667" lon="-5.821633935474342"><ele>994.0</ele><time>2026-03-25T15:08:35.966Z</time></trkpt><trkpt lat="30.859740995505504" lon="-5.8217516188619145"><ele>993.75</ele><time>2026-03-25T15:08:36.966Z</time></trkpt><trkpt lat="30.859770987414443" lon="-5.8218833271350094"><ele>993.5</ele><time>2026-03-25T15:08:37.966Z</time></trkpt><trkpt lat="30.85979682767261" lon="-5.822015979248718"><ele>993.25</ele><time>2026-03-25T15:08:38.966Z</time></trkpt><trkpt lat="30.859821152757895" lon="-5.822137763639019"><ele>993.0</ele><time>2026-03-25T15:08:39.966Z</time></trkpt><trkpt lat="30.859844294579897" lon="-5.822266968274526"><ele>993.0</ele><time>2026-03-25T15:08:40.966Z</time></trkpt><trkpt lat="30.859867494760664" lon="-5.822395381037403"><ele>993.0</ele><time>2026-03-25T15:08:41.966Z</time></trkpt><trkpt lat="30.859893263136073" lon="-5.822524560189674"><ele>993.0</ele><time>2026-03-25T15:08:42.966Z</time></trkpt><trkpt lat="30.85992145041467" lon="-5.822647610329565"><ele>993.0</ele><time>2026-03-25T15:08:43.966Z</time></trkpt><trkpt lat="30.859955681584555" lon="-5.822762449735922"><ele>993.0</ele><time>2026-03-25T15:08:44.966Z</time></trkpt><trkpt lat="30.86001686684198" lon="-5.822873112086538"><ele>993.0</ele><time>2026-03-25T15:08:45.966Z</time></trkpt><trkpt lat="30.86010085612752" lon="-5.822974102391169"><ele>993.0</ele><time>2026-03-25T15:08:46.966Z</time></trkpt><trkpt lat="30.86019228930752" lon="-5.823073589720427"><ele>993.0</ele><time>2026-03-25T15:08:47.966Z</time></trkpt><trkpt lat="30.86027951621257" lon="-5.823174470475651"><ele>993.0</ele><time>2026-03-25T15:08:48.966Z</time></trkpt><trkpt lat="30.860367711643566" lon="-5.823279838379168"><ele>993.0</ele><time>2026-03-25T15:08:49.966Z</time></trkpt><trkpt lat="30.86045017867755" lon="-5.8233798197601425"><ele>993.0</ele><time>2026-03-25T15:08:50.966Z</time></trkpt><trkpt lat="30.860536405378426" lon="-5.823485187549561"><ele>993.0</ele><time>2026-03-25T15:08:51.966Z</time></trkpt><trkpt lat="30.860619432737117" lon="-5.823588824659361"><ele>993.0</ele><time>2026-03-25T15:08:52.966Z</time></trkpt><trkpt lat="30.860703217541424" lon="-5.8236960831914795"><ele>993.25</ele><time>2026-03-25T15:08:53.966Z</time></trkpt><trkpt lat="30.8607872081576" lon="-5.823803382949872"><ele>993.5</ele><time>2026-03-25T15:08:54.966Z</time></trkpt><trkpt lat="30.86087051705761" lon="-5.823907250038635"><ele>993.75</ele><time>2026-03-25T15:08:55.966Z</time></trkpt><trkpt lat="30.860961334907444" lon="-5.824012530944419"><ele>994.0</ele><time>2026-03-25T15:08:56.966Z</time></trkpt><trkpt lat="30.861056091023038" lon="-5.824127296664731"><ele>994.75</ele><time>2026-03-25T15:08:57.966Z</time></trkpt><trkpt lat="30.861149297011746" lon="-5.8242420441856675"><ele>995.5</ele><time>2026-03-25T15:08:58.966Z</time></trkpt><trkpt lat="30.861241837148075" lon="-5.824356030487108"><ele>996.25</ele><time>2026-03-25T15:08:59.966Z</time></trkpt><trkpt lat="30.861344308830382" lon="-5.824475128171255"><ele>997.0</ele><time>2026-03-25T15:09:00.966Z</time></trkpt><trkpt lat="30.861444598965345" lon="-5.82459751311954"><ele>997.0</ele><time>2026-03-25T15:09:01.966Z</time></trkpt><trkpt lat="30.861550848872977" lon="-5.824725190610541"><ele>997.0</ele><time>2026-03-25T15:09:02.966Z</time></trkpt><trkpt lat="30.861657105363214" lon="-5.824854326357661"><ele>997.0</ele><time>2026-03-25T15:09:03.966Z</time></trkpt><trkpt lat="30.861758824470947" lon="-5.824978241684576"><ele>997.0</ele><time>2026-03-25T15:09:04.966Z</time></trkpt><trkpt lat="30.861861278009258" lon="-5.825100150901591"><ele>997.0</ele><time>2026-03-25T15:09:05.966Z</time></trkpt><trkpt lat="30.861952390534892" lon="-5.8252166457688235"><ele>997.0</ele><time>2026-03-25T15:09:06.966Z</time></trkpt><trkpt lat="30.862041652895694" lon="-5.825335439778801"><ele>997.0</ele><time>2026-03-25T15:09:07.966Z</time></trkpt><trkpt lat="30.862129989128942" lon="-5.825453017787531"><ele>997.25</ele><time>2026-03-25T15:09:08.966Z</time></trkpt><trkpt lat="30.862219463309103" lon="-5.825568442995089"><ele>997.5</ele><time>2026-03-25T15:09:09.966Z</time></trkpt><trkpt lat="30.862316567520583" lon="-5.825688129940796"><ele>997.75</ele><time>2026-03-25T15:09:10.966Z</time></trkpt><trkpt lat="30.862425236806516" lon="-5.825816841675554"><ele>998.0</ele><time>2026-03-25T15:09:11.966Z</time></trkpt><trkpt lat="30.862538544144428" lon="-5.8259572512621824"><ele>998.3333333333334</ele><time>2026-03-25T15:09:12.966Z</time></trkpt><trkpt lat="30.862662881793383" lon="-5.826104812622492"><ele>998.6666666666667</ele><time>2026-03-25T15:09:13.966Z</time></trkpt><trkpt lat="30.862792321667808" lon="-5.826257341171869"><ele>999.0</ele><time>2026-03-25T15:09:14.966Z</time></trkpt><trkpt lat="30.86290655105733" lon="-5.826393673171766"><ele>999.0</ele><time>2026-03-25T15:09:15.966Z</time></trkpt><trkpt lat="30.863019033369305" lon="-5.826519353482841"><ele>999.0</ele><time>2026-03-25T15:09:16.966Z</time></trkpt><trkpt lat="30.863139508415607" lon="-5.8266494233773996"><ele>999.0</ele><time>2026-03-25T15:09:17.966Z</time></trkpt><trkpt lat="30.86325653274843" lon="-5.826766084068075"><ele>999.0</ele><time>2026-03-25T15:09:18.966Z</time></trkpt><trkpt lat="30.863383378402524" lon="-5.82687069267525"><ele>999.0</ele><time>2026-03-25T15:09:19.966Z</time></trkpt><trkpt lat="30.86352183795009" lon="-5.826960469466808"><ele>999.0</ele><time>2026-03-25T15:09:20.966Z</time></trkpt><trkpt lat="30.863659550552136" lon="-5.827054144457867"><ele>999.0</ele><time>2026-03-25T15:09:21.966Z</time></trkpt><trkpt lat="30.86380306051427" lon="-5.827147132336791"><ele>999.0</ele><time>2026-03-25T15:09:22.966Z</time></trkpt><trkpt lat="30.863934923936522" lon="-5.827227718571197"><ele>999.0</ele><time>2026-03-25T15:09:23.966Z</time></trkpt><trkpt lat="30.864066904127714" lon="-5.8272957070147795"><ele>999.0</ele><time>2026-03-25T15:09:24.966Z</time></trkpt><trkpt lat="30.86420438256953" lon="-5.827349121925997"><ele>999.0</ele><time>2026-03-25T15:09:25.966Z</time></trkpt><trkpt lat="30.86434970663331" lon="-5.827397787130046"><ele>999.0</ele><time>2026-03-25T15:09:26.966Z</time></trkpt><trkpt lat="30.86450761108691" lon="-5.827447436395251"><ele>999.0</ele><time>2026-03-25T15:09:27.966Z</time></trkpt><trkpt lat="30.864674788187532" lon="-5.827489386254032"><ele>999.0</ele><time>2026-03-25T15:09:28.966Z</time></trkpt><trkpt lat="30.864812912381257" lon="-5.827521022698427"><ele>999.0</ele><time>2026-03-25T15:09:29.967Z</time></trkpt><trkpt lat="30.86495050216539" lon="-5.827549890107845"><ele>999.0</ele><time>2026-03-25T15:09:30.966Z</time></trkpt><trkpt lat="30.865071072604103" lon="-5.827577532068493"><ele>999.0</ele><time>2026-03-25T15:09:31.966Z</time></trkpt><trkpt lat="30.86518860853781" lon="-5.827598723235589"><ele>999.0</ele><time>2026-03-25T15:09:32.966Z</time></trkpt><trkpt lat="30.865299925501606" lon="-5.827616890645423"><ele>999.0</ele><time>2026-03-25T15:09:33.966Z</time></trkpt><trkpt lat="30.865398766221727" lon="-5.827632674839017"><ele>999.0</ele><time>2026-03-25T15:09:34.966Z</time></trkpt><trkpt lat="30.865500052682854" lon="-5.827634289605432"><ele>999.0000000000001</ele><time>2026-03-25T15:09:35.966Z</time></trkpt><trkpt lat="30.865599382440465" lon="-5.82764697184348"><ele>999.0000000000001</ele><time>2026-03-25T15:09:36.966Z</time></trkpt><trkpt lat="30.86570287111727" lon="-5.8276679212295015"><ele>999.0</ele><time>2026-03-25T15:09:37.966Z</time></trkpt><trkpt lat="30.865805129665162" lon="-5.827692158150495"><ele>999.0</ele><time>2026-03-25T15:09:38.966Z</time></trkpt><trkpt lat="30.865907792362744" lon="-5.827715354756486"><ele>999.0</ele><time>2026-03-25T15:09:39.966Z</time></trkpt><trkpt lat="30.866014800184146" lon="-5.827737665132535"><ele>999.0000000000001</ele><time>2026-03-25T15:09:40.966Z</time></trkpt><trkpt lat="30.866124058344965" lon="-5.827758111737868"><ele>999.0000000000001</ele><time>2026-03-25T15:09:41.966Z</time></trkpt><trkpt lat="30.866234147957854" lon="-5.827779279166699"><ele>999.0</ele><time>2026-03-25T15:09:42.966Z</time></trkpt><trkpt lat="30.866342851107827" lon="-5.8278018758195"><ele>999.0</ele><time>2026-03-25T15:09:43.966Z</time></trkpt><trkpt lat="30.866461133696774" lon="-5.827826333660076"><ele>999.0</ele><time>2026-03-25T15:09:44.966Z</time></trkpt><trkpt lat="30.866584990067448" lon="-5.827848731797489"><ele>999.0</ele><time>2026-03-25T15:09:45.966Z</time></trkpt><trkpt lat="30.86672177758138" lon="-5.827875406891293"><ele>999.0</ele><time>2026-03-25T15:09:46.966Z</time></trkpt><trkpt lat="30.866850467690433" lon="-5.827904928829607"><ele>999.0</ele><time>2026-03-25T15:09:47.966Z</time></trkpt><trkpt lat="30.866978301442646" lon="-5.827933864244633"><ele>999.25</ele><time>2026-03-25T15:09:48.966Z</time></trkpt><trkpt lat="30.867107819138322" lon="-5.827951820989765"><ele>999.5</ele><time>2026-03-25T15:09:49.966Z</time></trkpt><trkpt lat="30.86722746495545" lon="-5.827967918077817"><ele>999.75</ele><time>2026-03-25T15:09:50.966Z</time></trkpt><trkpt lat="30.867338617290415" lon="-5.8279857943155555"><ele>1000.0</ele><time>2026-03-25T15:09:51.966Z</time></trkpt><trkpt lat="30.867460343730002" lon="-5.828020340951978"><ele>1000.0</ele><time>2026-03-25T15:09:52.966Z</time></trkpt><trkpt lat="30.867578256470843" lon="-5.828048087440326"><ele>1000.0</ele><time>2026-03-25T15:09:53.966Z</time></trkpt><trkpt lat="30.867685649801686" lon="-5.828063700692753"><ele>1000.0</ele><time>2026-03-25T15:09:54.966Z</time></trkpt><trkpt lat="30.867794889728316" lon="-5.828083339779717"><ele>1000.0</ele><time>2026-03-25T15:09:55.966Z</time></trkpt><trkpt lat="30.86790792588892" lon="-5.82811018379912"><ele>1000.0</ele><time>2026-03-25T15:09:56.966Z</time></trkpt><trkpt lat="30.86802271323862" lon="-5.828129545132011"><ele>1000.0</ele><time>2026-03-25T15:09:57.965Z</time></trkpt><trkpt lat="30.86814289495162" lon="-5.828151984989913"><ele>1000.0</ele><time>2026-03-25T15:09:58.965Z</time></trkpt><trkpt lat="30.868246221808842" lon="-5.828183766609589"><ele>1000.0</ele><time>2026-03-25T15:09:59.965Z</time></trkpt><trkpt lat="30.86836629614762" lon="-5.828203488158247"><ele>1000.5</ele><time>2026-03-25T15:10:00.965Z</time></trkpt><trkpt lat="30.86848407989944" lon="-5.828219242509842"><ele>1001.0</ele><time>2026-03-25T15:10:01.965Z</time></trkpt><trkpt lat="30.868601428878367" lon="-5.8282473516567395"><ele>1001.5</ele><time>2026-03-25T15:10:02.965Z</time></trkpt><trkpt lat="30.86872440278405" lon="-5.828280627050727"><ele>1002.0</ele><time>2026-03-25T15:10:03.965Z</time></trkpt><trkpt lat="30.868848151983933" lon="-5.828307926757777"><ele>1002.0</ele><time>2026-03-25T15:10:04.965Z</time></trkpt><trkpt lat="30.868962896107764" lon="-5.828331646621041"><ele>1002.0</ele><time>2026-03-25T15:10:05.965Z</time></trkpt><trkpt lat="30.869066725908546" lon="-5.828347588911228"><ele>1002.0</ele><time>2026-03-25T15:10:06.965Z</time></trkpt><trkpt lat="30.86917007854502" lon="-5.82836033164324"><ele>1002.0</ele><time>2026-03-25T15:10:07.965Z</time></trkpt><trkpt lat="30.869268777180203" lon="-5.8283774852850385"><ele>1002.0</ele><time>2026-03-25T15:10:08.965Z</time></trkpt><trkpt lat="30.869370558596586" lon="-5.828398346229113"><ele>1002.2</ele><time>2026-03-25T15:10:09.965Z</time></trkpt><trkpt lat="30.86946899666019" lon="-5.828420875765393"><ele>1002.4000000000001</ele><time>2026-03-25T15:10:10.965Z</time></trkpt><trkpt lat="30.869570201128933" lon="-5.8284461249523165"><ele>1002.5999999999999</ele><time>2026-03-25T15:10:11.965Z</time></trkpt><trkpt lat="30.869674530677294" lon="-5.8284690930933225"><ele>1002.8</ele><time>2026-03-25T15:10:12.965Z</time></trkpt><trkpt lat="30.869783619074322" lon="-5.828492667869408"><ele>1003.0</ele><time>2026-03-25T15:10:13.965Z</time></trkpt><trkpt lat="30.869894258211023" lon="-5.82851738525765"><ele>1003.25</ele><time>2026-03-25T15:10:14.965Z</time></trkpt><trkpt lat="30.87000313894288" lon="-5.828538294211503"><ele>1003.5</ele><time>2026-03-25T15:10:15.965Z</time></trkpt><trkpt lat="30.870123798129445" lon="-5.828565755976393"><ele>1003.75</ele><time>2026-03-25T15:10:16.965Z</time></trkpt><trkpt lat="30.87025030684302" lon="-5.828589335118546"><ele>1004.0</ele><time>2026-03-25T15:10:17.965Z</time></trkpt><trkpt lat="30.870379310718253" lon="-5.828614320644131"><ele>1003.5</ele><time>2026-03-25T15:10:18.965Z</time></trkpt><trkpt lat="30.870518311388167" lon="-5.828640544070714"><ele>1003.0</ele><time>2026-03-25T15:10:19.965Z</time></trkpt><trkpt lat="30.870649658358143" lon="-5.8286711134038525"><ele>1002.5</ele><time>2026-03-25T15:10:20.965Z</time></trkpt><trkpt lat="30.870778121304095" lon="-5.828693424892393"><ele>1002.0</ele><time>2026-03-25T15:10:21.965Z</time></trkpt><trkpt lat="30.870907759513177" lon="-5.828721037254467"><ele>1003.0</ele><time>2026-03-25T15:10:22.965Z</time></trkpt><trkpt lat="30.871048054816054" lon="-5.828747433593724"><ele>1004.0</ele><time>2026-03-25T15:10:23.965Z</time></trkpt><trkpt lat="30.871181570499523" lon="-5.828780622832213"><ele>1005.0</ele><time>2026-03-25T15:10:24.965Z</time></trkpt><trkpt lat="30.871316826396082" lon="-5.828807022028799"><ele>1006.0</ele><time>2026-03-25T15:10:25.965Z</time></trkpt><trkpt lat="30.871442484335137" lon="-5.828835467463341"><ele>1006.0</ele><time>2026-03-25T15:10:26.965Z</time></trkpt><trkpt lat="30.871577557264644" lon="-5.828862413867039"><ele>1006.0</ele><time>2026-03-25T15:10:27.965Z</time></trkpt><trkpt lat="30.8717005180394" lon="-5.828888760982369"><ele>1006.0</ele><time>2026-03-25T15:10:28.965Z</time></trkpt><trkpt lat="30.87182861893599" lon="-5.828921582020653"><ele>1006.0</ele><time>2026-03-25T15:10:29.965Z</time></trkpt><trkpt lat="30.871960554934095" lon="-5.8289481618166805"><ele>1005.75</ele><time>2026-03-25T15:10:30.965Z</time></trkpt><trkpt lat="30.872092566293755" lon="-5.828969692065009"><ele>1005.5</ele><time>2026-03-25T15:10:31.965Z</time></trkpt><trkpt lat="30.872225136202765" lon="-5.828998411832575"><ele>1005.25</ele><time>2026-03-25T15:10:32.965Z</time></trkpt><trkpt lat="30.872347003955305" lon="-5.829024226979032"><ele>1005.0</ele><time>2026-03-25T15:10:33.965Z</time></trkpt><trkpt lat="30.87245004379692" lon="-5.82904574531524"><ele>1005.0</ele><time>2026-03-25T15:10:34.965Z</time></trkpt><trkpt lat="30.872569051984303" lon="-5.829073514279467"><ele>1005.0</ele><time>2026-03-25T15:10:35.965Z</time></trkpt><trkpt lat="30.87270053063752" lon="-5.829097164392078"><ele>1005.0</ele><time>2026-03-25T15:10:36.965Z</time></trkpt><trkpt lat="30.872831520175932" lon="-5.829126290654303"><ele>1005.0</ele><time>2026-03-25T15:10:37.965Z</time></trkpt><trkpt lat="30.872962345771022" lon="-5.829156426252891"><ele>1004.6666666666667</ele><time>2026-03-25T15:10:38.965Z</time></trkpt><trkpt lat="30.87310712750367" lon="-5.82918244824107"><ele>1004.3333333333334</ele><time>2026-03-25T15:10:39.965Z</time></trkpt><trkpt lat="30.873267205686414" lon="-5.829204078714225"><ele>1004.0</ele><time>2026-03-25T15:10:40.965Z</time></trkpt><trkpt lat="30.873422450911505" lon="-5.829235951872576"><ele>1004.25</ele><time>2026-03-25T15:10:41.965Z</time></trkpt><trkpt lat="30.87357003148033" lon="-5.829282274246853"><ele>1004.5</ele><time>2026-03-25T15:10:42.965Z</time></trkpt><trkpt lat="30.873704446318303" lon="-5.829340442753563"><ele>1004.75</ele><time>2026-03-25T15:10:43.965Z</time></trkpt><trkpt lat="30.87382541437229" lon="-5.829401726467316"><ele>1005.0</ele><time>2026-03-25T15:10:44.965Z</time></trkpt><trkpt lat="30.87394384661041" lon="-5.82945552816822"><ele>1005.0</ele><time>2026-03-25T15:10:45.965Z</time></trkpt><trkpt lat="30.87406292093287" lon="-5.829505082719892"><ele>1005.0</ele><time>2026-03-25T15:10:46.965Z</time></trkpt><trkpt lat="30.874179349345724" lon="-5.829557893243592"><ele>1005.0</ele><time>2026-03-25T15:10:47.965Z</time></trkpt><trkpt lat="30.87429088120785" lon="-5.829612545600205"><ele>1005.0</ele><time>2026-03-25T15:10:48.965Z</time></trkpt><trkpt lat="30.874410531628357" lon="-5.829671419783762"><ele>1005.25</ele><time>2026-03-25T15:10:49.965Z</time></trkpt><trkpt lat="30.87453358670951" lon="-5.829727434769681"><ele>1005.5</ele><time>2026-03-25T15:10:50.965Z</time></trkpt><trkpt lat="30.87465786976483" lon="-5.829782254702361"><ele>1005.75</ele><time>2026-03-25T15:10:51.965Z</time></trkpt><trkpt lat="30.874772699686332" lon="-5.829825153211938"><ele>1006.0</ele><time>2026-03-25T15:10:52.965Z</time></trkpt><trkpt lat="30.874888552272797" lon="-5.829871981179206"><ele>1006.0</ele><time>2026-03-25T15:10:53.965Z</time></trkpt><trkpt lat="30.87499963630674" lon="-5.829924470553738"><ele>1006.0</ele><time>2026-03-25T15:10:54.965Z</time></trkpt><trkpt lat="30.875124317307783" lon="-5.82997619132483"><ele>1006.0</ele><time>2026-03-25T15:10:55.965Z</time></trkpt><trkpt lat="30.87525853013085" lon="-5.83001992846517"><ele>1006.0</ele><time>2026-03-25T15:10:56.965Z</time></trkpt><trkpt lat="30.87539244317638" lon="-5.830035965655494"><ele>1006.1999999999999</ele><time>2026-03-25T15:10:57.965Z</time></trkpt><trkpt lat="30.875505833547653" lon="-5.830061689520448"><ele>1006.3999999999999</ele><time>2026-03-25T15:10:58.965Z</time></trkpt><trkpt lat="30.87559363544627" lon="-5.830110733598809"><ele>1006.6</ele><time>2026-03-25T15:10:59.965Z</time></trkpt><trkpt lat="30.87569960295482" lon="-5.830158542200077"><ele>1006.8</ele><time>2026-03-25T15:11:00.965Z</time></trkpt><trkpt lat="30.87580912340306" lon="-5.830183251751513"><ele>1007.0</ele><time>2026-03-25T15:11:01.965Z</time></trkpt><trkpt lat="30.8759365876481" lon="-5.83018543682644"><ele>1007.25</ele><time>2026-03-25T15:11:02.965Z</time></trkpt><trkpt lat="30.876062392685977" lon="-5.830193603565572"><ele>1007.5</ele><time>2026-03-25T15:11:03.965Z</time></trkpt><trkpt lat="30.876197301511084" lon="-5.830189084814185"><ele>1007.75</ele><time>2026-03-25T15:11:04.965Z</time></trkpt><trkpt lat="30.876326734609098" lon="-5.830179171304471"><ele>1008.0</ele><time>2026-03-25T15:11:05.965Z</time></trkpt><trkpt lat="30.876443340484382" lon="-5.8301564562291786"><ele>1008.0</ele><time>2026-03-25T15:11:06.965Z</time></trkpt><trkpt lat="30.876557267083477" lon="-5.830125800407569"><ele>1008.0</ele><time>2026-03-25T15:11:07.965Z</time></trkpt><trkpt lat="30.876668953173645" lon="-5.830081413672669"><ele>1008.0</ele><time>2026-03-25T15:11:08.965Z</time></trkpt><trkpt lat="30.876787783988874" lon="-5.830043211999082"><ele>1008.0</ele><time>2026-03-25T15:11:09.965Z</time></trkpt><trkpt lat="30.876913750753726" lon="-5.830029802504178"><ele>1008.5</ele><time>2026-03-25T15:11:10.965Z</time></trkpt><trkpt lat="30.87705452601347" lon="-5.83003550641754"><ele>1009.0</ele><time>2026-03-25T15:11:11.965Z</time></trkpt><trkpt lat="30.87720152312176" lon="-5.830057196972207"><ele>1009.5</ele><time>2026-03-25T15:11:12.965Z</time></trkpt><trkpt lat="30.87734446544911" lon="-5.830087669151556"><ele>1010.0</ele><time>2026-03-25T15:11:13.965Z</time></trkpt><trkpt lat="30.877483246495917" lon="-5.830112496460536"><ele>1010.25</ele><time>2026-03-25T15:11:14.965Z</time></trkpt><trkpt lat="30.87762562676032" lon="-5.830114388863549"><ele>1010.5</ele><time>2026-03-25T15:11:15.965Z</time></trkpt><trkpt lat="30.877774404638764" lon="-5.830106210736354"><ele>1010.75</ele><time>2026-03-25T15:11:16.965Z</time></trkpt><trkpt lat="30.87790548660862" lon="-5.830099464967532"><ele>1011.0</ele><time>2026-03-25T15:11:17.965Z</time></trkpt><trkpt lat="30.878024927234815" lon="-5.8300945104169095"><ele>1011.0</ele><time>2026-03-25T15:11:18.965Z</time></trkpt><trkpt lat="30.878146353702583" lon="-5.830080328368793"><ele>1011.0</ele><time>2026-03-25T15:11:19.965Z</time></trkpt><trkpt lat="30.87828313026816" lon="-5.830067283790765"><ele>1011.0</ele><time>2026-03-25T15:11:20.965Z</time></trkpt><trkpt lat="30.87843795642623" lon="-5.830068670888261"><ele>1011.0</ele><time>2026-03-25T15:11:21.965Z</time></trkpt><trkpt lat="30.878591200823372" lon="-5.830102999591019"><ele>1011.1999999999999</ele><time>2026-03-25T15:11:22.965Z</time></trkpt><trkpt lat="30.878721730436418" lon="-5.830159457381371"><ele>1011.3999999999999</ele><time>2026-03-25T15:11:23.965Z</time></trkpt><trkpt lat="30.878818338232566" lon="-5.83021911165234"><ele>1011.6</ele><time>2026-03-25T15:11:24.965Z</time></trkpt><trkpt lat="30.878902819233467" lon="-5.830271774097279"><ele>1011.8</ele><time>2026-03-25T15:11:25.965Z</time></trkpt><trkpt lat="30.878987492208058" lon="-5.830319633317244"><ele>1012.0</ele><time>2026-03-25T15:11:26.965Z</time></trkpt><trkpt lat="30.87908871847771" lon="-5.830358059582087"><ele>1012.0</ele><time>2026-03-25T15:11:27.965Z</time></trkpt><trkpt lat="30.879212354114397" lon="-5.83037456153885"><ele>1012.0</ele><time>2026-03-25T15:11:28.965Z</time></trkpt><trkpt lat="30.879337918381704" lon="-5.830372644948422"><ele>1012.0</ele><time>2026-03-25T15:11:29.965Z</time></trkpt><trkpt lat="30.879459137627542" lon="-5.830367851649768"><ele>1012.0</ele><time>2026-03-25T15:11:30.965Z</time></trkpt><trkpt lat="30.87957602811744" lon="-5.830372968883945"><ele>1012.5</ele><time>2026-03-25T15:11:31.965Z</time></trkpt><trkpt lat="30.879686002864382" lon="-5.830386766812495"><ele>1013.0</ele><time>2026-03-25T15:11:32.965Z</time></trkpt><trkpt lat="30.87979416260708" lon="-5.830398373029054"><ele>1013.5</ele><time>2026-03-25T15:11:33.965Z</time></trkpt><trkpt lat="30.879916398605086" lon="-5.830408848103532"><ele>1014.0</ele><time>2026-03-25T15:11:34.965Z</time></trkpt><trkpt lat="30.880050502326426" lon="-5.830419177193872"><ele>1014.25</ele><time>2026-03-25T15:11:35.966Z</time></trkpt><trkpt lat="30.88018585642792" lon="-5.830422623013426"><ele>1014.5</ele><time>2026-03-25T15:11:36.966Z</time></trkpt><trkpt lat="30.880324373121475" lon="-5.8304290774388"><ele>1014.75</ele><time>2026-03-25T15:11:37.966Z</time></trkpt><trkpt lat="30.880452734624157" lon="-5.830441613119251"><ele>1015.0</ele><time>2026-03-25T15:11:38.966Z</time></trkpt><trkpt lat="30.880579462794852" lon="-5.830454179333466"><ele>1015.0</ele><time>2026-03-25T15:11:39.966Z</time></trkpt><trkpt lat="30.8807061000219" lon="-5.830464796703887"><ele>1015.0</ele><time>2026-03-25T15:11:40.966Z</time></trkpt><trkpt lat="30.880829412381892" lon="-5.830471310527655"><ele>1015.0</ele><time>2026-03-25T15:11:41.966Z</time></trkpt><trkpt lat="30.88094224266882" lon="-5.830479219885987"><ele>1015.0</ele><time>2026-03-25T15:11:42.966Z</time></trkpt><trkpt lat="30.881045172375007" lon="-5.830499623059754"><ele>1015.2</ele><time>2026-03-25T15:11:43.966Z</time></trkpt><trkpt lat="30.881130148100883" lon="-5.830534944360452"><ele>1015.4</ele><time>2026-03-25T15:11:44.966Z</time></trkpt><trkpt lat="30.881204510560522" lon="-5.830590724644335"><ele>1015.5999999999999</ele><time>2026-03-25T15:11:45.966Z</time></trkpt><trkpt lat="30.88128489793409" lon="-5.830641010128265"><ele>1015.8</ele><time>2026-03-25T15:11:46.966Z</time></trkpt><trkpt lat="30.881376988357534" lon="-5.830669815099517"><ele>1016.0</ele><time>2026-03-25T15:11:47.966Z</time></trkpt><trkpt lat="30.88149060702306" lon="-5.830677249490713"><ele>1016.0</ele><time>2026-03-25T15:11:48.965Z</time></trkpt><trkpt lat="30.88161545965665" lon="-5.8306711715921855"><ele>1016.0</ele><time>2026-03-25T15:11:49.965Z</time></trkpt><trkpt lat="30.881748462800456" lon="-5.830688306895497"><ele>1016.0</ele><time>2026-03-25T15:11:50.965Z</time></trkpt><trkpt lat="30.881883313729794" lon="-5.8307224970442"><ele>1016.0</ele><time>2026-03-25T15:11:51.965Z</time></trkpt><trkpt lat="30.882015048496573" lon="-5.830748838672871"><ele>1016.75</ele><time>2026-03-25T15:11:52.965Z</time></trkpt><trkpt lat="30.882149119950597" lon="-5.830764217452802"><ele>1017.5</ele><time>2026-03-25T15:11:53.965Z</time></trkpt><trkpt lat="30.882284200135818" lon="-5.830775281905809"><ele>1018.25</ele><time>2026-03-25T15:11:54.965Z</time></trkpt><trkpt lat="30.88240850943168" lon="-5.830791487533184"><ele>1019.0</ele><time>2026-03-25T15:11:55.965Z</time></trkpt><trkpt lat="30.88252686491959" lon="-5.8308322542848305"><ele>1019.25</ele><time>2026-03-25T15:11:56.965Z</time></trkpt><trkpt lat="30.88263906781161" lon="-5.83089715877386"><ele>1019.5</ele><time>2026-03-25T15:11:57.965Z</time></trkpt><trkpt lat="30.88275675424226" lon="-5.8309639804420055"><ele>1019.75</ele><time>2026-03-25T15:11:58.965Z</time></trkpt><trkpt lat="30.88288338533737" lon="-5.83100642553152"><ele>1020.0</ele><time>2026-03-25T15:11:59.965Z</time></trkpt><trkpt lat="30.883018378971684" lon="-5.8310295656134645"><ele>1020.0</ele><time>2026-03-25T15:12:00.965Z</time></trkpt><trkpt lat="30.883132398309513" lon="-5.831058389216688"><ele>1020.0</ele><time>2026-03-25T15:12:01.965Z</time></trkpt><trkpt lat="30.883246648427246" lon="-5.831088629477849"><ele>1020.0</ele><time>2026-03-25T15:12:02.965Z</time></trkpt><trkpt lat="30.88334780452985" lon="-5.831135563773369"><ele>1020.0</ele><time>2026-03-25T15:12:03.965Z</time></trkpt><trkpt lat="30.88344368644176" lon="-5.831198468871931"><ele>1020.4</ele><time>2026-03-25T15:12:04.965Z</time></trkpt><trkpt lat="30.883534812056897" lon="-5.831264675332185"><ele>1020.8</ele><time>2026-03-25T15:12:05.965Z</time></trkpt><trkpt lat="30.883617388714107" lon="-5.831320107817634"><ele>1021.2</ele><time>2026-03-25T15:12:06.965Z</time></trkpt><trkpt lat="30.8836928982441" lon="-5.831345244868531"><ele>1021.6</ele><time>2026-03-25T15:12:07.965Z</time></trkpt><trkpt lat="30.883784119149087" lon="-5.83135528036525"><ele>1022.0</ele><time>2026-03-25T15:12:08.965Z</time></trkpt><trkpt lat="30.883871867388592" lon="-5.831345826450473"><ele>1022.0</ele><time>2026-03-25T15:12:09.965Z</time></trkpt><trkpt lat="30.883964112311784" lon="-5.831331352732764"><ele>1022.0</ele><time>2026-03-25T15:12:10.965Z</time></trkpt><trkpt lat="30.884060917035075" lon="-5.831327491682111"><ele>1022.0</ele><time>2026-03-25T15:12:11.965Z</time></trkpt><trkpt lat="30.884169442903183" lon="-5.831343836058174"><ele>1022.0</ele><time>2026-03-25T15:12:12.965Z</time></trkpt><trkpt lat="30.884283390120846" lon="-5.831377363208781"><ele>1022.0</ele><time>2026-03-25T15:12:13.965Z</time></trkpt><trkpt lat="30.88439416735686" lon="-5.831416905957564"><ele>1022.5</ele><time>2026-03-25T15:12:14.965Z</time></trkpt><trkpt lat="30.88450651409363" lon="-5.831448278959903"><ele>1023.0</ele><time>2026-03-25T15:12:15.965Z</time></trkpt><trkpt lat="30.884627837337735" lon="-5.83147828103913"><ele>1023.5</ele><time>2026-03-25T15:12:16.965Z</time></trkpt><trkpt lat="30.8847601965399" lon="-5.831498029643078"><ele>1024.0</ele><time>2026-03-25T15:12:17.965Z</time></trkpt><trkpt lat="30.884903311609715" lon="-5.83150696382716"><ele>1024.0</ele><time>2026-03-25T15:12:18.965Z</time></trkpt><trkpt lat="30.885045978438246" lon="-5.831515576995065"><ele>1024.0</ele><time>2026-03-25T15:12:19.965Z</time></trkpt><trkpt lat="30.8851763946391" lon="-5.831529208035179"><ele>1024.0</ele><time>2026-03-25T15:12:20.965Z</time></trkpt><trkpt lat="30.885298068696695" lon="-5.831537289723466"><ele>1024.0</ele><time>2026-03-25T15:12:21.965Z</time></trkpt><trkpt lat="30.885408933593542" lon="-5.831547898727806"><ele>1024.8</ele><time>2026-03-25T15:12:22.965Z</time></trkpt><trkpt lat="30.885514464798852" lon="-5.831566354864537"><ele>1025.6000000000001</ele><time>2026-03-25T15:12:23.965Z</time></trkpt><trkpt lat="30.885624034808867" lon="-5.8315986715759065"><ele>1026.4</ele><time>2026-03-25T15:12:24.965Z</time></trkpt><trkpt lat="30.885731982826442" lon="-5.831640358437615"><ele>1027.2</ele><time>2026-03-25T15:12:25.965Z</time></trkpt><trkpt lat="30.885838293698626" lon="-5.831675007512187"><ele>1028.0</ele><time>2026-03-25T15:12:26.965Z</time></trkpt><trkpt lat="30.88594088644149" lon="-5.831698462673577"><ele>1028.8</ele><time>2026-03-25T15:12:27.965Z</time></trkpt><trkpt lat="30.88604329725807" lon="-5.8317133583727925"><ele>1029.6</ele><time>2026-03-25T15:12:28.965Z</time></trkpt><trkpt lat="30.886143107506275" lon="-5.831714602551902"><ele>1030.4</ele><time>2026-03-25T15:12:29.965Z</time></trkpt><trkpt lat="30.886238333478413" lon="-5.831695741252276"><ele>1031.2</ele><time>2026-03-25T15:12:30.965Z</time></trkpt><trkpt lat="30.88631841042729" lon="-5.831657368206587"><ele>1032.0</ele><time>2026-03-25T15:12:31.965Z</time></trkpt><trkpt lat="30.88637841153532" lon="-5.831627779158994"><ele>1032.0</ele><time>2026-03-25T15:12:32.965Z</time></trkpt><trkpt lat="30.886489112245364" lon="-5.831616643988258"><ele>1032.0</ele><time>2026-03-25T15:12:34.965Z</time></trkpt><trkpt lat="30.886580474125378" lon="-5.831671456959249"><ele>1032.0</ele><time>2026-03-25T15:12:36.965Z</time></trkpt><trkpt lat="30.88661676988659" lon="-5.831763178588257"><ele>1032.0</ele><time>2026-03-25T15:12:38.965Z</time></trkpt><trkpt lat="30.88662760118476" lon="-5.831902924749872"><ele>1032.0</ele><time>2026-03-25T15:12:40.965Z</time></trkpt><trkpt lat="30.886631052113273" lon="-5.831984714341255"><ele>1032.1666666666667</ele><time>2026-03-25T15:12:41.965Z</time></trkpt><trkpt lat="30.886628037863733" lon="-5.832073483049428"><ele>1032.3333333333333</ele><time>2026-03-25T15:12:42.965Z</time></trkpt><trkpt lat="30.886608947205534" lon="-5.832168946604988"><ele>1032.5</ele><time>2026-03-25T15:12:43.965Z</time></trkpt><trkpt lat="30.886579399534437" lon="-5.832257648927495"><ele>1032.6666666666665</ele><time>2026-03-25T15:12:44.965Z</time></trkpt><trkpt lat="30.88653309873378" lon="-5.832345696297692"><ele>1032.8333333333333</ele><time>2026-03-25T15:12:45.965Z</time></trkpt><trkpt lat="30.886484867185768" lon="-5.8324542534410355"><ele>1033.0</ele><time>2026-03-25T15:12:46.965Z</time></trkpt><trkpt lat="30.88644720104357" lon="-5.83258394899586"><ele>1033.0</ele><time>2026-03-25T15:12:47.965Z</time></trkpt><trkpt lat="30.88640841604052" lon="-5.832711334282416"><ele>1033.0</ele><time>2026-03-25T15:12:48.965Z</time></trkpt><trkpt lat="30.88637867835845" lon="-5.832816019916571"><ele>1033.0</ele><time>2026-03-25T15:12:49.965Z</time></trkpt><trkpt lat="30.886358137495176" lon="-5.8329223176465685"><ele>1033.0</ele><time>2026-03-25T15:12:50.965Z</time></trkpt><trkpt lat="30.886341049432197" lon="-5.83304196612786"><ele>1033.0</ele><time>2026-03-25T15:12:51.965Z</time></trkpt><trkpt lat="30.886332763674734" lon="-5.833172275918393"><ele>1033.0</ele><time>2026-03-25T15:12:52.965Z</time></trkpt><trkpt lat="30.88632078853224" lon="-5.833302819912063"><ele>1033.0</ele><time>2026-03-25T15:12:53.965Z</time></trkpt><trkpt lat="30.886310944141748" lon="-5.833426657550089"><ele>1033.0</ele><time>2026-03-25T15:12:54.965Z</time></trkpt><trkpt lat="30.886279545872195" lon="-5.833557720509434"><ele>1033.0</ele><time>2026-03-25T15:12:55.965Z</time></trkpt><trkpt lat="30.88624787266583" lon="-5.833706659106274"><ele>1032.75</ele><time>2026-03-25T15:12:56.965Z</time></trkpt><trkpt lat="30.886224934962335" lon="-5.833860487586065"><ele>1032.5</ele><time>2026-03-25T15:12:57.965Z</time></trkpt><trkpt lat="30.886216753047627" lon="-5.834013930666721"><ele>1032.25</ele><time>2026-03-25T15:12:58.965Z</time></trkpt><trkpt lat="30.88621426968887" lon="-5.834153746063076"><ele>1032.0</ele><time>2026-03-25T15:12:59.965Z</time></trkpt><trkpt lat="30.886204610429665" lon="-5.8343156819048785"><ele>1032.0</ele><time>2026-03-25T15:13:00.965Z</time></trkpt><trkpt lat="30.886192728360406" lon="-5.834470061333697"><ele>1032.0</ele><time>2026-03-25T15:13:01.965Z</time></trkpt><trkpt lat="30.886171050319447" lon="-5.834619000769658"><ele>1032.0</ele><time>2026-03-25T15:13:02.965Z</time></trkpt><trkpt lat="30.886150371243286" lon="-5.83475886202756"><ele>1032.0</ele><time>2026-03-25T15:13:03.965Z</time></trkpt><trkpt lat="30.886138581549687" lon="-5.834906973947856"><ele>1032.0</ele><time>2026-03-25T15:13:04.965Z</time></trkpt><trkpt lat="30.886121063214453" lon="-5.8350537999991055"><ele>1032.0</ele><time>2026-03-25T15:13:05.965Z</time></trkpt><trkpt lat="30.886104082234446" lon="-5.835206496120742"><ele>1032.0</ele><time>2026-03-25T15:13:06.965Z</time></trkpt><trkpt lat="30.88608857417321" lon="-5.835356285453804"><ele>1032.0</ele><time>2026-03-25T15:13:07.965Z</time></trkpt><trkpt lat="30.886070963546796" lon="-5.8355043476474835"><ele>1032.5</ele><time>2026-03-25T15:13:08.965Z</time></trkpt><trkpt lat="30.886043853735423" lon="-5.835655946871838"><ele>1033.0</ele><time>2026-03-25T15:13:09.965Z</time></trkpt><trkpt lat="30.886020618886377" lon="-5.83581917354135"><ele>1033.5</ele><time>2026-03-25T15:13:10.965Z</time></trkpt><trkpt lat="30.886010588313013" lon="-5.835985326178353"><ele>1034.0</ele><time>2026-03-25T15:13:11.965Z</time></trkpt><trkpt lat="30.885990074461947" lon="-5.8361419574904865"><ele>1034.0</ele><time>2026-03-25T15:13:12.965Z</time></trkpt><trkpt lat="30.88596846088328" lon="-5.83630013284778"><ele>1034.0</ele><time>2026-03-25T15:13:13.965Z</time></trkpt><trkpt lat="30.88595060341731" lon="-5.836450533928822"><ele>1034.0</ele><time>2026-03-25T15:13:14.965Z</time></trkpt><trkpt lat="30.885931561267427" lon="-5.836610179913349"><ele>1034.0</ele><time>2026-03-25T15:13:15.965Z</time></trkpt><trkpt lat="30.88591556906127" lon="-5.83675527133023"><ele>1033.25</ele><time>2026-03-25T15:13:16.965Z</time></trkpt><trkpt lat="30.885897074191007" lon="-5.836895503481277"><ele>1032.5</ele><time>2026-03-25T15:13:17.965Z</time></trkpt><trkpt lat="30.885876660797738" lon="-5.837039261844287"><ele>1031.75</ele><time>2026-03-25T15:13:18.965Z</time></trkpt><trkpt lat="30.885848120915554" lon="-5.837189828401186"><ele>1031.0</ele><time>2026-03-25T15:13:19.965Z</time></trkpt><trkpt lat="30.885822532037366" lon="-5.837336835972501"><ele>1031.0</ele><time>2026-03-25T15:13:20.965Z</time></trkpt><trkpt lat="30.88579882467152" lon="-5.837483531458526"><ele>1031.0</ele><time>2026-03-25T15:13:21.965Z</time></trkpt><trkpt lat="30.885773017611402" lon="-5.837621965956178"><ele>1031.0</ele><time>2026-03-25T15:13:22.965Z</time></trkpt><trkpt lat="30.88575550690198" lon="-5.837753294752179"><ele>1031.0</ele><time>2026-03-25T15:13:23.965Z</time></trkpt><trkpt lat="30.885730584338503" lon="-5.837861319704336"><ele>1031.0</ele><time>2026-03-25T15:13:24.965Z</time></trkpt><trkpt lat="30.885703337326525" lon="-5.837947615092805"><ele>1031.0</ele><time>2026-03-25T15:13:25.965Z</time></trkpt><trkpt lat="30.885684649063396" lon="-5.838023477277452"><ele>1031.0</ele><time>2026-03-25T15:13:26.965Z</time></trkpt><trkpt lat="30.885658916802328" lon="-5.838102577293339"><ele>1031.0</ele><time>2026-03-25T15:13:27.965Z</time></trkpt><trkpt lat="30.885630504613324" lon="-5.8381761040429225"><ele>1031.0</ele><time>2026-03-25T15:13:28.965Z</time></trkpt><trkpt lat="30.88561593938834" lon="-5.838312943387619"><ele>1031.0</ele><time>2026-03-25T15:13:30.965Z</time></trkpt><trkpt lat="30.885624736956725" lon="-5.8383968237466926"><ele>1031.0</ele><time>2026-03-25T15:13:31.965Z</time></trkpt><trkpt lat="30.88563704836083" lon="-5.838475518662158"><ele>1031.0</ele><time>2026-03-25T15:13:32.965Z</time></trkpt><trkpt lat="30.885631804573514" lon="-5.8385776691997675"><ele>1031.0</ele><time>2026-03-25T15:13:33.965Z</time></trkpt><trkpt lat="30.885614113953135" lon="-5.83867655844636"><ele>1031.0</ele><time>2026-03-25T15:13:34.965Z</time></trkpt><trkpt lat="30.885590896592575" lon="-5.838753873291182"><ele>1031.0</ele><time>2026-03-25T15:13:35.965Z</time></trkpt><trkpt lat="30.885554556078215" lon="-5.838818887320174"><ele>1031.0</ele><time>2026-03-25T15:13:36.965Z</time></trkpt><trkpt lat="30.88545594712389" lon="-5.838924526806125"><ele>1031.0</ele><time>2026-03-25T15:13:38.965Z</time></trkpt><trkpt lat="30.885397998991092" lon="-5.838996964385093"><ele>1031.0</ele><time>2026-03-25T15:13:39.965Z</time></trkpt><trkpt lat="30.885342095863724" lon="-5.839100372613008"><ele>1031.0</ele><time>2026-03-25T15:13:40.965Z</time></trkpt><trkpt lat="30.88529605454414" lon="-5.839194211947691"><ele>1031.0</ele><time>2026-03-25T15:13:41.965Z</time></trkpt><trkpt lat="30.88528655097858" lon="-5.839284491117161"><ele>1031.0</ele><time>2026-03-25T15:13:42.965Z</time></trkpt><trkpt lat="30.885293365055173" lon="-5.8393888881306895"><ele>1030.8</ele><time>2026-03-25T15:13:43.965Z</time></trkpt><trkpt lat="30.88529128541533" lon="-5.839494518089847"><ele>1030.6</ele><time>2026-03-25T15:13:44.965Z</time></trkpt><trkpt lat="30.885288955645873" lon="-5.839627362483965"><ele>1030.4</ele><time>2026-03-25T15:13:45.965Z</time></trkpt><trkpt lat="30.885291543238726" lon="-5.839756651694451"><ele>1030.2</ele><time>2026-03-25T15:13:46.965Z</time></trkpt><trkpt lat="30.885301421287018" lon="-5.839861314063734"><ele>1030.0</ele><time>2026-03-25T15:13:47.966Z</time></trkpt><trkpt lat="30.88532534990006" lon="-5.839959007380895"><ele>1030.0</ele><time>2026-03-25T15:13:48.965Z</time></trkpt><trkpt lat="30.88537062340408" lon="-5.840057242826114"><ele>1030.0</ele><time>2026-03-25T15:13:49.965Z</time></trkpt><trkpt lat="30.885422819490024" lon="-5.840157289706149"><ele>1030.0</ele><time>2026-03-25T15:13:50.965Z</time></trkpt><trkpt lat="30.88546799317778" lon="-5.840246368152248"><ele>1030.0</ele><time>2026-03-25T15:13:51.965Z</time></trkpt><trkpt lat="30.8855017422535" lon="-5.840336283736303"><ele>1030.0</ele><time>2026-03-25T15:13:52.965Z</time></trkpt><trkpt lat="30.88554161946843" lon="-5.840445717949991"><ele>1030.0</ele><time>2026-03-25T15:13:53.965Z</time></trkpt><trkpt lat="30.88558665048836" lon="-5.840566136865274"><ele>1030.0</ele><time>2026-03-25T15:13:54.965Z</time></trkpt><trkpt lat="30.88563427715206" lon="-5.840670472464671"><ele>1030.0</ele><time>2026-03-25T15:13:55.965Z</time></trkpt><trkpt lat="30.88569181408811" lon="-5.840781158762983"><ele>1030.0</ele><time>2026-03-25T15:13:56.965Z</time></trkpt><trkpt lat="30.885749918458142" lon="-5.84089001623168"><ele>1030.0</ele><time>2026-03-25T15:13:57.965Z</time></trkpt><trkpt lat="30.88580682094996" lon="-5.840996018306839"><ele>1029.8333333333333</ele><time>2026-03-25T15:13:58.965Z</time></trkpt><trkpt lat="30.885847804634118" lon="-5.8410812302256545"><ele>1029.6666666666665</ele><time>2026-03-25T15:13:59.965Z</time></trkpt><trkpt lat="30.885893357465086" lon="-5.841163964622669"><ele>1029.5</ele><time>2026-03-25T15:14:00.965Z</time></trkpt><trkpt lat="30.88594354677104" lon="-5.841228664898329"><ele>1029.3333333333333</ele><time>2026-03-25T15:14:01.965Z</time></trkpt><trkpt lat="30.886008041233026" lon="-5.841292876462256"><ele>1029.1666666666667</ele><time>2026-03-25T15:14:02.965Z</time></trkpt><trkpt lat="30.886085384305712" lon="-5.8413561242344825"><ele>1029.0</ele><time>2026-03-25T15:14:03.965Z</time></trkpt><trkpt lat="30.886129758776566" lon="-5.8414212396034895"><ele>1029.3333333333333</ele><time>2026-03-25T15:14:04.965Z</time></trkpt><trkpt lat="30.886164009659247" lon="-5.8415013858174865"><ele>1029.6666666666667</ele><time>2026-03-25T15:14:05.965Z</time></trkpt><trkpt lat="30.886211229929707" lon="-5.841579317157478"><ele>1030.0</ele><time>2026-03-25T15:14:06.965Z</time></trkpt><trkpt lat="30.88624877188432" lon="-5.841650369312787"><ele>1030.3333333333335</ele><time>2026-03-25T15:14:07.965Z</time></trkpt><trkpt lat="30.886265228307543" lon="-5.841723367036456"><ele>1030.6666666666667</ele><time>2026-03-25T15:14:08.965Z</time></trkpt><trkpt lat="30.886283621826923" lon="-5.841803188593318"><ele>1031.0</ele><time>2026-03-25T15:14:09.965Z</time></trkpt><trkpt lat="30.886285241486945" lon="-5.841934499383876"><ele>1031.0</ele><time>2026-03-25T15:14:11.965Z</time></trkpt><trkpt lat="30.886220294814777" lon="-5.841992584306349"><ele>1031.0</ele><time>2026-03-25T15:14:12.965Z</time></trkpt><trkpt lat="30.886124081495694" lon="-5.84207677961102"><ele>1031.0</ele><time>2026-03-25T15:14:13.965Z</time></trkpt><trkpt lat="30.886013665565706" lon="-5.842175867817471"><ele>1031.0</ele><time>2026-03-25T15:14:14.965Z</time></trkpt><trkpt lat="30.885914523460595" lon="-5.842267642567204"><ele>1030.6</ele><time>2026-03-25T15:14:15.965Z</time></trkpt><trkpt lat="30.885837683934298" lon="-5.842364624005168"><ele>1030.1999999999998</ele><time>2026-03-25T15:14:16.965Z</time></trkpt><trkpt lat="30.885765913838068" lon="-5.842451370972678"><ele>1029.8000000000002</ele><time>2026-03-25T15:14:17.965Z</time></trkpt><trkpt lat="30.885695737087186" lon="-5.84253627371172"><ele>1029.4</ele><time>2026-03-25T15:14:18.965Z</time></trkpt><trkpt lat="30.88562591478836" lon="-5.842618643980932"><ele>1029.0</ele><time>2026-03-25T15:14:19.965Z</time></trkpt><trkpt lat="30.88556450449291" lon="-5.84271325827736"><ele>1029.0</ele><time>2026-03-25T15:14:20.965Z</time></trkpt><trkpt lat="30.88551314523421" lon="-5.84281853261088"><ele>1029.0</ele><time>2026-03-25T15:14:21.965Z</time></trkpt><trkpt lat="30.88546071996535" lon="-5.842923316854793"><ele>1029.0</ele><time>2026-03-25T15:14:22.965Z</time></trkpt><trkpt lat="30.88538724217739" lon="-5.843002850893732"><ele>1029.0</ele><time>2026-03-25T15:14:23.965Z</time></trkpt><trkpt lat="30.885308062318977" lon="-5.843085037317635"><ele>1029.0</ele><time>2026-03-25T15:14:24.965Z</time></trkpt><trkpt lat="30.885242482599978" lon="-5.843192524199994"><ele>1029.0</ele><time>2026-03-25T15:14:25.965Z</time></trkpt><trkpt lat="30.885184113218468" lon="-5.843321611547424"><ele>1029.0</ele><time>2026-03-25T15:14:26.965Z</time></trkpt><trkpt lat="30.885145097122418" lon="-5.843448894154857"><ele>1029.0</ele><time>2026-03-25T15:14:27.965Z</time></trkpt><trkpt lat="30.885113000431723" lon="-5.843558287506319"><ele>1029.0</ele><time>2026-03-25T15:14:28.965Z</time></trkpt><trkpt lat="30.885069029681834" lon="-5.843643516150227"><ele>1029.0</ele><time>2026-03-25T15:14:29.965Z</time></trkpt><trkpt lat="30.885011561173194" lon="-5.843723546781571"><ele>1028.6000000000001</ele><time>2026-03-25T15:14:30.965Z</time></trkpt><trkpt lat="30.88493088905513" lon="-5.843790212463018"><ele>1028.2</ele><time>2026-03-25T15:14:31.965Z</time></trkpt><trkpt lat="30.884849619148977" lon="-5.843860186156355"><ele>1027.8000000000002</ele><time>2026-03-25T15:14:32.965Z</time></trkpt><trkpt lat="30.88479392098915" lon="-5.843937517646296"><ele>1027.4</ele><time>2026-03-25T15:14:33.965Z</time></trkpt><trkpt lat="30.88474668020364" lon="-5.844025527735095"><ele>1027.0</ele><time>2026-03-25T15:14:34.965Z</time></trkpt><trkpt lat="30.88470417693462" lon="-5.844137394251299"><ele>1027.0</ele><time>2026-03-25T15:14:35.965Z</time></trkpt><trkpt lat="30.884643741460813" lon="-5.8442458999577545"><ele>1027.0</ele><time>2026-03-25T15:14:36.965Z</time></trkpt><trkpt lat="30.88460650283483" lon="-5.844329293922474"><ele>1027.0</ele><time>2026-03-25T15:14:37.965Z</time></trkpt><trkpt lat="30.884591304451018" lon="-5.8444164077381915"><ele>1027.0</ele><time>2026-03-25T15:14:38.965Z</time></trkpt><trkpt lat="30.884601184532652" lon="-5.844509452717426"><ele>1027.0</ele><time>2026-03-25T15:14:39.965Z</time></trkpt><trkpt lat="30.884602376453152" lon="-5.844620624764593"><ele>1027.0</ele><time>2026-03-25T15:14:40.965Z</time></trkpt><trkpt lat="30.8845724855408" lon="-5.84472507949371"><ele>1027.2</ele><time>2026-03-25T15:14:41.965Z</time></trkpt><trkpt lat="30.884534749741107" lon="-5.844821390314584"><ele>1027.4</ele><time>2026-03-25T15:14:42.965Z</time></trkpt><trkpt lat="30.884498178054937" lon="-5.8449118706598"><ele>1027.6</ele><time>2026-03-25T15:14:43.965Z</time></trkpt><trkpt lat="30.884481636636696" lon="-5.845001555360749"><ele>1027.8</ele><time>2026-03-25T15:14:44.965Z</time></trkpt><trkpt lat="30.884496471840407" lon="-5.845115626813962"><ele>1028.0</ele><time>2026-03-25T15:14:45.965Z</time></trkpt><trkpt lat="30.884532036940833" lon="-5.845239129891185"><ele>1028.0</ele><time>2026-03-25T15:14:46.965Z</time></trkpt><trkpt lat="30.88456817176644" lon="-5.8453561587004925"><ele>1028.0</ele><time>2026-03-25T15:14:47.965Z</time></trkpt><trkpt lat="30.884587049808577" lon="-5.8454818101123545"><ele>1028.0</ele><time>2026-03-25T15:14:48.965Z</time></trkpt><trkpt lat="30.884591590052146" lon="-5.84561501788558"><ele>1028.0</ele><time>2026-03-25T15:14:49.965Z</time></trkpt><trkpt lat="30.8845818689389" lon="-5.845744223989861"><ele>1028.0</ele><time>2026-03-25T15:14:50.965Z</time></trkpt><trkpt lat="30.88456677372019" lon="-5.845880487118665"><ele>1027.75</ele><time>2026-03-25T15:14:51.965Z</time></trkpt><trkpt lat="30.88457843695727" lon="-5.846015241598188"><ele>1027.5</ele><time>2026-03-25T15:14:52.965Z</time></trkpt><trkpt lat="30.884615051618333" lon="-5.846145357039227"><ele>1027.25</ele><time>2026-03-25T15:14:53.965Z</time></trkpt><trkpt lat="30.88463945636058" lon="-5.846279210492493"><ele>1027.0</ele><time>2026-03-25T15:14:54.965Z</time></trkpt><trkpt lat="30.884648802826053" lon="-5.846418933873392"><ele>1027.0</ele><time>2026-03-25T15:14:55.965Z</time></trkpt><trkpt lat="30.884649662599013" lon="-5.846570800623134"><ele>1027.0</ele><time>2026-03-25T15:14:56.965Z</time></trkpt><trkpt lat="30.884642817338456" lon="-5.846717680068551"><ele>1027.0</ele><time>2026-03-25T15:14:57.965Z</time></trkpt><trkpt lat="30.884638507283306" lon="-5.846858024697093"><ele>1027.0</ele><time>2026-03-25T15:14:58.965Z</time></trkpt><trkpt lat="30.884642527071595" lon="-5.846998815331303"><ele>1026.5</ele><time>2026-03-25T15:14:59.965Z</time></trkpt><trkpt lat="30.88465928046452" lon="-5.847154438251581"><ele>1026.0</ele><time>2026-03-25T15:15:00.965Z</time></trkpt><trkpt lat="30.8846844466801" lon="-5.847289084975071"><ele>1025.5</ele><time>2026-03-25T15:15:01.965Z</time></trkpt><trkpt lat="30.88469836631026" lon="-5.847413239565576"><ele>1025.0</ele><time>2026-03-25T15:15:02.965Z</time></trkpt><trkpt lat="30.884715292152933" lon="-5.847535505056962"><ele>1025.0</ele><time>2026-03-25T15:15:03.965Z</time></trkpt><trkpt lat="30.884751198815323" lon="-5.847649897455414"><ele>1025.0</ele><time>2026-03-25T15:15:04.965Z</time></trkpt><trkpt lat="30.884798827068877" lon="-5.847754562836971"><ele>1025.0</ele><time>2026-03-25T15:15:05.965Z</time></trkpt><trkpt lat="30.884827266601672" lon="-5.847870378526348"><ele>1025.0</ele><time>2026-03-25T15:15:06.965Z</time></trkpt><trkpt lat="30.884843071872243" lon="-5.84797820008575"><ele>1025.0</ele><time>2026-03-25T15:15:07.965Z</time></trkpt><trkpt lat="30.88484392947601" lon="-5.848070869396612"><ele>1025.0</ele><time>2026-03-25T15:15:08.965Z</time></trkpt><trkpt lat="30.884847901537142" lon="-5.8481497828778775"><ele>1025.0</ele><time>2026-03-25T15:15:09.965Z</time></trkpt><trkpt lat="30.884852473250188" lon="-5.848227276070815"><ele>1025.0</ele><time>2026-03-25T15:15:10.965Z</time></trkpt><trkpt lat="30.884849023146693" lon="-5.848306227938845"><ele>1025.0</ele><time>2026-03-25T15:15:11.965Z</time></trkpt><trkpt lat="30.884832344811613" lon="-5.848397342566283"><ele>1025.0</ele><time>2026-03-25T15:15:12.965Z</time></trkpt><trkpt lat="30.884801269910675" lon="-5.848483059433709"><ele>1025.0</ele><time>2026-03-25T15:15:13.965Z</time></trkpt><trkpt lat="30.88476298012692" lon="-5.848574736964131"><ele>1025.2</ele><time>2026-03-25T15:15:14.965Z</time></trkpt><trkpt lat="30.884716736972504" lon="-5.848677288675829"><ele>1025.4</ele><time>2026-03-25T15:15:15.965Z</time></trkpt><trkpt lat="30.88465944317604" lon="-5.848787882290751"><ele>1025.6</ele><time>2026-03-25T15:15:16.965Z</time></trkpt><trkpt lat="30.884602423861082" lon="-5.848890137635989"><ele>1025.8</ele><time>2026-03-25T15:15:17.965Z</time></trkpt><trkpt lat="30.88455416838151" lon="-5.8489875439246255"><ele>1026.0</ele><time>2026-03-25T15:15:18.965Z</time></trkpt><trkpt lat="30.8845154637351" lon="-5.849090210824402"><ele>1026.0</ele><time>2026-03-25T15:15:19.965Z</time></trkpt><trkpt lat="30.884491752111035" lon="-5.849194904269614"><ele>1026.0</ele><time>2026-03-25T15:15:20.965Z</time></trkpt><trkpt lat="30.884492393667177" lon="-5.849320116112237"><ele>1026.0</ele><time>2026-03-25T15:15:21.965Z</time></trkpt><trkpt lat="30.88451297494053" lon="-5.849446571412121"><ele>1026.0</ele><time>2026-03-25T15:15:22.965Z</time></trkpt><trkpt lat="30.88455973487265" lon="-5.849564314867212"><ele>1026.0</ele><time>2026-03-25T15:15:23.965Z</time></trkpt><trkpt lat="30.884606145452086" lon="-5.849675155849218"><ele>1026.2</ele><time>2026-03-25T15:15:24.965Z</time></trkpt><trkpt lat="30.884643332701085" lon="-5.849775552675201"><ele>1026.3999999999999</ele><time>2026-03-25T15:15:25.965Z</time></trkpt><trkpt lat="30.88467780696145" lon="-5.849875914179425"><ele>1026.6</ele><time>2026-03-25T15:15:26.965Z</time></trkpt><trkpt lat="30.88470483302241" lon="-5.849984381436754"><ele>1026.8</ele><time>2026-03-25T15:15:27.965Z</time></trkpt><trkpt lat="30.884730065465455" lon="-5.850103136008825"><ele>1027.0</ele><time>2026-03-25T15:15:28.965Z</time></trkpt><trkpt lat="30.88474045019636" lon="-5.850220707603532"><ele>1027.0</ele><time>2026-03-25T15:15:29.965Z</time></trkpt><trkpt lat="30.88472240733312" lon="-5.850351430353048"><ele>1027.0</ele><time>2026-03-25T15:15:30.965Z</time></trkpt><trkpt lat="30.884688712476333" lon="-5.850474679534409"><ele>1027.0</ele><time>2026-03-25T15:15:31.965Z</time></trkpt><trkpt lat="30.884666863052434" lon="-5.850577075878908"><ele>1027.0</ele><time>2026-03-25T15:15:32.965Z</time></trkpt><trkpt lat="30.88466068537333" lon="-5.850683926093687"><ele>1027.0</ele><time>2026-03-25T15:15:33.965Z</time></trkpt><trkpt lat="30.88464655890394" lon="-5.850800771100417"><ele>1027.0</ele><time>2026-03-25T15:15:34.965Z</time></trkpt><trkpt lat="30.884617378490148" lon="-5.850928600214569"><ele>1027.0</ele><time>2026-03-25T15:15:35.965Z</time></trkpt><trkpt lat="30.88456979877694" lon="-5.851040356789727"><ele>1027.0</ele><time>2026-03-25T15:15:36.965Z</time></trkpt><trkpt lat="30.884526810630327" lon="-5.851135002043937"><ele>1027.0</ele><time>2026-03-25T15:15:37.965Z</time></trkpt><trkpt lat="30.88449787285922" lon="-5.851226690669051"><ele>1027.0</ele><time>2026-03-25T15:15:38.965Z</time></trkpt><trkpt lat="30.884477494912762" lon="-5.851316159270022"><ele>1027.0</ele><time>2026-03-25T15:15:39.965Z</time></trkpt><trkpt lat="30.88445797780887" lon="-5.851397835029861"><ele>1027.0</ele><time>2026-03-25T15:15:40.965Z</time></trkpt><trkpt lat="30.884439577968006" lon="-5.851485019647649"><ele>1027.0</ele><time>2026-03-25T15:15:41.965Z</time></trkpt><trkpt lat="30.88442163983713" lon="-5.851561389910304"><ele>1027.0</ele><time>2026-03-25T15:15:42.965Z</time></trkpt><trkpt lat="30.8844383712511" lon="-5.851640808033548"><ele>1027.0</ele><time>2026-03-25T15:15:43.965Z</time></trkpt><trkpt lat="30.884479465306022" lon="-5.8517186838567286"><ele>1027.0</ele><time>2026-03-25T15:15:44.965Z</time></trkpt><trkpt lat="30.88453159702151" lon="-5.851793971364742"><ele>1027.0</ele><time>2026-03-25T15:15:45.965Z</time></trkpt><trkpt lat="30.884579115443493" lon="-5.851882636020936"><ele>1027.2</ele><time>2026-03-25T15:15:46.965Z</time></trkpt><trkpt lat="30.884629717035526" lon="-5.851973048002891"><ele>1027.4</ele><time>2026-03-25T15:15:47.965Z</time></trkpt><trkpt lat="30.884688617390104" lon="-5.852062719403417"><ele>1027.6</ele><time>2026-03-25T15:15:48.965Z</time></trkpt><trkpt lat="30.884755948473675" lon="-5.852154284517799"><ele>1027.8</ele><time>2026-03-25T15:15:49.965Z</time></trkpt><trkpt lat="30.884821947435306" lon="-5.852250575516837"><ele>1028.0</ele><time>2026-03-25T15:15:50.966Z</time></trkpt><trkpt lat="30.884886543470678" lon="-5.8523369742965485"><ele>1028.0</ele><time>2026-03-25T15:15:51.965Z</time></trkpt><trkpt lat="30.884957637707213" lon="-5.852409119362292"><ele>1028.0</ele><time>2026-03-25T15:15:52.965Z</time></trkpt><trkpt lat="30.88501910210373" lon="-5.852467450196834"><ele>1028.0</ele><time>2026-03-25T15:15:53.965Z</time></trkpt><trkpt lat="30.885059365495742" lon="-5.852531139283833"><ele>1028.0</ele><time>2026-03-25T15:15:54.965Z</time></trkpt><trkpt lat="30.88506446630986" lon="-5.852618610018447"><ele>1028.0</ele><time>2026-03-25T15:15:55.965Z</time></trkpt><trkpt lat="30.885049647133595" lon="-5.852705841897931"><ele>1028.0</ele><time>2026-03-25T15:15:56.965Z</time></trkpt><trkpt lat="30.885057118269067" lon="-5.85280411606475"><ele>1028.2</ele><time>2026-03-25T15:15:57.965Z</time></trkpt><trkpt lat="30.88511857330095" lon="-5.852899720429151"><ele>1028.4</ele><time>2026-03-25T15:15:58.965Z</time></trkpt><trkpt lat="30.885190017445534" lon="-5.852973830977613"><ele>1028.6000000000001</ele><time>2026-03-25T15:15:59.965Z</time></trkpt><trkpt lat="30.88528818710454" lon="-5.853050179142849"><ele>1028.8</ele><time>2026-03-25T15:16:00.965Z</time></trkpt><trkpt lat="30.885411702077697" lon="-5.853083133446911"><ele>1029.0</ele><time>2026-03-25T15:16:01.965Z</time></trkpt><trkpt lat="30.88552829007643" lon="-5.853136412071817"><ele>1029.0</ele><time>2026-03-25T15:16:02.965Z</time></trkpt><trkpt lat="30.885618928788453" lon="-5.853216053989423"><ele>1029.0</ele><time>2026-03-25T15:16:03.965Z</time></trkpt><trkpt lat="30.885699319290957" lon="-5.853285629849161"><ele>1029.0</ele><time>2026-03-25T15:16:04.965Z</time></trkpt><trkpt lat="30.885782266649734" lon="-5.853337520970648"><ele>1029.0</ele><time>2026-03-25T15:16:05.965Z</time></trkpt><trkpt lat="30.885852057589435" lon="-5.853406250466053"><ele>1029.0</ele><time>2026-03-25T15:16:06.965Z</time></trkpt><trkpt lat="30.885924430582083" lon="-5.853475307524154"><ele>1029.6000000000001</ele><time>2026-03-25T15:16:07.965Z</time></trkpt><trkpt lat="30.885991940287532" lon="-5.853509475225266"><ele>1030.2</ele><time>2026-03-25T15:16:08.965Z</time></trkpt><trkpt lat="30.886096588019388" lon="-5.85356954895327"><ele>1030.8000000000002</ele><time>2026-03-25T15:16:10.965Z</time></trkpt><trkpt lat="30.886178301717774" lon="-5.853645508949781"><ele>1031.4</ele><time>2026-03-25T15:16:12.965Z</time></trkpt><trkpt lat="30.886206832241772" lon="-5.8537464336276575"><ele>1032.0</ele><time>2026-03-25T15:16:14.965Z</time></trkpt><trkpt lat="30.8861241016759" lon="-5.853835961499338"><ele>1032.0</ele><time>2026-03-25T15:16:16.965Z</time></trkpt><trkpt lat="30.88603835007297" lon="-5.853875280658948"><ele>1032.0</ele><time>2026-03-25T15:16:17.965Z</time></trkpt><trkpt lat="30.88592816425526" lon="-5.853919378425007"><ele>1032.0</ele><time>2026-03-25T15:16:18.965Z</time></trkpt><trkpt lat="30.885814229448076" lon="-5.853981916408462"><ele>1032.0</ele><time>2026-03-25T15:16:19.965Z</time></trkpt><trkpt lat="30.88570115529371" lon="-5.85405810853031"><ele>1032.0</ele><time>2026-03-25T15:16:20.965Z</time></trkpt><trkpt lat="30.88558007983376" lon="-5.8541363840971545"><ele>1032.0</ele><time>2026-03-25T15:16:21.965Z</time></trkpt><trkpt lat="30.885454642168806" lon="-5.854218727850057"><ele>1032.0</ele><time>2026-03-25T15:16:22.965Z</time></trkpt><trkpt lat="30.885332746423046" lon="-5.854304629119059"><ele>1032.0</ele><time>2026-03-25T15:16:23.965Z</time></trkpt><trkpt lat="30.885210051190683" lon="-5.854399404965956"><ele>1031.5</ele><time>2026-03-25T15:16:24.965Z</time></trkpt><trkpt lat="30.885090999056185" lon="-5.854497493705767"><ele>1031.0</ele><time>2026-03-25T15:16:25.965Z</time></trkpt><trkpt lat="30.88498468153488" lon="-5.854587119136709"><ele>1030.5</ele><time>2026-03-25T15:16:26.965Z</time></trkpt><trkpt lat="30.884892238977038" lon="-5.854668668481226"><ele>1030.0</ele><time>2026-03-25T15:16:27.965Z</time></trkpt><trkpt lat="30.88482042231004" lon="-5.854737164419482"><ele>1030.0</ele><time>2026-03-25T15:16:28.965Z</time></trkpt><trkpt lat="30.884771415662637" lon="-5.854804150632557"><ele>1030.0</ele><time>2026-03-25T15:16:29.965Z</time></trkpt><trkpt lat="30.884746960805458" lon="-5.854894830567953"><ele>1030.0</ele><time>2026-03-25T15:16:30.965Z</time></trkpt><trkpt lat="30.884736624661382" lon="-5.85500908563336"><ele>1030.0</ele><time>2026-03-25T15:16:31.965Z</time></trkpt><trkpt lat="30.884765081107936" lon="-5.855153725478336"><ele>1030.0</ele><time>2026-03-25T15:16:32.965Z</time></trkpt><trkpt lat="30.884819488212187" lon="-5.855300538572338"><ele>1030.25</ele><time>2026-03-25T15:16:33.965Z</time></trkpt><trkpt lat="30.88489127730019" lon="-5.855436551254148"><ele>1030.5</ele><time>2026-03-25T15:16:34.965Z</time></trkpt><trkpt lat="30.884952940170024" lon="-5.85557607275531"><ele>1030.75</ele><time>2026-03-25T15:16:35.965Z</time></trkpt><trkpt lat="30.884999247326906" lon="-5.855712649178199"><ele>1031.0</ele><time>2026-03-25T15:16:36.965Z</time></trkpt><trkpt lat="30.8850348320699" lon="-5.855822276705211"><ele>1031.0</ele><time>2026-03-25T15:16:37.965Z</time></trkpt><trkpt lat="30.885058155448874" lon="-5.855912476358741"><ele>1031.0</ele><time>2026-03-25T15:16:38.965Z</time></trkpt><trkpt lat="30.885054316343094" lon="-5.855995209061919"><ele>1031.0</ele><time>2026-03-25T15:16:39.965Z</time></trkpt><trkpt lat="30.885015174769592" lon="-5.8560644486771105"><ele>1031.0</ele><time>2026-03-25T15:16:40.965Z</time></trkpt><trkpt lat="30.88495274796855" lon="-5.856113092952341"><ele>1031.0</ele><time>2026-03-25T15:16:41.965Z</time></trkpt><trkpt lat="30.88486474896289" lon="-5.85613624065272"><ele>1031.0</ele><time>2026-03-25T15:16:42.965Z</time></trkpt><trkpt lat="30.884742167715864" lon="-5.856150726749327"><ele>1031.0</ele><time>2026-03-25T15:16:43.965Z</time></trkpt><trkpt lat="30.884619185779272" lon="-5.856182108967635"><ele>1031.0</ele><time>2026-03-25T15:16:44.965Z</time></trkpt><trkpt lat="30.884503874469683" lon="-5.8562369288969"><ele>1031.0</ele><time>2026-03-25T15:16:45.965Z</time></trkpt><trkpt lat="30.8843800074119" lon="-5.856289574858468"><ele>1031.0</ele><time>2026-03-25T15:16:46.965Z</time></trkpt><trkpt lat="30.88427272347722" lon="-5.856333509794524"><ele>1030.3333333333335</ele><time>2026-03-25T15:16:47.965Z</time></trkpt><trkpt lat="30.884175780556184" lon="-5.856380643056044"><ele>1029.6666666666667</ele><time>2026-03-25T15:16:48.965Z</time></trkpt><trkpt lat="30.884109740257934" lon="-5.856409538917673"><ele>1029.0</ele><time>2026-03-25T15:16:49.965Z</time></trkpt><trkpt lat="30.88403330953838" lon="-5.8564411462369685"><ele>1028.3333333333333</ele><time>2026-03-25T15:16:51.965Z</time></trkpt><trkpt lat="30.883955891160962" lon="-5.856489359008219"><ele>1027.6666666666665</ele><time>2026-03-25T15:16:53.965Z</time></trkpt><trkpt lat="30.88389230883178" lon="-5.856502696243915"><ele>1027.0</ele><time>2026-03-25T15:16:54.965Z</time></trkpt><trkpt lat="30.8838001424144" lon="-5.8565266884583105"><ele>1027.0</ele><time>2026-03-25T15:16:55.965Z</time></trkpt><trkpt lat="30.883697435690294" lon="-5.856556080837412"><ele>1027.0</ele><time>2026-03-25T15:16:56.965Z</time></trkpt><trkpt lat="30.88359578766492" lon="-5.856600264964795"><ele>1027.0</ele><time>2026-03-25T15:16:57.965Z</time></trkpt><trkpt lat="30.883495494394875" lon="-5.856647554161958"><ele>1027.0</ele><time>2026-03-25T15:16:58.965Z</time></trkpt><trkpt lat="30.883410937776" lon="-5.856680745533689"><ele>1027.0</ele><time>2026-03-25T15:16:59.965Z</time></trkpt><trkpt lat="30.883329662222636" lon="-5.8567162939132675"><ele>1027.0</ele><time>2026-03-25T15:17:00.965Z</time></trkpt><trkpt lat="30.883246432129507" lon="-5.85675015282498"><ele>1027.0</ele><time>2026-03-25T15:17:01.965Z</time></trkpt><trkpt lat="30.88316108676506" lon="-5.856777865617684"><ele>1027.0</ele><time>2026-03-25T15:17:02.965Z</time></trkpt><trkpt lat="30.883074821146547" lon="-5.856802662811384"><ele>1027.0</ele><time>2026-03-25T15:17:03.965Z</time></trkpt><trkpt lat="30.882993752266863" lon="-5.856834251169035"><ele>1027.0</ele><time>2026-03-25T15:17:04.965Z</time></trkpt><trkpt lat="30.882909655256096" lon="-5.856869332047583"><ele>1027.0</ele><time>2026-03-25T15:17:05.965Z</time></trkpt><trkpt lat="30.882827779326906" lon="-5.85690000204042"><ele>1027.0</ele><time>2026-03-25T15:17:06.965Z</time></trkpt><trkpt lat="30.882749694926865" lon="-5.8569246570614535"><ele>1027.0</ele><time>2026-03-25T15:17:07.965Z</time></trkpt><trkpt lat="30.882671785218903" lon="-5.856946251534634"><ele>1027.0</ele><time>2026-03-25T15:17:08.965Z</time></trkpt><trkpt lat="30.88260352580738" lon="-5.856972870958189"><ele>1027.0</ele><time>2026-03-25T15:17:09.965Z</time></trkpt><trkpt lat="30.88254090129378" lon="-5.856997287018695"><ele>1027.0</ele><time>2026-03-25T15:17:10.965Z</time></trkpt><trkpt lat="30.882484768743293" lon="-5.857032155661334"><ele>1027.0</ele><time>2026-03-25T15:17:11.965Z</time></trkpt><trkpt lat="30.88243353750203" lon="-5.857078801707143"><ele>1027.0</ele><time>2026-03-25T15:17:12.965Z</time></trkpt><trkpt lat="30.882388462434715" lon="-5.857200068163145"><ele>1027.0</ele><time>2026-03-25T15:17:14.965Z</time></trkpt><trkpt lat="30.882415913742033" lon="-5.857277996676915"><ele>1027.0</ele><time>2026-03-25T15:17:15.965Z</time></trkpt><trkpt lat="30.882479352284427" lon="-5.857352858346507"><ele>1027.0</ele><time>2026-03-25T15:17:16.965Z</time></trkpt><trkpt lat="30.88258088697197" lon="-5.857408401034551"><ele>1027.0</ele><time>2026-03-25T15:17:17.965Z</time></trkpt><trkpt lat="30.882664997841392" lon="-5.8574515089643935"><ele>1027.0</ele><time>2026-03-25T15:17:18.965Z</time></trkpt><trkpt lat="30.88271904071958" lon="-5.857569439474701"><ele>1027.0</ele><time>2026-03-25T15:17:20.965Z</time></trkpt><trkpt lat="30.882719279205453" lon="-5.857678970386229"><ele>1027.0</ele><time>2026-03-25T15:17:21.965Z</time></trkpt><trkpt lat="30.882704387456243" lon="-5.857797749876058"><ele>1027.0</ele><time>2026-03-25T15:17:22.965Z</time></trkpt><trkpt lat="30.88266195285662" lon="-5.857909241268874"><ele>1027.0</ele><time>2026-03-25T15:17:23.965Z</time></trkpt><trkpt lat="30.88260055362821" lon="-5.857996116106243"><ele>1027.0</ele><time>2026-03-25T15:17:24.965Z</time></trkpt><trkpt lat="30.882495440556962" lon="-5.858071000078835"><ele>1026.8</ele><time>2026-03-25T15:17:25.965Z</time></trkpt><trkpt lat="30.882402970655793" lon="-5.8581611378408684"><ele>1026.6</ele><time>2026-03-25T15:17:26.965Z</time></trkpt><trkpt lat="30.882344131424553" lon="-5.858227983667009"><ele>1026.3999999999999</ele><time>2026-03-25T15:17:27.965Z</time></trkpt><trkpt lat="30.882271839767835" lon="-5.858269269861756"><ele>1026.2</ele><time>2026-03-25T15:17:28.965Z</time></trkpt><trkpt lat="30.882165241071686" lon="-5.858241113238291"><ele>1026.0</ele><time>2026-03-25T15:17:29.965Z</time></trkpt><trkpt lat="30.88205068892941" lon="-5.858188543986346"><ele>1026.0</ele><time>2026-03-25T15:17:30.965Z</time></trkpt><trkpt lat="30.881954520928424" lon="-5.858143219441457"><ele>1026.0</ele><time>2026-03-25T15:17:31.965Z</time></trkpt><trkpt lat="30.881892086521354" lon="-5.858126334671565"><ele>1026.0</ele><time>2026-03-25T15:17:32.965Z</time></trkpt><trkpt lat="30.881799597862834" lon="-5.858164587779562"><ele>1026.0</ele><time>2026-03-25T15:17:33.965Z</time></trkpt><trkpt lat="30.8816935711251" lon="-5.858226532476716"><ele>1026.0</ele><time>2026-03-25T15:17:34.965Z</time></trkpt><trkpt lat="30.88161958502271" lon="-5.858266754086213"><ele>1026.1666666666667</ele><time>2026-03-25T15:17:35.965Z</time></trkpt><trkpt lat="30.881563499562393" lon="-5.858341535544028"><ele>1026.3333333333333</ele><time>2026-03-25T15:17:36.965Z</time></trkpt><trkpt lat="30.881500387635125" lon="-5.858425313433384"><ele>1026.5</ele><time>2026-03-25T15:17:37.965Z</time></trkpt><trkpt lat="30.881421099191005" lon="-5.858459392115016"><ele>1026.6666666666665</ele><time>2026-03-25T15:17:38.965Z</time></trkpt><trkpt lat="30.881338825700414" lon="-5.858474518851343"><ele>1026.8333333333333</ele><time>2026-03-25T15:17:39.965Z</time></trkpt><trkpt lat="30.881271031320374" lon="-5.858472935287496"><ele>1027.0</ele><time>2026-03-25T15:17:40.965Z</time></trkpt><trkpt lat="30.88120670037119" lon="-5.858469051131461"><ele>1027.0</ele><time>2026-03-25T15:17:41.965Z</time></trkpt><trkpt lat="30.88113889964995" lon="-5.858442080014325"><ele>1027.0</ele><time>2026-03-25T15:17:42.965Z</time></trkpt><trkpt lat="30.881078540601596" lon="-5.858376899248347"><ele>1027.0</ele><time>2026-03-25T15:17:43.965Z</time></trkpt><trkpt lat="30.881025118970094" lon="-5.858278985098098"><ele>1027.0</ele><time>2026-03-25T15:17:44.965Z</time></trkpt><trkpt lat="30.88094364405022" lon="-5.85822786990366"><ele>1027.0</ele><time>2026-03-25T15:17:45.965Z</time></trkpt><trkpt lat="30.880845228247374" lon="-5.8582385588467645"><ele>1027.0</ele><time>2026-03-25T15:17:46.965Z</time></trkpt><trkpt lat="30.88073764103228" lon="-5.858287228830862"><ele>1026.6</ele><time>2026-03-25T15:17:47.964Z</time></trkpt><trkpt lat="30.880637373936917" lon="-5.858351511133513"><ele>1026.2</ele><time>2026-03-25T15:17:48.964Z</time></trkpt><trkpt lat="30.880543243572497" lon="-5.858392023630871"><ele>1025.8</ele><time>2026-03-25T15:17:49.964Z</time></trkpt><trkpt lat="30.880447194309212" lon="-5.858414481299625"><ele>1025.4</ele><time>2026-03-25T15:17:50.964Z</time></trkpt><trkpt lat="30.88034559024542" lon="-5.8584214736125455"><ele>1025.0</ele><time>2026-03-25T15:17:51.964Z</time></trkpt><trkpt lat="30.880254738058316" lon="-5.858457166988615"><ele>1025.0</ele><time>2026-03-25T15:17:52.964Z</time></trkpt><trkpt lat="30.880179504676388" lon="-5.8585234181564445"><ele>1025.0</ele><time>2026-03-25T15:17:53.965Z</time></trkpt><trkpt lat="30.88011293652969" lon="-5.858582046688657"><ele>1025.0</ele><time>2026-03-25T15:17:54.964Z</time></trkpt><trkpt lat="30.880033776983794" lon="-5.858610700843246"><ele>1025.0</ele><time>2026-03-25T15:17:55.964Z</time></trkpt><trkpt lat="30.87993514811263" lon="-5.858615757036601"><ele>1025.0</ele><time>2026-03-25T15:17:56.964Z</time></trkpt><trkpt lat="30.879841295011886" lon="-5.8586105307937615"><ele>1025.0</ele><time>2026-03-25T15:17:57.965Z</time></trkpt><trkpt lat="30.87974671675298" lon="-5.858596989533342"><ele>1025.0</ele><time>2026-03-25T15:17:58.965Z</time></trkpt><trkpt lat="30.87966801200465" lon="-5.858596632955349"><ele>1025.0</ele><time>2026-03-25T15:17:59.965Z</time></trkpt><trkpt lat="30.879583391669367" lon="-5.85863047711915"><ele>1025.0</ele><time>2026-03-25T15:18:00.964Z</time></trkpt><trkpt lat="30.87950080689601" lon="-5.858697872825075"><ele>1025.0</ele><time>2026-03-25T15:18:01.964Z</time></trkpt><trkpt lat="30.879404902889746" lon="-5.858787023533695"><ele>1025.0</ele><time>2026-03-25T15:18:02.965Z</time></trkpt><trkpt lat="30.879287857514136" lon="-5.85885759574527"><ele>1025.0</ele><time>2026-03-25T15:18:03.965Z</time></trkpt><trkpt lat="30.879175972437046" lon="-5.85891832327111"><ele>1025.0</ele><time>2026-03-25T15:18:04.965Z</time></trkpt><trkpt lat="30.87909243946977" lon="-5.858979888924953"><ele>1025.0</ele><time>2026-03-25T15:18:05.965Z</time></trkpt><trkpt lat="30.879027013656323" lon="-5.859026035439451"><ele>1025.0</ele><time>2026-03-25T15:18:06.965Z</time></trkpt><trkpt lat="30.878953904683723" lon="-5.859082112656111"><ele>1025.0</ele><time>2026-03-25T15:18:07.965Z</time></trkpt><trkpt lat="30.878884980043164" lon="-5.859132447848345"><ele>1025.0</ele><time>2026-03-25T15:18:08.965Z</time></trkpt><trkpt lat="30.87882199653114" lon="-5.8591845934493865"><ele>1025.0</ele><time>2026-03-25T15:18:09.965Z</time></trkpt><trkpt lat="30.878770137072813" lon="-5.859265251373259"><ele>1025.0</ele><time>2026-03-25T15:18:10.965Z</time></trkpt><trkpt lat="30.878715293204383" lon="-5.859387609369517"><ele>1025.0</ele><time>2026-03-25T15:18:11.965Z</time></trkpt><trkpt lat="30.87863946759936" lon="-5.859488666017428"><ele>1024.8</ele><time>2026-03-25T15:18:12.965Z</time></trkpt><trkpt lat="30.878536210032287" lon="-5.8595653788399"><ele>1024.6</ele><time>2026-03-25T15:18:13.965Z</time></trkpt><trkpt lat="30.878460343325596" lon="-5.8596575417135535"><ele>1024.4</ele><time>2026-03-25T15:18:14.965Z</time></trkpt><trkpt lat="30.878424503529587" lon="-5.85975238827568"><ele>1024.2</ele><time>2026-03-25T15:18:15.965Z</time></trkpt><trkpt lat="30.878387952308703" lon="-5.859821839218579"><ele>1024.0</ele><time>2026-03-25T15:18:16.965Z</time></trkpt><trkpt lat="30.87833169103478" lon="-5.85989439626525"><ele>1024.0</ele><time>2026-03-25T15:18:17.965Z</time></trkpt><trkpt lat="30.87825741342649" lon="-5.859963571225194"><ele>1024.0</ele><time>2026-03-25T15:18:18.965Z</time></trkpt><trkpt lat="30.878187164201275" lon="-5.86002427438574"><ele>1024.0</ele><time>2026-03-25T15:18:19.965Z</time></trkpt><trkpt lat="30.878123803918033" lon="-5.860080980979554"><ele>1024.0</ele><time>2026-03-25T15:18:20.965Z</time></trkpt><trkpt lat="30.8780468624949" lon="-5.860162537562627"><ele>1024.0</ele><time>2026-03-25T15:18:21.965Z</time></trkpt><trkpt lat="30.877970001661108" lon="-5.86023782009399"><ele>1024.2</ele><time>2026-03-25T15:18:22.965Z</time></trkpt><trkpt lat="30.877895743262073" lon="-5.860297872087218"><ele>1024.4</ele><time>2026-03-25T15:18:23.965Z</time></trkpt><trkpt lat="30.877817026754375" lon="-5.860371724746589"><ele>1024.6</ele><time>2026-03-25T15:18:24.965Z</time></trkpt><trkpt lat="30.87773369490445" lon="-5.860455431579961"><ele>1024.8</ele><time>2026-03-25T15:18:25.965Z</time></trkpt><trkpt lat="30.87764585359254" lon="-5.860547644446"><ele>1025.0</ele><time>2026-03-25T15:18:26.965Z</time></trkpt><trkpt lat="30.877576776861257" lon="-5.860605750969209"><ele>1025.4</ele><time>2026-03-25T15:18:27.965Z</time></trkpt><trkpt lat="30.8775239716177" lon="-5.860662506145449"><ele>1025.8</ele><time>2026-03-25T15:18:28.965Z</time></trkpt><trkpt lat="30.877466467838673" lon="-5.860743098064463"><ele>1026.2</ele><time>2026-03-25T15:18:29.965Z</time></trkpt><trkpt lat="30.877396301786156" lon="-5.860820721909633"><ele>1026.6</ele><time>2026-03-25T15:18:30.965Z</time></trkpt><trkpt lat="30.877290175217773" lon="-5.860870334941161"><ele>1027.0</ele><time>2026-03-25T15:18:31.965Z</time></trkpt><trkpt lat="30.87721064676377" lon="-5.86090583044"><ele>1026.8333333333333</ele><time>2026-03-25T15:18:32.965Z</time></trkpt><trkpt lat="30.877149823776797" lon="-5.86095172440227"><ele>1026.6666666666665</ele><time>2026-03-25T15:18:33.965Z</time></trkpt><trkpt lat="30.87709480059706" lon="-5.860994796546383"><ele>1026.5</ele><time>2026-03-25T15:18:34.965Z</time></trkpt><trkpt lat="30.877037079342518" lon="-5.861031434745792"><ele>1026.3333333333333</ele><time>2026-03-25T15:18:35.965Z</time></trkpt><trkpt lat="30.876937364973625" lon="-5.861103376462901"><ele>1026.1666666666667</ele><time>2026-03-25T15:18:37.965Z</time></trkpt><trkpt lat="30.87688224637347" lon="-5.861162849842614"><ele>1026.0</ele><time>2026-03-25T15:18:39.965Z</time></trkpt><trkpt lat="30.876883133724466" lon="-5.8612666861777205"><ele>1026.0</ele><time>2026-03-25T15:18:41.965Z</time></trkpt><trkpt lat="30.876814681364813" lon="-5.861344404481531"><ele>1026.0</ele><time>2026-03-25T15:18:43.964Z</time></trkpt><trkpt lat="30.876755649070056" lon="-5.8613724554576105"><ele>1026.0</ele><time>2026-03-25T15:18:44.963Z</time></trkpt><trkpt lat="30.876682967279766" lon="-5.861394473731792"><ele>1026.0</ele><time>2026-03-25T15:18:45.963Z</time></trkpt><trkpt lat="30.876602329419736" lon="-5.861414023206935"><ele>1026.0</ele><time>2026-03-25T15:18:46.962Z</time></trkpt><trkpt lat="30.876529262091804" lon="-5.8614343019559865"><ele>1026.0</ele><time>2026-03-25T15:18:47.962Z</time></trkpt><trkpt lat="30.876450759266863" lon="-5.861469431978995"><ele>1026.6</ele><time>2026-03-25T15:18:48.961Z</time></trkpt><trkpt lat="30.876388484856886" lon="-5.861506336480972"><ele>1027.1999999999998</ele><time>2026-03-25T15:18:49.961Z</time></trkpt><trkpt lat="30.876275368546427" lon="-5.861579335700909"><ele>1027.8000000000002</ele><time>2026-03-25T15:18:51.96Z</time></trkpt><trkpt lat="30.876208788014477" lon="-5.861636270019207"><ele>1028.4</ele><time>2026-03-25T15:18:52.96Z</time></trkpt><trkpt lat="30.87611680510318" lon="-5.86170988710753"><ele>1029.0</ele><time>2026-03-25T15:18:53.96Z</time></trkpt><trkpt lat="30.876047623489406" lon="-5.861783562136385"><ele>1031.5</ele><time>2026-03-25T15:18:54.959Z</time></trkpt><trkpt lat="30.875984266305075" lon="-5.861830672888877"><ele>1034.0</ele><time>2026-03-25T15:18:55.959Z</time></trkpt><trkpt lat="30.875916901336872" lon="-5.861881459455644"><ele>1036.5</ele><time>2026-03-25T15:18:56.959Z</time></trkpt><trkpt lat="30.875865510942106" lon="-5.861938292005728"><ele>1039.0</ele><time>2026-03-25T15:18:57.958Z</time></trkpt><trkpt lat="30.875823908080335" lon="-5.862007694640754"><ele>1041.5</ele><time>2026-03-25T15:18:58.958Z</time></trkpt><trkpt lat="30.875783895031407" lon="-5.862066964199204"><ele>1044.0</ele><time>2026-03-25T15:18:59.958Z</time></trkpt><trkpt lat="30.875697241004747" lon="-5.862150684475174"><ele>1044.6000000000001</ele><time>2026-03-25T15:19:01.958Z</time></trkpt><trkpt lat="30.87564337492102" lon="-5.862204192179448"><ele>1045.2</ele><time>2026-03-25T15:19:03.957Z</time></trkpt><trkpt lat="30.875585594548852" lon="-5.862309839101783"><ele>1045.8000000000002</ele><time>2026-03-25T15:19:05.957Z</time></trkpt><trkpt lat="30.875549600938655" lon="-5.8624213312240405"><ele>1046.4</ele><time>2026-03-25T15:19:07.957Z</time></trkpt><trkpt lat="30.875549991651916" lon="-5.862552840151534"><ele>1047.0</ele><time>2026-03-25T15:19:09.956Z</time></trkpt><trkpt lat="30.875542970021325" lon="-5.862690531196048"><ele>1047.6</ele><time>2026-03-25T15:19:11.956Z</time></trkpt><trkpt lat="30.875482719773302" lon="-5.8628044567403235"><ele>1048.2</ele><time>2026-03-25T15:19:13.956Z</time></trkpt><trkpt lat="30.875394669628335" lon="-5.862877274029597"><ele>1048.8</ele><time>2026-03-25T15:19:15.956Z</time></trkpt><trkpt lat="30.875312256485838" lon="-5.862950392647713"><ele>1049.4</ele><time>2026-03-25T15:19:17.956Z</time></trkpt><trkpt lat="30.875235977596393" lon="-5.863028769034367"><ele>1050.0</ele><time>2026-03-25T15:19:19.955Z</time></trkpt><trkpt lat="30.875148367944732" lon="-5.863131175603456"><ele>1050.0</ele><time>2026-03-25T15:19:21.955Z</time></trkpt><trkpt lat="30.875092023328754" lon="-5.863194158146298"><ele>1050.0</ele><time>2026-03-25T15:19:22.955Z</time></trkpt><trkpt lat="30.875032214562463" lon="-5.863260626527365"><ele>1050.0</ele><time>2026-03-25T15:19:23.955Z</time></trkpt><trkpt lat="30.874978383071326" lon="-5.863328164854495"><ele>1050.0</ele><time>2026-03-25T15:19:24.955Z</time></trkpt><trkpt lat="30.874938055597244" lon="-5.863392161563029"><ele>1050.0</ele><time>2026-03-25T15:19:25.955Z</time></trkpt><trkpt lat="30.874894315552634" lon="-5.863449158501698"><ele>1050.0</ele><time>2026-03-25T15:19:26.955Z</time></trkpt><trkpt lat="30.874815267121384" lon="-5.863561109186701"><ele>1050.0</ele><time>2026-03-25T15:19:28.955Z</time></trkpt><trkpt lat="30.874768971256625" lon="-5.863627485193222"><ele>1050.0</ele><time>2026-03-25T15:19:29.955Z</time></trkpt><trkpt lat="30.874714835217407" lon="-5.863701649158162"><ele>1050.0</ele><time>2026-03-25T15:19:30.955Z</time></trkpt><trkpt lat="30.874668454092873" lon="-5.863764434857327"><ele>1050.0</ele><time>2026-03-25T15:19:31.955Z</time></trkpt><trkpt lat="30.874619085365683" lon="-5.863824626177774"><ele>1050.0</ele><time>2026-03-25T15:19:32.955Z</time></trkpt><trkpt lat="30.87456081635642" lon="-5.863883975456933"><ele>1050.0</ele><time>2026-03-25T15:19:33.955Z</time></trkpt><trkpt lat="30.874500313446237" lon="-5.863934990555013"><ele>1050.0</ele><time>2026-03-25T15:19:34.955Z</time></trkpt><trkpt lat="30.874450920174862" lon="-5.863980731690009"><ele>1050.0</ele><time>2026-03-25T15:19:35.955Z</time></trkpt><trkpt lat="30.874386149741014" lon="-5.86406468534663"><ele>1050.0</ele><time>2026-03-25T15:19:37.955Z</time></trkpt><trkpt lat="30.874326581930838" lon="-5.864107643924321"><ele>1050.0</ele><time>2026-03-25T15:19:39.955Z</time></trkpt><trkpt lat="30.874255556946455" lon="-5.864026096041945"><ele>1050.0</ele><time>2026-03-25T15:19:42.955Z</time></trkpt><trkpt lat="30.87425342967914" lon="-5.86395191536121"><ele>1050.0</ele><time>2026-03-25T15:19:43.955Z</time></trkpt><trkpt lat="30.874244074295532" lon="-5.863861086023802"><ele>1049.6</ele><time>2026-03-25T15:19:44.955Z</time></trkpt><trkpt lat="30.87421919725922" lon="-5.863779190553389"><ele>1049.2</ele><time>2026-03-25T15:19:45.955Z</time></trkpt><trkpt lat="30.874197276221715" lon="-5.863690257499707"><ele>1048.8</ele><time>2026-03-25T15:19:46.955Z</time></trkpt><trkpt lat="30.874179392447477" lon="-5.863614450424467"><ele>1048.4</ele><time>2026-03-25T15:19:47.955Z</time></trkpt><trkpt lat="30.874168376289663" lon="-5.863479784222476"><ele>1048.0</ele><time>2026-03-25T15:19:49.955Z</time></trkpt><trkpt lat="30.87413132751137" lon="-5.863332008296441"><ele>1047.3333333333333</ele><time>2026-03-25T15:19:51.955Z</time></trkpt><trkpt lat="30.87411251308707" lon="-5.863256252979093"><ele>1046.6666666666665</ele><time>2026-03-25T15:19:52.955Z</time></trkpt><trkpt lat="30.87409413074528" lon="-5.863171544244655"><ele>1046.0</ele><time>2026-03-25T15:19:53.954Z</time></trkpt><trkpt lat="30.874092709647655" lon="-5.863092753075277"><ele>1045.3333333333333</ele><time>2026-03-25T15:19:54.954Z</time></trkpt><trkpt lat="30.874081674762316" lon="-5.8629629811107415"><ele>1044.6666666666667</ele><time>2026-03-25T15:19:56.954Z</time></trkpt><trkpt lat="30.874082392022725" lon="-5.8628615558349235"><ele>1044.0</ele><time>2026-03-25T15:19:58.954Z</time></trkpt><trkpt lat="30.87409473182765" lon="-5.862769455741561"><ele>1044.0</ele><time>2026-03-25T15:20:00.954Z</time></trkpt><trkpt lat="30.874112033609432" lon="-5.862680061799837"><ele>1044.0</ele><time>2026-03-25T15:20:03.954Z</time></trkpt><trkpt lat="30.87412975981644" lon="-5.8626060877336705"><ele>1040.0</ele><time>2026-03-25T15:20:06.954Z</time></trkpt><trkpt lat="30.874157422886558" lon="-5.862523677596056"><ele>1040.0</ele><time>2026-03-25T15:20:09.954Z</time></trkpt></trkseg><trkseg><trkpt lat="30.87410941087403" lon="-5.86245375571002"><ele>1040.0</ele><time>2026-03-26T08:04:23.001Z</time></trkpt><trkpt lat="30.87404755925686" lon="-5.862486670246096"><ele>1040.0</ele><time>2026-03-26T08:04:57.002Z</time></trkpt><trkpt lat="30.87402920109704" lon="-5.86256100215639"><ele>1040.0</ele><time>2026-03-26T08:05:01.002Z</time></trkpt><trkpt lat="30.874042177331333" lon="-5.862649175953258"><ele>1040.0</ele><time>2026-03-26T08:05:05.002Z</time></trkpt><trkpt lat="30.874079785491066" lon="-5.862739043826051"><ele>1040.0</ele><time>2026-03-26T08:05:18.002Z</time></trkpt><trkpt lat="30.874044149395253" lon="-5.8628331069940325"><ele>1040.0</ele><time>2026-03-26T08:05:20.002Z</time></trkpt><trkpt lat="30.87402509939807" lon="-5.862942547358631"><ele>1040.6666666666667</ele><time>2026-03-26T08:05:22.002Z</time></trkpt><trkpt lat="30.874029301450342" lon="-5.863063943062492"><ele>1041.3333333333335</ele><time>2026-03-26T08:05:24.002Z</time></trkpt><trkpt lat="30.874036246047627" lon="-5.863143518704863"><ele>1042.0</ele><time>2026-03-26T08:05:25.002Z</time></trkpt><trkpt lat="30.874043269257484" lon="-5.86322179341038"><ele>1042.6666666666667</ele><time>2026-03-26T08:05:26.002Z</time></trkpt><trkpt lat="30.874054994148935" lon="-5.863330905298692"><ele>1043.3333333333333</ele><time>2026-03-26T08:05:28.002Z</time></trkpt><trkpt lat="30.87406650793003" lon="-5.863440993425529"><ele>1044.0</ele><time>2026-03-26T08:05:30.002Z</time></trkpt><trkpt lat="30.874089002770422" lon="-5.86354016166148"><ele>1044.8</ele><time>2026-03-26T08:05:32.002Z</time></trkpt><trkpt lat="30.87412760796013" lon="-5.863682334042123"><ele>1045.6000000000001</ele><time>2026-03-26T08:05:34.002Z</time></trkpt><trkpt lat="30.874156763576643" lon="-5.86381697684113"><ele>1046.4</ele><time>2026-03-26T08:05:36.002Z</time></trkpt><trkpt lat="30.874208675388182" lon="-5.863896196984923"><ele>1047.2</ele><time>2026-03-26T08:05:38.002Z</time></trkpt><trkpt lat="30.87423749716799" lon="-5.863983918995193"><ele>1048.0</ele><time>2026-03-26T08:05:40.002Z</time></trkpt><trkpt lat="30.874236754362833" lon="-5.864070221795033"><ele>1048.0</ele><time>2026-03-26T08:05:42.002Z</time></trkpt><trkpt lat="30.87419261625998" lon="-5.864124370251119"><ele>1048.0</ele><time>2026-03-26T08:05:44.002Z</time></trkpt><trkpt lat="30.8741090434195" lon="-5.864141089654736"><ele>1048.0</ele><time>2026-03-26T08:05:46.002Z</time></trkpt><trkpt lat="30.874017940432495" lon="-5.864140746725934"><ele>1048.0</ele><time>2026-03-26T08:05:48.002Z</time></trkpt><trkpt lat="30.873954459182524" lon="-5.864142023740804"><ele>1048.0</ele><time>2026-03-26T08:05:49.002Z</time></trkpt><trkpt lat="30.87389053694677" lon="-5.8641272593412515"><ele>1048.0</ele><time>2026-03-26T08:05:50.002Z</time></trkpt><trkpt lat="30.873791577078553" lon="-5.864115477760698"><ele>1048.0</ele><time>2026-03-26T08:05:52.002Z</time></trkpt><trkpt lat="30.873694426754337" lon="-5.864109670791791"><ele>1048.0</ele><time>2026-03-26T08:05:54.002Z</time></trkpt><trkpt lat="30.87360831765616" lon="-5.8641100881899755"><ele>1048.0</ele><time>2026-03-26T08:05:56.002Z</time></trkpt><trkpt lat="30.873542817120327" lon="-5.864119231383629"><ele>1048.0</ele><time>2026-03-26T08:05:58.002Z</time></trkpt><trkpt lat="30.873449562818347" lon="-5.864117658007945"><ele>1048.0</ele><time>2026-03-26T08:06:00.002Z</time></trkpt><trkpt lat="30.873346235244593" lon="-5.8640942327607135"><ele>1048.0</ele><time>2026-03-26T08:06:02.002Z</time></trkpt><trkpt lat="30.873264950849773" lon="-5.864118993337965"><ele>1048.0</ele><time>2026-03-26T08:06:04.002Z</time></trkpt><trkpt lat="30.873196853344268" lon="-5.864141663259395"><ele>1048.0</ele><time>2026-03-26T08:06:06.002Z</time></trkpt><trkpt lat="30.873130210280646" lon="-5.864136622563847"><ele>1048.0</ele><time>2026-03-26T08:06:07.002Z</time></trkpt><trkpt lat="30.87305121672694" lon="-5.86414405324663"><ele>1048.0</ele><time>2026-03-26T08:06:08.002Z</time></trkpt><trkpt lat="30.872976583438017" lon="-5.864140230342866"><ele>1048.0</ele><time>2026-03-26T08:06:09.002Z</time></trkpt><trkpt lat="30.872907205109183" lon="-5.8641391724944585"><ele>1048.0</ele><time>2026-03-26T08:06:10.002Z</time></trkpt><trkpt lat="30.87283839622753" lon="-5.86413187997861"><ele>1048.0</ele><time>2026-03-26T08:06:11.002Z</time></trkpt><trkpt lat="30.87274926680497" lon="-5.864134738791957"><ele>1048.0</ele><time>2026-03-26T08:06:12.002Z</time></trkpt><trkpt lat="30.872685417692946" lon="-5.864152199500092"><ele>1048.0</ele><time>2026-03-26T08:06:13.002Z</time></trkpt><trkpt lat="30.872588558816783" lon="-5.864163962528142"><ele>1048.0</ele><time>2026-03-26T08:06:15.002Z</time></trkpt><trkpt lat="30.872514937036527" lon="-5.864166542227045"><ele>1048.0</ele><time>2026-03-26T08:06:17.002Z</time></trkpt><trkpt lat="30.872398905327632" lon="-5.864200325402293"><ele>1048.0</ele><time>2026-03-26T08:06:19.002Z</time></trkpt><trkpt lat="30.872318426439524" lon="-5.864203776862837"><ele>1048.0</ele><time>2026-03-26T08:06:20.002Z</time></trkpt><trkpt lat="30.87224077664647" lon="-5.864214896532331"><ele>1048.2</ele><time>2026-03-26T08:06:21.002Z</time></trkpt><trkpt lat="30.872161472211168" lon="-5.864221640901963"><ele>1048.4</ele><time>2026-03-26T08:06:22.002Z</time></trkpt><trkpt lat="30.872080320801153" lon="-5.8642365138582075"><ele>1048.6000000000001</ele><time>2026-03-26T08:06:23.002Z</time></trkpt><trkpt lat="30.872004146611236" lon="-5.864259470009183"><ele>1048.8</ele><time>2026-03-26T08:06:24.002Z</time></trkpt><trkpt lat="30.871881501032018" lon="-5.864272189572401"><ele>1049.0</ele><time>2026-03-26T08:06:26.002Z</time></trkpt><trkpt lat="30.871795814270527" lon="-5.864281898786503"><ele>1047.8333333333335</ele><time>2026-03-26T08:06:28.002Z</time></trkpt><trkpt lat="30.871720601895955" lon="-5.864315958653008"><ele>1046.6666666666667</ele><time>2026-03-26T08:06:30.002Z</time></trkpt><trkpt lat="30.87167639874516" lon="-5.864374429389492"><ele>1045.5</ele><time>2026-03-26T08:06:46.003Z</time></trkpt><trkpt lat="30.871632744461085" lon="-5.864438224907714"><ele>1044.3333333333333</ele><time>2026-03-26T08:06:49.003Z</time></trkpt><trkpt lat="30.871614817868934" lon="-5.864563888884416"><ele>1043.1666666666665</ele><time>2026-03-26T08:06:51.003Z</time></trkpt><trkpt lat="30.871590740037448" lon="-5.864639888233825"><ele>1042.0</ele><time>2026-03-26T08:06:52.003Z</time></trkpt><trkpt lat="30.871543795897374" lon="-5.864714974217285"><ele>1042.0</ele><time>2026-03-26T08:06:53.003Z</time></trkpt><trkpt lat="30.871479739939364" lon="-5.864785363360849"><ele>1042.0</ele><time>2026-03-26T08:06:54.003Z</time></trkpt><trkpt lat="30.871405826951925" lon="-5.864845011643105"><ele>1042.0</ele><time>2026-03-26T08:06:55.003Z</time></trkpt><trkpt lat="30.871322418231955" lon="-5.864897795818075"><ele>1042.0</ele><time>2026-03-26T08:06:56.003Z</time></trkpt><trkpt lat="30.871232199050326" lon="-5.864947504820242"><ele>1042.0</ele><time>2026-03-26T08:06:57.003Z</time></trkpt><trkpt lat="30.871129749143677" lon="-5.86500379487422"><ele>1042.0</ele><time>2026-03-26T08:06:58.003Z</time></trkpt><trkpt lat="30.871031839509335" lon="-5.865059872100075"><ele>1042.0</ele><time>2026-03-26T08:06:59.003Z</time></trkpt><trkpt lat="30.870938250168635" lon="-5.865112407937687"><ele>1042.0</ele><time>2026-03-26T08:07:00.003Z</time></trkpt><trkpt lat="30.870841240333373" lon="-5.865172443485128"><ele>1042.0</ele><time>2026-03-26T08:07:01.003Z</time></trkpt><trkpt lat="30.87076167432663" lon="-5.865221634881052"><ele>1042.0</ele><time>2026-03-26T08:07:02.003Z</time></trkpt><trkpt lat="30.870688524576394" lon="-5.865278741555898"><ele>1041.0</ele><time>2026-03-26T08:07:03.003Z</time></trkpt><trkpt lat="30.870611515251817" lon="-5.865351774639825"><ele>1040.0</ele><time>2026-03-26T08:07:04.003Z</time></trkpt><trkpt lat="30.870536747815166" lon="-5.865422576611693"><ele>1039.0</ele><time>2026-03-26T08:07:05.003Z</time></trkpt><trkpt lat="30.870467220274133" lon="-5.8654982580193575"><ele>1038.0</ele><time>2026-03-26T08:07:06.003Z</time></trkpt><trkpt lat="30.87040321194526" lon="-5.865582952424317"><ele>1037.0</ele><time>2026-03-26T08:07:07.003Z</time></trkpt><trkpt lat="30.870341554606025" lon="-5.865671993023195"><ele>1037.0</ele><time>2026-03-26T08:07:08.003Z</time></trkpt><trkpt lat="30.87028283754813" lon="-5.865771947420756"><ele>1037.0</ele><time>2026-03-26T08:07:09.003Z</time></trkpt><trkpt lat="30.870230448724715" lon="-5.8658791703974655"><ele>1037.0</ele><time>2026-03-26T08:07:10.003Z</time></trkpt><trkpt lat="30.870174494235478" lon="-5.865992115715414"><ele>1037.0</ele><time>2026-03-26T08:07:11.003Z</time></trkpt><trkpt lat="30.87010960660177" lon="-5.866106172139495"><ele>1037.0</ele><time>2026-03-26T08:07:12.003Z</time></trkpt><trkpt lat="30.87004055267516" lon="-5.866219612893414"><ele>1036.2</ele><time>2026-03-26T08:07:13.003Z</time></trkpt><trkpt lat="30.869976705021358" lon="-5.866332101663126"><ele>1035.4</ele><time>2026-03-26T08:07:14.003Z</time></trkpt><trkpt lat="30.869914586359325" lon="-5.866439701769822"><ele>1034.6</ele><time>2026-03-26T08:07:15.003Z</time></trkpt><trkpt lat="30.8698593660448" lon="-5.866546169879519"><ele>1033.8</ele><time>2026-03-26T08:07:16.003Z</time></trkpt><trkpt lat="30.869816316690653" lon="-5.866662304062551"><ele>1033.0</ele><time>2026-03-26T08:07:17.003Z</time></trkpt><trkpt lat="30.869756921544838" lon="-5.866773404365111"><ele>1032.4</ele><time>2026-03-26T08:07:18.003Z</time></trkpt><trkpt lat="30.869689030722057" lon="-5.866862047228896"><ele>1031.8</ele><time>2026-03-26T08:07:19.003Z</time></trkpt><trkpt lat="30.869648917131034" lon="-5.866939041681645"><ele>1031.2</ele><time>2026-03-26T08:07:20.003Z</time></trkpt><trkpt lat="30.869590095572356" lon="-5.867053924324811"><ele>1030.6</ele><time>2026-03-26T08:07:22.003Z</time></trkpt><trkpt lat="30.86954840105263" lon="-5.867145371092039"><ele>1030.0</ele><time>2026-03-26T08:07:24.003Z</time></trkpt><trkpt lat="30.869544574346058" lon="-5.867228417059342"><ele>1030.0</ele><time>2026-03-26T08:07:26.003Z</time></trkpt><trkpt lat="30.869533967720592" lon="-5.867308737738405"><ele>1030.0</ele><time>2026-03-26T08:07:28.003Z</time></trkpt><trkpt lat="30.869625023062436" lon="-5.867353891172649"><ele>1030.0</ele><time>2026-03-26T08:07:29.003Z</time></trkpt><trkpt lat="30.869573024149968" lon="-5.867412292348785"><ele>1030.0</ele><time>2026-03-26T08:07:30.003Z</time></trkpt><trkpt lat="30.869569315304215" lon="-5.867508297392613"><ele>1030.0</ele><time>2026-03-26T08:07:33.003Z</time></trkpt><trkpt lat="30.869592766500144" lon="-5.867579727147385"><ele>1030.0</ele><time>2026-03-26T08:07:45.003Z</time></trkpt><trkpt lat="30.869669471006677" lon="-5.86763910284871"><ele>1030.1666666666665</ele><time>2026-03-26T08:08:20.004Z</time></trkpt><trkpt lat="30.869609217537278" lon="-5.867613158050746"><ele>1030.3333333333333</ele><time>2026-03-26T08:09:13.004Z</time></trkpt><trkpt lat="30.86956441740994" lon="-5.86767820601849"><ele>1030.5</ele><time>2026-03-26T08:10:43.005Z</time></trkpt><trkpt lat="30.869541590451096" lon="-5.867747651238479"><ele>1030.6666666666667</ele><time>2026-03-26T08:10:47.005Z</time></trkpt><trkpt lat="30.869443528319433" lon="-5.867783173264186"><ele>1030.8333333333335</ele><time>2026-03-26T08:10:49.005Z</time></trkpt><trkpt lat="30.869345249565118" lon="-5.867777251777308"><ele>1031.0</ele><time>2026-03-26T08:10:51.005Z</time></trkpt><trkpt lat="30.86926312602705" lon="-5.867780195387985"><ele>1031.0</ele><time>2026-03-26T08:10:53.005Z</time></trkpt><trkpt lat="30.869202229235395" lon="-5.8678337303965575"><ele>1031.0</ele><time>2026-03-26T08:10:55.005Z</time></trkpt><trkpt lat="30.869115495313004" lon="-5.867974259124686"><ele>1031.0</ele><time>2026-03-26T08:10:57.005Z</time></trkpt><trkpt lat="30.869067857995656" lon="-5.868065767391848"><ele>1031.0</ele><time>2026-03-26T08:10:58.005Z</time></trkpt><trkpt lat="30.86901629388304" lon="-5.868162704888181"><ele>1031.0</ele><time>2026-03-26T08:10:59.005Z</time></trkpt><trkpt lat="30.868960675709477" lon="-5.8682572169246185"><ele>1031.0</ele><time>2026-03-26T08:11:00.005Z</time></trkpt><trkpt lat="30.868903109551365" lon="-5.868363705636889"><ele>1031.0</ele><time>2026-03-26T08:11:01.005Z</time></trkpt><trkpt lat="30.868836540202064" lon="-5.868478486728557"><ele>1031.0</ele><time>2026-03-26T08:11:02.005Z</time></trkpt><trkpt lat="30.86875629472164" lon="-5.8686035922294515"><ele>1031.0</ele><time>2026-03-26T08:11:03.005Z</time></trkpt><trkpt lat="30.86867790753703" lon="-5.868729597397093"><ele>1031.0</ele><time>2026-03-26T08:11:04.005Z</time></trkpt><trkpt lat="30.868602855096537" lon="-5.8688584751623685"><ele>1031.0</ele><time>2026-03-26T08:11:05.005Z</time></trkpt><trkpt lat="30.86853198983542" lon="-5.868985363343063"><ele>1031.0</ele><time>2026-03-26T08:11:06.005Z</time></trkpt><trkpt lat="30.86846122620656" lon="-5.86911876462659"><ele>1031.0</ele><time>2026-03-26T08:11:07.005Z</time></trkpt><trkpt lat="30.868393133746263" lon="-5.869250825350762"><ele>1030.5</ele><time>2026-03-26T08:11:08.005Z</time></trkpt><trkpt lat="30.86832324101681" lon="-5.869380866307495"><ele>1030.0</ele><time>2026-03-26T08:11:09.005Z</time></trkpt><trkpt lat="30.868253264532264" lon="-5.869516138318145"><ele>1029.5</ele><time>2026-03-26T08:11:10.005Z</time></trkpt><trkpt lat="30.868183023419586" lon="-5.869651374879098"><ele>1029.0</ele><time>2026-03-26T08:11:11.005Z</time></trkpt><trkpt lat="30.8681131784864" lon="-5.869792332456227"><ele>1029.0</ele><time>2026-03-26T08:11:12.005Z</time></trkpt><trkpt lat="30.86803947205429" lon="-5.869917810942763"><ele>1029.0</ele><time>2026-03-26T08:11:13.005Z</time></trkpt><trkpt lat="30.867964758342392" lon="-5.870056093266636"><ele>1029.0</ele><time>2026-03-26T08:11:14.005Z</time></trkpt><trkpt lat="30.86789209187616" lon="-5.87019818648342"><ele>1029.0</ele><time>2026-03-26T08:11:15.005Z</time></trkpt><trkpt lat="30.867818133593403" lon="-5.870339362206222"><ele>1029.0</ele><time>2026-03-26T08:11:16.005Z</time></trkpt><trkpt lat="30.867740372778314" lon="-5.870490379687716"><ele>1029.0</ele><time>2026-03-26T08:11:17.005Z</time></trkpt><trkpt lat="30.867666031215307" lon="-5.870632418925886"><ele>1029.0</ele><time>2026-03-26T08:11:18.005Z</time></trkpt><trkpt lat="30.86758612519401" lon="-5.8707855849061525"><ele>1029.0</ele><time>2026-03-26T08:11:19.005Z</time></trkpt><trkpt lat="30.86750331930287" lon="-5.870940409814765"><ele>1029.0</ele><time>2026-03-26T08:11:20.005Z</time></trkpt><trkpt lat="30.867424445725547" lon="-5.871090766480669"><ele>1029.0</ele><time>2026-03-26T08:11:21.005Z</time></trkpt><trkpt lat="30.86734645140536" lon="-5.871237700556234"><ele>1029.0</ele><time>2026-03-26T08:11:22.005Z</time></trkpt><trkpt lat="30.867272026814433" lon="-5.871388407525696"><ele>1029.0</ele><time>2026-03-26T08:11:23.005Z</time></trkpt><trkpt lat="30.86719547576078" lon="-5.871538498143981"><ele>1029.0</ele><time>2026-03-26T08:11:24.005Z</time></trkpt><trkpt lat="30.8671159882208" lon="-5.871685034389567"><ele>1029.0</ele><time>2026-03-26T08:11:25.005Z</time></trkpt><trkpt lat="30.867039971816318" lon="-5.871833209801189"><ele>1029.0</ele><time>2026-03-26T08:11:26.005Z</time></trkpt><trkpt lat="30.8669606028778" lon="-5.8719804037517624"><ele>1029.0</ele><time>2026-03-26T08:11:27.005Z</time></trkpt><trkpt lat="30.8668807282933" lon="-5.872122785164907"><ele>1029.25</ele><time>2026-03-26T08:11:28.005Z</time></trkpt><trkpt lat="30.866798941083896" lon="-5.872266473652809"><ele>1029.5</ele><time>2026-03-26T08:11:29.005Z</time></trkpt><trkpt lat="30.866713511256748" lon="-5.872408254010605"><ele>1029.75</ele><time>2026-03-26T08:11:30.005Z</time></trkpt><trkpt lat="30.86662555607191" lon="-5.872548371500251"><ele>1030.0</ele><time>2026-03-26T08:11:31.005Z</time></trkpt><trkpt lat="30.866530589224027" lon="-5.872684997962616"><ele>1028.6666666666665</ele><time>2026-03-26T08:11:32.005Z</time></trkpt><trkpt lat="30.866432773346403" lon="-5.872822449411844"><ele>1027.3333333333333</ele><time>2026-03-26T08:11:33.005Z</time></trkpt><trkpt lat="30.86633036198866" lon="-5.872960751282838"><ele>1026.0</ele><time>2026-03-26T08:11:34.005Z</time></trkpt><trkpt lat="30.86622294913105" lon="-5.873105587392712"><ele>1026.0</ele><time>2026-03-26T08:11:35.005Z</time></trkpt><trkpt lat="30.8661153043844" lon="-5.87324597958831"><ele>1026.0</ele><time>2026-03-26T08:11:36.005Z</time></trkpt><trkpt lat="30.866005553513993" lon="-5.8733917996549625"><ele>1026.0</ele><time>2026-03-26T08:11:37.005Z</time></trkpt><trkpt lat="30.865896557684074" lon="-5.873535792918618"><ele>1026.0</ele><time>2026-03-26T08:11:38.005Z</time></trkpt><trkpt lat="30.865791212383193" lon="-5.873677055347477"><ele>1026.0</ele><time>2026-03-26T08:11:39.005Z</time></trkpt><trkpt lat="30.865683900851312" lon="-5.873823359375702"><ele>1026.0</ele><time>2026-03-26T08:11:40.005Z</time></trkpt><trkpt lat="30.8655709146931" lon="-5.873966672370394"><ele>1026.0</ele><time>2026-03-26T08:11:41.005Z</time></trkpt><trkpt lat="30.86546139066753" lon="-5.874114960679388"><ele>1026.0</ele><time>2026-03-26T08:11:42.005Z</time></trkpt><trkpt lat="30.86535691290432" lon="-5.874247940648724"><ele>1026.0</ele><time>2026-03-26T08:11:43.005Z</time></trkpt><trkpt lat="30.86525516558019" lon="-5.874377275250081"><ele>1026.0</ele><time>2026-03-26T08:11:44.005Z</time></trkpt><trkpt lat="30.86515322234375" lon="-5.874517838147266"><ele>1026.0</ele><time>2026-03-26T08:11:45.005Z</time></trkpt><trkpt lat="30.865047188099997" lon="-5.8746508361103"><ele>1026.0</ele><time>2026-03-26T08:11:46.005Z</time></trkpt><trkpt lat="30.86494142037127" lon="-5.874781520509854"><ele>1026.0</ele><time>2026-03-26T08:11:47.005Z</time></trkpt><trkpt lat="30.864834629520935" lon="-5.874926218219105"><ele>1026.0</ele><time>2026-03-26T08:11:48.005Z</time></trkpt><trkpt lat="30.864725525152338" lon="-5.875065905220249"><ele>1026.0</ele><time>2026-03-26T08:11:49.005Z</time></trkpt><trkpt lat="30.864617108974578" lon="-5.8752078393986"><ele>1026.3333333333333</ele><time>2026-03-26T08:11:50.005Z</time></trkpt><trkpt lat="30.864510037743518" lon="-5.8753481557452565"><ele>1026.6666666666665</ele><time>2026-03-26T08:11:51.005Z</time></trkpt><trkpt lat="30.86440317474138" lon="-5.875489279564352"><ele>1027.0</ele><time>2026-03-26T08:11:52.006Z</time></trkpt><trkpt lat="30.86430094087717" lon="-5.875630822748327"><ele>1027.0</ele><time>2026-03-26T08:11:53.006Z</time></trkpt><trkpt lat="30.86420585805454" lon="-5.875774041710377"><ele>1027.0</ele><time>2026-03-26T08:11:54.006Z</time></trkpt><trkpt lat="30.864115739322155" lon="-5.875927552349587"><ele>1027.0</ele><time>2026-03-26T08:11:55.006Z</time></trkpt><trkpt lat="30.864031506826603" lon="-5.876084145424773"><ele>1027.6666666666665</ele><time>2026-03-26T08:11:56.006Z</time></trkpt><trkpt lat="30.863960821037214" lon="-5.876249211886361"><ele>1028.3333333333333</ele><time>2026-03-26T08:11:57.006Z</time></trkpt><trkpt lat="30.863901320984485" lon="-5.87642105518275"><ele>1029.0</ele><time>2026-03-26T08:11:58.006Z</time></trkpt><trkpt lat="30.863855622927165" lon="-5.876600967919318"><ele>1028.6666666666667</ele><time>2026-03-26T08:11:59.006Z</time></trkpt><trkpt lat="30.863818801846598" lon="-5.876793641807654"><ele>1028.3333333333335</ele><time>2026-03-26T08:12:00.006Z</time></trkpt><trkpt lat="30.863790359605325" lon="-5.877009973985988"><ele>1028.0</ele><time>2026-03-26T08:12:01.006Z</time></trkpt><trkpt lat="30.86375786037297" lon="-5.87723110668281"><ele>1028.0</ele><time>2026-03-26T08:12:02.006Z</time></trkpt><trkpt lat="30.86372502298702" lon="-5.8774483547183065"><ele>1028.0</ele><time>2026-03-26T08:12:03.006Z</time></trkpt><trkpt lat="30.863694744678078" lon="-5.877652049609267"><ele>1028.0</ele><time>2026-03-26T08:12:04.006Z</time></trkpt><trkpt lat="30.86366423851721" lon="-5.877850792385363"><ele>1028.6666666666667</ele><time>2026-03-26T08:12:05.006Z</time></trkpt><trkpt lat="30.863634976618314" lon="-5.87804409161829"><ele>1029.3333333333333</ele><time>2026-03-26T08:12:06.006Z</time></trkpt><trkpt lat="30.8636041749396" lon="-5.878237126703073"><ele>1030.0</ele><time>2026-03-26T08:12:07.006Z</time></trkpt><trkpt lat="30.86357448132909" lon="-5.878431996084462"><ele>1030.0</ele><time>2026-03-26T08:12:08.006Z</time></trkpt><trkpt lat="30.863546128516287" lon="-5.878622047105708"><ele>1030.0</ele><time>2026-03-26T08:12:09.006Z</time></trkpt><trkpt lat="30.863517479362358" lon="-5.878806295295305"><ele>1030.0</ele><time>2026-03-26T08:12:10.006Z</time></trkpt><trkpt lat="30.863489150654203" lon="-5.878992877115929"><ele>1030.0</ele><time>2026-03-26T08:12:11.006Z</time></trkpt><trkpt lat="30.86346013621223" lon="-5.8791851098584775"><ele>1030.0</ele><time>2026-03-26T08:12:12.006Z</time></trkpt><trkpt lat="30.863427804450566" lon="-5.879375966896567"><ele>1030.0</ele><time>2026-03-26T08:12:13.006Z</time></trkpt><trkpt lat="30.863400676466423" lon="-5.879570802257266"><ele>1030.0</ele><time>2026-03-26T08:12:14.006Z</time></trkpt><trkpt lat="30.863376159346405" lon="-5.879768426170447"><ele>1030.0</ele><time>2026-03-26T08:12:15.006Z</time></trkpt><trkpt lat="30.86335040092245" lon="-5.879964409928092"><ele>1030.0</ele><time>2026-03-26T08:12:16.006Z</time></trkpt><trkpt lat="30.863327300883196" lon="-5.880158405673281"><ele>1030.0</ele><time>2026-03-26T08:12:17.006Z</time></trkpt><trkpt lat="30.863304566380112" lon="-5.880351544227447"><ele>1030.0</ele><time>2026-03-26T08:12:18.006Z</time></trkpt><trkpt lat="30.863273783516586" lon="-5.880544857813356"><ele>1030.0</ele><time>2026-03-26T08:12:19.006Z</time></trkpt><trkpt lat="30.863247713674937" lon="-5.880740529657294"><ele>1030.6666666666665</ele><time>2026-03-26T08:12:20.006Z</time></trkpt><trkpt lat="30.863221174035782" lon="-5.880938602832074"><ele>1031.3333333333333</ele><time>2026-03-26T08:12:21.006Z</time></trkpt><trkpt lat="30.863193744696897" lon="-5.881141043062997"><ele>1032.0</ele><time>2026-03-26T08:12:22.006Z</time></trkpt><trkpt lat="30.863164421911144" lon="-5.881334113988484"><ele>1032.0</ele><time>2026-03-26T08:12:23.006Z</time></trkpt><trkpt lat="30.863137581851458" lon="-5.881533301674465"><ele>1032.0</ele><time>2026-03-26T08:12:24.006Z</time></trkpt><trkpt lat="30.863113422829628" lon="-5.881734388234391"><ele>1032.0</ele><time>2026-03-26T08:12:25.006Z</time></trkpt><trkpt lat="30.86307886957633" lon="-5.88193752511483"><ele>1032.0</ele><time>2026-03-26T08:12:26.006Z</time></trkpt><trkpt lat="30.86303538638329" lon="-5.882127063314818"><ele>1032.0</ele><time>2026-03-26T08:12:27.006Z</time></trkpt><trkpt lat="30.86298173205237" lon="-5.882309359041043"><ele>1032.0</ele><time>2026-03-26T08:12:28.006Z</time></trkpt><trkpt lat="30.862924499252138" lon="-5.882490194906602"><ele>1032.0</ele><time>2026-03-26T08:12:29.006Z</time></trkpt><trkpt lat="30.86286158905677" lon="-5.882662252025988"><ele>1032.0</ele><time>2026-03-26T08:12:30.006Z</time></trkpt><trkpt lat="30.8628024237776" lon="-5.882840415084077"><ele>1032.0</ele><time>2026-03-26T08:12:31.006Z</time></trkpt><trkpt lat="30.86273576278125" lon="-5.883012620985081"><ele>1032.0</ele><time>2026-03-26T08:12:32.006Z</time></trkpt><trkpt lat="30.86267208660412" lon="-5.883192288437968"><ele>1032.0</ele><time>2026-03-26T08:12:33.006Z</time></trkpt><trkpt lat="30.862609569693493" lon="-5.883376853818815"><ele>1032.0</ele><time>2026-03-26T08:12:34.006Z</time></trkpt><trkpt lat="30.862547899577365" lon="-5.883564710606464"><ele>1032.3333333333333</ele><time>2026-03-26T08:12:35.006Z</time></trkpt><trkpt lat="30.862487131962812" lon="-5.88375152496372"><ele>1032.6666666666665</ele><time>2026-03-26T08:12:36.006Z</time></trkpt><trkpt lat="30.862436678040428" lon="-5.8839436067285975"><ele>1033.0</ele><time>2026-03-26T08:12:37.006Z</time></trkpt><trkpt lat="30.86236974594926" lon="-5.884122310174774"><ele>1033.0</ele><time>2026-03-26T08:12:38.006Z</time></trkpt><trkpt lat="30.862309166852913" lon="-5.884295192177524"><ele>1033.0</ele><time>2026-03-26T08:12:39.006Z</time></trkpt><trkpt lat="30.86224421910999" lon="-5.884464644804483"><ele>1033.0</ele><time>2026-03-26T08:12:40.006Z</time></trkpt><trkpt lat="30.862187669717166" lon="-5.884641383687012"><ele>1033.0</ele><time>2026-03-26T08:12:41.006Z</time></trkpt><trkpt lat="30.86212951885094" lon="-5.884822231903713"><ele>1033.0</ele><time>2026-03-26T08:12:42.006Z</time></trkpt><trkpt lat="30.86207005002457" lon="-5.885000800041055"><ele>1033.0</ele><time>2026-03-26T08:12:43.006Z</time></trkpt><trkpt lat="30.862012088014065" lon="-5.885173275856735"><ele>1033.0</ele><time>2026-03-26T08:12:44.006Z</time></trkpt><trkpt lat="30.86195159780671" lon="-5.885346135295415"><ele>1033.0</ele><time>2026-03-26T08:12:45.006Z</time></trkpt><trkpt lat="30.86189356970512" lon="-5.885520733332696"><ele>1033.0</ele><time>2026-03-26T08:12:46.006Z</time></trkpt><trkpt lat="30.86183787602588" lon="-5.885700081091961"><ele>1032.6666666666665</ele><time>2026-03-26T08:12:47.006Z</time></trkpt><trkpt lat="30.861778892098798" lon="-5.885874830162765"><ele>1032.3333333333333</ele><time>2026-03-26T08:12:48.006Z</time></trkpt><trkpt lat="30.861720477862114" lon="-5.8860544287288485"><ele>1032.0</ele><time>2026-03-26T08:12:49.006Z</time></trkpt><trkpt lat="30.861661525424857" lon="-5.886230872145267"><ele>1033.0</ele><time>2026-03-26T08:12:50.006Z</time></trkpt><trkpt lat="30.861601402299886" lon="-5.886405309563463"><ele>1034.0</ele><time>2026-03-26T08:12:51.006Z</time></trkpt><trkpt lat="30.861546797458352" lon="-5.88658119587482"><ele>1035.0</ele><time>2026-03-26T08:12:52.006Z</time></trkpt><trkpt lat="30.861493568896485" lon="-5.886751847066569"><ele>1035.3333333333333</ele><time>2026-03-26T08:12:53.006Z</time></trkpt><trkpt lat="30.861437801023584" lon="-5.886915691119265"><ele>1035.6666666666665</ele><time>2026-03-26T08:12:54.006Z</time></trkpt><trkpt lat="30.86138121397081" lon="-5.887083393320433"><ele>1036.0</ele><time>2026-03-26T08:12:55.006Z</time></trkpt><trkpt lat="30.861323067104674" lon="-5.887252525728989"><ele>1036.0</ele><time>2026-03-26T08:12:56.006Z</time></trkpt><trkpt lat="30.861263187618924" lon="-5.8874196891065065"><ele>1036.0</ele><time>2026-03-26T08:12:57.006Z</time></trkpt><trkpt lat="30.861204411693713" lon="-5.88759426318416"><ele>1036.0</ele><time>2026-03-26T08:12:58.006Z</time></trkpt><trkpt lat="30.861143929572165" lon="-5.887768365063224"><ele>1035.3333333333333</ele><time>2026-03-26T08:12:59.006Z</time></trkpt><trkpt lat="30.861090405735396" lon="-5.887944536005005"><ele>1034.6666666666667</ele><time>2026-03-26T08:13:00.006Z</time></trkpt><trkpt lat="30.861039513656262" lon="-5.888120546347281"><ele>1034.0</ele><time>2026-03-26T08:13:01.006Z</time></trkpt><trkpt lat="30.860988516266417" lon="-5.888288909222932"><ele>1033.75</ele><time>2026-03-26T08:13:02.006Z</time></trkpt><trkpt lat="30.860933088292885" lon="-5.8884437723999055"><ele>1033.5</ele><time>2026-03-26T08:13:03.006Z</time></trkpt><trkpt lat="30.860884408180542" lon="-5.8885933082815285"><ele>1033.25</ele><time>2026-03-26T08:13:04.006Z</time></trkpt><trkpt lat="30.860833268017526" lon="-5.888746758746803"><ele>1033.0</ele><time>2026-03-26T08:13:05.006Z</time></trkpt><trkpt lat="30.86077287679926" lon="-5.888896925850148"><ele>1033.0</ele><time>2026-03-26T08:13:06.006Z</time></trkpt><trkpt lat="30.860712110606066" lon="-5.8890513068652695"><ele>1033.0</ele><time>2026-03-26T08:13:07.006Z</time></trkpt><trkpt lat="30.86065670390324" lon="-5.889198787149091"><ele>1033.0</ele><time>2026-03-26T08:13:08.006Z</time></trkpt><trkpt lat="30.860616845379045" lon="-5.889348240510043"><ele>1033.0</ele><time>2026-03-26T08:13:09.006Z</time></trkpt><trkpt lat="30.860569475770607" lon="-5.889499742434628"><ele>1033.5</ele><time>2026-03-26T08:13:10.006Z</time></trkpt><trkpt lat="30.86052765818527" lon="-5.889647076800194"><ele>1034.0</ele><time>2026-03-26T08:13:11.006Z</time></trkpt><trkpt lat="30.86049317157649" lon="-5.889784066402512"><ele>1034.5</ele><time>2026-03-26T08:13:12.006Z</time></trkpt><trkpt lat="30.860454139883146" lon="-5.889906172860872"><ele>1035.0</ele><time>2026-03-26T08:13:13.006Z</time></trkpt><trkpt lat="30.86041112242708" lon="-5.89001925692366"><ele>1035.4</ele><time>2026-03-26T08:13:14.006Z</time></trkpt><trkpt lat="30.86037963918075" lon="-5.890116166262957"><ele>1035.8</ele><time>2026-03-26T08:13:15.006Z</time></trkpt><trkpt lat="30.860345902367367" lon="-5.890201493892721"><ele>1036.2</ele><time>2026-03-26T08:13:16.006Z</time></trkpt><trkpt lat="30.860325522210918" lon="-5.890287464697692"><ele>1036.6</ele><time>2026-03-26T08:13:17.006Z</time></trkpt><trkpt lat="30.860284197743855" lon="-5.890401237722921"><ele>1037.0</ele><time>2026-03-26T08:13:19.006Z</time></trkpt><trkpt lat="30.86024796698965" lon="-5.890512839654651"><ele>1037.0</ele><time>2026-03-26T08:13:21.006Z</time></trkpt><trkpt lat="30.860203778720802" lon="-5.890612250627049"><ele>1037.0</ele><time>2026-03-26T08:13:23.006Z</time></trkpt><trkpt lat="30.860167541226982" lon="-5.890692273492646"><ele>1037.0</ele><time>2026-03-26T08:13:25.006Z</time></trkpt><trkpt lat="30.86012841820184" lon="-5.890795314981985"><ele>1037.0</ele><time>2026-03-26T08:13:27.006Z</time></trkpt><trkpt lat="30.860082776338942" lon="-5.890925722845343"><ele>1037.0</ele><time>2026-03-26T08:13:29.006Z</time></trkpt><trkpt lat="30.860059484942745" lon="-5.891011919361688"><ele>1036.8</ele><time>2026-03-26T08:13:30.006Z</time></trkpt><trkpt lat="30.860032887069544" lon="-5.891091032104668"><ele>1036.6</ele><time>2026-03-26T08:13:31.006Z</time></trkpt><trkpt lat="30.859993878349034" lon="-5.891204802108584"><ele>1036.3999999999999</ele><time>2026-03-26T08:13:32.006Z</time></trkpt><trkpt lat="30.859945433166747" lon="-5.8913359128812886"><ele>1036.2</ele><time>2026-03-26T08:13:33.006Z</time></trkpt><trkpt lat="30.859890171674962" lon="-5.891491910160668"><ele>1036.0</ele><time>2026-03-26T08:13:34.006Z</time></trkpt><trkpt lat="30.85983827574356" lon="-5.891637716006182"><ele>1036.0</ele><time>2026-03-26T08:13:35.006Z</time></trkpt><trkpt lat="30.859792896319995" lon="-5.891776067911565"><ele>1036.0</ele><time>2026-03-26T08:13:36.006Z</time></trkpt><trkpt lat="30.85974616856549" lon="-5.891917550998777"><ele>1036.0</ele><time>2026-03-26T08:13:37.006Z</time></trkpt><trkpt lat="30.859699545145688" lon="-5.892059358947318"><ele>1036.0</ele><time>2026-03-26T08:13:38.006Z</time></trkpt><trkpt lat="30.859649448426286" lon="-5.8922072877036324"><ele>1036.0</ele><time>2026-03-26T08:13:39.007Z</time></trkpt><trkpt lat="30.85959517783376" lon="-5.892368037544968"><ele>1036.0</ele><time>2026-03-26T08:13:40.007Z</time></trkpt><trkpt lat="30.85953939732239" lon="-5.892529984414312"><ele>1036.0</ele><time>2026-03-26T08:13:41.007Z</time></trkpt><trkpt lat="30.859479132212403" lon="-5.89269704077135"><ele>1036.6666666666665</ele><time>2026-03-26T08:13:42.007Z</time></trkpt><trkpt lat="30.859403775713275" lon="-5.892888068948453"><ele>1037.3333333333333</ele><time>2026-03-26T08:13:43.007Z</time></trkpt><trkpt lat="30.85932199823248" lon="-5.893103005935462"><ele>1038.0</ele><time>2026-03-26T08:13:44.007Z</time></trkpt><trkpt lat="30.859253980674954" lon="-5.89330356434118"><ele>1038.3333333333333</ele><time>2026-03-26T08:13:45.007Z</time></trkpt><trkpt lat="30.859199960647835" lon="-5.8935001428031795"><ele>1038.6666666666665</ele><time>2026-03-26T08:13:46.007Z</time></trkpt><trkpt lat="30.859145151005777" lon="-5.893689855714061"><ele>1039.0</ele><time>2026-03-26T08:13:47.007Z</time></trkpt><trkpt lat="30.859087343794677" lon="-5.893873679796298"><ele>1039.0</ele><time>2026-03-26T08:13:48.007Z</time></trkpt><trkpt lat="30.85903396700739" lon="-5.8940462972916565"><ele>1039.0</ele><time>2026-03-26T08:13:49.007Z</time></trkpt><trkpt lat="30.85897871022324" lon="-5.89420830313786"><ele>1039.0</ele><time>2026-03-26T08:13:50.007Z</time></trkpt><trkpt lat="30.85892276222214" lon="-5.894375290000413"><ele>1040.0</ele><time>2026-03-26T08:13:51.007Z</time></trkpt><trkpt lat="30.858866755768528" lon="-5.894547603223838"><ele>1041.0</ele><time>2026-03-26T08:13:52.007Z</time></trkpt><trkpt lat="30.85881101859762" lon="-5.89472074442744"><ele>1042.0</ele><time>2026-03-26T08:13:53.007Z</time></trkpt><trkpt lat="30.858754328197644" lon="-5.894894266901148"><ele>1042.0</ele><time>2026-03-26T08:13:54.007Z</time></trkpt><trkpt lat="30.85869627817932" lon="-5.895068785023093"><ele>1042.0</ele><time>2026-03-26T08:13:55.007Z</time></trkpt><trkpt lat="30.85863946528114" lon="-5.895244208829232"><ele>1042.0</ele><time>2026-03-26T08:13:56.007Z</time></trkpt><trkpt lat="30.85858096167203" lon="-5.895419895459132"><ele>1042.3333333333333</ele><time>2026-03-26T08:13:57.007Z</time></trkpt><trkpt lat="30.858522379544766" lon="-5.895603195264447"><ele>1042.6666666666667</ele><time>2026-03-26T08:13:58.007Z</time></trkpt><trkpt lat="30.85846150512587" lon="-5.8957909166821185"><ele>1043.0</ele><time>2026-03-26T08:13:59.007Z</time></trkpt><trkpt lat="30.858396900707657" lon="-5.895978789459012"><ele>1043.0</ele><time>2026-03-26T08:14:00.007Z</time></trkpt><trkpt lat="30.858335070101152" lon="-5.896171089530306"><ele>1043.0</ele><time>2026-03-26T08:14:01.007Z</time></trkpt><trkpt lat="30.858269423084053" lon="-5.896364574049802"><ele>1043.0</ele><time>2026-03-26T08:14:02.007Z</time></trkpt><trkpt lat="30.858203330098778" lon="-5.896556936467324"><ele>1043.0</ele><time>2026-03-26T08:14:03.007Z</time></trkpt><trkpt lat="30.858139113259938" lon="-5.896749521281244"><ele>1043.0</ele><time>2026-03-26T08:14:04.007Z</time></trkpt><trkpt lat="30.858074433231636" lon="-5.896945688317193"><ele>1043.0</ele><time>2026-03-26T08:14:05.007Z</time></trkpt><trkpt lat="30.858008620887244" lon="-5.8971439048282885"><ele>1043.0</ele><time>2026-03-26T08:14:06.007Z</time></trkpt><trkpt lat="30.85794012982339" lon="-5.8973432063504"><ele>1043.0</ele><time>2026-03-26T08:14:07.007Z</time></trkpt><trkpt lat="30.857873905438144" lon="-5.897546261704145"><ele>1043.0</ele><time>2026-03-26T08:14:08.007Z</time></trkpt><trkpt lat="30.857805114878573" lon="-5.897752031070767"><ele>1043.0</ele><time>2026-03-26T08:14:09.007Z</time></trkpt><trkpt lat="30.857735214142625" lon="-5.897959805916946"><ele>1043.0</ele><time>2026-03-26T08:14:10.007Z</time></trkpt><trkpt lat="30.85766667241475" lon="-5.898166805255198"><ele>1043.0</ele><time>2026-03-26T08:14:11.007Z</time></trkpt><trkpt lat="30.857597186008434" lon="-5.89837342893972"><ele>1043.0</ele><time>2026-03-26T08:14:12.007Z</time></trkpt><trkpt lat="30.85752641740027" lon="-5.89857954803687"><ele>1043.0</ele><time>2026-03-26T08:14:13.007Z</time></trkpt><trkpt lat="30.857454358287352" lon="-5.898784545500079"><ele>1043.0</ele><time>2026-03-26T08:14:14.007Z</time></trkpt><trkpt lat="30.857380488897288" lon="-5.898992987789435"><ele>1043.0</ele><time>2026-03-26T08:14:15.007Z</time></trkpt><trkpt lat="30.85730251239107" lon="-5.899201683065121"><ele>1043.0</ele><time>2026-03-26T08:14:16.007Z</time></trkpt><trkpt lat="30.857220238015756" lon="-5.899409960509403"><ele>1043.0</ele><time>2026-03-26T08:14:17.007Z</time></trkpt><trkpt lat="30.857135386755903" lon="-5.899617947160375"><ele>1043.6666666666667</ele><time>2026-03-26T08:14:18.007Z</time></trkpt><trkpt lat="30.857050320535816" lon="-5.899826940745822"><ele>1044.3333333333333</ele><time>2026-03-26T08:14:19.007Z</time></trkpt><trkpt lat="30.856963929867714" lon="-5.90003125125423"><ele>1045.0</ele><time>2026-03-26T08:14:20.007Z</time></trkpt><trkpt lat="30.856877439435543" lon="-5.900233629601328"><ele>1045.3333333333333</ele><time>2026-03-26T08:14:21.007Z</time></trkpt><trkpt lat="30.85679588673141" lon="-5.900428839266533"><ele>1045.6666666666667</ele><time>2026-03-26T08:14:22.007Z</time></trkpt><trkpt lat="30.856716653555388" lon="-5.900621881475752"><ele>1046.0</ele><time>2026-03-26T08:14:23.007Z</time></trkpt><trkpt lat="30.85663802813031" lon="-5.900809246151337"><ele>1045.6666666666667</ele><time>2026-03-26T08:14:24.007Z</time></trkpt><trkpt lat="30.856563434133875" lon="-5.900992978810431"><ele>1045.3333333333333</ele><time>2026-03-26T08:14:25.007Z</time></trkpt><trkpt lat="30.85648898581426" lon="-5.901174921963409"><ele>1045.0</ele><time>2026-03-26T08:14:26.007Z</time></trkpt><trkpt lat="30.856410822913734" lon="-5.901358102412051"><ele>1045.0</ele><time>2026-03-26T08:14:27.007Z</time></trkpt><trkpt lat="30.856335535336232" lon="-5.901539647720143"><ele>1045.0</ele><time>2026-03-26T08:14:28.007Z</time></trkpt><trkpt lat="30.85625617795987" lon="-5.901727335833597"><ele>1045.0</ele><time>2026-03-26T08:14:29.007Z</time></trkpt><trkpt lat="30.856174684066772" lon="-5.901915864775132"><ele>1044.3333333333333</ele><time>2026-03-26T08:14:30.007Z</time></trkpt><trkpt lat="30.856097143413056" lon="-5.902111130263729"><ele>1043.6666666666667</ele><time>2026-03-26T08:14:31.007Z</time></trkpt><trkpt lat="30.856017705546265" lon="-5.90230487244021"><ele>1043.0</ele><time>2026-03-26T08:14:32.007Z</time></trkpt><trkpt lat="30.855941553837653" lon="-5.902497995969043"><ele>1043.3333333333335</ele><time>2026-03-26T08:14:33.007Z</time></trkpt><trkpt lat="30.855861368721452" lon="-5.9026895717674"><ele>1043.6666666666667</ele><time>2026-03-26T08:14:34.007Z</time></trkpt><trkpt lat="30.855781262655846" lon="-5.902878067772861"><ele>1044.0</ele><time>2026-03-26T08:14:35.007Z</time></trkpt><trkpt lat="30.855703093297496" lon="-5.903066950738026"><ele>1044.0</ele><time>2026-03-26T08:14:36.007Z</time></trkpt><trkpt lat="30.85562382083019" lon="-5.903255098105142"><ele>1044.0</ele><time>2026-03-26T08:14:37.007Z</time></trkpt><trkpt lat="30.855544727952026" lon="-5.9034459976563936"><ele>1044.0</ele><time>2026-03-26T08:14:38.007Z</time></trkpt><trkpt lat="30.85546313716024" lon="-5.903639581791841"><ele>1043.6666666666667</ele><time>2026-03-26T08:14:39.007Z</time></trkpt><trkpt lat="30.855382661317265" lon="-5.903832043328434"><ele>1043.3333333333335</ele><time>2026-03-26T08:14:40.007Z</time></trkpt><trkpt lat="30.855303553664207" lon="-5.9040232304712985"><ele>1043.0</ele><time>2026-03-26T08:14:41.007Z</time></trkpt><trkpt lat="30.855223393508798" lon="-5.904218926378449"><ele>1043.6666666666667</ele><time>2026-03-26T08:14:42.007Z</time></trkpt><trkpt lat="30.855141195216657" lon="-5.904417071407594"><ele>1044.3333333333333</ele><time>2026-03-26T08:14:43.007Z</time></trkpt><trkpt lat="30.855056066342357" lon="-5.9046171658925175"><ele>1045.0</ele><time>2026-03-26T08:14:44.007Z</time></trkpt><trkpt lat="30.85497290829438" lon="-5.904817361736969"><ele>1045.0</ele><time>2026-03-26T08:14:45.007Z</time></trkpt><trkpt lat="30.85488864156619" lon="-5.905020110162763"><ele>1045.0</ele><time>2026-03-26T08:14:46.007Z</time></trkpt><trkpt lat="30.8548042751745" lon="-5.905220269142869"><ele>1045.0</ele><time>2026-03-26T08:14:47.007Z</time></trkpt><trkpt lat="30.85471962784523" lon="-5.905424561843229"><ele>1045.6666666666665</ele><time>2026-03-26T08:14:48.007Z</time></trkpt><trkpt lat="30.854631525256263" lon="-5.905634978779901"><ele>1046.3333333333333</ele><time>2026-03-26T08:14:49.007Z</time></trkpt><trkpt lat="30.854536015424124" lon="-5.905865168481401"><ele>1047.0</ele><time>2026-03-26T08:14:50.007Z</time></trkpt><trkpt lat="30.854442531390426" lon="-5.906088475415061"><ele>1047.3333333333333</ele><time>2026-03-26T08:14:51.007Z</time></trkpt><trkpt lat="30.854357857476263" lon="-5.906285518657738"><ele>1047.6666666666665</ele><time>2026-03-26T08:14:52.007Z</time></trkpt><trkpt lat="30.85427782296471" lon="-5.9064814363968114"><ele>1048.0</ele><time>2026-03-26T08:14:53.007Z</time></trkpt><trkpt lat="30.85419574675903" lon="-5.906676933525613"><ele>1048.0</ele><time>2026-03-26T08:14:54.007Z</time></trkpt><trkpt lat="30.854113740732007" lon="-5.906874280326826"><ele>1048.0</ele><time>2026-03-26T08:14:55.007Z</time></trkpt><trkpt lat="30.85403288694282" lon="-5.9070702643091595"><ele>1048.0</ele><time>2026-03-26T08:14:56.007Z</time></trkpt><trkpt lat="30.853952184558597" lon="-5.907262496475936"><ele>1048.0</ele><time>2026-03-26T08:14:57.007Z</time></trkpt><trkpt lat="30.853879049184076" lon="-5.907445864387455"><ele>1048.0</ele><time>2026-03-26T08:14:58.007Z</time></trkpt><trkpt lat="30.853810802875532" lon="-5.907625238121466"><ele>1048.0</ele><time>2026-03-26T08:14:59.007Z</time></trkpt><trkpt lat="30.85375903328625" lon="-5.907807188621514"><ele>1048.3333333333333</ele><time>2026-03-26T08:15:00.007Z</time></trkpt><trkpt lat="30.85371463309631" lon="-5.908002264463599"><ele>1048.6666666666667</ele><time>2026-03-26T08:15:01.007Z</time></trkpt><trkpt lat="30.85367563601873" lon="-5.908192509612343"><ele>1049.0</ele><time>2026-03-26T08:15:02.007Z</time></trkpt><trkpt lat="30.853634368300188" lon="-5.908389006291778"><ele>1049.3333333333335</ele><time>2026-03-26T08:15:03.007Z</time></trkpt><trkpt lat="30.853595939979513" lon="-5.908592192501212"><ele>1049.6666666666667</ele><time>2026-03-26T08:15:04.007Z</time></trkpt><trkpt lat="30.85356029818957" lon="-5.908800869456602"><ele>1050.0</ele><time>2026-03-26T08:15:05.007Z</time></trkpt><trkpt lat="30.853532285410285" lon="-5.909010291300995"><ele>1050.0</ele><time>2026-03-26T08:15:06.007Z</time></trkpt><trkpt lat="30.85350724943822" lon="-5.909221139445667"><ele>1050.0</ele><time>2026-03-26T08:15:07.007Z</time></trkpt><trkpt lat="30.85348904056564" lon="-5.909445967302733"><ele>1050.0</ele><time>2026-03-26T08:15:08.007Z</time></trkpt><trkpt lat="30.853475487025033" lon="-5.90966910230845"><ele>1050.3333333333333</ele><time>2026-03-26T08:15:09.007Z</time></trkpt><trkpt lat="30.853465917336408" lon="-5.909894998150507"><ele>1050.6666666666665</ele><time>2026-03-26T08:15:10.007Z</time></trkpt><trkpt lat="30.853462352232572" lon="-5.910117733046055"><ele>1051.0</ele><time>2026-03-26T08:15:11.007Z</time></trkpt><trkpt lat="30.853462244126632" lon="-5.910338288508873"><ele>1051.0</ele><time>2026-03-26T08:15:12.007Z</time></trkpt><trkpt lat="30.853461812774544" lon="-5.91055753740443"><ele>1051.0</ele><time>2026-03-26T08:15:13.007Z</time></trkpt><trkpt lat="30.853458794117877" lon="-5.910783160443855"><ele>1051.0</ele><time>2026-03-26T08:15:14.007Z</time></trkpt><trkpt lat="30.853453419062916" lon="-5.911008137039611"><ele>1053.0</ele><time>2026-03-26T08:15:15.007Z</time></trkpt><trkpt lat="30.85344862132259" lon="-5.911231880052766"><ele>1055.0</ele><time>2026-03-26T08:15:16.007Z</time></trkpt><trkpt lat="30.853445993767433" lon="-5.911453721500128"><ele>1057.0</ele><time>2026-03-26T08:15:17.007Z</time></trkpt><trkpt lat="30.853441614111645" lon="-5.911678200230628"><ele>1056.0</ele><time>2026-03-26T08:15:18.007Z</time></trkpt><trkpt lat="30.85344082901851" lon="-5.911895778795152"><ele>1055.0</ele><time>2026-03-26T08:15:19.007Z</time></trkpt><trkpt lat="30.853434883846013" lon="-5.912137523372566"><ele>1054.0</ele><time>2026-03-26T08:15:20.007Z</time></trkpt><trkpt lat="30.85342774598465" lon="-5.912370814654522"><ele>1055.0</ele><time>2026-03-26T08:15:21.007Z</time></trkpt><trkpt lat="30.85342162272398" lon="-5.912604023736999"><ele>1056.0</ele><time>2026-03-26T08:15:22.007Z</time></trkpt><trkpt lat="30.853415383324425" lon="-5.912833891678595"><ele>1057.0</ele><time>2026-03-26T08:15:23.007Z</time></trkpt><trkpt lat="30.85340977095899" lon="-5.913063126675592"><ele>1057.0</ele><time>2026-03-26T08:15:24.007Z</time></trkpt><trkpt lat="30.853406330995423" lon="-5.913290258594211"><ele>1057.0</ele><time>2026-03-26T08:15:25.008Z</time></trkpt><trkpt lat="30.853402598298512" lon="-5.913514358622692"><ele>1057.0</ele><time>2026-03-26T08:15:26.008Z</time></trkpt><trkpt lat="30.85339795514913" lon="-5.913740085363144"><ele>1058.0</ele><time>2026-03-26T08:15:27.008Z</time></trkpt><trkpt lat="30.853394527829284" lon="-5.913965374513953"><ele>1059.0</ele><time>2026-03-26T08:15:28.008Z</time></trkpt><trkpt lat="30.853387304439583" lon="-5.914201835102195"><ele>1060.0</ele><time>2026-03-26T08:15:29.008Z</time></trkpt><trkpt lat="30.85337234134995" lon="-5.914423805265241"><ele>1060.0</ele><time>2026-03-26T08:15:30.008Z</time></trkpt><trkpt lat="30.853350289754886" lon="-5.914655390086787"><ele>1060.0</ele><time>2026-03-26T08:15:31.008Z</time></trkpt><trkpt lat="30.85332105122603" lon="-5.914889327853514"><ele>1060.0</ele><time>2026-03-26T08:15:32.008Z</time></trkpt><trkpt lat="30.853285599642653" lon="-5.915120358766467"><ele>1060.0</ele><time>2026-03-26T08:15:33.008Z</time></trkpt><trkpt lat="30.853247907001663" lon="-5.915347935988188"><ele>1060.0</ele><time>2026-03-26T08:15:34.008Z</time></trkpt><trkpt lat="30.85321000034152" lon="-5.915580902159217"><ele>1060.0</ele><time>2026-03-26T08:15:35.008Z</time></trkpt><trkpt lat="30.853172109689748" lon="-5.915814469349747"><ele>1060.3333333333333</ele><time>2026-03-26T08:15:36.008Z</time></trkpt><trkpt lat="30.853132908912187" lon="-5.9160459448985945"><ele>1060.6666666666667</ele><time>2026-03-26T08:15:37.008Z</time></trkpt><trkpt lat="30.853095759482215" lon="-5.916281130032905"><ele>1061.0</ele><time>2026-03-26T08:15:38.008Z</time></trkpt><trkpt lat="30.853059425752267" lon="-5.916510900304152"><ele>1060.6666666666667</ele><time>2026-03-26T08:15:39.008Z</time></trkpt><trkpt lat="30.853021424410553" lon="-5.9167442125671315"><ele>1060.3333333333333</ele><time>2026-03-26T08:15:40.008Z</time></trkpt><trkpt lat="30.852984260602355" lon="-5.91697691381558"><ele>1060.0</ele><time>2026-03-26T08:15:41.008Z</time></trkpt><trkpt lat="30.85294769251662" lon="-5.917205889174101"><ele>1060.0</ele><time>2026-03-26T08:15:42.008Z</time></trkpt><trkpt lat="30.852911418179996" lon="-5.917436164222775"><ele>1060.0</ele><time>2026-03-26T08:15:43.008Z</time></trkpt><trkpt lat="30.85287802637758" lon="-5.917671114002051"><ele>1060.0</ele><time>2026-03-26T08:15:44.008Z</time></trkpt><trkpt lat="30.852839506462978" lon="-5.917900996142808"><ele>1060.3333333333333</ele><time>2026-03-26T08:15:45.008Z</time></trkpt><trkpt lat="30.852797060841695" lon="-5.918123385851698"><ele>1060.6666666666667</ele><time>2026-03-26T08:15:46.008Z</time></trkpt><trkpt lat="30.85275016409043" lon="-5.918350101608347"><ele>1061.0</ele><time>2026-03-26T08:15:47.008Z</time></trkpt><trkpt lat="30.852690868198227" lon="-5.918573119086578"><ele>1062.3333333333335</ele><time>2026-03-26T08:15:48.008Z</time></trkpt><trkpt lat="30.852622068408962" lon="-5.918793204515017"><ele>1063.6666666666667</ele><time>2026-03-26T08:15:49.008Z</time></trkpt><trkpt lat="30.852554017757342" lon="-5.919011320530586"><ele>1065.0</ele><time>2026-03-26T08:15:50.008Z</time></trkpt><trkpt lat="30.852480749256063" lon="-5.919235242417665"><ele>1065.6666666666667</ele><time>2026-03-26T08:15:51.008Z</time></trkpt><trkpt lat="30.85241034429894" lon="-5.9194533822526285"><ele>1066.3333333333335</ele><time>2026-03-26T08:15:52.008Z</time></trkpt><trkpt lat="30.8523373074597" lon="-5.9196726474249814"><ele>1067.0</ele><time>2026-03-26T08:15:53.008Z</time></trkpt><trkpt lat="30.852265734837328" lon="-5.919901974770679"><ele>1067.0</ele><time>2026-03-26T08:15:54.008Z</time></trkpt><trkpt lat="30.8521929033546" lon="-5.920122635585908"><ele>1067.0</ele><time>2026-03-26T08:15:55.008Z</time></trkpt><trkpt lat="30.8521247138722" lon="-5.920350446710461"><ele>1067.0</ele><time>2026-03-26T08:15:56.008Z</time></trkpt><trkpt lat="30.852052599823452" lon="-5.920572314489314"><ele>1067.0</ele><time>2026-03-26T08:15:57.008Z</time></trkpt><trkpt lat="30.851981966520746" lon="-5.920797141833593"><ele>1067.0</ele><time>2026-03-26T08:15:58.008Z</time></trkpt><trkpt lat="30.851910362074616" lon="-5.9210290067016915"><ele>1067.0</ele><time>2026-03-26T08:15:59.008Z</time></trkpt><trkpt lat="30.8518357457414" lon="-5.921252296900773"><ele>1068.0</ele><time>2026-03-26T08:16:00.008Z</time></trkpt><trkpt lat="30.85176726985974" lon="-5.9214808462903035"><ele>1069.0</ele><time>2026-03-26T08:16:01.008Z</time></trkpt><trkpt lat="30.851696860228127" lon="-5.921710294085565"><ele>1070.0</ele><time>2026-03-26T08:16:02.008Z</time></trkpt><trkpt lat="30.85163024109738" lon="-5.921932729064524"><ele>1070.0</ele><time>2026-03-26T08:16:03.008Z</time></trkpt><trkpt lat="30.851560230205614" lon="-5.922151493483387"><ele>1070.0</ele><time>2026-03-26T08:16:04.008Z</time></trkpt><trkpt lat="30.851489592898634" lon="-5.922369822124647"><ele>1070.0</ele><time>2026-03-26T08:16:05.008Z</time></trkpt><trkpt lat="30.851420769528385" lon="-5.9225935671910985"><ele>1069.3333333333335</ele><time>2026-03-26T08:16:06.008Z</time></trkpt><trkpt lat="30.85135298052698" lon="-5.922816581425859"><ele>1068.6666666666667</ele><time>2026-03-26T08:16:07.008Z</time></trkpt><trkpt lat="30.85128478209762" lon="-5.923041864637193"><ele>1068.0</ele><time>2026-03-26T08:16:08.008Z</time></trkpt><trkpt lat="30.85121473761356" lon="-5.923266462582602"><ele>1067.6666666666667</ele><time>2026-03-26T08:16:09.008Z</time></trkpt><trkpt lat="30.851145053494378" lon="-5.923492146024838"><ele>1067.3333333333335</ele><time>2026-03-26T08:16:10.008Z</time></trkpt><trkpt lat="30.85107298490919" lon="-5.923714658479912"><ele>1067.0</ele><time>2026-03-26T08:16:11.008Z</time></trkpt><trkpt lat="30.85099938787573" lon="-5.9239375817968325"><ele>1067.6666666666667</ele><time>2026-03-26T08:16:12.008Z</time></trkpt><trkpt lat="30.850916615879203" lon="-5.924156857697487"><ele>1068.3333333333333</ele><time>2026-03-26T08:16:13.008Z</time></trkpt><trkpt lat="30.85083096060704" lon="-5.924373412603536"><ele>1069.0</ele><time>2026-03-26T08:16:14.008Z</time></trkpt><trkpt lat="30.85073658073127" lon="-5.924584409802579"><ele>1068.0</ele><time>2026-03-26T08:16:15.008Z</time></trkpt><trkpt lat="30.850632604662128" lon="-5.924796741432346"><ele>1067.0</ele><time>2026-03-26T08:16:16.008Z</time></trkpt><trkpt lat="30.85051984402268" lon="-5.92500397592362"><ele>1066.0</ele><time>2026-03-26T08:16:17.008Z</time></trkpt><trkpt lat="30.850408352353604" lon="-5.925220391230604"><ele>1066.0</ele><time>2026-03-26T08:16:18.008Z</time></trkpt><trkpt lat="30.850295306990812" lon="-5.925431481997792"><ele>1066.0</ele><time>2026-03-26T08:16:19.008Z</time></trkpt><trkpt lat="30.850185128417156" lon="-5.9256389068305255"><ele>1066.0</ele><time>2026-03-26T08:16:20.008Z</time></trkpt><trkpt lat="30.85007567797514" lon="-5.925846543018804"><ele>1066.3333333333333</ele><time>2026-03-26T08:16:21.008Z</time></trkpt><trkpt lat="30.849965689829713" lon="-5.926047525222372"><ele>1066.6666666666667</ele><time>2026-03-26T08:16:22.008Z</time></trkpt><trkpt lat="30.849850983113868" lon="-5.926246531283258"><ele>1067.0</ele><time>2026-03-26T08:16:23.008Z</time></trkpt><trkpt lat="30.84973615037547" lon="-5.9264427655941985"><ele>1067.0</ele><time>2026-03-26T08:16:24.008Z</time></trkpt><trkpt lat="30.849618747927387" lon="-5.926638180487249"><ele>1067.0</ele><time>2026-03-26T08:16:25.008Z</time></trkpt><trkpt lat="30.84950277746843" lon="-5.926836191140309"><ele>1067.0</ele><time>2026-03-26T08:16:26.008Z</time></trkpt><trkpt lat="30.84939005748766" lon="-5.927028937923932"><ele>1067.0</ele><time>2026-03-26T08:16:27.008Z</time></trkpt><trkpt lat="30.849280039173415" lon="-5.927218405542032"><ele>1067.0</ele><time>2026-03-26T08:16:28.008Z</time></trkpt><trkpt lat="30.84917005529072" lon="-5.927405067014841"><ele>1067.0</ele><time>2026-03-26T08:16:29.008Z</time></trkpt><trkpt lat="30.849060964626695" lon="-5.927585815985959"><ele>1067.0</ele><time>2026-03-26T08:16:30.008Z</time></trkpt><trkpt lat="30.84895212406557" lon="-5.9277711960942305"><ele>1067.0</ele><time>2026-03-26T08:16:31.008Z</time></trkpt><trkpt lat="30.84884645832485" lon="-5.927947432184097"><ele>1067.0</ele><time>2026-03-26T08:16:32.008Z</time></trkpt><trkpt lat="30.848748597738265" lon="-5.928110927946658"><ele>1067.0</ele><time>2026-03-26T08:16:33.008Z</time></trkpt><trkpt lat="30.848652882732885" lon="-5.928270918844927"><ele>1067.0</ele><time>2026-03-26T08:16:34.008Z</time></trkpt><trkpt lat="30.84855555203484" lon="-5.928433880577777"><ele>1067.0</ele><time>2026-03-26T08:16:35.008Z</time></trkpt><trkpt lat="30.848456750937324" lon="-5.928603866715622"><ele>1068.3333333333335</ele><time>2026-03-26T08:16:36.008Z</time></trkpt><trkpt lat="30.848356029362705" lon="-5.928772232942204"><ele>1069.6666666666667</ele><time>2026-03-26T08:16:37.008Z</time></trkpt><trkpt lat="30.848252564482014" lon="-5.928946013794009"><ele>1071.0</ele><time>2026-03-26T08:16:38.008Z</time></trkpt><trkpt lat="30.848141990889165" lon="-5.929117544374142"><ele>1071.0</ele><time>2026-03-26T08:16:39.008Z</time></trkpt><trkpt lat="30.848037476149184" lon="-5.929293642098147"><ele>1071.0</ele><time>2026-03-26T08:16:40.008Z</time></trkpt><trkpt lat="30.847929861864277" lon="-5.929474253752072"><ele>1071.0</ele><time>2026-03-26T08:16:41.008Z</time></trkpt><trkpt lat="30.847822455778424" lon="-5.929657754056028"><ele>1071.0</ele><time>2026-03-26T08:16:42.008Z</time></trkpt><trkpt lat="30.847713608492914" lon="-5.929840968223553"><ele>1071.0</ele><time>2026-03-26T08:16:43.008Z</time></trkpt><trkpt lat="30.847606081273938" lon="-5.930024892359954"><ele>1071.0</ele><time>2026-03-26T08:16:44.008Z</time></trkpt><trkpt lat="30.847502016721172" lon="-5.93020934107077"><ele>1071.0</ele><time>2026-03-26T08:16:45.008Z</time></trkpt><trkpt lat="30.847389348899362" lon="-5.9303881203239985"><ele>1071.0</ele><time>2026-03-26T08:16:46.008Z</time></trkpt><trkpt lat="30.84727818199605" lon="-5.930573462184672"><ele>1071.0</ele><time>2026-03-26T08:16:47.008Z</time></trkpt><trkpt lat="30.84716845390288" lon="-5.930758466605057"><ele>1070.3333333333333</ele><time>2026-03-26T08:16:48.008Z</time></trkpt><trkpt lat="30.847063500354995" lon="-5.930939843155526"><ele>1069.6666666666665</ele><time>2026-03-26T08:16:49.008Z</time></trkpt><trkpt lat="30.84695638595565" lon="-5.931125766045648"><ele>1069.0</ele><time>2026-03-26T08:16:50.008Z</time></trkpt><trkpt lat="30.846845985218007" lon="-5.931314439620774"><ele>1070.0</ele><time>2026-03-26T08:16:51.008Z</time></trkpt><trkpt lat="30.846735141136808" lon="-5.931506960309264"><ele>1071.0</ele><time>2026-03-26T08:16:52.008Z</time></trkpt><trkpt lat="30.846624244368236" lon="-5.931697786526849"><ele>1072.0</ele><time>2026-03-26T08:16:53.008Z</time></trkpt><trkpt lat="30.846509265566013" lon="-5.93188873901385"><ele>1072.0</ele><time>2026-03-26T08:16:54.008Z</time></trkpt><trkpt lat="30.846401990858016" lon="-5.932084137323531"><ele>1072.0</ele><time>2026-03-26T08:16:55.008Z</time></trkpt><trkpt lat="30.846298932462606" lon="-5.932281882824819"><ele>1072.0</ele><time>2026-03-26T08:16:56.008Z</time></trkpt><trkpt lat="30.84619764773635" lon="-5.932478872109829"><ele>1072.3333333333333</ele><time>2026-03-26T08:16:57.008Z</time></trkpt><trkpt lat="30.84610530004778" lon="-5.932679222158044"><ele>1072.6666666666667</ele><time>2026-03-26T08:16:58.008Z</time></trkpt><trkpt lat="30.84601397054691" lon="-5.932884855281395"><ele>1073.0</ele><time>2026-03-26T08:16:59.008Z</time></trkpt><trkpt lat="30.84592112450377" lon="-5.933090120475221"><ele>1073.0</ele><time>2026-03-26T08:17:00.008Z</time></trkpt><trkpt lat="30.845828303248968" lon="-5.933302321629084"><ele>1073.0</ele><time>2026-03-26T08:17:01.008Z</time></trkpt><trkpt lat="30.84573438246554" lon="-5.933515879162275"><ele>1073.0</ele><time>2026-03-26T08:17:02.008Z</time></trkpt><trkpt lat="30.845637405754843" lon="-5.933727794689655"><ele>1073.3333333333335</ele><time>2026-03-26T08:17:03.008Z</time></trkpt><trkpt lat="30.84553913137432" lon="-5.933932415772907"><ele>1073.6666666666667</ele><time>2026-03-26T08:17:04.008Z</time></trkpt><trkpt lat="30.845442563812572" lon="-5.934145815630666"><ele>1074.0</ele><time>2026-03-26T08:17:05.008Z</time></trkpt><trkpt lat="30.84533885209553" lon="-5.9343600028361125"><ele>1074.0</ele><time>2026-03-26T08:17:06.008Z</time></trkpt><trkpt lat="30.8452466206218" lon="-5.934567011537543"><ele>1074.0</ele><time>2026-03-26T08:17:07.008Z</time></trkpt><trkpt lat="30.845152782326522" lon="-5.934775307630657"><ele>1074.0</ele><time>2026-03-26T08:17:08.008Z</time></trkpt><trkpt lat="30.845061532079715" lon="-5.934981942106524"><ele>1074.3333333333333</ele><time>2026-03-26T08:17:09.008Z</time></trkpt><trkpt lat="30.844970608252552" lon="-5.9351941305474165"><ele>1074.6666666666665</ele><time>2026-03-26T08:17:10.008Z</time></trkpt><trkpt lat="30.844878456406025" lon="-5.935401701404515"><ele>1075.0</ele><time>2026-03-26T08:17:11.008Z</time></trkpt><trkpt lat="30.84478367054499" lon="-5.935611016611521"><ele>1075.0</ele><time>2026-03-26T08:17:12.009Z</time></trkpt><trkpt lat="30.844690677019585" lon="-5.935820521755635"><ele>1075.0</ele><time>2026-03-26T08:17:13.009Z</time></trkpt><trkpt lat="30.844598335133213" lon="-5.936030629724186"><ele>1075.0</ele><time>2026-03-26T08:17:14.009Z</time></trkpt><trkpt lat="30.84450394085381" lon="-5.936238245689097"><ele>1075.3333333333333</ele><time>2026-03-26T08:17:15.009Z</time></trkpt><trkpt lat="30.844407831542203" lon="-5.936444271979541"><ele>1075.6666666666667</ele><time>2026-03-26T08:17:16.009Z</time></trkpt><trkpt lat="30.84431116166222" lon="-5.936651071856857"><ele>1076.0</ele><time>2026-03-26T08:17:17.009Z</time></trkpt><trkpt lat="30.844213950567816" lon="-5.936861381992878"><ele>1076.3333333333335</ele><time>2026-03-26T08:17:18.009Z</time></trkpt><trkpt lat="30.844106753832595" lon="-5.937061928912224"><ele>1076.6666666666667</ele><time>2026-03-26T08:17:19.009Z</time></trkpt><trkpt lat="30.843990418126047" lon="-5.93725638999065"><ele>1077.0</ele><time>2026-03-26T08:17:20.009Z</time></trkpt><trkpt lat="30.843862198633076" lon="-5.937437673118991"><ele>1077.0</ele><time>2026-03-26T08:17:21.009Z</time></trkpt><trkpt lat="30.843727934738173" lon="-5.937616574771441"><ele>1077.0</ele><time>2026-03-26T08:17:22.009Z</time></trkpt><trkpt lat="30.843583146143608" lon="-5.937784193900895"><ele>1077.0</ele><time>2026-03-26T08:17:23.009Z</time></trkpt><trkpt lat="30.843428072335485" lon="-5.937942956969529"><ele>1077.3333333333333</ele><time>2026-03-26T08:17:24.009Z</time></trkpt><trkpt lat="30.843265596269042" lon="-5.938098650346473"><ele>1077.6666666666665</ele><time>2026-03-26T08:17:25.009Z</time></trkpt><trkpt lat="30.843089582938962" lon="-5.938248155909108"><ele>1078.0</ele><time>2026-03-26T08:17:26.009Z</time></trkpt><trkpt lat="30.842890971088952" lon="-5.938398931332626"><ele>1078.0</ele><time>2026-03-26T08:17:27.009Z</time></trkpt><trkpt lat="30.84268011590481" lon="-5.938548750785542"><ele>1078.0</ele><time>2026-03-26T08:17:28.009Z</time></trkpt><trkpt lat="30.84246351274917" lon="-5.9386896180612405"><ele>1078.0</ele><time>2026-03-26T08:17:29.009Z</time></trkpt><trkpt lat="30.842244246383597" lon="-5.938834978081008"><ele>1078.0</ele><time>2026-03-26T08:17:30.009Z</time></trkpt><trkpt lat="30.842026024100576" lon="-5.938983991978082"><ele>1078.0</ele><time>2026-03-26T08:17:31.009Z</time></trkpt><trkpt lat="30.841816207253043" lon="-5.939128549831228"><ele>1078.0</ele><time>2026-03-26T08:17:32.009Z</time></trkpt><trkpt lat="30.841607805907763" lon="-5.939278360511029"><ele>1079.0</ele><time>2026-03-26T08:17:33.009Z</time></trkpt><trkpt lat="30.841398594749823" lon="-5.93942431349185"><ele>1080.0</ele><time>2026-03-26T08:17:34.009Z</time></trkpt><trkpt lat="30.841185816445073" lon="-5.939569908117883"><ele>1080.0</ele><time>2026-03-26T08:17:35.009Z</time></trkpt><trkpt lat="30.840969069811642" lon="-5.93971913863819"><ele>1080.0</ele><time>2026-03-26T08:17:36.009Z</time></trkpt><trkpt lat="30.840744628746144" lon="-5.939877106746675"><ele>1081.0</ele><time>2026-03-26T08:17:37.009Z</time></trkpt><trkpt lat="30.84052526950463" lon="-5.940028132056919"><ele>1082.0</ele><time>2026-03-26T08:17:38.009Z</time></trkpt><trkpt lat="30.840324430558205" lon="-5.940176242600306"><ele>1082.5</ele><time>2026-03-26T08:17:39.009Z</time></trkpt><trkpt lat="30.840124012411945" lon="-5.940332377891731"><ele>1083.0</ele><time>2026-03-26T08:17:40.009Z</time></trkpt><trkpt lat="30.839928660472946" lon="-5.940497758568273"><ele>1083.0</ele><time>2026-03-26T08:17:41.009Z</time></trkpt><trkpt lat="30.839738359325533" lon="-5.940680343460048"><ele>1083.0</ele><time>2026-03-26T08:17:42.009Z</time></trkpt><trkpt lat="30.83954623226677" lon="-5.940875265765254"><ele>1082.5</ele><time>2026-03-26T08:17:43.009Z</time></trkpt><trkpt lat="30.839360379543" lon="-5.94108417135113"><ele>1082.0</ele><time>2026-03-26T08:17:44.009Z</time></trkpt><trkpt lat="30.83917373522681" lon="-5.941303510627299"><ele>1082.0</ele><time>2026-03-26T08:17:45.009Z</time></trkpt><trkpt lat="30.838992702687452" lon="-5.941521182821484"><ele>1082.0</ele><time>2026-03-26T08:17:46.009Z</time></trkpt><trkpt lat="30.83883361886249" lon="-5.941719675572314"><ele>1082.6666666666667</ele><time>2026-03-26T08:17:47.009Z</time></trkpt><trkpt lat="30.838684960348687" lon="-5.941906991081054"><ele>1083.3333333333333</ele><time>2026-03-26T08:17:48.009Z</time></trkpt><trkpt lat="30.838536985163152" lon="-5.942095732868251"><ele>1084.0</ele><time>2026-03-26T08:17:49.009Z</time></trkpt><trkpt lat="30.838403385137752" lon="-5.942287345619084"><ele>1084.3333333333333</ele><time>2026-03-26T08:17:50.009Z</time></trkpt><trkpt lat="30.83828859002766" lon="-5.942495047940546"><ele>1084.6666666666667</ele><time>2026-03-26T08:17:51.009Z</time></trkpt><trkpt lat="30.838188572709008" lon="-5.942715954321852"><ele>1085.0</ele><time>2026-03-26T08:17:52.009Z</time></trkpt><trkpt lat="30.838103756650874" lon="-5.942943457949287"><ele>1085.0</ele><time>2026-03-26T08:17:53.009Z</time></trkpt><trkpt lat="30.838029400054825" lon="-5.943177724459512"><ele>1085.0</ele><time>2026-03-26T08:17:54.009Z</time></trkpt><trkpt lat="30.837951041177394" lon="-5.9434000123596125"><ele>1085.0</ele><time>2026-03-26T08:17:55.009Z</time></trkpt><trkpt lat="30.83786724485543" lon="-5.9436185324024065"><ele>1085.0</ele><time>2026-03-26T08:17:56.009Z</time></trkpt><trkpt lat="30.837772432486627" lon="-5.943838923162896"><ele>1085.0</ele><time>2026-03-26T08:17:57.009Z</time></trkpt><trkpt lat="30.837674661715358" lon="-5.944058094833699"><ele>1085.0</ele><time>2026-03-26T08:17:58.009Z</time></trkpt><trkpt lat="30.837574414555256" lon="-5.9442729227828215"><ele>1085.0</ele><time>2026-03-26T08:17:59.009Z</time></trkpt><trkpt lat="30.83746855709979" lon="-5.944488907761329"><ele>1085.0</ele><time>2026-03-26T08:18:00.009Z</time></trkpt><trkpt lat="30.837359752942422" lon="-5.94471214770834"><ele>1085.0</ele><time>2026-03-26T08:18:01.009Z</time></trkpt><trkpt lat="30.83724609879653" lon="-5.944930408628978"><ele>1085.0</ele><time>2026-03-26T08:18:02.009Z</time></trkpt><trkpt lat="30.837127615056794" lon="-5.94514602368646"><ele>1085.0</ele><time>2026-03-26T08:18:03.009Z</time></trkpt><trkpt lat="30.837006702699217" lon="-5.9453610729754045"><ele>1085.0</ele><time>2026-03-26T08:18:04.009Z</time></trkpt><trkpt lat="30.836884495379838" lon="-5.94557777606528"><ele>1086.5</ele><time>2026-03-26T08:18:05.009Z</time></trkpt><trkpt lat="30.83676109163325" lon="-5.945794427763261"><ele>1088.0</ele><time>2026-03-26T08:18:06.009Z</time></trkpt><trkpt lat="30.836636351958326" lon="-5.946018309405637"><ele>1088.0</ele><time>2026-03-26T08:18:07.009Z</time></trkpt><trkpt lat="30.836511819773566" lon="-5.946247508688687"><ele>1088.0</ele><time>2026-03-26T08:18:08.009Z</time></trkpt><trkpt lat="30.836379843330917" lon="-5.946484114562175"><ele>1088.0</ele><time>2026-03-26T08:18:09.009Z</time></trkpt><trkpt lat="30.83624604506299" lon="-5.946723385350722"><ele>1088.0</ele><time>2026-03-26T08:18:10.009Z</time></trkpt><trkpt lat="30.836112418661823" lon="-5.946960578474695"><ele>1088.0</ele><time>2026-03-26T08:18:11.009Z</time></trkpt><trkpt lat="30.835989243332612" lon="-5.947187020173268"><ele>1088.0</ele><time>2026-03-26T08:18:12.009Z</time></trkpt><trkpt lat="30.83587097505267" lon="-5.947406209830393"><ele>1089.0</ele><time>2026-03-26T08:18:13.009Z</time></trkpt><trkpt lat="30.835753556134755" lon="-5.947621679091197"><ele>1090.0</ele><time>2026-03-26T08:18:14.009Z</time></trkpt><trkpt lat="30.83563713499647" lon="-5.947831756497547"><ele>1091.0</ele><time>2026-03-26T08:18:15.009Z</time></trkpt><trkpt lat="30.835522458526313" lon="-5.948036990635505"><ele>1091.0</ele><time>2026-03-26T08:18:16.009Z</time></trkpt><trkpt lat="30.8354089910968" lon="-5.948238986649565"><ele>1091.0</ele><time>2026-03-26T08:18:17.009Z</time></trkpt><trkpt lat="30.835295572390972" lon="-5.9484416223353245"><ele>1091.0</ele><time>2026-03-26T08:18:18.009Z</time></trkpt><trkpt lat="30.835181530032905" lon="-5.948647737023194"><ele>1091.0</ele><time>2026-03-26T08:18:19.009Z</time></trkpt><trkpt lat="30.835060916552706" lon="-5.948866951704727"><ele>1091.0</ele><time>2026-03-26T08:18:20.009Z</time></trkpt><trkpt lat="30.834937148447544" lon="-5.94908487314633"><ele>1091.0</ele><time>2026-03-26T08:18:21.009Z</time></trkpt><trkpt lat="30.834813317318936" lon="-5.949295675574607"><ele>1091.0</ele><time>2026-03-26T08:18:22.009Z</time></trkpt><trkpt lat="30.83469218585802" lon="-5.949507040444235"><ele>1091.0</ele><time>2026-03-26T08:18:23.009Z</time></trkpt><trkpt lat="30.83457407953478" lon="-5.949723713106258"><ele>1091.0</ele><time>2026-03-26T08:18:24.009Z</time></trkpt><trkpt lat="30.8344622176338" lon="-5.9499509722355945"><ele>1091.0</ele><time>2026-03-26T08:18:25.009Z</time></trkpt><trkpt lat="30.834361193553782" lon="-5.950206137283435"><ele>1091.0</ele><time>2026-03-26T08:18:26.009Z</time></trkpt><trkpt lat="30.834267939441187" lon="-5.950468013047405"><ele>1091.0</ele><time>2026-03-26T08:18:27.009Z</time></trkpt><trkpt lat="30.834182710463107" lon="-5.950711666926453"><ele>1091.0</ele><time>2026-03-26T08:18:28.009Z</time></trkpt><trkpt lat="30.834104660311297" lon="-5.95093716600981"><ele>1091.0</ele><time>2026-03-26T08:18:29.009Z</time></trkpt><trkpt lat="30.8340235304391" lon="-5.951154253955169"><ele>1091.0</ele><time>2026-03-26T08:18:30.009Z</time></trkpt><trkpt lat="30.833944890598985" lon="-5.951375888931532"><ele>1091.0</ele><time>2026-03-26T08:18:31.009Z</time></trkpt><trkpt lat="30.83386749161322" lon="-5.951593007264028"><ele>1091.0</ele><time>2026-03-26T08:18:32.009Z</time></trkpt><trkpt lat="30.833789029551042" lon="-5.951809954277258"><ele>1091.3333333333335</ele><time>2026-03-26T08:18:33.009Z</time></trkpt><trkpt lat="30.83371045335637" lon="-5.9520223525137395"><ele>1091.6666666666667</ele><time>2026-03-26T08:18:34.009Z</time></trkpt><trkpt lat="30.83363569897568" lon="-5.952239907468053"><ele>1092.0</ele><time>2026-03-26T08:18:35.009Z</time></trkpt><trkpt lat="30.833556219846358" lon="-5.952458187785445"><ele>1092.0</ele><time>2026-03-26T08:18:36.009Z</time></trkpt><trkpt lat="30.833477172083185" lon="-5.952679075161745"><ele>1092.0</ele><time>2026-03-26T08:18:37.009Z</time></trkpt><trkpt lat="30.833398440573987" lon="-5.952904038340357"><ele>1092.0</ele><time>2026-03-26T08:18:38.009Z</time></trkpt><trkpt lat="30.833317620371073" lon="-5.953129852553286"><ele>1092.6666666666667</ele><time>2026-03-26T08:18:39.009Z</time></trkpt><trkpt lat="30.833234974130196" lon="-5.953351937215996"><ele>1093.3333333333335</ele><time>2026-03-26T08:18:40.009Z</time></trkpt><trkpt lat="30.833152199039542" lon="-5.95357825351644"><ele>1094.0</ele><time>2026-03-26T08:18:41.009Z</time></trkpt><trkpt lat="30.83306796170009" lon="-5.953802941088828"><ele>1094.0</ele><time>2026-03-26T08:18:42.009Z</time></trkpt><trkpt lat="30.832985516007014" lon="-5.954024393450117"><ele>1094.0</ele><time>2026-03-26T08:18:43.009Z</time></trkpt><trkpt lat="30.832906418840796" lon="-5.954246427707593"><ele>1094.0</ele><time>2026-03-26T08:18:44.009Z</time></trkpt><trkpt lat="30.832826560820454" lon="-5.95446287121227"><ele>1094.3333333333335</ele><time>2026-03-26T08:18:45.009Z</time></trkpt><trkpt lat="30.83274940751212" lon="-5.954674927370404"><ele>1094.6666666666667</ele><time>2026-03-26T08:18:46.009Z</time></trkpt><trkpt lat="30.83267582678818" lon="-5.954882864938203"><ele>1095.0</ele><time>2026-03-26T08:18:47.009Z</time></trkpt><trkpt lat="30.832603735427252" lon="-5.955079777235451"><ele>1095.6666666666667</ele><time>2026-03-26T08:18:48.009Z</time></trkpt><trkpt lat="30.832530660546247" lon="-5.955277054156086"><ele>1096.3333333333335</ele><time>2026-03-26T08:18:49.009Z</time></trkpt><trkpt lat="30.832450015823344" lon="-5.9554687535696536"><ele>1097.0</ele><time>2026-03-26T08:18:50.009Z</time></trkpt><trkpt lat="30.83236847158488" lon="-5.95566073439026"><ele>1097.0</ele><time>2026-03-26T08:18:51.009Z</time></trkpt><trkpt lat="30.83227265849547" lon="-5.955854951224289"><ele>1097.0</ele><time>2026-03-26T08:18:52.009Z</time></trkpt><trkpt lat="30.83215892796394" lon="-5.9560410005264774"><ele>1097.0</ele><time>2026-03-26T08:18:53.009Z</time></trkpt><trkpt lat="30.832028450571112" lon="-5.956224851296126"><ele>1097.0</ele><time>2026-03-26T08:18:54.009Z</time></trkpt><trkpt lat="30.831889335035545" lon="-5.956408446481316"><ele>1097.0</ele><time>2026-03-26T08:18:55.009Z</time></trkpt><trkpt lat="30.831751271378824" lon="-5.956598198739658"><ele>1097.0</ele><time>2026-03-26T08:18:56.009Z</time></trkpt><trkpt lat="30.831613798253866" lon="-5.956793938430421"><ele>1096.6666666666667</ele><time>2026-03-26T08:18:57.009Z</time></trkpt><trkpt lat="30.8314808836488" lon="-5.956986910840391"><ele>1096.3333333333333</ele><time>2026-03-26T08:18:58.009Z</time></trkpt><trkpt lat="30.831346614797226" lon="-5.957179193357306"><ele>1096.0</ele><time>2026-03-26T08:18:59.01Z</time></trkpt><trkpt lat="30.831209134156197" lon="-5.957366490732206"><ele>1096.0</ele><time>2026-03-26T08:19:00.01Z</time></trkpt><trkpt lat="30.831075546782156" lon="-5.957564872234216"><ele>1096.0</ele><time>2026-03-26T08:19:01.01Z</time></trkpt><trkpt lat="30.830938725466766" lon="-5.95775542511145"><ele>1096.0</ele><time>2026-03-26T08:19:02.01Z</time></trkpt><trkpt lat="30.83080407903758" lon="-5.957948801637097"><ele>1096.6666666666665</ele><time>2026-03-26T08:19:03.01Z</time></trkpt><trkpt lat="30.83066817708885" lon="-5.958150389736379"><ele>1097.3333333333333</ele><time>2026-03-26T08:19:04.01Z</time></trkpt><trkpt lat="30.830531370057916" lon="-5.9583474438604656"><ele>1098.0</ele><time>2026-03-26T08:19:05.01Z</time></trkpt><trkpt lat="30.830395817196045" lon="-5.958540879992053"><ele>1099.0</ele><time>2026-03-26T08:19:06.01Z</time></trkpt><trkpt lat="30.83026000884332" lon="-5.9587342289650564"><ele>1100.0</ele><time>2026-03-26T08:19:07.01Z</time></trkpt><trkpt lat="30.83012788732144" lon="-5.958929514366281"><ele>1101.0</ele><time>2026-03-26T08:19:08.01Z</time></trkpt><trkpt lat="30.829990643498807" lon="-5.959121947041582"><ele>1100.6666666666667</ele><time>2026-03-26T08:19:09.01Z</time></trkpt><trkpt lat="30.829854966695606" lon="-5.959313872618759"><ele>1100.3333333333335</ele><time>2026-03-26T08:19:10.01Z</time></trkpt><trkpt lat="30.829719996080726" lon="-5.959510218798497"><ele>1100.0</ele><time>2026-03-26T08:19:11.01Z</time></trkpt><trkpt lat="30.829585961848874" lon="-5.959704210800086"><ele>1100.0</ele><time>2026-03-26T08:19:12.01Z</time></trkpt><trkpt lat="30.829452775306333" lon="-5.959897969877139"><ele>1100.0</ele><time>2026-03-26T08:19:13.01Z</time></trkpt><trkpt lat="30.829323259009925" lon="-5.960090679374061"><ele>1100.0</ele><time>2026-03-26T08:19:14.01Z</time></trkpt><trkpt lat="30.829191503260482" lon="-5.960278514538758"><ele>1101.3333333333335</ele><time>2026-03-26T08:19:15.01Z</time></trkpt><trkpt lat="30.82905764700509" lon="-5.960473654644839"><ele>1102.6666666666667</ele><time>2026-03-26T08:19:16.01Z</time></trkpt><trkpt lat="30.828921519886045" lon="-5.96068098108269"><ele>1104.0</ele><time>2026-03-26T08:19:17.01Z</time></trkpt><trkpt lat="30.828783320543184" lon="-5.960895221019495"><ele>1104.0</ele><time>2026-03-26T08:19:18.01Z</time></trkpt><trkpt lat="30.828652395670098" lon="-5.961112510661795"><ele>1104.0</ele><time>2026-03-26T08:19:19.01Z</time></trkpt><trkpt lat="30.828533782202125" lon="-5.9613300860006015"><ele>1104.0</ele><time>2026-03-26T08:19:20.01Z</time></trkpt><trkpt lat="30.828423774201315" lon="-5.961562629506751"><ele>1105.0</ele><time>2026-03-26T08:19:21.01Z</time></trkpt><trkpt lat="30.828315139262077" lon="-5.961793049200021"><ele>1106.0</ele><time>2026-03-26T08:19:22.01Z</time></trkpt><trkpt lat="30.828203088450817" lon="-5.962024653217383"><ele>1106.0</ele><time>2026-03-26T08:19:23.01Z</time></trkpt><trkpt lat="30.828094061942288" lon="-5.962257848926772"><ele>1106.0</ele><time>2026-03-26T08:19:24.01Z</time></trkpt><trkpt lat="30.82798396805553" lon="-5.9624879241701505"><ele>1105.6666666666667</ele><time>2026-03-26T08:19:25.01Z</time></trkpt><trkpt lat="30.827871910721115" lon="-5.962715812331522"><ele>1105.3333333333333</ele><time>2026-03-26T08:19:26.01Z</time></trkpt><trkpt lat="30.827759399785016" lon="-5.962941043256472"><ele>1105.0</ele><time>2026-03-26T08:19:27.01Z</time></trkpt><trkpt lat="30.827649316434226" lon="-5.963165504326373"><ele>1106.6666666666665</ele><time>2026-03-26T08:19:28.01Z</time></trkpt><trkpt lat="30.827538519322285" lon="-5.963387734577779"><ele>1108.3333333333333</ele><time>2026-03-26T08:19:29.01Z</time></trkpt><trkpt lat="30.82743364450893" lon="-5.963602617274968"><ele>1110.0</ele><time>2026-03-26T08:19:30.01Z</time></trkpt><trkpt lat="30.8273266889151" lon="-5.963821841547555"><ele>1110.0</ele><time>2026-03-26T08:19:31.01Z</time></trkpt><trkpt lat="30.827221699648323" lon="-5.964034739699901"><ele>1110.0</ele><time>2026-03-26T08:19:32.01Z</time></trkpt><trkpt lat="30.827116339723112" lon="-5.964245371888318"><ele>1110.0</ele><time>2026-03-26T08:19:33.01Z</time></trkpt><trkpt lat="30.82701160092019" lon="-5.964459337814161"><ele>1110.0</ele><time>2026-03-26T08:19:34.01Z</time></trkpt><trkpt lat="30.826904047488174" lon="-5.964673190399297"><ele>1110.0</ele><time>2026-03-26T08:19:35.01Z</time></trkpt><trkpt lat="30.826795656919337" lon="-5.964885231929178"><ele>1110.0</ele><time>2026-03-26T08:19:36.01Z</time></trkpt><trkpt lat="30.82668939614065" lon="-5.965102907509791"><ele>1108.6666666666667</ele><time>2026-03-26T08:19:37.01Z</time></trkpt><trkpt lat="30.826579732586968" lon="-5.965325654028318"><ele>1107.3333333333335</ele><time>2026-03-26T08:19:38.01Z</time></trkpt><trkpt lat="30.826468965080586" lon="-5.965540729994671"><ele>1106.0</ele><time>2026-03-26T08:19:39.01Z</time></trkpt><trkpt lat="30.826360770034583" lon="-5.965755648964859"><ele>1106.3333333333335</ele><time>2026-03-26T08:19:40.01Z</time></trkpt><trkpt lat="30.826251606062723" lon="-5.965970017065102"><ele>1106.6666666666667</ele><time>2026-03-26T08:19:41.01Z</time></trkpt><trkpt lat="30.826143575971134" lon="-5.966183728494749"><ele>1107.0</ele><time>2026-03-26T08:19:42.01Z</time></trkpt><trkpt lat="30.82603547165075" lon="-5.966402750961406"><ele>1108.3333333333333</ele><time>2026-03-26T08:19:43.01Z</time></trkpt><trkpt lat="30.82592703833656" lon="-5.96661901669183"><ele>1109.6666666666665</ele><time>2026-03-26T08:19:44.01Z</time></trkpt><trkpt lat="30.825821645445185" lon="-5.966834500179079"><ele>1111.0</ele><time>2026-03-26T08:19:45.01Z</time></trkpt><trkpt lat="30.825715428093826" lon="-5.9670525576735916"><ele>1111.0</ele><time>2026-03-26T08:19:46.01Z</time></trkpt><trkpt lat="30.825605823303555" lon="-5.967265415644677"><ele>1111.0</ele><time>2026-03-26T08:19:47.01Z</time></trkpt><trkpt lat="30.825498948098435" lon="-5.967479432126201"><ele>1111.0</ele><time>2026-03-26T08:19:48.01Z</time></trkpt><trkpt lat="30.8253943402014" lon="-5.967696928591312"><ele>1111.0</ele><time>2026-03-26T08:19:49.01Z</time></trkpt><trkpt lat="30.825284132974808" lon="-5.967917842371104"><ele>1111.0</ele><time>2026-03-26T08:19:50.01Z</time></trkpt><trkpt lat="30.825172891225844" lon="-5.968138787896858"><ele>1111.0</ele><time>2026-03-26T08:19:51.01Z</time></trkpt><trkpt lat="30.82506475399235" lon="-5.9683600584953105"><ele>1111.0</ele><time>2026-03-26T08:19:52.01Z</time></trkpt><trkpt lat="30.824953940585974" lon="-5.968580611420838"><ele>1111.0</ele><time>2026-03-26T08:19:53.01Z</time></trkpt><trkpt lat="30.824844668136798" lon="-5.968802613428269"><ele>1111.0</ele><time>2026-03-26T08:19:54.01Z</time></trkpt><trkpt lat="30.82473396161759" lon="-5.969022875729724"><ele>1110.3333333333333</ele><time>2026-03-26T08:19:55.01Z</time></trkpt><trkpt lat="30.82462269022598" lon="-5.969244123957681"><ele>1109.6666666666667</ele><time>2026-03-26T08:19:56.01Z</time></trkpt><trkpt lat="30.824512008179223" lon="-5.96946214331832"><ele>1109.0</ele><time>2026-03-26T08:19:57.01Z</time></trkpt><trkpt lat="30.824402195332333" lon="-5.969682898639688"><ele>1110.6666666666667</ele><time>2026-03-26T08:19:58.01Z</time></trkpt><trkpt lat="30.824291611229846" lon="-5.969906815021135"><ele>1112.3333333333333</ele><time>2026-03-26T08:19:59.01Z</time></trkpt><trkpt lat="30.824180208949745" lon="-5.970128430277872"><ele>1114.0</ele><time>2026-03-26T08:20:00.01Z</time></trkpt><trkpt lat="30.824074809421003" lon="-5.9703466262961316"><ele>1114.0</ele><time>2026-03-26T08:20:01.01Z</time></trkpt><trkpt lat="30.82396017221437" lon="-5.970557600488346"><ele>1114.0</ele><time>2026-03-26T08:20:02.01Z</time></trkpt><trkpt lat="30.823839299474177" lon="-5.970755923045252"><ele>1114.0</ele><time>2026-03-26T08:20:03.01Z</time></trkpt><trkpt lat="30.823714885791553" lon="-5.9709544187337436"><ele>1114.0</ele><time>2026-03-26T08:20:04.01Z</time></trkpt><trkpt lat="30.823575596189325" lon="-5.97114167650431"><ele>1114.0</ele><time>2026-03-26T08:20:05.01Z</time></trkpt><trkpt lat="30.823425310691132" lon="-5.97132468739796"><ele>1114.0</ele><time>2026-03-26T08:20:06.01Z</time></trkpt><trkpt lat="30.823269280966834" lon="-5.971493572080838"><ele>1114.0</ele><time>2026-03-26T08:20:07.01Z</time></trkpt><trkpt lat="30.823106662718153" lon="-5.971657136421944"><ele>1114.0</ele><time>2026-03-26T08:20:08.01Z</time></trkpt><trkpt lat="30.822940488999432" lon="-5.971816416424868"><ele>1114.0</ele><time>2026-03-26T08:20:09.01Z</time></trkpt><trkpt lat="30.822776313795014" lon="-5.9719787195034035"><ele>1114.0</ele><time>2026-03-26T08:20:10.01Z</time></trkpt><trkpt lat="30.822605530492844" lon="-5.972139348073635"><ele>1114.0</ele><time>2026-03-26T08:20:11.01Z</time></trkpt><trkpt lat="30.822438390923477" lon="-5.9722966543415925"><ele>1114.0</ele><time>2026-03-26T08:20:12.01Z</time></trkpt><trkpt lat="30.822272952603054" lon="-5.97245972991211"><ele>1114.3333333333333</ele><time>2026-03-26T08:20:13.01Z</time></trkpt><trkpt lat="30.822105441744135" lon="-5.9726225981450485"><ele>1114.6666666666667</ele><time>2026-03-26T08:20:14.01Z</time></trkpt><trkpt lat="30.82193992760444" lon="-5.972785203626315"><ele>1115.0</ele><time>2026-03-26T08:20:15.01Z</time></trkpt><trkpt lat="30.821773886093215" lon="-5.972945204445323"><ele>1115.3333333333335</ele><time>2026-03-26T08:20:16.01Z</time></trkpt><trkpt lat="30.821604887323478" lon="-5.973107338912261"><ele>1115.6666666666667</ele><time>2026-03-26T08:20:17.01Z</time></trkpt><trkpt lat="30.82143575286698" lon="-5.973275759225947"><ele>1116.0</ele><time>2026-03-26T08:20:18.01Z</time></trkpt><trkpt lat="30.821268811060015" lon="-5.973444795054945"><ele>1116.0</ele><time>2026-03-26T08:20:19.01Z</time></trkpt><trkpt lat="30.821101562252966" lon="-5.973612719626133"><ele>1116.0</ele><time>2026-03-26T08:20:20.01Z</time></trkpt><trkpt lat="30.82093263523241" lon="-5.973780128211969"><ele>1116.0</ele><time>2026-03-26T08:20:21.01Z</time></trkpt><trkpt lat="30.8207627395907" lon="-5.9739484150912165"><ele>1115.3333333333333</ele><time>2026-03-26T08:20:22.01Z</time></trkpt><trkpt lat="30.820592537449773" lon="-5.9741172206675195"><ele>1114.6666666666665</ele><time>2026-03-26T08:20:23.01Z</time></trkpt><trkpt lat="30.820421440865886" lon="-5.974283488603635"><ele>1114.0</ele><time>2026-03-26T08:20:24.01Z</time></trkpt><trkpt lat="30.820250323960526" lon="-5.9744511083837875"><ele>1115.5</ele><time>2026-03-26T08:20:25.01Z</time></trkpt><trkpt lat="30.82007733219976" lon="-5.974619092895085"><ele>1117.0</ele><time>2026-03-26T08:20:26.01Z</time></trkpt><trkpt lat="30.81990463147548" lon="-5.974788174068435"><ele>1117.0</ele><time>2026-03-26T08:20:27.01Z</time></trkpt><trkpt lat="30.819731346328375" lon="-5.974961144949301"><ele>1117.0</ele><time>2026-03-26T08:20:28.01Z</time></trkpt><trkpt lat="30.819561734140198" lon="-5.975130864605016"><ele>1116.6666666666665</ele><time>2026-03-26T08:20:29.01Z</time></trkpt><trkpt lat="30.8193964986558" lon="-5.975293971029929"><ele>1116.3333333333333</ele><time>2026-03-26T08:20:30.01Z</time></trkpt><trkpt lat="30.819224132124067" lon="-5.975468107094406"><ele>1116.0</ele><time>2026-03-26T08:20:31.01Z</time></trkpt><trkpt lat="30.81905456585662" lon="-5.975636596595791"><ele>1116.0</ele><time>2026-03-26T08:20:32.01Z</time></trkpt><trkpt lat="30.818882884222177" lon="-5.975804767891521"><ele>1116.0</ele><time>2026-03-26T08:20:33.01Z</time></trkpt><trkpt lat="30.81871285559492" lon="-5.975977412861823"><ele>1116.0</ele><time>2026-03-26T08:20:34.01Z</time></trkpt><trkpt lat="30.818533421324393" lon="-5.97614839474637"><ele>1116.0</ele><time>2026-03-26T08:20:35.01Z</time></trkpt><trkpt lat="30.818356058758138" lon="-5.976320621899501"><ele>1116.0</ele><time>2026-03-26T08:20:36.01Z</time></trkpt><trkpt lat="30.818177635392612" lon="-5.976490258145961"><ele>1116.0</ele><time>2026-03-26T08:20:37.01Z</time></trkpt><trkpt lat="30.817997713945328" lon="-5.976665880113956"><ele>1116.5</ele><time>2026-03-26T08:20:38.01Z</time></trkpt><trkpt lat="30.817818738940502" lon="-5.97684530969185"><ele>1117.0</ele><time>2026-03-26T08:20:39.01Z</time></trkpt><trkpt lat="30.81764054978315" lon="-5.977029554941801"><ele>1117.5</ele><time>2026-03-26T08:20:40.01Z</time></trkpt><trkpt lat="30.81746350319245" lon="-5.9772038410121375"><ele>1118.0</ele><time>2026-03-26T08:20:41.01Z</time></trkpt><trkpt lat="30.817284481583123" lon="-5.977379228001997"><ele>1118.5</ele><time>2026-03-26T08:20:42.01Z</time></trkpt><trkpt lat="30.817105578110812" lon="-5.977559279695925"><ele>1119.0</ele><time>2026-03-26T08:20:43.01Z</time></trkpt><trkpt lat="30.81693111192672" lon="-5.977733506478978"><ele>1120.5</ele><time>2026-03-26T08:20:44.01Z</time></trkpt><trkpt lat="30.8167533211812" lon="-5.977909315213089"><ele>1122.0</ele><time>2026-03-26T08:20:45.01Z</time></trkpt><trkpt lat="30.81657421934174" lon="-5.978084605176986"><ele>1122.0</ele><time>2026-03-26T08:20:46.011Z</time></trkpt><trkpt lat="30.816394764537787" lon="-5.978260356019899"><ele>1122.0</ele><time>2026-03-26T08:20:47.011Z</time></trkpt><trkpt lat="30.816218322603557" lon="-5.978435675388509"><ele>1123.0</ele><time>2026-03-26T08:20:48.011Z</time></trkpt><trkpt lat="30.81603747279759" lon="-5.978620405780807"><ele>1124.0</ele><time>2026-03-26T08:20:49.011Z</time></trkpt><trkpt lat="30.815846970255656" lon="-5.978804176077737"><ele>1124.0</ele><time>2026-03-26T08:20:50.011Z</time></trkpt><trkpt lat="30.815662718430787" lon="-5.978985953767865"><ele>1124.0</ele><time>2026-03-26T08:20:51.011Z</time></trkpt><trkpt lat="30.815485890783588" lon="-5.979158806429748"><ele>1124.5</ele><time>2026-03-26T08:20:52.011Z</time></trkpt><trkpt lat="30.815309785055433" lon="-5.9793286681888675"><ele>1125.0</ele><time>2026-03-26T08:20:53.011Z</time></trkpt><trkpt lat="30.81513584816775" lon="-5.979497893620931"><ele>1125.5</ele><time>2026-03-26T08:20:54.011Z</time></trkpt><trkpt lat="30.814964248552528" lon="-5.979663168067255"><ele>1126.0</ele><time>2026-03-26T08:20:55.011Z</time></trkpt><trkpt lat="30.814787172277608" lon="-5.979831403837257"><ele>1126.0</ele><time>2026-03-26T08:20:56.011Z</time></trkpt><trkpt lat="30.81461242459397" lon="-5.979999854796564"><ele>1126.0</ele><time>2026-03-26T08:20:57.011Z</time></trkpt><trkpt lat="30.814438503173726" lon="-5.980169689634241"><ele>1126.3333333333333</ele><time>2026-03-26T08:20:58.011Z</time></trkpt><trkpt lat="30.814264966951395" lon="-5.98033975061112"><ele>1126.6666666666667</ele><time>2026-03-26T08:20:59.011Z</time></trkpt><trkpt lat="30.814093645018964" lon="-5.980502748938484"><ele>1127.0</ele><time>2026-03-26T08:21:00.011Z</time></trkpt><trkpt lat="30.813917056322932" lon="-5.9806743858174904"><ele>1127.0</ele><time>2026-03-26T08:21:01.011Z</time></trkpt><trkpt lat="30.813742403856768" lon="-5.980843247360953"><ele>1127.0</ele><time>2026-03-26T08:21:02.011Z</time></trkpt><trkpt lat="30.81356352125669" lon="-5.981014782284074"><ele>1127.0</ele><time>2026-03-26T08:21:03.011Z</time></trkpt><trkpt lat="30.813387129877746" lon="-5.981183635460756"><ele>1127.0</ele><time>2026-03-26T08:21:04.011Z</time></trkpt><trkpt lat="30.81321075135964" lon="-5.981351694048946"><ele>1127.0</ele><time>2026-03-26T08:21:05.011Z</time></trkpt><trkpt lat="30.81303827955473" lon="-5.981517984705443"><ele>1127.0</ele><time>2026-03-26T08:21:06.011Z</time></trkpt><trkpt lat="30.812866488304703" lon="-5.981686113594404"><ele>1127.0</ele><time>2026-03-26T08:21:07.011Z</time></trkpt><trkpt lat="30.812692275446697" lon="-5.981856421408175"><ele>1127.5</ele><time>2026-03-26T08:21:08.011Z</time></trkpt><trkpt lat="30.812519340032896" lon="-5.982023335664928"><ele>1128.0</ele><time>2026-03-26T08:21:09.011Z</time></trkpt><trkpt lat="30.81234211415768" lon="-5.982194652446097"><ele>1128.0</ele><time>2026-03-26T08:21:10.011Z</time></trkpt><trkpt lat="30.812165309484996" lon="-5.982364381636527"><ele>1128.0</ele><time>2026-03-26T08:21:11.011Z</time></trkpt><trkpt lat="30.811984324610776" lon="-5.982538965414604"><ele>1126.5</ele><time>2026-03-26T08:21:12.011Z</time></trkpt><trkpt lat="30.811796775805842" lon="-5.982719842043849"><ele>1125.0</ele><time>2026-03-26T08:21:13.011Z</time></trkpt><trkpt lat="30.81160658373556" lon="-5.982906208223508"><ele>1125.0</ele><time>2026-03-26T08:21:14.011Z</time></trkpt><trkpt lat="30.811417654394557" lon="-5.983086469756551"><ele>1125.0</ele><time>2026-03-26T08:21:15.011Z</time></trkpt><trkpt lat="30.81122861058562" lon="-5.983267291579143"><ele>1124.5</ele><time>2026-03-26T08:21:16.011Z</time></trkpt><trkpt lat="30.811039463792596" lon="-5.983444580801644"><ele>1124.0</ele><time>2026-03-26T08:21:17.011Z</time></trkpt><trkpt lat="30.810853641835838" lon="-5.983624699768583"><ele>1124.0</ele><time>2026-03-26T08:21:18.011Z</time></trkpt><trkpt lat="30.810669308139094" lon="-5.983805358679126"><ele>1124.0</ele><time>2026-03-26T08:21:19.011Z</time></trkpt><trkpt lat="30.810483895858486" lon="-5.983985284300863"><ele>1124.0</ele><time>2026-03-26T08:21:20.011Z</time></trkpt><trkpt lat="30.810298667403174" lon="-5.984161207469972"><ele>1124.0</ele><time>2026-03-26T08:21:21.011Z</time></trkpt><trkpt lat="30.810113230081395" lon="-5.984338074106982"><ele>1123.0</ele><time>2026-03-26T08:21:22.011Z</time></trkpt><trkpt lat="30.809932080081516" lon="-5.984511791817281"><ele>1122.0</ele><time>2026-03-26T08:21:23.011Z</time></trkpt><trkpt lat="30.809755693401094" lon="-5.984683106198539"><ele>1122.0</ele><time>2026-03-26T08:21:24.011Z</time></trkpt><trkpt lat="30.80958020793899" lon="-5.9848531034595505"><ele>1122.0</ele><time>2026-03-26T08:21:25.011Z</time></trkpt><trkpt lat="30.809403836619925" lon="-5.985025813060594"><ele>1122.5</ele><time>2026-03-26T08:21:26.011Z</time></trkpt><trkpt lat="30.80922867984982" lon="-5.985198393300938"><ele>1123.0</ele><time>2026-03-26T08:21:27.011Z</time></trkpt><trkpt lat="30.809051355603696" lon="-5.985371733720258"><ele>1123.0</ele><time>2026-03-26T08:21:28.011Z</time></trkpt><trkpt lat="30.80887263516945" lon="-5.985544847040074"><ele>1123.0</ele><time>2026-03-26T08:21:29.011Z</time></trkpt><trkpt lat="30.808697249111596" lon="-5.985708102858265"><ele>1122.5</ele><time>2026-03-26T08:21:30.011Z</time></trkpt><trkpt lat="30.80851680573689" lon="-5.985882528814929"><ele>1122.0</ele><time>2026-03-26T08:21:31.011Z</time></trkpt><trkpt lat="30.808333625195996" lon="-5.986055195547838"><ele>1122.0</ele><time>2026-03-26T08:21:32.011Z</time></trkpt><trkpt lat="30.80814611867845" lon="-5.986233299747007"><ele>1122.0</ele><time>2026-03-26T08:21:33.011Z</time></trkpt><trkpt lat="30.80795535924274" lon="-5.986413381416569"><ele>1122.0</ele><time>2026-03-26T08:21:34.011Z</time></trkpt><trkpt lat="30.807767627753634" lon="-5.986588584072718"><ele>1122.0</ele><time>2026-03-26T08:21:35.011Z</time></trkpt><trkpt lat="30.807582154694213" lon="-5.986765415215385"><ele>1122.0</ele><time>2026-03-26T08:21:36.011Z</time></trkpt><trkpt lat="30.807397857467617" lon="-5.9869426025436985"><ele>1122.0</ele><time>2026-03-26T08:21:37.011Z</time></trkpt><trkpt lat="30.807215312593456" lon="-5.987115514018501"><ele>1122.0</ele><time>2026-03-26T08:21:38.011Z</time></trkpt><trkpt lat="30.807038376741758" lon="-5.987286869463871"><ele>1122.0</ele><time>2026-03-26T08:21:39.011Z</time></trkpt><trkpt lat="30.806870789342554" lon="-5.987448535509653"><ele>1122.0</ele><time>2026-03-26T08:21:40.011Z</time></trkpt><trkpt lat="30.806701128882125" lon="-5.987610816380191"><ele>1121.0</ele><time>2026-03-26T08:21:41.011Z</time></trkpt><trkpt lat="30.806533086296792" lon="-5.9877722735249845"><ele>1120.0</ele><time>2026-03-26T08:21:42.011Z</time></trkpt><trkpt lat="30.806365732885986" lon="-5.98792949386536"><ele>1119.0</ele><time>2026-03-26T08:21:43.011Z</time></trkpt><trkpt lat="30.806194483624523" lon="-5.988093146735437"><ele>1119.0</ele><time>2026-03-26T08:21:44.011Z</time></trkpt><trkpt lat="30.80601574725863" lon="-5.988264621845429"><ele>1119.0</ele><time>2026-03-26T08:21:45.011Z</time></trkpt><trkpt lat="30.805838382291633" lon="-5.988432484184112"><ele>1118.0</ele><time>2026-03-26T08:21:46.011Z</time></trkpt><trkpt lat="30.805662161790053" lon="-5.9885996514430895"><ele>1117.0</ele><time>2026-03-26T08:21:47.011Z</time></trkpt><trkpt lat="30.805487056064983" lon="-5.988767997819675"><ele>1117.0</ele><time>2026-03-26T08:21:48.011Z</time></trkpt><trkpt lat="30.805311260045244" lon="-5.9889348744851345"><ele>1117.0</ele><time>2026-03-26T08:21:49.011Z</time></trkpt><trkpt lat="30.805134948201122" lon="-5.989103811355726"><ele>1117.6666666666665</ele><time>2026-03-26T08:21:50.011Z</time></trkpt><trkpt lat="30.804961416646123" lon="-5.9892651511971575"><ele>1118.3333333333333</ele><time>2026-03-26T08:21:51.011Z</time></trkpt><trkpt lat="30.804791800428223" lon="-5.989432201812261"><ele>1119.0</ele><time>2026-03-26T08:21:52.011Z</time></trkpt><trkpt lat="30.804625928512806" lon="-5.9895942597940826"><ele>1119.0</ele><time>2026-03-26T08:21:53.011Z</time></trkpt><trkpt lat="30.804459744529986" lon="-5.989758244405874"><ele>1119.0</ele><time>2026-03-26T08:21:54.011Z</time></trkpt><trkpt lat="30.80429416243834" lon="-5.989929083345858"><ele>1119.0</ele><time>2026-03-26T08:21:55.011Z</time></trkpt><trkpt lat="30.804129425540058" lon="-5.990110482292875"><ele>1120.0</ele><time>2026-03-26T08:21:56.011Z</time></trkpt><trkpt lat="30.803953982112628" lon="-5.990318291658977"><ele>1121.0</ele><time>2026-03-26T08:21:57.011Z</time></trkpt><trkpt lat="30.803791417323964" lon="-5.990528088552069"><ele>1121.0</ele><time>2026-03-26T08:21:58.011Z</time></trkpt><trkpt lat="30.80364905465191" lon="-5.990717917316638"><ele>1121.0</ele><time>2026-03-26T08:21:59.011Z</time></trkpt><trkpt lat="30.80351311999153" lon="-5.990899507487859"><ele>1121.0</ele><time>2026-03-26T08:22:00.011Z</time></trkpt><trkpt lat="30.8033685039033" lon="-5.991092574666183"><ele>1121.3333333333335</ele><time>2026-03-26T08:22:01.011Z</time></trkpt><trkpt lat="30.80323324745595" lon="-5.991277377775679"><ele>1121.6666666666667</ele><time>2026-03-26T08:22:02.011Z</time></trkpt><trkpt lat="30.803096483474846" lon="-5.991461991182701"><ele>1122.0</ele><time>2026-03-26T08:22:03.011Z</time></trkpt><trkpt lat="30.802954872069165" lon="-5.991653131439281"><ele>1122.3333333333333</ele><time>2026-03-26T08:22:04.011Z</time></trkpt><trkpt lat="30.802812823120984" lon="-5.991841047117969"><ele>1122.6666666666665</ele><time>2026-03-26T08:22:05.011Z</time></trkpt><trkpt lat="30.8026735603157" lon="-5.992026753980837"><ele>1123.0</ele><time>2026-03-26T08:22:06.011Z</time></trkpt><trkpt lat="30.80253923194927" lon="-5.992210268341184"><ele>1123.3333333333333</ele><time>2026-03-26T08:22:07.011Z</time></trkpt><trkpt lat="30.802401015558416" lon="-5.992393076090494"><ele>1123.6666666666667</ele><time>2026-03-26T08:22:08.011Z</time></trkpt><trkpt lat="30.80226041922954" lon="-5.992583700332058"><ele>1124.0</ele><time>2026-03-26T08:22:09.011Z</time></trkpt><trkpt lat="30.802119552958775" lon="-5.99277464633436"><ele>1124.0</ele><time>2026-03-26T08:22:10.011Z</time></trkpt><trkpt lat="30.801978446556006" lon="-5.99296516859188"><ele>1124.0</ele><time>2026-03-26T08:22:11.011Z</time></trkpt><trkpt lat="30.801834988243936" lon="-5.993155505690453"><ele>1124.0</ele><time>2026-03-26T08:22:12.011Z</time></trkpt><trkpt lat="30.801691737824488" lon="-5.993344350818211"><ele>1124.3333333333335</ele><time>2026-03-26T08:22:13.011Z</time></trkpt><trkpt lat="30.801548656320065" lon="-5.993532823186808"><ele>1124.6666666666667</ele><time>2026-03-26T08:22:14.011Z</time></trkpt><trkpt lat="30.80140731967193" lon="-5.993722056224138"><ele>1125.0</ele><time>2026-03-26T08:22:15.011Z</time></trkpt><trkpt lat="30.801265317106658" lon="-5.993910189422652"><ele>1125.0</ele><time>2026-03-26T08:22:16.011Z</time></trkpt><trkpt lat="30.801123520032498" lon="-5.994096892021001"><ele>1125.0</ele><time>2026-03-26T08:22:17.011Z</time></trkpt><trkpt lat="30.800983736872887" lon="-5.994288002016762"><ele>1125.0</ele><time>2026-03-26T08:22:18.011Z</time></trkpt><trkpt lat="30.80084371892933" lon="-5.994479458401881"><ele>1125.0</ele><time>2026-03-26T08:22:19.011Z</time></trkpt><trkpt lat="30.80070262795619" lon="-5.994668960629851"><ele>1125.0</ele><time>2026-03-26T08:22:20.011Z</time></trkpt><trkpt lat="30.8005614627623" lon="-5.994858231428438"><ele>1125.0</ele><time>2026-03-26T08:22:21.011Z</time></trkpt><trkpt lat="30.800419944747848" lon="-5.99504716496458"><ele>1124.6666666666667</ele><time>2026-03-26T08:22:22.011Z</time></trkpt><trkpt lat="30.80027855836594" lon="-5.9952364133790885"><ele>1124.3333333333335</ele><time>2026-03-26T08:22:23.011Z</time></trkpt><trkpt lat="30.8001369092227" lon="-5.995426342343648"><ele>1124.0</ele><time>2026-03-26T08:22:24.011Z</time></trkpt><trkpt lat="30.79999281854689" lon="-5.9956183289618785"><ele>1124.0</ele><time>2026-03-26T08:22:25.011Z</time></trkpt><trkpt lat="30.799848848619273" lon="-5.995812907128461"><ele>1124.0</ele><time>2026-03-26T08:22:26.011Z</time></trkpt><trkpt lat="30.799703302433915" lon="-5.996008895363153"><ele>1124.0</ele><time>2026-03-26T08:22:27.011Z</time></trkpt><trkpt lat="30.79955900898244" lon="-5.996204686085886"><ele>1124.0</ele><time>2026-03-26T08:22:28.011Z</time></trkpt><trkpt lat="30.79941492074299" lon="-5.996402488389028"><ele>1124.0</ele><time>2026-03-26T08:22:29.011Z</time></trkpt><trkpt lat="30.799267298390347" lon="-5.99659624582952"><ele>1124.0</ele><time>2026-03-26T08:22:30.011Z</time></trkpt><trkpt lat="30.79911862471034" lon="-5.996795141432646"><ele>1122.5</ele><time>2026-03-26T08:22:31.011Z</time></trkpt><trkpt lat="30.7989692000328" lon="-5.996993186939944"><ele>1121.0</ele><time>2026-03-26T08:22:32.011Z</time></trkpt><trkpt lat="30.798816336501414" lon="-5.997192706333476"><ele>1121.0</ele><time>2026-03-26T08:22:33.012Z</time></trkpt><trkpt lat="30.79866537381024" lon="-5.997392535836896"><ele>1121.0</ele><time>2026-03-26T08:22:34.012Z</time></trkpt><trkpt lat="30.798515626468944" lon="-5.99759537068491"><ele>1122.0</ele><time>2026-03-26T08:22:35.012Z</time></trkpt><trkpt lat="30.798367403965475" lon="-5.997791613305917"><ele>1123.0</ele><time>2026-03-26T08:22:36.012Z</time></trkpt><trkpt lat="30.798220534524365" lon="-5.997991347819115"><ele>1123.0</ele><time>2026-03-26T08:22:37.012Z</time></trkpt><trkpt lat="30.79807721687164" lon="-5.99818562243758"><ele>1123.0</ele><time>2026-03-26T08:22:38.012Z</time></trkpt><trkpt lat="30.797934630494876" lon="-5.998381409398309"><ele>1123.0</ele><time>2026-03-26T08:22:39.012Z</time></trkpt><trkpt lat="30.79779391886644" lon="-5.9985766454781135"><ele>1122.6666666666665</ele><time>2026-03-26T08:22:40.012Z</time></trkpt><trkpt lat="30.797645009738872" lon="-5.99877388593333"><ele>1122.3333333333333</ele><time>2026-03-26T08:22:41.012Z</time></trkpt><trkpt lat="30.797499291294415" lon="-5.998966863441671"><ele>1122.0</ele><time>2026-03-26T08:22:42.012Z</time></trkpt><trkpt lat="30.797354836968704" lon="-5.999159549127258"><ele>1122.3333333333333</ele><time>2026-03-26T08:22:43.012Z</time></trkpt><trkpt lat="30.79720995408703" lon="-5.999352842574942"><ele>1122.6666666666665</ele><time>2026-03-26T08:22:44.012Z</time></trkpt><trkpt lat="30.797063418240214" lon="-5.999548590472032"><ele>1123.0</ele><time>2026-03-26T08:22:45.012Z</time></trkpt><trkpt lat="30.79691289732384" lon="-5.99975262854203"><ele>1122.0</ele><time>2026-03-26T08:22:46.012Z</time></trkpt><trkpt lat="30.796754450698582" lon="-5.999959230603696"><ele>1121.0</ele><time>2026-03-26T08:22:47.012Z</time></trkpt><trkpt lat="30.796606856154305" lon="-6.000155933968477"><ele>1121.0</ele><time>2026-03-26T08:22:48.012Z</time></trkpt><trkpt lat="30.796461597183786" lon="-6.000352038062348"><ele>1121.0</ele><time>2026-03-26T08:22:49.012Z</time></trkpt><trkpt lat="30.796314960225722" lon="-6.000550847768424"><ele>1121.0</ele><time>2026-03-26T08:22:50.012Z</time></trkpt><trkpt lat="30.796166923730567" lon="-6.000751991063601"><ele>1121.0</ele><time>2026-03-26T08:22:51.012Z</time></trkpt><trkpt lat="30.79601869947322" lon="-6.000950101278535"><ele>1121.0</ele><time>2026-03-26T08:22:52.012Z</time></trkpt><trkpt lat="30.79587010632531" lon="-6.001146739850325"><ele>1121.0</ele><time>2026-03-26T08:22:53.012Z</time></trkpt><trkpt lat="30.795721862990696" lon="-6.001345563808369"><ele>1121.0</ele><time>2026-03-26T08:22:54.012Z</time></trkpt><trkpt lat="30.79557525819554" lon="-6.001544637272161"><ele>1121.6666666666667</ele><time>2026-03-26T08:22:55.012Z</time></trkpt><trkpt lat="30.795427436871528" lon="-6.001743143607289"><ele>1122.3333333333333</ele><time>2026-03-26T08:22:56.012Z</time></trkpt><trkpt lat="30.795283360059894" lon="-6.001938268015358"><ele>1123.0</ele><time>2026-03-26T08:22:57.012Z</time></trkpt><trkpt lat="30.795145673418123" lon="-6.00212187990291"><ele>1123.0</ele><time>2026-03-26T08:22:58.012Z</time></trkpt><trkpt lat="30.79500610230927" lon="-6.002302046578751"><ele>1123.0</ele><time>2026-03-26T08:22:59.012Z</time></trkpt><trkpt lat="30.794866689940033" lon="-6.0024858273238175"><ele>1123.0</ele><time>2026-03-26T08:23:00.012Z</time></trkpt><trkpt lat="30.79473459258075" lon="-6.002672069553413"><ele>1123.0</ele><time>2026-03-26T08:23:01.012Z</time></trkpt><trkpt lat="30.7946006707715" lon="-6.002854402698609"><ele>1123.0</ele><time>2026-03-26T08:23:02.012Z</time></trkpt><trkpt lat="30.794467224084215" lon="-6.003035992658675"><ele>1123.0</ele><time>2026-03-26T08:23:03.012Z</time></trkpt><trkpt lat="30.794331945308905" lon="-6.003217331882827"><ele>1122.6666666666665</ele><time>2026-03-26T08:23:04.012Z</time></trkpt><trkpt lat="30.794195255283853" lon="-6.003397959479727"><ele>1122.3333333333333</ele><time>2026-03-26T08:23:05.012Z</time></trkpt><trkpt lat="30.794055788773505" lon="-6.003586418791608"><ele>1122.0</ele><time>2026-03-26T08:23:06.012Z</time></trkpt><trkpt lat="30.793913129297977" lon="-6.00378393671589"><ele>1122.0</ele><time>2026-03-26T08:23:07.012Z</time></trkpt><trkpt lat="30.793771033534764" lon="-6.003981510880182"><ele>1122.0</ele><time>2026-03-26T08:23:08.012Z</time></trkpt><trkpt lat="30.793631725809647" lon="-6.004172325020886"><ele>1122.0</ele><time>2026-03-26T08:23:09.012Z</time></trkpt><trkpt lat="30.79349447333376" lon="-6.00436382408887"><ele>1122.0</ele><time>2026-03-26T08:23:10.012Z</time></trkpt><trkpt lat="30.793360887887623" lon="-6.004551900704355"><ele>1122.0</ele><time>2026-03-26T08:23:11.012Z</time></trkpt><trkpt lat="30.793227027662912" lon="-6.004740240288092"><ele>1122.0</ele><time>2026-03-26T08:23:12.012Z</time></trkpt><trkpt lat="30.793098070776054" lon="-6.004922811488815"><ele>1121.6666666666667</ele><time>2026-03-26T08:23:13.012Z</time></trkpt><trkpt lat="30.792977186106107" lon="-6.005093193087704"><ele>1121.3333333333335</ele><time>2026-03-26T08:23:14.012Z</time></trkpt><trkpt lat="30.792863067063628" lon="-6.0052517875721465"><ele>1121.0</ele><time>2026-03-26T08:23:15.012Z</time></trkpt><trkpt lat="30.79275418105238" lon="-6.005413359027994"><ele>1120.6666666666667</ele><time>2026-03-26T08:23:16.012Z</time></trkpt><trkpt lat="30.79264330560023" lon="-6.005577429242356"><ele>1120.3333333333333</ele><time>2026-03-26T08:23:17.012Z</time></trkpt><trkpt lat="30.792529604647896" lon="-6.005743506289887"><ele>1120.0</ele><time>2026-03-26T08:23:18.012Z</time></trkpt><trkpt lat="30.79241424846185" lon="-6.005917043052167"><ele>1120.0</ele><time>2026-03-26T08:23:19.012Z</time></trkpt><trkpt lat="30.792292620897904" lon="-6.006096910511364"><ele>1120.0</ele><time>2026-03-26T08:23:20.012Z</time></trkpt><trkpt lat="30.792162643170297" lon="-6.006289111599313"><ele>1120.0</ele><time>2026-03-26T08:23:21.012Z</time></trkpt><trkpt lat="30.79202848453492" lon="-6.006487753448667"><ele>1120.0</ele><time>2026-03-26T08:23:22.012Z</time></trkpt><trkpt lat="30.791890981228573" lon="-6.006696138290786"><ele>1120.0</ele><time>2026-03-26T08:23:23.012Z</time></trkpt><trkpt lat="30.79175558658139" lon="-6.006900983624778"><ele>1120.0</ele><time>2026-03-26T08:23:24.012Z</time></trkpt><trkpt lat="30.7916147039414" lon="-6.007109900354247"><ele>1119.3333333333333</ele><time>2026-03-26T08:23:25.012Z</time></trkpt><trkpt lat="30.79147643826011" lon="-6.007316743946519"><ele>1118.6666666666667</ele><time>2026-03-26T08:23:26.012Z</time></trkpt><trkpt lat="30.79134274758399" lon="-6.007514810528483"><ele>1118.0</ele><time>2026-03-26T08:23:27.012Z</time></trkpt><trkpt lat="30.7912102791364" lon="-6.007712398239252"><ele>1118.0</ele><time>2026-03-26T08:23:28.012Z</time></trkpt><trkpt lat="30.791077016323595" lon="-6.007909771902569"><ele>1118.0</ele><time>2026-03-26T08:23:29.012Z</time></trkpt><trkpt lat="30.790943369586785" lon="-6.008107652889482"><ele>1118.0</ele><time>2026-03-26T08:23:30.012Z</time></trkpt><trkpt lat="30.79080896174601" lon="-6.008309095202521"><ele>1117.3333333333335</ele><time>2026-03-26T08:23:31.012Z</time></trkpt><trkpt lat="30.7906756927272" lon="-6.008512541116223"><ele>1116.6666666666667</ele><time>2026-03-26T08:23:32.012Z</time></trkpt><trkpt lat="30.790544995369824" lon="-6.008709284655856"><ele>1116.0</ele><time>2026-03-26T08:23:33.012Z</time></trkpt><trkpt lat="30.790418592790697" lon="-6.008898251053418"><ele>1116.0</ele><time>2026-03-26T08:23:34.012Z</time></trkpt><trkpt lat="30.790294730248917" lon="-6.0090774891340395"><ele>1116.0</ele><time>2026-03-26T08:23:35.012Z</time></trkpt><trkpt lat="30.79017854549851" lon="-6.009250617248648"><ele>1116.0</ele><time>2026-03-26T08:23:36.012Z</time></trkpt><trkpt lat="30.790070615205153" lon="-6.0094144864479"><ele>1115.3333333333333</ele><time>2026-03-26T08:23:37.012Z</time></trkpt><trkpt lat="30.789963070200173" lon="-6.009578357740704"><ele>1114.6666666666665</ele><time>2026-03-26T08:23:38.012Z</time></trkpt><trkpt lat="30.789853038028753" lon="-6.009745874844252"><ele>1114.0</ele><time>2026-03-26T08:23:39.012Z</time></trkpt><trkpt lat="30.78973850165097" lon="-6.009926292072694"><ele>1114.3333333333333</ele><time>2026-03-26T08:23:40.012Z</time></trkpt><trkpt lat="30.789618183935563" lon="-6.0101124314654575"><ele>1114.6666666666667</ele><time>2026-03-26T08:23:41.012Z</time></trkpt><trkpt lat="30.78949366487372" lon="-6.0102943221745315"><ele>1115.0</ele><time>2026-03-26T08:23:42.012Z</time></trkpt><trkpt lat="30.789363568323264" lon="-6.0104861260165725"><ele>1114.6666666666667</ele><time>2026-03-26T08:23:43.012Z</time></trkpt><trkpt lat="30.78922747520047" lon="-6.010686562131626"><ele>1114.3333333333333</ele><time>2026-03-26T08:23:44.012Z</time></trkpt><trkpt lat="30.78909057248314" lon="-6.010888851333914"><ele>1114.0</ele><time>2026-03-26T08:23:45.012Z</time></trkpt><trkpt lat="30.788952930831314" lon="-6.011093039420604"><ele>1114.0</ele><time>2026-03-26T08:23:46.012Z</time></trkpt><trkpt lat="30.788817165301527" lon="-6.011297268789955"><ele>1114.0</ele><time>2026-03-26T08:23:47.012Z</time></trkpt><trkpt lat="30.788683702822272" lon="-6.0114957324489176"><ele>1114.0</ele><time>2026-03-26T08:23:48.012Z</time></trkpt><trkpt lat="30.78854895828356" lon="-6.0116967829192625"><ele>1113.3333333333333</ele><time>2026-03-26T08:23:49.013Z</time></trkpt><trkpt lat="30.78841678449146" lon="-6.011897713467194"><ele>1112.6666666666667</ele><time>2026-03-26T08:23:50.013Z</time></trkpt><trkpt lat="30.788278647465724" lon="-6.012109030463767"><ele>1112.0</ele><time>2026-03-26T08:23:51.013Z</time></trkpt><trkpt lat="30.788129637383914" lon="-6.0123331541417375"><ele>1111.5</ele><time>2026-03-26T08:23:52.013Z</time></trkpt><trkpt lat="30.787974826035757" lon="-6.012561368154098"><ele>1111.0</ele><time>2026-03-26T08:23:53.013Z</time></trkpt><trkpt lat="30.787831860572894" lon="-6.012774670919513"><ele>1111.0</ele><time>2026-03-26T08:23:54.013Z</time></trkpt><trkpt lat="30.787690119543203" lon="-6.012980785203719"><ele>1111.0</ele><time>2026-03-26T08:23:55.013Z</time></trkpt><trkpt lat="30.78755025987274" lon="-6.013191960110064"><ele>1110.0</ele><time>2026-03-26T08:23:56.013Z</time></trkpt><trkpt lat="30.787411562505177" lon="-6.0134017988971165"><ele>1109.0</ele><time>2026-03-26T08:23:57.013Z</time></trkpt><trkpt lat="30.787273883380845" lon="-6.0136086256449754"><ele>1109.0</ele><time>2026-03-26T08:23:58.013Z</time></trkpt><trkpt lat="30.787136964740565" lon="-6.013812291090798"><ele>1109.0</ele><time>2026-03-26T08:23:59.012Z</time></trkpt><trkpt lat="30.78700612093856" lon="-6.014014774111454"><ele>1109.0</ele><time>2026-03-26T08:24:00.012Z</time></trkpt><trkpt lat="30.786872431667717" lon="-6.014217179043232"><ele>1108.0</ele><time>2026-03-26T08:24:01.013Z</time></trkpt><trkpt lat="30.78673735096368" lon="-6.0144210529886175"><ele>1107.0</ele><time>2026-03-26T08:24:02.013Z</time></trkpt><trkpt lat="30.786593165059372" lon="-6.0146328507494005"><ele>1107.0</ele><time>2026-03-26T08:24:03.013Z</time></trkpt><trkpt lat="30.786449767160633" lon="-6.014844521469485"><ele>1107.0</ele><time>2026-03-26T08:24:04.013Z</time></trkpt><trkpt lat="30.786316758137236" lon="-6.015046297483399"><ele>1106.6666666666667</ele><time>2026-03-26T08:24:05.013Z</time></trkpt><trkpt lat="30.786183769401344" lon="-6.015249060420121"><ele>1106.3333333333335</ele><time>2026-03-26T08:24:06.013Z</time></trkpt><trkpt lat="30.786046825893905" lon="-6.015456020958735"><ele>1106.0</ele><time>2026-03-26T08:24:07.013Z</time></trkpt><trkpt lat="30.785915115977883" lon="-6.015651496862373"><ele>1105.0</ele><time>2026-03-26T08:24:08.013Z</time></trkpt><trkpt lat="30.785783598844297" lon="-6.015848465584576"><ele>1104.0</ele><time>2026-03-26T08:24:09.013Z</time></trkpt><trkpt lat="30.785650947375203" lon="-6.016045895357846"><ele>1103.0</ele><time>2026-03-26T08:24:10.013Z</time></trkpt><trkpt lat="30.785515797896142" lon="-6.01624180017076"><ele>1103.0</ele><time>2026-03-26T08:24:11.013Z</time></trkpt><trkpt lat="30.785383951366246" lon="-6.016436801408997"><ele>1103.0</ele><time>2026-03-26T08:24:12.013Z</time></trkpt><trkpt lat="30.78525280079274" lon="-6.016631059011153"><ele>1103.0</ele><time>2026-03-26T08:24:13.013Z</time></trkpt><trkpt lat="30.78512130045266" lon="-6.016829645418664"><ele>1102.5</ele><time>2026-03-26T08:24:14.013Z</time></trkpt><trkpt lat="30.78498483850778" lon="-6.017039815866258"><ele>1102.0</ele><time>2026-03-26T08:24:15.013Z</time></trkpt><trkpt lat="30.78484869914562" lon="-6.017252647499316"><ele>1102.0</ele><time>2026-03-26T08:24:16.013Z</time></trkpt><trkpt lat="30.78471115395963" lon="-6.017468580158925"><ele>1102.0</ele><time>2026-03-26T08:24:17.013Z</time></trkpt><trkpt lat="30.784574016075975" lon="-6.01768563579218"><ele>1101.5</ele><time>2026-03-26T08:24:18.013Z</time></trkpt><trkpt lat="30.784434736309617" lon="-6.017905714099909"><ele>1101.0</ele><time>2026-03-26T08:24:19.013Z</time></trkpt><trkpt lat="30.784298089113967" lon="-6.018129486956606"><ele>1100.5</ele><time>2026-03-26T08:24:20.013Z</time></trkpt><trkpt lat="30.784169009271917" lon="-6.018341135761186"><ele>1100.0</ele><time>2026-03-26T08:24:21.013Z</time></trkpt><trkpt lat="30.7840359491116" lon="-6.018570359011751"><ele>1100.0</ele><time>2026-03-26T08:24:22.013Z</time></trkpt><trkpt lat="30.783898177546686" lon="-6.0188072945267965"><ele>1100.0</ele><time>2026-03-26T08:24:23.013Z</time></trkpt><trkpt lat="30.783761840670785" lon="-6.019041762084535"><ele>1100.0</ele><time>2026-03-26T08:24:24.013Z</time></trkpt><trkpt lat="30.783626846838974" lon="-6.019280050024557"><ele>1100.0</ele><time>2026-03-26T08:24:25.013Z</time></trkpt><trkpt lat="30.783499335136387" lon="-6.019506005239098"><ele>1099.0</ele><time>2026-03-26T08:24:26.013Z</time></trkpt><trkpt lat="30.783372525635464" lon="-6.019734151153659"><ele>1098.0</ele><time>2026-03-26T08:24:27.013Z</time></trkpt><trkpt lat="30.783242112252204" lon="-6.019960582790592"><ele>1097.5</ele><time>2026-03-26T08:24:28.013Z</time></trkpt><trkpt lat="30.78311256736753" lon="-6.020189256849592"><ele>1097.0</ele><time>2026-03-26T08:24:29.013Z</time></trkpt><trkpt lat="30.78298141401928" lon="-6.020415366751012"><ele>1097.0</ele><time>2026-03-26T08:24:30.013Z</time></trkpt><trkpt lat="30.78285406761016" lon="-6.0206364448859775"><ele>1097.0</ele><time>2026-03-26T08:24:31.013Z</time></trkpt><trkpt lat="30.782727375769536" lon="-6.020858450324876"><ele>1096.0</ele><time>2026-03-26T08:24:32.013Z</time></trkpt><trkpt lat="30.7826014159653" lon="-6.021082455008013"><ele>1095.0</ele><time>2026-03-26T08:24:33.013Z</time></trkpt><trkpt lat="30.78247403004925" lon="-6.021303955168133"><ele>1095.0</ele><time>2026-03-26T08:24:34.013Z</time></trkpt><trkpt lat="30.782345631904338" lon="-6.0215268555416825"><ele>1095.0</ele><time>2026-03-26T08:24:35.013Z</time></trkpt><trkpt lat="30.78221582444486" lon="-6.021749460349164"><ele>1094.5</ele><time>2026-03-26T08:24:36.013Z</time></trkpt><trkpt lat="30.782084816579676" lon="-6.021971845240606"><ele>1094.0</ele><time>2026-03-26T08:24:37.013Z</time></trkpt><trkpt lat="30.78195425151636" lon="-6.022193639820306"><ele>1093.5</ele><time>2026-03-26T08:24:38.013Z</time></trkpt><trkpt lat="30.78182151306517" lon="-6.022412588828548"><ele>1093.0</ele><time>2026-03-26T08:24:39.013Z</time></trkpt><trkpt lat="30.78169609704366" lon="-6.022632391196119"><ele>1093.0</ele><time>2026-03-26T08:24:40.013Z</time></trkpt><trkpt lat="30.78156663475252" lon="-6.022849044190406"><ele>1093.0</ele><time>2026-03-26T08:24:41.013Z</time></trkpt><trkpt lat="30.781436727796855" lon="-6.023062251302379"><ele>1093.0</ele><time>2026-03-26T08:24:42.013Z</time></trkpt><trkpt lat="30.781304832018122" lon="-6.023274922888241"><ele>1093.0</ele><time>2026-03-26T08:24:43.013Z</time></trkpt><trkpt lat="30.781172039093054" lon="-6.023486279763618"><ele>1093.0</ele><time>2026-03-26T08:24:44.013Z</time></trkpt><trkpt lat="30.78103746496369" lon="-6.023695489491797"><ele>1093.0</ele><time>2026-03-26T08:24:45.013Z</time></trkpt><trkpt lat="30.780900792451842" lon="-6.023904998384503"><ele>1092.0</ele><time>2026-03-26T08:24:46.013Z</time></trkpt><trkpt lat="30.780763378658033" lon="-6.0241119922153485"><ele>1091.0</ele><time>2026-03-26T08:24:47.013Z</time></trkpt><trkpt lat="30.780620683261073" lon="-6.024331019774536"><ele>1090.0</ele><time>2026-03-26T08:24:48.013Z</time></trkpt><trkpt lat="30.78047595631119" lon="-6.024547866660282"><ele>1089.0</ele><time>2026-03-26T08:24:49.013Z</time></trkpt><trkpt lat="30.78034089964967" lon="-6.02475739871231"><ele>1089.0</ele><time>2026-03-26T08:24:50.013Z</time></trkpt><trkpt lat="30.780200812028003" lon="-6.024971877218367"><ele>1089.0</ele><time>2026-03-26T08:24:51.013Z</time></trkpt><trkpt lat="30.780059510696734" lon="-6.025187533045557"><ele>1087.5</ele><time>2026-03-26T08:24:52.013Z</time></trkpt><trkpt lat="30.779915092111395" lon="-6.025405745628603"><ele>1086.0</ele><time>2026-03-26T08:24:53.013Z</time></trkpt><trkpt lat="30.779773877966228" lon="-6.025617549160931"><ele>1086.5</ele><time>2026-03-26T08:24:54.013Z</time></trkpt><trkpt lat="30.779632550560958" lon="-6.025827991486196"><ele>1087.0</ele><time>2026-03-26T08:24:55.013Z</time></trkpt><trkpt lat="30.779489596588324" lon="-6.026039428060222"><ele>1087.0</ele><time>2026-03-26T08:24:56.013Z</time></trkpt><trkpt lat="30.77935378791421" lon="-6.02624634059024"><ele>1087.0</ele><time>2026-03-26T08:24:57.013Z</time></trkpt><trkpt lat="30.779213504608542" lon="-6.02645420633711"><ele>1085.0</ele><time>2026-03-26T08:24:58.013Z</time></trkpt><trkpt lat="30.7790708103452" lon="-6.026668765144803"><ele>1083.0</ele><time>2026-03-26T08:24:59.013Z</time></trkpt><trkpt lat="30.778928228109024" lon="-6.026888895484327"><ele>1083.0</ele><time>2026-03-26T08:25:00.013Z</time></trkpt><trkpt lat="30.778787948428945" lon="-6.0271000419052605"><ele>1083.0</ele><time>2026-03-26T08:25:01.013Z</time></trkpt><trkpt lat="30.778645589395992" lon="-6.027314487873053"><ele>1082.6666666666667</ele><time>2026-03-26T08:25:02.013Z</time></trkpt><trkpt lat="30.778511327473627" lon="-6.027516673507649"><ele>1082.3333333333335</ele><time>2026-03-26T08:25:03.013Z</time></trkpt><trkpt lat="30.77837718716205" lon="-6.02771794540712"><ele>1082.0</ele><time>2026-03-26T08:25:04.013Z</time></trkpt><trkpt lat="30.778246044925442" lon="-6.027912630549402"><ele>1082.0</ele><time>2026-03-26T08:25:05.013Z</time></trkpt><trkpt lat="30.778120499128622" lon="-6.028105773261667"><ele>1082.0</ele><time>2026-03-26T08:25:06.013Z</time></trkpt><trkpt lat="30.777993584260184" lon="-6.028300399793109"><ele>1082.0</ele><time>2026-03-26T08:25:07.013Z</time></trkpt><trkpt lat="30.777863350936332" lon="-6.02850238045449"><ele>1082.3333333333335</ele><time>2026-03-26T08:25:08.013Z</time></trkpt><trkpt lat="30.777730812661346" lon="-6.0286987116693505"><ele>1082.6666666666667</ele><time>2026-03-26T08:25:09.013Z</time></trkpt><trkpt lat="30.777598762059725" lon="-6.028896645285096"><ele>1083.0</ele><time>2026-03-26T08:25:10.013Z</time></trkpt><trkpt lat="30.77746920521072" lon="-6.029090842963655"><ele>1083.6666666666667</ele><time>2026-03-26T08:25:11.013Z</time></trkpt><trkpt lat="30.777339781238958" lon="-6.0292822632341325"><ele>1084.3333333333335</ele><time>2026-03-26T08:25:12.013Z</time></trkpt><trkpt lat="30.777209838831464" lon="-6.029480393170879"><ele>1085.0</ele><time>2026-03-26T08:25:13.013Z</time></trkpt><trkpt lat="30.777074041449122" lon="-6.0296887893093905"><ele>1085.0</ele><time>2026-03-26T08:25:14.013Z</time></trkpt><trkpt lat="30.776942182292444" lon="-6.029891703428682"><ele>1085.0</ele><time>2026-03-26T08:25:15.013Z</time></trkpt><trkpt lat="30.776806604647323" lon="-6.030095303196554"><ele>1085.0</ele><time>2026-03-26T08:25:16.013Z</time></trkpt><trkpt lat="30.776669563927868" lon="-6.030302153118791"><ele>1084.0</ele><time>2026-03-26T08:25:17.013Z</time></trkpt><trkpt lat="30.77652984908694" lon="-6.030513611847176"><ele>1083.0</ele><time>2026-03-26T08:25:18.013Z</time></trkpt><trkpt lat="30.77638954063634" lon="-6.0307218809446805"><ele>1082.6666666666667</ele><time>2026-03-26T08:25:19.013Z</time></trkpt><trkpt lat="30.77625320846795" lon="-6.030925049281427"><ele>1082.3333333333335</ele><time>2026-03-26T08:25:20.013Z</time></trkpt><trkpt lat="30.77612211833631" lon="-6.031124420868909"><ele>1082.0</ele><time>2026-03-26T08:25:21.013Z</time></trkpt><trkpt lat="30.775993646139348" lon="-6.031318258471411"><ele>1082.0</ele><time>2026-03-26T08:25:22.012Z</time></trkpt><trkpt lat="30.77586687581341" lon="-6.031511681741877"><ele>1082.0</ele><time>2026-03-26T08:25:23.012Z</time></trkpt><trkpt lat="30.775737457325373" lon="-6.031708041227773"><ele>1082.0</ele><time>2026-03-26T08:25:24.012Z</time></trkpt><trkpt lat="30.775604447788865" lon="-6.031907075882401"><ele>1083.0</ele><time>2026-03-26T08:25:25.012Z</time></trkpt><trkpt lat="30.77546469296868" lon="-6.032115705905139"><ele>1084.0</ele><time>2026-03-26T08:25:26.012Z</time></trkpt><trkpt lat="30.77532538377063" lon="-6.032325103542929"><ele>1084.3333333333333</ele><time>2026-03-26T08:25:27.012Z</time></trkpt><trkpt lat="30.77518903637697" lon="-6.032529527058969"><ele>1084.6666666666667</ele><time>2026-03-26T08:25:28.012Z</time></trkpt><trkpt lat="30.775054900952483" lon="-6.0327312591441835"><ele>1085.0</ele><time>2026-03-26T08:25:29.012Z</time></trkpt><trkpt lat="30.77492054144996" lon="-6.0329346567995445"><ele>1084.6666666666667</ele><time>2026-03-26T08:25:30.012Z</time></trkpt><trkpt lat="30.7747879276445" lon="-6.033134067246113"><ele>1084.3333333333333</ele><time>2026-03-26T08:25:31.012Z</time></trkpt><trkpt lat="30.774656310700475" lon="-6.033333477253206"><ele>1084.0</ele><time>2026-03-26T08:25:32.012Z</time></trkpt><trkpt lat="30.774526179900935" lon="-6.033531894457333"><ele>1084.0</ele><time>2026-03-26T08:25:33.012Z</time></trkpt><trkpt lat="30.77439421060298" lon="-6.033732225146061"><ele>1084.0</ele><time>2026-03-26T08:25:34.012Z</time></trkpt><trkpt lat="30.774255421802746" lon="-6.0339396121403865"><ele>1084.0</ele><time>2026-03-26T08:25:35.012Z</time></trkpt><trkpt lat="30.774119150020617" lon="-6.0341429302814005"><ele>1083.0</ele><time>2026-03-26T08:25:36.012Z</time></trkpt><trkpt lat="30.77398372885761" lon="-6.034348616465848"><ele>1082.0</ele><time>2026-03-26T08:25:37.012Z</time></trkpt><trkpt lat="30.773845355475363" lon="-6.034555997900454"><ele>1081.0</ele><time>2026-03-26T08:25:38.013Z</time></trkpt><trkpt lat="30.773710156539224" lon="-6.034761355345879"><ele>1081.0</ele><time>2026-03-26T08:25:39.013Z</time></trkpt><trkpt lat="30.773575898282218" lon="-6.0349655740602515"><ele>1081.0</ele><time>2026-03-26T08:25:40.013Z</time></trkpt><trkpt lat="30.77344059681767" lon="-6.0351723337994905"><ele>1081.0</ele><time>2026-03-26T08:25:41.013Z</time></trkpt><trkpt lat="30.77330555004658" lon="-6.0353800986601795"><ele>1080.3333333333333</ele><time>2026-03-26T08:25:42.013Z</time></trkpt><trkpt lat="30.77316916902374" lon="-6.035585058231436"><ele>1079.6666666666667</ele><time>2026-03-26T08:25:43.013Z</time></trkpt><trkpt lat="30.773033345787148" lon="-6.03579052725908"><ele>1079.0</ele><time>2026-03-26T08:25:44.013Z</time></trkpt><trkpt lat="30.772898703656704" lon="-6.035997517645066"><ele>1079.0</ele><time>2026-03-26T08:25:45.013Z</time></trkpt><trkpt lat="30.77276249672247" lon="-6.03620234734866"><ele>1079.0</ele><time>2026-03-26T08:25:46.013Z</time></trkpt><trkpt lat="30.77262411363849" lon="-6.03641079488443"><ele>1079.0</ele><time>2026-03-26T08:25:47.013Z</time></trkpt><trkpt lat="30.772487835112205" lon="-6.036616256923846"><ele>1078.3333333333335</ele><time>2026-03-26T08:25:48.013Z</time></trkpt><trkpt lat="30.772353627018397" lon="-6.036816261188609"><ele>1077.6666666666667</ele><time>2026-03-26T08:25:49.013Z</time></trkpt><trkpt lat="30.772221464274217" lon="-6.03701667514712"><ele>1077.0</ele><time>2026-03-26T08:25:50.013Z</time></trkpt><trkpt lat="30.772090697889936" lon="-6.037216808235648"><ele>1077.0</ele><time>2026-03-26T08:25:51.013Z</time></trkpt><trkpt lat="30.771957415270805" lon="-6.037418978421991"><ele>1077.0</ele><time>2026-03-26T08:25:52.013Z</time></trkpt><trkpt lat="30.771824275844335" lon="-6.037621999313083"><ele>1077.0</ele><time>2026-03-26T08:25:53.013Z</time></trkpt><trkpt lat="30.771690719670346" lon="-6.037823619960306"><ele>1076.3333333333333</ele><time>2026-03-26T08:25:54.013Z</time></trkpt><trkpt lat="30.7715546631141" lon="-6.038029318757743"><ele>1075.6666666666665</ele><time>2026-03-26T08:25:55.013Z</time></trkpt><trkpt lat="30.771418680972847" lon="-6.038235776953202"><ele>1075.0</ele><time>2026-03-26T08:25:56.013Z</time></trkpt><trkpt lat="30.771284169118854" lon="-6.038440557568545"><ele>1075.0</ele><time>2026-03-26T08:25:57.013Z</time></trkpt><trkpt lat="30.771150223260328" lon="-6.038644433096587"><ele>1075.0</ele><time>2026-03-26T08:25:58.013Z</time></trkpt><trkpt lat="30.771013369694" lon="-6.038848344909301"><ele>1075.0</ele><time>2026-03-26T08:25:59.013Z</time></trkpt><trkpt lat="30.77087602085915" lon="-6.0390524367618665"><ele>1073.5</ele><time>2026-03-26T08:26:00.013Z</time></trkpt><trkpt lat="30.77073823154356" lon="-6.039262172326444"><ele>1072.0</ele><time>2026-03-26T08:26:01.013Z</time></trkpt><trkpt lat="30.770599698314957" lon="-6.039471817606452"><ele>1072.0</ele><time>2026-03-26T08:26:02.013Z</time></trkpt><trkpt lat="30.770459530208246" lon="-6.039684162379618"><ele>1072.0</ele><time>2026-03-26T08:26:03.013Z</time></trkpt><trkpt lat="30.770317094385366" lon="-6.039898763999347"><ele>1070.5</ele><time>2026-03-26T08:26:04.013Z</time></trkpt><trkpt lat="30.770173940993523" lon="-6.040116321545409"><ele>1069.0</ele><time>2026-03-26T08:26:05.013Z</time></trkpt><trkpt lat="30.770034739784634" lon="-6.0403261675476365"><ele>1069.0</ele><time>2026-03-26T08:26:06.013Z</time></trkpt><trkpt lat="30.769899837070984" lon="-6.040531427134575"><ele>1069.0</ele><time>2026-03-26T08:26:07.013Z</time></trkpt><trkpt lat="30.769767204820752" lon="-6.040734863791499"><ele>1069.0</ele><time>2026-03-26T08:26:08.014Z</time></trkpt><trkpt lat="30.76963618653453" lon="-6.040934755537096"><ele>1069.3333333333333</ele><time>2026-03-26T08:26:09.014Z</time></trkpt><trkpt lat="30.769505539771746" lon="-6.0411340441082855"><ele>1069.6666666666667</ele><time>2026-03-26T08:26:10.014Z</time></trkpt><trkpt lat="30.769374219994745" lon="-6.0413336026213384"><ele>1070.0</ele><time>2026-03-26T08:26:11.014Z</time></trkpt><trkpt lat="30.769240945801123" lon="-6.041536597211212"><ele>1068.6666666666667</ele><time>2026-03-26T08:26:12.014Z</time></trkpt><trkpt lat="30.769105448140536" lon="-6.041743500151364"><ele>1067.3333333333333</ele><time>2026-03-26T08:26:13.014Z</time></trkpt><trkpt lat="30.768967986870038" lon="-6.041952029678384"><ele>1066.0</ele><time>2026-03-26T08:26:14.014Z</time></trkpt><trkpt lat="30.76883593852957" lon="-6.042152981745206"><ele>1066.0</ele><time>2026-03-26T08:26:15.014Z</time></trkpt><trkpt lat="30.768709687363415" lon="-6.042345170047984"><ele>1066.0</ele><time>2026-03-26T08:26:16.014Z</time></trkpt><trkpt lat="30.76857992380841" lon="-6.042543032687211"><ele>1066.0</ele><time>2026-03-26T08:26:17.014Z</time></trkpt><trkpt lat="30.768452138789932" lon="-6.042738489496873"><ele>1065.3333333333333</ele><time>2026-03-26T08:26:18.014Z</time></trkpt><trkpt lat="30.768324497866736" lon="-6.04293491361223"><ele>1064.6666666666667</ele><time>2026-03-26T08:26:19.014Z</time></trkpt><trkpt lat="30.768197413524582" lon="-6.043128305112758"><ele>1064.0</ele><time>2026-03-26T08:26:20.014Z</time></trkpt><trkpt lat="30.7680712369835" lon="-6.0433204243993925"><ele>1064.0</ele><time>2026-03-26T08:26:21.014Z</time></trkpt><trkpt lat="30.767941253134993" lon="-6.043520216916324"><ele>1064.0</ele><time>2026-03-26T08:26:22.014Z</time></trkpt><trkpt lat="30.767806703624775" lon="-6.043724240551353"><ele>1064.0</ele><time>2026-03-26T08:26:23.014Z</time></trkpt><trkpt lat="30.76767867252111" lon="-6.043921595614116"><ele>1063.3333333333335</ele><time>2026-03-26T08:26:24.014Z</time></trkpt><trkpt lat="30.76754710173828" lon="-6.044121500863294"><ele>1062.6666666666667</ele><time>2026-03-26T08:26:25.014Z</time></trkpt><trkpt lat="30.767415932834727" lon="-6.044321717595958"><ele>1062.0</ele><time>2026-03-26T08:26:26.014Z</time></trkpt><trkpt lat="30.767285241847823" lon="-6.044520150921968"><ele>1062.0</ele><time>2026-03-26T08:26:27.014Z</time></trkpt><trkpt lat="30.767153751973776" lon="-6.044718153311635"><ele>1062.0</ele><time>2026-03-26T08:26:28.014Z</time></trkpt><trkpt lat="30.767024099786802" lon="-6.044917293806125"><ele>1062.0</ele><time>2026-03-26T08:26:29.014Z</time></trkpt><trkpt lat="30.766894731270515" lon="-6.045114701866756"><ele>1061.0</ele><time>2026-03-26T08:26:30.014Z</time></trkpt><trkpt lat="30.766763651763444" lon="-6.045317579308531"><ele>1060.0</ele><time>2026-03-26T08:26:31.014Z</time></trkpt><trkpt lat="30.766626674107794" lon="-6.045525289791346"><ele>1059.0</ele><time>2026-03-26T08:26:32.014Z</time></trkpt><trkpt lat="30.76648977359681" lon="-6.0457337201194905"><ele>1059.0</ele><time>2026-03-26T08:26:33.014Z</time></trkpt><trkpt lat="30.766354520229473" lon="-6.04594003443868"><ele>1059.0</ele><time>2026-03-26T08:26:34.014Z</time></trkpt><trkpt lat="30.766220336170523" lon="-6.046144507974526"><ele>1059.0</ele><time>2026-03-26T08:26:35.014Z</time></trkpt><trkpt lat="30.76608792504671" lon="-6.046346407595887"><ele>1058.6666666666667</ele><time>2026-03-26T08:26:36.014Z</time></trkpt><trkpt lat="30.765954250085553" lon="-6.046548713061335"><ele>1058.3333333333335</ele><time>2026-03-26T08:26:37.014Z</time></trkpt><trkpt lat="30.765819289540346" lon="-6.046753230821612"><ele>1058.0</ele><time>2026-03-26T08:26:38.014Z</time></trkpt><trkpt lat="30.76568420290935" lon="-6.046960884703603"><ele>1058.0</ele><time>2026-03-26T08:26:39.014Z</time></trkpt><trkpt lat="30.765544857795334" lon="-6.047170522045811"><ele>1058.0</ele><time>2026-03-26T08:26:40.014Z</time></trkpt><trkpt lat="30.765408968584524" lon="-6.047378812379024"><ele>1058.0</ele><time>2026-03-26T08:26:41.014Z</time></trkpt><trkpt lat="30.765278047829742" lon="-6.0475777620672435"><ele>1058.0</ele><time>2026-03-26T08:26:42.014Z</time></trkpt><trkpt lat="30.765146360035335" lon="-6.047777553211182"><ele>1058.0</ele><time>2026-03-26T08:26:43.014Z</time></trkpt><trkpt lat="30.765016817284277" lon="-6.047972108087998"><ele>1057.3333333333335</ele><time>2026-03-26T08:26:44.014Z</time></trkpt><trkpt lat="30.76488974624284" lon="-6.04816697602786"><ele>1056.6666666666667</ele><time>2026-03-26T08:26:45.014Z</time></trkpt><trkpt lat="30.764761763655248" lon="-6.048364804233119"><ele>1056.0</ele><time>2026-03-26T08:26:46.014Z</time></trkpt><trkpt lat="30.76462851308799" lon="-6.048567166021621"><ele>1056.0</ele><time>2026-03-26T08:26:47.014Z</time></trkpt><trkpt lat="30.764494558206465" lon="-6.048774547571762"><ele>1056.0</ele><time>2026-03-26T08:26:48.014Z</time></trkpt><trkpt lat="30.764358191805794" lon="-6.048980298210017"><ele>1056.0</ele><time>2026-03-26T08:26:49.014Z</time></trkpt><trkpt lat="30.7642240468106" lon="-6.049187501383614"><ele>1054.3333333333333</ele><time>2026-03-26T08:26:50.014Z</time></trkpt><trkpt lat="30.7640877666231" lon="-6.049391686844761"><ele>1052.6666666666665</ele><time>2026-03-26T08:26:51.014Z</time></trkpt><trkpt lat="30.763954423892326" lon="-6.049592239960633"><ele>1051.0</ele><time>2026-03-26T08:26:52.014Z</time></trkpt><trkpt lat="30.763821136508913" lon="-6.049794692909145"><ele>1051.3333333333333</ele><time>2026-03-26T08:26:53.014Z</time></trkpt><trkpt lat="30.76368710546117" lon="-6.049998472700979"><ele>1051.6666666666667</ele><time>2026-03-26T08:26:54.014Z</time></trkpt><trkpt lat="30.763550495975615" lon="-6.05020585569212"><ele>1052.0</ele><time>2026-03-26T08:26:55.014Z</time></trkpt><trkpt lat="30.76341651990646" lon="-6.050408609322785"><ele>1050.6666666666667</ele><time>2026-03-26T08:26:56.014Z</time></trkpt><trkpt lat="30.76328320221377" lon="-6.050609292383291"><ele>1049.3333333333333</ele><time>2026-03-26T08:26:57.014Z</time></trkpt><trkpt lat="30.76315172158929" lon="-6.050809895894238"><ele>1048.0</ele><time>2026-03-26T08:26:58.014Z</time></trkpt><trkpt lat="30.76302302135515" lon="-6.0510089627974"><ele>1048.0</ele><time>2026-03-26T08:26:59.014Z</time></trkpt><trkpt lat="30.762891118192176" lon="-6.051212099386181"><ele>1048.0</ele><time>2026-03-26T08:27:00.014Z</time></trkpt><trkpt lat="30.762756842733356" lon="-6.051413941182475"><ele>1048.0</ele><time>2026-03-26T08:27:01.014Z</time></trkpt><trkpt lat="30.762621815148318" lon="-6.0516198581830185"><ele>1047.0</ele><time>2026-03-26T08:27:02.014Z</time></trkpt><trkpt lat="30.76248756345659" lon="-6.051820315520496"><ele>1046.0</ele><time>2026-03-26T08:27:03.014Z</time></trkpt><trkpt lat="30.762360732298323" lon="-6.052008760788541"><ele>1045.0</ele><time>2026-03-26T08:27:04.014Z</time></trkpt><trkpt lat="30.76224056920263" lon="-6.052185688769554"><ele>1045.0</ele><time>2026-03-26T08:27:05.014Z</time></trkpt><trkpt lat="30.762120119862065" lon="-6.052365420816495"><ele>1045.0</ele><time>2026-03-26T08:27:06.014Z</time></trkpt><trkpt lat="30.76200036059285" lon="-6.052546216071634"><ele>1045.0</ele><time>2026-03-26T08:27:07.014Z</time></trkpt><trkpt lat="30.761882751916435" lon="-6.052733378735601"><ele>1045.3333333333333</ele><time>2026-03-26T08:27:08.014Z</time></trkpt><trkpt lat="30.76176425110341" lon="-6.052915375058873"><ele>1045.6666666666667</ele><time>2026-03-26T08:27:09.014Z</time></trkpt><trkpt lat="30.76165502819897" lon="-6.053084816448475"><ele>1046.0</ele><time>2026-03-26T08:27:10.014Z</time></trkpt><trkpt lat="30.76154789126911" lon="-6.053254212958865"><ele>1046.0</ele><time>2026-03-26T08:27:11.014Z</time></trkpt><trkpt lat="30.761435556932607" lon="-6.053422498317166"><ele>1046.0</ele><time>2026-03-26T08:27:12.014Z</time></trkpt><trkpt lat="30.761319088859725" lon="-6.05359594752222"><ele>1046.0</ele><time>2026-03-26T08:27:13.014Z</time></trkpt><trkpt lat="30.761199165485174" lon="-6.05377329039598"><ele>1046.0</ele><time>2026-03-26T08:27:14.014Z</time></trkpt><trkpt lat="30.761082646984285" lon="-6.053949449522623"><ele>1046.0</ele><time>2026-03-26T08:27:15.014Z</time></trkpt><trkpt lat="30.760968369161308" lon="-6.054122355328455"><ele>1046.0</ele><time>2026-03-26T08:27:16.014Z</time></trkpt><trkpt lat="30.760848846533403" lon="-6.05429934202838"><ele>1045.6666666666667</ele><time>2026-03-26T08:27:17.014Z</time></trkpt><trkpt lat="30.760730851102203" lon="-6.05448042296644"><ele>1045.3333333333333</ele><time>2026-03-26T08:27:18.014Z</time></trkpt><trkpt lat="30.760610608411998" lon="-6.05466128614836"><ele>1045.0</ele><time>2026-03-26T08:27:19.014Z</time></trkpt><trkpt lat="30.760491337399262" lon="-6.054839405590025"><ele>1045.0</ele><time>2026-03-26T08:27:20.014Z</time></trkpt><trkpt lat="30.760375713242283" lon="-6.055020793899207"><ele>1045.0</ele><time>2026-03-26T08:27:21.014Z</time></trkpt><trkpt lat="30.760258298191744" lon="-6.055200091984276"><ele>1045.0</ele><time>2026-03-26T08:27:22.014Z</time></trkpt><trkpt lat="30.760137079084455" lon="-6.055388328402597"><ele>1044.6666666666665</ele><time>2026-03-26T08:27:23.014Z</time></trkpt><trkpt lat="30.760014323873026" lon="-6.055574032132272"><ele>1044.3333333333333</ele><time>2026-03-26T08:27:24.014Z</time></trkpt><trkpt lat="30.759887363342916" lon="-6.055768649855692"><ele>1044.0</ele><time>2026-03-26T08:27:25.014Z</time></trkpt><trkpt lat="30.759761459345583" lon="-6.055961191498542"><ele>1044.0</ele><time>2026-03-26T08:27:26.014Z</time></trkpt><trkpt lat="30.75963606685405" lon="-6.056159790893716"><ele>1044.0</ele><time>2026-03-26T08:27:27.014Z</time></trkpt><trkpt lat="30.759506782912766" lon="-6.056364879060018"><ele>1044.0</ele><time>2026-03-26T08:27:28.014Z</time></trkpt><trkpt lat="30.75937959243808" lon="-6.056571523953428"><ele>1043.0</ele><time>2026-03-26T08:27:29.014Z</time></trkpt><trkpt lat="30.759248758105123" lon="-6.056782480239602"><ele>1042.0</ele><time>2026-03-26T08:27:30.014Z</time></trkpt><trkpt lat="30.759119365107853" lon="-6.056992831825164"><ele>1041.0</ele><time>2026-03-26T08:27:31.014Z</time></trkpt><trkpt lat="30.758990482517298" lon="-6.057203269540057"><ele>1041.0</ele><time>2026-03-26T08:27:32.014Z</time></trkpt><trkpt lat="30.758859244814616" lon="-6.0574118543305"><ele>1041.0</ele><time>2026-03-26T08:27:33.014Z</time></trkpt><trkpt lat="30.75872712492454" lon="-6.057618595040598"><ele>1041.0</ele><time>2026-03-26T08:27:34.014Z</time></trkpt><trkpt lat="30.758594669171302" lon="-6.057817776652228"><ele>1039.6666666666667</ele><time>2026-03-26T08:27:35.014Z</time></trkpt><trkpt lat="30.75846449530616" lon="-6.058008306677495"><ele>1038.3333333333335</ele><time>2026-03-26T08:27:36.014Z</time></trkpt><trkpt lat="30.758334163214403" lon="-6.0581989996603784"><ele>1037.0</ele><time>2026-03-26T08:27:37.014Z</time></trkpt><trkpt lat="30.7582035845706" lon="-6.058384040488793"><ele>1037.0</ele><time>2026-03-26T08:27:38.014Z</time></trkpt><trkpt lat="30.758070004969575" lon="-6.058568945865742"><ele>1037.0</ele><time>2026-03-26T08:27:39.014Z</time></trkpt><trkpt lat="30.757938940598862" lon="-6.058757298792844"><ele>1037.0</ele><time>2026-03-26T08:27:40.014Z</time></trkpt><trkpt lat="30.757805556225406" lon="-6.058950620887766"><ele>1037.0</ele><time>2026-03-26T08:27:41.014Z</time></trkpt><trkpt lat="30.75767414892401" lon="-6.059138291507928"><ele>1037.0</ele><time>2026-03-26T08:27:42.014Z</time></trkpt><trkpt lat="30.75754370248454" lon="-6.059323379445997"><ele>1037.0</ele><time>2026-03-26T08:27:43.014Z</time></trkpt><trkpt lat="30.757417372142406" lon="-6.059503112788168"><ele>1037.0</ele><time>2026-03-26T08:27:44.014Z</time></trkpt><trkpt lat="30.75729340216703" lon="-6.059681813484983"><ele>1037.0</ele><time>2026-03-26T08:27:45.014Z</time></trkpt><trkpt lat="30.757176462451408" lon="-6.059858858001787"><ele>1037.0</ele><time>2026-03-26T08:27:46.014Z</time></trkpt><trkpt lat="30.757061546964177" lon="-6.060041276971534"><ele>1037.3333333333335</ele><time>2026-03-26T08:27:47.015Z</time></trkpt><trkpt lat="30.756948236735397" lon="-6.060232553511376"><ele>1037.6666666666667</ele><time>2026-03-26T08:27:48.015Z</time></trkpt><trkpt lat="30.75682822969162" lon="-6.060438896811582"><ele>1038.0</ele><time>2026-03-26T08:27:49.015Z</time></trkpt><trkpt lat="30.756707170158958" lon="-6.060650696356956"><ele>1037.0</ele><time>2026-03-26T08:27:50.015Z</time></trkpt><trkpt lat="30.756586560629415" lon="-6.060861689138756"><ele>1036.0</ele><time>2026-03-26T08:27:51.015Z</time></trkpt><trkpt lat="30.756465748431097" lon="-6.061070482393263"><ele>1035.0</ele><time>2026-03-26T08:27:52.015Z</time></trkpt><trkpt lat="30.75634391030938" lon="-6.061280996591305"><ele>1035.0</ele><time>2026-03-26T08:27:53.015Z</time></trkpt><trkpt lat="30.75622388891829" lon="-6.06149016078169"><ele>1035.0</ele><time>2026-03-26T08:27:54.015Z</time></trkpt><trkpt lat="30.756107185040285" lon="-6.061697805349057"><ele>1035.0</ele><time>2026-03-26T08:27:55.015Z</time></trkpt><trkpt lat="30.755993151652323" lon="-6.061917481737196"><ele>1034.3333333333333</ele><time>2026-03-26T08:27:56.015Z</time></trkpt><trkpt lat="30.75588491576971" lon="-6.062138460996471"><ele>1033.6666666666665</ele><time>2026-03-26T08:27:57.015Z</time></trkpt><trkpt lat="30.755777146203194" lon="-6.062368457075299"><ele>1033.0</ele><time>2026-03-26T08:27:58.015Z</time></trkpt><trkpt lat="30.75567474353896" lon="-6.0626013007032755"><ele>1032.3333333333333</ele><time>2026-03-26T08:27:59.015Z</time></trkpt><trkpt lat="30.75557324018845" lon="-6.062833974275443"><ele>1031.6666666666667</ele><time>2026-03-26T08:28:00.015Z</time></trkpt><trkpt lat="30.755472538322056" lon="-6.063062616636154"><ele>1031.0</ele><time>2026-03-26T08:28:01.015Z</time></trkpt><trkpt lat="30.755372248372566" lon="-6.063289114159911"><ele>1031.0</ele><time>2026-03-26T08:28:02.015Z</time></trkpt><trkpt lat="30.755272329365738" lon="-6.0635164979647405"><ele>1031.0</ele><time>2026-03-26T08:28:03.015Z</time></trkpt><trkpt lat="30.755173174969556" lon="-6.0637406065250445"><ele>1031.0</ele><time>2026-03-26T08:28:04.015Z</time></trkpt><trkpt lat="30.755074419618442" lon="-6.06396060704101"><ele>1030.3333333333335</ele><time>2026-03-26T08:28:05.014Z</time></trkpt><trkpt lat="30.754977225048926" lon="-6.0641789846877225"><ele>1029.6666666666667</ele><time>2026-03-26T08:28:06.014Z</time></trkpt><trkpt lat="30.754879719887523" lon="-6.064399360167591"><ele>1029.0</ele><time>2026-03-26T08:28:07.015Z</time></trkpt><trkpt lat="30.754778314283683" lon="-6.0646242418021705"><ele>1029.0</ele><time>2026-03-26T08:28:08.014Z</time></trkpt><trkpt lat="30.754672045314763" lon="-6.064853353439435"><ele>1029.0</ele><time>2026-03-26T08:28:09.014Z</time></trkpt><trkpt lat="30.754577630024126" lon="-6.06506077630965"><ele>1029.0</ele><time>2026-03-26T08:28:10.014Z</time></trkpt><trkpt lat="30.754495155745097" lon="-6.065281147946069"><ele>1029.0</ele><time>2026-03-26T08:28:11.014Z</time></trkpt><trkpt lat="30.754402418795845" lon="-6.065487970554175"><ele>1029.0</ele><time>2026-03-26T08:28:12.014Z</time></trkpt><trkpt lat="30.754306484501253" lon="-6.065694280519536"><ele>1029.0</ele><time>2026-03-26T08:28:13.014Z</time></trkpt><trkpt lat="30.754208958290928" lon="-6.065904975549216"><ele>1028.0</ele><time>2026-03-26T08:28:14.014Z</time></trkpt><trkpt lat="30.754109315441124" lon="-6.066121964103047"><ele>1027.0</ele><time>2026-03-26T08:28:15.014Z</time></trkpt><trkpt lat="30.754014758088072" lon="-6.066332461498854"><ele>1026.0</ele><time>2026-03-26T08:28:16.014Z</time></trkpt><trkpt lat="30.753921091415098" lon="-6.066547209103229"><ele>1026.0</ele><time>2026-03-26T08:28:17.014Z</time></trkpt><trkpt lat="30.753824395882873" lon="-6.0667613545604375"><ele>1026.0</ele><time>2026-03-26T08:28:18.014Z</time></trkpt><trkpt lat="30.75372812301717" lon="-6.066975632430581"><ele>1026.0</ele><time>2026-03-26T08:28:19.014Z</time></trkpt><trkpt lat="30.753632075726507" lon="-6.0671896447645715"><ele>1025.3333333333333</ele><time>2026-03-26T08:28:20.014Z</time></trkpt><trkpt lat="30.753532521627683" lon="-6.067406842353471"><ele>1024.6666666666665</ele><time>2026-03-26T08:28:21.014Z</time></trkpt><trkpt lat="30.753434996674955" lon="-6.0676229778681"><ele>1024.0</ele><time>2026-03-26T08:28:22.014Z</time></trkpt><trkpt lat="30.753337130699077" lon="-6.067846343312481"><ele>1024.0</ele><time>2026-03-26T08:28:23.014Z</time></trkpt><trkpt lat="30.753235951873066" lon="-6.068068379835474"><ele>1024.0</ele><time>2026-03-26T08:28:24.014Z</time></trkpt><trkpt lat="30.75313276598182" lon="-6.06828832880832"><ele>1024.0</ele><time>2026-03-26T08:28:25.014Z</time></trkpt><trkpt lat="30.753030840710373" lon="-6.068511348548449"><ele>1024.0</ele><time>2026-03-26T08:28:26.014Z</time></trkpt><trkpt lat="30.752929053949508" lon="-6.068736895656683"><ele>1024.0</ele><time>2026-03-26T08:28:27.014Z</time></trkpt><trkpt lat="30.752826053780144" lon="-6.068963822822606"><ele>1024.0</ele><time>2026-03-26T08:28:28.014Z</time></trkpt><trkpt lat="30.752720690948756" lon="-6.06919141424332"><ele>1023.0</ele><time>2026-03-26T08:28:29.014Z</time></trkpt><trkpt lat="30.752615863582292" lon="-6.0694165429786056"><ele>1022.0</ele><time>2026-03-26T08:28:30.014Z</time></trkpt><trkpt lat="30.75251397706986" lon="-6.069641562067879"><ele>1021.0</ele><time>2026-03-26T08:28:31.014Z</time></trkpt><trkpt lat="30.752415944443612" lon="-6.069860203835616"><ele>1021.0</ele><time>2026-03-26T08:28:32.014Z</time></trkpt><trkpt lat="30.75232670149402" lon="-6.070060393959803"><ele>1021.0</ele><time>2026-03-26T08:28:33.014Z</time></trkpt><trkpt lat="30.752241117566953" lon="-6.070253169887987"><ele>1021.0</ele><time>2026-03-26T08:28:34.014Z</time></trkpt><trkpt lat="30.752151562285754" lon="-6.07045656644369"><ele>1021.0</ele><time>2026-03-26T08:28:35.014Z</time></trkpt><trkpt lat="30.752061417454858" lon="-6.070654499238614"><ele>1021.0</ele><time>2026-03-26T08:28:36.014Z</time></trkpt><trkpt lat="30.751972682884347" lon="-6.070847417651147"><ele>1021.0</ele><time>2026-03-26T08:28:37.014Z</time></trkpt><trkpt lat="30.751886375235554" lon="-6.071040340606057"><ele>1020.0</ele><time>2026-03-26T08:28:38.014Z</time></trkpt><trkpt lat="30.751800561279826" lon="-6.071229110011526"><ele>1019.0</ele><time>2026-03-26T08:28:39.014Z</time></trkpt><trkpt lat="30.751708436274384" lon="-6.071433532340429"><ele>1018.0</ele><time>2026-03-26T08:28:40.014Z</time></trkpt><trkpt lat="30.751614919527878" lon="-6.071644578582089"><ele>1018.0</ele><time>2026-03-26T08:28:41.014Z</time></trkpt><trkpt lat="30.75152581683286" lon="-6.071857395419904"><ele>1018.0</ele><time>2026-03-26T08:28:42.014Z</time></trkpt><trkpt lat="30.75143932823884" lon="-6.0720727978553"><ele>1018.0</ele><time>2026-03-26T08:28:43.014Z</time></trkpt><trkpt lat="30.751352602322704" lon="-6.072293838484879"><ele>1019.0</ele><time>2026-03-26T08:28:44.014Z</time></trkpt><trkpt lat="30.7512636027361" lon="-6.07251880995823"><ele>1020.0</ele><time>2026-03-26T08:28:45.014Z</time></trkpt><trkpt lat="30.751173403223866" lon="-6.072744796237656"><ele>1021.0</ele><time>2026-03-26T08:28:46.014Z</time></trkpt><trkpt lat="30.751084600513757" lon="-6.072969671904478"><ele>1020.0</ele><time>2026-03-26T08:28:47.014Z</time></trkpt><trkpt lat="30.7509962215496" lon="-6.073196455818451"><ele>1019.0</ele><time>2026-03-26T08:28:48.014Z</time></trkpt><trkpt lat="30.75090800656169" lon="-6.0734224790087525"><ele>1018.0</ele><time>2026-03-26T08:28:49.014Z</time></trkpt><trkpt lat="30.750818031208624" lon="-6.073652131947711"><ele>1018.0</ele><time>2026-03-26T08:28:50.014Z</time></trkpt><trkpt lat="30.75072726257954" lon="-6.073884572930288"><ele>1018.0</ele><time>2026-03-26T08:28:51.014Z</time></trkpt><trkpt lat="30.750641384084947" lon="-6.074107342916473"><ele>1018.0</ele><time>2026-03-26T08:28:52.014Z</time></trkpt><trkpt lat="30.750555802485945" lon="-6.074327868929996"><ele>1018.0</ele><time>2026-03-26T08:28:53.014Z</time></trkpt><trkpt lat="30.75047042251669" lon="-6.074545679096953"><ele>1018.0</ele><time>2026-03-26T08:28:54.014Z</time></trkpt><trkpt lat="30.75039128431327" lon="-6.074755266498028"><ele>1018.0</ele><time>2026-03-26T08:28:55.014Z</time></trkpt><trkpt lat="30.75031389728566" lon="-6.074961546870434"><ele>1018.6666666666666</ele><time>2026-03-26T08:28:56.014Z</time></trkpt><trkpt lat="30.750231108576312" lon="-6.075182732099995"><ele>1019.3333333333333</ele><time>2026-03-26T08:28:57.014Z</time></trkpt><trkpt lat="30.75014082422591" lon="-6.075409079832641"><ele>1020.0</ele><time>2026-03-26T08:28:58.014Z</time></trkpt><trkpt lat="30.750050973914362" lon="-6.075634805725354"><ele>1019.0</ele><time>2026-03-26T08:28:59.014Z</time></trkpt><trkpt lat="30.74996409574904" lon="-6.075858426888175"><ele>1018.0</ele><time>2026-03-26T08:29:00.014Z</time></trkpt><trkpt lat="30.749880435186217" lon="-6.076075484372206"><ele>1017.0</ele><time>2026-03-26T08:29:01.014Z</time></trkpt><trkpt lat="30.74979951847789" lon="-6.07629628639551"><ele>1017.0</ele><time>2026-03-26T08:29:02.014Z</time></trkpt><trkpt lat="30.749723690848768" lon="-6.076519662439462"><ele>1017.0</ele><time>2026-03-26T08:29:03.014Z</time></trkpt><trkpt lat="30.74964600408774" lon="-6.07674400602998"><ele>1017.0</ele><time>2026-03-26T08:29:04.014Z</time></trkpt><trkpt lat="30.749573371266624" lon="-6.076977112840958"><ele>1016.3333333333333</ele><time>2026-03-26T08:29:05.014Z</time></trkpt><trkpt lat="30.749512279176024" lon="-6.0772169308047115"><ele>1015.6666666666666</ele><time>2026-03-26T08:29:06.014Z</time></trkpt><trkpt lat="30.749453034962663" lon="-6.077455042346393"><ele>1015.0</ele><time>2026-03-26T08:29:07.014Z</time></trkpt><trkpt lat="30.749397203160687" lon="-6.0776798996446715"><ele>1014.0</ele><time>2026-03-26T08:29:08.015Z</time></trkpt><trkpt lat="30.749348516733484" lon="-6.077895845892432"><ele>1013.0</ele><time>2026-03-26T08:29:09.015Z</time></trkpt><trkpt lat="30.749300536708084" lon="-6.078101864927442"><ele>1012.0</ele><time>2026-03-26T08:29:10.015Z</time></trkpt><trkpt lat="30.749253773347057" lon="-6.0783204020700925"><ele>1012.0</ele><time>2026-03-26T08:29:11.015Z</time></trkpt><trkpt lat="30.74920633987658" lon="-6.078553916248071"><ele>1012.0</ele><time>2026-03-26T08:29:12.015Z</time></trkpt><trkpt lat="30.749158946325096" lon="-6.0787953774818195"><ele>1012.0</ele><time>2026-03-26T08:29:13.015Z</time></trkpt><trkpt lat="30.749107720149475" lon="-6.079037819731765"><ele>1011.6666666666666</ele><time>2026-03-26T08:29:14.015Z</time></trkpt><trkpt lat="30.749067177956316" lon="-6.079283522477633"><ele>1011.3333333333333</ele><time>2026-03-26T08:29:15.015Z</time></trkpt><trkpt lat="30.74902717908198" lon="-6.079532657467293"><ele>1011.0</ele><time>2026-03-26T08:29:16.015Z</time></trkpt><trkpt lat="30.748979164602368" lon="-6.07978564636462"><ele>1010.6666666666667</ele><time>2026-03-26T08:29:17.015Z</time></trkpt><trkpt lat="30.748925986689155" lon="-6.080040410885546"><ele>1010.3333333333334</ele><time>2026-03-26T08:29:18.015Z</time></trkpt><trkpt lat="30.74887762919052" lon="-6.080293246364423"><ele>1010.0</ele><time>2026-03-26T08:29:19.015Z</time></trkpt><trkpt lat="30.7488268942956" lon="-6.080551237328468"><ele>1009.6666666666667</ele><time>2026-03-26T08:29:20.015Z</time></trkpt><trkpt lat="30.748774925372846" lon="-6.080808729179878"><ele>1009.3333333333333</ele><time>2026-03-26T08:29:21.015Z</time></trkpt><trkpt lat="30.748726741933044" lon="-6.081060162752152"><ele>1009.0</ele><time>2026-03-26T08:29:22.015Z</time></trkpt><trkpt lat="30.748675074743662" lon="-6.081313308351773"><ele>1009.0</ele><time>2026-03-26T08:29:23.015Z</time></trkpt><trkpt lat="30.74862780605469" lon="-6.081567821658677"><ele>1009.0</ele><time>2026-03-26T08:29:24.015Z</time></trkpt><trkpt lat="30.74857904272434" lon="-6.081820871441074"><ele>1009.0</ele><time>2026-03-26T08:29:25.015Z</time></trkpt><trkpt lat="30.74852746042622" lon="-6.082070928596207"><ele>1008.0</ele><time>2026-03-26T08:29:26.015Z</time></trkpt><trkpt lat="30.748492306192457" lon="-6.082342050192694"><ele>1007.0</ele><time>2026-03-26T08:29:27.015Z</time></trkpt><trkpt lat="30.748426389602216" lon="-6.082588127618276"><ele>1006.6666666666667</ele><time>2026-03-26T08:29:28.015Z</time></trkpt><trkpt lat="30.748378993160298" lon="-6.08282684734616"><ele>1006.3333333333333</ele><time>2026-03-26T08:29:29.015Z</time></trkpt><trkpt lat="30.74832523030189" lon="-6.08306477288407"><ele>1006.0</ele><time>2026-03-26T08:29:30.015Z</time></trkpt><trkpt lat="30.74826814797164" lon="-6.083295630206919"><ele>1006.0</ele><time>2026-03-26T08:29:31.015Z</time></trkpt><trkpt lat="30.74821684140876" lon="-6.083526146629997"><ele>1006.0</ele><time>2026-03-26T08:29:32.015Z</time></trkpt><trkpt lat="30.74813492229809" lon="-6.083742204535366"><ele>1006.0</ele><time>2026-03-26T08:29:33.015Z</time></trkpt><trkpt lat="30.74804323613906" lon="-6.083959151033448"><ele>1005.3333333333333</ele><time>2026-03-26T08:29:34.015Z</time></trkpt><trkpt lat="30.747953933022412" lon="-6.084175878292747"><ele>1004.6666666666667</ele><time>2026-03-26T08:29:35.015Z</time></trkpt><trkpt lat="30.7478682371016" lon="-6.084376660901088"><ele>1004.0</ele><time>2026-03-26T08:29:36.015Z</time></trkpt><trkpt lat="30.747784897723662" lon="-6.084570394689808"><ele>1003.6666666666667</ele><time>2026-03-26T08:29:37.015Z</time></trkpt><trkpt lat="30.747699716283414" lon="-6.084771483554319"><ele>1003.3333333333333</ele><time>2026-03-26T08:29:38.015Z</time></trkpt><trkpt lat="30.74761296265654" lon="-6.084991379621316"><ele>1003.0</ele><time>2026-03-26T08:29:39.015Z</time></trkpt><trkpt lat="30.74752593635275" lon="-6.085207741886444"><ele>1003.0</ele><time>2026-03-26T08:29:40.015Z</time></trkpt><trkpt lat="30.74745265283142" lon="-6.085412134899378"><ele>1003.0</ele><time>2026-03-26T08:29:41.015Z</time></trkpt><trkpt lat="30.747389644799743" lon="-6.085622292989257"><ele>1003.0</ele><time>2026-03-26T08:29:42.015Z</time></trkpt><trkpt lat="30.74733898956062" lon="-6.085837990383303"><ele>1002.6666666666666</ele><time>2026-03-26T08:29:43.015Z</time></trkpt><trkpt lat="30.747295225713838" lon="-6.086061074738379"><ele>1002.3333333333333</ele><time>2026-03-26T08:29:44.015Z</time></trkpt><trkpt lat="30.747256382798874" lon="-6.086288808002707"><ele>1002.0</ele><time>2026-03-26T08:29:45.015Z</time></trkpt><trkpt lat="30.74722058629676" lon="-6.086513838728941"><ele>1002.3333333333333</ele><time>2026-03-26T08:29:46.015Z</time></trkpt><trkpt lat="30.747183224002022" lon="-6.086745426496909"><ele>1002.6666666666666</ele><time>2026-03-26T08:29:47.015Z</time></trkpt><trkpt lat="30.74714545448964" lon="-6.086978077176061"><ele>1003.0</ele><time>2026-03-26T08:29:48.015Z</time></trkpt><trkpt lat="30.747109019843965" lon="-6.087205369957016"><ele>1002.6666666666666</ele><time>2026-03-26T08:29:49.015Z</time></trkpt><trkpt lat="30.747072691964608" lon="-6.087436698396504"><ele>1002.3333333333333</ele><time>2026-03-26T08:29:50.015Z</time></trkpt><trkpt lat="30.747037126559807" lon="-6.087666658822929"><ele>1002.0</ele><time>2026-03-26T08:29:51.015Z</time></trkpt><trkpt lat="30.74700356865565" lon="-6.087898414537518"><ele>1002.0</ele><time>2026-03-26T08:29:52.015Z</time></trkpt><trkpt lat="30.746967902524382" lon="-6.088123647680425"><ele>1002.0</ele><time>2026-03-26T08:29:53.015Z</time></trkpt><trkpt lat="30.74693217735745" lon="-6.088348564267787"><ele>1002.0</ele><time>2026-03-26T08:29:54.015Z</time></trkpt><trkpt lat="30.746895974341662" lon="-6.088557097129781"><ele>999.6666666666667</ele><time>2026-03-26T08:29:55.015Z</time></trkpt><trkpt lat="30.746861877716928" lon="-6.088756909511423"><ele>997.3333333333334</ele><time>2026-03-26T08:29:56.015Z</time></trkpt><trkpt lat="30.74684691114805" lon="-6.088940504488344"><ele>995.0</ele><time>2026-03-26T08:29:57.015Z</time></trkpt><trkpt lat="30.74681874618294" lon="-6.089105696963585"><ele>994.5</ele><time>2026-03-26T08:29:58.015Z</time></trkpt><trkpt lat="30.746792454209817" lon="-6.089255849108237"><ele>994.0</ele><time>2026-03-26T08:29:59.015Z</time></trkpt><trkpt lat="30.74676767956074" lon="-6.0893882905075545"><ele>993.5</ele><time>2026-03-26T08:30:00.015Z</time></trkpt><trkpt lat="30.74674364523093" lon="-6.089514762173555"><ele>993.0</ele><time>2026-03-26T08:30:01.015Z</time></trkpt><trkpt lat="30.746720091970094" lon="-6.089645162364146"><ele>993.0</ele><time>2026-03-26T08:30:02.015Z</time></trkpt><trkpt lat="30.746696924372486" lon="-6.089753726388438"><ele>993.0</ele><time>2026-03-26T08:30:03.015Z</time></trkpt><trkpt lat="30.746675859515143" lon="-6.08984511199554"><ele>993.0</ele><time>2026-03-26T08:30:04.015Z</time></trkpt><trkpt lat="30.746654709478545" lon="-6.0899386455729605"><ele>993.0</ele><time>2026-03-26T08:30:05.015Z</time></trkpt><trkpt lat="30.746633891400528" lon="-6.090030241673435"><ele>993.0</ele><time>2026-03-26T08:30:06.015Z</time></trkpt><trkpt lat="30.74660904237344" lon="-6.090109050309302"><ele>993.0</ele><time>2026-03-26T08:30:07.016Z</time></trkpt><trkpt lat="30.746566510731636" lon="-6.09023610829998"><ele>992.8333333333334</ele><time>2026-03-26T08:30:09.016Z</time></trkpt><trkpt lat="30.74653484440251" lon="-6.090332026277149"><ele>992.6666666666667</ele><time>2026-03-26T08:30:11.016Z</time></trkpt><trkpt lat="30.7464984130627" lon="-6.0904337491854115"><ele>992.5</ele><time>2026-03-26T08:30:13.015Z</time></trkpt><trkpt lat="30.746462848314312" lon="-6.090526649574317"><ele>992.3333333333334</ele><time>2026-03-26T08:30:15.016Z</time></trkpt><trkpt lat="30.746420706725402" lon="-6.090618425030801"><ele>992.1666666666667</ele><time>2026-03-26T08:30:17.015Z</time></trkpt><trkpt lat="30.7463902464093" lon="-6.090686303403746"><ele>992.0</ele><time>2026-03-26T08:30:19.015Z</time></trkpt><trkpt lat="30.74635570159255" lon="-6.090761230511107"><ele>991.5000000000001</ele><time>2026-03-26T08:30:23.015Z</time></trkpt><trkpt lat="30.74630878649644" lon="-6.090838418356224"><ele>991.0</ele><time>2026-03-26T08:30:25.015Z</time></trkpt><trkpt lat="30.74628180959878" lon="-6.0909186262512085"><ele>990.5</ele><time>2026-03-26T08:30:26.015Z</time></trkpt><trkpt lat="30.746228784480177" lon="-6.091028624913277"><ele>990.0</ele><time>2026-03-26T08:30:28.015Z</time></trkpt><trkpt lat="30.746187371367437" lon="-6.091151079830252"><ele>989.5000000000001</ele><time>2026-03-26T08:30:30.015Z</time></trkpt><trkpt lat="30.746158205891536" lon="-6.091222604529271"><ele>989.0</ele><time>2026-03-26T08:30:31.015Z</time></trkpt><trkpt lat="30.746120130816784" lon="-6.091286548193254"><ele>989.0</ele><time>2026-03-26T08:30:32.016Z</time></trkpt><trkpt lat="30.746071061255225" lon="-6.0913746989961135"><ele>989.0</ele><time>2026-03-26T08:30:33.016Z</time></trkpt><trkpt lat="30.7460346712471" lon="-6.09150647674333"><ele>989.0</ele><time>2026-03-26T08:30:34.016Z</time></trkpt><trkpt lat="30.74598436792806" lon="-6.091631873534329"><ele>989.0</ele><time>2026-03-26T08:30:35.016Z</time></trkpt><trkpt lat="30.745929633033203" lon="-6.091773216944534"><ele>989.0</ele><time>2026-03-26T08:30:36.016Z</time></trkpt><trkpt lat="30.745871778402222" lon="-6.091922862523716"><ele>989.0</ele><time>2026-03-26T08:30:37.016Z</time></trkpt><trkpt lat="30.74581246280297" lon="-6.092080901462829"><ele>989.0</ele><time>2026-03-26T08:30:38.016Z</time></trkpt><trkpt lat="30.745750147617617" lon="-6.092238071276128"><ele>989.0</ele><time>2026-03-26T08:30:39.016Z</time></trkpt><trkpt lat="30.745689888299385" lon="-6.092398477190521"><ele>989.0</ele><time>2026-03-26T08:30:40.016Z</time></trkpt><trkpt lat="30.745630084859133" lon="-6.092557798248729"><ele>989.0</ele><time>2026-03-26T08:30:41.016Z</time></trkpt><trkpt lat="30.7455671720963" lon="-6.09273386123765"><ele>989.0</ele><time>2026-03-26T08:30:42.016Z</time></trkpt><trkpt lat="30.74550700195591" lon="-6.092921245408223"><ele>989.0</ele><time>2026-03-26T08:30:43.016Z</time></trkpt><trkpt lat="30.74545062547649" lon="-6.093101404932747"><ele>989.0</ele><time>2026-03-26T08:30:44.016Z</time></trkpt><trkpt lat="30.74539679507052" lon="-6.093273301065102"><ele>989.0</ele><time>2026-03-26T08:30:45.016Z</time></trkpt><trkpt lat="30.745342442619666" lon="-6.0934493255419095"><ele>989.0</ele><time>2026-03-26T08:30:46.016Z</time></trkpt><trkpt lat="30.745283890522444" lon="-6.0936291872110875"><ele>989.0</ele><time>2026-03-26T08:30:47.016Z</time></trkpt><trkpt lat="30.745225321086984" lon="-6.093814676053245"><ele>989.0</ele><time>2026-03-26T08:30:48.016Z</time></trkpt><trkpt lat="30.74516913030115" lon="-6.094012691674327"><ele>988.6666666666667</ele><time>2026-03-26T08:30:49.016Z</time></trkpt><trkpt lat="30.745110092867755" lon="-6.094211109726105"><ele>988.3333333333333</ele><time>2026-03-26T08:30:50.016Z</time></trkpt><trkpt lat="30.74504915740811" lon="-6.094416152700181"><ele>988.0</ele><time>2026-03-26T08:30:51.016Z</time></trkpt><trkpt lat="30.744986478159888" lon="-6.094620996374826"><ele>988.0</ele><time>2026-03-26T08:30:52.016Z</time></trkpt><trkpt lat="30.744925079229294" lon="-6.0948251124391675"><ele>988.0</ele><time>2026-03-26T08:30:53.016Z</time></trkpt><trkpt lat="30.744862935360576" lon="-6.095032225045168"><ele>988.0</ele><time>2026-03-26T08:30:54.016Z</time></trkpt><trkpt lat="30.744801530076032" lon="-6.095237551047131"><ele>986.6666666666666</ele><time>2026-03-26T08:30:55.016Z</time></trkpt><trkpt lat="30.744740818653426" lon="-6.095443427388647"><ele>985.3333333333333</ele><time>2026-03-26T08:30:56.016Z</time></trkpt><trkpt lat="30.744680577327177" lon="-6.095647929311144"><ele>984.0</ele><time>2026-03-26T08:30:57.016Z</time></trkpt><trkpt lat="30.744619482710505" lon="-6.095858307460454"><ele>983.0</ele><time>2026-03-26T08:30:58.016Z</time></trkpt><trkpt lat="30.74455698039003" lon="-6.09606684009587"><ele>982.0</ele><time>2026-03-26T08:30:59.016Z</time></trkpt><trkpt lat="30.74449451324224" lon="-6.096272395861815"><ele>981.0</ele><time>2026-03-26T08:31:00.016Z</time></trkpt><trkpt lat="30.744433147261482" lon="-6.096474811598868"><ele>981.6666666666667</ele><time>2026-03-26T08:31:01.016Z</time></trkpt><trkpt lat="30.744374539464975" lon="-6.096677407500498"><ele>982.3333333333334</ele><time>2026-03-26T08:31:02.016Z</time></trkpt><trkpt lat="30.744318441145037" lon="-6.096878412444927"><ele>983.0</ele><time>2026-03-26T08:31:03.016Z</time></trkpt><trkpt lat="30.744261386923295" lon="-6.097083810988669"><ele>983.0</ele><time>2026-03-26T08:31:04.016Z</time></trkpt><trkpt lat="30.74420758835503" lon="-6.09729621999668"><ele>983.0</ele><time>2026-03-26T08:31:05.016Z</time></trkpt><trkpt lat="30.744155951819252" lon="-6.097512048460141"><ele>983.0</ele><time>2026-03-26T08:31:06.016Z</time></trkpt><trkpt lat="30.74410141464321" lon="-6.097738766425213"><ele>983.0</ele><time>2026-03-26T08:31:07.016Z</time></trkpt><trkpt lat="30.744045471450548" lon="-6.097974944801523"><ele>983.0</ele><time>2026-03-26T08:31:08.016Z</time></trkpt><trkpt lat="30.74399228578643" lon="-6.098206214299471"><ele>983.0</ele><time>2026-03-26T08:31:09.016Z</time></trkpt><trkpt lat="30.743937819478937" lon="-6.098437497707108"><ele>983.0</ele><time>2026-03-26T08:31:10.016Z</time></trkpt><trkpt lat="30.743884062146172" lon="-6.098657414481438"><ele>983.0</ele><time>2026-03-26T08:31:11.016Z</time></trkpt><trkpt lat="30.743831649389783" lon="-6.0988742388908115"><ele>983.0</ele><time>2026-03-26T08:31:12.016Z</time></trkpt><trkpt lat="30.743779921457786" lon="-6.099086052475434"><ele>982.0</ele><time>2026-03-26T08:31:13.016Z</time></trkpt><trkpt lat="30.743731901578276" lon="-6.099308020471628"><ele>981.0</ele><time>2026-03-26T08:31:14.016Z</time></trkpt><trkpt lat="30.74368024687758" lon="-6.099537650765797"><ele>980.0</ele><time>2026-03-26T08:31:15.016Z</time></trkpt><trkpt lat="30.74362754679607" lon="-6.099767685329151"><ele>979.0</ele><time>2026-03-26T08:31:16.016Z</time></trkpt><trkpt lat="30.743576023820175" lon="-6.0999906878180745"><ele>978.0</ele><time>2026-03-26T08:31:17.016Z</time></trkpt><trkpt lat="30.743521611169957" lon="-6.100209335530685"><ele>977.0</ele><time>2026-03-26T08:31:18.016Z</time></trkpt><trkpt lat="30.743468471243666" lon="-6.10042708727945"><ele>977.0</ele><time>2026-03-26T08:31:19.016Z</time></trkpt><trkpt lat="30.743417173422387" lon="-6.10064980565376"><ele>977.0</ele><time>2026-03-26T08:31:20.016Z</time></trkpt><trkpt lat="30.7433644394211" lon="-6.100877808556799"><ele>977.0</ele><time>2026-03-26T08:31:21.016Z</time></trkpt><trkpt lat="30.743306253477602" lon="-6.101102193352988"><ele>977.0</ele><time>2026-03-26T08:31:22.016Z</time></trkpt><trkpt lat="30.743247846149977" lon="-6.101323028149151"><ele>977.0</ele><time>2026-03-26T08:31:23.016Z</time></trkpt><trkpt lat="30.743186112155595" lon="-6.101538399442589"><ele>977.0</ele><time>2026-03-26T08:31:24.016Z</time></trkpt><trkpt lat="30.743122966364645" lon="-6.101745479723015"><ele>977.0</ele><time>2026-03-26T08:31:25.016Z</time></trkpt><trkpt lat="30.743061591691426" lon="-6.101941665354107"><ele>977.0</ele><time>2026-03-26T08:31:26.016Z</time></trkpt><trkpt lat="30.743007784819422" lon="-6.102134867286304"><ele>977.0</ele><time>2026-03-26T08:31:27.016Z</time></trkpt><trkpt lat="30.742952222745004" lon="-6.102342275105972"><ele>976.6666666666667</ele><time>2026-03-26T08:31:28.016Z</time></trkpt><trkpt lat="30.74289413170693" lon="-6.102555260812766"><ele>976.3333333333333</ele><time>2026-03-26T08:31:29.016Z</time></trkpt><trkpt lat="30.742834213554357" lon="-6.102772926926999"><ele>976.0</ele><time>2026-03-26T08:31:30.016Z</time></trkpt><trkpt lat="30.742773488108615" lon="-6.102997972141762"><ele>975.0</ele><time>2026-03-26T08:31:31.016Z</time></trkpt><trkpt lat="30.742711000990703" lon="-6.103219416680948"><ele>974.0</ele><time>2026-03-26T08:31:32.016Z</time></trkpt><trkpt lat="30.742647319271896" lon="-6.103440000511471"><ele>973.0</ele><time>2026-03-26T08:31:33.016Z</time></trkpt><trkpt lat="30.74258312181019" lon="-6.103660276928902"><ele>973.0</ele><time>2026-03-26T08:31:34.016Z</time></trkpt><trkpt lat="30.742521952247376" lon="-6.103861275184446"><ele>973.0</ele><time>2026-03-26T08:31:35.016Z</time></trkpt><trkpt lat="30.742464474710985" lon="-6.104050600969034"><ele>973.0</ele><time>2026-03-26T08:31:36.016Z</time></trkpt><trkpt lat="30.74241037656339" lon="-6.10422943925558"><ele>972.6666666666666</ele><time>2026-03-26T08:31:37.016Z</time></trkpt><trkpt lat="30.742361964088474" lon="-6.104403370853838"><ele>972.3333333333333</ele><time>2026-03-26T08:31:38.016Z</time></trkpt><trkpt lat="30.74231373931081" lon="-6.104581463342797"><ele>972.0</ele><time>2026-03-26T08:31:39.016Z</time></trkpt><trkpt lat="30.7422690842441" lon="-6.104763612854"><ele>971.5</ele><time>2026-03-26T08:31:40.016Z</time></trkpt><trkpt lat="30.742232230892913" lon="-6.104940627920597"><ele>971.0</ele><time>2026-03-26T08:31:41.016Z</time></trkpt><trkpt lat="30.742202093094633" lon="-6.105107992694923"><ele>970.5</ele><time>2026-03-26T08:31:42.016Z</time></trkpt><trkpt lat="30.742174152826415" lon="-6.105260868958589"><ele>970.0</ele><time>2026-03-26T08:31:43.016Z</time></trkpt><trkpt lat="30.74216440502035" lon="-6.105412327396197"><ele>970.0</ele><time>2026-03-26T08:31:44.016Z</time></trkpt><trkpt lat="30.742140847687924" lon="-6.105548765775262"><ele>970.0</ele><time>2026-03-26T08:31:45.016Z</time></trkpt><trkpt lat="30.74212251464252" lon="-6.1056585180924765"><ele>970.0</ele><time>2026-03-26T08:31:46.016Z</time></trkpt><trkpt lat="30.742108902988857" lon="-6.105757346970277"><ele>970.0</ele><time>2026-03-26T08:31:47.016Z</time></trkpt><trkpt lat="30.742096084441492" lon="-6.105850417266118"><ele>970.0</ele><time>2026-03-26T08:31:48.016Z</time></trkpt><trkpt lat="30.74208429261946" lon="-6.10593603313506"><ele>969.6666666666666</ele><time>2026-03-26T08:31:49.016Z</time></trkpt><trkpt lat="30.74207712377192" lon="-6.106016538559706"><ele>969.3333333333333</ele><time>2026-03-26T08:31:50.016Z</time></trkpt><trkpt lat="30.742074708029765" lon="-6.106090843483039"><ele>969.0</ele><time>2026-03-26T08:31:51.016Z</time></trkpt><trkpt lat="30.74206948496084" lon="-6.10622228920014"><ele>968.6666666666667</ele><time>2026-03-26T08:31:53.016Z</time></trkpt><trkpt lat="30.74207160257912" lon="-6.106332729165056"><ele>968.3333333333334</ele><time>2026-03-26T08:31:55.016Z</time></trkpt><trkpt lat="30.742079511145718" lon="-6.106425053302019"><ele>968.0</ele><time>2026-03-26T08:31:57.016Z</time></trkpt><trkpt lat="30.742089663846635" lon="-6.106505293964186"><ele>968.1666666666667</ele><time>2026-03-26T08:31:59.016Z</time></trkpt><trkpt lat="30.74210121639626" lon="-6.106592605734997"><ele>968.3333333333334</ele><time>2026-03-26T08:32:01.016Z</time></trkpt><trkpt lat="30.74209825737926" lon="-6.106685940644592"><ele>968.5</ele><time>2026-03-26T08:32:03.016Z</time></trkpt><trkpt lat="30.74211869151887" lon="-6.106778069287573"><ele>968.6666666666667</ele><time>2026-03-26T08:32:05.016Z</time></trkpt><trkpt lat="30.742133130878873" lon="-6.1068823789234905"><ele>968.8333333333334</ele><time>2026-03-26T08:32:07.016Z</time></trkpt><trkpt lat="30.74215607599881" lon="-6.107014397900912"><ele>969.0</ele><time>2026-03-26T08:32:09.016Z</time></trkpt><trkpt lat="30.742172137860447" lon="-6.107099889464927"><ele>969.0</ele><time>2026-03-26T08:32:10.016Z</time></trkpt><trkpt lat="30.742182353133092" lon="-6.107208491672681"><ele>969.0</ele><time>2026-03-26T08:32:11.016Z</time></trkpt><trkpt lat="30.742203821530556" lon="-6.107348557541802"><ele>969.0</ele><time>2026-03-26T08:32:12.016Z</time></trkpt><trkpt lat="30.74222704676936" lon="-6.107509865361194"><ele>969.0</ele><time>2026-03-26T08:32:13.017Z</time></trkpt><trkpt lat="30.742259789516293" lon="-6.10767200997453"><ele>969.25</ele><time>2026-03-26T08:32:14.017Z</time></trkpt><trkpt lat="30.742285444934897" lon="-6.1078171155399925"><ele>969.5</ele><time>2026-03-26T08:32:15.017Z</time></trkpt><trkpt lat="30.74229395568552" lon="-6.107968176266011"><ele>969.75</ele><time>2026-03-26T08:32:16.017Z</time></trkpt><trkpt lat="30.74228572598011" lon="-6.108131754618901"><ele>970.0</ele><time>2026-03-26T08:32:17.016Z</time></trkpt><trkpt lat="30.742261498543066" lon="-6.108311392687217"><ele>970.0</ele><time>2026-03-26T08:32:18.016Z</time></trkpt><trkpt lat="30.742216493964936" lon="-6.108500035705372"><ele>970.0</ele><time>2026-03-26T08:32:19.017Z</time></trkpt><trkpt lat="30.742160139749615" lon="-6.108674869221422"><ele>970.0</ele><time>2026-03-26T08:32:20.017Z</time></trkpt><trkpt lat="30.7420862530754" lon="-6.108844175593083"><ele>970.0</ele><time>2026-03-26T08:32:21.017Z</time></trkpt><trkpt lat="30.742010439214862" lon="-6.108993501777124"><ele>970.0</ele><time>2026-03-26T08:32:22.017Z</time></trkpt><trkpt lat="30.741933020414034" lon="-6.109134040821411"><ele>970.0</ele><time>2026-03-26T08:32:23.017Z</time></trkpt><trkpt lat="30.741857064406325" lon="-6.1092630621903306"><ele>970.0</ele><time>2026-03-26T08:32:24.017Z</time></trkpt><trkpt lat="30.741780184787054" lon="-6.109384530280336"><ele>969.25</ele><time>2026-03-26T08:32:25.017Z</time></trkpt><trkpt lat="30.741706616026903" lon="-6.109506993332559"><ele>968.5</ele><time>2026-03-26T08:32:26.017Z</time></trkpt><trkpt lat="30.74163281609313" lon="-6.109634357533225"><ele>967.75</ele><time>2026-03-26T08:32:27.017Z</time></trkpt><trkpt lat="30.741558621580477" lon="-6.1097642918861075"><ele>967.0</ele><time>2026-03-26T08:32:28.017Z</time></trkpt><trkpt lat="30.74148062710352" lon="-6.109894572679141"><ele>967.5</ele><time>2026-03-26T08:32:29.017Z</time></trkpt><trkpt lat="30.74140303596915" lon="-6.110026431593363"><ele>968.0</ele><time>2026-03-26T08:32:30.017Z</time></trkpt><trkpt lat="30.741325301720163" lon="-6.110167189986981"><ele>968.5</ele><time>2026-03-26T08:32:31.017Z</time></trkpt><trkpt lat="30.741243985039" lon="-6.110307644194811"><ele>969.0</ele><time>2026-03-26T08:32:32.017Z</time></trkpt><trkpt lat="30.741161572857845" lon="-6.110450573228801"><ele>969.0</ele><time>2026-03-26T08:32:33.017Z</time></trkpt><trkpt lat="30.741077416666485" lon="-6.110596900552017"><ele>969.0</ele><time>2026-03-26T08:32:34.017Z</time></trkpt><trkpt lat="30.74099213968737" lon="-6.1107463790796634"><ele>969.0</ele><time>2026-03-26T08:32:35.017Z</time></trkpt><trkpt lat="30.740903937927634" lon="-6.110900137299785"><ele>968.0</ele><time>2026-03-26T08:32:36.017Z</time></trkpt><trkpt lat="30.740813255568444" lon="-6.111057226047906"><ele>967.0</ele><time>2026-03-26T08:32:37.017Z</time></trkpt><trkpt lat="30.740722240758455" lon="-6.111212251772441"><ele>966.0</ele><time>2026-03-26T08:32:38.017Z</time></trkpt><trkpt lat="30.740630695185644" lon="-6.111372562968872"><ele>966.0</ele><time>2026-03-26T08:32:39.017Z</time></trkpt><trkpt lat="30.740539542395094" lon="-6.111536047382785"><ele>966.0</ele><time>2026-03-26T08:32:40.017Z</time></trkpt><trkpt lat="30.740446434196084" lon="-6.111703341148168"><ele>966.0</ele><time>2026-03-26T08:32:41.017Z</time></trkpt><trkpt lat="30.740352351529" lon="-6.111875144525861"><ele>965.6666666666667</ele><time>2026-03-26T08:32:42.017Z</time></trkpt><trkpt lat="30.740258707215318" lon="-6.11205151491668"><ele>965.3333333333334</ele><time>2026-03-26T08:32:43.017Z</time></trkpt><trkpt lat="30.740181926534607" lon="-6.112238019115972"><ele>965.0</ele><time>2026-03-26T08:32:44.017Z</time></trkpt><trkpt lat="30.740093305510122" lon="-6.112422704879649"><ele>964.3333333333334</ele><time>2026-03-26T08:32:45.018Z</time></trkpt><trkpt lat="30.740006133558357" lon="-6.112604380628112"><ele>963.6666666666667</ele><time>2026-03-26T08:32:46.018Z</time></trkpt><trkpt lat="30.73990618377668" lon="-6.112781368628874"><ele>963.0</ele><time>2026-03-26T08:32:47.018Z</time></trkpt><trkpt lat="30.73983109056811" lon="-6.112978308999121"><ele>963.0</ele><time>2026-03-26T08:32:48.018Z</time></trkpt><trkpt lat="30.739752976895268" lon="-6.113173728407847"><ele>963.0</ele><time>2026-03-26T08:32:49.018Z</time></trkpt><trkpt lat="30.739672806234502" lon="-6.113368678341088"><ele>963.0</ele><time>2026-03-26T08:32:50.018Z</time></trkpt><trkpt lat="30.73959632425818" lon="-6.11356874835791"><ele>962.0</ele><time>2026-03-26T08:32:51.018Z</time></trkpt><trkpt lat="30.7395189839426" lon="-6.113776685569084"><ele>961.0</ele><time>2026-03-26T08:32:52.018Z</time></trkpt><trkpt lat="30.739444339982114" lon="-6.113980407561079"><ele>960.0</ele><time>2026-03-26T08:32:53.018Z</time></trkpt><trkpt lat="30.73937052696487" lon="-6.11418203530306"><ele>959.3333333333333</ele><time>2026-03-26T08:32:54.018Z</time></trkpt><trkpt lat="30.739298960441193" lon="-6.114384892911531"><ele>958.6666666666666</ele><time>2026-03-26T08:32:55.018Z</time></trkpt><trkpt lat="30.73923409948634" lon="-6.114587388030222"><ele>958.0</ele><time>2026-03-26T08:32:56.018Z</time></trkpt><trkpt lat="30.73917347902781" lon="-6.1147859394128945"><ele>957.3333333333333</ele><time>2026-03-26T08:32:57.018Z</time></trkpt><trkpt lat="30.73911606202735" lon="-6.114983195454773"><ele>956.6666666666667</ele><time>2026-03-26T08:32:58.018Z</time></trkpt><trkpt lat="30.739063721016993" lon="-6.11517555027972"><ele>956.0</ele><time>2026-03-26T08:32:59.018Z</time></trkpt><trkpt lat="30.73901575026301" lon="-6.115367260775024"><ele>956.0</ele><time>2026-03-26T08:33:00.018Z</time></trkpt><trkpt lat="30.738972694784426" lon="-6.115555704149279"><ele>956.0</ele><time>2026-03-26T08:33:01.018Z</time></trkpt><trkpt lat="30.73893051472359" lon="-6.115743941350074"><ele>956.0</ele><time>2026-03-26T08:33:02.018Z</time></trkpt><trkpt lat="30.738891791064635" lon="-6.115930596042762"><ele>957.0</ele><time>2026-03-26T08:33:03.018Z</time></trkpt><trkpt lat="30.738857710405174" lon="-6.11611998807242"><ele>958.0</ele><time>2026-03-26T08:33:04.018Z</time></trkpt><trkpt lat="30.738823934792975" lon="-6.1163079980684065"><ele>959.0</ele><time>2026-03-26T08:33:05.018Z</time></trkpt><trkpt lat="30.73878922366122" lon="-6.116494275659438"><ele>958.0</ele><time>2026-03-26T08:33:06.018Z</time></trkpt><trkpt lat="30.738756558990126" lon="-6.11668812076049"><ele>957.0</ele><time>2026-03-26T08:33:07.018Z</time></trkpt><trkpt lat="30.73872616988654" lon="-6.11688109853806"><ele>956.0</ele><time>2026-03-26T08:33:08.018Z</time></trkpt><trkpt lat="30.738701143512415" lon="-6.117079128108289"><ele>956.0</ele><time>2026-03-26T08:33:09.018Z</time></trkpt><trkpt lat="30.738677832705466" lon="-6.117274362075433"><ele>956.0</ele><time>2026-03-26T08:33:10.018Z</time></trkpt><trkpt lat="30.738655081719" lon="-6.117469413769154"><ele>956.0</ele><time>2026-03-26T08:33:11.018Z</time></trkpt><trkpt lat="30.73863632178908" lon="-6.117667246270118"><ele>955.6666666666667</ele><time>2026-03-26T08:33:12.018Z</time></trkpt><trkpt lat="30.738621010683065" lon="-6.117869774557045"><ele>955.3333333333333</ele><time>2026-03-26T08:33:13.018Z</time></trkpt><trkpt lat="30.73861038292817" lon="-6.118071622397972"><ele>955.0</ele><time>2026-03-26T08:33:14.018Z</time></trkpt><trkpt lat="30.73860069550134" lon="-6.118273542552769"><ele>955.0</ele><time>2026-03-26T08:33:15.018Z</time></trkpt><trkpt lat="30.73859223604167" lon="-6.11847675024349"><ele>955.0</ele><time>2026-03-26T08:33:16.018Z</time></trkpt><trkpt lat="30.738587088158138" lon="-6.118682139464075"><ele>955.0</ele><time>2026-03-26T08:33:17.018Z</time></trkpt><trkpt lat="30.738584482050637" lon="-6.118886540177349"><ele>954.6666666666666</ele><time>2026-03-26T08:33:18.018Z</time></trkpt><trkpt lat="30.73858357503845" lon="-6.1190928287583795"><ele>954.3333333333333</ele><time>2026-03-26T08:33:19.018Z</time></trkpt><trkpt lat="30.7385814178999" lon="-6.119299663816765"><ele>954.0</ele><time>2026-03-26T08:33:20.018Z</time></trkpt><trkpt lat="30.738578551847347" lon="-6.119508944676954"><ele>954.0</ele><time>2026-03-26T08:33:21.018Z</time></trkpt><trkpt lat="30.7385778652193" lon="-6.119720345880509"><ele>954.0</ele><time>2026-03-26T08:33:22.018Z</time></trkpt><trkpt lat="30.73857828594443" lon="-6.1199366598945195"><ele>954.0</ele><time>2026-03-26T08:33:23.018Z</time></trkpt><trkpt lat="30.738579610090373" lon="-6.120160172848045"><ele>953.6666666666667</ele><time>2026-03-26T08:33:24.018Z</time></trkpt><trkpt lat="30.73858167012032" lon="-6.120388240649164"><ele>953.3333333333334</ele><time>2026-03-26T08:33:25.018Z</time></trkpt><trkpt lat="30.738585706549433" lon="-6.120618465782263"><ele>953.0</ele><time>2026-03-26T08:33:26.018Z</time></trkpt><trkpt lat="30.738587639602926" lon="-6.120854617678523"><ele>952.6666666666667</ele><time>2026-03-26T08:33:27.018Z</time></trkpt><trkpt lat="30.738587881199145" lon="-6.121093512142048"><ele>952.3333333333333</ele><time>2026-03-26T08:33:28.018Z</time></trkpt><trkpt lat="30.738587479883122" lon="-6.121331199858654"><ele>952.0</ele><time>2026-03-26T08:33:29.018Z</time></trkpt><trkpt lat="30.738586011453428" lon="-6.121568156039938"><ele>952.0</ele><time>2026-03-26T08:33:30.018Z</time></trkpt><trkpt lat="30.738577315719027" lon="-6.121806822859581"><ele>952.0</ele><time>2026-03-26T08:33:31.018Z</time></trkpt><trkpt lat="30.73857281343572" lon="-6.122051854521091"><ele>952.0</ele><time>2026-03-26T08:33:32.018Z</time></trkpt><trkpt lat="30.738558831677416" lon="-6.12231274987744"><ele>950.0</ele><time>2026-03-26T08:33:33.018Z</time></trkpt><trkpt lat="30.73852843999622" lon="-6.12259589840275"><ele>948.0</ele><time>2026-03-26T08:33:34.018Z</time></trkpt><trkpt lat="30.738495325903887" lon="-6.122853035737556"><ele>948.0</ele><time>2026-03-26T08:33:35.018Z</time></trkpt><trkpt lat="30.738459304100147" lon="-6.123099596716546"><ele>948.0</ele><time>2026-03-26T08:33:36.018Z</time></trkpt><trkpt lat="30.738418343927016" lon="-6.123339841509859"><ele>948.0</ele><time>2026-03-26T08:33:37.018Z</time></trkpt><trkpt lat="30.73836715283269" lon="-6.123584643004433"><ele>948.0</ele><time>2026-03-26T08:33:38.018Z</time></trkpt><trkpt lat="30.7383107388821" lon="-6.12382000931981"><ele>948.0</ele><time>2026-03-26T08:33:39.018Z</time></trkpt><trkpt lat="30.73824804649559" lon="-6.124044991661082"><ele>948.0</ele><time>2026-03-26T08:33:40.018Z</time></trkpt><trkpt lat="30.73818022732525" lon="-6.124262159865032"><ele>948.0</ele><time>2026-03-26T08:33:41.018Z</time></trkpt><trkpt lat="30.738107959129383" lon="-6.124479318039235"><ele>948.0</ele><time>2026-03-26T08:33:42.018Z</time></trkpt><trkpt lat="30.73802690231638" lon="-6.124691142523797"><ele>948.0</ele><time>2026-03-26T08:33:43.018Z</time></trkpt><trkpt lat="30.73793982110121" lon="-6.124899853945534"><ele>948.0</ele><time>2026-03-26T08:33:44.018Z</time></trkpt><trkpt lat="30.737848031748683" lon="-6.125105758852588"><ele>948.0</ele><time>2026-03-26T08:33:45.018Z</time></trkpt><trkpt lat="30.737754685896675" lon="-6.125305349135138"><ele>948.0</ele><time>2026-03-26T08:33:46.018Z</time></trkpt><trkpt lat="30.73765519191933" lon="-6.125499992548806"><ele>947.0</ele><time>2026-03-26T08:33:47.018Z</time></trkpt><trkpt lat="30.737547786250257" lon="-6.1256913890667715"><ele>946.0</ele><time>2026-03-26T08:33:48.018Z</time></trkpt><trkpt lat="30.73743555690428" lon="-6.125879866523955"><ele>945.0</ele><time>2026-03-26T08:33:49.018Z</time></trkpt><trkpt lat="30.73732425727173" lon="-6.1260641242518465"><ele>944.3333333333333</ele><time>2026-03-26T08:33:50.018Z</time></trkpt><trkpt lat="30.737212853495624" lon="-6.126248259462207"><ele>943.6666666666666</ele><time>2026-03-26T08:33:51.018Z</time></trkpt><trkpt lat="30.737106173696862" lon="-6.126426308221764"><ele>943.0</ele><time>2026-03-26T08:33:52.018Z</time></trkpt><trkpt lat="30.737000652953522" lon="-6.126602560703623"><ele>943.0</ele><time>2026-03-26T08:33:53.018Z</time></trkpt><trkpt lat="30.73689755817484" lon="-6.126775782798751"><ele>943.0</ele><time>2026-03-26T08:33:54.018Z</time></trkpt><trkpt lat="30.73679504786707" lon="-6.126945051980595"><ele>943.0</ele><time>2026-03-26T08:33:55.018Z</time></trkpt><trkpt lat="30.73669323256741" lon="-6.127121768657683"><ele>941.6666666666666</ele><time>2026-03-26T08:33:56.018Z</time></trkpt><trkpt lat="30.73659373007627" lon="-6.127298886713322"><ele>940.3333333333333</ele><time>2026-03-26T08:33:57.018Z</time></trkpt><trkpt lat="30.73649834322505" lon="-6.12748215704719"><ele>939.0</ele><time>2026-03-26T08:33:58.018Z</time></trkpt><trkpt lat="30.736404162517534" lon="-6.1276698022973335"><ele>939.0</ele><time>2026-03-26T08:33:59.018Z</time></trkpt><trkpt lat="30.736306392797278" lon="-6.127857911538798"><ele>939.0</ele><time>2026-03-26T08:34:00.018Z</time></trkpt><trkpt lat="30.73619945105943" lon="-6.128059484421151"><ele>939.0</ele><time>2026-03-26T08:34:01.018Z</time></trkpt><trkpt lat="30.736097696503432" lon="-6.128257807208097"><ele>937.6666666666667</ele><time>2026-03-26T08:34:02.018Z</time></trkpt><trkpt lat="30.735993855811586" lon="-6.128466579083171"><ele>936.3333333333334</ele><time>2026-03-26T08:34:03.018Z</time></trkpt><trkpt lat="30.735892104343776" lon="-6.12867793058858"><ele>935.0</ele><time>2026-03-26T08:34:04.018Z</time></trkpt><trkpt lat="30.735796568639504" lon="-6.128888645771447"><ele>935.6666666666667</ele><time>2026-03-26T08:34:05.018Z</time></trkpt><trkpt lat="30.735701918352113" lon="-6.1291036743126535"><ele>936.3333333333333</ele><time>2026-03-26T08:34:06.018Z</time></trkpt><trkpt lat="30.73560465269838" lon="-6.129322209184071"><ele>937.0</ele><time>2026-03-26T08:34:07.018Z</time></trkpt><trkpt lat="30.735503407981607" lon="-6.129542781569711"><ele>937.0</ele><time>2026-03-26T08:34:08.018Z</time></trkpt><trkpt lat="30.73540361438438" lon="-6.1297683762345"><ele>937.0</ele><time>2026-03-26T08:34:09.018Z</time></trkpt><trkpt lat="30.735308608741377" lon="-6.129986622041725"><ele>937.0</ele><time>2026-03-26T08:34:10.018Z</time></trkpt><trkpt lat="30.7352138321564" lon="-6.1302030721521525"><ele>935.0</ele><time>2026-03-26T08:34:11.018Z</time></trkpt><trkpt lat="30.735130826980193" lon="-6.130437443805237"><ele>933.0</ele><time>2026-03-26T08:34:12.018Z</time></trkpt><trkpt lat="30.73503278071987" lon="-6.130684110683506"><ele>933.5</ele><time>2026-03-26T08:34:13.018Z</time></trkpt><trkpt lat="30.73493317421483" lon="-6.130936826904532"><ele>934.0</ele><time>2026-03-26T08:34:14.018Z</time></trkpt><trkpt lat="30.734836215754488" lon="-6.131164044794607"><ele>934.0</ele><time>2026-03-26T08:34:15.018Z</time></trkpt><trkpt lat="30.73473380134185" lon="-6.131386984017018"><ele>934.0</ele><time>2026-03-26T08:34:16.018Z</time></trkpt><trkpt lat="30.734624990082093" lon="-6.131608293781943"><ele>934.0</ele><time>2026-03-26T08:34:17.018Z</time></trkpt><trkpt lat="30.73451464299304" lon="-6.131826719180422"><ele>934.0</ele><time>2026-03-26T08:34:18.018Z</time></trkpt><trkpt lat="30.734406522190802" lon="-6.132042454102734"><ele>934.0</ele><time>2026-03-26T08:34:19.018Z</time></trkpt><trkpt lat="30.734297430233525" lon="-6.132249194858292"><ele>934.0</ele><time>2026-03-26T08:34:20.018Z</time></trkpt><trkpt lat="30.7341873573242" lon="-6.132456196170566"><ele>933.0</ele><time>2026-03-26T08:34:21.018Z</time></trkpt><trkpt lat="30.734072515500745" lon="-6.13265997372324"><ele>932.0</ele><time>2026-03-26T08:34:22.018Z</time></trkpt><trkpt lat="30.733957115448792" lon="-6.132862829924528"><ele>931.0</ele><time>2026-03-26T08:34:23.018Z</time></trkpt><trkpt lat="30.733843963693435" lon="-6.133064693145699"><ele>931.6666666666666</ele><time>2026-03-26T08:34:24.018Z</time></trkpt><trkpt lat="30.733728131977884" lon="-6.1332669637167205"><ele>932.3333333333333</ele><time>2026-03-26T08:34:25.019Z</time></trkpt><trkpt lat="30.73360853578995" lon="-6.133463745595999"><ele>933.0</ele><time>2026-03-26T08:34:26.018Z</time></trkpt><trkpt lat="30.733489098774964" lon="-6.133655362198477"><ele>932.0</ele><time>2026-03-26T08:34:27.018Z</time></trkpt><trkpt lat="30.73337111109723" lon="-6.133840600786914"><ele>931.0</ele><time>2026-03-26T08:34:28.018Z</time></trkpt><trkpt lat="30.73325231041822" lon="-6.134026815985358"><ele>930.0</ele><time>2026-03-26T08:34:29.018Z</time></trkpt><trkpt lat="30.733133139843773" lon="-6.134208816700505"><ele>930.0</ele><time>2026-03-26T08:34:30.018Z</time></trkpt><trkpt lat="30.73301101210025" lon="-6.1343952239116515"><ele>930.0</ele><time>2026-03-26T08:34:31.018Z</time></trkpt><trkpt lat="30.73288750256589" lon="-6.134575988571702"><ele>930.0</ele><time>2026-03-26T08:34:32.018Z</time></trkpt><trkpt lat="30.73276460543657" lon="-6.134750697138484"><ele>928.6666666666667</ele><time>2026-03-26T08:34:33.018Z</time></trkpt><trkpt lat="30.73264011514572" lon="-6.134926980213929"><ele>927.3333333333334</ele><time>2026-03-26T08:34:34.018Z</time></trkpt><trkpt lat="30.732507387424363" lon="-6.135108189231945"><ele>926.0</ele><time>2026-03-26T08:34:35.018Z</time></trkpt><trkpt lat="30.732368368565478" lon="-6.135292297765562"><ele>926.0</ele><time>2026-03-26T08:34:36.018Z</time></trkpt><trkpt lat="30.732220589185378" lon="-6.1354835714002185"><ele>926.0</ele><time>2026-03-26T08:34:37.018Z</time></trkpt><trkpt lat="30.732069874100848" lon="-6.135674328929193"><ele>926.0</ele><time>2026-03-26T08:34:38.018Z</time></trkpt><trkpt lat="30.73192019888689" lon="-6.135861015728915"><ele>925.3333333333334</ele><time>2026-03-26T08:34:39.018Z</time></trkpt><trkpt lat="30.731769550442902" lon="-6.13604741592406"><ele>924.6666666666667</ele><time>2026-03-26T08:34:40.018Z</time></trkpt><trkpt lat="30.73162196408179" lon="-6.136228043203821"><ele>924.0</ele><time>2026-03-26T08:34:41.018Z</time></trkpt><trkpt lat="30.731470429272083" lon="-6.136408032242857"><ele>924.0</ele><time>2026-03-26T08:34:42.018Z</time></trkpt><trkpt lat="30.731319035679288" lon="-6.136584633586719"><ele>924.0</ele><time>2026-03-26T08:34:43.018Z</time></trkpt><trkpt lat="30.731171720022783" lon="-6.1367579574431605"><ele>924.0</ele><time>2026-03-26T08:34:44.018Z</time></trkpt><trkpt lat="30.731024015163694" lon="-6.136936036554657"><ele>924.0</ele><time>2026-03-26T08:34:45.018Z</time></trkpt><trkpt lat="30.730871478197795" lon="-6.1371175278721575"><ele>924.0</ele><time>2026-03-26T08:34:46.018Z</time></trkpt><trkpt lat="30.730715868995112" lon="-6.137299913365208"><ele>924.0</ele><time>2026-03-26T08:34:47.018Z</time></trkpt><trkpt lat="30.730558969889504" lon="-6.137480037932211"><ele>924.0</ele><time>2026-03-26T08:34:48.018Z</time></trkpt><trkpt lat="30.730403832477766" lon="-6.137659091268924"><ele>924.0</ele><time>2026-03-26T08:34:49.018Z</time></trkpt><trkpt lat="30.730257371464496" lon="-6.13782710357281"><ele>924.0</ele><time>2026-03-26T08:34:50.018Z</time></trkpt><trkpt lat="30.730100428126118" lon="-6.138009085237236"><ele>924.0</ele><time>2026-03-26T08:34:51.018Z</time></trkpt><trkpt lat="30.729940708453896" lon="-6.13819904829264"><ele>924.0</ele><time>2026-03-26T08:34:52.018Z</time></trkpt><trkpt lat="30.72977536518555" lon="-6.1383931445619515"><ele>925.0</ele><time>2026-03-26T08:34:53.018Z</time></trkpt><trkpt lat="30.729599475377185" lon="-6.138603835230059"><ele>926.0</ele><time>2026-03-26T08:34:54.018Z</time></trkpt><trkpt lat="30.729433051322385" lon="-6.138806421813103"><ele>924.0</ele><time>2026-03-26T08:34:55.018Z</time></trkpt><trkpt lat="30.729282183085164" lon="-6.138988445863369"><ele>922.0</ele><time>2026-03-26T08:34:56.018Z</time></trkpt><trkpt lat="30.729129003523585" lon="-6.139172365120813"><ele>920.0</ele><time>2026-03-26T08:34:57.018Z</time></trkpt><trkpt lat="30.72897826508173" lon="-6.139355401831157"><ele>920.0</ele><time>2026-03-26T08:34:58.018Z</time></trkpt><trkpt lat="30.72882503879521" lon="-6.139548299186084"><ele>920.0</ele><time>2026-03-26T08:34:59.018Z</time></trkpt><trkpt lat="30.728669622896636" lon="-6.139744178680416"><ele>919.0</ele><time>2026-03-26T08:35:00.018Z</time></trkpt><trkpt lat="30.72851730458392" lon="-6.139938360362183"><ele>918.0</ele><time>2026-03-26T08:35:01.018Z</time></trkpt><trkpt lat="30.72836736853457" lon="-6.140133908345166"><ele>918.0</ele><time>2026-03-26T08:35:02.018Z</time></trkpt><trkpt lat="30.728222501963838" lon="-6.140325959854563"><ele>918.0</ele><time>2026-03-26T08:35:03.018Z</time></trkpt><trkpt lat="30.728081683332388" lon="-6.140513421843104"><ele>918.0</ele><time>2026-03-26T08:35:04.018Z</time></trkpt><trkpt lat="30.727942860817386" lon="-6.140704962343334"><ele>917.6666666666667</ele><time>2026-03-26T08:35:05.018Z</time></trkpt><trkpt lat="30.727806800671747" lon="-6.140902569502529"><ele>917.3333333333334</ele><time>2026-03-26T08:35:06.018Z</time></trkpt><trkpt lat="30.727674257581054" lon="-6.141096004965136"><ele>917.0</ele><time>2026-03-26T08:35:07.018Z</time></trkpt><trkpt lat="30.727544745198948" lon="-6.141298976446541"><ele>916.0</ele><time>2026-03-26T08:35:08.018Z</time></trkpt><trkpt lat="30.72741667745054" lon="-6.141503339678939"><ele>915.0</ele><time>2026-03-26T08:35:09.018Z</time></trkpt><trkpt lat="30.727290754176135" lon="-6.141709703124802"><ele>914.0</ele><time>2026-03-26T08:35:10.018Z</time></trkpt><trkpt lat="30.727165960673375" lon="-6.141915094733547"><ele>913.6666666666667</ele><time>2026-03-26T08:35:11.018Z</time></trkpt><trkpt lat="30.727039203981896" lon="-6.142123244727613"><ele>913.3333333333333</ele><time>2026-03-26T08:35:12.018Z</time></trkpt><trkpt lat="30.726915261417595" lon="-6.142332720122447"><ele>913.0</ele><time>2026-03-26T08:35:13.018Z</time></trkpt><trkpt lat="30.726794990810884" lon="-6.142545271701725"><ele>912.0</ele><time>2026-03-26T08:35:14.018Z</time></trkpt><trkpt lat="30.726684969734674" lon="-6.1427440953610795"><ele>911.0</ele><time>2026-03-26T08:35:15.018Z</time></trkpt><trkpt lat="30.726579754334303" lon="-6.142944342641839"><ele>910.0</ele><time>2026-03-26T08:35:16.018Z</time></trkpt><trkpt lat="30.726479115876582" lon="-6.143136948166945"><ele>910.0</ele><time>2026-03-26T08:35:17.018Z</time></trkpt><trkpt lat="30.726377886668" lon="-6.143330145707675"><ele>910.0</ele><time>2026-03-26T08:35:18.018Z</time></trkpt><trkpt lat="30.726277149685036" lon="-6.1435266815224905"><ele>910.0</ele><time>2026-03-26T08:35:19.018Z</time></trkpt><trkpt lat="30.726175674554213" lon="-6.143726196712652"><ele>910.0</ele><time>2026-03-26T08:35:20.018Z</time></trkpt><trkpt lat="30.726070722999655" lon="-6.143928073606531"><ele>910.0</ele><time>2026-03-26T08:35:21.018Z</time></trkpt><trkpt lat="30.7259638570627" lon="-6.144133822921445"><ele>910.0</ele><time>2026-03-26T08:35:22.018Z</time></trkpt><trkpt lat="30.72585491513011" lon="-6.14434083390149"><ele>909.0</ele><time>2026-03-26T08:35:23.018Z</time></trkpt><trkpt lat="30.72574625681919" lon="-6.144553427659881"><ele>908.0</ele><time>2026-03-26T08:35:24.018Z</time></trkpt><trkpt lat="30.725633680878477" lon="-6.1447709678008895"><ele>907.0</ele><time>2026-03-26T08:35:25.019Z</time></trkpt><trkpt lat="30.72551827223551" lon="-6.144994305759232"><ele>907.0</ele><time>2026-03-26T08:35:26.019Z</time></trkpt><trkpt lat="30.725399620706444" lon="-6.1452207263395024"><ele>907.0</ele><time>2026-03-26T08:35:27.019Z</time></trkpt><trkpt lat="30.72527922039158" lon="-6.145442060360887"><ele>905.5</ele><time>2026-03-26T08:35:28.019Z</time></trkpt><trkpt lat="30.72516037709783" lon="-6.145666125116308"><ele>904.0</ele><time>2026-03-26T08:35:29.019Z</time></trkpt><trkpt lat="30.725042640269304" lon="-6.145887023256061"><ele>904.0</ele><time>2026-03-26T08:35:30.019Z</time></trkpt><trkpt lat="30.724926884084837" lon="-6.146112112707272"><ele>904.0</ele><time>2026-03-26T08:35:31.019Z</time></trkpt><trkpt lat="30.724813577307266" lon="-6.146334861835671"><ele>904.0</ele><time>2026-03-26T08:35:32.019Z</time></trkpt><trkpt lat="30.724714575447265" lon="-6.146568364040764"><ele>904.0</ele><time>2026-03-26T08:35:33.019Z</time></trkpt><trkpt lat="30.724602035709975" lon="-6.1467921821242735"><ele>904.0</ele><time>2026-03-26T08:35:34.019Z</time></trkpt><trkpt lat="30.724489612079754" lon="-6.1470155809137355"><ele>904.0</ele><time>2026-03-26T08:35:35.019Z</time></trkpt><trkpt lat="30.724378456254296" lon="-6.147236821943953"><ele>903.3333333333333</ele><time>2026-03-26T08:35:36.019Z</time></trkpt><trkpt lat="30.724249638855742" lon="-6.147449660616762"><ele>902.6666666666667</ele><time>2026-03-26T08:35:37.019Z</time></trkpt><trkpt lat="30.72413752985361" lon="-6.147673671919579"><ele>902.0</ele><time>2026-03-26T08:35:38.019Z</time></trkpt><trkpt lat="30.724022654111188" lon="-6.147894515501127"><ele>902.0</ele><time>2026-03-26T08:35:39.019Z</time></trkpt><trkpt lat="30.723908955668783" lon="-6.1481135764928245"><ele>902.0</ele><time>2026-03-26T08:35:40.019Z</time></trkpt><trkpt lat="30.723822303669962" lon="-6.1483594609621"><ele>902.0</ele><time>2026-03-26T08:35:41.019Z</time></trkpt><trkpt lat="30.72370947802969" lon="-6.148585993367206"><ele>902.0</ele><time>2026-03-26T08:35:42.019Z</time></trkpt><trkpt lat="30.723597293208645" lon="-6.148811127938464"><ele>902.0</ele><time>2026-03-26T08:35:43.019Z</time></trkpt><trkpt lat="30.723480092311743" lon="-6.149034450385712"><ele>902.0</ele><time>2026-03-26T08:35:44.019Z</time></trkpt><trkpt lat="30.723362484863944" lon="-6.149253604712808"><ele>901.3333333333334</ele><time>2026-03-26T08:35:45.019Z</time></trkpt><trkpt lat="30.72324564322848" lon="-6.149471521612804"><ele>900.6666666666667</ele><time>2026-03-26T08:35:46.019Z</time></trkpt><trkpt lat="30.72312722539582" lon="-6.149691858365674"><ele>900.0</ele><time>2026-03-26T08:35:47.019Z</time></trkpt><trkpt lat="30.72301078235067" lon="-6.149908387733076"><ele>900.0</ele><time>2026-03-26T08:35:48.019Z</time></trkpt><trkpt lat="30.722883099415288" lon="-6.150111115381881"><ele>900.0</ele><time>2026-03-26T08:35:49.019Z</time></trkpt><trkpt lat="30.72277976547711" lon="-6.1503312990716905"><ele>900.0</ele><time>2026-03-26T08:35:50.019Z</time></trkpt><trkpt lat="30.722670317152186" lon="-6.150543023732783"><ele>899.3333333333333</ele><time>2026-03-26T08:35:51.019Z</time></trkpt><trkpt lat="30.72256436415043" lon="-6.1507479715077675"><ele>898.6666666666666</ele><time>2026-03-26T08:35:52.019Z</time></trkpt><trkpt lat="30.722459275366784" lon="-6.150949681710126"><ele>898.0</ele><time>2026-03-26T08:35:53.019Z</time></trkpt><trkpt lat="30.72235286077381" lon="-6.151152162039804"><ele>898.0</ele><time>2026-03-26T08:35:54.019Z</time></trkpt><trkpt lat="30.722246587251284" lon="-6.151355960904148"><ele>898.0</ele><time>2026-03-26T08:35:55.019Z</time></trkpt><trkpt lat="30.722140282275728" lon="-6.151560188247025"><ele>898.0</ele><time>2026-03-26T08:35:56.019Z</time></trkpt><trkpt lat="30.72203600151484" lon="-6.1517623209350445"><ele>898.0</ele><time>2026-03-26T08:35:57.019Z</time></trkpt><trkpt lat="30.721934266534426" lon="-6.151969033526709"><ele>898.0</ele><time>2026-03-26T08:35:58.019Z</time></trkpt><trkpt lat="30.72182460736952" lon="-6.152182487798896"><ele>898.0</ele><time>2026-03-26T08:35:59.019Z</time></trkpt><trkpt lat="30.72171481388455" lon="-6.152392707897737"><ele>898.0</ele><time>2026-03-26T08:36:00.019Z</time></trkpt><trkpt lat="30.721605052383204" lon="-6.152606054273967"><ele>898.0</ele><time>2026-03-26T08:36:01.019Z</time></trkpt><trkpt lat="30.721492433699712" lon="-6.152811142119103"><ele>898.0</ele><time>2026-03-26T08:36:02.019Z</time></trkpt><trkpt lat="30.72138100907264" lon="-6.1530219554634735"><ele>898.0</ele><time>2026-03-26T08:36:03.019Z</time></trkpt><trkpt lat="30.721271110044828" lon="-6.153233956821826"><ele>898.0</ele><time>2026-03-26T08:36:04.019Z</time></trkpt><trkpt lat="30.721161648781962" lon="-6.153445431768081"><ele>898.0</ele><time>2026-03-26T08:36:05.019Z</time></trkpt><trkpt lat="30.721051394960046" lon="-6.153656515958152"><ele>896.6666666666666</ele><time>2026-03-26T08:36:06.019Z</time></trkpt><trkpt lat="30.72094199180669" lon="-6.15386566717132"><ele>895.3333333333333</ele><time>2026-03-26T08:36:07.019Z</time></trkpt><trkpt lat="30.720832722115365" lon="-6.154070801427006"><ele>894.0</ele><time>2026-03-26T08:36:08.019Z</time></trkpt><trkpt lat="30.720724463889013" lon="-6.15427617497173"><ele>894.0</ele><time>2026-03-26T08:36:09.019Z</time></trkpt><trkpt lat="30.7206200026518" lon="-6.1544829977043065"><ele>894.0</ele><time>2026-03-26T08:36:10.019Z</time></trkpt><trkpt lat="30.720516048364395" lon="-6.1546903474444505"><ele>894.0</ele><time>2026-03-26T08:36:11.019Z</time></trkpt><trkpt lat="30.720409781578763" lon="-6.154895733060528"><ele>894.3333333333333</ele><time>2026-03-26T08:36:12.019Z</time></trkpt><trkpt lat="30.720304656869587" lon="-6.155103851271835"><ele>894.6666666666666</ele><time>2026-03-26T08:36:13.019Z</time></trkpt><trkpt lat="30.72019662250469" lon="-6.155307848126288"><ele>895.0</ele><time>2026-03-26T08:36:14.019Z</time></trkpt><trkpt lat="30.720091907773245" lon="-6.155510710675563"><ele>894.6666666666666</ele><time>2026-03-26T08:36:15.019Z</time></trkpt><trkpt lat="30.719984676730302" lon="-6.155715180552602"><ele>894.3333333333333</ele><time>2026-03-26T08:36:16.019Z</time></trkpt><trkpt lat="30.719879289944277" lon="-6.155916024083068"><ele>894.0</ele><time>2026-03-26T08:36:17.019Z</time></trkpt><trkpt lat="30.719773672674947" lon="-6.156113954126208"><ele>894.0</ele><time>2026-03-26T08:36:18.019Z</time></trkpt><trkpt lat="30.719665662631535" lon="-6.156309775128418"><ele>894.0</ele><time>2026-03-26T08:36:19.019Z</time></trkpt><trkpt lat="30.719556034815533" lon="-6.1565096826572265"><ele>894.0</ele><time>2026-03-26T08:36:20.019Z</time></trkpt><trkpt lat="30.719444344513025" lon="-6.156707594222145"><ele>894.0</ele><time>2026-03-26T08:36:21.019Z</time></trkpt><trkpt lat="30.719334841839352" lon="-6.156911476257325"><ele>894.0</ele><time>2026-03-26T08:36:22.019Z</time></trkpt><trkpt lat="30.719223518849983" lon="-6.157112452654274"><ele>894.0</ele><time>2026-03-26T08:36:23.019Z</time></trkpt><trkpt lat="30.719110088218088" lon="-6.157313289140374"><ele>894.3333333333333</ele><time>2026-03-26T08:36:24.019Z</time></trkpt><trkpt lat="30.718995518500364" lon="-6.157512710776348"><ele>894.6666666666666</ele><time>2026-03-26T08:36:25.02Z</time></trkpt><trkpt lat="30.718877050755207" lon="-6.157710352459445"><ele>895.0</ele><time>2026-03-26T08:36:26.02Z</time></trkpt><trkpt lat="30.71875859744484" lon="-6.157909659769067"><ele>895.0</ele><time>2026-03-26T08:36:27.02Z</time></trkpt><trkpt lat="30.718637338426" lon="-6.158105684661056"><ele>895.0</ele><time>2026-03-26T08:36:28.02Z</time></trkpt><trkpt lat="30.718518630478012" lon="-6.158301243587761"><ele>895.0</ele><time>2026-03-26T08:36:29.019Z</time></trkpt><trkpt lat="30.71839915810369" lon="-6.158491926531331"><ele>894.3333333333333</ele><time>2026-03-26T08:36:30.019Z</time></trkpt><trkpt lat="30.718279218905256" lon="-6.158689092451323"><ele>893.6666666666667</ele><time>2026-03-26T08:36:31.019Z</time></trkpt><trkpt lat="30.7181573969019" lon="-6.158886353253172"><ele>893.0</ele><time>2026-03-26T08:36:32.019Z</time></trkpt><trkpt lat="30.71803140358689" lon="-6.159082056835536"><ele>893.0</ele><time>2026-03-26T08:36:33.019Z</time></trkpt><trkpt lat="30.717902591855875" lon="-6.159278022950104"><ele>893.0</ele><time>2026-03-26T08:36:34.02Z</time></trkpt><trkpt lat="30.717773716965347" lon="-6.159472335738267"><ele>893.0</ele><time>2026-03-26T08:36:35.019Z</time></trkpt><trkpt lat="30.717643981061936" lon="-6.159666358703157"><ele>892.3333333333334</ele><time>2026-03-26T08:36:36.019Z</time></trkpt><trkpt lat="30.71751324523587" lon="-6.159861961737416"><ele>891.6666666666667</ele><time>2026-03-26T08:36:37.02Z</time></trkpt><trkpt lat="30.717381742346568" lon="-6.160056470769202"><ele>891.0</ele><time>2026-03-26T08:36:38.019Z</time></trkpt><trkpt lat="30.717247769455255" lon="-6.1602510454205905"><ele>891.0</ele><time>2026-03-26T08:36:39.019Z</time></trkpt><trkpt lat="30.717111395982503" lon="-6.160442969315366"><ele>891.0</ele><time>2026-03-26T08:36:40.019Z</time></trkpt><trkpt lat="30.716979794501185" lon="-6.160635349474876"><ele>891.0</ele><time>2026-03-26T08:36:41.019Z</time></trkpt><trkpt lat="30.71684835764512" lon="-6.160827532619298"><ele>891.3333333333333</ele><time>2026-03-26T08:36:42.019Z</time></trkpt><trkpt lat="30.716714171475832" lon="-6.161021084578603"><ele>891.6666666666666</ele><time>2026-03-26T08:36:43.019Z</time></trkpt><trkpt lat="30.716582760801238" lon="-6.161213915736966"><ele>892.0</ele><time>2026-03-26T08:36:44.02Z</time></trkpt><trkpt lat="30.716449880576953" lon="-6.161405274432353"><ele>892.0</ele><time>2026-03-26T08:36:45.02Z</time></trkpt><trkpt lat="30.716318012633188" lon="-6.161596559993467"><ele>892.0</ele><time>2026-03-26T08:36:46.02Z</time></trkpt><trkpt lat="30.716187777878165" lon="-6.161790257347323"><ele>892.0</ele><time>2026-03-26T08:36:47.02Z</time></trkpt><trkpt lat="30.71605245597649" lon="-6.161980170281167"><ele>892.0</ele><time>2026-03-26T08:36:48.02Z</time></trkpt><trkpt lat="30.715915294443295" lon="-6.16217157447178"><ele>892.0</ele><time>2026-03-26T08:36:49.02Z</time></trkpt><trkpt lat="30.715778967175414" lon="-6.162361977998727"><ele>892.0</ele><time>2026-03-26T08:36:50.02Z</time></trkpt><trkpt lat="30.715644387671365" lon="-6.162556061720907"><ele>891.0</ele><time>2026-03-26T08:36:51.02Z</time></trkpt><trkpt lat="30.715506895336926" lon="-6.162747312637979"><ele>890.0</ele><time>2026-03-26T08:36:52.02Z</time></trkpt><trkpt lat="30.71537160702645" lon="-6.162941188996849"><ele>889.0</ele><time>2026-03-26T08:36:53.02Z</time></trkpt><trkpt lat="30.715235066867642" lon="-6.16313206622166"><ele>889.6666666666666</ele><time>2026-03-26T08:36:54.02Z</time></trkpt><trkpt lat="30.71509817238057" lon="-6.163321472786885"><ele>890.3333333333333</ele><time>2026-03-26T08:36:55.02Z</time></trkpt><trkpt lat="30.714960486184065" lon="-6.163513651126806"><ele>891.0</ele><time>2026-03-26T08:36:56.02Z</time></trkpt><trkpt lat="30.7148281404147" lon="-6.163703471928168"><ele>891.0</ele><time>2026-03-26T08:36:57.02Z</time></trkpt><trkpt lat="30.71469471430947" lon="-6.163894757728091"><ele>891.0</ele><time>2026-03-26T08:36:58.02Z</time></trkpt><trkpt lat="30.714561468384193" lon="-6.164087905847515"><ele>891.0</ele><time>2026-03-26T08:36:59.02Z</time></trkpt><trkpt lat="30.71442586500885" lon="-6.164281899043533"><ele>890.0</ele><time>2026-03-26T08:37:00.02Z</time></trkpt><trkpt lat="30.714293086231187" lon="-6.1644777707426375"><ele>889.0</ele><time>2026-03-26T08:37:01.02Z</time></trkpt><trkpt lat="30.71415598651687" lon="-6.164671096835099"><ele>888.0</ele><time>2026-03-26T08:37:02.02Z</time></trkpt><trkpt lat="30.714017795718828" lon="-6.164865151823448"><ele>888.0</ele><time>2026-03-26T08:37:03.02Z</time></trkpt><trkpt lat="30.71387838162624" lon="-6.165061730128638"><ele>888.0</ele><time>2026-03-26T08:37:04.02Z</time></trkpt><trkpt lat="30.71373838554951" lon="-6.165259051350192"><ele>888.0</ele><time>2026-03-26T08:37:05.02Z</time></trkpt><trkpt lat="30.71359899454384" lon="-6.165457716908361"><ele>888.0</ele><time>2026-03-26T08:37:06.02Z</time></trkpt><trkpt lat="30.713460511573132" lon="-6.165655898619407"><ele>888.0</ele><time>2026-03-26T08:37:07.02Z</time></trkpt><trkpt lat="30.71333681783768" lon="-6.165868198436308"><ele>888.0</ele><time>2026-03-26T08:37:08.02Z</time></trkpt><trkpt lat="30.713201751762092" lon="-6.166064757261022"><ele>888.0</ele><time>2026-03-26T08:37:09.02Z</time></trkpt><trkpt lat="30.713066006406603" lon="-6.166263575577924"><ele>888.0</ele><time>2026-03-26T08:37:10.019Z</time></trkpt><trkpt lat="30.71293195484289" lon="-6.166459913107767"><ele>888.0</ele><time>2026-03-26T08:37:11.019Z</time></trkpt><trkpt lat="30.71279803967445" lon="-6.166656050856547"><ele>887.3333333333333</ele><time>2026-03-26T08:37:12.019Z</time></trkpt><trkpt lat="30.71266394183702" lon="-6.166852422163015"><ele>886.6666666666666</ele><time>2026-03-26T08:37:13.019Z</time></trkpt><trkpt lat="30.71253345440505" lon="-6.16704869980084"><ele>886.0</ele><time>2026-03-26T08:37:14.019Z</time></trkpt><trkpt lat="30.712402326524895" lon="-6.1672459407931655"><ele>887.0</ele><time>2026-03-26T08:37:15.019Z</time></trkpt><trkpt lat="30.71227059139325" lon="-6.16744366078535"><ele>888.0</ele><time>2026-03-26T08:37:16.019Z</time></trkpt><trkpt lat="30.71213808813601" lon="-6.167642608286786"><ele>889.0</ele><time>2026-03-26T08:37:17.019Z</time></trkpt><trkpt lat="30.712005818651352" lon="-6.167842262294828"><ele>888.6666666666666</ele><time>2026-03-26T08:37:18.019Z</time></trkpt><trkpt lat="30.71187841673809" lon="-6.168041532604231"><ele>888.3333333333333</ele><time>2026-03-26T08:37:19.019Z</time></trkpt><trkpt lat="30.711759490099958" lon="-6.168250107721442"><ele>888.0</ele><time>2026-03-26T08:37:20.019Z</time></trkpt><trkpt lat="30.71164238541547" lon="-6.168457353718255"><ele>888.6666666666667</ele><time>2026-03-26T08:37:21.019Z</time></trkpt><trkpt lat="30.711524272659435" lon="-6.16866393808408"><ele>889.3333333333334</ele><time>2026-03-26T08:37:22.018Z</time></trkpt><trkpt lat="30.711407207136098" lon="-6.1688700668537955"><ele>890.0</ele><time>2026-03-26T08:37:23.018Z</time></trkpt><trkpt lat="30.711290607792932" lon="-6.169075938680133"><ele>890.3333333333334</ele><time>2026-03-26T08:37:24.018Z</time></trkpt><trkpt lat="30.711174965132685" lon="-6.169279498110348"><ele>890.6666666666667</ele><time>2026-03-26T08:37:25.018Z</time></trkpt><trkpt lat="30.711069740039765" lon="-6.169483559534347"><ele>891.0</ele><time>2026-03-26T08:37:26.018Z</time></trkpt><trkpt lat="30.710963401581257" lon="-6.169689780094628"><ele>890.3333333333333</ele><time>2026-03-26T08:37:27.018Z</time></trkpt><trkpt lat="30.71085712250496" lon="-6.169895885491777"><ele>889.6666666666666</ele><time>2026-03-26T08:37:28.018Z</time></trkpt><trkpt lat="30.710749178845795" lon="-6.170105192797843"><ele>889.0</ele><time>2026-03-26T08:37:29.018Z</time></trkpt><trkpt lat="30.710639110976906" lon="-6.170318574982574"><ele>889.0</ele><time>2026-03-26T08:37:30.018Z</time></trkpt><trkpt lat="30.710526649538902" lon="-6.1705365974433315"><ele>889.0</ele><time>2026-03-26T08:37:31.018Z</time></trkpt><trkpt lat="30.710415618768817" lon="-6.170751842420725"><ele>889.0</ele><time>2026-03-26T08:37:32.018Z</time></trkpt><trkpt lat="30.710305108109328" lon="-6.170966516857421"><ele>889.3333333333333</ele><time>2026-03-26T08:37:33.018Z</time></trkpt><trkpt lat="30.710196783041273" lon="-6.171177708921711"><ele>889.6666666666667</ele><time>2026-03-26T08:37:34.018Z</time></trkpt><trkpt lat="30.71008897258202" lon="-6.171387121616969"><ele>890.0</ele><time>2026-03-26T08:37:35.018Z</time></trkpt><trkpt lat="30.709981647736058" lon="-6.171594755753837"><ele>890.0</ele><time>2026-03-26T08:37:36.018Z</time></trkpt><trkpt lat="30.709873908614036" lon="-6.171803191097556"><ele>890.0</ele><time>2026-03-26T08:37:37.018Z</time></trkpt><trkpt lat="30.70976574853524" lon="-6.172012626335153"><ele>890.0</ele><time>2026-03-26T08:37:38.018Z</time></trkpt><trkpt lat="30.709659367412904" lon="-6.172220082652593"><ele>890.3333333333334</ele><time>2026-03-26T08:37:39.018Z</time></trkpt><trkpt lat="30.70955555188486" lon="-6.172421792909585"><ele>890.6666666666667</ele><time>2026-03-26T08:37:40.018Z</time></trkpt><trkpt lat="30.70945124238924" lon="-6.172624711296714"><ele>891.0</ele><time>2026-03-26T08:37:41.018Z</time></trkpt><trkpt lat="30.709346159668254" lon="-6.172826641328266"><ele>891.3333333333333</ele><time>2026-03-26T08:37:42.018Z</time></trkpt><trkpt lat="30.709242896327577" lon="-6.1730270155069205"><ele>891.6666666666666</ele><time>2026-03-26T08:37:43.018Z</time></trkpt><trkpt lat="30.70914074216323" lon="-6.173225900041214"><ele>892.0</ele><time>2026-03-26T08:37:44.018Z</time></trkpt><trkpt lat="30.70903845926633" lon="-6.173424723961693"><ele>892.0</ele><time>2026-03-26T08:37:45.018Z</time></trkpt><trkpt lat="30.708935945132204" lon="-6.173623537689335"><ele>892.0</ele><time>2026-03-26T08:37:46.018Z</time></trkpt><trkpt lat="30.708832228393153" lon="-6.173824683684414"><ele>892.0</ele><time>2026-03-26T08:37:47.018Z</time></trkpt><trkpt lat="30.708727310345363" lon="-6.1740281595746875"><ele>892.3333333333333</ele><time>2026-03-26T08:37:48.018Z</time></trkpt><trkpt lat="30.708620751017566" lon="-6.174234566570367"><ele>892.6666666666667</ele><time>2026-03-26T08:37:49.018Z</time></trkpt><trkpt lat="30.708514116033037" lon="-6.174443068343249"><ele>893.0</ele><time>2026-03-26T08:37:50.018Z</time></trkpt><trkpt lat="30.708407610021677" lon="-6.174652404471057"><ele>894.3333333333334</ele><time>2026-03-26T08:37:51.018Z</time></trkpt><trkpt lat="30.708302084467157" lon="-6.17485981352504"><ele>895.6666666666667</ele><time>2026-03-26T08:37:52.018Z</time></trkpt><trkpt lat="30.70819736149468" lon="-6.175063436412776"><ele>897.0</ele><time>2026-03-26T08:37:53.018Z</time></trkpt><trkpt lat="30.70807904998975" lon="-6.1752576389848395"><ele>897.0</ele><time>2026-03-26T08:37:54.018Z</time></trkpt><trkpt lat="30.707976883114316" lon="-6.1754619273784614"><ele>897.0</ele><time>2026-03-26T08:37:55.018Z</time></trkpt><trkpt lat="30.7078729680596" lon="-6.175665064008184"><ele>897.0</ele><time>2026-03-26T08:37:56.018Z</time></trkpt><trkpt lat="30.707767939337607" lon="-6.175863990745415"><ele>896.6666666666667</ele><time>2026-03-26T08:37:57.018Z</time></trkpt><trkpt lat="30.707662402105196" lon="-6.1760626914419445"><ele>896.3333333333334</ele><time>2026-03-26T08:37:58.018Z</time></trkpt><trkpt lat="30.70755778915938" lon="-6.176265380418797"><ele>896.0</ele><time>2026-03-26T08:37:59.018Z</time></trkpt><trkpt lat="30.707452170622968" lon="-6.176466105606308"><ele>897.3333333333334</ele><time>2026-03-26T08:38:00.018Z</time></trkpt><trkpt lat="30.707344937246074" lon="-6.176673612176702"><ele>898.6666666666667</ele><time>2026-03-26T08:38:01.018Z</time></trkpt><trkpt lat="30.70723654123252" lon="-6.176875848932625"><ele>900.0</ele><time>2026-03-26T08:38:02.018Z</time></trkpt><trkpt lat="30.70712900470429" lon="-6.177078790992728"><ele>900.0</ele><time>2026-03-26T08:38:03.018Z</time></trkpt><trkpt lat="30.707019385847207" lon="-6.177280739403572"><ele>900.0</ele><time>2026-03-26T08:38:04.018Z</time></trkpt><trkpt lat="30.706908242878885" lon="-6.177480303670974"><ele>900.0</ele><time>2026-03-26T08:38:05.018Z</time></trkpt><trkpt lat="30.706793271678162" lon="-6.17767824998745"><ele>900.0</ele><time>2026-03-26T08:38:06.018Z</time></trkpt><trkpt lat="30.706677464164688" lon="-6.177871658285296"><ele>900.0</ele><time>2026-03-26T08:38:07.018Z</time></trkpt><trkpt lat="30.706558078773938" lon="-6.1780693521547985"><ele>900.0</ele><time>2026-03-26T08:38:08.018Z</time></trkpt><trkpt lat="30.7064355695332" lon="-6.178268174715018"><ele>900.0</ele><time>2026-03-26T08:38:09.018Z</time></trkpt><trkpt lat="30.706310741189796" lon="-6.178467347252103"><ele>900.0</ele><time>2026-03-26T08:38:10.018Z</time></trkpt><trkpt lat="30.706182303159235" lon="-6.178663764339814"><ele>900.0</ele><time>2026-03-26T08:38:11.018Z</time></trkpt><trkpt lat="30.706053362241033" lon="-6.1788546468228915"><ele>898.6666666666667</ele><time>2026-03-26T08:38:12.018Z</time></trkpt><trkpt lat="30.70592334102968" lon="-6.179044815521355"><ele>897.3333333333334</ele><time>2026-03-26T08:38:13.018Z</time></trkpt><trkpt lat="30.705794216364843" lon="-6.179232443277148"><ele>896.0</ele><time>2026-03-26T08:38:14.018Z</time></trkpt><trkpt lat="30.705665164475267" lon="-6.179421800006926"><ele>896.0</ele><time>2026-03-26T08:38:15.018Z</time></trkpt><trkpt lat="30.705534253689997" lon="-6.179608729738838"><ele>896.0</ele><time>2026-03-26T08:38:16.018Z</time></trkpt><trkpt lat="30.705401145002945" lon="-6.179803209476153"><ele>896.0</ele><time>2026-03-26T08:38:17.018Z</time></trkpt><trkpt lat="30.70526638182164" lon="-6.179997583536979"><ele>894.3333333333334</ele><time>2026-03-26T08:38:18.018Z</time></trkpt><trkpt lat="30.705132255909074" lon="-6.180191359601577"><ele>892.6666666666667</ele><time>2026-03-26T08:38:19.018Z</time></trkpt><trkpt lat="30.704994139514877" lon="-6.180383752883703"><ele>891.0</ele><time>2026-03-26T08:38:20.018Z</time></trkpt><trkpt lat="30.704856127989242" lon="-6.180574484458135"><ele>893.0</ele><time>2026-03-26T08:38:21.018Z</time></trkpt><trkpt lat="30.70471900977886" lon="-6.1807633483259155"><ele>895.0</ele><time>2026-03-26T08:38:22.018Z</time></trkpt><trkpt lat="30.704584039281894" lon="-6.180956795363288"><ele>897.0</ele><time>2026-03-26T08:38:23.018Z</time></trkpt><trkpt lat="30.704447994662004" lon="-6.181152938841807"><ele>895.3333333333333</ele><time>2026-03-26T08:38:24.018Z</time></trkpt><trkpt lat="30.704307324166667" lon="-6.181351613190995"><ele>893.6666666666666</ele><time>2026-03-26T08:38:25.018Z</time></trkpt><trkpt lat="30.704162335231953" lon="-6.181552269937823"><ele>892.0</ele><time>2026-03-26T08:38:26.018Z</time></trkpt><trkpt lat="30.704024102840805" lon="-6.181752858804931"><ele>892.0</ele><time>2026-03-26T08:38:27.018Z</time></trkpt><trkpt lat="30.703883584511928" lon="-6.18195277816876"><ele>892.0</ele><time>2026-03-26T08:38:28.018Z</time></trkpt><trkpt lat="30.703742137286824" lon="-6.182150993651332"><ele>892.0</ele><time>2026-03-26T08:38:29.018Z</time></trkpt><trkpt lat="30.703601104199908" lon="-6.182345555869799"><ele>891.3333333333333</ele><time>2026-03-26T08:38:30.018Z</time></trkpt><trkpt lat="30.703464611771526" lon="-6.182546737499045"><ele>890.6666666666667</ele><time>2026-03-26T08:38:31.019Z</time></trkpt><trkpt lat="30.70332437486812" lon="-6.182741860150637"><ele>890.0</ele><time>2026-03-26T08:38:32.018Z</time></trkpt><trkpt lat="30.703186885478097" lon="-6.182934729033906"><ele>890.0</ele><time>2026-03-26T08:38:33.018Z</time></trkpt><trkpt lat="30.70304978941603" lon="-6.183127191562688"><ele>890.0</ele><time>2026-03-26T08:38:34.018Z</time></trkpt><trkpt lat="30.70291290016767" lon="-6.183320282406755"><ele>890.0</ele><time>2026-03-26T08:38:35.018Z</time></trkpt><trkpt lat="30.70277629909607" lon="-6.183510290804362"><ele>889.3333333333334</ele><time>2026-03-26T08:38:36.018Z</time></trkpt><trkpt lat="30.702641177447294" lon="-6.183695386517185"><ele>888.6666666666667</ele><time>2026-03-26T08:38:37.019Z</time></trkpt><trkpt lat="30.70250223782581" lon="-6.183875249814507"><ele>888.0</ele><time>2026-03-26T08:38:38.018Z</time></trkpt><trkpt lat="30.70235336389795" lon="-6.184049891262889"><ele>887.6666666666667</ele><time>2026-03-26T08:38:39.018Z</time></trkpt><trkpt lat="30.702201631849793" lon="-6.184221577984746"><ele>887.3333333333334</ele><time>2026-03-26T08:38:40.019Z</time></trkpt><trkpt lat="30.70204690387657" lon="-6.184387927180991"><ele>887.0</ele><time>2026-03-26T08:38:41.019Z</time></trkpt><trkpt lat="30.701884634697155" lon="-6.184552171200811"><ele>887.0</ele><time>2026-03-26T08:38:42.019Z</time></trkpt><trkpt lat="30.701721087344566" lon="-6.184712546960813"><ele>887.0</ele><time>2026-03-26T08:38:43.019Z</time></trkpt><trkpt lat="30.701555253215105" lon="-6.184873361332949"><ele>887.0</ele><time>2026-03-26T08:38:44.018Z</time></trkpt><trkpt lat="30.70138495772088" lon="-6.185026110950369"><ele>886.6666666666667</ele><time>2026-03-26T08:38:45.018Z</time></trkpt><trkpt lat="30.70121129892552" lon="-6.185175901398886"><ele>886.3333333333333</ele><time>2026-03-26T08:38:46.018Z</time></trkpt><trkpt lat="30.70103622659814" lon="-6.185323565644209"><ele>886.0</ele><time>2026-03-26T08:38:47.018Z</time></trkpt><trkpt lat="30.70085944282758" lon="-6.185478236558265"><ele>886.0</ele><time>2026-03-26T08:38:48.018Z</time></trkpt><trkpt lat="30.700681911318227" lon="-6.18563511125235"><ele>886.0</ele><time>2026-03-26T08:38:49.018Z</time></trkpt><trkpt lat="30.700496143541397" lon="-6.185795226907258"><ele>885.6666666666666</ele><time>2026-03-26T08:38:50.018Z</time></trkpt><trkpt lat="30.700312783241497" lon="-6.185948111293384"><ele>885.3333333333333</ele><time>2026-03-26T08:38:51.018Z</time></trkpt><trkpt lat="30.700136453935972" lon="-6.186100656664878"><ele>885.0</ele><time>2026-03-26T08:38:52.018Z</time></trkpt><trkpt lat="30.69996118194992" lon="-6.186257072205992"><ele>885.0</ele><time>2026-03-26T08:38:53.018Z</time></trkpt><trkpt lat="30.699787317436922" lon="-6.186409273774531"><ele>885.0</ele><time>2026-03-26T08:38:54.018Z</time></trkpt><trkpt lat="30.69960924098635" lon="-6.186563246544083"><ele>885.0</ele><time>2026-03-26T08:38:55.018Z</time></trkpt><trkpt lat="30.69942095532043" lon="-6.186724041066929"><ele>884.5</ele><time>2026-03-26T08:38:56.018Z</time></trkpt><trkpt lat="30.699225018839826" lon="-6.186893357030581"><ele>884.0</ele><time>2026-03-26T08:38:57.018Z</time></trkpt><trkpt lat="30.699017881287798" lon="-6.187068036916664"><ele>884.0</ele><time>2026-03-26T08:38:58.018Z</time></trkpt><trkpt lat="30.698809625955906" lon="-6.187239902364815"><ele>884.0</ele><time>2026-03-26T08:38:59.018Z</time></trkpt><trkpt lat="30.698635416041583" lon="-6.18740793479437"><ele>883.5</ele><time>2026-03-26T08:39:00.018Z</time></trkpt><trkpt lat="30.698444027157752" lon="-6.187560950169523"><ele>883.0</ele><time>2026-03-26T08:39:01.018Z</time></trkpt><trkpt lat="30.698257489680294" lon="-6.187699697328063"><ele>883.0</ele><time>2026-03-26T08:39:02.018Z</time></trkpt><trkpt lat="30.69807477378064" lon="-6.187833279246055"><ele>883.0</ele><time>2026-03-26T08:39:03.018Z</time></trkpt><trkpt lat="30.697890962173506" lon="-6.187967652381183"><ele>883.0</ele><time>2026-03-26T08:39:04.018Z</time></trkpt><trkpt lat="30.697710559938297" lon="-6.188100047768134"><ele>882.0</ele><time>2026-03-26T08:39:05.018Z</time></trkpt><trkpt lat="30.69752901178178" lon="-6.188232683578607"><ele>881.0</ele><time>2026-03-26T08:39:06.018Z</time></trkpt><trkpt lat="30.697344558854663" lon="-6.188362159732175"><ele>880.0</ele><time>2026-03-26T08:39:07.018Z</time></trkpt><trkpt lat="30.697162483876756" lon="-6.18848828634844"><ele>880.0</ele><time>2026-03-26T08:39:08.018Z</time></trkpt><trkpt lat="30.69698741047316" lon="-6.1886104817871574"><ele>880.0</ele><time>2026-03-26T08:39:09.018Z</time></trkpt><trkpt lat="30.696815260981122" lon="-6.188730903755286"><ele>880.0</ele><time>2026-03-26T08:39:10.018Z</time></trkpt><trkpt lat="30.69663892641934" lon="-6.188854247147663"><ele>880.3333333333333</ele><time>2026-03-26T08:39:11.018Z</time></trkpt><trkpt lat="30.696458508785227" lon="-6.1889790146740635"><ele>880.6666666666667</ele><time>2026-03-26T08:39:12.018Z</time></trkpt><trkpt lat="30.696278240206695" lon="-6.189108263813772"><ele>881.0</ele><time>2026-03-26T08:39:13.018Z</time></trkpt><trkpt lat="30.696094473853524" lon="-6.189238974188103"><ele>879.0</ele><time>2026-03-26T08:39:14.018Z</time></trkpt><trkpt lat="30.695912386764782" lon="-6.18936813697157"><ele>877.0</ele><time>2026-03-26T08:39:15.018Z</time></trkpt><trkpt lat="30.695733000619907" lon="-6.189495181731654"><ele>875.0</ele><time>2026-03-26T08:39:16.018Z</time></trkpt><trkpt lat="30.69555294830564" lon="-6.189622698533864"><ele>875.0</ele><time>2026-03-26T08:39:17.018Z</time></trkpt><trkpt lat="30.69536952926431" lon="-6.189753330838337"><ele>875.0</ele><time>2026-03-26T08:39:18.018Z</time></trkpt><trkpt lat="30.695183656925064" lon="-6.189885340490706"><ele>875.0</ele><time>2026-03-26T08:39:19.018Z</time></trkpt><trkpt lat="30.694994718392035" lon="-6.190019613203241"><ele>874.0</ele><time>2026-03-26T08:39:20.018Z</time></trkpt><trkpt lat="30.694797558757728" lon="-6.190159835590352"><ele>873.0</ele><time>2026-03-26T08:39:21.018Z</time></trkpt><trkpt lat="30.69460105791628" lon="-6.190299619192944"><ele>873.3333333333333</ele><time>2026-03-26T08:39:22.018Z</time></trkpt><trkpt lat="30.694411185751154" lon="-6.190434844012847"><ele>873.6666666666666</ele><time>2026-03-26T08:39:23.018Z</time></trkpt><trkpt lat="30.694228895144562" lon="-6.190562638810248"><ele>874.0</ele><time>2026-03-26T08:39:24.018Z</time></trkpt><trkpt lat="30.694043713400973" lon="-6.190691312351744"><ele>874.0</ele><time>2026-03-26T08:39:25.018Z</time></trkpt><trkpt lat="30.693847561858643" lon="-6.190827608275861"><ele>874.0</ele><time>2026-03-26T08:39:26.018Z</time></trkpt><trkpt lat="30.693659504362408" lon="-6.190958157824267"><ele>874.0</ele><time>2026-03-26T08:39:27.018Z</time></trkpt><trkpt lat="30.693476710123967" lon="-6.191084775043199"><ele>873.0</ele><time>2026-03-26T08:39:28.018Z</time></trkpt><trkpt lat="30.693302206911103" lon="-6.191210580910404"><ele>872.0</ele><time>2026-03-26T08:39:29.018Z</time></trkpt><trkpt lat="30.693133030732277" lon="-6.191351454353013"><ele>871.0</ele><time>2026-03-26T08:39:30.018Z</time></trkpt><trkpt lat="30.692976638345606" lon="-6.1915064968196365"><ele>872.0</ele><time>2026-03-26T08:39:31.018Z</time></trkpt><trkpt lat="30.692817298430388" lon="-6.191679928558904"><ele>873.0</ele><time>2026-03-26T08:39:32.018Z</time></trkpt><trkpt lat="30.69265443682048" lon="-6.191856472318673"><ele>874.0</ele><time>2026-03-26T08:39:33.018Z</time></trkpt><trkpt lat="30.692492801318306" lon="-6.192031270316788"><ele>874.6666666666666</ele><time>2026-03-26T08:39:34.018Z</time></trkpt><trkpt lat="30.692334767972437" lon="-6.19220196174312"><ele>875.3333333333333</ele><time>2026-03-26T08:39:35.018Z</time></trkpt><trkpt lat="30.692182647920305" lon="-6.192365707588867"><ele>876.0</ele><time>2026-03-26T08:39:36.018Z</time></trkpt><trkpt lat="30.692040479662317" lon="-6.1925184508715425"><ele>873.0</ele><time>2026-03-26T08:39:37.018Z</time></trkpt><trkpt lat="30.69190883292541" lon="-6.192659478674817"><ele>870.0</ele><time>2026-03-26T08:39:38.018Z</time></trkpt><trkpt lat="30.69178374079309" lon="-6.192793431818561"><ele>867.0</ele><time>2026-03-26T08:39:39.018Z</time></trkpt><trkpt lat="30.6916679926853" lon="-6.19291754495222"><ele>867.0</ele><time>2026-03-26T08:39:40.018Z</time></trkpt><trkpt lat="30.691556244333213" lon="-6.193036930716934"><ele>867.0</ele><time>2026-03-26T08:39:41.018Z</time></trkpt><trkpt lat="30.69145029578826" lon="-6.193150719889516"><ele>867.0</ele><time>2026-03-26T08:39:42.018Z</time></trkpt><trkpt lat="30.69134366761171" lon="-6.193264399504336"><ele>867.0</ele><time>2026-03-26T08:39:43.018Z</time></trkpt><trkpt lat="30.691243068217638" lon="-6.193367128855822"><ele>866.5</ele><time>2026-03-26T08:39:44.018Z</time></trkpt><trkpt lat="30.691146893809684" lon="-6.193465444926119"><ele>866.0</ele><time>2026-03-26T08:39:45.018Z</time></trkpt><trkpt lat="30.691037295006485" lon="-6.193552338498961"><ele>865.5</ele><time>2026-03-26T08:39:46.018Z</time></trkpt><trkpt lat="30.690927090587795" lon="-6.193642536449323"><ele>865.0</ele><time>2026-03-26T08:39:47.018Z</time></trkpt><trkpt lat="30.690782436854054" lon="-6.193683483261626"><ele>865.0</ele><time>2026-03-26T08:39:48.018Z</time></trkpt><trkpt lat="30.690644908984012" lon="-6.193736277689856"><ele>865.0</ele><time>2026-03-26T08:39:49.018Z</time></trkpt><trkpt lat="30.690498097114325" lon="-6.193792635976424"><ele>865.0</ele><time>2026-03-26T08:39:50.018Z</time></trkpt><trkpt lat="30.690352719426855" lon="-6.193848443702056"><ele>862.0</ele><time>2026-03-26T08:39:51.018Z</time></trkpt><trkpt lat="30.690226255064015" lon="-6.193890522289397"><ele>859.0</ele><time>2026-03-26T08:39:52.018Z</time></trkpt><trkpt lat="30.690005375518275" lon="-6.193615540832639"><ele>859.0</ele><time>2026-03-26T08:39:53.018Z</time></trkpt><trkpt lat="30.689854126010484" lon="-6.193559325067669"><ele>859.0</ele><time>2026-03-26T08:39:54.018Z</time></trkpt><trkpt lat="30.689702648626863" lon="-6.193501344681182"><ele>859.0</ele><time>2026-03-26T08:39:55.018Z</time></trkpt><trkpt lat="30.689545014598096" lon="-6.193442629213712"><ele>859.6666666666666</ele><time>2026-03-26T08:39:56.018Z</time></trkpt><trkpt lat="30.689387190280666" lon="-6.193385698993067"><ele>860.3333333333333</ele><time>2026-03-26T08:39:57.019Z</time></trkpt><trkpt lat="30.689233560545798" lon="-6.193327517753891"><ele>861.0</ele><time>2026-03-26T08:39:58.019Z</time></trkpt><trkpt lat="30.689083632039775" lon="-6.193269917133281"><ele>861.0</ele><time>2026-03-26T08:39:59.019Z</time></trkpt><trkpt lat="30.688934559184084" lon="-6.193212915752037"><ele>861.0</ele><time>2026-03-26T08:40:00.019Z</time></trkpt><trkpt lat="30.688779184471542" lon="-6.193156446621756"><ele>861.0</ele><time>2026-03-26T08:40:01.019Z</time></trkpt><trkpt lat="30.688624341461963" lon="-6.193098168860652"><ele>860.6666666666667</ele><time>2026-03-26T08:40:02.019Z</time></trkpt><trkpt lat="30.688468695282296" lon="-6.193039502612622"><ele>860.3333333333334</ele><time>2026-03-26T08:40:03.019Z</time></trkpt><trkpt lat="30.688310935006314" lon="-6.192979501679913"><ele>860.0</ele><time>2026-03-26T08:40:04.019Z</time></trkpt><trkpt lat="30.68815488530159" lon="-6.192917778485014"><ele>860.0</ele><time>2026-03-26T08:40:05.019Z</time></trkpt><trkpt lat="30.68799281487581" lon="-6.192859421904597"><ele>860.0</ele><time>2026-03-26T08:40:06.019Z</time></trkpt><trkpt lat="30.68783188534934" lon="-6.192800645099962"><ele>860.0</ele><time>2026-03-26T08:40:07.019Z</time></trkpt><trkpt lat="30.687671049548687" lon="-6.192740937102114"><ele>859.0</ele><time>2026-03-26T08:40:08.019Z</time></trkpt><trkpt lat="30.68751007264167" lon="-6.192679041270516"><ele>858.0</ele><time>2026-03-26T08:40:09.019Z</time></trkpt><trkpt lat="30.687365884024118" lon="-6.192620100250341"><ele>857.0</ele><time>2026-03-26T08:40:10.019Z</time></trkpt><trkpt lat="30.687237499099894" lon="-6.192568108889249"><ele>857.0</ele><time>2026-03-26T08:40:11.019Z</time></trkpt><trkpt lat="30.687115036800066" lon="-6.192522636760834"><ele>857.0</ele><time>2026-03-26T08:40:12.019Z</time></trkpt><trkpt lat="30.687001908897944" lon="-6.1924826470950105"><ele>857.0</ele><time>2026-03-26T08:40:13.019Z</time></trkpt><trkpt lat="30.68689391998306" lon="-6.192442988481045"><ele>857.0</ele><time>2026-03-26T08:40:14.019Z</time></trkpt><trkpt lat="30.686804333663382" lon="-6.1924133724364046"><ele>857.0</ele><time>2026-03-26T08:40:15.019Z</time></trkpt><trkpt lat="30.686716382806082" lon="-6.192382643591127"><ele>857.0</ele><time>2026-03-26T08:40:16.019Z</time></trkpt><trkpt lat="30.686617130896376" lon="-6.192344239960108"><ele>857.0</ele><time>2026-03-26T08:40:17.019Z</time></trkpt><trkpt lat="30.686513245649877" lon="-6.1923035499393375"><ele>857.0</ele><time>2026-03-26T08:40:18.019Z</time></trkpt><trkpt lat="30.686406383385766" lon="-6.192261703676292"><ele>857.0</ele><time>2026-03-26T08:40:19.019Z</time></trkpt><trkpt lat="30.686289717414834" lon="-6.192220320576925"><ele>857.0</ele><time>2026-03-26T08:40:20.019Z</time></trkpt><trkpt lat="30.68616655724417" lon="-6.192176255428399"><ele>857.0</ele><time>2026-03-26T08:40:21.019Z</time></trkpt><trkpt lat="30.686040196476085" lon="-6.192130337867722"><ele>857.0</ele><time>2026-03-26T08:40:22.019Z</time></trkpt><trkpt lat="30.685917732013063" lon="-6.192088696139336"><ele>857.0</ele><time>2026-03-26T08:40:23.019Z</time></trkpt><trkpt lat="30.68579576259883" lon="-6.192045000998687"><ele>857.0</ele><time>2026-03-26T08:40:24.019Z</time></trkpt><trkpt lat="30.68566270352265" lon="-6.191998817651254"><ele>857.0</ele><time>2026-03-26T08:40:25.019Z</time></trkpt><trkpt lat="30.685536844345375" lon="-6.191957483104961"><ele>857.0</ele><time>2026-03-26T08:40:26.019Z</time></trkpt><trkpt lat="30.68540844294223" lon="-6.191917110622804"><ele>857.0</ele><time>2026-03-26T08:40:27.019Z</time></trkpt><trkpt lat="30.685299067785138" lon="-6.191880644088897"><ele>857.4000000000001</ele><time>2026-03-26T08:40:28.019Z</time></trkpt><trkpt lat="30.685202449860444" lon="-6.191848709487944"><ele>857.8000000000001</ele><time>2026-03-26T08:40:29.019Z</time></trkpt><trkpt lat="30.685111793744888" lon="-6.1918145186082985"><ele>858.2</ele><time>2026-03-26T08:40:30.019Z</time></trkpt><trkpt lat="30.685017061941114" lon="-6.191787155780793"><ele>858.6</ele><time>2026-03-26T08:40:31.019Z</time></trkpt><trkpt lat="30.684923373617927" lon="-6.191765288732339"><ele>859.0</ele><time>2026-03-26T08:40:32.019Z</time></trkpt><trkpt lat="30.68482887197183" lon="-6.191750567714748"><ele>858.9999999999999</ele><time>2026-03-26T08:40:33.019Z</time></trkpt><trkpt lat="30.68474094551112" lon="-6.191745776283129"><ele>859.0</ele><time>2026-03-26T08:40:34.019Z</time></trkpt><trkpt lat="30.684665166572643" lon="-6.1917478595072835"><ele>859.0</ele><time>2026-03-26T08:40:35.019Z</time></trkpt><trkpt lat="30.684597621957916" lon="-6.191750937190052"><ele>859.0</ele><time>2026-03-26T08:40:36.019Z</time></trkpt><trkpt lat="30.684479564231857" lon="-6.191765362880789"><ele>858.9999999999999</ele><time>2026-03-26T08:40:38.019Z</time></trkpt><trkpt lat="30.68440041382282" lon="-6.191782651545787"><ele>859.0</ele><time>2026-03-26T08:40:40.019Z</time></trkpt><trkpt lat="30.6843206294645" lon="-6.191848842074339"><ele>860.6666666666666</ele><time>2026-03-26T08:40:43.02Z</time></trkpt><trkpt lat="30.684303063168315" lon="-6.191926618356916"><ele>862.3333333333333</ele><time>2026-03-26T08:40:44.019Z</time></trkpt><trkpt lat="30.684308659887698" lon="-6.192029167917139"><ele>864.0</ele><time>2026-03-26T08:40:45.019Z</time></trkpt><trkpt lat="30.68432183420115" lon="-6.1921326117519"><ele>865.6666666666667</ele><time>2026-03-26T08:40:46.02Z</time></trkpt><trkpt lat="30.684336900839927" lon="-6.192241191977004"><ele>867.3333333333334</ele><time>2026-03-26T08:40:47.02Z</time></trkpt><trkpt lat="30.684359627156756" lon="-6.192348263856057"><ele>869.0</ele><time>2026-03-26T08:40:48.02Z</time></trkpt><trkpt lat="30.684376841098093" lon="-6.192464476829253"><ele>869.4000000000001</ele><time>2026-03-26T08:40:49.02Z</time></trkpt><trkpt lat="30.684392862703042" lon="-6.192584073902174"><ele>869.8000000000001</ele><time>2026-03-26T08:40:50.019Z</time></trkpt><trkpt lat="30.684410134532516" lon="-6.19270396182517"><ele>870.1999999999999</ele><time>2026-03-26T08:40:51.019Z</time></trkpt><trkpt lat="30.68443113776039" lon="-6.192829684673697"><ele>870.5999999999999</ele><time>2026-03-26T08:40:52.019Z</time></trkpt><trkpt lat="30.684454181860264" lon="-6.192967017375432"><ele>871.0</ele><time>2026-03-26T08:40:53.019Z</time></trkpt><trkpt lat="30.684478663867253" lon="-6.19311317108894"><ele>868.25</ele><time>2026-03-26T08:40:54.019Z</time></trkpt><trkpt lat="30.684502452631207" lon="-6.193266621343945"><ele>865.5</ele><time>2026-03-26T08:40:55.019Z</time></trkpt><trkpt lat="30.684525293302507" lon="-6.1934264848805824"><ele>862.75</ele><time>2026-03-26T08:40:56.019Z</time></trkpt><trkpt lat="30.684549604131792" lon="-6.1935933111978905"><ele>860.0</ele><time>2026-03-26T08:40:57.019Z</time></trkpt><trkpt lat="30.68457367544716" lon="-6.193758324510308"><ele>860.0</ele><time>2026-03-26T08:40:58.019Z</time></trkpt><trkpt lat="30.68460101532063" lon="-6.193924902390352"><ele>860.0</ele><time>2026-03-26T08:40:59.019Z</time></trkpt><trkpt lat="30.684627101647152" lon="-6.194091845724246"><ele>860.0</ele><time>2026-03-26T08:41:00.019Z</time></trkpt><trkpt lat="30.684654631754427" lon="-6.194261478641162"><ele>860.0</ele><time>2026-03-26T08:41:01.019Z</time></trkpt><trkpt lat="30.684677492361594" lon="-6.194432787674296"><ele>860.0</ele><time>2026-03-26T08:41:02.019Z</time></trkpt><trkpt lat="30.684709920152738" lon="-6.194610398530413"><ele>860.0</ele><time>2026-03-26T08:41:03.019Z</time></trkpt><trkpt lat="30.68473755909446" lon="-6.19478656029563"><ele>860.0</ele><time>2026-03-26T08:41:04.019Z</time></trkpt><trkpt lat="30.6847715528566" lon="-6.194969176649441"><ele>860.3333333333334</ele><time>2026-03-26T08:41:05.019Z</time></trkpt><trkpt lat="30.684806624270937" lon="-6.195156991143769"><ele>860.6666666666667</ele><time>2026-03-26T08:41:06.019Z</time></trkpt><trkpt lat="30.684841867871175" lon="-6.195349950771495"><ele>861.0</ele><time>2026-03-26T08:41:07.019Z</time></trkpt><trkpt lat="30.684872112747243" lon="-6.195546619503688"><ele>861.6666666666667</ele><time>2026-03-26T08:41:08.019Z</time></trkpt><trkpt lat="30.684899672586873" lon="-6.195750718100625"><ele>862.3333333333334</ele><time>2026-03-26T08:41:09.019Z</time></trkpt><trkpt lat="30.684920661921808" lon="-6.195961023211907"><ele>863.0</ele><time>2026-03-26T08:41:10.019Z</time></trkpt><trkpt lat="30.684935990144766" lon="-6.196171949129229"><ele>863.0</ele><time>2026-03-26T08:41:11.019Z</time></trkpt><trkpt lat="30.68495141275388" lon="-6.196386396030165"><ele>863.0</ele><time>2026-03-26T08:41:12.019Z</time></trkpt><trkpt lat="30.684967831432022" lon="-6.196601015316299"><ele>863.0</ele><time>2026-03-26T08:41:13.019Z</time></trkpt><trkpt lat="30.684983898140345" lon="-6.196820055644953"><ele>863.3333333333334</ele><time>2026-03-26T08:41:14.019Z</time></trkpt><trkpt lat="30.685013248778986" lon="-6.197035415415921"><ele>863.6666666666667</ele><time>2026-03-26T08:41:15.019Z</time></trkpt><trkpt lat="30.685043958124933" lon="-6.1972433822045065"><ele>864.0</ele><time>2026-03-26T08:41:16.019Z</time></trkpt><trkpt lat="30.68507345888949" lon="-6.197446425144329"><ele>865.3333333333333</ele><time>2026-03-26T08:41:17.019Z</time></trkpt><trkpt lat="30.685102708498803" lon="-6.197652875987431"><ele>866.6666666666666</ele><time>2026-03-26T08:41:18.019Z</time></trkpt><trkpt lat="30.68512713348237" lon="-6.197863092103518"><ele>868.0</ele><time>2026-03-26T08:41:19.019Z</time></trkpt><trkpt lat="30.685146117297062" lon="-6.198075920632106"><ele>870.3333333333333</ele><time>2026-03-26T08:41:20.019Z</time></trkpt><trkpt lat="30.685165251726243" lon="-6.198295194495139"><ele>872.6666666666667</ele><time>2026-03-26T08:41:21.019Z</time></trkpt><trkpt lat="30.68518329340358" lon="-6.1985162479564995"><ele>875.0</ele><time>2026-03-26T08:41:22.019Z</time></trkpt><trkpt lat="30.685198580409423" lon="-6.198733956620977"><ele>875.0</ele><time>2026-03-26T08:41:23.019Z</time></trkpt><trkpt lat="30.685211601460544" lon="-6.198951403297846"><ele>875.0</ele><time>2026-03-26T08:41:24.019Z</time></trkpt><trkpt lat="30.68522456894317" lon="-6.199167897304818"><ele>875.0</ele><time>2026-03-26T08:41:25.019Z</time></trkpt><trkpt lat="30.685232857404543" lon="-6.199380424711182"><ele>875.3333333333334</ele><time>2026-03-26T08:41:26.019Z</time></trkpt><trkpt lat="30.68523521149328" lon="-6.199590993666446"><ele>875.6666666666667</ele><time>2026-03-26T08:41:27.019Z</time></trkpt><trkpt lat="30.685231730626988" lon="-6.199794474819164"><ele>876.0</ele><time>2026-03-26T08:41:28.019Z</time></trkpt><trkpt lat="30.685220913712616" lon="-6.199990647886856"><ele>876.0</ele><time>2026-03-26T08:41:29.019Z</time></trkpt><trkpt lat="30.68520189953095" lon="-6.200184332037815"><ele>876.0</ele><time>2026-03-26T08:41:30.02Z</time></trkpt><trkpt lat="30.68518490428868" lon="-6.200381432682061"><ele>876.0</ele><time>2026-03-26T08:41:31.02Z</time></trkpt><trkpt lat="30.68516715981789" lon="-6.200575080377807"><ele>873.0</ele><time>2026-03-26T08:41:32.02Z</time></trkpt><trkpt lat="30.685158366359946" lon="-6.200769314573229"><ele>870.0</ele><time>2026-03-26T08:41:33.02Z</time></trkpt><trkpt lat="30.68517132444633" lon="-6.200974299911235"><ele>867.0</ele><time>2026-03-26T08:41:34.02Z</time></trkpt><trkpt lat="30.685206769577533" lon="-6.201180580041643"><ele>867.0</ele><time>2026-03-26T08:41:35.02Z</time></trkpt><trkpt lat="30.685249566452818" lon="-6.201389200308719"><ele>867.0</ele><time>2026-03-26T08:41:36.02Z</time></trkpt><trkpt lat="30.68528950864205" lon="-6.201603785785692"><ele>867.0</ele><time>2026-03-26T08:41:37.02Z</time></trkpt><trkpt lat="30.685326905839286" lon="-6.201810589599699"><ele>864.6666666666667</ele><time>2026-03-26T08:41:38.02Z</time></trkpt><trkpt lat="30.68536378766678" lon="-6.2020162462350665"><ele>862.3333333333334</ele><time>2026-03-26T08:41:39.02Z</time></trkpt><trkpt lat="30.68540299663747" lon="-6.202222852271249"><ele>860.0</ele><time>2026-03-26T08:41:40.02Z</time></trkpt><trkpt lat="30.6854406877521" lon="-6.2024297436878255"><ele>860.0</ele><time>2026-03-26T08:41:41.02Z</time></trkpt><trkpt lat="30.685485988812246" lon="-6.202637363078265"><ele>860.0</ele><time>2026-03-26T08:41:42.02Z</time></trkpt><trkpt lat="30.685547765661404" lon="-6.202841695036358"><ele>860.0</ele><time>2026-03-26T08:41:43.02Z</time></trkpt><trkpt lat="30.685616851281445" lon="-6.203042311938829"><ele>860.3333333333334</ele><time>2026-03-26T08:41:44.02Z</time></trkpt><trkpt lat="30.6856742252023" lon="-6.203243914439632"><ele>860.6666666666667</ele><time>2026-03-26T08:41:45.02Z</time></trkpt><trkpt lat="30.6857216579783" lon="-6.20344671449737"><ele>861.0</ele><time>2026-03-26T08:41:46.02Z</time></trkpt><trkpt lat="30.6857563971661" lon="-6.203654432064185"><ele>861.0</ele><time>2026-03-26T08:41:47.02Z</time></trkpt><trkpt lat="30.68578514882473" lon="-6.203860392953249"><ele>861.0</ele><time>2026-03-26T08:41:48.02Z</time></trkpt><trkpt lat="30.685812135145806" lon="-6.2040636342552915"><ele>861.0</ele><time>2026-03-26T08:41:49.02Z</time></trkpt><trkpt lat="30.685848632724436" lon="-6.204265470202896"><ele>864.0</ele><time>2026-03-26T08:41:50.02Z</time></trkpt><trkpt lat="30.685898840191502" lon="-6.204465868632246"><ele>867.0</ele><time>2026-03-26T08:41:51.02Z</time></trkpt><trkpt lat="30.68597296742103" lon="-6.2046745429307855"><ele>870.0</ele><time>2026-03-26T08:41:52.02Z</time></trkpt><trkpt lat="30.686077311013793" lon="-6.20487382381232"><ele>866.6666666666667</ele><time>2026-03-26T08:41:53.02Z</time></trkpt><trkpt lat="30.68619536883558" lon="-6.205045293147867"><ele>863.3333333333334</ele><time>2026-03-26T08:41:54.02Z</time></trkpt><trkpt lat="30.686321146427186" lon="-6.205196124368804"><ele>860.0</ele><time>2026-03-26T08:41:55.02Z</time></trkpt><trkpt lat="30.68644237298451" lon="-6.205345330325885"><ele>860.0</ele><time>2026-03-26T08:41:56.02Z</time></trkpt><trkpt lat="30.686558778554286" lon="-6.2054932518625305"><ele>860.0</ele><time>2026-03-26T08:41:57.02Z</time></trkpt><trkpt lat="30.686670389532456" lon="-6.2056366740031175"><ele>860.0</ele><time>2026-03-26T08:41:58.02Z</time></trkpt><trkpt lat="30.686778837604127" lon="-6.205789150709858"><ele>859.6666666666667</ele><time>2026-03-26T08:41:59.02Z</time></trkpt><trkpt lat="30.686885977383263" lon="-6.205954394802253"><ele>859.3333333333333</ele><time>2026-03-26T08:42:00.02Z</time></trkpt><trkpt lat="30.6869840363385" lon="-6.206130486514569"><ele>859.0</ele><time>2026-03-26T08:42:01.02Z</time></trkpt><trkpt lat="30.6870697833758" lon="-6.2063125730506625"><ele>860.3333333333333</ele><time>2026-03-26T08:42:02.02Z</time></trkpt><trkpt lat="30.687137580127146" lon="-6.206503583584033"><ele>861.6666666666667</ele><time>2026-03-26T08:42:03.02Z</time></trkpt><trkpt lat="30.687191245508536" lon="-6.2067017519681915"><ele>863.0</ele><time>2026-03-26T08:42:04.02Z</time></trkpt><trkpt lat="30.68723891326651" lon="-6.2069064064819965"><ele>863.0</ele><time>2026-03-26T08:42:05.02Z</time></trkpt><trkpt lat="30.687271753116192" lon="-6.207119588880731"><ele>863.0</ele><time>2026-03-26T08:42:06.02Z</time></trkpt><trkpt lat="30.68729296561743" lon="-6.207337786277382"><ele>863.0</ele><time>2026-03-26T08:42:07.02Z</time></trkpt><trkpt lat="30.687299673842162" lon="-6.207561204000956"><ele>864.0</ele><time>2026-03-26T08:42:08.02Z</time></trkpt><trkpt lat="30.687292849723544" lon="-6.207800300505961"><ele>865.0</ele><time>2026-03-26T08:42:09.02Z</time></trkpt><trkpt lat="30.687283489307873" lon="-6.208040367633771"><ele>866.0</ele><time>2026-03-26T08:42:10.02Z</time></trkpt><trkpt lat="30.687276694182845" lon="-6.208274659702463"><ele>866.0</ele><time>2026-03-26T08:42:11.02Z</time></trkpt><trkpt lat="30.687268699112195" lon="-6.208506350210765"><ele>866.0</ele><time>2026-03-26T08:42:12.02Z</time></trkpt><trkpt lat="30.687263639546373" lon="-6.208737776357204"><ele>866.0</ele><time>2026-03-26T08:42:13.02Z</time></trkpt><trkpt lat="30.68725898221825" lon="-6.2089615961336415"><ele>866.0</ele><time>2026-03-26T08:42:14.02Z</time></trkpt><trkpt lat="30.687252930819408" lon="-6.209182356532869"><ele>866.0</ele><time>2026-03-26T08:42:15.02Z</time></trkpt><trkpt lat="30.687245234150478" lon="-6.209401144737633"><ele>866.0</ele><time>2026-03-26T08:42:16.02Z</time></trkpt><trkpt lat="30.6872412765" lon="-6.209622090873724"><ele>865.0</ele><time>2026-03-26T08:42:17.02Z</time></trkpt><trkpt lat="30.68723554069844" lon="-6.209836838856817"><ele>864.0</ele><time>2026-03-26T08:42:18.02Z</time></trkpt><trkpt lat="30.68723092847599" lon="-6.210056316967888"><ele>863.0</ele><time>2026-03-26T08:42:19.02Z</time></trkpt><trkpt lat="30.687228723484093" lon="-6.210271984785846"><ele>863.0</ele><time>2026-03-26T08:42:20.02Z</time></trkpt><trkpt lat="30.687226751725387" lon="-6.210485285224766"><ele>863.0</ele><time>2026-03-26T08:42:21.02Z</time></trkpt><trkpt lat="30.6872296170363" lon="-6.21069931692971"><ele>863.0</ele><time>2026-03-26T08:42:22.02Z</time></trkpt><trkpt lat="30.68723918252932" lon="-6.210911664332742"><ele>864.0</ele><time>2026-03-26T08:42:23.02Z</time></trkpt><trkpt lat="30.687260793424752" lon="-6.211124105756459"><ele>865.0</ele><time>2026-03-26T08:42:24.02Z</time></trkpt><trkpt lat="30.687306587757238" lon="-6.21132981120492"><ele>866.0</ele><time>2026-03-26T08:42:25.02Z</time></trkpt><trkpt lat="30.687351184946905" lon="-6.211534136357403"><ele>867.0</ele><time>2026-03-26T08:42:26.02Z</time></trkpt><trkpt lat="30.68739734428887" lon="-6.211742295543711"><ele>868.0</ele><time>2026-03-26T08:42:27.02Z</time></trkpt><trkpt lat="30.687444719642475" lon="-6.211955872513706"><ele>869.0</ele><time>2026-03-26T08:42:28.02Z</time></trkpt><trkpt lat="30.68749147824778" lon="-6.212170192042226"><ele>870.0</ele><time>2026-03-26T08:42:29.02Z</time></trkpt><trkpt lat="30.68752762953193" lon="-6.212389290016746"><ele>871.0</ele><time>2026-03-26T08:42:30.02Z</time></trkpt><trkpt lat="30.687584924157346" lon="-6.212609135350781"><ele>872.0</ele><time>2026-03-26T08:42:31.02Z</time></trkpt><trkpt lat="30.687639251642068" lon="-6.212835757823962"><ele>872.0</ele><time>2026-03-26T08:42:32.02Z</time></trkpt><trkpt lat="30.687692889524776" lon="-6.213059304321155"><ele>872.0</ele><time>2026-03-26T08:42:33.02Z</time></trkpt><trkpt lat="30.687742991983647" lon="-6.213276111402196"><ele>872.0</ele><time>2026-03-26T08:42:34.02Z</time></trkpt><trkpt lat="30.687787286825102" lon="-6.2134943730516925"><ele>869.6666666666667</ele><time>2026-03-26T08:42:35.02Z</time></trkpt><trkpt lat="30.687827723122687" lon="-6.213710050456313"><ele>867.3333333333333</ele><time>2026-03-26T08:42:36.02Z</time></trkpt><trkpt lat="30.68786462064654" lon="-6.213928030836011"><ele>865.0</ele><time>2026-03-26T08:42:37.02Z</time></trkpt><trkpt lat="30.687899927236188" lon="-6.2141489755899535"><ele>865.0</ele><time>2026-03-26T08:42:38.02Z</time></trkpt><trkpt lat="30.6879339824151" lon="-6.214370780117225"><ele>865.0</ele><time>2026-03-26T08:42:39.02Z</time></trkpt><trkpt lat="30.687967517681624" lon="-6.21459492739712"><ele>865.0</ele><time>2026-03-26T08:42:40.02Z</time></trkpt><trkpt lat="30.68800204179337" lon="-6.2148203517178695"><ele>865.0</ele><time>2026-03-26T08:42:41.02Z</time></trkpt><trkpt lat="30.6880367218947" lon="-6.215045685862136"><ele>865.0</ele><time>2026-03-26T08:42:42.02Z</time></trkpt><trkpt lat="30.688071750629224" lon="-6.215267714645211"><ele>865.0</ele><time>2026-03-26T08:42:43.021Z</time></trkpt><trkpt lat="30.688107143334115" lon="-6.215487723079951"><ele>866.0</ele><time>2026-03-26T08:42:44.021Z</time></trkpt><trkpt lat="30.68814066591102" lon="-6.215706255583613"><ele>867.0</ele><time>2026-03-26T08:42:45.021Z</time></trkpt><trkpt lat="30.688172373081148" lon="-6.215917374525051"><ele>868.0</ele><time>2026-03-26T08:42:46.02Z</time></trkpt><trkpt lat="30.688225763489292" lon="-6.216121798068414"><ele>868.0</ele><time>2026-03-26T08:42:47.021Z</time></trkpt><trkpt lat="30.688266699201744" lon="-6.216341588800846"><ele>868.0</ele><time>2026-03-26T08:42:48.021Z</time></trkpt><trkpt lat="30.68830866245353" lon="-6.216571678076279"><ele>868.0</ele><time>2026-03-26T08:42:49.021Z</time></trkpt><trkpt lat="30.6883592982371" lon="-6.216787658053066"><ele>869.6666666666666</ele><time>2026-03-26T08:42:50.021Z</time></trkpt><trkpt lat="30.688415186540084" lon="-6.217009252056611"><ele>871.3333333333333</ele><time>2026-03-26T08:42:51.021Z</time></trkpt><trkpt lat="30.688471591264413" lon="-6.217234031697679"><ele>873.0</ele><time>2026-03-26T08:42:52.021Z</time></trkpt><trkpt lat="30.68852759058898" lon="-6.217454538502064"><ele>871.0</ele><time>2026-03-26T08:42:53.021Z</time></trkpt><trkpt lat="30.688581217664776" lon="-6.217664584605568"><ele>869.0</ele><time>2026-03-26T08:42:54.021Z</time></trkpt><trkpt lat="30.688632282343253" lon="-6.217866609463042"><ele>867.0</ele><time>2026-03-26T08:42:55.021Z</time></trkpt><trkpt lat="30.688683554912615" lon="-6.218067676404861"><ele>868.6666666666667</ele><time>2026-03-26T08:42:56.021Z</time></trkpt><trkpt lat="30.68871879709761" lon="-6.2182683665348115"><ele>870.3333333333334</ele><time>2026-03-26T08:42:57.021Z</time></trkpt><trkpt lat="30.688770999774544" lon="-6.218461332201606"><ele>872.0</ele><time>2026-03-26T08:42:58.021Z</time></trkpt><trkpt lat="30.688821952487327" lon="-6.218656120482403"><ele>872.0</ele><time>2026-03-26T08:42:59.021Z</time></trkpt><trkpt lat="30.688866468656748" lon="-6.218854034050511"><ele>872.0</ele><time>2026-03-26T08:43:00.021Z</time></trkpt><trkpt lat="30.688904581037754" lon="-6.219062116488545"><ele>872.0</ele><time>2026-03-26T08:43:01.021Z</time></trkpt><trkpt lat="30.688931990453252" lon="-6.219268754295297"><ele>872.6666666666667</ele><time>2026-03-26T08:43:02.021Z</time></trkpt><trkpt lat="30.688949070677722" lon="-6.219477379278764"><ele>873.3333333333333</ele><time>2026-03-26T08:43:03.021Z</time></trkpt><trkpt lat="30.688955158486596" lon="-6.219702379141485"><ele>874.0</ele><time>2026-03-26T08:43:04.021Z</time></trkpt><trkpt lat="30.688948730627448" lon="-6.219923424119642"><ele>874.3333333333333</ele><time>2026-03-26T08:43:05.021Z</time></trkpt><trkpt lat="30.688933502474807" lon="-6.220132496989714"><ele>874.6666666666667</ele><time>2026-03-26T08:43:06.021Z</time></trkpt><trkpt lat="30.68891206748238" lon="-6.220345901422628"><ele>875.0</ele><time>2026-03-26T08:43:07.021Z</time></trkpt><trkpt lat="30.688880086565913" lon="-6.220554652464461"><ele>874.6666666666667</ele><time>2026-03-26T08:43:08.021Z</time></trkpt><trkpt lat="30.688850384511994" lon="-6.220764521297045"><ele>874.3333333333333</ele><time>2026-03-26T08:43:09.021Z</time></trkpt><trkpt lat="30.688818565227596" lon="-6.220978042835734"><ele>874.0</ele><time>2026-03-26T08:43:10.021Z</time></trkpt><trkpt lat="30.688801333538716" lon="-6.221197270336055"><ele>874.0</ele><time>2026-03-26T08:43:11.021Z</time></trkpt><trkpt lat="30.688806462456103" lon="-6.2214285311916715"><ele>874.0</ele><time>2026-03-26T08:43:12.021Z</time></trkpt><trkpt lat="30.68884024979796" lon="-6.221653044514429"><ele>874.0</ele><time>2026-03-26T08:43:13.021Z</time></trkpt><trkpt lat="30.688891357647748" lon="-6.221869278478472"><ele>876.3333333333333</ele><time>2026-03-26T08:43:14.021Z</time></trkpt><trkpt lat="30.688952314365118" lon="-6.222091031241498"><ele>878.6666666666667</ele><time>2026-03-26T08:43:15.021Z</time></trkpt><trkpt lat="30.689010811847183" lon="-6.222307006729431"><ele>881.0</ele><time>2026-03-26T08:43:16.021Z</time></trkpt><trkpt lat="30.689070447617933" lon="-6.22252210786101"><ele>883.0</ele><time>2026-03-26T08:43:17.021Z</time></trkpt><trkpt lat="30.68911833480001" lon="-6.222737080121554"><ele>885.0</ele><time>2026-03-26T08:43:18.021Z</time></trkpt><trkpt lat="30.689151216003225" lon="-6.2229524237186205"><ele>887.0</ele><time>2026-03-26T08:43:19.021Z</time></trkpt><trkpt lat="30.689173091555535" lon="-6.223168318876562"><ele>889.3333333333334</ele><time>2026-03-26T08:43:20.021Z</time></trkpt><trkpt lat="30.689183931872282" lon="-6.223384326112758"><ele>891.6666666666667</ele><time>2026-03-26T08:43:21.021Z</time></trkpt><trkpt lat="30.68918380680607" lon="-6.223597259496019"><ele>894.0</ele><time>2026-03-26T08:43:22.021Z</time></trkpt><trkpt lat="30.68918547501677" lon="-6.223814615776343"><ele>895.0</ele><time>2026-03-26T08:43:23.021Z</time></trkpt><trkpt lat="30.68918859826796" lon="-6.224034897900853"><ele>896.0</ele><time>2026-03-26T08:43:24.021Z</time></trkpt><trkpt lat="30.68918987574152" lon="-6.224251116718845"><ele>897.0</ele><time>2026-03-26T08:43:25.021Z</time></trkpt><trkpt lat="30.689186574763806" lon="-6.22447560254541"><ele>897.0</ele><time>2026-03-26T08:43:26.021Z</time></trkpt><trkpt lat="30.689198068687627" lon="-6.224695784200336"><ele>897.0</ele><time>2026-03-26T08:43:27.021Z</time></trkpt><trkpt lat="30.689162642245595" lon="-6.224904058315605"><ele>897.0</ele><time>2026-03-26T08:43:28.021Z</time></trkpt><trkpt lat="30.689136943875383" lon="-6.225110754203336"><ele>898.3333333333333</ele><time>2026-03-26T08:43:29.021Z</time></trkpt><trkpt lat="30.689100356327167" lon="-6.225323120924485"><ele>899.6666666666666</ele><time>2026-03-26T08:43:30.021Z</time></trkpt><trkpt lat="30.689049404707962" lon="-6.225546287795974"><ele>901.0</ele><time>2026-03-26T08:43:31.021Z</time></trkpt><trkpt lat="30.688987717721268" lon="-6.225759624457218"><ele>903.0</ele><time>2026-03-26T08:43:32.022Z</time></trkpt><trkpt lat="30.688921539950975" lon="-6.225966717643938"><ele>905.0</ele><time>2026-03-26T08:43:33.022Z</time></trkpt><trkpt lat="30.688875849858317" lon="-6.226179711319831"><ele>907.0</ele><time>2026-03-26T08:43:34.022Z</time></trkpt><trkpt lat="30.688792460778235" lon="-6.226369989978965"><ele>904.0</ele><time>2026-03-26T08:43:35.022Z</time></trkpt><trkpt lat="30.68873846757149" lon="-6.226560754621656"><ele>901.0</ele><time>2026-03-26T08:43:36.022Z</time></trkpt><trkpt lat="30.688700408929073" lon="-6.2267603473361675"><ele>898.0</ele><time>2026-03-26T08:43:37.022Z</time></trkpt><trkpt lat="30.68868036392066" lon="-6.226966727993262"><ele>898.0</ele><time>2026-03-26T08:43:38.022Z</time></trkpt><trkpt lat="30.68868858416241" lon="-6.227172817592972"><ele>898.0</ele><time>2026-03-26T08:43:39.022Z</time></trkpt><trkpt lat="30.688714798669835" lon="-6.2273804047102805"><ele>898.0</ele><time>2026-03-26T08:43:40.022Z</time></trkpt><trkpt lat="30.688759370599133" lon="-6.227583208099559"><ele>897.3333333333333</ele><time>2026-03-26T08:43:41.022Z</time></trkpt><trkpt lat="30.688826310603677" lon="-6.227784346124487"><ele>896.6666666666667</ele><time>2026-03-26T08:43:42.022Z</time></trkpt><trkpt lat="30.68891037975551" lon="-6.227974862528065"><ele>896.0</ele><time>2026-03-26T08:43:43.022Z</time></trkpt><trkpt lat="30.68900381199851" lon="-6.228156868169891"><ele>900.0</ele><time>2026-03-26T08:43:44.022Z</time></trkpt><trkpt lat="30.689108956289" lon="-6.228342543360299"><ele>904.0</ele><time>2026-03-26T08:43:45.022Z</time></trkpt><trkpt lat="30.68921496257342" lon="-6.228534107598042"><ele>908.0</ele><time>2026-03-26T08:43:46.022Z</time></trkpt><trkpt lat="30.689305820086737" lon="-6.228718441085541"><ele>908.0</ele><time>2026-03-26T08:43:47.022Z</time></trkpt><trkpt lat="30.689383032958933" lon="-6.228905778948827"><ele>908.0</ele><time>2026-03-26T08:43:48.022Z</time></trkpt><trkpt lat="30.689437441590655" lon="-6.229103412372768"><ele>908.0</ele><time>2026-03-26T08:43:49.022Z</time></trkpt><trkpt lat="30.689463738842413" lon="-6.229315852479355"><ele>907.0</ele><time>2026-03-26T08:43:50.022Z</time></trkpt><trkpt lat="30.68946692845647" lon="-6.2295491805843"><ele>906.0</ele><time>2026-03-26T08:43:51.022Z</time></trkpt><trkpt lat="30.689447819414973" lon="-6.229767782463022"><ele>905.0</ele><time>2026-03-26T08:43:52.022Z</time></trkpt><trkpt lat="30.689420132534657" lon="-6.229971720442752"><ele>905.0</ele><time>2026-03-26T08:43:53.022Z</time></trkpt><trkpt lat="30.689394758934423" lon="-6.23017067114559"><ele>905.0</ele><time>2026-03-26T08:43:54.022Z</time></trkpt><trkpt lat="30.68937228242527" lon="-6.230369113880728"><ele>905.0</ele><time>2026-03-26T08:43:55.022Z</time></trkpt><trkpt lat="30.68935621970853" lon="-6.2305742992834645"><ele>903.0</ele><time>2026-03-26T08:43:56.022Z</time></trkpt><trkpt lat="30.689358729571413" lon="-6.230786484053069"><ele>901.0</ele><time>2026-03-26T08:43:57.022Z</time></trkpt><trkpt lat="30.6893771047514" lon="-6.230997325699338"><ele>899.0</ele><time>2026-03-26T08:43:58.022Z</time></trkpt><trkpt lat="30.689404442944923" lon="-6.231205646216676"><ele>891.6666666666667</ele><time>2026-03-26T08:43:59.022Z</time></trkpt><trkpt lat="30.689436898731596" lon="-6.2314180561671355"><ele>884.3333333333333</ele><time>2026-03-26T08:44:00.022Z</time></trkpt><trkpt lat="30.689465715171195" lon="-6.231633449859014"><ele>877.0</ele><time>2026-03-26T08:44:01.022Z</time></trkpt><trkpt lat="30.689492863047164" lon="-6.2318492719497725"><ele>877.0</ele><time>2026-03-26T08:44:02.022Z</time></trkpt><trkpt lat="30.689517803437493" lon="-6.232065152955859"><ele>877.0</ele><time>2026-03-26T08:44:03.022Z</time></trkpt><trkpt lat="30.689543823295402" lon="-6.2322797534578305"><ele>877.0</ele><time>2026-03-26T08:44:04.022Z</time></trkpt><trkpt lat="30.68957268125301" lon="-6.232492772455249"><ele>880.0</ele><time>2026-03-26T08:44:05.022Z</time></trkpt><trkpt lat="30.689601072875064" lon="-6.232705696894524"><ele>883.0</ele><time>2026-03-26T08:44:06.022Z</time></trkpt><trkpt lat="30.68962898051614" lon="-6.232917126854925"><ele>886.0</ele><time>2026-03-26T08:44:07.022Z</time></trkpt><trkpt lat="30.689654701441235" lon="-6.233137678188073"><ele>889.6666666666666</ele><time>2026-03-26T08:44:08.022Z</time></trkpt><trkpt lat="30.689684591772956" lon="-6.233364063708268"><ele>893.3333333333333</ele><time>2026-03-26T08:44:09.022Z</time></trkpt><trkpt lat="30.689718543049526" lon="-6.233591209201751"><ele>897.0</ele><time>2026-03-26T08:44:10.022Z</time></trkpt><trkpt lat="30.689765587649003" lon="-6.233820156685615"><ele>897.0</ele><time>2026-03-26T08:44:11.022Z</time></trkpt><trkpt lat="30.689833099329036" lon="-6.234040706584832"><ele>897.0</ele><time>2026-03-26T08:44:12.022Z</time></trkpt><trkpt lat="30.689911529429946" lon="-6.23424861153453"><ele>897.0</ele><time>2026-03-26T08:44:13.022Z</time></trkpt><trkpt lat="30.69000376360338" lon="-6.234447643341816"><ele>897.0</ele><time>2026-03-26T08:44:14.022Z</time></trkpt><trkpt lat="30.69010192512054" lon="-6.234631393295758"><ele>897.0</ele><time>2026-03-26T08:44:15.022Z</time></trkpt><trkpt lat="30.690213676463493" lon="-6.234811850576254"><ele>897.0</ele><time>2026-03-26T08:44:16.022Z</time></trkpt><trkpt lat="30.690346708782407" lon="-6.234997572561058"><ele>893.3333333333333</ele><time>2026-03-26T08:44:17.022Z</time></trkpt><trkpt lat="30.690497296947857" lon="-6.235181355872574"><ele>889.6666666666666</ele><time>2026-03-26T08:44:18.022Z</time></trkpt><trkpt lat="30.690654715320292" lon="-6.235356341590969"><ele>886.0</ele><time>2026-03-26T08:44:19.022Z</time></trkpt><trkpt lat="30.69081144674554" lon="-6.235534367031236"><ele>885.3333333333333</ele><time>2026-03-26T08:44:20.022Z</time></trkpt><trkpt lat="30.690972165489" lon="-6.235710650879895"><ele>884.6666666666667</ele><time>2026-03-26T08:44:21.022Z</time></trkpt><trkpt lat="30.691133809085073" lon="-6.235890425126168"><ele>884.0</ele><time>2026-03-26T08:44:22.022Z</time></trkpt><trkpt lat="30.691294895422725" lon="-6.236068748624876"><ele>881.0</ele><time>2026-03-26T08:44:23.022Z</time></trkpt><trkpt lat="30.691453735894353" lon="-6.23624754948134"><ele>878.0</ele><time>2026-03-26T08:44:24.022Z</time></trkpt><trkpt lat="30.69161205518873" lon="-6.2364236805362605"><ele>875.0</ele><time>2026-03-26T08:44:25.022Z</time></trkpt><trkpt lat="30.691771870563105" lon="-6.236597161002216"><ele>875.0</ele><time>2026-03-26T08:44:26.022Z</time></trkpt><trkpt lat="30.69192331812572" lon="-6.236771680656078"><ele>875.0</ele><time>2026-03-26T08:44:27.022Z</time></trkpt><trkpt lat="30.692077409118088" lon="-6.236943231004006"><ele>875.0</ele><time>2026-03-26T08:44:28.022Z</time></trkpt><trkpt lat="30.692233687206883" lon="-6.237113251187783"><ele>875.0</ele><time>2026-03-26T08:44:29.022Z</time></trkpt><trkpt lat="30.69238820422348" lon="-6.237283502108459"><ele>875.0</ele><time>2026-03-26T08:44:30.022Z</time></trkpt><trkpt lat="30.692540385885508" lon="-6.237459110497233"><ele>875.0</ele><time>2026-03-26T08:44:31.022Z</time></trkpt><trkpt lat="30.692689579028748" lon="-6.237626052344368"><ele>873.0</ele><time>2026-03-26T08:44:32.022Z</time></trkpt><trkpt lat="30.6928409904945" lon="-6.237795393360843"><ele>871.0</ele><time>2026-03-26T08:44:33.022Z</time></trkpt><trkpt lat="30.692987764523494" lon="-6.237961132262194"><ele>869.0</ele><time>2026-03-26T08:44:34.022Z</time></trkpt><trkpt lat="30.693135135145482" lon="-6.238125870599659"><ele>873.0</ele><time>2026-03-26T08:44:35.022Z</time></trkpt><trkpt lat="30.693281820868897" lon="-6.238294925796419"><ele>877.0</ele><time>2026-03-26T08:44:36.022Z</time></trkpt><trkpt lat="30.69342989690821" lon="-6.238462686646874"><ele>881.0</ele><time>2026-03-26T08:44:37.022Z</time></trkpt><trkpt lat="30.69358057236467" lon="-6.238630025321568"><ele>881.0</ele><time>2026-03-26T08:44:38.022Z</time></trkpt><trkpt lat="30.693729555854638" lon="-6.238798229364004"><ele>881.0</ele><time>2026-03-26T08:44:39.022Z</time></trkpt><trkpt lat="30.693877649843106" lon="-6.238968296861785"><ele>881.0</ele><time>2026-03-26T08:44:40.022Z</time></trkpt><trkpt lat="30.694028578813324" lon="-6.239139021046578"><ele>881.0</ele><time>2026-03-26T08:44:41.022Z</time></trkpt><trkpt lat="30.69417216385188" lon="-6.239304240322731"><ele>881.0</ele><time>2026-03-26T08:44:42.022Z</time></trkpt><trkpt lat="30.694313840326984" lon="-6.2394587714163166"><ele>881.0</ele><time>2026-03-26T08:44:43.022Z</time></trkpt><trkpt lat="30.694464057212205" lon="-6.23961486328039"><ele>878.3333333333334</ele><time>2026-03-26T08:44:44.022Z</time></trkpt><trkpt lat="30.694608047663984" lon="-6.2397753134081535"><ele>875.6666666666667</ele><time>2026-03-26T08:44:45.022Z</time></trkpt><trkpt lat="30.694748584134015" lon="-6.239938058424526"><ele>873.0</ele><time>2026-03-26T08:44:46.022Z</time></trkpt><trkpt lat="30.69488435951335" lon="-6.240092630810356"><ele>873.0</ele><time>2026-03-26T08:44:47.022Z</time></trkpt><trkpt lat="30.695007318956407" lon="-6.2402301392724855"><ele>873.0</ele><time>2026-03-26T08:44:48.022Z</time></trkpt><trkpt lat="30.695128955422916" lon="-6.240366374341149"><ele>873.0</ele><time>2026-03-26T08:44:49.022Z</time></trkpt><trkpt lat="30.695249228378437" lon="-6.240500583152317"><ele>873.0</ele><time>2026-03-26T08:44:50.021Z</time></trkpt><trkpt lat="30.695360676282693" lon="-6.240635733660584"><ele>873.0</ele><time>2026-03-26T08:44:51.021Z</time></trkpt><trkpt lat="30.695468258106274" lon="-6.240765882912412"><ele>873.0</ele><time>2026-03-26T08:44:52.022Z</time></trkpt><trkpt lat="30.695573008374623" lon="-6.240897887092482"><ele>873.0</ele><time>2026-03-26T08:44:53.022Z</time></trkpt><trkpt lat="30.695680161520364" lon="-6.241042356935106"><ele>873.0</ele><time>2026-03-26T08:44:54.022Z</time></trkpt><trkpt lat="30.695783373007455" lon="-6.241194139537622"><ele>873.0</ele><time>2026-03-26T08:44:55.022Z</time></trkpt><trkpt lat="30.695885242174253" lon="-6.2413486225219525"><ele>871.6666666666667</ele><time>2026-03-26T08:44:56.022Z</time></trkpt><trkpt lat="30.69598654272501" lon="-6.241503690774813"><ele>870.3333333333334</ele><time>2026-03-26T08:44:57.022Z</time></trkpt><trkpt lat="30.6960792890982" lon="-6.241658076512194"><ele>869.0</ele><time>2026-03-26T08:44:58.021Z</time></trkpt><trkpt lat="30.696170167105617" lon="-6.241815219371787"><ele>869.0</ele><time>2026-03-26T08:44:59.021Z</time></trkpt><trkpt lat="30.696259471545943" lon="-6.241975667272393"><ele>869.0</ele><time>2026-03-26T08:45:00.021Z</time></trkpt><trkpt lat="30.696343953269295" lon="-6.242140596430274"><ele>869.0</ele><time>2026-03-26T08:45:01.022Z</time></trkpt><trkpt lat="30.696421718910717" lon="-6.2423118930530235"><ele>871.0</ele><time>2026-03-26T08:45:02.021Z</time></trkpt><trkpt lat="30.696498560029767" lon="-6.242483667710292"><ele>873.0</ele><time>2026-03-26T08:45:03.021Z</time></trkpt><trkpt lat="30.696575739587438" lon="-6.242660542538442"><ele>875.0</ele><time>2026-03-26T08:45:04.021Z</time></trkpt><trkpt lat="30.696652972855794" lon="-6.242840618729035"><ele>875.0</ele><time>2026-03-26T08:45:05.021Z</time></trkpt><trkpt lat="30.69672558350378" lon="-6.243031025014858"><ele>875.0</ele><time>2026-03-26T08:45:06.021Z</time></trkpt><trkpt lat="30.69679487882192" lon="-6.243227344160258"><ele>875.0</ele><time>2026-03-26T08:45:07.021Z</time></trkpt><trkpt lat="30.69685571224212" lon="-6.243429203438968"><ele>875.0</ele><time>2026-03-26T08:45:08.021Z</time></trkpt><trkpt lat="30.696913537192703" lon="-6.243627306214698"><ele>875.0</ele><time>2026-03-26T08:45:09.021Z</time></trkpt><trkpt lat="30.69696585202763" lon="-6.2438298496024105"><ele>875.0</ele><time>2026-03-26T08:45:10.021Z</time></trkpt><trkpt lat="30.697017996477474" lon="-6.244034853685032"><ele>875.0</ele><time>2026-03-26T08:45:11.021Z</time></trkpt><trkpt lat="30.69706831461169" lon="-6.24424792150974"><ele>875.0</ele><time>2026-03-26T08:45:12.021Z</time></trkpt><trkpt lat="30.69711282869679" lon="-6.24446847658685"><ele>875.0</ele><time>2026-03-26T08:45:13.022Z</time></trkpt><trkpt lat="30.697151251057445" lon="-6.244689242597749"><ele>875.6666666666667</ele><time>2026-03-26T08:45:14.022Z</time></trkpt><trkpt lat="30.697182671790106" lon="-6.2449147778469785"><ele>876.3333333333333</ele><time>2026-03-26T08:45:15.022Z</time></trkpt><trkpt lat="30.697208590744424" lon="-6.245142537165768"><ele>877.0</ele><time>2026-03-26T08:45:16.022Z</time></trkpt><trkpt lat="30.6972320751051" lon="-6.24537431913046"><ele>877.0</ele><time>2026-03-26T08:45:17.022Z</time></trkpt><trkpt lat="30.697247627579255" lon="-6.245608048134554"><ele>877.0</ele><time>2026-03-26T08:45:18.022Z</time></trkpt><trkpt lat="30.697258817237337" lon="-6.245842806611299"><ele>877.0</ele><time>2026-03-26T08:45:19.022Z</time></trkpt><trkpt lat="30.697268800033314" lon="-6.246074034880246"><ele>878.0</ele><time>2026-03-26T08:45:20.022Z</time></trkpt><trkpt lat="30.69727242313849" lon="-6.246299508061539"><ele>879.0</ele><time>2026-03-26T08:45:21.022Z</time></trkpt><trkpt lat="30.697274090312025" lon="-6.246525464804905"><ele>880.0</ele><time>2026-03-26T08:45:22.022Z</time></trkpt><trkpt lat="30.69727756832032" lon="-6.246749165313138"><ele>881.0</ele><time>2026-03-26T08:45:23.022Z</time></trkpt><trkpt lat="30.697277227933746" lon="-6.246971396605636"><ele>882.0</ele><time>2026-03-26T08:45:24.022Z</time></trkpt><trkpt lat="30.69727809689624" lon="-6.247190135862092"><ele>883.0</ele><time>2026-03-26T08:45:25.022Z</time></trkpt><trkpt lat="30.697274802878926" lon="-6.247408690474788"><ele>883.6666666666666</ele><time>2026-03-26T08:45:26.022Z</time></trkpt><trkpt lat="30.697266112641554" lon="-6.24762711504023"><ele>884.3333333333333</ele><time>2026-03-26T08:45:27.022Z</time></trkpt><trkpt lat="30.697247317913625" lon="-6.247845783927688"><ele>885.0</ele><time>2026-03-26T08:45:28.022Z</time></trkpt><trkpt lat="30.69721286476401" lon="-6.2480560667969085"><ele>885.6666666666667</ele><time>2026-03-26T08:45:29.022Z</time></trkpt><trkpt lat="30.697166055639638" lon="-6.248254231773603"><ele>886.3333333333334</ele><time>2026-03-26T08:45:30.022Z</time></trkpt><trkpt lat="30.697115726878383" lon="-6.248447046403453"><ele>887.0</ele><time>2026-03-26T08:45:31.022Z</time></trkpt><trkpt lat="30.697068846742205" lon="-6.248626858107241"><ele>887.0</ele><time>2026-03-26T08:45:32.022Z</time></trkpt><trkpt lat="30.69701700993906" lon="-6.248799886998781"><ele>887.0</ele><time>2026-03-26T08:45:33.022Z</time></trkpt><trkpt lat="30.696957294352945" lon="-6.24897458513722"><ele>887.0</ele><time>2026-03-26T08:45:34.022Z</time></trkpt><trkpt lat="30.6969052870881" lon="-6.249155382950563"><ele>888.6666666666667</ele><time>2026-03-26T08:45:35.022Z</time></trkpt><trkpt lat="30.69685573506775" lon="-6.24933644026893"><ele>890.3333333333333</ele><time>2026-03-26T08:45:36.022Z</time></trkpt><trkpt lat="30.696800336994258" lon="-6.2495181474069295"><ele>892.0</ele><time>2026-03-26T08:45:37.022Z</time></trkpt><trkpt lat="30.69675124114088" lon="-6.249689344456764"><ele>891.0</ele><time>2026-03-26T08:45:38.022Z</time></trkpt><trkpt lat="30.696700534488784" lon="-6.24986213499694"><ele>890.0</ele><time>2026-03-26T08:45:39.022Z</time></trkpt><trkpt lat="30.69665154871528" lon="-6.250025943982174"><ele>889.0</ele><time>2026-03-26T08:45:40.022Z</time></trkpt><trkpt lat="30.696606062947314" lon="-6.250175568935888"><ele>888.0</ele><time>2026-03-26T08:45:41.022Z</time></trkpt><trkpt lat="30.69656120541234" lon="-6.250319599357077"><ele>888.0</ele><time>2026-03-26T08:45:42.022Z</time></trkpt><trkpt lat="30.6965179797465" lon="-6.2504601574103535"><ele>888.0</ele><time>2026-03-26T08:45:43.022Z</time></trkpt><trkpt lat="30.696477925824926" lon="-6.250598991708099"><ele>888.0</ele><time>2026-03-26T08:45:44.022Z</time></trkpt><trkpt lat="30.6964432459003" lon="-6.250735956297213"><ele>888.0</ele><time>2026-03-26T08:45:45.022Z</time></trkpt><trkpt lat="30.696404888014566" lon="-6.250859858138462"><ele>886.0</ele><time>2026-03-26T08:45:46.022Z</time></trkpt><trkpt lat="30.696363386424895" lon="-6.250985935457076"><ele>884.0</ele><time>2026-03-26T08:45:47.022Z</time></trkpt><trkpt lat="30.696315263760418" lon="-6.251133150383701"><ele>882.0</ele><time>2026-03-26T08:45:48.022Z</time></trkpt><trkpt lat="30.696259855178017" lon="-6.251316127188376"><ele>880.0</ele><time>2026-03-26T08:45:49.022Z</time></trkpt><trkpt lat="30.69620634801187" lon="-6.251479028774289"><ele>879.3333333333333</ele><time>2026-03-26T08:45:50.022Z</time></trkpt><trkpt lat="30.696153005197317" lon="-6.251640218237045"><ele>878.6666666666667</ele><time>2026-03-26T08:45:51.022Z</time></trkpt><trkpt lat="30.696100006858718" lon="-6.251803912446099"><ele>878.0</ele><time>2026-03-26T08:45:52.022Z</time></trkpt><trkpt lat="30.696049090389067" lon="-6.25196959012845"><ele>879.5</ele><time>2026-03-26T08:45:53.022Z</time></trkpt><trkpt lat="30.696001510643995" lon="-6.252130564989374"><ele>881.0</ele><time>2026-03-26T08:45:54.022Z</time></trkpt><trkpt lat="30.695949962835392" lon="-6.252299156556337"><ele>882.5</ele><time>2026-03-26T08:45:55.022Z</time></trkpt><trkpt lat="30.695899288656868" lon="-6.252453621558274"><ele>884.0</ele><time>2026-03-26T08:45:56.022Z</time></trkpt><trkpt lat="30.695850793407814" lon="-6.252615769339306"><ele>884.0</ele><time>2026-03-26T08:45:57.022Z</time></trkpt><trkpt lat="30.69580127804361" lon="-6.252777107874887"><ele>884.0</ele><time>2026-03-26T08:45:58.022Z</time></trkpt><trkpt lat="30.695758607194865" lon="-6.252942580230512"><ele>884.0</ele><time>2026-03-26T08:45:59.022Z</time></trkpt><trkpt lat="30.695709174401564" lon="-6.253111617355272"><ele>884.0</ele><time>2026-03-26T08:46:00.022Z</time></trkpt><trkpt lat="30.69566550479041" lon="-6.253267094067126"><ele>883.5</ele><time>2026-03-26T08:46:01.022Z</time></trkpt><trkpt lat="30.695620067243542" lon="-6.253416614521725"><ele>883.0</ele><time>2026-03-26T08:46:02.022Z</time></trkpt><trkpt lat="30.695579055831946" lon="-6.253569612506054"><ele>882.5</ele><time>2026-03-26T08:46:03.022Z</time></trkpt><trkpt lat="30.69553579152531" lon="-6.253724963907428"><ele>882.0</ele><time>2026-03-26T08:46:04.022Z</time></trkpt><trkpt lat="30.69549261132478" lon="-6.2538804193695245"><ele>882.6666666666667</ele><time>2026-03-26T08:46:05.022Z</time></trkpt><trkpt lat="30.695447825223784" lon="-6.254044631339322"><ele>883.3333333333334</ele><time>2026-03-26T08:46:06.022Z</time></trkpt><trkpt lat="30.695406594777637" lon="-6.254215415397986"><ele>884.0</ele><time>2026-03-26T08:46:07.022Z</time></trkpt><trkpt lat="30.695367443213062" lon="-6.254401912014167"><ele>884.0</ele><time>2026-03-26T08:46:08.022Z</time></trkpt><trkpt lat="30.695326687654124" lon="-6.254596680609568"><ele>884.0</ele><time>2026-03-26T08:46:09.022Z</time></trkpt><trkpt lat="30.695287406114076" lon="-6.254787850297051"><ele>884.0</ele><time>2026-03-26T08:46:10.022Z</time></trkpt><trkpt lat="30.69525366602677" lon="-6.254963732900628"><ele>884.6666666666667</ele><time>2026-03-26T08:46:11.022Z</time></trkpt><trkpt lat="30.695219839939785" lon="-6.255139740491774"><ele>885.3333333333333</ele><time>2026-03-26T08:46:12.022Z</time></trkpt><trkpt lat="30.695182743699508" lon="-6.255323878222451"><ele>886.0</ele><time>2026-03-26T08:46:13.022Z</time></trkpt><trkpt lat="30.695147339904835" lon="-6.255501686045539"><ele>885.3333333333333</ele><time>2026-03-26T08:46:14.022Z</time></trkpt><trkpt lat="30.69510464003666" lon="-6.255681525490809"><ele>884.6666666666667</ele><time>2026-03-26T08:46:15.022Z</time></trkpt><trkpt lat="30.695057469506832" lon="-6.255860029349736"><ele>884.0</ele><time>2026-03-26T08:46:16.022Z</time></trkpt><trkpt lat="30.695004779634633" lon="-6.2560374192562795"><ele>884.0</ele><time>2026-03-26T08:46:17.022Z</time></trkpt><trkpt lat="30.694947296135734" lon="-6.256211397345652"><ele>884.0</ele><time>2026-03-26T08:46:18.022Z</time></trkpt><trkpt lat="30.694887469076686" lon="-6.256375598208782"><ele>884.0</ele><time>2026-03-26T08:46:19.022Z</time></trkpt><trkpt lat="30.694832072696496" lon="-6.256521832315223"><ele>883.0</ele><time>2026-03-26T08:46:20.022Z</time></trkpt><trkpt lat="30.694779143858106" lon="-6.25666260503737"><ele>882.0</ele><time>2026-03-26T08:46:21.022Z</time></trkpt><trkpt lat="30.694719622561628" lon="-6.2568123933282145"><ele>881.0</ele><time>2026-03-26T08:46:22.022Z</time></trkpt><trkpt lat="30.694654648668656" lon="-6.256971549381909"><ele>880.0</ele><time>2026-03-26T08:46:23.022Z</time></trkpt><trkpt lat="30.694582309562445" lon="-6.257142262660045"><ele>879.6666666666666</ele><time>2026-03-26T08:46:24.022Z</time></trkpt><trkpt lat="30.694509333520557" lon="-6.257318878573593"><ele>879.3333333333333</ele><time>2026-03-26T08:46:25.022Z</time></trkpt><trkpt lat="30.69443438040029" lon="-6.257505133333529"><ele>879.0</ele><time>2026-03-26T08:46:26.022Z</time></trkpt><trkpt lat="30.694363397269257" lon="-6.257696179015347"><ele>879.6666666666667</ele><time>2026-03-26T08:46:27.022Z</time></trkpt><trkpt lat="30.69430016003431" lon="-6.257861729150232"><ele>880.3333333333334</ele><time>2026-03-26T08:46:28.022Z</time></trkpt><trkpt lat="30.694233235465052" lon="-6.258033378388795"><ele>881.0</ele><time>2026-03-26T08:46:29.022Z</time></trkpt><trkpt lat="30.694169355254633" lon="-6.258194489973331"><ele>881.0</ele><time>2026-03-26T08:46:30.022Z</time></trkpt><trkpt lat="30.694104824908102" lon="-6.2583601232842"><ele>881.0</ele><time>2026-03-26T08:46:31.022Z</time></trkpt><trkpt lat="30.69404297576451" lon="-6.258521836537916"><ele>881.0</ele><time>2026-03-26T08:46:32.022Z</time></trkpt><trkpt lat="30.69398580620597" lon="-6.2586770317332165"><ele>881.0</ele><time>2026-03-26T08:46:33.022Z</time></trkpt><trkpt lat="30.693948244730834" lon="-6.258836813560816"><ele>881.0</ele><time>2026-03-26T08:46:34.022Z</time></trkpt><trkpt lat="30.69388444085711" lon="-6.258974935471788"><ele>881.0</ele><time>2026-03-26T08:46:35.022Z</time></trkpt><trkpt lat="30.693825006758257" lon="-6.259110168723557"><ele>881.0</ele><time>2026-03-26T08:46:36.022Z</time></trkpt><trkpt lat="30.69375028341492" lon="-6.259244359730439"><ele>880.75</ele><time>2026-03-26T08:46:37.022Z</time></trkpt><trkpt lat="30.693653874786047" lon="-6.259360104924416"><ele>880.5</ele><time>2026-03-26T08:46:38.022Z</time></trkpt><trkpt lat="30.69354489024993" lon="-6.259445757864723"><ele>880.25</ele><time>2026-03-26T08:46:39.022Z</time></trkpt><trkpt lat="30.693424071985074" lon="-6.25951196749332"><ele>880.0</ele><time>2026-03-26T08:46:40.022Z</time></trkpt><trkpt lat="30.693304880128547" lon="-6.259570995838779"><ele>880.5</ele><time>2026-03-26T08:46:41.022Z</time></trkpt><trkpt lat="30.693191936157408" lon="-6.2596308353196815"><ele>881.0</ele><time>2026-03-26T08:46:42.022Z</time></trkpt><trkpt lat="30.69308765498652" lon="-6.259688161220856"><ele>881.5</ele><time>2026-03-26T08:46:43.022Z</time></trkpt><trkpt lat="30.692989942857224" lon="-6.259755598987451"><ele>882.0</ele><time>2026-03-26T08:46:44.022Z</time></trkpt><trkpt lat="30.69291065013123" lon="-6.259850828423161"><ele>882.0</ele><time>2026-03-26T08:46:45.022Z</time></trkpt><trkpt lat="30.69283212086178" lon="-6.259958203872082"><ele>882.0</ele><time>2026-03-26T08:46:46.022Z</time></trkpt><trkpt lat="30.692761228287374" lon="-6.2600818012382575"><ele>882.0</ele><time>2026-03-26T08:46:47.022Z</time></trkpt><trkpt lat="30.692709429425637" lon="-6.260230186160982"><ele>882.0</ele><time>2026-03-26T08:46:48.022Z</time></trkpt><trkpt lat="30.692655836223746" lon="-6.260397918071055"><ele>882.6666666666667</ele><time>2026-03-26T08:46:49.022Z</time></trkpt><trkpt lat="30.6926017625853" lon="-6.260584902105375"><ele>883.3333333333334</ele><time>2026-03-26T08:46:50.022Z</time></trkpt><trkpt lat="30.692535429866545" lon="-6.26074123228549"><ele>884.0</ele><time>2026-03-26T08:46:51.022Z</time></trkpt><trkpt lat="30.69244901677835" lon="-6.260888217154791"><ele>884.0</ele><time>2026-03-26T08:46:52.022Z</time></trkpt><trkpt lat="30.692339310408908" lon="-6.261021052264273"><ele>884.0</ele><time>2026-03-26T08:46:53.022Z</time></trkpt><trkpt lat="30.692215823284023" lon="-6.261140673539978"><ele>884.0</ele><time>2026-03-26T08:46:54.022Z</time></trkpt><trkpt lat="30.692088739494892" lon="-6.2612520285105475"><ele>884.0</ele><time>2026-03-26T08:46:55.024Z</time></trkpt><trkpt lat="30.691951076404262" lon="-6.261344601844635"><ele>884.0</ele><time>2026-03-26T08:46:56.023Z</time></trkpt><trkpt lat="30.691819728865454" lon="-6.261433169425505"><ele>884.0</ele><time>2026-03-26T08:46:57.023Z</time></trkpt><trkpt lat="30.691681029089786" lon="-6.261514075745007"><ele>884.6666666666667</ele><time>2026-03-26T08:46:58.023Z</time></trkpt><trkpt lat="30.69154046910014" lon="-6.261620361698211"><ele>885.3333333333333</ele><time>2026-03-26T08:46:59.022Z</time></trkpt><trkpt lat="30.691395039698627" lon="-6.261692177416971"><ele>886.0</ele><time>2026-03-26T08:47:00.022Z</time></trkpt><trkpt lat="30.691249819472592" lon="-6.261765775454534"><ele>886.0</ele><time>2026-03-26T08:47:01.023Z</time></trkpt><trkpt lat="30.691110522793146" lon="-6.261833280352984"><ele>886.0</ele><time>2026-03-26T08:47:02.023Z</time></trkpt><trkpt lat="30.690969036214387" lon="-6.261901516414007"><ele>886.0</ele><time>2026-03-26T08:47:03.023Z</time></trkpt><trkpt lat="30.690831715412777" lon="-6.261965294565311"><ele>887.25</ele><time>2026-03-26T08:47:04.023Z</time></trkpt><trkpt lat="30.690701002834246" lon="-6.262026308393423"><ele>888.5</ele><time>2026-03-26T08:47:05.023Z</time></trkpt><trkpt lat="30.690569178833858" lon="-6.262090379322107"><ele>889.75</ele><time>2026-03-26T08:47:06.023Z</time></trkpt><trkpt lat="30.690442495043072" lon="-6.262150231854839"><ele>891.0</ele><time>2026-03-26T08:47:07.023Z</time></trkpt><trkpt lat="30.690317740081944" lon="-6.262204225333298"><ele>891.25</ele><time>2026-03-26T08:47:08.023Z</time></trkpt><trkpt lat="30.690188090392144" lon="-6.2622609326157"><ele>891.5</ele><time>2026-03-26T08:47:09.023Z</time></trkpt><trkpt lat="30.6900538506616" lon="-6.262322113461406"><ele>891.75</ele><time>2026-03-26T08:47:10.023Z</time></trkpt><trkpt lat="30.68991916699021" lon="-6.262383560574307"><ele>892.0</ele><time>2026-03-26T08:47:11.023Z</time></trkpt><trkpt lat="30.68977969156873" lon="-6.262453582374443"><ele>892.0</ele><time>2026-03-26T08:47:12.023Z</time></trkpt><trkpt lat="30.689631965987715" lon="-6.2625306022460325"><ele>892.0</ele><time>2026-03-26T08:47:13.023Z</time></trkpt><trkpt lat="30.68947555996462" lon="-6.262613150053326"><ele>892.0</ele><time>2026-03-26T08:47:14.023Z</time></trkpt><trkpt lat="30.689310026990288" lon="-6.262709158430797"><ele>892.0</ele><time>2026-03-26T08:47:15.023Z</time></trkpt><trkpt lat="30.689146884940804" lon="-6.262815893031515"><ele>892.0</ele><time>2026-03-26T08:47:16.023Z</time></trkpt><trkpt lat="30.688984505862035" lon="-6.262940096495003"><ele>892.0</ele><time>2026-03-26T08:47:17.023Z</time></trkpt><trkpt lat="30.688832972252417" lon="-6.263086188988266"><ele>890.6666666666666</ele><time>2026-03-26T08:47:18.023Z</time></trkpt><trkpt lat="30.688696980685357" lon="-6.263249448493521"><ele>889.3333333333333</ele><time>2026-03-26T08:47:19.023Z</time></trkpt><trkpt lat="30.68857104730144" lon="-6.26341573526855"><ele>888.0</ele><time>2026-03-26T08:47:20.023Z</time></trkpt><trkpt lat="30.68844474762311" lon="-6.263592695661132"><ele>888.0</ele><time>2026-03-26T08:47:21.023Z</time></trkpt><trkpt lat="30.688321978965643" lon="-6.263778738670908"><ele>888.0</ele><time>2026-03-26T08:47:22.023Z</time></trkpt><trkpt lat="30.688193883869737" lon="-6.263970071042245"><ele>888.0</ele><time>2026-03-26T08:47:23.023Z</time></trkpt><trkpt lat="30.688063661896162" lon="-6.264156710966239"><ele>886.6666666666667</ele><time>2026-03-26T08:47:24.023Z</time></trkpt><trkpt lat="30.687934062366057" lon="-6.2643415241831635"><ele>885.3333333333334</ele><time>2026-03-26T08:47:25.023Z</time></trkpt><trkpt lat="30.68780419443384" lon="-6.264520236754418"><ele>884.0</ele><time>2026-03-26T08:47:26.023Z</time></trkpt><trkpt lat="30.687668493143843" lon="-6.264698467223059"><ele>885.6666666666667</ele><time>2026-03-26T08:47:27.023Z</time></trkpt><trkpt lat="30.687527114418856" lon="-6.264880896097597"><ele>887.3333333333333</ele><time>2026-03-26T08:47:28.023Z</time></trkpt><trkpt lat="30.687382807276045" lon="-6.2650573571783665"><ele>889.0</ele><time>2026-03-26T08:47:29.023Z</time></trkpt><trkpt lat="30.68724009524852" lon="-6.265221379473693"><ele>889.0</ele><time>2026-03-26T08:47:30.023Z</time></trkpt><trkpt lat="30.68710282903422" lon="-6.2653783138299985"><ele>889.0</ele><time>2026-03-26T08:47:31.023Z</time></trkpt><trkpt lat="30.68696357885608" lon="-6.2655317191375355"><ele>889.0</ele><time>2026-03-26T08:47:32.024Z</time></trkpt><trkpt lat="30.686821320238625" lon="-6.2656799965006496"><ele>887.6666666666666</ele><time>2026-03-26T08:47:33.024Z</time></trkpt><trkpt lat="30.68667882109534" lon="-6.265821730211121"><ele>886.3333333333333</ele><time>2026-03-26T08:47:34.024Z</time></trkpt><trkpt lat="30.6865364930978" lon="-6.265968493392014"><ele>885.0</ele><time>2026-03-26T08:47:35.024Z</time></trkpt><trkpt lat="30.686390221123975" lon="-6.2661097758213735"><ele>885.0</ele><time>2026-03-26T08:47:36.024Z</time></trkpt><trkpt lat="30.686238409499808" lon="-6.266252875654818"><ele>885.0</ele><time>2026-03-26T08:47:37.024Z</time></trkpt><trkpt lat="30.68608807082344" lon="-6.266390434015748"><ele>885.0</ele><time>2026-03-26T08:47:38.024Z</time></trkpt><trkpt lat="30.685941938295194" lon="-6.2665251148349705"><ele>885.0</ele><time>2026-03-26T08:47:39.024Z</time></trkpt><trkpt lat="30.685799381237043" lon="-6.266658995154227"><ele>885.0</ele><time>2026-03-26T08:47:40.024Z</time></trkpt><trkpt lat="30.685655738881827" lon="-6.2667953573496895"><ele>885.0</ele><time>2026-03-26T08:47:41.024Z</time></trkpt><trkpt lat="30.685517994943236" lon="-6.266926201509869"><ele>885.0</ele><time>2026-03-26T08:47:42.024Z</time></trkpt><trkpt lat="30.68538474872" lon="-6.2670630765020725"><ele>885.0</ele><time>2026-03-26T08:47:43.024Z</time></trkpt><trkpt lat="30.68525252690081" lon="-6.267206812241781"><ele>885.0</ele><time>2026-03-26T08:47:44.024Z</time></trkpt><trkpt lat="30.68512305179531" lon="-6.267357997950332"><ele>884.6666666666667</ele><time>2026-03-26T08:47:45.024Z</time></trkpt><trkpt lat="30.684994083449677" lon="-6.2675135325383575"><ele>884.3333333333334</ele><time>2026-03-26T08:47:46.024Z</time></trkpt><trkpt lat="30.68486172384395" lon="-6.267672895436658"><ele>884.0</ele><time>2026-03-26T08:47:47.024Z</time></trkpt><trkpt lat="30.684726280435928" lon="-6.267827292124785"><ele>884.0</ele><time>2026-03-26T08:47:48.024Z</time></trkpt><trkpt lat="30.68459236268233" lon="-6.267981742378388"><ele>884.0</ele><time>2026-03-26T08:47:49.024Z</time></trkpt><trkpt lat="30.684455623943432" lon="-6.268137216455437"><ele>884.0</ele><time>2026-03-26T08:47:50.024Z</time></trkpt><trkpt lat="30.68431626053824" lon="-6.268289562378285"><ele>884.0</ele><time>2026-03-26T08:47:51.024Z</time></trkpt><trkpt lat="30.684174571509327" lon="-6.268438560095924"><ele>884.0</ele><time>2026-03-26T08:47:52.024Z</time></trkpt><trkpt lat="30.68403586385346" lon="-6.268579465714185"><ele>884.0</ele><time>2026-03-26T08:47:53.024Z</time></trkpt><trkpt lat="30.683893301004762" lon="-6.268721293187946"><ele>884.0</ele><time>2026-03-26T08:47:54.024Z</time></trkpt><trkpt lat="30.68374877587996" lon="-6.268860050120072"><ele>884.0</ele><time>2026-03-26T08:47:55.024Z</time></trkpt><trkpt lat="30.68360646019303" lon="-6.2689964242052225"><ele>884.0</ele><time>2026-03-26T08:47:56.024Z</time></trkpt><trkpt lat="30.6834629309494" lon="-6.2691298107074145"><ele>884.0</ele><time>2026-03-26T08:47:57.024Z</time></trkpt><trkpt lat="30.683317351297163" lon="-6.269259316778144"><ele>884.0</ele><time>2026-03-26T08:47:58.024Z</time></trkpt><trkpt lat="30.683162437813653" lon="-6.2693879779806"><ele>884.0</ele><time>2026-03-26T08:47:59.024Z</time></trkpt><trkpt lat="30.683008562828366" lon="-6.269508473142022"><ele>884.0</ele><time>2026-03-26T08:48:00.024Z</time></trkpt><trkpt lat="30.682851730684064" lon="-6.269632948045603"><ele>884.0</ele><time>2026-03-26T08:48:01.024Z</time></trkpt><trkpt lat="30.682693569741303" lon="-6.269759818710701"><ele>884.0</ele><time>2026-03-26T08:48:02.024Z</time></trkpt><trkpt lat="30.68253441110539" lon="-6.269885670608837"><ele>883.3333333333334</ele><time>2026-03-26T08:48:03.024Z</time></trkpt><trkpt lat="30.682370505473568" lon="-6.27001359595626"><ele>882.6666666666667</ele><time>2026-03-26T08:48:04.024Z</time></trkpt><trkpt lat="30.68220935011147" lon="-6.2701393246612005"><ele>882.0</ele><time>2026-03-26T08:48:05.024Z</time></trkpt><trkpt lat="30.682055135433362" lon="-6.270249342399853"><ele>884.6666666666667</ele><time>2026-03-26T08:48:06.024Z</time></trkpt><trkpt lat="30.681892129668473" lon="-6.270358539562936"><ele>887.3333333333334</ele><time>2026-03-26T08:48:07.024Z</time></trkpt><trkpt lat="30.68172083910017" lon="-6.270466534738927"><ele>890.0</ele><time>2026-03-26T08:48:08.024Z</time></trkpt><trkpt lat="30.68154657240987" lon="-6.270561782403934"><ele>888.6666666666667</ele><time>2026-03-26T08:48:09.024Z</time></trkpt><trkpt lat="30.681369159916933" lon="-6.270648013768593"><ele>887.3333333333333</ele><time>2026-03-26T08:48:10.024Z</time></trkpt><trkpt lat="30.6811955618918" lon="-6.270735292804881"><ele>886.0</ele><time>2026-03-26T08:48:11.024Z</time></trkpt><trkpt lat="30.681025171933797" lon="-6.270821190033727"><ele>886.0</ele><time>2026-03-26T08:48:12.024Z</time></trkpt><trkpt lat="30.680856042112065" lon="-6.270903021840899"><ele>886.0</ele><time>2026-03-26T08:48:13.024Z</time></trkpt><trkpt lat="30.68068531093507" lon="-6.270986054370717"><ele>886.0</ele><time>2026-03-26T08:48:14.024Z</time></trkpt><trkpt lat="30.680512419872517" lon="-6.271071779130938"><ele>886.0</ele><time>2026-03-26T08:48:15.024Z</time></trkpt><trkpt lat="30.680339850066268" lon="-6.2711527973677725"><ele>886.0</ele><time>2026-03-26T08:48:16.024Z</time></trkpt><trkpt lat="30.680173084918554" lon="-6.271227246344884"><ele>886.0</ele><time>2026-03-26T08:48:17.024Z</time></trkpt><trkpt lat="30.67999935190635" lon="-6.271299392901512"><ele>888.0</ele><time>2026-03-26T08:48:18.024Z</time></trkpt><trkpt lat="30.679831818303363" lon="-6.271367887744875"><ele>890.0</ele><time>2026-03-26T08:48:19.024Z</time></trkpt><trkpt lat="30.67966421856146" lon="-6.271431819775622"><ele>892.0</ele><time>2026-03-26T08:48:20.024Z</time></trkpt><trkpt lat="30.679495955962764" lon="-6.271497043388275"><ele>889.3333333333333</ele><time>2026-03-26T08:48:21.024Z</time></trkpt><trkpt lat="30.679334150740438" lon="-6.27156589843849"><ele>886.6666666666667</ele><time>2026-03-26T08:48:22.024Z</time></trkpt><trkpt lat="30.679177325639834" lon="-6.271641527167665"><ele>884.0</ele><time>2026-03-26T08:48:23.024Z</time></trkpt><trkpt lat="30.679022554809357" lon="-6.271735958102585"><ele>884.0</ele><time>2026-03-26T08:48:24.024Z</time></trkpt><trkpt lat="30.67887926498102" lon="-6.271855213733796"><ele>884.0</ele><time>2026-03-26T08:48:25.024Z</time></trkpt><trkpt lat="30.67875398733742" lon="-6.272018828013049"><ele>884.0</ele><time>2026-03-26T08:48:26.024Z</time></trkpt><trkpt lat="30.678641251187127" lon="-6.272205203417267"><ele>885.6666666666667</ele><time>2026-03-26T08:48:27.024Z</time></trkpt><trkpt lat="30.6785441827917" lon="-6.2723976415213905"><ele>887.3333333333333</ele><time>2026-03-26T08:48:28.024Z</time></trkpt><trkpt lat="30.678452597506755" lon="-6.272585554893999"><ele>889.0</ele><time>2026-03-26T08:48:29.024Z</time></trkpt><trkpt lat="30.678359882609108" lon="-6.272757482357439"><ele>889.0</ele><time>2026-03-26T08:48:30.024Z</time></trkpt><trkpt lat="30.67824938680105" lon="-6.272916119024227"><ele>889.0</ele><time>2026-03-26T08:48:31.024Z</time></trkpt><trkpt lat="30.678122034176948" lon="-6.2730560474352846"><ele>889.0</ele><time>2026-03-26T08:48:32.024Z</time></trkpt><trkpt lat="30.677986824855072" lon="-6.273183748544"><ele>889.0</ele><time>2026-03-26T08:48:33.024Z</time></trkpt><trkpt lat="30.677851674275157" lon="-6.273309477213472"><ele>889.0</ele><time>2026-03-26T08:48:34.024Z</time></trkpt><trkpt lat="30.67771120756634" lon="-6.273436291915835"><ele>889.0</ele><time>2026-03-26T08:48:35.024Z</time></trkpt><trkpt lat="30.677571259018254" lon="-6.273572207777805"><ele>889.0</ele><time>2026-03-26T08:48:36.024Z</time></trkpt><trkpt lat="30.677434535393196" lon="-6.273717465967885"><ele>889.0</ele><time>2026-03-26T08:48:37.024Z</time></trkpt><trkpt lat="30.677308634902996" lon="-6.2738729153827135"><ele>889.0</ele><time>2026-03-26T08:48:38.024Z</time></trkpt><trkpt lat="30.67718897622907" lon="-6.274025404563117"><ele>886.0</ele><time>2026-03-26T08:48:39.024Z</time></trkpt><trkpt lat="30.67706962335945" lon="-6.2741778089701485"><ele>883.0</ele><time>2026-03-26T08:48:40.024Z</time></trkpt><trkpt lat="30.676947579663565" lon="-6.274336312404426"><ele>880.0</ele><time>2026-03-26T08:48:41.024Z</time></trkpt><trkpt lat="30.676822737225155" lon="-6.274499514396214"><ele>881.3333333333333</ele><time>2026-03-26T08:48:42.024Z</time></trkpt><trkpt lat="30.676700055229148" lon="-6.274666079922258"><ele>882.6666666666667</ele><time>2026-03-26T08:48:43.024Z</time></trkpt><trkpt lat="30.67658086098007" lon="-6.27483879341344"><ele>884.0</ele><time>2026-03-26T08:48:44.024Z</time></trkpt><trkpt lat="30.676475040307174" lon="-6.27502436528819"><ele>884.0</ele><time>2026-03-26T08:48:45.024Z</time></trkpt><trkpt lat="30.676378206550257" lon="-6.275228937326425"><ele>884.0</ele><time>2026-03-26T08:48:46.024Z</time></trkpt><trkpt lat="30.6762917174329" lon="-6.275434303250062"><ele>884.0</ele><time>2026-03-26T08:48:47.024Z</time></trkpt><trkpt lat="30.67620265494807" lon="-6.2756301417049825"><ele>882.3333333333334</ele><time>2026-03-26T08:48:48.024Z</time></trkpt><trkpt lat="30.676113788033494" lon="-6.275821735799154"><ele>880.6666666666667</ele><time>2026-03-26T08:48:49.024Z</time></trkpt><trkpt lat="30.676029606814005" lon="-6.275999972012567"><ele>879.0</ele><time>2026-03-26T08:48:50.024Z</time></trkpt><trkpt lat="30.675948541449554" lon="-6.276178466328203"><ele>880.3333333333333</ele><time>2026-03-26T08:48:51.024Z</time></trkpt><trkpt lat="30.675872303499105" lon="-6.276341330809889"><ele>881.6666666666666</ele><time>2026-03-26T08:48:52.024Z</time></trkpt><trkpt lat="30.675799509391968" lon="-6.276509053886734"><ele>883.0</ele><time>2026-03-26T08:48:53.024Z</time></trkpt><trkpt lat="30.675726510627154" lon="-6.276673905321166"><ele>883.0</ele><time>2026-03-26T08:48:54.024Z</time></trkpt><trkpt lat="30.67565195364077" lon="-6.276849133623313"><ele>883.0</ele><time>2026-03-26T08:48:55.024Z</time></trkpt><trkpt lat="30.67557336127387" lon="-6.277031197613907"><ele>883.0</ele><time>2026-03-26T08:48:56.024Z</time></trkpt><trkpt lat="30.67548977717474" lon="-6.277223545579604"><ele>881.0</ele><time>2026-03-26T08:48:57.024Z</time></trkpt><trkpt lat="30.675397644433055" lon="-6.277421505972749"><ele>879.0</ele><time>2026-03-26T08:48:58.024Z</time></trkpt><trkpt lat="30.67530591664076" lon="-6.277606813494489"><ele>877.0</ele><time>2026-03-26T08:48:59.024Z</time></trkpt><trkpt lat="30.675217393879944" lon="-6.277772933619397"><ele>880.3333333333333</ele><time>2026-03-26T08:49:00.024Z</time></trkpt><trkpt lat="30.675133633574486" lon="-6.277936344860111"><ele>883.6666666666667</ele><time>2026-03-26T08:49:01.024Z</time></trkpt><trkpt lat="30.675056793236838" lon="-6.2781024050597996"><ele>887.0</ele><time>2026-03-26T08:49:02.025Z</time></trkpt><trkpt lat="30.674987305499815" lon="-6.278272197104477"><ele>887.0</ele><time>2026-03-26T08:49:03.025Z</time></trkpt><trkpt lat="30.67494177427891" lon="-6.278447364837377"><ele>887.0</ele><time>2026-03-26T08:49:04.024Z</time></trkpt><trkpt lat="30.67488215561177" lon="-6.278618360665078"><ele>887.0</ele><time>2026-03-26T08:49:05.024Z</time></trkpt><trkpt lat="30.674820812544088" lon="-6.278787807027365"><ele>886.3333333333334</ele><time>2026-03-26T08:49:06.024Z</time></trkpt><trkpt lat="30.674756815615797" lon="-6.278964992548004"><ele>885.6666666666667</ele><time>2026-03-26T08:49:07.024Z</time></trkpt><trkpt lat="30.674674418803708" lon="-6.279142875302293"><ele>885.0</ele><time>2026-03-26T08:49:08.024Z</time></trkpt><trkpt lat="30.67460390879971" lon="-6.279332941684085"><ele>885.0</ele><time>2026-03-26T08:49:09.024Z</time></trkpt><trkpt lat="30.674524845593545" lon="-6.279532344448768"><ele>885.0</ele><time>2026-03-26T08:49:10.024Z</time></trkpt><trkpt lat="30.674436389412126" lon="-6.279747026476872"><ele>885.0</ele><time>2026-03-26T08:49:11.024Z</time></trkpt><trkpt lat="30.674344569205896" lon="-6.279969696696338"><ele>886.6666666666667</ele><time>2026-03-26T08:49:12.024Z</time></trkpt><trkpt lat="30.674275922905547" lon="-6.280194133919655"><ele>888.3333333333334</ele><time>2026-03-26T08:49:13.024Z</time></trkpt><trkpt lat="30.6741925351646" lon="-6.280407813914439"><ele>890.0</ele><time>2026-03-26T08:49:14.024Z</time></trkpt><trkpt lat="30.674104791870622" lon="-6.280624860830723"><ele>890.0</ele><time>2026-03-26T08:49:15.024Z</time></trkpt><trkpt lat="30.674015560363372" lon="-6.280843571741196"><ele>890.0</ele><time>2026-03-26T08:49:16.024Z</time></trkpt><trkpt lat="30.67392722665527" lon="-6.2810576882166576"><ele>890.0</ele><time>2026-03-26T08:49:17.024Z</time></trkpt><trkpt lat="30.67383080243007" lon="-6.281259409298286"><ele>889.0</ele><time>2026-03-26T08:49:18.024Z</time></trkpt><trkpt lat="30.67375172478754" lon="-6.281465998233786"><ele>888.0</ele><time>2026-03-26T08:49:19.024Z</time></trkpt><trkpt lat="30.673671924434853" lon="-6.281666821993604"><ele>887.0</ele><time>2026-03-26T08:49:20.024Z</time></trkpt><trkpt lat="30.67359251977394" lon="-6.2818692852792415"><ele>888.3333333333334</ele><time>2026-03-26T08:49:21.024Z</time></trkpt><trkpt lat="30.67351432760567" lon="-6.28207388050839"><ele>889.6666666666667</ele><time>2026-03-26T08:49:22.024Z</time></trkpt><trkpt lat="30.67343350733557" lon="-6.282279996097025"><ele>891.0</ele><time>2026-03-26T08:49:23.024Z</time></trkpt><trkpt lat="30.67335052917017" lon="-6.282485433166905"><ele>891.0</ele><time>2026-03-26T08:49:24.024Z</time></trkpt><trkpt lat="30.673268502715207" lon="-6.28268743755553"><ele>891.0</ele><time>2026-03-26T08:49:25.024Z</time></trkpt><trkpt lat="30.673187996680127" lon="-6.282890043768692"><ele>891.0</ele><time>2026-03-26T08:49:26.024Z</time></trkpt><trkpt lat="30.67310679259038" lon="-6.283093399830156"><ele>891.0</ele><time>2026-03-26T08:49:27.024Z</time></trkpt><trkpt lat="30.67302761954012" lon="-6.283297076556562"><ele>891.0</ele><time>2026-03-26T08:49:28.024Z</time></trkpt><trkpt lat="30.67294977652467" lon="-6.2835015609584985"><ele>891.0</ele><time>2026-03-26T08:49:29.024Z</time></trkpt><trkpt lat="30.67287428167153" lon="-6.28370595074277"><ele>891.0</ele><time>2026-03-26T08:49:30.024Z</time></trkpt><trkpt lat="30.67280066029112" lon="-6.283924324994944"><ele>891.0</ele><time>2026-03-26T08:49:31.024Z</time></trkpt><trkpt lat="30.672736291671256" lon="-6.284146228300015"><ele>891.0</ele><time>2026-03-26T08:49:32.024Z</time></trkpt><trkpt lat="30.67269363046452" lon="-6.284365502336325"><ele>891.6666666666667</ele><time>2026-03-26T08:49:33.024Z</time></trkpt><trkpt lat="30.672667028113057" lon="-6.284590317663459"><ele>892.3333333333334</ele><time>2026-03-26T08:49:34.024Z</time></trkpt><trkpt lat="30.67266093808942" lon="-6.284823724614706"><ele>893.0</ele><time>2026-03-26T08:49:35.024Z</time></trkpt><trkpt lat="30.672673463008444" lon="-6.28506210582593"><ele>893.0</ele><time>2026-03-26T08:49:36.024Z</time></trkpt><trkpt lat="30.672700901133258" lon="-6.2852826212950035"><ele>893.0</ele><time>2026-03-26T08:49:37.024Z</time></trkpt><trkpt lat="30.672733823430217" lon="-6.285496357299897"><ele>893.0</ele><time>2026-03-26T08:49:38.024Z</time></trkpt><trkpt lat="30.672765606418643" lon="-6.285711824234743"><ele>891.6666666666667</ele><time>2026-03-26T08:49:39.024Z</time></trkpt><trkpt lat="30.672797965700315" lon="-6.285925387436337"><ele>890.3333333333333</ele><time>2026-03-26T08:49:40.024Z</time></trkpt><trkpt lat="30.672828411901826" lon="-6.286119376398534"><ele>889.0</ele><time>2026-03-26T08:49:41.024Z</time></trkpt><trkpt lat="30.672851539425963" lon="-6.2863095744466095"><ele>889.3333333333333</ele><time>2026-03-26T08:49:42.024Z</time></trkpt><trkpt lat="30.67287678234745" lon="-6.2864924421616895"><ele>889.6666666666667</ele><time>2026-03-26T08:49:43.024Z</time></trkpt><trkpt lat="30.672904847489335" lon="-6.286675192641633"><ele>890.0</ele><time>2026-03-26T08:49:44.024Z</time></trkpt><trkpt lat="30.672932042158312" lon="-6.286859385679504"><ele>890.0</ele><time>2026-03-26T08:49:45.025Z</time></trkpt><trkpt lat="30.672964763811564" lon="-6.287048823410041"><ele>890.0</ele><time>2026-03-26T08:49:46.025Z</time></trkpt><trkpt lat="30.673008474703757" lon="-6.287236921596635"><ele>890.0</ele><time>2026-03-26T08:49:47.025Z</time></trkpt><trkpt lat="30.673067647046512" lon="-6.287428271344759"><ele>890.0</ele><time>2026-03-26T08:49:48.025Z</time></trkpt><trkpt lat="30.67313237351924" lon="-6.287621493825045"><ele>890.0</ele><time>2026-03-26T08:49:49.025Z</time></trkpt><trkpt lat="30.673203337565575" lon="-6.287812158981338"><ele>890.0</ele><time>2026-03-26T08:49:50.025Z</time></trkpt><trkpt lat="30.673286751489023" lon="-6.288002351293339"><ele>890.0</ele><time>2026-03-26T08:49:51.025Z</time></trkpt><trkpt lat="30.673383755908308" lon="-6.288191761973901"><ele>890.0</ele><time>2026-03-26T08:49:52.025Z</time></trkpt><trkpt lat="30.673481254845587" lon="-6.288379616856713"><ele>890.0</ele><time>2026-03-26T08:49:53.025Z</time></trkpt><trkpt lat="30.67357737899424" lon="-6.288568119046636"><ele>889.6666666666667</ele><time>2026-03-26T08:49:54.025Z</time></trkpt><trkpt lat="30.673670680542383" lon="-6.2887532092418"><ele>889.3333333333333</ele><time>2026-03-26T08:49:55.025Z</time></trkpt><trkpt lat="30.673760273452153" lon="-6.2889395971060695"><ele>889.0</ele><time>2026-03-26T08:49:56.025Z</time></trkpt><trkpt lat="30.67383487448408" lon="-6.289131952421543"><ele>889.6666666666666</ele><time>2026-03-26T08:49:57.025Z</time></trkpt><trkpt lat="30.673897221474046" lon="-6.289334230479326"><ele>890.3333333333333</ele><time>2026-03-26T08:49:58.025Z</time></trkpt><trkpt lat="30.673945718583905" lon="-6.289540500064733"><ele>891.0</ele><time>2026-03-26T08:49:59.025Z</time></trkpt><trkpt lat="30.673986912353808" lon="-6.289744676105092"><ele>891.6666666666667</ele><time>2026-03-26T08:50:00.025Z</time></trkpt><trkpt lat="30.6740243192376" lon="-6.289946326721766"><ele>892.3333333333334</ele><time>2026-03-26T08:50:01.025Z</time></trkpt><trkpt lat="30.674062416569917" lon="-6.29014579414961"><ele>893.0</ele><time>2026-03-26T08:50:02.025Z</time></trkpt><trkpt lat="30.67410225205862" lon="-6.29034381624383"><ele>893.0</ele><time>2026-03-26T08:50:03.025Z</time></trkpt><trkpt lat="30.67413955852565" lon="-6.290542736509769"><ele>893.0</ele><time>2026-03-26T08:50:04.025Z</time></trkpt><trkpt lat="30.674172345869408" lon="-6.290746782866517"><ele>893.0</ele><time>2026-03-26T08:50:05.025Z</time></trkpt><trkpt lat="30.674208686734925" lon="-6.290951902520031"><ele>892.6666666666667</ele><time>2026-03-26T08:50:06.025Z</time></trkpt><trkpt lat="30.674242417357505" lon="-6.29115714481568"><ele>892.3333333333333</ele><time>2026-03-26T08:50:07.025Z</time></trkpt><trkpt lat="30.674276338168042" lon="-6.2913544721151515"><ele>892.0</ele><time>2026-03-26T08:50:08.025Z</time></trkpt><trkpt lat="30.67431271657387" lon="-6.291545531506763"><ele>893.3333333333333</ele><time>2026-03-26T08:50:09.025Z</time></trkpt><trkpt lat="30.674347415547178" lon="-6.291735005717466"><ele>894.6666666666667</ele><time>2026-03-26T08:50:10.025Z</time></trkpt><trkpt lat="30.67438280623004" lon="-6.291924395019713"><ele>896.0</ele><time>2026-03-26T08:50:11.025Z</time></trkpt><trkpt lat="30.674421113758683" lon="-6.292117485085947"><ele>896.6666666666667</ele><time>2026-03-26T08:50:12.025Z</time></trkpt><trkpt lat="30.67445639981671" lon="-6.2923129287335"><ele>897.3333333333333</ele><time>2026-03-26T08:50:13.025Z</time></trkpt><trkpt lat="30.674493491566807" lon="-6.292518358291121"><ele>898.0</ele><time>2026-03-26T08:50:14.025Z</time></trkpt><trkpt lat="30.674525885768453" lon="-6.292731804907067"><ele>898.0</ele><time>2026-03-26T08:50:15.025Z</time></trkpt><trkpt lat="30.674559779442422" lon="-6.292940979685485"><ele>898.0</ele><time>2026-03-26T08:50:16.025Z</time></trkpt><trkpt lat="30.67459228872843" lon="-6.29314299160239"><ele>898.0</ele><time>2026-03-26T08:50:17.025Z</time></trkpt><trkpt lat="30.6746297130623" lon="-6.293350916488794"><ele>899.0</ele><time>2026-03-26T08:50:18.025Z</time></trkpt><trkpt lat="30.674665940901825" lon="-6.29356244680125"><ele>900.0</ele><time>2026-03-26T08:50:19.025Z</time></trkpt><trkpt lat="30.67469563888804" lon="-6.293764422577302"><ele>901.0</ele><time>2026-03-26T08:50:20.025Z</time></trkpt><trkpt lat="30.674715636476485" lon="-6.293961411427933"><ele>901.3333333333333</ele><time>2026-03-26T08:50:21.025Z</time></trkpt><trkpt lat="30.67472503595833" lon="-6.294158784435794"><ele>901.6666666666667</ele><time>2026-03-26T08:50:22.025Z</time></trkpt><trkpt lat="30.674726136627157" lon="-6.2943589661302095"><ele>902.0</ele><time>2026-03-26T08:50:23.025Z</time></trkpt><trkpt lat="30.674721205610627" lon="-6.294561665504497"><ele>902.6666666666667</ele><time>2026-03-26T08:50:24.025Z</time></trkpt><trkpt lat="30.67470765368714" lon="-6.294768229047039"><ele>903.3333333333333</ele><time>2026-03-26T08:50:25.025Z</time></trkpt><trkpt lat="30.674708322207998" lon="-6.294969862070818"><ele>904.0</ele><time>2026-03-26T08:50:26.025Z</time></trkpt><trkpt lat="30.674682816593926" lon="-6.295176932092799"><ele>904.0</ele><time>2026-03-26T08:50:27.025Z</time></trkpt><trkpt lat="30.674663841999745" lon="-6.295387189104141"><ele>904.0</ele><time>2026-03-26T08:50:28.025Z</time></trkpt><trkpt lat="30.674648487321893" lon="-6.295596842366008"><ele>904.0</ele><time>2026-03-26T08:50:29.025Z</time></trkpt><trkpt lat="30.67462709331163" lon="-6.295805036460279"><ele>903.3333333333333</ele><time>2026-03-26T08:50:30.025Z</time></trkpt><trkpt lat="30.674606403870396" lon="-6.296016036766636"><ele>902.6666666666667</ele><time>2026-03-26T08:50:31.025Z</time></trkpt><trkpt lat="30.674585404818387" lon="-6.296226408780671"><ele>902.0</ele><time>2026-03-26T08:50:32.025Z</time></trkpt><trkpt lat="30.67456440253546" lon="-6.29643994422017"><ele>903.3333333333334</ele><time>2026-03-26T08:50:33.025Z</time></trkpt><trkpt lat="30.6745451725548" lon="-6.296653344220121"><ele>904.6666666666667</ele><time>2026-03-26T08:50:34.025Z</time></trkpt><trkpt lat="30.674524662901664" lon="-6.296865946374442"><ele>906.0</ele><time>2026-03-26T08:50:35.025Z</time></trkpt><trkpt lat="30.674503370179703" lon="-6.297082701120883"><ele>907.3333333333333</ele><time>2026-03-26T08:50:36.025Z</time></trkpt><trkpt lat="30.674481715516038" lon="-6.297295671659708"><ele>908.6666666666666</ele><time>2026-03-26T08:50:37.025Z</time></trkpt><trkpt lat="30.674455241243038" lon="-6.297508016380363"><ele>910.0</ele><time>2026-03-26T08:50:38.025Z</time></trkpt><trkpt lat="30.674419935663252" lon="-6.297717678544021"><ele>910.6666666666666</ele><time>2026-03-26T08:50:39.025Z</time></trkpt><trkpt lat="30.674381679379426" lon="-6.297922891916766"><ele>911.3333333333333</ele><time>2026-03-26T08:50:40.025Z</time></trkpt><trkpt lat="30.674341579615554" lon="-6.298129345324112"><ele>912.0</ele><time>2026-03-26T08:50:41.025Z</time></trkpt><trkpt lat="30.674301355712757" lon="-6.29834017301553"><ele>912.0</ele><time>2026-03-26T08:50:42.025Z</time></trkpt><trkpt lat="30.674258595747908" lon="-6.298553615366222"><ele>912.0</ele><time>2026-03-26T08:50:43.025Z</time></trkpt><trkpt lat="30.674213763926975" lon="-6.298777028746512"><ele>912.0</ele><time>2026-03-26T08:50:44.025Z</time></trkpt><trkpt lat="30.674165781029792" lon="-6.299002470840919"><ele>913.0</ele><time>2026-03-26T08:50:45.025Z</time></trkpt><trkpt lat="30.67411654507133" lon="-6.299247090618498"><ele>914.0</ele><time>2026-03-26T08:50:46.025Z</time></trkpt><trkpt lat="30.67406508325946" lon="-6.29951130647142"><ele>915.0</ele><time>2026-03-26T08:50:47.025Z</time></trkpt><trkpt lat="30.674012831292742" lon="-6.299775628980678"><ele>915.3333333333333</ele><time>2026-03-26T08:50:48.025Z</time></trkpt><trkpt lat="30.673962305150017" lon="-6.300017892164127"><ele>915.6666666666666</ele><time>2026-03-26T08:50:49.025Z</time></trkpt><trkpt lat="30.67390868692313" lon="-6.300252770970804"><ele>916.0</ele><time>2026-03-26T08:50:50.025Z</time></trkpt><trkpt lat="30.67385335952347" lon="-6.3004864477039355"><ele>916.3333333333333</ele><time>2026-03-26T08:50:51.025Z</time></trkpt><trkpt lat="30.673792829815355" lon="-6.300717649639792"><ele>916.6666666666667</ele><time>2026-03-26T08:50:52.025Z</time></trkpt><trkpt lat="30.673728727657785" lon="-6.300945603226828"><ele>917.0</ele><time>2026-03-26T08:50:53.025Z</time></trkpt><trkpt lat="30.673659974423785" lon="-6.301171875301458"><ele>918.0</ele><time>2026-03-26T08:50:54.025Z</time></trkpt><trkpt lat="30.67359163067544" lon="-6.301386427218332"><ele>919.0</ele><time>2026-03-26T08:50:55.025Z</time></trkpt><trkpt lat="30.673519234765624" lon="-6.30159594063695"><ele>920.0</ele><time>2026-03-26T08:50:56.025Z</time></trkpt><trkpt lat="30.673449829806017" lon="-6.301806070750844"><ele>920.0</ele><time>2026-03-26T08:50:57.025Z</time></trkpt><trkpt lat="30.67338137570722" lon="-6.302014859775335"><ele>920.0</ele><time>2026-03-26T08:50:58.025Z</time></trkpt><trkpt lat="30.673310999082652" lon="-6.302224196606878"><ele>920.0</ele><time>2026-03-26T08:50:59.025Z</time></trkpt><trkpt lat="30.67323906209572" lon="-6.302431975907912"><ele>920.6666666666667</ele><time>2026-03-26T08:51:00.025Z</time></trkpt><trkpt lat="30.673163955477552" lon="-6.302634421491537"><ele>921.3333333333333</ele><time>2026-03-26T08:51:01.025Z</time></trkpt><trkpt lat="30.67308702423906" lon="-6.302829839497352"><ele>922.0</ele><time>2026-03-26T08:51:02.025Z</time></trkpt><trkpt lat="30.673000287109637" lon="-6.3030159919482776"><ele>922.3333333333333</ele><time>2026-03-26T08:51:03.025Z</time></trkpt><trkpt lat="30.672905494672342" lon="-6.303205764762014"><ele>922.6666666666667</ele><time>2026-03-26T08:51:04.025Z</time></trkpt><trkpt lat="30.672805565439873" lon="-6.303391591986541"><ele>923.0</ele><time>2026-03-26T08:51:05.025Z</time></trkpt><trkpt lat="30.672700779161506" lon="-6.303571468925706"><ele>923.6666666666667</ele><time>2026-03-26T08:51:06.025Z</time></trkpt><trkpt lat="30.672591514091028" lon="-6.30374695922537"><ele>924.3333333333333</ele><time>2026-03-26T08:51:07.025Z</time></trkpt><trkpt lat="30.672479731529535" lon="-6.303922455472819"><ele>925.0</ele><time>2026-03-26T08:51:08.025Z</time></trkpt><trkpt lat="30.672365914548195" lon="-6.304094328670669"><ele>925.0</ele><time>2026-03-26T08:51:09.025Z</time></trkpt><trkpt lat="30.67225412847759" lon="-6.304263809873402"><ele>925.0</ele><time>2026-03-26T08:51:10.026Z</time></trkpt><trkpt lat="30.672143011028364" lon="-6.304431276830372"><ele>925.0</ele><time>2026-03-26T08:51:11.025Z</time></trkpt><trkpt lat="30.67202990996486" lon="-6.304595370270514"><ele>926.0</ele><time>2026-03-26T08:51:12.025Z</time></trkpt><trkpt lat="30.671920588384708" lon="-6.304767740159749"><ele>927.0</ele><time>2026-03-26T08:51:13.026Z</time></trkpt><trkpt lat="30.671808607443598" lon="-6.304941179168335"><ele>928.0</ele><time>2026-03-26T08:51:14.025Z</time></trkpt><trkpt lat="30.67169381361463" lon="-6.305114761139949"><ele>928.0</ele><time>2026-03-26T08:51:15.025Z</time></trkpt><trkpt lat="30.67157568114816" lon="-6.305286104540413"><ele>928.0</ele><time>2026-03-26T08:51:16.026Z</time></trkpt><trkpt lat="30.67144919863831" lon="-6.305462191915594"><ele>928.0</ele><time>2026-03-26T08:51:17.025Z</time></trkpt><trkpt lat="30.671328376305944" lon="-6.305635313461102"><ele>928.3333333333333</ele><time>2026-03-26T08:51:18.025Z</time></trkpt><trkpt lat="30.67120689985742" lon="-6.305807901538418"><ele>928.6666666666667</ele><time>2026-03-26T08:51:19.025Z</time></trkpt><trkpt lat="30.67108609345616" lon="-6.305982246504127"><ele>929.0</ele><time>2026-03-26T08:51:20.025Z</time></trkpt><trkpt lat="30.670964832604508" lon="-6.306152785314418"><ele>929.3333333333334</ele><time>2026-03-26T08:51:21.025Z</time></trkpt><trkpt lat="30.670839847137593" lon="-6.306320109603397"><ele>929.6666666666667</ele><time>2026-03-26T08:51:22.025Z</time></trkpt><trkpt lat="30.670708773013512" lon="-6.306485329832722"><ele>930.0</ele><time>2026-03-26T08:51:23.025Z</time></trkpt><trkpt lat="30.670570830054885" lon="-6.306649028448621"><ele>930.0</ele><time>2026-03-26T08:51:24.025Z</time></trkpt><trkpt lat="30.670433812655673" lon="-6.306812516851208"><ele>930.0</ele><time>2026-03-26T08:51:25.025Z</time></trkpt><trkpt lat="30.670294448442835" lon="-6.306976603377249"><ele>930.0</ele><time>2026-03-26T08:51:26.025Z</time></trkpt><trkpt lat="30.67015779007791" lon="-6.307134417916452"><ele>930.6666666666667</ele><time>2026-03-26T08:51:27.025Z</time></trkpt><trkpt lat="30.670019144045234" lon="-6.307292834621648"><ele>931.3333333333334</ele><time>2026-03-26T08:51:28.025Z</time></trkpt><trkpt lat="30.66988558567442" lon="-6.307456152351601"><ele>932.0</ele><time>2026-03-26T08:51:29.025Z</time></trkpt><trkpt lat="30.66974590445916" lon="-6.307616481144192"><ele>932.0</ele><time>2026-03-26T08:51:30.025Z</time></trkpt><trkpt lat="30.669607670295626" lon="-6.3077754822990775"><ele>932.0</ele><time>2026-03-26T08:51:31.025Z</time></trkpt><trkpt lat="30.669470837499457" lon="-6.307927807299716"><ele>932.0</ele><time>2026-03-26T08:51:32.025Z</time></trkpt><trkpt lat="30.669333534203048" lon="-6.308087302982891"><ele>934.0</ele><time>2026-03-26T08:51:33.025Z</time></trkpt><trkpt lat="30.669193663749" lon="-6.308253313175845"><ele>936.0</ele><time>2026-03-26T08:51:34.025Z</time></trkpt><trkpt lat="30.669052326521914" lon="-6.308420124661471"><ele>938.0</ele><time>2026-03-26T08:51:35.025Z</time></trkpt><trkpt lat="30.668907880485296" lon="-6.308590384293764"><ele>938.0</ele><time>2026-03-26T08:51:36.025Z</time></trkpt><trkpt lat="30.66877062796944" lon="-6.308762222995765"><ele>938.0</ele><time>2026-03-26T08:51:37.025Z</time></trkpt><trkpt lat="30.668643115664203" lon="-6.3089413368442075"><ele>938.0</ele><time>2026-03-26T08:51:38.025Z</time></trkpt><trkpt lat="30.668520496587515" lon="-6.309128882423495"><ele>939.3333333333334</ele><time>2026-03-26T08:51:39.025Z</time></trkpt><trkpt lat="30.66840372822704" lon="-6.309315079709212"><ele>940.6666666666667</ele><time>2026-03-26T08:51:40.025Z</time></trkpt><trkpt lat="30.6682935342537" lon="-6.309503584713211"><ele>942.0</ele><time>2026-03-26T08:51:41.025Z</time></trkpt><trkpt lat="30.668184729218495" lon="-6.3096926138524365"><ele>941.3333333333333</ele><time>2026-03-26T08:51:42.025Z</time></trkpt><trkpt lat="30.668074309492614" lon="-6.309882307740058"><ele>940.6666666666666</ele><time>2026-03-26T08:51:43.025Z</time></trkpt><trkpt lat="30.667964891323773" lon="-6.3100747601666916"><ele>940.0</ele><time>2026-03-26T08:51:44.025Z</time></trkpt><trkpt lat="30.667855821360142" lon="-6.310262711896587"><ele>941.6666666666666</ele><time>2026-03-26T08:51:45.026Z</time></trkpt><trkpt lat="30.66774491450043" lon="-6.310456368252608"><ele>943.3333333333333</ele><time>2026-03-26T08:51:46.026Z</time></trkpt><trkpt lat="30.667630602561815" lon="-6.310654931179124"><ele>945.0</ele><time>2026-03-26T08:51:47.026Z</time></trkpt><trkpt lat="30.66751511671619" lon="-6.310856206360559"><ele>945.0</ele><time>2026-03-26T08:51:48.026Z</time></trkpt><trkpt lat="30.667400631778264" lon="-6.311054775812314"><ele>945.0</ele><time>2026-03-26T08:51:49.026Z</time></trkpt><trkpt lat="30.667287428945347" lon="-6.3112555594388144"><ele>945.0</ele><time>2026-03-26T08:51:50.026Z</time></trkpt><trkpt lat="30.667174116572333" lon="-6.311451908847772"><ele>944.6666666666667</ele><time>2026-03-26T08:51:51.026Z</time></trkpt><trkpt lat="30.667061964603665" lon="-6.311645359702324"><ele>944.3333333333334</ele><time>2026-03-26T08:51:52.026Z</time></trkpt><trkpt lat="30.666952776588857" lon="-6.31183473190277"><ele>944.0</ele><time>2026-03-26T08:51:53.026Z</time></trkpt><trkpt lat="30.666842710959713" lon="-6.3120161948905205"><ele>945.3333333333334</ele><time>2026-03-26T08:51:54.026Z</time></trkpt><trkpt lat="30.666731141627036" lon="-6.312193167974651"><ele>946.6666666666667</ele><time>2026-03-26T08:51:55.026Z</time></trkpt><trkpt lat="30.666617785087915" lon="-6.312361085146835"><ele>948.0</ele><time>2026-03-26T08:51:56.026Z</time></trkpt><trkpt lat="30.666489845612087" lon="-6.312548422396289"><ele>948.0</ele><time>2026-03-26T08:51:57.026Z</time></trkpt><trkpt lat="30.66634709515529" lon="-6.312749661104163"><ele>948.0</ele><time>2026-03-26T08:51:58.026Z</time></trkpt><trkpt lat="30.666192661667125" lon="-6.312969263287272"><ele>950.5</ele><time>2026-03-26T08:51:59.026Z</time></trkpt><trkpt lat="30.666026497675976" lon="-6.313205912299392"><ele>953.0</ele><time>2026-03-26T08:52:00.026Z</time></trkpt><trkpt lat="30.665875931451193" lon="-6.3134345877570865"><ele>953.0</ele><time>2026-03-26T08:52:01.026Z</time></trkpt><trkpt lat="30.665766712825164" lon="-6.31365912889135"><ele>953.0</ele><time>2026-03-26T08:52:02.026Z</time></trkpt><trkpt lat="30.665664413795312" lon="-6.313877339128538"><ele>953.0</ele><time>2026-03-26T08:52:03.026Z</time></trkpt><trkpt lat="30.665591877210247" lon="-6.314103350290171"><ele>951.6666666666667</ele><time>2026-03-26T08:52:04.026Z</time></trkpt><trkpt lat="30.665552850372148" lon="-6.314339427412935"><ele>950.3333333333333</ele><time>2026-03-26T08:52:05.026Z</time></trkpt><trkpt lat="30.66552547908279" lon="-6.314590910985536"><ele>949.0</ele><time>2026-03-26T08:52:06.026Z</time></trkpt><trkpt lat="30.665530412786488" lon="-6.314865072283301"><ele>949.0</ele><time>2026-03-26T08:52:07.026Z</time></trkpt><trkpt lat="30.66554866323648" lon="-6.315168305615301"><ele>949.0</ele><time>2026-03-26T08:52:08.026Z</time></trkpt><trkpt lat="30.66560275114194" lon="-6.3154768955222185"><ele>948.5</ele><time>2026-03-26T08:52:09.026Z</time></trkpt><trkpt lat="30.665654229586575" lon="-6.315746892985085"><ele>948.0</ele><time>2026-03-26T08:52:10.026Z</time></trkpt><trkpt lat="30.66569543546267" lon="-6.315992683314846"><ele>948.0</ele><time>2026-03-26T08:52:11.026Z</time></trkpt><trkpt lat="30.66573483854521" lon="-6.316230118080378"><ele>948.0</ele><time>2026-03-26T08:52:12.026Z</time></trkpt><trkpt lat="30.66577200170986" lon="-6.316472730107125"><ele>948.0</ele><time>2026-03-26T08:52:13.026Z</time></trkpt><trkpt lat="30.66582953039366" lon="-6.316712355711488"><ele>948.6666666666667</ele><time>2026-03-26T08:52:14.026Z</time></trkpt><trkpt lat="30.66586977866113" lon="-6.316952549800176"><ele>949.3333333333334</ele><time>2026-03-26T08:52:15.026Z</time></trkpt><trkpt lat="30.665907428333796" lon="-6.317187180830244"><ele>950.0</ele><time>2026-03-26T08:52:16.026Z</time></trkpt><trkpt lat="30.66594471284519" lon="-6.317420827045727"><ele>951.3333333333334</ele><time>2026-03-26T08:52:17.026Z</time></trkpt><trkpt lat="30.665975084153413" lon="-6.317646514327534"><ele>952.6666666666667</ele><time>2026-03-26T08:52:18.026Z</time></trkpt><trkpt lat="30.666002562624982" lon="-6.317855183799043"><ele>954.0</ele><time>2026-03-26T08:52:19.026Z</time></trkpt><trkpt lat="30.66602195462699" lon="-6.318077176785645"><ele>956.0</ele><time>2026-03-26T08:52:20.026Z</time></trkpt><trkpt lat="30.666026801904728" lon="-6.318320469824367"><ele>958.0</ele><time>2026-03-26T08:52:21.026Z</time></trkpt><trkpt lat="30.666010958417107" lon="-6.318577890453647"><ele>960.0</ele><time>2026-03-26T08:52:22.026Z</time></trkpt><trkpt lat="30.66598200557434" lon="-6.318811733570944"><ele>962.3333333333333</ele><time>2026-03-26T08:52:23.026Z</time></trkpt><trkpt lat="30.665945868327825" lon="-6.319036220941749"><ele>964.6666666666666</ele><time>2026-03-26T08:52:24.026Z</time></trkpt><trkpt lat="30.665900969760763" lon="-6.319261425990168"><ele>967.0</ele><time>2026-03-26T08:52:25.026Z</time></trkpt><trkpt lat="30.665855681078284" lon="-6.319490881543524"><ele>967.0</ele><time>2026-03-26T08:52:26.026Z</time></trkpt><trkpt lat="30.665812570220623" lon="-6.31971706686518"><ele>967.0</ele><time>2026-03-26T08:52:27.026Z</time></trkpt><trkpt lat="30.66577215159002" lon="-6.319944772847836"><ele>967.0</ele><time>2026-03-26T08:52:28.026Z</time></trkpt><trkpt lat="30.66574463912353" lon="-6.32016889638845"><ele>968.0</ele><time>2026-03-26T08:52:29.026Z</time></trkpt><trkpt lat="30.66572589944316" lon="-6.320392235597451"><ele>969.0</ele><time>2026-03-26T08:52:30.026Z</time></trkpt><trkpt lat="30.66572308231547" lon="-6.320603325948183"><ele>970.0</ele><time>2026-03-26T08:52:31.026Z</time></trkpt><trkpt lat="30.665733434881687" lon="-6.320803456027895"><ele>970.0</ele><time>2026-03-26T08:52:32.026Z</time></trkpt><trkpt lat="30.665754685069672" lon="-6.32100442953265"><ele>970.0</ele><time>2026-03-26T08:52:33.026Z</time></trkpt><trkpt lat="30.66578371099813" lon="-6.321220010413171"><ele>970.0</ele><time>2026-03-26T08:52:34.026Z</time></trkpt><trkpt lat="30.665837447614667" lon="-6.3214484277438805"><ele>969.6666666666666</ele><time>2026-03-26T08:52:35.026Z</time></trkpt><trkpt lat="30.665907572359547" lon="-6.321677641583033"><ele>969.3333333333333</ele><time>2026-03-26T08:52:36.026Z</time></trkpt><trkpt lat="30.665985122626207" lon="-6.321890925682819"><ele>969.0</ele><time>2026-03-26T08:52:37.026Z</time></trkpt><trkpt lat="30.666073965470645" lon="-6.322093742625093"><ele>966.0</ele><time>2026-03-26T08:52:38.026Z</time></trkpt><trkpt lat="30.666159253962466" lon="-6.322289196265796"><ele>963.0</ele><time>2026-03-26T08:52:39.026Z</time></trkpt><trkpt lat="30.666235252554245" lon="-6.322465947884838"><ele>960.0</ele><time>2026-03-26T08:52:40.026Z</time></trkpt><trkpt lat="30.666308886248267" lon="-6.322638414166619"><ele>960.0</ele><time>2026-03-26T08:52:41.026Z</time></trkpt><trkpt lat="30.66638387527721" lon="-6.322814247576196"><ele>960.0</ele><time>2026-03-26T08:52:42.026Z</time></trkpt><trkpt lat="30.66645912677469" lon="-6.3229944301119945"><ele>960.0</ele><time>2026-03-26T08:52:43.026Z</time></trkpt><trkpt lat="30.666538883862852" lon="-6.323178701677437"><ele>960.0</ele><time>2026-03-26T08:52:44.026Z</time></trkpt><trkpt lat="30.666621579480744" lon="-6.323368250589625"><ele>960.0</ele><time>2026-03-26T08:52:45.026Z</time></trkpt><trkpt lat="30.66670490973713" lon="-6.3235803290455985"><ele>960.0</ele><time>2026-03-26T08:52:46.026Z</time></trkpt><trkpt lat="30.666794567120444" lon="-6.323796688196429"><ele>960.0</ele><time>2026-03-26T08:52:47.026Z</time></trkpt><trkpt lat="30.66688588358036" lon="-6.324019619542841"><ele>960.0</ele><time>2026-03-26T08:52:48.026Z</time></trkpt><trkpt lat="30.666980444112337" lon="-6.324239576881619"><ele>960.0</ele><time>2026-03-26T08:52:49.026Z</time></trkpt><trkpt lat="30.66706999816716" lon="-6.3244622871161305"><ele>957.6666666666667</ele><time>2026-03-26T08:52:50.026Z</time></trkpt><trkpt lat="30.667147821804242" lon="-6.324677267479103"><ele>955.3333333333334</ele><time>2026-03-26T08:52:51.026Z</time></trkpt><trkpt lat="30.66720331949777" lon="-6.324879505741497"><ele>953.0</ele><time>2026-03-26T08:52:52.026Z</time></trkpt><trkpt lat="30.66725822024108" lon="-6.325068505557343"><ele>951.6666666666667</ele><time>2026-03-26T08:52:53.026Z</time></trkpt><trkpt lat="30.66729939626454" lon="-6.325258226446461"><ele>950.3333333333333</ele><time>2026-03-26T08:52:54.026Z</time></trkpt><trkpt lat="30.667331273096895" lon="-6.325466263700443"><ele>949.0</ele><time>2026-03-26T08:52:55.026Z</time></trkpt><trkpt lat="30.667365130889287" lon="-6.3256843830883644"><ele>947.0</ele><time>2026-03-26T08:52:56.026Z</time></trkpt><trkpt lat="30.66740802346595" lon="-6.325925626070957"><ele>945.0</ele><time>2026-03-26T08:52:57.026Z</time></trkpt><trkpt lat="30.667450157129444" lon="-6.3261778226913785"><ele>943.0</ele><time>2026-03-26T08:52:58.026Z</time></trkpt><trkpt lat="30.66751510938097" lon="-6.326444479394039"><ele>943.0</ele><time>2026-03-26T08:52:59.026Z</time></trkpt><trkpt lat="30.66758541032661" lon="-6.326670671255947"><ele>943.0</ele><time>2026-03-26T08:53:00.026Z</time></trkpt><trkpt lat="30.667694097526606" lon="-6.326876070924983"><ele>943.0</ele><time>2026-03-26T08:53:01.026Z</time></trkpt><trkpt lat="30.66779842686859" lon="-6.327084170934989"><ele>939.0</ele><time>2026-03-26T08:53:02.026Z</time></trkpt><trkpt lat="30.66793338660576" lon="-6.327284072795788"><ele>935.0</ele><time>2026-03-26T08:53:03.026Z</time></trkpt><trkpt lat="30.66809619017073" lon="-6.327473397123219"><ele>931.0</ele><time>2026-03-26T08:53:04.026Z</time></trkpt><trkpt lat="30.668285212858457" lon="-6.327652273249981"><ele>931.0</ele><time>2026-03-26T08:53:05.026Z</time></trkpt><trkpt lat="30.668472850432437" lon="-6.327789138906097"><ele>931.0</ele><time>2026-03-26T08:53:06.026Z</time></trkpt><trkpt lat="30.66865122661418" lon="-6.327916816571848"><ele>931.0</ele><time>2026-03-26T08:53:07.026Z</time></trkpt><trkpt lat="30.668843941146765" lon="-6.328047669144228"><ele>931.0</ele><time>2026-03-26T08:53:08.026Z</time></trkpt><trkpt lat="30.669043139881367" lon="-6.328164443557679"><ele>931.0</ele><time>2026-03-26T08:53:09.026Z</time></trkpt><trkpt lat="30.66925092449616" lon="-6.3282624823766485"><ele>931.0</ele><time>2026-03-26T08:53:10.025Z</time></trkpt><trkpt lat="30.66944511688286" lon="-6.328337580742065"><ele>926.3333333333333</ele><time>2026-03-26T08:53:11.025Z</time></trkpt><trkpt lat="30.669629515541377" lon="-6.328408614005256"><ele>921.6666666666667</ele><time>2026-03-26T08:53:12.025Z</time></trkpt><trkpt lat="30.669800232478106" lon="-6.328484007184153"><ele>917.0</ele><time>2026-03-26T08:53:13.025Z</time></trkpt><trkpt lat="30.669956816599093" lon="-6.328570476991267"><ele>917.0</ele><time>2026-03-26T08:53:14.025Z</time></trkpt><trkpt lat="30.67010983263385" lon="-6.328670408479486"><ele>917.0</ele><time>2026-03-26T08:53:15.024Z</time></trkpt><trkpt lat="30.670263344001814" lon="-6.328790544939607"><ele>917.0</ele><time>2026-03-26T08:53:16.024Z</time></trkpt><trkpt lat="30.670406873465843" lon="-6.328934598602801"><ele>915.3333333333334</ele><time>2026-03-26T08:53:17.024Z</time></trkpt><trkpt lat="30.670532149261668" lon="-6.329093830287374"><ele>913.6666666666667</ele><time>2026-03-26T08:53:18.023Z</time></trkpt><trkpt lat="30.670642135031517" lon="-6.329264586867831"><ele>912.0</ele><time>2026-03-26T08:53:19.024Z</time></trkpt><trkpt lat="30.670733697454878" lon="-6.329444568334301"><ele>912.0</ele><time>2026-03-26T08:53:20.023Z</time></trkpt><trkpt lat="30.67080878213385" lon="-6.329627077137237"><ele>912.0</ele><time>2026-03-26T08:53:21.023Z</time></trkpt><trkpt lat="30.670861930720406" lon="-6.329813845689399"><ele>912.0</ele><time>2026-03-26T08:53:22.023Z</time></trkpt><trkpt lat="30.670901447929374" lon="-6.330001298178096"><ele>911.6666666666667</ele><time>2026-03-26T08:53:23.023Z</time></trkpt><trkpt lat="30.670923786172157" lon="-6.330193453737711"><ele>911.3333333333334</ele><time>2026-03-26T08:53:24.023Z</time></trkpt><trkpt lat="30.670930795206786" lon="-6.330387917222282"><ele>911.0</ele><time>2026-03-26T08:53:25.023Z</time></trkpt><trkpt lat="30.670919882362476" lon="-6.330590456926248"><ele>911.0</ele><time>2026-03-26T08:53:26.023Z</time></trkpt><trkpt lat="30.670893384344296" lon="-6.330801040000536"><ele>911.0</ele><time>2026-03-26T08:53:27.022Z</time></trkpt><trkpt lat="30.670848582328883" lon="-6.331015338946728"><ele>911.0</ele><time>2026-03-26T08:53:28.022Z</time></trkpt><trkpt lat="30.67079267340983" lon="-6.331230312184572"><ele>907.6666666666667</ele><time>2026-03-26T08:53:29.022Z</time></trkpt><trkpt lat="30.670745160350062" lon="-6.331462301040588"><ele>904.3333333333333</ele><time>2026-03-26T08:53:30.022Z</time></trkpt><trkpt lat="30.670699108499004" lon="-6.331690550655258"><ele>901.0</ele><time>2026-03-26T08:53:31.022Z</time></trkpt><trkpt lat="30.670650809013313" lon="-6.331915968195927"><ele>901.0</ele><time>2026-03-26T08:53:32.022Z</time></trkpt><trkpt lat="30.670602111272743" lon="-6.332139751765714"><ele>901.0</ele><time>2026-03-26T08:53:33.022Z</time></trkpt><trkpt lat="30.670556354486877" lon="-6.332361048199958"><ele>901.0</ele><time>2026-03-26T08:53:34.022Z</time></trkpt><trkpt lat="30.670512175273004" lon="-6.332575037336766"><ele>901.3333333333333</ele><time>2026-03-26T08:53:35.022Z</time></trkpt><trkpt lat="30.670468819840664" lon="-6.332785626166679"><ele>901.6666666666667</ele><time>2026-03-26T08:53:36.022Z</time></trkpt><trkpt lat="30.67042642163228" lon="-6.332994923949964"><ele>902.0</ele><time>2026-03-26T08:53:37.022Z</time></trkpt><trkpt lat="30.670382075806717" lon="-6.333207248775644"><ele>901.3333333333334</ele><time>2026-03-26T08:53:38.022Z</time></trkpt><trkpt lat="30.670335194773468" lon="-6.33342324982067"><ele>900.6666666666667</ele><time>2026-03-26T08:53:39.022Z</time></trkpt><trkpt lat="30.670284147471556" lon="-6.333637563751236"><ele>900.0</ele><time>2026-03-26T08:53:40.022Z</time></trkpt><trkpt lat="30.670230124889823" lon="-6.333850665573032"><ele>901.6666666666667</ele><time>2026-03-26T08:53:41.022Z</time></trkpt><trkpt lat="30.67016785920581" lon="-6.334054418361631"><ele>903.3333333333334</ele><time>2026-03-26T08:53:42.022Z</time></trkpt><trkpt lat="30.670095651589794" lon="-6.3342545262518115"><ele>905.0</ele><time>2026-03-26T08:53:43.021Z</time></trkpt><trkpt lat="30.67002005002315" lon="-6.334437210651571"><ele>905.0</ele><time>2026-03-26T08:53:44.021Z</time></trkpt><trkpt lat="30.66994406860709" lon="-6.33460927373624"><ele>905.0</ele><time>2026-03-26T08:53:45.021Z</time></trkpt><trkpt lat="30.66986815151696" lon="-6.334777238854755"><ele>905.0</ele><time>2026-03-26T08:53:46.021Z</time></trkpt><trkpt lat="30.66979375397777" lon="-6.3349343046903615"><ele>904.5</ele><time>2026-03-26T08:53:47.021Z</time></trkpt><trkpt lat="30.66972721604628" lon="-6.335078689390425"><ele>904.0</ele><time>2026-03-26T08:53:48.021Z</time></trkpt><trkpt lat="30.669670242820064" lon="-6.335212085546173"><ele>903.5</ele><time>2026-03-26T08:53:49.021Z</time></trkpt><trkpt lat="30.669618653569554" lon="-6.335354443788534"><ele>903.0</ele><time>2026-03-26T08:53:50.021Z</time></trkpt><trkpt lat="30.669572223832542" lon="-6.335509966141863"><ele>902.6666666666667</ele><time>2026-03-26T08:53:51.021Z</time></trkpt><trkpt lat="30.6695268351933" lon="-6.335691509734421"><ele>902.3333333333334</ele><time>2026-03-26T08:53:52.021Z</time></trkpt><trkpt lat="30.669498926852444" lon="-6.335876968082582"><ele>902.0</ele><time>2026-03-26T08:53:53.021Z</time></trkpt><trkpt lat="30.669500447525063" lon="-6.336058250696296"><ele>902.0</ele><time>2026-03-26T08:53:54.021Z</time></trkpt><trkpt lat="30.66951508811795" lon="-6.3362512441077845"><ele>902.0</ele><time>2026-03-26T08:53:55.021Z</time></trkpt><trkpt lat="30.66952889698461" lon="-6.3364450623908315"><ele>902.0</ele><time>2026-03-26T08:53:56.021Z</time></trkpt><trkpt lat="30.669548982554236" lon="-6.336616992641229"><ele>902.0</ele><time>2026-03-26T08:53:57.021Z</time></trkpt><trkpt lat="30.669562924704817" lon="-6.336787754268833"><ele>902.0</ele><time>2026-03-26T08:53:58.021Z</time></trkpt><trkpt lat="30.669579429661898" lon="-6.336957324312266"><ele>902.0</ele><time>2026-03-26T08:53:59.021Z</time></trkpt><trkpt lat="30.669597310340166" lon="-6.337126631747824"><ele>902.0</ele><time>2026-03-26T08:54:00.021Z</time></trkpt><trkpt lat="30.669615157399715" lon="-6.337299236483398"><ele>902.6666666666667</ele><time>2026-03-26T08:54:01.021Z</time></trkpt><trkpt lat="30.669628920079177" lon="-6.337472994664225"><ele>903.3333333333333</ele><time>2026-03-26T08:54:02.021Z</time></trkpt><trkpt lat="30.669643660035774" lon="-6.337650868456214"><ele>904.0</ele><time>2026-03-26T08:54:03.021Z</time></trkpt><trkpt lat="30.669654315868097" lon="-6.33782873527977"><ele>904.0</ele><time>2026-03-26T08:54:04.021Z</time></trkpt><trkpt lat="30.669667424803976" lon="-6.338009655561081"><ele>904.0</ele><time>2026-03-26T08:54:05.021Z</time></trkpt><trkpt lat="30.66968281090749" lon="-6.338181711263021"><ele>904.0</ele><time>2026-03-26T08:54:06.021Z</time></trkpt><trkpt lat="30.669695565254212" lon="-6.338353350820395"><ele>904.3333333333333</ele><time>2026-03-26T08:54:07.021Z</time></trkpt><trkpt lat="30.669706942823538" lon="-6.338533789717506"><ele>904.6666666666667</ele><time>2026-03-26T08:54:08.021Z</time></trkpt><trkpt lat="30.66972089482418" lon="-6.338721754483105"><ele>905.0</ele><time>2026-03-26T08:54:09.021Z</time></trkpt><trkpt lat="30.66973864674886" lon="-6.3389133606878145"><ele>905.0</ele><time>2026-03-26T08:54:10.021Z</time></trkpt><trkpt lat="30.669760141170705" lon="-6.339106238971129"><ele>905.0</ele><time>2026-03-26T08:54:11.021Z</time></trkpt><trkpt lat="30.669782601042126" lon="-6.339296850489768"><ele>905.0</ele><time>2026-03-26T08:54:12.021Z</time></trkpt><trkpt lat="30.669808446831418" lon="-6.339486399827737"><ele>905.0</ele><time>2026-03-26T08:54:13.021Z</time></trkpt><trkpt lat="30.66984171058988" lon="-6.339666551060845"><ele>905.0</ele><time>2026-03-26T08:54:14.021Z</time></trkpt><trkpt lat="30.6698792216111" lon="-6.339839046463984"><ele>905.0</ele><time>2026-03-26T08:54:15.021Z</time></trkpt><trkpt lat="30.66991514916719" lon="-6.339999039262374"><ele>905.0</ele><time>2026-03-26T08:54:16.021Z</time></trkpt><trkpt lat="30.669945583324626" lon="-6.340149951393941"><ele>905.0</ele><time>2026-03-26T08:54:17.021Z</time></trkpt><trkpt lat="30.669974558109168" lon="-6.340297144015031"><ele>905.0</ele><time>2026-03-26T08:54:18.021Z</time></trkpt><trkpt lat="30.67000112058014" lon="-6.340440824541934"><ele>905.0</ele><time>2026-03-26T08:54:19.021Z</time></trkpt><trkpt lat="30.67002541407265" lon="-6.340590657253988"><ele>905.25</ele><time>2026-03-26T08:54:20.021Z</time></trkpt><trkpt lat="30.67004845538248" lon="-6.3407486811122755"><ele>905.5</ele><time>2026-03-26T08:54:21.021Z</time></trkpt><trkpt lat="30.67006882340152" lon="-6.340909682079026"><ele>905.75</ele><time>2026-03-26T08:54:22.021Z</time></trkpt><trkpt lat="30.67008832238228" lon="-6.341077333832548"><ele>906.0</ele><time>2026-03-26T08:54:23.021Z</time></trkpt><trkpt lat="30.670104901105805" lon="-6.3412548586029125"><ele>906.0</ele><time>2026-03-26T08:54:24.021Z</time></trkpt><trkpt lat="30.670121108018183" lon="-6.341426507617839"><ele>906.0</ele><time>2026-03-26T08:54:25.021Z</time></trkpt><trkpt lat="30.670138426002048" lon="-6.341591974277262"><ele>906.0</ele><time>2026-03-26T08:54:26.021Z</time></trkpt><trkpt lat="30.670160620425584" lon="-6.341743842949867"><ele>906.0</ele><time>2026-03-26T08:54:27.021Z</time></trkpt><trkpt lat="30.670194800068234" lon="-6.341889767994605"><ele>906.0</ele><time>2026-03-26T08:54:28.021Z</time></trkpt><trkpt lat="30.67023257729066" lon="-6.342033196170787"><ele>906.0</ele><time>2026-03-26T08:54:29.021Z</time></trkpt><trkpt lat="30.670265684920217" lon="-6.342180689391177"><ele>906.0</ele><time>2026-03-26T08:54:30.021Z</time></trkpt><trkpt lat="30.670313180433112" lon="-6.342335982747628"><ele>906.0</ele><time>2026-03-26T08:54:31.021Z</time></trkpt><trkpt lat="30.670360524494622" lon="-6.342496234581413"><ele>904.3333333333333</ele><time>2026-03-26T08:54:32.021Z</time></trkpt><trkpt lat="30.67041161364133" lon="-6.342666307685928"><ele>902.6666666666666</ele><time>2026-03-26T08:54:33.021Z</time></trkpt><trkpt lat="30.670458336955207" lon="-6.342838501705056"><ele>901.0</ele><time>2026-03-26T08:54:34.021Z</time></trkpt><trkpt lat="30.67050316449723" lon="-6.34301266873863"><ele>902.0</ele><time>2026-03-26T08:54:35.021Z</time></trkpt><trkpt lat="30.670545687485934" lon="-6.3431879664951785"><ele>903.0</ele><time>2026-03-26T08:54:36.021Z</time></trkpt><trkpt lat="30.670586898752934" lon="-6.343363172698095"><ele>904.0</ele><time>2026-03-26T08:54:37.021Z</time></trkpt><trkpt lat="30.670624477278576" lon="-6.343535645841797"><ele>904.0</ele><time>2026-03-26T08:54:38.021Z</time></trkpt><trkpt lat="30.670656299809565" lon="-6.343706767617728"><ele>904.0</ele><time>2026-03-26T08:54:39.021Z</time></trkpt><trkpt lat="30.670685980491545" lon="-6.343877646579631"><ele>904.0</ele><time>2026-03-26T08:54:40.021Z</time></trkpt><trkpt lat="30.670715856939587" lon="-6.344048560050288"><ele>904.5</ele><time>2026-03-26T08:54:41.021Z</time></trkpt><trkpt lat="30.670748557405975" lon="-6.3442150007088465"><ele>905.0</ele><time>2026-03-26T08:54:42.021Z</time></trkpt><trkpt lat="30.670783971638492" lon="-6.344377062596244"><ele>905.5</ele><time>2026-03-26T08:54:43.021Z</time></trkpt><trkpt lat="30.670818512631133" lon="-6.344536013824063"><ele>906.0</ele><time>2026-03-26T08:54:44.021Z</time></trkpt><trkpt lat="30.67085093460034" lon="-6.344695538137926"><ele>906.5</ele><time>2026-03-26T08:54:45.021Z</time></trkpt><trkpt lat="30.670888557430548" lon="-6.344850100024569"><ele>907.0</ele><time>2026-03-26T08:54:46.021Z</time></trkpt><trkpt lat="30.67093325555302" lon="-6.345006575517099"><ele>907.5</ele><time>2026-03-26T08:54:47.021Z</time></trkpt><trkpt lat="30.670963095803017" lon="-6.3451661414913065"><ele>908.0</ele><time>2026-03-26T08:54:48.021Z</time></trkpt><trkpt lat="30.67099390540851" lon="-6.3453476652442555"><ele>908.0</ele><time>2026-03-26T08:54:49.021Z</time></trkpt><trkpt lat="30.671022907971285" lon="-6.345523377712275"><ele>908.0</ele><time>2026-03-26T08:54:50.021Z</time></trkpt><trkpt lat="30.671047851741495" lon="-6.345695179668455"><ele>908.0</ele><time>2026-03-26T08:54:51.021Z</time></trkpt><trkpt lat="30.671064381797837" lon="-6.345861885643638"><ele>908.0</ele><time>2026-03-26T08:54:52.021Z</time></trkpt><trkpt lat="30.671070557422965" lon="-6.34602718837189"><ele>907.75</ele><time>2026-03-26T08:54:53.021Z</time></trkpt><trkpt lat="30.67106937056131" lon="-6.346195948092763"><ele>907.5</ele><time>2026-03-26T08:54:54.021Z</time></trkpt><trkpt lat="30.671051335131022" lon="-6.346364342431868"><ele>907.25</ele><time>2026-03-26T08:54:55.021Z</time></trkpt><trkpt lat="30.67102144288979" lon="-6.346536355808986"><ele>907.0</ele><time>2026-03-26T08:54:56.021Z</time></trkpt><trkpt lat="30.67098417777436" lon="-6.346706736371163"><ele>906.75</ele><time>2026-03-26T08:54:57.021Z</time></trkpt><trkpt lat="30.670943485165726" lon="-6.346864115989694"><ele>906.5</ele><time>2026-03-26T08:54:58.021Z</time></trkpt><trkpt lat="30.670900199541656" lon="-6.347029836381097"><ele>906.25</ele><time>2026-03-26T08:54:59.021Z</time></trkpt><trkpt lat="30.670854799369355" lon="-6.347193088686279"><ele>906.0</ele><time>2026-03-26T08:55:00.021Z</time></trkpt><trkpt lat="30.670806379225176" lon="-6.347357987691822"><ele>905.75</ele><time>2026-03-26T08:55:01.021Z</time></trkpt><trkpt lat="30.670761138119982" lon="-6.347515571259217"><ele>905.5</ele><time>2026-03-26T08:55:02.021Z</time></trkpt><trkpt lat="30.67072328478919" lon="-6.347667824731657"><ele>905.25</ele><time>2026-03-26T08:55:03.021Z</time></trkpt><trkpt lat="30.67068074229106" lon="-6.347813509196284"><ele>905.0</ele><time>2026-03-26T08:55:04.021Z</time></trkpt><trkpt lat="30.67062951994549" lon="-6.347950508221097"><ele>905.75</ele><time>2026-03-26T08:55:05.021Z</time></trkpt><trkpt lat="30.67057161069962" lon="-6.348079646864173"><ele>906.5</ele><time>2026-03-26T08:55:06.021Z</time></trkpt><trkpt lat="30.670498724488848" lon="-6.348197167818165"><ele>907.25</ele><time>2026-03-26T08:55:07.021Z</time></trkpt><trkpt lat="30.670409109075592" lon="-6.348305800191029"><ele>908.0</ele><time>2026-03-26T08:55:08.021Z</time></trkpt><trkpt lat="30.670310086994455" lon="-6.348401704538745"><ele>908.0</ele><time>2026-03-26T08:55:09.021Z</time></trkpt><trkpt lat="30.670219839315454" lon="-6.3485072507350155"><ele>908.0</ele><time>2026-03-26T08:55:10.021Z</time></trkpt><trkpt lat="30.67011799884913" lon="-6.348611625940498"><ele>908.0</ele><time>2026-03-26T08:55:11.021Z</time></trkpt><trkpt lat="30.67000497339768" lon="-6.3487132244471205"><ele>908.0</ele><time>2026-03-26T08:55:12.021Z</time></trkpt><trkpt lat="30.669918165661546" lon="-6.348848418692879"><ele>908.5</ele><time>2026-03-26T08:55:13.021Z</time></trkpt><trkpt lat="30.66985010406643" lon="-6.34898900298405"><ele>909.0</ele><time>2026-03-26T08:55:14.021Z</time></trkpt><trkpt lat="30.669800911355317" lon="-6.349139003543895"><ele>909.5</ele><time>2026-03-26T08:55:15.021Z</time></trkpt><trkpt lat="30.669767926962106" lon="-6.349292951599902"><ele>910.0</ele><time>2026-03-26T08:55:16.021Z</time></trkpt><trkpt lat="30.66976437291951" lon="-6.349466041406229"><ele>910.0</ele><time>2026-03-26T08:55:17.021Z</time></trkpt><trkpt lat="30.669790345747092" lon="-6.349632662268968"><ele>910.0</ele><time>2026-03-26T08:55:18.021Z</time></trkpt><trkpt lat="30.66985134485265" lon="-6.349791428991925"><ele>910.0</ele><time>2026-03-26T08:55:19.021Z</time></trkpt><trkpt lat="30.66991796654599" lon="-6.349939401757849"><ele>910.0</ele><time>2026-03-26T08:55:20.022Z</time></trkpt><trkpt lat="30.66997928163616" lon="-6.350079663328815"><ele>909.75</ele><time>2026-03-26T08:55:21.022Z</time></trkpt><trkpt lat="30.67004717511703" lon="-6.350217125770561"><ele>909.5</ele><time>2026-03-26T08:55:22.021Z</time></trkpt><trkpt lat="30.670133350940944" lon="-6.350359124112909"><ele>909.25</ele><time>2026-03-26T08:55:23.022Z</time></trkpt><trkpt lat="30.670232071767487" lon="-6.350502111574368"><ele>909.0</ele><time>2026-03-26T08:55:24.022Z</time></trkpt><trkpt lat="30.670336796766904" lon="-6.350639040282472"><ele>909.0</ele><time>2026-03-26T08:55:25.022Z</time></trkpt><trkpt lat="30.670430686404007" lon="-6.350767594674291"><ele>909.0</ele><time>2026-03-26T08:55:26.022Z</time></trkpt><trkpt lat="30.670519576444434" lon="-6.350881528130031"><ele>909.0</ele><time>2026-03-26T08:55:27.022Z</time></trkpt><trkpt lat="30.670602384236737" lon="-6.350995585889137"><ele>909.0</ele><time>2026-03-26T08:55:28.022Z</time></trkpt><trkpt lat="30.670690078604686" lon="-6.351123918677551"><ele>909.0</ele><time>2026-03-26T08:55:29.022Z</time></trkpt><trkpt lat="30.670770878948918" lon="-6.351249565215265"><ele>909.0</ele><time>2026-03-26T08:55:30.022Z</time></trkpt><trkpt lat="30.670845077714297" lon="-6.351378237240499"><ele>909.0</ele><time>2026-03-26T08:55:31.022Z</time></trkpt><trkpt lat="30.670909253268643" lon="-6.35152073250069"><ele>909.0</ele><time>2026-03-26T08:55:32.021Z</time></trkpt><trkpt lat="30.670959775933643" lon="-6.351672753241109"><ele>909.25</ele><time>2026-03-26T08:55:33.021Z</time></trkpt><trkpt lat="30.671001823082314" lon="-6.351824969726893"><ele>909.5</ele><time>2026-03-26T08:55:34.021Z</time></trkpt><trkpt lat="30.671024844027297" lon="-6.351979186230854"><ele>909.75</ele><time>2026-03-26T08:55:35.021Z</time></trkpt><trkpt lat="30.67103784949994" lon="-6.352131252510314"><ele>910.0</ele><time>2026-03-26T08:55:36.021Z</time></trkpt><trkpt lat="30.671056463982957" lon="-6.352284781988587"><ele>909.5</ele><time>2026-03-26T08:55:37.021Z</time></trkpt><trkpt lat="30.67109811074775" lon="-6.3524414070169"><ele>909.0</ele><time>2026-03-26T08:55:38.021Z</time></trkpt><trkpt lat="30.671165374537644" lon="-6.3525963411558415"><ele>908.5</ele><time>2026-03-26T08:55:39.021Z</time></trkpt><trkpt lat="30.67125735437369" lon="-6.352742106368945"><ele>908.0</ele><time>2026-03-26T08:55:40.021Z</time></trkpt><trkpt lat="30.671348805439628" lon="-6.352866629183041"><ele>908.0</ele><time>2026-03-26T08:55:41.021Z</time></trkpt><trkpt lat="30.671438564619287" lon="-6.3529859027616284"><ele>908.0</ele><time>2026-03-26T08:55:42.021Z</time></trkpt><trkpt lat="30.67151687765269" lon="-6.353116802831653"><ele>908.0</ele><time>2026-03-26T08:55:43.021Z</time></trkpt><trkpt lat="30.671571503261017" lon="-6.35326167009855"><ele>908.0</ele><time>2026-03-26T08:55:44.021Z</time></trkpt><trkpt lat="30.671604781637363" lon="-6.353414817811417"><ele>908.0</ele><time>2026-03-26T08:55:45.021Z</time></trkpt><trkpt lat="30.671619939271526" lon="-6.353577611834963"><ele>908.0</ele><time>2026-03-26T08:55:46.021Z</time></trkpt><trkpt lat="30.67162092483386" lon="-6.3537511746675515"><ele>908.0</ele><time>2026-03-26T08:55:47.022Z</time></trkpt><trkpt lat="30.671618810543578" lon="-6.35392631654983"><ele>908.0</ele><time>2026-03-26T08:55:48.022Z</time></trkpt><trkpt lat="30.671611362356202" lon="-6.3540948634007695"><ele>907.75</ele><time>2026-03-26T08:55:49.022Z</time></trkpt><trkpt lat="30.671604281748966" lon="-6.354263274111206"><ele>907.5</ele><time>2026-03-26T08:55:50.022Z</time></trkpt><trkpt lat="30.671597195371252" lon="-6.3544361079838785"><ele>907.25</ele><time>2026-03-26T08:55:51.022Z</time></trkpt><trkpt lat="30.671591670376596" lon="-6.354607843634494"><ele>907.0</ele><time>2026-03-26T08:55:52.022Z</time></trkpt><trkpt lat="30.67158548493621" lon="-6.354773303905478"><ele>906.75</ele><time>2026-03-26T08:55:53.022Z</time></trkpt><trkpt lat="30.671580497303104" lon="-6.354938566019876"><ele>906.5</ele><time>2026-03-26T08:55:54.022Z</time></trkpt><trkpt lat="30.67157822449064" lon="-6.355101444891637"><ele>906.25</ele><time>2026-03-26T08:55:55.022Z</time></trkpt><trkpt lat="30.67158182582683" lon="-6.355261469284401"><ele>906.0</ele><time>2026-03-26T08:55:56.022Z</time></trkpt><trkpt lat="30.671590850663517" lon="-6.355424042399817"><ele>906.75</ele><time>2026-03-26T08:55:57.022Z</time></trkpt><trkpt lat="30.67160798135334" lon="-6.355587135492581"><ele>907.5</ele><time>2026-03-26T08:55:58.022Z</time></trkpt><trkpt lat="30.671634885791367" lon="-6.355749483054234"><ele>908.25</ele><time>2026-03-26T08:55:59.022Z</time></trkpt><trkpt lat="30.6716730971733" lon="-6.355916017187741"><ele>909.0</ele><time>2026-03-26T08:56:00.022Z</time></trkpt><trkpt lat="30.671708268735877" lon="-6.356086558463807"><ele>909.0</ele><time>2026-03-26T08:56:01.022Z</time></trkpt><trkpt lat="30.67174540270864" lon="-6.356256509092147"><ele>909.0</ele><time>2026-03-26T08:56:02.022Z</time></trkpt><trkpt lat="30.671781195656326" lon="-6.35642698784071"><ele>909.0</ele><time>2026-03-26T08:56:03.022Z</time></trkpt><trkpt lat="30.671815846111762" lon="-6.356597459460267"><ele>909.6666666666667</ele><time>2026-03-26T08:56:04.022Z</time></trkpt><trkpt lat="30.671851834518453" lon="-6.356769986639332"><ele>910.3333333333334</ele><time>2026-03-26T08:56:05.022Z</time></trkpt><trkpt lat="30.671893431228515" lon="-6.3569457167702605"><ele>911.0</ele><time>2026-03-26T08:56:06.022Z</time></trkpt><trkpt lat="30.67193344502603" lon="-6.357122185067224"><ele>908.6666666666667</ele><time>2026-03-26T08:56:07.022Z</time></trkpt><trkpt lat="30.671971320527206" lon="-6.357293969005105"><ele>906.3333333333333</ele><time>2026-03-26T08:56:08.022Z</time></trkpt><trkpt lat="30.672005124861506" lon="-6.3574634968145975"><ele>904.0</ele><time>2026-03-26T08:56:09.022Z</time></trkpt><trkpt lat="30.67204535376545" lon="-6.357630833509853"><ele>904.0</ele><time>2026-03-26T08:56:10.022Z</time></trkpt><trkpt lat="30.672079082398408" lon="-6.357797697662245"><ele>904.0</ele><time>2026-03-26T08:56:11.022Z</time></trkpt><trkpt lat="30.67211245760967" lon="-6.3579654770919065"><ele>904.0</ele><time>2026-03-26T08:56:12.022Z</time></trkpt><trkpt lat="30.672139506118622" lon="-6.358133127398699"><ele>904.0</ele><time>2026-03-26T08:56:13.022Z</time></trkpt><trkpt lat="30.67215900515565" lon="-6.358305427078556"><ele>905.0</ele><time>2026-03-26T08:56:14.022Z</time></trkpt><trkpt lat="30.672169720505767" lon="-6.358482132824514"><ele>906.0</ele><time>2026-03-26T08:56:15.022Z</time></trkpt><trkpt lat="30.67217725582945" lon="-6.358660245050385"><ele>907.0</ele><time>2026-03-26T08:56:16.022Z</time></trkpt><trkpt lat="30.672180015895197" lon="-6.35883905036804"><ele>907.0</ele><time>2026-03-26T08:56:17.022Z</time></trkpt><trkpt lat="30.6721806813895" lon="-6.359020516141075"><ele>907.0</ele><time>2026-03-26T08:56:18.022Z</time></trkpt><trkpt lat="30.67218283491481" lon="-6.35919844189845"><ele>907.0</ele><time>2026-03-26T08:56:19.022Z</time></trkpt><trkpt lat="30.67218316385436" lon="-6.359379396640668"><ele>907.0</ele><time>2026-03-26T08:56:20.022Z</time></trkpt><trkpt lat="30.672182105396384" lon="-6.359563424568991"><ele>907.0</ele><time>2026-03-26T08:56:21.022Z</time></trkpt><trkpt lat="30.672173725393577" lon="-6.359753988039794"><ele>907.0</ele><time>2026-03-26T08:56:22.022Z</time></trkpt><trkpt lat="30.67215870638219" lon="-6.35994185453682"><ele>906.6666666666666</ele><time>2026-03-26T08:56:23.022Z</time></trkpt><trkpt lat="30.672133712051373" lon="-6.360128896324256"><ele>906.3333333333333</ele><time>2026-03-26T08:56:24.022Z</time></trkpt><trkpt lat="30.672099839128474" lon="-6.360313978327348"><ele>906.0</ele><time>2026-03-26T08:56:25.022Z</time></trkpt><trkpt lat="30.67206885290798" lon="-6.360487667074597"><ele>906.25</ele><time>2026-03-26T08:56:26.022Z</time></trkpt><trkpt lat="30.672042292173256" lon="-6.360658722472492"><ele>906.5</ele><time>2026-03-26T08:56:27.022Z</time></trkpt><trkpt lat="30.672024299818002" lon="-6.360827882667559"><ele>906.75</ele><time>2026-03-26T08:56:28.022Z</time></trkpt><trkpt lat="30.672006760100597" lon="-6.360996092555482"><ele>907.0</ele><time>2026-03-26T08:56:29.022Z</time></trkpt><trkpt lat="30.67199804402711" lon="-6.361170485441858"><ele>907.0</ele><time>2026-03-26T08:56:30.022Z</time></trkpt><trkpt lat="30.671998341219208" lon="-6.361342921367358"><ele>907.0</ele><time>2026-03-26T08:56:31.022Z</time></trkpt><trkpt lat="30.67200083870603" lon="-6.3615198130572805"><ele>907.0</ele><time>2026-03-26T08:56:32.022Z</time></trkpt><trkpt lat="30.67200091273065" lon="-6.361697301121421"><ele>907.0</ele><time>2026-03-26T08:56:33.022Z</time></trkpt><trkpt lat="30.672000808558284" lon="-6.361874452718988"><ele>907.0</ele><time>2026-03-26T08:56:34.022Z</time></trkpt><trkpt lat="30.671996923787557" lon="-6.362048057468798"><ele>907.0</ele><time>2026-03-26T08:56:35.022Z</time></trkpt><trkpt lat="30.671995330613573" lon="-6.362225645459227"><ele>907.0</ele><time>2026-03-26T08:56:36.022Z</time></trkpt><trkpt lat="30.67199380392884" lon="-6.362405567225852"><ele>907.0</ele><time>2026-03-26T08:56:37.022Z</time></trkpt><trkpt lat="30.671993773397244" lon="-6.362582799884579"><ele>907.0</ele><time>2026-03-26T08:56:38.022Z</time></trkpt><trkpt lat="30.67201538751684" lon="-6.362764455555397"><ele>907.0</ele><time>2026-03-26T08:56:39.022Z</time></trkpt><trkpt lat="30.672051805761118" lon="-6.362941994387594"><ele>907.0</ele><time>2026-03-26T08:56:40.022Z</time></trkpt><trkpt lat="30.672103360331295" lon="-6.36310148722395"><ele>907.0</ele><time>2026-03-26T08:56:41.022Z</time></trkpt><trkpt lat="30.672159226415552" lon="-6.363248464669858"><ele>907.0</ele><time>2026-03-26T08:56:42.022Z</time></trkpt><trkpt lat="30.672209467921896" lon="-6.363395201694052"><ele>906.75</ele><time>2026-03-26T08:56:43.022Z</time></trkpt><trkpt lat="30.67225072227928" lon="-6.363546849840426"><ele>906.5</ele><time>2026-03-26T08:56:44.022Z</time></trkpt><trkpt lat="30.67228912638621" lon="-6.363699971378346"><ele>906.25</ele><time>2026-03-26T08:56:45.022Z</time></trkpt><trkpt lat="30.672321163138918" lon="-6.363856490416167"><ele>906.0</ele><time>2026-03-26T08:56:46.022Z</time></trkpt><trkpt lat="30.672351777978314" lon="-6.364013044671206"><ele>907.0</ele><time>2026-03-26T08:56:47.022Z</time></trkpt><trkpt lat="30.672373517262532" lon="-6.36417182852426"><ele>908.0</ele><time>2026-03-26T08:56:48.022Z</time></trkpt><trkpt lat="30.67238770060153" lon="-6.36433658291259"><ele>909.0</ele><time>2026-03-26T08:56:49.022Z</time></trkpt><trkpt lat="30.672397316315102" lon="-6.364503763842139"><ele>910.0</ele><time>2026-03-26T08:56:50.022Z</time></trkpt><trkpt lat="30.672404824713666" lon="-6.364672097238536"><ele>910.5</ele><time>2026-03-26T08:56:51.022Z</time></trkpt><trkpt lat="30.672413628264724" lon="-6.364840735872631"><ele>911.0</ele><time>2026-03-26T08:56:52.022Z</time></trkpt><trkpt lat="30.67242162412705" lon="-6.365014125425314"><ele>911.5</ele><time>2026-03-26T08:56:53.022Z</time></trkpt><trkpt lat="30.6724318032129" lon="-6.365186968055391"><ele>912.0</ele><time>2026-03-26T08:56:54.022Z</time></trkpt><trkpt lat="30.672437665107715" lon="-6.3653620282131085"><ele>912.0</ele><time>2026-03-26T08:56:55.022Z</time></trkpt><trkpt lat="30.67244568311312" lon="-6.365538756321102"><ele>912.0</ele><time>2026-03-26T08:56:56.022Z</time></trkpt><trkpt lat="30.672452714554286" lon="-6.3657168095840015"><ele>912.0</ele><time>2026-03-26T08:56:57.022Z</time></trkpt><trkpt lat="30.672459311422706" lon="-6.365895229955119"><ele>912.0</ele><time>2026-03-26T08:56:58.022Z</time></trkpt><trkpt lat="30.67246253689361" lon="-6.36607448944001"><ele>912.0</ele><time>2026-03-26T08:56:59.022Z</time></trkpt><trkpt lat="30.672459515711285" lon="-6.3662452870443165"><ele>912.0</ele><time>2026-03-26T08:57:00.022Z</time></trkpt><trkpt lat="30.672450095810305" lon="-6.3664146946559566"><ele>912.0</ele><time>2026-03-26T08:57:01.022Z</time></trkpt><trkpt lat="30.672431955416705" lon="-6.36658424591369"><ele>910.5</ele><time>2026-03-26T08:57:02.022Z</time></trkpt><trkpt lat="30.672407728042995" lon="-6.366747772568457"><ele>909.0</ele><time>2026-03-26T08:57:03.022Z</time></trkpt><trkpt lat="30.6723811092714" lon="-6.36690975542724"><ele>907.5</ele><time>2026-03-26T08:57:04.022Z</time></trkpt><trkpt lat="30.67235070214145" lon="-6.36706873446113"><ele>906.0</ele><time>2026-03-26T08:57:05.022Z</time></trkpt><trkpt lat="30.672319446529" lon="-6.367228295068934"><ele>906.0</ele><time>2026-03-26T08:57:06.022Z</time></trkpt><trkpt lat="30.672293588984438" lon="-6.367387241389252"><ele>906.0</ele><time>2026-03-26T08:57:07.022Z</time></trkpt><trkpt lat="30.672272937532387" lon="-6.3675387087132265"><ele>906.0</ele><time>2026-03-26T08:57:08.022Z</time></trkpt><trkpt lat="30.67226124471246" lon="-6.3676922358754044"><ele>906.0</ele><time>2026-03-26T08:57:09.022Z</time></trkpt><trkpt lat="30.672257033528332" lon="-6.36784887726475"><ele>906.0</ele><time>2026-03-26T08:57:10.022Z</time></trkpt><trkpt lat="30.672257118194455" lon="-6.368011812038482"><ele>906.0</ele><time>2026-03-26T08:57:11.022Z</time></trkpt><trkpt lat="30.67225944762632" lon="-6.368172466283506"><ele>906.0</ele><time>2026-03-26T08:57:12.022Z</time></trkpt><trkpt lat="30.672267072083265" lon="-6.368315527930189"><ele>906.0</ele><time>2026-03-26T08:57:13.022Z</time></trkpt><trkpt lat="30.672272377356187" lon="-6.368446964518751"><ele>906.0</ele><time>2026-03-26T08:57:14.022Z</time></trkpt><trkpt lat="30.672273603446175" lon="-6.36858278012626"><ele>906.0</ele><time>2026-03-26T08:57:15.022Z</time></trkpt><trkpt lat="30.672266144045825" lon="-6.368734419164183"><ele>906.0</ele><time>2026-03-26T08:57:16.022Z</time></trkpt><trkpt lat="30.672250498121112" lon="-6.368888831856802"><ele>906.0</ele><time>2026-03-26T08:57:17.022Z</time></trkpt><trkpt lat="30.672227018167796" lon="-6.36905492709633"><ele>906.25</ele><time>2026-03-26T08:57:18.022Z</time></trkpt><trkpt lat="30.672198723822895" lon="-6.369200160460048"><ele>906.5</ele><time>2026-03-26T08:57:19.022Z</time></trkpt><trkpt lat="30.672165739556643" lon="-6.369346424866338"><ele>906.75</ele><time>2026-03-26T08:57:20.022Z</time></trkpt><trkpt lat="30.67212928042707" lon="-6.369485787704479"><ele>907.0</ele><time>2026-03-26T08:57:21.022Z</time></trkpt><trkpt lat="30.672099821539863" lon="-6.369602854896598"><ele>906.8333333333333</ele><time>2026-03-26T08:57:22.022Z</time></trkpt><trkpt lat="30.67207771975212" lon="-6.369702316020289"><ele>906.6666666666666</ele><time>2026-03-26T08:57:23.022Z</time></trkpt><trkpt lat="30.67205785954226" lon="-6.369795142224082"><ele>906.5</ele><time>2026-03-26T08:57:24.022Z</time></trkpt><trkpt lat="30.67203914831555" lon="-6.369884383110823"><ele>906.3333333333333</ele><time>2026-03-26T08:57:25.023Z</time></trkpt><trkpt lat="30.67201872857957" lon="-6.369965383506031"><ele>906.1666666666666</ele><time>2026-03-26T08:57:26.022Z</time></trkpt><trkpt lat="30.671993903467325" lon="-6.370084595486087"><ele>906.0</ele><time>2026-03-26T08:57:28.022Z</time></trkpt><trkpt lat="30.671974422205505" lon="-6.370171883326145"><ele>906.0</ele><time>2026-03-26T08:57:30.023Z</time></trkpt><trkpt lat="30.671951925227336" lon="-6.3702653124005115"><ele>906.0</ele><time>2026-03-26T08:57:33.022Z</time></trkpt><trkpt lat="30.671931406651712" lon="-6.370339360123746"><ele>906.0</ele><time>2026-03-26T08:57:36.023Z</time></trkpt><trkpt lat="30.671920862683546" lon="-6.3704177785821035"><ele>906.0</ele><time>2026-03-26T08:57:40.022Z</time></trkpt><trkpt lat="30.67189367632269" lon="-6.370501500243659"><ele>906.0</ele><time>2026-03-26T09:04:31.026Z</time></trkpt><trkpt lat="30.671861212780158" lon="-6.370646860852165"><ele>906.0</ele><time>2026-03-26T09:04:33.026Z</time></trkpt><trkpt lat="30.67184453368716" lon="-6.370739278051138"><ele>906.1999999999999</ele><time>2026-03-26T09:04:34.026Z</time></trkpt><trkpt lat="30.671830015230828" lon="-6.3708434636732845"><ele>906.3999999999999</ele><time>2026-03-26T09:04:35.026Z</time></trkpt><trkpt lat="30.671816294835764" lon="-6.37095366702949"><ele>906.6</ele><time>2026-03-26T09:04:36.026Z</time></trkpt><trkpt lat="30.671803437505492" lon="-6.371074947173219"><ele>906.8</ele><time>2026-03-26T09:04:37.026Z</time></trkpt><trkpt lat="30.671793476543115" lon="-6.3711978949327515"><ele>907.0</ele><time>2026-03-26T09:04:38.026Z</time></trkpt><trkpt lat="30.671787121959902" lon="-6.371324614049593"><ele>907.6</ele><time>2026-03-26T09:04:39.026Z</time></trkpt><trkpt lat="30.67178535796247" lon="-6.371450924998539"><ele>908.2</ele><time>2026-03-26T09:04:40.026Z</time></trkpt><trkpt lat="30.671779580245232" lon="-6.371572125846994"><ele>908.8</ele><time>2026-03-26T09:04:41.026Z</time></trkpt><trkpt lat="30.671776108435107" lon="-6.371703770390128"><ele>909.4</ele><time>2026-03-26T09:04:42.026Z</time></trkpt><trkpt lat="30.671769143205516" lon="-6.371838013741648"><ele>910.0</ele><time>2026-03-26T09:04:43.026Z</time></trkpt><trkpt lat="30.671757240864082" lon="-6.37197134668254"><ele>910.0</ele><time>2026-03-26T09:04:44.026Z</time></trkpt><trkpt lat="30.671744690877677" lon="-6.372112623662771"><ele>910.0</ele><time>2026-03-26T09:04:45.026Z</time></trkpt><trkpt lat="30.67173528686886" lon="-6.372266787248415"><ele>910.0</ele><time>2026-03-26T09:04:46.026Z</time></trkpt><trkpt lat="30.671717483761046" lon="-6.372419321687662"><ele>910.0</ele><time>2026-03-26T09:04:47.026Z</time></trkpt><trkpt lat="30.671689590558092" lon="-6.372574435767395"><ele>910.25</ele><time>2026-03-26T09:04:48.026Z</time></trkpt><trkpt lat="30.671655420580617" lon="-6.372733399512662"><ele>910.5</ele><time>2026-03-26T09:04:49.026Z</time></trkpt><trkpt lat="30.671614548009085" lon="-6.372893388032489"><ele>910.75</ele><time>2026-03-26T09:04:50.026Z</time></trkpt><trkpt lat="30.67157002205581" lon="-6.373047944734089"><ele>911.0</ele><time>2026-03-26T09:04:51.026Z</time></trkpt><trkpt lat="30.671515441795062" lon="-6.373215739464837"><ele>909.3333333333334</ele><time>2026-03-26T09:04:52.026Z</time></trkpt><trkpt lat="30.67145318219273" lon="-6.373391619657365"><ele>907.6666666666667</ele><time>2026-03-26T09:04:53.026Z</time></trkpt><trkpt lat="30.671375111973575" lon="-6.373555848522316"><ele>906.0</ele><time>2026-03-26T09:04:54.026Z</time></trkpt><trkpt lat="30.671293045293954" lon="-6.373718471119361"><ele>904.6666666666667</ele><time>2026-03-26T09:04:55.026Z</time></trkpt><trkpt lat="30.671211402254755" lon="-6.373876930629589"><ele>903.3333333333334</ele><time>2026-03-26T09:04:56.026Z</time></trkpt><trkpt lat="30.6711363416749" lon="-6.374031949325171"><ele>902.0</ele><time>2026-03-26T09:04:57.026Z</time></trkpt><trkpt lat="30.671068301619457" lon="-6.374181276160168"><ele>902.75</ele><time>2026-03-26T09:04:58.026Z</time></trkpt><trkpt lat="30.671004032225547" lon="-6.37433391705846"><ele>903.5</ele><time>2026-03-26T09:04:59.026Z</time></trkpt><trkpt lat="30.670937782132178" lon="-6.3744771769754145"><ele>904.25</ele><time>2026-03-26T09:05:00.026Z</time></trkpt><trkpt lat="30.670869101419132" lon="-6.374621871676412"><ele>905.0</ele><time>2026-03-26T09:05:01.026Z</time></trkpt><trkpt lat="30.67080131049517" lon="-6.37475852706311"><ele>905.0</ele><time>2026-03-26T09:05:02.026Z</time></trkpt><trkpt lat="30.670730438072674" lon="-6.374891488027427"><ele>905.0</ele><time>2026-03-26T09:05:03.026Z</time></trkpt><trkpt lat="30.670652390757333" lon="-6.375021130629472"><ele>905.0</ele><time>2026-03-26T09:05:04.026Z</time></trkpt><trkpt lat="30.67056736457024" lon="-6.37514115463826"><ele>905.0</ele><time>2026-03-26T09:05:05.026Z</time></trkpt><trkpt lat="30.670477014801804" lon="-6.375258635891108"><ele>905.0</ele><time>2026-03-26T09:05:06.026Z</time></trkpt><trkpt lat="30.670376561335743" lon="-6.37536585907785"><ele>905.0</ele><time>2026-03-26T09:05:07.026Z</time></trkpt><trkpt lat="30.67027383338637" lon="-6.37547149204499"><ele>905.0</ele><time>2026-03-26T09:05:08.026Z</time></trkpt><trkpt lat="30.670162356703454" lon="-6.375567642671727"><ele>905.0</ele><time>2026-03-26T09:05:09.026Z</time></trkpt><trkpt lat="30.67005379404142" lon="-6.375667795972702"><ele>907.0</ele><time>2026-03-26T09:05:10.026Z</time></trkpt><trkpt lat="30.669939873134766" lon="-6.375756491638987"><ele>909.0</ele><time>2026-03-26T09:05:11.026Z</time></trkpt><trkpt lat="30.66982441820833" lon="-6.375840775256482"><ele>911.0</ele><time>2026-03-26T09:05:12.026Z</time></trkpt><trkpt lat="30.669707547626647" lon="-6.375936414134604"><ele>913.0</ele><time>2026-03-26T09:05:13.026Z</time></trkpt><trkpt lat="30.66958689936991" lon="-6.376028873455348"><ele>913.0</ele><time>2026-03-26T09:05:14.026Z</time></trkpt><trkpt lat="30.66947161327512" lon="-6.376138124631676"><ele>913.0</ele><time>2026-03-26T09:05:15.026Z</time></trkpt><trkpt lat="30.66936651052826" lon="-6.376273642097174"><ele>913.0</ele><time>2026-03-26T09:05:16.026Z</time></trkpt><trkpt lat="30.669263379943647" lon="-6.376411616789165"><ele>911.3333333333333</ele><time>2026-03-26T09:05:17.026Z</time></trkpt><trkpt lat="30.669172976749167" lon="-6.376559603379878"><ele>909.6666666666667</ele><time>2026-03-26T09:05:18.026Z</time></trkpt><trkpt lat="30.669103017673788" lon="-6.376730941814624"><ele>908.0</ele><time>2026-03-26T09:05:19.026Z</time></trkpt><trkpt lat="30.669039322584418" lon="-6.3768944232612155"><ele>908.0</ele><time>2026-03-26T09:05:20.026Z</time></trkpt><trkpt lat="30.66900167052232" lon="-6.377072771535129"><ele>908.0</ele><time>2026-03-26T09:05:21.026Z</time></trkpt><trkpt lat="30.668957587995244" lon="-6.37725436588341"><ele>908.0</ele><time>2026-03-26T09:05:22.026Z</time></trkpt><trkpt lat="30.668891865767428" lon="-6.377458795563519"><ele>908.0</ele><time>2026-03-26T09:05:23.026Z</time></trkpt><trkpt lat="30.668810865801" lon="-6.377664401621003"><ele>908.0</ele><time>2026-03-26T09:05:24.026Z</time></trkpt><trkpt lat="30.66871267372818" lon="-6.377863880061646"><ele>908.0</ele><time>2026-03-26T09:05:25.026Z</time></trkpt><trkpt lat="30.66861716737458" lon="-6.378026924982426"><ele>909.6666666666667</ele><time>2026-03-26T09:05:26.026Z</time></trkpt><trkpt lat="30.668523164690082" lon="-6.378175724504286"><ele>911.3333333333333</ele><time>2026-03-26T09:05:27.026Z</time></trkpt><trkpt lat="30.668429689954518" lon="-6.378321749678895"><ele>913.0</ele><time>2026-03-26T09:05:28.026Z</time></trkpt><trkpt lat="30.668336515465167" lon="-6.378469278476719"><ele>913.0</ele><time>2026-03-26T09:05:29.026Z</time></trkpt><trkpt lat="30.668249779162423" lon="-6.378608265333669"><ele>913.0</ele><time>2026-03-26T09:05:30.026Z</time></trkpt><trkpt lat="30.668162036167338" lon="-6.378741090081136"><ele>913.0</ele><time>2026-03-26T09:05:31.026Z</time></trkpt><trkpt lat="30.668076618820884" lon="-6.378878204553956"><ele>913.0</ele><time>2026-03-26T09:05:32.026Z</time></trkpt><trkpt lat="30.66799678744967" lon="-6.379024161723752"><ele>912.3333333333333</ele><time>2026-03-26T09:05:33.026Z</time></trkpt><trkpt lat="30.667933442975528" lon="-6.3791799940999905"><ele>911.6666666666667</ele><time>2026-03-26T09:05:34.026Z</time></trkpt><trkpt lat="30.6678881102314" lon="-6.379349149237394"><ele>911.0</ele><time>2026-03-26T09:05:35.026Z</time></trkpt><trkpt lat="30.667859809234503" lon="-6.37952987484241"><ele>910.0</ele><time>2026-03-26T09:05:36.026Z</time></trkpt><trkpt lat="30.66783278526748" lon="-6.379709757722691"><ele>909.0</ele><time>2026-03-26T09:05:37.026Z</time></trkpt><trkpt lat="30.667816023480494" lon="-6.3798976248890735"><ele>908.0</ele><time>2026-03-26T09:05:38.026Z</time></trkpt><trkpt lat="30.66778922971374" lon="-6.3800833300874835"><ele>913.6666666666667</ele><time>2026-03-26T09:05:39.026Z</time></trkpt><trkpt lat="30.667767330568147" lon="-6.3802615855953295"><ele>919.3333333333333</ele><time>2026-03-26T09:05:40.026Z</time></trkpt><trkpt lat="30.667755628456973" lon="-6.38044303303534"><ele>925.0</ele><time>2026-03-26T09:05:41.026Z</time></trkpt><trkpt lat="30.667734586844848" lon="-6.380617672718558"><ele>925.25</ele><time>2026-03-26T09:05:42.026Z</time></trkpt><trkpt lat="30.66773041194828" lon="-6.3807937295962835"><ele>925.5</ele><time>2026-03-26T09:05:43.026Z</time></trkpt><trkpt lat="30.66772688388176" lon="-6.380967251251277"><ele>925.75</ele><time>2026-03-26T09:05:44.026Z</time></trkpt><trkpt lat="30.66772048659511" lon="-6.381139304878689"><ele>926.0</ele><time>2026-03-26T09:05:45.026Z</time></trkpt><trkpt lat="30.66772294164322" lon="-6.381316219428914"><ele>923.3333333333334</ele><time>2026-03-26T09:05:46.026Z</time></trkpt><trkpt lat="30.66772316982209" lon="-6.381497263740873"><ele>920.6666666666667</ele><time>2026-03-26T09:05:47.026Z</time></trkpt><trkpt lat="30.66772349732836" lon="-6.381679746839133"><ele>918.0</ele><time>2026-03-26T09:05:48.026Z</time></trkpt><trkpt lat="30.667733488245638" lon="-6.381865742257945"><ele>918.0</ele><time>2026-03-26T09:05:49.026Z</time></trkpt><trkpt lat="30.667739199280522" lon="-6.382052449793816"><ele>918.0</ele><time>2026-03-26T09:05:50.026Z</time></trkpt><trkpt lat="30.66774839859752" lon="-6.382238712838271"><ele>918.0</ele><time>2026-03-26T09:05:51.026Z</time></trkpt><trkpt lat="30.667766175682914" lon="-6.3824278495701625"><ele>916.0</ele><time>2026-03-26T09:05:52.026Z</time></trkpt><trkpt lat="30.667781406304243" lon="-6.382625701150771"><ele>914.0</ele><time>2026-03-26T09:05:53.026Z</time></trkpt><trkpt lat="30.667798693357927" lon="-6.382836942130496"><ele>912.0</ele><time>2026-03-26T09:05:54.026Z</time></trkpt><trkpt lat="30.667820724236975" lon="-6.383058698005225"><ele>912.0</ele><time>2026-03-26T09:05:55.027Z</time></trkpt><trkpt lat="30.66784310265189" lon="-6.383278156458345"><ele>912.0</ele><time>2026-03-26T09:05:56.026Z</time></trkpt><trkpt lat="30.667862994437716" lon="-6.383489103085297"><ele>912.0</ele><time>2026-03-26T09:05:57.026Z</time></trkpt><trkpt lat="30.66788209993515" lon="-6.383692540552948"><ele>911.3333333333333</ele><time>2026-03-26T09:05:58.026Z</time></trkpt><trkpt lat="30.667904329663585" lon="-6.383887705475425"><ele>910.6666666666666</ele><time>2026-03-26T09:05:59.026Z</time></trkpt><trkpt lat="30.66792563906928" lon="-6.384075049996784"><ele>910.0</ele><time>2026-03-26T09:06:00.026Z</time></trkpt><trkpt lat="30.66794211364582" lon="-6.384262081590137"><ele>910.0</ele><time>2026-03-26T09:06:01.026Z</time></trkpt><trkpt lat="30.667956400657467" lon="-6.3844498209856635"><ele>910.0</ele><time>2026-03-26T09:06:02.026Z</time></trkpt><trkpt lat="30.66797781348892" lon="-6.384636432729409"><ele>910.0</ele><time>2026-03-26T09:06:03.026Z</time></trkpt><trkpt lat="30.66799204710584" lon="-6.384824956463224"><ele>910.0</ele><time>2026-03-26T09:06:04.026Z</time></trkpt><trkpt lat="30.66802135703121" lon="-6.385016352352689"><ele>910.0</ele><time>2026-03-26T09:06:05.026Z</time></trkpt><trkpt lat="30.668057248684832" lon="-6.385214731276208"><ele>910.0</ele><time>2026-03-26T09:06:06.026Z</time></trkpt><trkpt lat="30.66809117447186" lon="-6.385416143591385"><ele>910.3333333333333</ele><time>2026-03-26T09:06:07.026Z</time></trkpt><trkpt lat="30.66813173250729" lon="-6.385616786716559"><ele>910.6666666666667</ele><time>2026-03-26T09:06:08.026Z</time></trkpt><trkpt lat="30.668172778321697" lon="-6.385811501710662"><ele>911.0</ele><time>2026-03-26T09:06:09.026Z</time></trkpt><trkpt lat="30.668212179393105" lon="-6.385999571092999"><ele>911.0</ele><time>2026-03-26T09:06:10.026Z</time></trkpt><trkpt lat="30.668249434804412" lon="-6.386187908972259"><ele>911.0</ele><time>2026-03-26T09:06:11.026Z</time></trkpt><trkpt lat="30.668282415124846" lon="-6.386371076402016"><ele>911.0</ele><time>2026-03-26T09:06:12.026Z</time></trkpt><trkpt lat="30.668313984964655" lon="-6.38654935772468"><ele>911.3333333333334</ele><time>2026-03-26T09:06:13.026Z</time></trkpt><trkpt lat="30.668344808641013" lon="-6.386725875888153"><ele>911.6666666666667</ele><time>2026-03-26T09:06:14.026Z</time></trkpt><trkpt lat="30.668374612605596" lon="-6.386904231343673"><ele>912.0</ele><time>2026-03-26T09:06:15.026Z</time></trkpt><trkpt lat="30.668400286368897" lon="-6.3870859181898"><ele>912.3333333333333</ele><time>2026-03-26T09:06:16.026Z</time></trkpt><trkpt lat="30.66842587103443" lon="-6.387278510509964"><ele>912.6666666666666</ele><time>2026-03-26T09:06:17.026Z</time></trkpt><trkpt lat="30.668454570008038" lon="-6.387477551107298"><ele>913.0</ele><time>2026-03-26T09:06:18.026Z</time></trkpt><trkpt lat="30.668488040741792" lon="-6.387678028813901"><ele>913.0</ele><time>2026-03-26T09:06:19.026Z</time></trkpt><trkpt lat="30.66852217230467" lon="-6.387878132463392"><ele>913.0</ele><time>2026-03-26T09:06:20.026Z</time></trkpt><trkpt lat="30.668555302449338" lon="-6.388069126658352"><ele>913.0</ele><time>2026-03-26T09:06:21.026Z</time></trkpt><trkpt lat="30.668585855801087" lon="-6.388260699384389"><ele>912.0</ele><time>2026-03-26T09:06:22.026Z</time></trkpt><trkpt lat="30.668613035361602" lon="-6.388455338175897"><ele>911.0</ele><time>2026-03-26T09:06:23.026Z</time></trkpt><trkpt lat="30.66863655774526" lon="-6.388647445848828"><ele>910.0</ele><time>2026-03-26T09:06:24.026Z</time></trkpt><trkpt lat="30.668652790099234" lon="-6.388843577686564"><ele>910.0</ele><time>2026-03-26T09:06:25.026Z</time></trkpt><trkpt lat="30.668665147092703" lon="-6.389039282323668"><ele>910.0</ele><time>2026-03-26T09:06:26.026Z</time></trkpt><trkpt lat="30.668671578901325" lon="-6.389236105301822"><ele>910.0</ele><time>2026-03-26T09:06:27.026Z</time></trkpt><trkpt lat="30.668673560384082" lon="-6.389434695183425"><ele>910.0</ele><time>2026-03-26T09:06:28.026Z</time></trkpt><trkpt lat="30.66867105348793" lon="-6.38963076976818"><ele>910.0</ele><time>2026-03-26T09:06:29.026Z</time></trkpt><trkpt lat="30.668656201254098" lon="-6.389819566704489"><ele>910.0</ele><time>2026-03-26T09:06:30.026Z</time></trkpt><trkpt lat="30.66862921612972" lon="-6.390013641394681"><ele>911.6666666666666</ele><time>2026-03-26T09:06:31.026Z</time></trkpt><trkpt lat="30.668584544572166" lon="-6.390201972438575"><ele>913.3333333333333</ele><time>2026-03-26T09:06:32.026Z</time></trkpt><trkpt lat="30.668526544308275" lon="-6.390373506682229"><ele>915.0</ele><time>2026-03-26T09:06:33.026Z</time></trkpt><trkpt lat="30.668459951768867" lon="-6.390536936033948"><ele>915.0</ele><time>2026-03-26T09:06:34.026Z</time></trkpt><trkpt lat="30.668392794936214" lon="-6.390699269952773"><ele>915.0</ele><time>2026-03-26T09:06:35.026Z</time></trkpt><trkpt lat="30.6683281664007" lon="-6.390864158552577"><ele>915.0</ele><time>2026-03-26T09:06:36.026Z</time></trkpt><trkpt lat="30.66827652505375" lon="-6.391026362662691"><ele>915.0</ele><time>2026-03-26T09:06:37.026Z</time></trkpt><trkpt lat="30.668248929190057" lon="-6.39120150858434"><ele>915.0</ele><time>2026-03-26T09:06:38.026Z</time></trkpt><trkpt lat="30.668221909087602" lon="-6.391378807473647"><ele>915.0</ele><time>2026-03-26T09:06:39.026Z</time></trkpt><trkpt lat="30.668192224151316" lon="-6.391561167297334"><ele>914.3333333333333</ele><time>2026-03-26T09:06:40.026Z</time></trkpt><trkpt lat="30.668161428637077" lon="-6.391751043486484"><ele>913.6666666666666</ele><time>2026-03-26T09:06:41.026Z</time></trkpt><trkpt lat="30.66812876829289" lon="-6.391937880466774"><ele>913.0</ele><time>2026-03-26T09:06:42.026Z</time></trkpt><trkpt lat="30.66810609550099" lon="-6.392127726311018"><ele>913.0</ele><time>2026-03-26T09:06:43.026Z</time></trkpt><trkpt lat="30.66808597738551" lon="-6.392324284874745"><ele>913.0</ele><time>2026-03-26T09:06:44.026Z</time></trkpt><trkpt lat="30.668091326067678" lon="-6.392511204441358"><ele>913.0</ele><time>2026-03-26T09:06:45.026Z</time></trkpt><trkpt lat="30.66811010780929" lon="-6.3927010169962255"><ele>913.0</ele><time>2026-03-26T09:06:46.026Z</time></trkpt><trkpt lat="30.66814356499525" lon="-6.392885721890139"><ele>913.0</ele><time>2026-03-26T09:06:47.026Z</time></trkpt><trkpt lat="30.66819796545449" lon="-6.393079040993439"><ele>913.0</ele><time>2026-03-26T09:06:48.026Z</time></trkpt><trkpt lat="30.668267863918285" lon="-6.3932767246594215"><ele>913.6666666666666</ele><time>2026-03-26T09:06:49.026Z</time></trkpt><trkpt lat="30.668341674254126" lon="-6.393469500403951"><ele>914.3333333333333</ele><time>2026-03-26T09:06:50.026Z</time></trkpt><trkpt lat="30.668418723233803" lon="-6.393659357294649"><ele>915.0</ele><time>2026-03-26T09:06:51.026Z</time></trkpt><trkpt lat="30.66849228580553" lon="-6.39384310521827"><ele>916.6666666666667</ele><time>2026-03-26T09:06:52.026Z</time></trkpt><trkpt lat="30.668558884256583" lon="-6.394016758743508"><ele>918.3333333333334</ele><time>2026-03-26T09:06:53.026Z</time></trkpt><trkpt lat="30.668615782822712" lon="-6.394190337837208"><ele>920.0</ele><time>2026-03-26T09:06:54.026Z</time></trkpt><trkpt lat="30.668659698902626" lon="-6.3943642459371315"><ele>916.6666666666667</ele><time>2026-03-26T09:06:55.026Z</time></trkpt><trkpt lat="30.668690663024126" lon="-6.394543742196772"><ele>913.3333333333333</ele><time>2026-03-26T09:06:56.026Z</time></trkpt><trkpt lat="30.66871217427675" lon="-6.394724544997026"><ele>910.0</ele><time>2026-03-26T09:06:57.026Z</time></trkpt><trkpt lat="30.668721536879648" lon="-6.394910484253222"><ele>910.0</ele><time>2026-03-26T09:06:58.026Z</time></trkpt><trkpt lat="30.668724403661585" lon="-6.395102607859834"><ele>910.0</ele><time>2026-03-26T09:06:59.026Z</time></trkpt><trkpt lat="30.66872602452803" lon="-6.3952989320680835"><ele>910.0</ele><time>2026-03-26T09:07:00.026Z</time></trkpt><trkpt lat="30.66872696392079" lon="-6.39549849605462"><ele>910.0</ele><time>2026-03-26T09:07:01.026Z</time></trkpt><trkpt lat="30.668726680898807" lon="-6.395704203066252"><ele>910.0</ele><time>2026-03-26T09:07:02.026Z</time></trkpt><trkpt lat="30.668725964893326" lon="-6.395905744246897"><ele>910.0</ele><time>2026-03-26T09:07:03.026Z</time></trkpt><trkpt lat="30.668725721341563" lon="-6.396109555877801"><ele>910.0</ele><time>2026-03-26T09:07:04.026Z</time></trkpt><trkpt lat="30.66872746941901" lon="-6.396316414652649"><ele>910.0</ele><time>2026-03-26T09:07:05.026Z</time></trkpt><trkpt lat="30.66872679896772" lon="-6.396523976968193"><ele>910.0</ele><time>2026-03-26T09:07:06.026Z</time></trkpt><trkpt lat="30.668729237604726" lon="-6.396731085376856"><ele>909.6666666666666</ele><time>2026-03-26T09:07:07.026Z</time></trkpt><trkpt lat="30.66873556166361" lon="-6.396930298383278"><ele>909.3333333333333</ele><time>2026-03-26T09:07:08.026Z</time></trkpt><trkpt lat="30.668747597413013" lon="-6.397131205652987"><ele>909.0</ele><time>2026-03-26T09:07:09.026Z</time></trkpt><trkpt lat="30.668767713161444" lon="-6.397330824375184"><ele>909.0</ele><time>2026-03-26T09:07:10.026Z</time></trkpt><trkpt lat="30.668792363953557" lon="-6.397532239994869"><ele>909.0</ele><time>2026-03-26T09:07:11.026Z</time></trkpt><trkpt lat="30.668819405497008" lon="-6.39773732929822"><ele>909.0</ele><time>2026-03-26T09:07:12.026Z</time></trkpt><trkpt lat="30.66884419468801" lon="-6.397939687893059"><ele>908.6666666666667</ele><time>2026-03-26T09:07:13.026Z</time></trkpt><trkpt lat="30.668866717526893" lon="-6.398143050334607"><ele>908.3333333333334</ele><time>2026-03-26T09:07:14.026Z</time></trkpt><trkpt lat="30.668892550449193" lon="-6.398347215702751"><ele>908.0</ele><time>2026-03-26T09:07:15.026Z</time></trkpt><trkpt lat="30.66891850715348" lon="-6.398548854065336"><ele>908.0</ele><time>2026-03-26T09:07:16.026Z</time></trkpt><trkpt lat="30.66894219524457" lon="-6.39875379744738"><ele>908.0</ele><time>2026-03-26T09:07:17.026Z</time></trkpt><trkpt lat="30.6689689137694" lon="-6.398962710136732"><ele>908.0</ele><time>2026-03-26T09:07:18.026Z</time></trkpt><trkpt lat="30.668995904162667" lon="-6.39917815000804"><ele>908.3333333333334</ele><time>2026-03-26T09:07:19.026Z</time></trkpt><trkpt lat="30.66902003684702" lon="-6.399381597995209"><ele>908.6666666666667</ele><time>2026-03-26T09:07:20.026Z</time></trkpt><trkpt lat="30.669043314579135" lon="-6.399576718027928"><ele>909.0</ele><time>2026-03-26T09:07:21.026Z</time></trkpt><trkpt lat="30.669067440052636" lon="-6.39976890183419"><ele>910.0</ele><time>2026-03-26T09:07:22.026Z</time></trkpt><trkpt lat="30.669091918388357" lon="-6.399962914092033"><ele>911.0</ele><time>2026-03-26T09:07:23.026Z</time></trkpt><trkpt lat="30.669116177335557" lon="-6.40016262448106"><ele>912.0</ele><time>2026-03-26T09:07:24.026Z</time></trkpt><trkpt lat="30.669138915284826" lon="-6.400366829967223"><ele>912.0</ele><time>2026-03-26T09:07:25.026Z</time></trkpt><trkpt lat="30.669163071283176" lon="-6.400567165838377"><ele>912.0</ele><time>2026-03-26T09:07:26.026Z</time></trkpt><trkpt lat="30.669189454807416" lon="-6.400765642018775"><ele>912.0</ele><time>2026-03-26T09:07:27.026Z</time></trkpt><trkpt lat="30.66921857136934" lon="-6.400972602818081"><ele>912.0</ele><time>2026-03-26T09:07:28.026Z</time></trkpt><trkpt lat="30.66924949797845" lon="-6.401184131913728"><ele>912.0</ele><time>2026-03-26T09:07:29.026Z</time></trkpt><trkpt lat="30.669284689086975" lon="-6.401392325525951"><ele>912.0</ele><time>2026-03-26T09:07:30.026Z</time></trkpt><trkpt lat="30.66932934592911" lon="-6.4016008740030355"><ele>913.0</ele><time>2026-03-26T09:07:31.026Z</time></trkpt><trkpt lat="30.669372810610554" lon="-6.4018049212152155"><ele>914.0</ele><time>2026-03-26T09:07:32.026Z</time></trkpt><trkpt lat="30.669415683435748" lon="-6.4020118571311535"><ele>915.0</ele><time>2026-03-26T09:07:33.026Z</time></trkpt><trkpt lat="30.66945681824283" lon="-6.402215483561137"><ele>912.3333333333333</ele><time>2026-03-26T09:07:34.026Z</time></trkpt><trkpt lat="30.669500794165742" lon="-6.40241643905294"><ele>909.6666666666666</ele><time>2026-03-26T09:07:35.026Z</time></trkpt><trkpt lat="30.669542697386245" lon="-6.402608376095174"><ele>907.0</ele><time>2026-03-26T09:07:36.026Z</time></trkpt><trkpt lat="30.669585173417794" lon="-6.40280008418277"><ele>907.0</ele><time>2026-03-26T09:07:37.026Z</time></trkpt><trkpt lat="30.669642810817276" lon="-6.40298494122712"><ele>907.0</ele><time>2026-03-26T09:07:38.026Z</time></trkpt><trkpt lat="30.669688560046037" lon="-6.403180263342266"><ele>907.0</ele><time>2026-03-26T09:07:39.026Z</time></trkpt><trkpt lat="30.669729720654672" lon="-6.403375998451178"><ele>907.6666666666666</ele><time>2026-03-26T09:07:40.026Z</time></trkpt><trkpt lat="30.669765109097163" lon="-6.4035730739981025"><ele>908.3333333333333</ele><time>2026-03-26T09:07:41.026Z</time></trkpt><trkpt lat="30.669788365663344" lon="-6.403781240794544"><ele>909.0</ele><time>2026-03-26T09:07:42.026Z</time></trkpt><trkpt lat="30.66984841317503" lon="-6.403989220432791"><ele>911.3333333333333</ele><time>2026-03-26T09:07:43.026Z</time></trkpt><trkpt lat="30.66991487998315" lon="-6.404181711429721"><ele>913.6666666666666</ele><time>2026-03-26T09:07:44.026Z</time></trkpt><trkpt lat="30.669991933767907" lon="-6.404359439631851"><ele>916.0</ele><time>2026-03-26T09:07:45.026Z</time></trkpt><trkpt lat="30.67008315223361" lon="-6.404523165207165"><ele>915.6666666666666</ele><time>2026-03-26T09:07:46.026Z</time></trkpt><trkpt lat="30.67018803172429" lon="-6.40467897470146"><ele>915.3333333333333</ele><time>2026-03-26T09:07:47.026Z</time></trkpt><trkpt lat="30.670307192857365" lon="-6.404825892914902"><ele>915.0</ele><time>2026-03-26T09:07:48.026Z</time></trkpt><trkpt lat="30.67042883380844" lon="-6.4049721976313965"><ele>915.0</ele><time>2026-03-26T09:07:49.026Z</time></trkpt><trkpt lat="30.670572836541112" lon="-6.40510768341453"><ele>915.0</ele><time>2026-03-26T09:07:50.026Z</time></trkpt><trkpt lat="30.67073259792236" lon="-6.405229983431149"><ele>915.0</ele><time>2026-03-26T09:07:51.026Z</time></trkpt><trkpt lat="30.670902249794846" lon="-6.405342271521642"><ele>915.0</ele><time>2026-03-26T09:07:52.026Z</time></trkpt><trkpt lat="30.671079570633843" lon="-6.405440205140001"><ele>915.0</ele><time>2026-03-26T09:07:53.026Z</time></trkpt><trkpt lat="30.671248552996882" lon="-6.405523503957947"><ele>915.0</ele><time>2026-03-26T09:07:54.026Z</time></trkpt><trkpt lat="30.6714149768605" lon="-6.405606284576454"><ele>914.3333333333333</ele><time>2026-03-26T09:07:55.027Z</time></trkpt><trkpt lat="30.671572882309317" lon="-6.4056845113965615"><ele>913.6666666666666</ele><time>2026-03-26T09:07:56.027Z</time></trkpt><trkpt lat="30.67173203062791" lon="-6.4057607871438496"><ele>913.0</ele><time>2026-03-26T09:07:57.027Z</time></trkpt><trkpt lat="30.671891795913698" lon="-6.405845097934545"><ele>912.0</ele><time>2026-03-26T09:07:58.027Z</time></trkpt><trkpt lat="30.67205413179577" lon="-6.405932236397102"><ele>911.0</ele><time>2026-03-26T09:07:59.027Z</time></trkpt><trkpt lat="30.672212954835675" lon="-6.406014107328717"><ele>910.0</ele><time>2026-03-26T09:08:00.027Z</time></trkpt><trkpt lat="30.672377804589583" lon="-6.406095950442255"><ele>910.0</ele><time>2026-03-26T09:08:01.027Z</time></trkpt><trkpt lat="30.672542814004203" lon="-6.406177574765801"><ele>910.0</ele><time>2026-03-26T09:08:02.027Z</time></trkpt><trkpt lat="30.672703336297676" lon="-6.406261410952029"><ele>910.0</ele><time>2026-03-26T09:08:03.027Z</time></trkpt><trkpt lat="30.672864328682905" lon="-6.406346053548773"><ele>911.0</ele><time>2026-03-26T09:08:04.027Z</time></trkpt><trkpt lat="30.67302569877342" lon="-6.406434127406351"><ele>912.0</ele><time>2026-03-26T09:08:05.026Z</time></trkpt><trkpt lat="30.673183719756324" lon="-6.406521727374324"><ele>913.0</ele><time>2026-03-26T09:08:06.026Z</time></trkpt><trkpt lat="30.673336331356573" lon="-6.40661085532059"><ele>913.0</ele><time>2026-03-26T09:08:07.028Z</time></trkpt><trkpt lat="30.67348075979684" lon="-6.406702624201264"><ele>913.0</ele><time>2026-03-26T09:08:08.027Z</time></trkpt><trkpt lat="30.673620873567728" lon="-6.406804094703331"><ele>913.0</ele><time>2026-03-26T09:08:09.027Z</time></trkpt><trkpt lat="30.673757805422717" lon="-6.406918326941198"><ele>913.3333333333333</ele><time>2026-03-26T09:08:10.027Z</time></trkpt><trkpt lat="30.67388881214664" lon="-6.4070387156057516"><ele>913.6666666666667</ele><time>2026-03-26T09:08:11.027Z</time></trkpt><trkpt lat="30.674022825659446" lon="-6.407160908823218"><ele>914.0</ele><time>2026-03-26T09:08:12.027Z</time></trkpt><trkpt lat="30.6741568958513" lon="-6.407284630498281"><ele>914.0</ele><time>2026-03-26T09:08:13.027Z</time></trkpt><trkpt lat="30.67429157684325" lon="-6.407410369461181"><ele>914.0</ele><time>2026-03-26T09:08:14.027Z</time></trkpt><trkpt lat="30.674424429286706" lon="-6.407537158131985"><ele>914.0</ele><time>2026-03-26T09:08:15.027Z</time></trkpt><trkpt lat="30.67454929069007" lon="-6.407657542869663"><ele>914.0</ele><time>2026-03-26T09:08:16.027Z</time></trkpt><trkpt lat="30.674663544601657" lon="-6.40778362996739"><ele>914.0</ele><time>2026-03-26T09:08:17.027Z</time></trkpt><trkpt lat="30.674772143170497" lon="-6.4079151834687424"><ele>914.0</ele><time>2026-03-26T09:08:18.027Z</time></trkpt><trkpt lat="30.674872692561383" lon="-6.408051926542113"><ele>914.0</ele><time>2026-03-26T09:08:19.027Z</time></trkpt><trkpt lat="30.67496129746916" lon="-6.408202038766692"><ele>914.0</ele><time>2026-03-26T09:08:20.027Z</time></trkpt><trkpt lat="30.675049894452748" lon="-6.408356148104725"><ele>914.0</ele><time>2026-03-26T09:08:21.027Z</time></trkpt><trkpt lat="30.675140269470084" lon="-6.40850977901254"><ele>914.0</ele><time>2026-03-26T09:08:22.027Z</time></trkpt><trkpt lat="30.67522994733623" lon="-6.408664787746599"><ele>914.0</ele><time>2026-03-26T09:08:23.027Z</time></trkpt><trkpt lat="30.675320579433205" lon="-6.408823893853303"><ele>914.0</ele><time>2026-03-26T09:08:24.027Z</time></trkpt><trkpt lat="30.675413346057116" lon="-6.408983199491175"><ele>913.6666666666667</ele><time>2026-03-26T09:08:25.027Z</time></trkpt><trkpt lat="30.67550555092806" lon="-6.4091427945063995"><ele>913.3333333333333</ele><time>2026-03-26T09:08:26.027Z</time></trkpt><trkpt lat="30.675589653962298" lon="-6.409290478321873"><ele>913.0</ele><time>2026-03-26T09:08:27.027Z</time></trkpt><trkpt lat="30.675668955344705" lon="-6.409426086647621"><ele>913.0</ele><time>2026-03-26T09:08:28.027Z</time></trkpt><trkpt lat="30.675749306908397" lon="-6.409556316717998"><ele>913.0</ele><time>2026-03-26T09:08:29.027Z</time></trkpt><trkpt lat="30.675822314774816" lon="-6.409689253965802"><ele>913.0</ele><time>2026-03-26T09:08:30.027Z</time></trkpt><trkpt lat="30.67591113348823" lon="-6.40983014034312"><ele>913.0</ele><time>2026-03-26T09:08:31.027Z</time></trkpt><trkpt lat="30.675999756452356" lon="-6.4099683617609085"><ele>913.25</ele><time>2026-03-26T09:08:32.027Z</time></trkpt><trkpt lat="30.67609296738224" lon="-6.410100132959386"><ele>913.5</ele><time>2026-03-26T09:08:33.027Z</time></trkpt><trkpt lat="30.676182936919744" lon="-6.4102271053927"><ele>913.75</ele><time>2026-03-26T09:08:34.027Z</time></trkpt><trkpt lat="30.67628108543084" lon="-6.410350167674139"><ele>914.0</ele><time>2026-03-26T09:08:35.027Z</time></trkpt><trkpt lat="30.67638302108936" lon="-6.410473869105612"><ele>914.3333333333334</ele><time>2026-03-26T09:08:36.027Z</time></trkpt><trkpt lat="30.676492341029185" lon="-6.410600200365367"><ele>914.6666666666667</ele><time>2026-03-26T09:08:37.027Z</time></trkpt><trkpt lat="30.676607011559096" lon="-6.410728853133418"><ele>915.0</ele><time>2026-03-26T09:08:38.027Z</time></trkpt><trkpt lat="30.676725826967132" lon="-6.410865553356208"><ele>915.0</ele><time>2026-03-26T09:08:39.027Z</time></trkpt><trkpt lat="30.67684447781627" lon="-6.411012555996764"><ele>915.0</ele><time>2026-03-26T09:08:40.027Z</time></trkpt><trkpt lat="30.67696361222127" lon="-6.411204653281537"><ele>915.0</ele><time>2026-03-26T09:08:41.027Z</time></trkpt><trkpt lat="30.677107427501173" lon="-6.411403751460954"><ele>915.5</ele><time>2026-03-26T09:08:42.027Z</time></trkpt><trkpt lat="30.677246693042466" lon="-6.411641557795695"><ele>916.0</ele><time>2026-03-26T09:08:43.027Z</time></trkpt><trkpt lat="30.677372979190945" lon="-6.4118568068774655"><ele>916.0</ele><time>2026-03-26T09:08:44.027Z</time></trkpt><trkpt lat="30.67747711137103" lon="-6.4120666569002465"><ele>916.0</ele><time>2026-03-26T09:08:45.027Z</time></trkpt><trkpt lat="30.67756009252111" lon="-6.41226934983456"><ele>916.0</ele><time>2026-03-26T09:08:46.027Z</time></trkpt><trkpt lat="30.677657266417196" lon="-6.412450890112459"><ele>916.0</ele><time>2026-03-26T09:08:47.027Z</time></trkpt><trkpt lat="30.677752873773724" lon="-6.4126404540915996"><ele>916.0</ele><time>2026-03-26T09:08:48.027Z</time></trkpt><trkpt lat="30.67783987156423" lon="-6.412821803678058"><ele>916.0</ele><time>2026-03-26T09:08:49.027Z</time></trkpt><trkpt lat="30.677928755740428" lon="-6.412994981265805"><ele>916.0</ele><time>2026-03-26T09:08:50.027Z</time></trkpt><trkpt lat="30.67801935523654" lon="-6.413162168332818"><ele>916.0</ele><time>2026-03-26T09:08:51.027Z</time></trkpt><trkpt lat="30.6781083090319" lon="-6.413331425952598"><ele>916.0</ele><time>2026-03-26T09:08:52.027Z</time></trkpt><trkpt lat="30.678197182427642" lon="-6.413506949459367"><ele>916.0</ele><time>2026-03-26T09:08:53.027Z</time></trkpt><trkpt lat="30.67828567424583" lon="-6.4136885085314885"><ele>916.0</ele><time>2026-03-26T09:08:54.027Z</time></trkpt><trkpt lat="30.678376237376696" lon="-6.413875151844421"><ele>916.0</ele><time>2026-03-26T09:08:55.027Z</time></trkpt><trkpt lat="30.67846104258394" lon="-6.414063654420297"><ele>916.0</ele><time>2026-03-26T09:08:56.027Z</time></trkpt><trkpt lat="30.678537931614876" lon="-6.414252836205493"><ele>916.0</ele><time>2026-03-26T09:08:57.027Z</time></trkpt><trkpt lat="30.678603501905776" lon="-6.414445432417069"><ele>916.0</ele><time>2026-03-26T09:08:58.027Z</time></trkpt><trkpt lat="30.67866467365642" lon="-6.414649794560745"><ele>915.3333333333333</ele><time>2026-03-26T09:08:59.027Z</time></trkpt><trkpt lat="30.678720130757732" lon="-6.414854478091268"><ele>914.6666666666667</ele><time>2026-03-26T09:09:00.027Z</time></trkpt><trkpt lat="30.678771405604554" lon="-6.415067371374188"><ele>914.0</ele><time>2026-03-26T09:09:01.027Z</time></trkpt><trkpt lat="30.678824258484806" lon="-6.415277905709115"><ele>914.0</ele><time>2026-03-26T09:09:02.027Z</time></trkpt><trkpt lat="30.67887687924359" lon="-6.415485392304984"><ele>914.0</ele><time>2026-03-26T09:09:03.027Z</time></trkpt><trkpt lat="30.67892805966948" lon="-6.4156939028613715"><ele>914.0</ele><time>2026-03-26T09:09:04.027Z</time></trkpt><trkpt lat="30.678976903055027" lon="-6.4158961088657"><ele>915.0</ele><time>2026-03-26T09:09:05.027Z</time></trkpt><trkpt lat="30.679023690085653" lon="-6.416093873734759"><ele>916.0</ele><time>2026-03-26T09:09:06.027Z</time></trkpt><trkpt lat="30.679067632409794" lon="-6.416288360390645"><ele>917.0</ele><time>2026-03-26T09:09:07.027Z</time></trkpt><trkpt lat="30.67910942740219" lon="-6.416481156485445"><ele>917.0</ele><time>2026-03-26T09:09:08.027Z</time></trkpt><trkpt lat="30.67914613459658" lon="-6.416679664226532"><ele>917.0</ele><time>2026-03-26T09:09:09.027Z</time></trkpt><trkpt lat="30.67917675674696" lon="-6.416879597950196"><ele>917.0</ele><time>2026-03-26T09:09:10.027Z</time></trkpt><trkpt lat="30.679201782309427" lon="-6.417081744795305"><ele>918.0</ele><time>2026-03-26T09:09:11.027Z</time></trkpt><trkpt lat="30.67922594635244" lon="-6.417282119116573"><ele>919.0</ele><time>2026-03-26T09:09:12.026Z</time></trkpt><trkpt lat="30.679246647636173" lon="-6.417484880983093"><ele>920.0</ele><time>2026-03-26T09:09:13.026Z</time></trkpt><trkpt lat="30.679268377639914" lon="-6.417685434411093"><ele>920.0</ele><time>2026-03-26T09:09:14.025Z</time></trkpt><trkpt lat="30.679291977918584" lon="-6.417888346672029"><ele>920.0</ele><time>2026-03-26T09:09:15.025Z</time></trkpt><trkpt lat="30.67931622701399" lon="-6.418092776453937"><ele>920.0</ele><time>2026-03-26T09:09:16.024Z</time></trkpt><trkpt lat="30.67933597935023" lon="-6.418295232570816"><ele>920.3333333333334</ele><time>2026-03-26T09:09:17.024Z</time></trkpt><trkpt lat="30.679355963630538" lon="-6.4184980643799365"><ele>920.6666666666667</ele><time>2026-03-26T09:09:18.024Z</time></trkpt><trkpt lat="30.679374704619747" lon="-6.41870177983249"><ele>921.0</ele><time>2026-03-26T09:09:19.023Z</time></trkpt><trkpt lat="30.67938993874887" lon="-6.418911636950684"><ele>921.6666666666667</ele><time>2026-03-26T09:09:20.023Z</time></trkpt><trkpt lat="30.679400609609047" lon="-6.4191226936807055"><ele>922.3333333333334</ele><time>2026-03-26T09:09:21.023Z</time></trkpt><trkpt lat="30.6793982853338" lon="-6.419330678664703"><ele>923.0</ele><time>2026-03-26T09:09:22.022Z</time></trkpt><trkpt lat="30.679384484571425" lon="-6.419539505046407"><ele>923.0</ele><time>2026-03-26T09:09:23.022Z</time></trkpt><trkpt lat="30.679361895464005" lon="-6.419750459745796"><ele>923.0</ele><time>2026-03-26T09:09:24.022Z</time></trkpt><trkpt lat="30.679330473467953" lon="-6.41995399050017"><ele>923.0</ele><time>2026-03-26T09:09:25.022Z</time></trkpt><trkpt lat="30.679293203091326" lon="-6.420158599473156"><ele>923.0</ele><time>2026-03-26T09:09:26.021Z</time></trkpt><trkpt lat="30.679251727152053" lon="-6.420361922371905"><ele>923.0</ele><time>2026-03-26T09:09:27.021Z</time></trkpt><trkpt lat="30.679212724430343" lon="-6.420566724551211"><ele>923.0</ele><time>2026-03-26T09:09:28.021Z</time></trkpt><trkpt lat="30.67917344789568" lon="-6.420772083646715"><ele>922.6666666666667</ele><time>2026-03-26T09:09:29.021Z</time></trkpt><trkpt lat="30.679129423154446" lon="-6.420975049197396"><ele>922.3333333333333</ele><time>2026-03-26T09:09:30.021Z</time></trkpt><trkpt lat="30.679088532352814" lon="-6.421183317057866"><ele>922.0</ele><time>2026-03-26T09:09:31.021Z</time></trkpt><trkpt lat="30.679048404755736" lon="-6.421385350539854"><ele>922.0</ele><time>2026-03-26T09:09:32.02Z</time></trkpt><trkpt lat="30.679014854869845" lon="-6.421586968276546"><ele>922.0</ele><time>2026-03-26T09:09:33.02Z</time></trkpt><trkpt lat="30.678986558993227" lon="-6.421789874642483"><ele>922.0</ele><time>2026-03-26T09:09:34.02Z</time></trkpt><trkpt lat="30.678974522582497" lon="-6.421990285934497"><ele>921.0</ele><time>2026-03-26T09:09:35.02Z</time></trkpt><trkpt lat="30.67897771794071" lon="-6.422193117491148"><ele>920.0</ele><time>2026-03-26T09:09:36.02Z</time></trkpt><trkpt lat="30.67899923651929" lon="-6.422408688629254"><ele>919.0</ele><time>2026-03-26T09:09:37.02Z</time></trkpt><trkpt lat="30.67902569369797" lon="-6.422627118055031"><ele>919.0</ele><time>2026-03-26T09:09:38.02Z</time></trkpt><trkpt lat="30.679062479767172" lon="-6.422848542717486"><ele>919.0</ele><time>2026-03-26T09:09:39.02Z</time></trkpt><trkpt lat="30.67911118991997" lon="-6.423068469212141"><ele>919.0</ele><time>2026-03-26T09:09:40.02Z</time></trkpt><trkpt lat="30.679175362496572" lon="-6.423288414300798"><ele>918.6666666666666</ele><time>2026-03-26T09:09:41.02Z</time></trkpt><trkpt lat="30.679254365647644" lon="-6.423513721452913"><ele>918.3333333333333</ele><time>2026-03-26T09:09:42.019Z</time></trkpt><trkpt lat="30.679343586597184" lon="-6.423741360017065"><ele>918.0</ele><time>2026-03-26T09:09:43.019Z</time></trkpt><trkpt lat="30.679428637438438" lon="-6.423965921448411"><ele>918.3333333333333</ele><time>2026-03-26T09:09:44.019Z</time></trkpt><trkpt lat="30.679515509870324" lon="-6.424192827674121"><ele>918.6666666666666</ele><time>2026-03-26T09:09:45.019Z</time></trkpt><trkpt lat="30.67959620781638" lon="-6.424419797788397"><ele>919.0</ele><time>2026-03-26T09:09:46.019Z</time></trkpt><trkpt lat="30.679678961053067" lon="-6.4246387689196816"><ele>919.6666666666666</ele><time>2026-03-26T09:09:47.019Z</time></trkpt><trkpt lat="30.679762377416534" lon="-6.424855529512415"><ele>920.3333333333333</ele><time>2026-03-26T09:09:48.019Z</time></trkpt><trkpt lat="30.679846823184363" lon="-6.425065321581344"><ele>921.0</ele><time>2026-03-26T09:09:49.019Z</time></trkpt><trkpt lat="30.67993065419872" lon="-6.425275025351593"><ele>921.0</ele><time>2026-03-26T09:09:50.019Z</time></trkpt><trkpt lat="30.680011552449574" lon="-6.4254823472908695"><ele>921.0</ele><time>2026-03-26T09:09:51.019Z</time></trkpt><trkpt lat="30.680091054698458" lon="-6.42569118444599"><ele>921.0</ele><time>2026-03-26T09:09:52.019Z</time></trkpt><trkpt lat="30.680169587503613" lon="-6.425903761829327"><ele>921.0</ele><time>2026-03-26T09:09:53.019Z</time></trkpt><trkpt lat="30.68025221971003" lon="-6.426115318525991"><ele>921.0</ele><time>2026-03-26T09:09:54.019Z</time></trkpt><trkpt lat="30.680336425677645" lon="-6.426326621602273"><ele>921.0</ele><time>2026-03-26T09:09:55.019Z</time></trkpt><trkpt lat="30.680419515344134" lon="-6.426542415642748"><ele>920.6666666666667</ele><time>2026-03-26T09:09:56.019Z</time></trkpt><trkpt lat="30.68050586400123" lon="-6.426754620151993"><ele>920.3333333333334</ele><time>2026-03-26T09:09:57.019Z</time></trkpt><trkpt lat="30.68059586939225" lon="-6.426955679088419"><ele>920.0</ele><time>2026-03-26T09:09:58.019Z</time></trkpt><trkpt lat="30.68068482649006" lon="-6.427157836156647"><ele>920.0</ele><time>2026-03-26T09:09:59.019Z</time></trkpt><trkpt lat="30.680775412823852" lon="-6.427354003607288"><ele>920.0</ele><time>2026-03-26T09:10:00.019Z</time></trkpt><trkpt lat="30.68086532625099" lon="-6.427548194580623"><ele>920.0</ele><time>2026-03-26T09:10:01.019Z</time></trkpt><trkpt lat="30.680949804807003" lon="-6.427740714679232"><ele>920.0</ele><time>2026-03-26T09:10:02.019Z</time></trkpt><trkpt lat="30.68103144329131" lon="-6.42793126769255"><ele>920.0</ele><time>2026-03-26T09:10:03.018Z</time></trkpt><trkpt lat="30.681116129850984" lon="-6.4281198365357435"><ele>920.0</ele><time>2026-03-26T09:10:04.019Z</time></trkpt><trkpt lat="30.681203130578663" lon="-6.428306419891"><ele>920.6666666666667</ele><time>2026-03-26T09:10:05.018Z</time></trkpt><trkpt lat="30.68129052672496" lon="-6.428490631486749"><ele>921.3333333333333</ele><time>2026-03-26T09:10:06.018Z</time></trkpt><trkpt lat="30.681383230560733" lon="-6.4286723535385795"><ele>922.0</ele><time>2026-03-26T09:10:07.019Z</time></trkpt><trkpt lat="30.68148450264462" lon="-6.428848170617146"><ele>923.3333333333333</ele><time>2026-03-26T09:10:08.019Z</time></trkpt><trkpt lat="30.681594251328505" lon="-6.429020703935047"><ele>924.6666666666667</ele><time>2026-03-26T09:10:09.019Z</time></trkpt><trkpt lat="30.681708960742963" lon="-6.4291928722706695"><ele>926.0</ele><time>2026-03-26T09:10:10.019Z</time></trkpt><trkpt lat="30.681832920899755" lon="-6.429362258459698"><ele>926.3333333333334</ele><time>2026-03-26T09:10:11.019Z</time></trkpt><trkpt lat="30.68195704448877" lon="-6.429526629317797"><ele>926.6666666666667</ele><time>2026-03-26T09:10:12.019Z</time></trkpt><trkpt lat="30.68207739900599" lon="-6.429683875623705"><ele>927.0</ele><time>2026-03-26T09:10:13.019Z</time></trkpt><trkpt lat="30.682198259847745" lon="-6.429845344948621"><ele>927.0</ele><time>2026-03-26T09:10:14.018Z</time></trkpt><trkpt lat="30.682316538322215" lon="-6.4300067866805835"><ele>927.0</ele><time>2026-03-26T09:10:15.018Z</time></trkpt><trkpt lat="30.68243836709335" lon="-6.430164592994004"><ele>927.0</ele><time>2026-03-26T09:10:16.018Z</time></trkpt><trkpt lat="30.682560382591106" lon="-6.430324933559573"><ele>927.6666666666667</ele><time>2026-03-26T09:10:17.018Z</time></trkpt><trkpt lat="30.682677157130534" lon="-6.430488917712048"><ele>928.3333333333334</ele><time>2026-03-26T09:10:18.018Z</time></trkpt><trkpt lat="30.68278788991912" lon="-6.4306545058731315"><ele>929.0</ele><time>2026-03-26T09:10:19.018Z</time></trkpt><trkpt lat="30.68289025382915" lon="-6.430823782224658"><ele>927.3333333333334</ele><time>2026-03-26T09:10:20.018Z</time></trkpt><trkpt lat="30.682983868526822" lon="-6.430999793296695"><ele>925.6666666666667</ele><time>2026-03-26T09:10:21.018Z</time></trkpt><trkpt lat="30.683072955756927" lon="-6.4311838747156695"><ele>924.0</ele><time>2026-03-26T09:10:22.018Z</time></trkpt><trkpt lat="30.683150955806866" lon="-6.4313734227128885"><ele>924.0</ele><time>2026-03-26T09:10:23.018Z</time></trkpt><trkpt lat="30.683232155458043" lon="-6.4315720194034025"><ele>924.0</ele><time>2026-03-26T09:10:24.018Z</time></trkpt><trkpt lat="30.683300606049876" lon="-6.43177824748574"><ele>924.0</ele><time>2026-03-26T09:10:25.018Z</time></trkpt><trkpt lat="30.683362243314093" lon="-6.431982129989538"><ele>924.3333333333333</ele><time>2026-03-26T09:10:26.018Z</time></trkpt><trkpt lat="30.683423314185628" lon="-6.432183011947836"><ele>924.6666666666666</ele><time>2026-03-26T09:10:27.018Z</time></trkpt><trkpt lat="30.683480151552438" lon="-6.432368025009125"><ele>925.0</ele><time>2026-03-26T09:10:28.018Z</time></trkpt><trkpt lat="30.683535868724437" lon="-6.43254044648617"><ele>925.0</ele><time>2026-03-26T09:10:29.018Z</time></trkpt><trkpt lat="30.683587844393795" lon="-6.432712841192337"><ele>925.0</ele><time>2026-03-26T09:10:30.018Z</time></trkpt><trkpt lat="30.683643064138025" lon="-6.432892394153142"><ele>925.0</ele><time>2026-03-26T09:10:31.018Z</time></trkpt><trkpt lat="30.683698714697588" lon="-6.4330769737339555"><ele>925.3333333333333</ele><time>2026-03-26T09:10:32.018Z</time></trkpt><trkpt lat="30.68375277646386" lon="-6.433255316159009"><ele>925.6666666666667</ele><time>2026-03-26T09:10:33.018Z</time></trkpt><trkpt lat="30.683806735335267" lon="-6.433429896397058"><ele>926.0</ele><time>2026-03-26T09:10:34.018Z</time></trkpt><trkpt lat="30.683857862906027" lon="-6.433609223896023"><ele>926.0</ele><time>2026-03-26T09:10:35.018Z</time></trkpt><trkpt lat="30.683911758946603" lon="-6.433795435345219"><ele>926.0</ele><time>2026-03-26T09:10:36.018Z</time></trkpt><trkpt lat="30.683968900534158" lon="-6.433992567798699"><ele>926.0</ele><time>2026-03-26T09:10:37.018Z</time></trkpt><trkpt lat="30.684023586759274" lon="-6.434190709703691"><ele>927.3333333333334</ele><time>2026-03-26T09:10:38.018Z</time></trkpt><trkpt lat="30.68408405106945" lon="-6.434386699463496"><ele>928.6666666666667</ele><time>2026-03-26T09:10:39.018Z</time></trkpt><trkpt lat="30.684147349871076" lon="-6.434577037314106"><ele>930.0</ele><time>2026-03-26T09:10:40.018Z</time></trkpt><trkpt lat="30.684206611045667" lon="-6.4347533407475614"><ele>930.6666666666667</ele><time>2026-03-26T09:10:41.018Z</time></trkpt><trkpt lat="30.68426025181342" lon="-6.434924132635659"><ele>931.3333333333334</ele><time>2026-03-26T09:10:42.018Z</time></trkpt><trkpt lat="30.684311340689618" lon="-6.435090722337056"><ele>932.0</ele><time>2026-03-26T09:10:43.018Z</time></trkpt><trkpt lat="30.684363870668232" lon="-6.4352531075723425"><ele>932.0</ele><time>2026-03-26T09:10:44.018Z</time></trkpt><trkpt lat="30.684414078697994" lon="-6.435414949303252"><ele>932.0</ele><time>2026-03-26T09:10:45.018Z</time></trkpt><trkpt lat="30.684458788881177" lon="-6.435585588143115"><ele>932.0</ele><time>2026-03-26T09:10:46.018Z</time></trkpt><trkpt lat="30.68450437515674" lon="-6.435768145895522"><ele>931.3333333333334</ele><time>2026-03-26T09:10:47.018Z</time></trkpt><trkpt lat="30.684547317338325" lon="-6.435959629285365"><ele>930.6666666666667</ele><time>2026-03-26T09:10:48.018Z</time></trkpt><trkpt lat="30.684591949776596" lon="-6.436152524948184"><ele>930.0</ele><time>2026-03-26T09:10:49.018Z</time></trkpt><trkpt lat="30.684635616348167" lon="-6.436344354651644"><ele>929.6666666666667</ele><time>2026-03-26T09:10:50.018Z</time></trkpt><trkpt lat="30.684679965145808" lon="-6.436528679711002"><ele>929.3333333333334</ele><time>2026-03-26T09:10:51.018Z</time></trkpt><trkpt lat="30.68472473622498" lon="-6.43670967178009"><ele>929.0</ele><time>2026-03-26T09:10:52.018Z</time></trkpt><trkpt lat="30.68476375705627" lon="-6.436874829935628"><ele>929.0</ele><time>2026-03-26T09:10:53.018Z</time></trkpt><trkpt lat="30.68480335848682" lon="-6.437043291216412"><ele>929.0</ele><time>2026-03-26T09:10:54.018Z</time></trkpt><trkpt lat="30.684841599197313" lon="-6.4372117604507055"><ele>929.0</ele><time>2026-03-26T09:10:55.018Z</time></trkpt><trkpt lat="30.684889747371262" lon="-6.437378405729249"><ele>928.6666666666667</ele><time>2026-03-26T09:10:56.018Z</time></trkpt><trkpt lat="30.684929404032786" lon="-6.437548633351101"><ele>928.3333333333333</ele><time>2026-03-26T09:10:57.018Z</time></trkpt><trkpt lat="30.684968254945066" lon="-6.437718855603985"><ele>928.0</ele><time>2026-03-26T09:10:58.018Z</time></trkpt><trkpt lat="30.685007133228545" lon="-6.437885195232121"><ele>928.0</ele><time>2026-03-26T09:10:59.018Z</time></trkpt><trkpt lat="30.685042723065376" lon="-6.438048002012256"><ele>928.0</ele><time>2026-03-26T09:11:00.018Z</time></trkpt><trkpt lat="30.685078447006056" lon="-6.438207412070354"><ele>928.0</ele><time>2026-03-26T09:11:01.018Z</time></trkpt><trkpt lat="30.685113906586853" lon="-6.438369805786223"><ele>928.0</ele><time>2026-03-26T09:11:02.019Z</time></trkpt><trkpt lat="30.68515235634115" lon="-6.438532189994072"><ele>928.0</ele><time>2026-03-26T09:11:03.019Z</time></trkpt><trkpt lat="30.685187862473718" lon="-6.438681779422933"><ele>928.0</ele><time>2026-03-26T09:11:04.019Z</time></trkpt><trkpt lat="30.68521830729362" lon="-6.438824210734166"><ele>928.0</ele><time>2026-03-26T09:11:05.019Z</time></trkpt><trkpt lat="30.685247007125533" lon="-6.438968212082355"><ele>928.0</ele><time>2026-03-26T09:11:06.019Z</time></trkpt><trkpt lat="30.685284711843828" lon="-6.4391252576152915"><ele>928.25</ele><time>2026-03-26T09:11:07.019Z</time></trkpt><trkpt lat="30.68531894058535" lon="-6.439271202105685"><ele>928.5</ele><time>2026-03-26T09:11:08.019Z</time></trkpt><trkpt lat="30.685354850283673" lon="-6.439422867801673"><ele>928.75</ele><time>2026-03-26T09:11:09.019Z</time></trkpt><trkpt lat="30.68538738525808" lon="-6.439567768560147"><ele>929.0</ele><time>2026-03-26T09:11:10.019Z</time></trkpt><trkpt lat="30.685417617057162" lon="-6.439701513675337"><ele>929.0</ele><time>2026-03-26T09:11:11.019Z</time></trkpt><trkpt lat="30.685449555648" lon="-6.4398433058644216"><ele>929.0</ele><time>2026-03-26T09:11:12.019Z</time></trkpt><trkpt lat="30.685488154679696" lon="-6.440001227941717"><ele>929.0</ele><time>2026-03-26T09:11:13.019Z</time></trkpt><trkpt lat="30.68552566286948" lon="-6.440156702677652"><ele>929.0</ele><time>2026-03-26T09:11:14.019Z</time></trkpt><trkpt lat="30.68555763967849" lon="-6.440295335176814"><ele>929.0</ele><time>2026-03-26T09:11:15.019Z</time></trkpt><trkpt lat="30.685590234602184" lon="-6.4404268751617435"><ele>929.0</ele><time>2026-03-26T09:11:16.019Z</time></trkpt><trkpt lat="30.685621751046373" lon="-6.440555779239987"><ele>929.0</ele><time>2026-03-26T09:11:17.019Z</time></trkpt><trkpt lat="30.685650909763126" lon="-6.440685244400573"><ele>929.0</ele><time>2026-03-26T09:11:18.019Z</time></trkpt><trkpt lat="30.685680761727614" lon="-6.440814806997417"><ele>929.0</ele><time>2026-03-26T09:11:19.019Z</time></trkpt><trkpt lat="30.685709871807276" lon="-6.440945541130649"><ele>929.0000000000001</ele><time>2026-03-26T09:11:20.019Z</time></trkpt><trkpt lat="30.685740305121467" lon="-6.441064125144857"><ele>929.0000000000001</ele><time>2026-03-26T09:11:21.019Z</time></trkpt><trkpt lat="30.685766956021006" lon="-6.441176892902025"><ele>929.0</ele><time>2026-03-26T09:11:22.019Z</time></trkpt><trkpt lat="30.68579190848456" lon="-6.441283112276418"><ele>929.0</ele><time>2026-03-26T09:11:23.019Z</time></trkpt><trkpt lat="30.685814959943404" lon="-6.441385198226379"><ele>928.8000000000001</ele><time>2026-03-26T09:11:24.019Z</time></trkpt><trkpt lat="30.685838540847637" lon="-6.44149321363065"><ele>928.6000000000001</ele><time>2026-03-26T09:11:25.019Z</time></trkpt><trkpt lat="30.685861966495743" lon="-6.441605526107262"><ele>928.4</ele><time>2026-03-26T09:11:26.019Z</time></trkpt><trkpt lat="30.685885042175194" lon="-6.4417191243295315"><ele>928.2</ele><time>2026-03-26T09:11:27.019Z</time></trkpt><trkpt lat="30.685911025992116" lon="-6.441832172825691"><ele>928.0</ele><time>2026-03-26T09:11:28.019Z</time></trkpt><trkpt lat="30.685933594002332" lon="-6.441937485025809"><ele>928.0000000000001</ele><time>2026-03-26T09:11:29.019Z</time></trkpt><trkpt lat="30.685968565821316" lon="-6.442016115811592"><ele>928.0</ele><time>2026-03-26T09:11:30.019Z</time></trkpt><trkpt lat="30.685989415710253" lon="-6.442088856652521"><ele>928.0000000000001</ele><time>2026-03-26T09:11:31.019Z</time></trkpt><trkpt lat="30.68601200274831" lon="-6.442167657912856"><ele>928.0000000000001</ele><time>2026-03-26T09:11:32.019Z</time></trkpt><trkpt lat="30.68602278612056" lon="-6.44225733574722"><ele>928.0</ele><time>2026-03-26T09:11:33.019Z</time></trkpt><trkpt lat="30.686053282936353" lon="-6.442338978400811"><ele>928.0000000000001</ele><time>2026-03-26T09:11:34.019Z</time></trkpt><trkpt lat="30.686077925397697" lon="-6.442417011785663"><ele>928.0000000000001</ele><time>2026-03-26T09:11:35.019Z</time></trkpt><trkpt lat="30.686103724194282" lon="-6.442493061370577"><ele>928.6666666666666</ele><time>2026-03-26T09:11:36.019Z</time></trkpt><trkpt lat="30.686149845924408" lon="-6.442559236858706"><ele>929.3333333333333</ele><time>2026-03-26T09:11:37.019Z</time></trkpt><trkpt lat="30.686196062961507" lon="-6.442638779371702"><ele>930.0</ele><time>2026-03-26T09:11:38.019Z</time></trkpt><trkpt lat="30.68623333189954" lon="-6.442712874069055"><ele>930.6666666666667</ele><time>2026-03-26T09:11:39.019Z</time></trkpt><trkpt lat="30.68626785062239" lon="-6.442776285393169"><ele>931.3333333333334</ele><time>2026-03-26T09:11:40.019Z</time></trkpt><trkpt lat="30.68631475963585" lon="-6.442858385235629"><ele>932.0</ele><time>2026-03-26T09:11:42.019Z</time></trkpt><trkpt lat="30.686363362198936" lon="-6.442942408033511"><ele>931.4000000000001</ele><time>2026-03-26T09:11:44.019Z</time></trkpt><trkpt lat="30.686425980553174" lon="-6.443038789001898"><ele>930.8000000000001</ele><time>2026-03-26T09:11:46.019Z</time></trkpt><trkpt lat="30.68649637217969" lon="-6.443143334231675"><ele>930.2</ele><time>2026-03-26T09:11:48.019Z</time></trkpt><trkpt lat="30.68654154843621" lon="-6.443199025324567"><ele>929.6</ele><time>2026-03-26T09:11:49.019Z</time></trkpt><trkpt lat="30.686586803267886" lon="-6.443253479235027"><ele>929.0</ele><time>2026-03-26T09:11:50.019Z</time></trkpt><trkpt lat="30.686665058128288" lon="-6.443355107248853"><ele>929.0</ele><time>2026-03-26T09:11:52.019Z</time></trkpt><trkpt lat="30.686750728603545" lon="-6.44346227422709"><ele>929.0000000000001</ele><time>2026-03-26T09:11:54.019Z</time></trkpt><trkpt lat="30.686828034906107" lon="-6.443556167517355"><ele>929.0000000000001</ele><time>2026-03-26T09:11:56.019Z</time></trkpt><trkpt lat="30.686900173008503" lon="-6.443643552832463"><ele>929.0</ele><time>2026-03-26T09:11:58.019Z</time></trkpt><trkpt lat="30.686958287392613" lon="-6.44372711883964"><ele>929.0</ele><time>2026-03-26T09:12:00.019Z</time></trkpt><trkpt lat="30.687021165954746" lon="-6.443810121029149"><ele>929.0</ele><time>2026-03-26T09:12:02.019Z</time></trkpt><trkpt lat="30.687094347568998" lon="-6.443891558545477"><ele>929.0000000000001</ele><time>2026-03-26T09:12:04.019Z</time></trkpt><trkpt lat="30.687169833984807" lon="-6.443973017491702"><ele>929.0000000000001</ele><time>2026-03-26T09:12:06.019Z</time></trkpt><trkpt lat="30.687248454788946" lon="-6.444074354821167"><ele>929.0</ele><time>2026-03-26T09:12:08.019Z</time></trkpt><trkpt lat="30.687326272738147" lon="-6.444174332358492"><ele>929.0</ele><time>2026-03-26T09:12:10.019Z</time></trkpt><trkpt lat="30.687378429570625" lon="-6.444232847324831"><ele>929.0</ele><time>2026-03-26T09:12:12.019Z</time></trkpt><trkpt lat="30.68742885673867" lon="-6.4443052561458325"><ele>929.0000000000001</ele><time>2026-03-26T09:12:14.019Z</time></trkpt><trkpt lat="30.687480627241538" lon="-6.444379027445346"><ele>929.0000000000001</ele><time>2026-03-26T09:12:15.019Z</time></trkpt><trkpt lat="30.687565035278805" lon="-6.444472084564856"><ele>929.0</ele><time>2026-03-26T09:12:16.019Z</time></trkpt><trkpt lat="30.68765121438261" lon="-6.4445703898408775"><ele>929.0</ele><time>2026-03-26T09:12:17.019Z</time></trkpt><trkpt lat="30.687733569271444" lon="-6.444660655628006"><ele>929.0</ele><time>2026-03-26T09:12:18.019Z</time></trkpt><trkpt lat="30.68781342616185" lon="-6.444751100934591"><ele>929.0000000000001</ele><time>2026-03-26T09:12:19.02Z</time></trkpt><trkpt lat="30.68789314746678" lon="-6.444836981220529"><ele>929.0000000000001</ele><time>2026-03-26T09:12:20.019Z</time></trkpt><trkpt lat="30.687968963547963" lon="-6.44492151404516"><ele>929.0</ele><time>2026-03-26T09:12:21.019Z</time></trkpt><trkpt lat="30.68804281953325" lon="-6.445010250293029"><ele>929.0</ele><time>2026-03-26T09:12:22.019Z</time></trkpt><trkpt lat="30.6881167881404" lon="-6.445099674511212"><ele>929.0</ele><time>2026-03-26T09:12:23.019Z</time></trkpt><trkpt lat="30.688194737515865" lon="-6.445193567669184"><ele>929.0000000000001</ele><time>2026-03-26T09:12:24.019Z</time></trkpt><trkpt lat="30.688270953759858" lon="-6.445279896473187"><ele>929.0000000000001</ele><time>2026-03-26T09:12:25.019Z</time></trkpt><trkpt lat="30.688347041242345" lon="-6.445358800875824"><ele>929.0</ele><time>2026-03-26T09:12:26.019Z</time></trkpt><trkpt lat="30.688413664087875" lon="-6.44542827403148"><ele>929.0</ele><time>2026-03-26T09:12:27.019Z</time></trkpt><trkpt lat="30.688476311345152" lon="-6.445488581080069"><ele>929.1666666666667</ele><time>2026-03-26T09:12:28.019Z</time></trkpt><trkpt lat="30.68853850540368" lon="-6.445540758960688"><ele>929.3333333333334</ele><time>2026-03-26T09:12:29.019Z</time></trkpt><trkpt lat="30.68860666289607" lon="-6.4455887259421765"><ele>929.5</ele><time>2026-03-26T09:12:30.019Z</time></trkpt><trkpt lat="30.68868295392777" lon="-6.445637791444354"><ele>929.6666666666667</ele><time>2026-03-26T09:12:31.019Z</time></trkpt><trkpt lat="30.688767207029965" lon="-6.445683742679528"><ele>929.8333333333334</ele><time>2026-03-26T09:12:32.019Z</time></trkpt><trkpt lat="30.688850511128916" lon="-6.445728968694496"><ele>930.0</ele><time>2026-03-26T09:12:33.019Z</time></trkpt><trkpt lat="30.6889352495746" lon="-6.445764406841828"><ele>930.0</ele><time>2026-03-26T09:12:34.019Z</time></trkpt><trkpt lat="30.68902249195587" lon="-6.445800256134023"><ele>930.0</ele><time>2026-03-26T09:12:35.019Z</time></trkpt><trkpt lat="30.689114301444704" lon="-6.445837277093971"><ele>930.0</ele><time>2026-03-26T09:12:36.019Z</time></trkpt><trkpt lat="30.689199951879967" lon="-6.445867673901289"><ele>930.0</ele><time>2026-03-26T09:12:37.019Z</time></trkpt><trkpt lat="30.689274752095326" lon="-6.445896317923924"><ele>930.0</ele><time>2026-03-26T09:12:38.019Z</time></trkpt><trkpt lat="30.689345488202857" lon="-6.445921101557505"><ele>930.0</ele><time>2026-03-26T09:12:39.019Z</time></trkpt><trkpt lat="30.689407479907008" lon="-6.445939174330365"><ele>929.5714285714286</ele><time>2026-03-26T09:12:40.019Z</time></trkpt><trkpt lat="30.6894689132429" lon="-6.445960231857851"><ele>929.1428571428571</ele><time>2026-03-26T09:12:41.019Z</time></trkpt><trkpt lat="30.68953662412844" lon="-6.445985275422208"><ele>928.7142857142857</ele><time>2026-03-26T09:12:42.019Z</time></trkpt><trkpt lat="30.68960872931015" lon="-6.446010099650864"><ele>928.2857142857142</ele><time>2026-03-26T09:12:43.019Z</time></trkpt><trkpt lat="30.68967804551752" lon="-6.4460320396719"><ele>927.8571428571429</ele><time>2026-03-26T09:12:44.019Z</time></trkpt><trkpt lat="30.68974561198058" lon="-6.446056492345167"><ele>927.4285714285713</ele><time>2026-03-26T09:12:45.019Z</time></trkpt><trkpt lat="30.68982017135891" lon="-6.446084957784051"><ele>926.9999999999999</ele><time>2026-03-26T09:12:46.019Z</time></trkpt><trkpt lat="30.689905779099362" lon="-6.446114183093715"><ele>927.0</ele><time>2026-03-26T09:12:47.019Z</time></trkpt><trkpt lat="30.689992977248078" lon="-6.44614184327443"><ele>927.0</ele><time>2026-03-26T09:12:48.019Z</time></trkpt><trkpt lat="30.690074687411908" lon="-6.4461705124284"><ele>927.0</ele><time>2026-03-26T09:12:49.019Z</time></trkpt><trkpt lat="30.690152936625967" lon="-6.446197859141171"><ele>927.0</ele><time>2026-03-26T09:12:50.019Z</time></trkpt><trkpt lat="30.69023374260568" lon="-6.446226147787632"><ele>927.0</ele><time>2026-03-26T09:12:51.019Z</time></trkpt><trkpt lat="30.690314553966953" lon="-6.44625324234576"><ele>927.0</ele><time>2026-03-26T09:12:52.019Z</time></trkpt><trkpt lat="30.69039583455441" lon="-6.446279634858446"><ele>927.3333333333334</ele><time>2026-03-26T09:12:53.019Z</time></trkpt><trkpt lat="30.690481473134767" lon="-6.446306923579794"><ele>927.6666666666667</ele><time>2026-03-26T09:12:54.019Z</time></trkpt><trkpt lat="30.69056823430453" lon="-6.446340208488694"><ele>928.0</ele><time>2026-03-26T09:12:55.019Z</time></trkpt><trkpt lat="30.69066151226455" lon="-6.446347760293199"><ele>928.3333333333334</ele><time>2026-03-26T09:12:56.019Z</time></trkpt><trkpt lat="30.690746011320844" lon="-6.446379780787029"><ele>928.6666666666667</ele><time>2026-03-26T09:12:57.019Z</time></trkpt><trkpt lat="30.690824315831772" lon="-6.446408220915993"><ele>929.0</ele><time>2026-03-26T09:12:58.019Z</time></trkpt><trkpt lat="30.690895936712582" lon="-6.446434716829158"><ele>929.0</ele><time>2026-03-26T09:12:59.019Z</time></trkpt><trkpt lat="30.690962002889954" lon="-6.446460440207555"><ele>929.0000000000001</ele><time>2026-03-26T09:13:00.019Z</time></trkpt><trkpt lat="30.691036078063217" lon="-6.446490899532523"><ele>929.0</ele><time>2026-03-26T09:13:01.02Z</time></trkpt><trkpt lat="30.691115201406355" lon="-6.446519733660392"><ele>929.0</ele><time>2026-03-26T09:13:02.02Z</time></trkpt><trkpt lat="30.691189388590672" lon="-6.446545309029676"><ele>929.0000000000001</ele><time>2026-03-26T09:13:03.02Z</time></trkpt><trkpt lat="30.691258571937773" lon="-6.446567566692397"><ele>929.0</ele><time>2026-03-26T09:13:04.02Z</time></trkpt><trkpt lat="30.691324808807128" lon="-6.4465903756443685"><ele>929.0</ele><time>2026-03-26T09:13:05.02Z</time></trkpt><trkpt lat="30.69138830556671" lon="-6.446615066097938"><ele>929.0</ele><time>2026-03-26T09:13:06.02Z</time></trkpt><trkpt lat="30.691459836624627" lon="-6.446616556832512"><ele>929.0000000000001</ele><time>2026-03-26T09:13:07.02Z</time></trkpt><trkpt lat="30.69157395766867" lon="-6.446660463659844"><ele>929.0000000000001</ele><time>2026-03-26T09:13:09.02Z</time></trkpt><trkpt lat="30.69168805226999" lon="-6.446709011632845"><ele>929.0</ele><time>2026-03-26T09:13:11.02Z</time></trkpt><trkpt lat="30.69180279201087" lon="-6.446776307920217"><ele>929.0</ele><time>2026-03-26T09:13:13.02Z</time></trkpt><trkpt lat="30.691864150865868" lon="-6.446821634317251"><ele>929.0000000000001</ele><time>2026-03-26T09:13:14.02Z</time></trkpt><trkpt lat="30.691921272678684" lon="-6.446872229104345"><ele>929.0</ele><time>2026-03-26T09:13:15.02Z</time></trkpt><trkpt lat="30.691978617485084" lon="-6.446927052761399"><ele>929.0</ele><time>2026-03-26T09:13:16.02Z</time></trkpt><trkpt lat="30.692034189056223" lon="-6.446982650393535"><ele>929.0</ele><time>2026-03-26T09:13:17.02Z</time></trkpt><trkpt lat="30.692075389460975" lon="-6.447041478811021"><ele>929.0000000000001</ele><time>2026-03-26T09:13:18.02Z</time></trkpt><trkpt lat="30.69214840137868" lon="-6.447148793844807"><ele>929.0</ele><time>2026-03-26T09:13:20.02Z</time></trkpt><trkpt lat="30.692209168526098" lon="-6.4472511708513425"><ele>930.0000000000001</ele><time>2026-03-26T09:13:22.02Z</time></trkpt><trkpt lat="30.692264062870674" lon="-6.4473492858420185"><ele>931.0</ele><time>2026-03-26T09:13:24.02Z</time></trkpt><trkpt lat="30.692308599553808" lon="-6.4474201779321"><ele>932.0</ele><time>2026-03-26T09:13:26.02Z</time></trkpt><trkpt lat="30.69235509164825" lon="-6.447473747422332"><ele>933.0</ele><time>2026-03-26T09:13:29.02Z</time></trkpt><trkpt lat="30.692402622194287" lon="-6.447534315605072"><ele>934.0000000000001</ele><time>2026-03-26T09:13:33.02Z</time></trkpt><trkpt lat="30.692451767546554" lon="-6.4475991592811"><ele>935.0</ele><time>2026-03-26T09:13:36.02Z</time></trkpt><trkpt lat="30.692514248315284" lon="-6.447666527054089"><ele>935.0000000000001</ele><time>2026-03-26T09:13:40.02Z</time></trkpt><trkpt lat="30.69257101812159" lon="-6.447728362761455"><ele>935.0</ele><time>2026-03-26T09:13:42.02Z</time></trkpt><trkpt lat="30.69264758945231" lon="-6.447784838912659"><ele>935.0</ele><time>2026-03-26T09:13:45.02Z</time></trkpt><trkpt lat="30.692702107137414" lon="-6.44782964063596"><ele>935.0</ele><time>2026-03-26T09:13:47.02Z</time></trkpt><trkpt lat="30.692785146650376" lon="-6.4478988814251945"><ele>935.0000000000001</ele><time>2026-03-26T09:13:50.02Z</time></trkpt><trkpt lat="30.692880845521767" lon="-6.4479109118998155"><ele>935.0</ele><time>2026-03-26T09:13:52.02Z</time></trkpt><trkpt lat="30.692966436310797" lon="-6.447960126510325"><ele>936.0</ele><time>2026-03-26T09:13:54.02Z</time></trkpt><trkpt lat="30.693074465579333" lon="-6.447977141768767"><ele>937.0</ele><time>2026-03-26T09:13:56.02Z</time></trkpt><trkpt lat="30.693184028390082" lon="-6.447994241620583"><ele>938.0</ele><time>2026-03-26T09:13:58.02Z</time></trkpt><trkpt lat="30.69324700770095" lon="-6.448000903806354"><ele>939.0</ele><time>2026-03-26T09:13:59.02Z</time></trkpt><trkpt lat="30.69331361177098" lon="-6.448007248577651"><ele>940.0</ele><time>2026-03-26T09:14:00.02Z</time></trkpt><trkpt lat="30.693437129760635" lon="-6.448016123931159"><ele>939.9999999999999</ele><time>2026-03-26T09:14:02.02Z</time></trkpt><trkpt lat="30.69354725345935" lon="-6.448023648699486"><ele>940.0</ele><time>2026-03-26T09:14:04.02Z</time></trkpt><trkpt lat="30.693639224419837" lon="-6.44802653209566"><ele>940.0</ele><time>2026-03-26T09:14:06.02Z</time></trkpt><trkpt lat="30.693712563587866" lon="-6.448034468274388"><ele>940.0</ele><time>2026-03-26T09:14:08.02Z</time></trkpt><trkpt lat="30.693771752210502" lon="-6.448104592780242"><ele>939.9999999999999</ele><time>2026-03-26T09:14:10.02Z</time></trkpt><trkpt lat="30.693797812085702" lon="-6.448181150202012"><ele>940.0</ele><time>2026-03-26T09:14:12.02Z</time></trkpt><trkpt lat="30.69376306547598" lon="-6.448272710331208"><ele>939.4999999999999</ele><time>2026-03-26T09:14:14.02Z</time></trkpt><trkpt lat="30.693764523446685" lon="-6.448368089507923"><ele>939.0</ele><time>2026-03-26T09:14:16.02Z</time></trkpt><trkpt lat="30.69376848651104" lon="-6.448474375764384"><ele>938.5</ele><time>2026-03-26T09:14:18.02Z</time></trkpt><trkpt lat="30.693771372406314" lon="-6.448564527447704"><ele>938.0</ele><time>2026-03-26T09:14:20.02Z</time></trkpt><trkpt lat="30.693771270165513" lon="-6.448669777187166"><ele>937.4999999999999</ele><time>2026-03-26T09:14:23.02Z</time></trkpt><trkpt lat="30.693766753375666" lon="-6.448771101102045"><ele>937.0</ele><time>2026-03-26T09:14:26.02Z</time></trkpt><trkpt lat="30.69376730756202" lon="-6.4488641474372645"><ele>936.9999999999999</ele><time>2026-03-26T09:14:29.02Z</time></trkpt><trkpt lat="30.69377358488019" lon="-6.448941799364467"><ele>937.0</ele><time>2026-03-26T09:14:33.02Z</time></trkpt><trkpt lat="30.693707555959172" lon="-6.4489590618691155"><ele>937.0</ele><time>2026-03-26T09:16:22.02Z</time></trkpt><trkpt lat="30.693710769205975" lon="-6.44883855427677"><ele>937.0</ele><time>2026-03-26T09:16:24.02Z</time></trkpt><trkpt lat="30.69371656553083" lon="-6.448750720568932"><ele>936.9999999999999</ele><time>2026-03-26T09:16:26.02Z</time></trkpt><trkpt lat="30.69372785368516" lon="-6.448651177873216"><ele>937.0</ele><time>2026-03-26T09:16:29.02Z</time></trkpt><trkpt lat="30.693723843813668" lon="-6.448572140748103"><ele>937.0</ele><time>2026-03-26T09:16:31.02Z</time></trkpt><trkpt lat="30.693702479569755" lon="-6.44846590594953"><ele>937.0</ele><time>2026-03-26T09:16:33.02Z</time></trkpt><trkpt lat="30.69366429435285" lon="-6.448366672381081"><ele>937.0</ele><time>2026-03-26T09:16:35.02Z</time></trkpt><trkpt lat="30.69360370308825" lon="-6.448255474546831"><ele>937.0</ele><time>2026-03-26T09:16:37.02Z</time></trkpt><trkpt lat="30.69356733407907" lon="-6.448143487245606"><ele>937.0</ele><time>2026-03-26T09:16:39.02Z</time></trkpt><trkpt lat="30.69364097462896" lon="-6.448079751085871"><ele>937.0</ele><time>2026-03-26T09:16:42.02Z</time></trkpt><trkpt lat="30.693728671994577" lon="-6.4480557178645554"><ele>937.0</ele><time>2026-03-26T09:16:45.02Z</time></trkpt><trkpt lat="30.693790190287427" lon="-6.448074595860806"><ele>937.0</ele><time>2026-03-26T09:16:47.02Z</time></trkpt><trkpt lat="30.693850249892243" lon="-6.448115059999144"><ele>937.0</ele><time>2026-03-26T09:16:51.02Z</time></trkpt><trkpt lat="30.693930285421374" lon="-6.448128652626971"><ele>937.0</ele><time>2026-03-26T09:16:54.02Z</time></trkpt><trkpt lat="30.694006132055975" lon="-6.4481362012974275"><ele>937.0</ele><time>2026-03-26T09:16:57.02Z</time></trkpt><trkpt lat="30.69406828539893" lon="-6.448150713940554"><ele>937.0</ele><time>2026-03-26T09:17:03.02Z</time></trkpt><trkpt lat="30.69413433011842" lon="-6.4481863228938465"><ele>936.9999999999999</ele><time>2026-03-26T09:17:16.02Z</time></trkpt><trkpt lat="30.69419820653427" lon="-6.448197905824552"><ele>937.0</ele><time>2026-03-26T09:17:19.02Z</time></trkpt><trkpt lat="30.694268111843506" lon="-6.448210161823937"><ele>937.0</ele><time>2026-03-26T09:17:21.02Z</time></trkpt><trkpt lat="30.694333080797332" lon="-6.448226641106198"><ele>937.0</ele><time>2026-03-26T09:17:24.02Z</time></trkpt><trkpt lat="30.69444084211547" lon="-6.448235065037023"><ele>936.9999999999999</ele><time>2026-03-26T09:17:30.02Z</time></trkpt><trkpt lat="30.69450386468094" lon="-6.448241608421558"><ele>937.0</ele><time>2026-03-26T09:17:31.02Z</time></trkpt><trkpt lat="30.694616805788034" lon="-6.448244667841102"><ele>936.6</ele><time>2026-03-26T09:17:33.02Z</time></trkpt><trkpt lat="30.694732195854368" lon="-6.448255382766543"><ele>936.2</ele><time>2026-03-26T09:17:35.02Z</time></trkpt><trkpt lat="30.694856368067505" lon="-6.448258324009704"><ele>935.8</ele><time>2026-03-26T09:17:37.02Z</time></trkpt><trkpt lat="30.69492737754505" lon="-6.448262474824885"><ele>935.4</ele><time>2026-03-26T09:17:38.02Z</time></trkpt><trkpt lat="30.695007844587188" lon="-6.448262481568229"><ele>935.0</ele><time>2026-03-26T09:17:39.02Z</time></trkpt><trkpt lat="30.695083462139323" lon="-6.448261278960685"><ele>935.0</ele><time>2026-03-26T09:17:40.02Z</time></trkpt><trkpt lat="30.695153025900616" lon="-6.448264206899723"><ele>935.0</ele><time>2026-03-26T09:17:41.02Z</time></trkpt><trkpt lat="30.69520756179391" lon="-6.44821910881549"><ele>935.0</ele><time>2026-03-26T09:17:42.02Z</time></trkpt><trkpt lat="30.695456540513682" lon="-6.448270085081642"><ele>935.0</ele><time>2026-03-26T09:17:46.02Z</time></trkpt><trkpt lat="30.695534084718176" lon="-6.448272930066483"><ele>935.0</ele><time>2026-03-26T09:17:47.02Z</time></trkpt><trkpt lat="30.69564317701457" lon="-6.448285537477378"><ele>935.0</ele><time>2026-03-26T09:17:49.02Z</time></trkpt><trkpt lat="30.695764727719453" lon="-6.448291666215839"><ele>935.0</ele><time>2026-03-26T09:17:51.02Z</time></trkpt><trkpt lat="30.695847937523073" lon="-6.448289008980168"><ele>935.0</ele><time>2026-03-26T09:17:52.02Z</time></trkpt><trkpt lat="30.695936026919398" lon="-6.448296573967029"><ele>935.0</ele><time>2026-03-26T09:17:53.02Z</time></trkpt><trkpt lat="30.696032373132788" lon="-6.448304557474416"><ele>935.0</ele><time>2026-03-26T09:17:54.02Z</time></trkpt><trkpt lat="30.69612658981063" lon="-6.4483124702990455"><ele>935.0</ele><time>2026-03-26T09:17:55.02Z</time></trkpt><trkpt lat="30.69622350590506" lon="-6.448322599089182"><ele>935.0</ele><time>2026-03-26T09:17:56.02Z</time></trkpt><trkpt lat="30.69632652250663" lon="-6.448326406871014"><ele>935.0</ele><time>2026-03-26T09:17:57.02Z</time></trkpt><trkpt lat="30.696425772766467" lon="-6.44834080221728"><ele>935.0</ele><time>2026-03-26T09:17:58.02Z</time></trkpt><trkpt lat="30.69651161946621" lon="-6.448343417763066"><ele>935.0</ele><time>2026-03-26T09:17:59.02Z</time></trkpt><trkpt lat="30.69659462653749" lon="-6.448350323947337"><ele>935.0</ele><time>2026-03-26T09:18:00.02Z</time></trkpt><trkpt lat="30.696715385205323" lon="-6.448368055869176"><ele>935.0</ele><time>2026-03-26T09:18:01.02Z</time></trkpt><trkpt lat="30.696856516661768" lon="-6.448375751744037"><ele>935.0</ele><time>2026-03-26T09:18:02.02Z</time></trkpt><trkpt lat="30.69699198060361" lon="-6.4483747206505075"><ele>935.0</ele><time>2026-03-26T09:18:03.02Z</time></trkpt><trkpt lat="30.697101522525987" lon="-6.448375299012174"><ele>935.0</ele><time>2026-03-26T09:18:04.02Z</time></trkpt><trkpt lat="30.697197857651293" lon="-6.44837734851052"><ele>935.0</ele><time>2026-03-26T09:18:05.02Z</time></trkpt><trkpt lat="30.69728141073763" lon="-6.448381059016914"><ele>935.0</ele><time>2026-03-26T09:18:06.02Z</time></trkpt><trkpt lat="30.697356294826246" lon="-6.44838424050154"><ele>935.0</ele><time>2026-03-26T09:18:07.02Z</time></trkpt><trkpt lat="30.69748181939339" lon="-6.448402097850314"><ele>935.0</ele><time>2026-03-26T09:18:09.02Z</time></trkpt><trkpt lat="30.697592922992133" lon="-6.448412455546978"><ele>935.0</ele><time>2026-03-26T09:18:11.02Z</time></trkpt><trkpt lat="30.697723366131026" lon="-6.448442469577422"><ele>935.0</ele><time>2026-03-26T09:18:13.02Z</time></trkpt><trkpt lat="30.697823647082448" lon="-6.448446679251999"><ele>935.0</ele><time>2026-03-26T09:18:14.02Z</time></trkpt><trkpt lat="30.697941522982784" lon="-6.448441692657679"><ele>935.0</ele><time>2026-03-26T09:18:15.02Z</time></trkpt><trkpt lat="30.69804355422853" lon="-6.448444021056314"><ele>935.0</ele><time>2026-03-26T09:18:16.02Z</time></trkpt><trkpt lat="30.69812854389604" lon="-6.448450371842323"><ele>935.0</ele><time>2026-03-26T09:18:17.02Z</time></trkpt><trkpt lat="30.698213318913265" lon="-6.448462835728749"><ele>935.0</ele><time>2026-03-26T09:18:18.02Z</time></trkpt><trkpt lat="30.69831321409028" lon="-6.448488427781983"><ele>935.0</ele><time>2026-03-26T09:18:19.02Z</time></trkpt><trkpt lat="30.69841822310049" lon="-6.448514647735505"><ele>935.0</ele><time>2026-03-26T09:18:20.02Z</time></trkpt><trkpt lat="30.69852725411611" lon="-6.4485422664637015"><ele>935.0</ele><time>2026-03-26T09:18:21.02Z</time></trkpt><trkpt lat="30.698632219316615" lon="-6.4485840177814335"><ele>935.0</ele><time>2026-03-26T09:18:22.02Z</time></trkpt><trkpt lat="30.698735049770832" lon="-6.448618600878791"><ele>935.0</ele><time>2026-03-26T09:18:23.02Z</time></trkpt><trkpt lat="30.69882724170106" lon="-6.448637838501903"><ele>935.0</ele><time>2026-03-26T09:18:24.02Z</time></trkpt><trkpt lat="30.698907583116156" lon="-6.448666262440648"><ele>934.5000000000001</ele><time>2026-03-26T09:18:25.021Z</time></trkpt><trkpt lat="30.698986670069093" lon="-6.448687172706129"><ele>934.0</ele><time>2026-03-26T09:18:26.021Z</time></trkpt><trkpt lat="30.699051074055188" lon="-6.448718254426127"><ele>933.5</ele><time>2026-03-26T09:18:27.021Z</time></trkpt><trkpt lat="30.699131881675722" lon="-6.448742784742165"><ele>933.0</ele><time>2026-03-26T09:18:28.021Z</time></trkpt><trkpt lat="30.69921106835723" lon="-6.4487754558546095"><ele>932.5000000000001</ele><time>2026-03-26T09:18:29.021Z</time></trkpt><trkpt lat="30.699281178536456" lon="-6.448817807751639"><ele>932.0</ele><time>2026-03-26T09:18:30.021Z</time></trkpt><trkpt lat="30.699356201507282" lon="-6.448843377887608"><ele>932.0</ele><time>2026-03-26T09:18:31.021Z</time></trkpt><trkpt lat="30.69943638955838" lon="-6.448855054181758"><ele>932.0</ele><time>2026-03-26T09:18:32.021Z</time></trkpt><trkpt lat="30.69952739132196" lon="-6.448862398742654"><ele>932.0</ele><time>2026-03-26T09:18:33.021Z</time></trkpt><trkpt lat="30.699628547706826" lon="-6.44888754386343"><ele>932.0</ele><time>2026-03-26T09:18:34.02Z</time></trkpt><trkpt lat="30.69973412105846" lon="-6.448931814552417"><ele>932.0</ele><time>2026-03-26T09:18:35.02Z</time></trkpt><trkpt lat="30.69987275667616" lon="-6.448970277070322"><ele>932.0</ele><time>2026-03-26T09:18:36.02Z</time></trkpt><trkpt lat="30.70002627819198" lon="-6.449017407768653"><ele>932.0</ele><time>2026-03-26T09:18:37.021Z</time></trkpt><trkpt lat="30.700146956414393" lon="-6.449060988542097"><ele>932.0</ele><time>2026-03-26T09:18:38.021Z</time></trkpt><trkpt lat="30.700244982340188" lon="-6.449100020814088"><ele>932.0</ele><time>2026-03-26T09:18:39.021Z</time></trkpt><trkpt lat="30.700339550339883" lon="-6.449130562366116"><ele>932.5</ele><time>2026-03-26T09:18:40.021Z</time></trkpt><trkpt lat="30.700431053747383" lon="-6.449157827565164"><ele>933.0</ele><time>2026-03-26T09:18:41.021Z</time></trkpt><trkpt lat="30.700529732006363" lon="-6.449187602597971"><ele>933.5</ele><time>2026-03-26T09:18:42.021Z</time></trkpt><trkpt lat="30.700653630071372" lon="-6.44923228807575"><ele>934.0</ele><time>2026-03-26T09:18:43.021Z</time></trkpt><trkpt lat="30.700787711928097" lon="-6.449278155232683"><ele>934.0</ele><time>2026-03-26T09:18:44.021Z</time></trkpt><trkpt lat="30.70090318431547" lon="-6.449315565479655"><ele>934.0000000000001</ele><time>2026-03-26T09:18:45.021Z</time></trkpt><trkpt lat="30.701003214195456" lon="-6.4493456820565935"><ele>934.0000000000001</ele><time>2026-03-26T09:18:46.021Z</time></trkpt><trkpt lat="30.701102948663955" lon="-6.44937104324499"><ele>934.0</ele><time>2026-03-26T09:18:47.021Z</time></trkpt><trkpt lat="30.701195512106292" lon="-6.449399472316416"><ele>934.0</ele><time>2026-03-26T09:18:48.021Z</time></trkpt><trkpt lat="30.701277722865772" lon="-6.449423744614275"><ele>933.6</ele><time>2026-03-26T09:18:49.021Z</time></trkpt><trkpt lat="30.701354724568684" lon="-6.449449149298059"><ele>933.2</ele><time>2026-03-26T09:18:50.021Z</time></trkpt><trkpt lat="30.701445596216203" lon="-6.449479897733303"><ele>932.8000000000001</ele><time>2026-03-26T09:18:51.021Z</time></trkpt><trkpt lat="30.70153414515451" lon="-6.449517960478476"><ele>932.4000000000001</ele><time>2026-03-26T09:18:52.021Z</time></trkpt><trkpt lat="30.70162436202826" lon="-6.449538984074074"><ele>932.0</ele><time>2026-03-26T09:18:53.021Z</time></trkpt><trkpt lat="30.70171600243106" lon="-6.449584873388502"><ele>932.0</ele><time>2026-03-26T09:18:54.021Z</time></trkpt><trkpt lat="30.70180992369423" lon="-6.449609049557921"><ele>932.0</ele><time>2026-03-26T09:18:55.021Z</time></trkpt><trkpt lat="30.701910582846434" lon="-6.4496433744348325"><ele>932.0</ele><time>2026-03-26T09:18:56.021Z</time></trkpt><trkpt lat="30.702015805068026" lon="-6.449673847128791"><ele>932.0</ele><time>2026-03-26T09:18:57.021Z</time></trkpt><trkpt lat="30.702116174104308" lon="-6.449702906484627"><ele>932.0</ele><time>2026-03-26T09:18:58.021Z</time></trkpt><trkpt lat="30.702202697483298" lon="-6.449730258346898"><ele>932.0</ele><time>2026-03-26T09:18:59.021Z</time></trkpt><trkpt lat="30.702281231520175" lon="-6.4497547350701"><ele>932.0</ele><time>2026-03-26T09:19:00.021Z</time></trkpt><trkpt lat="30.702365175003155" lon="-6.449785182135186"><ele>932.0</ele><time>2026-03-26T09:19:01.021Z</time></trkpt><trkpt lat="30.70243969148891" lon="-6.449803827625654"><ele>932.0</ele><time>2026-03-26T09:19:02.021Z</time></trkpt><trkpt lat="30.702536232150226" lon="-6.449823702597885"><ele>932.0</ele><time>2026-03-26T09:19:03.021Z</time></trkpt><trkpt lat="30.70263931892847" lon="-6.449865333700123"><ele>932.0000000000001</ele><time>2026-03-26T09:19:04.021Z</time></trkpt><trkpt lat="30.70274189893457" lon="-6.449899905181887"><ele>932.0</ele><time>2026-03-26T09:19:05.021Z</time></trkpt><trkpt lat="30.70283922204829" lon="-6.449929984077697"><ele>932.0</ele><time>2026-03-26T09:19:06.021Z</time></trkpt><trkpt lat="30.702923751101153" lon="-6.4499658775952255"><ele>932.0</ele><time>2026-03-26T09:19:07.021Z</time></trkpt><trkpt lat="30.70299698002353" lon="-6.449989570049913"><ele>932.0000000000001</ele><time>2026-03-26T09:19:08.021Z</time></trkpt><trkpt lat="30.703069889836463" lon="-6.450010810049853"><ele>932.0</ele><time>2026-03-26T09:19:09.021Z</time></trkpt><trkpt lat="30.70313698640851" lon="-6.450022094017437"><ele>931.8333333333334</ele><time>2026-03-26T09:19:10.021Z</time></trkpt><trkpt lat="30.703227746197825" lon="-6.450055338790478"><ele>931.6666666666667</ele><time>2026-03-26T09:19:11.021Z</time></trkpt><trkpt lat="30.703318906513307" lon="-6.450085194058482"><ele>931.5</ele><time>2026-03-26T09:19:12.021Z</time></trkpt><trkpt lat="30.703388737498475" lon="-6.45011217591537"><ele>931.3333333333333</ele><time>2026-03-26T09:19:13.021Z</time></trkpt><trkpt lat="30.703474922649335" lon="-6.450143068059755"><ele>931.1666666666666</ele><time>2026-03-26T09:19:14.021Z</time></trkpt><trkpt lat="30.70356413200862" lon="-6.450181098049804"><ele>931.0</ele><time>2026-03-26T09:19:15.021Z</time></trkpt><trkpt lat="30.703651595817387" lon="-6.4502228867116695"><ele>930.8</ele><time>2026-03-26T09:19:16.021Z</time></trkpt><trkpt lat="30.703746809778696" lon="-6.450258265182542"><ele>930.5999999999999</ele><time>2026-03-26T09:19:17.021Z</time></trkpt><trkpt lat="30.70384668235677" lon="-6.450276693102376"><ele>930.4</ele><time>2026-03-26T09:19:18.021Z</time></trkpt><trkpt lat="30.703957911226254" lon="-6.450282028381816"><ele>930.2</ele><time>2026-03-26T09:19:19.021Z</time></trkpt><trkpt lat="30.704067477977027" lon="-6.450285186908367"><ele>930.0</ele><time>2026-03-26T09:19:20.021Z</time></trkpt><trkpt lat="30.70418763166098" lon="-6.450287664250463"><ele>930.0</ele><time>2026-03-26T09:19:21.021Z</time></trkpt><trkpt lat="30.704308549088083" lon="-6.450280932420922"><ele>930.0</ele><time>2026-03-26T09:19:22.021Z</time></trkpt><trkpt lat="30.70443929525463" lon="-6.450270041778643"><ele>930.0</ele><time>2026-03-26T09:19:23.021Z</time></trkpt><trkpt lat="30.704579063024404" lon="-6.450251790939654"><ele>930.0</ele><time>2026-03-26T09:19:24.021Z</time></trkpt><trkpt lat="30.70471256938394" lon="-6.450240001002467"><ele>930.0</ele><time>2026-03-26T09:19:25.021Z</time></trkpt><trkpt lat="30.70482950460721" lon="-6.450231664510564"><ele>930.0</ele><time>2026-03-26T09:19:26.021Z</time></trkpt><trkpt lat="30.70494206386821" lon="-6.450221150731958"><ele>930.0</ele><time>2026-03-26T09:19:27.021Z</time></trkpt><trkpt lat="30.705052419434587" lon="-6.450202817907219"><ele>930.0</ele><time>2026-03-26T09:19:28.021Z</time></trkpt><trkpt lat="30.705153466405385" lon="-6.45018280186384"><ele>930.0</ele><time>2026-03-26T09:19:29.021Z</time></trkpt><trkpt lat="30.705247136575775" lon="-6.450166238547588"><ele>930.0</ele><time>2026-03-26T09:19:30.021Z</time></trkpt><trkpt lat="30.70534706596395" lon="-6.4501561888332795"><ele>930.0</ele><time>2026-03-26T09:19:31.021Z</time></trkpt><trkpt lat="30.70543644949592" lon="-6.450138790027852"><ele>930.0</ele><time>2026-03-26T09:19:32.021Z</time></trkpt><trkpt lat="30.70553144883644" lon="-6.4501153763331445"><ele>930.0</ele><time>2026-03-26T09:19:33.021Z</time></trkpt><trkpt lat="30.705629311929144" lon="-6.450099818722035"><ele>930.0</ele><time>2026-03-26T09:19:34.021Z</time></trkpt><trkpt lat="30.705729425523376" lon="-6.450102535950302"><ele>930.0</ele><time>2026-03-26T09:19:35.021Z</time></trkpt><trkpt lat="30.70582841408215" lon="-6.450094304554082"><ele>930.0</ele><time>2026-03-26T09:19:36.021Z</time></trkpt><trkpt lat="30.705929170681326" lon="-6.450095151567712"><ele>930.0</ele><time>2026-03-26T09:19:37.021Z</time></trkpt><trkpt lat="30.706046824982984" lon="-6.450065688431"><ele>930.0</ele><time>2026-03-26T09:19:38.021Z</time></trkpt><trkpt lat="30.706155229393527" lon="-6.450047988373864"><ele>930.0</ele><time>2026-03-26T09:19:39.021Z</time></trkpt><trkpt lat="30.706255569449112" lon="-6.450027580312927"><ele>930.25</ele><time>2026-03-26T09:19:40.021Z</time></trkpt><trkpt lat="30.706373057393233" lon="-6.450038699558102"><ele>930.5</ele><time>2026-03-26T09:19:41.021Z</time></trkpt><trkpt lat="30.706512409047185" lon="-6.450022869667763"><ele>930.75</ele><time>2026-03-26T09:19:42.021Z</time></trkpt><trkpt lat="30.706640654342813" lon="-6.449990110827861"><ele>931.0</ele><time>2026-03-26T09:19:43.021Z</time></trkpt><trkpt lat="30.706756463891814" lon="-6.449971437603881"><ele>931.0</ele><time>2026-03-26T09:19:44.021Z</time></trkpt><trkpt lat="30.706859586263676" lon="-6.449955318727981"><ele>930.9999999999999</ele><time>2026-03-26T09:19:45.021Z</time></trkpt><trkpt lat="30.706957498388913" lon="-6.449948003381294"><ele>930.9999999999999</ele><time>2026-03-26T09:19:46.021Z</time></trkpt><trkpt lat="30.70704199484222" lon="-6.449940785052869"><ele>931.0</ele><time>2026-03-26T09:19:47.021Z</time></trkpt><trkpt lat="30.70713971941331" lon="-6.449944838786327"><ele>931.0</ele><time>2026-03-26T09:19:48.021Z</time></trkpt><trkpt lat="30.707232102375727" lon="-6.449952263970454"><ele>931.4</ele><time>2026-03-26T09:19:49.021Z</time></trkpt><trkpt lat="30.707325062236674" lon="-6.449952516589888"><ele>931.8</ele><time>2026-03-26T09:19:50.021Z</time></trkpt><trkpt lat="30.70742549254991" lon="-6.44994629781076"><ele>932.1999999999999</ele><time>2026-03-26T09:19:51.021Z</time></trkpt><trkpt lat="30.7075198407301" lon="-6.449946251957171"><ele>932.5999999999999</ele><time>2026-03-26T09:19:52.021Z</time></trkpt><trkpt lat="30.707638036459453" lon="-6.449953310390943"><ele>933.0</ele><time>2026-03-26T09:19:53.021Z</time></trkpt><trkpt lat="30.707731103903654" lon="-6.449959126618756"><ele>933.0</ele><time>2026-03-26T09:19:54.021Z</time></trkpt><trkpt lat="30.707808468912575" lon="-6.4499621983756485"><ele>933.0</ele><time>2026-03-26T09:19:55.021Z</time></trkpt><trkpt lat="30.707897886428768" lon="-6.449945663457665"><ele>933.0</ele><time>2026-03-26T09:19:56.021Z</time></trkpt><trkpt lat="30.707999830105912" lon="-6.449907183204997"><ele>933.0</ele><time>2026-03-26T09:19:57.021Z</time></trkpt><trkpt lat="30.708091852894484" lon="-6.449849153670272"><ele>933.0</ele><time>2026-03-26T09:19:58.021Z</time></trkpt><trkpt lat="30.708178946474373" lon="-6.449779444457963"><ele>933.0</ele><time>2026-03-26T09:19:59.021Z</time></trkpt><trkpt lat="30.708253424951028" lon="-6.449697248938595"><ele>933.0</ele><time>2026-03-26T09:20:00.021Z</time></trkpt><trkpt lat="30.708350710200897" lon="-6.449615520487292"><ele>933.0</ele><time>2026-03-26T09:20:01.021Z</time></trkpt><trkpt lat="30.70843860854747" lon="-6.449514689090668"><ele>933.0</ele><time>2026-03-26T09:20:02.021Z</time></trkpt><trkpt lat="30.70852793159596" lon="-6.449423742864864"><ele>933.0</ele><time>2026-03-26T09:20:03.021Z</time></trkpt><trkpt lat="30.708608816320474" lon="-6.449331650878481"><ele>933.0</ele><time>2026-03-26T09:20:04.021Z</time></trkpt><trkpt lat="30.70868273869369" lon="-6.449254801063214"><ele>933.0</ele><time>2026-03-26T09:20:05.021Z</time></trkpt><trkpt lat="30.708760935907165" lon="-6.449164645023052"><ele>933.0</ele><time>2026-03-26T09:20:06.021Z</time></trkpt><trkpt lat="30.708839257819147" lon="-6.449079432586132"><ele>933.0</ele><time>2026-03-26T09:20:07.021Z</time></trkpt><trkpt lat="30.70893095005425" lon="-6.4489932716685985"><ele>933.0</ele><time>2026-03-26T09:20:08.021Z</time></trkpt><trkpt lat="30.70902121346487" lon="-6.448900856541027"><ele>933.0</ele><time>2026-03-26T09:20:09.021Z</time></trkpt><trkpt lat="30.70910639704748" lon="-6.448808575822964"><ele>933.0</ele><time>2026-03-26T09:20:10.021Z</time></trkpt><trkpt lat="30.70920502904605" lon="-6.448717762864758"><ele>933.0</ele><time>2026-03-26T09:20:11.021Z</time></trkpt><trkpt lat="30.709303514146622" lon="-6.448624912959227"><ele>932.75</ele><time>2026-03-26T09:20:12.021Z</time></trkpt><trkpt lat="30.7094025887721" lon="-6.448533542972596"><ele>932.5</ele><time>2026-03-26T09:20:13.021Z</time></trkpt><trkpt lat="30.70949259001384" lon="-6.4484435071464885"><ele>932.25</ele><time>2026-03-26T09:20:14.021Z</time></trkpt><trkpt lat="30.709585570966592" lon="-6.448347778719129"><ele>932.0</ele><time>2026-03-26T09:20:15.021Z</time></trkpt><trkpt lat="30.709672226084106" lon="-6.448274798709499"><ele>931.75</ele><time>2026-03-26T09:20:16.021Z</time></trkpt><trkpt lat="30.709771434494986" lon="-6.448189326395815"><ele>931.5</ele><time>2026-03-26T09:20:17.021Z</time></trkpt><trkpt lat="30.709861786557212" lon="-6.4481064662874745"><ele>931.25</ele><time>2026-03-26T09:20:18.021Z</time></trkpt><trkpt lat="30.709958899256186" lon="-6.448033549114952"><ele>931.0</ele><time>2026-03-26T09:20:19.021Z</time></trkpt><trkpt lat="30.710052886855664" lon="-6.447957295731892"><ele>931.0</ele><time>2026-03-26T09:20:20.021Z</time></trkpt><trkpt lat="30.71014587917083" lon="-6.447880542953448"><ele>930.9999999999999</ele><time>2026-03-26T09:20:21.021Z</time></trkpt><trkpt lat="30.710236642569754" lon="-6.447812010381422"><ele>930.9999999999999</ele><time>2026-03-26T09:20:22.021Z</time></trkpt><trkpt lat="30.71031234805063" lon="-6.447754961748307"><ele>931.0</ele><time>2026-03-26T09:20:23.021Z</time></trkpt><trkpt lat="30.710384360053805" lon="-6.447698658612292"><ele>931.0</ele><time>2026-03-26T09:20:24.021Z</time></trkpt><trkpt lat="30.71045310151594" lon="-6.447653006374568"><ele>930.9999999999999</ele><time>2026-03-26T09:20:25.021Z</time></trkpt><trkpt lat="30.710518277948246" lon="-6.447626956158676"><ele>931.0</ele><time>2026-03-26T09:20:26.021Z</time></trkpt><trkpt lat="30.71064042706635" lon="-6.447637804564607"><ele>931.0</ele><time>2026-03-26T09:20:28.021Z</time></trkpt><trkpt lat="30.71069845340535" lon="-6.447692753251771"><ele>931.0</ele><time>2026-03-26T09:20:29.021Z</time></trkpt><trkpt lat="30.71074030722434" lon="-6.447760727411228"><ele>930.9999999999999</ele><time>2026-03-26T09:20:30.021Z</time></trkpt><trkpt lat="30.7107853448176" lon="-6.447845977831197"><ele>931.0</ele><time>2026-03-26T09:20:31.021Z</time></trkpt><trkpt lat="30.710812619181134" lon="-6.447960066406912"><ele>931.0</ele><time>2026-03-26T09:20:32.021Z</time></trkpt><trkpt lat="30.710842549762706" lon="-6.448086669592024"><ele>930.9999999999999</ele><time>2026-03-26T09:20:33.021Z</time></trkpt><trkpt lat="30.710882027735632" lon="-6.448220305042207"><ele>930.9999999999999</ele><time>2026-03-26T09:20:34.022Z</time></trkpt><trkpt lat="30.710906519756506" lon="-6.448332710139476"><ele>931.0</ele><time>2026-03-26T09:20:35.021Z</time></trkpt><trkpt lat="30.710937840597882" lon="-6.448452152477384"><ele>931.0</ele><time>2026-03-26T09:20:36.021Z</time></trkpt><trkpt lat="30.71096382552195" lon="-6.448575053702892"><ele>931.0</ele><time>2026-03-26T09:20:37.021Z</time></trkpt><trkpt lat="30.71098788085014" lon="-6.448693721578762"><ele>930.9999999999999</ele><time>2026-03-26T09:20:38.021Z</time></trkpt><trkpt lat="30.711018475550723" lon="-6.448822433799983"><ele>930.9999999999999</ele><time>2026-03-26T09:20:39.021Z</time></trkpt><trkpt lat="30.711042407193066" lon="-6.448953089769577"><ele>931.0</ele><time>2026-03-26T09:20:40.021Z</time></trkpt><trkpt lat="30.711065947475483" lon="-6.449076105054225"><ele>931.0</ele><time>2026-03-26T09:20:41.021Z</time></trkpt><trkpt lat="30.711080231294712" lon="-6.449185186666792"><ele>931.1999999999999</ele><time>2026-03-26T09:20:42.021Z</time></trkpt><trkpt lat="30.711097967348344" lon="-6.449288020806895"><ele>931.3999999999999</ele><time>2026-03-26T09:20:43.022Z</time></trkpt><trkpt lat="30.711119064294007" lon="-6.449398376227189"><ele>931.6</ele><time>2026-03-26T09:20:44.021Z</time></trkpt><trkpt lat="30.711167795030004" lon="-6.449497100064278"><ele>931.8</ele><time>2026-03-26T09:20:45.021Z</time></trkpt><trkpt lat="30.71123767925249" lon="-6.44957127343275"><ele>932.0</ele><time>2026-03-26T09:20:46.021Z</time></trkpt><trkpt lat="30.711325094938925" lon="-6.449630324062503"><ele>932.0</ele><time>2026-03-26T09:20:47.021Z</time></trkpt><trkpt lat="30.711428295948096" lon="-6.449707296315321"><ele>932.0</ele><time>2026-03-26T09:20:48.021Z</time></trkpt><trkpt lat="30.711539068952934" lon="-6.449771474122337"><ele>932.0</ele><time>2026-03-26T09:20:49.021Z</time></trkpt><trkpt lat="30.71164865036183" lon="-6.449826246890458"><ele>932.0</ele><time>2026-03-26T09:20:50.021Z</time></trkpt><trkpt lat="30.71177186920677" lon="-6.449903056118976"><ele>932.0</ele><time>2026-03-26T09:20:51.021Z</time></trkpt><trkpt lat="30.71188861493401" lon="-6.449991984456618"><ele>932.0</ele><time>2026-03-26T09:20:52.021Z</time></trkpt><trkpt lat="30.711983125848004" lon="-6.450070311354851"><ele>932.0</ele><time>2026-03-26T09:20:53.021Z</time></trkpt><trkpt lat="30.71207935074491" lon="-6.450136369897909"><ele>932.0</ele><time>2026-03-26T09:20:54.021Z</time></trkpt><trkpt lat="30.712168204247025" lon="-6.450214768761425"><ele>932.6</ele><time>2026-03-26T09:20:55.021Z</time></trkpt><trkpt lat="30.712263003293117" lon="-6.450292084950037"><ele>933.2</ele><time>2026-03-26T09:20:56.021Z</time></trkpt><trkpt lat="30.71235536964466" lon="-6.450358138708248"><ele>933.8</ele><time>2026-03-26T09:20:57.021Z</time></trkpt><trkpt lat="30.71244333599477" lon="-6.450426199256352"><ele>934.4</ele><time>2026-03-26T09:20:58.021Z</time></trkpt><trkpt lat="30.71253286971627" lon="-6.450467837003667"><ele>935.0</ele><time>2026-03-26T09:20:59.021Z</time></trkpt><trkpt lat="30.712619545179773" lon="-6.450483459741272"><ele>935.25</ele><time>2026-03-26T09:21:00.021Z</time></trkpt><trkpt lat="30.712710516017104" lon="-6.450459994267779"><ele>935.5</ele><time>2026-03-26T09:21:01.021Z</time></trkpt><trkpt lat="30.712808371314193" lon="-6.4503979253398125"><ele>935.75</ele><time>2026-03-26T09:21:02.021Z</time></trkpt><trkpt lat="30.712910974002135" lon="-6.450311644374304"><ele>936.0</ele><time>2026-03-26T09:21:03.021Z</time></trkpt><trkpt lat="30.71300106762922" lon="-6.450221496658799"><ele>936.25</ele><time>2026-03-26T09:21:04.021Z</time></trkpt><trkpt lat="30.71308410692166" lon="-6.45012769666327"><ele>936.5</ele><time>2026-03-26T09:21:05.021Z</time></trkpt><trkpt lat="30.713173785593717" lon="-6.450026313599216"><ele>936.75</ele><time>2026-03-26T09:21:06.021Z</time></trkpt><trkpt lat="30.713270079007533" lon="-6.44992224912161"><ele>937.0</ele><time>2026-03-26T09:21:07.021Z</time></trkpt><trkpt lat="30.713356540642682" lon="-6.449820819313893"><ele>936.9999999999999</ele><time>2026-03-26T09:21:08.021Z</time></trkpt><trkpt lat="30.713422608907123" lon="-6.44973393292932"><ele>937.0</ele><time>2026-03-26T09:21:09.021Z</time></trkpt><trkpt lat="30.713482060347424" lon="-6.4496699182053225"><ele>937.0</ele><time>2026-03-26T09:21:10.021Z</time></trkpt><trkpt lat="30.71353928428784" lon="-6.449601514140441"><ele>937.0</ele><time>2026-03-26T09:21:11.021Z</time></trkpt><trkpt lat="30.713585591002484" lon="-6.449540064575599"><ele>936.9999999999999</ele><time>2026-03-26T09:21:12.021Z</time></trkpt><trkpt lat="30.71364201031771" lon="-6.449485206050274"><ele>937.0</ele><time>2026-03-26T09:21:13.021Z</time></trkpt><trkpt lat="30.71370213819201" lon="-6.449434600485073"><ele>936.6</ele><time>2026-03-26T09:21:14.021Z</time></trkpt><trkpt lat="30.713759212731567" lon="-6.4493840279770085"><ele>936.2</ele><time>2026-03-26T09:21:15.021Z</time></trkpt><trkpt lat="30.713824441754298" lon="-6.4493101468450575"><ele>935.8</ele><time>2026-03-26T09:21:16.021Z</time></trkpt><trkpt lat="30.71391074725123" lon="-6.449199869906811"><ele>935.4</ele><time>2026-03-26T09:21:17.021Z</time></trkpt><trkpt lat="30.713986404671587" lon="-6.449071263516555"><ele>935.0</ele><time>2026-03-26T09:21:18.021Z</time></trkpt><trkpt lat="30.714049120434403" lon="-6.448978517662827"><ele>935.0</ele><time>2026-03-26T09:21:19.021Z</time></trkpt><trkpt lat="30.714102248943142" lon="-6.448878629552738"><ele>935.0</ele><time>2026-03-26T09:21:20.021Z</time></trkpt><trkpt lat="30.71414082749626" lon="-6.448774048852868"><ele>935.0</ele><time>2026-03-26T09:21:21.021Z</time></trkpt><trkpt lat="30.714181283049754" lon="-6.4486803614152866"><ele>935.0</ele><time>2026-03-26T09:21:22.021Z</time></trkpt><trkpt lat="30.714235446693383" lon="-6.44858547363359"><ele>935.0</ele><time>2026-03-26T09:21:23.021Z</time></trkpt><trkpt lat="30.714286079001585" lon="-6.4485004304393385"><ele>935.2</ele><time>2026-03-26T09:21:24.021Z</time></trkpt><trkpt lat="30.71435332655959" lon="-6.448409006195741"><ele>935.4</ele><time>2026-03-26T09:21:25.021Z</time></trkpt><trkpt lat="30.714428347404564" lon="-6.4483620685270875"><ele>935.5999999999999</ele><time>2026-03-26T09:21:26.021Z</time></trkpt><trkpt lat="30.71451898168972" lon="-6.448346895466535"><ele>935.8</ele><time>2026-03-26T09:21:27.021Z</time></trkpt><trkpt lat="30.7146227842767" lon="-6.44835890338252"><ele>936.0</ele><time>2026-03-26T09:21:28.021Z</time></trkpt><trkpt lat="30.71473302500407" lon="-6.448405909049931"><ele>935.25</ele><time>2026-03-26T09:21:29.021Z</time></trkpt><trkpt lat="30.714847221012167" lon="-6.448486791785886"><ele>934.5</ele><time>2026-03-26T09:21:30.021Z</time></trkpt><trkpt lat="30.71498010674927" lon="-6.44855742604016"><ele>933.75</ele><time>2026-03-26T09:21:31.021Z</time></trkpt><trkpt lat="30.715102711716646" lon="-6.4486395901506794"><ele>933.0</ele><time>2026-03-26T09:21:32.021Z</time></trkpt><trkpt lat="30.715223734408543" lon="-6.448708215031395"><ele>934.0</ele><time>2026-03-26T09:21:33.021Z</time></trkpt><trkpt lat="30.71534095760982" lon="-6.448778019641056"><ele>935.0</ele><time>2026-03-26T09:21:34.021Z</time></trkpt><trkpt lat="30.715462064802" lon="-6.448846855474721"><ele>936.0</ele><time>2026-03-26T09:21:35.021Z</time></trkpt><trkpt lat="30.715581305925785" lon="-6.448918177892725"><ele>937.0</ele><time>2026-03-26T09:21:36.021Z</time></trkpt><trkpt lat="30.715694840123597" lon="-6.4489820383175775"><ele>937.0</ele><time>2026-03-26T09:21:37.021Z</time></trkpt><trkpt lat="30.715807125337406" lon="-6.449038586270569"><ele>937.0</ele><time>2026-03-26T09:21:38.021Z</time></trkpt><trkpt lat="30.715916058180557" lon="-6.449097698446385"><ele>937.0</ele><time>2026-03-26T09:21:39.021Z</time></trkpt><trkpt lat="30.716018638012123" lon="-6.449155945779641"><ele>937.0</ele><time>2026-03-26T09:21:40.021Z</time></trkpt><trkpt lat="30.71613990848902" lon="-6.449211320772928"><ele>937.0</ele><time>2026-03-26T09:21:41.021Z</time></trkpt><trkpt lat="30.71626194774018" lon="-6.449274870434837"><ele>937.0</ele><time>2026-03-26T09:21:42.021Z</time></trkpt><trkpt lat="30.716375069231365" lon="-6.449343252458655"><ele>937.0</ele><time>2026-03-26T09:21:43.021Z</time></trkpt><trkpt lat="30.716497296827374" lon="-6.449403716715005"><ele>937.0</ele><time>2026-03-26T09:21:44.021Z</time></trkpt><trkpt lat="30.716625166176886" lon="-6.449473854529856"><ele>937.0</ele><time>2026-03-26T09:21:45.021Z</time></trkpt><trkpt lat="30.716745962548675" lon="-6.449538263220584"><ele>937.0</ele><time>2026-03-26T09:21:46.021Z</time></trkpt><trkpt lat="30.71687827891476" lon="-6.449588691512969"><ele>937.0</ele><time>2026-03-26T09:21:47.021Z</time></trkpt><trkpt lat="30.71700829300783" lon="-6.449648163166506"><ele>937.0</ele><time>2026-03-26T09:21:48.021Z</time></trkpt><trkpt lat="30.717136920484204" lon="-6.449713417174784"><ele>936.5</ele><time>2026-03-26T09:21:49.021Z</time></trkpt><trkpt lat="30.717261516385914" lon="-6.4497679792224325"><ele>936.0</ele><time>2026-03-26T09:21:50.021Z</time></trkpt><trkpt lat="30.717390325818123" lon="-6.449818678460638"><ele>935.5</ele><time>2026-03-26T09:21:51.021Z</time></trkpt><trkpt lat="30.717514650423777" lon="-6.449867323609941"><ele>935.0</ele><time>2026-03-26T09:21:52.021Z</time></trkpt><trkpt lat="30.717635894269254" lon="-6.449916674146475"><ele>934.75</ele><time>2026-03-26T09:21:53.021Z</time></trkpt><trkpt lat="30.71776403369577" lon="-6.449967444792703"><ele>934.5</ele><time>2026-03-26T09:21:54.021Z</time></trkpt><trkpt lat="30.71789548015772" lon="-6.450019103822846"><ele>934.25</ele><time>2026-03-26T09:21:55.021Z</time></trkpt><trkpt lat="30.718031168688075" lon="-6.450071883456481"><ele>934.0</ele><time>2026-03-26T09:21:56.021Z</time></trkpt><trkpt lat="30.718170799297827" lon="-6.450127827726299"><ele>934.0</ele><time>2026-03-26T09:21:57.021Z</time></trkpt><trkpt lat="30.718309981831005" lon="-6.450189793711034"><ele>934.0</ele><time>2026-03-26T09:21:58.021Z</time></trkpt><trkpt lat="30.718448387587127" lon="-6.450248655903091"><ele>934.0</ele><time>2026-03-26T09:21:59.021Z</time></trkpt><trkpt lat="30.718574855776552" lon="-6.45029605219886"><ele>934.0</ele><time>2026-03-26T09:22:00.021Z</time></trkpt><trkpt lat="30.718707139167606" lon="-6.450348849597347"><ele>934.75</ele><time>2026-03-26T09:22:01.021Z</time></trkpt><trkpt lat="30.71883202279605" lon="-6.450395376098685"><ele>935.5</ele><time>2026-03-26T09:22:02.021Z</time></trkpt><trkpt lat="30.71896247198371" lon="-6.450432758736284"><ele>936.25</ele><time>2026-03-26T09:22:03.021Z</time></trkpt><trkpt lat="30.719083626037005" lon="-6.450463361505038"><ele>937.0</ele><time>2026-03-26T09:22:04.021Z</time></trkpt><trkpt lat="30.719209219970043" lon="-6.450498660414277"><ele>937.0</ele><time>2026-03-26T09:22:05.021Z</time></trkpt><trkpt lat="30.719336650312915" lon="-6.450532336639948"><ele>937.0</ele><time>2026-03-26T09:22:06.021Z</time></trkpt><trkpt lat="30.719464414573558" lon="-6.450566583864341"><ele>937.0</ele><time>2026-03-26T09:22:07.021Z</time></trkpt><trkpt lat="30.719600272613178" lon="-6.45060853834932"><ele>937.0</ele><time>2026-03-26T09:22:08.021Z</time></trkpt><trkpt lat="30.719739934348542" lon="-6.450649973777036"><ele>937.0</ele><time>2026-03-26T09:22:09.021Z</time></trkpt><trkpt lat="30.71989553764115" lon="-6.450691823329874"><ele>937.0</ele><time>2026-03-26T09:22:10.021Z</time></trkpt><trkpt lat="30.720040303582433" lon="-6.450730039902506"><ele>937.0</ele><time>2026-03-26T09:22:11.021Z</time></trkpt><trkpt lat="30.720178329182538" lon="-6.450765558418803"><ele>937.0</ele><time>2026-03-26T09:22:12.021Z</time></trkpt><trkpt lat="30.720305217344222" lon="-6.450791054720035"><ele>937.25</ele><time>2026-03-26T09:22:13.021Z</time></trkpt><trkpt lat="30.720426804734025" lon="-6.4508057609917735"><ele>937.5</ele><time>2026-03-26T09:22:14.021Z</time></trkpt><trkpt lat="30.720549033999042" lon="-6.450806894135619"><ele>937.75</ele><time>2026-03-26T09:22:15.021Z</time></trkpt><trkpt lat="30.72065591012065" lon="-6.450781914690832"><ele>938.0</ele><time>2026-03-26T09:22:16.021Z</time></trkpt><trkpt lat="30.72075126411919" lon="-6.450724391466974"><ele>938.0</ele><time>2026-03-26T09:22:17.021Z</time></trkpt><trkpt lat="30.720846223655474" lon="-6.450649317224668"><ele>938.0</ele><time>2026-03-26T09:22:18.021Z</time></trkpt><trkpt lat="30.720939330105242" lon="-6.450559450593"><ele>938.0</ele><time>2026-03-26T09:22:19.021Z</time></trkpt><trkpt lat="30.72102862428794" lon="-6.450459010413234"><ele>938.0</ele><time>2026-03-26T09:22:20.021Z</time></trkpt><trkpt lat="30.721124182019107" lon="-6.450354071520927"><ele>938.5</ele><time>2026-03-26T09:22:21.021Z</time></trkpt><trkpt lat="30.72122042805459" lon="-6.450251616234817"><ele>939.0</ele><time>2026-03-26T09:22:22.021Z</time></trkpt><trkpt lat="30.7213210352494" lon="-6.4501427349208695"><ele>939.5</ele><time>2026-03-26T09:22:23.021Z</time></trkpt><trkpt lat="30.72142865167035" lon="-6.450037105795418"><ele>940.0</ele><time>2026-03-26T09:22:24.021Z</time></trkpt><trkpt lat="30.72151758228483" lon="-6.449939487895202"><ele>940.0</ele><time>2026-03-26T09:22:25.021Z</time></trkpt><trkpt lat="30.721603866675203" lon="-6.449846084328648"><ele>940.0</ele><time>2026-03-26T09:22:26.021Z</time></trkpt><trkpt lat="30.72168923567619" lon="-6.449754267375778"><ele>940.0</ele><time>2026-03-26T09:22:27.021Z</time></trkpt><trkpt lat="30.72176486849069" lon="-6.449665817433266"><ele>940.0</ele><time>2026-03-26T09:22:28.021Z</time></trkpt><trkpt lat="30.721823307183822" lon="-6.449581081706556"><ele>940.0</ele><time>2026-03-26T09:22:29.021Z</time></trkpt><trkpt lat="30.721873260364518" lon="-6.449495065510042"><ele>940.0</ele><time>2026-03-26T09:22:30.021Z</time></trkpt><trkpt lat="30.721893855393976" lon="-6.449395365271967"><ele>940.0</ele><time>2026-03-26T09:22:31.021Z</time></trkpt><trkpt lat="30.721899871161632" lon="-6.449290168778217"><ele>940.0</ele><time>2026-03-26T09:22:32.021Z</time></trkpt><trkpt lat="30.721885288212796" lon="-6.44917203520892"><ele>940.0</ele><time>2026-03-26T09:22:33.021Z</time></trkpt><trkpt lat="30.721844407039736" lon="-6.449041916113224"><ele>940.0</ele><time>2026-03-26T09:22:34.021Z</time></trkpt><trkpt lat="30.72178069669548" lon="-6.448890691861293"><ele>941.75</ele><time>2026-03-26T09:22:35.021Z</time></trkpt><trkpt lat="30.721724710439585" lon="-6.448742830069771"><ele>943.5</ele><time>2026-03-26T09:22:36.021Z</time></trkpt><trkpt lat="30.721659944371467" lon="-6.4485958469158575"><ele>945.25</ele><time>2026-03-26T09:22:37.022Z</time></trkpt><trkpt lat="30.721588455202994" lon="-6.448456983125659"><ele>947.0</ele><time>2026-03-26T09:22:38.022Z</time></trkpt><trkpt lat="30.72152872973895" lon="-6.448325828459329"><ele>947.0</ele><time>2026-03-26T09:22:39.022Z</time></trkpt><trkpt lat="30.72149082914355" lon="-6.4481886104188755"><ele>947.0</ele><time>2026-03-26T09:22:40.022Z</time></trkpt><trkpt lat="30.72147991376744" lon="-6.448044884347508"><ele>947.0</ele><time>2026-03-26T09:22:41.022Z</time></trkpt><trkpt lat="30.72148398750046" lon="-6.447891179616494"><ele>947.0</ele><time>2026-03-26T09:22:42.022Z</time></trkpt><trkpt lat="30.721505437578436" lon="-6.4477423513505085"><ele>946.0</ele><time>2026-03-26T09:22:43.021Z</time></trkpt><trkpt lat="30.721539824930353" lon="-6.447595781853271"><ele>945.0</ele><time>2026-03-26T09:22:44.022Z</time></trkpt><trkpt lat="30.721583865726366" lon="-6.447464039305451"><ele>944.0</ele><time>2026-03-26T09:22:45.022Z</time></trkpt><trkpt lat="30.721639789443724" lon="-6.4473403599290435"><ele>943.0</ele><time>2026-03-26T09:22:46.021Z</time></trkpt><trkpt lat="30.721714571751864" lon="-6.447219965825505"><ele>941.5</ele><time>2026-03-26T09:22:47.021Z</time></trkpt><trkpt lat="30.721826343235136" lon="-6.447090275145726"><ele>940.0</ele><time>2026-03-26T09:22:48.021Z</time></trkpt><trkpt lat="30.72194116410884" lon="-6.446995900080727"><ele>938.5</ele><time>2026-03-26T09:22:49.022Z</time></trkpt><trkpt lat="30.722065083807667" lon="-6.446919791692392"><ele>937.0</ele><time>2026-03-26T09:22:50.022Z</time></trkpt><trkpt lat="30.722194516660664" lon="-6.446863187744451"><ele>937.0</ele><time>2026-03-26T09:22:51.022Z</time></trkpt><trkpt lat="30.72232210482171" lon="-6.446820425228382"><ele>937.0</ele><time>2026-03-26T09:22:52.022Z</time></trkpt><trkpt lat="30.722457827804593" lon="-6.446792190897509"><ele>937.0</ele><time>2026-03-26T09:22:53.022Z</time></trkpt><trkpt lat="30.72259941993508" lon="-6.446779883447798"><ele>937.0</ele><time>2026-03-26T09:22:54.022Z</time></trkpt><trkpt lat="30.722738105996086" lon="-6.446791654343455"><ele>937.6666666666666</ele><time>2026-03-26T09:22:55.022Z</time></trkpt><trkpt lat="30.72289153573373" lon="-6.44681951988953"><ele>938.3333333333333</ele><time>2026-03-26T09:22:56.022Z</time></trkpt><trkpt lat="30.72304834034292" lon="-6.44683322081868"><ele>939.0</ele><time>2026-03-26T09:22:57.022Z</time></trkpt><trkpt lat="30.723210136108676" lon="-6.446851786794724"><ele>939.0</ele><time>2026-03-26T09:22:58.022Z</time></trkpt><trkpt lat="30.7233781456539" lon="-6.446874080917703"><ele>939.0</ele><time>2026-03-26T09:22:59.022Z</time></trkpt><trkpt lat="30.723534918206045" lon="-6.446901371588097"><ele>939.0</ele><time>2026-03-26T09:23:00.022Z</time></trkpt><trkpt lat="30.72370188967388" lon="-6.446926616870757"><ele>938.3333333333333</ele><time>2026-03-26T09:23:01.022Z</time></trkpt><trkpt lat="30.723847309159545" lon="-6.446937916507785"><ele>937.6666666666666</ele><time>2026-03-26T09:23:02.022Z</time></trkpt><trkpt lat="30.724004031547313" lon="-6.446941993382314"><ele>937.0</ele><time>2026-03-26T09:23:03.022Z</time></trkpt><trkpt lat="30.724156544374203" lon="-6.446945883083884"><ele>937.0</ele><time>2026-03-26T09:23:04.022Z</time></trkpt><trkpt lat="30.72430864101123" lon="-6.446955268225931"><ele>937.0</ele><time>2026-03-26T09:23:05.022Z</time></trkpt><trkpt lat="30.72445834544462" lon="-6.446959054978755"><ele>937.0</ele><time>2026-03-26T09:23:06.022Z</time></trkpt><trkpt lat="30.724610801020585" lon="-6.446965478507467"><ele>935.6666666666666</ele><time>2026-03-26T09:23:07.022Z</time></trkpt><trkpt lat="30.724771100122577" lon="-6.446975532720951"><ele>934.3333333333333</ele><time>2026-03-26T09:23:08.022Z</time></trkpt><trkpt lat="30.724939291246184" lon="-6.446987686476273"><ele>933.0</ele><time>2026-03-26T09:23:09.022Z</time></trkpt><trkpt lat="30.725098489793076" lon="-6.447015822111606"><ele>933.0</ele><time>2026-03-26T09:23:10.022Z</time></trkpt><trkpt lat="30.725233518564703" lon="-6.44705050733191"><ele>933.0</ele><time>2026-03-26T09:23:11.022Z</time></trkpt><trkpt lat="30.725356025366125" lon="-6.447089963785488"><ele>933.0</ele><time>2026-03-26T09:23:12.022Z</time></trkpt><trkpt lat="30.725465312163582" lon="-6.447145404340721"><ele>933.0</ele><time>2026-03-26T09:23:13.022Z</time></trkpt><trkpt lat="30.725573291903128" lon="-6.447223403165342"><ele>935.0</ele><time>2026-03-26T09:23:14.022Z</time></trkpt><trkpt lat="30.725682584193567" lon="-6.447309748164774"><ele>937.0</ele><time>2026-03-26T09:23:15.022Z</time></trkpt><trkpt lat="30.725796625275194" lon="-6.447398736084545"><ele>939.0</ele><time>2026-03-26T09:23:16.022Z</time></trkpt><trkpt lat="30.725897047679208" lon="-6.447487184682602"><ele>941.0</ele><time>2026-03-26T09:23:17.022Z</time></trkpt><trkpt lat="30.72598638864787" lon="-6.4475914551345115"><ele>940.5</ele><time>2026-03-26T09:23:18.022Z</time></trkpt><trkpt lat="30.726084742904323" lon="-6.447684033223468"><ele>940.0</ele><time>2026-03-26T09:23:19.022Z</time></trkpt><trkpt lat="30.726190699500265" lon="-6.447762660073431"><ele>939.5</ele><time>2026-03-26T09:23:20.022Z</time></trkpt><trkpt lat="30.726318343463596" lon="-6.447820176355171"><ele>939.0</ele><time>2026-03-26T09:23:21.022Z</time></trkpt><trkpt lat="30.72645363924359" lon="-6.447851287477217"><ele>939.0</ele><time>2026-03-26T09:23:22.022Z</time></trkpt><trkpt lat="30.72660666285441" lon="-6.44785495350897"><ele>939.0</ele><time>2026-03-26T09:23:23.022Z</time></trkpt><trkpt lat="30.72676410678629" lon="-6.447853884974403"><ele>939.0</ele><time>2026-03-26T09:23:24.022Z</time></trkpt><trkpt lat="30.726925451910695" lon="-6.447848170964963"><ele>937.0</ele><time>2026-03-26T09:23:25.022Z</time></trkpt><trkpt lat="30.727099331085178" lon="-6.447834038541663"><ele>935.0</ele><time>2026-03-26T09:23:26.022Z</time></trkpt><trkpt lat="30.727262570920143" lon="-6.44782239479087"><ele>933.0</ele><time>2026-03-26T09:23:27.022Z</time></trkpt><trkpt lat="30.727414675758517" lon="-6.447801366839471"><ele>933.0</ele><time>2026-03-26T09:23:28.022Z</time></trkpt><trkpt lat="30.727564928195733" lon="-6.4477640106676555"><ele>933.0</ele><time>2026-03-26T09:23:29.022Z</time></trkpt><trkpt lat="30.727689400773" lon="-6.447725248202355"><ele>933.0</ele><time>2026-03-26T09:23:30.022Z</time></trkpt><trkpt lat="30.727817240445976" lon="-6.447686796581719"><ele>933.0</ele><time>2026-03-26T09:23:31.022Z</time></trkpt><trkpt lat="30.727933725721044" lon="-6.447662895458354"><ele>933.5</ele><time>2026-03-26T09:23:32.022Z</time></trkpt><trkpt lat="30.728056255120197" lon="-6.447645557448967"><ele>934.0</ele><time>2026-03-26T09:23:33.022Z</time></trkpt><trkpt lat="30.728178961064728" lon="-6.447632278074214"><ele>934.5</ele><time>2026-03-26T09:23:34.022Z</time></trkpt><trkpt lat="30.728291171657737" lon="-6.447628890869263"><ele>935.0</ele><time>2026-03-26T09:23:35.022Z</time></trkpt><trkpt lat="30.728403146720584" lon="-6.447622702032457"><ele>935.0</ele><time>2026-03-26T09:23:36.022Z</time></trkpt><trkpt lat="30.72850851165774" lon="-6.447626980031794"><ele>935.0</ele><time>2026-03-26T09:23:37.022Z</time></trkpt><trkpt lat="30.72861195487124" lon="-6.4476401574322955"><ele>935.0</ele><time>2026-03-26T09:23:38.022Z</time></trkpt><trkpt lat="30.728710186576706" lon="-6.447658662728689"><ele>935.0</ele><time>2026-03-26T09:23:39.022Z</time></trkpt><trkpt lat="30.72880697561365" lon="-6.447680879083379"><ele>935.0</ele><time>2026-03-26T09:23:40.022Z</time></trkpt><trkpt lat="30.728913076284197" lon="-6.44771216443192"><ele>935.0</ele><time>2026-03-26T09:23:41.022Z</time></trkpt><trkpt lat="30.72901617631406" lon="-6.447744265886193"><ele>935.0</ele><time>2026-03-26T09:23:42.022Z</time></trkpt><trkpt lat="30.729113454338535" lon="-6.447774942964368"><ele>935.0</ele><time>2026-03-26T09:23:43.022Z</time></trkpt><trkpt lat="30.729210218586182" lon="-6.447815872573582"><ele>935.0</ele><time>2026-03-26T09:23:44.022Z</time></trkpt><trkpt lat="30.729310488691944" lon="-6.447856268236137"><ele>935.0</ele><time>2026-03-26T09:23:45.022Z</time></trkpt><trkpt lat="30.729417422010265" lon="-6.447890752644162"><ele>935.0</ele><time>2026-03-26T09:23:46.022Z</time></trkpt><trkpt lat="30.729528015571443" lon="-6.447920082046954"><ele>935.0</ele><time>2026-03-26T09:23:47.022Z</time></trkpt><trkpt lat="30.729642198900624" lon="-6.4479619719934504"><ele>935.0</ele><time>2026-03-26T09:23:48.022Z</time></trkpt><trkpt lat="30.7297642939003" lon="-6.44798976807056"><ele>935.0</ele><time>2026-03-26T09:23:49.022Z</time></trkpt><trkpt lat="30.729881829908205" lon="-6.448013562915035"><ele>935.0</ele><time>2026-03-26T09:23:50.022Z</time></trkpt><trkpt lat="30.72999867811925" lon="-6.448028978441423"><ele>935.0</ele><time>2026-03-26T09:23:51.022Z</time></trkpt><trkpt lat="30.730120190408492" lon="-6.448033041802332"><ele>935.0</ele><time>2026-03-26T09:23:52.022Z</time></trkpt><trkpt lat="30.730234389333148" lon="-6.448041934017557"><ele>935.0</ele><time>2026-03-26T09:23:53.022Z</time></trkpt><trkpt lat="30.7303536067008" lon="-6.44804692573436"><ele>935.0</ele><time>2026-03-26T09:23:54.022Z</time></trkpt><trkpt lat="30.730467282899262" lon="-6.448046943862893"><ele>935.0</ele><time>2026-03-26T09:23:55.022Z</time></trkpt><trkpt lat="30.730581885750368" lon="-6.448037712212163"><ele>935.0</ele><time>2026-03-26T09:23:56.022Z</time></trkpt><trkpt lat="30.73069308868218" lon="-6.448037866179792"><ele>935.0</ele><time>2026-03-26T09:23:57.022Z</time></trkpt><trkpt lat="30.730808355322807" lon="-6.448049601658949"><ele>935.0</ele><time>2026-03-26T09:23:58.022Z</time></trkpt><trkpt lat="30.730925711100927" lon="-6.4480622225302495"><ele>935.0</ele><time>2026-03-26T09:23:59.022Z</time></trkpt><trkpt lat="30.731050902193903" lon="-6.448073317701296"><ele>935.0</ele><time>2026-03-26T09:24:00.022Z</time></trkpt><trkpt lat="30.731162135262856" lon="-6.44807528379561"><ele>935.0</ele><time>2026-03-26T09:24:01.022Z</time></trkpt><trkpt lat="30.73127310805957" lon="-6.448086659366451"><ele>935.75</ele><time>2026-03-26T09:24:02.022Z</time></trkpt><trkpt lat="30.731395616186738" lon="-6.448086267954552"><ele>936.5</ele><time>2026-03-26T09:24:03.022Z</time></trkpt><trkpt lat="30.73151072298729" lon="-6.448078099061593"><ele>937.25</ele><time>2026-03-26T09:24:04.022Z</time></trkpt><trkpt lat="30.7316285564551" lon="-6.448051558870538"><ele>938.0</ele><time>2026-03-26T09:24:05.022Z</time></trkpt><trkpt lat="30.73175242021787" lon="-6.448002518217516"><ele>938.25</ele><time>2026-03-26T09:24:06.022Z</time></trkpt><trkpt lat="30.73187027816011" lon="-6.4479484499018485"><ele>938.5</ele><time>2026-03-26T09:24:07.022Z</time></trkpt><trkpt lat="30.731994273200677" lon="-6.447905944585721"><ele>938.75</ele><time>2026-03-26T09:24:08.022Z</time></trkpt><trkpt lat="30.732110639522457" lon="-6.447834057054154"><ele>939.0</ele><time>2026-03-26T09:24:09.022Z</time></trkpt><trkpt lat="30.73223239221855" lon="-6.447766196034231"><ele>939.0</ele><time>2026-03-26T09:24:10.022Z</time></trkpt><trkpt lat="30.732353572879266" lon="-6.447706409890997"><ele>939.0</ele><time>2026-03-26T09:24:11.022Z</time></trkpt><trkpt lat="30.732476523483516" lon="-6.447646789538906"><ele>939.0</ele><time>2026-03-26T09:24:12.022Z</time></trkpt><trkpt lat="30.732600891604957" lon="-6.447595145373542"><ele>939.0</ele><time>2026-03-26T09:24:13.022Z</time></trkpt><trkpt lat="30.732729410300085" lon="-6.447541345654263"><ele>940.5</ele><time>2026-03-26T09:24:14.022Z</time></trkpt><trkpt lat="30.73286549665887" lon="-6.447487092628424"><ele>942.0</ele><time>2026-03-26T09:24:15.022Z</time></trkpt><trkpt lat="30.73299104772185" lon="-6.447443060653822"><ele>943.5</ele><time>2026-03-26T09:24:16.022Z</time></trkpt><trkpt lat="30.733118140911337" lon="-6.44740473830594"><ele>945.0</ele><time>2026-03-26T09:24:17.022Z</time></trkpt><trkpt lat="30.733247613090004" lon="-6.447368083319847"><ele>945.0</ele><time>2026-03-26T09:24:18.022Z</time></trkpt><trkpt lat="30.73336496882164" lon="-6.447335986162052"><ele>945.0</ele><time>2026-03-26T09:24:19.022Z</time></trkpt><trkpt lat="30.733468522987774" lon="-6.44730565241116"><ele>945.0</ele><time>2026-03-26T09:24:20.022Z</time></trkpt><trkpt lat="30.733565301791188" lon="-6.447277543459761"><ele>945.0</ele><time>2026-03-26T09:24:21.022Z</time></trkpt><trkpt lat="30.73366522079888" lon="-6.44724530285433"><ele>945.0</ele><time>2026-03-26T09:24:22.022Z</time></trkpt><trkpt lat="30.73377578930946" lon="-6.447203487856193"><ele>944.5</ele><time>2026-03-26T09:24:23.022Z</time></trkpt><trkpt lat="30.733887949064762" lon="-6.447142516128475"><ele>944.0</ele><time>2026-03-26T09:24:24.022Z</time></trkpt><trkpt lat="30.733989586537863" lon="-6.447063209511238"><ele>943.5</ele><time>2026-03-26T09:24:25.022Z</time></trkpt><trkpt lat="30.73409490733583" lon="-6.446983119037325"><ele>943.0</ele><time>2026-03-26T09:24:26.022Z</time></trkpt><trkpt lat="30.73419992859172" lon="-6.446912234789213"><ele>942.0</ele><time>2026-03-26T09:24:27.022Z</time></trkpt><trkpt lat="30.73431800848169" lon="-6.446825542282476"><ele>941.0</ele><time>2026-03-26T09:24:28.022Z</time></trkpt><trkpt lat="30.734432295231805" lon="-6.446745535723367"><ele>940.0</ele><time>2026-03-26T09:24:29.022Z</time></trkpt><trkpt lat="30.734552539005975" lon="-6.446658643843815"><ele>939.0</ele><time>2026-03-26T09:24:30.022Z</time></trkpt><trkpt lat="30.734673521435873" lon="-6.4465743867021885"><ele>939.0</ele><time>2026-03-26T09:24:31.022Z</time></trkpt><trkpt lat="30.734785972810485" lon="-6.446497597230891"><ele>939.0</ele><time>2026-03-26T09:24:32.022Z</time></trkpt><trkpt lat="30.734899228413134" lon="-6.446420725675961"><ele>939.0</ele><time>2026-03-26T09:24:33.022Z</time></trkpt><trkpt lat="30.735008003070167" lon="-6.446350944974863"><ele>939.0</ele><time>2026-03-26T09:24:34.022Z</time></trkpt><trkpt lat="30.735114937097876" lon="-6.446285675324661"><ele>938.75</ele><time>2026-03-26T09:24:35.022Z</time></trkpt><trkpt lat="30.735223925995168" lon="-6.446227072633506"><ele>938.5</ele><time>2026-03-26T09:24:36.022Z</time></trkpt><trkpt lat="30.73533202162751" lon="-6.446176968067115"><ele>938.25</ele><time>2026-03-26T09:24:37.022Z</time></trkpt><trkpt lat="30.735439063720577" lon="-6.446120046216139"><ele>938.0</ele><time>2026-03-26T09:24:38.022Z</time></trkpt><trkpt lat="30.73554880523479" lon="-6.44606895244665"><ele>938.0</ele><time>2026-03-26T09:24:39.022Z</time></trkpt><trkpt lat="30.735660791767884" lon="-6.446023314440545"><ele>938.0</ele><time>2026-03-26T09:24:40.022Z</time></trkpt><trkpt lat="30.73576628249483" lon="-6.4459852728935285"><ele>938.0</ele><time>2026-03-26T09:24:41.022Z</time></trkpt><trkpt lat="30.735875534933676" lon="-6.445942897342944"><ele>938.0</ele><time>2026-03-26T09:24:42.022Z</time></trkpt><trkpt lat="30.735987870786662" lon="-6.445902239458723"><ele>938.5</ele><time>2026-03-26T09:24:43.023Z</time></trkpt><trkpt lat="30.736102725354854" lon="-6.445873148471336"><ele>939.0</ele><time>2026-03-26T09:24:44.022Z</time></trkpt><trkpt lat="30.736224046403436" lon="-6.445839395584596"><ele>939.5</ele><time>2026-03-26T09:24:45.022Z</time></trkpt><trkpt lat="30.736341435942798" lon="-6.445811466358442"><ele>940.0</ele><time>2026-03-26T09:24:46.022Z</time></trkpt><trkpt lat="30.73646167644624" lon="-6.445788286794982"><ele>940.0</ele><time>2026-03-26T09:24:47.022Z</time></trkpt><trkpt lat="30.736572252117636" lon="-6.445763024939193"><ele>940.0</ele><time>2026-03-26T09:24:48.022Z</time></trkpt><trkpt lat="30.736671921808426" lon="-6.4457257561884145"><ele>940.0</ele><time>2026-03-26T09:24:49.022Z</time></trkpt><trkpt lat="30.736765461890485" lon="-6.445694064985191"><ele>940.0</ele><time>2026-03-26T09:24:50.022Z</time></trkpt><trkpt lat="30.736850755251236" lon="-6.445676345915408"><ele>940.0</ele><time>2026-03-26T09:24:51.022Z</time></trkpt><trkpt lat="30.73693224369036" lon="-6.445699241240928"><ele>940.5</ele><time>2026-03-26T09:24:52.022Z</time></trkpt><trkpt lat="30.737013578829004" lon="-6.445783844529444"><ele>941.0</ele><time>2026-03-26T09:24:53.022Z</time></trkpt><trkpt lat="30.73707350948245" lon="-6.445893267483671"><ele>941.5</ele><time>2026-03-26T09:24:54.022Z</time></trkpt><trkpt lat="30.737124548427335" lon="-6.44601215968806"><ele>942.0</ele><time>2026-03-26T09:24:55.022Z</time></trkpt><trkpt lat="30.737187887961092" lon="-6.446140512482987"><ele>942.0</ele><time>2026-03-26T09:24:56.022Z</time></trkpt><trkpt lat="30.737241610322517" lon="-6.446280166677626"><ele>942.0</ele><time>2026-03-26T09:24:57.022Z</time></trkpt><trkpt lat="30.737278801656622" lon="-6.446430252569108"><ele>942.0</ele><time>2026-03-26T09:24:58.022Z</time></trkpt><trkpt lat="30.737300988357138" lon="-6.446552229926354"><ele>942.0</ele><time>2026-03-26T09:24:59.022Z</time></trkpt><trkpt lat="30.73730338759715" lon="-6.446676112398036"><ele>942.0</ele><time>2026-03-26T09:25:00.022Z</time></trkpt><trkpt lat="30.737308157066263" lon="-6.446802371004267"><ele>942.0</ele><time>2026-03-26T09:25:01.022Z</time></trkpt><trkpt lat="30.73731155654546" lon="-6.446904125035781"><ele>942.0</ele><time>2026-03-26T09:25:02.022Z</time></trkpt><trkpt lat="30.737310951689842" lon="-6.447003785474321"><ele>942.0</ele><time>2026-03-26T09:25:03.022Z</time></trkpt><trkpt lat="30.737310681060453" lon="-6.447099882949351"><ele>942.0</ele><time>2026-03-26T09:25:04.022Z</time></trkpt><trkpt lat="30.737321928583075" lon="-6.447210721268258"><ele>942.8</ele><time>2026-03-26T09:25:05.022Z</time></trkpt><trkpt lat="30.737347630492202" lon="-6.447340997809068"><ele>943.6</ele><time>2026-03-26T09:25:06.022Z</time></trkpt><trkpt lat="30.737398765171772" lon="-6.447443201522109"><ele>944.3999999999999</ele><time>2026-03-26T09:25:07.022Z</time></trkpt><trkpt lat="30.737459003730116" lon="-6.447508547704933"><ele>945.1999999999999</ele><time>2026-03-26T09:25:08.022Z</time></trkpt><trkpt lat="30.737520288646575" lon="-6.447552067883821"><ele>946.0</ele><time>2026-03-26T09:25:09.021Z</time></trkpt><trkpt lat="30.737604580480625" lon="-6.447556309599813"><ele>945.25</ele><time>2026-03-26T09:25:10.02Z</time></trkpt><trkpt lat="30.73771876543648" lon="-6.447547049699795"><ele>944.5</ele><time>2026-03-26T09:25:11.019Z</time></trkpt><trkpt lat="30.737851892431767" lon="-6.4475307007573734"><ele>943.75</ele><time>2026-03-26T09:25:12.019Z</time></trkpt><trkpt lat="30.737971437659578" lon="-6.447534674834121"><ele>943.0</ele><time>2026-03-26T09:25:13.018Z</time></trkpt><trkpt lat="30.73807757919813" lon="-6.447547840933117"><ele>943.0</ele><time>2026-03-26T09:25:14.018Z</time></trkpt><trkpt lat="30.73817450050462" lon="-6.447554293706257"><ele>943.0</ele><time>2026-03-26T09:25:15.017Z</time></trkpt><trkpt lat="30.73826708208649" lon="-6.447571042626391"><ele>943.0</ele><time>2026-03-26T09:25:16.016Z</time></trkpt><trkpt lat="30.73836507555828" lon="-6.447610587803144"><ele>943.0</ele><time>2026-03-26T09:25:17.016Z</time></trkpt><trkpt lat="30.73846790007908" lon="-6.447630232322386"><ele>943.0</ele><time>2026-03-26T09:25:18.015Z</time></trkpt><trkpt lat="30.738597301952755" lon="-6.447600579756337"><ele>943.3333333333333</ele><time>2026-03-26T09:25:19.015Z</time></trkpt><trkpt lat="30.738755408139575" lon="-6.447533723903648"><ele>943.6666666666667</ele><time>2026-03-26T09:25:20.015Z</time></trkpt><trkpt lat="30.73891175611342" lon="-6.447495316189631"><ele>944.0</ele><time>2026-03-26T09:25:21.014Z</time></trkpt><trkpt lat="30.739049927863796" lon="-6.447462733290124"><ele>944.0</ele><time>2026-03-26T09:25:22.014Z</time></trkpt><trkpt lat="30.739181819593746" lon="-6.447429201900989"><ele>944.0</ele><time>2026-03-26T09:25:23.013Z</time></trkpt><trkpt lat="30.739312277882796" lon="-6.4473984418405355"><ele>944.0</ele><time>2026-03-26T09:25:24.013Z</time></trkpt><trkpt lat="30.73945510116239" lon="-6.447371036868062"><ele>944.0</ele><time>2026-03-26T09:25:25.013Z</time></trkpt><trkpt lat="30.739606197810506" lon="-6.447338162626925"><ele>944.75</ele><time>2026-03-26T09:25:26.013Z</time></trkpt><trkpt lat="30.739738982139716" lon="-6.447309293666642"><ele>945.5</ele><time>2026-03-26T09:25:27.012Z</time></trkpt><trkpt lat="30.739862938968045" lon="-6.447280518179354"><ele>946.25</ele><time>2026-03-26T09:25:28.012Z</time></trkpt><trkpt lat="30.73998134786721" lon="-6.4472537331493385"><ele>947.0</ele><time>2026-03-26T09:25:29.012Z</time></trkpt><trkpt lat="30.740088054876235" lon="-6.447235449323565"><ele>947.0</ele><time>2026-03-26T09:25:30.012Z</time></trkpt><trkpt lat="30.740195434231765" lon="-6.447213158263063"><ele>947.0</ele><time>2026-03-26T09:25:31.011Z</time></trkpt><trkpt lat="30.74029445914359" lon="-6.447179289619971"><ele>947.0</ele><time>2026-03-26T09:25:32.011Z</time></trkpt><trkpt lat="30.740415069039305" lon="-6.447130918134606"><ele>947.0</ele><time>2026-03-26T09:25:33.011Z</time></trkpt><trkpt lat="30.74054276612069" lon="-6.447065237387433"><ele>948.5</ele><time>2026-03-26T09:25:34.011Z</time></trkpt><trkpt lat="30.740665742320527" lon="-6.447007215491937"><ele>950.0</ele><time>2026-03-26T09:25:35.011Z</time></trkpt><trkpt lat="30.740785175774274" lon="-6.4469780468545235"><ele>951.5</ele><time>2026-03-26T09:25:36.011Z</time></trkpt><trkpt lat="30.74088844272151" lon="-6.446982613619193"><ele>953.0</ele><time>2026-03-26T09:25:37.01Z</time></trkpt><trkpt lat="30.740990158370522" lon="-6.447053571335833"><ele>954.5</ele><time>2026-03-26T09:25:38.01Z</time></trkpt><trkpt lat="30.741080668437615" lon="-6.44715643837661"><ele>956.0</ele><time>2026-03-26T09:25:39.01Z</time></trkpt><trkpt lat="30.741150625814516" lon="-6.447294383347747"><ele>957.5</ele><time>2026-03-26T09:25:40.01Z</time></trkpt><trkpt lat="30.741218305032238" lon="-6.447441273234892"><ele>959.0</ele><time>2026-03-26T09:25:41.01Z</time></trkpt><trkpt lat="30.741280350786237" lon="-6.447577772826401"><ele>959.0</ele><time>2026-03-26T09:25:42.01Z</time></trkpt><trkpt lat="30.741348513383485" lon="-6.447703502294358"><ele>959.0</ele><time>2026-03-26T09:25:43.01Z</time></trkpt><trkpt lat="30.74141520903316" lon="-6.447828994372986"><ele>959.0</ele><time>2026-03-26T09:25:44.01Z</time></trkpt><trkpt lat="30.741478671510198" lon="-6.447943609346308"><ele>959.0</ele><time>2026-03-26T09:25:45.01Z</time></trkpt><trkpt lat="30.741566226394973" lon="-6.448041194846534"><ele>959.0</ele><time>2026-03-26T09:25:46.01Z</time></trkpt><trkpt lat="30.74166494543492" lon="-6.448133292746139"><ele>959.0</ele><time>2026-03-26T09:25:47.009Z</time></trkpt><trkpt lat="30.741755883371248" lon="-6.448202612975665"><ele>959.0</ele><time>2026-03-26T09:25:48.009Z</time></trkpt><trkpt lat="30.741842311330085" lon="-6.44828357020554"><ele>959.0</ele><time>2026-03-26T09:25:49.009Z</time></trkpt><trkpt lat="30.74192417994276" lon="-6.448378902908451"><ele>959.2</ele><time>2026-03-26T09:25:50.009Z</time></trkpt><trkpt lat="30.742004666356728" lon="-6.448470931632262"><ele>959.4000000000001</ele><time>2026-03-26T09:25:51.009Z</time></trkpt><trkpt lat="30.742084439052398" lon="-6.4485596285705205"><ele>959.6</ele><time>2026-03-26T09:25:52.009Z</time></trkpt><trkpt lat="30.742170248166374" lon="-6.44864637537254"><ele>959.8</ele><time>2026-03-26T09:25:53.009Z</time></trkpt><trkpt lat="30.742257036625006" lon="-6.448729517083322"><ele>960.0</ele><time>2026-03-26T09:25:54.009Z</time></trkpt><trkpt lat="30.742347332540035" lon="-6.448798346109657"><ele>960.75</ele><time>2026-03-26T09:25:55.009Z</time></trkpt><trkpt lat="30.742444125617755" lon="-6.448857805942839"><ele>961.5</ele><time>2026-03-26T09:25:56.009Z</time></trkpt><trkpt lat="30.742545773614683" lon="-6.448910747995673"><ele>962.25</ele><time>2026-03-26T09:25:57.009Z</time></trkpt><trkpt lat="30.742658023478686" lon="-6.448957200402386"><ele>963.0</ele><time>2026-03-26T09:25:58.009Z</time></trkpt><trkpt lat="30.742777222664238" lon="-6.448990546913796"><ele>964.0</ele><time>2026-03-26T09:25:59.009Z</time></trkpt><trkpt lat="30.742892915332565" lon="-6.449018199394358"><ele>965.0</ele><time>2026-03-26T09:26:00.009Z</time></trkpt><trkpt lat="30.74302785937903" lon="-6.449047638541222"><ele>966.0</ele><time>2026-03-26T09:26:01.009Z</time></trkpt><trkpt lat="30.74315789775832" lon="-6.449072748698817"><ele>967.0</ele><time>2026-03-26T09:26:02.009Z</time></trkpt><trkpt lat="30.74328273451812" lon="-6.449099855789287"><ele>967.0</ele><time>2026-03-26T09:26:03.009Z</time></trkpt><trkpt lat="30.74339842561849" lon="-6.449125291426392"><ele>967.0</ele><time>2026-03-26T09:26:04.009Z</time></trkpt><trkpt lat="30.743509659004985" lon="-6.449151965806078"><ele>967.0</ele><time>2026-03-26T09:26:05.009Z</time></trkpt><trkpt lat="30.743625231523737" lon="-6.449195588910054"><ele>967.0</ele><time>2026-03-26T09:26:06.009Z</time></trkpt><trkpt lat="30.74374481114628" lon="-6.449276075354164"><ele>966.0</ele><time>2026-03-26T09:26:07.009Z</time></trkpt><trkpt lat="30.743850180569225" lon="-6.449345208676853"><ele>965.0</ele><time>2026-03-26T09:26:08.009Z</time></trkpt><trkpt lat="30.743959112668932" lon="-6.449395186148935"><ele>964.0</ele><time>2026-03-26T09:26:09.009Z</time></trkpt><trkpt lat="30.74405812509815" lon="-6.449427998428587"><ele>963.0</ele><time>2026-03-26T09:26:10.009Z</time></trkpt><trkpt lat="30.744196761128773" lon="-6.449427147187932"><ele>963.0</ele><time>2026-03-26T09:26:11.009Z</time></trkpt><trkpt lat="30.744361464442985" lon="-6.449392749339606"><ele>963.0</ele><time>2026-03-26T09:26:12.009Z</time></trkpt><trkpt lat="30.744537788202102" lon="-6.449353311426054"><ele>963.0</ele><time>2026-03-26T09:26:13.009Z</time></trkpt><trkpt lat="30.744726291630847" lon="-6.449310831981099"><ele>962.6666666666667</ele><time>2026-03-26T09:26:14.009Z</time></trkpt><trkpt lat="30.744902121483705" lon="-6.449267465434986"><ele>962.3333333333334</ele><time>2026-03-26T09:26:15.009Z</time></trkpt><trkpt lat="30.745058086225942" lon="-6.449225919441898"><ele>962.0</ele><time>2026-03-26T09:26:16.009Z</time></trkpt><trkpt lat="30.745201101944502" lon="-6.449178687657006"><ele>961.3333333333334</ele><time>2026-03-26T09:26:17.009Z</time></trkpt><trkpt lat="30.74535781088231" lon="-6.449112332112618"><ele>960.6666666666667</ele><time>2026-03-26T09:26:18.009Z</time></trkpt><trkpt lat="30.74553724039955" lon="-6.449030125202143"><ele>960.0</ele><time>2026-03-26T09:26:19.009Z</time></trkpt><trkpt lat="30.745720108059967" lon="-6.448946681358035"><ele>960.0</ele><time>2026-03-26T09:26:20.009Z</time></trkpt><trkpt lat="30.745875315671153" lon="-6.448879910220005"><ele>960.0</ele><time>2026-03-26T09:26:21.009Z</time></trkpt><trkpt lat="30.746034441771336" lon="-6.448810929164218"><ele>960.0</ele><time>2026-03-26T09:26:22.009Z</time></trkpt><trkpt lat="30.74620723980779" lon="-6.448742196800777"><ele>960.6666666666667</ele><time>2026-03-26T09:26:23.009Z</time></trkpt><trkpt lat="30.746402279583528" lon="-6.448654780624968"><ele>961.3333333333334</ele><time>2026-03-26T09:26:24.009Z</time></trkpt><trkpt lat="30.746592648322693" lon="-6.448572113413043"><ele>962.0</ele><time>2026-03-26T09:26:25.009Z</time></trkpt><trkpt lat="30.746762875658174" lon="-6.448501838187229"><ele>963.3333333333334</ele><time>2026-03-26T09:26:26.009Z</time></trkpt><trkpt lat="30.746934667239035" lon="-6.44842920663139"><ele>964.6666666666667</ele><time>2026-03-26T09:26:27.009Z</time></trkpt><trkpt lat="30.74710772997946" lon="-6.448365643135356"><ele>966.0</ele><time>2026-03-26T09:26:28.009Z</time></trkpt><trkpt lat="30.747283966027165" lon="-6.448321952892742"><ele>966.0</ele><time>2026-03-26T09:26:29.009Z</time></trkpt><trkpt lat="30.747455259544974" lon="-6.448290318558772"><ele>966.0</ele><time>2026-03-26T09:26:30.009Z</time></trkpt><trkpt lat="30.74762475804556" lon="-6.448264583610186"><ele>966.0</ele><time>2026-03-26T09:26:31.009Z</time></trkpt><trkpt lat="30.747798318526733" lon="-6.448236413112589"><ele>965.3333333333333</ele><time>2026-03-26T09:26:32.008Z</time></trkpt><trkpt lat="30.747972977898474" lon="-6.448214883359308"><ele>964.6666666666666</ele><time>2026-03-26T09:26:33.008Z</time></trkpt><trkpt lat="30.74814384084725" lon="-6.448206544282992"><ele>964.0</ele><time>2026-03-26T09:26:34.008Z</time></trkpt><trkpt lat="30.748298848736358" lon="-6.448220337383195"><ele>964.0</ele><time>2026-03-26T09:26:35.008Z</time></trkpt><trkpt lat="30.7484582002132" lon="-6.448241026892372"><ele>964.0</ele><time>2026-03-26T09:26:36.008Z</time></trkpt><trkpt lat="30.748625553081357" lon="-6.44827532019054"><ele>964.0</ele><time>2026-03-26T09:26:37.008Z</time></trkpt><trkpt lat="30.74878222147055" lon="-6.448296416994291"><ele>964.0</ele><time>2026-03-26T09:26:38.008Z</time></trkpt><trkpt lat="30.748930923941895" lon="-6.448302427169097"><ele>964.0</ele><time>2026-03-26T09:26:39.008Z</time></trkpt><trkpt lat="30.749071553635233" lon="-6.448300124770189"><ele>964.0</ele><time>2026-03-26T09:26:40.008Z</time></trkpt><trkpt lat="30.749217426699918" lon="-6.448300536928103"><ele>964.0</ele><time>2026-03-26T09:26:41.008Z</time></trkpt><trkpt lat="30.749357881915994" lon="-6.448293885238576"><ele>965.0</ele><time>2026-03-26T09:26:42.008Z</time></trkpt><trkpt lat="30.749497373059274" lon="-6.448281206417716"><ele>966.0</ele><time>2026-03-26T09:26:43.008Z</time></trkpt><trkpt lat="30.749638067301536" lon="-6.448255370173906"><ele>967.0</ele><time>2026-03-26T09:26:44.008Z</time></trkpt><trkpt lat="30.74977773842634" lon="-6.448211432527551"><ele>968.0</ele><time>2026-03-26T09:26:45.008Z</time></trkpt><trkpt lat="30.749910967164972" lon="-6.448132354178137"><ele>968.0</ele><time>2026-03-26T09:26:46.008Z</time></trkpt><trkpt lat="30.750037973244925" lon="-6.4480348221855115"><ele>968.0</ele><time>2026-03-26T09:26:47.008Z</time></trkpt><trkpt lat="30.750159832054383" lon="-6.447919253369676"><ele>968.0</ele><time>2026-03-26T09:26:48.008Z</time></trkpt><trkpt lat="30.75027215289985" lon="-6.447811207264564"><ele>966.5</ele><time>2026-03-26T09:26:49.009Z</time></trkpt><trkpt lat="30.750386427755434" lon="-6.447719147452186"><ele>965.0</ele><time>2026-03-26T09:26:50.009Z</time></trkpt><trkpt lat="30.750509050069702" lon="-6.4476569806982384"><ele>963.5</ele><time>2026-03-26T09:26:51.009Z</time></trkpt><trkpt lat="30.750640811034913" lon="-6.44761111234608"><ele>962.0</ele><time>2026-03-26T09:26:52.009Z</time></trkpt><trkpt lat="30.750776524969893" lon="-6.447613526111529"><ele>962.0</ele><time>2026-03-26T09:26:53.008Z</time></trkpt><trkpt lat="30.75090424444054" lon="-6.447641011070414"><ele>962.0</ele><time>2026-03-26T09:26:54.008Z</time></trkpt><trkpt lat="30.75102090709268" lon="-6.447723718447098"><ele>962.0</ele><time>2026-03-26T09:26:55.009Z</time></trkpt><trkpt lat="30.75111310894202" lon="-6.4478394723039125"><ele>962.0</ele><time>2026-03-26T09:26:56.009Z</time></trkpt><trkpt lat="30.751192455007228" lon="-6.4479702792724485"><ele>962.5</ele><time>2026-03-26T09:26:57.009Z</time></trkpt><trkpt lat="30.751248436132812" lon="-6.448119066216282"><ele>963.0</ele><time>2026-03-26T09:26:58.009Z</time></trkpt><trkpt lat="30.7512946601532" lon="-6.448273927588556"><ele>963.5</ele><time>2026-03-26T09:26:59.009Z</time></trkpt><trkpt lat="30.75134593031084" lon="-6.448444930906175"><ele>964.0</ele><time>2026-03-26T09:27:00.009Z</time></trkpt><trkpt lat="30.751401847404562" lon="-6.448625373173098"><ele>965.3333333333333</ele><time>2026-03-26T09:27:01.009Z</time></trkpt><trkpt lat="30.75146720182432" lon="-6.448804718028759"><ele>966.6666666666667</ele><time>2026-03-26T09:27:02.009Z</time></trkpt><trkpt lat="30.751535939975835" lon="-6.448978870978428"><ele>968.0</ele><time>2026-03-26T09:27:03.009Z</time></trkpt><trkpt lat="30.75161255144138" lon="-6.4491446624581314"><ele>968.0</ele><time>2026-03-26T09:27:04.009Z</time></trkpt><trkpt lat="30.751701779727412" lon="-6.449300103004331"><ele>968.0</ele><time>2026-03-26T09:27:05.009Z</time></trkpt><trkpt lat="30.75182526454605" lon="-6.449421403847216"><ele>968.0</ele><time>2026-03-26T09:27:06.009Z</time></trkpt><trkpt lat="30.7519503640283" lon="-6.449530581301877"><ele>970.6666666666667</ele><time>2026-03-26T09:27:07.009Z</time></trkpt><trkpt lat="30.752073469943422" lon="-6.44964250494871"><ele>973.3333333333333</ele><time>2026-03-26T09:27:08.009Z</time></trkpt><trkpt lat="30.75221688984175" lon="-6.4497145583643904"><ele>976.0</ele><time>2026-03-26T09:27:09.009Z</time></trkpt><trkpt lat="30.7523562572667" lon="-6.449747701500552"><ele>976.0</ele><time>2026-03-26T09:27:10.009Z</time></trkpt><trkpt lat="30.75250911054391" lon="-6.449772474448507"><ele>976.0</ele><time>2026-03-26T09:27:11.009Z</time></trkpt><trkpt lat="30.75265358191759" lon="-6.449772511693083"><ele>976.0</ele><time>2026-03-26T09:27:12.009Z</time></trkpt><trkpt lat="30.752799821340073" lon="-6.449749630328884"><ele>976.0</ele><time>2026-03-26T09:27:13.009Z</time></trkpt><trkpt lat="30.752957196067204" lon="-6.449701622937321"><ele>977.6666666666666</ele><time>2026-03-26T09:27:14.009Z</time></trkpt><trkpt lat="30.753123264451187" lon="-6.449621041836053"><ele>979.3333333333333</ele><time>2026-03-26T09:27:15.009Z</time></trkpt><trkpt lat="30.75329371547121" lon="-6.449522826681469"><ele>981.0</ele><time>2026-03-26T09:27:16.009Z</time></trkpt><trkpt lat="30.753430202017526" lon="-6.449433209439885"><ele>981.75</ele><time>2026-03-26T09:27:17.009Z</time></trkpt><trkpt lat="30.753558766057935" lon="-6.449356076140545"><ele>982.5</ele><time>2026-03-26T09:27:18.009Z</time></trkpt><trkpt lat="30.753686997611805" lon="-6.449304908365331"><ele>983.25</ele><time>2026-03-26T09:27:19.009Z</time></trkpt><trkpt lat="30.753830311287967" lon="-6.449276249690984"><ele>984.0</ele><time>2026-03-26T09:27:20.009Z</time></trkpt><trkpt lat="30.7539841054212" lon="-6.4492243618344665"><ele>984.0</ele><time>2026-03-26T09:27:21.009Z</time></trkpt><trkpt lat="30.754141666206767" lon="-6.449154697757384"><ele>984.0</ele><time>2026-03-26T09:27:22.009Z</time></trkpt><trkpt lat="30.75429877582445" lon="-6.4490591072886145"><ele>984.0</ele><time>2026-03-26T09:27:23.009Z</time></trkpt><trkpt lat="30.754443698636205" lon="-6.448961206237629"><ele>983.5</ele><time>2026-03-26T09:27:24.009Z</time></trkpt><trkpt lat="30.754576377718575" lon="-6.448890930429161"><ele>983.0</ele><time>2026-03-26T09:27:25.009Z</time></trkpt><trkpt lat="30.754688183809353" lon="-6.448807214238112"><ele>982.5</ele><time>2026-03-26T09:27:26.009Z</time></trkpt><trkpt lat="30.75480073638982" lon="-6.448766495291148"><ele>982.0</ele><time>2026-03-26T09:27:27.009Z</time></trkpt><trkpt lat="30.754931878381715" lon="-6.448799849789958"><ele>984.0</ele><time>2026-03-26T09:27:28.009Z</time></trkpt><trkpt lat="30.755034232140737" lon="-6.448865035973565"><ele>986.0</ele><time>2026-03-26T09:27:29.009Z</time></trkpt><trkpt lat="30.755107730739542" lon="-6.448954087074757"><ele>988.0</ele><time>2026-03-26T09:27:30.009Z</time></trkpt><trkpt lat="30.755133474807653" lon="-6.4490937883944195"><ele>990.0</ele><time>2026-03-26T09:27:31.009Z</time></trkpt><trkpt lat="30.755146594508346" lon="-6.449227870651368"><ele>990.0</ele><time>2026-03-26T09:27:32.009Z</time></trkpt><trkpt lat="30.75517983072767" lon="-6.449358235248217"><ele>990.0</ele><time>2026-03-26T09:27:33.009Z</time></trkpt><trkpt lat="30.755191830301367" lon="-6.449494022251921"><ele>990.0</ele><time>2026-03-26T09:27:34.009Z</time></trkpt><trkpt lat="30.755200638514467" lon="-6.44963473270018"><ele>990.0</ele><time>2026-03-26T09:27:35.009Z</time></trkpt><trkpt lat="30.755214908405325" lon="-6.449784758031003"><ele>991.0</ele><time>2026-03-26T09:27:36.009Z</time></trkpt><trkpt lat="30.755216435990892" lon="-6.44996168216377"><ele>992.0</ele><time>2026-03-26T09:27:37.009Z</time></trkpt><trkpt lat="30.75522095767916" lon="-6.4501635579151815"><ele>993.0</ele><time>2026-03-26T09:27:38.009Z</time></trkpt><trkpt lat="30.755227538923453" lon="-6.450350798753145"><ele>989.75</ele><time>2026-03-26T09:27:39.009Z</time></trkpt><trkpt lat="30.755237284469857" lon="-6.450519157951424"><ele>986.5</ele><time>2026-03-26T09:27:40.009Z</time></trkpt><trkpt lat="30.755242183231168" lon="-6.450672870647467"><ele>983.25</ele><time>2026-03-26T09:27:41.009Z</time></trkpt><trkpt lat="30.75523023131018" lon="-6.450821005280314"><ele>980.0</ele><time>2026-03-26T09:27:42.009Z</time></trkpt><trkpt lat="30.755204563968412" lon="-6.450970523070077"><ele>981.5</ele><time>2026-03-26T09:27:43.009Z</time></trkpt><trkpt lat="30.75516168422681" lon="-6.4511010680102245"><ele>983.0</ele><time>2026-03-26T09:27:44.009Z</time></trkpt><trkpt lat="30.755103528142747" lon="-6.4512286911675325"><ele>984.5</ele><time>2026-03-26T09:27:45.009Z</time></trkpt><trkpt lat="30.7550437616239" lon="-6.451382639500537"><ele>986.0</ele><time>2026-03-26T09:27:46.009Z</time></trkpt><trkpt lat="30.754983573297512" lon="-6.451545848940857"><ele>986.0</ele><time>2026-03-26T09:27:47.009Z</time></trkpt><trkpt lat="30.754919140248084" lon="-6.451731181843307"><ele>986.0</ele><time>2026-03-26T09:27:48.009Z</time></trkpt><trkpt lat="30.75485884018885" lon="-6.451906457467512"><ele>986.0</ele><time>2026-03-26T09:27:49.009Z</time></trkpt><trkpt lat="30.754800816935564" lon="-6.452071389241362"><ele>982.75</ele><time>2026-03-26T09:27:50.009Z</time></trkpt><trkpt lat="30.754740057745718" lon="-6.452226359019187"><ele>979.5</ele><time>2026-03-26T09:27:51.009Z</time></trkpt><trkpt lat="30.75468463171866" lon="-6.452384764170107"><ele>976.25</ele><time>2026-03-26T09:27:52.009Z</time></trkpt><trkpt lat="30.754625684999493" lon="-6.452535046173264"><ele>973.0</ele><time>2026-03-26T09:27:53.009Z</time></trkpt><trkpt lat="30.754573793747667" lon="-6.452697594458718"><ele>973.0</ele><time>2026-03-26T09:27:54.009Z</time></trkpt><trkpt lat="30.75452306439001" lon="-6.452853158497607"><ele>973.0</ele><time>2026-03-26T09:27:55.009Z</time></trkpt><trkpt lat="30.754472243907134" lon="-6.452996918861416"><ele>973.0</ele><time>2026-03-26T09:27:56.009Z</time></trkpt><trkpt lat="30.754426005020733" lon="-6.453148923811204"><ele>973.0</ele><time>2026-03-26T09:27:57.009Z</time></trkpt><trkpt lat="30.754388615748695" lon="-6.45331728510873"><ele>975.25</ele><time>2026-03-26T09:27:58.009Z</time></trkpt><trkpt lat="30.754361422223152" lon="-6.453494190803731"><ele>977.5</ele><time>2026-03-26T09:27:59.009Z</time></trkpt><trkpt lat="30.754337867752064" lon="-6.453656487245932"><ele>979.75</ele><time>2026-03-26T09:28:00.009Z</time></trkpt><trkpt lat="30.75432160555709" lon="-6.453831431919233"><ele>982.0</ele><time>2026-03-26T09:28:01.009Z</time></trkpt><trkpt lat="30.75431401244145" lon="-6.453982007446481"><ele>982.0</ele><time>2026-03-26T09:28:02.009Z</time></trkpt><trkpt lat="30.754314518048865" lon="-6.454148254072544"><ele>982.0</ele><time>2026-03-26T09:28:03.009Z</time></trkpt><trkpt lat="30.75433218247444" lon="-6.454304246608623"><ele>982.0</ele><time>2026-03-26T09:28:04.009Z</time></trkpt><trkpt lat="30.75436519795697" lon="-6.45444954621585"><ele>982.0</ele><time>2026-03-26T09:28:05.009Z</time></trkpt><trkpt lat="30.7544163317628" lon="-6.4545706623134445"><ele>978.75</ele><time>2026-03-26T09:28:06.009Z</time></trkpt><trkpt lat="30.754484660302456" lon="-6.454674289681987"><ele>975.5</ele><time>2026-03-26T09:28:07.009Z</time></trkpt><trkpt lat="30.754573776610393" lon="-6.454756541778324"><ele>972.25</ele><time>2026-03-26T09:28:08.009Z</time></trkpt><trkpt lat="30.75468623003678" lon="-6.454796704295176"><ele>969.0</ele><time>2026-03-26T09:28:09.009Z</time></trkpt><trkpt lat="30.75483978227773" lon="-6.454813080169345"><ele>969.0</ele><time>2026-03-26T09:28:10.009Z</time></trkpt><trkpt lat="30.755001696561347" lon="-6.4548223596977"><ele>969.0</ele><time>2026-03-26T09:28:11.009Z</time></trkpt><trkpt lat="30.755166992892224" lon="-6.45481385712435"><ele>969.0</ele><time>2026-03-26T09:28:12.009Z</time></trkpt><trkpt lat="30.755333571289402" lon="-6.4548227755681875"><ele>969.3333333333333</ele><time>2026-03-26T09:28:13.009Z</time></trkpt><trkpt lat="30.755496707733787" lon="-6.454832419289486"><ele>969.6666666666666</ele><time>2026-03-26T09:28:14.009Z</time></trkpt><trkpt lat="30.75564556213144" lon="-6.454842682137551"><ele>970.0</ele><time>2026-03-26T09:28:15.009Z</time></trkpt><trkpt lat="30.755788575407635" lon="-6.454851443602547"><ele>970.0</ele><time>2026-03-26T09:28:16.009Z</time></trkpt><trkpt lat="30.755924110689826" lon="-6.4548770462293525"><ele>970.0</ele><time>2026-03-26T09:28:17.009Z</time></trkpt><trkpt lat="30.756056092741638" lon="-6.454882787885516"><ele>970.0</ele><time>2026-03-26T09:28:18.009Z</time></trkpt><trkpt lat="30.75619836269996" lon="-6.45485782412188"><ele>970.0</ele><time>2026-03-26T09:28:19.009Z</time></trkpt><trkpt lat="30.75635181113804" lon="-6.454865145405786"><ele>969.5</ele><time>2026-03-26T09:28:20.009Z</time></trkpt><trkpt lat="30.756495627840856" lon="-6.454875922856469"><ele>969.0</ele><time>2026-03-26T09:28:21.009Z</time></trkpt><trkpt lat="30.756638416242783" lon="-6.454887926011465"><ele>968.5</ele><time>2026-03-26T09:28:22.009Z</time></trkpt><trkpt lat="30.756776908815276" lon="-6.454899602848174"><ele>968.0</ele><time>2026-03-26T09:28:23.009Z</time></trkpt><trkpt lat="30.756912809269345" lon="-6.4549105726638105"><ele>968.0</ele><time>2026-03-26T09:28:24.009Z</time></trkpt><trkpt lat="30.75704335957631" lon="-6.4549194884548635"><ele>968.0</ele><time>2026-03-26T09:28:25.009Z</time></trkpt><trkpt lat="30.75716790381448" lon="-6.454928811848126"><ele>968.0</ele><time>2026-03-26T09:28:26.009Z</time></trkpt><trkpt lat="30.757291616311388" lon="-6.45492571199573"><ele>968.0</ele><time>2026-03-26T09:28:27.009Z</time></trkpt><trkpt lat="30.75741226596789" lon="-6.454920599319945"><ele>968.0</ele><time>2026-03-26T09:28:28.009Z</time></trkpt><trkpt lat="30.75753735587823" lon="-6.454915515469521"><ele>968.0</ele><time>2026-03-26T09:28:29.009Z</time></trkpt><trkpt lat="30.757656848115154" lon="-6.454906588061907"><ele>968.0</ele><time>2026-03-26T09:28:30.009Z</time></trkpt><trkpt lat="30.757769870882846" lon="-6.454900165624569"><ele>968.0</ele><time>2026-03-26T09:28:31.009Z</time></trkpt><trkpt lat="30.75788126614026" lon="-6.454891504344287"><ele>968.4</ele><time>2026-03-26T09:28:32.009Z</time></trkpt><trkpt lat="30.757991998470096" lon="-6.454886766492863"><ele>968.8</ele><time>2026-03-26T09:28:33.009Z</time></trkpt><trkpt lat="30.758100028722254" lon="-6.454876849708448"><ele>969.2</ele><time>2026-03-26T09:28:34.009Z</time></trkpt><trkpt lat="30.75820993967945" lon="-6.454865402328025"><ele>969.6</ele><time>2026-03-26T09:28:35.009Z</time></trkpt><trkpt lat="30.758320117523233" lon="-6.454855592628771"><ele>970.0</ele><time>2026-03-26T09:28:36.009Z</time></trkpt><trkpt lat="30.75842765985072" lon="-6.454847381878388"><ele>970.0</ele><time>2026-03-26T09:28:37.009Z</time></trkpt><trkpt lat="30.758529693445688" lon="-6.454839829540201"><ele>970.0</ele><time>2026-03-26T09:28:38.009Z</time></trkpt><trkpt lat="30.75862643985729" lon="-6.454832166711395"><ele>970.0</ele><time>2026-03-26T09:28:39.009Z</time></trkpt><trkpt lat="30.758714013280926" lon="-6.454791239197331"><ele>970.0</ele><time>2026-03-26T09:28:40.009Z</time></trkpt><trkpt lat="30.75880032065121" lon="-6.454781759830983"><ele>970.0</ele><time>2026-03-26T09:28:41.009Z</time></trkpt><trkpt lat="30.758888371593816" lon="-6.454782739362418"><ele>970.0</ele><time>2026-03-26T09:28:42.009Z</time></trkpt><trkpt lat="30.75898044039913" lon="-6.454795908507271"><ele>970.0</ele><time>2026-03-26T09:28:43.009Z</time></trkpt><trkpt lat="30.75908751547222" lon="-6.454816394891386"><ele>970.0</ele><time>2026-03-26T09:28:44.009Z</time></trkpt><trkpt lat="30.75919663873877" lon="-6.454850038117445"><ele>970.0</ele><time>2026-03-26T09:28:45.009Z</time></trkpt><trkpt lat="30.759308363647644" lon="-6.45490088985691"><ele>970.0</ele><time>2026-03-26T09:28:46.009Z</time></trkpt><trkpt lat="30.759425310433638" lon="-6.45495425931032"><ele>969.75</ele><time>2026-03-26T09:28:47.009Z</time></trkpt><trkpt lat="30.75954458049558" lon="-6.455012204953487"><ele>969.5</ele><time>2026-03-26T09:28:48.009Z</time></trkpt><trkpt lat="30.759668229634947" lon="-6.45507487278128"><ele>969.25</ele><time>2026-03-26T09:28:49.009Z</time></trkpt><trkpt lat="30.759796584858513" lon="-6.455142581070664"><ele>969.0</ele><time>2026-03-26T09:28:50.009Z</time></trkpt><trkpt lat="30.759933251640536" lon="-6.455209129340767"><ele>969.0</ele><time>2026-03-26T09:28:51.009Z</time></trkpt><trkpt lat="30.760072981124555" lon="-6.455278146368629"><ele>969.0</ele><time>2026-03-26T09:28:52.009Z</time></trkpt><trkpt lat="30.76022001222608" lon="-6.455348002135319"><ele>969.0</ele><time>2026-03-26T09:28:53.009Z</time></trkpt><trkpt lat="30.760354459006052" lon="-6.455414769834274"><ele>969.3333333333333</ele><time>2026-03-26T09:28:54.009Z</time></trkpt><trkpt lat="30.760491288109677" lon="-6.4554888727126505"><ele>969.6666666666666</ele><time>2026-03-26T09:28:55.009Z</time></trkpt><trkpt lat="30.760631077625593" lon="-6.455564078254036"><ele>970.0</ele><time>2026-03-26T09:28:56.009Z</time></trkpt><trkpt lat="30.760771648702423" lon="-6.4556324074653295"><ele>970.0</ele><time>2026-03-26T09:28:57.009Z</time></trkpt><trkpt lat="30.760906960278824" lon="-6.455701077416315"><ele>970.0</ele><time>2026-03-26T09:28:58.01Z</time></trkpt><trkpt lat="30.761035357940315" lon="-6.455766806678494"><ele>970.0</ele><time>2026-03-26T09:28:59.009Z</time></trkpt><trkpt lat="30.761157654267294" lon="-6.455831582941057"><ele>970.0</ele><time>2026-03-26T09:29:00.009Z</time></trkpt><trkpt lat="30.7612866215544" lon="-6.45590149603964"><ele>968.5</ele><time>2026-03-26T09:29:01.01Z</time></trkpt><trkpt lat="30.761418364077958" lon="-6.455970471201637"><ele>967.0</ele><time>2026-03-26T09:29:02.009Z</time></trkpt><trkpt lat="30.76154959568452" lon="-6.456037911576778"><ele>965.5</ele><time>2026-03-26T09:29:03.009Z</time></trkpt><trkpt lat="30.761679601194253" lon="-6.456104545627244"><ele>964.0</ele><time>2026-03-26T09:29:04.009Z</time></trkpt><trkpt lat="30.76180795899886" lon="-6.456166116858649"><ele>964.0</ele><time>2026-03-26T09:29:05.009Z</time></trkpt><trkpt lat="30.761932450282035" lon="-6.45622387172817"><ele>964.0</ele><time>2026-03-26T09:29:06.009Z</time></trkpt><trkpt lat="30.76205336761944" lon="-6.456271631777279"><ele>964.0</ele><time>2026-03-26T09:29:07.009Z</time></trkpt><trkpt lat="30.7621734485479" lon="-6.456300674374061"><ele>964.0</ele><time>2026-03-26T09:29:08.009Z</time></trkpt><trkpt lat="30.762295639861374" lon="-6.4563132862657895"><ele>963.25</ele><time>2026-03-26T09:29:09.009Z</time></trkpt><trkpt lat="30.762427236496567" lon="-6.456313293242196"><ele>962.5</ele><time>2026-03-26T09:29:10.009Z</time></trkpt><trkpt lat="30.762560524210592" lon="-6.456301798081317"><ele>961.75</ele><time>2026-03-26T09:29:11.009Z</time></trkpt><trkpt lat="30.762701713745262" lon="-6.456280350347464"><ele>961.0</ele><time>2026-03-26T09:29:12.009Z</time></trkpt><trkpt lat="30.762846969207338" lon="-6.456253709107751"><ele>961.0</ele><time>2026-03-26T09:29:13.009Z</time></trkpt><trkpt lat="30.762999156732356" lon="-6.456225849323082"><ele>961.0</ele><time>2026-03-26T09:29:14.009Z</time></trkpt><trkpt lat="30.763161291979912" lon="-6.456198992053823"><ele>961.0</ele><time>2026-03-26T09:29:15.009Z</time></trkpt><trkpt lat="30.763324691583293" lon="-6.4561713436443"><ele>961.0</ele><time>2026-03-26T09:29:16.009Z</time></trkpt><trkpt lat="30.7634795150884" lon="-6.456146368775891"><ele>961.0</ele><time>2026-03-26T09:29:17.009Z</time></trkpt><trkpt lat="30.7636339361219" lon="-6.456122381445827"><ele>961.0</ele><time>2026-03-26T09:29:18.009Z</time></trkpt><trkpt lat="30.763790400044005" lon="-6.456097125752952"><ele>958.5</ele><time>2026-03-26T09:29:19.009Z</time></trkpt><trkpt lat="30.763941049123762" lon="-6.4560767821072025"><ele>956.0</ele><time>2026-03-26T09:29:20.009Z</time></trkpt><trkpt lat="30.76407915195214" lon="-6.456029776487258"><ele>953.5</ele><time>2026-03-26T09:29:21.009Z</time></trkpt><trkpt lat="30.76421245423834" lon="-6.456011218051414"><ele>951.0</ele><time>2026-03-26T09:29:22.009Z</time></trkpt><trkpt lat="30.76435252119795" lon="-6.4560009797397395"><ele>949.0</ele><time>2026-03-26T09:29:23.009Z</time></trkpt><trkpt lat="30.764495308245078" lon="-6.456012958171596"><ele>947.0</ele><time>2026-03-26T09:29:24.009Z</time></trkpt><trkpt lat="30.764641730334027" lon="-6.456056987347217"><ele>945.0</ele><time>2026-03-26T09:29:25.009Z</time></trkpt><trkpt lat="30.764778790057456" lon="-6.4561117657786555"><ele>943.0</ele><time>2026-03-26T09:29:26.009Z</time></trkpt><trkpt lat="30.764920405857133" lon="-6.456171957633049"><ele>943.0</ele><time>2026-03-26T09:29:27.009Z</time></trkpt><trkpt lat="30.765054259906947" lon="-6.456235084894044"><ele>943.0</ele><time>2026-03-26T09:29:28.009Z</time></trkpt><trkpt lat="30.76520466741329" lon="-6.456306009284335"><ele>943.0</ele><time>2026-03-26T09:29:29.009Z</time></trkpt><trkpt lat="30.765358094272468" lon="-6.45638238237627"><ele>943.25</ele><time>2026-03-26T09:29:30.009Z</time></trkpt><trkpt lat="30.76550204878485" lon="-6.45646340547443"><ele>943.5</ele><time>2026-03-26T09:29:31.009Z</time></trkpt><trkpt lat="30.765634687101226" lon="-6.456536933119185"><ele>943.75</ele><time>2026-03-26T09:29:32.009Z</time></trkpt><trkpt lat="30.765758440143543" lon="-6.45660521062644"><ele>944.0</ele><time>2026-03-26T09:29:33.009Z</time></trkpt><trkpt lat="30.765882336184436" lon="-6.456673265799376"><ele>944.0</ele><time>2026-03-26T09:29:34.009Z</time></trkpt><trkpt lat="30.766015523167216" lon="-6.456746063375839"><ele>944.0</ele><time>2026-03-26T09:29:35.009Z</time></trkpt><trkpt lat="30.766163684033657" lon="-6.456826812524732"><ele>944.0</ele><time>2026-03-26T09:29:36.009Z</time></trkpt><trkpt lat="30.766312933276946" lon="-6.456907679191432"><ele>942.3333333333334</ele><time>2026-03-26T09:29:37.009Z</time></trkpt><trkpt lat="30.766454506393725" lon="-6.456984316248746"><ele>940.6666666666667</ele><time>2026-03-26T09:29:38.009Z</time></trkpt><trkpt lat="30.76659443072286" lon="-6.457061438625445"><ele>939.0</ele><time>2026-03-26T09:29:39.009Z</time></trkpt><trkpt lat="30.766737316630657" lon="-6.457141845140485"><ele>942.3333333333333</ele><time>2026-03-26T09:29:40.009Z</time></trkpt><trkpt lat="30.76688479893577" lon="-6.4572243350006255"><ele>945.6666666666666</ele><time>2026-03-26T09:29:41.009Z</time></trkpt><trkpt lat="30.76702675328324" lon="-6.457304607273517"><ele>949.0</ele><time>2026-03-26T09:29:42.009Z</time></trkpt><trkpt lat="30.76716397013719" lon="-6.457389664456508"><ele>949.0</ele><time>2026-03-26T09:29:43.009Z</time></trkpt><trkpt lat="30.7672950750581" lon="-6.457470621478142"><ele>949.0</ele><time>2026-03-26T09:29:44.009Z</time></trkpt><trkpt lat="30.767419098106174" lon="-6.457567840379043"><ele>949.0</ele><time>2026-03-26T09:29:45.009Z</time></trkpt><trkpt lat="30.767565009663993" lon="-6.457624098135082"><ele>947.3333333333333</ele><time>2026-03-26T09:29:46.009Z</time></trkpt><trkpt lat="30.76770542339827" lon="-6.4577058866341215"><ele>945.6666666666667</ele><time>2026-03-26T09:29:47.009Z</time></trkpt><trkpt lat="30.767846341034517" lon="-6.4577942365329655"><ele>944.0</ele><time>2026-03-26T09:29:48.009Z</time></trkpt><trkpt lat="30.768001338109176" lon="-6.457890112637203"><ele>949.6666666666667</ele><time>2026-03-26T09:29:49.009Z</time></trkpt><trkpt lat="30.76814587486403" lon="-6.457982052203182"><ele>955.3333333333333</ele><time>2026-03-26T09:29:50.009Z</time></trkpt><trkpt lat="30.768291904759256" lon="-6.458062292253706"><ele>961.0</ele><time>2026-03-26T09:29:51.009Z</time></trkpt><trkpt lat="30.76844924662235" lon="-6.4581556710415065"><ele>959.0</ele><time>2026-03-26T09:29:52.009Z</time></trkpt><trkpt lat="30.768629172070632" lon="-6.458266840487901"><ele>957.0</ele><time>2026-03-26T09:29:53.009Z</time></trkpt><trkpt lat="30.768810906370085" lon="-6.45838827261612"><ele>955.0</ele><time>2026-03-26T09:29:54.009Z</time></trkpt><trkpt lat="30.7689701887933" lon="-6.458517767538973"><ele>955.0</ele><time>2026-03-26T09:29:55.009Z</time></trkpt><trkpt lat="30.769096951312232" lon="-6.458638150957426"><ele>955.0</ele><time>2026-03-26T09:29:56.009Z</time></trkpt><trkpt lat="30.76921948301144" lon="-6.458741472395679"><ele>955.0</ele><time>2026-03-26T09:29:57.009Z</time></trkpt><trkpt lat="30.769333551677008" lon="-6.458812526184338"><ele>955.0</ele><time>2026-03-26T09:29:58.009Z</time></trkpt><trkpt lat="30.769443843419637" lon="-6.45882503793606"><ele>957.0</ele><time>2026-03-26T09:29:59.009Z</time></trkpt><trkpt lat="30.769572540437277" lon="-6.458795832866126"><ele>959.0</ele><time>2026-03-26T09:30:00.009Z</time></trkpt><trkpt lat="30.76971043371542" lon="-6.458826362975554"><ele>961.0</ele><time>2026-03-26T09:30:01.009Z</time></trkpt><trkpt lat="30.769811355966343" lon="-6.458889123948986"><ele>963.0</ele><time>2026-03-26T09:30:02.009Z</time></trkpt><trkpt lat="30.76989154009423" lon="-6.458974380236482"><ele>963.0</ele><time>2026-03-26T09:30:03.009Z</time></trkpt><trkpt lat="30.769956759528373" lon="-6.459097634136672"><ele>963.0</ele><time>2026-03-26T09:30:04.009Z</time></trkpt><trkpt lat="30.769997366407296" lon="-6.459265082449034"><ele>963.0</ele><time>2026-03-26T09:30:05.009Z</time></trkpt><trkpt lat="30.770018914766037" lon="-6.459415042370115"><ele>963.0</ele><time>2026-03-26T09:30:06.009Z</time></trkpt><trkpt lat="30.77010432330377" lon="-6.459490678980354"><ele>963.0</ele><time>2026-03-26T09:30:07.009Z</time></trkpt><trkpt lat="30.770187589570046" lon="-6.459545449206327"><ele>963.0</ele><time>2026-03-26T09:30:08.009Z</time></trkpt><trkpt lat="30.770307729793196" lon="-6.459581414907292"><ele>963.0</ele><time>2026-03-26T09:30:09.009Z</time></trkpt><trkpt lat="30.770462639252266" lon="-6.459621590463488"><ele>963.0</ele><time>2026-03-26T09:30:10.009Z</time></trkpt><trkpt lat="30.770603621654143" lon="-6.459715625270952"><ele>964.3333333333333</ele><time>2026-03-26T09:30:11.009Z</time></trkpt><trkpt lat="30.770713954908143" lon="-6.459853650237672"><ele>965.6666666666666</ele><time>2026-03-26T09:30:12.009Z</time></trkpt><trkpt lat="30.77079409754902" lon="-6.460033102054858"><ele>967.0</ele><time>2026-03-26T09:30:13.009Z</time></trkpt><trkpt lat="30.77088221942986" lon="-6.460179415378396"><ele>967.0</ele><time>2026-03-26T09:30:14.009Z</time></trkpt><trkpt lat="30.77097139713544" lon="-6.460300305514382"><ele>967.0</ele><time>2026-03-26T09:30:15.009Z</time></trkpt><trkpt lat="30.771080044085473" lon="-6.460389333854403"><ele>967.0</ele><time>2026-03-26T09:30:16.009Z</time></trkpt><trkpt lat="30.77118581798459" lon="-6.460490031022441"><ele>967.0</ele><time>2026-03-26T09:30:17.009Z</time></trkpt><trkpt lat="30.77130517861244" lon="-6.460569847585947"><ele>968.0</ele><time>2026-03-26T09:30:18.009Z</time></trkpt><trkpt lat="30.771421424523975" lon="-6.460635930599134"><ele>969.0</ele><time>2026-03-26T09:30:19.009Z</time></trkpt><trkpt lat="30.771539522482822" lon="-6.460702569537256"><ele>970.0</ele><time>2026-03-26T09:30:20.009Z</time></trkpt><trkpt lat="30.771651041615474" lon="-6.460780802384185"><ele>971.0</ele><time>2026-03-26T09:30:21.009Z</time></trkpt><trkpt lat="30.771775350045388" lon="-6.46083700957345"><ele>972.5</ele><time>2026-03-26T09:30:22.009Z</time></trkpt><trkpt lat="30.771878526892376" lon="-6.460897653737465"><ele>974.0</ele><time>2026-03-26T09:30:23.009Z</time></trkpt><trkpt lat="30.771979103514607" lon="-6.460953567869771"><ele>975.5</ele><time>2026-03-26T09:30:24.009Z</time></trkpt><trkpt lat="30.772097014538282" lon="-6.461013582507969"><ele>977.0</ele><time>2026-03-26T09:30:25.009Z</time></trkpt><trkpt lat="30.772193676852012" lon="-6.461040188106916"><ele>977.0000000000001</ele><time>2026-03-26T09:30:26.009Z</time></trkpt><trkpt lat="30.77228030528272" lon="-6.461037575631685"><ele>977.0</ele><time>2026-03-26T09:30:27.009Z</time></trkpt><trkpt lat="30.772350733963176" lon="-6.460994247250131"><ele>977.0</ele><time>2026-03-26T09:30:28.009Z</time></trkpt><trkpt lat="30.772375664698735" lon="-6.46090111465065"><ele>977.0</ele><time>2026-03-26T09:30:29.009Z</time></trkpt><trkpt lat="30.772377264599918" lon="-6.460825794159186"><ele>977.0000000000001</ele><time>2026-03-26T09:30:30.009Z</time></trkpt><trkpt lat="30.772371145385524" lon="-6.460731839132317"><ele>977.0</ele><time>2026-03-26T09:30:31.009Z</time></trkpt><trkpt lat="30.772365238480866" lon="-6.460593493732989"><ele>975.2</ele><time>2026-03-26T09:30:32.009Z</time></trkpt><trkpt lat="30.77233515627486" lon="-6.46043911322926"><ele>973.4000000000001</ele><time>2026-03-26T09:30:33.009Z</time></trkpt><trkpt lat="30.772313023813147" lon="-6.460319547920776"><ele>971.5999999999999</ele><time>2026-03-26T09:30:34.009Z</time></trkpt><trkpt lat="30.772315033343187" lon="-6.460220982298673"><ele>969.8</ele><time>2026-03-26T09:30:35.009Z</time></trkpt><trkpt lat="30.77234677371541" lon="-6.460150725930808"><ele>968.0</ele><time>2026-03-26T09:30:36.009Z</time></trkpt><trkpt lat="30.77248408376557" lon="-6.4600640787462265"><ele>968.0</ele><time>2026-03-26T09:30:38.009Z</time></trkpt><trkpt lat="30.772594223792147" lon="-6.460077240999751"><ele>968.0</ele><time>2026-03-26T09:30:39.009Z</time></trkpt><trkpt lat="30.77269508726711" lon="-6.460175902722729"><ele>968.0</ele><time>2026-03-26T09:30:40.009Z</time></trkpt><trkpt lat="30.77278540902985" lon="-6.46028165777334"><ele>968.0</ele><time>2026-03-26T09:30:41.009Z</time></trkpt><trkpt lat="30.772856740217083" lon="-6.4604020568113505"><ele>971.5</ele><time>2026-03-26T09:30:42.009Z</time></trkpt><trkpt lat="30.77291671842715" lon="-6.4605401510814255"><ele>975.0</ele><time>2026-03-26T09:30:43.009Z</time></trkpt><trkpt lat="30.772992851746416" lon="-6.460692480725035"><ele>978.5</ele><time>2026-03-26T09:30:44.009Z</time></trkpt><trkpt lat="30.77305607685789" lon="-6.460845436060065"><ele>982.0</ele><time>2026-03-26T09:30:45.009Z</time></trkpt><trkpt lat="30.77311857281713" lon="-6.460999975837551"><ele>982.0</ele><time>2026-03-26T09:30:46.009Z</time></trkpt><trkpt lat="30.773174070106492" lon="-6.461140529499493"><ele>982.0</ele><time>2026-03-26T09:30:47.009Z</time></trkpt><trkpt lat="30.773224785129617" lon="-6.461271286761126"><ele>982.0</ele><time>2026-03-26T09:30:48.009Z</time></trkpt><trkpt lat="30.773302656536757" lon="-6.461393423704228"><ele>982.0</ele><time>2026-03-26T09:30:49.009Z</time></trkpt><trkpt lat="30.773347056876112" lon="-6.461524352265643"><ele>983.5</ele><time>2026-03-26T09:30:50.009Z</time></trkpt><trkpt lat="30.773395792184193" lon="-6.461649197123457"><ele>985.0</ele><time>2026-03-26T09:30:51.009Z</time></trkpt><trkpt lat="30.773451568152662" lon="-6.4617777097473175"><ele>986.5</ele><time>2026-03-26T09:30:52.009Z</time></trkpt><trkpt lat="30.773516300117425" lon="-6.461922662139906"><ele>988.0</ele><time>2026-03-26T09:30:53.009Z</time></trkpt><trkpt lat="30.773596162565894" lon="-6.46203762481126"><ele>991.0</ele><time>2026-03-26T09:30:54.009Z</time></trkpt><trkpt lat="30.773687588339328" lon="-6.4621250045547685"><ele>994.0</ele><time>2026-03-26T09:30:55.009Z</time></trkpt><trkpt lat="30.773796494715516" lon="-6.462171191311181"><ele>997.0</ele><time>2026-03-26T09:30:56.009Z</time></trkpt><trkpt lat="30.773893861969572" lon="-6.462180444443118"><ele>1000.0</ele><time>2026-03-26T09:30:57.009Z</time></trkpt><trkpt lat="30.773976470381662" lon="-6.462183151646541"><ele>1003.0</ele><time>2026-03-26T09:30:58.009Z</time></trkpt><trkpt lat="30.77404572433202" lon="-6.462186898859446"><ele>1002.9999999999999</ele><time>2026-03-26T09:30:59.009Z</time></trkpt><trkpt lat="30.774110278358965" lon="-6.462193103272432"><ele>1003.0</ele><time>2026-03-26T09:31:00.009Z</time></trkpt><trkpt lat="30.774210380278888" lon="-6.4622224738835765"><ele>1003.0</ele><time>2026-03-26T09:31:02.009Z</time></trkpt><trkpt lat="30.774277641139836" lon="-6.462249680670614"><ele>1003.0</ele><time>2026-03-26T09:31:04.009Z</time></trkpt><trkpt lat="30.774358631775197" lon="-6.462299941619002"><ele>1002.9999999999999</ele><time>2026-03-26T09:31:07.01Z</time></trkpt><trkpt lat="30.774426670264702" lon="-6.462397989943454"><ele>1003.0</ele><time>2026-03-26T09:31:09.009Z</time></trkpt><trkpt lat="30.77445307146717" lon="-6.4624848697561195"><ele>1001.4</ele><time>2026-03-26T09:31:10.009Z</time></trkpt><trkpt lat="30.77448733318332" lon="-6.462603455302878"><ele>999.8</ele><time>2026-03-26T09:31:11.01Z</time></trkpt><trkpt lat="30.774521362159337" lon="-6.462697212240462"><ele>998.2</ele><time>2026-03-26T09:31:12.01Z</time></trkpt><trkpt lat="30.77456918005945" lon="-6.462771595406492"><ele>996.6</ele><time>2026-03-26T09:31:13.009Z</time></trkpt><trkpt lat="30.774629497445652" lon="-6.4628151958431665"><ele>995.0</ele><time>2026-03-26T09:31:14.009Z</time></trkpt><trkpt lat="30.774749808209382" lon="-6.462819894278161"><ele>995.0000000000001</ele><time>2026-03-26T09:31:16.009Z</time></trkpt><trkpt lat="30.774840377664404" lon="-6.462798444703431"><ele>995.0</ele><time>2026-03-26T09:31:18.009Z</time></trkpt><trkpt lat="30.774933892812854" lon="-6.462785224414476"><ele>995.0</ele><time>2026-03-26T09:31:20.009Z</time></trkpt><trkpt lat="30.77499735985711" lon="-6.462779412555133"><ele>995.0</ele><time>2026-03-26T09:31:21.009Z</time></trkpt><trkpt lat="30.77507211944035" lon="-6.462770455522595"><ele>995.0000000000001</ele><time>2026-03-26T09:31:23.009Z</time></trkpt><trkpt lat="30.77504936530739" lon="-6.462876284750499"><ele>995.0</ele><time>2026-03-26T09:33:28.009Z</time></trkpt><trkpt lat="30.775079928120263" lon="-6.46280371294749"><ele>995.0</ele><time>2026-03-26T09:34:41.01Z</time></trkpt><trkpt lat="30.775114883268774" lon="-6.462737091394741"><ele>995.0</ele><time>2026-03-26T09:34:49.01Z</time></trkpt><trkpt lat="30.775174431695735" lon="-6.462808054286167"><ele>995.0</ele><time>2026-03-26T09:40:24.01Z</time></trkpt><trkpt lat="30.77516961912901" lon="-6.462912084735668"><ele>995.0</ele><time>2026-03-26T09:40:27.01Z</time></trkpt><trkpt lat="30.77519159860474" lon="-6.463012219755299"><ele>995.0</ele><time>2026-03-26T09:40:29.01Z</time></trkpt><trkpt lat="30.775251467104532" lon="-6.463131958089654"><ele>994.3333333333334</ele><time>2026-03-26T09:40:31.01Z</time></trkpt><trkpt lat="30.775280903052142" lon="-6.463222545630357"><ele>993.6666666666667</ele><time>2026-03-26T09:40:32.01Z</time></trkpt><trkpt lat="30.775304499022578" lon="-6.463328463538123"><ele>993.0</ele><time>2026-03-26T09:40:33.01Z</time></trkpt><trkpt lat="30.77532273571603" lon="-6.46341877986695"><ele>992.3333333333333</ele><time>2026-03-26T09:40:34.01Z</time></trkpt><trkpt lat="30.77532100227715" lon="-6.4635027763795625"><ele>991.6666666666666</ele><time>2026-03-26T09:40:35.01Z</time></trkpt><trkpt lat="30.775304991058643" lon="-6.4636005212512595"><ele>991.0</ele><time>2026-03-26T09:40:36.01Z</time></trkpt><trkpt lat="30.775268157379504" lon="-6.463702757480369"><ele>993.5999999999999</ele><time>2026-03-26T09:40:37.01Z</time></trkpt><trkpt lat="30.775190766864394" lon="-6.463819443233997"><ele>996.1999999999999</ele><time>2026-03-26T09:40:38.01Z</time></trkpt><trkpt lat="30.775145083033177" lon="-6.463951156393816"><ele>998.8000000000001</ele><time>2026-03-26T09:40:39.01Z</time></trkpt><trkpt lat="30.775099888373767" lon="-6.464062061994581"><ele>1001.4000000000001</ele><time>2026-03-26T09:40:40.01Z</time></trkpt><trkpt lat="30.77505702314646" lon="-6.464155543205441"><ele>1004.0</ele><time>2026-03-26T09:40:41.01Z</time></trkpt><trkpt lat="30.775019731205514" lon="-6.464268063620933"><ele>1004.5000000000001</ele><time>2026-03-26T09:40:42.01Z</time></trkpt><trkpt lat="30.774990878290676" lon="-6.46437912551816"><ele>1005.0</ele><time>2026-03-26T09:40:43.01Z</time></trkpt><trkpt lat="30.774975179299137" lon="-6.464475207913209"><ele>1005.5</ele><time>2026-03-26T09:40:44.01Z</time></trkpt><trkpt lat="30.77496482323995" lon="-6.4645672586413045"><ele>1006.0</ele><time>2026-03-26T09:40:45.01Z</time></trkpt><trkpt lat="30.774966613009777" lon="-6.464654974610715"><ele>1006.5000000000001</ele><time>2026-03-26T09:40:46.01Z</time></trkpt><trkpt lat="30.774987820661444" lon="-6.464740890019158"><ele>1007.0</ele><time>2026-03-26T09:40:47.01Z</time></trkpt><trkpt lat="30.775035270631783" lon="-6.464811608519467"><ele>1007.8</ele><time>2026-03-26T09:40:48.01Z</time></trkpt><trkpt lat="30.77512652058507" lon="-6.46483952503136"><ele>1008.6</ele><time>2026-03-26T09:40:49.01Z</time></trkpt><trkpt lat="30.775222803695392" lon="-6.464848871130671"><ele>1009.3999999999999</ele><time>2026-03-26T09:40:50.01Z</time></trkpt><trkpt lat="30.775326938674855" lon="-6.464823651964117"><ele>1010.1999999999999</ele><time>2026-03-26T09:40:51.01Z</time></trkpt><trkpt lat="30.775434640492882" lon="-6.464768694126351"><ele>1011.0</ele><time>2026-03-26T09:40:52.01Z</time></trkpt><trkpt lat="30.7755762012693" lon="-6.464682215255617"><ele>1009.25</ele><time>2026-03-26T09:40:53.01Z</time></trkpt><trkpt lat="30.775709995668393" lon="-6.464582135915208"><ele>1007.5</ele><time>2026-03-26T09:40:54.01Z</time></trkpt><trkpt lat="30.775831465399794" lon="-6.464488146931549"><ele>1005.75</ele><time>2026-03-26T09:40:55.01Z</time></trkpt><trkpt lat="30.77592828570738" lon="-6.464408367495168"><ele>1004.0</ele><time>2026-03-26T09:40:56.01Z</time></trkpt><trkpt lat="30.776014991266223" lon="-6.464348105772395"><ele>1002.8000000000001</ele><time>2026-03-26T09:40:57.01Z</time></trkpt><trkpt lat="30.776106113870064" lon="-6.464293102989083"><ele>1001.6000000000001</ele><time>2026-03-26T09:40:58.01Z</time></trkpt><trkpt lat="30.776193761849374" lon="-6.46424094538998"><ele>1000.4</ele><time>2026-03-26T09:40:59.01Z</time></trkpt><trkpt lat="30.77627791208331" lon="-6.464209543788057"><ele>999.2</ele><time>2026-03-26T09:41:00.01Z</time></trkpt><trkpt lat="30.776359925407885" lon="-6.464158159547391"><ele>998.0</ele><time>2026-03-26T09:41:01.01Z</time></trkpt><trkpt lat="30.77643742384175" lon="-6.464126860838836"><ele>998.0000000000001</ele><time>2026-03-26T09:41:02.01Z</time></trkpt><trkpt lat="30.776511531797276" lon="-6.464088425372213"><ele>998.0</ele><time>2026-03-26T09:41:03.01Z</time></trkpt><trkpt lat="30.776581728742165" lon="-6.464042508413159"><ele>998.0000000000001</ele><time>2026-03-26T09:41:04.01Z</time></trkpt><trkpt lat="30.776657228576568" lon="-6.464004426005708"><ele>998.0000000000001</ele><time>2026-03-26T09:41:05.01Z</time></trkpt><trkpt lat="30.7767246758543" lon="-6.463992656331962"><ele>998.0</ele><time>2026-03-26T09:41:06.01Z</time></trkpt><trkpt lat="30.776794478441943" lon="-6.46400841511671"><ele>998.0000000000001</ele><time>2026-03-26T09:41:07.01Z</time></trkpt><trkpt lat="30.776836940630385" lon="-6.464062972989469"><ele>998.0000000000001</ele><time>2026-03-26T09:41:08.01Z</time></trkpt><trkpt lat="30.77687258521384" lon="-6.4641307022535015"><ele>998.0</ele><time>2026-03-26T09:41:09.01Z</time></trkpt><trkpt lat="30.776882278637007" lon="-6.464233235542652"><ele>998.0</ele><time>2026-03-26T09:41:10.01Z</time></trkpt><trkpt lat="30.77686864011332" lon="-6.4643451173898"><ele>998.0</ele><time>2026-03-26T09:41:11.01Z</time></trkpt><trkpt lat="30.776848039262394" lon="-6.464474227134506"><ele>998.0</ele><time>2026-03-26T09:41:12.01Z</time></trkpt><trkpt lat="30.776838525507976" lon="-6.464580830703203"><ele>998.0</ele><time>2026-03-26T09:41:13.01Z</time></trkpt><trkpt lat="30.77685303046087" lon="-6.464674572331633"><ele>996.5</ele><time>2026-03-26T09:41:14.01Z</time></trkpt><trkpt lat="30.77690582867233" lon="-6.4647695656260105"><ele>995.0</ele><time>2026-03-26T09:41:15.01Z</time></trkpt><trkpt lat="30.776977139113345" lon="-6.464857258021666"><ele>993.5</ele><time>2026-03-26T09:41:16.01Z</time></trkpt><trkpt lat="30.77707125967161" lon="-6.464945023789184"><ele>992.0</ele><time>2026-03-26T09:41:17.01Z</time></trkpt><trkpt lat="30.777195509896586" lon="-6.465030182978333"><ele>992.0</ele><time>2026-03-26T09:41:18.01Z</time></trkpt><trkpt lat="30.777327094211696" lon="-6.465121749777972"><ele>992.0</ele><time>2026-03-26T09:41:19.01Z</time></trkpt><trkpt lat="30.77745587461287" lon="-6.465216913913866"><ele>992.0</ele><time>2026-03-26T09:41:20.01Z</time></trkpt><trkpt lat="30.77755097658508" lon="-6.465313370283357"><ele>992.0</ele><time>2026-03-26T09:41:21.01Z</time></trkpt><trkpt lat="30.777627105675595" lon="-6.4654208682358245"><ele>992.5</ele><time>2026-03-26T09:41:22.01Z</time></trkpt><trkpt lat="30.777704218257977" lon="-6.465553033587986"><ele>993.0</ele><time>2026-03-26T09:41:23.01Z</time></trkpt><trkpt lat="30.77779546613012" lon="-6.465691721550269"><ele>993.5</ele><time>2026-03-26T09:41:24.01Z</time></trkpt><trkpt lat="30.777893603064875" lon="-6.465827175942054"><ele>994.0</ele><time>2026-03-26T09:41:25.01Z</time></trkpt><trkpt lat="30.77800293726939" lon="-6.4659590294424225"><ele>994.0</ele><time>2026-03-26T09:41:26.01Z</time></trkpt><trkpt lat="30.77811817829815" lon="-6.466066074552581"><ele>994.0</ele><time>2026-03-26T09:41:27.01Z</time></trkpt><trkpt lat="30.77823284093838" lon="-6.466164014599372"><ele>994.0</ele><time>2026-03-26T09:41:28.01Z</time></trkpt><trkpt lat="30.778340956287657" lon="-6.4662636214426445"><ele>994.0</ele><time>2026-03-26T09:41:29.01Z</time></trkpt><trkpt lat="30.77845508879445" lon="-6.466370466983141"><ele>995.3333333333333</ele><time>2026-03-26T09:41:30.01Z</time></trkpt><trkpt lat="30.778586410411275" lon="-6.466494315787718"><ele>996.6666666666667</ele><time>2026-03-26T09:41:31.01Z</time></trkpt><trkpt lat="30.77870406229423" lon="-6.466622514164216"><ele>998.0</ele><time>2026-03-26T09:41:32.01Z</time></trkpt><trkpt lat="30.778804676122636" lon="-6.466731586985285"><ele>998.0</ele><time>2026-03-26T09:41:33.01Z</time></trkpt><trkpt lat="30.778899044456963" lon="-6.466819909033952"><ele>998.0</ele><time>2026-03-26T09:41:34.01Z</time></trkpt><trkpt lat="30.778979264899714" lon="-6.466905922596829"><ele>998.0</ele><time>2026-03-26T09:41:35.01Z</time></trkpt><trkpt lat="30.779057831475285" lon="-6.4669912448001226"><ele>998.0</ele><time>2026-03-26T09:41:36.01Z</time></trkpt><trkpt lat="30.779134372658884" lon="-6.4670828532100435"><ele>998.0</ele><time>2026-03-26T09:41:37.01Z</time></trkpt><trkpt lat="30.77921514790179" lon="-6.467158120650959"><ele>999.3333333333334</ele><time>2026-03-26T09:41:38.01Z</time></trkpt><trkpt lat="30.77928867767946" lon="-6.467216579481297"><ele>1000.6666666666667</ele><time>2026-03-26T09:41:39.01Z</time></trkpt><trkpt lat="30.77936572938677" lon="-6.467258091359492"><ele>1002.0</ele><time>2026-03-26T09:41:40.01Z</time></trkpt><trkpt lat="30.779445023586455" lon="-6.467285971863509"><ele>1003.3333333333333</ele><time>2026-03-26T09:41:41.01Z</time></trkpt><trkpt lat="30.77952148837545" lon="-6.467294524096096"><ele>1004.6666666666666</ele><time>2026-03-26T09:41:42.01Z</time></trkpt><trkpt lat="30.779602477691743" lon="-6.46730797249684"><ele>1006.0</ele><time>2026-03-26T09:41:43.01Z</time></trkpt><trkpt lat="30.77969062916564" lon="-6.467329032758468"><ele>1005.9999999999999</ele><time>2026-03-26T09:41:44.01Z</time></trkpt><trkpt lat="30.779777600417933" lon="-6.467354818103642"><ele>1006.0</ele><time>2026-03-26T09:41:45.01Z</time></trkpt><trkpt lat="30.77985249988035" lon="-6.4673949453662525"><ele>1006.0</ele><time>2026-03-26T09:41:46.01Z</time></trkpt><trkpt lat="30.779921899126663" lon="-6.467446346759275"><ele>1006.0</ele><time>2026-03-26T09:41:47.01Z</time></trkpt><trkpt lat="30.779983814987293" lon="-6.467507416229583"><ele>1005.9999999999999</ele><time>2026-03-26T09:41:48.01Z</time></trkpt><trkpt lat="30.780035052240343" lon="-6.4675701102411045"><ele>1006.0</ele><time>2026-03-26T09:41:49.01Z</time></trkpt><trkpt lat="30.78007612992811" lon="-6.467638108753946"><ele>1006.0</ele><time>2026-03-26T09:41:50.01Z</time></trkpt><trkpt lat="30.7801084916361" lon="-6.467710084001839"><ele>1005.9999999999999</ele><time>2026-03-26T09:41:51.01Z</time></trkpt><trkpt lat="30.780129029077496" lon="-6.467786069510337"><ele>1005.9999999999999</ele><time>2026-03-26T09:41:52.01Z</time></trkpt><trkpt lat="30.780157890774035" lon="-6.467909738881413"><ele>1006.0</ele><time>2026-03-26T09:41:54.01Z</time></trkpt><trkpt lat="30.78020015260019" lon="-6.468076115861712"><ele>1006.0</ele><time>2026-03-26T09:41:56.01Z</time></trkpt><trkpt lat="30.780185138472216" lon="-6.468193213399664"><ele>1007.5999999999999</ele><time>2026-03-26T09:41:57.01Z</time></trkpt><trkpt lat="30.780151342982084" lon="-6.468313826849223"><ele>1009.1999999999999</ele><time>2026-03-26T09:41:58.01Z</time></trkpt><trkpt lat="30.78009493077081" lon="-6.468418954851653"><ele>1010.8000000000001</ele><time>2026-03-26T09:41:59.01Z</time></trkpt><trkpt lat="30.780069326213166" lon="-6.4685159202045535"><ele>1012.4000000000001</ele><time>2026-03-26T09:42:00.01Z</time></trkpt><trkpt lat="30.78005494904803" lon="-6.468589999155555"><ele>1014.0</ele><time>2026-03-26T09:42:01.01Z</time></trkpt><trkpt lat="30.780074747458478" lon="-6.4686837350011555"><ele>1014.0</ele><time>2026-03-26T09:42:02.01Z</time></trkpt><trkpt lat="30.780156424585197" lon="-6.46876228561056"><ele>1014.0</ele><time>2026-03-26T09:42:03.01Z</time></trkpt><trkpt lat="30.780258226866415" lon="-6.4688159234836755"><ele>1014.0</ele><time>2026-03-26T09:42:04.01Z</time></trkpt><trkpt lat="30.78033875376585" lon="-6.4689084599444335"><ele>1014.0</ele><time>2026-03-26T09:42:05.01Z</time></trkpt><trkpt lat="30.780409761391436" lon="-6.469039767453484"><ele>1014.5</ele><time>2026-03-26T09:42:06.01Z</time></trkpt><trkpt lat="30.780490125605382" lon="-6.46919449882876"><ele>1015.0</ele><time>2026-03-26T09:42:07.01Z</time></trkpt><trkpt lat="30.780563635493557" lon="-6.4693290013070675"><ele>1015.5</ele><time>2026-03-26T09:42:08.01Z</time></trkpt><trkpt lat="30.780639696482154" lon="-6.469422047670087"><ele>1016.0</ele><time>2026-03-26T09:42:09.01Z</time></trkpt><trkpt lat="30.780713509247057" lon="-6.46948673958229"><ele>1016.0</ele><time>2026-03-26T09:42:10.01Z</time></trkpt><trkpt lat="30.780789521716226" lon="-6.469557548558486"><ele>1015.9999999999999</ele><time>2026-03-26T09:42:11.01Z</time></trkpt><trkpt lat="30.780853718991395" lon="-6.469615826812329"><ele>1015.9999999999999</ele><time>2026-03-26T09:42:12.01Z</time></trkpt><trkpt lat="30.780922542905774" lon="-6.469670941325434"><ele>1016.0</ele><time>2026-03-26T09:42:13.01Z</time></trkpt><trkpt lat="30.780996537267033" lon="-6.469732855636293"><ele>1016.0</ele><time>2026-03-26T09:42:14.01Z</time></trkpt><trkpt lat="30.781081413121203" lon="-6.469816859252949"><ele>1017.25</ele><time>2026-03-26T09:42:15.01Z</time></trkpt><trkpt lat="30.781164655206553" lon="-6.46992067874441"><ele>1018.5</ele><time>2026-03-26T09:42:16.01Z</time></trkpt><trkpt lat="30.781233126380258" lon="-6.470027883454237"><ele>1019.75</ele><time>2026-03-26T09:42:17.01Z</time></trkpt><trkpt lat="30.781304991928586" lon="-6.470139368756036"><ele>1021.0</ele><time>2026-03-26T09:42:18.01Z</time></trkpt><trkpt lat="30.781374311609923" lon="-6.470238990927894"><ele>1021.0</ele><time>2026-03-26T09:42:19.01Z</time></trkpt><trkpt lat="30.781435939906242" lon="-6.47032007245955"><ele>1020.9999999999999</ele><time>2026-03-26T09:42:20.01Z</time></trkpt><trkpt lat="30.78149912873718" lon="-6.470415897423849"><ele>1020.9999999999999</ele><time>2026-03-26T09:42:21.01Z</time></trkpt><trkpt lat="30.781560115767437" lon="-6.4705289592731345"><ele>1021.0</ele><time>2026-03-26T09:42:22.01Z</time></trkpt><trkpt lat="30.781624755563158" lon="-6.470666820327816"><ele>1021.0</ele><time>2026-03-26T09:42:23.01Z</time></trkpt><trkpt lat="30.781695409772592" lon="-6.470800830744574"><ele>1020.8</ele><time>2026-03-26T09:42:24.01Z</time></trkpt><trkpt lat="30.781769826167995" lon="-6.470913057725122"><ele>1020.5999999999999</ele><time>2026-03-26T09:42:25.01Z</time></trkpt><trkpt lat="30.781822635715947" lon="-6.471022665980781"><ele>1020.4</ele><time>2026-03-26T09:42:26.01Z</time></trkpt><trkpt lat="30.781858549259365" lon="-6.471125721383233"><ele>1020.2</ele><time>2026-03-26T09:42:27.01Z</time></trkpt><trkpt lat="30.78190216172449" lon="-6.471205197600072"><ele>1020.0</ele><time>2026-03-26T09:42:28.01Z</time></trkpt><trkpt lat="30.78199742234154" lon="-6.471265099657214"><ele>1021.2</ele><time>2026-03-26T09:42:29.01Z</time></trkpt><trkpt lat="30.782086433226787" lon="-6.47131523682014"><ele>1022.4</ele><time>2026-03-26T09:42:30.01Z</time></trkpt><trkpt lat="30.78214337777925" lon="-6.471402931825121"><ele>1023.5999999999999</ele><time>2026-03-26T09:42:31.01Z</time></trkpt><trkpt lat="30.782164362512606" lon="-6.471542625731858"><ele>1024.8</ele><time>2026-03-26T09:42:32.01Z</time></trkpt><trkpt lat="30.782165208820945" lon="-6.471670727201194"><ele>1026.0</ele><time>2026-03-26T09:42:33.01Z</time></trkpt><trkpt lat="30.782182697027338" lon="-6.471755686803502"><ele>1026.0</ele><time>2026-03-26T09:42:34.01Z</time></trkpt><trkpt lat="30.782234721638055" lon="-6.471883900629466"><ele>1026.0</ele><time>2026-03-26T09:42:36.01Z</time></trkpt><trkpt lat="30.78229773482898" lon="-6.471992625817038"><ele>1026.0</ele><time>2026-03-26T09:42:38.01Z</time></trkpt><trkpt lat="30.782348365366317" lon="-6.4720539337765475"><ele>1026.0</ele><time>2026-03-26T09:42:39.01Z</time></trkpt><trkpt lat="30.78240770617454" lon="-6.472116804080836"><ele>1026.0</ele><time>2026-03-26T09:42:40.01Z</time></trkpt><trkpt lat="30.7824845153907" lon="-6.472181849077199"><ele>1027.75</ele><time>2026-03-26T09:42:41.01Z</time></trkpt><trkpt lat="30.782569241007433" lon="-6.472257462710949"><ele>1029.5</ele><time>2026-03-26T09:42:42.01Z</time></trkpt><trkpt lat="30.78264354659224" lon="-6.472361783371152"><ele>1031.25</ele><time>2026-03-26T09:42:43.01Z</time></trkpt><trkpt lat="30.782699159470816" lon="-6.472503118463658"><ele>1033.0</ele><time>2026-03-26T09:42:44.01Z</time></trkpt><trkpt lat="30.782723393005877" lon="-6.47268368298245"><ele>1033.6666666666665</ele><time>2026-03-26T09:42:45.01Z</time></trkpt><trkpt lat="30.78275408583457" lon="-6.472881986540441"><ele>1034.3333333333333</ele><time>2026-03-26T09:42:46.01Z</time></trkpt><trkpt lat="30.782808855632876" lon="-6.473104333956699"><ele>1035.0</ele><time>2026-03-26T09:42:47.01Z</time></trkpt><trkpt lat="30.782880355486853" lon="-6.473270303671009"><ele>1035.75</ele><time>2026-03-26T09:42:48.01Z</time></trkpt><trkpt lat="30.782958994826615" lon="-6.473400872739754"><ele>1036.5</ele><time>2026-03-26T09:42:49.01Z</time></trkpt><trkpt lat="30.783025610477463" lon="-6.473550580584076"><ele>1037.25</ele><time>2026-03-26T09:42:50.01Z</time></trkpt><trkpt lat="30.783099722751334" lon="-6.473704498187898"><ele>1038.0</ele><time>2026-03-26T09:42:51.01Z</time></trkpt><trkpt lat="30.78316526861093" lon="-6.473845761276666"><ele>1039.0</ele><time>2026-03-26T09:42:52.01Z</time></trkpt><trkpt lat="30.783232140739813" lon="-6.473973975151319"><ele>1040.0</ele><time>2026-03-26T09:42:53.01Z</time></trkpt><trkpt lat="30.783301625909942" lon="-6.4740980436600175"><ele>1041.0</ele><time>2026-03-26T09:42:54.01Z</time></trkpt><trkpt lat="30.783368273287167" lon="-6.474218097298085"><ele>1042.0</ele><time>2026-03-26T09:42:55.01Z</time></trkpt><trkpt lat="30.78343482853496" lon="-6.474337764601459"><ele>1042.0</ele><time>2026-03-26T09:42:56.01Z</time></trkpt><trkpt lat="30.783500610785374" lon="-6.4744581203228595"><ele>1042.0</ele><time>2026-03-26T09:42:57.01Z</time></trkpt><trkpt lat="30.78355257986646" lon="-6.474575008907492"><ele>1042.0</ele><time>2026-03-26T09:42:58.01Z</time></trkpt><trkpt lat="30.78358703546293" lon="-6.474708176620225"><ele>1042.0</ele><time>2026-03-26T09:42:59.01Z</time></trkpt><trkpt lat="30.783617601755598" lon="-6.474829396714998"><ele>1044.2</ele><time>2026-03-26T09:43:00.01Z</time></trkpt><trkpt lat="30.783644763740618" lon="-6.474949707567586"><ele>1046.4</ele><time>2026-03-26T09:43:01.01Z</time></trkpt><trkpt lat="30.783671556721657" lon="-6.475067444400422"><ele>1048.6</ele><time>2026-03-26T09:43:02.01Z</time></trkpt><trkpt lat="30.78369494713299" lon="-6.475189499378463"><ele>1050.8</ele><time>2026-03-26T09:43:03.01Z</time></trkpt><trkpt lat="30.783721965281885" lon="-6.475318425773344"><ele>1053.0</ele><time>2026-03-26T09:43:04.01Z</time></trkpt><trkpt lat="30.783760890725187" lon="-6.475464617179163"><ele>1054.5</ele><time>2026-03-26T09:43:05.01Z</time></trkpt><trkpt lat="30.7837960119873" lon="-6.475597335020687"><ele>1056.0</ele><time>2026-03-26T09:43:06.01Z</time></trkpt><trkpt lat="30.78382074039704" lon="-6.475728187070592"><ele>1057.5</ele><time>2026-03-26T09:43:07.01Z</time></trkpt><trkpt lat="30.783836499613567" lon="-6.475871453804966"><ele>1059.0</ele><time>2026-03-26T09:43:08.01Z</time></trkpt><trkpt lat="30.783888524923057" lon="-6.476044811317964"><ele>1059.0</ele><time>2026-03-26T09:43:09.01Z</time></trkpt><trkpt lat="30.78392971194604" lon="-6.4762184263597"><ele>1059.0</ele><time>2026-03-26T09:43:10.01Z</time></trkpt><trkpt lat="30.783959748393467" lon="-6.476394155625745"><ele>1059.0</ele><time>2026-03-26T09:43:11.01Z</time></trkpt><trkpt lat="30.78397993628997" lon="-6.476552844854065"><ele>1059.0</ele><time>2026-03-26T09:43:12.01Z</time></trkpt><trkpt lat="30.78399805361254" lon="-6.476697154454408"><ele>1059.2</ele><time>2026-03-26T09:43:13.01Z</time></trkpt><trkpt lat="30.7840180641318" lon="-6.476846680470506"><ele>1059.4</ele><time>2026-03-26T09:43:14.01Z</time></trkpt><trkpt lat="30.784042254548783" lon="-6.47698467526003"><ele>1059.6</ele><time>2026-03-26T09:43:15.01Z</time></trkpt><trkpt lat="30.784077577239323" lon="-6.477079896774382"><ele>1059.8</ele><time>2026-03-26T09:43:16.01Z</time></trkpt><trkpt lat="30.784135291581062" lon="-6.477168301450149"><ele>1060.0</ele><time>2026-03-26T09:43:17.01Z</time></trkpt><trkpt lat="30.78423299368463" lon="-6.477230022259008"><ele>1061.5</ele><time>2026-03-26T09:43:18.01Z</time></trkpt><trkpt lat="30.78433180107246" lon="-6.477289251427777"><ele>1063.0</ele><time>2026-03-26T09:43:19.01Z</time></trkpt><trkpt lat="30.784433678756223" lon="-6.477355897378385"><ele>1064.5</ele><time>2026-03-26T09:43:20.01Z</time></trkpt><trkpt lat="30.784530386347097" lon="-6.477482300724586"><ele>1066.0</ele><time>2026-03-26T09:43:21.01Z</time></trkpt><trkpt lat="30.784621473010002" lon="-6.477672551699194"><ele>1066.0</ele><time>2026-03-26T09:43:22.01Z</time></trkpt><trkpt lat="30.78468134163741" lon="-6.477870988545031"><ele>1066.0</ele><time>2026-03-26T09:43:23.01Z</time></trkpt><trkpt lat="30.78474612346984" lon="-6.4780283418349205"><ele>1066.0</ele><time>2026-03-26T09:43:24.01Z</time></trkpt><trkpt lat="30.784788161848436" lon="-6.478158914297043"><ele>1066.5</ele><time>2026-03-26T09:43:25.01Z</time></trkpt><trkpt lat="30.784826463303418" lon="-6.478286078176564"><ele>1067.0</ele><time>2026-03-26T09:43:26.01Z</time></trkpt><trkpt lat="30.784870746675033" lon="-6.4784230428626"><ele>1067.5</ele><time>2026-03-26T09:43:27.01Z</time></trkpt><trkpt lat="30.784915604253356" lon="-6.478558618394666"><ele>1068.0</ele><time>2026-03-26T09:43:28.01Z</time></trkpt><trkpt lat="30.784967411131174" lon="-6.47870752721678"><ele>1069.0</ele><time>2026-03-26T09:43:29.01Z</time></trkpt><trkpt lat="30.784985446999556" lon="-6.478891601824732"><ele>1070.0</ele><time>2026-03-26T09:43:30.01Z</time></trkpt><trkpt lat="30.785007262531536" lon="-6.4790868770785845"><ele>1071.0</ele><time>2026-03-26T09:43:31.01Z</time></trkpt><trkpt lat="30.785030407205422" lon="-6.479249813916759"><ele>1071.0</ele><time>2026-03-26T09:43:32.01Z</time></trkpt><trkpt lat="30.785045982759023" lon="-6.479404945608111"><ele>1071.0</ele><time>2026-03-26T09:43:33.01Z</time></trkpt><trkpt lat="30.78505307100288" lon="-6.4795645839797995"><ele>1071.0</ele><time>2026-03-26T09:43:34.01Z</time></trkpt><trkpt lat="30.785050714376272" lon="-6.479732564934728"><ele>1071.0</ele><time>2026-03-26T09:43:35.01Z</time></trkpt><trkpt lat="30.785045500329304" lon="-6.479902004806017"><ele>1072.25</ele><time>2026-03-26T09:43:36.01Z</time></trkpt><trkpt lat="30.78503525360568" lon="-6.480082186137838"><ele>1073.5</ele><time>2026-03-26T09:43:37.01Z</time></trkpt><trkpt lat="30.785019644381002" lon="-6.480247600531878"><ele>1074.75</ele><time>2026-03-26T09:43:38.01Z</time></trkpt><trkpt lat="30.785007062349916" lon="-6.480397656808028"><ele>1076.0</ele><time>2026-03-26T09:43:39.01Z</time></trkpt><trkpt lat="30.78499825622869" lon="-6.480541918085021"><ele>1076.6</ele><time>2026-03-26T09:43:40.01Z</time></trkpt><trkpt lat="30.78499379476156" lon="-6.480675979097868"><ele>1077.1999999999998</ele><time>2026-03-26T09:43:41.01Z</time></trkpt><trkpt lat="30.78498410944441" lon="-6.4808021050905325"><ele>1077.8000000000002</ele><time>2026-03-26T09:43:42.01Z</time></trkpt><trkpt lat="30.784975826889138" lon="-6.480925896276278"><ele>1078.4</ele><time>2026-03-26T09:43:43.01Z</time></trkpt><trkpt lat="30.784968503408532" lon="-6.48104669080847"><ele>1079.0</ele><time>2026-03-26T09:43:44.01Z</time></trkpt><trkpt lat="30.784967647622892" lon="-6.481174796975617"><ele>1078.8</ele><time>2026-03-26T09:43:45.01Z</time></trkpt><trkpt lat="30.784952319177734" lon="-6.481299750046248"><ele>1078.6000000000001</ele><time>2026-03-26T09:43:46.01Z</time></trkpt><trkpt lat="30.78492238777706" lon="-6.481401063654413"><ele>1078.4</ele><time>2026-03-26T09:43:47.01Z</time></trkpt><trkpt lat="30.784892417590875" lon="-6.481513724748558"><ele>1078.2</ele><time>2026-03-26T09:43:48.01Z</time></trkpt><trkpt lat="30.78486999289288" lon="-6.481633433580396"><ele>1078.0</ele><time>2026-03-26T09:43:49.01Z</time></trkpt><trkpt lat="30.784833013906873" lon="-6.48174933953706"><ele>1078.0</ele><time>2026-03-26T09:43:50.01Z</time></trkpt><trkpt lat="30.784773281475704" lon="-6.481840259015369"><ele>1078.0</ele><time>2026-03-26T09:43:51.01Z</time></trkpt><trkpt lat="30.784695069970997" lon="-6.4819333493229845"><ele>1078.0</ele><time>2026-03-26T09:43:52.01Z</time></trkpt><trkpt lat="30.784618635767394" lon="-6.482016731499162"><ele>1078.0</ele><time>2026-03-26T09:43:53.01Z</time></trkpt><trkpt lat="30.784552663723534" lon="-6.48207389082274"><ele>1078.0</ele><time>2026-03-26T09:43:54.01Z</time></trkpt><trkpt lat="30.784490227084742" lon="-6.482120803108482"><ele>1078.2</ele><time>2026-03-26T09:43:55.01Z</time></trkpt><trkpt lat="30.784437876772092" lon="-6.482175729693967"><ele>1078.4</ele><time>2026-03-26T09:43:56.01Z</time></trkpt><trkpt lat="30.784395350000327" lon="-6.482232582737858"><ele>1078.6000000000001</ele><time>2026-03-26T09:43:57.01Z</time></trkpt><trkpt lat="30.784321937357987" lon="-6.482368005628991"><ele>1078.8</ele><time>2026-03-26T09:43:59.01Z</time></trkpt><trkpt lat="30.784298497052955" lon="-6.482461167593437"><ele>1079.0</ele><time>2026-03-26T09:44:00.01Z</time></trkpt><trkpt lat="30.784282225172944" lon="-6.482593996943484"><ele>1078.25</ele><time>2026-03-26T09:44:01.01Z</time></trkpt><trkpt lat="30.78423866054676" lon="-6.482729985127304"><ele>1077.5</ele><time>2026-03-26T09:44:02.01Z</time></trkpt><trkpt lat="30.78419903760864" lon="-6.482854543183187"><ele>1076.75</ele><time>2026-03-26T09:44:03.01Z</time></trkpt><trkpt lat="30.784155432006827" lon="-6.482994448912366"><ele>1076.0</ele><time>2026-03-26T09:44:04.01Z</time></trkpt><trkpt lat="30.78411555934684" lon="-6.483132629000756"><ele>1074.75</ele><time>2026-03-26T09:44:05.01Z</time></trkpt><trkpt lat="30.784068801476565" lon="-6.4832685315774485"><ele>1073.5</ele><time>2026-03-26T09:44:06.01Z</time></trkpt><trkpt lat="30.784022024667344" lon="-6.483401086647919"><ele>1072.25</ele><time>2026-03-26T09:44:07.01Z</time></trkpt><trkpt lat="30.78401702753981" lon="-6.483526612095706"><ele>1071.0</ele><time>2026-03-26T09:44:08.01Z</time></trkpt><trkpt lat="30.784031929309883" lon="-6.483633154824281"><ele>1071.0</ele><time>2026-03-26T09:44:09.01Z</time></trkpt><trkpt lat="30.784059282627965" lon="-6.483758826445939"><ele>1071.0</ele><time>2026-03-26T09:44:10.01Z</time></trkpt><trkpt lat="30.784097512116528" lon="-6.483914322210339"><ele>1071.0</ele><time>2026-03-26T09:44:11.01Z</time></trkpt><trkpt lat="30.784103296009793" lon="-6.484073410172476"><ele>1071.0</ele><time>2026-03-26T09:44:12.01Z</time></trkpt><trkpt lat="30.784104597241047" lon="-6.484206134377493"><ele>1070.25</ele><time>2026-03-26T09:44:13.01Z</time></trkpt><trkpt lat="30.784133640977878" lon="-6.484338776122381"><ele>1069.5</ele><time>2026-03-26T09:44:14.01Z</time></trkpt><trkpt lat="30.784171036123166" lon="-6.484501811725693"><ele>1068.75</ele><time>2026-03-26T09:44:15.01Z</time></trkpt><trkpt lat="30.78418143277497" lon="-6.484652655448763"><ele>1068.0</ele><time>2026-03-26T09:44:16.01Z</time></trkpt><trkpt lat="30.784188161792898" lon="-6.484796254574567"><ele>1066.5</ele><time>2026-03-26T09:44:17.01Z</time></trkpt><trkpt lat="30.784189201843102" lon="-6.4849385442539065"><ele>1065.0</ele><time>2026-03-26T09:44:18.01Z</time></trkpt><trkpt lat="30.784165773165682" lon="-6.485089102509324"><ele>1063.5</ele><time>2026-03-26T09:44:19.01Z</time></trkpt><trkpt lat="30.78411608961291" lon="-6.48523522980602"><ele>1062.0</ele><time>2026-03-26T09:44:20.01Z</time></trkpt><trkpt lat="30.784093975712494" lon="-6.485383310394353"><ele>1061.5</ele><time>2026-03-26T09:44:21.01Z</time></trkpt><trkpt lat="30.784098307232863" lon="-6.485546275057073"><ele>1061.0</ele><time>2026-03-26T09:44:22.01Z</time></trkpt><trkpt lat="30.784077082395495" lon="-6.485710637156183"><ele>1060.5</ele><time>2026-03-26T09:44:23.01Z</time></trkpt><trkpt lat="30.784030551538187" lon="-6.485851397164241"><ele>1060.0</ele><time>2026-03-26T09:44:24.01Z</time></trkpt><trkpt lat="30.783986990028428" lon="-6.485982909851833"><ele>1060.0</ele><time>2026-03-26T09:44:25.01Z</time></trkpt><trkpt lat="30.783957347080502" lon="-6.486108885595197"><ele>1060.0</ele><time>2026-03-26T09:44:26.01Z</time></trkpt><trkpt lat="30.783949746519603" lon="-6.486244350287693"><ele>1060.0</ele><time>2026-03-26T09:44:27.01Z</time></trkpt><trkpt lat="30.78393332429857" lon="-6.486373657939279"><ele>1060.0</ele><time>2026-03-26T09:44:28.01Z</time></trkpt><trkpt lat="30.783914375997654" lon="-6.486492080955442"><ele>1060.0</ele><time>2026-03-26T09:44:29.01Z</time></trkpt><trkpt lat="30.783902850922676" lon="-6.486606485675459"><ele>1059.0</ele><time>2026-03-26T09:44:30.01Z</time></trkpt><trkpt lat="30.78388666583849" lon="-6.486722528733906"><ele>1058.0</ele><time>2026-03-26T09:44:31.01Z</time></trkpt><trkpt lat="30.78386873958134" lon="-6.486818298895574"><ele>1057.0</ele><time>2026-03-26T09:44:32.01Z</time></trkpt><trkpt lat="30.783845327880737" lon="-6.486914287262722"><ele>1056.0</ele><time>2026-03-26T09:44:33.01Z</time></trkpt><trkpt lat="30.783832135845785" lon="-6.487005480696196"><ele>1055.0</ele><time>2026-03-26T09:44:34.01Z</time></trkpt><trkpt lat="30.783814718283683" lon="-6.487108926702293"><ele>1054.0</ele><time>2026-03-26T09:44:35.01Z</time></trkpt><trkpt lat="30.783763867240204" lon="-6.487216478117882"><ele>1053.25</ele><time>2026-03-26T09:44:36.01Z</time></trkpt><trkpt lat="30.78372455301531" lon="-6.487331491371481"><ele>1052.5</ele><time>2026-03-26T09:44:37.01Z</time></trkpt><trkpt lat="30.78368227966967" lon="-6.487448839348519"><ele>1051.75</ele><time>2026-03-26T09:44:38.01Z</time></trkpt><trkpt lat="30.783591798056538" lon="-6.487555159659049"><ele>1051.0</ele><time>2026-03-26T09:44:39.01Z</time></trkpt><trkpt lat="30.783482337516038" lon="-6.4876710043983135"><ele>1051.0</ele><time>2026-03-26T09:44:40.01Z</time></trkpt><trkpt lat="30.783387969989107" lon="-6.487763925831934"><ele>1051.0</ele><time>2026-03-26T09:44:41.01Z</time></trkpt><trkpt lat="30.783307466263647" lon="-6.487820585459706"><ele>1051.0</ele><time>2026-03-26T09:44:42.01Z</time></trkpt><trkpt lat="30.7832292429" lon="-6.487866335871912"><ele>1051.0</ele><time>2026-03-26T09:44:43.01Z</time></trkpt><trkpt lat="30.783143263818562" lon="-6.487926943004107"><ele>1051.0</ele><time>2026-03-26T09:44:44.01Z</time></trkpt><trkpt lat="30.7830785316959" lon="-6.488018350661735"><ele>1050.1666666666665</ele><time>2026-03-26T09:44:45.01Z</time></trkpt><trkpt lat="30.78305267300438" lon="-6.488110635485863"><ele>1049.3333333333333</ele><time>2026-03-26T09:44:46.01Z</time></trkpt><trkpt lat="30.783030510535053" lon="-6.48821347642366"><ele>1048.5</ele><time>2026-03-26T09:44:47.01Z</time></trkpt><trkpt lat="30.78299870341054" lon="-6.488320587774269"><ele>1047.6666666666667</ele><time>2026-03-26T09:44:48.01Z</time></trkpt><trkpt lat="30.782955488795135" lon="-6.4884039318005"><ele>1046.8333333333335</ele><time>2026-03-26T09:44:49.01Z</time></trkpt><trkpt lat="30.78290055141833" lon="-6.488486306266632"><ele>1046.0</ele><time>2026-03-26T09:44:50.01Z</time></trkpt><trkpt lat="30.78284378955735" lon="-6.4885763678896335"><ele>1046.0</ele><time>2026-03-26T09:44:51.01Z</time></trkpt><trkpt lat="30.782786086085164" lon="-6.488662959637479"><ele>1046.0</ele><time>2026-03-26T09:44:52.01Z</time></trkpt><trkpt lat="30.782741220657723" lon="-6.488753383168766"><ele>1046.0</ele><time>2026-03-26T09:44:53.01Z</time></trkpt><trkpt lat="30.782699251926907" lon="-6.488809146418513"><ele>1046.0</ele><time>2026-03-26T09:44:54.01Z</time></trkpt><trkpt lat="30.78264626198943" lon="-6.4888910847645"><ele>1046.0</ele><time>2026-03-26T09:44:56.01Z</time></trkpt><trkpt lat="30.78255043575248" lon="-6.488889433988697"><ele>1046.0</ele><time>2026-03-26T09:44:59.01Z</time></trkpt><trkpt lat="30.782480703088154" lon="-6.488730027665341"><ele>1043.5</ele><time>2026-03-26T09:45:01.01Z</time></trkpt><trkpt lat="30.78248752624828" lon="-6.488579895307817"><ele>1041.0</ele><time>2026-03-26T09:45:02.01Z</time></trkpt><trkpt lat="30.782460791647967" lon="-6.488410081043414"><ele>1038.5</ele><time>2026-03-26T09:45:03.01Z</time></trkpt><trkpt lat="30.78242149684856" lon="-6.488277949087596"><ele>1036.0</ele><time>2026-03-26T09:45:04.01Z</time></trkpt><trkpt lat="30.782391469668504" lon="-6.488168320365965"><ele>1036.0</ele><time>2026-03-26T09:45:05.01Z</time></trkpt><trkpt lat="30.782359299176182" lon="-6.488077524138374"><ele>1036.0</ele><time>2026-03-26T09:45:06.01Z</time></trkpt><trkpt lat="30.7823158607516" lon="-6.487990729301661"><ele>1036.0</ele><time>2026-03-26T09:45:07.01Z</time></trkpt><trkpt lat="30.782294808240177" lon="-6.48789315929971"><ele>1036.0</ele><time>2026-03-26T09:45:08.01Z</time></trkpt><trkpt lat="30.7822561722128" lon="-6.487776770961619"><ele>1036.0</ele><time>2026-03-26T09:45:09.01Z</time></trkpt><trkpt lat="30.782204370047086" lon="-6.487640837812555"><ele>1035.3999999999999</ele><time>2026-03-26T09:45:10.01Z</time></trkpt><trkpt lat="30.782170570921352" lon="-6.487536310295879"><ele>1034.8</ele><time>2026-03-26T09:45:11.01Z</time></trkpt><trkpt lat="30.78215530034896" lon="-6.487419451403199"><ele>1034.1999999999998</ele><time>2026-03-26T09:45:12.01Z</time></trkpt><trkpt lat="30.782158720916957" lon="-6.4872963807125625"><ele>1033.6</ele><time>2026-03-26T09:45:13.01Z</time></trkpt><trkpt lat="30.782158821268133" lon="-6.487197705748132"><ele>1033.0</ele><time>2026-03-26T09:45:14.01Z</time></trkpt><trkpt lat="30.78215533044227" lon="-6.48710600913785"><ele>1033.6</ele><time>2026-03-26T09:45:16.01Z</time></trkpt><trkpt lat="30.782156037053596" lon="-6.486997921779528"><ele>1034.1999999999998</ele><time>2026-03-26T09:45:19.01Z</time></trkpt><trkpt lat="30.782088661223096" lon="-6.4869558316260045"><ele>1034.8</ele><time>2026-03-26T09:45:22.01Z</time></trkpt><trkpt lat="30.781987826232683" lon="-6.486949897381372"><ele>1035.3999999999999</ele><time>2026-03-26T09:45:24.01Z</time></trkpt><trkpt lat="30.781917969165345" lon="-6.487011845568513"><ele>1036.0</ele><time>2026-03-26T09:45:25.01Z</time></trkpt><trkpt lat="30.781840168283892" lon="-6.487115540340479"><ele>1033.6</ele><time>2026-03-26T09:45:26.01Z</time></trkpt><trkpt lat="30.78176094321522" lon="-6.487182785645394"><ele>1031.1999999999998</ele><time>2026-03-26T09:45:27.01Z</time></trkpt><trkpt lat="30.781678093293568" lon="-6.487199814164229"><ele>1028.8000000000002</ele><time>2026-03-26T09:45:28.01Z</time></trkpt><trkpt lat="30.781578360595756" lon="-6.487196723853104"><ele>1026.4</ele><time>2026-03-26T09:45:29.01Z</time></trkpt><trkpt lat="30.78149199053597" lon="-6.487175950401855"><ele>1024.0</ele><time>2026-03-26T09:45:30.01Z</time></trkpt><trkpt lat="30.781379832957853" lon="-6.487150382722142"><ele>1024.0</ele><time>2026-03-26T09:45:31.01Z</time></trkpt><trkpt lat="30.781261284074944" lon="-6.487160698352565"><ele>1024.0</ele><time>2026-03-26T09:45:32.01Z</time></trkpt><trkpt lat="30.781166185249823" lon="-6.487193219563589"><ele>1024.0</ele><time>2026-03-26T09:45:33.01Z</time></trkpt><trkpt lat="30.78109005831151" lon="-6.487219862527708"><ele>1024.0</ele><time>2026-03-26T09:45:34.01Z</time></trkpt><trkpt lat="30.780974323859514" lon="-6.487202483880676"><ele>1024.0</ele><time>2026-03-26T09:45:36.01Z</time></trkpt><trkpt lat="30.780893740644796" lon="-6.487091493667954"><ele>1023.4000000000001</ele><time>2026-03-26T09:45:38.01Z</time></trkpt><trkpt lat="30.78085527469524" lon="-6.486989937377014"><ele>1022.8000000000001</ele><time>2026-03-26T09:45:39.01Z</time></trkpt><trkpt lat="30.780815826075038" lon="-6.4869126009810785"><ele>1022.1999999999999</ele><time>2026-03-26T09:45:40.01Z</time></trkpt><trkpt lat="30.78076640015577" lon="-6.4868104129944495"><ele>1021.5999999999999</ele><time>2026-03-26T09:45:42.01Z</time></trkpt><trkpt lat="30.780685291583392" lon="-6.486718165395316"><ele>1021.0</ele><time>2026-03-26T09:45:44.01Z</time></trkpt><trkpt lat="30.780638453636392" lon="-6.486660246209158"><ele>1020.9999999999999</ele><time>2026-03-26T09:45:45.01Z</time></trkpt><trkpt lat="30.78057596314794" lon="-6.486626503509774"><ele>1021.0</ele><time>2026-03-26T09:45:46.01Z</time></trkpt><trkpt lat="30.780500764772107" lon="-6.486655055188394"><ele>1021.0</ele><time>2026-03-26T09:45:47.01Z</time></trkpt><trkpt lat="30.780443071643617" lon="-6.486698248175985"><ele>1021.0</ele><time>2026-03-26T09:45:48.01Z</time></trkpt><trkpt lat="30.780351412657144" lon="-6.4867935811001045"><ele>1020.9999999999999</ele><time>2026-03-26T09:45:50.01Z</time></trkpt><trkpt lat="30.78034164286057" lon="-6.48690074844871"><ele>1021.0</ele><time>2026-03-26T09:45:51.01Z</time></trkpt><trkpt lat="30.78034229885802" lon="-6.487012335348901"><ele>1021.0</ele><time>2026-03-26T09:45:52.011Z</time></trkpt><trkpt lat="30.78032465453842" lon="-6.487091329020506"><ele>1021.0</ele><time>2026-03-26T09:45:53.01Z</time></trkpt><trkpt lat="30.78029649019689" lon="-6.487158611207378"><ele>1021.0</ele><time>2026-03-26T09:45:54.01Z</time></trkpt><trkpt lat="30.780255907367128" lon="-6.4872234205388155"><ele>1021.0</ele><time>2026-03-26T09:45:55.01Z</time></trkpt><trkpt lat="30.780200220932322" lon="-6.487275080781928"><ele>1021.0</ele><time>2026-03-26T09:45:56.01Z</time></trkpt><trkpt lat="30.780140421742168" lon="-6.487306247077166"><ele>1021.0</ele><time>2026-03-26T09:45:57.01Z</time></trkpt><trkpt lat="30.78006571670678" lon="-6.487330273142894"><ele>1021.0</ele><time>2026-03-26T09:45:58.01Z</time></trkpt><trkpt lat="30.77998851159506" lon="-6.487352201453864"><ele>1016.0</ele><time>2026-03-26T09:45:59.01Z</time></trkpt><trkpt lat="30.779898065337733" lon="-6.487383465152378"><ele>1010.9999999999999</ele><time>2026-03-26T09:46:00.01Z</time></trkpt><trkpt lat="30.779801045914535" lon="-6.487413737848891"><ele>1005.9999999999999</ele><time>2026-03-26T09:46:01.01Z</time></trkpt><trkpt lat="30.779732282890222" lon="-6.487467174314963"><ele>1001.0</ele><time>2026-03-26T09:46:02.01Z</time></trkpt><trkpt lat="30.779689588533106" lon="-6.487540265310434"><ele>996.0</ele><time>2026-03-26T09:46:03.01Z</time></trkpt><trkpt lat="30.779684256908894" lon="-6.487654360752512"><ele>996.0</ele><time>2026-03-26T09:46:04.01Z</time></trkpt><trkpt lat="30.7796547332336" lon="-6.487756300243208"><ele>996.0</ele><time>2026-03-26T09:46:05.01Z</time></trkpt><trkpt lat="30.779597339699077" lon="-6.487833489216985"><ele>996.0</ele><time>2026-03-26T09:46:06.01Z</time></trkpt><trkpt lat="30.779510931636807" lon="-6.487868082966851"><ele>996.0</ele><time>2026-03-26T09:46:07.01Z</time></trkpt><trkpt lat="30.77943302439241" lon="-6.48790520752262"><ele>996.0</ele><time>2026-03-26T09:46:08.01Z</time></trkpt><trkpt lat="30.77937138500729" lon="-6.487958985197546"><ele>996.0</ele><time>2026-03-26T09:46:09.01Z</time></trkpt><trkpt lat="30.779312568910385" lon="-6.488048179256004"><ele>993.4</ele><time>2026-03-26T09:46:10.01Z</time></trkpt><trkpt lat="30.779243954708992" lon="-6.488128193948079"><ele>990.8</ele><time>2026-03-26T09:46:11.01Z</time></trkpt><trkpt lat="30.779136897367284" lon="-6.488168498113059"><ele>988.1999999999999</ele><time>2026-03-26T09:46:12.01Z</time></trkpt><trkpt lat="30.7790359050727" lon="-6.48818838337178"><ele>985.5999999999999</ele><time>2026-03-26T09:46:13.01Z</time></trkpt><trkpt lat="30.778942386266646" lon="-6.488185131830692"><ele>983.0</ele><time>2026-03-26T09:46:14.01Z</time></trkpt><trkpt lat="30.778869100907364" lon="-6.4881781299130825"><ele>983.0000000000001</ele><time>2026-03-26T09:46:15.01Z</time></trkpt><trkpt lat="30.778810530692624" lon="-6.488240019232338"><ele>983.0</ele><time>2026-03-26T09:46:16.01Z</time></trkpt><trkpt lat="30.778747838561614" lon="-6.488306747886644"><ele>983.0</ele><time>2026-03-26T09:46:17.01Z</time></trkpt><trkpt lat="30.77867879141112" lon="-6.488331732709287"><ele>983.0</ele><time>2026-03-26T09:46:18.01Z</time></trkpt><trkpt lat="30.778604077671464" lon="-6.488333612531757"><ele>983.0000000000001</ele><time>2026-03-26T09:46:19.01Z</time></trkpt><trkpt lat="30.778537666541133" lon="-6.488353019566216"><ele>983.0</ele><time>2026-03-26T09:46:20.01Z</time></trkpt><trkpt lat="30.77844325177213" lon="-6.488405473953587"><ele>983.5000000000001</ele><time>2026-03-26T09:46:22.01Z</time></trkpt><trkpt lat="30.778370315816986" lon="-6.488479038845415"><ele>984.0</ele><time>2026-03-26T09:46:24.01Z</time></trkpt><trkpt lat="30.778327278065273" lon="-6.488535764654925"><ele>984.5</ele><time>2026-03-26T09:46:25.01Z</time></trkpt><trkpt lat="30.778278304529533" lon="-6.4885920748561"><ele>985.0</ele><time>2026-03-26T09:46:26.01Z</time></trkpt><trkpt lat="30.77826757174415" lon="-6.488686524289956"><ele>985.5000000000001</ele><time>2026-03-26T09:46:27.01Z</time></trkpt><trkpt lat="30.778318709356256" lon="-6.488780966557412"><ele>986.0</ele><time>2026-03-26T09:46:28.01Z</time></trkpt><trkpt lat="30.77835928393876" lon="-6.488929167222854"><ele>983.1999999999999</ele><time>2026-03-26T09:46:29.01Z</time></trkpt><trkpt lat="30.778334604430146" lon="-6.489056391209255"><ele>980.3999999999999</ele><time>2026-03-26T09:46:30.01Z</time></trkpt><trkpt lat="30.778284384979692" lon="-6.489128040856571"><ele>977.6</ele><time>2026-03-26T09:46:31.01Z</time></trkpt><trkpt lat="30.778218807762173" lon="-6.48916793279906"><ele>974.8</ele><time>2026-03-26T09:46:32.01Z</time></trkpt><trkpt lat="30.77812379976536" lon="-6.489162557922492"><ele>972.0</ele><time>2026-03-26T09:46:33.01Z</time></trkpt><trkpt lat="30.778020967337845" lon="-6.489119661649753"><ele>972.0</ele><time>2026-03-26T09:46:34.01Z</time></trkpt><trkpt lat="30.777914480203304" lon="-6.4890795912164"><ele>972.0</ele><time>2026-03-26T09:46:35.01Z</time></trkpt><trkpt lat="30.777818812257063" lon="-6.489104366562742"><ele>972.0</ele><time>2026-03-26T09:46:36.01Z</time></trkpt><trkpt lat="30.7777422696061" lon="-6.489167044111399"><ele>972.0</ele><time>2026-03-26T09:46:37.01Z</time></trkpt><trkpt lat="30.77770635035794" lon="-6.489260116367951"><ele>972.0</ele><time>2026-03-26T09:46:38.01Z</time></trkpt><trkpt lat="30.777665056742816" lon="-6.489384424153795"><ele>971.8</ele><time>2026-03-26T09:46:39.01Z</time></trkpt><trkpt lat="30.777625057330386" lon="-6.489522959337267"><ele>971.6</ele><time>2026-03-26T09:46:40.01Z</time></trkpt><trkpt lat="30.777593235687362" lon="-6.489614232983076"><ele>971.3999999999999</ele><time>2026-03-26T09:46:41.01Z</time></trkpt><trkpt lat="30.77755187244504" lon="-6.48968574113586"><ele>971.1999999999999</ele><time>2026-03-26T09:46:42.01Z</time></trkpt><trkpt lat="30.777495062701277" lon="-6.489748558230796"><ele>971.0</ele><time>2026-03-26T09:46:43.01Z</time></trkpt><trkpt lat="30.777426726695094" lon="-6.489817656756036"><ele>971.0</ele><time>2026-03-26T09:46:44.01Z</time></trkpt><trkpt lat="30.77734320108767" lon="-6.489902347436897"><ele>971.0</ele><time>2026-03-26T09:46:45.01Z</time></trkpt><trkpt lat="30.777268603057134" lon="-6.489999252292412"><ele>971.0</ele><time>2026-03-26T09:46:46.01Z</time></trkpt><trkpt lat="30.777186767682895" lon="-6.490108273773428"><ele>971.0</ele><time>2026-03-26T09:46:47.01Z</time></trkpt><trkpt lat="30.7770986235098" lon="-6.490209800173547"><ele>971.0</ele><time>2026-03-26T09:46:48.01Z</time></trkpt><trkpt lat="30.77700440903354" lon="-6.490295119869661"><ele>971.0</ele><time>2026-03-26T09:46:49.01Z</time></trkpt><trkpt lat="30.776909320466796" lon="-6.490376407915993"><ele>971.0</ele><time>2026-03-26T09:46:50.01Z</time></trkpt><trkpt lat="30.776817673069438" lon="-6.4904556152513635"><ele>971.0</ele><time>2026-03-26T09:46:51.01Z</time></trkpt><trkpt lat="30.776733985012978" lon="-6.49053459887908"><ele>969.75</ele><time>2026-03-26T09:46:52.01Z</time></trkpt><trkpt lat="30.776650534413868" lon="-6.490624191864457"><ele>968.5</ele><time>2026-03-26T09:46:53.01Z</time></trkpt><trkpt lat="30.77655768098183" lon="-6.490713467874473"><ele>967.25</ele><time>2026-03-26T09:46:54.01Z</time></trkpt><trkpt lat="30.776457733642918" lon="-6.490805432552672"><ele>966.0</ele><time>2026-03-26T09:46:55.01Z</time></trkpt><trkpt lat="30.776352047872408" lon="-6.490896146493177"><ele>966.0</ele><time>2026-03-26T09:46:56.01Z</time></trkpt><trkpt lat="30.776243094343634" lon="-6.49099688773426"><ele>966.0</ele><time>2026-03-26T09:46:57.01Z</time></trkpt><trkpt lat="30.77614183112126" lon="-6.491100582275022"><ele>966.0</ele><time>2026-03-26T09:46:58.01Z</time></trkpt><trkpt lat="30.776031553531862" lon="-6.491202149843204"><ele>966.0</ele><time>2026-03-26T09:46:59.01Z</time></trkpt><trkpt lat="30.77592268413482" lon="-6.491292244525132"><ele>965.75</ele><time>2026-03-26T09:47:00.01Z</time></trkpt><trkpt lat="30.77583155462214" lon="-6.491403717737051"><ele>965.5</ele><time>2026-03-26T09:47:01.01Z</time></trkpt><trkpt lat="30.77575318074527" lon="-6.4915198641531795"><ele>965.25</ele><time>2026-03-26T09:47:02.01Z</time></trkpt><trkpt lat="30.77569123024102" lon="-6.491648050426192"><ele>965.0</ele><time>2026-03-26T09:47:03.01Z</time></trkpt><trkpt lat="30.775627649872096" lon="-6.491778348851449"><ele>965.0</ele><time>2026-03-26T09:47:04.01Z</time></trkpt><trkpt lat="30.775556715852357" lon="-6.491905686653998"><ele>965.0</ele><time>2026-03-26T09:47:05.01Z</time></trkpt><trkpt lat="30.775483402748286" lon="-6.4920269160514525"><ele>965.0</ele><time>2026-03-26T09:47:06.01Z</time></trkpt><trkpt lat="30.77540602018363" lon="-6.492143352382169"><ele>965.0</ele><time>2026-03-26T09:47:07.01Z</time></trkpt><trkpt lat="30.7753316935412" lon="-6.492264145519483"><ele>963.75</ele><time>2026-03-26T09:47:08.01Z</time></trkpt><trkpt lat="30.775259059154056" lon="-6.492388613842928"><ele>962.5</ele><time>2026-03-26T09:47:09.01Z</time></trkpt><trkpt lat="30.775179928926867" lon="-6.4925078532010625"><ele>961.25</ele><time>2026-03-26T09:47:10.01Z</time></trkpt><trkpt lat="30.775103114771174" lon="-6.492625581704921"><ele>960.0</ele><time>2026-03-26T09:47:11.01Z</time></trkpt><trkpt lat="30.775017506718935" lon="-6.4927443324203775"><ele>961.5</ele><time>2026-03-26T09:47:12.01Z</time></trkpt><trkpt lat="30.77493889556799" lon="-6.492865349001474"><ele>963.0</ele><time>2026-03-26T09:47:13.01Z</time></trkpt><trkpt lat="30.774874902457906" lon="-6.492988423992964"><ele>964.5</ele><time>2026-03-26T09:47:14.01Z</time></trkpt><trkpt lat="30.77483174886372" lon="-6.493118266791449"><ele>966.0</ele><time>2026-03-26T09:47:15.01Z</time></trkpt><trkpt lat="30.77478917862834" lon="-6.493264160486451"><ele>966.0</ele><time>2026-03-26T09:47:16.01Z</time></trkpt><trkpt lat="30.774740274988485" lon="-6.493417456521241"><ele>966.0</ele><time>2026-03-26T09:47:17.01Z</time></trkpt><trkpt lat="30.77469692555194" lon="-6.493568398935383"><ele>966.0</ele><time>2026-03-26T09:47:18.01Z</time></trkpt><trkpt lat="30.774660221701733" lon="-6.49370583141979"><ele>966.0</ele><time>2026-03-26T09:47:19.01Z</time></trkpt><trkpt lat="30.77463392938634" lon="-6.4938315733136465"><ele>965.25</ele><time>2026-03-26T09:47:20.01Z</time></trkpt><trkpt lat="30.77461409905727" lon="-6.493967552896832"><ele>964.5</ele><time>2026-03-26T09:47:21.01Z</time></trkpt><trkpt lat="30.77459818469913" lon="-6.494107291947224"><ele>963.75</ele><time>2026-03-26T09:47:22.01Z</time></trkpt><trkpt lat="30.774561704643144" lon="-6.494237694502522"><ele>963.0</ele><time>2026-03-26T09:47:23.01Z</time></trkpt><trkpt lat="30.77452577337346" lon="-6.49436208605368"><ele>963.0</ele><time>2026-03-26T09:47:24.01Z</time></trkpt><trkpt lat="30.77448256850062" lon="-6.494490278551717"><ele>963.0</ele><time>2026-03-26T09:47:25.01Z</time></trkpt><trkpt lat="30.774449233363523" lon="-6.4946123698096985"><ele>963.0</ele><time>2026-03-26T09:47:26.01Z</time></trkpt><trkpt lat="30.774421812188812" lon="-6.494715579048952"><ele>963.0</ele><time>2026-03-26T09:47:27.01Z</time></trkpt><trkpt lat="30.774399082587298" lon="-6.494808011181116"><ele>963.0</ele><time>2026-03-26T09:47:28.01Z</time></trkpt><trkpt lat="30.774378344865404" lon="-6.4948938417628"><ele>962.8333333333334</ele><time>2026-03-26T09:47:29.01Z</time></trkpt><trkpt lat="30.774372683766007" lon="-6.494972649215736"><ele>962.6666666666667</ele><time>2026-03-26T09:47:30.01Z</time></trkpt><trkpt lat="30.774343538310234" lon="-6.495039901473701"><ele>962.5</ele><time>2026-03-26T09:47:31.01Z</time></trkpt><trkpt lat="30.774280368081634" lon="-6.495123325140923"><ele>962.3333333333334</ele><time>2026-03-26T09:47:33.01Z</time></trkpt><trkpt lat="30.77422703145212" lon="-6.495174757526636"><ele>962.1666666666667</ele><time>2026-03-26T09:47:35.01Z</time></trkpt><trkpt lat="30.77424569357174" lon="-6.4952706120628045"><ele>962.0</ele><time>2026-03-26T09:47:37.01Z</time></trkpt><trkpt lat="30.774268416590008" lon="-6.495348697125196"><ele>965.6</ele><time>2026-03-26T09:47:38.01Z</time></trkpt><trkpt lat="30.774275604096342" lon="-6.49547470183089"><ele>969.2</ele><time>2026-03-26T09:47:40.01Z</time></trkpt><trkpt lat="30.774265984303874" lon="-6.495601453812839"><ele>972.8</ele><time>2026-03-26T09:47:42.01Z</time></trkpt><trkpt lat="30.77426636742263" lon="-6.495687341224211"><ele>976.4</ele><time>2026-03-26T09:47:43.01Z</time></trkpt><trkpt lat="30.774255823746454" lon="-6.495799588408971"><ele>980.0</ele><time>2026-03-26T09:47:44.01Z</time></trkpt><trkpt lat="30.774237148048698" lon="-6.49592389299362"><ele>980.0</ele><time>2026-03-26T09:47:45.01Z</time></trkpt><trkpt lat="30.774207325094864" lon="-6.496068754081975"><ele>980.0</ele><time>2026-03-26T09:47:46.01Z</time></trkpt><trkpt lat="30.774170947651196" lon="-6.49622704541735"><ele>980.0</ele><time>2026-03-26T09:47:47.01Z</time></trkpt><trkpt lat="30.774136141878323" lon="-6.4963980033892526"><ele>980.0</ele><time>2026-03-26T09:47:48.01Z</time></trkpt><trkpt lat="30.774099064770592" lon="-6.496550802616109"><ele>980.0</ele><time>2026-03-26T09:47:49.011Z</time></trkpt><trkpt lat="30.77405370525453" lon="-6.496702482781067"><ele>980.0</ele><time>2026-03-26T09:47:50.011Z</time></trkpt><trkpt lat="30.77398685887193" lon="-6.496905631160358"><ele>980.0</ele><time>2026-03-26T09:47:51.011Z</time></trkpt><trkpt lat="30.77390664583435" lon="-6.49709935461181"><ele>980.0</ele><time>2026-03-26T09:47:52.01Z</time></trkpt><trkpt lat="30.77384637496987" lon="-6.4972467003633705"><ele>980.0</ele><time>2026-03-26T09:47:53.01Z</time></trkpt><trkpt lat="30.773840079711093" lon="-6.49739034542771"><ele>980.0</ele><time>2026-03-26T09:47:54.01Z</time></trkpt><trkpt lat="30.773849467993053" lon="-6.497581161278662"><ele>980.0</ele><time>2026-03-26T09:47:55.01Z</time></trkpt><trkpt lat="30.77381001197501" lon="-6.4977484711354565"><ele>980.0</ele><time>2026-03-26T09:47:56.01Z</time></trkpt><trkpt lat="30.77372168612841" lon="-6.497899714052296"><ele>980.0</ele><time>2026-03-26T09:47:57.01Z</time></trkpt><trkpt lat="30.773598803694348" lon="-6.498037307490875"><ele>980.0</ele><time>2026-03-26T09:47:58.011Z</time></trkpt><trkpt lat="30.77345281232687" lon="-6.498152979339724"><ele>983.4</ele><time>2026-03-26T09:47:59.011Z</time></trkpt><trkpt lat="30.773331076131765" lon="-6.498228779412798"><ele>986.8</ele><time>2026-03-26T09:48:00.011Z</time></trkpt><trkpt lat="30.77323498411565" lon="-6.498290128767283"><ele>990.2</ele><time>2026-03-26T09:48:01.01Z</time></trkpt><trkpt lat="30.77316721806586" lon="-6.498358125697369"><ele>993.6</ele><time>2026-03-26T09:48:02.01Z</time></trkpt><trkpt lat="30.773131527962576" lon="-6.498427292945458"><ele>997.0</ele><time>2026-03-26T09:48:03.01Z</time></trkpt><trkpt lat="30.77312343599925" lon="-6.498518548774877"><ele>997.0</ele><time>2026-03-26T09:48:04.01Z</time></trkpt><trkpt lat="30.773130366666212" lon="-6.498648048627059"><ele>997.0</ele><time>2026-03-26T09:48:05.01Z</time></trkpt><trkpt lat="30.7731169361217" lon="-6.498778978501156"><ele>997.0</ele><time>2026-03-26T09:48:06.01Z</time></trkpt><trkpt lat="30.773098651481646" lon="-6.498862689329424"><ele>997.0</ele><time>2026-03-26T09:48:07.01Z</time></trkpt><trkpt lat="30.773082416943943" lon="-6.498950636807768"><ele>997.0</ele><time>2026-03-26T09:48:08.01Z</time></trkpt><trkpt lat="30.773045320405412" lon="-6.499073789060299"><ele>997.0</ele><time>2026-03-26T09:48:09.01Z</time></trkpt><trkpt lat="30.773012607584466" lon="-6.499233526737107"><ele>997.0</ele><time>2026-03-26T09:48:10.01Z</time></trkpt><trkpt lat="30.77298664779684" lon="-6.499361097703472"><ele>997.0</ele><time>2026-03-26T09:48:11.01Z</time></trkpt><trkpt lat="30.77296220053347" lon="-6.499484613641462"><ele>997.0</ele><time>2026-03-26T09:48:12.01Z</time></trkpt><trkpt lat="30.772943943452688" lon="-6.4996179413274175"><ele>997.0</ele><time>2026-03-26T09:48:13.01Z</time></trkpt><trkpt lat="30.772910692794838" lon="-6.499773821454157"><ele>997.0</ele><time>2026-03-26T09:48:14.01Z</time></trkpt><trkpt lat="30.77285402421833" lon="-6.499930160693489"><ele>997.0</ele><time>2026-03-26T09:48:15.01Z</time></trkpt><trkpt lat="30.77281041733524" lon="-6.500111157099391"><ele>997.0</ele><time>2026-03-26T09:48:16.01Z</time></trkpt><trkpt lat="30.77279130619497" lon="-6.500320565674046"><ele>998.6666666666666</ele><time>2026-03-26T09:48:17.01Z</time></trkpt><trkpt lat="30.772749656179734" lon="-6.500509145637542"><ele>1000.3333333333333</ele><time>2026-03-26T09:48:18.01Z</time></trkpt><trkpt lat="30.772676443936096" lon="-6.500670341201671"><ele>1002.0</ele><time>2026-03-26T09:48:19.01Z</time></trkpt><trkpt lat="30.77260795711687" lon="-6.500817624299845"><ele>1004.6</ele><time>2026-03-26T09:48:20.01Z</time></trkpt><trkpt lat="30.772552484277206" lon="-6.5009284500475895"><ele>1007.2</ele><time>2026-03-26T09:48:21.01Z</time></trkpt><trkpt lat="30.77249598642671" lon="-6.501025565916981"><ele>1009.8</ele><time>2026-03-26T09:48:22.01Z</time></trkpt><trkpt lat="30.772436618536123" lon="-6.5011218462003315"><ele>1012.4</ele><time>2026-03-26T09:48:23.01Z</time></trkpt><trkpt lat="30.772373072038647" lon="-6.501216077393197"><ele>1015.0</ele><time>2026-03-26T09:48:24.01Z</time></trkpt><trkpt lat="30.77231348922696" lon="-6.501302211567232"><ele>1015.6</ele><time>2026-03-26T09:48:25.01Z</time></trkpt><trkpt lat="30.7722554696905" lon="-6.501406979043721"><ele>1016.2</ele><time>2026-03-26T09:48:26.01Z</time></trkpt><trkpt lat="30.772206681942986" lon="-6.501525424903326"><ele>1016.8</ele><time>2026-03-26T09:48:27.01Z</time></trkpt><trkpt lat="30.77217885990029" lon="-6.5016352915074656"><ele>1017.4</ele><time>2026-03-26T09:48:28.01Z</time></trkpt><trkpt lat="30.772167830559834" lon="-6.501734440398749"><ele>1018.0</ele><time>2026-03-26T09:48:29.01Z</time></trkpt><trkpt lat="30.772179488926632" lon="-6.501816018815168"><ele>1017.9999999999999</ele><time>2026-03-26T09:48:30.01Z</time></trkpt><trkpt lat="30.77224025893218" lon="-6.501904981910342"><ele>1018.0</ele><time>2026-03-26T09:48:31.01Z</time></trkpt><trkpt lat="30.772317134311137" lon="-6.501992892936723"><ele>1018.0</ele><time>2026-03-26T09:48:32.01Z</time></trkpt><trkpt lat="30.77237137407914" lon="-6.502045798235503"><ele>1018.0</ele><time>2026-03-26T09:48:33.01Z</time></trkpt><trkpt lat="30.772435609004866" lon="-6.502082749967911"><ele>1017.9999999999999</ele><time>2026-03-26T09:48:34.01Z</time></trkpt><trkpt lat="30.77249277539105" lon="-6.502118994937035"><ele>1018.0</ele><time>2026-03-26T09:48:35.01Z</time></trkpt><trkpt lat="30.772548393213775" lon="-6.502162983333718"><ele>1019.4</ele><time>2026-03-26T09:48:36.01Z</time></trkpt><trkpt lat="30.77261359440201" lon="-6.502272829635892"><ele>1020.8</ele><time>2026-03-26T09:48:38.01Z</time></trkpt><trkpt lat="30.77261502753818" lon="-6.502403235149433"><ele>1022.2</ele><time>2026-03-26T09:48:40.01Z</time></trkpt><trkpt lat="30.77255991186338" lon="-6.502538492682341"><ele>1023.6</ele><time>2026-03-26T09:48:42.01Z</time></trkpt><trkpt lat="30.772491487444423" lon="-6.50260236064125"><ele>1025.0</ele><time>2026-03-26T09:48:43.011Z</time></trkpt><trkpt lat="30.77240453714371" lon="-6.502674882446163"><ele>1025.0</ele><time>2026-03-26T09:48:44.011Z</time></trkpt><trkpt lat="30.772300628325077" lon="-6.502749051694495"><ele>1025.0</ele><time>2026-03-26T09:48:45.011Z</time></trkpt><trkpt lat="30.772191258073033" lon="-6.50283985399921"><ele>1025.0</ele><time>2026-03-26T09:48:46.011Z</time></trkpt><trkpt lat="30.772059235888637" lon="-6.502943056908338"><ele>1025.0</ele><time>2026-03-26T09:48:47.011Z</time></trkpt><trkpt lat="30.771955417754288" lon="-6.50303710865686"><ele>1026.0</ele><time>2026-03-26T09:48:48.011Z</time></trkpt><trkpt lat="30.771900619558668" lon="-6.503116429003045"><ele>1027.0</ele><time>2026-03-26T09:48:49.011Z</time></trkpt><trkpt lat="30.771876904669487" lon="-6.503220415382962"><ele>1028.0</ele><time>2026-03-26T09:48:50.011Z</time></trkpt><trkpt lat="30.771882960193032" lon="-6.503379391690926"><ele>1029.0</ele><time>2026-03-26T09:48:51.011Z</time></trkpt><trkpt lat="30.771879826923474" lon="-6.503551765839543"><ele>1029.6000000000001</ele><time>2026-03-26T09:48:52.011Z</time></trkpt><trkpt lat="30.771851349017382" lon="-6.503681601727125"><ele>1030.2</ele><time>2026-03-26T09:48:53.011Z</time></trkpt><trkpt lat="30.771803596698042" lon="-6.50378032741031"><ele>1030.8000000000002</ele><time>2026-03-26T09:48:54.011Z</time></trkpt><trkpt lat="30.771760526799046" lon="-6.50386918995984"><ele>1031.4</ele><time>2026-03-26T09:48:55.011Z</time></trkpt><trkpt lat="30.771692813159767" lon="-6.503944949963742"><ele>1032.0</ele><time>2026-03-26T09:48:56.011Z</time></trkpt><trkpt lat="30.771603694090064" lon="-6.5040048752488"><ele>1032.0</ele><time>2026-03-26T09:48:57.011Z</time></trkpt><trkpt lat="30.771499101910614" lon="-6.504067041183155"><ele>1032.0</ele><time>2026-03-26T09:48:58.011Z</time></trkpt><trkpt lat="30.771383722474926" lon="-6.504123855429108"><ele>1032.0</ele><time>2026-03-26T09:48:59.011Z</time></trkpt><trkpt lat="30.77128219381835" lon="-6.504164982295922"><ele>1032.0</ele><time>2026-03-26T09:49:00.011Z</time></trkpt><trkpt lat="30.77117969708014" lon="-6.504211549158891"><ele>1032.0</ele><time>2026-03-26T09:49:01.011Z</time></trkpt><trkpt lat="30.771088340650774" lon="-6.50423453937532"><ele>1032.0</ele><time>2026-03-26T09:49:02.011Z</time></trkpt><trkpt lat="30.771007435601366" lon="-6.5042466375628125"><ele>1032.0</ele><time>2026-03-26T09:49:03.011Z</time></trkpt><trkpt lat="30.77094383258585" lon="-6.504287060999019"><ele>1032.0</ele><time>2026-03-26T09:49:04.011Z</time></trkpt><trkpt lat="30.770900286100147" lon="-6.504360547894955"><ele>1032.0</ele><time>2026-03-26T09:49:05.011Z</time></trkpt><trkpt lat="30.770880583577956" lon="-6.504466799760833"><ele>1032.0</ele><time>2026-03-26T09:49:06.011Z</time></trkpt><trkpt lat="30.77085208337806" lon="-6.504601836009633"><ele>1032.0</ele><time>2026-03-26T09:49:07.011Z</time></trkpt><trkpt lat="30.770834626218377" lon="-6.504736030554766"><ele>1032.0</ele><time>2026-03-26T09:49:08.011Z</time></trkpt><trkpt lat="30.770825563317306" lon="-6.504856286051601"><ele>1032.0</ele><time>2026-03-26T09:49:09.011Z</time></trkpt><trkpt lat="30.77080883202527" lon="-6.504975725387219"><ele>1032.0</ele><time>2026-03-26T09:49:10.011Z</time></trkpt><trkpt lat="30.77077840927577" lon="-6.505095931944132"><ele>1032.0</ele><time>2026-03-26T09:49:11.011Z</time></trkpt><trkpt lat="30.77073508257928" lon="-6.505229720604621"><ele>1032.0</ele><time>2026-03-26T09:49:12.011Z</time></trkpt><trkpt lat="30.77067047269046" lon="-6.505362735010148"><ele>1032.0</ele><time>2026-03-26T09:49:13.011Z</time></trkpt><trkpt lat="30.770613645673293" lon="-6.505501512250415"><ele>1032.0</ele><time>2026-03-26T09:49:14.011Z</time></trkpt><trkpt lat="30.770565369198682" lon="-6.505652277418375"><ele>1032.0</ele><time>2026-03-26T09:49:15.011Z</time></trkpt><trkpt lat="30.770476407767948" lon="-6.505798175527536"><ele>1031.6666666666667</ele><time>2026-03-26T09:49:16.011Z</time></trkpt><trkpt lat="30.770342512016118" lon="-6.50593182040879"><ele>1031.3333333333335</ele><time>2026-03-26T09:49:17.011Z</time></trkpt><trkpt lat="30.770211997078718" lon="-6.506041193284375"><ele>1031.0</ele><time>2026-03-26T09:49:18.011Z</time></trkpt><trkpt lat="30.770117243649953" lon="-6.506125245025718"><ele>1033.6</ele><time>2026-03-26T09:49:19.011Z</time></trkpt><trkpt lat="30.770044630986067" lon="-6.506216834095395"><ele>1036.1999999999998</ele><time>2026-03-26T09:49:20.011Z</time></trkpt><trkpt lat="30.76998963492344" lon="-6.506329218232596"><ele>1038.8000000000002</ele><time>2026-03-26T09:49:21.011Z</time></trkpt><trkpt lat="30.769969864852186" lon="-6.506462033385841"><ele>1041.4</ele><time>2026-03-26T09:49:22.011Z</time></trkpt><trkpt lat="30.769970533234837" lon="-6.506560093030498"><ele>1044.0</ele><time>2026-03-26T09:49:23.011Z</time></trkpt><trkpt lat="30.769979127500854" lon="-6.506636619956955"><ele>1044.2</ele><time>2026-03-26T09:49:24.011Z</time></trkpt><trkpt lat="30.770020509407722" lon="-6.506731931627044"><ele>1044.4</ele><time>2026-03-26T09:49:26.011Z</time></trkpt><trkpt lat="30.770080854035495" lon="-6.506800778028997"><ele>1044.6</ele><time>2026-03-26T09:49:28.011Z</time></trkpt><trkpt lat="30.770198808748525" lon="-6.506890305665255"><ele>1044.8</ele><time>2026-03-26T09:49:30.011Z</time></trkpt><trkpt lat="30.770284430227452" lon="-6.506967682250587"><ele>1045.0</ele><time>2026-03-26T09:49:31.011Z</time></trkpt><trkpt lat="30.770341476766585" lon="-6.507090812920309"><ele>1047.0</ele><time>2026-03-26T09:49:32.011Z</time></trkpt><trkpt lat="30.770367682133603" lon="-6.507195342018723"><ele>1049.0</ele><time>2026-03-26T09:49:33.011Z</time></trkpt><trkpt lat="30.770333752882202" lon="-6.507321049734625"><ele>1051.0</ele><time>2026-03-26T09:49:34.011Z</time></trkpt><trkpt lat="30.77024729740679" lon="-6.507432294449995"><ele>1053.0</ele><time>2026-03-26T09:49:35.011Z</time></trkpt><trkpt lat="30.77013246029732" lon="-6.5075725194798375"><ele>1053.0</ele><time>2026-03-26T09:49:36.011Z</time></trkpt><trkpt lat="30.77003779015784" lon="-6.507739477914311"><ele>1053.0</ele><time>2026-03-26T09:49:37.011Z</time></trkpt><trkpt lat="30.76999282032158" lon="-6.507906061199869"><ele>1053.0</ele><time>2026-03-26T09:49:38.011Z</time></trkpt><trkpt lat="30.76998070345481" lon="-6.508032722232772"><ele>1053.0</ele><time>2026-03-26T09:49:39.011Z</time></trkpt><trkpt lat="30.770005802449354" lon="-6.508142288896586"><ele>1054.0</ele><time>2026-03-26T09:49:40.011Z</time></trkpt><trkpt lat="30.770066313502863" lon="-6.508272029918198"><ele>1055.0</ele><time>2026-03-26T09:49:41.011Z</time></trkpt><trkpt lat="30.770126461869243" lon="-6.508445927778062"><ele>1056.0</ele><time>2026-03-26T09:49:42.011Z</time></trkpt><trkpt lat="30.770160708458477" lon="-6.508647645880752"><ele>1053.5</ele><time>2026-03-26T09:49:43.011Z</time></trkpt><trkpt lat="30.77019983297837" lon="-6.50883513408718"><ele>1051.0</ele><time>2026-03-26T09:49:44.011Z</time></trkpt><trkpt lat="30.770259637621255" lon="-6.508980263246104"><ele>1048.5</ele><time>2026-03-26T09:49:45.011Z</time></trkpt><trkpt lat="30.770340605236328" lon="-6.509111264245896"><ele>1046.0</ele><time>2026-03-26T09:49:46.011Z</time></trkpt><trkpt lat="30.770405864251686" lon="-6.509232665855135"><ele>1046.0</ele><time>2026-03-26T09:49:47.011Z</time></trkpt><trkpt lat="30.77044194398024" lon="-6.509341638551705"><ele>1046.0</ele><time>2026-03-26T09:49:48.011Z</time></trkpt><trkpt lat="30.770458823108942" lon="-6.509459669457969"><ele>1046.0</ele><time>2026-03-26T09:49:49.011Z</time></trkpt><trkpt lat="30.770470473207876" lon="-6.509587987695825"><ele>1046.0</ele><time>2026-03-26T09:49:50.011Z</time></trkpt><trkpt lat="30.770483538329085" lon="-6.509730954239882"><ele>1046.0</ele><time>2026-03-26T09:49:51.011Z</time></trkpt><trkpt lat="30.77049443771768" lon="-6.509883963908129"><ele>1047.0</ele><time>2026-03-26T09:49:52.011Z</time></trkpt><trkpt lat="30.770492413305398" lon="-6.5100415460242695"><ele>1048.0</ele><time>2026-03-26T09:49:53.011Z</time></trkpt><trkpt lat="30.770489734754506" lon="-6.51021276171832"><ele>1049.0</ele><time>2026-03-26T09:49:54.011Z</time></trkpt><trkpt lat="30.770470551085527" lon="-6.510390925265819"><ele>1050.0</ele><time>2026-03-26T09:49:55.011Z</time></trkpt><trkpt lat="30.77043425058052" lon="-6.510563944447406"><ele>1050.0</ele><time>2026-03-26T09:49:56.011Z</time></trkpt><trkpt lat="30.77038539101024" lon="-6.5107081050012665"><ele>1050.0</ele><time>2026-03-26T09:49:57.011Z</time></trkpt><trkpt lat="30.77032234453944" lon="-6.510836781700043"><ele>1050.0</ele><time>2026-03-26T09:49:58.011Z</time></trkpt><trkpt lat="30.77026845304965" lon="-6.510969672788512"><ele>1050.0</ele><time>2026-03-26T09:49:59.011Z</time></trkpt><trkpt lat="30.77024855638521" lon="-6.511100514212318"><ele>1050.0</ele><time>2026-03-26T09:50:00.011Z</time></trkpt><trkpt lat="30.770249726571265" lon="-6.511220500648171"><ele>1050.0</ele><time>2026-03-26T09:50:01.011Z</time></trkpt><trkpt lat="30.770259234424767" lon="-6.51134818938039"><ele>1050.0</ele><time>2026-03-26T09:50:02.01Z</time></trkpt><trkpt lat="30.77028039730168" lon="-6.511477706533387"><ele>1050.0</ele><time>2026-03-26T09:50:03.01Z</time></trkpt><trkpt lat="30.770301793939048" lon="-6.511609733819758"><ele>1050.0</ele><time>2026-03-26T09:50:04.01Z</time></trkpt><trkpt lat="30.7703188717066" lon="-6.511752521456285"><ele>1049.75</ele><time>2026-03-26T09:50:05.011Z</time></trkpt><trkpt lat="30.770327498150735" lon="-6.511905960717986"><ele>1049.5</ele><time>2026-03-26T09:50:06.011Z</time></trkpt><trkpt lat="30.77031375032541" lon="-6.512077908336942"><ele>1049.25</ele><time>2026-03-26T09:50:07.01Z</time></trkpt><trkpt lat="30.770304213782065" lon="-6.512247067873523"><ele>1049.0</ele><time>2026-03-26T09:50:08.01Z</time></trkpt><trkpt lat="30.770284915221186" lon="-6.5124119024970115"><ele>1050.5</ele><time>2026-03-26T09:50:09.01Z</time></trkpt><trkpt lat="30.770257336815824" lon="-6.512574033259818"><ele>1052.0</ele><time>2026-03-26T09:50:10.01Z</time></trkpt><trkpt lat="30.770275332175775" lon="-6.5127337180034095"><ele>1053.5</ele><time>2026-03-26T09:50:11.01Z</time></trkpt><trkpt lat="30.77027393249086" lon="-6.5129051351505485"><ele>1055.0</ele><time>2026-03-26T09:50:12.01Z</time></trkpt><trkpt lat="30.770256881104547" lon="-6.5130682320540405"><ele>1056.75</ele><time>2026-03-26T09:50:13.01Z</time></trkpt><trkpt lat="30.77023106503461" lon="-6.513233211186928"><ele>1058.5</ele><time>2026-03-26T09:50:14.01Z</time></trkpt><trkpt lat="30.770226450798486" lon="-6.513399003408219"><ele>1060.25</ele><time>2026-03-26T09:50:15.01Z</time></trkpt><trkpt lat="30.770225385827192" lon="-6.513553930361481"><ele>1062.0</ele><time>2026-03-26T09:50:16.01Z</time></trkpt><trkpt lat="30.77022699540659" lon="-6.51370357797486"><ele>1064.75</ele><time>2026-03-26T09:50:17.01Z</time></trkpt><trkpt lat="30.770213532988006" lon="-6.513845021533927"><ele>1067.5</ele><time>2026-03-26T09:50:18.01Z</time></trkpt><trkpt lat="30.770243125886335" lon="-6.513994028419137"><ele>1070.25</ele><time>2026-03-26T09:50:19.01Z</time></trkpt><trkpt lat="30.770300924489803" lon="-6.514152216343456"><ele>1073.0</ele><time>2026-03-26T09:50:20.01Z</time></trkpt><trkpt lat="30.770367795944658" lon="-6.514304494227917"><ele>1073.0</ele><time>2026-03-26T09:50:21.01Z</time></trkpt><trkpt lat="30.770462471051847" lon="-6.5144030600318334"><ele>1073.0</ele><time>2026-03-26T09:50:22.01Z</time></trkpt><trkpt lat="30.770547927805655" lon="-6.514450534859455"><ele>1073.0</ele><time>2026-03-26T09:50:23.01Z</time></trkpt><trkpt lat="30.770644597238157" lon="-6.514494664545844"><ele>1073.0</ele><time>2026-03-26T09:50:24.01Z</time></trkpt><trkpt lat="30.77071076745889" lon="-6.514553153354366"><ele>1073.0</ele><time>2026-03-26T09:50:25.01Z</time></trkpt><trkpt lat="30.77075929937413" lon="-6.514655264755442"><ele>1077.0</ele><time>2026-03-26T09:50:26.01Z</time></trkpt><trkpt lat="30.770765206112575" lon="-6.51480427976114"><ele>1081.0</ele><time>2026-03-26T09:50:27.01Z</time></trkpt><trkpt lat="30.77079908501099" lon="-6.514981936044184"><ele>1085.0</ele><time>2026-03-26T09:50:28.01Z</time></trkpt><trkpt lat="30.770853798758818" lon="-6.515169866696223"><ele>1085.0</ele><time>2026-03-26T09:50:29.01Z</time></trkpt><trkpt lat="30.770868395071528" lon="-6.51534258196613"><ele>1085.0</ele><time>2026-03-26T09:50:30.01Z</time></trkpt><trkpt lat="30.77085607521694" lon="-6.5154586734555"><ele>1085.0</ele><time>2026-03-26T09:50:31.01Z</time></trkpt><trkpt lat="30.770851084225356" lon="-6.5155572403121065"><ele>1085.0</ele><time>2026-03-26T09:50:32.01Z</time></trkpt><trkpt lat="30.77085883216002" lon="-6.51566455757944"><ele>1085.0</ele><time>2026-03-26T09:50:33.01Z</time></trkpt><trkpt lat="30.770855461743544" lon="-6.51579307680079"><ele>1087.5</ele><time>2026-03-26T09:50:34.01Z</time></trkpt><trkpt lat="30.770841136191383" lon="-6.51593172764736"><ele>1090.0</ele><time>2026-03-26T09:50:35.01Z</time></trkpt><trkpt lat="30.77083700420284" lon="-6.51608327183514"><ele>1092.5</ele><time>2026-03-26T09:50:36.01Z</time></trkpt><trkpt lat="30.770821708406014" lon="-6.516223461429327"><ele>1095.0</ele><time>2026-03-26T09:50:37.01Z</time></trkpt><trkpt lat="30.770815524097525" lon="-6.516361375266543"><ele>1096.0</ele><time>2026-03-26T09:50:38.01Z</time></trkpt><trkpt lat="30.770824806402867" lon="-6.516494969748462"><ele>1097.0</ele><time>2026-03-26T09:50:39.01Z</time></trkpt><trkpt lat="30.77082323752395" lon="-6.516637106702718"><ele>1098.0</ele><time>2026-03-26T09:50:40.01Z</time></trkpt><trkpt lat="30.77080131884843" lon="-6.516775172623642"><ele>1099.0</ele><time>2026-03-26T09:50:41.01Z</time></trkpt><trkpt lat="30.770747319577893" lon="-6.5169206444217505"><ele>1099.0</ele><time>2026-03-26T09:50:42.01Z</time></trkpt><trkpt lat="30.770690877742688" lon="-6.5170555808320545"><ele>1099.0</ele><time>2026-03-26T09:50:43.01Z</time></trkpt><trkpt lat="30.77062741542912" lon="-6.517170659335687"><ele>1099.0</ele><time>2026-03-26T09:50:44.01Z</time></trkpt><trkpt lat="30.770571807707835" lon="-6.517296236027437"><ele>1099.0</ele><time>2026-03-26T09:50:45.01Z</time></trkpt><trkpt lat="30.770530037890243" lon="-6.517429315398847"><ele>1099.0</ele><time>2026-03-26T09:50:46.01Z</time></trkpt><trkpt lat="30.770485649342437" lon="-6.517560808364456"><ele>1099.0</ele><time>2026-03-26T09:50:47.01Z</time></trkpt><trkpt lat="30.770437370340534" lon="-6.51769949735882"><ele>1099.0</ele><time>2026-03-26T09:50:48.01Z</time></trkpt><trkpt lat="30.770394434271882" lon="-6.51784046827498"><ele>1099.0</ele><time>2026-03-26T09:50:49.01Z</time></trkpt><trkpt lat="30.77036205532391" lon="-6.517987740338204"><ele>1101.0</ele><time>2026-03-26T09:50:50.01Z</time></trkpt><trkpt lat="30.77034002469096" lon="-6.5181407699593885"><ele>1103.0</ele><time>2026-03-26T09:50:51.01Z</time></trkpt><trkpt lat="30.770308701676154" lon="-6.518299256339229"><ele>1105.0</ele><time>2026-03-26T09:50:52.01Z</time></trkpt><trkpt lat="30.770274263959312" lon="-6.518467793757011"><ele>1107.0</ele><time>2026-03-26T09:50:53.01Z</time></trkpt><trkpt lat="30.770237120046477" lon="-6.518627802730253"><ele>1108.8</ele><time>2026-03-26T09:50:54.01Z</time></trkpt><trkpt lat="30.770208104134472" lon="-6.518741542392116"><ele>1110.6</ele><time>2026-03-26T09:50:55.01Z</time></trkpt><trkpt lat="30.770146834641555" lon="-6.518843850569069"><ele>1112.3999999999999</ele><time>2026-03-26T09:50:56.01Z</time></trkpt><trkpt lat="30.770073441573977" lon="-6.518943762754635"><ele>1114.2</ele><time>2026-03-26T09:50:57.01Z</time></trkpt><trkpt lat="30.77001181706464" lon="-6.51904433779196"><ele>1116.0</ele><time>2026-03-26T09:50:58.01Z</time></trkpt><trkpt lat="30.76998164299832" lon="-6.519146364051927"><ele>1116.2</ele><time>2026-03-26T09:50:59.01Z</time></trkpt><trkpt lat="30.769975569268897" lon="-6.519253020610239"><ele>1116.3999999999999</ele><time>2026-03-26T09:51:00.01Z</time></trkpt><trkpt lat="30.769992098277342" lon="-6.519364154463926"><ele>1116.6</ele><time>2026-03-26T09:51:01.01Z</time></trkpt><trkpt lat="30.77004762921571" lon="-6.519479649423913"><ele>1116.8</ele><time>2026-03-26T09:51:02.01Z</time></trkpt><trkpt lat="30.770107797406023" lon="-6.519586434190933"><ele>1117.0</ele><time>2026-03-26T09:51:03.01Z</time></trkpt><trkpt lat="30.770145969305833" lon="-6.519696232090636"><ele>1119.0</ele><time>2026-03-26T09:51:04.01Z</time></trkpt><trkpt lat="30.7701815236977" lon="-6.519805475028784"><ele>1121.0</ele><time>2026-03-26T09:51:05.01Z</time></trkpt><trkpt lat="30.77023582740753" lon="-6.51992874708909"><ele>1123.0</ele><time>2026-03-26T09:51:06.01Z</time></trkpt><trkpt lat="30.770272981960492" lon="-6.5200712959893705"><ele>1125.0</ele><time>2026-03-26T09:51:07.01Z</time></trkpt><trkpt lat="30.77032815630752" lon="-6.520233895985335"><ele>1125.0</ele><time>2026-03-26T09:51:08.01Z</time></trkpt><trkpt lat="30.770379553576056" lon="-6.520399318587961"><ele>1125.0</ele><time>2026-03-26T09:51:09.01Z</time></trkpt><trkpt lat="30.770449365739413" lon="-6.520531325943823"><ele>1125.0</ele><time>2026-03-26T09:51:10.01Z</time></trkpt><trkpt lat="30.770491793527672" lon="-6.520627100057523"><ele>1125.0</ele><time>2026-03-26T09:51:11.01Z</time></trkpt><trkpt lat="30.770501885313074" lon="-6.52074645149362"><ele>1124.8333333333333</ele><time>2026-03-26T09:51:13.01Z</time></trkpt><trkpt lat="30.770498700230903" lon="-6.520834439268367"><ele>1124.6666666666667</ele><time>2026-03-26T09:51:15.01Z</time></trkpt><trkpt lat="30.770488733272312" lon="-6.52090918989121"><ele>1124.5</ele><time>2026-03-26T09:51:17.01Z</time></trkpt><trkpt lat="30.770537832122383" lon="-6.520976691876743"><ele>1124.3333333333335</ele><time>2026-03-26T09:51:22.01Z</time></trkpt><trkpt lat="30.770614812519305" lon="-6.521004946044495"><ele>1124.1666666666667</ele><time>2026-03-26T09:51:25.01Z</time></trkpt><trkpt lat="30.770677881283593" lon="-6.5210627369642"><ele>1124.0</ele><time>2026-03-26T09:51:27.01Z</time></trkpt><trkpt lat="30.770744335392703" lon="-6.521121883988252"><ele>1124.0</ele><time>2026-03-26T09:51:29.01Z</time></trkpt><trkpt lat="30.7708121078264" lon="-6.521174866085042"><ele>1124.0</ele><time>2026-03-26T09:51:31.01Z</time></trkpt><trkpt lat="30.770879970562333" lon="-6.521223448377062"><ele>1124.0</ele><time>2026-03-26T09:51:33.01Z</time></trkpt><trkpt lat="30.770951769780517" lon="-6.521261744255115"><ele>1124.0</ele><time>2026-03-26T09:51:35.01Z</time></trkpt><trkpt lat="30.771058666240375" lon="-6.521317406825081"><ele>1124.0</ele><time>2026-03-26T09:51:37.01Z</time></trkpt><trkpt lat="30.771136276062872" lon="-6.52133454346416"><ele>1124.0</ele><time>2026-03-26T09:51:38.01Z</time></trkpt><trkpt lat="30.771207507404274" lon="-6.521332296036284"><ele>1123.5</ele><time>2026-03-26T09:51:39.01Z</time></trkpt><trkpt lat="30.771271427196325" lon="-6.521322289671101"><ele>1123.0</ele><time>2026-03-26T09:51:40.01Z</time></trkpt><trkpt lat="30.771387309347492" lon="-6.521306339058184"><ele>1122.5</ele><time>2026-03-26T09:51:42.01Z</time></trkpt><trkpt lat="30.771449701826263" lon="-6.5212943273157356"><ele>1122.0</ele><time>2026-03-26T09:51:43.01Z</time></trkpt><trkpt lat="30.771556593114045" lon="-6.521280152455552"><ele>1121.5</ele><time>2026-03-26T09:51:45.01Z</time></trkpt><trkpt lat="30.771632883184175" lon="-6.521293257340314"><ele>1121.0</ele><time>2026-03-26T09:51:48.01Z</time></trkpt><trkpt lat="30.771694226580635" lon="-6.5213127025997855"><ele>1121.0</ele><time>2026-03-26T09:51:53.01Z</time></trkpt><trkpt lat="30.77175020791908" lon="-6.5213679325035026"><ele>1121.0</ele><time>2026-03-26T09:52:52.01Z</time></trkpt><trkpt lat="30.77179757226141" lon="-6.521458245329838"><ele>1121.0</ele><time>2026-03-26T09:52:55.01Z</time></trkpt><trkpt lat="30.77183610937788" lon="-6.521543318806433"><ele>1121.0</ele><time>2026-03-26T09:52:57.01Z</time></trkpt><trkpt lat="30.771865270757004" lon="-6.521649117792102"><ele>1121.0</ele><time>2026-03-26T09:53:00.01Z</time></trkpt><trkpt lat="30.771886943792946" lon="-6.521743912524087"><ele>1121.0</ele><time>2026-03-26T09:53:01.01Z</time></trkpt><trkpt lat="30.771905580850646" lon="-6.521847764348179"><ele>1121.3999999999999</ele><time>2026-03-26T09:53:02.01Z</time></trkpt><trkpt lat="30.771922352193467" lon="-6.521942469023107"><ele>1121.8</ele><time>2026-03-26T09:53:03.01Z</time></trkpt><trkpt lat="30.771942501643093" lon="-6.5220441389076225"><ele>1122.1999999999998</ele><time>2026-03-26T09:53:04.01Z</time></trkpt><trkpt lat="30.771965211916182" lon="-6.522149649984089"><ele>1122.6</ele><time>2026-03-26T09:53:05.01Z</time></trkpt><trkpt lat="30.771979250297754" lon="-6.522259432001485"><ele>1123.0</ele><time>2026-03-26T09:53:06.01Z</time></trkpt><trkpt lat="30.772004164915142" lon="-6.522365352229411"><ele>1118.6</ele><time>2026-03-26T09:53:07.01Z</time></trkpt><trkpt lat="30.772019167689805" lon="-6.52248163872284"><ele>1114.1999999999998</ele><time>2026-03-26T09:53:08.01Z</time></trkpt><trkpt lat="30.772029235945684" lon="-6.522597781886022"><ele>1109.8</ele><time>2026-03-26T09:53:09.01Z</time></trkpt><trkpt lat="30.772046806238748" lon="-6.522714834397115"><ele>1105.3999999999999</ele><time>2026-03-26T09:53:10.01Z</time></trkpt><trkpt lat="30.77208429924494" lon="-6.5228316795443195"><ele>1101.0</ele><time>2026-03-26T09:53:11.01Z</time></trkpt><trkpt lat="30.77208277150117" lon="-6.522959895231959"><ele>1099.5</ele><time>2026-03-26T09:53:12.01Z</time></trkpt><trkpt lat="30.77209431222217" lon="-6.523082133496188"><ele>1098.0</ele><time>2026-03-26T09:53:13.01Z</time></trkpt><trkpt lat="30.772126670927214" lon="-6.5231807161577"><ele>1096.5</ele><time>2026-03-26T09:53:14.01Z</time></trkpt><trkpt lat="30.77214859228256" lon="-6.523267284294741"><ele>1095.0</ele><time>2026-03-26T09:53:15.01Z</time></trkpt><trkpt lat="30.772215299934544" lon="-6.523317853081654"><ele>1093.5</ele><time>2026-03-26T09:53:16.01Z</time></trkpt><trkpt lat="30.77230409576079" lon="-6.523318449497355"><ele>1092.0</ele><time>2026-03-26T09:53:17.01Z</time></trkpt><trkpt lat="30.772408843500624" lon="-6.523259298757507"><ele>1092.0</ele><time>2026-03-26T09:53:18.01Z</time></trkpt><trkpt lat="30.772519475381586" lon="-6.523175837805794"><ele>1092.0</ele><time>2026-03-26T09:53:19.01Z</time></trkpt><trkpt lat="30.7726650452818" lon="-6.523076807726569"><ele>1092.0</ele><time>2026-03-26T09:53:20.01Z</time></trkpt><trkpt lat="30.772786366466015" lon="-6.523004473396846"><ele>1092.0</ele><time>2026-03-26T09:53:21.01Z</time></trkpt><trkpt lat="30.77288233112491" lon="-6.5229623571148325"><ele>1091.2</ele><time>2026-03-26T09:53:22.01Z</time></trkpt><trkpt lat="30.772969512898204" lon="-6.522949915542987"><ele>1090.4</ele><time>2026-03-26T09:53:23.01Z</time></trkpt><trkpt lat="30.773058962198423" lon="-6.522980945901402"><ele>1089.6</ele><time>2026-03-26T09:53:24.01Z</time></trkpt><trkpt lat="30.773146044497814" lon="-6.523049235128629"><ele>1088.8</ele><time>2026-03-26T09:53:25.01Z</time></trkpt><trkpt lat="30.773219604456898" lon="-6.5231629119987895"><ele>1088.0</ele><time>2026-03-26T09:53:26.01Z</time></trkpt><trkpt lat="30.7732889246981" lon="-6.523301298336738"><ele>1088.0</ele><time>2026-03-26T09:53:27.01Z</time></trkpt><trkpt lat="30.773361084837436" lon="-6.523445192852752"><ele>1088.0</ele><time>2026-03-26T09:53:28.01Z</time></trkpt><trkpt lat="30.773427707974413" lon="-6.523578342139191"><ele>1088.0</ele><time>2026-03-26T09:53:29.01Z</time></trkpt><trkpt lat="30.773486243624248" lon="-6.523711130514131"><ele>1088.0</ele><time>2026-03-26T09:53:30.01Z</time></trkpt><trkpt lat="30.773551843785764" lon="-6.523848025587232"><ele>1086.5</ele><time>2026-03-26T09:53:31.01Z</time></trkpt><trkpt lat="30.77360754752127" lon="-6.523982490981207"><ele>1085.0</ele><time>2026-03-26T09:53:32.01Z</time></trkpt><trkpt lat="30.773658337599596" lon="-6.524118744788782"><ele>1083.5</ele><time>2026-03-26T09:53:33.01Z</time></trkpt><trkpt lat="30.77370860335722" lon="-6.52425972297984"><ele>1082.0</ele><time>2026-03-26T09:53:34.01Z</time></trkpt><trkpt lat="30.773757428109228" lon="-6.524417350680785"><ele>1081.0</ele><time>2026-03-26T09:53:35.01Z</time></trkpt><trkpt lat="30.773822815310574" lon="-6.5245674449286275"><ele>1080.0</ele><time>2026-03-26T09:53:36.01Z</time></trkpt><trkpt lat="30.773874008899114" lon="-6.524719704828501"><ele>1079.0</ele><time>2026-03-26T09:53:37.01Z</time></trkpt><trkpt lat="30.773901177975944" lon="-6.5248839592012695"><ele>1078.0</ele><time>2026-03-26T09:53:38.01Z</time></trkpt><trkpt lat="30.773907384003543" lon="-6.5250490202854055"><ele>1078.0</ele><time>2026-03-26T09:53:39.01Z</time></trkpt><trkpt lat="30.773886611181574" lon="-6.52520850493212"><ele>1078.0</ele><time>2026-03-26T09:53:40.01Z</time></trkpt><trkpt lat="30.77388661539099" lon="-6.525362536358735"><ele>1078.0</ele><time>2026-03-26T09:53:41.01Z</time></trkpt><trkpt lat="30.773901120102057" lon="-6.525496881925375"><ele>1078.0</ele><time>2026-03-26T09:53:42.01Z</time></trkpt><trkpt lat="30.77394688575631" lon="-6.525603833790118"><ele>1078.3333333333333</ele><time>2026-03-26T09:53:43.01Z</time></trkpt><trkpt lat="30.773974413466597" lon="-6.525704113760857"><ele>1078.6666666666665</ele><time>2026-03-26T09:53:44.01Z</time></trkpt><trkpt lat="30.77402493013272" lon="-6.525755815794277"><ele>1079.0</ele><time>2026-03-26T09:53:45.01Z</time></trkpt><trkpt lat="30.77409462655653" lon="-6.52578236922977"><ele>1079.3333333333333</ele><time>2026-03-26T09:53:46.01Z</time></trkpt><trkpt lat="30.77415817206501" lon="-6.525760427977063"><ele>1079.6666666666667</ele><time>2026-03-26T09:53:47.01Z</time></trkpt><trkpt lat="30.774204875152734" lon="-6.5256000376288865"><ele>1080.0</ele><time>2026-03-26T09:53:49.01Z</time></trkpt><trkpt lat="30.77419971441113" lon="-6.525464716402597"><ele>1079.3333333333333</ele><time>2026-03-26T09:53:50.01Z</time></trkpt><trkpt lat="30.774207488156456" lon="-6.525295177760172"><ele>1078.6666666666665</ele><time>2026-03-26T09:53:51.01Z</time></trkpt><trkpt lat="30.774221597873893" lon="-6.5250772497603755"><ele>1078.0</ele><time>2026-03-26T09:53:52.01Z</time></trkpt><trkpt lat="30.77423652960977" lon="-6.5248273519459605"><ele>1078.0</ele><time>2026-03-26T09:53:53.01Z</time></trkpt><trkpt lat="30.774234813074738" lon="-6.524607548473744"><ele>1078.0</ele><time>2026-03-26T09:53:54.01Z</time></trkpt><trkpt lat="30.77429593380943" lon="-6.524401230173134"><ele>1078.0</ele><time>2026-03-26T09:53:55.01Z</time></trkpt><trkpt lat="30.774335027700385" lon="-6.524210648561621"><ele>1071.3333333333333</ele><time>2026-03-26T09:53:56.01Z</time></trkpt><trkpt lat="30.774375270097657" lon="-6.524036838894689"><ele>1064.6666666666667</ele><time>2026-03-26T09:53:57.01Z</time></trkpt><trkpt lat="30.774381959427743" lon="-6.52385741238117"><ele>1058.0</ele><time>2026-03-26T09:53:58.01Z</time></trkpt><trkpt lat="30.77442780680543" lon="-6.523688293718791"><ele>1058.0</ele><time>2026-03-26T09:53:59.01Z</time></trkpt><trkpt lat="30.774482547585063" lon="-6.523539576943517"><ele>1058.0</ele><time>2026-03-26T09:54:00.01Z</time></trkpt><trkpt lat="30.774508591657046" lon="-6.523391593342513"><ele>1058.0</ele><time>2026-03-26T09:54:01.01Z</time></trkpt><trkpt lat="30.77455402076044" lon="-6.523256011109054"><ele>1058.0</ele><time>2026-03-26T09:54:02.01Z</time></trkpt><trkpt lat="30.774646298089092" lon="-6.523101104958092"><ele>1058.0</ele><time>2026-03-26T09:54:03.01Z</time></trkpt><trkpt lat="30.77475158290073" lon="-6.523002336765297"><ele>1058.0</ele><time>2026-03-26T09:54:04.01Z</time></trkpt><trkpt lat="30.774881847296207" lon="-6.522953302245163"><ele>1058.0</ele><time>2026-03-26T09:54:05.01Z</time></trkpt><trkpt lat="30.774977278812273" lon="-6.52291463239337"><ele>1058.0</ele><time>2026-03-26T09:54:06.01Z</time></trkpt><trkpt lat="30.775069392916503" lon="-6.522884865333134"><ele>1057.4</ele><time>2026-03-26T09:54:07.011Z</time></trkpt><trkpt lat="30.77514922775747" lon="-6.522836134918711"><ele>1056.8</ele><time>2026-03-26T09:54:08.011Z</time></trkpt><trkpt lat="30.77523924239037" lon="-6.5228086942992425"><ele>1056.2</ele><time>2026-03-26T09:54:09.011Z</time></trkpt><trkpt lat="30.77534966797126" lon="-6.522773557120914"><ele>1055.6</ele><time>2026-03-26T09:54:10.011Z</time></trkpt><trkpt lat="30.77543350513766" lon="-6.522715517418325"><ele>1055.0</ele><time>2026-03-26T09:54:11.01Z</time></trkpt><trkpt lat="30.775506950284928" lon="-6.522635304653911"><ele>1055.0</ele><time>2026-03-26T09:54:12.01Z</time></trkpt><trkpt lat="30.775531477219687" lon="-6.522512564280961"><ele>1055.0</ele><time>2026-03-26T09:54:13.011Z</time></trkpt><trkpt lat="30.77559290409667" lon="-6.522404714212169"><ele>1055.0</ele><time>2026-03-26T09:54:14.011Z</time></trkpt><trkpt lat="30.775645053187933" lon="-6.522307343303424"><ele>1055.0</ele><time>2026-03-26T09:54:15.011Z</time></trkpt><trkpt lat="30.77569172290753" lon="-6.522218002111339"><ele>1055.0</ele><time>2026-03-26T09:54:16.011Z</time></trkpt><trkpt lat="30.77579203921895" lon="-6.522221720371757"><ele>1055.0</ele><time>2026-03-26T09:54:17.011Z</time></trkpt><trkpt lat="30.775865131710727" lon="-6.522234629679582"><ele>1055.0</ele><time>2026-03-26T09:54:18.011Z</time></trkpt><trkpt lat="30.77594021788401" lon="-6.522263223554139"><ele>1055.0</ele><time>2026-03-26T09:54:19.011Z</time></trkpt><trkpt lat="30.776007767182183" lon="-6.522311365913464"><ele>1055.0</ele><time>2026-03-26T09:54:20.011Z</time></trkpt><trkpt lat="30.77607361616465" lon="-6.522387184814692"><ele>1055.0</ele><time>2026-03-26T09:54:21.011Z</time></trkpt><trkpt lat="30.776085000908928" lon="-6.522501055352767"><ele>1055.0</ele><time>2026-03-26T09:54:22.011Z</time></trkpt><trkpt lat="30.77608629660302" lon="-6.522623521548551"><ele>1055.0</ele><time>2026-03-26T09:54:23.011Z</time></trkpt><trkpt lat="30.77604212259129" lon="-6.522757178572974"><ele>1055.0</ele><time>2026-03-26T09:54:24.011Z</time></trkpt><trkpt lat="30.775987000701516" lon="-6.522874617675874"><ele>1055.0</ele><time>2026-03-26T09:54:25.011Z</time></trkpt><trkpt lat="30.775941787034842" lon="-6.5229921451252295"><ele>1055.0</ele><time>2026-03-26T09:54:26.011Z</time></trkpt><trkpt lat="30.77590898493798" lon="-6.5231171471901455"><ele>1051.4</ele><time>2026-03-26T09:54:27.011Z</time></trkpt><trkpt lat="30.77588849180356" lon="-6.523249723516945"><ele>1047.8</ele><time>2026-03-26T09:54:28.011Z</time></trkpt><trkpt lat="30.775874490061014" lon="-6.523372008640325"><ele>1044.2</ele><time>2026-03-26T09:54:29.011Z</time></trkpt><trkpt lat="30.77588246045104" lon="-6.523497026600175"><ele>1040.6</ele><time>2026-03-26T09:54:30.011Z</time></trkpt><trkpt lat="30.775897938707526" lon="-6.52362570516122"><ele>1037.0</ele><time>2026-03-26T09:54:31.011Z</time></trkpt><trkpt lat="30.775925139892813" lon="-6.523746942762167"><ele>1034.5</ele><time>2026-03-26T09:54:32.011Z</time></trkpt><trkpt lat="30.775977099893744" lon="-6.5238595959267185"><ele>1032.0</ele><time>2026-03-26T09:54:33.011Z</time></trkpt><trkpt lat="30.776064766344604" lon="-6.523975491745265"><ele>1029.5</ele><time>2026-03-26T09:54:34.011Z</time></trkpt><trkpt lat="30.776161780976352" lon="-6.5241158650966975"><ele>1027.0</ele><time>2026-03-26T09:54:35.011Z</time></trkpt><trkpt lat="30.776232020216526" lon="-6.524263190818898"><ele>1026.0</ele><time>2026-03-26T09:54:36.011Z</time></trkpt><trkpt lat="30.77627313927373" lon="-6.524421416480241"><ele>1025.0</ele><time>2026-03-26T09:54:37.011Z</time></trkpt><trkpt lat="30.776287695382795" lon="-6.524590680136485"><ele>1024.0</ele><time>2026-03-26T09:54:38.011Z</time></trkpt><trkpt lat="30.776331258901465" lon="-6.524766652238095"><ele>1023.0</ele><time>2026-03-26T09:54:39.011Z</time></trkpt><trkpt lat="30.776356143169863" lon="-6.524954650229205"><ele>1023.0</ele><time>2026-03-26T09:54:40.011Z</time></trkpt><trkpt lat="30.776380775625746" lon="-6.525141180811452"><ele>1023.0</ele><time>2026-03-26T09:54:41.011Z</time></trkpt><trkpt lat="30.776315532432854" lon="-6.525354092282539"><ele>1023.0</ele><time>2026-03-26T09:54:42.011Z</time></trkpt><trkpt lat="30.776328091093724" lon="-6.52559283272202"><ele>1023.0</ele><time>2026-03-26T09:54:43.011Z</time></trkpt><trkpt lat="30.77634042646861" lon="-6.525810931485931"><ele>1023.0</ele><time>2026-03-26T09:54:44.011Z</time></trkpt><trkpt lat="30.77636342872278" lon="-6.52599956729289"><ele>1023.0</ele><time>2026-03-26T09:54:45.011Z</time></trkpt><trkpt lat="30.776418305149956" lon="-6.52615724427858"><ele>1023.0</ele><time>2026-03-26T09:54:46.011Z</time></trkpt><trkpt lat="30.77646053905926" lon="-6.526308713257284"><ele>1023.0</ele><time>2026-03-26T09:54:47.011Z</time></trkpt><trkpt lat="30.776507462498298" lon="-6.526440427450989"><ele>1023.0</ele><time>2026-03-26T09:54:48.011Z</time></trkpt><trkpt lat="30.776548390132685" lon="-6.526571912172266"><ele>1023.0</ele><time>2026-03-26T09:54:49.011Z</time></trkpt><trkpt lat="30.776615974415712" lon="-6.526684716781929"><ele>1023.0</ele><time>2026-03-26T09:54:50.011Z</time></trkpt><trkpt lat="30.776663440288058" lon="-6.526804442317243"><ele>1023.0</ele><time>2026-03-26T09:54:51.011Z</time></trkpt><trkpt lat="30.776702300695643" lon="-6.526934300787128"><ele>1023.0</ele><time>2026-03-26T09:54:52.011Z</time></trkpt><trkpt lat="30.776761289321836" lon="-6.527054754395654"><ele>1023.0</ele><time>2026-03-26T09:54:53.011Z</time></trkpt><trkpt lat="30.77680925810796" lon="-6.527166926267647"><ele>1023.5</ele><time>2026-03-26T09:54:54.011Z</time></trkpt><trkpt lat="30.776849944112044" lon="-6.527262654484308"><ele>1024.0</ele><time>2026-03-26T09:54:55.011Z</time></trkpt><trkpt lat="30.776889075468677" lon="-6.52733080768395"><ele>1024.5</ele><time>2026-03-26T09:54:56.011Z</time></trkpt><trkpt lat="30.776935974684875" lon="-6.527425999240897"><ele>1025.0</ele><time>2026-03-26T09:54:58.011Z</time></trkpt><trkpt lat="30.7769859770132" lon="-6.527485895329098"><ele>1025.5</ele><time>2026-03-26T09:55:00.011Z</time></trkpt><trkpt lat="30.77705795458821" lon="-6.52759841174402"><ele>1026.0</ele><time>2026-03-26T09:55:02.011Z</time></trkpt><trkpt lat="30.777111183283193" lon="-6.527671574934512"><ele>1026.0</ele><time>2026-03-26T09:55:03.011Z</time></trkpt><trkpt lat="30.777168637731148" lon="-6.527750605923705"><ele>1026.0</ele><time>2026-03-26T09:55:04.011Z</time></trkpt><trkpt lat="30.777226469613474" lon="-6.527830159848422"><ele>1026.0</ele><time>2026-03-26T09:55:05.011Z</time></trkpt><trkpt lat="30.777281411673297" lon="-6.527905738588955"><ele>1026.0</ele><time>2026-03-26T09:55:06.011Z</time></trkpt><trkpt lat="30.777340467857186" lon="-6.527975084518573"><ele>1026.0</ele><time>2026-03-26T09:55:07.011Z</time></trkpt><trkpt lat="30.777390620995615" lon="-6.528035821442889"><ele>1026.0</ele><time>2026-03-26T09:55:08.011Z</time></trkpt><trkpt lat="30.77746553325906" lon="-6.528137849403507"><ele>1025.2</ele><time>2026-03-26T09:55:09.011Z</time></trkpt><trkpt lat="30.777536756329933" lon="-6.528222650860292"><ele>1024.3999999999999</ele><time>2026-03-26T09:55:10.011Z</time></trkpt><trkpt lat="30.777599924725756" lon="-6.528315314629763"><ele>1023.6</ele><time>2026-03-26T09:55:11.011Z</time></trkpt><trkpt lat="30.777678201277777" lon="-6.528383343883022"><ele>1022.8</ele><time>2026-03-26T09:55:12.011Z</time></trkpt><trkpt lat="30.777751049307707" lon="-6.528448349709549"><ele>1022.0</ele><time>2026-03-26T09:55:13.011Z</time></trkpt><trkpt lat="30.777815347114966" lon="-6.5285041028858135"><ele>1022.0000000000001</ele><time>2026-03-26T09:55:14.011Z</time></trkpt><trkpt lat="30.777878345201923" lon="-6.528558808501409"><ele>1022.0</ele><time>2026-03-26T09:55:15.011Z</time></trkpt><trkpt lat="30.777929378161847" lon="-6.528623975272205"><ele>1022.0</ele><time>2026-03-26T09:55:16.011Z</time></trkpt><trkpt lat="30.777988212903118" lon="-6.52867559609519"><ele>1022.0</ele><time>2026-03-26T09:55:17.011Z</time></trkpt><trkpt lat="30.77808094833266" lon="-6.528756960651018"><ele>1022.0000000000001</ele><time>2026-03-26T09:55:19.011Z</time></trkpt><trkpt lat="30.77815124408849" lon="-6.528818637029915"><ele>1022.0</ele><time>2026-03-26T09:55:21.011Z</time></trkpt><trkpt lat="30.77821869490734" lon="-6.5288540394193335"><ele>1020.8</ele><time>2026-03-26T09:55:23.011Z</time></trkpt><trkpt lat="30.77825818432651" lon="-6.528921271643741"><ele>1019.6</ele><time>2026-03-26T09:55:27.011Z</time></trkpt><trkpt lat="30.778038842823744" lon="-6.528874566545493"><ele>1018.3999999999999</ele><time>2026-03-26T09:55:43.011Z</time></trkpt><trkpt lat="30.778047791756915" lon="-6.528800828048354"><ele>1017.1999999999999</ele><time>2026-03-26T09:55:47.011Z</time></trkpt><trkpt lat="30.77806128864169" lon="-6.528874474508447"><ele>1016.0</ele><time>2026-03-26T09:56:16.011Z</time></trkpt><trkpt lat="30.778068353242837" lon="-6.528952786927185"><ele>1016.0</ele><time>2026-03-26T09:56:22.012Z</time></trkpt><trkpt lat="30.778125187665275" lon="-6.529020887126083"><ele>1016.0</ele><time>2026-03-26T09:57:01.011Z</time></trkpt><trkpt lat="30.778143168059287" lon="-6.528943778155535"><ele>1016.0</ele><time>2026-03-26T09:58:08.991Z</time></trkpt><trkpt lat="30.77807773962052" lon="-6.528912552551834"><ele>1016.0</ele><time>2026-03-26T09:58:27.99Z</time></trkpt><trkpt lat="30.778023372894147" lon="-6.528963456284863"><ele>1016.0</ele><time>2026-03-26T09:58:40.991Z</time></trkpt><trkpt lat="30.777935663502653" lon="-6.528962384508935"><ele>1016.0</ele><time>2026-03-26T09:59:07.99Z</time></trkpt><trkpt lat="30.777875064580204" lon="-6.528941498816234"><ele>1016.0</ele><time>2026-03-26T09:59:17.99Z</time></trkpt><trkpt lat="30.77780211128933" lon="-6.528938182987905"><ele>1016.0</ele><time>2026-03-26T09:59:27.99Z</time></trkpt><trkpt lat="30.777730949722287" lon="-6.528957612756192"><ele>1016.0</ele><time>2026-03-26T09:59:34.99Z</time></trkpt><trkpt lat="30.77766624994438" lon="-6.528954334618227"><ele>1016.0</ele><time>2026-03-26T09:59:40.99Z</time></trkpt><trkpt lat="30.777606967189122" lon="-6.528983152552183"><ele>1016.0</ele><time>2026-03-26T09:59:48.99Z</time></trkpt><trkpt lat="30.777539530445445" lon="-6.528989710153989"><ele>1016.0</ele><time>2026-03-26T09:59:54.99Z</time></trkpt><trkpt lat="30.777468361065214" lon="-6.528996493803416"><ele>1016.0</ele><time>2026-03-26T10:00:04.99Z</time></trkpt><trkpt lat="30.777402575276888" lon="-6.528978781590046"><ele>1016.0</ele><time>2026-03-26T10:00:11.99Z</time></trkpt><trkpt lat="30.77733403916515" lon="-6.529018737521257"><ele>1014.7142857142858</ele><time>2026-03-26T10:00:17.99Z</time></trkpt><trkpt lat="30.777272650504525" lon="-6.52898281030529"><ele>1013.4285714285713</ele><time>2026-03-26T10:00:24.991Z</time></trkpt><trkpt lat="30.777216620568925" lon="-6.528942049441516"><ele>1012.1428571428571</ele><time>2026-03-26T10:00:30.991Z</time></trkpt><trkpt lat="30.777160724607235" lon="-6.528994076154629"><ele>1010.8571428571429</ele><time>2026-03-26T10:00:33.991Z</time></trkpt><trkpt lat="30.77711142773668" lon="-6.528943965577386"><ele>1009.5714285714287</ele><time>2026-03-26T10:00:49.99Z</time></trkpt><trkpt lat="30.777048533759416" lon="-6.528940500446918"><ele>1008.2857142857142</ele><time>2026-03-26T10:00:58.99Z</time></trkpt><trkpt lat="30.776980234749463" lon="-6.528959240171699"><ele>1007.0</ele><time>2026-03-26T10:01:09.99Z</time></trkpt><trkpt lat="30.776930002305182" lon="-6.5290148761044025"><ele>1007.0000000000001</ele><time>2026-03-26T10:01:14.99Z</time></trkpt><trkpt lat="30.776892939923957" lon="-6.529090100538433"><ele>1007.0</ele><time>2026-03-26T10:01:19.99Z</time></trkpt><trkpt lat="30.77685287522475" lon="-6.529183123070008"><ele>1007.0</ele><time>2026-03-26T10:01:24.99Z</time></trkpt><trkpt lat="30.77681648712399" lon="-6.529256809951898"><ele>1007.0</ele><time>2026-03-26T10:01:27.99Z</time></trkpt><trkpt lat="30.776757783582177" lon="-6.529310704687697"><ele>1007.0000000000001</ele><time>2026-03-26T10:01:33.99Z</time></trkpt><trkpt lat="30.776682427217082" lon="-6.529314497088822"><ele>1007.0</ele><time>2026-03-26T10:01:38.99Z</time></trkpt><trkpt lat="30.776610945756673" lon="-6.529340471992535"><ele>1009.8</ele><time>2026-03-26T10:01:43.99Z</time></trkpt><trkpt lat="30.77653672362135" lon="-6.529363315164714"><ele>1012.6</ele><time>2026-03-26T10:01:48.99Z</time></trkpt><trkpt lat="30.776469780659177" lon="-6.5293755493646195"><ele>1015.3999999999999</ele><time>2026-03-26T10:02:02.99Z</time></trkpt><trkpt lat="30.776471179626135" lon="-6.529273758266423"><ele>1018.1999999999999</ele><time>2026-03-26T10:02:13.99Z</time></trkpt><trkpt lat="30.77643913804102" lon="-6.529142281772928"><ele>1021.0</ele><time>2026-03-26T10:02:46.99Z</time></trkpt><trkpt lat="30.776344570772334" lon="-6.529213316075722"><ele>1021.0</ele><time>2026-03-26T10:03:49.99Z</time></trkpt><trkpt lat="30.776287050917126" lon="-6.529251837227068"><ele>1021.0</ele><time>2026-03-26T10:03:56.99Z</time></trkpt><trkpt lat="30.776287356947247" lon="-6.529331157846918"><ele>1021.0</ele><time>2026-03-26T10:04:07.99Z</time></trkpt><trkpt lat="30.776218464401268" lon="-6.529315381711517"><ele>1021.0</ele><time>2026-03-26T10:04:26.989Z</time></trkpt><trkpt lat="30.776151796439738" lon="-6.529313103089057"><ele>1021.0</ele><time>2026-03-26T10:04:34.989Z</time></trkpt><trkpt lat="30.77607482946555" lon="-6.529274759884006"><ele>1021.0</ele><time>2026-03-26T10:04:44.99Z</time></trkpt><trkpt lat="30.77603802998307" lon="-6.529205219546557"><ele>1021.0</ele><time>2026-03-26T10:04:54.99Z</time></trkpt><trkpt lat="30.776059627387664" lon="-6.529107315126515"><ele>1021.0</ele><time>2026-03-26T10:04:59.99Z</time></trkpt><trkpt lat="30.776100906894513" lon="-6.529038420773771"><ele>1021.0</ele><time>2026-03-26T10:05:24.99Z</time></trkpt><trkpt lat="30.77612593259538" lon="-6.529115527564556"><ele>1021.0</ele><time>2026-03-26T10:06:07.99Z</time></trkpt><trkpt lat="30.77606566103962" lon="-6.529088105631533"><ele>1021.0</ele><time>2026-03-26T10:06:47.989Z</time></trkpt><trkpt lat="30.77600175952361" lon="-6.52904179258504"><ele>1021.0</ele><time>2026-03-26T10:06:53.989Z</time></trkpt><trkpt lat="30.776003309208313" lon="-6.528951737420531"><ele>1021.0</ele><time>2026-03-26T10:07:02.99Z</time></trkpt><trkpt lat="30.77602375883252" lon="-6.528874064785311"><ele>1021.0</ele><time>2026-03-26T10:07:13.99Z</time></trkpt><trkpt lat="30.776090227984003" lon="-6.528868373707272"><ele>1020.9999999999999</ele><time>2026-03-26T10:08:00.99Z</time></trkpt><trkpt lat="30.77605177444335" lon="-6.5287880810526735"><ele>1021.0</ele><time>2026-03-26T10:08:17.99Z</time></trkpt><trkpt lat="30.77608500702131" lon="-6.528853807302439"><ele>1021.0</ele><time>2026-03-26T10:08:52.989Z</time></trkpt><trkpt lat="30.776077710466062" lon="-6.528932535663311"><ele>1021.0</ele><time>2026-03-26T10:09:01.988Z</time></trkpt><trkpt lat="30.776088061935642" lon="-6.529022512605489"><ele>1020.9999999999999</ele><time>2026-03-26T10:09:08.988Z</time></trkpt><trkpt lat="30.776109594371405" lon="-6.529132639357368"><ele>1021.0</ele><time>2026-03-26T10:09:22.988Z</time></trkpt><trkpt lat="30.776180658804495" lon="-6.5291461498320125"><ele>1020.9999999999999</ele><time>2026-03-26T10:09:32.988Z</time></trkpt><trkpt lat="30.77620448902823" lon="-6.529074778015425"><ele>1021.0</ele><time>2026-03-26T10:09:43.988Z</time></trkpt><trkpt lat="30.77619353235531" lon="-6.5289961763796365"><ele>1021.0</ele><time>2026-03-26T10:09:50.988Z</time></trkpt><trkpt lat="30.77612714652345" lon="-6.528997291310359"><ele>1021.0</ele><time>2026-03-26T10:10:05.988Z</time></trkpt><trkpt lat="30.776133425248304" lon="-6.528924050225944"><ele>1020.9999999999999</ele><time>2026-03-26T10:10:16.988Z</time></trkpt><trkpt lat="30.77620755881482" lon="-6.5289324961654245"><ele>1021.0</ele><time>2026-03-26T10:10:55.989Z</time></trkpt><trkpt lat="30.77617235802073" lon="-6.52916781872261"><ele>1021.0</ele><time>2026-03-26T10:12:05.989Z</time></trkpt><trkpt lat="30.77629371338117" lon="-6.52917410328863"><ele>1020.9999999999999</ele><time>2026-03-26T10:12:25.989Z</time></trkpt><trkpt lat="30.776430618969876" lon="-6.529174137574041"><ele>1020.9999999999999</ele><time>2026-03-26T10:13:33.976Z</time></trkpt><trkpt lat="30.77642824050296" lon="-6.529095436614308"><ele>1021.0</ele><time>2026-03-26T10:16:29.972Z</time></trkpt><trkpt lat="30.776491922353664" lon="-6.529070780118531"><ele>1021.0</ele><time>2026-03-26T10:16:37.972Z</time></trkpt><trkpt lat="30.776561488808454" lon="-6.529050117927642"><ele>1021.0</ele><time>2026-03-26T10:16:51.971Z</time></trkpt><trkpt lat="30.776628459418117" lon="-6.529012746008121"><ele>1021.0</ele><time>2026-03-26T10:17:01.971Z</time></trkpt><trkpt lat="30.776694925242975" lon="-6.5290023790579745"><ele>1021.0</ele><time>2026-03-26T10:17:06.971Z</time></trkpt><trkpt lat="30.77676423299721" lon="-6.52899583145114"><ele>1021.0</ele><time>2026-03-26T10:17:13.972Z</time></trkpt><trkpt lat="30.77683395291241" lon="-6.5289844511103166"><ele>1021.0</ele><time>2026-03-26T10:17:21.971Z</time></trkpt><trkpt lat="30.77686697882686" lon="-6.528908809401356"><ele>1021.0</ele><time>2026-03-26T10:17:30.971Z</time></trkpt><trkpt lat="30.77694186865657" lon="-6.528891640089502"><ele>1021.0</ele><time>2026-03-26T10:17:35.971Z</time></trkpt><trkpt lat="30.777006308163116" lon="-6.528874968444451"><ele>1018.6666666666666</ele><time>2026-03-26T10:17:40.971Z</time></trkpt><trkpt lat="30.77707015990073" lon="-6.528870311196361"><ele>1016.3333333333333</ele><time>2026-03-26T10:17:45.971Z</time></trkpt><trkpt lat="30.777134132507967" lon="-6.528886948135336"><ele>1014.0</ele><time>2026-03-26T10:17:50.971Z</time></trkpt><trkpt lat="30.777201640819875" lon="-6.528889400925774"><ele>1011.6666666666667</ele><time>2026-03-26T10:17:56.971Z</time></trkpt><trkpt lat="30.77726416504957" lon="-6.528912650271865"><ele>1009.3333333333334</ele><time>2026-03-26T10:18:01.971Z</time></trkpt><trkpt lat="30.777416676501332" lon="-6.528888248447133"><ele>1007.0</ele><time>2026-03-26T10:18:11.971Z</time></trkpt><trkpt lat="30.777480989864884" lon="-6.528888489082455"><ele>1007.0</ele><time>2026-03-26T10:18:15.971Z</time></trkpt><trkpt lat="30.777561239371725" lon="-6.528893144007051"><ele>1007.0</ele><time>2026-03-26T10:18:21.971Z</time></trkpt><trkpt lat="30.777627235020624" lon="-6.528908951355359"><ele>1007.0</ele><time>2026-03-26T10:18:26.971Z</time></trkpt><trkpt lat="30.777691209409895" lon="-6.528911264203772"><ele>1007.0</ele><time>2026-03-26T10:18:31.971Z</time></trkpt><trkpt lat="30.777757594356434" lon="-6.5288987895662345"><ele>1007.0</ele><time>2026-03-26T10:18:37.971Z</time></trkpt><trkpt lat="30.777831922340184" lon="-6.528903270023465"><ele>1007.0</ele><time>2026-03-26T10:18:47.971Z</time></trkpt><trkpt lat="30.7778987465519" lon="-6.528919620815851"><ele>1007.0</ele><time>2026-03-26T10:18:51.971Z</time></trkpt><trkpt lat="30.77797603857851" lon="-6.528906974337367"><ele>1008.2857142857142</ele><time>2026-03-26T10:18:56.971Z</time></trkpt><trkpt lat="30.778038676416493" lon="-6.528937842217993"><ele>1009.5714285714287</ele><time>2026-03-26T10:19:00.971Z</time></trkpt><trkpt lat="30.778100277375657" lon="-6.528958476586294"><ele>1010.8571428571429</ele><time>2026-03-26T10:19:09.971Z</time></trkpt><trkpt lat="30.77807209466666" lon="-6.528846735864457"><ele>1012.1428571428571</ele><time>2026-03-26T10:19:30.97Z</time></trkpt><trkpt lat="30.77812841171704" lon="-6.528779568630634"><ele>1013.4285714285713</ele><time>2026-03-26T10:21:10.97Z</time></trkpt><trkpt lat="30.77817451074011" lon="-6.528719648914765"><ele>1014.7142857142858</ele><time>2026-03-26T10:21:12.97Z</time></trkpt><trkpt lat="30.77815466655042" lon="-6.52864518917622"><ele>1016.0</ele><time>2026-03-26T10:21:14.97Z</time></trkpt><trkpt lat="30.778084526882196" lon="-6.5286171693064174"><ele>1016.75</ele><time>2026-03-26T10:21:16.97Z</time></trkpt><trkpt lat="30.777957839899315" lon="-6.528611719300815"><ele>1017.5</ele><time>2026-03-26T10:21:18.97Z</time></trkpt><trkpt lat="30.777819044352505" lon="-6.5285534357447075"><ele>1018.25</ele><time>2026-03-26T10:21:20.97Z</time></trkpt><trkpt lat="30.77774399998882" lon="-6.528483909424678"><ele>1019.0</ele><time>2026-03-26T10:21:21.97Z</time></trkpt><trkpt lat="30.777672694670102" lon="-6.528417712272226"><ele>1019.0</ele><time>2026-03-26T10:21:22.97Z</time></trkpt><trkpt lat="30.777620047277086" lon="-6.528353652929777"><ele>1019.0</ele><time>2026-03-26T10:21:23.97Z</time></trkpt><trkpt lat="30.77754821898628" lon="-6.528267074679111"><ele>1019.0</ele><time>2026-03-26T10:21:24.971Z</time></trkpt><trkpt lat="30.777457818059258" lon="-6.528163387472608"><ele>1019.0</ele><time>2026-03-26T10:21:25.97Z</time></trkpt><trkpt lat="30.77735292458363" lon="-6.5280448155939865"><ele>1019.0</ele><time>2026-03-26T10:21:26.97Z</time></trkpt><trkpt lat="30.777247909303814" lon="-6.527916962864336"><ele>1019.0</ele><time>2026-03-26T10:21:27.97Z</time></trkpt><trkpt lat="30.77713879444532" lon="-6.52777595377323"><ele>1019.0</ele><time>2026-03-26T10:21:28.97Z</time></trkpt><trkpt lat="30.777017774125483" lon="-6.527613318289711"><ele>1021.3333333333334</ele><time>2026-03-26T10:21:29.97Z</time></trkpt><trkpt lat="30.776918679841547" lon="-6.527450774587168"><ele>1023.6666666666667</ele><time>2026-03-26T10:21:30.97Z</time></trkpt><trkpt lat="30.77682608737181" lon="-6.527300781713215"><ele>1026.0</ele><time>2026-03-26T10:21:31.97Z</time></trkpt><trkpt lat="30.776743865448207" lon="-6.527143761960122"><ele>1025.0</ele><time>2026-03-26T10:21:32.97Z</time></trkpt><trkpt lat="30.776678248151093" lon="-6.52696073435569"><ele>1024.0</ele><time>2026-03-26T10:21:33.97Z</time></trkpt><trkpt lat="30.77660519476775" lon="-6.526776783148654"><ele>1023.0</ele><time>2026-03-26T10:21:34.97Z</time></trkpt><trkpt lat="30.77653602394058" lon="-6.526573743375371"><ele>1023.0</ele><time>2026-03-26T10:21:35.97Z</time></trkpt><trkpt lat="30.77644853045176" lon="-6.52637461857316"><ele>1023.0</ele><time>2026-03-26T10:21:36.971Z</time></trkpt><trkpt lat="30.776378240469995" lon="-6.526172517522341"><ele>1023.0</ele><time>2026-03-26T10:21:37.97Z</time></trkpt><trkpt lat="30.776337248801326" lon="-6.525953030776071"><ele>1023.0</ele><time>2026-03-26T10:21:38.97Z</time></trkpt><trkpt lat="30.77630933294041" lon="-6.52573486012762"><ele>1023.0</ele><time>2026-03-26T10:21:39.97Z</time></trkpt><trkpt lat="30.776294325041235" lon="-6.525538340084361"><ele>1023.0</ele><time>2026-03-26T10:21:40.97Z</time></trkpt><trkpt lat="30.776267977181654" lon="-6.525325696026715"><ele>1023.0</ele><time>2026-03-26T10:21:41.97Z</time></trkpt><trkpt lat="30.776253946741768" lon="-6.525127490455182"><ele>1023.0</ele><time>2026-03-26T10:21:42.97Z</time></trkpt><trkpt lat="30.77624811750984" lon="-6.524954029908947"><ele>1023.0</ele><time>2026-03-26T10:21:43.97Z</time></trkpt><trkpt lat="30.776251339930557" lon="-6.524786425797019"><ele>1023.0</ele><time>2026-03-26T10:21:44.97Z</time></trkpt><trkpt lat="30.776251590609526" lon="-6.524630665936117"><ele>1023.0</ele><time>2026-03-26T10:21:45.97Z</time></trkpt><trkpt lat="30.77624591736242" lon="-6.524477426575557"><ele>1023.0</ele><time>2026-03-26T10:21:46.97Z</time></trkpt><trkpt lat="30.77622762436809" lon="-6.524325026130972"><ele>1023.0</ele><time>2026-03-26T10:21:47.97Z</time></trkpt><trkpt lat="30.776184439672406" lon="-6.524184545566479"><ele>1022.0</ele><time>2026-03-26T10:21:48.97Z</time></trkpt><trkpt lat="30.776116271080966" lon="-6.524064359433461"><ele>1021.0</ele><time>2026-03-26T10:21:49.97Z</time></trkpt><trkpt lat="30.776032470602118" lon="-6.523946898324477"><ele>1020.0</ele><time>2026-03-26T10:21:50.97Z</time></trkpt><trkpt lat="30.775945675845318" lon="-6.523815663823497"><ele>1019.0</ele><time>2026-03-26T10:21:51.97Z</time></trkpt><trkpt lat="30.77586759486431" lon="-6.523646099934963"><ele>1025.0</ele><time>2026-03-26T10:21:52.97Z</time></trkpt><trkpt lat="30.7758389519415" lon="-6.5234614124889685"><ele>1031.0</ele><time>2026-03-26T10:21:53.97Z</time></trkpt><trkpt lat="30.775841825549854" lon="-6.523276167137454"><ele>1037.0</ele><time>2026-03-26T10:21:54.97Z</time></trkpt><trkpt lat="30.77587823542941" lon="-6.523064646161236"><ele>1043.0</ele><time>2026-03-26T10:21:55.97Z</time></trkpt><trkpt lat="30.775930440911722" lon="-6.522854898692239"><ele>1049.0</ele><time>2026-03-26T10:21:56.97Z</time></trkpt><trkpt lat="30.775995709562054" lon="-6.522699717578054"><ele>1055.0</ele><time>2026-03-26T10:21:57.97Z</time></trkpt><trkpt lat="30.776035417452682" lon="-6.522575317901477"><ele>1055.0</ele><time>2026-03-26T10:21:58.97Z</time></trkpt><trkpt lat="30.77605099723881" lon="-6.522469349345277"><ele>1055.0</ele><time>2026-03-26T10:21:59.97Z</time></trkpt><trkpt lat="30.77604670930875" lon="-6.522360977664329"><ele>1055.0</ele><time>2026-03-26T10:22:00.97Z</time></trkpt><trkpt lat="30.77602194115022" lon="-6.522280428587981"><ele>1055.0</ele><time>2026-03-26T10:22:01.97Z</time></trkpt><trkpt lat="30.77596043632524" lon="-6.52221946270574"><ele>1055.0</ele><time>2026-03-26T10:22:02.97Z</time></trkpt><trkpt lat="30.775894642909403" lon="-6.522189105603465"><ele>1055.0</ele><time>2026-03-26T10:22:03.97Z</time></trkpt><trkpt lat="30.77581468662413" lon="-6.522185122080234"><ele>1055.0</ele><time>2026-03-26T10:22:04.97Z</time></trkpt><trkpt lat="30.77571339755755" lon="-6.522211517569571"><ele>1055.0</ele><time>2026-03-26T10:22:05.97Z</time></trkpt><trkpt lat="30.77564384784018" lon="-6.522290593495278"><ele>1055.0</ele><time>2026-03-26T10:22:06.97Z</time></trkpt><trkpt lat="30.775593638919332" lon="-6.522411142145769"><ele>1055.0</ele><time>2026-03-26T10:22:07.97Z</time></trkpt><trkpt lat="30.77557446432656" lon="-6.522574371304307"><ele>1055.0</ele><time>2026-03-26T10:22:08.97Z</time></trkpt><trkpt lat="30.775530548813908" lon="-6.522692014475128"><ele>1055.0</ele><time>2026-03-26T10:22:09.97Z</time></trkpt><trkpt lat="30.775451826402918" lon="-6.522781663813098"><ele>1055.0</ele><time>2026-03-26T10:22:10.97Z</time></trkpt><trkpt lat="30.775335515813033" lon="-6.522850398337555"><ele>1055.0</ele><time>2026-03-26T10:22:11.97Z</time></trkpt><trkpt lat="30.77518892991299" lon="-6.522866654379643"><ele>1056.0</ele><time>2026-03-26T10:22:12.97Z</time></trkpt><trkpt lat="30.77506113682366" lon="-6.522937769250345"><ele>1057.0</ele><time>2026-03-26T10:22:13.97Z</time></trkpt><trkpt lat="30.77490754734382" lon="-6.523006812158483"><ele>1058.0</ele><time>2026-03-26T10:22:14.97Z</time></trkpt><trkpt lat="30.77476841112734" lon="-6.523059763263542"><ele>1058.0</ele><time>2026-03-26T10:22:15.97Z</time></trkpt><trkpt lat="30.774658084554286" lon="-6.523191203276407"><ele>1058.0</ele><time>2026-03-26T10:22:16.97Z</time></trkpt><trkpt lat="30.77456238829522" lon="-6.5233094576259685"><ele>1058.0</ele><time>2026-03-26T10:22:17.97Z</time></trkpt><trkpt lat="30.774519104306638" lon="-6.52346704093907"><ele>1058.0</ele><time>2026-03-26T10:22:18.97Z</time></trkpt><trkpt lat="30.774485293312363" lon="-6.523628600725644"><ele>1052.3333333333335</ele><time>2026-03-26T10:22:19.97Z</time></trkpt><trkpt lat="30.774434974605438" lon="-6.523784716918165"><ele>1046.6666666666667</ele><time>2026-03-26T10:22:20.97Z</time></trkpt><trkpt lat="30.774402349666893" lon="-6.523956721167105"><ele>1041.0</ele><time>2026-03-26T10:22:21.97Z</time></trkpt><trkpt lat="30.7743788286437" lon="-6.524143519248124"><ele>1053.3333333333333</ele><time>2026-03-26T10:22:22.97Z</time></trkpt><trkpt lat="30.774333042250134" lon="-6.524350002508617"><ele>1065.6666666666665</ele><time>2026-03-26T10:22:23.97Z</time></trkpt><trkpt lat="30.774279574136912" lon="-6.524545403314203"><ele>1078.0</ele><time>2026-03-26T10:22:24.97Z</time></trkpt><trkpt lat="30.774265783991257" lon="-6.524755003791078"><ele>1078.0</ele><time>2026-03-26T10:22:25.97Z</time></trkpt><trkpt lat="30.774266840320816" lon="-6.524976516070113"><ele>1078.0</ele><time>2026-03-26T10:22:26.97Z</time></trkpt><trkpt lat="30.7742497028057" lon="-6.525169889954548"><ele>1078.0</ele><time>2026-03-26T10:22:27.97Z</time></trkpt><trkpt lat="30.77423785357709" lon="-6.525343592549133"><ele>1078.4</ele><time>2026-03-26T10:22:28.97Z</time></trkpt><trkpt lat="30.77423406376451" lon="-6.5254981296992876"><ele>1078.8</ele><time>2026-03-26T10:22:29.97Z</time></trkpt><trkpt lat="30.774235315572678" lon="-6.5256320692155585"><ele>1079.2</ele><time>2026-03-26T10:22:30.97Z</time></trkpt><trkpt lat="30.77421900863422" lon="-6.525744647508368"><ele>1079.6</ele><time>2026-03-26T10:22:31.97Z</time></trkpt><trkpt lat="30.774147469232485" lon="-6.525829866551659"><ele>1080.0</ele><time>2026-03-26T10:22:32.97Z</time></trkpt><trkpt lat="30.774048180227354" lon="-6.52581857867648"><ele>1080.0</ele><time>2026-03-26T10:22:33.97Z</time></trkpt><trkpt lat="30.773974825677126" lon="-6.525791459764006"><ele>1080.0</ele><time>2026-03-26T10:22:34.97Z</time></trkpt><trkpt lat="30.77392084966378" lon="-6.525714959794095"><ele>1080.0</ele><time>2026-03-26T10:22:35.97Z</time></trkpt><trkpt lat="30.773892633968355" lon="-6.525607036825515"><ele>1080.0</ele><time>2026-03-26T10:22:36.97Z</time></trkpt><trkpt lat="30.773861008435208" lon="-6.5254831107107565"><ele>1080.0</ele><time>2026-03-26T10:22:37.97Z</time></trkpt><trkpt lat="30.77384937205471" lon="-6.525349698830551"><ele>1079.5</ele><time>2026-03-26T10:22:38.97Z</time></trkpt><trkpt lat="30.77383691934784" lon="-6.525205961664226"><ele>1079.0</ele><time>2026-03-26T10:22:39.97Z</time></trkpt><trkpt lat="30.773857338048987" lon="-6.525051891623054"><ele>1078.5</ele><time>2026-03-26T10:22:40.97Z</time></trkpt><trkpt lat="30.773851407801327" lon="-6.524890267958039"><ele>1078.0</ele><time>2026-03-26T10:22:41.97Z</time></trkpt><trkpt lat="30.77381574737537" lon="-6.524734185601038"><ele>1078.0</ele><time>2026-03-26T10:22:42.97Z</time></trkpt><trkpt lat="30.773778448996918" lon="-6.52456660262628"><ele>1078.0</ele><time>2026-03-26T10:22:43.97Z</time></trkpt><trkpt lat="30.77372651589226" lon="-6.524398168697356"><ele>1078.0</ele><time>2026-03-26T10:22:44.97Z</time></trkpt><trkpt lat="30.773664515720775" lon="-6.52422844433045"><ele>1079.3333333333333</ele><time>2026-03-26T10:22:45.97Z</time></trkpt><trkpt lat="30.773605735191225" lon="-6.524060625251402"><ele>1080.6666666666667</ele><time>2026-03-26T10:22:46.97Z</time></trkpt><trkpt lat="30.77353651614878" lon="-6.523890937223939"><ele>1082.0</ele><time>2026-03-26T10:22:47.97Z</time></trkpt><trkpt lat="30.773465239016787" lon="-6.523719955891726"><ele>1084.0</ele><time>2026-03-26T10:22:48.97Z</time></trkpt><trkpt lat="30.77338963131222" lon="-6.5235556083632416"><ele>1086.0</ele><time>2026-03-26T10:22:49.97Z</time></trkpt><trkpt lat="30.773308075333208" lon="-6.52339442651771"><ele>1088.0</ele><time>2026-03-26T10:22:50.97Z</time></trkpt><trkpt lat="30.773230939067737" lon="-6.523246557861059"><ele>1088.0</ele><time>2026-03-26T10:22:51.97Z</time></trkpt><trkpt lat="30.773154852957322" lon="-6.523125173518105"><ele>1088.0</ele><time>2026-03-26T10:22:52.97Z</time></trkpt><trkpt lat="30.773079370273273" lon="-6.5230437596436674"><ele>1088.0</ele><time>2026-03-26T10:22:53.97Z</time></trkpt><trkpt lat="30.772997243712343" lon="-6.522998626175849"><ele>1088.0</ele><time>2026-03-26T10:22:54.97Z</time></trkpt><trkpt lat="30.772912770721966" lon="-6.523018523264671"><ele>1088.0</ele><time>2026-03-26T10:22:55.97Z</time></trkpt><trkpt lat="30.77282717783501" lon="-6.523061929993944"><ele>1088.0</ele><time>2026-03-26T10:22:56.97Z</time></trkpt><trkpt lat="30.77272084098974" lon="-6.52312256119348"><ele>1088.0</ele><time>2026-03-26T10:22:57.97Z</time></trkpt><trkpt lat="30.772597280204803" lon="-6.523173424680723"><ele>1088.0</ele><time>2026-03-26T10:22:58.97Z</time></trkpt><trkpt lat="30.772480364653443" lon="-6.523259108825782"><ele>1088.0</ele><time>2026-03-26T10:22:59.97Z</time></trkpt><trkpt lat="30.77236745984199" lon="-6.52331735120312"><ele>1088.8</ele><time>2026-03-26T10:23:00.97Z</time></trkpt><trkpt lat="30.77226370387033" lon="-6.523338853535591"><ele>1089.6</ele><time>2026-03-26T10:23:01.97Z</time></trkpt><trkpt lat="30.772176122648855" lon="-6.523338386348721"><ele>1090.4</ele><time>2026-03-26T10:23:02.97Z</time></trkpt><trkpt lat="30.772105542519693" lon="-6.523272822608303"><ele>1091.2</ele><time>2026-03-26T10:23:03.97Z</time></trkpt><trkpt lat="30.772088436781715" lon="-6.523143795381144"><ele>1092.0</ele><time>2026-03-26T10:23:04.97Z</time></trkpt><trkpt lat="30.772081463916823" lon="-6.5230193167428565"><ele>1094.25</ele><time>2026-03-26T10:23:05.97Z</time></trkpt><trkpt lat="30.772076257991767" lon="-6.522882592866968"><ele>1096.5</ele><time>2026-03-26T10:23:06.97Z</time></trkpt><trkpt lat="30.77203276914516" lon="-6.522744813615699"><ele>1098.75</ele><time>2026-03-26T10:23:07.97Z</time></trkpt><trkpt lat="30.772004382438393" lon="-6.522611482663031"><ele>1101.0</ele><time>2026-03-26T10:23:08.97Z</time></trkpt><trkpt lat="30.77197480832385" lon="-6.522471122661764"><ele>1101.0</ele><time>2026-03-26T10:23:09.97Z</time></trkpt><trkpt lat="30.771961200453816" lon="-6.522329799636179"><ele>1101.0</ele><time>2026-03-26T10:23:10.97Z</time></trkpt><trkpt lat="30.771923251306237" lon="-6.522190294855838"><ele>1101.0</ele><time>2026-03-26T10:23:11.97Z</time></trkpt><trkpt lat="30.771893651223568" lon="-6.522047337627904"><ele>1101.0</ele><time>2026-03-26T10:23:12.97Z</time></trkpt><trkpt lat="30.771862069587975" lon="-6.521896477125885"><ele>1106.0</ele><time>2026-03-26T10:23:13.97Z</time></trkpt><trkpt lat="30.771828424187337" lon="-6.52174842929191"><ele>1111.0</ele><time>2026-03-26T10:23:14.97Z</time></trkpt><trkpt lat="30.771788914003178" lon="-6.521609493539078"><ele>1116.0</ele><time>2026-03-26T10:23:15.97Z</time></trkpt><trkpt lat="30.77174039175416" lon="-6.521483955382317"><ele>1121.0</ele><time>2026-03-26T10:23:16.97Z</time></trkpt><trkpt lat="30.77168036660894" lon="-6.521390616869169"><ele>1121.0</ele><time>2026-03-26T10:23:17.97Z</time></trkpt><trkpt lat="30.771613466735328" lon="-6.521336848050405"><ele>1121.0</ele><time>2026-03-26T10:23:18.97Z</time></trkpt><trkpt lat="30.7715215841999" lon="-6.521326733352823"><ele>1121.0</ele><time>2026-03-26T10:23:19.97Z</time></trkpt><trkpt lat="30.771408464807827" lon="-6.521337872508802"><ele>1121.0</ele><time>2026-03-26T10:23:20.97Z</time></trkpt><trkpt lat="30.771269068503734" lon="-6.521346828013966"><ele>1121.0</ele><time>2026-03-26T10:23:21.97Z</time></trkpt><trkpt lat="30.771113016674782" lon="-6.5213524197784585"><ele>1122.0</ele><time>2026-03-26T10:23:22.97Z</time></trkpt><trkpt lat="30.770966081721912" lon="-6.521325108551222"><ele>1123.0</ele><time>2026-03-26T10:23:23.97Z</time></trkpt><trkpt lat="30.770825311966046" lon="-6.521248011876504"><ele>1124.0</ele><time>2026-03-26T10:23:24.97Z</time></trkpt><trkpt lat="30.770702284525505" lon="-6.521146908459602"><ele>1124.0</ele><time>2026-03-26T10:23:25.97Z</time></trkpt><trkpt lat="30.77060054019436" lon="-6.521062599955192"><ele>1124.0</ele><time>2026-03-26T10:23:26.97Z</time></trkpt><trkpt lat="30.77050200142559" lon="-6.521000325834625"><ele>1124.0</ele><time>2026-03-26T10:23:27.97Z</time></trkpt><trkpt lat="30.770407770085626" lon="-6.520977941963263"><ele>1124.0</ele><time>2026-03-26T10:23:28.97Z</time></trkpt><trkpt lat="30.770321264827604" lon="-6.520994616858052"><ele>1124.0</ele><time>2026-03-26T10:23:29.97Z</time></trkpt><trkpt lat="30.770272332727654" lon="-6.521081569028891"><ele>1124.0</ele><time>2026-03-26T10:23:30.97Z</time></trkpt><trkpt lat="30.770240748038958" lon="-6.521165828319981"><ele>1124.0</ele><time>2026-03-26T10:23:31.97Z</time></trkpt><trkpt lat="30.770222053486226" lon="-6.521246522780969"><ele>1124.0</ele><time>2026-03-26T10:23:32.97Z</time></trkpt><trkpt lat="30.770208414767225" lon="-6.521342031134372"><ele>1124.0</ele><time>2026-03-26T10:23:33.97Z</time></trkpt><trkpt lat="30.77018264257048" lon="-6.521449985321844"><ele>1124.0</ele><time>2026-03-26T10:23:34.97Z</time></trkpt><trkpt lat="30.77018200644528" lon="-6.521591014290867"><ele>1127.25</ele><time>2026-03-26T10:23:35.97Z</time></trkpt><trkpt lat="30.77016526843903" lon="-6.5217446390489595"><ele>1130.5</ele><time>2026-03-26T10:23:36.97Z</time></trkpt><trkpt lat="30.770135775701167" lon="-6.521899493146007"><ele>1133.75</ele><time>2026-03-26T10:23:37.97Z</time></trkpt><trkpt lat="30.77006859931747" lon="-6.5220097776475345"><ele>1137.0</ele><time>2026-03-26T10:23:38.97Z</time></trkpt><trkpt lat="30.769997965592154" lon="-6.522122320411282"><ele>1137.0</ele><time>2026-03-26T10:23:39.969Z</time></trkpt><trkpt lat="30.769867048346057" lon="-6.5221825034643945"><ele>1137.0</ele><time>2026-03-26T10:23:40.969Z</time></trkpt><trkpt lat="30.769719920015042" lon="-6.522230266188279"><ele>1137.0</ele><time>2026-03-26T10:23:41.969Z</time></trkpt><trkpt lat="30.76954189731647" lon="-6.52226113977625"><ele>1134.6666666666667</ele><time>2026-03-26T10:23:42.969Z</time></trkpt><trkpt lat="30.769346296515472" lon="-6.5222752836158575"><ele>1132.3333333333335</ele><time>2026-03-26T10:23:43.969Z</time></trkpt><trkpt lat="30.769162181592026" lon="-6.522269498197667"><ele>1130.0</ele><time>2026-03-26T10:23:44.969Z</time></trkpt><trkpt lat="30.76900171114193" lon="-6.522245849051267"><ele>1130.0</ele><time>2026-03-26T10:23:45.969Z</time></trkpt><trkpt lat="30.768862837851128" lon="-6.522193576149607"><ele>1130.0</ele><time>2026-03-26T10:23:46.969Z</time></trkpt><trkpt lat="30.768743596467317" lon="-6.5221219322602835"><ele>1130.0</ele><time>2026-03-26T10:23:47.969Z</time></trkpt><trkpt lat="30.76862975584763" lon="-6.522049880092784"><ele>1130.0</ele><time>2026-03-26T10:23:48.969Z</time></trkpt><trkpt lat="30.768520085037352" lon="-6.522015993817316"><ele>1130.4</ele><time>2026-03-26T10:23:49.969Z</time></trkpt><trkpt lat="30.76841246982167" lon="-6.521988900065451"><ele>1130.8</ele><time>2026-03-26T10:23:50.969Z</time></trkpt><trkpt lat="30.76831438053809" lon="-6.522010934608178"><ele>1131.2</ele><time>2026-03-26T10:23:51.969Z</time></trkpt><trkpt lat="30.768221534512477" lon="-6.522018862611378"><ele>1131.6</ele><time>2026-03-26T10:23:52.969Z</time></trkpt><trkpt lat="30.76817988666594" lon="-6.522136987240191"><ele>1132.0</ele><time>2026-03-26T10:23:53.969Z</time></trkpt><trkpt lat="30.768142311475504" lon="-6.522243093778026"><ele>1132.0</ele><time>2026-03-26T10:23:54.969Z</time></trkpt><trkpt lat="30.768112124518826" lon="-6.522357964701317"><ele>1132.0</ele><time>2026-03-26T10:23:55.969Z</time></trkpt><trkpt lat="30.76808964076548" lon="-6.522511189020943"><ele>1132.0</ele><time>2026-03-26T10:23:56.969Z</time></trkpt><trkpt lat="30.768063286595744" lon="-6.522673470915913"><ele>1132.0</ele><time>2026-03-26T10:23:57.969Z</time></trkpt><trkpt lat="30.768018611806863" lon="-6.522840712636618"><ele>1131.6666666666665</ele><time>2026-03-26T10:23:58.969Z</time></trkpt><trkpt lat="30.767956999260484" lon="-6.523006171889942"><ele>1131.3333333333333</ele><time>2026-03-26T10:23:59.969Z</time></trkpt><trkpt lat="30.767886673091386" lon="-6.523182745946096"><ele>1131.0</ele><time>2026-03-26T10:24:00.969Z</time></trkpt><trkpt lat="30.76781425234235" lon="-6.5233605458161525"><ele>1131.0</ele><time>2026-03-26T10:24:01.969Z</time></trkpt><trkpt lat="30.767753135756433" lon="-6.523518115294675"><ele>1131.0</ele><time>2026-03-26T10:24:02.969Z</time></trkpt><trkpt lat="30.76769830589553" lon="-6.52366404011195"><ele>1131.0</ele><time>2026-03-26T10:24:03.969Z</time></trkpt><trkpt lat="30.76764333135908" lon="-6.523810349798915"><ele>1131.0</ele><time>2026-03-26T10:24:04.969Z</time></trkpt><trkpt lat="30.76758778868441" lon="-6.523954460577616"><ele>1135.0</ele><time>2026-03-26T10:24:05.969Z</time></trkpt><trkpt lat="30.767533453207346" lon="-6.524093002296515"><ele>1139.0</ele><time>2026-03-26T10:24:06.969Z</time></trkpt><trkpt lat="30.767477248819517" lon="-6.524234115266709"><ele>1143.0</ele><time>2026-03-26T10:24:07.969Z</time></trkpt><trkpt lat="30.76740772407929" lon="-6.524365725952252"><ele>1147.0</ele><time>2026-03-26T10:24:08.969Z</time></trkpt><trkpt lat="30.767374112980946" lon="-6.524526634037651"><ele>1148.3333333333333</ele><time>2026-03-26T10:24:09.969Z</time></trkpt><trkpt lat="30.76729923989746" lon="-6.524686167075818"><ele>1149.6666666666667</ele><time>2026-03-26T10:24:10.969Z</time></trkpt><trkpt lat="30.767224447197233" lon="-6.524850119910989"><ele>1151.0</ele><time>2026-03-26T10:24:11.969Z</time></trkpt><trkpt lat="30.767151736145554" lon="-6.525018931196008"><ele>1151.0</ele><time>2026-03-26T10:24:12.969Z</time></trkpt><trkpt lat="30.767071672167646" lon="-6.525187895395247"><ele>1151.0</ele><time>2026-03-26T10:24:13.969Z</time></trkpt><trkpt lat="30.766985250733597" lon="-6.525356171365012"><ele>1151.0</ele><time>2026-03-26T10:24:14.969Z</time></trkpt><trkpt lat="30.766898636046026" lon="-6.5255258674884455"><ele>1152.6666666666667</ele><time>2026-03-26T10:24:15.969Z</time></trkpt><trkpt lat="30.766819380868853" lon="-6.525684060156189"><ele>1154.3333333333333</ele><time>2026-03-26T10:24:16.969Z</time></trkpt><trkpt lat="30.766735661446177" lon="-6.52583960206443"><ele>1156.0</ele><time>2026-03-26T10:24:17.969Z</time></trkpt><trkpt lat="30.766651463920137" lon="-6.525992835656671"><ele>1156.0</ele><time>2026-03-26T10:24:18.969Z</time></trkpt><trkpt lat="30.766575429719083" lon="-6.526138006804793"><ele>1156.0</ele><time>2026-03-26T10:24:19.969Z</time></trkpt><trkpt lat="30.76650138260991" lon="-6.526273597612913"><ele>1156.0</ele><time>2026-03-26T10:24:20.969Z</time></trkpt><trkpt lat="30.76642701186281" lon="-6.526397267829125"><ele>1156.0</ele><time>2026-03-26T10:24:21.969Z</time></trkpt><trkpt lat="30.76636350170878" lon="-6.526505687089186"><ele>1154.75</ele><time>2026-03-26T10:24:22.969Z</time></trkpt><trkpt lat="30.766306548227234" lon="-6.526609741001325"><ele>1153.5</ele><time>2026-03-26T10:24:23.969Z</time></trkpt><trkpt lat="30.76625163688107" lon="-6.526710807472185"><ele>1152.25</ele><time>2026-03-26T10:24:24.969Z</time></trkpt><trkpt lat="30.76618358479033" lon="-6.5268319271599005"><ele>1151.0</ele><time>2026-03-26T10:24:25.969Z</time></trkpt><trkpt lat="30.766070234838867" lon="-6.526938139538972"><ele>1151.6666666666667</ele><time>2026-03-26T10:24:26.969Z</time></trkpt><trkpt lat="30.76592511397194" lon="-6.527014238004636"><ele>1152.3333333333333</ele><time>2026-03-26T10:24:27.969Z</time></trkpt><trkpt lat="30.765772463873866" lon="-6.527080026566194"><ele>1153.0</ele><time>2026-03-26T10:24:28.969Z</time></trkpt><trkpt lat="30.765615064344917" lon="-6.527147605234587"><ele>1153.0</ele><time>2026-03-26T10:24:29.969Z</time></trkpt><trkpt lat="30.76545119402051" lon="-6.527224048462815"><ele>1153.0</ele><time>2026-03-26T10:24:30.969Z</time></trkpt><trkpt lat="30.765283885671533" lon="-6.527304250370444"><ele>1153.0</ele><time>2026-03-26T10:24:31.969Z</time></trkpt><trkpt lat="30.765122746219" lon="-6.527385384829806"><ele>1151.6666666666665</ele><time>2026-03-26T10:24:32.969Z</time></trkpt><trkpt lat="30.76495675218484" lon="-6.527482411569983"><ele>1150.3333333333333</ele><time>2026-03-26T10:24:33.969Z</time></trkpt><trkpt lat="30.76479271092436" lon="-6.527585632048081"><ele>1149.0</ele><time>2026-03-26T10:24:34.969Z</time></trkpt><trkpt lat="30.76466347537672" lon="-6.527744278421019"><ele>1148.6666666666667</ele><time>2026-03-26T10:24:35.969Z</time></trkpt><trkpt lat="30.764528998219568" lon="-6.527933782681119"><ele>1148.3333333333335</ele><time>2026-03-26T10:24:36.969Z</time></trkpt><trkpt lat="30.764395152262967" lon="-6.5281208360465275"><ele>1148.0</ele><time>2026-03-26T10:24:37.969Z</time></trkpt><trkpt lat="30.76425312861964" lon="-6.5282800009378485"><ele>1148.0</ele><time>2026-03-26T10:24:38.969Z</time></trkpt><trkpt lat="30.764116270000137" lon="-6.528431234568938"><ele>1148.0</ele><time>2026-03-26T10:24:39.969Z</time></trkpt><trkpt lat="30.7639840416705" lon="-6.5285519550222775"><ele>1148.0</ele><time>2026-03-26T10:24:40.969Z</time></trkpt><trkpt lat="30.763873017271127" lon="-6.528673104458053"><ele>1148.0</ele><time>2026-03-26T10:24:41.969Z</time></trkpt><trkpt lat="30.76376926331311" lon="-6.528794256455724"><ele>1148.0</ele><time>2026-03-26T10:24:42.969Z</time></trkpt><trkpt lat="30.76362235696904" lon="-6.5289057700870545"><ele>1148.0</ele><time>2026-03-26T10:24:43.969Z</time></trkpt><trkpt lat="30.763454888288106" lon="-6.528981220097615"><ele>1148.3333333333335</ele><time>2026-03-26T10:24:44.969Z</time></trkpt><trkpt lat="30.76328752259679" lon="-6.529079377118479"><ele>1148.6666666666667</ele><time>2026-03-26T10:24:45.969Z</time></trkpt><trkpt lat="30.763139500123728" lon="-6.529197192418973"><ele>1149.0</ele><time>2026-03-26T10:24:46.969Z</time></trkpt><trkpt lat="30.763006284614185" lon="-6.529356087417829"><ele>1149.0</ele><time>2026-03-26T10:24:47.969Z</time></trkpt><trkpt lat="30.762877675586953" lon="-6.529551851076447"><ele>1149.0</ele><time>2026-03-26T10:24:48.969Z</time></trkpt><trkpt lat="30.762737942862277" lon="-6.529746441307933"><ele>1149.0</ele><time>2026-03-26T10:24:49.969Z</time></trkpt><trkpt lat="30.76259378889233" lon="-6.529959250943833"><ele>1149.3333333333333</ele><time>2026-03-26T10:24:50.969Z</time></trkpt><trkpt lat="30.76245713143758" lon="-6.530158609122249"><ele>1149.6666666666665</ele><time>2026-03-26T10:24:51.969Z</time></trkpt><trkpt lat="30.762354305493265" lon="-6.5303395037664576"><ele>1150.0</ele><time>2026-03-26T10:24:52.969Z</time></trkpt><trkpt lat="30.762262996567017" lon="-6.530503751944548"><ele>1150.0</ele><time>2026-03-26T10:24:53.969Z</time></trkpt><trkpt lat="30.762176901641762" lon="-6.530662807795404"><ele>1150.0</ele><time>2026-03-26T10:24:54.969Z</time></trkpt><trkpt lat="30.762103475524086" lon="-6.530822386358237"><ele>1150.0</ele><time>2026-03-26T10:24:55.969Z</time></trkpt><trkpt lat="30.762062540691222" lon="-6.530985396659626"><ele>1150.0</ele><time>2026-03-26T10:24:56.969Z</time></trkpt><trkpt lat="30.76205468884401" lon="-6.531151532922035"><ele>1150.0</ele><time>2026-03-26T10:24:57.969Z</time></trkpt><trkpt lat="30.762046611611826" lon="-6.531337817561018"><ele>1150.0</ele><time>2026-03-26T10:24:58.969Z</time></trkpt><trkpt lat="30.762037083059333" lon="-6.5315339778192865"><ele>1151.6666666666665</ele><time>2026-03-26T10:24:59.969Z</time></trkpt><trkpt lat="30.76202503239721" lon="-6.531753681616924"><ele>1153.3333333333333</ele><time>2026-03-26T10:25:00.969Z</time></trkpt><trkpt lat="30.762013946921304" lon="-6.531965131999196"><ele>1155.0</ele><time>2026-03-26T10:25:01.969Z</time></trkpt><trkpt lat="30.76200025971546" lon="-6.532154003333907"><ele>1156.3333333333333</ele><time>2026-03-26T10:25:02.969Z</time></trkpt><trkpt lat="30.761972165268368" lon="-6.532320000671373"><ele>1157.6666666666665</ele><time>2026-03-26T10:25:03.969Z</time></trkpt><trkpt lat="30.76190389915222" lon="-6.532478262530563"><ele>1159.0</ele><time>2026-03-26T10:25:04.969Z</time></trkpt><trkpt lat="30.761782227909954" lon="-6.532624175770692"><ele>1158.3333333333333</ele><time>2026-03-26T10:25:05.969Z</time></trkpt><trkpt lat="30.76165514109223" lon="-6.532776579143789"><ele>1157.6666666666667</ele><time>2026-03-26T10:25:06.969Z</time></trkpt><trkpt lat="30.761526995311286" lon="-6.53294144206686"><ele>1157.0</ele><time>2026-03-26T10:25:07.969Z</time></trkpt><trkpt lat="30.761395473336833" lon="-6.533106221459448"><ele>1157.0</ele><time>2026-03-26T10:25:08.969Z</time></trkpt><trkpt lat="30.76124690834147" lon="-6.533259861760503"><ele>1157.0</ele><time>2026-03-26T10:25:09.969Z</time></trkpt><trkpt lat="30.76108925144666" lon="-6.533401200338744"><ele>1157.0</ele><time>2026-03-26T10:25:10.969Z</time></trkpt><trkpt lat="30.76093803395327" lon="-6.533563213617272"><ele>1160.3333333333335</ele><time>2026-03-26T10:25:11.968Z</time></trkpt><trkpt lat="30.760794447699354" lon="-6.5337157319515775"><ele>1163.6666666666667</ele><time>2026-03-26T10:25:12.968Z</time></trkpt><trkpt lat="30.760652946276462" lon="-6.533862414252752"><ele>1167.0</ele><time>2026-03-26T10:25:13.968Z</time></trkpt><trkpt lat="30.760517862698183" lon="-6.534010609708001"><ele>1167.0</ele><time>2026-03-26T10:25:14.968Z</time></trkpt><trkpt lat="30.7603937579602" lon="-6.534160076659144"><ele>1167.0</ele><time>2026-03-26T10:25:15.968Z</time></trkpt><trkpt lat="30.760286549960156" lon="-6.534295152368535"><ele>1167.0</ele><time>2026-03-26T10:25:16.968Z</time></trkpt><trkpt lat="30.760185814751516" lon="-6.534417896132728"><ele>1168.25</ele><time>2026-03-26T10:25:17.968Z</time></trkpt><trkpt lat="30.760082874397014" lon="-6.5345245023709"><ele>1169.5</ele><time>2026-03-26T10:25:18.968Z</time></trkpt><trkpt lat="30.75996987756373" lon="-6.534620057062542"><ele>1170.75</ele><time>2026-03-26T10:25:19.968Z</time></trkpt><trkpt lat="30.759843944470454" lon="-6.534718977797527"><ele>1172.0</ele><time>2026-03-26T10:25:20.968Z</time></trkpt><trkpt lat="30.7597050751188" lon="-6.534823169624592"><ele>1172.0</ele><time>2026-03-26T10:25:21.968Z</time></trkpt><trkpt lat="30.759550202289667" lon="-6.534936968094971"><ele>1172.0</ele><time>2026-03-26T10:25:22.968Z</time></trkpt><trkpt lat="30.7593991327469" lon="-6.535072798747503"><ele>1172.0</ele><time>2026-03-26T10:25:23.968Z</time></trkpt><trkpt lat="30.759253992510555" lon="-6.5351877697727785"><ele>1173.0</ele><time>2026-03-26T10:25:24.968Z</time></trkpt><trkpt lat="30.75912769453798" lon="-6.535292338378804"><ele>1174.0</ele><time>2026-03-26T10:25:25.968Z</time></trkpt><trkpt lat="30.759016123263585" lon="-6.53541749799539"><ele>1175.0</ele><time>2026-03-26T10:25:26.968Z</time></trkpt><trkpt lat="30.758909876566616" lon="-6.535559743226715"><ele>1171.6666666666667</ele><time>2026-03-26T10:25:27.968Z</time></trkpt><trkpt lat="30.7588021591541" lon="-6.535708583613364"><ele>1168.3333333333333</ele><time>2026-03-26T10:25:28.968Z</time></trkpt><trkpt lat="30.758692832644375" lon="-6.535866837036993"><ele>1165.0</ele><time>2026-03-26T10:25:29.968Z</time></trkpt><trkpt lat="30.758592773484892" lon="-6.5360108811018875"><ele>1167.3333333333333</ele><time>2026-03-26T10:25:30.968Z</time></trkpt><trkpt lat="30.758490683930933" lon="-6.536142875229214"><ele>1169.6666666666667</ele><time>2026-03-26T10:25:31.968Z</time></trkpt><trkpt lat="30.758332908525066" lon="-6.53625196539174"><ele>1172.0</ele><time>2026-03-26T10:25:32.968Z</time></trkpt><trkpt lat="30.75817289547169" lon="-6.536393785553714"><ele>1172.0</ele><time>2026-03-26T10:25:33.968Z</time></trkpt><trkpt lat="30.75800876366001" lon="-6.536505273664381"><ele>1172.0</ele><time>2026-03-26T10:25:34.968Z</time></trkpt><trkpt lat="30.757862684622562" lon="-6.536604469065585"><ele>1172.0</ele><time>2026-03-26T10:25:35.968Z</time></trkpt><trkpt lat="30.75772575307192" lon="-6.536694317809113"><ele>1172.6666666666667</ele><time>2026-03-26T10:25:36.969Z</time></trkpt><trkpt lat="30.757583366325473" lon="-6.536758498974171"><ele>1173.3333333333333</ele><time>2026-03-26T10:25:37.969Z</time></trkpt><trkpt lat="30.757437115685946" lon="-6.5368358233042745"><ele>1174.0</ele><time>2026-03-26T10:25:38.969Z</time></trkpt><trkpt lat="30.757279677719765" lon="-6.536905357356102"><ele>1174.0</ele><time>2026-03-26T10:25:39.969Z</time></trkpt><trkpt lat="30.75711759902821" lon="-6.5369679167673445"><ele>1174.0</ele><time>2026-03-26T10:25:40.969Z</time></trkpt><trkpt lat="30.75695738819395" lon="-6.537023569770396"><ele>1174.0</ele><time>2026-03-26T10:25:41.969Z</time></trkpt><trkpt lat="30.75679207916148" lon="-6.53707854105836"><ele>1171.6666666666665</ele><time>2026-03-26T10:25:42.969Z</time></trkpt><trkpt lat="30.756626117333365" lon="-6.5371332399938655"><ele>1169.3333333333333</ele><time>2026-03-26T10:25:43.969Z</time></trkpt><trkpt lat="30.756471078847895" lon="-6.537182064585479"><ele>1167.0</ele><time>2026-03-26T10:25:44.969Z</time></trkpt><trkpt lat="30.756308016884333" lon="-6.5372559782972"><ele>1167.0</ele><time>2026-03-26T10:25:45.97Z</time></trkpt><trkpt lat="30.756159174145097" lon="-6.537362535064921"><ele>1167.0</ele><time>2026-03-26T10:25:46.968Z</time></trkpt><trkpt lat="30.756005618732406" lon="-6.537454214165559"><ele>1167.0</ele><time>2026-03-26T10:25:47.968Z</time></trkpt><trkpt lat="30.755833759535424" lon="-6.537538478765422"><ele>1167.0</ele><time>2026-03-26T10:25:48.969Z</time></trkpt><trkpt lat="30.75564759168547" lon="-6.537557222536685"><ele>1167.0</ele><time>2026-03-26T10:25:49.969Z</time></trkpt><trkpt lat="30.755477468361605" lon="-6.5375349409301275"><ele>1167.0</ele><time>2026-03-26T10:25:50.969Z</time></trkpt><trkpt lat="30.755317483428957" lon="-6.537530403895072"><ele>1164.6666666666667</ele><time>2026-03-26T10:25:51.969Z</time></trkpt><trkpt lat="30.755158411186507" lon="-6.537542063422222"><ele>1162.3333333333335</ele><time>2026-03-26T10:25:52.969Z</time></trkpt><trkpt lat="30.75500626678209" lon="-6.5375735768764445"><ele>1160.0</ele><time>2026-03-26T10:25:53.969Z</time></trkpt><trkpt lat="30.75486484683772" lon="-6.537605962262548"><ele>1160.0</ele><time>2026-03-26T10:25:54.969Z</time></trkpt><trkpt lat="30.754736185004287" lon="-6.537653585173945"><ele>1160.0</ele><time>2026-03-26T10:25:55.969Z</time></trkpt><trkpt lat="30.754598097247943" lon="-6.537651004225814"><ele>1160.0</ele><time>2026-03-26T10:25:56.969Z</time></trkpt><trkpt lat="30.754470700716784" lon="-6.537608452904432"><ele>1160.0</ele><time>2026-03-26T10:25:57.969Z</time></trkpt><trkpt lat="30.754339495394422" lon="-6.537604654894632"><ele>1161.0</ele><time>2026-03-26T10:25:58.969Z</time></trkpt><trkpt lat="30.754218947838087" lon="-6.5376341318006075"><ele>1162.0</ele><time>2026-03-26T10:25:59.969Z</time></trkpt><trkpt lat="30.754123637919875" lon="-6.537734172761157"><ele>1163.0</ele><time>2026-03-26T10:26:00.969Z</time></trkpt><trkpt lat="30.75399688374419" lon="-6.5378141467562045"><ele>1164.0</ele><time>2026-03-26T10:26:01.969Z</time></trkpt><trkpt lat="30.753866458421417" lon="-6.537863353041282"><ele>1164.0</ele><time>2026-03-26T10:26:02.969Z</time></trkpt><trkpt lat="30.75372811556479" lon="-6.537874486829624"><ele>1164.0</ele><time>2026-03-26T10:26:03.969Z</time></trkpt><trkpt lat="30.753571486785617" lon="-6.537826643772565"><ele>1164.0</ele><time>2026-03-26T10:26:04.969Z</time></trkpt><trkpt lat="30.753397917352302" lon="-6.537774285561078"><ele>1164.0</ele><time>2026-03-26T10:26:05.969Z</time></trkpt><trkpt lat="30.753204308879376" lon="-6.5377103356477955"><ele>1164.0</ele><time>2026-03-26T10:26:06.969Z</time></trkpt><trkpt lat="30.753040707052605" lon="-6.537667542587394"><ele>1164.0</ele><time>2026-03-26T10:26:07.969Z</time></trkpt><trkpt lat="30.752901865439153" lon="-6.537632431690492"><ele>1164.0</ele><time>2026-03-26T10:26:08.969Z</time></trkpt><trkpt lat="30.7527769253021" lon="-6.537590545344382"><ele>1164.0</ele><time>2026-03-26T10:26:09.969Z</time></trkpt><trkpt lat="30.752666259672694" lon="-6.537515812225465"><ele>1164.0</ele><time>2026-03-26T10:26:10.969Z</time></trkpt><trkpt lat="30.752584479158003" lon="-6.537418753970195"><ele>1164.0</ele><time>2026-03-26T10:26:11.969Z</time></trkpt><trkpt lat="30.752521236376836" lon="-6.537316767299586"><ele>1163.0</ele><time>2026-03-26T10:26:12.969Z</time></trkpt><trkpt lat="30.752452046369843" lon="-6.537239779958202"><ele>1162.0</ele><time>2026-03-26T10:26:13.969Z</time></trkpt><trkpt lat="30.752370764281746" lon="-6.5372009860821745"><ele>1161.0</ele><time>2026-03-26T10:26:14.969Z</time></trkpt><trkpt lat="30.75227190265967" lon="-6.537221008949077"><ele>1160.0</ele><time>2026-03-26T10:26:15.969Z</time></trkpt><trkpt lat="30.752162829414598" lon="-6.537254425476071"><ele>1159.0</ele><time>2026-03-26T10:26:16.969Z</time></trkpt><trkpt lat="30.752036946751872" lon="-6.537298853879857"><ele>1159.0</ele><time>2026-03-26T10:26:17.969Z</time></trkpt><trkpt lat="30.75189722810084" lon="-6.537337462129683"><ele>1159.0</ele><time>2026-03-26T10:26:18.969Z</time></trkpt><trkpt lat="30.751765162306963" lon="-6.537393008959599"><ele>1159.0</ele><time>2026-03-26T10:26:19.969Z</time></trkpt><trkpt lat="30.75164074162872" lon="-6.537438618389828"><ele>1159.0</ele><time>2026-03-26T10:26:20.969Z</time></trkpt><trkpt lat="30.7515075186157" lon="-6.5374727113466875"><ele>1160.3333333333333</ele><time>2026-03-26T10:26:21.969Z</time></trkpt><trkpt lat="30.75136251858595" lon="-6.5374960957665"><ele>1161.6666666666667</ele><time>2026-03-26T10:26:22.969Z</time></trkpt><trkpt lat="30.75120375852442" lon="-6.537505715426673"><ele>1163.0</ele><time>2026-03-26T10:26:23.969Z</time></trkpt><trkpt lat="30.75103921080597" lon="-6.537507137914923"><ele>1164.3333333333335</ele><time>2026-03-26T10:26:24.969Z</time></trkpt><trkpt lat="30.750877557638837" lon="-6.537499652018269"><ele>1165.6666666666667</ele><time>2026-03-26T10:26:25.969Z</time></trkpt><trkpt lat="30.750699505755996" lon="-6.537494216160847"><ele>1167.0</ele><time>2026-03-26T10:26:26.969Z</time></trkpt><trkpt lat="30.750517914620026" lon="-6.537488248347597"><ele>1167.0</ele><time>2026-03-26T10:26:27.969Z</time></trkpt><trkpt lat="30.750334390971005" lon="-6.53747965771543"><ele>1167.0</ele><time>2026-03-26T10:26:28.969Z</time></trkpt><trkpt lat="30.750157544671993" lon="-6.537468974493149"><ele>1167.0</ele><time>2026-03-26T10:26:29.969Z</time></trkpt><trkpt lat="30.749983200187952" lon="-6.537459224451645"><ele>1166.6666666666667</ele><time>2026-03-26T10:26:30.969Z</time></trkpt><trkpt lat="30.749820108526595" lon="-6.537451585147805"><ele>1166.3333333333335</ele><time>2026-03-26T10:26:31.969Z</time></trkpt><trkpt lat="30.74966050648703" lon="-6.537436690494953"><ele>1166.0</ele><time>2026-03-26T10:26:32.969Z</time></trkpt><trkpt lat="30.74949956454785" lon="-6.537417886337904"><ele>1168.0</ele><time>2026-03-26T10:26:33.969Z</time></trkpt><trkpt lat="30.74932722943653" lon="-6.537397291672146"><ele>1170.0</ele><time>2026-03-26T10:26:34.969Z</time></trkpt><trkpt lat="30.74914437328956" lon="-6.537376199221085"><ele>1172.0</ele><time>2026-03-26T10:26:35.969Z</time></trkpt><trkpt lat="30.748952393386805" lon="-6.537346515878103"><ele>1172.0</ele><time>2026-03-26T10:26:36.969Z</time></trkpt><trkpt lat="30.74875773324765" lon="-6.537308943426098"><ele>1172.0</ele><time>2026-03-26T10:26:37.969Z</time></trkpt><trkpt lat="30.748566568109258" lon="-6.537263153839969"><ele>1172.0</ele><time>2026-03-26T10:26:38.969Z</time></trkpt><trkpt lat="30.748377859272313" lon="-6.5372151674193"><ele>1172.0</ele><time>2026-03-26T10:26:39.969Z</time></trkpt><trkpt lat="30.748195003944634" lon="-6.537162196998739"><ele>1172.0</ele><time>2026-03-26T10:26:40.969Z</time></trkpt><trkpt lat="30.748023990227207" lon="-6.537097153423407"><ele>1172.0</ele><time>2026-03-26T10:26:41.969Z</time></trkpt><trkpt lat="30.747854180527746" lon="-6.537014996251153"><ele>1173.0</ele><time>2026-03-26T10:26:42.969Z</time></trkpt><trkpt lat="30.747685936590923" lon="-6.5369110574904035"><ele>1174.0</ele><time>2026-03-26T10:26:43.969Z</time></trkpt><trkpt lat="30.74751743961666" lon="-6.536791922661374"><ele>1175.0</ele><time>2026-03-26T10:26:44.968Z</time></trkpt><trkpt lat="30.747344154079887" lon="-6.536667438829134"><ele>1175.0</ele><time>2026-03-26T10:26:45.968Z</time></trkpt><trkpt lat="30.747166866141868" lon="-6.5365401349105605"><ele>1175.0</ele><time>2026-03-26T10:26:46.968Z</time></trkpt><trkpt lat="30.746980435071773" lon="-6.536427383163844"><ele>1175.0</ele><time>2026-03-26T10:26:47.968Z</time></trkpt><trkpt lat="30.74680779022231" lon="-6.536286183919776"><ele>1175.3333333333335</ele><time>2026-03-26T10:26:48.968Z</time></trkpt><trkpt lat="30.74665590820316" lon="-6.53611529027226"><ele>1175.6666666666667</ele><time>2026-03-26T10:26:49.968Z</time></trkpt><trkpt lat="30.746497899166688" lon="-6.535946951112188"><ele>1176.0</ele><time>2026-03-26T10:26:50.968Z</time></trkpt><trkpt lat="30.746342611840532" lon="-6.535772186240764"><ele>1176.0</ele><time>2026-03-26T10:26:51.968Z</time></trkpt><trkpt lat="30.746176691618544" lon="-6.535599757571928"><ele>1176.0</ele><time>2026-03-26T10:26:52.968Z</time></trkpt><trkpt lat="30.746015211270336" lon="-6.535430058197995"><ele>1176.0</ele><time>2026-03-26T10:26:53.968Z</time></trkpt><trkpt lat="30.74585167976105" lon="-6.535261595509956"><ele>1176.3333333333333</ele><time>2026-03-26T10:26:54.968Z</time></trkpt><trkpt lat="30.745689056490193" lon="-6.535086930737892"><ele>1176.6666666666665</ele><time>2026-03-26T10:26:55.968Z</time></trkpt><trkpt lat="30.745524780293984" lon="-6.534911061913043"><ele>1177.0</ele><time>2026-03-26T10:26:56.968Z</time></trkpt><trkpt lat="30.74537486755997" lon="-6.534757160679323"><ele>1177.0</ele><time>2026-03-26T10:26:57.968Z</time></trkpt><trkpt lat="30.745220984440547" lon="-6.534621108766521"><ele>1177.0</ele><time>2026-03-26T10:26:58.968Z</time></trkpt><trkpt lat="30.745066319130586" lon="-6.534490624451118"><ele>1177.0</ele><time>2026-03-26T10:26:59.968Z</time></trkpt><trkpt lat="30.744919033078997" lon="-6.534348685413891"><ele>1178.6666666666665</ele><time>2026-03-26T10:27:00.968Z</time></trkpt><trkpt lat="30.74478170613847" lon="-6.534197059915741"><ele>1180.3333333333333</ele><time>2026-03-26T10:27:01.968Z</time></trkpt><trkpt lat="30.744649288851164" lon="-6.53405195188518"><ele>1182.0</ele><time>2026-03-26T10:27:02.968Z</time></trkpt><trkpt lat="30.74452174156875" lon="-6.533906963340864"><ele>1182.0</ele><time>2026-03-26T10:27:03.968Z</time></trkpt><trkpt lat="30.744399567610458" lon="-6.5337745165442245"><ele>1182.0</ele><time>2026-03-26T10:27:04.968Z</time></trkpt><trkpt lat="30.74427207370615" lon="-6.53364382917875"><ele>1182.0</ele><time>2026-03-26T10:27:05.968Z</time></trkpt><trkpt lat="30.744139107078432" lon="-6.533508007541321"><ele>1183.0</ele><time>2026-03-26T10:27:06.968Z</time></trkpt><trkpt lat="30.744004148644553" lon="-6.5333692877968215"><ele>1184.0</ele><time>2026-03-26T10:27:07.968Z</time></trkpt><trkpt lat="30.74388160272742" lon="-6.533241486936414"><ele>1185.0</ele><time>2026-03-26T10:27:08.968Z</time></trkpt><trkpt lat="30.743765425031967" lon="-6.533118580525455"><ele>1185.0</ele><time>2026-03-26T10:27:09.968Z</time></trkpt><trkpt lat="30.74364077705118" lon="-6.532987261800664"><ele>1185.0</ele><time>2026-03-26T10:27:10.968Z</time></trkpt><trkpt lat="30.74349415921294" lon="-6.5328678092886365"><ele>1185.0</ele><time>2026-03-26T10:27:11.968Z</time></trkpt><trkpt lat="30.7433447351353" lon="-6.5327275194032275"><ele>1188.3333333333333</ele><time>2026-03-26T10:27:12.968Z</time></trkpt><trkpt lat="30.743206991436733" lon="-6.53258291945059"><ele>1191.6666666666665</ele><time>2026-03-26T10:27:13.968Z</time></trkpt><trkpt lat="30.743058398271735" lon="-6.532458742607743"><ele>1195.0</ele><time>2026-03-26T10:27:14.968Z</time></trkpt><trkpt lat="30.742908308641642" lon="-6.532339133068692"><ele>1195.0</ele><time>2026-03-26T10:27:15.968Z</time></trkpt><trkpt lat="30.742756051690346" lon="-6.532221687373253"><ele>1195.0</ele><time>2026-03-26T10:27:16.968Z</time></trkpt><trkpt lat="30.742599648560944" lon="-6.532096411436271"><ele>1195.0</ele><time>2026-03-26T10:27:17.968Z</time></trkpt><trkpt lat="30.74243337912756" lon="-6.531962881933566"><ele>1196.5</ele><time>2026-03-26T10:27:18.968Z</time></trkpt><trkpt lat="30.742290917949642" lon="-6.531848057753988"><ele>1198.0</ele><time>2026-03-26T10:27:19.968Z</time></trkpt><trkpt lat="30.74217060627384" lon="-6.5317449332169675"><ele>1199.5</ele><time>2026-03-26T10:27:20.968Z</time></trkpt><trkpt lat="30.74208972256459" lon="-6.531671839025218"><ele>1201.0</ele><time>2026-03-26T10:27:21.968Z</time></trkpt><trkpt lat="30.74203534032506" lon="-6.531622885576386"><ele>1201.0</ele><time>2026-03-26T10:27:22.968Z</time></trkpt><trkpt lat="30.741957623139214" lon="-6.531548120451359"><ele>1201.0</ele><time>2026-03-26T10:27:24.968Z</time></trkpt><trkpt lat="30.741874811279732" lon="-6.531474934901303"><ele>1201.0</ele><time>2026-03-26T10:27:25.968Z</time></trkpt><trkpt lat="30.741780267154702" lon="-6.531413118677853"><ele>1201.0</ele><time>2026-03-26T10:27:26.968Z</time></trkpt><trkpt lat="30.74166876135536" lon="-6.531389332266169"><ele>1201.0</ele><time>2026-03-26T10:27:27.968Z</time></trkpt><trkpt lat="30.74155606918523" lon="-6.5314437857826375"><ele>1201.75</ele><time>2026-03-26T10:27:28.968Z</time></trkpt><trkpt lat="30.741451956574412" lon="-6.531534930713317"><ele>1202.5</ele><time>2026-03-26T10:27:29.968Z</time></trkpt><trkpt lat="30.741305871857538" lon="-6.531597785188259"><ele>1203.25</ele><time>2026-03-26T10:27:30.968Z</time></trkpt><trkpt lat="30.741156597832386" lon="-6.531619920899075"><ele>1204.0</ele><time>2026-03-26T10:27:31.968Z</time></trkpt><trkpt lat="30.741002791032912" lon="-6.531579963726875"><ele>1206.5</ele><time>2026-03-26T10:27:32.968Z</time></trkpt><trkpt lat="30.740857961756564" lon="-6.5315369954910825"><ele>1209.0</ele><time>2026-03-26T10:27:33.968Z</time></trkpt><trkpt lat="30.740717689502073" lon="-6.531481687238179"><ele>1211.5</ele><time>2026-03-26T10:27:34.968Z</time></trkpt><trkpt lat="30.740583456574445" lon="-6.53140086560067"><ele>1214.0</ele><time>2026-03-26T10:27:35.968Z</time></trkpt><trkpt lat="30.740454914021452" lon="-6.531314690263635"><ele>1214.3333333333335</ele><time>2026-03-26T10:27:36.968Z</time></trkpt><trkpt lat="30.740329670144906" lon="-6.531211277722858"><ele>1214.6666666666667</ele><time>2026-03-26T10:27:37.968Z</time></trkpt><trkpt lat="30.740199283810487" lon="-6.531107169875731"><ele>1215.0</ele><time>2026-03-26T10:27:38.968Z</time></trkpt><trkpt lat="30.74007135706163" lon="-6.531002971163781"><ele>1216.0</ele><time>2026-03-26T10:27:39.968Z</time></trkpt><trkpt lat="30.739959639132824" lon="-6.5309049991619785"><ele>1217.0</ele><time>2026-03-26T10:27:40.968Z</time></trkpt><trkpt lat="30.73984232147644" lon="-6.530809630881078"><ele>1218.0</ele><time>2026-03-26T10:27:41.968Z</time></trkpt><trkpt lat="30.73972437376828" lon="-6.530739840945698"><ele>1219.0</ele><time>2026-03-26T10:27:42.969Z</time></trkpt><trkpt lat="30.73962237116356" lon="-6.530676759892491"><ele>1219.0</ele><time>2026-03-26T10:27:43.968Z</time></trkpt><trkpt lat="30.739529041404495" lon="-6.530646120296137"><ele>1219.0</ele><time>2026-03-26T10:27:44.968Z</time></trkpt><trkpt lat="30.739436178515742" lon="-6.530650593124126"><ele>1219.0</ele><time>2026-03-26T10:27:45.968Z</time></trkpt><trkpt lat="30.739348999103726" lon="-6.530692251107703"><ele>1219.0</ele><time>2026-03-26T10:27:46.968Z</time></trkpt><trkpt lat="30.739243043958403" lon="-6.530746565404107"><ele>1219.0</ele><time>2026-03-26T10:27:47.968Z</time></trkpt><trkpt lat="30.739112400414474" lon="-6.530790553460776"><ele>1219.75</ele><time>2026-03-26T10:27:48.969Z</time></trkpt><trkpt lat="30.738971683201196" lon="-6.530790175426982"><ele>1220.5</ele><time>2026-03-26T10:27:49.969Z</time></trkpt><trkpt lat="30.738832242717436" lon="-6.530764720557601"><ele>1221.25</ele><time>2026-03-26T10:27:50.969Z</time></trkpt><trkpt lat="30.738694204558136" lon="-6.530724363624211"><ele>1222.0</ele><time>2026-03-26T10:27:51.968Z</time></trkpt><trkpt lat="30.73857385298165" lon="-6.530710218706259"><ele>1223.0</ele><time>2026-03-26T10:27:52.969Z</time></trkpt><trkpt lat="30.738475938887927" lon="-6.53073524315756"><ele>1224.0</ele><time>2026-03-26T10:27:53.969Z</time></trkpt><trkpt lat="30.73837840335611" lon="-6.530804143632546"><ele>1225.0</ele><time>2026-03-26T10:27:54.968Z</time></trkpt><trkpt lat="30.738285208647657" lon="-6.530911070896951"><ele>1226.0</ele><time>2026-03-26T10:27:55.969Z</time></trkpt><trkpt lat="30.738169042592666" lon="-6.53102778676889"><ele>1226.0</ele><time>2026-03-26T10:27:56.969Z</time></trkpt><trkpt lat="30.73802210006898" lon="-6.531142089533096"><ele>1226.0</ele><time>2026-03-26T10:27:57.969Z</time></trkpt><trkpt lat="30.737854522433533" lon="-6.531231059089018"><ele>1226.0</ele><time>2026-03-26T10:27:58.969Z</time></trkpt><trkpt lat="30.737685884984742" lon="-6.531350518397719"><ele>1226.3333333333335</ele><time>2026-03-26T10:27:59.969Z</time></trkpt><trkpt lat="30.7374920082021" lon="-6.531450372232401"><ele>1226.6666666666667</ele><time>2026-03-26T10:28:00.969Z</time></trkpt><trkpt lat="30.737290071832597" lon="-6.531554139038229"><ele>1227.0</ele><time>2026-03-26T10:28:01.969Z</time></trkpt><trkpt lat="30.73710016992089" lon="-6.531664315099509"><ele>1227.0</ele><time>2026-03-26T10:28:02.969Z</time></trkpt><trkpt lat="30.736920858789517" lon="-6.531775212159746"><ele>1227.0</ele><time>2026-03-26T10:28:03.969Z</time></trkpt><trkpt lat="30.736745636804812" lon="-6.531868274715311"><ele>1227.0</ele><time>2026-03-26T10:28:04.969Z</time></trkpt><trkpt lat="30.736580715505934" lon="-6.531955125600019"><ele>1230.0</ele><time>2026-03-26T10:28:05.969Z</time></trkpt><trkpt lat="30.736416857950342" lon="-6.532041894561859"><ele>1233.0</ele><time>2026-03-26T10:28:06.969Z</time></trkpt><trkpt lat="30.736254404486267" lon="-6.532137543188192"><ele>1236.0</ele><time>2026-03-26T10:28:07.969Z</time></trkpt><trkpt lat="30.73608441058165" lon="-6.532237760517236"><ele>1237.6666666666667</ele><time>2026-03-26T10:28:08.969Z</time></trkpt><trkpt lat="30.735917595838515" lon="-6.532336103620527"><ele>1239.3333333333335</ele><time>2026-03-26T10:28:09.969Z</time></trkpt><trkpt lat="30.735753789867854" lon="-6.5324329210081515"><ele>1241.0</ele><time>2026-03-26T10:28:10.969Z</time></trkpt><trkpt lat="30.73558066432451" lon="-6.5325252806183824"><ele>1241.0</ele><time>2026-03-26T10:28:11.969Z</time></trkpt><trkpt lat="30.73539941417504" lon="-6.532613251505235"><ele>1241.0</ele><time>2026-03-26T10:28:12.969Z</time></trkpt><trkpt lat="30.73523688531937" lon="-6.53269213589882"><ele>1241.0</ele><time>2026-03-26T10:28:13.969Z</time></trkpt><trkpt lat="30.735085153656172" lon="-6.532765779807181"><ele>1243.3333333333335</ele><time>2026-03-26T10:28:14.969Z</time></trkpt><trkpt lat="30.73494292311328" lon="-6.532834228152638"><ele>1245.6666666666667</ele><time>2026-03-26T10:28:15.969Z</time></trkpt><trkpt lat="30.73479152867969" lon="-6.532883315278884"><ele>1248.0</ele><time>2026-03-26T10:28:16.969Z</time></trkpt><trkpt lat="30.7346413311145" lon="-6.532927685403049"><ele>1248.0</ele><time>2026-03-26T10:28:17.969Z</time></trkpt><trkpt lat="30.73447681917251" lon="-6.532955287393798"><ele>1248.0</ele><time>2026-03-26T10:28:18.969Z</time></trkpt><trkpt lat="30.734299221022727" lon="-6.532969763535919"><ele>1248.0</ele><time>2026-03-26T10:28:19.969Z</time></trkpt><trkpt lat="30.73411585100675" lon="-6.532980470487727"><ele>1249.3333333333333</ele><time>2026-03-26T10:28:20.969Z</time></trkpt><trkpt lat="30.733948788402387" lon="-6.5330127505275755"><ele>1250.6666666666665</ele><time>2026-03-26T10:28:21.969Z</time></trkpt><trkpt lat="30.7338087008595" lon="-6.53305403757908"><ele>1252.0</ele><time>2026-03-26T10:28:22.969Z</time></trkpt><trkpt lat="30.733679684405075" lon="-6.533106335993351"><ele>1252.6666666666665</ele><time>2026-03-26T10:28:23.969Z</time></trkpt><trkpt lat="30.733548591833394" lon="-6.533170967819537"><ele>1253.3333333333333</ele><time>2026-03-26T10:28:24.969Z</time></trkpt><trkpt lat="30.733395167059086" lon="-6.533225833120964"><ele>1254.0</ele><time>2026-03-26T10:28:25.969Z</time></trkpt><trkpt lat="30.733233459852148" lon="-6.533314001090152"><ele>1254.0</ele><time>2026-03-26T10:28:26.969Z</time></trkpt><trkpt lat="30.73305910018854" lon="-6.533403181829126"><ele>1254.0</ele><time>2026-03-26T10:28:27.969Z</time></trkpt><trkpt lat="30.732898608165616" lon="-6.533480414576663"><ele>1254.0</ele><time>2026-03-26T10:28:28.969Z</time></trkpt><trkpt lat="30.73273915369874" lon="-6.533556720682741"><ele>1254.5</ele><time>2026-03-26T10:28:29.969Z</time></trkpt><trkpt lat="30.7325934217898" lon="-6.533623108163768"><ele>1255.0</ele><time>2026-03-26T10:28:30.969Z</time></trkpt><trkpt lat="30.73245944648597" lon="-6.533683015779796"><ele>1255.5</ele><time>2026-03-26T10:28:31.969Z</time></trkpt><trkpt lat="30.73233472293209" lon="-6.53373671801193"><ele>1256.0</ele><time>2026-03-26T10:28:32.969Z</time></trkpt><trkpt lat="30.73221528093221" lon="-6.533793217705259"><ele>1256.0</ele><time>2026-03-26T10:28:33.969Z</time></trkpt><trkpt lat="30.73210866802356" lon="-6.533845605763633"><ele>1256.0</ele><time>2026-03-26T10:28:34.969Z</time></trkpt><trkpt lat="30.73200270722289" lon="-6.533909603735718"><ele>1256.0</ele><time>2026-03-26T10:28:35.969Z</time></trkpt><trkpt lat="30.731903603084753" lon="-6.533985202334175"><ele>1256.0</ele><time>2026-03-26T10:28:36.969Z</time></trkpt><trkpt lat="30.731822961498004" lon="-6.5340592187314055"><ele>1255.6</ele><time>2026-03-26T10:28:37.969Z</time></trkpt><trkpt lat="30.73177298449111" lon="-6.534143084504762"><ele>1255.1999999999998</ele><time>2026-03-26T10:28:38.969Z</time></trkpt><trkpt lat="30.731760745163687" lon="-6.5342497086691615"><ele>1254.8000000000002</ele><time>2026-03-26T10:28:39.969Z</time></trkpt><trkpt lat="30.731785742042184" lon="-6.534374829204951"><ele>1254.4</ele><time>2026-03-26T10:28:40.969Z</time></trkpt><trkpt lat="30.731832248827402" lon="-6.534510565218742"><ele>1254.0</ele><time>2026-03-26T10:28:41.969Z</time></trkpt><trkpt lat="30.731879140693653" lon="-6.534648590298425"><ele>1254.0</ele><time>2026-03-26T10:28:42.969Z</time></trkpt><trkpt lat="30.7319124289035" lon="-6.53476916860917"><ele>1254.0</ele><time>2026-03-26T10:28:43.969Z</time></trkpt><trkpt lat="30.731936306220536" lon="-6.5348829491930465"><ele>1254.0</ele><time>2026-03-26T10:28:44.969Z</time></trkpt><trkpt lat="30.731912567712335" lon="-6.535006575068214"><ele>1254.0</ele><time>2026-03-26T10:28:45.969Z</time></trkpt><trkpt lat="30.73181323189211" lon="-6.535084577252468"><ele>1254.0</ele><time>2026-03-26T10:28:46.969Z</time></trkpt><trkpt lat="30.731692233306713" lon="-6.535088913643219"><ele>1254.0</ele><time>2026-03-26T10:28:47.969Z</time></trkpt><trkpt lat="30.731569875648805" lon="-6.535074894699307"><ele>1254.0</ele><time>2026-03-26T10:28:48.969Z</time></trkpt><trkpt lat="30.73143433756167" lon="-6.535048820515011"><ele>1254.0</ele><time>2026-03-26T10:28:49.969Z</time></trkpt><trkpt lat="30.731287388207" lon="-6.535020108337145"><ele>1254.0</ele><time>2026-03-26T10:28:50.969Z</time></trkpt><trkpt lat="30.731122037290955" lon="-6.535000893948495"><ele>1253.3333333333333</ele><time>2026-03-26T10:28:51.969Z</time></trkpt><trkpt lat="30.73094246283555" lon="-6.534992377381917"><ele>1252.6666666666665</ele><time>2026-03-26T10:28:52.969Z</time></trkpt><trkpt lat="30.73074533593195" lon="-6.534985874118618"><ele>1252.0</ele><time>2026-03-26T10:28:53.969Z</time></trkpt><trkpt lat="30.730539546215883" lon="-6.5349790726483015"><ele>1252.0</ele><time>2026-03-26T10:28:54.969Z</time></trkpt><trkpt lat="30.730348700797425" lon="-6.534975012273153"><ele>1252.0</ele><time>2026-03-26T10:28:55.969Z</time></trkpt><trkpt lat="30.73017327061425" lon="-6.534978906909387"><ele>1252.0</ele><time>2026-03-26T10:28:56.969Z</time></trkpt><trkpt lat="30.73000590823788" lon="-6.534982980603469"><ele>1251.0</ele><time>2026-03-26T10:28:57.969Z</time></trkpt><trkpt lat="30.729839696770032" lon="-6.534982716274555"><ele>1250.0</ele><time>2026-03-26T10:28:58.969Z</time></trkpt><trkpt lat="30.729690560733896" lon="-6.534982420312472"><ele>1249.0</ele><time>2026-03-26T10:28:59.969Z</time></trkpt><trkpt lat="30.729526376000262" lon="-6.534991611717945"><ele>1250.0</ele><time>2026-03-26T10:29:00.969Z</time></trkpt><trkpt lat="30.72934714643792" lon="-6.535002048613902"><ele>1251.0</ele><time>2026-03-26T10:29:01.969Z</time></trkpt><trkpt lat="30.729186280950948" lon="-6.535018183325924"><ele>1252.0</ele><time>2026-03-26T10:29:02.969Z</time></trkpt><trkpt lat="30.729041052357605" lon="-6.535031229855181"><ele>1252.0</ele><time>2026-03-26T10:29:03.968Z</time></trkpt><trkpt lat="30.728908264499385" lon="-6.53505057113099"><ele>1252.0</ele><time>2026-03-26T10:29:04.968Z</time></trkpt><trkpt lat="30.728778329365507" lon="-6.535071440539586"><ele>1252.0</ele><time>2026-03-26T10:29:05.968Z</time></trkpt><trkpt lat="30.728638646113012" lon="-6.535088357208885"><ele>1252.0</ele><time>2026-03-26T10:29:06.968Z</time></trkpt><trkpt lat="30.72849697650988" lon="-6.53508648831067"><ele>1251.75</ele><time>2026-03-26T10:29:07.968Z</time></trkpt><trkpt lat="30.72835383952519" lon="-6.535072556807029"><ele>1251.5</ele><time>2026-03-26T10:29:08.968Z</time></trkpt><trkpt lat="30.728218313528725" lon="-6.535037750384484"><ele>1251.25</ele><time>2026-03-26T10:29:09.968Z</time></trkpt><trkpt lat="30.728077915385793" lon="-6.534996060988014"><ele>1251.0</ele><time>2026-03-26T10:29:10.968Z</time></trkpt><trkpt lat="30.7279534957418" lon="-6.534960273091087"><ele>1251.0</ele><time>2026-03-26T10:29:11.968Z</time></trkpt><trkpt lat="30.727828190375124" lon="-6.534935331259073"><ele>1251.0</ele><time>2026-03-26T10:29:12.968Z</time></trkpt><trkpt lat="30.727703764251267" lon="-6.534927298479636"><ele>1251.0</ele><time>2026-03-26T10:29:13.968Z</time></trkpt><trkpt lat="30.727571164512256" lon="-6.534962447821198"><ele>1251.0</ele><time>2026-03-26T10:29:14.968Z</time></trkpt><trkpt lat="30.727444172300558" lon="-6.534984322797012"><ele>1249.6</ele><time>2026-03-26T10:29:15.968Z</time></trkpt><trkpt lat="30.727321667225528" lon="-6.534985543110942"><ele>1248.1999999999998</ele><time>2026-03-26T10:29:16.968Z</time></trkpt><trkpt lat="30.727210091421057" lon="-6.5349923055411185"><ele>1246.8000000000002</ele><time>2026-03-26T10:29:17.968Z</time></trkpt><trkpt lat="30.727104511278252" lon="-6.534971314574968"><ele>1245.4</ele><time>2026-03-26T10:29:18.968Z</time></trkpt><trkpt lat="30.72701300559072" lon="-6.534925205751703"><ele>1244.0</ele><time>2026-03-26T10:29:19.968Z</time></trkpt><trkpt lat="30.726928999178156" lon="-6.534859685888942"><ele>1243.2</ele><time>2026-03-26T10:29:20.968Z</time></trkpt><trkpt lat="30.726852748410234" lon="-6.5347933171118555"><ele>1242.4</ele><time>2026-03-26T10:29:21.968Z</time></trkpt><trkpt lat="30.726783352813026" lon="-6.53472826976035"><ele>1241.6</ele><time>2026-03-26T10:29:22.968Z</time></trkpt><trkpt lat="30.726736994103806" lon="-6.534652127006365"><ele>1240.8</ele><time>2026-03-26T10:29:23.968Z</time></trkpt><trkpt lat="30.726665705698014" lon="-6.534585586141527"><ele>1240.0</ele><time>2026-03-26T10:29:25.968Z</time></trkpt><trkpt lat="30.726557273752913" lon="-6.534813443345239"><ele>1240.0</ele><time>2026-03-26T10:29:27.968Z</time></trkpt><trkpt lat="30.726522106043497" lon="-6.534879456341924"><ele>1240.0</ele><time>2026-03-26T10:29:28.968Z</time></trkpt><trkpt lat="30.726460429274454" lon="-6.535001968293385"><ele>1240.0</ele><time>2026-03-26T10:29:30.968Z</time></trkpt><trkpt lat="30.72639087625156" lon="-6.5351375553152184"><ele>1240.0</ele><time>2026-03-26T10:29:32.968Z</time></trkpt><trkpt lat="30.72634336227123" lon="-6.535192198254171"><ele>1240.0</ele><time>2026-03-26T10:29:33.968Z</time></trkpt><trkpt lat="30.726385234648557" lon="-6.5352589912680115"><ele>1240.0</ele><time>2026-03-26T10:29:34.968Z</time></trkpt><trkpt lat="30.72638346900843" lon="-6.535337217121416"><ele>1240.0</ele><time>2026-03-26T10:29:35.968Z</time></trkpt><trkpt lat="30.726381766948467" lon="-6.535412626490672"><ele>1240.0</ele><time>2026-03-26T10:29:36.968Z</time></trkpt><trkpt lat="30.72642551882305" lon="-6.535650665248987"><ele>1240.0</ele><time>2026-03-26T10:29:37.968Z</time></trkpt><trkpt lat="30.72637576633945" lon="-6.535753045187384"><ele>1240.0</ele><time>2026-03-26T10:29:38.968Z</time></trkpt><trkpt lat="30.726243667641537" lon="-6.535904797252391"><ele>1241.0</ele><time>2026-03-26T10:29:39.968Z</time></trkpt><trkpt lat="30.726061119795624" lon="-6.535909113162043"><ele>1242.0</ele><time>2026-03-26T10:29:40.968Z</time></trkpt><trkpt lat="30.725951430257705" lon="-6.535984638709206"><ele>1243.0</ele><time>2026-03-26T10:29:41.968Z</time></trkpt><trkpt lat="30.72589646508694" lon="-6.53614598733982"><ele>1246.0</ele><time>2026-03-26T10:29:42.968Z</time></trkpt><trkpt lat="30.725844779489762" lon="-6.536321277791244"><ele>1249.0</ele><time>2026-03-26T10:29:43.968Z</time></trkpt><trkpt lat="30.72579521938644" lon="-6.536516029019728"><ele>1252.0</ele><time>2026-03-26T10:29:44.968Z</time></trkpt><trkpt lat="30.72575226540072" lon="-6.53671097748219"><ele>1252.0</ele><time>2026-03-26T10:29:45.968Z</time></trkpt><trkpt lat="30.725712168830892" lon="-6.536908677465724"><ele>1252.0</ele><time>2026-03-26T10:29:46.968Z</time></trkpt><trkpt lat="30.725668281120893" lon="-6.53710612050419"><ele>1252.0</ele><time>2026-03-26T10:29:47.968Z</time></trkpt><trkpt lat="30.725623626958054" lon="-6.537306249325497"><ele>1254.0</ele><time>2026-03-26T10:29:48.968Z</time></trkpt><trkpt lat="30.7256272234594" lon="-6.537508625858974"><ele>1256.0</ele><time>2026-03-26T10:29:49.968Z</time></trkpt><trkpt lat="30.725672555345533" lon="-6.537681189044081"><ele>1258.0</ele><time>2026-03-26T10:29:50.968Z</time></trkpt><trkpt lat="30.725713476096747" lon="-6.537851939511915"><ele>1261.5</ele><time>2026-03-26T10:29:51.968Z</time></trkpt><trkpt lat="30.72582949866842" lon="-6.538173900316303"><ele>1265.0</ele><time>2026-03-26T10:29:52.967Z</time></trkpt><trkpt lat="30.725660211077695" lon="-6.538584187481655"><ele>1265.0</ele><time>2026-03-26T10:29:53.967Z</time></trkpt><trkpt lat="30.725353106340066" lon="-6.538582529542451"><ele>1265.0</ele><time>2026-03-26T10:29:54.968Z</time></trkpt><trkpt lat="30.7252212219956" lon="-6.538745397887755"><ele>1267.0</ele><time>2026-03-26T10:29:55.967Z</time></trkpt><trkpt lat="30.725113019648695" lon="-6.538994919661701"><ele>1269.0</ele><time>2026-03-26T10:29:56.967Z</time></trkpt><trkpt lat="30.725126205850497" lon="-6.539250919082627"><ele>1269.0</ele><time>2026-03-26T10:29:57.967Z</time></trkpt><trkpt lat="30.725161757360066" lon="-6.539461557603067"><ele>1269.0</ele><time>2026-03-26T10:29:58.967Z</time></trkpt><trkpt lat="30.72511494442284" lon="-6.539670800027128"><ele>1269.0</ele><time>2026-03-26T10:29:59.967Z</time></trkpt><trkpt lat="30.725074120291964" lon="-6.53985057851793"><ele>1272.0</ele><time>2026-03-26T10:30:00.967Z</time></trkpt><trkpt lat="30.724991372354935" lon="-6.539993763561426"><ele>1275.0</ele><time>2026-03-26T10:30:01.968Z</time></trkpt><trkpt lat="30.724928687610046" lon="-6.5401583522831555"><ele>1278.0</ele><time>2026-03-26T10:30:02.968Z</time></trkpt><trkpt lat="30.724889221948352" lon="-6.5403593623312615"><ele>1280.6666666666667</ele><time>2026-03-26T10:30:03.968Z</time></trkpt><trkpt lat="30.7248802335708" lon="-6.540557422640826"><ele>1283.3333333333335</ele><time>2026-03-26T10:30:04.968Z</time></trkpt><trkpt lat="30.724873603487207" lon="-6.54075802647837"><ele>1286.0</ele><time>2026-03-26T10:30:05.968Z</time></trkpt><trkpt lat="30.724886491848817" lon="-6.540966708690892"><ele>1286.0</ele><time>2026-03-26T10:30:06.968Z</time></trkpt><trkpt lat="30.724867069358627" lon="-6.541177483143905"><ele>1286.0</ele><time>2026-03-26T10:30:07.968Z</time></trkpt><trkpt lat="30.72485035193451" lon="-6.541394170551276"><ele>1286.0</ele><time>2026-03-26T10:30:08.968Z</time></trkpt><trkpt lat="30.72483529657437" lon="-6.54161138093666"><ele>1289.0</ele><time>2026-03-26T10:30:09.968Z</time></trkpt><trkpt lat="30.724818295837732" lon="-6.541828375304967"><ele>1292.0</ele><time>2026-03-26T10:30:10.968Z</time></trkpt><trkpt lat="30.72480113395717" lon="-6.542049266960709"><ele>1295.0</ele><time>2026-03-26T10:30:11.968Z</time></trkpt><trkpt lat="30.724784340193384" lon="-6.542276392953362"><ele>1296.6666666666667</ele><time>2026-03-26T10:30:12.968Z</time></trkpt><trkpt lat="30.724765579130704" lon="-6.542510175819799"><ele>1298.3333333333333</ele><time>2026-03-26T10:30:13.968Z</time></trkpt><trkpt lat="30.72473194548668" lon="-6.5427483574611465"><ele>1300.0</ele><time>2026-03-26T10:30:14.968Z</time></trkpt><trkpt lat="30.724744997515433" lon="-6.542978083440336"><ele>1301.6666666666665</ele><time>2026-03-26T10:30:15.968Z</time></trkpt><trkpt lat="30.72473836234665" lon="-6.54320447616373"><ele>1303.3333333333333</ele><time>2026-03-26T10:30:16.968Z</time></trkpt><trkpt lat="30.7247381315651" lon="-6.543430147041246"><ele>1305.0</ele><time>2026-03-26T10:30:17.968Z</time></trkpt><trkpt lat="30.724751756528594" lon="-6.54366231505216"><ele>1306.6666666666667</ele><time>2026-03-26T10:30:18.968Z</time></trkpt><trkpt lat="30.724773194812812" lon="-6.543907936979209"><ele>1308.3333333333335</ele><time>2026-03-26T10:30:19.968Z</time></trkpt><trkpt lat="30.7248091216528" lon="-6.544170074589072"><ele>1310.0</ele><time>2026-03-26T10:30:20.968Z</time></trkpt><trkpt lat="30.724847616634825" lon="-6.544430189167595"><ele>1310.6666666666667</ele><time>2026-03-26T10:30:21.968Z</time></trkpt><trkpt lat="30.724899004596892" lon="-6.544682414506314"><ele>1311.3333333333333</ele><time>2026-03-26T10:30:22.968Z</time></trkpt><trkpt lat="30.724938134109262" lon="-6.544932103343392"><ele>1312.0</ele><time>2026-03-26T10:30:23.968Z</time></trkpt><trkpt lat="30.724995705401085" lon="-6.5451762290103295"><ele>1313.0</ele><time>2026-03-26T10:30:24.968Z</time></trkpt><trkpt lat="30.72506707875062" lon="-6.545411818264892"><ele>1314.0</ele><time>2026-03-26T10:30:25.968Z</time></trkpt><trkpt lat="30.725106869355606" lon="-6.545649601845169"><ele>1315.0</ele><time>2026-03-26T10:30:26.968Z</time></trkpt><trkpt lat="30.725129285528723" lon="-6.5458836322553315"><ele>1315.0</ele><time>2026-03-26T10:30:27.968Z</time></trkpt><trkpt lat="30.725053077577904" lon="-6.5460952137532455"><ele>1315.0</ele><time>2026-03-26T10:30:28.968Z</time></trkpt><trkpt lat="30.724912828394167" lon="-6.546327047246651"><ele>1315.0</ele><time>2026-03-26T10:30:29.968Z</time></trkpt><trkpt lat="30.72487086209484" lon="-6.546624292865741"><ele>1316.6666666666665</ele><time>2026-03-26T10:30:30.968Z</time></trkpt><trkpt lat="30.724895421799083" lon="-6.546885397887457"><ele>1318.3333333333333</ele><time>2026-03-26T10:30:31.968Z</time></trkpt><trkpt lat="30.724953550316062" lon="-6.547116783306164"><ele>1320.0</ele><time>2026-03-26T10:30:32.968Z</time></trkpt><trkpt lat="30.725038030598352" lon="-6.5473396512620194"><ele>1320.0</ele><time>2026-03-26T10:30:33.968Z</time></trkpt><trkpt lat="30.725171214803332" lon="-6.547549533658788"><ele>1320.0</ele><time>2026-03-26T10:30:34.968Z</time></trkpt><trkpt lat="30.72530303664526" lon="-6.547727723647218"><ele>1320.0</ele><time>2026-03-26T10:30:35.968Z</time></trkpt><trkpt lat="30.725438226248603" lon="-6.547896074278258"><ele>1327.6666666666667</ele><time>2026-03-26T10:30:36.968Z</time></trkpt><trkpt lat="30.725555747420334" lon="-6.548071076505474"><ele>1335.3333333333335</ele><time>2026-03-26T10:30:37.968Z</time></trkpt><trkpt lat="30.72563739933169" lon="-6.548266579914393"><ele>1343.0</ele><time>2026-03-26T10:30:38.968Z</time></trkpt><trkpt lat="30.725767346761963" lon="-6.548516591010577"><ele>1347.5</ele><time>2026-03-26T10:30:39.968Z</time></trkpt><trkpt lat="30.725785549439966" lon="-6.548744954179758"><ele>1352.0</ele><time>2026-03-26T10:30:40.968Z</time></trkpt><trkpt lat="30.725351552968668" lon="-6.548841456163086"><ele>1352.0</ele><time>2026-03-26T10:30:41.968Z</time></trkpt><trkpt lat="30.72526462857305" lon="-6.54930372101771"><ele>1352.0</ele><time>2026-03-26T10:30:42.968Z</time></trkpt><trkpt lat="30.72532389127483" lon="-6.549541181239256"><ele>1355.3333333333335</ele><time>2026-03-26T10:30:43.968Z</time></trkpt><trkpt lat="30.725365092791744" lon="-6.549732380389503"><ele>1358.6666666666667</ele><time>2026-03-26T10:30:44.968Z</time></trkpt><trkpt lat="30.72540640361678" lon="-6.549930974970957"><ele>1362.0</ele><time>2026-03-26T10:30:45.968Z</time></trkpt><trkpt lat="30.725454234501683" lon="-6.550148647978323"><ele>1364.0</ele><time>2026-03-26T10:30:46.968Z</time></trkpt><trkpt lat="30.725479661509816" lon="-6.550388094030233"><ele>1366.0</ele><time>2026-03-26T10:30:47.968Z</time></trkpt><trkpt lat="30.725509024549346" lon="-6.550640509439264"><ele>1368.0</ele><time>2026-03-26T10:30:48.968Z</time></trkpt><trkpt lat="30.725527207413883" lon="-6.5509071812106425"><ele>1368.0</ele><time>2026-03-26T10:30:49.968Z</time></trkpt><trkpt lat="30.725539668458765" lon="-6.551189544033271"><ele>1368.0</ele><time>2026-03-26T10:30:50.968Z</time></trkpt><trkpt lat="30.72553231427361" lon="-6.551484225213707"><ele>1370.0</ele><time>2026-03-26T10:30:51.968Z</time></trkpt><trkpt lat="30.725522133658956" lon="-6.551758207937041"><ele>1372.0</ele><time>2026-03-26T10:30:52.968Z</time></trkpt><trkpt lat="30.725510190745464" lon="-6.551994642804744"><ele>1374.0</ele><time>2026-03-26T10:30:53.968Z</time></trkpt><trkpt lat="30.72550464066819" lon="-6.552191302191872"><ele>1375.75</ele><time>2026-03-26T10:30:54.968Z</time></trkpt><trkpt lat="30.725504532200368" lon="-6.552371407075291"><ele>1377.5</ele><time>2026-03-26T10:30:55.968Z</time></trkpt><trkpt lat="30.725508278757694" lon="-6.552533106772954"><ele>1379.25</ele><time>2026-03-26T10:30:56.968Z</time></trkpt><trkpt lat="30.725501493796497" lon="-6.552665968160341"><ele>1381.0</ele><time>2026-03-26T10:30:57.968Z</time></trkpt><trkpt lat="30.725520833523095" lon="-6.552795240910056"><ele>1381.5</ele><time>2026-03-26T10:30:58.968Z</time></trkpt><trkpt lat="30.72554270586617" lon="-6.552901665105833"><ele>1382.0</ele><time>2026-03-26T10:30:59.968Z</time></trkpt><trkpt lat="30.725545797041523" lon="-6.553053680919437"><ele>1382.5</ele><time>2026-03-26T10:31:00.968Z</time></trkpt><trkpt lat="30.725554685590666" lon="-6.553218320615904"><ele>1383.0</ele><time>2026-03-26T10:31:01.968Z</time></trkpt><trkpt lat="30.725562438363237" lon="-6.553409819754193"><ele>1383.0</ele><time>2026-03-26T10:31:02.968Z</time></trkpt><trkpt lat="30.725552433326865" lon="-6.553603086827953"><ele>1383.0</ele><time>2026-03-26T10:31:03.968Z</time></trkpt><trkpt lat="30.725532912649054" lon="-6.553814041382276"><ele>1383.0</ele><time>2026-03-26T10:31:04.968Z</time></trkpt><trkpt lat="30.725443939418742" lon="-6.554030411219081"><ele>1383.5</ele><time>2026-03-26T10:31:05.968Z</time></trkpt><trkpt lat="30.725419899741595" lon="-6.554293513739209"><ele>1384.0</ele><time>2026-03-26T10:31:06.968Z</time></trkpt><trkpt lat="30.72542720578531" lon="-6.554563033004585"><ele>1384.0</ele><time>2026-03-26T10:31:07.968Z</time></trkpt><trkpt lat="30.725407264751297" lon="-6.554846875330884"><ele>1384.0</ele><time>2026-03-26T10:31:08.968Z</time></trkpt><trkpt lat="30.72540903434553" lon="-6.555126794003304"><ele>1383.3333333333333</ele><time>2026-03-26T10:31:09.968Z</time></trkpt><trkpt lat="30.72541829776436" lon="-6.555371889170699"><ele>1382.6666666666667</ele><time>2026-03-26T10:31:10.968Z</time></trkpt><trkpt lat="30.725418885297984" lon="-6.55560736719533"><ele>1382.0</ele><time>2026-03-26T10:31:11.968Z</time></trkpt><trkpt lat="30.72541543211379" lon="-6.555834143102836"><ele>1382.0</ele><time>2026-03-26T10:31:12.968Z</time></trkpt><trkpt lat="30.72540279549137" lon="-6.556053485898728"><ele>1382.0</ele><time>2026-03-26T10:31:13.968Z</time></trkpt><trkpt lat="30.725366700523757" lon="-6.556262372028477"><ele>1382.0</ele><time>2026-03-26T10:31:14.968Z</time></trkpt><trkpt lat="30.72530807515836" lon="-6.556461664795483"><ele>1385.6666666666667</ele><time>2026-03-26T10:31:15.968Z</time></trkpt><trkpt lat="30.72519641370389" lon="-6.556631456878491"><ele>1389.3333333333333</ele><time>2026-03-26T10:31:16.968Z</time></trkpt><trkpt lat="30.725030999411814" lon="-6.556695009164125"><ele>1393.0</ele><time>2026-03-26T10:31:17.968Z</time></trkpt><trkpt lat="30.72486627611936" lon="-6.556809439693637"><ele>1393.0</ele><time>2026-03-26T10:31:18.968Z</time></trkpt><trkpt lat="30.724863230804065" lon="-6.5566079002494355"><ele>1393.0</ele><time>2026-03-26T10:31:19.968Z</time></trkpt><trkpt lat="30.724713156936083" lon="-6.5574082548573225"><ele>1399.3333333333333</ele><time>2026-03-26T10:31:20.968Z</time></trkpt><trkpt lat="30.724590625813818" lon="-6.557598134999059"><ele>1405.6666666666667</ele><time>2026-03-26T10:31:21.968Z</time></trkpt><trkpt lat="30.724485848929252" lon="-6.5577950115017805"><ele>1412.0</ele><time>2026-03-26T10:31:22.968Z</time></trkpt><trkpt lat="30.724397156011474" lon="-6.5579990977770395"><ele>1407.0</ele><time>2026-03-26T10:31:23.968Z</time></trkpt><trkpt lat="30.724318717090096" lon="-6.558195267420812"><ele>1402.0</ele><time>2026-03-26T10:31:24.968Z</time></trkpt><trkpt lat="30.72424905844129" lon="-6.558409065575662"><ele>1397.0</ele><time>2026-03-26T10:31:25.967Z</time></trkpt><trkpt lat="30.72419509348566" lon="-6.558637495708391"><ele>1399.3333333333335</ele><time>2026-03-26T10:31:26.967Z</time></trkpt><trkpt lat="30.724148210545234" lon="-6.558870302438732"><ele>1401.6666666666667</ele><time>2026-03-26T10:31:27.967Z</time></trkpt><trkpt lat="30.724101564300625" lon="-6.559098937392081"><ele>1404.0</ele><time>2026-03-26T10:31:28.967Z</time></trkpt><trkpt lat="30.724060027311754" lon="-6.559314093171102"><ele>1404.0</ele><time>2026-03-26T10:31:29.967Z</time></trkpt><trkpt lat="30.724015859229354" lon="-6.559533228897542"><ele>1404.0</ele><time>2026-03-26T10:31:30.967Z</time></trkpt><trkpt lat="30.72400190298279" lon="-6.559738210040663"><ele>1404.0</ele><time>2026-03-26T10:31:31.967Z</time></trkpt><trkpt lat="30.72398772822663" lon="-6.55992922571985"><ele>1402.3333333333333</ele><time>2026-03-26T10:31:32.967Z</time></trkpt><trkpt lat="30.723994561857285" lon="-6.560120067096327"><ele>1400.6666666666665</ele><time>2026-03-26T10:31:33.967Z</time></trkpt><trkpt lat="30.724005824752556" lon="-6.5603567834369745"><ele>1399.0</ele><time>2026-03-26T10:31:34.967Z</time></trkpt><trkpt lat="30.723977296943158" lon="-6.560555506458121"><ele>1396.6666666666665</ele><time>2026-03-26T10:31:35.967Z</time></trkpt><trkpt lat="30.723938875729182" lon="-6.560746648606751"><ele>1394.3333333333333</ele><time>2026-03-26T10:31:36.967Z</time></trkpt><trkpt lat="30.72387572611943" lon="-6.560933900580799"><ele>1392.0</ele><time>2026-03-26T10:31:37.967Z</time></trkpt><trkpt lat="30.723818611777595" lon="-6.56108493738829"><ele>1389.6666666666667</ele><time>2026-03-26T10:31:38.967Z</time></trkpt><trkpt lat="30.72378094612319" lon="-6.561256093418754"><ele>1387.3333333333335</ele><time>2026-03-26T10:31:39.967Z</time></trkpt><trkpt lat="30.72375302844789" lon="-6.561421727874201"><ele>1385.0</ele><time>2026-03-26T10:31:40.967Z</time></trkpt><trkpt lat="30.723735018128224" lon="-6.5615983845689065"><ele>1385.0</ele><time>2026-03-26T10:31:41.967Z</time></trkpt><trkpt lat="30.72372839072395" lon="-6.561772872230365"><ele>1385.0</ele><time>2026-03-26T10:31:42.967Z</time></trkpt><trkpt lat="30.72372434673141" lon="-6.5619534130845345"><ele>1385.0</ele><time>2026-03-26T10:31:43.967Z</time></trkpt><trkpt lat="30.72374120230266" lon="-6.56211435926394"><ele>1385.0</ele><time>2026-03-26T10:31:44.967Z</time></trkpt><trkpt lat="30.723755547667608" lon="-6.56229635162002"><ele>1384.3333333333335</ele><time>2026-03-26T10:31:45.967Z</time></trkpt><trkpt lat="30.723759478135403" lon="-6.562617626596643"><ele>1383.6666666666667</ele><time>2026-03-26T10:31:46.967Z</time></trkpt><trkpt lat="30.723712618367834" lon="-6.562799000260769"><ele>1383.0</ele><time>2026-03-26T10:31:47.967Z</time></trkpt><trkpt lat="30.723522230818418" lon="-6.563140890490348"><ele>1388.6666666666667</ele><time>2026-03-26T10:31:48.967Z</time></trkpt><trkpt lat="30.723317262319824" lon="-6.56327791042754"><ele>1394.3333333333335</ele><time>2026-03-26T10:31:49.967Z</time></trkpt><trkpt lat="30.723174003242228" lon="-6.563362965284391"><ele>1400.0</ele><time>2026-03-26T10:31:50.967Z</time></trkpt><trkpt lat="30.72304798861102" lon="-6.563437736410146"><ele>1400.0</ele><time>2026-03-26T10:31:51.967Z</time></trkpt><trkpt lat="30.722903997987782" lon="-6.563496672823279"><ele>1400.0</ele><time>2026-03-26T10:31:52.967Z</time></trkpt><trkpt lat="30.722804720024012" lon="-6.563546834921682"><ele>1400.0</ele><time>2026-03-26T10:31:53.967Z</time></trkpt><trkpt lat="30.722706027582298" lon="-6.56361242362448"><ele>1400.0</ele><time>2026-03-26T10:31:54.967Z</time></trkpt><trkpt lat="30.722629099483527" lon="-6.563663441189045"><ele>1398.8333333333335</ele><time>2026-03-26T10:31:55.967Z</time></trkpt><trkpt lat="30.722554534710277" lon="-6.5637128912894624"><ele>1397.6666666666667</ele><time>2026-03-26T10:31:56.967Z</time></trkpt><trkpt lat="30.722478675814838" lon="-6.5637771996457195"><ele>1396.5</ele><time>2026-03-26T10:31:58.968Z</time></trkpt><trkpt lat="30.722452798553782" lon="-6.5638587498016525"><ele>1395.3333333333333</ele><time>2026-03-26T10:32:03.967Z</time></trkpt><trkpt lat="30.722397500143092" lon="-6.563894516622084"><ele>1394.1666666666665</ele><time>2026-03-26T10:32:07.967Z</time></trkpt><trkpt lat="30.72232230988091" lon="-6.5638969348164"><ele>1393.0</ele><time>2026-03-26T10:34:40.967Z</time></trkpt><trkpt lat="30.722214376082288" lon="-6.563945536690595"><ele>1393.0</ele><time>2026-03-26T10:34:42.967Z</time></trkpt><trkpt lat="30.72215375116259" lon="-6.563977872422866"><ele>1393.0</ele><time>2026-03-26T10:34:43.967Z</time></trkpt><trkpt lat="30.722091870514678" lon="-6.564024289262404"><ele>1393.0</ele><time>2026-03-26T10:34:44.966Z</time></trkpt><trkpt lat="30.722030357290635" lon="-6.564078786807519"><ele>1393.0</ele><time>2026-03-26T10:34:45.966Z</time></trkpt><trkpt lat="30.721962871724177" lon="-6.564146882789359"><ele>1393.0</ele><time>2026-03-26T10:34:46.966Z</time></trkpt><trkpt lat="30.721888104088144" lon="-6.56423897750751"><ele>1393.0</ele><time>2026-03-26T10:34:47.966Z</time></trkpt><trkpt lat="30.72180450332188" lon="-6.564357739009145"><ele>1396.5</ele><time>2026-03-26T10:34:48.966Z</time></trkpt><trkpt lat="30.721713865644585" lon="-6.564480415628642"><ele>1400.0</ele><time>2026-03-26T10:34:49.966Z</time></trkpt><trkpt lat="30.72162715604768" lon="-6.564592623459963"><ele>1403.5</ele><time>2026-03-26T10:34:50.966Z</time></trkpt><trkpt lat="30.721546224377768" lon="-6.5647130421998785"><ele>1407.0</ele><time>2026-03-26T10:34:51.966Z</time></trkpt><trkpt lat="30.721490497546103" lon="-6.564871970666532"><ele>1407.0</ele><time>2026-03-26T10:34:52.966Z</time></trkpt><trkpt lat="30.721358094501035" lon="-6.5649442422073765"><ele>1407.0</ele><time>2026-03-26T10:34:53.966Z</time></trkpt><trkpt lat="30.72125605475475" lon="-6.565034379424704"><ele>1407.0</ele><time>2026-03-26T10:34:54.966Z</time></trkpt><trkpt lat="30.721151224660552" lon="-6.565134065202306"><ele>1407.0</ele><time>2026-03-26T10:34:55.966Z</time></trkpt><trkpt lat="30.72105231354157" lon="-6.565230786183852"><ele>1408.25</ele><time>2026-03-26T10:34:56.966Z</time></trkpt><trkpt lat="30.720949604895768" lon="-6.565326044107889"><ele>1409.5</ele><time>2026-03-26T10:34:57.966Z</time></trkpt><trkpt lat="30.720848186606354" lon="-6.565418713317987"><ele>1410.75</ele><time>2026-03-26T10:34:58.966Z</time></trkpt><trkpt lat="30.72074167624604" lon="-6.565507377703737"><ele>1412.0</ele><time>2026-03-26T10:34:59.966Z</time></trkpt><trkpt lat="30.720636570209734" lon="-6.565601209414628"><ele>1412.0</ele><time>2026-03-26T10:35:00.966Z</time></trkpt><trkpt lat="30.720524467261402" lon="-6.565689191747733"><ele>1412.0</ele><time>2026-03-26T10:35:01.966Z</time></trkpt><trkpt lat="30.720401345908652" lon="-6.565774953151183"><ele>1412.0</ele><time>2026-03-26T10:35:02.966Z</time></trkpt><trkpt lat="30.72027600529893" lon="-6.565856309811565"><ele>1412.0</ele><time>2026-03-26T10:35:03.966Z</time></trkpt><trkpt lat="30.72014522176242" lon="-6.565948596824992"><ele>1410.0</ele><time>2026-03-26T10:35:04.966Z</time></trkpt><trkpt lat="30.719998013752033" lon="-6.566039777262555"><ele>1408.0</ele><time>2026-03-26T10:35:05.966Z</time></trkpt><trkpt lat="30.71982003718011" lon="-6.566142279695587"><ele>1406.0</ele><time>2026-03-26T10:35:06.966Z</time></trkpt><trkpt lat="30.71963468947149" lon="-6.566260132176219"><ele>1406.0</ele><time>2026-03-26T10:35:07.966Z</time></trkpt><trkpt lat="30.71943702190823" lon="-6.5664079507255595"><ele>1406.0</ele><time>2026-03-26T10:35:08.966Z</time></trkpt><trkpt lat="30.719253827225636" lon="-6.5665803803309295"><ele>1428.0</ele><time>2026-03-26T10:35:09.966Z</time></trkpt><trkpt lat="30.719077733700423" lon="-6.566783963948094"><ele>1450.0</ele><time>2026-03-26T10:35:10.966Z</time></trkpt><trkpt lat="30.718902355559653" lon="-6.566987238404298"><ele>1455.0</ele><time>2026-03-26T10:35:11.966Z</time></trkpt><trkpt lat="30.71871638837061" lon="-6.567188743244679"><ele>1460.0</ele><time>2026-03-26T10:35:12.966Z</time></trkpt><trkpt lat="30.718543104882137" lon="-6.567375535182879"><ele>1460.0</ele><time>2026-03-26T10:35:13.966Z</time></trkpt><trkpt lat="30.718390594614213" lon="-6.567529341510972"><ele>1460.0</ele><time>2026-03-26T10:35:14.966Z</time></trkpt><trkpt lat="30.71824976080833" lon="-6.567661754888687"><ele>1460.0</ele><time>2026-03-26T10:35:15.966Z</time></trkpt><trkpt lat="30.71810640352125" lon="-6.567767731420165"><ele>1460.0</ele><time>2026-03-26T10:35:16.966Z</time></trkpt><trkpt lat="30.717967525327953" lon="-6.567852082744683"><ele>1460.0</ele><time>2026-03-26T10:35:17.966Z</time></trkpt><trkpt lat="30.717807627063863" lon="-6.56790822314305"><ele>1460.0</ele><time>2026-03-26T10:35:18.966Z</time></trkpt><trkpt lat="30.71765818807658" lon="-6.56795191130576"><ele>1456.0</ele><time>2026-03-26T10:35:19.966Z</time></trkpt><trkpt lat="30.717505265309875" lon="-6.567986335611925"><ele>1452.0</ele><time>2026-03-26T10:35:20.966Z</time></trkpt><trkpt lat="30.717347222284765" lon="-6.56801296535351"><ele>1448.0</ele><time>2026-03-26T10:35:21.966Z</time></trkpt><trkpt lat="30.717183105028866" lon="-6.568038025434488"><ele>1448.0</ele><time>2026-03-26T10:35:22.966Z</time></trkpt><trkpt lat="30.717021277719684" lon="-6.568066001377137"><ele>1448.0</ele><time>2026-03-26T10:35:23.966Z</time></trkpt><trkpt lat="30.71685336598582" lon="-6.568120004588441"><ele>1448.0</ele><time>2026-03-26T10:35:24.966Z</time></trkpt><trkpt lat="30.71667953727534" lon="-6.568193726338341"><ele>1451.6666666666667</ele><time>2026-03-26T10:35:25.966Z</time></trkpt><trkpt lat="30.71649894679134" lon="-6.5683168043690205"><ele>1455.3333333333333</ele><time>2026-03-26T10:35:26.966Z</time></trkpt><trkpt lat="30.716334837375207" lon="-6.568456070668738"><ele>1459.0</ele><time>2026-03-26T10:35:27.966Z</time></trkpt><trkpt lat="30.716166128516814" lon="-6.56859569847776"><ele>1459.3333333333333</ele><time>2026-03-26T10:35:28.966Z</time></trkpt><trkpt lat="30.716001473881313" lon="-6.568737028666585"><ele>1459.6666666666667</ele><time>2026-03-26T10:35:29.966Z</time></trkpt><trkpt lat="30.715848006559465" lon="-6.568870142570306"><ele>1460.0</ele><time>2026-03-26T10:35:30.966Z</time></trkpt><trkpt lat="30.715698428831697" lon="-6.568992524709728"><ele>1460.0</ele><time>2026-03-26T10:35:31.966Z</time></trkpt><trkpt lat="30.71554450695915" lon="-6.569120075980782"><ele>1460.0</ele><time>2026-03-26T10:35:32.966Z</time></trkpt><trkpt lat="30.715388559891352" lon="-6.569255638886374"><ele>1460.0</ele><time>2026-03-26T10:35:33.966Z</time></trkpt><trkpt lat="30.715241876369873" lon="-6.56941335032282"><ele>1465.3333333333335</ele><time>2026-03-26T10:35:34.966Z</time></trkpt><trkpt lat="30.715103283902828" lon="-6.569609273488797"><ele>1470.6666666666667</ele><time>2026-03-26T10:35:35.966Z</time></trkpt><trkpt lat="30.71497513580323" lon="-6.569819065814054"><ele>1476.0</ele><time>2026-03-26T10:35:36.966Z</time></trkpt><trkpt lat="30.714870268638744" lon="-6.570052098457257"><ele>1476.0</ele><time>2026-03-26T10:35:37.966Z</time></trkpt><trkpt lat="30.714776109829746" lon="-6.570302043712179"><ele>1476.0</ele><time>2026-03-26T10:35:38.966Z</time></trkpt><trkpt lat="30.71470143797928" lon="-6.570579183584618"><ele>1474.0</ele><time>2026-03-26T10:35:39.966Z</time></trkpt><trkpt lat="30.71464212221955" lon="-6.57084195235314"><ele>1472.0</ele><time>2026-03-26T10:35:40.966Z</time></trkpt><trkpt lat="30.714604397704644" lon="-6.571058871159294"><ele>1470.0</ele><time>2026-03-26T10:35:41.966Z</time></trkpt><trkpt lat="30.714554309993638" lon="-6.571258564861032"><ele>1468.6666666666667</ele><time>2026-03-26T10:35:42.966Z</time></trkpt><trkpt lat="30.714497177402592" lon="-6.571456042003514"><ele>1467.3333333333335</ele><time>2026-03-26T10:35:43.966Z</time></trkpt><trkpt lat="30.7144386979183" lon="-6.571646741557696"><ele>1466.0</ele><time>2026-03-26T10:35:44.966Z</time></trkpt><trkpt lat="30.714382589280667" lon="-6.571837137932507"><ele>1473.0</ele><time>2026-03-26T10:35:45.966Z</time></trkpt><trkpt lat="30.714320981061913" lon="-6.5720244857704495"><ele>1480.0</ele><time>2026-03-26T10:35:46.966Z</time></trkpt><trkpt lat="30.714262458416552" lon="-6.572213949998255"><ele>1487.0</ele><time>2026-03-26T10:35:47.966Z</time></trkpt><trkpt lat="30.7141957245548" lon="-6.5723982752208565"><ele>1487.0</ele><time>2026-03-26T10:35:48.966Z</time></trkpt><trkpt lat="30.714114187801393" lon="-6.5725773329649"><ele>1487.0</ele><time>2026-03-26T10:35:49.966Z</time></trkpt><trkpt lat="30.714018386237072" lon="-6.572748088325284"><ele>1487.0</ele><time>2026-03-26T10:35:50.966Z</time></trkpt><trkpt lat="30.7139125472554" lon="-6.572918084604652"><ele>1491.3333333333335</ele><time>2026-03-26T10:35:51.966Z</time></trkpt><trkpt lat="30.713797228181562" lon="-6.573082726328096"><ele>1495.6666666666667</ele><time>2026-03-26T10:35:52.966Z</time></trkpt><trkpt lat="30.713677590328146" lon="-6.573251655484138"><ele>1500.0</ele><time>2026-03-26T10:35:53.966Z</time></trkpt><trkpt lat="30.713545898141298" lon="-6.573413906980916"><ele>1500.0</ele><time>2026-03-26T10:35:54.966Z</time></trkpt><trkpt lat="30.713416585008208" lon="-6.573572073793896"><ele>1500.0</ele><time>2026-03-26T10:35:55.966Z</time></trkpt><trkpt lat="30.713285840958275" lon="-6.573731574524598"><ele>1500.0</ele><time>2026-03-26T10:35:56.966Z</time></trkpt><trkpt lat="30.71315190243476" lon="-6.573890305609347"><ele>1495.3333333333333</ele><time>2026-03-26T10:35:57.966Z</time></trkpt><trkpt lat="30.713018084005896" lon="-6.574053061919722"><ele>1490.6666666666665</ele><time>2026-03-26T10:35:58.966Z</time></trkpt><trkpt lat="30.71288374623098" lon="-6.574216807490807"><ele>1486.0</ele><time>2026-03-26T10:35:59.966Z</time></trkpt><trkpt lat="30.71274617840829" lon="-6.574365048451097"><ele>1490.3333333333333</ele><time>2026-03-26T10:36:00.966Z</time></trkpt><trkpt lat="30.712622792008805" lon="-6.574517744940509"><ele>1494.6666666666667</ele><time>2026-03-26T10:36:01.966Z</time></trkpt><trkpt lat="30.712501001666958" lon="-6.5746759082829005"><ele>1499.0</ele><time>2026-03-26T10:36:02.966Z</time></trkpt><trkpt lat="30.712392620232123" lon="-6.574848229142107"><ele>1499.0</ele><time>2026-03-26T10:36:03.966Z</time></trkpt><trkpt lat="30.712287741941267" lon="-6.575024016144869"><ele>1499.0</ele><time>2026-03-26T10:36:04.966Z</time></trkpt><trkpt lat="30.712199957236297" lon="-6.575218948981687"><ele>1499.0</ele><time>2026-03-26T10:36:05.966Z</time></trkpt><trkpt lat="30.71212378643405" lon="-6.575425062797733"><ele>1494.0</ele><time>2026-03-26T10:36:06.967Z</time></trkpt><trkpt lat="30.71205119530982" lon="-6.575638511722392"><ele>1489.0</ele><time>2026-03-26T10:36:07.967Z</time></trkpt><trkpt lat="30.711977092810077" lon="-6.575855089457723"><ele>1484.0</ele><time>2026-03-26T10:36:08.967Z</time></trkpt><trkpt lat="30.711894338828554" lon="-6.576079519225238"><ele>1495.6666666666667</ele><time>2026-03-26T10:36:09.967Z</time></trkpt><trkpt lat="30.711806527711058" lon="-6.576305613610765"><ele>1507.3333333333333</ele><time>2026-03-26T10:36:10.966Z</time></trkpt><trkpt lat="30.7117016968693" lon="-6.576546153992899"><ele>1519.0</ele><time>2026-03-26T10:36:11.966Z</time></trkpt><trkpt lat="30.71160105553451" lon="-6.576769356963653"><ele>1519.0</ele><time>2026-03-26T10:36:12.966Z</time></trkpt><trkpt lat="30.71149690241718" lon="-6.5769890377921705"><ele>1519.0</ele><time>2026-03-26T10:36:13.966Z</time></trkpt><trkpt lat="30.711397487917992" lon="-6.577204751398222"><ele>1519.0</ele><time>2026-03-26T10:36:14.966Z</time></trkpt><trkpt lat="30.711301340273547" lon="-6.577407624025776"><ele>1515.3333333333333</ele><time>2026-03-26T10:36:15.966Z</time></trkpt><trkpt lat="30.711218384592136" lon="-6.577584676354662"><ele>1511.6666666666667</ele><time>2026-03-26T10:36:16.966Z</time></trkpt><trkpt lat="30.71114347211012" lon="-6.577747436392427"><ele>1508.0</ele><time>2026-03-26T10:36:17.966Z</time></trkpt><trkpt lat="30.71106439646245" lon="-6.577909274451135"><ele>1518.0</ele><time>2026-03-26T10:36:18.966Z</time></trkpt><trkpt lat="30.710979560906104" lon="-6.578086088627754"><ele>1528.0</ele><time>2026-03-26T10:36:19.966Z</time></trkpt><trkpt lat="30.71088290924999" lon="-6.5782711408554135"><ele>1538.0</ele><time>2026-03-26T10:36:20.966Z</time></trkpt><trkpt lat="30.71076825885995" lon="-6.57845107208528"><ele>1538.0</ele><time>2026-03-26T10:36:21.966Z</time></trkpt><trkpt lat="30.710640677996885" lon="-6.578623859220001"><ele>1538.0</ele><time>2026-03-26T10:36:22.966Z</time></trkpt><trkpt lat="30.71051239833695" lon="-6.578792817383839"><ele>1538.0</ele><time>2026-03-26T10:36:23.966Z</time></trkpt><trkpt lat="30.710385006417347" lon="-6.578958588514592"><ele>1543.3333333333333</ele><time>2026-03-26T10:36:24.966Z</time></trkpt><trkpt lat="30.710261636635913" lon="-6.579133117416187"><ele>1548.6666666666665</ele><time>2026-03-26T10:36:25.966Z</time></trkpt><trkpt lat="30.710168244850962" lon="-6.579313980480918"><ele>1554.0</ele><time>2026-03-26T10:36:26.965Z</time></trkpt><trkpt lat="30.710105705118725" lon="-6.5795112673317835"><ele>1552.3333333333335</ele><time>2026-03-26T10:36:27.965Z</time></trkpt><trkpt lat="30.710085333596044" lon="-6.5797272188154885"><ele>1550.6666666666667</ele><time>2026-03-26T10:36:28.965Z</time></trkpt><trkpt lat="30.710099063666284" lon="-6.579955139206982"><ele>1549.0</ele><time>2026-03-26T10:36:29.965Z</time></trkpt><trkpt lat="30.710132482724404" lon="-6.580199877353731"><ele>1555.3333333333335</ele><time>2026-03-26T10:36:30.965Z</time></trkpt><trkpt lat="30.710170412519254" lon="-6.580446319708847"><ele>1561.6666666666665</ele><time>2026-03-26T10:36:31.965Z</time></trkpt><trkpt lat="30.710186144729985" lon="-6.580704832308663"><ele>1568.0</ele><time>2026-03-26T10:36:32.965Z</time></trkpt><trkpt lat="30.710183732803667" lon="-6.580955856793374"><ele>1564.0</ele><time>2026-03-26T10:36:33.965Z</time></trkpt><trkpt lat="30.710161992115744" lon="-6.581186901375384"><ele>1560.0</ele><time>2026-03-26T10:36:34.965Z</time></trkpt><trkpt lat="30.71009271171244" lon="-6.581412666691416"><ele>1556.0</ele><time>2026-03-26T10:36:35.965Z</time></trkpt><trkpt lat="30.70999059930916" lon="-6.58162625214693"><ele>1556.0</ele><time>2026-03-26T10:36:36.965Z</time></trkpt><trkpt lat="30.70985990026251" lon="-6.581821735640951"><ele>1556.0</ele><time>2026-03-26T10:36:37.965Z</time></trkpt><trkpt lat="30.709734995774355" lon="-6.581989995390696"><ele>1556.0</ele><time>2026-03-26T10:36:38.965Z</time></trkpt><trkpt lat="30.70960987866127" lon="-6.582161249897622"><ele>1557.0</ele><time>2026-03-26T10:36:39.965Z</time></trkpt><trkpt lat="30.70948102174336" lon="-6.582339971329534"><ele>1558.0</ele><time>2026-03-26T10:36:40.965Z</time></trkpt><trkpt lat="30.709355114509695" lon="-6.5825204892369005"><ele>1559.0</ele><time>2026-03-26T10:36:41.965Z</time></trkpt><trkpt lat="30.70925344260082" lon="-6.582683547281623"><ele>1559.0</ele><time>2026-03-26T10:36:42.965Z</time></trkpt><trkpt lat="30.709179969367156" lon="-6.582839290264231"><ele>1559.0</ele><time>2026-03-26T10:36:43.965Z</time></trkpt><trkpt lat="30.709138328626917" lon="-6.582991295747273"><ele>1559.0</ele><time>2026-03-26T10:36:44.965Z</time></trkpt><trkpt lat="30.70913661103131" lon="-6.583164432832841"><ele>1559.0</ele><time>2026-03-26T10:36:45.965Z</time></trkpt><trkpt lat="30.709175211176102" lon="-6.583345505060031"><ele>1559.3333333333333</ele><time>2026-03-26T10:36:46.965Z</time></trkpt><trkpt lat="30.70924970614084" lon="-6.583536548419253"><ele>1559.6666666666665</ele><time>2026-03-26T10:36:47.965Z</time></trkpt><trkpt lat="30.70935328276808" lon="-6.583707323930861"><ele>1560.0</ele><time>2026-03-26T10:36:48.965Z</time></trkpt><trkpt lat="30.709479361777415" lon="-6.583884926317754"><ele>1560.6666666666665</ele><time>2026-03-26T10:36:49.965Z</time></trkpt><trkpt lat="30.709576696089552" lon="-6.5840755329340706"><ele>1561.3333333333333</ele><time>2026-03-26T10:36:50.965Z</time></trkpt><trkpt lat="30.709637972149114" lon="-6.584266316934361"><ele>1562.0</ele><time>2026-03-26T10:36:51.965Z</time></trkpt><trkpt lat="30.709663514231167" lon="-6.58446280078226"><ele>1566.3333333333333</ele><time>2026-03-26T10:36:52.965Z</time></trkpt><trkpt lat="30.709642936265602" lon="-6.584662918787385"><ele>1570.6666666666665</ele><time>2026-03-26T10:36:53.965Z</time></trkpt><trkpt lat="30.709610032777476" lon="-6.584876103894885"><ele>1575.0</ele><time>2026-03-26T10:36:54.965Z</time></trkpt><trkpt lat="30.709571989283763" lon="-6.585084068964424"><ele>1575.0</ele><time>2026-03-26T10:36:55.965Z</time></trkpt><trkpt lat="30.70953592113913" lon="-6.585294351647114"><ele>1575.0</ele><time>2026-03-26T10:36:56.965Z</time></trkpt><trkpt lat="30.709509227418707" lon="-6.58550406603914"><ele>1575.0</ele><time>2026-03-26T10:36:57.965Z</time></trkpt><trkpt lat="30.70948125102496" lon="-6.585709210758258"><ele>1577.3333333333335</ele><time>2026-03-26T10:36:58.965Z</time></trkpt><trkpt lat="30.709456120628552" lon="-6.585915793377009"><ele>1579.6666666666667</ele><time>2026-03-26T10:36:59.965Z</time></trkpt><trkpt lat="30.70943203401445" lon="-6.5861156723845555"><ele>1582.0</ele><time>2026-03-26T10:37:00.965Z</time></trkpt><trkpt lat="30.709416469595038" lon="-6.586317777380189"><ele>1586.3333333333335</ele><time>2026-03-26T10:37:01.965Z</time></trkpt><trkpt lat="30.709415357740827" lon="-6.586524124646647"><ele>1590.6666666666665</ele><time>2026-03-26T10:37:02.965Z</time></trkpt><trkpt lat="30.709441718159116" lon="-6.586746680829896"><ele>1595.0</ele><time>2026-03-26T10:37:03.965Z</time></trkpt><trkpt lat="30.70949840951936" lon="-6.586984053068077"><ele>1600.5</ele><time>2026-03-26T10:37:04.965Z</time></trkpt><trkpt lat="30.709560183980713" lon="-6.587235162490635"><ele>1606.0</ele><time>2026-03-26T10:37:05.965Z</time></trkpt><trkpt lat="30.70960664541942" lon="-6.587505309200611"><ele>1606.0</ele><time>2026-03-26T10:37:06.965Z</time></trkpt><trkpt lat="30.70963531144031" lon="-6.587794440339987"><ele>1606.0</ele><time>2026-03-26T10:37:07.965Z</time></trkpt><trkpt lat="30.709644101336934" lon="-6.588058667174792"><ele>1609.3333333333335</ele><time>2026-03-26T10:37:08.965Z</time></trkpt><trkpt lat="30.709641990123973" lon="-6.5882958771845885"><ele>1612.6666666666665</ele><time>2026-03-26T10:37:09.965Z</time></trkpt><trkpt lat="30.70962795740214" lon="-6.588529359212623"><ele>1616.0</ele><time>2026-03-26T10:37:10.965Z</time></trkpt><trkpt lat="30.70960341794662" lon="-6.588763508340946"><ele>1616.6666666666665</ele><time>2026-03-26T10:37:11.965Z</time></trkpt><trkpt lat="30.70957083477324" lon="-6.588989125725362"><ele>1617.3333333333335</ele><time>2026-03-26T10:37:12.965Z</time></trkpt><trkpt lat="30.70952438298772" lon="-6.589209846297172"><ele>1618.0</ele><time>2026-03-26T10:37:13.965Z</time></trkpt><trkpt lat="30.70946727634114" lon="-6.589421217808821"><ele>1619.3333333333335</ele><time>2026-03-26T10:37:14.965Z</time></trkpt><trkpt lat="30.70940023907344" lon="-6.589623270814233"><ele>1620.6666666666665</ele><time>2026-03-26T10:37:15.965Z</time></trkpt><trkpt lat="30.709323784397395" lon="-6.589811252286915"><ele>1622.0</ele><time>2026-03-26T10:37:16.965Z</time></trkpt><trkpt lat="30.70923839143588" lon="-6.589999592701286"><ele>1622.0</ele><time>2026-03-26T10:37:17.965Z</time></trkpt><trkpt lat="30.70914481531579" lon="-6.5901843575471615"><ele>1622.0</ele><time>2026-03-26T10:37:18.965Z</time></trkpt><trkpt lat="30.70904585105054" lon="-6.590364796525065"><ele>1622.0</ele><time>2026-03-26T10:37:19.965Z</time></trkpt><trkpt lat="30.70893696790973" lon="-6.590541286755645"><ele>1627.0</ele><time>2026-03-26T10:37:20.965Z</time></trkpt><trkpt lat="30.708810946282547" lon="-6.590698382699157"><ele>1632.0</ele><time>2026-03-26T10:37:21.965Z</time></trkpt><trkpt lat="30.708670939312235" lon="-6.590858042939303"><ele>1637.0</ele><time>2026-03-26T10:37:22.965Z</time></trkpt><trkpt lat="30.708532667414943" lon="-6.591013838683721"><ele>1637.0</ele><time>2026-03-26T10:37:23.965Z</time></trkpt><trkpt lat="30.708386901873602" lon="-6.591165444957528"><ele>1637.0</ele><time>2026-03-26T10:37:24.965Z</time></trkpt><trkpt lat="30.708233189162733" lon="-6.5913057207699"><ele>1637.0</ele><time>2026-03-26T10:37:25.965Z</time></trkpt><trkpt lat="30.708074838452827" lon="-6.591437126144816"><ele>1636.6666666666665</ele><time>2026-03-26T10:37:26.965Z</time></trkpt><trkpt lat="30.707919261313744" lon="-6.591567705383653"><ele>1636.3333333333335</ele><time>2026-03-26T10:37:27.965Z</time></trkpt><trkpt lat="30.707782779135766" lon="-6.591696739356405"><ele>1636.0</ele><time>2026-03-26T10:37:28.965Z</time></trkpt><trkpt lat="30.7076547951187" lon="-6.591799146093199"><ele>1636.0</ele><time>2026-03-26T10:37:29.965Z</time></trkpt><trkpt lat="30.707529139470584" lon="-6.591931314747639"><ele>1636.0</ele><time>2026-03-26T10:37:30.965Z</time></trkpt><trkpt lat="30.707427645085122" lon="-6.592092686970648"><ele>1636.0</ele><time>2026-03-26T10:37:31.965Z</time></trkpt><trkpt lat="30.707357789161623" lon="-6.592274013677645"><ele>1635.3333333333335</ele><time>2026-03-26T10:37:32.965Z</time></trkpt><trkpt lat="30.707321364035128" lon="-6.592473023933153"><ele>1634.6666666666665</ele><time>2026-03-26T10:37:33.965Z</time></trkpt><trkpt lat="30.707310216600924" lon="-6.592691082732198"><ele>1634.0</ele><time>2026-03-26T10:37:34.965Z</time></trkpt><trkpt lat="30.707327158894902" lon="-6.592925207978068"><ele>1634.0</ele><time>2026-03-26T10:37:35.965Z</time></trkpt><trkpt lat="30.707366776704447" lon="-6.5931599441627755"><ele>1634.0</ele><time>2026-03-26T10:37:36.965Z</time></trkpt><trkpt lat="30.707423482820705" lon="-6.593381496743581"><ele>1634.0</ele><time>2026-03-26T10:37:37.965Z</time></trkpt><trkpt lat="30.70747498682057" lon="-6.593603013470482"><ele>1637.0</ele><time>2026-03-26T10:37:38.965Z</time></trkpt><trkpt lat="30.70749347896203" lon="-6.593802784254424"><ele>1640.0</ele><time>2026-03-26T10:37:39.965Z</time></trkpt><trkpt lat="30.70749785058122" lon="-6.59398497937371"><ele>1643.0</ele><time>2026-03-26T10:37:40.965Z</time></trkpt><trkpt lat="30.707475955379095" lon="-6.594166052202633"><ele>1643.0</ele><time>2026-03-26T10:37:41.965Z</time></trkpt><trkpt lat="30.70742779363691" lon="-6.5943543356922545"><ele>1643.0</ele><time>2026-03-26T10:37:42.965Z</time></trkpt><trkpt lat="30.707358457448567" lon="-6.594545233217302"><ele>1643.0</ele><time>2026-03-26T10:37:43.965Z</time></trkpt><trkpt lat="30.70729808357532" lon="-6.594719145595272"><ele>1640.5</ele><time>2026-03-26T10:37:44.965Z</time></trkpt><trkpt lat="30.70725455572581" lon="-6.594881115563661"><ele>1638.0</ele><time>2026-03-26T10:37:45.965Z</time></trkpt><trkpt lat="30.70722626176488" lon="-6.595034064657999"><ele>1635.5</ele><time>2026-03-26T10:37:46.965Z</time></trkpt><trkpt lat="30.707220387568068" lon="-6.59517816565303"><ele>1633.0</ele><time>2026-03-26T10:37:47.965Z</time></trkpt><trkpt lat="30.707256092731495" lon="-6.595313704198557"><ele>1632.5</ele><time>2026-03-26T10:37:48.965Z</time></trkpt><trkpt lat="30.707305440696228" lon="-6.595426275961549"><ele>1632.0</ele><time>2026-03-26T10:37:49.965Z</time></trkpt><trkpt lat="30.707409714819832" lon="-6.595537688891018"><ele>1631.5</ele><time>2026-03-26T10:37:50.965Z</time></trkpt><trkpt lat="30.707551280274032" lon="-6.595601740355696"><ele>1631.0</ele><time>2026-03-26T10:37:51.965Z</time></trkpt><trkpt lat="30.7076838523034" lon="-6.5956431850185915"><ele>1635.3333333333333</ele><time>2026-03-26T10:37:52.965Z</time></trkpt><trkpt lat="30.707835548300572" lon="-6.595634744806216"><ele>1639.6666666666665</ele><time>2026-03-26T10:37:53.965Z</time></trkpt><trkpt lat="30.707983922681336" lon="-6.595602397250454"><ele>1644.0</ele><time>2026-03-26T10:37:54.965Z</time></trkpt><trkpt lat="30.708130168702194" lon="-6.595544688846747"><ele>1644.0</ele><time>2026-03-26T10:37:55.965Z</time></trkpt><trkpt lat="30.7082870104135" lon="-6.595489936050202"><ele>1644.0</ele><time>2026-03-26T10:37:56.965Z</time></trkpt><trkpt lat="30.708465749278517" lon="-6.59543404981681"><ele>1644.0</ele><time>2026-03-26T10:37:57.965Z</time></trkpt><trkpt lat="30.708634655613082" lon="-6.595378264085637"><ele>1641.3333333333335</ele><time>2026-03-26T10:37:58.965Z</time></trkpt><trkpt lat="30.70879783581901" lon="-6.5953086283337665"><ele>1638.6666666666667</ele><time>2026-03-26T10:37:59.965Z</time></trkpt><trkpt lat="30.70895456398575" lon="-6.595205788066054"><ele>1636.0</ele><time>2026-03-26T10:38:00.965Z</time></trkpt><trkpt lat="30.70909641720216" lon="-6.5950768669955115"><ele>1636.0</ele><time>2026-03-26T10:38:01.965Z</time></trkpt><trkpt lat="30.709240483649943" lon="-6.594914979096253"><ele>1636.0</ele><time>2026-03-26T10:38:02.965Z</time></trkpt><trkpt lat="30.70938059747052" lon="-6.594754912126033"><ele>1636.0</ele><time>2026-03-26T10:38:03.965Z</time></trkpt><trkpt lat="30.709520437958933" lon="-6.594601302189466"><ele>1636.3333333333335</ele><time>2026-03-26T10:38:04.965Z</time></trkpt><trkpt lat="30.709653274765785" lon="-6.594408955019122"><ele>1636.6666666666665</ele><time>2026-03-26T10:38:05.965Z</time></trkpt><trkpt lat="30.709782428753385" lon="-6.594219158750738"><ele>1637.0</ele><time>2026-03-26T10:38:06.965Z</time></trkpt><trkpt lat="30.709925891155684" lon="-6.594034795680904"><ele>1637.0</ele><time>2026-03-26T10:38:07.965Z</time></trkpt><trkpt lat="30.710065303084153" lon="-6.593846502116948"><ele>1637.0</ele><time>2026-03-26T10:38:08.965Z</time></trkpt><trkpt lat="30.710200683020105" lon="-6.593659821771729"><ele>1637.0</ele><time>2026-03-26T10:38:09.965Z</time></trkpt><trkpt lat="30.710335568784135" lon="-6.593481947006962"><ele>1639.6666666666665</ele><time>2026-03-26T10:38:10.965Z</time></trkpt><trkpt lat="30.71046440160873" lon="-6.59330461849421"><ele>1642.3333333333335</ele><time>2026-03-26T10:38:11.965Z</time></trkpt><trkpt lat="30.710571095854117" lon="-6.593130290724265"><ele>1645.0</ele><time>2026-03-26T10:38:12.966Z</time></trkpt><trkpt lat="30.71065855764382" lon="-6.592935676370164"><ele>1639.3333333333335</ele><time>2026-03-26T10:38:13.965Z</time></trkpt><trkpt lat="30.71072051463854" lon="-6.592748825021852"><ele>1633.6666666666665</ele><time>2026-03-26T10:38:14.965Z</time></trkpt><trkpt lat="30.71077433450106" lon="-6.592572633304239"><ele>1628.0</ele><time>2026-03-26T10:38:15.966Z</time></trkpt><trkpt lat="30.710854615694373" lon="-6.592430585102285"><ele>1628.0</ele><time>2026-03-26T10:38:16.966Z</time></trkpt><trkpt lat="30.71096710960172" lon="-6.592315246350143"><ele>1628.0</ele><time>2026-03-26T10:38:17.966Z</time></trkpt><trkpt lat="30.71110423705071" lon="-6.592247220402587"><ele>1628.0</ele><time>2026-03-26T10:38:18.966Z</time></trkpt><trkpt lat="30.71125463252854" lon="-6.5922241172286675"><ele>1630.6666666666665</ele><time>2026-03-26T10:38:19.965Z</time></trkpt><trkpt lat="30.711421611949746" lon="-6.592245445521102"><ele>1633.3333333333335</ele><time>2026-03-26T10:38:20.965Z</time></trkpt><trkpt lat="30.711577561904917" lon="-6.592309344807357"><ele>1636.0</ele><time>2026-03-26T10:38:21.965Z</time></trkpt><trkpt lat="30.711711287469086" lon="-6.592422668125642"><ele>1636.0</ele><time>2026-03-26T10:38:22.965Z</time></trkpt><trkpt lat="30.71180635318609" lon="-6.592571913081139"><ele>1636.0</ele><time>2026-03-26T10:38:23.965Z</time></trkpt><trkpt lat="30.711859900989104" lon="-6.592760687408176"><ele>1636.0</ele><time>2026-03-26T10:38:24.966Z</time></trkpt><trkpt lat="30.71189268433179" lon="-6.5929577798458645"><ele>1639.0</ele><time>2026-03-26T10:38:25.965Z</time></trkpt><trkpt lat="30.711880732478367" lon="-6.5931760979718534"><ele>1642.0</ele><time>2026-03-26T10:38:26.965Z</time></trkpt><trkpt lat="30.711834123202053" lon="-6.593388006617048"><ele>1645.0</ele><time>2026-03-26T10:38:27.965Z</time></trkpt><trkpt lat="30.7117946431368" lon="-6.593610702333229"><ele>1644.0</ele><time>2026-03-26T10:38:28.965Z</time></trkpt><trkpt lat="30.71175422260566" lon="-6.593853425467774"><ele>1643.0</ele><time>2026-03-26T10:38:29.965Z</time></trkpt><trkpt lat="30.711736021331152" lon="-6.594080065705683"><ele>1642.0</ele><time>2026-03-26T10:38:30.965Z</time></trkpt><trkpt lat="30.711727813979653" lon="-6.594317519912281"><ele>1645.0</ele><time>2026-03-26T10:38:31.965Z</time></trkpt><trkpt lat="30.711744405440303" lon="-6.594546947485385"><ele>1648.0</ele><time>2026-03-26T10:38:32.965Z</time></trkpt><trkpt lat="30.711769708744065" lon="-6.594778841356409"><ele>1651.0</ele><time>2026-03-26T10:38:33.965Z</time></trkpt><trkpt lat="30.71179351347315" lon="-6.595003822285271"><ele>1651.0</ele><time>2026-03-26T10:38:34.965Z</time></trkpt><trkpt lat="30.711815341763845" lon="-6.595216492371308"><ele>1651.0</ele><time>2026-03-26T10:38:35.965Z</time></trkpt><trkpt lat="30.71183227221506" lon="-6.595405511885198"><ele>1651.0</ele><time>2026-03-26T10:38:36.965Z</time></trkpt><trkpt lat="30.71185055776015" lon="-6.595580207301059"><ele>1654.0</ele><time>2026-03-26T10:38:37.965Z</time></trkpt><trkpt lat="30.71187071049193" lon="-6.595758492644891"><ele>1657.0</ele><time>2026-03-26T10:38:38.965Z</time></trkpt><trkpt lat="30.71190085431291" lon="-6.5959301495832685"><ele>1660.0</ele><time>2026-03-26T10:38:39.965Z</time></trkpt><trkpt lat="30.71194487597055" lon="-6.5960902747224885"><ele>1655.5</ele><time>2026-03-26T10:38:40.965Z</time></trkpt><trkpt lat="30.71202445513254" lon="-6.596242482054828"><ele>1651.0</ele><time>2026-03-26T10:38:41.965Z</time></trkpt><trkpt lat="30.71212797364266" lon="-6.596357439085236"><ele>1646.5</ele><time>2026-03-26T10:38:42.965Z</time></trkpt><trkpt lat="30.712251547394114" lon="-6.596441992125443"><ele>1642.0</ele><time>2026-03-26T10:38:43.965Z</time></trkpt><trkpt lat="30.71239950834728" lon="-6.596486647546925"><ele>1642.0</ele><time>2026-03-26T10:38:44.965Z</time></trkpt><trkpt lat="30.712547501379536" lon="-6.5965008080038725"><ele>1642.0</ele><time>2026-03-26T10:38:45.965Z</time></trkpt><trkpt lat="30.712704375097122" lon="-6.596476662591556"><ele>1642.0</ele><time>2026-03-26T10:38:46.965Z</time></trkpt><trkpt lat="30.71285617813397" lon="-6.596411393655285"><ele>1648.3333333333335</ele><time>2026-03-26T10:38:47.965Z</time></trkpt><trkpt lat="30.71299042040345" lon="-6.596299218434538"><ele>1654.6666666666665</ele><time>2026-03-26T10:38:48.965Z</time></trkpt><trkpt lat="30.7131018514856" lon="-6.596144884220502"><ele>1661.0</ele><time>2026-03-26T10:38:49.965Z</time></trkpt><trkpt lat="30.71317001139216" lon="-6.595964985285498"><ele>1661.0</ele><time>2026-03-26T10:38:50.965Z</time></trkpt><trkpt lat="30.713202709353837" lon="-6.59578209199364"><ele>1661.0</ele><time>2026-03-26T10:38:51.965Z</time></trkpt><trkpt lat="30.713214337055057" lon="-6.595616410973721"><ele>1661.0</ele><time>2026-03-26T10:38:52.965Z</time></trkpt><trkpt lat="30.71322753385595" lon="-6.59545130493174"><ele>1661.0</ele><time>2026-03-26T10:38:53.965Z</time></trkpt><trkpt lat="30.713248448193642" lon="-6.595296540750734"><ele>1658.8</ele><time>2026-03-26T10:38:54.965Z</time></trkpt><trkpt lat="30.713269394897427" lon="-6.595164678906588"><ele>1656.6</ele><time>2026-03-26T10:38:55.965Z</time></trkpt><trkpt lat="30.71329069417332" lon="-6.5950430821716655"><ele>1654.4</ele><time>2026-03-26T10:38:56.965Z</time></trkpt><trkpt lat="30.713310466017557" lon="-6.594918194157005"><ele>1652.2</ele><time>2026-03-26T10:38:57.965Z</time></trkpt><trkpt lat="30.713340350757917" lon="-6.594789180656127"><ele>1650.0</ele><time>2026-03-26T10:38:58.965Z</time></trkpt><trkpt lat="30.713381993332966" lon="-6.594663006218517"><ele>1650.0</ele><time>2026-03-26T10:38:59.965Z</time></trkpt><trkpt lat="30.713428711870606" lon="-6.594546928220877"><ele>1650.0</ele><time>2026-03-26T10:39:00.965Z</time></trkpt><trkpt lat="30.713475649913335" lon="-6.5944326658073384"><ele>1650.0</ele><time>2026-03-26T10:39:01.965Z</time></trkpt><trkpt lat="30.713535477056492" lon="-6.5943198505075555"><ele>1650.0</ele><time>2026-03-26T10:39:02.965Z</time></trkpt><trkpt lat="30.71360401558816" lon="-6.594219153208779"><ele>1650.0</ele><time>2026-03-26T10:39:03.965Z</time></trkpt><trkpt lat="30.713672190341363" lon="-6.5941235072411954"><ele>1651.5</ele><time>2026-03-26T10:39:04.965Z</time></trkpt><trkpt lat="30.71374441171148" lon="-6.594030220010949"><ele>1653.0</ele><time>2026-03-26T10:39:05.965Z</time></trkpt><trkpt lat="30.71381943898294" lon="-6.593935056576316"><ele>1654.5</ele><time>2026-03-26T10:39:06.965Z</time></trkpt><trkpt lat="30.713906177423347" lon="-6.593844587936701"><ele>1656.0</ele><time>2026-03-26T10:39:07.965Z</time></trkpt><trkpt lat="30.71400032624193" lon="-6.593759267762202"><ele>1656.0</ele><time>2026-03-26T10:39:08.965Z</time></trkpt><trkpt lat="30.71410139836948" lon="-6.593682672849273"><ele>1656.0</ele><time>2026-03-26T10:39:09.965Z</time></trkpt><trkpt lat="30.71420459478669" lon="-6.593615735529719"><ele>1656.0</ele><time>2026-03-26T10:39:10.965Z</time></trkpt><trkpt lat="30.714309143705755" lon="-6.593550780057143"><ele>1656.0</ele><time>2026-03-26T10:39:11.965Z</time></trkpt><trkpt lat="30.71441620219408" lon="-6.593495603163537"><ele>1654.0</ele><time>2026-03-26T10:39:12.965Z</time></trkpt><trkpt lat="30.714524437189343" lon="-6.593449189880383"><ele>1652.0</ele><time>2026-03-26T10:39:13.965Z</time></trkpt><trkpt lat="30.714634977665444" lon="-6.59342122259783"><ele>1650.0</ele><time>2026-03-26T10:39:14.965Z</time></trkpt><trkpt lat="30.714750634937815" lon="-6.593394688276298"><ele>1648.0</ele><time>2026-03-26T10:39:15.965Z</time></trkpt><trkpt lat="30.714861729446536" lon="-6.593370898943623"><ele>1648.0000000000002</ele><time>2026-03-26T10:39:16.965Z</time></trkpt><trkpt lat="30.714956854152625" lon="-6.593348456006768"><ele>1648.0</ele><time>2026-03-26T10:39:17.965Z</time></trkpt><trkpt lat="30.71504766961594" lon="-6.593320183179558"><ele>1648.0</ele><time>2026-03-26T10:39:18.965Z</time></trkpt><trkpt lat="30.71512698835429" lon="-6.593285504474343"><ele>1648.0</ele><time>2026-03-26T10:39:19.965Z</time></trkpt><trkpt lat="30.71520278356677" lon="-6.593247969153155"><ele>1648.0000000000002</ele><time>2026-03-26T10:39:20.965Z</time></trkpt><trkpt lat="30.715281932478312" lon="-6.593222516292683"><ele>1648.0</ele><time>2026-03-26T10:39:21.965Z</time></trkpt><trkpt lat="30.715366757160997" lon="-6.593214062742746"><ele>1648.6666666666667</ele><time>2026-03-26T10:39:22.965Z</time></trkpt><trkpt lat="30.71545755659056" lon="-6.593221128868195"><ele>1649.3333333333335</ele><time>2026-03-26T10:39:23.965Z</time></trkpt><trkpt lat="30.71554220582317" lon="-6.593242275074075"><ele>1650.0</ele><time>2026-03-26T10:39:24.965Z</time></trkpt><trkpt lat="30.715623151743813" lon="-6.59326947775752"><ele>1650.6666666666665</ele><time>2026-03-26T10:39:25.965Z</time></trkpt><trkpt lat="30.7156989839544" lon="-6.5933063751980265"><ele>1651.3333333333333</ele><time>2026-03-26T10:39:26.965Z</time></trkpt><trkpt lat="30.715767955008573" lon="-6.593342979618084"><ele>1652.0</ele><time>2026-03-26T10:39:27.965Z</time></trkpt><trkpt lat="30.71583138145206" lon="-6.593382431384735"><ele>1651.9999999999998</ele><time>2026-03-26T10:39:28.965Z</time></trkpt><trkpt lat="30.715885968820626" lon="-6.593423600962497"><ele>1652.0</ele><time>2026-03-26T10:39:29.965Z</time></trkpt><trkpt lat="30.715944896203183" lon="-6.5934727638862505"><ele>1652.0</ele><time>2026-03-26T10:39:30.965Z</time></trkpt><trkpt lat="30.71599461241098" lon="-6.593521546751886"><ele>1652.0</ele><time>2026-03-26T10:39:31.965Z</time></trkpt><trkpt lat="30.71609590928645" lon="-6.593618475833166"><ele>1651.9999999999998</ele><time>2026-03-26T10:39:33.965Z</time></trkpt><trkpt lat="30.716174351667426" lon="-6.593712995965306"><ele>1652.0</ele><time>2026-03-26T10:39:35.965Z</time></trkpt><trkpt lat="30.716243776723317" lon="-6.593781089305026"><ele>1652.3999999999999</ele><time>2026-03-26T10:39:37.965Z</time></trkpt><trkpt lat="30.71629844947618" lon="-6.59383645763686"><ele>1652.8</ele><time>2026-03-26T10:39:40.965Z</time></trkpt><trkpt lat="30.716341545436332" lon="-6.593928116018121"><ele>1653.2</ele><time>2026-03-26T10:42:23.964Z</time></trkpt><trkpt lat="30.716396924998246" lon="-6.593977177956531"><ele>1653.6</ele><time>2026-03-26T10:42:24.964Z</time></trkpt><trkpt lat="30.716482593421684" lon="-6.594108054684316"><ele>1654.0</ele><time>2026-03-26T10:42:26.964Z</time></trkpt><trkpt lat="30.71653231477317" lon="-6.594197587414117"><ele>1654.0</ele><time>2026-03-26T10:42:27.964Z</time></trkpt><trkpt lat="30.716593680070673" lon="-6.594310723048829"><ele>1654.0</ele><time>2026-03-26T10:42:28.964Z</time></trkpt><trkpt lat="30.71665164921697" lon="-6.59444243292563"><ele>1654.0</ele><time>2026-03-26T10:42:29.964Z</time></trkpt><trkpt lat="30.7166961071917" lon="-6.594582976902748"><ele>1654.0</ele><time>2026-03-26T10:42:30.964Z</time></trkpt><trkpt lat="30.71672089042538" lon="-6.594720045069299"><ele>1654.6</ele><time>2026-03-26T10:42:31.964Z</time></trkpt><trkpt lat="30.71673901909545" lon="-6.59482566396573"><ele>1655.2</ele><time>2026-03-26T10:42:32.964Z</time></trkpt><trkpt lat="30.71674623002129" lon="-6.594912458930961"><ele>1655.8</ele><time>2026-03-26T10:42:33.964Z</time></trkpt><trkpt lat="30.716765504076758" lon="-6.594987009098036"><ele>1656.3999999999999</ele><time>2026-03-26T10:42:35.964Z</time></trkpt><trkpt lat="30.716713637522165" lon="-6.594856424044345"><ele>1657.0</ele><time>2026-03-26T10:42:43.964Z</time></trkpt><trkpt lat="30.71670770919865" lon="-6.594705244252622"><ele>1657.0</ele><time>2026-03-26T10:42:44.964Z</time></trkpt><trkpt lat="30.716682350999374" lon="-6.59455664832568"><ele>1657.0</ele><time>2026-03-26T10:42:45.964Z</time></trkpt><trkpt lat="30.716642551483794" lon="-6.594436623874909"><ele>1657.0</ele><time>2026-03-26T10:42:46.964Z</time></trkpt><trkpt lat="30.716598863952157" lon="-6.5943373447961555"><ele>1657.0</ele><time>2026-03-26T10:42:47.964Z</time></trkpt><trkpt lat="30.71655034995544" lon="-6.594241478037303"><ele>1657.0</ele><time>2026-03-26T10:42:48.964Z</time></trkpt><trkpt lat="30.71650454989609" lon="-6.594153509917836"><ele>1656.3999999999999</ele><time>2026-03-26T10:42:49.964Z</time></trkpt><trkpt lat="30.716458992188382" lon="-6.5940729088746535"><ele>1655.8</ele><time>2026-03-26T10:42:50.964Z</time></trkpt><trkpt lat="30.716412053071878" lon="-6.594008510073721"><ele>1655.2</ele><time>2026-03-26T10:42:51.964Z</time></trkpt><trkpt lat="30.716339303364677" lon="-6.593910587340012"><ele>1654.6</ele><time>2026-03-26T10:42:53.964Z</time></trkpt><trkpt lat="30.716290832956428" lon="-6.593850883068081"><ele>1654.0</ele><time>2026-03-26T10:42:55.964Z</time></trkpt><trkpt lat="30.716346584348887" lon="-6.593965084741404"><ele>1654.0</ele><time>2026-03-26T10:43:45.964Z</time></trkpt><trkpt lat="30.716427419824182" lon="-6.594071681817566"><ele>1654.0</ele><time>2026-03-26T10:43:46.964Z</time></trkpt><trkpt lat="30.716492699750567" lon="-6.594160073341"><ele>1654.0</ele><time>2026-03-26T10:43:47.964Z</time></trkpt><trkpt lat="30.71655423367378" lon="-6.5942449550328694"><ele>1654.0</ele><time>2026-03-26T10:43:48.964Z</time></trkpt><trkpt lat="30.71660634206793" lon="-6.594344174137252"><ele>1654.0</ele><time>2026-03-26T10:43:49.964Z</time></trkpt><trkpt lat="30.71664958409793" lon="-6.5944362881886445"><ele>1654.6</ele><time>2026-03-26T10:43:50.964Z</time></trkpt><trkpt lat="30.71668653187309" lon="-6.594540477712588"><ele>1655.2</ele><time>2026-03-26T10:43:51.964Z</time></trkpt><trkpt lat="30.716711953169003" lon="-6.5946476168964905"><ele>1655.8</ele><time>2026-03-26T10:43:52.964Z</time></trkpt><trkpt lat="30.716727851175612" lon="-6.594753478884221"><ele>1656.3999999999999</ele><time>2026-03-26T10:43:53.964Z</time></trkpt><trkpt lat="30.716739448260395" lon="-6.59484869756836"><ele>1657.0</ele><time>2026-03-26T10:43:54.964Z</time></trkpt><trkpt lat="30.716751650871515" lon="-6.594943791977737"><ele>1657.0</ele><time>2026-03-26T10:43:55.964Z</time></trkpt><trkpt lat="30.716758596523878" lon="-6.59505371108065"><ele>1657.0</ele><time>2026-03-26T10:43:56.964Z</time></trkpt><trkpt lat="30.71676430029873" lon="-6.595171707629704"><ele>1657.0</ele><time>2026-03-26T10:43:57.964Z</time></trkpt><trkpt lat="30.716769852583624" lon="-6.595308010396248"><ele>1657.0</ele><time>2026-03-26T10:43:58.964Z</time></trkpt><trkpt lat="30.71677778636078" lon="-6.595468452539676"><ele>1659.3333333333335</ele><time>2026-03-26T10:43:59.964Z</time></trkpt><trkpt lat="30.71679261446809" lon="-6.595672516779036"><ele>1661.6666666666665</ele><time>2026-03-26T10:44:00.964Z</time></trkpt><trkpt lat="30.71683511113226" lon="-6.595920895090551"><ele>1664.0</ele><time>2026-03-26T10:44:01.964Z</time></trkpt><trkpt lat="30.716911776944716" lon="-6.596178725153249"><ele>1655.5</ele><time>2026-03-26T10:44:02.964Z</time></trkpt><trkpt lat="30.716993935207356" lon="-6.59643781587265"><ele>1647.0</ele><time>2026-03-26T10:44:03.964Z</time></trkpt><trkpt lat="30.71712252910485" lon="-6.596688264441633"><ele>1647.0</ele><time>2026-03-26T10:44:04.964Z</time></trkpt><trkpt lat="30.717208975431287" lon="-6.596974355823761"><ele>1647.0</ele><time>2026-03-26T10:44:05.964Z</time></trkpt><trkpt lat="30.71725624639198" lon="-6.597241382348431"><ele>1648.3333333333335</ele><time>2026-03-26T10:44:06.964Z</time></trkpt><trkpt lat="30.717283748374413" lon="-6.597481371996038"><ele>1649.6666666666667</ele><time>2026-03-26T10:44:07.963Z</time></trkpt><trkpt lat="30.717295721815507" lon="-6.597714084041656"><ele>1651.0</ele><time>2026-03-26T10:44:08.963Z</time></trkpt><trkpt lat="30.71732300168381" lon="-6.597933843721602"><ele>1653.3333333333335</ele><time>2026-03-26T10:44:09.963Z</time></trkpt><trkpt lat="30.717349666460887" lon="-6.598133762414282"><ele>1655.6666666666665</ele><time>2026-03-26T10:44:10.963Z</time></trkpt><trkpt lat="30.71738302733324" lon="-6.598317894073876"><ele>1658.0</ele><time>2026-03-26T10:44:11.963Z</time></trkpt><trkpt lat="30.71741225878901" lon="-6.598487992259275"><ele>1658.0</ele><time>2026-03-26T10:44:12.963Z</time></trkpt><trkpt lat="30.71745217865594" lon="-6.5986545739335405"><ele>1658.0</ele><time>2026-03-26T10:44:13.963Z</time></trkpt><trkpt lat="30.717507607085174" lon="-6.598821962171873"><ele>1658.0</ele><time>2026-03-26T10:44:14.963Z</time></trkpt><trkpt lat="30.717581037284944" lon="-6.598961991518924"><ele>1658.0</ele><time>2026-03-26T10:44:15.963Z</time></trkpt><trkpt lat="30.717678550507525" lon="-6.599094942729014"><ele>1657.5</ele><time>2026-03-26T10:44:16.963Z</time></trkpt><trkpt lat="30.717797837178825" lon="-6.599198624079241"><ele>1657.0</ele><time>2026-03-26T10:44:17.963Z</time></trkpt><trkpt lat="30.71793439548647" lon="-6.599268319586499"><ele>1656.5</ele><time>2026-03-26T10:44:18.963Z</time></trkpt><trkpt lat="30.71807556434248" lon="-6.599280323928916"><ele>1656.0</ele><time>2026-03-26T10:44:19.963Z</time></trkpt><trkpt lat="30.718230391584992" lon="-6.5992819906039815"><ele>1656.0</ele><time>2026-03-26T10:44:20.963Z</time></trkpt><trkpt lat="30.718412004205838" lon="-6.599274037690486"><ele>1656.0</ele><time>2026-03-26T10:44:21.963Z</time></trkpt><trkpt lat="30.718589121787748" lon="-6.599297961369102"><ele>1656.0</ele><time>2026-03-26T10:44:22.963Z</time></trkpt><trkpt lat="30.718753804032115" lon="-6.599311456512546"><ele>1652.6666666666665</ele><time>2026-03-26T10:44:23.963Z</time></trkpt><trkpt lat="30.718901475055056" lon="-6.5994159449633765"><ele>1649.3333333333333</ele><time>2026-03-26T10:44:24.963Z</time></trkpt><trkpt lat="30.719034459988315" lon="-6.599537777022503"><ele>1646.0</ele><time>2026-03-26T10:44:25.963Z</time></trkpt><trkpt lat="30.719175638422925" lon="-6.599698534255378"><ele>1643.0</ele><time>2026-03-26T10:44:26.963Z</time></trkpt><trkpt lat="30.719322039967462" lon="-6.599867808261671"><ele>1640.0</ele><time>2026-03-26T10:44:27.963Z</time></trkpt><trkpt lat="30.71946246937539" lon="-6.600027323700977"><ele>1637.0</ele><time>2026-03-26T10:44:28.963Z</time></trkpt><trkpt lat="30.719599882144234" lon="-6.6001884272454205"><ele>1641.3333333333333</ele><time>2026-03-26T10:44:29.963Z</time></trkpt><trkpt lat="30.719734074043405" lon="-6.600346146620381"><ele>1645.6666666666665</ele><time>2026-03-26T10:44:30.964Z</time></trkpt><trkpt lat="30.719832402684546" lon="-6.60053851767156"><ele>1650.0</ele><time>2026-03-26T10:44:31.964Z</time></trkpt><trkpt lat="30.71987535960311" lon="-6.600760152820731"><ele>1650.0</ele><time>2026-03-26T10:44:32.964Z</time></trkpt><trkpt lat="30.71987196647562" lon="-6.600996696562501"><ele>1650.0</ele><time>2026-03-26T10:44:33.964Z</time></trkpt><trkpt lat="30.71985118710725" lon="-6.6012318868373105"><ele>1650.0</ele><time>2026-03-26T10:44:34.963Z</time></trkpt><trkpt lat="30.71984806979525" lon="-6.6014664528869895"><ele>1649.6666666666665</ele><time>2026-03-26T10:44:35.963Z</time></trkpt><trkpt lat="30.719851466630626" lon="-6.601677807840119"><ele>1649.3333333333333</ele><time>2026-03-26T10:44:36.964Z</time></trkpt><trkpt lat="30.719873920768848" lon="-6.601878070669469"><ele>1649.0</ele><time>2026-03-26T10:44:37.964Z</time></trkpt><trkpt lat="30.719923477221766" lon="-6.602077220766473"><ele>1648.6666666666665</ele><time>2026-03-26T10:44:38.964Z</time></trkpt><trkpt lat="30.719997300397235" lon="-6.602266450966259"><ele>1648.3333333333335</ele><time>2026-03-26T10:44:39.963Z</time></trkpt><trkpt lat="30.720105099525167" lon="-6.602456672809054"><ele>1648.0</ele><time>2026-03-26T10:44:40.964Z</time></trkpt><trkpt lat="30.720241491145785" lon="-6.602619464481628"><ele>1648.0</ele><time>2026-03-26T10:44:41.964Z</time></trkpt><trkpt lat="30.720405880425442" lon="-6.602757693062242"><ele>1648.0</ele><time>2026-03-26T10:44:42.963Z</time></trkpt><trkpt lat="30.720593643229197" lon="-6.602863964176137"><ele>1648.0</ele><time>2026-03-26T10:44:43.963Z</time></trkpt><trkpt lat="30.720796789191215" lon="-6.602937334517051"><ele>1648.6666666666667</ele><time>2026-03-26T10:44:44.963Z</time></trkpt><trkpt lat="30.721002187256502" lon="-6.602979613222274"><ele>1649.3333333333335</ele><time>2026-03-26T10:44:45.963Z</time></trkpt><trkpt lat="30.72120927313458" lon="-6.603021513508706"><ele>1650.0</ele><time>2026-03-26T10:44:46.963Z</time></trkpt><trkpt lat="30.721413639028547" lon="-6.603062923810953"><ele>1651.6666666666665</ele><time>2026-03-26T10:44:47.963Z</time></trkpt><trkpt lat="30.721618288851452" lon="-6.603105632016893"><ele>1653.3333333333333</ele><time>2026-03-26T10:44:48.963Z</time></trkpt><trkpt lat="30.721817014236645" lon="-6.6031513473723"><ele>1655.0</ele><time>2026-03-26T10:44:49.963Z</time></trkpt><trkpt lat="30.722016626272428" lon="-6.603191216825274"><ele>1656.6666666666665</ele><time>2026-03-26T10:44:50.963Z</time></trkpt><trkpt lat="30.72222605291597" lon="-6.603230201475349"><ele>1658.3333333333335</ele><time>2026-03-26T10:44:51.963Z</time></trkpt><trkpt lat="30.722432475668864" lon="-6.603270943772215"><ele>1660.0</ele><time>2026-03-26T10:44:52.963Z</time></trkpt><trkpt lat="30.722643048252458" lon="-6.6033092203096775"><ele>1661.0</ele><time>2026-03-26T10:44:53.963Z</time></trkpt><trkpt lat="30.72285939582898" lon="-6.603352507274662"><ele>1662.0</ele><time>2026-03-26T10:44:54.963Z</time></trkpt><trkpt lat="30.723073091320828" lon="-6.603391681062374"><ele>1663.0</ele><time>2026-03-26T10:44:55.963Z</time></trkpt><trkpt lat="30.72328128392825" lon="-6.603434777309541"><ele>1663.0</ele><time>2026-03-26T10:44:56.963Z</time></trkpt><trkpt lat="30.723488861039208" lon="-6.60347736347066"><ele>1663.0</ele><time>2026-03-26T10:44:57.963Z</time></trkpt><trkpt lat="30.72368467888374" lon="-6.6035263941824525"><ele>1663.0</ele><time>2026-03-26T10:44:58.963Z</time></trkpt><trkpt lat="30.72386850880405" lon="-6.603587841381624"><ele>1665.0</ele><time>2026-03-26T10:44:59.963Z</time></trkpt><trkpt lat="30.72404498748242" lon="-6.603663165599708"><ele>1667.0</ele><time>2026-03-26T10:45:00.963Z</time></trkpt><trkpt lat="30.724204992542703" lon="-6.60375559661398"><ele>1669.0</ele><time>2026-03-26T10:45:01.963Z</time></trkpt><trkpt lat="30.724355395165933" lon="-6.603867819771374"><ele>1671.0</ele><time>2026-03-26T10:45:02.963Z</time></trkpt><trkpt lat="30.72449523835083" lon="-6.603996287230182"><ele>1673.0</ele><time>2026-03-26T10:45:03.963Z</time></trkpt><trkpt lat="30.724622042597073" lon="-6.604138222959043"><ele>1675.0</ele><time>2026-03-26T10:45:04.963Z</time></trkpt><trkpt lat="30.724750577723007" lon="-6.604300636886366"><ele>1675.0</ele><time>2026-03-26T10:45:05.963Z</time></trkpt><trkpt lat="30.72488181294457" lon="-6.604478484754619"><ele>1675.0</ele><time>2026-03-26T10:45:06.963Z</time></trkpt><trkpt lat="30.72501797501582" lon="-6.604667497830243"><ele>1675.0</ele><time>2026-03-26T10:45:07.963Z</time></trkpt><trkpt lat="30.72515356012196" lon="-6.604859765102839"><ele>1674.3333333333335</ele><time>2026-03-26T10:45:08.962Z</time></trkpt><trkpt lat="30.725289078178527" lon="-6.605050531577845"><ele>1673.6666666666665</ele><time>2026-03-26T10:45:09.96Z</time></trkpt><trkpt lat="30.72542009306201" lon="-6.605238061896441"><ele>1673.0</ele><time>2026-03-26T10:45:10.959Z</time></trkpt><trkpt lat="30.72554855656331" lon="-6.6054206182146595"><ele>1676.0</ele><time>2026-03-26T10:45:11.958Z</time></trkpt><trkpt lat="30.725675642422864" lon="-6.605598650167188"><ele>1679.0</ele><time>2026-03-26T10:45:12.957Z</time></trkpt><trkpt lat="30.725802506845568" lon="-6.605773349062347"><ele>1682.0</ele><time>2026-03-26T10:45:13.956Z</time></trkpt><trkpt lat="30.725915302840562" lon="-6.605937045173244"><ele>1682.0</ele><time>2026-03-26T10:45:14.955Z</time></trkpt><trkpt lat="30.726018511257227" lon="-6.606090514670254"><ele>1682.0</ele><time>2026-03-26T10:45:15.954Z</time></trkpt><trkpt lat="30.726105033054967" lon="-6.606247081266587"><ele>1682.0</ele><time>2026-03-26T10:45:16.953Z</time></trkpt><trkpt lat="30.72616621682118" lon="-6.606411367051901"><ele>1683.75</ele><time>2026-03-26T10:45:17.953Z</time></trkpt><trkpt lat="30.72620916348032" lon="-6.606572525640824"><ele>1685.5</ele><time>2026-03-26T10:45:18.952Z</time></trkpt><trkpt lat="30.726238373367686" lon="-6.606733387355852"><ele>1687.25</ele><time>2026-03-26T10:45:19.951Z</time></trkpt><trkpt lat="30.72624739152742" lon="-6.606896667331381"><ele>1689.0</ele><time>2026-03-26T10:45:20.951Z</time></trkpt><trkpt lat="30.72623491447217" lon="-6.607064837133315"><ele>1689.0</ele><time>2026-03-26T10:45:21.95Z</time></trkpt><trkpt lat="30.726205636894406" lon="-6.607237397820991"><ele>1689.0</ele><time>2026-03-26T10:45:22.949Z</time></trkpt><trkpt lat="30.72615639290649" lon="-6.607399292861475"><ele>1689.0</ele><time>2026-03-26T10:45:23.949Z</time></trkpt><trkpt lat="30.726098314348445" lon="-6.607549885356651"><ele>1689.0</ele><time>2026-03-26T10:45:24.948Z</time></trkpt><trkpt lat="30.72601828047064" lon="-6.60769305789089"><ele>1691.0</ele><time>2026-03-26T10:45:25.948Z</time></trkpt><trkpt lat="30.725926166065953" lon="-6.607825142250549"><ele>1693.0</ele><time>2026-03-26T10:45:26.947Z</time></trkpt><trkpt lat="30.725806032462437" lon="-6.607955031515351"><ele>1695.0</ele><time>2026-03-26T10:45:27.947Z</time></trkpt><trkpt lat="30.72567825582542" lon="-6.608080440696755"><ele>1689.0</ele><time>2026-03-26T10:45:28.947Z</time></trkpt><trkpt lat="30.725542105626136" lon="-6.608159547892297"><ele>1683.0</ele><time>2026-03-26T10:45:29.946Z</time></trkpt><trkpt lat="30.725397629398557" lon="-6.608224173982609"><ele>1677.0</ele><time>2026-03-26T10:45:30.946Z</time></trkpt><trkpt lat="30.725251831950413" lon="-6.60826758794173"><ele>1682.3333333333335</ele><time>2026-03-26T10:45:31.946Z</time></trkpt><trkpt lat="30.725097220716812" lon="-6.608335000793881"><ele>1687.6666666666667</ele><time>2026-03-26T10:45:32.945Z</time></trkpt><trkpt lat="30.724937476251434" lon="-6.608405857845285"><ele>1693.0</ele><time>2026-03-26T10:45:33.945Z</time></trkpt><trkpt lat="30.724781110974956" lon="-6.608473775879977"><ele>1693.0</ele><time>2026-03-26T10:45:34.945Z</time></trkpt><trkpt lat="30.72462165928938" lon="-6.608546876514931"><ele>1693.0</ele><time>2026-03-26T10:45:35.945Z</time></trkpt><trkpt lat="30.72447871337375" lon="-6.608615776167107"><ele>1693.0</ele><time>2026-03-26T10:45:36.944Z</time></trkpt><trkpt lat="30.724346857317478" lon="-6.608694763684137"><ele>1689.0</ele><time>2026-03-26T10:45:37.944Z</time></trkpt><trkpt lat="30.72422155794798" lon="-6.608784184360217"><ele>1685.0</ele><time>2026-03-26T10:45:38.944Z</time></trkpt><trkpt lat="30.72409577656673" lon="-6.608887134009908"><ele>1681.0</ele><time>2026-03-26T10:45:39.944Z</time></trkpt><trkpt lat="30.72397123363042" lon="-6.609015838132823"><ele>1681.0</ele><time>2026-03-26T10:45:40.944Z</time></trkpt><trkpt lat="30.723865938653052" lon="-6.609137844357003"><ele>1681.0</ele><time>2026-03-26T10:45:41.943Z</time></trkpt><trkpt lat="30.723779685211166" lon="-6.609248829106168"><ele>1681.0</ele><time>2026-03-26T10:45:42.943Z</time></trkpt><trkpt lat="30.723712962919794" lon="-6.609340430344371"><ele>1681.0</ele><time>2026-03-26T10:45:43.943Z</time></trkpt><trkpt lat="30.72365685386304" lon="-6.609429562687732"><ele>1681.6</ele><time>2026-03-26T10:45:44.943Z</time></trkpt><trkpt lat="30.723608917017096" lon="-6.609527414115812"><ele>1682.1999999999998</ele><time>2026-03-26T10:45:45.943Z</time></trkpt><trkpt lat="30.723573056582854" lon="-6.609619317438649"><ele>1682.8000000000002</ele><time>2026-03-26T10:45:46.943Z</time></trkpt><trkpt lat="30.72353092414139" lon="-6.609729533834738"><ele>1683.4</ele><time>2026-03-26T10:45:47.943Z</time></trkpt><trkpt lat="30.723486084667087" lon="-6.609844678759773"><ele>1684.0</ele><time>2026-03-26T10:45:48.942Z</time></trkpt><trkpt lat="30.723447443950157" lon="-6.6099669910770755"><ele>1684.0</ele><time>2026-03-26T10:45:49.942Z</time></trkpt><trkpt lat="30.7234144290017" lon="-6.61010076399265"><ele>1684.0</ele><time>2026-03-26T10:45:50.942Z</time></trkpt><trkpt lat="30.723382600506554" lon="-6.610242324060829"><ele>1684.0</ele><time>2026-03-26T10:45:51.942Z</time></trkpt><trkpt lat="30.72335271096772" lon="-6.610397346266331"><ele>1684.0</ele><time>2026-03-26T10:45:52.942Z</time></trkpt><trkpt lat="30.723320171959443" lon="-6.61056108469132"><ele>1680.25</ele><time>2026-03-26T10:45:53.942Z</time></trkpt><trkpt lat="30.72328244757708" lon="-6.610711256604432"><ele>1676.5</ele><time>2026-03-26T10:45:54.942Z</time></trkpt><trkpt lat="30.723242017087955" lon="-6.610866499469761"><ele>1672.75</ele><time>2026-03-26T10:45:55.942Z</time></trkpt><trkpt lat="30.723188917644197" lon="-6.61102025852134"><ele>1669.0</ele><time>2026-03-26T10:45:56.942Z</time></trkpt><trkpt lat="30.72312460241319" lon="-6.611166624148916"><ele>1662.25</ele><time>2026-03-26T10:45:57.942Z</time></trkpt><trkpt lat="30.723049187650073" lon="-6.6113088962800255"><ele>1655.5</ele><time>2026-03-26T10:45:58.942Z</time></trkpt><trkpt lat="30.72296746793419" lon="-6.611448496490677"><ele>1648.75</ele><time>2026-03-26T10:45:59.942Z</time></trkpt><trkpt lat="30.72287143369803" lon="-6.6115958280964655"><ele>1642.0</ele><time>2026-03-26T10:46:00.942Z</time></trkpt><trkpt lat="30.72276659331068" lon="-6.611733465199643"><ele>1645.3333333333335</ele><time>2026-03-26T10:46:01.941Z</time></trkpt><trkpt lat="30.722654740692665" lon="-6.611864493407014"><ele>1648.6666666666665</ele><time>2026-03-26T10:46:02.941Z</time></trkpt><trkpt lat="30.7225406070842" lon="-6.611985022225621"><ele>1652.0</ele><time>2026-03-26T10:46:03.941Z</time></trkpt><trkpt lat="30.72242615859743" lon="-6.612101684638782"><ele>1652.0</ele><time>2026-03-26T10:46:04.941Z</time></trkpt><trkpt lat="30.722321254023438" lon="-6.612230672679074"><ele>1652.0</ele><time>2026-03-26T10:46:05.941Z</time></trkpt><trkpt lat="30.722227436293426" lon="-6.612382288888571"><ele>1652.0</ele><time>2026-03-26T10:46:06.941Z</time></trkpt><trkpt lat="30.72215036829217" lon="-6.61255347167461"><ele>1652.0</ele><time>2026-03-26T10:46:07.941Z</time></trkpt><trkpt lat="30.722087629641326" lon="-6.612736582701607"><ele>1652.0</ele><time>2026-03-26T10:46:08.941Z</time></trkpt><trkpt lat="30.722027808524587" lon="-6.61291652098907"><ele>1652.0</ele><time>2026-03-26T10:46:09.941Z</time></trkpt><trkpt lat="30.72196477138498" lon="-6.613100509740593"><ele>1656.0</ele><time>2026-03-26T10:46:10.941Z</time></trkpt><trkpt lat="30.721890538764573" lon="-6.613265796385664"><ele>1660.0</ele><time>2026-03-26T10:46:11.941Z</time></trkpt><trkpt lat="30.72181813588354" lon="-6.6134205636984635"><ele>1664.0</ele><time>2026-03-26T10:46:12.941Z</time></trkpt><trkpt lat="30.72174580634546" lon="-6.613573175805074"><ele>1658.5</ele><time>2026-03-26T10:46:13.941Z</time></trkpt><trkpt lat="30.721677380557324" lon="-6.6137243577351965"><ele>1653.0</ele><time>2026-03-26T10:46:14.941Z</time></trkpt><trkpt lat="30.721611795310032" lon="-6.613865437931489"><ele>1647.5</ele><time>2026-03-26T10:46:15.941Z</time></trkpt><trkpt lat="30.721549963435045" lon="-6.6140065043974"><ele>1642.0</ele><time>2026-03-26T10:46:16.941Z</time></trkpt><trkpt lat="30.72148694454739" lon="-6.614150189120841"><ele>1642.0</ele><time>2026-03-26T10:46:17.941Z</time></trkpt><trkpt lat="30.72142423074573" lon="-6.614300514808268"><ele>1642.0</ele><time>2026-03-26T10:46:18.941Z</time></trkpt><trkpt lat="30.721366517890214" lon="-6.614450629182388"><ele>1642.0</ele><time>2026-03-26T10:46:19.941Z</time></trkpt><trkpt lat="30.721314169732384" lon="-6.614610693475157"><ele>1642.0</ele><time>2026-03-26T10:46:20.941Z</time></trkpt><trkpt lat="30.721260176830583" lon="-6.6147719235656846"><ele>1645.3333333333335</ele><time>2026-03-26T10:46:21.941Z</time></trkpt><trkpt lat="30.721193676625802" lon="-6.614934197086284"><ele>1648.6666666666665</ele><time>2026-03-26T10:46:22.941Z</time></trkpt><trkpt lat="30.7211131984902" lon="-6.615099631625137"><ele>1652.0</ele><time>2026-03-26T10:46:23.941Z</time></trkpt><trkpt lat="30.721021801525296" lon="-6.615262254708689"><ele>1647.0</ele><time>2026-03-26T10:46:24.941Z</time></trkpt><trkpt lat="30.72093356353527" lon="-6.615420690630417"><ele>1642.0</ele><time>2026-03-26T10:46:25.941Z</time></trkpt><trkpt lat="30.720849446360184" lon="-6.61557095012647"><ele>1637.0</ele><time>2026-03-26T10:46:26.941Z</time></trkpt><trkpt lat="30.720771985749177" lon="-6.6157218302652785"><ele>1637.0</ele><time>2026-03-26T10:46:27.941Z</time></trkpt><trkpt lat="30.72071268898783" lon="-6.615885600707865"><ele>1637.0</ele><time>2026-03-26T10:46:28.941Z</time></trkpt><trkpt lat="30.72068696758878" lon="-6.616048781907335"><ele>1637.0</ele><time>2026-03-26T10:46:29.941Z</time></trkpt><trkpt lat="30.720680285377867" lon="-6.616219872551915"><ele>1637.0</ele><time>2026-03-26T10:46:30.941Z</time></trkpt><trkpt lat="30.72070396766724" lon="-6.616401744971608"><ele>1634.6666666666665</ele><time>2026-03-26T10:46:31.941Z</time></trkpt><trkpt lat="30.720788103752124" lon="-6.616578008157189"><ele>1632.3333333333335</ele><time>2026-03-26T10:46:32.941Z</time></trkpt><trkpt lat="30.720877725560708" lon="-6.616772621227752"><ele>1630.0</ele><time>2026-03-26T10:46:33.941Z</time></trkpt><trkpt lat="30.720949594479954" lon="-6.616947124242074"><ele>1631.3333333333335</ele><time>2026-03-26T10:46:34.941Z</time></trkpt><trkpt lat="30.72098638018467" lon="-6.617118776573261"><ele>1632.6666666666665</ele><time>2026-03-26T10:46:35.941Z</time></trkpt><trkpt lat="30.72102755916513" lon="-6.6172998613282115"><ele>1634.0</ele><time>2026-03-26T10:46:36.941Z</time></trkpt><trkpt lat="30.7210224529532" lon="-6.617485646882967"><ele>1634.0</ele><time>2026-03-26T10:46:37.94Z</time></trkpt><trkpt lat="30.720997465010473" lon="-6.617666737674769"><ele>1634.0</ele><time>2026-03-26T10:46:38.94Z</time></trkpt><trkpt lat="30.720964100003954" lon="-6.617857854332975"><ele>1634.0</ele><time>2026-03-26T10:46:39.94Z</time></trkpt><trkpt lat="30.72091427462123" lon="-6.618066621905749"><ele>1627.3333333333333</ele><time>2026-03-26T10:46:40.941Z</time></trkpt><trkpt lat="30.72082089663088" lon="-6.618285878882795"><ele>1620.6666666666665</ele><time>2026-03-26T10:46:41.941Z</time></trkpt><trkpt lat="30.720703809195754" lon="-6.618502351682455"><ele>1614.0</ele><time>2026-03-26T10:46:42.941Z</time></trkpt><trkpt lat="30.720570557493016" lon="-6.6186907230686955"><ele>1612.6666666666665</ele><time>2026-03-26T10:46:43.941Z</time></trkpt><trkpt lat="30.720422753083188" lon="-6.618841440292052"><ele>1611.3333333333333</ele><time>2026-03-26T10:46:44.941Z</time></trkpt><trkpt lat="30.720265020660225" lon="-6.618986708915082"><ele>1610.0</ele><time>2026-03-26T10:46:45.941Z</time></trkpt><trkpt lat="30.72009065493195" lon="-6.619085259736578"><ele>1610.0</ele><time>2026-03-26T10:46:46.941Z</time></trkpt><trkpt lat="30.719878421448467" lon="-6.619107802226983"><ele>1610.0</ele><time>2026-03-26T10:46:47.941Z</time></trkpt><trkpt lat="30.719693384297724" lon="-6.6191916831174105"><ele>1610.0</ele><time>2026-03-26T10:46:48.941Z</time></trkpt><trkpt lat="30.71954565031038" lon="-6.619374104386269"><ele>1605.5</ele><time>2026-03-26T10:46:49.941Z</time></trkpt><trkpt lat="30.719366056004006" lon="-6.6195565529192635"><ele>1601.0</ele><time>2026-03-26T10:46:50.941Z</time></trkpt><trkpt lat="30.719179632525353" lon="-6.619751144569853"><ele>1601.0</ele><time>2026-03-26T10:46:51.94Z</time></trkpt><trkpt lat="30.718980026754245" lon="-6.619965068047653"><ele>1601.0</ele><time>2026-03-26T10:46:52.94Z</time></trkpt><trkpt lat="30.718770544824316" lon="-6.620169791560191"><ele>1597.5</ele><time>2026-03-26T10:46:53.94Z</time></trkpt><trkpt lat="30.71858390741768" lon="-6.620351745814783"><ele>1594.0</ele><time>2026-03-26T10:46:54.94Z</time></trkpt><trkpt lat="30.71840808069329" lon="-6.620522403575234"><ele>1594.0</ele><time>2026-03-26T10:46:55.94Z</time></trkpt><trkpt lat="30.718239925716684" lon="-6.620683908347825"><ele>1594.0</ele><time>2026-03-26T10:46:56.94Z</time></trkpt><trkpt lat="30.718052646082462" lon="-6.620858686069553"><ele>1594.0</ele><time>2026-03-26T10:46:57.94Z</time></trkpt><trkpt lat="30.717862977018655" lon="-6.621019657399187"><ele>1594.0</ele><time>2026-03-26T10:46:58.94Z</time></trkpt><trkpt lat="30.71769799055108" lon="-6.621181642697256"><ele>1594.0</ele><time>2026-03-26T10:46:59.94Z</time></trkpt><trkpt lat="30.717543459656188" lon="-6.621330831774627"><ele>1594.0</ele><time>2026-03-26T10:47:00.94Z</time></trkpt><trkpt lat="30.717388897528544" lon="-6.621492174423894"><ele>1594.0</ele><time>2026-03-26T10:47:01.94Z</time></trkpt><trkpt lat="30.71729042943801" lon="-6.62167780681479"><ele>1594.0</ele><time>2026-03-26T10:47:02.94Z</time></trkpt><trkpt lat="30.71718016516021" lon="-6.621813493965583"><ele>1594.0</ele><time>2026-03-26T10:47:03.94Z</time></trkpt><trkpt lat="30.717119705242382" lon="-6.622000114777452"><ele>1594.0</ele><time>2026-03-26T10:47:04.94Z</time></trkpt><trkpt lat="30.71709231267535" lon="-6.622188803705332"><ele>1592.0</ele><time>2026-03-26T10:47:05.94Z</time></trkpt><trkpt lat="30.717096363057497" lon="-6.622380268513984"><ele>1590.0</ele><time>2026-03-26T10:47:06.94Z</time></trkpt><trkpt lat="30.71713521098423" lon="-6.622561222446684"><ele>1588.0</ele><time>2026-03-26T10:47:07.94Z</time></trkpt><trkpt lat="30.71720297876684" lon="-6.6227203376178805"><ele>1586.0</ele><time>2026-03-26T10:47:08.94Z</time></trkpt><trkpt lat="30.717288119525353" lon="-6.622863578315402"><ele>1584.0</ele><time>2026-03-26T10:47:09.94Z</time></trkpt><trkpt lat="30.717390229081232" lon="-6.622988290758716"><ele>1582.0</ele><time>2026-03-26T10:47:10.94Z</time></trkpt><trkpt lat="30.717506510874504" lon="-6.623087022913285"><ele>1580.0</ele><time>2026-03-26T10:47:11.94Z</time></trkpt><trkpt lat="30.71763800385514" lon="-6.623166545482902"><ele>1578.25</ele><time>2026-03-26T10:47:12.94Z</time></trkpt><trkpt lat="30.717777688893218" lon="-6.623217263478469"><ele>1576.5</ele><time>2026-03-26T10:47:13.94Z</time></trkpt><trkpt lat="30.717922138863734" lon="-6.623237806031877"><ele>1574.75</ele><time>2026-03-26T10:47:14.94Z</time></trkpt><trkpt lat="30.718064201187453" lon="-6.623234147544653"><ele>1573.0</ele><time>2026-03-26T10:47:15.94Z</time></trkpt><trkpt lat="30.7181984479956" lon="-6.623206741520522"><ele>1573.0</ele><time>2026-03-26T10:47:16.94Z</time></trkpt><trkpt lat="30.71833248616873" lon="-6.623146601139685"><ele>1573.0</ele><time>2026-03-26T10:47:17.94Z</time></trkpt><trkpt lat="30.71846982234654" lon="-6.623054743423882"><ele>1573.0</ele><time>2026-03-26T10:47:18.94Z</time></trkpt><trkpt lat="30.71860340162133" lon="-6.622937589037465"><ele>1571.3333333333335</ele><time>2026-03-26T10:47:19.94Z</time></trkpt><trkpt lat="30.718712988223448" lon="-6.622788957715517"><ele>1569.6666666666665</ele><time>2026-03-26T10:47:20.94Z</time></trkpt><trkpt lat="30.71881163868171" lon="-6.622613047566022"><ele>1568.0</ele><time>2026-03-26T10:47:21.94Z</time></trkpt><trkpt lat="30.718927963925694" lon="-6.62241043895972"><ele>1568.0</ele><time>2026-03-26T10:47:22.94Z</time></trkpt><trkpt lat="30.71905771310038" lon="-6.6221887580046905"><ele>1568.0</ele><time>2026-03-26T10:47:23.94Z</time></trkpt><trkpt lat="30.719215340674566" lon="-6.6219563079367045"><ele>1570.0</ele><time>2026-03-26T10:47:24.94Z</time></trkpt><trkpt lat="30.719378508364958" lon="-6.621740625072596"><ele>1572.0</ele><time>2026-03-26T10:47:25.94Z</time></trkpt><trkpt lat="30.719599224540083" lon="-6.621587087006753"><ele>1567.5</ele><time>2026-03-26T10:47:26.94Z</time></trkpt><trkpt lat="30.719834067158356" lon="-6.621446732071715"><ele>1563.0</ele><time>2026-03-26T10:47:27.94Z</time></trkpt><trkpt lat="30.720098212313363" lon="-6.6213239582398575"><ele>1565.0</ele><time>2026-03-26T10:47:28.94Z</time></trkpt><trkpt lat="30.72037598385609" lon="-6.621217930299509"><ele>1567.0</ele><time>2026-03-26T10:47:29.94Z</time></trkpt><trkpt lat="30.720662373330825" lon="-6.621098724761737"><ele>1567.0</ele><time>2026-03-26T10:47:30.94Z</time></trkpt><trkpt lat="30.720932673763997" lon="-6.620985653069491"><ele>1567.0</ele><time>2026-03-26T10:47:31.94Z</time></trkpt><trkpt lat="30.72116736739647" lon="-6.620856858016673"><ele>1563.0</ele><time>2026-03-26T10:47:32.94Z</time></trkpt><trkpt lat="30.721403887810574" lon="-6.6207828921847645"><ele>1559.0</ele><time>2026-03-26T10:47:33.94Z</time></trkpt><trkpt lat="30.72161900935142" lon="-6.620704764644896"><ele>1559.0</ele><time>2026-03-26T10:47:34.94Z</time></trkpt><trkpt lat="30.721830276890522" lon="-6.6206455388828065"><ele>1559.0</ele><time>2026-03-26T10:47:35.94Z</time></trkpt><trkpt lat="30.722054875098674" lon="-6.62059205478649"><ele>1559.0</ele><time>2026-03-26T10:47:36.94Z</time></trkpt><trkpt lat="30.722290141979975" lon="-6.620557402868027"><ele>1555.5</ele><time>2026-03-26T10:47:37.94Z</time></trkpt><trkpt lat="30.722541145456315" lon="-6.620544785442458"><ele>1552.0</ele><time>2026-03-26T10:47:38.94Z</time></trkpt><trkpt lat="30.7227930430327" lon="-6.620554616739335"><ele>1552.0</ele><time>2026-03-26T10:47:39.94Z</time></trkpt><trkpt lat="30.72305015831348" lon="-6.620586093669875"><ele>1552.0</ele><time>2026-03-26T10:47:40.94Z</time></trkpt><trkpt lat="30.723310957850494" lon="-6.620645627798566"><ele>1549.0</ele><time>2026-03-26T10:47:41.94Z</time></trkpt><trkpt lat="30.72356740699697" lon="-6.620733944850728"><ele>1546.0</ele><time>2026-03-26T10:47:42.94Z</time></trkpt><trkpt lat="30.723830307390028" lon="-6.620844963185423"><ele>1546.0</ele><time>2026-03-26T10:47:43.94Z</time></trkpt><trkpt lat="30.724104666494746" lon="-6.620969565704891"><ele>1546.0</ele><time>2026-03-26T10:47:44.94Z</time></trkpt><trkpt lat="30.724382693593306" lon="-6.621106753829594"><ele>1540.0</ele><time>2026-03-26T10:47:45.94Z</time></trkpt><trkpt lat="30.724659628556456" lon="-6.6212454221826285"><ele>1534.0</ele><time>2026-03-26T10:47:46.94Z</time></trkpt><trkpt lat="30.72493251372641" lon="-6.621381564004045"><ele>1534.0</ele><time>2026-03-26T10:47:47.94Z</time></trkpt><trkpt lat="30.72520697399663" lon="-6.621518531433854"><ele>1534.0</ele><time>2026-03-26T10:47:48.94Z</time></trkpt><trkpt lat="30.725475607992305" lon="-6.621653484507141"><ele>1532.5</ele><time>2026-03-26T10:47:49.94Z</time></trkpt><trkpt lat="30.72573890574601" lon="-6.621781339313298"><ele>1531.0</ele><time>2026-03-26T10:47:50.94Z</time></trkpt><trkpt lat="30.725999254201948" lon="-6.621906467609214"><ele>1527.0</ele><time>2026-03-26T10:47:51.94Z</time></trkpt><trkpt lat="30.726254906207703" lon="-6.622031807413062"><ele>1523.0</ele><time>2026-03-26T10:47:52.94Z</time></trkpt><trkpt lat="30.726507690618387" lon="-6.622158867733966"><ele>1523.0</ele><time>2026-03-26T10:47:53.94Z</time></trkpt><trkpt lat="30.72675554088993" lon="-6.622282323074724"><ele>1523.0</ele><time>2026-03-26T10:47:54.94Z</time></trkpt><trkpt lat="30.72700623742197" lon="-6.622408139829136"><ele>1519.5</ele><time>2026-03-26T10:47:55.94Z</time></trkpt><trkpt lat="30.727261175272304" lon="-6.622535749189185"><ele>1516.0</ele><time>2026-03-26T10:47:56.94Z</time></trkpt><trkpt lat="30.727526070085357" lon="-6.622665654442486"><ele>1515.5</ele><time>2026-03-26T10:47:57.94Z</time></trkpt><trkpt lat="30.727793968373405" lon="-6.622798268201165"><ele>1515.0</ele><time>2026-03-26T10:47:58.94Z</time></trkpt><trkpt lat="30.72806471338724" lon="-6.62293062274258"><ele>1513.5</ele><time>2026-03-26T10:47:59.94Z</time></trkpt><trkpt lat="30.72834495841602" lon="-6.623068618801107"><ele>1512.0</ele><time>2026-03-26T10:48:00.94Z</time></trkpt><trkpt lat="30.72860883700262" lon="-6.623198065373861"><ele>1510.5</ele><time>2026-03-26T10:48:01.94Z</time></trkpt><trkpt lat="30.72884714205131" lon="-6.623317294517415"><ele>1509.0</ele><time>2026-03-26T10:48:02.94Z</time></trkpt><trkpt lat="30.72907666264201" lon="-6.623433880043071"><ele>1509.0</ele><time>2026-03-26T10:48:03.94Z</time></trkpt><trkpt lat="30.729305927440723" lon="-6.623550980415417"><ele>1509.0</ele><time>2026-03-26T10:48:04.94Z</time></trkpt><trkpt lat="30.729512526793556" lon="-6.623672527282893"><ele>1506.0</ele><time>2026-03-26T10:48:05.94Z</time></trkpt><trkpt lat="30.729707450031892" lon="-6.623812195234678"><ele>1503.0</ele><time>2026-03-26T10:48:06.94Z</time></trkpt><trkpt lat="30.729885985564668" lon="-6.623972842286322"><ele>1503.0</ele><time>2026-03-26T10:48:07.94Z</time></trkpt><trkpt lat="30.73004192167118" lon="-6.6241473914460425"><ele>1503.0</ele><time>2026-03-26T10:48:08.94Z</time></trkpt><trkpt lat="30.730186646734015" lon="-6.624342877426722"><ele>1503.0</ele><time>2026-03-26T10:48:09.94Z</time></trkpt><trkpt lat="30.73032244487841" lon="-6.624567704212987"><ele>1503.0</ele><time>2026-03-26T10:48:10.94Z</time></trkpt><trkpt lat="30.730437346904054" lon="-6.624814242829561"><ele>1503.0</ele><time>2026-03-26T10:48:11.94Z</time></trkpt><trkpt lat="30.73052731233706" lon="-6.625068464398526"><ele>1501.5</ele><time>2026-03-26T10:48:12.94Z</time></trkpt><trkpt lat="30.73059520417506" lon="-6.625341223988617"><ele>1500.0</ele><time>2026-03-26T10:48:13.94Z</time></trkpt><trkpt lat="30.73066252784671" lon="-6.625630120665517"><ele>1500.0</ele><time>2026-03-26T10:48:14.94Z</time></trkpt><trkpt lat="30.73073220594258" lon="-6.6259142627138825"><ele>1500.0</ele><time>2026-03-26T10:48:15.94Z</time></trkpt><trkpt lat="30.730794099412428" lon="-6.62616907065486"><ele>1498.6666666666667</ele><time>2026-03-26T10:48:16.94Z</time></trkpt><trkpt lat="30.7308569581644" lon="-6.626415107055997"><ele>1497.3333333333335</ele><time>2026-03-26T10:48:17.94Z</time></trkpt><trkpt lat="30.73093257969065" lon="-6.6266608533950535"><ele>1496.0</ele><time>2026-03-26T10:48:18.94Z</time></trkpt><trkpt lat="30.7310236510235" lon="-6.626893474025103"><ele>1493.5</ele><time>2026-03-26T10:48:19.94Z</time></trkpt><trkpt lat="30.731142411812712" lon="-6.627117212870115"><ele>1491.0</ele><time>2026-03-26T10:48:20.94Z</time></trkpt><trkpt lat="30.731282400125192" lon="-6.627347377231344"><ele>1491.0</ele><time>2026-03-26T10:48:21.94Z</time></trkpt><trkpt lat="30.731426483447912" lon="-6.627569963974792"><ele>1491.0</ele><time>2026-03-26T10:48:22.94Z</time></trkpt><trkpt lat="30.73155127928261" lon="-6.627773029501112"><ele>1490.6666666666667</ele><time>2026-03-26T10:48:23.94Z</time></trkpt><trkpt lat="30.731663302573438" lon="-6.627962738179148"><ele>1490.3333333333335</ele><time>2026-03-26T10:48:24.94Z</time></trkpt><trkpt lat="30.731762905482675" lon="-6.628141546699832"><ele>1490.0</ele><time>2026-03-26T10:48:25.94Z</time></trkpt><trkpt lat="30.731832867352516" lon="-6.628309276826468"><ele>1490.0</ele><time>2026-03-26T10:48:26.94Z</time></trkpt><trkpt lat="30.73186756733183" lon="-6.6284892861821145"><ele>1490.0</ele><time>2026-03-26T10:48:27.94Z</time></trkpt><trkpt lat="30.73185943495309" lon="-6.628682630184646"><ele>1490.0</ele><time>2026-03-26T10:48:28.94Z</time></trkpt><trkpt lat="30.731817616151123" lon="-6.628894376713642"><ele>1490.0</ele><time>2026-03-26T10:48:29.94Z</time></trkpt><trkpt lat="30.73176423848445" lon="-6.629127084149489"><ele>1490.0</ele><time>2026-03-26T10:48:30.94Z</time></trkpt><trkpt lat="30.731712377286108" lon="-6.629381675002676"><ele>1490.0</ele><time>2026-03-26T10:48:31.94Z</time></trkpt><trkpt lat="30.731665861731543" lon="-6.629621533777355"><ele>1490.0</ele><time>2026-03-26T10:48:32.94Z</time></trkpt><trkpt lat="30.731631823023697" lon="-6.629833845294867"><ele>1490.0</ele><time>2026-03-26T10:48:33.94Z</time></trkpt><trkpt lat="30.7316106819414" lon="-6.6300260812194125"><ele>1490.0</ele><time>2026-03-26T10:48:34.94Z</time></trkpt><trkpt lat="30.73160791481838" lon="-6.630192456501831"><ele>1491.25</ele><time>2026-03-26T10:48:35.94Z</time></trkpt><trkpt lat="30.731637462875195" lon="-6.630345520351881"><ele>1492.5</ele><time>2026-03-26T10:48:36.94Z</time></trkpt><trkpt lat="30.73169713947221" lon="-6.6304889374984795"><ele>1493.75</ele><time>2026-03-26T10:48:37.94Z</time></trkpt><trkpt lat="30.731774057437104" lon="-6.630609278594891"><ele>1495.0</ele><time>2026-03-26T10:48:38.94Z</time></trkpt><trkpt lat="30.731880325002646" lon="-6.630716707766182"><ele>1496.0</ele><time>2026-03-26T10:48:39.94Z</time></trkpt><trkpt lat="30.732022282624065" lon="-6.630807364083047"><ele>1497.0</ele><time>2026-03-26T10:48:40.94Z</time></trkpt><trkpt lat="30.73218227575975" lon="-6.630899221029837"><ele>1498.0</ele><time>2026-03-26T10:48:41.94Z</time></trkpt><trkpt lat="30.732347234170053" lon="-6.631021884067468"><ele>1500.0</ele><time>2026-03-26T10:48:42.94Z</time></trkpt><trkpt lat="30.732473001572718" lon="-6.631155343372416"><ele>1502.0</ele><time>2026-03-26T10:48:43.94Z</time></trkpt><trkpt lat="30.73257467085811" lon="-6.631296324408242"><ele>1504.0</ele><time>2026-03-26T10:48:44.94Z</time></trkpt><trkpt lat="30.73265290112397" lon="-6.631464535398107"><ele>1504.0</ele><time>2026-03-26T10:48:45.94Z</time></trkpt><trkpt lat="30.732717020416658" lon="-6.631668061397312"><ele>1504.0</ele><time>2026-03-26T10:48:46.939Z</time></trkpt><trkpt lat="30.73275218862184" lon="-6.631888289820223"><ele>1504.0</ele><time>2026-03-26T10:48:47.939Z</time></trkpt><trkpt lat="30.732763462811302" lon="-6.632097665298522"><ele>1502.6666666666665</ele><time>2026-03-26T10:48:48.94Z</time></trkpt><trkpt lat="30.732783570401995" lon="-6.632305874243251"><ele>1501.3333333333333</ele><time>2026-03-26T10:48:49.94Z</time></trkpt><trkpt lat="30.732809359712462" lon="-6.632515486368619"><ele>1500.0</ele><time>2026-03-26T10:48:50.94Z</time></trkpt><trkpt lat="30.732836921781853" lon="-6.632729711798839"><ele>1500.0</ele><time>2026-03-26T10:48:51.94Z</time></trkpt><trkpt lat="30.732863957399573" lon="-6.632942567235463"><ele>1500.0</ele><time>2026-03-26T10:48:52.94Z</time></trkpt><trkpt lat="30.732890256612134" lon="-6.633162660284935"><ele>1500.0</ele><time>2026-03-26T10:48:53.94Z</time></trkpt><trkpt lat="30.73292098128769" lon="-6.633386035243802"><ele>1500.0</ele><time>2026-03-26T10:48:54.94Z</time></trkpt><trkpt lat="30.732960330007888" lon="-6.633612129700561"><ele>1500.0</ele><time>2026-03-26T10:48:55.94Z</time></trkpt><trkpt lat="30.732991052787224" lon="-6.633840136761786"><ele>1500.0</ele><time>2026-03-26T10:48:56.94Z</time></trkpt><trkpt lat="30.733022740378075" lon="-6.6340718281321704"><ele>1500.0</ele><time>2026-03-26T10:48:57.94Z</time></trkpt><trkpt lat="30.7330471913566" lon="-6.6342940840078155"><ele>1500.0</ele><time>2026-03-26T10:48:58.94Z</time></trkpt><trkpt lat="30.733068176649404" lon="-6.634512831485586"><ele>1500.0</ele><time>2026-03-26T10:48:59.94Z</time></trkpt><trkpt lat="30.733116641818" lon="-6.634740416993933"><ele>1501.0</ele><time>2026-03-26T10:49:00.94Z</time></trkpt><trkpt lat="30.73314038060034" lon="-6.6349660588999635"><ele>1502.0</ele><time>2026-03-26T10:49:01.94Z</time></trkpt><trkpt lat="30.733165865949548" lon="-6.635188350108643"><ele>1503.0</ele><time>2026-03-26T10:49:02.94Z</time></trkpt><trkpt lat="30.7331990005531" lon="-6.635413098305734"><ele>1504.3333333333333</ele><time>2026-03-26T10:49:03.94Z</time></trkpt><trkpt lat="30.733242351294127" lon="-6.635637694907689"><ele>1505.6666666666665</ele><time>2026-03-26T10:49:04.94Z</time></trkpt><trkpt lat="30.733301300795002" lon="-6.635860727393754"><ele>1507.0</ele><time>2026-03-26T10:49:05.94Z</time></trkpt><trkpt lat="30.733375998591207" lon="-6.636062135001007"><ele>1507.6666666666665</ele><time>2026-03-26T10:49:06.94Z</time></trkpt><trkpt lat="30.73346743507" lon="-6.6362547504476606"><ele>1508.3333333333333</ele><time>2026-03-26T10:49:07.94Z</time></trkpt><trkpt lat="30.73358278758434" lon="-6.636423025782117"><ele>1509.0</ele><time>2026-03-26T10:49:08.94Z</time></trkpt><trkpt lat="30.733711148311105" lon="-6.636581208713902"><ele>1509.0</ele><time>2026-03-26T10:49:09.94Z</time></trkpt><trkpt lat="30.73386009745339" lon="-6.636727807757677"><ele>1509.0</ele><time>2026-03-26T10:49:10.94Z</time></trkpt><trkpt lat="30.734027772202392" lon="-6.636867536518862"><ele>1509.0</ele><time>2026-03-26T10:49:11.94Z</time></trkpt><trkpt lat="30.734205869740492" lon="-6.637010868317742"><ele>1509.6666666666667</ele><time>2026-03-26T10:49:12.94Z</time></trkpt><trkpt lat="30.73437593048424" lon="-6.637149829060228"><ele>1510.3333333333335</ele><time>2026-03-26T10:49:13.94Z</time></trkpt><trkpt lat="30.734537516339948" lon="-6.637284372939622"><ele>1511.0</ele><time>2026-03-26T10:49:14.94Z</time></trkpt><trkpt lat="30.73469770156108" lon="-6.637418720560803"><ele>1509.6666666666667</ele><time>2026-03-26T10:49:15.94Z</time></trkpt><trkpt lat="30.73486371601717" lon="-6.6375551599972"><ele>1508.3333333333333</ele><time>2026-03-26T10:49:16.94Z</time></trkpt><trkpt lat="30.73503049853565" lon="-6.63769635987848"><ele>1507.0</ele><time>2026-03-26T10:49:17.94Z</time></trkpt><trkpt lat="30.73519949719287" lon="-6.637835065076815"><ele>1506.0</ele><time>2026-03-26T10:49:18.94Z</time></trkpt><trkpt lat="30.735373725828598" lon="-6.637975265423143"><ele>1505.0</ele><time>2026-03-26T10:49:19.94Z</time></trkpt><trkpt lat="30.735552385661183" lon="-6.638118971893149"><ele>1504.0</ele><time>2026-03-26T10:49:20.94Z</time></trkpt><trkpt lat="30.735734095338074" lon="-6.638268696625716"><ele>1504.0</ele><time>2026-03-26T10:49:21.94Z</time></trkpt><trkpt lat="30.73591812818181" lon="-6.638418935610493"><ele>1504.0</ele><time>2026-03-26T10:49:22.94Z</time></trkpt><trkpt lat="30.736100077332264" lon="-6.638567891909739"><ele>1504.0</ele><time>2026-03-26T10:49:23.94Z</time></trkpt><trkpt lat="30.73627641624503" lon="-6.638711945093318"><ele>1503.6666666666665</ele><time>2026-03-26T10:49:24.94Z</time></trkpt><trkpt lat="30.736448746463406" lon="-6.638851735533404"><ele>1503.3333333333333</ele><time>2026-03-26T10:49:25.94Z</time></trkpt><trkpt lat="30.7366148445907" lon="-6.638998109216387"><ele>1503.0</ele><time>2026-03-26T10:49:26.94Z</time></trkpt><trkpt lat="30.736774163081" lon="-6.639166456269249"><ele>1498.6666666666667</ele><time>2026-03-26T10:49:27.94Z</time></trkpt><trkpt lat="30.736907378575353" lon="-6.639339167712311"><ele>1494.3333333333335</ele><time>2026-03-26T10:49:28.94Z</time></trkpt><trkpt lat="30.737025511368042" lon="-6.639534865652193"><ele>1490.0</ele><time>2026-03-26T10:49:29.94Z</time></trkpt><trkpt lat="30.73713496311668" lon="-6.639752656923075"><ele>1490.0</ele><time>2026-03-26T10:49:30.94Z</time></trkpt><trkpt lat="30.737218629870288" lon="-6.639968451838971"><ele>1490.0</ele><time>2026-03-26T10:49:31.94Z</time></trkpt><trkpt lat="30.737300790309188" lon="-6.640187505429948"><ele>1490.0</ele><time>2026-03-26T10:49:32.94Z</time></trkpt><trkpt lat="30.73735270658182" lon="-6.640421674627394"><ele>1489.6666666666667</ele><time>2026-03-26T10:49:33.94Z</time></trkpt><trkpt lat="30.737377163688283" lon="-6.6406620795747555"><ele>1489.3333333333333</ele><time>2026-03-26T10:49:34.94Z</time></trkpt><trkpt lat="30.737391577736947" lon="-6.640905909500248"><ele>1489.0</ele><time>2026-03-26T10:49:35.94Z</time></trkpt><trkpt lat="30.73738132942687" lon="-6.641164776802798"><ele>1488.5</ele><time>2026-03-26T10:49:36.94Z</time></trkpt><trkpt lat="30.737392399612794" lon="-6.64144700931261"><ele>1488.0</ele><time>2026-03-26T10:49:37.94Z</time></trkpt><trkpt lat="30.73742818128135" lon="-6.641726074823206"><ele>1489.5</ele><time>2026-03-26T10:49:38.94Z</time></trkpt><trkpt lat="30.737536508517373" lon="-6.641999172172398"><ele>1491.0</ele><time>2026-03-26T10:49:39.94Z</time></trkpt><trkpt lat="30.73764959184901" lon="-6.642298030938268"><ele>1485.5</ele><time>2026-03-26T10:49:40.94Z</time></trkpt><trkpt lat="30.73775789474487" lon="-6.642613661259783"><ele>1480.0</ele><time>2026-03-26T10:49:41.94Z</time></trkpt><trkpt lat="30.73789053629382" lon="-6.642932574704045"><ele>1479.0</ele><time>2026-03-26T10:49:42.94Z</time></trkpt><trkpt lat="30.73803123865545" lon="-6.643270578620594"><ele>1478.0</ele><time>2026-03-26T10:49:43.94Z</time></trkpt><trkpt lat="30.73817069556594" lon="-6.643618348410273"><ele>1478.5</ele><time>2026-03-26T10:49:44.94Z</time></trkpt><trkpt lat="30.738303962299565" lon="-6.643963563774024"><ele>1479.0</ele><time>2026-03-26T10:49:45.94Z</time></trkpt><trkpt lat="30.73844128279544" lon="-6.644285219698063"><ele>1480.5</ele><time>2026-03-26T10:49:46.94Z</time></trkpt><trkpt lat="30.7385484094632" lon="-6.644622798658363"><ele>1482.0</ele><time>2026-03-26T10:49:47.94Z</time></trkpt><trkpt lat="30.738619125592916" lon="-6.644977470880418"><ele>1477.5</ele><time>2026-03-26T10:49:48.94Z</time></trkpt><trkpt lat="30.738692295828436" lon="-6.645333166447869"><ele>1473.0</ele><time>2026-03-26T10:49:49.94Z</time></trkpt><trkpt lat="30.738748545229328" lon="-6.6457014945765565"><ele>1473.0</ele><time>2026-03-26T10:49:50.939Z</time></trkpt><trkpt lat="30.738804231793054" lon="-6.646077499492302"><ele>1473.0</ele><time>2026-03-26T10:49:51.939Z</time></trkpt><trkpt lat="30.738861590636233" lon="-6.646464399382369"><ele>1474.5</ele><time>2026-03-26T10:49:52.939Z</time></trkpt><trkpt lat="30.738920438829496" lon="-6.6468414941101175"><ele>1476.0</ele><time>2026-03-26T10:49:53.939Z</time></trkpt><trkpt lat="30.738972879491556" lon="-6.647184481305906"><ele>1477.0</ele><time>2026-03-26T10:49:54.939Z</time></trkpt><trkpt lat="30.739012686433508" lon="-6.64748779687975"><ele>1478.0</ele><time>2026-03-26T10:49:55.939Z</time></trkpt><trkpt lat="30.73904305274603" lon="-6.64776562212143"><ele>1479.5</ele><time>2026-03-26T10:49:56.939Z</time></trkpt><trkpt lat="30.739063003344288" lon="-6.648044623225549"><ele>1481.0</ele><time>2026-03-26T10:49:57.939Z</time></trkpt><trkpt lat="30.73904884509125" lon="-6.648310489400295"><ele>1481.0</ele><time>2026-03-26T10:49:58.939Z</time></trkpt><trkpt lat="30.739006914805582" lon="-6.6485584837712075"><ele>1481.0</ele><time>2026-03-26T10:49:59.939Z</time></trkpt><trkpt lat="30.738937175249077" lon="-6.648789884429066"><ele>1481.0</ele><time>2026-03-26T10:50:00.939Z</time></trkpt><trkpt lat="30.738842889787044" lon="-6.649030917377504"><ele>1479.0</ele><time>2026-03-26T10:50:01.939Z</time></trkpt><trkpt lat="30.738709048792185" lon="-6.649284391701188"><ele>1477.0</ele><time>2026-03-26T10:50:02.939Z</time></trkpt><trkpt lat="30.738553505772977" lon="-6.649534766533798"><ele>1476.5</ele><time>2026-03-26T10:50:03.939Z</time></trkpt><trkpt lat="30.738394743846044" lon="-6.64980633583004"><ele>1476.0</ele><time>2026-03-26T10:50:04.939Z</time></trkpt><trkpt lat="30.738236795442443" lon="-6.650083958645218"><ele>1474.0</ele><time>2026-03-26T10:50:05.939Z</time></trkpt><trkpt lat="30.73807749952225" lon="-6.650363888170169"><ele>1472.0</ele><time>2026-03-26T10:50:06.939Z</time></trkpt><trkpt lat="30.737918774551954" lon="-6.650650218709045"><ele>1472.0</ele><time>2026-03-26T10:50:07.939Z</time></trkpt><trkpt lat="30.737755316400452" lon="-6.650939404268408"><ele>1472.0</ele><time>2026-03-26T10:50:08.939Z</time></trkpt><trkpt lat="30.73759069032037" lon="-6.651226746748892"><ele>1471.5</ele><time>2026-03-26T10:50:09.939Z</time></trkpt><trkpt lat="30.737429543389908" lon="-6.651515585721118"><ele>1471.0</ele><time>2026-03-26T10:50:10.939Z</time></trkpt><trkpt lat="30.73726734937484" lon="-6.651797920240849"><ele>1469.0</ele><time>2026-03-26T10:50:11.939Z</time></trkpt><trkpt lat="30.737128511723387" lon="-6.652047898634338"><ele>1467.0</ele><time>2026-03-26T10:50:12.939Z</time></trkpt><trkpt lat="30.73700879543722" lon="-6.652298873778152"><ele>1467.0</ele><time>2026-03-26T10:50:13.939Z</time></trkpt><trkpt lat="30.73688148419182" lon="-6.652538805290486"><ele>1467.0</ele><time>2026-03-26T10:50:14.939Z</time></trkpt><trkpt lat="30.7367519226144" lon="-6.65277270885967"><ele>1465.5</ele><time>2026-03-26T10:50:15.939Z</time></trkpt><trkpt lat="30.736685996247484" lon="-6.653036799745769"><ele>1464.0</ele><time>2026-03-26T10:50:16.939Z</time></trkpt><trkpt lat="30.736614297443666" lon="-6.6533174569902895"><ele>1461.0</ele><time>2026-03-26T10:50:17.939Z</time></trkpt><trkpt lat="30.736577121507047" lon="-6.653629206371914"><ele>1458.0</ele><time>2026-03-26T10:50:18.939Z</time></trkpt><trkpt lat="30.73653922400064" lon="-6.65396178122912"><ele>1458.0</ele><time>2026-03-26T10:50:19.939Z</time></trkpt><trkpt lat="30.736501909906053" lon="-6.654307716923111"><ele>1458.0</ele><time>2026-03-26T10:50:20.939Z</time></trkpt><trkpt lat="30.73646241002448" lon="-6.654669477856078"><ele>1457.0</ele><time>2026-03-26T10:50:21.939Z</time></trkpt><trkpt lat="30.73640572883321" lon="-6.65502676161704"><ele>1456.0</ele><time>2026-03-26T10:50:22.939Z</time></trkpt><trkpt lat="30.7363695162236" lon="-6.655386023689717"><ele>1455.5</ele><time>2026-03-26T10:50:23.939Z</time></trkpt><trkpt lat="30.736339592494005" lon="-6.655723620026924"><ele>1455.0</ele><time>2026-03-26T10:50:24.939Z</time></trkpt><trkpt lat="30.736298711176865" lon="-6.656079253086749"><ele>1455.0</ele><time>2026-03-26T10:50:25.939Z</time></trkpt><trkpt lat="30.73626348391979" lon="-6.656445308024265"><ele>1455.0</ele><time>2026-03-26T10:50:26.939Z</time></trkpt><trkpt lat="30.736223996667405" lon="-6.656819854784835"><ele>1456.0</ele><time>2026-03-26T10:50:27.939Z</time></trkpt><trkpt lat="30.736193818007113" lon="-6.657158313508845"><ele>1457.0</ele><time>2026-03-26T10:50:28.939Z</time></trkpt><trkpt lat="30.736159354527313" lon="-6.657453337903851"><ele>1457.0</ele><time>2026-03-26T10:50:29.939Z</time></trkpt><trkpt lat="30.73612368593137" lon="-6.657748044273381"><ele>1457.0</ele><time>2026-03-26T10:50:30.939Z</time></trkpt><trkpt lat="30.736088892542938" lon="-6.658057845582332"><ele>1460.0</ele><time>2026-03-26T10:50:31.939Z</time></trkpt><trkpt lat="30.736051280482442" lon="-6.658380331141544"><ele>1463.0</ele><time>2026-03-26T10:50:32.939Z</time></trkpt><trkpt lat="30.73601521515676" lon="-6.658712096705059"><ele>1464.0</ele><time>2026-03-26T10:50:33.939Z</time></trkpt><trkpt lat="30.73598494727717" lon="-6.659046919819216"><ele>1465.0</ele><time>2026-03-26T10:50:34.939Z</time></trkpt><trkpt lat="30.735962720192692" lon="-6.659392612120049"><ele>1466.5</ele><time>2026-03-26T10:50:35.939Z</time></trkpt><trkpt lat="30.735942449891233" lon="-6.6597451426658445"><ele>1468.0</ele><time>2026-03-26T10:50:36.939Z</time></trkpt><trkpt lat="30.735936638269028" lon="-6.660110156372935"><ele>1468.0</ele><time>2026-03-26T10:50:37.939Z</time></trkpt><trkpt lat="30.735937803355963" lon="-6.660480045522412"><ele>1468.0</ele><time>2026-03-26T10:50:38.939Z</time></trkpt><trkpt lat="30.735939832277722" lon="-6.660828435638182"><ele>1468.0</ele><time>2026-03-26T10:50:39.939Z</time></trkpt><trkpt lat="30.735938364327684" lon="-6.661172629331845"><ele>1468.0</ele><time>2026-03-26T10:50:40.939Z</time></trkpt><trkpt lat="30.73593356910611" lon="-6.6615045513992355"><ele>1468.0</ele><time>2026-03-26T10:50:41.939Z</time></trkpt><trkpt lat="30.735930623901343" lon="-6.661837441250188"><ele>1468.0</ele><time>2026-03-26T10:50:42.939Z</time></trkpt><trkpt lat="30.735923554387178" lon="-6.662167061705729"><ele>1469.0</ele><time>2026-03-26T10:50:43.939Z</time></trkpt><trkpt lat="30.735919304861067" lon="-6.662477222256837"><ele>1470.0</ele><time>2026-03-26T10:50:44.939Z</time></trkpt><trkpt lat="30.735917475174485" lon="-6.662754350708209"><ele>1471.0</ele><time>2026-03-26T10:50:45.939Z</time></trkpt><trkpt lat="30.7359209540519" lon="-6.663021694154069"><ele>1472.0</ele><time>2026-03-26T10:50:46.939Z</time></trkpt><trkpt lat="30.735940796789713" lon="-6.663283834565468"><ele>1472.0</ele><time>2026-03-26T10:50:47.939Z</time></trkpt><trkpt lat="30.73598827900407" lon="-6.663515474620377"><ele>1472.0</ele><time>2026-03-26T10:50:48.939Z</time></trkpt><trkpt lat="30.73606236156245" lon="-6.663742682646331"><ele>1472.0</ele><time>2026-03-26T10:50:49.939Z</time></trkpt><trkpt lat="30.736161717650056" lon="-6.663958027531464"><ele>1475.5</ele><time>2026-03-26T10:50:50.939Z</time></trkpt><trkpt lat="30.736293210084856" lon="-6.664166494062137"><ele>1479.0</ele><time>2026-03-26T10:50:51.939Z</time></trkpt><trkpt lat="30.736451574499675" lon="-6.664362338829736"><ele>1479.5</ele><time>2026-03-26T10:50:52.939Z</time></trkpt><trkpt lat="30.73665385836492" lon="-6.664517650007263"><ele>1480.0</ele><time>2026-03-26T10:50:53.939Z</time></trkpt><trkpt lat="30.73685863422154" lon="-6.6646973355187775"><ele>1481.0</ele><time>2026-03-26T10:50:54.939Z</time></trkpt><trkpt lat="30.73706556819755" lon="-6.664890901867177"><ele>1482.0</ele><time>2026-03-26T10:50:55.938Z</time></trkpt><trkpt lat="30.73729080537267" lon="-6.6650757503439335"><ele>1482.0</ele><time>2026-03-26T10:50:56.938Z</time></trkpt><trkpt lat="30.737520849903902" lon="-6.665262002687174"><ele>1482.0</ele><time>2026-03-26T10:50:57.939Z</time></trkpt><trkpt lat="30.7377430627736" lon="-6.665441784707864"><ele>1481.5</ele><time>2026-03-26T10:50:58.939Z</time></trkpt><trkpt lat="30.737953942279145" lon="-6.665614863567311"><ele>1481.0</ele><time>2026-03-26T10:50:59.939Z</time></trkpt><trkpt lat="30.73816240000088" lon="-6.66579112680169"><ele>1481.0</ele><time>2026-03-26T10:51:00.938Z</time></trkpt><trkpt lat="30.738389022536108" lon="-6.665981496015944"><ele>1481.0</ele><time>2026-03-26T10:51:01.938Z</time></trkpt><trkpt lat="30.738631099195683" lon="-6.666175883207075"><ele>1484.0</ele><time>2026-03-26T10:51:02.938Z</time></trkpt><trkpt lat="30.738877091981095" lon="-6.666375414990743"><ele>1487.0</ele><time>2026-03-26T10:51:03.938Z</time></trkpt><trkpt lat="30.739110862553982" lon="-6.666559079140827"><ele>1487.0</ele><time>2026-03-26T10:51:04.938Z</time></trkpt><trkpt lat="30.7393232096204" lon="-6.666738486144899"><ele>1487.0</ele><time>2026-03-26T10:51:05.938Z</time></trkpt><trkpt lat="30.7395268972742" lon="-6.666918406345137"><ele>1490.0</ele><time>2026-03-26T10:51:06.938Z</time></trkpt><trkpt lat="30.739719400383386" lon="-6.667111481857641"><ele>1493.0</ele><time>2026-03-26T10:51:07.938Z</time></trkpt><trkpt lat="30.73989899399933" lon="-6.667316306354044"><ele>1493.0</ele><time>2026-03-26T10:51:08.938Z</time></trkpt><trkpt lat="30.740074090993645" lon="-6.667547673125095"><ele>1493.0</ele><time>2026-03-26T10:51:09.938Z</time></trkpt><trkpt lat="30.740247325713142" lon="-6.667798199935234"><ele>1491.5</ele><time>2026-03-26T10:51:10.938Z</time></trkpt><trkpt lat="30.740420597827722" lon="-6.668053417068153"><ele>1490.0</ele><time>2026-03-26T10:51:11.938Z</time></trkpt><trkpt lat="30.740601230923026" lon="-6.668322506305136"><ele>1490.0</ele><time>2026-03-26T10:51:12.938Z</time></trkpt><trkpt lat="30.74079284893791" lon="-6.6685985200497715"><ele>1490.0</ele><time>2026-03-26T10:51:13.938Z</time></trkpt><trkpt lat="30.740997967617314" lon="-6.668876084060672"><ele>1490.5</ele><time>2026-03-26T10:51:14.938Z</time></trkpt><trkpt lat="30.74120915043745" lon="-6.6691533436902795"><ele>1491.0</ele><time>2026-03-26T10:51:15.938Z</time></trkpt><trkpt lat="30.74142335649373" lon="-6.669436957835726"><ele>1494.0</ele><time>2026-03-26T10:51:16.938Z</time></trkpt><trkpt lat="30.741649609216648" lon="-6.669711722627214"><ele>1497.0</ele><time>2026-03-26T10:51:17.938Z</time></trkpt><trkpt lat="30.741871181900756" lon="-6.6700014555777445"><ele>1494.5</ele><time>2026-03-26T10:51:18.938Z</time></trkpt><trkpt lat="30.742089014723984" lon="-6.670293856142101"><ele>1492.0</ele><time>2026-03-26T10:51:19.938Z</time></trkpt><trkpt lat="30.742310251719193" lon="-6.6705893651461325"><ele>1492.0</ele><time>2026-03-26T10:51:20.938Z</time></trkpt><trkpt lat="30.742525795023575" lon="-6.670879359990637"><ele>1492.0</ele><time>2026-03-26T10:51:21.938Z</time></trkpt><trkpt lat="30.74270964656533" lon="-6.6711572191237245"><ele>1493.0</ele><time>2026-03-26T10:51:22.938Z</time></trkpt><trkpt lat="30.742895234758198" lon="-6.671395646021695"><ele>1494.0</ele><time>2026-03-26T10:51:23.938Z</time></trkpt><trkpt lat="30.743077702245145" lon="-6.671620592285363"><ele>1494.0</ele><time>2026-03-26T10:51:24.938Z</time></trkpt><trkpt lat="30.74325589182955" lon="-6.671816919571951"><ele>1494.0</ele><time>2026-03-26T10:51:25.938Z</time></trkpt><trkpt lat="30.743444510442863" lon="-6.671981270980829"><ele>1494.0</ele><time>2026-03-26T10:51:26.938Z</time></trkpt><trkpt lat="30.74365473145687" lon="-6.672117729080081"><ele>1494.0</ele><time>2026-03-26T10:51:27.938Z</time></trkpt><trkpt lat="30.7438760115604" lon="-6.67221445453599"><ele>1494.0</ele><time>2026-03-26T10:51:28.938Z</time></trkpt><trkpt lat="30.74411158402819" lon="-6.672275621031513"><ele>1494.0</ele><time>2026-03-26T10:51:29.938Z</time></trkpt><trkpt lat="30.744373141235727" lon="-6.672319447659771"><ele>1497.0</ele><time>2026-03-26T10:51:30.938Z</time></trkpt><trkpt lat="30.744646766535357" lon="-6.6723654237095635"><ele>1500.0</ele><time>2026-03-26T10:51:31.938Z</time></trkpt><trkpt lat="30.744924789851964" lon="-6.672445655261526"><ele>1500.0</ele><time>2026-03-26T10:51:32.938Z</time></trkpt><trkpt lat="30.74518457735375" lon="-6.672550301035164"><ele>1500.0</ele><time>2026-03-26T10:51:33.938Z</time></trkpt><trkpt lat="30.74541735299167" lon="-6.672653499425863"><ele>1501.5</ele><time>2026-03-26T10:51:34.938Z</time></trkpt><trkpt lat="30.745640583615" lon="-6.67275696807389"><ele>1503.0</ele><time>2026-03-26T10:51:35.938Z</time></trkpt><trkpt lat="30.745840843252317" lon="-6.672850726082759"><ele>1503.0</ele><time>2026-03-26T10:51:36.938Z</time></trkpt><trkpt lat="30.74602681259246" lon="-6.672929232061752"><ele>1503.0</ele><time>2026-03-26T10:51:37.938Z</time></trkpt><trkpt lat="30.746210857772777" lon="-6.6730059629738285"><ele>1503.0</ele><time>2026-03-26T10:51:38.938Z</time></trkpt><trkpt lat="30.74639308390979" lon="-6.673075848363313"><ele>1503.6666666666667</ele><time>2026-03-26T10:51:39.938Z</time></trkpt><trkpt lat="30.746582543942722" lon="-6.673127783473131"><ele>1504.3333333333335</ele><time>2026-03-26T10:51:40.938Z</time></trkpt><trkpt lat="30.746779427570868" lon="-6.673158314820102"><ele>1505.0</ele><time>2026-03-26T10:51:41.938Z</time></trkpt><trkpt lat="30.746991313608167" lon="-6.6731639464695665"><ele>1507.5</ele><time>2026-03-26T10:51:42.938Z</time></trkpt><trkpt lat="30.747203477782072" lon="-6.673102109485276"><ele>1510.0</ele><time>2026-03-26T10:51:43.938Z</time></trkpt><trkpt lat="30.747427566004667" lon="-6.673034661183617"><ele>1510.0</ele><time>2026-03-26T10:51:44.938Z</time></trkpt><trkpt lat="30.747661078297213" lon="-6.672959525988694"><ele>1510.0</ele><time>2026-03-26T10:51:45.938Z</time></trkpt><trkpt lat="30.74791611813428" lon="-6.672914582187082"><ele>1512.0</ele><time>2026-03-26T10:51:46.938Z</time></trkpt><trkpt lat="30.748182548910655" lon="-6.672880234862423"><ele>1514.0</ele><time>2026-03-26T10:51:47.938Z</time></trkpt><trkpt lat="30.74846691601799" lon="-6.6728825242868295"><ele>1517.0</ele><time>2026-03-26T10:51:48.938Z</time></trkpt><trkpt lat="30.74874021573356" lon="-6.67290981689392"><ele>1520.0</ele><time>2026-03-26T10:51:49.938Z</time></trkpt><trkpt lat="30.748980154860988" lon="-6.672953657393298"><ele>1520.0</ele><time>2026-03-26T10:51:50.938Z</time></trkpt><trkpt lat="30.749183459207654" lon="-6.67302789600306"><ele>1520.0</ele><time>2026-03-26T10:51:51.938Z</time></trkpt><trkpt lat="30.749354239299564" lon="-6.673139121124452"><ele>1520.0</ele><time>2026-03-26T10:51:52.938Z</time></trkpt><trkpt lat="30.749501224335813" lon="-6.673290262549953"><ele>1524.0</ele><time>2026-03-26T10:51:53.938Z</time></trkpt><trkpt lat="30.749638051955525" lon="-6.673479695839897"><ele>1528.0</ele><time>2026-03-26T10:51:54.938Z</time></trkpt><trkpt lat="30.74975312864238" lon="-6.673705747750984"><ele>1532.0</ele><time>2026-03-26T10:51:55.938Z</time></trkpt><trkpt lat="30.749852312281103" lon="-6.673968739415042"><ele>1532.0</ele><time>2026-03-26T10:51:56.938Z</time></trkpt><trkpt lat="30.749948484611583" lon="-6.674252002122406"><ele>1532.0</ele><time>2026-03-26T10:51:57.938Z</time></trkpt><trkpt lat="30.75003765594922" lon="-6.6745514725523964"><ele>1531.0</ele><time>2026-03-26T10:51:58.938Z</time></trkpt><trkpt lat="30.750123712364267" lon="-6.67485091271906"><ele>1530.0</ele><time>2026-03-26T10:51:59.938Z</time></trkpt><trkpt lat="30.750203735268002" lon="-6.6751435980484075"><ele>1535.5</ele><time>2026-03-26T10:52:00.938Z</time></trkpt><trkpt lat="30.750288738061876" lon="-6.675420140010881"><ele>1541.0</ele><time>2026-03-26T10:52:01.938Z</time></trkpt><trkpt lat="30.750319255765657" lon="-6.675703720064775"><ele>1541.0</ele><time>2026-03-26T10:52:02.938Z</time></trkpt><trkpt lat="30.750312217756488" lon="-6.6759831468634845"><ele>1541.0</ele><time>2026-03-26T10:52:03.938Z</time></trkpt><trkpt lat="30.75026113232153" lon="-6.676254273907416"><ele>1537.5</ele><time>2026-03-26T10:52:04.938Z</time></trkpt><trkpt lat="30.750178391736064" lon="-6.676521466993191"><ele>1534.0</ele><time>2026-03-26T10:52:05.938Z</time></trkpt><trkpt lat="30.750082412499317" lon="-6.676777220863909"><ele>1538.0</ele><time>2026-03-26T10:52:06.938Z</time></trkpt><trkpt lat="30.74998241061456" lon="-6.677027272831033"><ele>1542.0</ele><time>2026-03-26T10:52:07.938Z</time></trkpt><trkpt lat="30.74988203612967" lon="-6.67728838873413"><ele>1542.0</ele><time>2026-03-26T10:52:08.938Z</time></trkpt><trkpt lat="30.749779049549144" lon="-6.677568627563952"><ele>1542.0</ele><time>2026-03-26T10:52:09.938Z</time></trkpt><trkpt lat="30.749673903491804" lon="-6.677857962220608"><ele>1546.5</ele><time>2026-03-26T10:52:10.938Z</time></trkpt><trkpt lat="30.749559723344934" lon="-6.678160815199395"><ele>1551.0</ele><time>2026-03-26T10:52:11.938Z</time></trkpt><trkpt lat="30.749447890498274" lon="-6.678454213063568"><ele>1549.0</ele><time>2026-03-26T10:52:12.938Z</time></trkpt><trkpt lat="30.74934604747851" lon="-6.678725807591691"><ele>1547.0</ele><time>2026-03-26T10:52:13.938Z</time></trkpt><trkpt lat="30.749247820105175" lon="-6.678993628744126"><ele>1547.0</ele><time>2026-03-26T10:52:14.938Z</time></trkpt><trkpt lat="30.74916606321292" lon="-6.679268114016711"><ele>1547.0</ele><time>2026-03-26T10:52:15.938Z</time></trkpt><trkpt lat="30.74910308317661" lon="-6.6795616116608905"><ele>1553.5</ele><time>2026-03-26T10:52:16.938Z</time></trkpt><trkpt lat="30.749052505365153" lon="-6.679874709574193"><ele>1560.0</ele><time>2026-03-26T10:52:17.938Z</time></trkpt><trkpt lat="30.74901023406224" lon="-6.680204105338482"><ele>1562.5</ele><time>2026-03-26T10:52:18.938Z</time></trkpt><trkpt lat="30.74896537561198" lon="-6.680544740100069"><ele>1565.0</ele><time>2026-03-26T10:52:19.938Z</time></trkpt><trkpt lat="30.748917189756913" lon="-6.68089285261566"><ele>1567.0</ele><time>2026-03-26T10:52:20.938Z</time></trkpt><trkpt lat="30.748864080313897" lon="-6.681246620904138"><ele>1569.0</ele><time>2026-03-26T10:52:21.938Z</time></trkpt><trkpt lat="30.748809222041857" lon="-6.681605626253289"><ele>1570.5</ele><time>2026-03-26T10:52:22.938Z</time></trkpt><trkpt lat="30.748754152722015" lon="-6.681964540624009"><ele>1572.0</ele><time>2026-03-26T10:52:23.938Z</time></trkpt><trkpt lat="30.748699866016583" lon="-6.682325061667853"><ele>1572.0</ele><time>2026-03-26T10:52:24.938Z</time></trkpt><trkpt lat="30.748646718251177" lon="-6.6826908599565025"><ele>1572.0</ele><time>2026-03-26T10:52:25.938Z</time></trkpt><trkpt lat="30.748595351391955" lon="-6.683069458966628"><ele>1573.0</ele><time>2026-03-26T10:52:26.938Z</time></trkpt><trkpt lat="30.748546721345754" lon="-6.683457385988438"><ele>1574.0</ele><time>2026-03-26T10:52:27.938Z</time></trkpt><trkpt lat="30.74850164992427" lon="-6.683837856505265"><ele>1574.0</ele><time>2026-03-26T10:52:28.938Z</time></trkpt><trkpt lat="30.748461966827975" lon="-6.68420064525981"><ele>1574.0</ele><time>2026-03-26T10:52:29.938Z</time></trkpt><trkpt lat="30.748427101456453" lon="-6.68456131631536"><ele>1575.5</ele><time>2026-03-26T10:52:30.938Z</time></trkpt><trkpt lat="30.748408531750098" lon="-6.684879004968106"><ele>1577.0</ele><time>2026-03-26T10:52:31.938Z</time></trkpt><trkpt lat="30.748410685135738" lon="-6.685193042339035"><ele>1579.0</ele><time>2026-03-26T10:52:32.938Z</time></trkpt><trkpt lat="30.748434135624425" lon="-6.6854869570900455"><ele>1581.0</ele><time>2026-03-26T10:52:33.938Z</time></trkpt><trkpt lat="30.748477760254588" lon="-6.685786072503066"><ele>1582.0</ele><time>2026-03-26T10:52:34.938Z</time></trkpt><trkpt lat="30.748540292549237" lon="-6.686096591653564"><ele>1583.0</ele><time>2026-03-26T10:52:35.938Z</time></trkpt><trkpt lat="30.748609778034517" lon="-6.686389337592009"><ele>1585.0</ele><time>2026-03-26T10:52:36.938Z</time></trkpt><trkpt lat="30.74867067882252" lon="-6.686650081627301"><ele>1587.0</ele><time>2026-03-26T10:52:37.938Z</time></trkpt><trkpt lat="30.74871715608883" lon="-6.686913348984056"><ele>1587.3333333333335</ele><time>2026-03-26T10:52:38.938Z</time></trkpt><trkpt lat="30.748742533028775" lon="-6.687168827370677"><ele>1587.6666666666667</ele><time>2026-03-26T10:52:39.938Z</time></trkpt><trkpt lat="30.74872732370428" lon="-6.68740663241617"><ele>1588.0</ele><time>2026-03-26T10:52:40.938Z</time></trkpt><trkpt lat="30.748670554496087" lon="-6.687632972082634"><ele>1590.0</ele><time>2026-03-26T10:52:41.938Z</time></trkpt><trkpt lat="30.74857120210677" lon="-6.687875971832621"><ele>1592.0</ele><time>2026-03-26T10:52:42.938Z</time></trkpt><trkpt lat="30.748440977695452" lon="-6.688135551607211"><ele>1586.6666666666665</ele><time>2026-03-26T10:52:43.938Z</time></trkpt><trkpt lat="30.74832692928112" lon="-6.688347802341003"><ele>1581.3333333333335</ele><time>2026-03-26T10:52:44.938Z</time></trkpt><trkpt lat="30.74823392107953" lon="-6.688540890366972"><ele>1576.0</ele><time>2026-03-26T10:52:45.938Z</time></trkpt><trkpt lat="30.748164178992713" lon="-6.6887188680817875"><ele>1576.0</ele><time>2026-03-26T10:52:46.938Z</time></trkpt><trkpt lat="30.748123585877654" lon="-6.688891092626672"><ele>1576.0</ele><time>2026-03-26T10:52:47.938Z</time></trkpt><trkpt lat="30.748111483318045" lon="-6.689054992293702"><ele>1576.0</ele><time>2026-03-26T10:52:48.938Z</time></trkpt><trkpt lat="30.74813533289511" lon="-6.689210085174702"><ele>1576.0</ele><time>2026-03-26T10:52:49.938Z</time></trkpt><trkpt lat="30.748186329202063" lon="-6.6893590436664425"><ele>1572.0</ele><time>2026-03-26T10:52:50.938Z</time></trkpt><trkpt lat="30.748266458269924" lon="-6.689493421331971"><ele>1568.0</ele><time>2026-03-26T10:52:51.938Z</time></trkpt><trkpt lat="30.74837850902097" lon="-6.68960638485037"><ele>1564.0</ele><time>2026-03-26T10:52:52.938Z</time></trkpt><trkpt lat="30.748511321467134" lon="-6.689693270111975"><ele>1560.0</ele><time>2026-03-26T10:52:53.938Z</time></trkpt><trkpt lat="30.748664522558542" lon="-6.689745917757487"><ele>1558.6666666666665</ele><time>2026-03-26T10:52:54.938Z</time></trkpt><trkpt lat="30.748827802104653" lon="-6.689757061068653"><ele>1557.3333333333333</ele><time>2026-03-26T10:52:55.938Z</time></trkpt><trkpt lat="30.748999119411515" lon="-6.68976478498008"><ele>1556.0</ele><time>2026-03-26T10:52:56.938Z</time></trkpt><trkpt lat="30.749182484619556" lon="-6.689767777337551"><ele>1554.6666666666665</ele><time>2026-03-26T10:52:57.938Z</time></trkpt><trkpt lat="30.749381717969367" lon="-6.689787306034669"><ele>1553.3333333333335</ele><time>2026-03-26T10:52:58.938Z</time></trkpt><trkpt lat="30.74962177399754" lon="-6.689806521828956"><ele>1552.0</ele><time>2026-03-26T10:52:59.938Z</time></trkpt><trkpt lat="30.74988820190246" lon="-6.6898301154982205"><ele>1552.0</ele><time>2026-03-26T10:53:00.938Z</time></trkpt><trkpt lat="30.750126072682427" lon="-6.689849793388478"><ele>1552.0</ele><time>2026-03-26T10:53:01.938Z</time></trkpt><trkpt lat="30.750343600561155" lon="-6.689849346027926"><ele>1549.0</ele><time>2026-03-26T10:53:02.938Z</time></trkpt><trkpt lat="30.75055235415418" lon="-6.6898174598194124"><ele>1546.0</ele><time>2026-03-26T10:53:03.938Z</time></trkpt><trkpt lat="30.750761880846795" lon="-6.689767917608264"><ele>1543.0</ele><time>2026-03-26T10:53:04.938Z</time></trkpt><trkpt lat="30.750975788009452" lon="-6.689714153403632"><ele>1541.6666666666667</ele><time>2026-03-26T10:53:05.938Z</time></trkpt><trkpt lat="30.751182118621884" lon="-6.689659807133023"><ele>1540.3333333333335</ele><time>2026-03-26T10:53:06.938Z</time></trkpt><trkpt lat="30.751380814759486" lon="-6.689632791336612"><ele>1539.0</ele><time>2026-03-26T10:53:07.938Z</time></trkpt><trkpt lat="30.75158625202679" lon="-6.689630144734979"><ele>1539.0</ele><time>2026-03-26T10:53:08.938Z</time></trkpt><trkpt lat="30.751817703778382" lon="-6.689660574857528"><ele>1539.0</ele><time>2026-03-26T10:53:09.938Z</time></trkpt><trkpt lat="30.75206218419523" lon="-6.689703075860669"><ele>1541.0</ele><time>2026-03-26T10:53:10.938Z</time></trkpt><trkpt lat="30.752294386721367" lon="-6.689744337807641"><ele>1543.0</ele><time>2026-03-26T10:53:11.938Z</time></trkpt><trkpt lat="30.752526689344855" lon="-6.689783442028761"><ele>1542.0</ele><time>2026-03-26T10:53:12.938Z</time></trkpt><trkpt lat="30.75274566067046" lon="-6.689823694323646"><ele>1541.0</ele><time>2026-03-26T10:53:13.938Z</time></trkpt><trkpt lat="30.752960239259128" lon="-6.689861311589189"><ele>1540.0</ele><time>2026-03-26T10:53:14.938Z</time></trkpt><trkpt lat="30.75316916005333" lon="-6.689897772569346"><ele>1540.0</ele><time>2026-03-26T10:53:15.938Z</time></trkpt><trkpt lat="30.753379350599467" lon="-6.689934605628414"><ele>1540.0</ele><time>2026-03-26T10:53:16.938Z</time></trkpt><trkpt lat="30.75358799537273" lon="-6.689974693756157"><ele>1540.0</ele><time>2026-03-26T10:53:17.938Z</time></trkpt><trkpt lat="30.753795436247778" lon="-6.690007326119222"><ele>1540.6666666666667</ele><time>2026-03-26T10:53:18.938Z</time></trkpt><trkpt lat="30.753994653388066" lon="-6.690042773769983"><ele>1541.3333333333335</ele><time>2026-03-26T10:53:19.938Z</time></trkpt><trkpt lat="30.754182105402545" lon="-6.690075961197839"><ele>1542.0</ele><time>2026-03-26T10:53:20.938Z</time></trkpt><trkpt lat="30.754355141589276" lon="-6.6901073695114"><ele>1538.3333333333333</ele><time>2026-03-26T10:53:21.938Z</time></trkpt><trkpt lat="30.75451200312088" lon="-6.690122706783292"><ele>1534.6666666666665</ele><time>2026-03-26T10:53:22.938Z</time></trkpt><trkpt lat="30.754661594219613" lon="-6.690124385877647"><ele>1531.0</ele><time>2026-03-26T10:53:23.938Z</time></trkpt><trkpt lat="30.754810459989272" lon="-6.6900946465145665"><ele>1531.0</ele><time>2026-03-26T10:53:24.938Z</time></trkpt><trkpt lat="30.754962538711766" lon="-6.690010908781902"><ele>1531.0</ele><time>2026-03-26T10:53:25.938Z</time></trkpt><trkpt lat="30.755121745760334" lon="-6.689896473878777"><ele>1531.0</ele><time>2026-03-26T10:53:26.938Z</time></trkpt><trkpt lat="30.755274498159967" lon="-6.689778346595505"><ele>1526.0</ele><time>2026-03-26T10:53:27.938Z</time></trkpt><trkpt lat="30.75541966348953" lon="-6.689672805553364"><ele>1521.0</ele><time>2026-03-26T10:53:28.938Z</time></trkpt><trkpt lat="30.755567397904194" lon="-6.689582163658854"><ele>1516.0</ele><time>2026-03-26T10:53:29.938Z</time></trkpt><trkpt lat="30.755716532187655" lon="-6.689508085574528"><ele>1516.0</ele><time>2026-03-26T10:53:30.938Z</time></trkpt><trkpt lat="30.755871756182458" lon="-6.689482615732314"><ele>1516.0</ele><time>2026-03-26T10:53:31.938Z</time></trkpt><trkpt lat="30.756026522868293" lon="-6.689493447428326"><ele>1516.0</ele><time>2026-03-26T10:53:32.938Z</time></trkpt><trkpt lat="30.75617857914963" lon="-6.689545600674242"><ele>1518.6666666666665</ele><time>2026-03-26T10:53:33.938Z</time></trkpt><trkpt lat="30.75633398552341" lon="-6.6896381062591255"><ele>1521.3333333333333</ele><time>2026-03-26T10:53:34.938Z</time></trkpt><trkpt lat="30.75648541263621" lon="-6.689776535357503"><ele>1524.0</ele><time>2026-03-26T10:53:35.938Z</time></trkpt><trkpt lat="30.756630999797018" lon="-6.689932997554931"><ele>1524.0</ele><time>2026-03-26T10:53:36.938Z</time></trkpt><trkpt lat="30.75679081470489" lon="-6.690092480879859"><ele>1524.0</ele><time>2026-03-26T10:53:37.938Z</time></trkpt><trkpt lat="30.756941059157697" lon="-6.690236813776736"><ele>1524.0</ele><time>2026-03-26T10:53:38.938Z</time></trkpt><trkpt lat="30.757100508753428" lon="-6.690353010692146"><ele>1518.0</ele><time>2026-03-26T10:53:39.938Z</time></trkpt><trkpt lat="30.757272052865275" lon="-6.690423515851926"><ele>1512.0</ele><time>2026-03-26T10:53:40.938Z</time></trkpt><trkpt lat="30.75744181369349" lon="-6.690443770499487"><ele>1506.0</ele><time>2026-03-26T10:53:41.938Z</time></trkpt><trkpt lat="30.757619131458807" lon="-6.690420341948321"><ele>1504.3333333333333</ele><time>2026-03-26T10:53:42.938Z</time></trkpt><trkpt lat="30.75780725375038" lon="-6.690377191528262"><ele>1502.6666666666665</ele><time>2026-03-26T10:53:43.938Z</time></trkpt><trkpt lat="30.75799975903205" lon="-6.690334458555486"><ele>1501.0</ele><time>2026-03-26T10:53:44.938Z</time></trkpt><trkpt lat="30.758186036861087" lon="-6.6902896422020115"><ele>1500.3333333333333</ele><time>2026-03-26T10:53:45.938Z</time></trkpt><trkpt lat="30.758365036643763" lon="-6.690247298474283"><ele>1499.6666666666667</ele><time>2026-03-26T10:53:46.938Z</time></trkpt><trkpt lat="30.75853982720262" lon="-6.690199378967366"><ele>1499.0</ele><time>2026-03-26T10:53:47.938Z</time></trkpt><trkpt lat="30.758708143337874" lon="-6.690173915723121"><ele>1499.0</ele><time>2026-03-26T10:53:48.938Z</time></trkpt><trkpt lat="30.758884197636007" lon="-6.690182519145343"><ele>1499.0</ele><time>2026-03-26T10:53:49.938Z</time></trkpt><trkpt lat="30.75906453400976" lon="-6.690209456067684"><ele>1499.0</ele><time>2026-03-26T10:53:50.938Z</time></trkpt><trkpt lat="30.759226298116115" lon="-6.690267444249917"><ele>1499.3333333333335</ele><time>2026-03-26T10:53:51.938Z</time></trkpt><trkpt lat="30.75937724578495" lon="-6.690358282408482"><ele>1499.6666666666667</ele><time>2026-03-26T10:53:52.938Z</time></trkpt><trkpt lat="30.759515614806897" lon="-6.690476257910931"><ele>1500.0</ele><time>2026-03-26T10:53:53.938Z</time></trkpt><trkpt lat="30.75965480188424" lon="-6.690605825733994"><ele>1500.0</ele><time>2026-03-26T10:53:54.937Z</time></trkpt><trkpt lat="30.759800880461647" lon="-6.6907414041533"><ele>1500.0</ele><time>2026-03-26T10:53:55.937Z</time></trkpt><trkpt lat="30.75994659127122" lon="-6.690888521662582"><ele>1500.0</ele><time>2026-03-26T10:53:56.937Z</time></trkpt><trkpt lat="30.760084507422178" lon="-6.691021476693256"><ele>1499.3333333333333</ele><time>2026-03-26T10:53:57.937Z</time></trkpt><trkpt lat="30.76021482878943" lon="-6.691153823919663"><ele>1498.6666666666665</ele><time>2026-03-26T10:53:58.937Z</time></trkpt><trkpt lat="30.7603650309739" lon="-6.691286839475551"><ele>1498.0</ele><time>2026-03-26T10:53:59.937Z</time></trkpt><trkpt lat="30.760522271098512" lon="-6.691433593973791"><ele>1498.0</ele><time>2026-03-26T10:54:00.937Z</time></trkpt><trkpt lat="30.760672286815304" lon="-6.691564547766473"><ele>1498.0</ele><time>2026-03-26T10:54:01.937Z</time></trkpt><trkpt lat="30.760812747428098" lon="-6.691681544868212"><ele>1498.0</ele><time>2026-03-26T10:54:02.937Z</time></trkpt><trkpt lat="30.760956169886633" lon="-6.691783292554285"><ele>1499.3333333333333</ele><time>2026-03-26T10:54:03.937Z</time></trkpt><trkpt lat="30.761107619941374" lon="-6.691868825048"><ele>1500.6666666666667</ele><time>2026-03-26T10:54:04.937Z</time></trkpt><trkpt lat="30.76127266140209" lon="-6.691933228234291"><ele>1502.0</ele><time>2026-03-26T10:54:05.937Z</time></trkpt><trkpt lat="30.76144608462404" lon="-6.691979818765486"><ele>1497.6666666666667</ele><time>2026-03-26T10:54:06.937Z</time></trkpt><trkpt lat="30.761629986662335" lon="-6.691999118183442"><ele>1493.3333333333333</ele><time>2026-03-26T10:54:07.937Z</time></trkpt><trkpt lat="30.761815725592378" lon="-6.691993107662087"><ele>1489.0</ele><time>2026-03-26T10:54:08.937Z</time></trkpt><trkpt lat="30.7620037244161" lon="-6.691961993052897"><ele>1489.6666666666665</ele><time>2026-03-26T10:54:09.937Z</time></trkpt><trkpt lat="30.7621983495146" lon="-6.6919009018769575"><ele>1490.3333333333333</ele><time>2026-03-26T10:54:10.937Z</time></trkpt><trkpt lat="30.762406023900486" lon="-6.691806889874109"><ele>1491.0</ele><time>2026-03-26T10:54:11.937Z</time></trkpt><trkpt lat="30.76259424625826" lon="-6.6916876846327575"><ele>1483.5</ele><time>2026-03-26T10:54:12.937Z</time></trkpt><trkpt lat="30.762799369621764" lon="-6.691546016858569"><ele>1476.0</ele><time>2026-03-26T10:54:13.937Z</time></trkpt><trkpt lat="30.76298970296675" lon="-6.691408016439516"><ele>1476.0</ele><time>2026-03-26T10:54:14.937Z</time></trkpt><trkpt lat="30.763155455746517" lon="-6.691291061763875"><ele>1476.0</ele><time>2026-03-26T10:54:15.937Z</time></trkpt><trkpt lat="30.76331739970181" lon="-6.691181247064622"><ele>1476.0</ele><time>2026-03-26T10:54:16.937Z</time></trkpt><trkpt lat="30.763489150165615" lon="-6.691074047445481"><ele>1477.3333333333333</ele><time>2026-03-26T10:54:17.937Z</time></trkpt><trkpt lat="30.763668552300846" lon="-6.690974671685262"><ele>1478.6666666666665</ele><time>2026-03-26T10:54:18.937Z</time></trkpt><trkpt lat="30.76386991652442" lon="-6.690881289928403"><ele>1480.0</ele><time>2026-03-26T10:54:19.937Z</time></trkpt><trkpt lat="30.76407156596613" lon="-6.690802993435983"><ele>1480.0</ele><time>2026-03-26T10:54:20.937Z</time></trkpt><trkpt lat="30.764276668508767" lon="-6.69073134375097"><ele>1480.0</ele><time>2026-03-26T10:54:21.937Z</time></trkpt><trkpt lat="30.764473944781514" lon="-6.6906647121779566"><ele>1480.0</ele><time>2026-03-26T10:54:22.937Z</time></trkpt><trkpt lat="30.764670066064383" lon="-6.690598862147602"><ele>1476.3333333333333</ele><time>2026-03-26T10:54:23.937Z</time></trkpt><trkpt lat="30.76485580441018" lon="-6.690527771735796"><ele>1472.6666666666667</ele><time>2026-03-26T10:54:24.937Z</time></trkpt><trkpt lat="30.765031347747634" lon="-6.690446454258929"><ele>1469.0</ele><time>2026-03-26T10:54:25.937Z</time></trkpt><trkpt lat="30.76519835641385" lon="-6.690354211737297"><ele>1467.6666666666667</ele><time>2026-03-26T10:54:26.937Z</time></trkpt><trkpt lat="30.765367198785057" lon="-6.690246446718328"><ele>1466.3333333333333</ele><time>2026-03-26T10:54:27.937Z</time></trkpt><trkpt lat="30.76553761300633" lon="-6.690115870365229"><ele>1465.0</ele><time>2026-03-26T10:54:28.937Z</time></trkpt><trkpt lat="30.765720126054386" lon="-6.689963830367517"><ele>1465.0</ele><time>2026-03-26T10:54:29.937Z</time></trkpt><trkpt lat="30.765907359228805" lon="-6.689810813442975"><ele>1465.0</ele><time>2026-03-26T10:54:30.937Z</time></trkpt><trkpt lat="30.766098588451907" lon="-6.689654509740269"><ele>1464.0</ele><time>2026-03-26T10:54:31.937Z</time></trkpt><trkpt lat="30.766293350959067" lon="-6.689494575277272"><ele>1463.0</ele><time>2026-03-26T10:54:32.937Z</time></trkpt><trkpt lat="30.766476520019264" lon="-6.6893478378736635"><ele>1463.0</ele><time>2026-03-26T10:54:33.937Z</time></trkpt><trkpt lat="30.766650610259717" lon="-6.68921506915067"><ele>1463.0</ele><time>2026-03-26T10:54:34.937Z</time></trkpt><trkpt lat="30.766817335086465" lon="-6.689084836573804"><ele>1463.0</ele><time>2026-03-26T10:54:35.937Z</time></trkpt><trkpt lat="30.76698007946818" lon="-6.688959136676358"><ele>1462.3333333333335</ele><time>2026-03-26T10:54:36.937Z</time></trkpt><trkpt lat="30.76714247825994" lon="-6.688829901218739"><ele>1461.6666666666667</ele><time>2026-03-26T10:54:37.937Z</time></trkpt><trkpt lat="30.767302519440328" lon="-6.68870725657202"><ele>1461.0</ele><time>2026-03-26T10:54:38.937Z</time></trkpt><trkpt lat="30.767465077678676" lon="-6.688580230498877"><ele>1461.0</ele><time>2026-03-26T10:54:39.937Z</time></trkpt><trkpt lat="30.76763371551164" lon="-6.6884511531145545"><ele>1461.0</ele><time>2026-03-26T10:54:40.937Z</time></trkpt><trkpt lat="30.76780025795398" lon="-6.688322527049979"><ele>1461.0</ele><time>2026-03-26T10:54:41.937Z</time></trkpt><trkpt lat="30.767963486706346" lon="-6.688206259974573"><ele>1460.0</ele><time>2026-03-26T10:54:42.937Z</time></trkpt><trkpt lat="30.768118339473045" lon="-6.688102420099071"><ele>1459.0</ele><time>2026-03-26T10:54:43.937Z</time></trkpt><trkpt lat="30.76827497622941" lon="-6.687995509461973"><ele>1458.0</ele><time>2026-03-26T10:54:44.937Z</time></trkpt><trkpt lat="30.768429654776153" lon="-6.687887398912236"><ele>1458.0</ele><time>2026-03-26T10:54:45.937Z</time></trkpt><trkpt lat="30.768584689156494" lon="-6.687779869539181"><ele>1458.0</ele><time>2026-03-26T10:54:46.937Z</time></trkpt><trkpt lat="30.768740038499406" lon="-6.687679458138929"><ele>1458.0</ele><time>2026-03-26T10:54:47.937Z</time></trkpt><trkpt lat="30.768906931064873" lon="-6.687583890845421"><ele>1458.0</ele><time>2026-03-26T10:54:48.937Z</time></trkpt><trkpt lat="30.769075072642917" lon="-6.687507149652627"><ele>1458.0</ele><time>2026-03-26T10:54:49.937Z</time></trkpt><trkpt lat="30.769253687710364" lon="-6.687453394975699"><ele>1458.0</ele><time>2026-03-26T10:54:50.937Z</time></trkpt><trkpt lat="30.769436876018265" lon="-6.687411523401326"><ele>1459.0</ele><time>2026-03-26T10:54:51.937Z</time></trkpt><trkpt lat="30.76961862782272" lon="-6.687376689998859"><ele>1460.0</ele><time>2026-03-26T10:54:52.937Z</time></trkpt><trkpt lat="30.76981097913577" lon="-6.687337935921805"><ele>1461.0</ele><time>2026-03-26T10:54:53.937Z</time></trkpt><trkpt lat="30.770000916167245" lon="-6.687283345186563"><ele>1461.0</ele><time>2026-03-26T10:54:54.937Z</time></trkpt><trkpt lat="30.77017637657733" lon="-6.687224479092455"><ele>1461.0</ele><time>2026-03-26T10:54:55.937Z</time></trkpt><trkpt lat="30.770349982012423" lon="-6.68715317259554"><ele>1461.0</ele><time>2026-03-26T10:54:56.937Z</time></trkpt><trkpt lat="30.770523092630125" lon="-6.687066244394484"><ele>1459.0</ele><time>2026-03-26T10:54:57.937Z</time></trkpt><trkpt lat="30.770699358812397" lon="-6.686963892591439"><ele>1457.0</ele><time>2026-03-26T10:54:58.937Z</time></trkpt><trkpt lat="30.770862001714637" lon="-6.686862294288253"><ele>1455.0</ele><time>2026-03-26T10:54:59.937Z</time></trkpt><trkpt lat="30.77102452860926" lon="-6.686748265579546"><ele>1460.6666666666667</ele><time>2026-03-26T10:55:00.937Z</time></trkpt><trkpt lat="30.77117383293851" lon="-6.686623045339905"><ele>1466.3333333333335</ele><time>2026-03-26T10:55:01.938Z</time></trkpt><trkpt lat="30.771320827943228" lon="-6.686483044425151"><ele>1472.0</ele><time>2026-03-26T10:55:02.938Z</time></trkpt><trkpt lat="30.77146959184228" lon="-6.686328652028411"><ele>1472.0</ele><time>2026-03-26T10:55:03.937Z</time></trkpt><trkpt lat="30.771618956809057" lon="-6.686151293076743"><ele>1472.0</ele><time>2026-03-26T10:55:04.938Z</time></trkpt><trkpt lat="30.771771465869456" lon="-6.6859681615338"><ele>1472.0</ele><time>2026-03-26T10:55:05.938Z</time></trkpt><trkpt lat="30.771930583462165" lon="-6.6857808001932275"><ele>1464.0</ele><time>2026-03-26T10:55:06.938Z</time></trkpt><trkpt lat="30.7720964572568" lon="-6.685580341282357"><ele>1456.0</ele><time>2026-03-26T10:55:07.937Z</time></trkpt><trkpt lat="30.772287783231064" lon="-6.685358508648892"><ele>1450.0</ele><time>2026-03-26T10:55:08.937Z</time></trkpt><trkpt lat="30.77247340639654" lon="-6.685154962513471"><ele>1444.0</ele><time>2026-03-26T10:55:09.937Z</time></trkpt><trkpt lat="30.77265612680244" lon="-6.684971807026253"><ele>1447.0</ele><time>2026-03-26T10:55:10.938Z</time></trkpt><trkpt lat="30.772839314105383" lon="-6.684818414565451"><ele>1450.0</ele><time>2026-03-26T10:55:11.938Z</time></trkpt><trkpt lat="30.773036912525832" lon="-6.684686142123363"><ele>1450.0</ele><time>2026-03-26T10:55:12.938Z</time></trkpt><trkpt lat="30.773245955874955" lon="-6.684582600120564"><ele>1450.0</ele><time>2026-03-26T10:55:13.937Z</time></trkpt><trkpt lat="30.77345753719963" lon="-6.684505661326288"><ele>1450.0</ele><time>2026-03-26T10:55:14.937Z</time></trkpt><trkpt lat="30.77366788288196" lon="-6.6844508930715225"><ele>1447.3333333333333</ele><time>2026-03-26T10:55:15.937Z</time></trkpt><trkpt lat="30.773879641357173" lon="-6.684419277077261"><ele>1444.6666666666667</ele><time>2026-03-26T10:55:16.937Z</time></trkpt><trkpt lat="30.7740942087706" lon="-6.684412372582421"><ele>1442.0</ele><time>2026-03-26T10:55:17.937Z</time></trkpt><trkpt lat="30.77430679381734" lon="-6.684426470959174"><ele>1441.6666666666667</ele><time>2026-03-26T10:55:18.937Z</time></trkpt><trkpt lat="30.77452175652742" lon="-6.6844690375071565"><ele>1441.3333333333333</ele><time>2026-03-26T10:55:19.937Z</time></trkpt><trkpt lat="30.774741131819685" lon="-6.6845359614405195"><ele>1441.0</ele><time>2026-03-26T10:55:20.937Z</time></trkpt><trkpt lat="30.77495009505102" lon="-6.684625106995835"><ele>1441.0</ele><time>2026-03-26T10:55:21.937Z</time></trkpt><trkpt lat="30.775157271199145" lon="-6.684739978260815"><ele>1441.0</ele><time>2026-03-26T10:55:22.937Z</time></trkpt><trkpt lat="30.775368382625754" lon="-6.6848771052941265"><ele>1438.0</ele><time>2026-03-26T10:55:23.936Z</time></trkpt><trkpt lat="30.775585566121475" lon="-6.685036978655207"><ele>1435.0</ele><time>2026-03-26T10:55:24.936Z</time></trkpt><trkpt lat="30.77579940381644" lon="-6.685201098034637"><ele>1437.3333333333333</ele><time>2026-03-26T10:55:25.936Z</time></trkpt><trkpt lat="30.775991203329255" lon="-6.6853460696863"><ele>1439.6666666666667</ele><time>2026-03-26T10:55:26.936Z</time></trkpt><trkpt lat="30.776172177308496" lon="-6.685483216376729"><ele>1442.0</ele><time>2026-03-26T10:55:27.936Z</time></trkpt><trkpt lat="30.77633208024984" lon="-6.685604268182235"><ele>1442.0</ele><time>2026-03-26T10:55:28.936Z</time></trkpt><trkpt lat="30.776472076984785" lon="-6.685713353641835"><ele>1442.0</ele><time>2026-03-26T10:55:29.936Z</time></trkpt><trkpt lat="30.776606798563787" lon="-6.685824494160273"><ele>1442.0</ele><time>2026-03-26T10:55:30.936Z</time></trkpt><trkpt lat="30.776743559475257" lon="-6.685934917515873"><ele>1444.3333333333335</ele><time>2026-03-26T10:55:31.936Z</time></trkpt><trkpt lat="30.77687755665799" lon="-6.686051131258738"><ele>1446.6666666666667</ele><time>2026-03-26T10:55:32.936Z</time></trkpt><trkpt lat="30.777011595009334" lon="-6.686170946072683"><ele>1449.0</ele><time>2026-03-26T10:55:33.936Z</time></trkpt><trkpt lat="30.777160815458434" lon="-6.686281462405787"><ele>1449.0</ele><time>2026-03-26T10:55:34.936Z</time></trkpt><trkpt lat="30.77728772418548" lon="-6.686424370814539"><ele>1449.0</ele><time>2026-03-26T10:55:35.936Z</time></trkpt><trkpt lat="30.77742436230676" lon="-6.686550784904135"><ele>1449.0</ele><time>2026-03-26T10:55:36.936Z</time></trkpt><trkpt lat="30.77755780622223" lon="-6.686650788752839"><ele>1449.0</ele><time>2026-03-26T10:55:37.936Z</time></trkpt><trkpt lat="30.77767969418296" lon="-6.686764647543414"><ele>1449.0</ele><time>2026-03-26T10:55:38.936Z</time></trkpt><trkpt lat="30.777794248667107" lon="-6.6868905931717135"><ele>1449.0</ele><time>2026-03-26T10:55:39.936Z</time></trkpt><trkpt lat="30.77792113263638" lon="-6.687000175636412"><ele>1449.8000000000002</ele><time>2026-03-26T10:55:40.936Z</time></trkpt><trkpt lat="30.778039287484937" lon="-6.687103995738505"><ele>1450.6000000000001</ele><time>2026-03-26T10:55:41.936Z</time></trkpt><trkpt lat="30.778127656362607" lon="-6.687181353326256"><ele>1451.4</ele><time>2026-03-26T10:55:42.936Z</time></trkpt><trkpt lat="30.77820064693315" lon="-6.68723503251759"><ele>1452.2</ele><time>2026-03-26T10:55:43.936Z</time></trkpt><trkpt lat="30.7782568057669" lon="-6.687282348376957"><ele>1453.0</ele><time>2026-03-26T10:55:44.936Z</time></trkpt><trkpt lat="30.778339116768915" lon="-6.687346783999263"><ele>1453.0</ele><time>2026-03-26T10:55:46.936Z</time></trkpt><trkpt lat="30.77840893653685" lon="-6.687393484320072"><ele>1453.0</ele><time>2026-03-26T10:55:49.936Z</time></trkpt><trkpt lat="30.778480438631043" lon="-6.687429277291993"><ele>1453.0</ele><time>2026-03-26T10:58:54.936Z</time></trkpt><trkpt lat="30.77856210254139" lon="-6.68750833065315"><ele>1453.0</ele><time>2026-03-26T10:58:56.936Z</time></trkpt><trkpt lat="30.778657207110616" lon="-6.687607184297555"><ele>1453.0</ele><time>2026-03-26T10:58:57.936Z</time></trkpt><trkpt lat="30.7787769433434" lon="-6.687721825154041"><ele>1452.0</ele><time>2026-03-26T10:58:58.936Z</time></trkpt><trkpt lat="30.7788703382208" lon="-6.687818683492668"><ele>1451.0</ele><time>2026-03-26T10:58:59.936Z</time></trkpt><trkpt lat="30.77896765628829" lon="-6.68793819511875"><ele>1450.0</ele><time>2026-03-26T10:59:00.936Z</time></trkpt><trkpt lat="30.779088339897942" lon="-6.688075801537931"><ele>1449.0</ele><time>2026-03-26T10:59:01.936Z</time></trkpt><trkpt lat="30.779235496387965" lon="-6.688200271823512"><ele>1448.0</ele><time>2026-03-26T10:59:02.936Z</time></trkpt><trkpt lat="30.779368864646372" lon="-6.688323339786789"><ele>1447.0</ele><time>2026-03-26T10:59:03.936Z</time></trkpt><trkpt lat="30.779474263809682" lon="-6.688419483082363"><ele>1446.0</ele><time>2026-03-26T10:59:04.936Z</time></trkpt><trkpt lat="30.77959737514134" lon="-6.688519331542707"><ele>1444.3333333333333</ele><time>2026-03-26T10:59:05.936Z</time></trkpt><trkpt lat="30.779722281901577" lon="-6.688626041202671"><ele>1442.6666666666665</ele><time>2026-03-26T10:59:06.936Z</time></trkpt><trkpt lat="30.779841213364154" lon="-6.688731165661975"><ele>1441.0</ele><time>2026-03-26T10:59:07.936Z</time></trkpt><trkpt lat="30.779958385559954" lon="-6.6888395744443745"><ele>1441.0</ele><time>2026-03-26T10:59:08.936Z</time></trkpt><trkpt lat="30.7800723235362" lon="-6.688943416585393"><ele>1441.0</ele><time>2026-03-26T10:59:09.936Z</time></trkpt><trkpt lat="30.780185832492307" lon="-6.689046285347208"><ele>1441.0</ele><time>2026-03-26T10:59:10.936Z</time></trkpt><trkpt lat="30.780300586622477" lon="-6.689150482217097"><ele>1441.0</ele><time>2026-03-26T10:59:11.936Z</time></trkpt><trkpt lat="30.780421337569557" lon="-6.68926740339836"><ele>1441.3333333333333</ele><time>2026-03-26T10:59:12.936Z</time></trkpt><trkpt lat="30.78054304151635" lon="-6.689382417465889"><ele>1441.6666666666667</ele><time>2026-03-26T10:59:13.936Z</time></trkpt><trkpt lat="30.780666483179193" lon="-6.689492374366563"><ele>1442.0</ele><time>2026-03-26T10:59:14.936Z</time></trkpt><trkpt lat="30.78078580400622" lon="-6.68960268479501"><ele>1440.6666666666667</ele><time>2026-03-26T10:59:15.935Z</time></trkpt><trkpt lat="30.780910225914454" lon="-6.689720552482481"><ele>1439.3333333333333</ele><time>2026-03-26T10:59:16.935Z</time></trkpt><trkpt lat="30.78103935185707" lon="-6.689835173372413"><ele>1438.0</ele><time>2026-03-26T10:59:17.935Z</time></trkpt><trkpt lat="30.781185300890616" lon="-6.689978080508558"><ele>1438.0</ele><time>2026-03-26T10:59:18.935Z</time></trkpt><trkpt lat="30.78133104408597" lon="-6.6901102114781645"><ele>1438.0</ele><time>2026-03-26T10:59:19.936Z</time></trkpt><trkpt lat="30.7814788934022" lon="-6.690244723618445"><ele>1438.0</ele><time>2026-03-26T10:59:20.936Z</time></trkpt><trkpt lat="30.781620108827273" lon="-6.690384041380694"><ele>1436.3333333333333</ele><time>2026-03-26T10:59:21.936Z</time></trkpt><trkpt lat="30.78175608136324" lon="-6.690513811193277"><ele>1434.6666666666667</ele><time>2026-03-26T10:59:22.936Z</time></trkpt><trkpt lat="30.781891229461927" lon="-6.6906513553282965"><ele>1433.0</ele><time>2026-03-26T10:59:23.936Z</time></trkpt><trkpt lat="30.782024581402087" lon="-6.690789374373586"><ele>1433.0</ele><time>2026-03-26T10:59:24.935Z</time></trkpt><trkpt lat="30.78215261406006" lon="-6.690932150787103"><ele>1433.0</ele><time>2026-03-26T10:59:25.935Z</time></trkpt><trkpt lat="30.782279847549535" lon="-6.691072246318271"><ele>1433.0</ele><time>2026-03-26T10:59:26.935Z</time></trkpt><trkpt lat="30.782409566345702" lon="-6.691214803435452"><ele>1432.0</ele><time>2026-03-26T10:59:27.935Z</time></trkpt><trkpt lat="30.782538200013327" lon="-6.691349927856564"><ele>1431.0</ele><time>2026-03-26T10:59:28.935Z</time></trkpt><trkpt lat="30.782671229655552" lon="-6.691484206051884"><ele>1430.0</ele><time>2026-03-26T10:59:29.935Z</time></trkpt><trkpt lat="30.78279363921934" lon="-6.691623013566956"><ele>1430.0</ele><time>2026-03-26T10:59:30.935Z</time></trkpt><trkpt lat="30.782921899862966" lon="-6.691758812976077"><ele>1430.0</ele><time>2026-03-26T10:59:31.935Z</time></trkpt><trkpt lat="30.783040209014054" lon="-6.691889514895585"><ele>1430.0</ele><time>2026-03-26T10:59:32.935Z</time></trkpt><trkpt lat="30.783155120621874" lon="-6.692023277104355"><ele>1426.6666666666667</ele><time>2026-03-26T10:59:33.935Z</time></trkpt><trkpt lat="30.783271426441903" lon="-6.692162773184533"><ele>1423.3333333333333</ele><time>2026-03-26T10:59:34.935Z</time></trkpt><trkpt lat="30.783380992636683" lon="-6.6923139360959425"><ele>1420.0</ele><time>2026-03-26T10:59:35.935Z</time></trkpt><trkpt lat="30.783476107258792" lon="-6.692465383305377"><ele>1421.0</ele><time>2026-03-26T10:59:36.935Z</time></trkpt><trkpt lat="30.783562343709594" lon="-6.692613464159446"><ele>1422.0</ele><time>2026-03-26T10:59:37.935Z</time></trkpt><trkpt lat="30.783640259131626" lon="-6.692757280384301"><ele>1423.0</ele><time>2026-03-26T10:59:38.935Z</time></trkpt><trkpt lat="30.78372350032194" lon="-6.692914949671758"><ele>1421.0</ele><time>2026-03-26T10:59:39.935Z</time></trkpt><trkpt lat="30.78380623215381" lon="-6.693091820242941"><ele>1419.0</ele><time>2026-03-26T10:59:40.935Z</time></trkpt><trkpt lat="30.7838943009845" lon="-6.6932757847601"><ele>1417.0</ele><time>2026-03-26T10:59:41.935Z</time></trkpt><trkpt lat="30.783990989198116" lon="-6.693485058561531"><ele>1416.0</ele><time>2026-03-26T10:59:42.935Z</time></trkpt><trkpt lat="30.784092036726136" lon="-6.693697006150865"><ele>1415.0</ele><time>2026-03-26T10:59:43.935Z</time></trkpt><trkpt lat="30.78418740920433" lon="-6.693895692532249"><ele>1414.0</ele><time>2026-03-26T10:59:44.935Z</time></trkpt><trkpt lat="30.784265676547363" lon="-6.694062367013496"><ele>1414.0</ele><time>2026-03-26T10:59:45.935Z</time></trkpt><trkpt lat="30.784342889571356" lon="-6.694227551960078"><ele>1414.0</ele><time>2026-03-26T10:59:46.935Z</time></trkpt><trkpt lat="30.78441949207706" lon="-6.69439390134469"><ele>1414.0</ele><time>2026-03-26T10:59:47.935Z</time></trkpt><trkpt lat="30.784502656675176" lon="-6.694562873129832"><ele>1413.3333333333333</ele><time>2026-03-26T10:59:48.935Z</time></trkpt><trkpt lat="30.784584091025227" lon="-6.694735774951885"><ele>1412.6666666666667</ele><time>2026-03-26T10:59:49.935Z</time></trkpt><trkpt lat="30.78466935433559" lon="-6.694915899470068"><ele>1412.0</ele><time>2026-03-26T10:59:50.935Z</time></trkpt><trkpt lat="30.7847549692272" lon="-6.695096386278913"><ele>1410.6666666666667</ele><time>2026-03-26T10:59:51.935Z</time></trkpt><trkpt lat="30.78483897470712" lon="-6.695270680875104"><ele>1409.3333333333333</ele><time>2026-03-26T10:59:52.935Z</time></trkpt><trkpt lat="30.784921010246386" lon="-6.6954389740796"><ele>1408.0</ele><time>2026-03-26T10:59:53.935Z</time></trkpt><trkpt lat="30.784999485927838" lon="-6.695606993503637"><ele>1408.0</ele><time>2026-03-26T10:59:54.935Z</time></trkpt><trkpt lat="30.785078735667472" lon="-6.695781314710729"><ele>1408.0</ele><time>2026-03-26T10:59:55.935Z</time></trkpt><trkpt lat="30.785160682558494" lon="-6.695954711720059"><ele>1408.0</ele><time>2026-03-26T10:59:56.935Z</time></trkpt><trkpt lat="30.785245439545157" lon="-6.696131404925685"><ele>1407.0</ele><time>2026-03-26T10:59:57.935Z</time></trkpt><trkpt lat="30.785328473677176" lon="-6.696302969529638"><ele>1406.0</ele><time>2026-03-26T10:59:58.935Z</time></trkpt><trkpt lat="30.785406229562707" lon="-6.696465107637663"><ele>1405.0</ele><time>2026-03-26T10:59:59.935Z</time></trkpt><trkpt lat="30.78548448931877" lon="-6.696629176937931"><ele>1405.0</ele><time>2026-03-26T11:00:00.935Z</time></trkpt><trkpt lat="30.785561901807164" lon="-6.696795642790945"><ele>1405.0</ele><time>2026-03-26T11:00:01.935Z</time></trkpt><trkpt lat="30.785642256348613" lon="-6.696965163363567"><ele>1405.0</ele><time>2026-03-26T11:00:02.935Z</time></trkpt><trkpt lat="30.78572141017689" lon="-6.697134598970698"><ele>1405.3333333333333</ele><time>2026-03-26T11:00:03.935Z</time></trkpt><trkpt lat="30.785797357410438" lon="-6.697307794055625"><ele>1405.6666666666667</ele><time>2026-03-26T11:00:04.935Z</time></trkpt><trkpt lat="30.785865420607127" lon="-6.697482513899428"><ele>1406.0</ele><time>2026-03-26T11:00:05.935Z</time></trkpt><trkpt lat="30.7859237362698" lon="-6.697664992502196"><ele>1405.6666666666667</ele><time>2026-03-26T11:00:06.935Z</time></trkpt><trkpt lat="30.78597620936321" lon="-6.697862875418543"><ele>1405.3333333333333</ele><time>2026-03-26T11:00:07.935Z</time></trkpt><trkpt lat="30.786023130610996" lon="-6.698066637336219"><ele>1405.0</ele><time>2026-03-26T11:00:08.935Z</time></trkpt><trkpt lat="30.786064387312067" lon="-6.698265830880144"><ele>1403.6666666666665</ele><time>2026-03-26T11:00:09.935Z</time></trkpt><trkpt lat="30.786097972871957" lon="-6.698457519611011"><ele>1402.3333333333333</ele><time>2026-03-26T11:00:10.935Z</time></trkpt><trkpt lat="30.78612592085631" lon="-6.698630222126643"><ele>1401.0</ele><time>2026-03-26T11:00:11.935Z</time></trkpt><trkpt lat="30.78615813842303" lon="-6.698797994859321"><ele>1400.3333333333333</ele><time>2026-03-26T11:00:12.935Z</time></trkpt><trkpt lat="30.786188098260244" lon="-6.69896938050764"><ele>1399.6666666666665</ele><time>2026-03-26T11:00:13.935Z</time></trkpt><trkpt lat="30.78621889117164" lon="-6.6991509068403206"><ele>1399.0</ele><time>2026-03-26T11:00:14.935Z</time></trkpt><trkpt lat="30.78625287961957" lon="-6.6993388655882"><ele>1398.6666666666665</ele><time>2026-03-26T11:00:15.935Z</time></trkpt><trkpt lat="30.786288226745334" lon="-6.699546909588028"><ele>1398.3333333333333</ele><time>2026-03-26T11:00:16.935Z</time></trkpt><trkpt lat="30.786327373528838" lon="-6.6997516321750465"><ele>1398.0</ele><time>2026-03-26T11:00:17.935Z</time></trkpt><trkpt lat="30.786365418357576" lon="-6.699949784328352"><ele>1398.0</ele><time>2026-03-26T11:00:18.935Z</time></trkpt><trkpt lat="30.786404221035948" lon="-6.700159892377722"><ele>1398.0</ele><time>2026-03-26T11:00:19.935Z</time></trkpt><trkpt lat="30.786443046722137" lon="-6.700381724191889"><ele>1398.0</ele><time>2026-03-26T11:00:20.935Z</time></trkpt><trkpt lat="30.786485412123955" lon="-6.700613935042667"><ele>1397.6666666666667</ele><time>2026-03-26T11:00:21.935Z</time></trkpt><trkpt lat="30.78652880987379" lon="-6.700850430324607"><ele>1397.3333333333335</ele><time>2026-03-26T11:00:22.935Z</time></trkpt><trkpt lat="30.78656828954208" lon="-6.701074246405186"><ele>1397.0</ele><time>2026-03-26T11:00:23.935Z</time></trkpt><trkpt lat="30.786612755581025" lon="-6.7012927902846045"><ele>1396.0</ele><time>2026-03-26T11:00:24.935Z</time></trkpt><trkpt lat="30.78665232662264" lon="-6.701524175856442"><ele>1395.0</ele><time>2026-03-26T11:00:25.935Z</time></trkpt><trkpt lat="30.786708847529866" lon="-6.701752061955196"><ele>1394.0</ele><time>2026-03-26T11:00:26.935Z</time></trkpt><trkpt lat="30.78677955524505" lon="-6.702008647583393"><ele>1395.0</ele><time>2026-03-26T11:00:27.935Z</time></trkpt><trkpt lat="30.78686788636858" lon="-6.702254501359826"><ele>1396.0</ele><time>2026-03-26T11:00:28.935Z</time></trkpt><trkpt lat="30.786951247170503" lon="-6.702466524003099"><ele>1397.0</ele><time>2026-03-26T11:00:29.935Z</time></trkpt><trkpt lat="30.78703117931374" lon="-6.702679063387268"><ele>1395.6666666666667</ele><time>2026-03-26T11:00:30.935Z</time></trkpt><trkpt lat="30.78711060892322" lon="-6.70289453871306"><ele>1394.3333333333333</ele><time>2026-03-26T11:00:31.935Z</time></trkpt><trkpt lat="30.787191193602137" lon="-6.703114003331783"><ele>1393.0</ele><time>2026-03-26T11:00:32.935Z</time></trkpt><trkpt lat="30.78727538366593" lon="-6.703331463499922"><ele>1393.0</ele><time>2026-03-26T11:00:33.935Z</time></trkpt><trkpt lat="30.78735956403034" lon="-6.703543021699239"><ele>1393.0</ele><time>2026-03-26T11:00:34.935Z</time></trkpt><trkpt lat="30.787440331299894" lon="-6.703749598209049"><ele>1393.0</ele><time>2026-03-26T11:00:35.935Z</time></trkpt><trkpt lat="30.787517090699595" lon="-6.703956175758285"><ele>1392.0</ele><time>2026-03-26T11:00:36.935Z</time></trkpt><trkpt lat="30.78759576964817" lon="-6.704164683715331"><ele>1391.0</ele><time>2026-03-26T11:00:37.935Z</time></trkpt><trkpt lat="30.78766923161962" lon="-6.704370332407812"><ele>1390.0</ele><time>2026-03-26T11:00:38.935Z</time></trkpt><trkpt lat="30.787746094741696" lon="-6.704574283398057"><ele>1390.0</ele><time>2026-03-26T11:00:39.935Z</time></trkpt><trkpt lat="30.78782387995901" lon="-6.70478193656502"><ele>1390.0</ele><time>2026-03-26T11:00:40.935Z</time></trkpt><trkpt lat="30.787899455364148" lon="-6.704993116816316"><ele>1390.0</ele><time>2026-03-26T11:00:41.935Z</time></trkpt><trkpt lat="30.78797680027737" lon="-6.705200188958468"><ele>1389.3333333333333</ele><time>2026-03-26T11:00:42.935Z</time></trkpt><trkpt lat="30.788057737494285" lon="-6.705408552519143"><ele>1388.6666666666667</ele><time>2026-03-26T11:00:43.935Z</time></trkpt><trkpt lat="30.78813491803866" lon="-6.705622275471401"><ele>1388.0</ele><time>2026-03-26T11:00:44.935Z</time></trkpt><trkpt lat="30.78821219506101" lon="-6.705837353207264"><ele>1388.0</ele><time>2026-03-26T11:00:45.935Z</time></trkpt><trkpt lat="30.788294399429315" lon="-6.706059361560496"><ele>1388.0</ele><time>2026-03-26T11:00:46.935Z</time></trkpt><trkpt lat="30.78837734455166" lon="-6.706280096311099"><ele>1388.0</ele><time>2026-03-26T11:00:47.935Z</time></trkpt><trkpt lat="30.788460775035087" lon="-6.706500031725848"><ele>1386.6666666666667</ele><time>2026-03-26T11:00:48.935Z</time></trkpt><trkpt lat="30.788542643578005" lon="-6.706722522795962"><ele>1385.3333333333333</ele><time>2026-03-26T11:00:49.935Z</time></trkpt><trkpt lat="30.78862524574956" lon="-6.706946686656221"><ele>1384.0</ele><time>2026-03-26T11:00:50.935Z</time></trkpt><trkpt lat="30.788706088653747" lon="-6.707172460077675"><ele>1384.0</ele><time>2026-03-26T11:00:51.935Z</time></trkpt><trkpt lat="30.788781731558647" lon="-6.707400284044479"><ele>1384.0</ele><time>2026-03-26T11:00:52.935Z</time></trkpt><trkpt lat="30.788848523646294" lon="-6.707634038810769"><ele>1384.0</ele><time>2026-03-26T11:00:53.935Z</time></trkpt><trkpt lat="30.788908576159077" lon="-6.7078616898023045"><ele>1385.3333333333333</ele><time>2026-03-26T11:00:54.935Z</time></trkpt><trkpt lat="30.78897021393387" lon="-6.708101327033545"><ele>1386.6666666666667</ele><time>2026-03-26T11:00:55.935Z</time></trkpt><trkpt lat="30.789031264029056" lon="-6.708326085115704"><ele>1388.0</ele><time>2026-03-26T11:00:56.935Z</time></trkpt><trkpt lat="30.789091192316068" lon="-6.708546801070886"><ele>1388.6666666666667</ele><time>2026-03-26T11:00:57.935Z</time></trkpt><trkpt lat="30.78914195398092" lon="-6.708748132685209"><ele>1389.3333333333333</ele><time>2026-03-26T11:00:58.935Z</time></trkpt><trkpt lat="30.789188519433353" lon="-6.708933163066304"><ele>1390.0</ele><time>2026-03-26T11:00:59.935Z</time></trkpt><trkpt lat="30.789237337304755" lon="-6.70911174536778"><ele>1390.0</ele><time>2026-03-26T11:01:00.935Z</time></trkpt><trkpt lat="30.789290799352585" lon="-6.709299672289995"><ele>1390.0</ele><time>2026-03-26T11:01:01.935Z</time></trkpt><trkpt lat="30.789343190008044" lon="-6.7094989012483275"><ele>1390.0</ele><time>2026-03-26T11:01:02.935Z</time></trkpt><trkpt lat="30.78939646821501" lon="-6.709700998914742"><ele>1387.6666666666665</ele><time>2026-03-26T11:01:03.935Z</time></trkpt><trkpt lat="30.789451362380007" lon="-6.70991373696264"><ele>1385.3333333333333</ele><time>2026-03-26T11:01:04.935Z</time></trkpt><trkpt lat="30.789509002278415" lon="-6.710134875601907"><ele>1383.0</ele><time>2026-03-26T11:01:05.935Z</time></trkpt><trkpt lat="30.789575635205118" lon="-6.710392950440492"><ele>1380.0</ele><time>2026-03-26T11:01:06.935Z</time></trkpt><trkpt lat="30.78964633560933" lon="-6.710661709371938"><ele>1377.0</ele><time>2026-03-26T11:01:07.935Z</time></trkpt><trkpt lat="30.78970832952191" lon="-6.7109045339496"><ele>1376.0</ele><time>2026-03-26T11:01:08.934Z</time></trkpt><trkpt lat="30.789769378878844" lon="-6.711135086679402"><ele>1375.0</ele><time>2026-03-26T11:01:09.933Z</time></trkpt><trkpt lat="30.789828876762677" lon="-6.71136463118258"><ele>1374.0</ele><time>2026-03-26T11:01:10.932Z</time></trkpt><trkpt lat="30.78988841189227" lon="-6.711594962629826"><ele>1374.0</ele><time>2026-03-26T11:01:11.932Z</time></trkpt><trkpt lat="30.789945590590683" lon="-6.711824351308988"><ele>1374.0</ele><time>2026-03-26T11:01:12.931Z</time></trkpt><trkpt lat="30.79000703976789" lon="-6.712056173220599"><ele>1374.0</ele><time>2026-03-26T11:01:13.931Z</time></trkpt><trkpt lat="30.790069217557043" lon="-6.712294490202315"><ele>1373.6666666666667</ele><time>2026-03-26T11:01:14.93Z</time></trkpt><trkpt lat="30.790131207752726" lon="-6.712518484261397"><ele>1373.3333333333335</ele><time>2026-03-26T11:01:15.929Z</time></trkpt><trkpt lat="30.790183961807475" lon="-6.712738398126833"><ele>1373.0</ele><time>2026-03-26T11:01:16.929Z</time></trkpt><trkpt lat="30.79023024850143" lon="-6.7129615689352775"><ele>1373.0</ele><time>2026-03-26T11:01:17.929Z</time></trkpt><trkpt lat="30.790264717099333" lon="-6.713183650355153"><ele>1373.0</ele><time>2026-03-26T11:01:18.928Z</time></trkpt><trkpt lat="30.7902848053631" lon="-6.713396053039619"><ele>1373.0</ele><time>2026-03-26T11:01:19.928Z</time></trkpt><trkpt lat="30.790293639299055" lon="-6.7136091334996175"><ele>1376.6666666666667</ele><time>2026-03-26T11:01:20.927Z</time></trkpt><trkpt lat="30.790291307262454" lon="-6.713817624418821"><ele>1380.3333333333333</ele><time>2026-03-26T11:01:21.927Z</time></trkpt><trkpt lat="30.79027611192264" lon="-6.714024360670657"><ele>1384.0</ele><time>2026-03-26T11:01:22.927Z</time></trkpt><trkpt lat="30.790247780168997" lon="-6.714229254630821"><ele>1381.6666666666665</ele><time>2026-03-26T11:01:23.927Z</time></trkpt><trkpt lat="30.790208544926635" lon="-6.714429099568254"><ele>1379.3333333333333</ele><time>2026-03-26T11:01:24.926Z</time></trkpt><trkpt lat="30.790157105340064" lon="-6.7146243812385755"><ele>1377.0</ele><time>2026-03-26T11:01:25.926Z</time></trkpt><trkpt lat="30.790096281843024" lon="-6.714820964338726"><ele>1377.0</ele><time>2026-03-26T11:01:26.925Z</time></trkpt><trkpt lat="30.79002167658048" lon="-6.715012780875774"><ele>1377.0</ele><time>2026-03-26T11:01:27.925Z</time></trkpt><trkpt lat="30.789935601935568" lon="-6.715195913551945"><ele>1377.0</ele><time>2026-03-26T11:01:28.925Z</time></trkpt><trkpt lat="30.789838872640207" lon="-6.715367936270935"><ele>1379.3333333333333</ele><time>2026-03-26T11:01:29.925Z</time></trkpt><trkpt lat="30.78973474154288" lon="-6.71553316342282"><ele>1381.6666666666665</ele><time>2026-03-26T11:01:30.925Z</time></trkpt><trkpt lat="30.789621154374228" lon="-6.715700768540162"><ele>1384.0</ele><time>2026-03-26T11:01:31.925Z</time></trkpt><trkpt lat="30.78950553386646" lon="-6.715871884442383"><ele>1384.0</ele><time>2026-03-26T11:01:32.924Z</time></trkpt><trkpt lat="30.789394964095113" lon="-6.716047140018056"><ele>1384.0</ele><time>2026-03-26T11:01:33.924Z</time></trkpt><trkpt lat="30.789290508565333" lon="-6.716233911781129"><ele>1384.0</ele><time>2026-03-26T11:01:34.924Z</time></trkpt><trkpt lat="30.7891954597846" lon="-6.716424474693593"><ele>1380.6666666666665</ele><time>2026-03-26T11:01:35.924Z</time></trkpt><trkpt lat="30.78911151978114" lon="-6.716631552357749"><ele>1377.3333333333333</ele><time>2026-03-26T11:01:36.924Z</time></trkpt><trkpt lat="30.789052479084734" lon="-6.716846243693897"><ele>1374.0</ele><time>2026-03-26T11:01:37.924Z</time></trkpt><trkpt lat="30.78900152621002" lon="-6.717066811906896"><ele>1373.3333333333333</ele><time>2026-03-26T11:01:38.923Z</time></trkpt><trkpt lat="30.78897422692555" lon="-6.717296819668961"><ele>1372.6666666666665</ele><time>2026-03-26T11:01:39.923Z</time></trkpt><trkpt lat="30.7889617689055" lon="-6.7175318826421195"><ele>1372.0</ele><time>2026-03-26T11:01:40.923Z</time></trkpt><trkpt lat="30.78896334473807" lon="-6.717760120174826"><ele>1369.6666666666665</ele><time>2026-03-26T11:01:41.923Z</time></trkpt><trkpt lat="30.788981520885187" lon="-6.7179900867118025"><ele>1367.3333333333333</ele><time>2026-03-26T11:01:42.923Z</time></trkpt><trkpt lat="30.78901740490625" lon="-6.718215406391118"><ele>1365.0</ele><time>2026-03-26T11:01:43.923Z</time></trkpt><trkpt lat="30.78907204976735" lon="-6.718434844065205"><ele>1362.6666666666667</ele><time>2026-03-26T11:01:44.923Z</time></trkpt><trkpt lat="30.78914137862763" lon="-6.7186495452814246"><ele>1360.3333333333335</ele><time>2026-03-26T11:01:45.923Z</time></trkpt><trkpt lat="30.789227737939303" lon="-6.718857508391355"><ele>1358.0</ele><time>2026-03-26T11:01:46.923Z</time></trkpt><trkpt lat="30.789335856788327" lon="-6.719058770611434"><ele>1358.0</ele><time>2026-03-26T11:01:47.923Z</time></trkpt><trkpt lat="30.789458585171325" lon="-6.719252187925621"><ele>1358.0</ele><time>2026-03-26T11:01:48.923Z</time></trkpt><trkpt lat="30.789597225932734" lon="-6.71943724663582"><ele>1358.0</ele><time>2026-03-26T11:01:49.922Z</time></trkpt><trkpt lat="30.789759733878263" lon="-6.719616522927989"><ele>1356.0</ele><time>2026-03-26T11:01:50.922Z</time></trkpt><trkpt lat="30.789948275745292" lon="-6.719779600473111"><ele>1354.0</ele><time>2026-03-26T11:01:51.922Z</time></trkpt><trkpt lat="30.79013906349832" lon="-6.719926570587272"><ele>1353.0</ele><time>2026-03-26T11:01:52.922Z</time></trkpt><trkpt lat="30.790343248966565" lon="-6.720070552782568"><ele>1352.0</ele><time>2026-03-26T11:01:53.922Z</time></trkpt><trkpt lat="30.79053807864844" lon="-6.7202030646426945"><ele>1351.0</ele><time>2026-03-26T11:01:54.922Z</time></trkpt><trkpt lat="30.790729881517397" lon="-6.7203296938496"><ele>1350.0</ele><time>2026-03-26T11:01:55.922Z</time></trkpt><trkpt lat="30.790917436091576" lon="-6.720457629177094"><ele>1349.0</ele><time>2026-03-26T11:01:56.922Z</time></trkpt><trkpt lat="30.791102074753912" lon="-6.7205874172917985"><ele>1349.0</ele><time>2026-03-26T11:01:57.922Z</time></trkpt><trkpt lat="30.791284330220556" lon="-6.720714763372929"><ele>1349.0</ele><time>2026-03-26T11:01:58.922Z</time></trkpt><trkpt lat="30.791460332031114" lon="-6.720845490166235"><ele>1349.0</ele><time>2026-03-26T11:01:59.922Z</time></trkpt><trkpt lat="30.79163364895065" lon="-6.720996602357989"><ele>1348.3333333333335</ele><time>2026-03-26T11:02:00.922Z</time></trkpt><trkpt lat="30.791798280355906" lon="-6.721156488279758"><ele>1347.6666666666667</ele><time>2026-03-26T11:02:01.922Z</time></trkpt><trkpt lat="30.79195421891554" lon="-6.721319495192577"><ele>1347.0</ele><time>2026-03-26T11:02:02.922Z</time></trkpt><trkpt lat="30.792104448591633" lon="-6.721486183610121"><ele>1347.0</ele><time>2026-03-26T11:02:03.922Z</time></trkpt><trkpt lat="30.792253518017294" lon="-6.7216479564052385"><ele>1347.0</ele><time>2026-03-26T11:02:04.922Z</time></trkpt><trkpt lat="30.792403108367495" lon="-6.721803901094658"><ele>1347.0</ele><time>2026-03-26T11:02:05.922Z</time></trkpt><trkpt lat="30.792559651791272" lon="-6.721949604035129"><ele>1345.3333333333333</ele><time>2026-03-26T11:02:06.922Z</time></trkpt><trkpt lat="30.792723237441507" lon="-6.722079355293367"><ele>1343.6666666666665</ele><time>2026-03-26T11:02:07.922Z</time></trkpt><trkpt lat="30.79289504658811" lon="-6.722191646498863"><ele>1342.0</ele><time>2026-03-26T11:02:08.922Z</time></trkpt><trkpt lat="30.793078612699468" lon="-6.722290363771526"><ele>1342.0</ele><time>2026-03-26T11:02:09.922Z</time></trkpt><trkpt lat="30.79327223459974" lon="-6.722377391524533"><ele>1342.0</ele><time>2026-03-26T11:02:10.922Z</time></trkpt><trkpt lat="30.793474920160712" lon="-6.7224552542356735"><ele>1342.0</ele><time>2026-03-26T11:02:11.922Z</time></trkpt><trkpt lat="30.793676082175875" lon="-6.722539719474229"><ele>1342.3333333333333</ele><time>2026-03-26T11:02:12.922Z</time></trkpt><trkpt lat="30.793876887263494" lon="-6.722635347064483"><ele>1342.6666666666667</ele><time>2026-03-26T11:02:13.922Z</time></trkpt><trkpt lat="30.794078399622776" lon="-6.7227465984673325"><ele>1343.0</ele><time>2026-03-26T11:02:14.922Z</time></trkpt><trkpt lat="30.794272568800956" lon="-6.7228719301871935"><ele>1341.0</ele><time>2026-03-26T11:02:15.922Z</time></trkpt><trkpt lat="30.794464105016196" lon="-6.723008396586773"><ele>1339.0</ele><time>2026-03-26T11:02:16.921Z</time></trkpt><trkpt lat="30.79465028841819" lon="-6.723145052994693"><ele>1337.0</ele><time>2026-03-26T11:02:17.921Z</time></trkpt><trkpt lat="30.794830557181555" lon="-6.7232798928796225"><ele>1337.0</ele><time>2026-03-26T11:02:18.921Z</time></trkpt><trkpt lat="30.795011349222637" lon="-6.723414843583377"><ele>1337.0</ele><time>2026-03-26T11:02:19.921Z</time></trkpt><trkpt lat="30.795192696599056" lon="-6.7235470996222535"><ele>1337.0</ele><time>2026-03-26T11:02:20.921Z</time></trkpt><trkpt lat="30.795373326761688" lon="-6.723676249865141"><ele>1337.3333333333335</ele><time>2026-03-26T11:02:21.921Z</time></trkpt><trkpt lat="30.795552257405305" lon="-6.723809560617026"><ele>1337.6666666666667</ele><time>2026-03-26T11:02:22.921Z</time></trkpt><trkpt lat="30.79572976381027" lon="-6.723940724623921"><ele>1338.0</ele><time>2026-03-26T11:02:23.921Z</time></trkpt><trkpt lat="30.79590577546527" lon="-6.724073370901759"><ele>1338.0</ele><time>2026-03-26T11:02:24.921Z</time></trkpt><trkpt lat="30.796075896691335" lon="-6.7242085034244"><ele>1338.0</ele><time>2026-03-26T11:02:25.921Z</time></trkpt><trkpt lat="30.79623573582666" lon="-6.724354739622889"><ele>1338.0</ele><time>2026-03-26T11:02:26.921Z</time></trkpt><trkpt lat="30.796379100430602" lon="-6.724503864738346"><ele>1336.3333333333333</ele><time>2026-03-26T11:02:27.921Z</time></trkpt><trkpt lat="30.79651345967069" lon="-6.724658329810455"><ele>1334.6666666666665</ele><time>2026-03-26T11:02:28.921Z</time></trkpt><trkpt lat="30.796635542754807" lon="-6.724809461576582"><ele>1333.0</ele><time>2026-03-26T11:02:29.921Z</time></trkpt><trkpt lat="30.796750171733947" lon="-6.72497374634862"><ele>1333.3333333333333</ele><time>2026-03-26T11:02:30.921Z</time></trkpt><trkpt lat="30.796858469460517" lon="-6.725143517856511"><ele>1333.6666666666667</ele><time>2026-03-26T11:02:31.921Z</time></trkpt><trkpt lat="30.796956202650826" lon="-6.725325897248219"><ele>1334.0</ele><time>2026-03-26T11:02:32.921Z</time></trkpt><trkpt lat="30.797039374980535" lon="-6.725529649336834"><ele>1332.6666666666667</ele><time>2026-03-26T11:02:33.921Z</time></trkpt><trkpt lat="30.797103974339507" lon="-6.725751353564253"><ele>1331.3333333333333</ele><time>2026-03-26T11:02:34.921Z</time></trkpt><trkpt lat="30.79714722197961" lon="-6.72598628118465"><ele>1330.0</ele><time>2026-03-26T11:02:35.921Z</time></trkpt><trkpt lat="30.797172321817143" lon="-6.726225485480167"><ele>1330.0</ele><time>2026-03-26T11:02:36.921Z</time></trkpt><trkpt lat="30.797191142834084" lon="-6.7264540600162945"><ele>1330.0</ele><time>2026-03-26T11:02:37.921Z</time></trkpt><trkpt lat="30.79720433438385" lon="-6.726676704114867"><ele>1330.0</ele><time>2026-03-26T11:02:38.921Z</time></trkpt><trkpt lat="30.79721459949075" lon="-6.726888075263588"><ele>1330.0</ele><time>2026-03-26T11:02:39.921Z</time></trkpt><trkpt lat="30.797233095935947" lon="-6.727096485995503"><ele>1330.0</ele><time>2026-03-26T11:02:40.921Z</time></trkpt><trkpt lat="30.797246457174808" lon="-6.727312584287411"><ele>1330.0</ele><time>2026-03-26T11:02:41.921Z</time></trkpt><trkpt lat="30.797257573126494" lon="-6.727540970465476"><ele>1332.0</ele><time>2026-03-26T11:02:42.921Z</time></trkpt><trkpt lat="30.79726613205515" lon="-6.727778507696347"><ele>1334.0</ele><time>2026-03-26T11:02:43.921Z</time></trkpt><trkpt lat="30.79727433500926" lon="-6.728024602979834"><ele>1336.0</ele><time>2026-03-26T11:02:44.921Z</time></trkpt><trkpt lat="30.797280049976987" lon="-6.728268122260371"><ele>1336.0</ele><time>2026-03-26T11:02:45.921Z</time></trkpt><trkpt lat="30.797286123900193" lon="-6.728505592934917"><ele>1336.0</ele><time>2026-03-26T11:02:46.921Z</time></trkpt><trkpt lat="30.797294368811126" lon="-6.728745691630503"><ele>1336.0</ele><time>2026-03-26T11:02:47.921Z</time></trkpt><trkpt lat="30.797304869880648" lon="-6.728983812154427"><ele>1336.6666666666665</ele><time>2026-03-26T11:02:48.921Z</time></trkpt><trkpt lat="30.797315484231834" lon="-6.729210621393417"><ele>1337.3333333333333</ele><time>2026-03-26T11:02:49.921Z</time></trkpt><trkpt lat="30.797324173429274" lon="-6.72942911415422"><ele>1338.0</ele><time>2026-03-26T11:02:50.921Z</time></trkpt><trkpt lat="30.797333293200968" lon="-6.729638755494565"><ele>1336.6666666666667</ele><time>2026-03-26T11:02:51.921Z</time></trkpt><trkpt lat="30.79734217419567" lon="-6.729850487829732"><ele>1335.3333333333335</ele><time>2026-03-26T11:02:52.921Z</time></trkpt><trkpt lat="30.797360980495135" lon="-6.730067412084899"><ele>1334.0</ele><time>2026-03-26T11:02:53.921Z</time></trkpt><trkpt lat="30.797386162651183" lon="-6.730285947534051"><ele>1334.0</ele><time>2026-03-26T11:02:54.921Z</time></trkpt><trkpt lat="30.797418922830772" lon="-6.730508888350638"><ele>1334.0</ele><time>2026-03-26T11:02:55.921Z</time></trkpt><trkpt lat="30.79746058288817" lon="-6.730737657064339"><ele>1334.0</ele><time>2026-03-26T11:02:56.921Z</time></trkpt><trkpt lat="30.797508476085405" lon="-6.730971650050822"><ele>1333.3333333333335</ele><time>2026-03-26T11:02:57.921Z</time></trkpt><trkpt lat="30.79755757083869" lon="-6.731207043327369"><ele>1332.6666666666667</ele><time>2026-03-26T11:02:58.921Z</time></trkpt><trkpt lat="30.797605448188918" lon="-6.731438567130969"><ele>1332.0</ele><time>2026-03-26T11:02:59.921Z</time></trkpt><trkpt lat="30.797659521361904" lon="-6.731675383188432"><ele>1329.3333333333333</ele><time>2026-03-26T11:03:00.921Z</time></trkpt><trkpt lat="30.797716789758503" lon="-6.731912406842597"><ele>1326.6666666666665</ele><time>2026-03-26T11:03:01.921Z</time></trkpt><trkpt lat="30.79777141186824" lon="-6.732148282310762"><ele>1324.0</ele><time>2026-03-26T11:03:02.921Z</time></trkpt><trkpt lat="30.797825699919816" lon="-6.732388317016695"><ele>1324.0</ele><time>2026-03-26T11:03:03.921Z</time></trkpt><trkpt lat="30.79787714366191" lon="-6.732624223525758"><ele>1324.0</ele><time>2026-03-26T11:03:04.921Z</time></trkpt><trkpt lat="30.7979328340162" lon="-6.732864079455595"><ele>1324.0</ele><time>2026-03-26T11:03:05.921Z</time></trkpt><trkpt lat="30.79798630676114" lon="-6.733096204763759"><ele>1323.6666666666665</ele><time>2026-03-26T11:03:06.921Z</time></trkpt><trkpt lat="30.79804137366674" lon="-6.733330178021549"><ele>1323.3333333333333</ele><time>2026-03-26T11:03:07.921Z</time></trkpt><trkpt lat="30.798099238958827" lon="-6.7335666206144404"><ele>1323.0</ele><time>2026-03-26T11:03:08.921Z</time></trkpt><trkpt lat="30.798152016442348" lon="-6.7337960372156465"><ele>1323.0</ele><time>2026-03-26T11:03:09.921Z</time></trkpt><trkpt lat="30.79820002805735" lon="-6.7340171431008855"><ele>1323.0</ele><time>2026-03-26T11:03:10.921Z</time></trkpt><trkpt lat="30.798248918190136" lon="-6.734231781044812"><ele>1323.0</ele><time>2026-03-26T11:03:11.921Z</time></trkpt><trkpt lat="30.798299551834752" lon="-6.7344466635828475"><ele>1325.3333333333333</ele><time>2026-03-26T11:03:12.921Z</time></trkpt><trkpt lat="30.798344635937745" lon="-6.734657964465204"><ele>1327.6666666666665</ele><time>2026-03-26T11:03:13.921Z</time></trkpt><trkpt lat="30.79839054758109" lon="-6.734862162926421"><ele>1330.0</ele><time>2026-03-26T11:03:14.921Z</time></trkpt><trkpt lat="30.798436078082684" lon="-6.735068405125523"><ele>1330.0</ele><time>2026-03-26T11:03:15.921Z</time></trkpt><trkpt lat="30.798480781738295" lon="-6.73526674053583"><ele>1330.0</ele><time>2026-03-26T11:03:16.921Z</time></trkpt><trkpt lat="30.798522541450307" lon="-6.735460203003857"><ele>1330.0</ele><time>2026-03-26T11:03:17.921Z</time></trkpt><trkpt lat="30.79856381390305" lon="-6.735651993238036"><ele>1329.6666666666665</ele><time>2026-03-26T11:03:18.921Z</time></trkpt><trkpt lat="30.79860445753582" lon="-6.735841581955112"><ele>1329.3333333333333</ele><time>2026-03-26T11:03:19.921Z</time></trkpt><trkpt lat="30.798646422664067" lon="-6.736024716932002"><ele>1329.0</ele><time>2026-03-26T11:03:20.921Z</time></trkpt><trkpt lat="30.79869207917777" lon="-6.736215460525647"><ele>1329.0</ele><time>2026-03-26T11:03:21.921Z</time></trkpt><trkpt lat="30.79873768045926" lon="-6.736411477142118"><ele>1329.0</ele><time>2026-03-26T11:03:22.921Z</time></trkpt><trkpt lat="30.798781599172166" lon="-6.736612303111589"><ele>1329.0</ele><time>2026-03-26T11:03:23.921Z</time></trkpt><trkpt lat="30.79882862711743" lon="-6.736812848739109"><ele>1329.6666666666667</ele><time>2026-03-26T11:03:24.921Z</time></trkpt><trkpt lat="30.798872356997784" lon="-6.737010824783547"><ele>1330.3333333333335</ele><time>2026-03-26T11:03:25.921Z</time></trkpt><trkpt lat="30.798917204094334" lon="-6.737200693906027"><ele>1331.0</ele><time>2026-03-26T11:03:26.921Z</time></trkpt><trkpt lat="30.7989629447026" lon="-6.737381250987046"><ele>1331.0</ele><time>2026-03-26T11:03:27.921Z</time></trkpt><trkpt lat="30.79900993792225" lon="-6.737547877075362"><ele>1331.0</ele><time>2026-03-26T11:03:28.921Z</time></trkpt><trkpt lat="30.799057606883373" lon="-6.737707228969259"><ele>1331.0</ele><time>2026-03-26T11:03:29.921Z</time></trkpt><trkpt lat="30.79911195667343" lon="-6.737876798167522"><ele>1330.3333333333335</ele><time>2026-03-26T11:03:30.921Z</time></trkpt><trkpt lat="30.799169580147666" lon="-6.738052456386553"><ele>1329.6666666666667</ele><time>2026-03-26T11:03:31.921Z</time></trkpt><trkpt lat="30.79922760161722" lon="-6.738229655099978"><ele>1329.0</ele><time>2026-03-26T11:03:32.921Z</time></trkpt><trkpt lat="30.799280428347153" lon="-6.738400341311748"><ele>1327.75</ele><time>2026-03-26T11:03:33.921Z</time></trkpt><trkpt lat="30.799321911915584" lon="-6.7385582183933925"><ele>1326.5</ele><time>2026-03-26T11:03:34.92Z</time></trkpt><trkpt lat="30.799352992183618" lon="-6.738706356444217"><ele>1325.25</ele><time>2026-03-26T11:03:35.92Z</time></trkpt><trkpt lat="30.799376331523877" lon="-6.7388569425056"><ele>1324.0</ele><time>2026-03-26T11:03:36.921Z</time></trkpt><trkpt lat="30.799388163680106" lon="-6.7390074802652595"><ele>1323.5</ele><time>2026-03-26T11:03:37.921Z</time></trkpt><trkpt lat="30.79938641789181" lon="-6.7391574619348"><ele>1323.0</ele><time>2026-03-26T11:03:38.921Z</time></trkpt><trkpt lat="30.799377170430095" lon="-6.739298749847427"><ele>1322.5</ele><time>2026-03-26T11:03:39.921Z</time></trkpt><trkpt lat="30.799362278595748" lon="-6.739433315530315"><ele>1322.0</ele><time>2026-03-26T11:03:40.921Z</time></trkpt><trkpt lat="30.79934311296952" lon="-6.739565509611434"><ele>1321.1999999999998</ele><time>2026-03-26T11:03:41.921Z</time></trkpt><trkpt lat="30.799322556440437" lon="-6.7396909513479875"><ele>1320.4</ele><time>2026-03-26T11:03:42.921Z</time></trkpt><trkpt lat="30.79930670997522" lon="-6.739812995645938"><ele>1319.6</ele><time>2026-03-26T11:03:43.921Z</time></trkpt><trkpt lat="30.799290322769245" lon="-6.739931298229862"><ele>1318.8000000000002</ele><time>2026-03-26T11:03:44.921Z</time></trkpt><trkpt lat="30.799268743638613" lon="-6.740049805037216"><ele>1318.0</ele><time>2026-03-26T11:03:45.921Z</time></trkpt><trkpt lat="30.799250818728467" lon="-6.740163812610181"><ele>1318.2</ele><time>2026-03-26T11:03:46.921Z</time></trkpt><trkpt lat="30.7992333207413" lon="-6.740270510059091"><ele>1318.4</ele><time>2026-03-26T11:03:47.92Z</time></trkpt><trkpt lat="30.799216126948448" lon="-6.74036346774787"><ele>1318.6000000000001</ele><time>2026-03-26T11:03:48.92Z</time></trkpt><trkpt lat="30.79919276805255" lon="-6.740501372452706"><ele>1318.8000000000002</ele><time>2026-03-26T11:03:50.92Z</time></trkpt><trkpt lat="30.799168948358698" lon="-6.740632223433215"><ele>1319.0</ele><time>2026-03-26T11:03:52.92Z</time></trkpt><trkpt lat="30.799146562411767" lon="-6.7407568653676755"><ele>1319.0</ele><time>2026-03-26T11:03:54.92Z</time></trkpt><trkpt lat="30.79913184845663" lon="-6.74083864273892"><ele>1319.0</ele><time>2026-03-26T11:03:55.92Z</time></trkpt><trkpt lat="30.799113906138192" lon="-6.740937845459795"><ele>1319.0</ele><time>2026-03-26T11:03:56.92Z</time></trkpt><trkpt lat="30.79909467185262" lon="-6.741049468876227"><ele>1319.0</ele><time>2026-03-26T11:03:57.92Z</time></trkpt><trkpt lat="30.799075551596907" lon="-6.741174428198061"><ele>1319.0</ele><time>2026-03-26T11:03:58.92Z</time></trkpt><trkpt lat="30.799052999713954" lon="-6.74130489680923"><ele>1319.0</ele><time>2026-03-26T11:03:59.92Z</time></trkpt><trkpt lat="30.799027769293424" lon="-6.741451707163333"><ele>1319.0</ele><time>2026-03-26T11:04:00.92Z</time></trkpt><trkpt lat="30.799002390074044" lon="-6.741592155241513"><ele>1319.0</ele><time>2026-03-26T11:04:01.92Z</time></trkpt><trkpt lat="30.798978946257616" lon="-6.741734024793874"><ele>1319.0</ele><time>2026-03-26T11:04:02.92Z</time></trkpt><trkpt lat="30.79895781664549" lon="-6.741877914041356"><ele>1320.75</ele><time>2026-03-26T11:04:03.92Z</time></trkpt><trkpt lat="30.798936746110748" lon="-6.742025648128692"><ele>1322.5</ele><time>2026-03-26T11:04:04.92Z</time></trkpt><trkpt lat="30.798919065602654" lon="-6.742178270214199"><ele>1324.25</ele><time>2026-03-26T11:04:05.92Z</time></trkpt><trkpt lat="30.79890039308969" lon="-6.742340504991672"><ele>1326.0</ele><time>2026-03-26T11:04:06.92Z</time></trkpt><trkpt lat="30.79888924010528" lon="-6.7425047753134235"><ele>1326.0</ele><time>2026-03-26T11:04:07.92Z</time></trkpt><trkpt lat="30.79888471353705" lon="-6.742672404354126"><ele>1326.0</ele><time>2026-03-26T11:04:08.92Z</time></trkpt><trkpt lat="30.798892898958382" lon="-6.742846038799354"><ele>1326.0</ele><time>2026-03-26T11:04:09.92Z</time></trkpt><trkpt lat="30.798910066403643" lon="-6.743027654295315"><ele>1328.0</ele><time>2026-03-26T11:04:10.92Z</time></trkpt><trkpt lat="30.79893339230521" lon="-6.743208070396822"><ele>1330.0</ele><time>2026-03-26T11:04:11.92Z</time></trkpt><trkpt lat="30.798955321895438" lon="-6.743389230846776"><ele>1332.0</ele><time>2026-03-26T11:04:12.92Z</time></trkpt><trkpt lat="30.79897802204024" lon="-6.74357142402873"><ele>1334.0</ele><time>2026-03-26T11:04:13.92Z</time></trkpt><trkpt lat="30.798999584222027" lon="-6.743754432923466"><ele>1336.0</ele><time>2026-03-26T11:04:14.92Z</time></trkpt><trkpt lat="30.7990185410177" lon="-6.743939678505196"><ele>1338.0</ele><time>2026-03-26T11:04:15.92Z</time></trkpt><trkpt lat="30.799036953566002" lon="-6.7441215033164585"><ele>1338.0</ele><time>2026-03-26T11:04:16.92Z</time></trkpt><trkpt lat="30.799056861803276" lon="-6.74430356631597"><ele>1338.0</ele><time>2026-03-26T11:04:17.92Z</time></trkpt><trkpt lat="30.799079452030167" lon="-6.74448156352546"><ele>1338.0</ele><time>2026-03-26T11:04:18.92Z</time></trkpt><trkpt lat="30.79910211550726" lon="-6.744661016751686"><ele>1339.3333333333333</ele><time>2026-03-26T11:04:19.92Z</time></trkpt><trkpt lat="30.799131072757636" lon="-6.744841666007417"><ele>1340.6666666666665</ele><time>2026-03-26T11:04:20.92Z</time></trkpt><trkpt lat="30.79916713018818" lon="-6.745030095893902"><ele>1342.0</ele><time>2026-03-26T11:04:21.92Z</time></trkpt><trkpt lat="30.799212260311634" lon="-6.745222327706686"><ele>1342.0</ele><time>2026-03-26T11:04:22.92Z</time></trkpt><trkpt lat="30.799265576426244" lon="-6.745415235422275"><ele>1342.0</ele><time>2026-03-26T11:04:23.92Z</time></trkpt><trkpt lat="30.799328406098844" lon="-6.745605336839327"><ele>1342.0</ele><time>2026-03-26T11:04:24.92Z</time></trkpt><trkpt lat="30.79940176422245" lon="-6.745784965050814"><ele>1340.3333333333333</ele><time>2026-03-26T11:04:25.92Z</time></trkpt><trkpt lat="30.79947528557162" lon="-6.745960680746193"><ele>1338.6666666666667</ele><time>2026-03-26T11:04:26.92Z</time></trkpt><trkpt lat="30.79956526398073" lon="-6.746127954342953"><ele>1337.0</ele><time>2026-03-26T11:04:27.92Z</time></trkpt><trkpt lat="30.799662291809963" lon="-6.746290127233265"><ele>1337.0</ele><time>2026-03-26T11:04:28.92Z</time></trkpt><trkpt lat="30.799761848813986" lon="-6.746442533421415"><ele>1337.0</ele><time>2026-03-26T11:04:29.92Z</time></trkpt><trkpt lat="30.79987701567985" lon="-6.746599361100544"><ele>1337.0</ele><time>2026-03-26T11:04:30.92Z</time></trkpt><trkpt lat="30.79999744628159" lon="-6.746746407701989"><ele>1334.6666666666667</ele><time>2026-03-26T11:04:31.92Z</time></trkpt><trkpt lat="30.800124691894098" lon="-6.746885976687245"><ele>1332.3333333333333</ele><time>2026-03-26T11:04:32.92Z</time></trkpt><trkpt lat="30.80025883680476" lon="-6.747017892107707"><ele>1330.0</ele><time>2026-03-26T11:04:33.92Z</time></trkpt><trkpt lat="30.80040024263308" lon="-6.747141044988101"><ele>1330.0</ele><time>2026-03-26T11:04:34.92Z</time></trkpt><trkpt lat="30.800544990289858" lon="-6.747256369086059"><ele>1330.0</ele><time>2026-03-26T11:04:35.92Z</time></trkpt><trkpt lat="30.80069648071884" lon="-6.74736175784839"><ele>1330.0</ele><time>2026-03-26T11:04:36.92Z</time></trkpt><trkpt lat="30.80085798774846" lon="-6.747460002142611"><ele>1328.6666666666665</ele><time>2026-03-26T11:04:37.92Z</time></trkpt><trkpt lat="30.801028455838164" lon="-6.747549028816617"><ele>1327.3333333333333</ele><time>2026-03-26T11:04:38.92Z</time></trkpt><trkpt lat="30.80120446801013" lon="-6.747631338173258"><ele>1326.0</ele><time>2026-03-26T11:04:39.92Z</time></trkpt><trkpt lat="30.80138474758726" lon="-6.7477051486755855"><ele>1325.3333333333333</ele><time>2026-03-26T11:04:40.92Z</time></trkpt><trkpt lat="30.80158033204241" lon="-6.747770852371298"><ele>1324.6666666666665</ele><time>2026-03-26T11:04:41.92Z</time></trkpt><trkpt lat="30.80178288058068" lon="-6.7478483570965615"><ele>1324.0</ele><time>2026-03-26T11:04:42.92Z</time></trkpt><trkpt lat="30.80197729711531" lon="-6.747930446137001"><ele>1323.3333333333333</ele><time>2026-03-26T11:04:43.92Z</time></trkpt><trkpt lat="30.80216354665024" lon="-6.748008144574159"><ele>1322.6666666666667</ele><time>2026-03-26T11:04:44.92Z</time></trkpt><trkpt lat="30.802339953593695" lon="-6.748081524247841"><ele>1322.0</ele><time>2026-03-26T11:04:45.92Z</time></trkpt><trkpt lat="30.802516129873503" lon="-6.7481569230711935"><ele>1323.6666666666667</ele><time>2026-03-26T11:04:46.92Z</time></trkpt><trkpt lat="30.80268640610171" lon="-6.748242540656981"><ele>1325.3333333333333</ele><time>2026-03-26T11:04:47.92Z</time></trkpt><trkpt lat="30.802848034095227" lon="-6.748335049783255"><ele>1327.0</ele><time>2026-03-26T11:04:48.92Z</time></trkpt><trkpt lat="30.803004732887214" lon="-6.748439504272257"><ele>1327.0</ele><time>2026-03-26T11:04:49.92Z</time></trkpt><trkpt lat="30.803156027449578" lon="-6.748545822871195"><ele>1327.0</ele><time>2026-03-26T11:04:50.92Z</time></trkpt><trkpt lat="30.80330173542586" lon="-6.748660557829825"><ele>1327.0</ele><time>2026-03-26T11:04:51.92Z</time></trkpt><trkpt lat="30.80344475235121" lon="-6.748778923193539"><ele>1325.6666666666665</ele><time>2026-03-26T11:04:52.92Z</time></trkpt><trkpt lat="30.803581608306214" lon="-6.748900218294133"><ele>1324.3333333333333</ele><time>2026-03-26T11:04:53.92Z</time></trkpt><trkpt lat="30.803718006277276" lon="-6.749022282488849"><ele>1323.0</ele><time>2026-03-26T11:04:54.92Z</time></trkpt><trkpt lat="30.803853582229113" lon="-6.749140848043083"><ele>1323.0</ele><time>2026-03-26T11:04:55.92Z</time></trkpt><trkpt lat="30.803985448383703" lon="-6.7492634341622955"><ele>1323.0</ele><time>2026-03-26T11:04:56.92Z</time></trkpt><trkpt lat="30.804120018747923" lon="-6.749384129809544"><ele>1323.0</ele><time>2026-03-26T11:04:57.92Z</time></trkpt><trkpt lat="30.80425595288941" lon="-6.749503548514898"><ele>1322.6666666666667</ele><time>2026-03-26T11:04:58.92Z</time></trkpt><trkpt lat="30.804389512099736" lon="-6.749627239148082"><ele>1322.3333333333335</ele><time>2026-03-26T11:04:59.92Z</time></trkpt><trkpt lat="30.804527627242624" lon="-6.749750659737508"><ele>1322.0</ele><time>2026-03-26T11:05:00.92Z</time></trkpt><trkpt lat="30.804666313537027" lon="-6.749876899139685"><ele>1322.0</ele><time>2026-03-26T11:05:01.92Z</time></trkpt><trkpt lat="30.804804385697814" lon="-6.750003154843362"><ele>1322.0</ele><time>2026-03-26T11:05:02.92Z</time></trkpt><trkpt lat="30.8049488273858" lon="-6.750130714485535"><ele>1322.0</ele><time>2026-03-26T11:05:03.92Z</time></trkpt><trkpt lat="30.805095166386437" lon="-6.750262499188772"><ele>1320.6666666666667</ele><time>2026-03-26T11:05:04.92Z</time></trkpt><trkpt lat="30.80523796644481" lon="-6.750392233125657"><ele>1319.3333333333333</ele><time>2026-03-26T11:05:05.92Z</time></trkpt><trkpt lat="30.805375708439943" lon="-6.750517656382608"><ele>1318.0</ele><time>2026-03-26T11:05:06.92Z</time></trkpt><trkpt lat="30.80549956932094" lon="-6.7506242788500845"><ele>1318.0</ele><time>2026-03-26T11:05:07.92Z</time></trkpt><trkpt lat="30.8056119346831" lon="-6.7507213399690595"><ele>1318.0</ele><time>2026-03-26T11:05:08.92Z</time></trkpt><trkpt lat="30.805712264172428" lon="-6.750812822187638"><ele>1318.0</ele><time>2026-03-26T11:05:09.92Z</time></trkpt><trkpt lat="30.805810212538862" lon="-6.750899876434288"><ele>1318.0</ele><time>2026-03-26T11:05:10.92Z</time></trkpt><trkpt lat="30.80589393629908" lon="-6.750974927381154"><ele>1317.5</ele><time>2026-03-26T11:05:11.92Z</time></trkpt><trkpt lat="30.805964823568193" lon="-6.751040805450785"><ele>1317.0</ele><time>2026-03-26T11:05:12.92Z</time></trkpt><trkpt lat="30.8060363181071" lon="-6.751104502242886"><ele>1316.5</ele><time>2026-03-26T11:05:13.92Z</time></trkpt><trkpt lat="30.806092329268353" lon="-6.751152760433674"><ele>1316.0</ele><time>2026-03-26T11:05:14.92Z</time></trkpt><trkpt lat="30.80614244653448" lon="-6.751197534269466"><ele>1315.5</ele><time>2026-03-26T11:05:15.92Z</time></trkpt><trkpt lat="30.80622986929087" lon="-6.751274308539479"><ele>1315.0</ele><time>2026-03-26T11:05:17.92Z</time></trkpt><trkpt lat="30.806250061538872" lon="-6.751347125691641"><ele>1315.0</ele><time>2026-03-26T11:05:23.92Z</time></trkpt><trkpt lat="30.806162126792653" lon="-6.751471627229083"><ele>1315.0</ele><time>2026-03-26T11:05:24.92Z</time></trkpt><trkpt lat="30.80608182268121" lon="-6.7515297377212855"><ele>1315.0</ele><time>2026-03-26T11:05:26.92Z</time></trkpt><trkpt lat="30.806013140015615" lon="-6.751573057614214"><ele>1315.0</ele><time>2026-03-26T11:05:28.92Z</time></trkpt><trkpt lat="30.805944495763327" lon="-6.751576700195035"><ele>1315.0</ele><time>2026-03-26T11:05:31.92Z</time></trkpt><trkpt lat="30.805852059176342" lon="-6.751651321645255"><ele>1315.0</ele><time>2026-03-26T11:07:00.919Z</time></trkpt><trkpt lat="30.8057940905087" lon="-6.751707706453936"><ele>1315.0</ele><time>2026-03-26T11:07:01.919Z</time></trkpt><trkpt lat="30.80572837733732" lon="-6.751760192783239"><ele>1315.0</ele><time>2026-03-26T11:07:02.919Z</time></trkpt><trkpt lat="30.805662211465705" lon="-6.7517976901356045"><ele>1315.0</ele><time>2026-03-26T11:07:03.919Z</time></trkpt><trkpt lat="30.805600776787905" lon="-6.751840464459057"><ele>1315.0</ele><time>2026-03-26T11:07:04.919Z</time></trkpt><trkpt lat="30.805487891282944" lon="-6.751910670377989"><ele>1315.0</ele><time>2026-03-26T11:07:06.919Z</time></trkpt><trkpt lat="30.8054104521327" lon="-6.751958608411105"><ele>1315.4</ele><time>2026-03-26T11:07:07.919Z</time></trkpt><trkpt lat="30.805320838747992" lon="-6.7520099254320005"><ele>1315.8</ele><time>2026-03-26T11:07:08.919Z</time></trkpt><trkpt lat="30.80522487246821" lon="-6.752073334741693"><ele>1316.1999999999998</ele><time>2026-03-26T11:07:09.919Z</time></trkpt><trkpt lat="30.805125919480492" lon="-6.752139440976106"><ele>1316.6</ele><time>2026-03-26T11:07:10.919Z</time></trkpt><trkpt lat="30.805025554659807" lon="-6.752207996464447"><ele>1317.0</ele><time>2026-03-26T11:07:11.919Z</time></trkpt><trkpt lat="30.80492434299438" lon="-6.752271936152251"><ele>1317.25</ele><time>2026-03-26T11:07:12.919Z</time></trkpt><trkpt lat="30.804827831649437" lon="-6.752336022588086"><ele>1317.5</ele><time>2026-03-26T11:07:13.919Z</time></trkpt><trkpt lat="30.804732592010634" lon="-6.7524059463015975"><ele>1317.75</ele><time>2026-03-26T11:07:14.919Z</time></trkpt><trkpt lat="30.804645686094226" lon="-6.752485531412622"><ele>1318.0</ele><time>2026-03-26T11:07:15.919Z</time></trkpt><trkpt lat="30.804553855366073" lon="-6.752583437518468"><ele>1318.0</ele><time>2026-03-26T11:07:16.919Z</time></trkpt><trkpt lat="30.804474688667483" lon="-6.752687935045244"><ele>1318.0</ele><time>2026-03-26T11:07:17.919Z</time></trkpt><trkpt lat="30.804403899821313" lon="-6.752816872585575"><ele>1318.0</ele><time>2026-03-26T11:07:18.919Z</time></trkpt><trkpt lat="30.804343014956903" lon="-6.752954447763032"><ele>1318.0</ele><time>2026-03-26T11:07:19.919Z</time></trkpt><trkpt lat="30.804263588527427" lon="-6.753076985346491"><ele>1318.5</ele><time>2026-03-26T11:07:20.919Z</time></trkpt><trkpt lat="30.804176998357047" lon="-6.753195621325942"><ele>1319.0</ele><time>2026-03-26T11:07:21.919Z</time></trkpt><trkpt lat="30.80407559056574" lon="-6.753314080037946"><ele>1319.5</ele><time>2026-03-26T11:07:22.919Z</time></trkpt><trkpt lat="30.803971137822785" lon="-6.753459709636274"><ele>1320.0</ele><time>2026-03-26T11:07:23.919Z</time></trkpt><trkpt lat="30.80386277363055" lon="-6.753611398090501"><ele>1321.3333333333333</ele><time>2026-03-26T11:07:24.919Z</time></trkpt><trkpt lat="30.80372595684839" lon="-6.753787432649782"><ele>1322.6666666666665</ele><time>2026-03-26T11:07:25.919Z</time></trkpt><trkpt lat="30.803579487559368" lon="-6.753974521237031"><ele>1324.0</ele><time>2026-03-26T11:07:26.919Z</time></trkpt><trkpt lat="30.803426270146744" lon="-6.754167080444955"><ele>1324.3333333333333</ele><time>2026-03-26T11:07:27.919Z</time></trkpt><trkpt lat="30.803283805270375" lon="-6.75436110913567"><ele>1324.6666666666667</ele><time>2026-03-26T11:07:28.919Z</time></trkpt><trkpt lat="30.803167895930986" lon="-6.754531973199979"><ele>1325.0</ele><time>2026-03-26T11:07:29.919Z</time></trkpt><trkpt lat="30.803074737338275" lon="-6.75469430819958"><ele>1325.0</ele><time>2026-03-26T11:07:30.919Z</time></trkpt><trkpt lat="30.802991616277538" lon="-6.754826998858614"><ele>1325.0</ele><time>2026-03-26T11:07:31.919Z</time></trkpt><trkpt lat="30.802893163135877" lon="-6.754941734616416"><ele>1325.0</ele><time>2026-03-26T11:07:32.919Z</time></trkpt><trkpt lat="30.802764077730618" lon="-6.7550649414277695"><ele>1325.0</ele><time>2026-03-26T11:07:33.919Z</time></trkpt><trkpt lat="30.80260420899032" lon="-6.755206464965412"><ele>1326.3333333333335</ele><time>2026-03-26T11:07:34.919Z</time></trkpt><trkpt lat="30.802468491721616" lon="-6.755346641529781"><ele>1327.6666666666667</ele><time>2026-03-26T11:07:35.919Z</time></trkpt><trkpt lat="30.80235847618835" lon="-6.7554784475844665"><ele>1329.0</ele><time>2026-03-26T11:07:36.919Z</time></trkpt><trkpt lat="30.80226030987752" lon="-6.755605701304765"><ele>1329.0</ele><time>2026-03-26T11:07:37.918Z</time></trkpt><trkpt lat="30.80217823311876" lon="-6.755737589782276"><ele>1329.0</ele><time>2026-03-26T11:07:38.918Z</time></trkpt><trkpt lat="30.802100715212024" lon="-6.7558631015938815"><ele>1329.0</ele><time>2026-03-26T11:07:39.919Z</time></trkpt><trkpt lat="30.802030374541054" lon="-6.755977623206533"><ele>1329.0</ele><time>2026-03-26T11:07:40.919Z</time></trkpt><trkpt lat="30.80195709963449" lon="-6.756081598891418"><ele>1330.0</ele><time>2026-03-26T11:07:41.919Z</time></trkpt><trkpt lat="30.8018861477326" lon="-6.7561818819088835"><ele>1331.0</ele><time>2026-03-26T11:07:42.919Z</time></trkpt><trkpt lat="30.801827789805813" lon="-6.756293225116701"><ele>1332.0</ele><time>2026-03-26T11:07:43.919Z</time></trkpt><trkpt lat="30.80177270899978" lon="-6.756407455174848"><ele>1333.0</ele><time>2026-03-26T11:07:44.919Z</time></trkpt><trkpt lat="30.801717204923207" lon="-6.756519450738899"><ele>1334.0</ele><time>2026-03-26T11:07:45.919Z</time></trkpt><trkpt lat="30.801663304435102" lon="-6.756653683450056"><ele>1334.6</ele><time>2026-03-26T11:07:46.919Z</time></trkpt><trkpt lat="30.801627031188776" lon="-6.756805094967373"><ele>1335.2</ele><time>2026-03-26T11:07:47.919Z</time></trkpt><trkpt lat="30.80162450484923" lon="-6.756943580008156"><ele>1335.8</ele><time>2026-03-26T11:07:48.919Z</time></trkpt><trkpt lat="30.8016424852798" lon="-6.757048811882917"><ele>1336.3999999999999</ele><time>2026-03-26T11:07:49.919Z</time></trkpt><trkpt lat="30.80163929618824" lon="-6.757139009119291"><ele>1337.0</ele><time>2026-03-26T11:07:50.919Z</time></trkpt><trkpt lat="30.801598071610087" lon="-6.757255052652388"><ele>1337.0</ele><time>2026-03-26T11:07:52.919Z</time></trkpt><trkpt lat="30.801579626143937" lon="-6.7573745809960535"><ele>1337.0</ele><time>2026-03-26T11:07:54.919Z</time></trkpt><trkpt lat="30.80162064311993" lon="-6.757521552492316"><ele>1337.0</ele><time>2026-03-26T11:07:56.919Z</time></trkpt><trkpt lat="30.801637773473935" lon="-6.757595816272265"><ele>1337.0</ele><time>2026-03-26T11:07:57.919Z</time></trkpt><trkpt lat="30.801641291785383" lon="-6.75767932729778"><ele>1337.0</ele><time>2026-03-26T11:07:58.919Z</time></trkpt><trkpt lat="30.80164321586352" lon="-6.757772107546877"><ele>1337.8</ele><time>2026-03-26T11:07:59.919Z</time></trkpt><trkpt lat="30.801655049500205" lon="-6.75788569141685"><ele>1338.6</ele><time>2026-03-26T11:08:00.919Z</time></trkpt><trkpt lat="30.80167242155968" lon="-6.757995359128402"><ele>1339.3999999999999</ele><time>2026-03-26T11:08:01.919Z</time></trkpt><trkpt lat="30.80164946946511" lon="-6.758077547747948"><ele>1340.1999999999998</ele><time>2026-03-26T11:08:02.919Z</time></trkpt><trkpt lat="30.801519732633512" lon="-6.758116905378619"><ele>1341.0</ele><time>2026-03-26T11:08:04.919Z</time></trkpt><trkpt lat="30.80139734019038" lon="-6.758138826558072"><ele>1341.0</ele><time>2026-03-26T11:08:05.919Z</time></trkpt><trkpt lat="30.801283002239035" lon="-6.75816579109244"><ele>1341.0</ele><time>2026-03-26T11:08:06.919Z</time></trkpt><trkpt lat="30.801215093552806" lon="-6.758201380645587"><ele>1341.0</ele><time>2026-03-26T11:08:07.919Z</time></trkpt><trkpt lat="30.80110650230798" lon="-6.7582202295721885"><ele>1341.0</ele><time>2026-03-26T11:08:08.919Z</time></trkpt><trkpt lat="30.800962947712033" lon="-6.75824799472399"><ele>1341.0</ele><time>2026-03-26T11:08:09.919Z</time></trkpt><trkpt lat="30.800829560381327" lon="-6.75827476084387"><ele>1338.8</ele><time>2026-03-26T11:08:10.919Z</time></trkpt><trkpt lat="30.800715889375518" lon="-6.7582904471346765"><ele>1336.6</ele><time>2026-03-26T11:08:11.919Z</time></trkpt><trkpt lat="30.80061663830867" lon="-6.75830544000827"><ele>1334.4</ele><time>2026-03-26T11:08:12.919Z</time></trkpt><trkpt lat="30.800524154521884" lon="-6.758329255260513"><ele>1332.2</ele><time>2026-03-26T11:08:13.919Z</time></trkpt><trkpt lat="30.800448536285074" lon="-6.75838075214329"><ele>1330.0</ele><time>2026-03-26T11:08:14.919Z</time></trkpt><trkpt lat="30.800373853247173" lon="-6.758466585901415"><ele>1329.0</ele><time>2026-03-26T11:08:15.919Z</time></trkpt><trkpt lat="30.800290483217562" lon="-6.758537053137607"><ele>1328.0</ele><time>2026-03-26T11:08:16.919Z</time></trkpt><trkpt lat="30.800197357098256" lon="-6.7586139724493846"><ele>1327.0</ele><time>2026-03-26T11:08:17.919Z</time></trkpt><trkpt lat="30.800119810721714" lon="-6.758687021122533"><ele>1326.0</ele><time>2026-03-26T11:08:18.919Z</time></trkpt><trkpt lat="30.800053284898794" lon="-6.758763980053699"><ele>1325.0</ele><time>2026-03-26T11:08:19.919Z</time></trkpt><trkpt lat="30.799978987658296" lon="-6.758835921108781"><ele>1325.0</ele><time>2026-03-26T11:08:20.919Z</time></trkpt><trkpt lat="30.7999177242321" lon="-6.758896361794808"><ele>1325.0</ele><time>2026-03-26T11:08:21.919Z</time></trkpt><trkpt lat="30.799878100103353" lon="-6.7589652344352"><ele>1325.0</ele><time>2026-03-26T11:08:22.919Z</time></trkpt><trkpt lat="30.799858240052362" lon="-6.759097442429254"><ele>1325.0</ele><time>2026-03-26T11:08:24.919Z</time></trkpt><trkpt lat="30.799853167492522" lon="-6.759231486185544"><ele>1325.0</ele><time>2026-03-26T11:08:26.919Z</time></trkpt><trkpt lat="30.799829275558967" lon="-6.759316485365039"><ele>1323.8333333333335</ele><time>2026-03-26T11:08:28.919Z</time></trkpt><trkpt lat="30.799794864946367" lon="-6.75940384556541"><ele>1322.6666666666667</ele><time>2026-03-26T11:08:30.918Z</time></trkpt><trkpt lat="30.79974856063227" lon="-6.759486228859015"><ele>1321.5</ele><time>2026-03-26T11:08:32.918Z</time></trkpt><trkpt lat="30.799668550990226" lon="-6.759565314914575"><ele>1320.3333333333333</ele><time>2026-03-26T11:08:34.918Z</time></trkpt><trkpt lat="30.799619830299843" lon="-6.75962394645793"><ele>1319.1666666666665</ele><time>2026-03-26T11:08:35.918Z</time></trkpt><trkpt lat="30.79957510187688" lon="-6.759681917916392"><ele>1318.0</ele><time>2026-03-26T11:08:36.918Z</time></trkpt><trkpt lat="30.799538342499524" lon="-6.759744299982753"><ele>1318.0</ele><time>2026-03-26T11:08:37.918Z</time></trkpt><trkpt lat="30.799506239428165" lon="-6.759809462467896"><ele>1318.0</ele><time>2026-03-26T11:08:38.918Z</time></trkpt><trkpt lat="30.79947912306618" lon="-6.75989350082415"><ele>1318.0</ele><time>2026-03-26T11:08:39.918Z</time></trkpt><trkpt lat="30.799467860271033" lon="-6.759966245561377"><ele>1318.0</ele><time>2026-03-26T11:08:40.918Z</time></trkpt><trkpt lat="30.79944907188835" lon="-6.760074948634053"><ele>1318.0</ele><time>2026-03-26T11:08:42.918Z</time></trkpt><trkpt lat="30.799454661186974" lon="-6.760187055011857"><ele>1318.0</ele><time>2026-03-26T11:08:44.918Z</time></trkpt><trkpt lat="30.79954040320627" lon="-6.760269286822814"><ele>1316.1666666666665</ele><time>2026-03-26T11:08:46.918Z</time></trkpt><trkpt lat="30.79962633457162" lon="-6.760323105728324"><ele>1314.3333333333333</ele><time>2026-03-26T11:08:47.918Z</time></trkpt><trkpt lat="30.799718040331935" lon="-6.760369897121292"><ele>1312.5</ele><time>2026-03-26T11:08:48.918Z</time></trkpt><trkpt lat="30.799789342005884" lon="-6.760413960713742"><ele>1310.6666666666667</ele><time>2026-03-26T11:08:49.918Z</time></trkpt><trkpt lat="30.79985042557173" lon="-6.760456425684653"><ele>1308.8333333333335</ele><time>2026-03-26T11:08:50.918Z</time></trkpt><trkpt lat="30.799911613672705" lon="-6.760498126390997"><ele>1307.0</ele><time>2026-03-26T11:08:51.918Z</time></trkpt><trkpt lat="30.799968840317895" lon="-6.760551847788982"><ele>1307.0</ele><time>2026-03-26T11:08:52.918Z</time></trkpt><trkpt lat="30.800051642181366" lon="-6.76066549603877"><ele>1307.0</ele><time>2026-03-26T11:08:54.918Z</time></trkpt><trkpt lat="30.80012033054988" lon="-6.760773768676305"><ele>1307.0</ele><time>2026-03-26T11:08:56.918Z</time></trkpt><trkpt lat="30.800205890509005" lon="-6.76088247821961"><ele>1307.0</ele><time>2026-03-26T11:08:58.918Z</time></trkpt><trkpt lat="30.80024877699725" lon="-6.76093716370031"><ele>1307.0</ele><time>2026-03-26T11:08:59.918Z</time></trkpt><trkpt lat="30.80033030922153" lon="-6.761029486906794"><ele>1306.6666666666667</ele><time>2026-03-26T11:09:01.918Z</time></trkpt><trkpt lat="30.800385889059218" lon="-6.761069741207464"><ele>1306.3333333333335</ele><time>2026-03-26T11:09:03.918Z</time></trkpt><trkpt lat="30.800464886848523" lon="-6.761120191781439"><ele>1306.0</ele><time>2026-03-26T11:09:06.918Z</time></trkpt><trkpt lat="30.80050110221456" lon="-6.76118988515404"><ele>1305.6666666666667</ele><time>2026-03-26T11:09:08.918Z</time></trkpt><trkpt lat="30.80049194982671" lon="-6.761286543625971"><ele>1305.3333333333333</ele><time>2026-03-26T11:09:11.918Z</time></trkpt><trkpt lat="30.800506867961328" lon="-6.761364151177909"><ele>1305.0</ele><time>2026-03-26T11:09:13.918Z</time></trkpt><trkpt lat="30.800577858890048" lon="-6.76144093081853"><ele>1305.0</ele><time>2026-03-26T11:09:16.918Z</time></trkpt><trkpt lat="30.800661755229882" lon="-6.761491314796505"><ele>1305.0</ele><time>2026-03-26T11:09:18.918Z</time></trkpt><trkpt lat="30.800742510307174" lon="-6.761532646444795"><ele>1305.0</ele><time>2026-03-26T11:09:20.918Z</time></trkpt><trkpt lat="30.80082551173007" lon="-6.761580461514246"><ele>1305.0</ele><time>2026-03-26T11:09:22.918Z</time></trkpt><trkpt lat="30.8008903383514" lon="-6.761616901709745"><ele>1305.0</ele><time>2026-03-26T11:09:23.918Z</time></trkpt><trkpt lat="30.800961814099395" lon="-6.761651337641564"><ele>1305.0</ele><time>2026-03-26T11:09:24.918Z</time></trkpt><trkpt lat="30.801059741989597" lon="-6.761685584794147"><ele>1304.6666666666667</ele><time>2026-03-26T11:09:25.918Z</time></trkpt><trkpt lat="30.80119790219516" lon="-6.761745893599462"><ele>1304.3333333333335</ele><time>2026-03-26T11:09:26.918Z</time></trkpt><trkpt lat="30.80134850090582" lon="-6.761820530296929"><ele>1304.0</ele><time>2026-03-26T11:09:27.918Z</time></trkpt><trkpt lat="30.801482615733363" lon="-6.761895572736854"><ele>1304.0</ele><time>2026-03-26T11:09:28.918Z</time></trkpt><trkpt lat="30.801593632875594" lon="-6.761970409863387"><ele>1304.0</ele><time>2026-03-26T11:09:29.918Z</time></trkpt><trkpt lat="30.80167957866719" lon="-6.762045353663265"><ele>1304.0</ele><time>2026-03-26T11:09:30.918Z</time></trkpt><trkpt lat="30.80172991717619" lon="-6.7621196918654976"><ele>1304.0</ele><time>2026-03-26T11:09:31.918Z</time></trkpt><trkpt lat="30.801715340737886" lon="-6.762252724168301"><ele>1304.0</ele><time>2026-03-26T11:09:33.918Z</time></trkpt><trkpt lat="30.801709437164238" lon="-6.762359708356926"><ele>1304.0</ele><time>2026-03-26T11:09:34.918Z</time></trkpt><trkpt lat="30.801746600172013" lon="-6.762467328664446"><ele>1304.0</ele><time>2026-03-26T11:09:35.918Z</time></trkpt><trkpt lat="30.801786460685523" lon="-6.762551691649355"><ele>1304.0</ele><time>2026-03-26T11:09:36.918Z</time></trkpt><trkpt lat="30.80182545374603" lon="-6.762633362866869"><ele>1304.0</ele><time>2026-03-26T11:09:37.918Z</time></trkpt><trkpt lat="30.801852867794135" lon="-6.7627107831920235"><ele>1304.0</ele><time>2026-03-26T11:09:38.918Z</time></trkpt><trkpt lat="30.80187964311052" lon="-6.762825562318792"><ele>1304.0</ele><time>2026-03-26T11:09:40.918Z</time></trkpt><trkpt lat="30.801908758226247" lon="-6.762943744423738"><ele>1303.0</ele><time>2026-03-26T11:09:42.918Z</time></trkpt><trkpt lat="30.801944061415668" lon="-6.7630471256553895"><ele>1302.0</ele><time>2026-03-26T11:09:44.918Z</time></trkpt><trkpt lat="30.80202756541794" lon="-6.7631019916532145"><ele>1301.0</ele><time>2026-03-26T11:09:46.918Z</time></trkpt><trkpt lat="30.8021269686941" lon="-6.763155926372126"><ele>1300.0</ele><time>2026-03-26T11:09:48.917Z</time></trkpt><trkpt lat="30.802240952491214" lon="-6.763191921094137"><ele>1299.0</ele><time>2026-03-26T11:09:50.918Z</time></trkpt><trkpt lat="30.80232994166268" lon="-6.763290208894021"><ele>1299.0000000000002</ele><time>2026-03-26T11:09:52.917Z</time></trkpt><trkpt lat="30.80236158783358" lon="-6.763368543124042"><ele>1299.0</ele><time>2026-03-26T11:09:53.917Z</time></trkpt><trkpt lat="30.80239272876778" lon="-6.7634367065929615"><ele>1299.0</ele><time>2026-03-26T11:09:54.917Z</time></trkpt><trkpt lat="30.80242582980236" lon="-6.763501581998427"><ele>1299.0</ele><time>2026-03-26T11:09:55.918Z</time></trkpt><trkpt lat="30.80245811758034" lon="-6.763564867724714"><ele>1299.0</ele><time>2026-03-26T11:09:56.918Z</time></trkpt><trkpt lat="30.802492629357484" lon="-6.763630128336187"><ele>1299.0000000000002</ele><time>2026-03-26T11:09:57.918Z</time></trkpt><trkpt lat="30.802563193552196" lon="-6.7637265287218815"><ele>1299.0</ele><time>2026-03-26T11:09:59.918Z</time></trkpt><trkpt lat="30.80263682806198" lon="-6.7637865095772005"><ele>1298.2</ele><time>2026-03-26T11:10:01.918Z</time></trkpt><trkpt lat="30.802722441613128" lon="-6.7637759125813695"><ele>1297.4</ele><time>2026-03-26T11:10:03.918Z</time></trkpt><trkpt lat="30.802842254451896" lon="-6.763712415631126"><ele>1296.6</ele><time>2026-03-26T11:10:05.918Z</time></trkpt><trkpt lat="30.802954288945543" lon="-6.763737676450093"><ele>1295.8</ele><time>2026-03-26T11:10:07.918Z</time></trkpt><trkpt lat="30.8030291906413" lon="-6.763775717352379"><ele>1295.0</ele><time>2026-03-26T11:10:08.918Z</time></trkpt><trkpt lat="30.803098694193757" lon="-6.7638077935740935"><ele>1295.0</ele><time>2026-03-26T11:10:09.917Z</time></trkpt><trkpt lat="30.803182420391163" lon="-6.76383044157918"><ele>1295.0</ele><time>2026-03-26T11:10:10.917Z</time></trkpt><trkpt lat="30.803257392697358" lon="-6.763869955479394"><ele>1295.0</ele><time>2026-03-26T11:10:11.917Z</time></trkpt><trkpt lat="30.803365057926204" lon="-6.763913212954978"><ele>1295.0</ele><time>2026-03-26T11:10:13.917Z</time></trkpt><trkpt lat="30.80346900799858" lon="-6.763933207600277"><ele>1295.0</ele><time>2026-03-26T11:10:15.917Z</time></trkpt><trkpt lat="30.803553197845375" lon="-6.763934569552324"><ele>1295.2</ele><time>2026-03-26T11:10:16.917Z</time></trkpt><trkpt lat="30.80364004790072" lon="-6.763950720727983"><ele>1295.4</ele><time>2026-03-26T11:10:17.917Z</time></trkpt><trkpt lat="30.80375535690421" lon="-6.763978555185132"><ele>1295.6</ele><time>2026-03-26T11:10:18.917Z</time></trkpt><trkpt lat="30.803864914325132" lon="-6.764012464272289"><ele>1295.8</ele><time>2026-03-26T11:10:19.917Z</time></trkpt><trkpt lat="30.803932065395678" lon="-6.764059873171528"><ele>1296.0</ele><time>2026-03-26T11:10:20.917Z</time></trkpt><trkpt lat="30.803989022197086" lon="-6.764139984860972"><ele>1296.0</ele><time>2026-03-26T11:10:21.917Z</time></trkpt><trkpt lat="30.80404366013611" lon="-6.764240717022269"><ele>1296.0</ele><time>2026-03-26T11:10:22.917Z</time></trkpt><trkpt lat="30.804104629646858" lon="-6.764345329696132"><ele>1296.0</ele><time>2026-03-26T11:10:23.917Z</time></trkpt><trkpt lat="30.804170152948224" lon="-6.76443001633677"><ele>1296.0</ele><time>2026-03-26T11:10:24.917Z</time></trkpt><trkpt lat="30.804215150800655" lon="-6.764502119133505"><ele>1296.0</ele><time>2026-03-26T11:10:25.917Z</time></trkpt><trkpt lat="30.804241665677424" lon="-6.764585004691998"><ele>1295.3333333333333</ele><time>2026-03-26T11:10:26.917Z</time></trkpt><trkpt lat="30.8042565840072" lon="-6.764676926083551"><ele>1294.6666666666667</ele><time>2026-03-26T11:10:27.917Z</time></trkpt><trkpt lat="30.80428378885027" lon="-6.764779429610641"><ele>1294.0</ele><time>2026-03-26T11:10:28.917Z</time></trkpt><trkpt lat="30.80432440013849" lon="-6.76485982140612"><ele>1293.3333333333335</ele><time>2026-03-26T11:10:29.917Z</time></trkpt><trkpt lat="30.80437852776862" lon="-6.764925153132517"><ele>1292.6666666666667</ele><time>2026-03-26T11:10:30.917Z</time></trkpt><trkpt lat="30.80443662898369" lon="-6.764996145270234"><ele>1292.0</ele><time>2026-03-26T11:10:31.917Z</time></trkpt><trkpt lat="30.804492853794518" lon="-6.765057725570474"><ele>1292.0</ele><time>2026-03-26T11:10:32.917Z</time></trkpt><trkpt lat="30.8045607591792" lon="-6.765118119639498"><ele>1292.0</ele><time>2026-03-26T11:10:33.917Z</time></trkpt><trkpt lat="30.804641252890246" lon="-6.765178733836895"><ele>1292.0</ele><time>2026-03-26T11:10:34.917Z</time></trkpt><trkpt lat="30.804739675119496" lon="-6.765203952488051"><ele>1292.0</ele><time>2026-03-26T11:10:35.917Z</time></trkpt><trkpt lat="30.80483813327885" lon="-6.765211870467305"><ele>1292.0</ele><time>2026-03-26T11:10:36.917Z</time></trkpt><trkpt lat="30.804923180784453" lon="-6.765215179417186"><ele>1291.3999999999999</ele><time>2026-03-26T11:10:37.917Z</time></trkpt><trkpt lat="30.80500782126624" lon="-6.76521709928805"><ele>1290.8</ele><time>2026-03-26T11:10:38.917Z</time></trkpt><trkpt lat="30.80508951519294" lon="-6.765222392953634"><ele>1290.2</ele><time>2026-03-26T11:10:39.917Z</time></trkpt><trkpt lat="30.80517847534812" lon="-6.765226945866947"><ele>1289.6</ele><time>2026-03-26T11:10:40.917Z</time></trkpt><trkpt lat="30.805271683213668" lon="-6.765234211251818"><ele>1289.0</ele><time>2026-03-26T11:10:41.917Z</time></trkpt><trkpt lat="30.805373554320166" lon="-6.765245212812811"><ele>1288.6666666666667</ele><time>2026-03-26T11:10:42.917Z</time></trkpt><trkpt lat="30.805471662184015" lon="-6.765253317323965"><ele>1288.3333333333335</ele><time>2026-03-26T11:10:43.917Z</time></trkpt><trkpt lat="30.805567799044685" lon="-6.765264637844918"><ele>1288.0</ele><time>2026-03-26T11:10:44.917Z</time></trkpt><trkpt lat="30.80565603144915" lon="-6.765269368587556"><ele>1287.6666666666667</ele><time>2026-03-26T11:10:45.917Z</time></trkpt><trkpt lat="30.80573589981215" lon="-6.765275147079641"><ele>1287.3333333333333</ele><time>2026-03-26T11:10:46.917Z</time></trkpt><trkpt lat="30.80581084736023" lon="-6.765275801873597"><ele>1287.0</ele><time>2026-03-26T11:10:47.917Z</time></trkpt><trkpt lat="30.805938518756605" lon="-6.765280468850645"><ele>1286.0</ele><time>2026-03-26T11:10:49.917Z</time></trkpt><trkpt lat="30.80603962030573" lon="-6.765327464994325"><ele>1285.0</ele><time>2026-03-26T11:10:51.917Z</time></trkpt><trkpt lat="30.80613999607644" lon="-6.76540058578801"><ele>1284.0</ele><time>2026-03-26T11:10:53.917Z</time></trkpt><trkpt lat="30.806262483479667" lon="-6.7654489233032065"><ele>1283.0</ele><time>2026-03-26T11:10:55.917Z</time></trkpt><trkpt lat="30.80633982288828" lon="-6.765523379349755"><ele>1283.0</ele><time>2026-03-26T11:10:57.917Z</time></trkpt><trkpt lat="30.806387937837" lon="-6.765640085286166"><ele>1283.0</ele><time>2026-03-26T11:10:59.917Z</time></trkpt><trkpt lat="30.806424972738558" lon="-6.76572869984359"><ele>1283.0</ele><time>2026-03-26T11:11:00.917Z</time></trkpt><trkpt lat="30.80646406007859" lon="-6.765812221815645"><ele>1283.0</ele><time>2026-03-26T11:11:01.917Z</time></trkpt><trkpt lat="30.806534387950716" lon="-6.765881983163509"><ele>1283.0</ele><time>2026-03-26T11:11:02.917Z</time></trkpt><trkpt lat="30.806621496526038" lon="-6.765954730614713"><ele>1282.8000000000002</ele><time>2026-03-26T11:11:03.917Z</time></trkpt><trkpt lat="30.806706421891967" lon="-6.766035186165668"><ele>1282.6</ele><time>2026-03-26T11:11:04.917Z</time></trkpt><trkpt lat="30.806783274581917" lon="-6.7661253551765626"><ele>1282.4</ele><time>2026-03-26T11:11:05.917Z</time></trkpt><trkpt lat="30.8068572835908" lon="-6.766221633508376"><ele>1282.1999999999998</ele><time>2026-03-26T11:11:06.917Z</time></trkpt><trkpt lat="30.8069337839415" lon="-6.766319930505965"><ele>1282.0</ele><time>2026-03-26T11:11:07.917Z</time></trkpt><trkpt lat="30.80699520464055" lon="-6.766399811619159"><ele>1282.0</ele><time>2026-03-26T11:11:08.917Z</time></trkpt><trkpt lat="30.807039486707694" lon="-6.766490628036026"><ele>1282.0</ele><time>2026-03-26T11:11:09.917Z</time></trkpt><trkpt lat="30.80707977421424" lon="-6.76659188985437"><ele>1282.0</ele><time>2026-03-26T11:11:10.917Z</time></trkpt><trkpt lat="30.807137214642133" lon="-6.7666837175851"><ele>1282.0</ele><time>2026-03-26T11:11:11.917Z</time></trkpt><trkpt lat="30.807208430112734" lon="-6.7667418253818505"><ele>1282.0</ele><time>2026-03-26T11:11:12.917Z</time></trkpt><trkpt lat="30.80727968601626" lon="-6.766789695432523"><ele>1282.0</ele><time>2026-03-26T11:11:13.917Z</time></trkpt><trkpt lat="30.8073457494887" lon="-6.7668293823045165"><ele>1282.0</ele><time>2026-03-26T11:11:14.917Z</time></trkpt><trkpt lat="30.80740522396389" lon="-6.766857641502911"><ele>1282.0</ele><time>2026-03-26T11:11:15.917Z</time></trkpt><trkpt lat="30.80747766481595" lon="-6.766894084388908"><ele>1282.0</ele><time>2026-03-26T11:11:16.917Z</time></trkpt><trkpt lat="30.80756203324088" lon="-6.766907104945489"><ele>1282.0</ele><time>2026-03-26T11:11:17.917Z</time></trkpt><trkpt lat="30.80766809304233" lon="-6.766913487112767"><ele>1282.0</ele><time>2026-03-26T11:11:18.917Z</time></trkpt><trkpt lat="30.80778138486609" lon="-6.76692203858251"><ele>1284.0</ele><time>2026-03-26T11:11:19.917Z</time></trkpt><trkpt lat="30.807906588733108" lon="-6.766949091807394"><ele>1286.0</ele><time>2026-03-26T11:11:20.917Z</time></trkpt><trkpt lat="30.80803062299738" lon="-6.767000876938549"><ele>1288.0</ele><time>2026-03-26T11:11:21.917Z</time></trkpt><trkpt lat="30.808145345760177" lon="-6.767059462306028"><ele>1290.0</ele><time>2026-03-26T11:11:22.917Z</time></trkpt><trkpt lat="30.808251351056953" lon="-6.767103706399897"><ele>1290.0</ele><time>2026-03-26T11:11:23.917Z</time></trkpt><trkpt lat="30.80833904874139" lon="-6.76714051531407"><ele>1290.0</ele><time>2026-03-26T11:11:24.917Z</time></trkpt><trkpt lat="30.808426197089677" lon="-6.767175245761609"><ele>1290.0</ele><time>2026-03-26T11:11:25.917Z</time></trkpt><trkpt lat="30.808512267326485" lon="-6.767211925967001"><ele>1290.0</ele><time>2026-03-26T11:11:26.917Z</time></trkpt><trkpt lat="30.80859952080918" lon="-6.767258840479208"><ele>1290.0</ele><time>2026-03-26T11:11:27.917Z</time></trkpt><trkpt lat="30.808717717406832" lon="-6.767317944191418"><ele>1289.5</ele><time>2026-03-26T11:11:28.917Z</time></trkpt><trkpt lat="30.808839573466095" lon="-6.76739826765139"><ele>1289.0</ele><time>2026-03-26T11:11:29.917Z</time></trkpt><trkpt lat="30.808947097255803" lon="-6.76746519104742"><ele>1288.5</ele><time>2026-03-26T11:11:30.917Z</time></trkpt><trkpt lat="30.8090376961622" lon="-6.767525394433505"><ele>1288.0</ele><time>2026-03-26T11:11:31.917Z</time></trkpt><trkpt lat="30.809128041231585" lon="-6.767583670618871"><ele>1288.0</ele><time>2026-03-26T11:11:32.917Z</time></trkpt><trkpt lat="30.809242524109074" lon="-6.767644383621621"><ele>1288.0</ele><time>2026-03-26T11:11:33.917Z</time></trkpt><trkpt lat="30.809358406238996" lon="-6.767699084906803"><ele>1288.0</ele><time>2026-03-26T11:11:34.917Z</time></trkpt><trkpt lat="30.80945658812826" lon="-6.7677302688942955"><ele>1288.0</ele><time>2026-03-26T11:11:35.917Z</time></trkpt><trkpt lat="30.80955220130666" lon="-6.76774021750148"><ele>1288.0</ele><time>2026-03-26T11:11:36.917Z</time></trkpt><trkpt lat="30.809651288965096" lon="-6.767732306872191"><ele>1287.5</ele><time>2026-03-26T11:11:37.917Z</time></trkpt><trkpt lat="30.809769674515486" lon="-6.767717865634145"><ele>1287.0</ele><time>2026-03-26T11:11:38.917Z</time></trkpt><trkpt lat="30.809907163114637" lon="-6.767699266313167"><ele>1286.5</ele><time>2026-03-26T11:11:39.917Z</time></trkpt><trkpt lat="30.8100471320114" lon="-6.767672259898853"><ele>1286.0</ele><time>2026-03-26T11:11:40.917Z</time></trkpt><trkpt lat="30.81016243646939" lon="-6.767642369577113"><ele>1285.4</ele><time>2026-03-26T11:11:41.917Z</time></trkpt><trkpt lat="30.81026529091363" lon="-6.767617689432126"><ele>1284.8</ele><time>2026-03-26T11:11:42.917Z</time></trkpt><trkpt lat="30.81035960407889" lon="-6.76760162848803"><ele>1284.2</ele><time>2026-03-26T11:11:43.917Z</time></trkpt><trkpt lat="30.810457202089935" lon="-6.767592445019773"><ele>1283.6000000000001</ele><time>2026-03-26T11:11:44.917Z</time></trkpt><trkpt lat="30.810558576128503" lon="-6.767595513528833"><ele>1283.0</ele><time>2026-03-26T11:11:45.917Z</time></trkpt><trkpt lat="30.81067488548576" lon="-6.767602129937101"><ele>1283.0</ele><time>2026-03-26T11:11:46.917Z</time></trkpt><trkpt lat="30.810772633048263" lon="-6.767611345202071"><ele>1283.0</ele><time>2026-03-26T11:11:47.917Z</time></trkpt><trkpt lat="30.810861852342747" lon="-6.767654913767057"><ele>1283.0</ele><time>2026-03-26T11:11:48.917Z</time></trkpt><trkpt lat="30.810943212414305" lon="-6.767704873377672"><ele>1283.0</ele><time>2026-03-26T11:11:49.916Z</time></trkpt><trkpt lat="30.811017684491052" lon="-6.767776289619229"><ele>1283.0</ele><time>2026-03-26T11:11:50.916Z</time></trkpt><trkpt lat="30.811103564149782" lon="-6.767836278164613"><ele>1281.0</ele><time>2026-03-26T11:11:51.916Z</time></trkpt><trkpt lat="30.81118302727028" lon="-6.767880837129409"><ele>1279.0</ele><time>2026-03-26T11:11:52.917Z</time></trkpt><trkpt lat="30.81128728194458" lon="-6.767924828590715"><ele>1277.0</ele><time>2026-03-26T11:11:53.917Z</time></trkpt><trkpt lat="30.811386922894894" lon="-6.767975601009557"><ele>1275.0</ele><time>2026-03-26T11:11:54.916Z</time></trkpt><trkpt lat="30.811483970832004" lon="-6.768026903419927"><ele>1273.0</ele><time>2026-03-26T11:11:55.917Z</time></trkpt><trkpt lat="30.81158294997749" lon="-6.768065727396222"><ele>1273.0</ele><time>2026-03-26T11:11:56.917Z</time></trkpt><trkpt lat="30.811672890351577" lon="-6.7680963651723305"><ele>1273.0</ele><time>2026-03-26T11:11:57.916Z</time></trkpt><trkpt lat="30.81175762597982" lon="-6.768122191018793"><ele>1273.0</ele><time>2026-03-26T11:11:58.916Z</time></trkpt><trkpt lat="30.811841372391022" lon="-6.768153355057166"><ele>1273.0</ele><time>2026-03-26T11:11:59.916Z</time></trkpt><trkpt lat="30.81193738833577" lon="-6.7681777281217235"><ele>1273.0</ele><time>2026-03-26T11:12:00.917Z</time></trkpt><trkpt lat="30.812023003539704" lon="-6.768185700449943"><ele>1272.8333333333333</ele><time>2026-03-26T11:12:01.916Z</time></trkpt><trkpt lat="30.812103519722843" lon="-6.768190090331802"><ele>1272.6666666666665</ele><time>2026-03-26T11:12:02.916Z</time></trkpt><trkpt lat="30.81217764560773" lon="-6.768180844110507"><ele>1272.5</ele><time>2026-03-26T11:12:03.916Z</time></trkpt><trkpt lat="30.812278030754875" lon="-6.768159489136741"><ele>1272.3333333333333</ele><time>2026-03-26T11:12:04.916Z</time></trkpt><trkpt lat="30.812361291763846" lon="-6.76815244797391"><ele>1272.1666666666667</ele><time>2026-03-26T11:12:05.916Z</time></trkpt><trkpt lat="30.812437081162624" lon="-6.76817040189529"><ele>1272.0</ele><time>2026-03-26T11:12:06.916Z</time></trkpt><trkpt lat="30.812520908648462" lon="-6.768199657300862"><ele>1272.0</ele><time>2026-03-26T11:12:07.916Z</time></trkpt><trkpt lat="30.812622206724193" lon="-6.768225606714985"><ele>1272.0</ele><time>2026-03-26T11:12:08.916Z</time></trkpt><trkpt lat="30.812699047411908" lon="-6.768253358281481"><ele>1272.0</ele><time>2026-03-26T11:12:09.916Z</time></trkpt><trkpt lat="30.812784250064556" lon="-6.768286464525091"><ele>1272.0</ele><time>2026-03-26T11:12:10.916Z</time></trkpt><trkpt lat="30.812862679384835" lon="-6.768328802914221"><ele>1272.0</ele><time>2026-03-26T11:12:11.916Z</time></trkpt><trkpt lat="30.812947498114617" lon="-6.768365798689329"><ele>1271.0</ele><time>2026-03-26T11:12:12.916Z</time></trkpt><trkpt lat="30.81303129614294" lon="-6.768381325138984"><ele>1270.0</ele><time>2026-03-26T11:12:13.916Z</time></trkpt><trkpt lat="30.813123143158514" lon="-6.768376354478331"><ele>1269.0</ele><time>2026-03-26T11:12:14.916Z</time></trkpt><trkpt lat="30.813214978756974" lon="-6.768359347505172"><ele>1268.0</ele><time>2026-03-26T11:12:15.916Z</time></trkpt><trkpt lat="30.81330279706346" lon="-6.768335249122665"><ele>1267.0</ele><time>2026-03-26T11:12:16.916Z</time></trkpt><trkpt lat="30.813385876730788" lon="-6.768311494593697"><ele>1266.0</ele><time>2026-03-26T11:12:17.916Z</time></trkpt><trkpt lat="30.813474492893015" lon="-6.768286356664571"><ele>1265.1666666666667</ele><time>2026-03-26T11:12:18.916Z</time></trkpt><trkpt lat="30.81355837624175" lon="-6.7682592442235725"><ele>1264.3333333333333</ele><time>2026-03-26T11:12:19.916Z</time></trkpt><trkpt lat="30.813619192977452" lon="-6.768232691899686"><ele>1263.5</ele><time>2026-03-26T11:12:20.916Z</time></trkpt><trkpt lat="30.813728835099973" lon="-6.768175044325812"><ele>1262.6666666666665</ele><time>2026-03-26T11:12:22.916Z</time></trkpt><trkpt lat="30.813787400168195" lon="-6.768136708465565"><ele>1261.8333333333333</ele><time>2026-03-26T11:12:23.916Z</time></trkpt><trkpt lat="30.813846078682516" lon="-6.7680914604417275"><ele>1261.0</ele><time>2026-03-26T11:12:24.916Z</time></trkpt><trkpt lat="30.813951967583947" lon="-6.768011867342325"><ele>1261.0</ele><time>2026-03-26T11:12:26.916Z</time></trkpt><trkpt lat="30.814006455812734" lon="-6.767971361218356"><ele>1261.0</ele><time>2026-03-26T11:12:27.916Z</time></trkpt><trkpt lat="30.8140679914866" lon="-6.767918551855676"><ele>1261.0</ele><time>2026-03-26T11:12:28.916Z</time></trkpt><trkpt lat="30.814138204705728" lon="-6.767865041043597"><ele>1261.0</ele><time>2026-03-26T11:12:29.916Z</time></trkpt><trkpt lat="30.81424105580016" lon="-6.767808677026878"><ele>1261.0</ele><time>2026-03-26T11:12:30.916Z</time></trkpt><trkpt lat="30.81433475169527" lon="-6.767780675357623"><ele>1261.0</ele><time>2026-03-26T11:12:31.916Z</time></trkpt><trkpt lat="30.814428110484723" lon="-6.767770298320956"><ele>1260.8</ele><time>2026-03-26T11:12:32.916Z</time></trkpt><trkpt lat="30.814507185828564" lon="-6.767736635903449"><ele>1260.6</ele><time>2026-03-26T11:12:33.916Z</time></trkpt><trkpt lat="30.814568026239094" lon="-6.767705750498037"><ele>1260.4</ele><time>2026-03-26T11:12:34.916Z</time></trkpt><trkpt lat="30.814646404205323" lon="-6.767627320472135"><ele>1260.2</ele><time>2026-03-26T11:12:36.916Z</time></trkpt><trkpt lat="30.81472808466127" lon="-6.767559940638265"><ele>1260.0</ele><time>2026-03-26T11:12:37.916Z</time></trkpt><trkpt lat="30.814822851327754" lon="-6.767486724374725"><ele>1260.3333333333333</ele><time>2026-03-26T11:12:38.916Z</time></trkpt><trkpt lat="30.814904829066347" lon="-6.767425402707864"><ele>1260.6666666666667</ele><time>2026-03-26T11:12:39.916Z</time></trkpt><trkpt lat="30.814964549566252" lon="-6.767382313479713"><ele>1261.0</ele><time>2026-03-26T11:12:40.916Z</time></trkpt><trkpt lat="30.815019179657565" lon="-6.7673396366740155"><ele>1261.3333333333335</ele><time>2026-03-26T11:12:41.916Z</time></trkpt><trkpt lat="30.815119041786595" lon="-6.767249237208613"><ele>1261.6666666666667</ele><time>2026-03-26T11:12:43.916Z</time></trkpt><trkpt lat="30.815173077422426" lon="-6.76719697794816"><ele>1262.0</ele><time>2026-03-26T11:12:44.916Z</time></trkpt><trkpt lat="30.815223483958036" lon="-6.767152886799653"><ele>1262.0</ele><time>2026-03-26T11:12:45.916Z</time></trkpt><trkpt lat="30.815322173285523" lon="-6.767065672831012"><ele>1262.0</ele><time>2026-03-26T11:12:47.916Z</time></trkpt><trkpt lat="30.815364981662718" lon="-6.767011315185899"><ele>1262.0</ele><time>2026-03-26T11:12:48.916Z</time></trkpt><trkpt lat="30.81545274752805" lon="-6.766925094751742"><ele>1262.0</ele><time>2026-03-26T11:12:50.916Z</time></trkpt><trkpt lat="30.815562835065517" lon="-6.766856808685705"><ele>1262.0</ele><time>2026-03-26T11:12:52.916Z</time></trkpt><trkpt lat="30.81563383513285" lon="-6.766814487652937"><ele>1262.6</ele><time>2026-03-26T11:12:53.916Z</time></trkpt><trkpt lat="30.81572774495887" lon="-6.7667613207296915"><ele>1263.2</ele><time>2026-03-26T11:12:54.916Z</time></trkpt><trkpt lat="30.815822430115464" lon="-6.766708469043571"><ele>1263.8</ele><time>2026-03-26T11:12:55.916Z</time></trkpt><trkpt lat="30.81589766468847" lon="-6.766654694105258"><ele>1264.4</ele><time>2026-03-26T11:12:56.916Z</time></trkpt><trkpt lat="30.81596828839169" lon="-6.766597894531421"><ele>1265.0</ele><time>2026-03-26T11:12:57.916Z</time></trkpt><trkpt lat="30.81603355642124" lon="-6.76651414185656"><ele>1265.3333333333335</ele><time>2026-03-26T11:12:58.916Z</time></trkpt><trkpt lat="30.81608220365268" lon="-6.766426204539465"><ele>1265.6666666666667</ele><time>2026-03-26T11:12:59.916Z</time></trkpt><trkpt lat="30.816134145163037" lon="-6.766347102829968"><ele>1266.0</ele><time>2026-03-26T11:13:00.916Z</time></trkpt><trkpt lat="30.816178659297098" lon="-6.766266817643511"><ele>1266.3333333333333</ele><time>2026-03-26T11:13:01.916Z</time></trkpt><trkpt lat="30.816222186592604" lon="-6.766189431584888"><ele>1266.6666666666665</ele><time>2026-03-26T11:13:02.916Z</time></trkpt><trkpt lat="30.816268660879924" lon="-6.766116184236694"><ele>1267.0</ele><time>2026-03-26T11:13:03.916Z</time></trkpt><trkpt lat="30.81631825724812" lon="-6.766042159511706"><ele>1268.0</ele><time>2026-03-26T11:13:04.916Z</time></trkpt><trkpt lat="30.816378266814958" lon="-6.765949067583947"><ele>1269.0</ele><time>2026-03-26T11:13:05.916Z</time></trkpt><trkpt lat="30.81643924063435" lon="-6.765855134075409"><ele>1270.0</ele><time>2026-03-26T11:13:06.916Z</time></trkpt><trkpt lat="30.81651076637768" lon="-6.765828803987606"><ele>1271.0</ele><time>2026-03-26T11:13:07.916Z</time></trkpt><trkpt lat="30.8165959978733" lon="-6.765870973138089"><ele>1272.0</ele><time>2026-03-26T11:13:08.916Z</time></trkpt><trkpt lat="30.81671332661412" lon="-6.765941491157329"><ele>1272.5</ele><time>2026-03-26T11:13:09.916Z</time></trkpt><trkpt lat="30.81683409566637" lon="-6.766025194501564"><ele>1273.0</ele><time>2026-03-26T11:13:10.916Z</time></trkpt><trkpt lat="30.816929744678177" lon="-6.766099438436723"><ele>1273.5</ele><time>2026-03-26T11:13:11.916Z</time></trkpt><trkpt lat="30.817016091513526" lon="-6.766154682162534"><ele>1274.0</ele><time>2026-03-26T11:13:12.916Z</time></trkpt><trkpt lat="30.817101991032658" lon="-6.766216308560525"><ele>1273.1666666666667</ele><time>2026-03-26T11:13:13.916Z</time></trkpt><trkpt lat="30.81716440116948" lon="-6.766288787979093"><ele>1272.3333333333335</ele><time>2026-03-26T11:13:14.916Z</time></trkpt><trkpt lat="30.817209538502613" lon="-6.766387318126413"><ele>1271.5</ele><time>2026-03-26T11:13:15.916Z</time></trkpt><trkpt lat="30.8172759066087" lon="-6.766471565502114"><ele>1270.6666666666667</ele><time>2026-03-26T11:13:16.916Z</time></trkpt><trkpt lat="30.817348435478582" lon="-6.7664995430293144"><ele>1269.8333333333333</ele><time>2026-03-26T11:13:17.916Z</time></trkpt><trkpt lat="30.817426356747003" lon="-6.766488651919304"><ele>1269.0</ele><time>2026-03-26T11:13:18.916Z</time></trkpt><trkpt lat="30.81751095140435" lon="-6.766451543786026"><ele>1269.0</ele><time>2026-03-26T11:13:19.916Z</time></trkpt><trkpt lat="30.81758517305623" lon="-6.766423749049224"><ele>1269.0</ele><time>2026-03-26T11:13:20.916Z</time></trkpt><trkpt lat="30.817647662154567" lon="-6.766408086418643"><ele>1269.0</ele><time>2026-03-26T11:13:21.916Z</time></trkpt><trkpt lat="30.817737899109634" lon="-6.766404789306366"><ele>1269.0</ele><time>2026-03-26T11:13:23.916Z</time></trkpt><trkpt lat="30.817823803168835" lon="-6.766410410613795"><ele>1269.0</ele><time>2026-03-26T11:13:25.916Z</time></trkpt><trkpt lat="30.81789807738292" lon="-6.766436910133063"><ele>1269.0</ele><time>2026-03-26T11:13:27.916Z</time></trkpt><trkpt lat="30.817966346299336" lon="-6.766497900423884"><ele>1268.2</ele><time>2026-03-26T11:13:30.916Z</time></trkpt><trkpt lat="30.818057609445326" lon="-6.766496469011381"><ele>1267.4</ele><time>2026-03-26T11:15:58.915Z</time></trkpt><trkpt lat="30.81817297879865" lon="-6.766569313673481"><ele>1266.6</ele><time>2026-03-26T11:16:00.915Z</time></trkpt><trkpt lat="30.81822949403709" lon="-6.766633107623589"><ele>1265.8</ele><time>2026-03-26T11:16:01.914Z</time></trkpt><trkpt lat="30.818282993420446" lon="-6.766696237642854"><ele>1265.0</ele><time>2026-03-26T11:16:02.914Z</time></trkpt><trkpt lat="30.818332610227518" lon="-6.766758261732797"><ele>1265.0</ele><time>2026-03-26T11:16:03.915Z</time></trkpt><trkpt lat="30.818394462437706" lon="-6.76682745775561"><ele>1265.0</ele><time>2026-03-26T11:16:04.914Z</time></trkpt><trkpt lat="30.818465841225947" lon="-6.766907909889906"><ele>1265.0</ele><time>2026-03-26T11:16:05.914Z</time></trkpt><trkpt lat="30.818559282539244" lon="-6.766999915180679"><ele>1265.0</ele><time>2026-03-26T11:16:06.915Z</time></trkpt><trkpt lat="30.818671475890334" lon="-6.767103325212774"><ele>1263.3333333333335</ele><time>2026-03-26T11:16:07.914Z</time></trkpt><trkpt lat="30.818806632959383" lon="-6.767221389908797"><ele>1261.6666666666667</ele><time>2026-03-26T11:16:08.914Z</time></trkpt><trkpt lat="30.81896157332753" lon="-6.767341508003185"><ele>1260.0</ele><time>2026-03-26T11:16:09.914Z</time></trkpt><trkpt lat="30.81911684399819" lon="-6.767441583475739"><ele>1260.0</ele><time>2026-03-26T11:16:10.915Z</time></trkpt><trkpt lat="30.819269872978385" lon="-6.767525552573386"><ele>1260.0</ele><time>2026-03-26T11:16:11.915Z</time></trkpt><trkpt lat="30.819428558171502" lon="-6.76761174225153"><ele>1260.0</ele><time>2026-03-26T11:16:12.914Z</time></trkpt><trkpt lat="30.819585642625455" lon="-6.7676977600203045"><ele>1260.6666666666667</ele><time>2026-03-26T11:16:13.914Z</time></trkpt><trkpt lat="30.81974618594882" lon="-6.76778304869393"><ele>1261.3333333333335</ele><time>2026-03-26T11:16:14.914Z</time></trkpt><trkpt lat="30.81991142843641" lon="-6.7678772829011935"><ele>1262.0</ele><time>2026-03-26T11:16:15.914Z</time></trkpt><trkpt lat="30.820069481189307" lon="-6.767967559900679"><ele>1258.6666666666667</ele><time>2026-03-26T11:16:16.914Z</time></trkpt><trkpt lat="30.820225132597525" lon="-6.768061145818758"><ele>1255.3333333333333</ele><time>2026-03-26T11:16:17.914Z</time></trkpt><trkpt lat="30.820381899543104" lon="-6.768166307867127"><ele>1252.0</ele><time>2026-03-26T11:16:18.914Z</time></trkpt><trkpt lat="30.820543087740194" lon="-6.76828248560358"><ele>1252.0</ele><time>2026-03-26T11:16:19.914Z</time></trkpt><trkpt lat="30.820702759814488" lon="-6.768398043341633"><ele>1252.0</ele><time>2026-03-26T11:16:20.914Z</time></trkpt><trkpt lat="30.820856378473504" lon="-6.768520932585453"><ele>1252.0</ele><time>2026-03-26T11:16:21.914Z</time></trkpt><trkpt lat="30.821003917213748" lon="-6.768648732304078"><ele>1251.3333333333333</ele><time>2026-03-26T11:16:22.914Z</time></trkpt><trkpt lat="30.82114832957617" lon="-6.7687811726722975"><ele>1250.6666666666667</ele><time>2026-03-26T11:16:23.914Z</time></trkpt><trkpt lat="30.821300778870143" lon="-6.768927149186408"><ele>1250.0</ele><time>2026-03-26T11:16:24.914Z</time></trkpt><trkpt lat="30.821448265338255" lon="-6.769070543012286"><ele>1250.0</ele><time>2026-03-26T11:16:25.914Z</time></trkpt><trkpt lat="30.821583969528163" lon="-6.769216601163274"><ele>1250.0</ele><time>2026-03-26T11:16:26.914Z</time></trkpt><trkpt lat="30.821722429411466" lon="-6.769362181150946"><ele>1250.0</ele><time>2026-03-26T11:16:27.914Z</time></trkpt><trkpt lat="30.821859750612024" lon="-6.769508064975405"><ele>1248.3333333333335</ele><time>2026-03-26T11:16:28.914Z</time></trkpt><trkpt lat="30.82199867116339" lon="-6.769653629831417"><ele>1246.6666666666667</ele><time>2026-03-26T11:16:29.914Z</time></trkpt><trkpt lat="30.82214436730387" lon="-6.769807380885981"><ele>1245.0</ele><time>2026-03-26T11:16:30.914Z</time></trkpt><trkpt lat="30.82229260573018" lon="-6.769964232234328"><ele>1245.0</ele><time>2026-03-26T11:16:31.914Z</time></trkpt><trkpt lat="30.822455012186637" lon="-6.770137910885458"><ele>1245.0</ele><time>2026-03-26T11:16:32.914Z</time></trkpt><trkpt lat="30.82260400455114" lon="-6.770289353867713"><ele>1245.0</ele><time>2026-03-26T11:16:33.914Z</time></trkpt><trkpt lat="30.822761435334783" lon="-6.770448564237832"><ele>1244.3333333333333</ele><time>2026-03-26T11:16:34.914Z</time></trkpt><trkpt lat="30.82292258466531" lon="-6.77061292284395"><ele>1243.6666666666665</ele><time>2026-03-26T11:16:35.914Z</time></trkpt><trkpt lat="30.823068294389085" lon="-6.7707628935103115"><ele>1243.0</ele><time>2026-03-26T11:16:36.914Z</time></trkpt><trkpt lat="30.823205304564" lon="-6.770904809049828"><ele>1243.6666666666665</ele><time>2026-03-26T11:16:37.914Z</time></trkpt><trkpt lat="30.823339132854862" lon="-6.771042416184844"><ele>1244.3333333333333</ele><time>2026-03-26T11:16:38.914Z</time></trkpt><trkpt lat="30.823463529324602" lon="-6.771175609486732"><ele>1245.0</ele><time>2026-03-26T11:16:39.914Z</time></trkpt><trkpt lat="30.823578732989525" lon="-6.7713073198091305"><ele>1243.0</ele><time>2026-03-26T11:16:40.914Z</time></trkpt><trkpt lat="30.823689183293258" lon="-6.771444544287102"><ele>1241.0</ele><time>2026-03-26T11:16:41.914Z</time></trkpt><trkpt lat="30.82379925194334" lon="-6.771586406421488"><ele>1239.0</ele><time>2026-03-26T11:16:42.914Z</time></trkpt><trkpt lat="30.823902049051878" lon="-6.771736923601843"><ele>1238.3333333333333</ele><time>2026-03-26T11:16:43.914Z</time></trkpt><trkpt lat="30.82399753953148" lon="-6.771899676512472"><ele>1237.6666666666665</ele><time>2026-03-26T11:16:44.914Z</time></trkpt><trkpt lat="30.824098947461604" lon="-6.77207379597495"><ele>1237.0</ele><time>2026-03-26T11:16:45.914Z</time></trkpt><trkpt lat="30.82419604605914" lon="-6.772260395382791"><ele>1237.0</ele><time>2026-03-26T11:16:46.914Z</time></trkpt><trkpt lat="30.8242837172717" lon="-6.772449286028038"><ele>1237.0</ele><time>2026-03-26T11:16:47.914Z</time></trkpt><trkpt lat="30.82436163118636" lon="-6.772632226371961"><ele>1237.0</ele><time>2026-03-26T11:16:48.914Z</time></trkpt><trkpt lat="30.824433453939655" lon="-6.7728153347056725"><ele>1239.0</ele><time>2026-03-26T11:16:49.914Z</time></trkpt><trkpt lat="30.824510389980492" lon="-6.7730006454757"><ele>1241.0</ele><time>2026-03-26T11:16:50.914Z</time></trkpt><trkpt lat="30.824593793249285" lon="-6.77319044559629"><ele>1243.0</ele><time>2026-03-26T11:16:51.914Z</time></trkpt><trkpt lat="30.824677419836615" lon="-6.773382587685277"><ele>1243.0</ele><time>2026-03-26T11:16:52.914Z</time></trkpt><trkpt lat="30.82476022129542" lon="-6.7735771953324"><ele>1243.0</ele><time>2026-03-26T11:16:53.914Z</time></trkpt><trkpt lat="30.824847846761543" lon="-6.773770960430214"><ele>1243.0</ele><time>2026-03-26T11:16:54.914Z</time></trkpt><trkpt lat="30.82493339765187" lon="-6.773972566028648"><ele>1243.0</ele><time>2026-03-26T11:16:55.914Z</time></trkpt><trkpt lat="30.82501960793203" lon="-6.774175502243731"><ele>1243.0</ele><time>2026-03-26T11:16:56.914Z</time></trkpt><trkpt lat="30.825106251785677" lon="-6.774375342329099"><ele>1243.0</ele><time>2026-03-26T11:16:57.914Z</time></trkpt><trkpt lat="30.825190519355385" lon="-6.77457470284861"><ele>1243.0</ele><time>2026-03-26T11:16:58.914Z</time></trkpt><trkpt lat="30.82527871323459" lon="-6.774778088353435"><ele>1243.0</ele><time>2026-03-26T11:16:59.914Z</time></trkpt><trkpt lat="30.825362613273768" lon="-6.774976792647805"><ele>1243.0</ele><time>2026-03-26T11:17:00.914Z</time></trkpt><trkpt lat="30.825444447051154" lon="-6.77516294552316"><ele>1242.6666666666665</ele><time>2026-03-26T11:17:01.914Z</time></trkpt><trkpt lat="30.82552168240975" lon="-6.775332654538637"><ele>1242.3333333333333</ele><time>2026-03-26T11:17:02.914Z</time></trkpt><trkpt lat="30.825592137700095" lon="-6.775506579127707"><ele>1242.0</ele><time>2026-03-26T11:17:03.914Z</time></trkpt><trkpt lat="30.82566754933318" lon="-6.775680722226645"><ele>1242.0</ele><time>2026-03-26T11:17:04.914Z</time></trkpt><trkpt lat="30.825742257822874" lon="-6.7758558931457085"><ele>1242.0</ele><time>2026-03-26T11:17:05.914Z</time></trkpt><trkpt lat="30.825821018318937" lon="-6.776036406998767"><ele>1242.0</ele><time>2026-03-26T11:17:06.914Z</time></trkpt><trkpt lat="30.825900152900797" lon="-6.776220567199727"><ele>1241.0</ele><time>2026-03-26T11:17:07.914Z</time></trkpt><trkpt lat="30.825978783041695" lon="-6.776402716251805"><ele>1240.0</ele><time>2026-03-26T11:17:08.914Z</time></trkpt><trkpt lat="30.82605646904142" lon="-6.7765884196381805"><ele>1239.0</ele><time>2026-03-26T11:17:09.914Z</time></trkpt><trkpt lat="30.82614025759859" lon="-6.7767763108527"><ele>1238.3333333333333</ele><time>2026-03-26T11:17:10.914Z</time></trkpt><trkpt lat="30.826224873314462" lon="-6.776965426416304"><ele>1237.6666666666665</ele><time>2026-03-26T11:17:11.914Z</time></trkpt><trkpt lat="30.82631444561453" lon="-6.777159485689031"><ele>1237.0</ele><time>2026-03-26T11:17:12.914Z</time></trkpt><trkpt lat="30.82641233390043" lon="-6.777353096716878"><ele>1237.0</ele><time>2026-03-26T11:17:13.914Z</time></trkpt><trkpt lat="30.82651326512058" lon="-6.777540057761865"><ele>1237.0</ele><time>2026-03-26T11:17:14.914Z</time></trkpt><trkpt lat="30.826611044630255" lon="-6.777715663059897"><ele>1237.0</ele><time>2026-03-26T11:17:15.914Z</time></trkpt><trkpt lat="30.826712847178058" lon="-6.777885505584627"><ele>1235.3333333333333</ele><time>2026-03-26T11:17:16.914Z</time></trkpt><trkpt lat="30.826816030168175" lon="-6.77804467695966"><ele>1233.6666666666667</ele><time>2026-03-26T11:17:17.914Z</time></trkpt><trkpt lat="30.82691505552147" lon="-6.778194181690549"><ele>1232.0</ele><time>2026-03-26T11:17:18.913Z</time></trkpt><trkpt lat="30.827020494980363" lon="-6.778346764506042"><ele>1232.0</ele><time>2026-03-26T11:17:19.913Z</time></trkpt><trkpt lat="30.82712692337762" lon="-6.7784995361112195"><ele>1232.0</ele><time>2026-03-26T11:17:20.913Z</time></trkpt><trkpt lat="30.82723184330956" lon="-6.778648902752067"><ele>1232.0</ele><time>2026-03-26T11:17:21.913Z</time></trkpt><trkpt lat="30.827334787550015" lon="-6.778798407520374"><ele>1231.3333333333335</ele><time>2026-03-26T11:17:22.913Z</time></trkpt><trkpt lat="30.827440270438196" lon="-6.7789491019831045"><ele>1230.6666666666667</ele><time>2026-03-26T11:17:23.913Z</time></trkpt><trkpt lat="30.827545447959622" lon="-6.7790988158351855"><ele>1230.0</ele><time>2026-03-26T11:17:24.913Z</time></trkpt><trkpt lat="30.827650574424663" lon="-6.779251588384763"><ele>1230.3333333333333</ele><time>2026-03-26T11:17:25.913Z</time></trkpt><trkpt lat="30.82775672551014" lon="-6.779406923338231"><ele>1230.6666666666665</ele><time>2026-03-26T11:17:26.913Z</time></trkpt><trkpt lat="30.827866660326357" lon="-6.77956849790616"><ele>1231.0</ele><time>2026-03-26T11:17:27.913Z</time></trkpt><trkpt lat="30.827978972957258" lon="-6.779731799220682"><ele>1231.0</ele><time>2026-03-26T11:17:28.913Z</time></trkpt><trkpt lat="30.828084531381197" lon="-6.779890845852786"><ele>1231.0</ele><time>2026-03-26T11:17:29.913Z</time></trkpt><trkpt lat="30.828187556584986" lon="-6.780043787313373"><ele>1231.0</ele><time>2026-03-26T11:17:30.913Z</time></trkpt><trkpt lat="30.82828879719079" lon="-6.780193821174956"><ele>1230.3333333333333</ele><time>2026-03-26T11:17:31.913Z</time></trkpt><trkpt lat="30.828393064909736" lon="-6.780344206159802"><ele>1229.6666666666667</ele><time>2026-03-26T11:17:32.913Z</time></trkpt><trkpt lat="30.82849952093599" lon="-6.780496357706517"><ele>1229.0</ele><time>2026-03-26T11:17:33.913Z</time></trkpt><trkpt lat="30.828609624801874" lon="-6.7806475037049845"><ele>1227.6666666666667</ele><time>2026-03-26T11:17:34.913Z</time></trkpt><trkpt lat="30.828716424169492" lon="-6.7808040134674075"><ele>1226.3333333333333</ele><time>2026-03-26T11:17:35.913Z</time></trkpt><trkpt lat="30.82882108924508" lon="-6.780957639978417"><ele>1225.0</ele><time>2026-03-26T11:17:36.913Z</time></trkpt><trkpt lat="30.82893257012326" lon="-6.781116544996721"><ele>1225.0</ele><time>2026-03-26T11:17:37.913Z</time></trkpt><trkpt lat="30.829046413253657" lon="-6.781278283234418"><ele>1225.0</ele><time>2026-03-26T11:17:38.913Z</time></trkpt><trkpt lat="30.829159774328655" lon="-6.781441370187794"><ele>1225.0</ele><time>2026-03-26T11:17:39.913Z</time></trkpt><trkpt lat="30.829276250008075" lon="-6.7816088179591905"><ele>1225.3333333333333</ele><time>2026-03-26T11:17:40.913Z</time></trkpt><trkpt lat="30.829391271687776" lon="-6.781777161131245"><ele>1225.6666666666667</ele><time>2026-03-26T11:17:41.913Z</time></trkpt><trkpt lat="30.829507714610163" lon="-6.781949211985831"><ele>1226.0</ele><time>2026-03-26T11:17:42.913Z</time></trkpt><trkpt lat="30.829623546674014" lon="-6.782122429326595"><ele>1225.3333333333335</ele><time>2026-03-26T11:17:43.913Z</time></trkpt><trkpt lat="30.829740512324822" lon="-6.782293246797732"><ele>1224.6666666666667</ele><time>2026-03-26T11:17:44.913Z</time></trkpt><trkpt lat="30.8298594551043" lon="-6.782464735310064"><ele>1224.0</ele><time>2026-03-26T11:17:45.913Z</time></trkpt><trkpt lat="30.829977869076135" lon="-6.782636866956054"><ele>1224.6666666666667</ele><time>2026-03-26T11:17:46.913Z</time></trkpt><trkpt lat="30.83009728073622" lon="-6.7828132507141214"><ele>1225.3333333333335</ele><time>2026-03-26T11:17:47.913Z</time></trkpt><trkpt lat="30.830215524676564" lon="-6.782990185344548"><ele>1226.0</ele><time>2026-03-26T11:17:48.913Z</time></trkpt><trkpt lat="30.83033118453055" lon="-6.783161771331746"><ele>1224.6666666666667</ele><time>2026-03-26T11:17:49.913Z</time></trkpt><trkpt lat="30.83044566897575" lon="-6.783328231166173"><ele>1223.3333333333333</ele><time>2026-03-26T11:17:50.913Z</time></trkpt><trkpt lat="30.830561805625482" lon="-6.783493647931631"><ele>1222.0</ele><time>2026-03-26T11:17:51.913Z</time></trkpt><trkpt lat="30.830683853717954" lon="-6.78365242790257"><ele>1221.0</ele><time>2026-03-26T11:17:52.913Z</time></trkpt><trkpt lat="30.830814749681995" lon="-6.783805789042917"><ele>1220.0</ele><time>2026-03-26T11:17:53.913Z</time></trkpt><trkpt lat="30.830954111332368" lon="-6.783953782868518"><ele>1219.0</ele><time>2026-03-26T11:17:54.913Z</time></trkpt><trkpt lat="30.83110315194859" lon="-6.784096739338669"><ele>1217.6666666666665</ele><time>2026-03-26T11:17:55.913Z</time></trkpt><trkpt lat="30.831260546607048" lon="-6.784231262376627"><ele>1216.3333333333333</ele><time>2026-03-26T11:17:56.913Z</time></trkpt><trkpt lat="30.831421001620935" lon="-6.784357180586696"><ele>1215.0</ele><time>2026-03-26T11:17:57.913Z</time></trkpt><trkpt lat="30.83158221332592" lon="-6.78447477813028"><ele>1213.3333333333333</ele><time>2026-03-26T11:17:58.913Z</time></trkpt><trkpt lat="30.831740752085118" lon="-6.78458735855425"><ele>1211.6666666666665</ele><time>2026-03-26T11:17:59.913Z</time></trkpt><trkpt lat="30.831896888212217" lon="-6.784699285279343"><ele>1210.0</ele><time>2026-03-26T11:18:00.913Z</time></trkpt><trkpt lat="30.832052319640614" lon="-6.784812467463278"><ele>1209.6666666666665</ele><time>2026-03-26T11:18:01.913Z</time></trkpt><trkpt lat="30.83220521828329" lon="-6.784923351982912"><ele>1209.3333333333333</ele><time>2026-03-26T11:18:02.913Z</time></trkpt><trkpt lat="30.832354177775066" lon="-6.785035017131363"><ele>1209.0</ele><time>2026-03-26T11:18:03.913Z</time></trkpt><trkpt lat="30.832504440610077" lon="-6.785140660973291"><ele>1209.6666666666667</ele><time>2026-03-26T11:18:04.913Z</time></trkpt><trkpt lat="30.832654487512407" lon="-6.785249802013168"><ele>1210.3333333333335</ele><time>2026-03-26T11:18:05.913Z</time></trkpt><trkpt lat="30.832798071331826" lon="-6.785364783536871"><ele>1211.0</ele><time>2026-03-26T11:18:06.914Z</time></trkpt><trkpt lat="30.832940579715032" lon="-6.785484706386597"><ele>1211.0</ele><time>2026-03-26T11:18:07.913Z</time></trkpt><trkpt lat="30.83308294698229" lon="-6.785608434248009"><ele>1211.0</ele><time>2026-03-26T11:18:08.913Z</time></trkpt><trkpt lat="30.833229221549" lon="-6.785738412581208"><ele>1211.0</ele><time>2026-03-26T11:18:09.914Z</time></trkpt><trkpt lat="30.833375039100446" lon="-6.785870890650569"><ele>1210.6666666666667</ele><time>2026-03-26T11:18:10.914Z</time></trkpt><trkpt lat="30.83352125204204" lon="-6.786008530156514"><ele>1210.3333333333333</ele><time>2026-03-26T11:18:11.914Z</time></trkpt><trkpt lat="30.833664430920784" lon="-6.786147463375597"><ele>1210.0</ele><time>2026-03-26T11:18:12.914Z</time></trkpt><trkpt lat="30.833810185766687" lon="-6.786284518618656"><ele>1210.0</ele><time>2026-03-26T11:18:13.914Z</time></trkpt><trkpt lat="30.833956849360312" lon="-6.7864255129950575"><ele>1210.0</ele><time>2026-03-26T11:18:14.913Z</time></trkpt><trkpt lat="30.834092692672186" lon="-6.786564714797658"><ele>1210.0</ele><time>2026-03-26T11:18:15.913Z</time></trkpt><trkpt lat="30.8342303833874" lon="-6.786702431336301"><ele>1208.6666666666665</ele><time>2026-03-26T11:18:16.914Z</time></trkpt><trkpt lat="30.834366932388228" lon="-6.786840234771004"><ele>1207.3333333333333</ele><time>2026-03-26T11:18:17.914Z</time></trkpt><trkpt lat="30.83449777355439" lon="-6.78697725584851"><ele>1206.0</ele><time>2026-03-26T11:18:18.913Z</time></trkpt><trkpt lat="30.834630608175964" lon="-6.787118831743748"><ele>1206.0</ele><time>2026-03-26T11:18:19.914Z</time></trkpt><trkpt lat="30.834761350533828" lon="-6.787270450514661"><ele>1206.0</ele><time>2026-03-26T11:18:20.914Z</time></trkpt><trkpt lat="30.834893785609392" lon="-6.78742808497471"><ele>1206.0</ele><time>2026-03-26T11:18:21.914Z</time></trkpt><trkpt lat="30.835020777928992" lon="-6.787598796594654"><ele>1204.0</ele><time>2026-03-26T11:18:22.914Z</time></trkpt><trkpt lat="30.835142838317292" lon="-6.787774458541085"><ele>1202.0</ele><time>2026-03-26T11:18:23.914Z</time></trkpt><trkpt lat="30.835261644566813" lon="-6.787954786012148"><ele>1200.0</ele><time>2026-03-26T11:18:24.914Z</time></trkpt><trkpt lat="30.835377111567936" lon="-6.788137555918891"><ele>1200.0</ele><time>2026-03-26T11:18:25.914Z</time></trkpt><trkpt lat="30.835488403833004" lon="-6.788325213808986"><ele>1200.0</ele><time>2026-03-26T11:18:26.914Z</time></trkpt><trkpt lat="30.8355961372906" lon="-6.78851515548018"><ele>1200.0</ele><time>2026-03-26T11:18:27.914Z</time></trkpt><trkpt lat="30.835699974164516" lon="-6.788700461977056"><ele>1198.6666666666667</ele><time>2026-03-26T11:18:28.914Z</time></trkpt><trkpt lat="30.835797581941396" lon="-6.788877364218021"><ele>1197.3333333333335</ele><time>2026-03-26T11:18:29.914Z</time></trkpt><trkpt lat="30.835896011006007" lon="-6.789048978896943"><ele>1196.0</ele><time>2026-03-26T11:18:30.914Z</time></trkpt><trkpt lat="30.835991096984657" lon="-6.789217805655336"><ele>1196.3333333333335</ele><time>2026-03-26T11:18:31.914Z</time></trkpt><trkpt lat="30.836085120890264" lon="-6.789386609087612"><ele>1196.6666666666667</ele><time>2026-03-26T11:18:32.914Z</time></trkpt><trkpt lat="30.836180667197787" lon="-6.789558845949748"><ele>1197.0</ele><time>2026-03-26T11:18:33.914Z</time></trkpt><trkpt lat="30.836272605228373" lon="-6.789729283291633"><ele>1197.0</ele><time>2026-03-26T11:18:34.914Z</time></trkpt><trkpt lat="30.836358611939254" lon="-6.789899547261397"><ele>1197.0</ele><time>2026-03-26T11:18:35.914Z</time></trkpt><trkpt lat="30.836448993538443" lon="-6.790079997018168"><ele>1197.0</ele><time>2026-03-26T11:18:36.914Z</time></trkpt><trkpt lat="30.836542350870268" lon="-6.790264750216901"><ele>1198.6666666666667</ele><time>2026-03-26T11:18:37.914Z</time></trkpt><trkpt lat="30.836632285358952" lon="-6.790453905255259"><ele>1200.3333333333335</ele><time>2026-03-26T11:18:38.914Z</time></trkpt><trkpt lat="30.83671569401066" lon="-6.7906534968481935"><ele>1202.0</ele><time>2026-03-26T11:18:39.914Z</time></trkpt><trkpt lat="30.83679571292782" lon="-6.790860724425092"><ele>1201.0</ele><time>2026-03-26T11:18:40.914Z</time></trkpt><trkpt lat="30.836869971554353" lon="-6.791072101630831"><ele>1200.0</ele><time>2026-03-26T11:18:41.914Z</time></trkpt><trkpt lat="30.83694198494918" lon="-6.79128589652074"><ele>1199.0</ele><time>2026-03-26T11:18:42.914Z</time></trkpt><trkpt lat="30.837017077437736" lon="-6.791499921017825"><ele>1199.0</ele><time>2026-03-26T11:18:43.914Z</time></trkpt><trkpt lat="30.837091932044693" lon="-6.79171240379219"><ele>1199.0</ele><time>2026-03-26T11:18:44.914Z</time></trkpt><trkpt lat="30.837170477190053" lon="-6.791929409261136"><ele>1199.0</ele><time>2026-03-26T11:18:45.914Z</time></trkpt><trkpt lat="30.83724769253571" lon="-6.792146851514246"><ele>1198.3333333333335</ele><time>2026-03-26T11:18:46.914Z</time></trkpt><trkpt lat="30.837320398122355" lon="-6.792362734946233"><ele>1197.6666666666667</ele><time>2026-03-26T11:18:47.914Z</time></trkpt><trkpt lat="30.83739498466712" lon="-6.792579126627968"><ele>1197.0</ele><time>2026-03-26T11:18:48.914Z</time></trkpt><trkpt lat="30.83747241017673" lon="-6.792795932493213"><ele>1196.3333333333333</ele><time>2026-03-26T11:18:49.914Z</time></trkpt><trkpt lat="30.83755025043718" lon="-6.793011447917457"><ele>1195.6666666666665</ele><time>2026-03-26T11:18:50.914Z</time></trkpt><trkpt lat="30.837624261100064" lon="-6.793226270404193"><ele>1195.0</ele><time>2026-03-26T11:18:51.914Z</time></trkpt><trkpt lat="30.837697827236674" lon="-6.793435978697829"><ele>1194.6666666666665</ele><time>2026-03-26T11:18:52.914Z</time></trkpt><trkpt lat="30.83777045970764" lon="-6.79364227473938"><ele>1194.3333333333333</ele><time>2026-03-26T11:18:53.914Z</time></trkpt><trkpt lat="30.837842065817355" lon="-6.793846495419546"><ele>1194.0</ele><time>2026-03-26T11:18:54.914Z</time></trkpt><trkpt lat="30.83791285505334" lon="-6.794048679243412"><ele>1194.0</ele><time>2026-03-26T11:18:55.914Z</time></trkpt><trkpt lat="30.837983758544205" lon="-6.794250104997417"><ele>1194.0</ele><time>2026-03-26T11:18:56.914Z</time></trkpt><trkpt lat="30.838054063129466" lon="-6.794449502133884"><ele>1194.0</ele><time>2026-03-26T11:18:57.914Z</time></trkpt><trkpt lat="30.838127958374354" lon="-6.794650125957774"><ele>1193.6666666666667</ele><time>2026-03-26T11:18:58.914Z</time></trkpt><trkpt lat="30.83819513944582" lon="-6.79484768013991"><ele>1193.3333333333335</ele><time>2026-03-26T11:18:59.914Z</time></trkpt><trkpt lat="30.83826787673131" lon="-6.795050047145228"><ele>1193.0</ele><time>2026-03-26T11:19:00.914Z</time></trkpt><trkpt lat="30.83833483167202" lon="-6.795248108879305"><ele>1193.0</ele><time>2026-03-26T11:19:01.914Z</time></trkpt><trkpt lat="30.838405369741455" lon="-6.7954481213655145"><ele>1193.0</ele><time>2026-03-26T11:19:02.914Z</time></trkpt><trkpt lat="30.83847490836746" lon="-6.795648370959783"><ele>1193.0</ele><time>2026-03-26T11:19:03.914Z</time></trkpt><trkpt lat="30.838546275267714" lon="-6.795846185176155"><ele>1192.3333333333335</ele><time>2026-03-26T11:19:04.914Z</time></trkpt><trkpt lat="30.838618522455114" lon="-6.796048536564659"><ele>1191.6666666666667</ele><time>2026-03-26T11:19:05.914Z</time></trkpt><trkpt lat="30.838689313602696" lon="-6.796250400896635"><ele>1191.0</ele><time>2026-03-26T11:19:06.914Z</time></trkpt><trkpt lat="30.838759804106683" lon="-6.796448915435223"><ele>1191.0</ele><time>2026-03-26T11:19:07.914Z</time></trkpt><trkpt lat="30.838831418773406" lon="-6.796651974456711"><ele>1191.0</ele><time>2026-03-26T11:19:08.914Z</time></trkpt><trkpt lat="30.838902411450047" lon="-6.796854602197908"><ele>1191.0</ele><time>2026-03-26T11:19:09.914Z</time></trkpt><trkpt lat="30.838972353764856" lon="-6.797051135728639"><ele>1190.6666666666667</ele><time>2026-03-26T11:19:10.914Z</time></trkpt><trkpt lat="30.839039846331787" lon="-6.797243260342385"><ele>1190.3333333333335</ele><time>2026-03-26T11:19:11.914Z</time></trkpt><trkpt lat="30.839100452614648" lon="-6.797420172130147"><ele>1190.0</ele><time>2026-03-26T11:19:12.913Z</time></trkpt><trkpt lat="30.839155128776234" lon="-6.797581842207247"><ele>1190.0</ele><time>2026-03-26T11:19:13.913Z</time></trkpt><trkpt lat="30.839209783220394" lon="-6.797735544911279"><ele>1190.0</ele><time>2026-03-26T11:19:14.913Z</time></trkpt><trkpt lat="30.839275670204998" lon="-6.797875368357281"><ele>1190.0</ele><time>2026-03-26T11:19:15.913Z</time></trkpt><trkpt lat="30.83932827151608" lon="-6.798023317725921"><ele>1190.0</ele><time>2026-03-26T11:19:16.913Z</time></trkpt><trkpt lat="30.839382681792376" lon="-6.798175774404814"><ele>1189.25</ele><time>2026-03-26T11:19:17.913Z</time></trkpt><trkpt lat="30.839436028713028" lon="-6.798324645343142"><ele>1188.5</ele><time>2026-03-26T11:19:18.913Z</time></trkpt><trkpt lat="30.839491890707848" lon="-6.7984821078731255"><ele>1187.75</ele><time>2026-03-26T11:19:19.913Z</time></trkpt><trkpt lat="30.839544947289067" lon="-6.798631662523054"><ele>1187.0</ele><time>2026-03-26T11:19:20.913Z</time></trkpt><trkpt lat="30.839594882217124" lon="-6.79877241798017"><ele>1187.0</ele><time>2026-03-26T11:19:21.913Z</time></trkpt><trkpt lat="30.839644497950154" lon="-6.798912122291307"><ele>1187.0</ele><time>2026-03-26T11:19:22.913Z</time></trkpt><trkpt lat="30.839691589017626" lon="-6.799044612040384"><ele>1187.0</ele><time>2026-03-26T11:19:23.913Z</time></trkpt><trkpt lat="30.839736513132" lon="-6.799171005059156"><ele>1187.0</ele><time>2026-03-26T11:19:24.913Z</time></trkpt><trkpt lat="30.83977997394492" lon="-6.799293281163944"><ele>1186.75</ele><time>2026-03-26T11:19:25.913Z</time></trkpt><trkpt lat="30.839825517494006" lon="-6.799421416971456"><ele>1186.5</ele><time>2026-03-26T11:19:26.913Z</time></trkpt><trkpt lat="30.839867835822684" lon="-6.799540407405525"><ele>1186.25</ele><time>2026-03-26T11:19:27.913Z</time></trkpt><trkpt lat="30.839908749863373" lon="-6.799655329551616"><ele>1186.0</ele><time>2026-03-26T11:19:28.913Z</time></trkpt><trkpt lat="30.83995186660662" lon="-6.799778565294304"><ele>1186.0</ele><time>2026-03-26T11:19:29.913Z</time></trkpt><trkpt lat="30.839993714682898" lon="-6.799900283504977"><ele>1186.0</ele><time>2026-03-26T11:19:30.913Z</time></trkpt><trkpt lat="30.840021361967302" lon="-6.800022576847448"><ele>1186.0</ele><time>2026-03-26T11:19:31.913Z</time></trkpt><trkpt lat="30.840067126072068" lon="-6.800129455781232"><ele>1186.0</ele><time>2026-03-26T11:19:32.913Z</time></trkpt><trkpt lat="30.840104574798527" lon="-6.800232228935085"><ele>1186.0</ele><time>2026-03-26T11:19:33.913Z</time></trkpt><trkpt lat="30.840138069484276" lon="-6.800333130520218"><ele>1186.0</ele><time>2026-03-26T11:19:34.913Z</time></trkpt><trkpt lat="30.84017274038885" lon="-6.800432603570687"><ele>1186.0</ele><time>2026-03-26T11:19:35.913Z</time></trkpt><trkpt lat="30.840202409431964" lon="-6.800528572277079"><ele>1186.0</ele><time>2026-03-26T11:19:36.913Z</time></trkpt><trkpt lat="30.84023515732937" lon="-6.800601476814264"><ele>1186.0</ele><time>2026-03-26T11:19:37.913Z</time></trkpt><trkpt lat="30.84026869394583" lon="-6.800697595996415"><ele>1186.0</ele><time>2026-03-26T11:19:39.913Z</time></trkpt><trkpt lat="30.84011394042327" lon="-6.800832043363639"><ele>1186.0</ele><time>2026-03-26T11:19:42.913Z</time></trkpt><trkpt lat="30.840000395787357" lon="-6.800894198581707"><ele>1186.0</ele><time>2026-03-26T11:19:44.913Z</time></trkpt><trkpt lat="30.83993666177259" lon="-6.800914341874532"><ele>1186.0</ele><time>2026-03-26T11:19:45.913Z</time></trkpt><trkpt lat="30.83988099838625" lon="-6.800948620169315"><ele>1186.0</ele><time>2026-03-26T11:19:46.913Z</time></trkpt><trkpt lat="30.839799844867677" lon="-6.800998595638529"><ele>1186.0</ele><time>2026-03-26T11:19:47.913Z</time></trkpt><trkpt lat="30.839719350187867" lon="-6.8010414744047685"><ele>1186.0</ele><time>2026-03-26T11:19:48.913Z</time></trkpt><trkpt lat="30.839627888957168" lon="-6.80109291655355"><ele>1186.0</ele><time>2026-03-26T11:19:49.913Z</time></trkpt><trkpt lat="30.839539254040528" lon="-6.801175229325748"><ele>1186.0</ele><time>2026-03-26T11:19:50.913Z</time></trkpt><trkpt lat="30.839428201551748" lon="-6.801248122571367"><ele>1186.0</ele><time>2026-03-26T11:19:51.913Z</time></trkpt><trkpt lat="30.839317909331488" lon="-6.8012793486857674"><ele>1186.0</ele><time>2026-03-26T11:19:52.913Z</time></trkpt><trkpt lat="30.83920720163574" lon="-6.8013104198353265"><ele>1186.0</ele><time>2026-03-26T11:19:53.913Z</time></trkpt><trkpt lat="30.83908960650414" lon="-6.801337682871162"><ele>1186.0</ele><time>2026-03-26T11:19:54.913Z</time></trkpt><trkpt lat="30.838963403046467" lon="-6.801370765557642"><ele>1186.0</ele><time>2026-03-26T11:19:55.913Z</time></trkpt><trkpt lat="30.83883657253799" lon="-6.801400953493617"><ele>1186.0</ele><time>2026-03-26T11:19:56.913Z</time></trkpt><trkpt lat="30.838704864314412" lon="-6.801430679349475"><ele>1186.0</ele><time>2026-03-26T11:19:57.913Z</time></trkpt><trkpt lat="30.83856353749547" lon="-6.80144373089254"><ele>1186.0</ele><time>2026-03-26T11:19:58.913Z</time></trkpt><trkpt lat="30.838417616370155" lon="-6.80145720672565"><ele>1186.0</ele><time>2026-03-26T11:19:59.913Z</time></trkpt><trkpt lat="30.838249633843184" lon="-6.801470151989699"><ele>1187.0</ele><time>2026-03-26T11:20:00.913Z</time></trkpt><trkpt lat="30.838131399843988" lon="-6.801512866091955"><ele>1188.0</ele><time>2026-03-26T11:20:01.913Z</time></trkpt><trkpt lat="30.83801479536358" lon="-6.801554991548549"><ele>1189.0</ele><time>2026-03-26T11:20:02.913Z</time></trkpt><trkpt lat="30.837872823016216" lon="-6.801666384489956"><ele>1190.0</ele><time>2026-03-26T11:20:03.913Z</time></trkpt><trkpt lat="30.837771294369347" lon="-6.801746256670666"><ele>1190.0</ele><time>2026-03-26T11:20:04.913Z</time></trkpt><trkpt lat="30.83770700485664" lon="-6.80175800160657"><ele>1190.0</ele><time>2026-03-26T11:20:05.913Z</time></trkpt><trkpt lat="30.83761882148147" lon="-6.801766846335324"><ele>1190.0</ele><time>2026-03-26T11:20:06.913Z</time></trkpt><trkpt lat="30.837551955822384" lon="-6.8017735528456305"><ele>1190.0</ele><time>2026-03-26T11:20:07.913Z</time></trkpt><trkpt lat="30.837508921326783" lon="-6.801719305727798"><ele>1190.0</ele><time>2026-03-26T11:20:09.913Z</time></trkpt><trkpt lat="30.83741872257751" lon="-6.801681634233355"><ele>1190.0</ele><time>2026-03-26T11:20:10.913Z</time></trkpt><trkpt lat="30.837330046991788" lon="-6.801644599258361"><ele>1190.2</ele><time>2026-03-26T11:20:11.913Z</time></trkpt><trkpt lat="30.83724802769288" lon="-6.801729681837927"><ele>1190.4</ele><time>2026-03-26T11:20:12.913Z</time></trkpt><trkpt lat="30.837183292197846" lon="-6.801754786300715"><ele>1190.6</ele><time>2026-03-26T11:20:13.912Z</time></trkpt><trkpt lat="30.837098027809006" lon="-6.801788456645737"><ele>1190.8</ele><time>2026-03-26T11:20:14.912Z</time></trkpt><trkpt lat="30.837022998433625" lon="-6.80190100854547"><ele>1191.0</ele><time>2026-03-26T11:20:15.912Z</time></trkpt><trkpt lat="30.836931950352973" lon="-6.801951445822643"><ele>1191.0</ele><time>2026-03-26T11:20:16.913Z</time></trkpt><trkpt lat="30.836845257284303" lon="-6.8020002041810255"><ele>1191.0</ele><time>2026-03-26T11:20:17.913Z</time></trkpt><trkpt lat="30.83673804427411" lon="-6.802001886365537"><ele>1191.0</ele><time>2026-03-26T11:20:18.913Z</time></trkpt><trkpt lat="30.83665364771409" lon="-6.802071572578542"><ele>1191.0</ele><time>2026-03-26T11:20:19.912Z</time></trkpt><trkpt lat="30.836576162257842" lon="-6.8021294714272225"><ele>1191.0</ele><time>2026-03-26T11:20:20.912Z</time></trkpt><trkpt lat="30.836500178173672" lon="-6.802190505166156"><ele>1191.3999999999999</ele><time>2026-03-26T11:20:21.912Z</time></trkpt><trkpt lat="30.836436446742862" lon="-6.802263620210978"><ele>1191.8</ele><time>2026-03-26T11:20:22.912Z</time></trkpt><trkpt lat="30.83635261978531" lon="-6.802347960318624"><ele>1192.1999999999998</ele><time>2026-03-26T11:20:23.912Z</time></trkpt><trkpt lat="30.836254584301482" lon="-6.802434611044311"><ele>1192.6</ele><time>2026-03-26T11:20:24.913Z</time></trkpt><trkpt lat="30.83618726822525" lon="-6.80250346032723"><ele>1193.0</ele><time>2026-03-26T11:20:25.912Z</time></trkpt><trkpt lat="30.83612800964564" lon="-6.802555880191244"><ele>1193.0</ele><time>2026-03-26T11:20:26.912Z</time></trkpt><trkpt lat="30.836075140842116" lon="-6.802595990933508"><ele>1193.0</ele><time>2026-03-26T11:20:27.912Z</time></trkpt><trkpt lat="30.836005272762048" lon="-6.802642971283691"><ele>1193.0</ele><time>2026-03-26T11:20:28.912Z</time></trkpt><trkpt lat="30.835929563247152" lon="-6.802691431121357"><ele>1193.0</ele><time>2026-03-26T11:20:29.912Z</time></trkpt><trkpt lat="30.835853546827995" lon="-6.802731823239602"><ele>1193.0</ele><time>2026-03-26T11:20:30.912Z</time></trkpt><trkpt lat="30.835765241435773" lon="-6.802764667558836"><ele>1193.0</ele><time>2026-03-26T11:20:31.912Z</time></trkpt><trkpt lat="30.83567291653909" lon="-6.802789835281886"><ele>1193.0</ele><time>2026-03-26T11:20:32.912Z</time></trkpt><trkpt lat="30.835574768523703" lon="-6.8028030868668985"><ele>1193.0</ele><time>2026-03-26T11:20:33.912Z</time></trkpt><trkpt lat="30.835479840273496" lon="-6.802802512697653"><ele>1193.0</ele><time>2026-03-26T11:20:34.912Z</time></trkpt><trkpt lat="30.835380115183735" lon="-6.802790286896534"><ele>1193.0</ele><time>2026-03-26T11:20:35.912Z</time></trkpt><trkpt lat="30.835270393459787" lon="-6.8027398757914765"><ele>1193.0</ele><time>2026-03-26T11:20:36.912Z</time></trkpt><trkpt lat="30.835148212114536" lon="-6.802673327919921"><ele>1194.2</ele><time>2026-03-26T11:20:37.912Z</time></trkpt><trkpt lat="30.835040088414246" lon="-6.802607541943648"><ele>1195.4</ele><time>2026-03-26T11:20:38.912Z</time></trkpt><trkpt lat="30.834949718953794" lon="-6.8025466046926955"><ele>1196.6000000000001</ele><time>2026-03-26T11:20:39.912Z</time></trkpt><trkpt lat="30.83485138807606" lon="-6.8024946879075285"><ele>1197.8</ele><time>2026-03-26T11:20:40.912Z</time></trkpt><trkpt lat="30.834762262478115" lon="-6.802439125560073"><ele>1199.0</ele><time>2026-03-26T11:20:41.912Z</time></trkpt><trkpt lat="30.834687929817946" lon="-6.802376343137907"><ele>1199.0</ele><time>2026-03-26T11:20:42.912Z</time></trkpt><trkpt lat="30.834614986811143" lon="-6.802324383316446"><ele>1199.0</ele><time>2026-03-26T11:20:43.912Z</time></trkpt><trkpt lat="30.834519914785265" lon="-6.802313616363172"><ele>1199.0</ele><time>2026-03-26T11:20:44.912Z</time></trkpt><trkpt lat="30.834420818408656" lon="-6.802303214522744"><ele>1199.0</ele><time>2026-03-26T11:20:45.912Z</time></trkpt><trkpt lat="30.83431717886434" lon="-6.802305826716914"><ele>1199.0</ele><time>2026-03-26T11:20:46.912Z</time></trkpt><trkpt lat="30.8342045273305" lon="-6.802316697454228"><ele>1198.6666666666667</ele><time>2026-03-26T11:20:47.912Z</time></trkpt><trkpt lat="30.834099076687796" lon="-6.802322897035978"><ele>1198.3333333333335</ele><time>2026-03-26T11:20:48.912Z</time></trkpt><trkpt lat="30.834006691129115" lon="-6.802304526927481"><ele>1198.0</ele><time>2026-03-26T11:20:49.912Z</time></trkpt><trkpt lat="30.833940306071785" lon="-6.8023013577707445"><ele>1197.6666666666667</ele><time>2026-03-26T11:20:50.912Z</time></trkpt><trkpt lat="30.833866273439725" lon="-6.802281873956466"><ele>1197.3333333333333</ele><time>2026-03-26T11:20:52.912Z</time></trkpt><trkpt lat="30.833768741543" lon="-6.802262805058511"><ele>1197.0</ele><time>2026-03-26T11:20:54.912Z</time></trkpt><trkpt lat="30.83366183566014" lon="-6.802301455929129"><ele>1197.0</ele><time>2026-03-26T11:20:56.912Z</time></trkpt><trkpt lat="30.83359897792004" lon="-6.802351935137801"><ele>1197.0</ele><time>2026-03-26T11:20:57.912Z</time></trkpt><trkpt lat="30.833494248664483" lon="-6.802380406314023"><ele>1197.0</ele><time>2026-03-26T11:20:58.912Z</time></trkpt><trkpt lat="30.833362108856065" lon="-6.802350963945446"><ele>1197.0</ele><time>2026-03-26T11:20:59.912Z</time></trkpt><trkpt lat="30.833243417049076" lon="-6.802320052314062"><ele>1197.0</ele><time>2026-03-26T11:21:00.912Z</time></trkpt><trkpt lat="30.83315944236065" lon="-6.802289280306412"><ele>1197.4</ele><time>2026-03-26T11:21:01.912Z</time></trkpt><trkpt lat="30.83307102494838" lon="-6.8022734309658865"><ele>1197.8000000000002</ele><time>2026-03-26T11:21:02.912Z</time></trkpt><trkpt lat="30.83298057047487" lon="-6.80225623184797"><ele>1198.2</ele><time>2026-03-26T11:21:03.912Z</time></trkpt><trkpt lat="30.83287054920556" lon="-6.802242613276664"><ele>1198.6000000000001</ele><time>2026-03-26T11:21:04.912Z</time></trkpt><trkpt lat="30.832757561091654" lon="-6.802259067102592"><ele>1199.0</ele><time>2026-03-26T11:21:05.912Z</time></trkpt><trkpt lat="30.832655190871467" lon="-6.802288448279619"><ele>1199.2</ele><time>2026-03-26T11:21:06.912Z</time></trkpt><trkpt lat="30.83253907086901" lon="-6.802294381901879"><ele>1199.4</ele><time>2026-03-26T11:21:07.912Z</time></trkpt><trkpt lat="30.832429775493562" lon="-6.802303086844167"><ele>1199.6</ele><time>2026-03-26T11:21:08.912Z</time></trkpt><trkpt lat="30.832331813272823" lon="-6.802315399195632"><ele>1199.8</ele><time>2026-03-26T11:21:09.912Z</time></trkpt><trkpt lat="30.832227942190812" lon="-6.8023163305595"><ele>1200.0</ele><time>2026-03-26T11:21:10.912Z</time></trkpt><trkpt lat="30.83212742326543" lon="-6.80233670081073"><ele>1200.0</ele><time>2026-03-26T11:21:11.912Z</time></trkpt><trkpt lat="30.832021447538093" lon="-6.802366312295518"><ele>1200.0</ele><time>2026-03-26T11:21:12.912Z</time></trkpt><trkpt lat="30.831917543120603" lon="-6.802409432813471"><ele>1200.0</ele><time>2026-03-26T11:21:13.912Z</time></trkpt><trkpt lat="30.831817512231545" lon="-6.802454819170039"><ele>1200.0</ele><time>2026-03-26T11:21:14.912Z</time></trkpt><trkpt lat="30.831728207870892" lon="-6.802512376951631"><ele>1200.0</ele><time>2026-03-26T11:21:15.912Z</time></trkpt><trkpt lat="30.831621932259342" lon="-6.80258554866854"><ele>1199.5</ele><time>2026-03-26T11:21:16.912Z</time></trkpt><trkpt lat="30.83152786987118" lon="-6.802662572787594"><ele>1199.0</ele><time>2026-03-26T11:21:17.912Z</time></trkpt><trkpt lat="30.831421082896203" lon="-6.802752708678777"><ele>1198.5</ele><time>2026-03-26T11:21:18.912Z</time></trkpt><trkpt lat="30.83132362119077" lon="-6.8028489219557855"><ele>1198.0</ele><time>2026-03-26T11:21:19.912Z</time></trkpt><trkpt lat="30.83123841155611" lon="-6.802938956118133"><ele>1197.6</ele><time>2026-03-26T11:21:20.912Z</time></trkpt><trkpt lat="30.83115996706777" lon="-6.803029122727481"><ele>1197.1999999999998</ele><time>2026-03-26T11:21:21.912Z</time></trkpt><trkpt lat="30.831086408397116" lon="-6.803125600699505"><ele>1196.8</ele><time>2026-03-26T11:21:22.912Z</time></trkpt><trkpt lat="30.831020918556586" lon="-6.803216445601389"><ele>1196.3999999999999</ele><time>2026-03-26T11:21:23.912Z</time></trkpt><trkpt lat="30.830938054292993" lon="-6.803281628316465"><ele>1196.0</ele><time>2026-03-26T11:21:24.912Z</time></trkpt><trkpt lat="30.83085655728268" lon="-6.803366043150117"><ele>1196.0</ele><time>2026-03-26T11:21:25.912Z</time></trkpt><trkpt lat="30.830773111998187" lon="-6.803452643161138"><ele>1196.0</ele><time>2026-03-26T11:21:26.912Z</time></trkpt><trkpt lat="30.830703296259237" lon="-6.803534573649201"><ele>1196.0</ele><time>2026-03-26T11:21:27.912Z</time></trkpt><trkpt lat="30.83063916549121" lon="-6.803616219503872"><ele>1196.0</ele><time>2026-03-26T11:21:28.912Z</time></trkpt><trkpt lat="30.83057477484685" lon="-6.803689209198301"><ele>1196.0</ele><time>2026-03-26T11:21:29.912Z</time></trkpt><trkpt lat="30.830507934631402" lon="-6.803792882199411"><ele>1196.25</ele><time>2026-03-26T11:21:30.912Z</time></trkpt><trkpt lat="30.830444022758073" lon="-6.803896105604358"><ele>1196.5</ele><time>2026-03-26T11:21:31.912Z</time></trkpt><trkpt lat="30.830387901628082" lon="-6.804014063608555"><ele>1196.75</ele><time>2026-03-26T11:21:32.912Z</time></trkpt><trkpt lat="30.830350141687536" lon="-6.80414865000498"><ele>1197.0</ele><time>2026-03-26T11:21:33.912Z</time></trkpt><trkpt lat="30.83030818477957" lon="-6.804294043579299"><ele>1198.0</ele><time>2026-03-26T11:21:34.912Z</time></trkpt><trkpt lat="30.830257364377005" lon="-6.804430041405841"><ele>1199.0</ele><time>2026-03-26T11:21:35.912Z</time></trkpt><trkpt lat="30.830197915013713" lon="-6.804556013959317"><ele>1200.0</ele><time>2026-03-26T11:21:36.912Z</time></trkpt><trkpt lat="30.830134908628263" lon="-6.804672816911802"><ele>1201.0</ele><time>2026-03-26T11:21:37.912Z</time></trkpt><trkpt lat="30.83007082092639" lon="-6.804775728739405"><ele>1199.3999999999999</ele><time>2026-03-26T11:21:38.912Z</time></trkpt><trkpt lat="30.830006331365976" lon="-6.804878486418106"><ele>1197.8</ele><time>2026-03-26T11:21:39.912Z</time></trkpt><trkpt lat="30.82995370226437" lon="-6.804984860109013"><ele>1196.1999999999998</ele><time>2026-03-26T11:21:40.912Z</time></trkpt><trkpt lat="30.82991969071376" lon="-6.805109539426069"><ele>1194.6</ele><time>2026-03-26T11:21:41.912Z</time></trkpt><trkpt lat="30.82989130223358" lon="-6.805223233819998"><ele>1193.0</ele><time>2026-03-26T11:21:42.912Z</time></trkpt><trkpt lat="30.82986764863302" lon="-6.805329306005095"><ele>1192.6</ele><time>2026-03-26T11:21:43.912Z</time></trkpt><trkpt lat="30.829843231611935" lon="-6.805416773690228"><ele>1192.1999999999998</ele><time>2026-03-26T11:21:44.912Z</time></trkpt><trkpt lat="30.829795361273245" lon="-6.805498166014185"><ele>1191.8</ele><time>2026-03-26T11:21:45.912Z</time></trkpt><trkpt lat="30.82974080798065" lon="-6.805605718918322"><ele>1191.3999999999999</ele><time>2026-03-26T11:21:46.912Z</time></trkpt><trkpt lat="30.829690548158815" lon="-6.805725334027726"><ele>1191.0</ele><time>2026-03-26T11:21:47.912Z</time></trkpt><trkpt lat="30.829651138655503" lon="-6.805841708042335"><ele>1191.0</ele><time>2026-03-26T11:21:48.912Z</time></trkpt><trkpt lat="30.829605585678667" lon="-6.805975160065682"><ele>1191.0</ele><time>2026-03-26T11:21:49.912Z</time></trkpt><trkpt lat="30.829566057996306" lon="-6.8061018685175405"><ele>1191.0</ele><time>2026-03-26T11:21:50.912Z</time></trkpt><trkpt lat="30.82952693316699" lon="-6.80621809068936"><ele>1191.0</ele><time>2026-03-26T11:21:51.912Z</time></trkpt><trkpt lat="30.829482370794285" lon="-6.806327958355257"><ele>1191.0</ele><time>2026-03-26T11:21:52.912Z</time></trkpt><trkpt lat="30.829422930143487" lon="-6.806438766277336"><ele>1191.0</ele><time>2026-03-26T11:21:53.912Z</time></trkpt><trkpt lat="30.82935752148188" lon="-6.806556107808759"><ele>1191.0</ele><time>2026-03-26T11:21:54.912Z</time></trkpt><trkpt lat="30.829289265304215" lon="-6.806674678174066"><ele>1191.0</ele><time>2026-03-26T11:21:55.912Z</time></trkpt><trkpt lat="30.8292218263144" lon="-6.8067834406449705"><ele>1191.0</ele><time>2026-03-26T11:21:56.912Z</time></trkpt><trkpt lat="30.829151936592158" lon="-6.806894010142527"><ele>1191.0</ele><time>2026-03-26T11:21:57.912Z</time></trkpt><trkpt lat="30.82908209626207" lon="-6.807003217753697"><ele>1191.0</ele><time>2026-03-26T11:21:58.912Z</time></trkpt><trkpt lat="30.829019570113918" lon="-6.8070891943246075"><ele>1191.0</ele><time>2026-03-26T11:21:59.912Z</time></trkpt><trkpt lat="30.828965684333458" lon="-6.807163617271011"><ele>1191.0</ele><time>2026-03-26T11:22:00.912Z</time></trkpt><trkpt lat="30.82892866547198" lon="-6.807248190192828"><ele>1191.0</ele><time>2026-03-26T11:22:01.912Z</time></trkpt><trkpt lat="30.82889671326227" lon="-6.807356352463228"><ele>1191.0</ele><time>2026-03-26T11:22:02.912Z</time></trkpt><trkpt lat="30.828869995648944" lon="-6.807442265306599"><ele>1191.0</ele><time>2026-03-26T11:22:03.912Z</time></trkpt><trkpt lat="30.828827896714973" lon="-6.807504136354705"><ele>1191.0</ele><time>2026-03-26T11:22:04.912Z</time></trkpt><trkpt lat="30.82877467600991" lon="-6.807572402061409"><ele>1191.0</ele><time>2026-03-26T11:22:05.912Z</time></trkpt><trkpt lat="30.828719834418415" lon="-6.807644561738499"><ele>1191.0</ele><time>2026-03-26T11:22:06.912Z</time></trkpt><trkpt lat="30.82867069227072" lon="-6.807709733752289"><ele>1191.2</ele><time>2026-03-26T11:22:07.912Z</time></trkpt><trkpt lat="30.8286275557111" lon="-6.807766621771177"><ele>1191.3999999999999</ele><time>2026-03-26T11:22:08.912Z</time></trkpt><trkpt lat="30.82856064799204" lon="-6.807856369547119"><ele>1191.6</ele><time>2026-03-26T11:22:10.912Z</time></trkpt><trkpt lat="30.828505910968047" lon="-6.807933047770333"><ele>1191.8</ele><time>2026-03-26T11:22:12.912Z</time></trkpt><trkpt lat="30.82843929924608" lon="-6.80802866953193"><ele>1192.0</ele><time>2026-03-26T11:22:14.911Z</time></trkpt><trkpt lat="30.82837245048903" lon="-6.8081416848922345"><ele>1192.5714285714284</ele><time>2026-03-26T11:22:16.911Z</time></trkpt><trkpt lat="30.828337977747985" lon="-6.808211601440164"><ele>1193.142857142857</ele><time>2026-03-26T11:22:17.911Z</time></trkpt><trkpt lat="30.828302179792228" lon="-6.808278291527457"><ele>1193.7142857142858</ele><time>2026-03-26T11:22:18.912Z</time></trkpt><trkpt lat="30.828265138429877" lon="-6.808346243031737"><ele>1194.2857142857142</ele><time>2026-03-26T11:22:19.912Z</time></trkpt><trkpt lat="30.828226508074245" lon="-6.808410579931928"><ele>1194.857142857143</ele><time>2026-03-26T11:22:20.912Z</time></trkpt><trkpt lat="30.828186990658434" lon="-6.808485201633818"><ele>1195.4285714285713</ele><time>2026-03-26T11:22:21.911Z</time></trkpt><trkpt lat="30.828144863199405" lon="-6.808552025420272"><ele>1196.0</ele><time>2026-03-26T11:22:22.912Z</time></trkpt><trkpt lat="30.828099149062712" lon="-6.808623763309832"><ele>1196.3999999999999</ele><time>2026-03-26T11:22:23.912Z</time></trkpt><trkpt lat="30.82805003779171" lon="-6.808706905170871"><ele>1196.8</ele><time>2026-03-26T11:22:24.912Z</time></trkpt><trkpt lat="30.827985109493223" lon="-6.808791238343571"><ele>1197.1999999999998</ele><time>2026-03-26T11:22:25.911Z</time></trkpt><trkpt lat="30.827896196993517" lon="-6.808905767872662"><ele>1197.6</ele><time>2026-03-26T11:22:26.911Z</time></trkpt><trkpt lat="30.827803879453196" lon="-6.8090050683398715"><ele>1198.0</ele><time>2026-03-26T11:22:27.911Z</time></trkpt><trkpt lat="30.82773895283765" lon="-6.809073267585303"><ele>1198.0</ele><time>2026-03-26T11:22:28.912Z</time></trkpt><trkpt lat="30.827684358785696" lon="-6.809127606527167"><ele>1198.0</ele><time>2026-03-26T11:22:29.912Z</time></trkpt><trkpt lat="30.827621795453396" lon="-6.809186785979743"><ele>1198.0</ele><time>2026-03-26T11:22:30.912Z</time></trkpt><trkpt lat="30.827557286755738" lon="-6.809255657924047"><ele>1198.0</ele><time>2026-03-26T11:22:31.911Z</time></trkpt><trkpt lat="30.827487234801392" lon="-6.8093118329348865"><ele>1198.0</ele><time>2026-03-26T11:22:32.911Z</time></trkpt><trkpt lat="30.82741461967928" lon="-6.809374243626927"><ele>1198.0</ele><time>2026-03-26T11:22:33.911Z</time></trkpt><trkpt lat="30.827354342755452" lon="-6.80943848806571"><ele>1197.5</ele><time>2026-03-26T11:22:34.911Z</time></trkpt><trkpt lat="30.827297027934375" lon="-6.809513803735679"><ele>1197.0</ele><time>2026-03-26T11:22:35.911Z</time></trkpt><trkpt lat="30.82723807090122" lon="-6.809591418840445"><ele>1196.5</ele><time>2026-03-26T11:22:36.911Z</time></trkpt><trkpt lat="30.827174937489293" lon="-6.809667848450548"><ele>1196.0</ele><time>2026-03-26T11:22:37.911Z</time></trkpt><trkpt lat="30.827107798389054" lon="-6.8097366046376715"><ele>1195.5</ele><time>2026-03-26T11:22:38.911Z</time></trkpt><trkpt lat="30.8270400217103" lon="-6.809797363096007"><ele>1195.0</ele><time>2026-03-26T11:22:39.911Z</time></trkpt><trkpt lat="30.826954038096506" lon="-6.809890956986916"><ele>1195.0</ele><time>2026-03-26T11:22:40.911Z</time></trkpt><trkpt lat="30.826877466523527" lon="-6.8099905712046445"><ele>1195.0</ele><time>2026-03-26T11:22:41.911Z</time></trkpt><trkpt lat="30.8268042690689" lon="-6.810057862324248"><ele>1195.0</ele><time>2026-03-26T11:22:42.911Z</time></trkpt><trkpt lat="30.826733402615442" lon="-6.810117997136004"><ele>1195.0</ele><time>2026-03-26T11:22:43.911Z</time></trkpt><trkpt lat="30.826655295453858" lon="-6.8101844256792905"><ele>1195.0</ele><time>2026-03-26T11:22:44.911Z</time></trkpt><trkpt lat="30.82657286600035" lon="-6.8102609607110285"><ele>1194.6</ele><time>2026-03-26T11:22:45.911Z</time></trkpt><trkpt lat="30.82649477325332" lon="-6.8103315300218386"><ele>1194.2</ele><time>2026-03-26T11:22:46.911Z</time></trkpt><trkpt lat="30.826415293070855" lon="-6.810389122494764"><ele>1193.8</ele><time>2026-03-26T11:22:47.911Z</time></trkpt><trkpt lat="30.82633563994572" lon="-6.810439881957168"><ele>1193.4</ele><time>2026-03-26T11:22:48.911Z</time></trkpt><trkpt lat="30.826252690524505" lon="-6.810494946709621"><ele>1193.0</ele><time>2026-03-26T11:22:49.911Z</time></trkpt><trkpt lat="30.82617035532586" lon="-6.81056284185465"><ele>1193.0</ele><time>2026-03-26T11:22:50.911Z</time></trkpt><trkpt lat="30.82610705200713" lon="-6.81064547666887"><ele>1193.0</ele><time>2026-03-26T11:22:51.911Z</time></trkpt><trkpt lat="30.82605555709207" lon="-6.810721419786446"><ele>1193.0</ele><time>2026-03-26T11:22:52.911Z</time></trkpt><trkpt lat="30.82599601663855" lon="-6.8108052132129675"><ele>1193.0</ele><time>2026-03-26T11:22:53.911Z</time></trkpt><trkpt lat="30.825940880315038" lon="-6.8108556026237475"><ele>1193.0</ele><time>2026-03-26T11:22:54.911Z</time></trkpt><trkpt lat="30.825903854981792" lon="-6.810959198199031"><ele>1193.0</ele><time>2026-03-26T11:22:56.911Z</time></trkpt><trkpt lat="30.82592622098621" lon="-6.811050564883562"><ele>1193.1666666666667</ele><time>2026-03-26T11:22:57.911Z</time></trkpt><trkpt lat="30.825961266494733" lon="-6.811130480519105"><ele>1193.3333333333335</ele><time>2026-03-26T11:22:58.911Z</time></trkpt><trkpt lat="30.82596732578747" lon="-6.811214591036012"><ele>1193.5</ele><time>2026-03-26T11:22:59.911Z</time></trkpt><trkpt lat="30.825920966496497" lon="-6.811276029796721"><ele>1193.6666666666667</ele><time>2026-03-26T11:23:00.911Z</time></trkpt><trkpt lat="30.82581742914042" lon="-6.811335154150056"><ele>1193.8333333333333</ele><time>2026-03-26T11:23:02.911Z</time></trkpt><trkpt lat="30.825735694490973" lon="-6.811318781747823"><ele>1194.0</ele><time>2026-03-26T11:23:03.911Z</time></trkpt><trkpt lat="30.825640366048507" lon="-6.811288517022261"><ele>1194.0</ele><time>2026-03-26T11:23:04.911Z</time></trkpt><trkpt lat="30.82554973569208" lon="-6.811274696898758"><ele>1194.0</ele><time>2026-03-26T11:23:05.911Z</time></trkpt><trkpt lat="30.825480454194672" lon="-6.8112802785048165"><ele>1194.0</ele><time>2026-03-26T11:23:06.911Z</time></trkpt><trkpt lat="30.825412833039277" lon="-6.811312278054139"><ele>1194.0</ele><time>2026-03-26T11:23:07.911Z</time></trkpt><trkpt lat="30.825340213871932" lon="-6.811345534576414"><ele>1194.0</ele><time>2026-03-26T11:23:08.911Z</time></trkpt><trkpt lat="30.82526108565891" lon="-6.811410572561443"><ele>1194.0</ele><time>2026-03-26T11:23:09.911Z</time></trkpt><trkpt lat="30.82518662226118" lon="-6.811492541184234"><ele>1194.4</ele><time>2026-03-26T11:23:10.911Z</time></trkpt><trkpt lat="30.825115352519138" lon="-6.811571113433805"><ele>1194.8000000000002</ele><time>2026-03-26T11:23:11.911Z</time></trkpt><trkpt lat="30.82503050797429" lon="-6.811643888569041"><ele>1195.1999999999998</ele><time>2026-03-26T11:23:12.911Z</time></trkpt><trkpt lat="30.824939733922353" lon="-6.811718855788189"><ele>1195.6</ele><time>2026-03-26T11:23:13.911Z</time></trkpt><trkpt lat="30.824853565515983" lon="-6.811792041660485"><ele>1196.0</ele><time>2026-03-26T11:23:14.911Z</time></trkpt><trkpt lat="30.824768898586562" lon="-6.811861495222882"><ele>1196.3999999999999</ele><time>2026-03-26T11:23:15.911Z</time></trkpt><trkpt lat="30.8246835279807" lon="-6.811934521631838"><ele>1196.8</ele><time>2026-03-26T11:23:16.911Z</time></trkpt><trkpt lat="30.824598114219402" lon="-6.812005498433085"><ele>1197.1999999999998</ele><time>2026-03-26T11:23:17.911Z</time></trkpt><trkpt lat="30.82451283964108" lon="-6.8120680604065935"><ele>1197.6</ele><time>2026-03-26T11:23:18.911Z</time></trkpt><trkpt lat="30.824429455194796" lon="-6.81212859126288"><ele>1198.0</ele><time>2026-03-26T11:23:19.911Z</time></trkpt><trkpt lat="30.824349745005087" lon="-6.812184866006884"><ele>1198.2</ele><time>2026-03-26T11:23:20.911Z</time></trkpt><trkpt lat="30.824273057699152" lon="-6.812240327141768"><ele>1198.4</ele><time>2026-03-26T11:23:21.911Z</time></trkpt><trkpt lat="30.824193219040843" lon="-6.812304629118567"><ele>1198.6000000000001</ele><time>2026-03-26T11:23:22.911Z</time></trkpt><trkpt lat="30.824114670943683" lon="-6.812377050690477"><ele>1198.8</ele><time>2026-03-26T11:23:23.911Z</time></trkpt><trkpt lat="30.82404374315506" lon="-6.812463903427336"><ele>1199.0</ele><time>2026-03-26T11:23:24.911Z</time></trkpt><trkpt lat="30.823973366634657" lon="-6.812559482240815"><ele>1199.0</ele><time>2026-03-26T11:23:25.911Z</time></trkpt><trkpt lat="30.82390710156029" lon="-6.8126500093903575"><ele>1199.0</ele><time>2026-03-26T11:23:26.911Z</time></trkpt><trkpt lat="30.823834303949408" lon="-6.812738580631133"><ele>1199.0</ele><time>2026-03-26T11:23:27.911Z</time></trkpt><trkpt lat="30.823747189451417" lon="-6.812831570326054"><ele>1199.0</ele><time>2026-03-26T11:23:28.911Z</time></trkpt><trkpt lat="30.82364331033191" lon="-6.8129286418970025"><ele>1198.75</ele><time>2026-03-26T11:23:29.911Z</time></trkpt><trkpt lat="30.82352650255654" lon="-6.813044813693288"><ele>1198.5</ele><time>2026-03-26T11:23:30.911Z</time></trkpt><trkpt lat="30.823426567519306" lon="-6.813143153030076"><ele>1198.25</ele><time>2026-03-26T11:23:31.911Z</time></trkpt><trkpt lat="30.823345804544633" lon="-6.813229530519893"><ele>1198.0</ele><time>2026-03-26T11:23:32.911Z</time></trkpt><trkpt lat="30.82327166998196" lon="-6.8133204435656465"><ele>1198.4</ele><time>2026-03-26T11:23:33.911Z</time></trkpt><trkpt lat="30.823192607551277" lon="-6.813410807533988"><ele>1198.8</ele><time>2026-03-26T11:23:34.911Z</time></trkpt><trkpt lat="30.823118626985625" lon="-6.813490245018459"><ele>1199.2</ele><time>2026-03-26T11:23:35.911Z</time></trkpt><trkpt lat="30.82304341566645" lon="-6.813565835867416"><ele>1199.6</ele><time>2026-03-26T11:23:36.911Z</time></trkpt><trkpt lat="30.822977932988753" lon="-6.8136350680855164"><ele>1200.0</ele><time>2026-03-26T11:23:37.911Z</time></trkpt><trkpt lat="30.822920954801354" lon="-6.813706672451481"><ele>1200.2</ele><time>2026-03-26T11:23:38.911Z</time></trkpt><trkpt lat="30.8228669137462" lon="-6.813784879954426"><ele>1200.4</ele><time>2026-03-26T11:23:39.911Z</time></trkpt><trkpt lat="30.82281536003599" lon="-6.813862167255878"><ele>1200.6</ele><time>2026-03-26T11:23:40.911Z</time></trkpt><trkpt lat="30.82276993846709" lon="-6.813928628369597"><ele>1200.8</ele><time>2026-03-26T11:23:41.911Z</time></trkpt><trkpt lat="30.82270597971669" lon="-6.81403598098"><ele>1201.0</ele><time>2026-03-26T11:23:43.911Z</time></trkpt><trkpt lat="30.822645058260573" lon="-6.814152258117273"><ele>1201.3333333333333</ele><time>2026-03-26T11:23:45.911Z</time></trkpt><trkpt lat="30.82260871522099" lon="-6.8142140876249275"><ele>1201.6666666666665</ele><time>2026-03-26T11:23:46.911Z</time></trkpt><trkpt lat="30.82254850656231" lon="-6.8142962069874216"><ele>1202.0</ele><time>2026-03-26T11:23:48.911Z</time></trkpt><trkpt lat="30.82249776085843" lon="-6.814354245116405"><ele>1202.3333333333333</ele><time>2026-03-26T11:24:02.911Z</time></trkpt><trkpt lat="30.822435002140253" lon="-6.8144108241770684"><ele>1202.6666666666667</ele><time>2026-03-26T11:24:04.911Z</time></trkpt><trkpt lat="30.822375134506434" lon="-6.814520370323267"><ele>1203.0</ele><time>2026-03-26T11:24:06.911Z</time></trkpt><trkpt lat="30.822324786351842" lon="-6.8146133342362125"><ele>1202.0</ele><time>2026-03-26T11:24:07.911Z</time></trkpt><trkpt lat="30.822273535784642" lon="-6.814730044328582"><ele>1201.0</ele><time>2026-03-26T11:24:08.911Z</time></trkpt><trkpt lat="30.822238979690884" lon="-6.814833140098541"><ele>1200.0</ele><time>2026-03-26T11:24:09.911Z</time></trkpt><trkpt lat="30.82211194846387" lon="-6.814919145275979"><ele>1199.0</ele><time>2026-03-26T11:24:11.91Z</time></trkpt><trkpt lat="30.82202736715531" lon="-6.81497444819781"><ele>1199.0</ele><time>2026-03-26T11:24:12.91Z</time></trkpt><trkpt lat="30.821951900770223" lon="-6.815031361315132"><ele>1199.0</ele><time>2026-03-26T11:24:13.91Z</time></trkpt><trkpt lat="30.821883019203337" lon="-6.815098565888297"><ele>1199.0</ele><time>2026-03-26T11:24:14.91Z</time></trkpt><trkpt lat="30.821823149859867" lon="-6.815154790374206"><ele>1199.0</ele><time>2026-03-26T11:24:15.91Z</time></trkpt><trkpt lat="30.821768455549552" lon="-6.815201746048915"><ele>1199.0</ele><time>2026-03-26T11:24:16.91Z</time></trkpt><trkpt lat="30.821673033802938" lon="-6.815272376839856"><ele>1199.0</ele><time>2026-03-26T11:24:18.91Z</time></trkpt><trkpt lat="30.821578934951276" lon="-6.815357342302726"><ele>1199.8333333333335</ele><time>2026-03-26T11:24:20.91Z</time></trkpt><trkpt lat="30.821534118516997" lon="-6.815411069053612"><ele>1200.6666666666667</ele><time>2026-03-26T11:24:21.91Z</time></trkpt><trkpt lat="30.821488098603776" lon="-6.815473882072034"><ele>1201.5</ele><time>2026-03-26T11:24:22.91Z</time></trkpt><trkpt lat="30.821383056572323" lon="-6.815568399721341"><ele>1202.3333333333333</ele><time>2026-03-26T11:24:24.911Z</time></trkpt><trkpt lat="30.82131800583425" lon="-6.815622492893822"><ele>1203.1666666666665</ele><time>2026-03-26T11:24:25.91Z</time></trkpt><trkpt lat="30.821245257967078" lon="-6.815684894614254"><ele>1204.0</ele><time>2026-03-26T11:24:26.91Z</time></trkpt><trkpt lat="30.821173878704105" lon="-6.815740783527084"><ele>1204.0</ele><time>2026-03-26T11:24:27.91Z</time></trkpt><trkpt lat="30.821099161317854" lon="-6.8157920982242"><ele>1204.0</ele><time>2026-03-26T11:24:28.91Z</time></trkpt><trkpt lat="30.82102830429365" lon="-6.815836377871914"><ele>1204.0</ele><time>2026-03-26T11:24:29.91Z</time></trkpt><trkpt lat="30.820959860331268" lon="-6.81589861577277"><ele>1204.0</ele><time>2026-03-26T11:24:30.91Z</time></trkpt><trkpt lat="30.820889134756463" lon="-6.81598211151524"><ele>1204.0</ele><time>2026-03-26T11:24:31.911Z</time></trkpt><trkpt lat="30.820827854142568" lon="-6.816070413207773"><ele>1205.0</ele><time>2026-03-26T11:24:32.911Z</time></trkpt><trkpt lat="30.820766603759832" lon="-6.816154064611997"><ele>1206.0</ele><time>2026-03-26T11:24:33.91Z</time></trkpt><trkpt lat="30.820697846376508" lon="-6.816236754829817"><ele>1207.0</ele><time>2026-03-26T11:24:34.91Z</time></trkpt><trkpt lat="30.82062480873115" lon="-6.816317660719192"><ele>1208.0</ele><time>2026-03-26T11:24:35.91Z</time></trkpt><trkpt lat="30.82054382895873" lon="-6.8163985407521475"><ele>1209.0</ele><time>2026-03-26T11:24:36.911Z</time></trkpt><trkpt lat="30.820456551101746" lon="-6.816481227166028"><ele>1209.0</ele><time>2026-03-26T11:24:37.911Z</time></trkpt><trkpt lat="30.820373509703284" lon="-6.816560949167096"><ele>1209.0</ele><time>2026-03-26T11:24:38.911Z</time></trkpt><trkpt lat="30.82028140948096" lon="-6.816659051550689"><ele>1209.0</ele><time>2026-03-26T11:24:39.911Z</time></trkpt><trkpt lat="30.82017576777688" lon="-6.816778710011909"><ele>1209.0</ele><time>2026-03-26T11:24:40.911Z</time></trkpt><trkpt lat="30.820052864427918" lon="-6.81692970853542"><ele>1209.3333333333333</ele><time>2026-03-26T11:24:41.911Z</time></trkpt><trkpt lat="30.819912690285292" lon="-6.817100632507028"><ele>1209.6666666666665</ele><time>2026-03-26T11:24:42.911Z</time></trkpt><trkpt lat="30.819776467089856" lon="-6.8172746289646735"><ele>1210.0</ele><time>2026-03-26T11:24:43.911Z</time></trkpt><trkpt lat="30.81967741540268" lon="-6.8174361354240895"><ele>1210.0</ele><time>2026-03-26T11:24:44.911Z</time></trkpt><trkpt lat="30.819600373166267" lon="-6.817574778064465"><ele>1210.0</ele><time>2026-03-26T11:24:45.911Z</time></trkpt><trkpt lat="30.81953458206438" lon="-6.817712642975881"><ele>1210.0</ele><time>2026-03-26T11:24:46.911Z</time></trkpt><trkpt lat="30.819454533163267" lon="-6.8178547518589285"><ele>1210.0</ele><time>2026-03-26T11:24:47.911Z</time></trkpt><trkpt lat="30.81938045807488" lon="-6.817983768603361"><ele>1211.0</ele><time>2026-03-26T11:24:48.91Z</time></trkpt><trkpt lat="30.81930959171773" lon="-6.8180848409021415"><ele>1212.0</ele><time>2026-03-26T11:24:49.91Z</time></trkpt><trkpt lat="30.81924251193424" lon="-6.818173974066227"><ele>1213.0</ele><time>2026-03-26T11:24:50.91Z</time></trkpt><trkpt lat="30.819176545081696" lon="-6.818254348516248"><ele>1214.0</ele><time>2026-03-26T11:24:51.91Z</time></trkpt><trkpt lat="30.819117174877192" lon="-6.818330772713724"><ele>1215.0</ele><time>2026-03-26T11:24:52.91Z</time></trkpt><trkpt lat="30.819062917861498" lon="-6.8184266500337865"><ele>1215.0</ele><time>2026-03-26T11:24:53.91Z</time></trkpt><trkpt lat="30.81901637005418" lon="-6.818517037606519"><ele>1215.0</ele><time>2026-03-26T11:24:54.91Z</time></trkpt><trkpt lat="30.818962258226605" lon="-6.818617465949335"><ele>1215.0</ele><time>2026-03-26T11:24:55.91Z</time></trkpt><trkpt lat="30.81890702468649" lon="-6.818725366734983"><ele>1215.0</ele><time>2026-03-26T11:24:56.91Z</time></trkpt><trkpt lat="30.818856745675177" lon="-6.818827634234306"><ele>1215.0</ele><time>2026-03-26T11:24:57.91Z</time></trkpt><trkpt lat="30.81880184103299" lon="-6.8189382042884015"><ele>1215.0</ele><time>2026-03-26T11:24:58.91Z</time></trkpt><trkpt lat="30.81874204766119" lon="-6.819036607765953"><ele>1215.0</ele><time>2026-03-26T11:24:59.91Z</time></trkpt><trkpt lat="30.81867618122637" lon="-6.8191322207058676"><ele>1215.0</ele><time>2026-03-26T11:25:00.91Z</time></trkpt><trkpt lat="30.81861148710961" lon="-6.819228074500067"><ele>1215.0</ele><time>2026-03-26T11:25:01.91Z</time></trkpt><trkpt lat="30.81854112590761" lon="-6.819328739669985"><ele>1215.0</ele><time>2026-03-26T11:25:02.91Z</time></trkpt><trkpt lat="30.818463782277274" lon="-6.819425582805981"><ele>1216.0</ele><time>2026-03-26T11:25:03.91Z</time></trkpt><trkpt lat="30.818388118396623" lon="-6.819524162039722"><ele>1217.0</ele><time>2026-03-26T11:25:04.91Z</time></trkpt><trkpt lat="30.818300573840414" lon="-6.819642047196664"><ele>1218.0</ele><time>2026-03-26T11:25:05.91Z</time></trkpt><trkpt lat="30.8182242834521" lon="-6.8197462584452095"><ele>1219.0</ele><time>2026-03-26T11:25:06.91Z</time></trkpt><trkpt lat="30.818143959268486" lon="-6.819858317214168"><ele>1219.0</ele><time>2026-03-26T11:25:07.91Z</time></trkpt><trkpt lat="30.818069915462964" lon="-6.819973350143157"><ele>1219.0</ele><time>2026-03-26T11:25:08.91Z</time></trkpt><trkpt lat="30.818001282203607" lon="-6.8200868326591575"><ele>1219.0</ele><time>2026-03-26T11:25:09.91Z</time></trkpt><trkpt lat="30.817937148001484" lon="-6.820215920924145"><ele>1219.0</ele><time>2026-03-26T11:25:10.91Z</time></trkpt><trkpt lat="30.817874823835332" lon="-6.820341884427238"><ele>1219.0</ele><time>2026-03-26T11:25:11.91Z</time></trkpt><trkpt lat="30.81781508795365" lon="-6.820447972574384"><ele>1219.0</ele><time>2026-03-26T11:25:12.91Z</time></trkpt><trkpt lat="30.817757287857972" lon="-6.820564176161198"><ele>1219.0</ele><time>2026-03-26T11:25:13.91Z</time></trkpt><trkpt lat="30.81771452030541" lon="-6.820678549214046"><ele>1219.0</ele><time>2026-03-26T11:25:14.91Z</time></trkpt><trkpt lat="30.817681155627778" lon="-6.820770297295211"><ele>1219.0</ele><time>2026-03-26T11:25:15.91Z</time></trkpt><trkpt lat="30.81764432496189" lon="-6.820885848925181"><ele>1219.0</ele><time>2026-03-26T11:25:17.91Z</time></trkpt><trkpt lat="30.817625790693388" lon="-6.821027997570626"><ele>1219.0</ele><time>2026-03-26T11:25:19.91Z</time></trkpt><trkpt lat="30.817633224612592" lon="-6.8211489791202125"><ele>1219.0</ele><time>2026-03-26T11:25:21.91Z</time></trkpt><trkpt lat="30.817600407214215" lon="-6.821266050341666"><ele>1219.0</ele><time>2026-03-26T11:25:23.91Z</time></trkpt><trkpt lat="30.817555115544348" lon="-6.821341642678723"><ele>1219.0</ele><time>2026-03-26T11:25:24.91Z</time></trkpt><trkpt lat="30.817501888035753" lon="-6.821424319138528"><ele>1219.0</ele><time>2026-03-26T11:25:25.91Z</time></trkpt><trkpt lat="30.817451826000365" lon="-6.821503876753302"><ele>1219.0</ele><time>2026-03-26T11:25:26.91Z</time></trkpt><trkpt lat="30.817369497020312" lon="-6.821587695941951"><ele>1219.0</ele><time>2026-03-26T11:25:27.91Z</time></trkpt><trkpt lat="30.817261188305384" lon="-6.821638930424921"><ele>1219.0</ele><time>2026-03-26T11:25:28.91Z</time></trkpt><trkpt lat="30.81713658459984" lon="-6.821686286017251"><ele>1219.0</ele><time>2026-03-26T11:25:29.91Z</time></trkpt><trkpt lat="30.817010365761135" lon="-6.821795766571026"><ele>1220.0</ele><time>2026-03-26T11:25:30.91Z</time></trkpt><trkpt lat="30.816877216463414" lon="-6.821929183596095"><ele>1221.0</ele><time>2026-03-26T11:25:31.91Z</time></trkpt><trkpt lat="30.816750468737276" lon="-6.822060609037897"><ele>1222.0</ele><time>2026-03-26T11:25:32.91Z</time></trkpt><trkpt lat="30.816636385030694" lon="-6.822159175681517"><ele>1222.25</ele><time>2026-03-26T11:25:33.91Z</time></trkpt><trkpt lat="30.81654765019367" lon="-6.82226602998961"><ele>1222.5</ele><time>2026-03-26T11:25:34.91Z</time></trkpt><trkpt lat="30.816469776751074" lon="-6.8223801619409326"><ele>1222.75</ele><time>2026-03-26T11:25:35.91Z</time></trkpt><trkpt lat="30.81638770487672" lon="-6.8224528642016615"><ele>1223.0</ele><time>2026-03-26T11:25:36.91Z</time></trkpt><trkpt lat="30.81629743005965" lon="-6.822502468409182"><ele>1223.0</ele><time>2026-03-26T11:25:37.91Z</time></trkpt><trkpt lat="30.81621290133472" lon="-6.822560222383958"><ele>1223.0</ele><time>2026-03-26T11:25:38.91Z</time></trkpt><trkpt lat="30.816150557256147" lon="-6.822617251435226"><ele>1223.0</ele><time>2026-03-26T11:25:39.91Z</time></trkpt><trkpt lat="30.816098650092307" lon="-6.8226856558284315"><ele>1223.0</ele><time>2026-03-26T11:25:40.91Z</time></trkpt><trkpt lat="30.81604019852193" lon="-6.822751502702438"><ele>1223.0</ele><time>2026-03-26T11:25:41.91Z</time></trkpt><trkpt lat="30.815977231520744" lon="-6.822819122893854"><ele>1223.0</ele><time>2026-03-26T11:25:42.91Z</time></trkpt><trkpt lat="30.815911414180697" lon="-6.82288264666374"><ele>1224.4</ele><time>2026-03-26T11:25:43.91Z</time></trkpt><trkpt lat="30.815844072795457" lon="-6.822946357045463"><ele>1225.8</ele><time>2026-03-26T11:25:44.91Z</time></trkpt><trkpt lat="30.81577590197709" lon="-6.823031752889805"><ele>1227.2</ele><time>2026-03-26T11:25:45.91Z</time></trkpt><trkpt lat="30.815716196775497" lon="-6.82310809794603"><ele>1228.6</ele><time>2026-03-26T11:25:46.91Z</time></trkpt><trkpt lat="30.815648975953405" lon="-6.823180676118415"><ele>1230.0</ele><time>2026-03-26T11:25:47.91Z</time></trkpt><trkpt lat="30.81558759491958" lon="-6.823253432331153"><ele>1230.0</ele><time>2026-03-26T11:25:48.91Z</time></trkpt><trkpt lat="30.815542373320472" lon="-6.823328206473503"><ele>1230.0</ele><time>2026-03-26T11:25:49.91Z</time></trkpt><trkpt lat="30.815508924060396" lon="-6.823399501213308"><ele>1230.0</ele><time>2026-03-26T11:25:50.91Z</time></trkpt><trkpt lat="30.81548412667803" lon="-6.823469313406894"><ele>1230.0</ele><time>2026-03-26T11:25:51.91Z</time></trkpt><trkpt lat="30.81547149427082" lon="-6.823589383872833"><ele>1230.0</ele><time>2026-03-26T11:25:53.91Z</time></trkpt><trkpt lat="30.81549441239914" lon="-6.823702018708472"><ele>1230.0</ele><time>2026-03-26T11:25:55.91Z</time></trkpt><trkpt lat="30.81552710877226" lon="-6.823798302992285"><ele>1230.4</ele><time>2026-03-26T11:25:57.91Z</time></trkpt><trkpt lat="30.81548482416018" lon="-6.823928765714854"><ele>1230.8</ele><time>2026-03-26T11:25:59.91Z</time></trkpt><trkpt lat="30.81538867360792" lon="-6.8239891402058666"><ele>1231.2</ele><time>2026-03-26T11:26:01.91Z</time></trkpt><trkpt lat="30.815298967117265" lon="-6.823995915855141"><ele>1231.6</ele><time>2026-03-26T11:26:02.91Z</time></trkpt><trkpt lat="30.815174451148696" lon="-6.82402135260151"><ele>1232.0</ele><time>2026-03-26T11:26:03.91Z</time></trkpt><trkpt lat="30.815064651065263" lon="-6.8240836580525945"><ele>1231.5</ele><time>2026-03-26T11:26:04.91Z</time></trkpt><trkpt lat="30.814998425220807" lon="-6.824202265021546"><ele>1231.0</ele><time>2026-03-26T11:26:05.91Z</time></trkpt><trkpt lat="30.81494440763329" lon="-6.824366328991726"><ele>1230.5</ele><time>2026-03-26T11:26:06.91Z</time></trkpt><trkpt lat="30.814924560141634" lon="-6.824556266709188"><ele>1230.0</ele><time>2026-03-26T11:26:07.91Z</time></trkpt><trkpt lat="30.814921957725733" lon="-6.824731605225069"><ele>1230.0</ele><time>2026-03-26T11:26:08.91Z</time></trkpt><trkpt lat="30.814908997970438" lon="-6.8248540327109675"><ele>1230.0</ele><time>2026-03-26T11:26:09.91Z</time></trkpt><trkpt lat="30.814873740069107" lon="-6.824973694677279"><ele>1230.0</ele><time>2026-03-26T11:26:10.91Z</time></trkpt><trkpt lat="30.814841128971885" lon="-6.825102409099568"><ele>1230.0</ele><time>2026-03-26T11:26:11.91Z</time></trkpt><trkpt lat="30.814818721286365" lon="-6.825214619550049"><ele>1230.0</ele><time>2026-03-26T11:26:12.91Z</time></trkpt><trkpt lat="30.814791217950148" lon="-6.825381765638298"><ele>1231.0</ele><time>2026-03-26T11:26:13.91Z</time></trkpt><trkpt lat="30.814767764440568" lon="-6.825567606667033"><ele>1232.0</ele><time>2026-03-26T11:26:14.91Z</time></trkpt><trkpt lat="30.81474953223197" lon="-6.825719873726572"><ele>1233.0</ele><time>2026-03-26T11:26:15.91Z</time></trkpt><trkpt lat="30.814729203195487" lon="-6.825819942073483"><ele>1234.0</ele><time>2026-03-26T11:26:16.91Z</time></trkpt><trkpt lat="30.81469879621364" lon="-6.825904212895111"><ele>1234.8333333333333</ele><time>2026-03-26T11:26:17.91Z</time></trkpt><trkpt lat="30.81466539280542" lon="-6.825989422187779"><ele>1235.6666666666665</ele><time>2026-03-26T11:26:18.91Z</time></trkpt><trkpt lat="30.81464052606785" lon="-6.826079409545682"><ele>1236.5</ele><time>2026-03-26T11:26:19.91Z</time></trkpt><trkpt lat="30.814625474880774" lon="-6.826194997245421"><ele>1237.3333333333333</ele><time>2026-03-26T11:26:20.91Z</time></trkpt><trkpt lat="30.814614113352707" lon="-6.826295600673514"><ele>1238.1666666666667</ele><time>2026-03-26T11:26:21.91Z</time></trkpt><trkpt lat="30.814578885030663" lon="-6.826390334095058"><ele>1239.0</ele><time>2026-03-26T11:26:22.91Z</time></trkpt><trkpt lat="30.81451263851882" lon="-6.826484223885332"><ele>1239.0</ele><time>2026-03-26T11:26:23.91Z</time></trkpt><trkpt lat="30.814443519443735" lon="-6.826590908320995"><ele>1239.0</ele><time>2026-03-26T11:26:24.91Z</time></trkpt><trkpt lat="30.814361692576192" lon="-6.826690216977899"><ele>1239.0</ele><time>2026-03-26T11:26:25.91Z</time></trkpt><trkpt lat="30.814288876307067" lon="-6.826784857438357"><ele>1239.0</ele><time>2026-03-26T11:26:26.91Z</time></trkpt><trkpt lat="30.814221900789587" lon="-6.82685906225133"><ele>1239.0</ele><time>2026-03-26T11:26:27.91Z</time></trkpt><trkpt lat="30.81416030277168" lon="-6.826941582647524"><ele>1239.6000000000001</ele><time>2026-03-26T11:26:28.91Z</time></trkpt><trkpt lat="30.8140953853857" lon="-6.827025768069652"><ele>1240.2</ele><time>2026-03-26T11:26:29.91Z</time></trkpt><trkpt lat="30.8140327536652" lon="-6.827128274905132"><ele>1240.8000000000002</ele><time>2026-03-26T11:26:30.91Z</time></trkpt><trkpt lat="30.813973741539794" lon="-6.827231433207158"><ele>1241.4</ele><time>2026-03-26T11:26:31.91Z</time></trkpt><trkpt lat="30.813925173879362" lon="-6.827329128854715"><ele>1242.0</ele><time>2026-03-26T11:26:32.91Z</time></trkpt><trkpt lat="30.813879462272375" lon="-6.827427859158817"><ele>1242.0</ele><time>2026-03-26T11:26:33.91Z</time></trkpt><trkpt lat="30.81382700414523" lon="-6.827517032446306"><ele>1242.0</ele><time>2026-03-26T11:26:34.909Z</time></trkpt><trkpt lat="30.813770008700658" lon="-6.827602331940133"><ele>1242.0</ele><time>2026-03-26T11:26:35.909Z</time></trkpt><trkpt lat="30.813714504554113" lon="-6.827684976520336"><ele>1242.0</ele><time>2026-03-26T11:26:36.91Z</time></trkpt><trkpt lat="30.813657869242927" lon="-6.827749492560129"><ele>1242.0</ele><time>2026-03-26T11:26:37.91Z</time></trkpt><trkpt lat="30.81360354308552" lon="-6.8278173249980965"><ele>1242.0</ele><time>2026-03-26T11:26:38.91Z</time></trkpt><trkpt lat="30.813553189820652" lon="-6.827871026079159"><ele>1243.5</ele><time>2026-03-26T11:26:39.909Z</time></trkpt><trkpt lat="30.813505890383805" lon="-6.8279349614757665"><ele>1245.0</ele><time>2026-03-26T11:26:40.91Z</time></trkpt><trkpt lat="30.81346153686995" lon="-6.828002619459369"><ele>1246.5</ele><time>2026-03-26T11:26:41.91Z</time></trkpt><trkpt lat="30.813416934383742" lon="-6.828086859643835"><ele>1248.0</ele><time>2026-03-26T11:26:42.91Z</time></trkpt><trkpt lat="30.81336739648466" lon="-6.828167824064882"><ele>1249.5</ele><time>2026-03-26T11:26:43.91Z</time></trkpt><trkpt lat="30.813323701840076" lon="-6.828248087595394"><ele>1251.0</ele><time>2026-03-26T11:26:44.91Z</time></trkpt><trkpt lat="30.813281573465645" lon="-6.828327068976748"><ele>1251.2857142857142</ele><time>2026-03-26T11:26:45.91Z</time></trkpt><trkpt lat="30.813243998513627" lon="-6.828397578042838"><ele>1251.5714285714287</ele><time>2026-03-26T11:26:46.91Z</time></trkpt><trkpt lat="30.813211821613336" lon="-6.8284812843519695"><ele>1251.857142857143</ele><time>2026-03-26T11:26:47.91Z</time></trkpt><trkpt lat="30.813180080213183" lon="-6.8285656468427245"><ele>1252.142857142857</ele><time>2026-03-26T11:26:48.91Z</time></trkpt><trkpt lat="30.813146980833842" lon="-6.8286351024344585"><ele>1252.4285714285716</ele><time>2026-03-26T11:26:49.91Z</time></trkpt><trkpt lat="30.813112631030865" lon="-6.828707002334795"><ele>1252.7142857142858</ele><time>2026-03-26T11:26:50.91Z</time></trkpt><trkpt lat="30.813062744620858" lon="-6.8287599453556656"><ele>1253.0</ele><time>2026-03-26T11:26:51.91Z</time></trkpt><trkpt lat="30.81300041924259" lon="-6.828804100674977"><ele>1254.1666666666667</ele><time>2026-03-26T11:26:52.91Z</time></trkpt><trkpt lat="30.812936195831146" lon="-6.828846108595466"><ele>1255.3333333333335</ele><time>2026-03-26T11:26:53.91Z</time></trkpt><trkpt lat="30.81286342040719" lon="-6.828889178971492"><ele>1256.5</ele><time>2026-03-26T11:26:54.91Z</time></trkpt><trkpt lat="30.812797534528055" lon="-6.828923339560025"><ele>1257.6666666666667</ele><time>2026-03-26T11:26:55.91Z</time></trkpt><trkpt lat="30.812741727454064" lon="-6.8289585414427485"><ele>1258.8333333333333</ele><time>2026-03-26T11:26:56.91Z</time></trkpt><trkpt lat="30.81268771352656" lon="-6.829023701166116"><ele>1260.0</ele><time>2026-03-26T11:26:57.91Z</time></trkpt><trkpt lat="30.812647841028337" lon="-6.82911018595587"><ele>1260.0</ele><time>2026-03-26T11:26:58.91Z</time></trkpt><trkpt lat="30.81261149279039" lon="-6.82918872408539"><ele>1260.0</ele><time>2026-03-26T11:26:59.91Z</time></trkpt><trkpt lat="30.812575394163954" lon="-6.8292853991013605"><ele>1260.0</ele><time>2026-03-26T11:27:00.91Z</time></trkpt><trkpt lat="30.812548630575606" lon="-6.829400260178125"><ele>1260.0</ele><time>2026-03-26T11:27:01.91Z</time></trkpt><trkpt lat="30.812511846097337" lon="-6.8295029283341"><ele>1260.0</ele><time>2026-03-26T11:27:02.91Z</time></trkpt><trkpt lat="30.812461854868445" lon="-6.829607415605465"><ele>1262.0</ele><time>2026-03-26T11:27:03.91Z</time></trkpt><trkpt lat="30.812397251135145" lon="-6.8296965987420535"><ele>1264.0</ele><time>2026-03-26T11:27:04.91Z</time></trkpt><trkpt lat="30.812324969089506" lon="-6.829777098785556"><ele>1266.0</ele><time>2026-03-26T11:27:05.91Z</time></trkpt><trkpt lat="30.81225777537588" lon="-6.829854964444415"><ele>1268.0</ele><time>2026-03-26T11:27:06.91Z</time></trkpt><trkpt lat="30.81218461573448" lon="-6.829909280252601"><ele>1270.0</ele><time>2026-03-26T11:27:07.91Z</time></trkpt><trkpt lat="30.812108911004344" lon="-6.8299582704760695"><ele>1270.0</ele><time>2026-03-26T11:27:08.91Z</time></trkpt><trkpt lat="30.81200724131501" lon="-6.83002304267225"><ele>1270.0</ele><time>2026-03-26T11:27:09.91Z</time></trkpt><trkpt lat="30.811914783558223" lon="-6.830116832011826"><ele>1270.0</ele><time>2026-03-26T11:27:10.91Z</time></trkpt><trkpt lat="30.811829112828065" lon="-6.830197406674248"><ele>1270.0</ele><time>2026-03-26T11:27:11.91Z</time></trkpt><trkpt lat="30.811766896141354" lon="-6.830279449498348"><ele>1270.0</ele><time>2026-03-26T11:27:12.91Z</time></trkpt><trkpt lat="30.81171234356758" lon="-6.8303765666260885"><ele>1270.8</ele><time>2026-03-26T11:27:13.91Z</time></trkpt><trkpt lat="30.811666742643744" lon="-6.830478184055742"><ele>1271.6</ele><time>2026-03-26T11:27:14.91Z</time></trkpt><trkpt lat="30.811608853570615" lon="-6.830594583222252"><ele>1272.4</ele><time>2026-03-26T11:27:15.91Z</time></trkpt><trkpt lat="30.81154598313094" lon="-6.830693177806984"><ele>1273.2</ele><time>2026-03-26T11:27:16.91Z</time></trkpt><trkpt lat="30.811504165823102" lon="-6.830766925571446"><ele>1274.0</ele><time>2026-03-26T11:27:17.909Z</time></trkpt><trkpt lat="30.811465405057966" lon="-6.830856951983283"><ele>1274.0</ele><time>2026-03-26T11:27:18.909Z</time></trkpt><trkpt lat="30.811432244973574" lon="-6.830954891815793"><ele>1274.0</ele><time>2026-03-26T11:27:19.909Z</time></trkpt><trkpt lat="30.811403233680917" lon="-6.8310445246849"><ele>1274.0</ele><time>2026-03-26T11:27:20.909Z</time></trkpt><trkpt lat="30.81136857703372" lon="-6.831131822174159"><ele>1274.0</ele><time>2026-03-26T11:27:21.909Z</time></trkpt><trkpt lat="30.811319533997533" lon="-6.831211055767663"><ele>1274.0</ele><time>2026-03-26T11:27:22.909Z</time></trkpt><trkpt lat="30.811270346511154" lon="-6.8312868746972555"><ele>1274.0</ele><time>2026-03-26T11:27:23.909Z</time></trkpt><trkpt lat="30.811233630352326" lon="-6.831364338173992"><ele>1274.6000000000001</ele><time>2026-03-26T11:27:24.909Z</time></trkpt><trkpt lat="30.811186201592555" lon="-6.831447111723401"><ele>1275.2</ele><time>2026-03-26T11:27:25.909Z</time></trkpt><trkpt lat="30.81113041692174" lon="-6.831512221679214"><ele>1275.8000000000002</ele><time>2026-03-26T11:27:26.909Z</time></trkpt><trkpt lat="30.81101838418605" lon="-6.831524179544307"><ele>1276.4</ele><time>2026-03-26T11:27:28.909Z</time></trkpt><trkpt lat="30.810941767480706" lon="-6.83154315708316"><ele>1277.0</ele><time>2026-03-26T11:27:29.909Z</time></trkpt><trkpt lat="30.810846987519398" lon="-6.8315625073495445"><ele>1277.0</ele><time>2026-03-26T11:27:30.909Z</time></trkpt><trkpt lat="30.810766711073345" lon="-6.831589008640663"><ele>1277.0</ele><time>2026-03-26T11:27:31.909Z</time></trkpt><trkpt lat="30.810682829808577" lon="-6.831611718190685"><ele>1277.0</ele><time>2026-03-26T11:27:32.909Z</time></trkpt><trkpt lat="30.810596889018463" lon="-6.8316417791025685"><ele>1277.0</ele><time>2026-03-26T11:27:33.909Z</time></trkpt><trkpt lat="30.810501464762318" lon="-6.831662969261118"><ele>1277.0</ele><time>2026-03-26T11:27:34.909Z</time></trkpt><trkpt lat="30.810413259111467" lon="-6.8316774788777295"><ele>1277.0</ele><time>2026-03-26T11:27:35.909Z</time></trkpt><trkpt lat="30.81032323295616" lon="-6.831687379820555"><ele>1277.0</ele><time>2026-03-26T11:27:36.909Z</time></trkpt><trkpt lat="30.810231390577943" lon="-6.831692121544551"><ele>1277.0</ele><time>2026-03-26T11:27:37.909Z</time></trkpt><trkpt lat="30.81013080741493" lon="-6.831703236964226"><ele>1277.0</ele><time>2026-03-26T11:27:38.909Z</time></trkpt><trkpt lat="30.810026240185724" lon="-6.831730053888322"><ele>1277.0</ele><time>2026-03-26T11:27:39.909Z</time></trkpt><trkpt lat="30.809937541887518" lon="-6.831744671808026"><ele>1277.0</ele><time>2026-03-26T11:27:40.909Z</time></trkpt><trkpt lat="30.809846905013075" lon="-6.831743921396253"><ele>1276.3333333333335</ele><time>2026-03-26T11:27:41.909Z</time></trkpt><trkpt lat="30.809764441360592" lon="-6.831749603210198"><ele>1275.6666666666667</ele><time>2026-03-26T11:27:42.909Z</time></trkpt><trkpt lat="30.80967952401649" lon="-6.831779488027609"><ele>1275.0</ele><time>2026-03-26T11:27:43.909Z</time></trkpt><trkpt lat="30.809608617351206" lon="-6.831817988284742"><ele>1274.3333333333333</ele><time>2026-03-26T11:27:44.909Z</time></trkpt><trkpt lat="30.809538824856645" lon="-6.8318593933602365"><ele>1273.6666666666665</ele><time>2026-03-26T11:27:45.909Z</time></trkpt><trkpt lat="30.809462622868573" lon="-6.831892836172554"><ele>1273.0</ele><time>2026-03-26T11:27:46.909Z</time></trkpt><trkpt lat="30.809369179639887" lon="-6.831918784090973"><ele>1271.25</ele><time>2026-03-26T11:27:47.909Z</time></trkpt><trkpt lat="30.809263626148866" lon="-6.831963813540448"><ele>1269.5</ele><time>2026-03-26T11:27:48.909Z</time></trkpt><trkpt lat="30.80915630261529" lon="-6.8320384535127054"><ele>1267.75</ele><time>2026-03-26T11:27:49.909Z</time></trkpt><trkpt lat="30.80907004497306" lon="-6.8321190002534475"><ele>1266.0</ele><time>2026-03-26T11:27:50.909Z</time></trkpt><trkpt lat="30.80898862563202" lon="-6.832192172565131"><ele>1266.0</ele><time>2026-03-26T11:27:51.909Z</time></trkpt><trkpt lat="30.808912250705724" lon="-6.832254863604456"><ele>1266.0</ele><time>2026-03-26T11:27:52.909Z</time></trkpt><trkpt lat="30.80881847145658" lon="-6.8323011658115105"><ele>1266.0</ele><time>2026-03-26T11:27:53.909Z</time></trkpt><trkpt lat="30.80871486658286" lon="-6.832344530574256"><ele>1266.0</ele><time>2026-03-26T11:27:54.909Z</time></trkpt><trkpt lat="30.808633105360453" lon="-6.832389975369826"><ele>1266.0</ele><time>2026-03-26T11:27:55.909Z</time></trkpt><trkpt lat="30.808553488063797" lon="-6.832434737727736"><ele>1265.6666666666667</ele><time>2026-03-26T11:27:56.909Z</time></trkpt><trkpt lat="30.808478397745834" lon="-6.832497716161976"><ele>1265.3333333333333</ele><time>2026-03-26T11:27:57.909Z</time></trkpt><trkpt lat="30.80839913472659" lon="-6.8325527156567745"><ele>1265.0</ele><time>2026-03-26T11:27:58.909Z</time></trkpt><trkpt lat="30.808329879600013" lon="-6.8325887051479395"><ele>1264.6666666666665</ele><time>2026-03-26T11:27:59.909Z</time></trkpt><trkpt lat="30.808248766716556" lon="-6.832630621854049"><ele>1264.3333333333333</ele><time>2026-03-26T11:28:00.909Z</time></trkpt><trkpt lat="30.808175202106696" lon="-6.8326561117360525"><ele>1264.0</ele><time>2026-03-26T11:28:01.909Z</time></trkpt><trkpt lat="30.808090000167898" lon="-6.832686626995794"><ele>1263.8</ele><time>2026-03-26T11:28:02.909Z</time></trkpt><trkpt lat="30.808005747917946" lon="-6.832723055382765"><ele>1263.6000000000001</ele><time>2026-03-26T11:28:03.909Z</time></trkpt><trkpt lat="30.807912968990365" lon="-6.832772224837736"><ele>1263.4</ele><time>2026-03-26T11:28:04.909Z</time></trkpt><trkpt lat="30.80782429709006" lon="-6.8328333489648"><ele>1263.2</ele><time>2026-03-26T11:28:05.909Z</time></trkpt><trkpt lat="30.807737246644077" lon="-6.832879288208275"><ele>1263.0</ele><time>2026-03-26T11:28:06.909Z</time></trkpt><trkpt lat="30.807658793388683" lon="-6.832920562627588"><ele>1262.6</ele><time>2026-03-26T11:28:07.909Z</time></trkpt><trkpt lat="30.80758270515861" lon="-6.832964744494949"><ele>1262.1999999999998</ele><time>2026-03-26T11:28:08.909Z</time></trkpt><trkpt lat="30.807513152262235" lon="-6.8330253223510775"><ele>1261.8</ele><time>2026-03-26T11:28:09.909Z</time></trkpt><trkpt lat="30.807448094051587" lon="-6.833104261632565"><ele>1261.3999999999999</ele><time>2026-03-26T11:28:10.909Z</time></trkpt><trkpt lat="30.8073785546834" lon="-6.83319361110713"><ele>1261.0</ele><time>2026-03-26T11:28:11.909Z</time></trkpt><trkpt lat="30.807295619067535" lon="-6.833282167659897"><ele>1261.0</ele><time>2026-03-26T11:28:12.909Z</time></trkpt><trkpt lat="30.807225012097703" lon="-6.833343157877489"><ele>1261.0</ele><time>2026-03-26T11:28:13.909Z</time></trkpt><trkpt lat="30.807160320180692" lon="-6.833394334454184"><ele>1261.0</ele><time>2026-03-26T11:28:14.909Z</time></trkpt><trkpt lat="30.807104301999072" lon="-6.833440695399527"><ele>1261.0</ele><time>2026-03-26T11:28:15.909Z</time></trkpt><trkpt lat="30.807002408060313" lon="-6.8335151205037885"><ele>1261.0</ele><time>2026-03-26T11:28:17.909Z</time></trkpt><trkpt lat="30.80689095898538" lon="-6.833596261096259"><ele>1260.5714285714287</ele><time>2026-03-26T11:28:19.909Z</time></trkpt><trkpt lat="30.80682497273903" lon="-6.833657282909024"><ele>1260.142857142857</ele><time>2026-03-26T11:28:20.909Z</time></trkpt><trkpt lat="30.80676648743534" lon="-6.833713421806135"><ele>1259.7142857142858</ele><time>2026-03-26T11:28:21.909Z</time></trkpt><trkpt lat="30.806743693907926" lon="-6.833798939738533"><ele>1259.2857142857142</ele><time>2026-03-26T11:28:23.909Z</time></trkpt><trkpt lat="30.806806173873426" lon="-6.833820566352854"><ele>1258.857142857143</ele><time>2026-03-26T11:28:28.909Z</time></trkpt><trkpt lat="30.806875682063254" lon="-6.833834999402491"><ele>1258.4285714285713</ele><time>2026-03-26T11:30:10.908Z</time></trkpt><trkpt lat="30.80694038086422" lon="-6.833848893010283"><ele>1258.0</ele><time>2026-03-26T11:30:12.908Z</time></trkpt><trkpt lat="30.807026599020205" lon="-6.8338639176681415"><ele>1258.0</ele><time>2026-03-26T11:30:14.908Z</time></trkpt><trkpt lat="30.807123864737378" lon="-6.833869188208355"><ele>1258.0</ele><time>2026-03-26T11:30:16.908Z</time></trkpt><trkpt lat="30.807210899900788" lon="-6.833891989378946"><ele>1258.0</ele><time>2026-03-26T11:30:18.907Z</time></trkpt><trkpt lat="30.807297279527045" lon="-6.833933343382736"><ele>1258.0</ele><time>2026-03-26T11:30:20.907Z</time></trkpt><trkpt lat="30.807347952742454" lon="-6.834023033073482"><ele>1258.0</ele><time>2026-03-26T11:30:22.907Z</time></trkpt><trkpt lat="30.807350348570736" lon="-6.834161329769944"><ele>1258.0</ele><time>2026-03-26T11:30:24.907Z</time></trkpt><trkpt lat="30.80732506828967" lon="-6.83423069618755"><ele>1258.0</ele><time>2026-03-26T11:30:25.907Z</time></trkpt><trkpt lat="30.807285601436835" lon="-6.834309886727938"><ele>1258.0</ele><time>2026-03-26T11:30:26.907Z</time></trkpt><trkpt lat="30.80725999160136" lon="-6.8344035660485005"><ele>1258.0</ele><time>2026-03-26T11:30:27.907Z</time></trkpt><trkpt lat="30.807229791329203" lon="-6.834511582083578"><ele>1258.0</ele><time>2026-03-26T11:30:28.907Z</time></trkpt><trkpt lat="30.80719582959845" lon="-6.834608130687579"><ele>1258.0</ele><time>2026-03-26T11:30:29.907Z</time></trkpt><trkpt lat="30.80715190875225" lon="-6.834713507908287"><ele>1258.4</ele><time>2026-03-26T11:30:30.907Z</time></trkpt><trkpt lat="30.80709900928572" lon="-6.8348221502724265"><ele>1258.8</ele><time>2026-03-26T11:30:31.907Z</time></trkpt><trkpt lat="30.807069718632206" lon="-6.834936530576482"><ele>1259.2</ele><time>2026-03-26T11:30:32.907Z</time></trkpt><trkpt lat="30.80706118771257" lon="-6.835045173128339"><ele>1259.6</ele><time>2026-03-26T11:30:33.907Z</time></trkpt><trkpt lat="30.80705704602789" lon="-6.835173678740169"><ele>1260.0</ele><time>2026-03-26T11:30:34.907Z</time></trkpt><trkpt lat="30.807048140422282" lon="-6.835294989422243"><ele>1260.1666666666667</ele><time>2026-03-26T11:30:35.907Z</time></trkpt><trkpt lat="30.807051452844256" lon="-6.835405030385095"><ele>1260.3333333333333</ele><time>2026-03-26T11:30:36.907Z</time></trkpt><trkpt lat="30.807065063461266" lon="-6.835510753526546"><ele>1260.5</ele><time>2026-03-26T11:30:37.907Z</time></trkpt><trkpt lat="30.807076058251948" lon="-6.8356113825141485"><ele>1260.6666666666665</ele><time>2026-03-26T11:30:38.907Z</time></trkpt><trkpt lat="30.807103275020037" lon="-6.83570697205672"><ele>1260.8333333333333</ele><time>2026-03-26T11:30:39.907Z</time></trkpt><trkpt lat="30.80713669726393" lon="-6.835798319748"><ele>1261.0</ele><time>2026-03-26T11:30:40.907Z</time></trkpt><trkpt lat="30.80716913388293" lon="-6.835886875972731"><ele>1260.6</ele><time>2026-03-26T11:30:41.907Z</time></trkpt><trkpt lat="30.807218850427336" lon="-6.835976893134945"><ele>1260.1999999999998</ele><time>2026-03-26T11:30:42.908Z</time></trkpt><trkpt lat="30.807273911938914" lon="-6.836077318698285"><ele>1259.8000000000002</ele><time>2026-03-26T11:30:43.907Z</time></trkpt><trkpt lat="30.80731970017908" lon="-6.836188673005815"><ele>1259.4</ele><time>2026-03-26T11:30:44.907Z</time></trkpt><trkpt lat="30.807362332661377" lon="-6.836308796516857"><ele>1259.0</ele><time>2026-03-26T11:30:45.907Z</time></trkpt><trkpt lat="30.80738461316581" lon="-6.836437095593944"><ele>1259.0</ele><time>2026-03-26T11:30:46.907Z</time></trkpt><trkpt lat="30.807403773995766" lon="-6.8365689761262205"><ele>1259.0</ele><time>2026-03-26T11:30:47.907Z</time></trkpt><trkpt lat="30.80740374898478" lon="-6.836691407925197"><ele>1259.0</ele><time>2026-03-26T11:30:48.907Z</time></trkpt><trkpt lat="30.80740583081759" lon="-6.836805234904183"><ele>1259.0</ele><time>2026-03-26T11:30:49.907Z</time></trkpt><trkpt lat="30.807390192385075" lon="-6.836907460716026"><ele>1259.0</ele><time>2026-03-26T11:30:50.907Z</time></trkpt><trkpt lat="30.807373167778483" lon="-6.837010439371172"><ele>1258.0</ele><time>2026-03-26T11:30:51.907Z</time></trkpt><trkpt lat="30.807355087865123" lon="-6.837099682045001"><ele>1257.0</ele><time>2026-03-26T11:30:52.907Z</time></trkpt><trkpt lat="30.807347174156735" lon="-6.837186054586336"><ele>1256.0</ele><time>2026-03-26T11:30:53.907Z</time></trkpt><trkpt lat="30.807351372632997" lon="-6.837284562899809"><ele>1255.0</ele><time>2026-03-26T11:30:54.907Z</time></trkpt><trkpt lat="30.807359540320977" lon="-6.837388867785606"><ele>1254.0</ele><time>2026-03-26T11:30:55.907Z</time></trkpt><trkpt lat="30.807361316779197" lon="-6.837486542366587"><ele>1253.0</ele><time>2026-03-26T11:30:56.907Z</time></trkpt><trkpt lat="30.807366664878256" lon="-6.837578583074698"><ele>1251.3333333333335</ele><time>2026-03-26T11:30:57.906Z</time></trkpt><trkpt lat="30.807392602236717" lon="-6.837661112828382"><ele>1249.6666666666667</ele><time>2026-03-26T11:30:58.906Z</time></trkpt><trkpt lat="30.807430208212253" lon="-6.837733581731018"><ele>1248.0</ele><time>2026-03-26T11:30:59.906Z</time></trkpt><trkpt lat="30.807464494272736" lon="-6.837797978300847"><ele>1246.3333333333333</ele><time>2026-03-26T11:31:00.906Z</time></trkpt><trkpt lat="30.80750325788144" lon="-6.8378743638102915"><ele>1244.6666666666665</ele><time>2026-03-26T11:31:01.906Z</time></trkpt><trkpt lat="30.807546623674618" lon="-6.837960230267282"><ele>1243.0</ele><time>2026-03-26T11:31:02.906Z</time></trkpt><trkpt lat="30.807579108123917" lon="-6.838039726725174"><ele>1243.0</ele><time>2026-03-26T11:31:03.906Z</time></trkpt><trkpt lat="30.80760887245303" lon="-6.838126653446789"><ele>1243.0</ele><time>2026-03-26T11:31:04.906Z</time></trkpt><trkpt lat="30.807637704575754" lon="-6.83821074027602"><ele>1243.0</ele><time>2026-03-26T11:31:05.906Z</time></trkpt><trkpt lat="30.807675842077884" lon="-6.838284256087701"><ele>1243.0</ele><time>2026-03-26T11:31:06.906Z</time></trkpt><trkpt lat="30.807740437020517" lon="-6.8383643233943445"><ele>1243.0</ele><time>2026-03-26T11:31:07.906Z</time></trkpt><trkpt lat="30.807830438140414" lon="-6.838450359145674"><ele>1243.0</ele><time>2026-03-26T11:31:08.906Z</time></trkpt><trkpt lat="30.80791586923789" lon="-6.838509313248679"><ele>1243.0</ele><time>2026-03-26T11:31:09.906Z</time></trkpt><trkpt lat="30.807975274299853" lon="-6.838573805579032"><ele>1243.0</ele><time>2026-03-26T11:31:10.906Z</time></trkpt><trkpt lat="30.807993061563053" lon="-6.838665785148895"><ele>1243.0</ele><time>2026-03-26T11:31:11.906Z</time></trkpt><trkpt lat="30.8080071798579" lon="-6.838770590445013"><ele>1243.0</ele><time>2026-03-26T11:31:12.906Z</time></trkpt><trkpt lat="30.80806231633811" lon="-6.838853800227967"><ele>1243.0</ele><time>2026-03-26T11:31:13.906Z</time></trkpt><trkpt lat="30.808172857369108" lon="-6.838926177566283"><ele>1243.0</ele><time>2026-03-26T11:31:14.906Z</time></trkpt><trkpt lat="30.808301783321095" lon="-6.838958149963366"><ele>1243.0</ele><time>2026-03-26T11:31:15.906Z</time></trkpt><trkpt lat="30.808426797875647" lon="-6.838964970660958"><ele>1243.0</ele><time>2026-03-26T11:31:16.906Z</time></trkpt><trkpt lat="30.808496546815153" lon="-6.838937287640759"><ele>1243.0</ele><time>2026-03-26T11:31:17.906Z</time></trkpt><trkpt lat="30.808561667243556" lon="-6.838895051087131"><ele>1243.0</ele><time>2026-03-26T11:31:18.906Z</time></trkpt><trkpt lat="30.808624960884572" lon="-6.83886019559861"><ele>1244.6</ele><time>2026-03-26T11:31:19.906Z</time></trkpt><trkpt lat="30.80870411572538" lon="-6.838867210062186"><ele>1246.1999999999998</ele><time>2026-03-26T11:31:20.906Z</time></trkpt><trkpt lat="30.808776243629584" lon="-6.838900973158423"><ele>1247.8</ele><time>2026-03-26T11:31:21.906Z</time></trkpt><trkpt lat="30.808867285646816" lon="-6.838948557703982"><ele>1249.3999999999999</ele><time>2026-03-26T11:31:22.906Z</time></trkpt><trkpt lat="30.808957883907986" lon="-6.839003598784632"><ele>1251.0</ele><time>2026-03-26T11:31:23.906Z</time></trkpt><trkpt lat="30.809049330392813" lon="-6.839054571182854"><ele>1251.0</ele><time>2026-03-26T11:31:24.906Z</time></trkpt><trkpt lat="30.80914318573641" lon="-6.839099407985165"><ele>1251.0</ele><time>2026-03-26T11:31:25.906Z</time></trkpt><trkpt lat="30.8092321176823" lon="-6.839148057748793"><ele>1251.0</ele><time>2026-03-26T11:31:26.906Z</time></trkpt><trkpt lat="30.809340533433698" lon="-6.83918737024218"><ele>1251.0</ele><time>2026-03-26T11:31:27.906Z</time></trkpt><trkpt lat="30.809466036901267" lon="-6.839216430787971"><ele>1251.0</ele><time>2026-03-26T11:31:28.906Z</time></trkpt><trkpt lat="30.809611846343305" lon="-6.839231580759754"><ele>1252.2</ele><time>2026-03-26T11:31:29.906Z</time></trkpt><trkpt lat="30.809722800006586" lon="-6.839214172676992"><ele>1253.3999999999999</ele><time>2026-03-26T11:31:30.906Z</time></trkpt><trkpt lat="30.80980708832123" lon="-6.839209644202996"><ele>1254.6</ele><time>2026-03-26T11:31:31.906Z</time></trkpt><trkpt lat="30.80988668990372" lon="-6.839230351970531"><ele>1255.8</ele><time>2026-03-26T11:31:32.906Z</time></trkpt><trkpt lat="30.809959034811758" lon="-6.839287089103142"><ele>1257.0</ele><time>2026-03-26T11:31:33.906Z</time></trkpt><trkpt lat="30.810041105310336" lon="-6.83934057244976"><ele>1257.8333333333333</ele><time>2026-03-26T11:31:34.906Z</time></trkpt><trkpt lat="30.81010823324361" lon="-6.839390581971731"><ele>1258.6666666666667</ele><time>2026-03-26T11:31:35.906Z</time></trkpt><trkpt lat="30.81016546940371" lon="-6.8394429279427555"><ele>1259.5</ele><time>2026-03-26T11:31:36.906Z</time></trkpt><trkpt lat="30.810230902829858" lon="-6.839492876771223"><ele>1260.3333333333335</ele><time>2026-03-26T11:31:37.906Z</time></trkpt><trkpt lat="30.8102822767751" lon="-6.839537705254627"><ele>1261.1666666666667</ele><time>2026-03-26T11:31:38.906Z</time></trkpt><trkpt lat="30.810332309949843" lon="-6.839582515491322"><ele>1262.0</ele><time>2026-03-26T11:31:39.906Z</time></trkpt><trkpt lat="30.810400549252815" lon="-6.839687036305339"><ele>1259.5</ele><time>2026-03-26T11:31:41.906Z</time></trkpt><trkpt lat="30.810486739118115" lon="-6.839789984872888"><ele>1257.0</ele><time>2026-03-26T11:31:43.906Z</time></trkpt><trkpt lat="30.81054027400281" lon="-6.839918341908884"><ele>1254.5</ele><time>2026-03-26T11:31:45.906Z</time></trkpt><trkpt lat="30.81059774429368" lon="-6.840056141110339"><ele>1252.0</ele><time>2026-03-26T11:31:47.906Z</time></trkpt><trkpt lat="30.810639256554648" lon="-6.84018184619313"><ele>1251.0</ele><time>2026-03-26T11:31:49.906Z</time></trkpt><trkpt lat="30.810674072965963" lon="-6.840256843879406"><ele>1250.0</ele><time>2026-03-26T11:31:50.906Z</time></trkpt><trkpt lat="30.81070101174358" lon="-6.840352353164861"><ele>1249.0</ele><time>2026-03-26T11:31:51.906Z</time></trkpt><trkpt lat="30.810728038179697" lon="-6.84044845854116"><ele>1248.0</ele><time>2026-03-26T11:31:52.906Z</time></trkpt><trkpt lat="30.810755926852003" lon="-6.840546788263907"><ele>1247.0</ele><time>2026-03-26T11:31:53.906Z</time></trkpt><trkpt lat="30.81078394610016" lon="-6.840637964628894"><ele>1246.0</ele><time>2026-03-26T11:31:54.906Z</time></trkpt><trkpt lat="30.81081456119267" lon="-6.840733054176219"><ele>1246.0</ele><time>2026-03-26T11:31:55.906Z</time></trkpt><trkpt lat="30.8108337396373" lon="-6.840825593670406"><ele>1246.0</ele><time>2026-03-26T11:31:56.906Z</time></trkpt><trkpt lat="30.81082181076393" lon="-6.84090631518671"><ele>1246.0</ele><time>2026-03-26T11:31:57.906Z</time></trkpt><trkpt lat="30.81078158418519" lon="-6.841054583533273"><ele>1246.0</ele><time>2026-03-26T11:31:59.906Z</time></trkpt><trkpt lat="30.8107726446351" lon="-6.841141170217174"><ele>1246.0</ele><time>2026-03-26T11:32:00.906Z</time></trkpt><trkpt lat="30.810751550967193" lon="-6.841221388653007"><ele>1246.0</ele><time>2026-03-26T11:32:01.906Z</time></trkpt><trkpt lat="30.810729130040336" lon="-6.841306208310885"><ele>1244.6666666666665</ele><time>2026-03-26T11:32:02.906Z</time></trkpt><trkpt lat="30.810725315188982" lon="-6.8414370863940075"><ele>1243.3333333333333</ele><time>2026-03-26T11:32:04.906Z</time></trkpt><trkpt lat="30.810731215646488" lon="-6.841510548195549"><ele>1242.0</ele><time>2026-03-26T11:32:05.906Z</time></trkpt><trkpt lat="30.8107455354842" lon="-6.841647042955339"><ele>1240.6666666666667</ele><time>2026-03-26T11:32:07.906Z</time></trkpt><trkpt lat="30.810786600754817" lon="-6.841702945365807"><ele>1239.3333333333335</ele><time>2026-03-26T11:32:08.906Z</time></trkpt><trkpt lat="30.810846367044487" lon="-6.841758217224527"><ele>1238.0</ele><time>2026-03-26T11:32:09.906Z</time></trkpt><trkpt lat="30.810935716358582" lon="-6.841847073085199"><ele>1237.75</ele><time>2026-03-26T11:32:10.906Z</time></trkpt><trkpt lat="30.811042523314565" lon="-6.841945254379793"><ele>1237.5</ele><time>2026-03-26T11:32:11.906Z</time></trkpt><trkpt lat="30.811088961157314" lon="-6.842055329872486"><ele>1237.25</ele><time>2026-03-26T11:32:12.906Z</time></trkpt><trkpt lat="30.81114145047339" lon="-6.842193235938121"><ele>1237.0</ele><time>2026-03-26T11:32:13.906Z</time></trkpt><trkpt lat="30.81118561124403" lon="-6.842313062903059"><ele>1237.0</ele><time>2026-03-26T11:32:14.906Z</time></trkpt><trkpt lat="30.81123524401221" lon="-6.842412289086008"><ele>1237.0</ele><time>2026-03-26T11:32:15.906Z</time></trkpt><trkpt lat="30.811263595410363" lon="-6.8425098094858345"><ele>1237.0</ele><time>2026-03-26T11:32:16.906Z</time></trkpt><trkpt lat="30.811298950878534" lon="-6.842610381267239"><ele>1237.0</ele><time>2026-03-26T11:32:17.906Z</time></trkpt><trkpt lat="30.811328151871887" lon="-6.84271522250664"><ele>1237.0</ele><time>2026-03-26T11:32:18.906Z</time></trkpt><trkpt lat="30.811352742681873" lon="-6.8428124273521425"><ele>1235.8</ele><time>2026-03-26T11:32:19.906Z</time></trkpt><trkpt lat="30.811370184782614" lon="-6.842933148481757"><ele>1234.6</ele><time>2026-03-26T11:32:20.906Z</time></trkpt><trkpt lat="30.811394220244544" lon="-6.843059582160843"><ele>1233.3999999999999</ele><time>2026-03-26T11:32:21.906Z</time></trkpt><trkpt lat="30.81144220506674" lon="-6.843170986122104"><ele>1232.2</ele><time>2026-03-26T11:32:22.906Z</time></trkpt><trkpt lat="30.811511649624375" lon="-6.843266788441326"><ele>1231.0</ele><time>2026-03-26T11:32:23.906Z</time></trkpt><trkpt lat="30.811592701906857" lon="-6.843357964942886"><ele>1231.0</ele><time>2026-03-26T11:32:24.906Z</time></trkpt><trkpt lat="30.811659561452483" lon="-6.843450531717676"><ele>1231.0</ele><time>2026-03-26T11:32:25.906Z</time></trkpt><trkpt lat="30.811718142564168" lon="-6.84354859159237"><ele>1231.0</ele><time>2026-03-26T11:32:26.906Z</time></trkpt><trkpt lat="30.811768951178582" lon="-6.843649359084427"><ele>1231.0</ele><time>2026-03-26T11:32:27.906Z</time></trkpt><trkpt lat="30.811808435907082" lon="-6.843746451114849"><ele>1231.0</ele><time>2026-03-26T11:32:28.906Z</time></trkpt><trkpt lat="30.81183573418404" lon="-6.843844800011564"><ele>1230.6666666666665</ele><time>2026-03-26T11:32:29.906Z</time></trkpt><trkpt lat="30.81183495131353" lon="-6.8439341293649445"><ele>1230.3333333333333</ele><time>2026-03-26T11:32:30.906Z</time></trkpt><trkpt lat="30.81188040952169" lon="-6.844014395947749"><ele>1230.0</ele><time>2026-03-26T11:32:32.906Z</time></trkpt><trkpt lat="30.811974402362264" lon="-6.844020299426337"><ele>1229.6666666666667</ele><time>2026-03-26T11:32:34.905Z</time></trkpt><trkpt lat="30.81206501101125" lon="-6.844066767234278"><ele>1229.3333333333335</ele><time>2026-03-26T11:32:36.905Z</time></trkpt><trkpt lat="30.81211301885578" lon="-6.844143202340211"><ele>1229.0</ele><time>2026-03-26T11:32:37.905Z</time></trkpt><trkpt lat="30.812162595883716" lon="-6.844245696957348"><ele>1227.6000000000001</ele><time>2026-03-26T11:32:39.905Z</time></trkpt><trkpt lat="30.812223765368916" lon="-6.8443534499569525"><ele>1226.2</ele><time>2026-03-26T11:32:42.905Z</time></trkpt><trkpt lat="30.812282259994635" lon="-6.8444447024328445"><ele>1224.8000000000002</ele><time>2026-03-26T11:32:44.905Z</time></trkpt><trkpt lat="30.81235360523758" lon="-6.844554701009604"><ele>1223.4</ele><time>2026-03-26T11:32:46.905Z</time></trkpt><trkpt lat="30.812402314889244" lon="-6.844627165918797"><ele>1222.0</ele><time>2026-03-26T11:32:47.905Z</time></trkpt><trkpt lat="30.812454042179976" lon="-6.844705938658297"><ele>1222.0</ele><time>2026-03-26T11:32:48.906Z</time></trkpt><trkpt lat="30.812520529488758" lon="-6.844808937201005"><ele>1222.0</ele><time>2026-03-26T11:32:50.907Z</time></trkpt><trkpt lat="30.81255541000807" lon="-6.844877358855087"><ele>1222.0</ele><time>2026-03-26T11:32:51.906Z</time></trkpt><trkpt lat="30.81258787918715" lon="-6.84494363459561"><ele>1222.0</ele><time>2026-03-26T11:32:52.906Z</time></trkpt><trkpt lat="30.812626083062202" lon="-6.845025775908806"><ele>1222.0</ele><time>2026-03-26T11:32:53.906Z</time></trkpt><trkpt lat="30.8126886884249" lon="-6.845134313721629"><ele>1222.0</ele><time>2026-03-26T11:32:54.907Z</time></trkpt><trkpt lat="30.81273804719023" lon="-6.845232349715602"><ele>1219.75</ele><time>2026-03-26T11:32:55.906Z</time></trkpt><trkpt lat="30.812797525032426" lon="-6.845349452814507"><ele>1217.5</ele><time>2026-03-26T11:32:56.906Z</time></trkpt><trkpt lat="30.812862289768198" lon="-6.845466278331388"><ele>1215.25</ele><time>2026-03-26T11:32:57.906Z</time></trkpt><trkpt lat="30.812905632668503" lon="-6.845575007602824"><ele>1213.0</ele><time>2026-03-26T11:32:58.906Z</time></trkpt><trkpt lat="30.812954109898882" lon="-6.845706442804109"><ele>1213.0</ele><time>2026-03-26T11:32:59.906Z</time></trkpt><trkpt lat="30.81299309265467" lon="-6.845848199906004"><ele>1213.0</ele><time>2026-03-26T11:33:00.906Z</time></trkpt><trkpt lat="30.813023614743784" lon="-6.845974469833191"><ele>1213.0</ele><time>2026-03-26T11:33:01.906Z</time></trkpt><trkpt lat="30.813046277299847" lon="-6.846080726575845"><ele>1213.0</ele><time>2026-03-26T11:33:02.906Z</time></trkpt><trkpt lat="30.813093897754754" lon="-6.84620598317973"><ele>1212.0</ele><time>2026-03-26T11:33:03.906Z</time></trkpt><trkpt lat="30.81313922055586" lon="-6.846346528776037"><ele>1211.0</ele><time>2026-03-26T11:33:04.906Z</time></trkpt><trkpt lat="30.813186729403622" lon="-6.846482100346307"><ele>1210.0</ele><time>2026-03-26T11:33:05.906Z</time></trkpt><trkpt lat="30.813227911444077" lon="-6.84661703878079"><ele>1209.0</ele><time>2026-03-26T11:33:06.906Z</time></trkpt><trkpt lat="30.813281172452722" lon="-6.846753307642238"><ele>1208.0</ele><time>2026-03-26T11:33:07.906Z</time></trkpt><trkpt lat="30.813342619947218" lon="-6.846874543620702"><ele>1207.0</ele><time>2026-03-26T11:33:08.906Z</time></trkpt><trkpt lat="30.813401003749433" lon="-6.846995416897293"><ele>1206.0</ele><time>2026-03-26T11:33:09.906Z</time></trkpt><trkpt lat="30.813448862334784" lon="-6.847137957708525"><ele>1205.0</ele><time>2026-03-26T11:33:10.906Z</time></trkpt><trkpt lat="30.813484562149593" lon="-6.847295245032902"><ele>1205.0</ele><time>2026-03-26T11:33:11.906Z</time></trkpt><trkpt lat="30.81349442950191" lon="-6.847448481242183"><ele>1205.0</ele><time>2026-03-26T11:33:12.906Z</time></trkpt><trkpt lat="30.81348592403738" lon="-6.8475867716147425"><ele>1205.0</ele><time>2026-03-26T11:33:13.906Z</time></trkpt><trkpt lat="30.81348013533775" lon="-6.847712406693916"><ele>1205.0</ele><time>2026-03-26T11:33:14.906Z</time></trkpt><trkpt lat="30.81349981874051" lon="-6.847820728156248"><ele>1204.6</ele><time>2026-03-26T11:33:15.908Z</time></trkpt><trkpt lat="30.813557560591267" lon="-6.847918111244595"><ele>1204.2</ele><time>2026-03-26T11:33:16.909Z</time></trkpt><trkpt lat="30.813651744531352" lon="-6.847999568514875"><ele>1203.8</ele><time>2026-03-26T11:33:17.911Z</time></trkpt><trkpt lat="30.813742832618438" lon="-6.848045236874303"><ele>1203.4</ele><time>2026-03-26T11:33:18.912Z</time></trkpt><trkpt lat="30.81384144705117" lon="-6.848022803586351"><ele>1203.0</ele><time>2026-03-26T11:33:19.914Z</time></trkpt><trkpt lat="30.813948784243063" lon="-6.84800347968228"><ele>1203.0</ele><time>2026-03-26T11:33:20.915Z</time></trkpt><trkpt lat="30.814051497088965" lon="-6.847994082213966"><ele>1203.0</ele><time>2026-03-26T11:33:21.916Z</time></trkpt><trkpt lat="30.81412789575984" lon="-6.847983911683315"><ele>1203.0</ele><time>2026-03-26T11:33:22.917Z</time></trkpt><trkpt lat="30.814242329813297" lon="-6.848030991506681"><ele>1203.0</ele><time>2026-03-26T11:33:24.919Z</time></trkpt><trkpt lat="30.814288223174334" lon="-6.848095425538932"><ele>1203.0</ele><time>2026-03-26T11:33:25.92Z</time></trkpt><trkpt lat="30.81435733877427" lon="-6.8481708885542645"><ele>1204.0</ele><time>2026-03-26T11:33:26.921Z</time></trkpt><trkpt lat="30.814457080062162" lon="-6.8482057540880845"><ele>1205.0</ele><time>2026-03-26T11:33:27.922Z</time></trkpt><trkpt lat="30.81458737128433" lon="-6.8482328446708856"><ele>1206.0</ele><time>2026-03-26T11:33:28.923Z</time></trkpt><trkpt lat="30.814691672217762" lon="-6.84831462405449"><ele>1207.0</ele><time>2026-03-26T11:33:29.923Z</time></trkpt><trkpt lat="30.81479078974605" lon="-6.848379534482879"><ele>1207.0</ele><time>2026-03-26T11:33:30.924Z</time></trkpt><trkpt lat="30.81486668650006" lon="-6.84843061516418"><ele>1207.0</ele><time>2026-03-26T11:33:31.924Z</time></trkpt><trkpt lat="30.814969665485936" lon="-6.848497708828959"><ele>1207.0</ele><time>2026-03-26T11:33:33.926Z</time></trkpt><trkpt lat="30.81506575960192" lon="-6.8485656361351195"><ele>1207.0</ele><time>2026-03-26T11:33:35.927Z</time></trkpt><trkpt lat="30.815109025711042" lon="-6.848623593246506"><ele>1207.0</ele><time>2026-03-26T11:33:36.927Z</time></trkpt><trkpt lat="30.815141492608543" lon="-6.848701070387776"><ele>1206.1666666666665</ele><time>2026-03-26T11:33:37.927Z</time></trkpt><trkpt lat="30.81517085251288" lon="-6.848801620541682"><ele>1205.3333333333333</ele><time>2026-03-26T11:33:38.928Z</time></trkpt><trkpt lat="30.815179773185157" lon="-6.8488933744414595"><ele>1204.5</ele><time>2026-03-26T11:33:39.928Z</time></trkpt><trkpt lat="30.815178948288583" lon="-6.848985093363356"><ele>1203.6666666666667</ele><time>2026-03-26T11:33:40.929Z</time></trkpt><trkpt lat="30.815173801034913" lon="-6.849074425352591"><ele>1202.8333333333335</ele><time>2026-03-26T11:33:41.929Z</time></trkpt><trkpt lat="30.815169022608423" lon="-6.849153958277685"><ele>1202.0</ele><time>2026-03-26T11:33:42.929Z</time></trkpt><trkpt lat="30.81515949076471" lon="-6.849285013949335"><ele>1201.4</ele><time>2026-03-26T11:33:44.93Z</time></trkpt><trkpt lat="30.81515693847518" lon="-6.849411422375966"><ele>1200.8000000000002</ele><time>2026-03-26T11:33:46.93Z</time></trkpt><trkpt lat="30.81516087230634" lon="-6.84955155709456"><ele>1200.2</ele><time>2026-03-26T11:33:48.931Z</time></trkpt><trkpt lat="30.815159393915422" lon="-6.84965841811079"><ele>1199.6000000000001</ele><time>2026-03-26T11:33:50.931Z</time></trkpt><trkpt lat="30.81516157419915" lon="-6.849786285441877"><ele>1199.0</ele><time>2026-03-26T11:33:52.931Z</time></trkpt><trkpt lat="30.815163589638097" lon="-6.849861464676211"><ele>1198.8333333333335</ele><time>2026-03-26T11:33:53.931Z</time></trkpt><trkpt lat="30.81515148843236" lon="-6.849940331253147"><ele>1198.6666666666667</ele><time>2026-03-26T11:33:54.932Z</time></trkpt><trkpt lat="30.815141580132533" lon="-6.850017174989149"><ele>1198.5</ele><time>2026-03-26T11:33:55.932Z</time></trkpt><trkpt lat="30.815108025536652" lon="-6.8501555818546205"><ele>1198.3333333333333</ele><time>2026-03-26T11:33:57.932Z</time></trkpt><trkpt lat="30.81508807154747" lon="-6.850233483079793"><ele>1198.1666666666665</ele><time>2026-03-26T11:33:58.932Z</time></trkpt><trkpt lat="30.815051582008063" lon="-6.850306202133646"><ele>1198.0</ele><time>2026-03-26T11:33:59.932Z</time></trkpt><trkpt lat="30.815018097329368" lon="-6.850414435918951"><ele>1197.75</ele><time>2026-03-26T11:34:00.932Z</time></trkpt><trkpt lat="30.81498636457895" lon="-6.850570468911971"><ele>1197.5</ele><time>2026-03-26T11:34:01.932Z</time></trkpt><trkpt lat="30.814986744828293" lon="-6.850762462478892"><ele>1197.25</ele><time>2026-03-26T11:34:02.932Z</time></trkpt><trkpt lat="30.814996940960107" lon="-6.850910069018778"><ele>1197.0</ele><time>2026-03-26T11:34:03.932Z</time></trkpt><trkpt lat="30.81500320154082" lon="-6.851000696686472"><ele>1197.2</ele><time>2026-03-26T11:34:04.932Z</time></trkpt><trkpt lat="30.815039390224626" lon="-6.851125237103805"><ele>1197.4</ele><time>2026-03-26T11:34:06.933Z</time></trkpt><trkpt lat="30.81513657077494" lon="-6.851170120639794"><ele>1197.6</ele><time>2026-03-26T11:34:08.933Z</time></trkpt><trkpt lat="30.815240129779053" lon="-6.851196678206039"><ele>1197.8</ele><time>2026-03-26T11:34:10.933Z</time></trkpt><trkpt lat="30.815321792812135" lon="-6.851177889748685"><ele>1198.0</ele><time>2026-03-26T11:34:11.933Z</time></trkpt><trkpt lat="30.81539914596115" lon="-6.851164129044649"><ele>1198.0</ele><time>2026-03-26T11:34:12.933Z</time></trkpt><trkpt lat="30.815466601137977" lon="-6.8512134682857715"><ele>1198.0</ele><time>2026-03-26T11:34:13.933Z</time></trkpt><trkpt lat="30.815499860282237" lon="-6.851326228549517"><ele>1198.0</ele><time>2026-03-26T11:34:14.933Z</time></trkpt><trkpt lat="30.815510468756923" lon="-6.851459307447488"><ele>1198.0</ele><time>2026-03-26T11:34:15.933Z</time></trkpt><trkpt lat="30.81551120692692" lon="-6.851561734995522"><ele>1198.0</ele><time>2026-03-26T11:34:16.933Z</time></trkpt><trkpt lat="30.815517479113485" lon="-6.851641105798113"><ele>1198.0</ele><time>2026-03-26T11:34:17.933Z</time></trkpt><trkpt lat="30.815569663010173" lon="-6.851746941446907"><ele>1198.0</ele><time>2026-03-26T11:34:18.933Z</time></trkpt><trkpt lat="30.81564426962186" lon="-6.851847364106413"><ele>1198.0</ele><time>2026-03-26T11:34:19.933Z</time></trkpt><trkpt lat="30.81571180417234" lon="-6.85192457457462"><ele>1198.0</ele><time>2026-03-26T11:34:20.933Z</time></trkpt><trkpt lat="30.815793896028776" lon="-6.8519838885448845"><ele>1198.0</ele><time>2026-03-26T11:34:21.933Z</time></trkpt><trkpt lat="30.815884629389867" lon="-6.852052491955838"><ele>1197.8333333333333</ele><time>2026-03-26T11:34:22.933Z</time></trkpt><trkpt lat="30.815940360152496" lon="-6.8521288127584095"><ele>1197.6666666666665</ele><time>2026-03-26T11:34:23.933Z</time></trkpt><trkpt lat="30.815979998960696" lon="-6.8522011555405715"><ele>1197.5</ele><time>2026-03-26T11:34:24.933Z</time></trkpt><trkpt lat="30.81604410887512" lon="-6.852310186238691"><ele>1197.3333333333333</ele><time>2026-03-26T11:34:26.933Z</time></trkpt><trkpt lat="30.81610550466518" lon="-6.852361021683086"><ele>1197.1666666666667</ele><time>2026-03-26T11:34:28.933Z</time></trkpt><trkpt lat="30.81617290052503" lon="-6.85233840488107"><ele>1197.0</ele><time>2026-03-26T11:34:31.933Z</time></trkpt><trkpt lat="30.81622706116516" lon="-6.852272067829431"><ele>1197.6666666666667</ele><time>2026-03-26T11:34:36.933Z</time></trkpt><trkpt lat="30.81631090568421" lon="-6.852157343045258"><ele>1198.3333333333333</ele><time>2026-03-26T11:35:31.933Z</time></trkpt><trkpt lat="30.816359957465405" lon="-6.852104567949271"><ele>1199.0</ele><time>2026-03-26T11:35:32.933Z</time></trkpt><trkpt lat="30.816412798434254" lon="-6.852055128591835"><ele>1199.6666666666665</ele><time>2026-03-26T11:35:33.933Z</time></trkpt><trkpt lat="30.816462005809" lon="-6.852001221370116"><ele>1200.3333333333333</ele><time>2026-03-26T11:35:34.933Z</time></trkpt><trkpt lat="30.816522163661592" lon="-6.851939657903653"><ele>1201.0</ele><time>2026-03-26T11:35:35.933Z</time></trkpt><trkpt lat="30.8165901163116" lon="-6.851864792608808"><ele>1201.2</ele><time>2026-03-26T11:35:36.933Z</time></trkpt><trkpt lat="30.816661007859977" lon="-6.8517864812107785"><ele>1201.3999999999999</ele><time>2026-03-26T11:35:37.933Z</time></trkpt><trkpt lat="30.816736398437566" lon="-6.8517071996248635"><ele>1201.6</ele><time>2026-03-26T11:35:38.933Z</time></trkpt><trkpt lat="30.81682121672997" lon="-6.851621741283825"><ele>1201.8</ele><time>2026-03-26T11:35:39.933Z</time></trkpt><trkpt lat="30.81691474186858" lon="-6.851541550713485"><ele>1202.0</ele><time>2026-03-26T11:35:40.933Z</time></trkpt><trkpt lat="30.817019223624786" lon="-6.85145966818776"><ele>1202.25</ele><time>2026-03-26T11:35:41.933Z</time></trkpt><trkpt lat="30.817129604193294" lon="-6.851378382483256"><ele>1202.5</ele><time>2026-03-26T11:35:42.933Z</time></trkpt><trkpt lat="30.81722936657455" lon="-6.851299673785385"><ele>1202.75</ele><time>2026-03-26T11:35:43.933Z</time></trkpt><trkpt lat="30.817315369323737" lon="-6.851234127834173"><ele>1203.0</ele><time>2026-03-26T11:35:44.933Z</time></trkpt><trkpt lat="30.81739892087657" lon="-6.851167915966128"><ele>1203.0</ele><time>2026-03-26T11:35:45.933Z</time></trkpt><trkpt lat="30.817502501029388" lon="-6.851098082316635"><ele>1203.0</ele><time>2026-03-26T11:35:46.933Z</time></trkpt><trkpt lat="30.817612643973124" lon="-6.851039023225362"><ele>1203.0</ele><time>2026-03-26T11:35:47.933Z</time></trkpt><trkpt lat="30.817721983555785" lon="-6.850973384177301"><ele>1203.0</ele><time>2026-03-26T11:35:48.933Z</time></trkpt><trkpt lat="30.817832312341736" lon="-6.85090808509756"><ele>1205.6666666666667</ele><time>2026-03-26T11:35:49.933Z</time></trkpt><trkpt lat="30.817953360886175" lon="-6.850832105202065"><ele>1208.3333333333335</ele><time>2026-03-26T11:35:50.933Z</time></trkpt><trkpt lat="30.818089037489" lon="-6.850736657510428"><ele>1211.0</ele><time>2026-03-26T11:35:51.933Z</time></trkpt><trkpt lat="30.818228888633346" lon="-6.850643527408296"><ele>1211.0</ele><time>2026-03-26T11:35:52.933Z</time></trkpt><trkpt lat="30.81834770666597" lon="-6.8505631633709925"><ele>1211.0</ele><time>2026-03-26T11:35:53.933Z</time></trkpt><trkpt lat="30.81845346807944" lon="-6.850487083215381"><ele>1211.0</ele><time>2026-03-26T11:35:54.933Z</time></trkpt><trkpt lat="30.818569430139462" lon="-6.850383922791868"><ele>1211.0</ele><time>2026-03-26T11:35:55.933Z</time></trkpt><trkpt lat="30.818686527458684" lon="-6.8502841242801145"><ele>1211.25</ele><time>2026-03-26T11:35:56.933Z</time></trkpt><trkpt lat="30.818811086885976" lon="-6.850219807374215"><ele>1211.5</ele><time>2026-03-26T11:35:57.933Z</time></trkpt><trkpt lat="30.818950499277875" lon="-6.85017412923167"><ele>1211.75</ele><time>2026-03-26T11:35:58.933Z</time></trkpt><trkpt lat="30.819080990612168" lon="-6.850121838069177"><ele>1212.0</ele><time>2026-03-26T11:35:59.933Z</time></trkpt><trkpt lat="30.819183933245007" lon="-6.8500566170113695"><ele>1213.25</ele><time>2026-03-26T11:36:00.933Z</time></trkpt><trkpt lat="30.819269835765308" lon="-6.849992301000326"><ele>1214.5</ele><time>2026-03-26T11:36:01.933Z</time></trkpt><trkpt lat="30.81936127307196" lon="-6.8499166707876755"><ele>1215.75</ele><time>2026-03-26T11:36:02.933Z</time></trkpt><trkpt lat="30.81945357423022" lon="-6.849830932348541"><ele>1217.0</ele><time>2026-03-26T11:36:03.933Z</time></trkpt><trkpt lat="30.819547146281966" lon="-6.849731595408114"><ele>1217.8</ele><time>2026-03-26T11:36:04.933Z</time></trkpt><trkpt lat="30.819628932846946" lon="-6.849658081975385"><ele>1218.6</ele><time>2026-03-26T11:36:05.933Z</time></trkpt><trkpt lat="30.819729592151663" lon="-6.849613023809671"><ele>1219.3999999999999</ele><time>2026-03-26T11:36:06.933Z</time></trkpt><trkpt lat="30.819835893616244" lon="-6.849597195667576"><ele>1220.2</ele><time>2026-03-26T11:36:07.933Z</time></trkpt><trkpt lat="30.81994056898738" lon="-6.849608215659181"><ele>1221.0</ele><time>2026-03-26T11:36:08.933Z</time></trkpt><trkpt lat="30.820049455140943" lon="-6.8496148777434325"><ele>1221.0</ele><time>2026-03-26T11:36:09.933Z</time></trkpt><trkpt lat="30.82013371621789" lon="-6.849582387664155"><ele>1221.0</ele><time>2026-03-26T11:36:10.933Z</time></trkpt><trkpt lat="30.82023349385329" lon="-6.8494970097223735"><ele>1221.0</ele><time>2026-03-26T11:36:11.933Z</time></trkpt><trkpt lat="30.820351152400132" lon="-6.849385209140005"><ele>1221.0</ele><time>2026-03-26T11:36:12.933Z</time></trkpt><trkpt lat="30.820479231797606" lon="-6.849259329444656"><ele>1223.25</ele><time>2026-03-26T11:36:13.933Z</time></trkpt><trkpt lat="30.820594244032375" lon="-6.849133258423431"><ele>1225.5</ele><time>2026-03-26T11:36:14.933Z</time></trkpt><trkpt lat="30.82068680914402" lon="-6.849050588065506"><ele>1227.75</ele><time>2026-03-26T11:36:15.933Z</time></trkpt><trkpt lat="30.820784782776116" lon="-6.848980529728277"><ele>1230.0</ele><time>2026-03-26T11:36:16.933Z</time></trkpt><trkpt lat="30.820864403816532" lon="-6.8489139591071515"><ele>1230.0</ele><time>2026-03-26T11:36:17.933Z</time></trkpt><trkpt lat="30.82091417488636" lon="-6.848848495780757"><ele>1230.0</ele><time>2026-03-26T11:36:18.933Z</time></trkpt><trkpt lat="30.820932188678256" lon="-6.848777354104841"><ele>1230.0</ele><time>2026-03-26T11:36:19.933Z</time></trkpt><trkpt lat="30.820962792911587" lon="-6.848660778691753"><ele>1230.0</ele><time>2026-03-26T11:36:21.933Z</time></trkpt><trkpt lat="30.821062063596646" lon="-6.84857804984049"><ele>1230.0</ele><time>2026-03-26T11:36:23.933Z</time></trkpt><trkpt lat="30.821138345283746" lon="-6.848553680208283"><ele>1230.0</ele><time>2026-03-26T11:36:24.933Z</time></trkpt><trkpt lat="30.821205733946183" lon="-6.8485262462620815"><ele>1231.0</ele><time>2026-03-26T11:36:25.933Z</time></trkpt><trkpt lat="30.821263954378875" lon="-6.848475702003498"><ele>1232.0</ele><time>2026-03-26T11:36:26.933Z</time></trkpt><trkpt lat="30.82132067107193" lon="-6.84841102245219"><ele>1233.0</ele><time>2026-03-26T11:36:27.933Z</time></trkpt><trkpt lat="30.821394264915778" lon="-6.848339853530862"><ele>1234.0</ele><time>2026-03-26T11:36:28.933Z</time></trkpt><trkpt lat="30.821478767221837" lon="-6.848275417008531"><ele>1235.0</ele><time>2026-03-26T11:36:29.933Z</time></trkpt><trkpt lat="30.821561148284868" lon="-6.848204156513187"><ele>1235.6666666666667</ele><time>2026-03-26T11:36:30.933Z</time></trkpt><trkpt lat="30.82161795031276" lon="-6.848117981328132"><ele>1236.3333333333335</ele><time>2026-03-26T11:36:31.933Z</time></trkpt><trkpt lat="30.821667275911935" lon="-6.848038089969356"><ele>1237.0</ele><time>2026-03-26T11:36:32.933Z</time></trkpt><trkpt lat="30.821717873713496" lon="-6.847969030762537"><ele>1237.6666666666667</ele><time>2026-03-26T11:36:33.933Z</time></trkpt><trkpt lat="30.821763569562602" lon="-6.847892684394975"><ele>1238.3333333333333</ele><time>2026-03-26T11:36:34.933Z</time></trkpt><trkpt lat="30.82180697295677" lon="-6.847807155796373"><ele>1239.0</ele><time>2026-03-26T11:36:35.933Z</time></trkpt><trkpt lat="30.82186907664363" lon="-6.847731906318452"><ele>1240.4</ele><time>2026-03-26T11:36:36.933Z</time></trkpt><trkpt lat="30.82194347686715" lon="-6.847673404417756"><ele>1241.8000000000002</ele><time>2026-03-26T11:36:37.933Z</time></trkpt><trkpt lat="30.822025927889257" lon="-6.847612194229021"><ele>1243.1999999999998</ele><time>2026-03-26T11:36:38.933Z</time></trkpt><trkpt lat="30.82212035309657" lon="-6.847545319113088"><ele>1244.6</ele><time>2026-03-26T11:36:39.933Z</time></trkpt><trkpt lat="30.82222094703404" lon="-6.847484864149235"><ele>1246.0</ele><time>2026-03-26T11:36:40.933Z</time></trkpt><trkpt lat="30.822318900506378" lon="-6.847434984595313"><ele>1246.2</ele><time>2026-03-26T11:36:41.933Z</time></trkpt><trkpt lat="30.82241267128022" lon="-6.847376967380377"><ele>1246.3999999999999</ele><time>2026-03-26T11:36:42.933Z</time></trkpt><trkpt lat="30.82248935277825" lon="-6.847312495772212"><ele>1246.6</ele><time>2026-03-26T11:36:43.933Z</time></trkpt><trkpt lat="30.822556885122353" lon="-6.847267121744278"><ele>1246.8</ele><time>2026-03-26T11:36:44.933Z</time></trkpt><trkpt lat="30.822632375009594" lon="-6.847214296177721"><ele>1247.0</ele><time>2026-03-26T11:36:45.933Z</time></trkpt><trkpt lat="30.82272305943203" lon="-6.847167772233129"><ele>1247.8333333333335</ele><time>2026-03-26T11:36:46.933Z</time></trkpt><trkpt lat="30.822800840907767" lon="-6.847132322308772"><ele>1248.6666666666667</ele><time>2026-03-26T11:36:47.933Z</time></trkpt><trkpt lat="30.822875223572083" lon="-6.847108267167272"><ele>1249.5</ele><time>2026-03-26T11:36:48.933Z</time></trkpt><trkpt lat="30.822955091249195" lon="-6.847076075506302"><ele>1250.3333333333333</ele><time>2026-03-26T11:36:49.933Z</time></trkpt><trkpt lat="30.823039192704233" lon="-6.847048884336338"><ele>1251.1666666666665</ele><time>2026-03-26T11:36:50.933Z</time></trkpt><trkpt lat="30.823120867068045" lon="-6.847024157461819"><ele>1252.0</ele><time>2026-03-26T11:36:51.933Z</time></trkpt><trkpt lat="30.823202840483393" lon="-6.8469891277653145"><ele>1252.0</ele><time>2026-03-26T11:36:52.933Z</time></trkpt><trkpt lat="30.82328066458406" lon="-6.846956427224899"><ele>1252.0</ele><time>2026-03-26T11:36:53.933Z</time></trkpt><trkpt lat="30.823361882080007" lon="-6.846925533313343"><ele>1252.0</ele><time>2026-03-26T11:36:54.933Z</time></trkpt><trkpt lat="30.823446860807014" lon="-6.846883360263554"><ele>1252.0</ele><time>2026-03-26T11:36:55.933Z</time></trkpt><trkpt lat="30.8235457920975" lon="-6.846853854488722"><ele>1252.0</ele><time>2026-03-26T11:36:56.933Z</time></trkpt><trkpt lat="30.823643984651387" lon="-6.846810582836394"><ele>1250.0</ele><time>2026-03-26T11:36:57.933Z</time></trkpt><trkpt lat="30.823746830358367" lon="-6.846738799133826"><ele>1248.0</ele><time>2026-03-26T11:36:58.933Z</time></trkpt><trkpt lat="30.823855695772505" lon="-6.846644759701003"><ele>1246.0</ele><time>2026-03-26T11:36:59.933Z</time></trkpt><trkpt lat="30.823938812197216" lon="-6.846528930660287"><ele>1244.0</ele><time>2026-03-26T11:37:00.933Z</time></trkpt><trkpt lat="30.82400484365681" lon="-6.846432295158679"><ele>1244.0</ele><time>2026-03-26T11:37:01.933Z</time></trkpt><trkpt lat="30.824086831794695" lon="-6.8463414275653784"><ele>1244.0</ele><time>2026-03-26T11:37:02.933Z</time></trkpt><trkpt lat="30.824172124535007" lon="-6.846241744946735"><ele>1244.0</ele><time>2026-03-26T11:37:03.933Z</time></trkpt><trkpt lat="30.824254453404144" lon="-6.8461506181577905"><ele>1244.0</ele><time>2026-03-26T11:37:04.933Z</time></trkpt><trkpt lat="30.824339091081058" lon="-6.846054137434937"><ele>1242.5</ele><time>2026-03-26T11:37:05.933Z</time></trkpt><trkpt lat="30.824448087234337" lon="-6.845955101551672"><ele>1241.0</ele><time>2026-03-26T11:37:06.933Z</time></trkpt><trkpt lat="30.824571741268834" lon="-6.845875426977639"><ele>1239.5</ele><time>2026-03-26T11:37:07.933Z</time></trkpt><trkpt lat="30.82468297972699" lon="-6.845810515593744"><ele>1238.0</ele><time>2026-03-26T11:37:08.933Z</time></trkpt><trkpt lat="30.824768105791446" lon="-6.845732956244986"><ele>1238.0</ele><time>2026-03-26T11:37:09.933Z</time></trkpt><trkpt lat="30.82486266470399" lon="-6.84564589353821"><ele>1238.0</ele><time>2026-03-26T11:37:10.933Z</time></trkpt><trkpt lat="30.824930147546436" lon="-6.84556394572266"><ele>1238.0</ele><time>2026-03-26T11:37:11.933Z</time></trkpt><trkpt lat="30.824981638973338" lon="-6.845491134562786"><ele>1238.0</ele><time>2026-03-26T11:37:12.933Z</time></trkpt><trkpt lat="30.825026275157786" lon="-6.845412660206186"><ele>1238.0</ele><time>2026-03-26T11:37:13.933Z</time></trkpt><trkpt lat="30.8250657946907" lon="-6.845333029231704"><ele>1238.0</ele><time>2026-03-26T11:37:14.933Z</time></trkpt><trkpt lat="30.82510562958193" lon="-6.845237689416728"><ele>1238.0</ele><time>2026-03-26T11:37:15.933Z</time></trkpt><trkpt lat="30.825140913320084" lon="-6.84512411588166"><ele>1238.0</ele><time>2026-03-26T11:37:16.933Z</time></trkpt><trkpt lat="30.82516123379492" lon="-6.845001260486194"><ele>1238.0</ele><time>2026-03-26T11:37:17.933Z</time></trkpt><trkpt lat="30.82517516169855" lon="-6.844884761087439"><ele>1238.0</ele><time>2026-03-26T11:37:18.933Z</time></trkpt><trkpt lat="30.825214230924857" lon="-6.844781530078977"><ele>1237.0</ele><time>2026-03-26T11:37:19.933Z</time></trkpt><trkpt lat="30.825286230640863" lon="-6.844692202778304"><ele>1236.0</ele><time>2026-03-26T11:37:20.933Z</time></trkpt><trkpt lat="30.825337400407864" lon="-6.844564746423879"><ele>1235.0</ele><time>2026-03-26T11:37:21.933Z</time></trkpt><trkpt lat="30.82533812260356" lon="-6.844391829467524"><ele>1234.0</ele><time>2026-03-26T11:37:22.933Z</time></trkpt><trkpt lat="30.825337056916343" lon="-6.844251991583459"><ele>1233.3333333333333</ele><time>2026-03-26T11:37:23.933Z</time></trkpt><trkpt lat="30.825351319731663" lon="-6.844152472550508"><ele>1232.6666666666665</ele><time>2026-03-26T11:37:24.933Z</time></trkpt><trkpt lat="30.825369112746117" lon="-6.844052968725929"><ele>1232.0</ele><time>2026-03-26T11:37:25.933Z</time></trkpt><trkpt lat="30.825386370335984" lon="-6.843952850539728"><ele>1231.3333333333333</ele><time>2026-03-26T11:37:26.933Z</time></trkpt><trkpt lat="30.825401703000633" lon="-6.84385409814983"><ele>1230.6666666666667</ele><time>2026-03-26T11:37:27.933Z</time></trkpt><trkpt lat="30.825418342087037" lon="-6.843745768901312"><ele>1230.0</ele><time>2026-03-26T11:37:28.933Z</time></trkpt><trkpt lat="30.825433536894522" lon="-6.843637007786241"><ele>1230.0</ele><time>2026-03-26T11:37:29.933Z</time></trkpt><trkpt lat="30.825473826010008" lon="-6.843530991248602"><ele>1230.0</ele><time>2026-03-26T11:37:30.933Z</time></trkpt><trkpt lat="30.825574552096242" lon="-6.843444702619822"><ele>1230.0</ele><time>2026-03-26T11:37:31.933Z</time></trkpt><trkpt lat="30.825708861397796" lon="-6.843339898935242"><ele>1230.0</ele><time>2026-03-26T11:37:32.933Z</time></trkpt><trkpt lat="30.82581864080078" lon="-6.843223725055212"><ele>1230.0</ele><time>2026-03-26T11:37:33.933Z</time></trkpt><trkpt lat="30.825893596771785" lon="-6.843117719292061"><ele>1230.0</ele><time>2026-03-26T11:37:34.933Z</time></trkpt><trkpt lat="30.82596482929058" lon="-6.843005687046871"><ele>1230.0</ele><time>2026-03-26T11:37:35.933Z</time></trkpt><trkpt lat="30.826035853897018" lon="-6.8428927452921275"><ele>1230.0</ele><time>2026-03-26T11:37:36.933Z</time></trkpt><trkpt lat="30.826131554497856" lon="-6.842779416312305"><ele>1230.0</ele><time>2026-03-26T11:37:37.933Z</time></trkpt><trkpt lat="30.826233035360197" lon="-6.842669754447528"><ele>1230.0</ele><time>2026-03-26T11:37:38.933Z</time></trkpt><trkpt lat="30.826327661040114" lon="-6.842571864852999"><ele>1230.0</ele><time>2026-03-26T11:37:39.933Z</time></trkpt><trkpt lat="30.8264221844326" lon="-6.842486086163823"><ele>1230.0</ele><time>2026-03-26T11:37:40.933Z</time></trkpt><trkpt lat="30.826548445302464" lon="-6.842422261841744"><ele>1228.0</ele><time>2026-03-26T11:37:41.933Z</time></trkpt><trkpt lat="30.826687475195495" lon="-6.8423428527689305"><ele>1226.0</ele><time>2026-03-26T11:37:42.933Z</time></trkpt><trkpt lat="30.82677248492631" lon="-6.842264542778286"><ele>1224.0</ele><time>2026-03-26T11:37:43.933Z</time></trkpt><trkpt lat="30.82683578163908" lon="-6.842167667639917"><ele>1222.0</ele><time>2026-03-26T11:37:44.933Z</time></trkpt><trkpt lat="30.826913996715717" lon="-6.84204577328228"><ele>1221.0</ele><time>2026-03-26T11:37:45.933Z</time></trkpt><trkpt lat="30.827022292314364" lon="-6.841913569269878"><ele>1220.0</ele><time>2026-03-26T11:37:46.933Z</time></trkpt><trkpt lat="30.82714552239217" lon="-6.841794425511508"><ele>1219.0</ele><time>2026-03-26T11:37:47.933Z</time></trkpt><trkpt lat="30.827300715818744" lon="-6.841677406421189"><ele>1217.3333333333333</ele><time>2026-03-26T11:37:48.933Z</time></trkpt><trkpt lat="30.827461513289514" lon="-6.841519381758139"><ele>1215.6666666666667</ele><time>2026-03-26T11:37:49.933Z</time></trkpt><trkpt lat="30.82761311416896" lon="-6.841327100857562"><ele>1214.0</ele><time>2026-03-26T11:37:50.933Z</time></trkpt><trkpt lat="30.827742206431324" lon="-6.841165638263961"><ele>1214.0</ele><time>2026-03-26T11:37:51.933Z</time></trkpt><trkpt lat="30.827853844609425" lon="-6.841036470157512"><ele>1214.0</ele><time>2026-03-26T11:37:52.933Z</time></trkpt><trkpt lat="30.827971000790683" lon="-6.840929437692586"><ele>1214.0</ele><time>2026-03-26T11:37:53.933Z</time></trkpt><trkpt lat="30.828085221517576" lon="-6.840814454560198"><ele>1213.75</ele><time>2026-03-26T11:37:54.933Z</time></trkpt><trkpt lat="30.828194373794712" lon="-6.840716927378821"><ele>1213.5</ele><time>2026-03-26T11:37:55.933Z</time></trkpt><trkpt lat="30.828294696143843" lon="-6.840628923050602"><ele>1213.25</ele><time>2026-03-26T11:37:56.933Z</time></trkpt><trkpt lat="30.828394562383487" lon="-6.840536316727623"><ele>1213.0</ele><time>2026-03-26T11:37:57.933Z</time></trkpt><trkpt lat="30.828496125542113" lon="-6.840437890393528"><ele>1213.0</ele><time>2026-03-26T11:37:58.933Z</time></trkpt><trkpt lat="30.828603905550374" lon="-6.84033590977496"><ele>1213.0</ele><time>2026-03-26T11:37:59.933Z</time></trkpt><trkpt lat="30.828721541935842" lon="-6.840214582234461"><ele>1213.0</ele><time>2026-03-26T11:38:00.933Z</time></trkpt><trkpt lat="30.82884843619945" lon="-6.840090357735105"><ele>1212.75</ele><time>2026-03-26T11:38:01.933Z</time></trkpt><trkpt lat="30.828955315103244" lon="-6.839975981307743"><ele>1212.5</ele><time>2026-03-26T11:38:02.933Z</time></trkpt><trkpt lat="30.829056675356647" lon="-6.83986965122514"><ele>1212.25</ele><time>2026-03-26T11:38:03.933Z</time></trkpt><trkpt lat="30.82918251521042" lon="-6.839769766447657"><ele>1212.0</ele><time>2026-03-26T11:38:04.933Z</time></trkpt><trkpt lat="30.829344771645694" lon="-6.839644665747313"><ele>1212.0</ele><time>2026-03-26T11:38:05.933Z</time></trkpt><trkpt lat="30.829534417186558" lon="-6.839504683332419"><ele>1212.0</ele><time>2026-03-26T11:38:06.933Z</time></trkpt><trkpt lat="30.82972140578483" lon="-6.839386734015937"><ele>1212.0</ele><time>2026-03-26T11:38:07.933Z</time></trkpt><trkpt lat="30.829896254012805" lon="-6.839306422948636"><ele>1209.0</ele><time>2026-03-26T11:38:08.932Z</time></trkpt><trkpt lat="30.830060305088015" lon="-6.839237674411235"><ele>1206.0</ele><time>2026-03-26T11:38:09.932Z</time></trkpt><trkpt lat="30.830253391879825" lon="-6.8391867308871435"><ele>1203.0</ele><time>2026-03-26T11:38:10.932Z</time></trkpt><trkpt lat="30.830461267463907" lon="-6.8391352016085944"><ele>1203.0</ele><time>2026-03-26T11:38:11.932Z</time></trkpt><trkpt lat="30.830641709218124" lon="-6.839060826218476"><ele>1203.0</ele><time>2026-03-26T11:38:12.932Z</time></trkpt><trkpt lat="30.83076873101332" lon="-6.838989601704517"><ele>1203.0</ele><time>2026-03-26T11:38:13.932Z</time></trkpt><trkpt lat="30.830885703149942" lon="-6.83890918713204"><ele>1203.75</ele><time>2026-03-26T11:38:14.932Z</time></trkpt><trkpt lat="30.831003824573603" lon="-6.838815464280241"><ele>1204.5</ele><time>2026-03-26T11:38:15.932Z</time></trkpt><trkpt lat="30.831110745937686" lon="-6.838719146332414"><ele>1205.25</ele><time>2026-03-26T11:38:16.932Z</time></trkpt><trkpt lat="30.831216964489094" lon="-6.838602959325591"><ele>1206.0</ele><time>2026-03-26T11:38:17.932Z</time></trkpt><trkpt lat="30.83132200554023" lon="-6.838477515539848"><ele>1205.0</ele><time>2026-03-26T11:38:18.932Z</time></trkpt><trkpt lat="30.831423391628714" lon="-6.838342746145284"><ele>1204.0</ele><time>2026-03-26T11:38:19.932Z</time></trkpt><trkpt lat="30.831512704381588" lon="-6.83821740547478"><ele>1203.0</ele><time>2026-03-26T11:38:20.932Z</time></trkpt><trkpt lat="30.83160837396546" lon="-6.83808372146829"><ele>1202.0</ele><time>2026-03-26T11:38:21.932Z</time></trkpt><trkpt lat="30.831730358561543" lon="-6.837976420683668"><ele>1202.5</ele><time>2026-03-26T11:38:22.932Z</time></trkpt><trkpt lat="30.83184103480451" lon="-6.837905418747305"><ele>1203.0</ele><time>2026-03-26T11:38:23.932Z</time></trkpt><trkpt lat="30.831991086443992" lon="-6.837852939936494"><ele>1203.5</ele><time>2026-03-26T11:38:24.932Z</time></trkpt><trkpt lat="30.832141358711546" lon="-6.837793462575958"><ele>1204.0</ele><time>2026-03-26T11:38:25.932Z</time></trkpt><trkpt lat="30.832263067976204" lon="-6.837726297030988"><ele>1204.0</ele><time>2026-03-26T11:38:26.932Z</time></trkpt><trkpt lat="30.832394934125517" lon="-6.837654035004672"><ele>1204.0</ele><time>2026-03-26T11:38:27.932Z</time></trkpt><trkpt lat="30.83253867078404" lon="-6.837572537343369"><ele>1204.0</ele><time>2026-03-26T11:38:28.932Z</time></trkpt><trkpt lat="30.83264596035414" lon="-6.837503760065183"><ele>1204.0</ele><time>2026-03-26T11:38:29.932Z</time></trkpt><trkpt lat="30.83276516464013" lon="-6.8374290905528365"><ele>1201.5</ele><time>2026-03-26T11:38:30.932Z</time></trkpt><trkpt lat="30.832890284257118" lon="-6.837329434882737"><ele>1199.0</ele><time>2026-03-26T11:38:31.932Z</time></trkpt><trkpt lat="30.833001729758646" lon="-6.837222871184933"><ele>1196.5</ele><time>2026-03-26T11:38:32.932Z</time></trkpt><trkpt lat="30.833098809789515" lon="-6.837128966779074"><ele>1194.0</ele><time>2026-03-26T11:38:33.932Z</time></trkpt><trkpt lat="30.833195731943793" lon="-6.837041289491639"><ele>1194.0</ele><time>2026-03-26T11:38:34.932Z</time></trkpt><trkpt lat="30.83329212911403" lon="-6.8369601793326"><ele>1194.0</ele><time>2026-03-26T11:38:35.932Z</time></trkpt><trkpt lat="30.833387525535613" lon="-6.836895675002237"><ele>1194.0</ele><time>2026-03-26T11:38:36.932Z</time></trkpt><trkpt lat="30.83350047710612" lon="-6.83684920942623"><ele>1194.0</ele><time>2026-03-26T11:38:37.932Z</time></trkpt><trkpt lat="30.83360822218082" lon="-6.836811333465101"><ele>1192.0</ele><time>2026-03-26T11:38:38.932Z</time></trkpt><trkpt lat="30.833714471357492" lon="-6.836787203049436"><ele>1190.0</ele><time>2026-03-26T11:38:39.932Z</time></trkpt><trkpt lat="30.833825076136996" lon="-6.836751872679569"><ele>1188.0</ele><time>2026-03-26T11:38:40.932Z</time></trkpt><trkpt lat="30.833964792466148" lon="-6.836701669644102"><ele>1186.0</ele><time>2026-03-26T11:38:41.932Z</time></trkpt><trkpt lat="30.834120706910635" lon="-6.83668194345331"><ele>1186.0</ele><time>2026-03-26T11:38:42.932Z</time></trkpt><trkpt lat="30.834257747104015" lon="-6.836706203816623"><ele>1186.0</ele><time>2026-03-26T11:38:43.932Z</time></trkpt><trkpt lat="30.834398884625628" lon="-6.836770115841505"><ele>1186.0</ele><time>2026-03-26T11:38:44.932Z</time></trkpt><trkpt lat="30.834571915869013" lon="-6.83686708230724"><ele>1185.0</ele><time>2026-03-26T11:38:45.932Z</time></trkpt><trkpt lat="30.83474753165162" lon="-6.836985330536689"><ele>1184.0</ele><time>2026-03-26T11:38:46.932Z</time></trkpt><trkpt lat="30.83493842092916" lon="-6.837138833587278"><ele>1183.0</ele><time>2026-03-26T11:38:47.932Z</time></trkpt><trkpt lat="30.835107866965703" lon="-6.8372971909439135"><ele>1182.6666666666665</ele><time>2026-03-26T11:38:48.932Z</time></trkpt><trkpt lat="30.835247901352602" lon="-6.837419129993675"><ele>1182.3333333333333</ele><time>2026-03-26T11:38:49.932Z</time></trkpt><trkpt lat="30.835402963935202" lon="-6.837540825379405"><ele>1182.0</ele><time>2026-03-26T11:38:50.932Z</time></trkpt><trkpt lat="30.835557922115374" lon="-6.837630871202877"><ele>1181.2</ele><time>2026-03-26T11:38:51.932Z</time></trkpt><trkpt lat="30.83566517022492" lon="-6.83768652835988"><ele>1180.4</ele><time>2026-03-26T11:38:52.932Z</time></trkpt><trkpt lat="30.835769543619673" lon="-6.837716029319072"><ele>1179.6</ele><time>2026-03-26T11:38:53.932Z</time></trkpt><trkpt lat="30.8358787517329" lon="-6.837706225200369"><ele>1178.8</ele><time>2026-03-26T11:38:54.932Z</time></trkpt><trkpt lat="30.83597555578544" lon="-6.837638398809052"><ele>1178.0</ele><time>2026-03-26T11:38:55.932Z</time></trkpt><trkpt lat="30.83607226300808" lon="-6.837524305467695"><ele>1178.0</ele><time>2026-03-26T11:38:56.932Z</time></trkpt><trkpt lat="30.8361628771431" lon="-6.83739561551759"><ele>1178.0</ele><time>2026-03-26T11:38:57.932Z</time></trkpt><trkpt lat="30.83628242828357" lon="-6.837308499431946"><ele>1178.0</ele><time>2026-03-26T11:38:58.932Z</time></trkpt><trkpt lat="30.836440141418063" lon="-6.837279593430442"><ele>1178.0</ele><time>2026-03-26T11:38:59.932Z</time></trkpt><trkpt lat="30.83663014125367" lon="-6.837281110468702"><ele>1177.3333333333335</ele><time>2026-03-26T11:39:00.932Z</time></trkpt><trkpt lat="30.836820996464798" lon="-6.837267439840358"><ele>1176.6666666666667</ele><time>2026-03-26T11:39:01.932Z</time></trkpt><trkpt lat="30.836954448417593" lon="-6.837256191431082"><ele>1176.0</ele><time>2026-03-26T11:39:02.932Z</time></trkpt><trkpt lat="30.837078630784966" lon="-6.837243421218113"><ele>1176.0</ele><time>2026-03-26T11:39:03.932Z</time></trkpt><trkpt lat="30.837201319593092" lon="-6.837235216859284"><ele>1176.0</ele><time>2026-03-26T11:39:04.932Z</time></trkpt><trkpt lat="30.83732089333412" lon="-6.837230606629747"><ele>1176.0</ele><time>2026-03-26T11:39:05.932Z</time></trkpt><trkpt lat="30.83742299776576" lon="-6.837212223783053"><ele>1176.0</ele><time>2026-03-26T11:39:06.932Z</time></trkpt><trkpt lat="30.837503517293417" lon="-6.837177674754435"><ele>1176.0</ele><time>2026-03-26T11:39:07.932Z</time></trkpt><trkpt lat="30.837566305734214" lon="-6.837127306527957"><ele>1176.0</ele><time>2026-03-26T11:39:08.932Z</time></trkpt><trkpt lat="30.837628796132453" lon="-6.837062400366327"><ele>1176.0</ele><time>2026-03-26T11:39:09.932Z</time></trkpt><trkpt lat="30.83768298831755" lon="-6.836995960891612"><ele>1176.0</ele><time>2026-03-26T11:39:10.932Z</time></trkpt><trkpt lat="30.837730238276283" lon="-6.83693027684058"><ele>1176.0</ele><time>2026-03-26T11:39:11.932Z</time></trkpt><trkpt lat="30.837766965650243" lon="-6.836866045395374"><ele>1176.0</ele><time>2026-03-26T11:39:12.932Z</time></trkpt><trkpt lat="30.837814347386637" lon="-6.836789106675093"><ele>1176.0</ele><time>2026-03-26T11:39:13.932Z</time></trkpt><trkpt lat="30.837869370137202" lon="-6.83674343423741"><ele>1175.3333333333333</ele><time>2026-03-26T11:39:14.932Z</time></trkpt><trkpt lat="30.837924764189076" lon="-6.836704336602519"><ele>1174.6666666666667</ele><time>2026-03-26T11:39:15.932Z</time></trkpt><trkpt lat="30.837990832045826" lon="-6.836662378292419"><ele>1174.0</ele><time>2026-03-26T11:39:16.932Z</time></trkpt><trkpt lat="30.838063575110247" lon="-6.83661602081622"><ele>1173.3333333333335</ele><time>2026-03-26T11:39:17.932Z</time></trkpt><trkpt lat="30.838143546759603" lon="-6.836571325779271"><ele>1172.6666666666667</ele><time>2026-03-26T11:39:18.932Z</time></trkpt><trkpt lat="30.838236619417223" lon="-6.836549761267926"><ele>1172.0</ele><time>2026-03-26T11:39:19.932Z</time></trkpt><trkpt lat="30.83833540071906" lon="-6.83654121707842"><ele>1172.0</ele><time>2026-03-26T11:39:20.932Z</time></trkpt><trkpt lat="30.838438008103566" lon="-6.836520114446005"><ele>1172.0</ele><time>2026-03-26T11:39:21.932Z</time></trkpt><trkpt lat="30.838574678071588" lon="-6.836508060299433"><ele>1172.0</ele><time>2026-03-26T11:39:22.932Z</time></trkpt><trkpt lat="30.838732752270175" lon="-6.836487408482669"><ele>1172.0</ele><time>2026-03-26T11:39:23.932Z</time></trkpt><trkpt lat="30.838857557783644" lon="-6.8364626465600065"><ele>1172.2</ele><time>2026-03-26T11:39:24.932Z</time></trkpt><trkpt lat="30.838956552741443" lon="-6.836433457628035"><ele>1172.4</ele><time>2026-03-26T11:39:25.932Z</time></trkpt><trkpt lat="30.83905460082628" lon="-6.836394391604303"><ele>1172.6</ele><time>2026-03-26T11:39:26.932Z</time></trkpt><trkpt lat="30.839157195142466" lon="-6.836342462908824"><ele>1172.8</ele><time>2026-03-26T11:39:27.932Z</time></trkpt><trkpt lat="30.839259188502055" lon="-6.836280660877187"><ele>1173.0</ele><time>2026-03-26T11:39:28.932Z</time></trkpt><trkpt lat="30.839355350520055" lon="-6.83623663427536"><ele>1172.4</ele><time>2026-03-26T11:39:29.932Z</time></trkpt><trkpt lat="30.83945063074593" lon="-6.836207755046515"><ele>1171.8</ele><time>2026-03-26T11:39:30.932Z</time></trkpt><trkpt lat="30.839532023692993" lon="-6.836200863134895"><ele>1171.2</ele><time>2026-03-26T11:39:31.932Z</time></trkpt><trkpt lat="30.83961916856014" lon="-6.836216057837217"><ele>1170.6</ele><time>2026-03-26T11:39:32.932Z</time></trkpt><trkpt lat="30.83972475405963" lon="-6.8362352669689255"><ele>1170.0</ele><time>2026-03-26T11:39:33.932Z</time></trkpt><trkpt lat="30.83984290411861" lon="-6.836239072346666"><ele>1170.0</ele><time>2026-03-26T11:39:34.932Z</time></trkpt><trkpt lat="30.839947003135812" lon="-6.836229260625727"><ele>1170.0</ele><time>2026-03-26T11:39:35.932Z</time></trkpt><trkpt lat="30.840011045913915" lon="-6.836180640799693"><ele>1170.0</ele><time>2026-03-26T11:39:36.932Z</time></trkpt><trkpt lat="30.840058303896843" lon="-6.836110372540325"><ele>1170.0</ele><time>2026-03-26T11:39:37.932Z</time></trkpt><trkpt lat="30.84008090120697" lon="-6.8360022203980515"><ele>1170.0</ele><time>2026-03-26T11:39:38.932Z</time></trkpt><trkpt lat="30.840059129707424" lon="-6.835900970047886"><ele>1170.0</ele><time>2026-03-26T11:39:39.932Z</time></trkpt><trkpt lat="30.84002106738102" lon="-6.835768001396175"><ele>1170.75</ele><time>2026-03-26T11:39:40.932Z</time></trkpt><trkpt lat="30.83995490936958" lon="-6.835604752879373"><ele>1171.5</ele><time>2026-03-26T11:39:41.932Z</time></trkpt><trkpt lat="30.839916139248846" lon="-6.8354391127066"><ele>1172.25</ele><time>2026-03-26T11:39:42.932Z</time></trkpt><trkpt lat="30.83990368067266" lon="-6.835311144628584"><ele>1173.0</ele><time>2026-03-26T11:39:43.932Z</time></trkpt><trkpt lat="30.839930418467944" lon="-6.83515348915386"><ele>1172.0</ele><time>2026-03-26T11:39:44.932Z</time></trkpt><trkpt lat="30.8399732436942" lon="-6.834957588059294"><ele>1171.0</ele><time>2026-03-26T11:39:45.932Z</time></trkpt><trkpt lat="30.83999517521096" lon="-6.834778247837614"><ele>1170.0</ele><time>2026-03-26T11:39:46.932Z</time></trkpt><trkpt lat="30.84000467666575" lon="-6.834661680735912"><ele>1169.0</ele><time>2026-03-26T11:39:47.932Z</time></trkpt><trkpt lat="30.840017342259387" lon="-6.834548926346186"><ele>1169.0</ele><time>2026-03-26T11:39:48.932Z</time></trkpt><trkpt lat="30.840040223360077" lon="-6.834457398316869"><ele>1169.0</ele><time>2026-03-26T11:39:49.932Z</time></trkpt><trkpt lat="30.84007714146059" lon="-6.834378796900506"><ele>1169.0</ele><time>2026-03-26T11:39:50.932Z</time></trkpt><trkpt lat="30.840124499097744" lon="-6.834316199470842"><ele>1169.0</ele><time>2026-03-26T11:39:51.932Z</time></trkpt><trkpt lat="30.840190121654814" lon="-6.834265487304018"><ele>1169.0</ele><time>2026-03-26T11:39:52.932Z</time></trkpt><trkpt lat="30.840251281237432" lon="-6.834197314435666"><ele>1169.0</ele><time>2026-03-26T11:39:53.932Z</time></trkpt><trkpt lat="30.840289155249224" lon="-6.834133080237789"><ele>1168.5</ele><time>2026-03-26T11:39:54.932Z</time></trkpt><trkpt lat="30.840320253419367" lon="-6.834065376390525"><ele>1168.0</ele><time>2026-03-26T11:39:55.932Z</time></trkpt><trkpt lat="30.840359523287894" lon="-6.83399349893936"><ele>1167.5</ele><time>2026-03-26T11:39:56.932Z</time></trkpt><trkpt lat="30.840402938366942" lon="-6.833904820344012"><ele>1167.0</ele><time>2026-03-26T11:39:57.932Z</time></trkpt><trkpt lat="30.84045643314737" lon="-6.833802595553282"><ele>1166.5</ele><time>2026-03-26T11:39:58.932Z</time></trkpt><trkpt lat="30.840515522773426" lon="-6.833705926263901"><ele>1166.0</ele><time>2026-03-26T11:39:59.932Z</time></trkpt><trkpt lat="30.840580042500523" lon="-6.833611486411905"><ele>1166.0</ele><time>2026-03-26T11:40:00.932Z</time></trkpt><trkpt lat="30.840651328568494" lon="-6.833519989739542"><ele>1166.0</ele><time>2026-03-26T11:40:01.932Z</time></trkpt><trkpt lat="30.840727250276768" lon="-6.833425152627021"><ele>1166.0</ele><time>2026-03-26T11:40:02.932Z</time></trkpt><trkpt lat="30.840806940216844" lon="-6.833317712591944"><ele>1166.0</ele><time>2026-03-26T11:40:03.932Z</time></trkpt><trkpt lat="30.84088879550104" lon="-6.833189199263515"><ele>1167.3333333333335</ele><time>2026-03-26T11:40:04.932Z</time></trkpt><trkpt lat="30.84097826617596" lon="-6.8330415827709565"><ele>1168.6666666666667</ele><time>2026-03-26T11:40:05.932Z</time></trkpt><trkpt lat="30.841068413465127" lon="-6.8329001699665675"><ele>1170.0</ele><time>2026-03-26T11:40:06.932Z</time></trkpt><trkpt lat="30.84115572127753" lon="-6.832763201853922"><ele>1168.0</ele><time>2026-03-26T11:40:07.932Z</time></trkpt><trkpt lat="30.84124377201065" lon="-6.832628419648015"><ele>1166.0</ele><time>2026-03-26T11:40:08.932Z</time></trkpt><trkpt lat="30.841342857603046" lon="-6.832497930528188"><ele>1164.0</ele><time>2026-03-26T11:40:09.932Z</time></trkpt><trkpt lat="30.841462154534394" lon="-6.832356601162934"><ele>1164.0</ele><time>2026-03-26T11:40:10.932Z</time></trkpt><trkpt lat="30.841566316789834" lon="-6.832229668343922"><ele>1164.0</ele><time>2026-03-26T11:40:11.932Z</time></trkpt><trkpt lat="30.841656008604886" lon="-6.832114202297205"><ele>1164.0</ele><time>2026-03-26T11:40:12.932Z</time></trkpt><trkpt lat="30.841747173285704" lon="-6.83200224317597"><ele>1164.0</ele><time>2026-03-26T11:40:13.932Z</time></trkpt><trkpt lat="30.84183705977225" lon="-6.831903381815846"><ele>1164.6000000000001</ele><time>2026-03-26T11:40:14.932Z</time></trkpt><trkpt lat="30.84192950704434" lon="-6.83182178690151"><ele>1165.2</ele><time>2026-03-26T11:40:15.932Z</time></trkpt><trkpt lat="30.842027092445534" lon="-6.831759822410691"><ele>1165.8000000000002</ele><time>2026-03-26T11:40:16.932Z</time></trkpt><trkpt lat="30.842115015078196" lon="-6.831712590909577"><ele>1166.4</ele><time>2026-03-26T11:40:17.932Z</time></trkpt><trkpt lat="30.84217958151462" lon="-6.831669281179656"><ele>1167.0</ele><time>2026-03-26T11:40:18.932Z</time></trkpt><trkpt lat="30.842237296755705" lon="-6.83160857170912"><ele>1165.2</ele><time>2026-03-26T11:40:19.932Z</time></trkpt><trkpt lat="30.842280241450794" lon="-6.8315214813639935"><ele>1163.4</ele><time>2026-03-26T11:40:20.932Z</time></trkpt><trkpt lat="30.84228785668173" lon="-6.83142590844398"><ele>1161.6</ele><time>2026-03-26T11:40:21.932Z</time></trkpt><trkpt lat="30.842290030488734" lon="-6.831289719271201"><ele>1159.8</ele><time>2026-03-26T11:40:22.932Z</time></trkpt><trkpt lat="30.84231367371108" lon="-6.831166219951928"><ele>1158.0</ele><time>2026-03-26T11:40:23.932Z</time></trkpt><trkpt lat="30.842372728418916" lon="-6.831057993062855"><ele>1157.75</ele><time>2026-03-26T11:40:24.932Z</time></trkpt><trkpt lat="30.84246110590557" lon="-6.8309497181687"><ele>1157.5</ele><time>2026-03-26T11:40:25.932Z</time></trkpt><trkpt lat="30.84254755286439" lon="-6.830851484074794"><ele>1157.25</ele><time>2026-03-26T11:40:26.932Z</time></trkpt><trkpt lat="30.842632352489233" lon="-6.830784659493852"><ele>1157.0</ele><time>2026-03-26T11:40:27.931Z</time></trkpt><trkpt lat="30.842722596026924" lon="-6.830733864174063"><ele>1157.0</ele><time>2026-03-26T11:40:28.931Z</time></trkpt><trkpt lat="30.842827803382054" lon="-6.830715825338198"><ele>1157.0</ele><time>2026-03-26T11:40:29.931Z</time></trkpt><trkpt lat="30.842944162534145" lon="-6.8306991523483305"><ele>1157.0</ele><time>2026-03-26T11:40:30.931Z</time></trkpt><trkpt lat="30.843058284352495" lon="-6.830671037233701"><ele>1157.0</ele><time>2026-03-26T11:40:31.931Z</time></trkpt><trkpt lat="30.8431505363713" lon="-6.830631370042626"><ele>1157.0</ele><time>2026-03-26T11:40:32.931Z</time></trkpt><trkpt lat="30.843247038701" lon="-6.830580453107352"><ele>1157.0</ele><time>2026-03-26T11:40:33.931Z</time></trkpt><trkpt lat="30.843357262424647" lon="-6.830547601390069"><ele>1157.0</ele><time>2026-03-26T11:40:34.931Z</time></trkpt><trkpt lat="30.843468540372722" lon="-6.830515688190037"><ele>1157.0</ele><time>2026-03-26T11:40:35.931Z</time></trkpt><trkpt lat="30.84355708985914" lon="-6.830468481217407"><ele>1157.0</ele><time>2026-03-26T11:40:36.931Z</time></trkpt><trkpt lat="30.84361824701418" lon="-6.83040274792782"><ele>1157.0</ele><time>2026-03-26T11:40:37.931Z</time></trkpt><trkpt lat="30.84368968686141" lon="-6.830345432054529"><ele>1157.6</ele><time>2026-03-26T11:40:38.931Z</time></trkpt><trkpt lat="30.843774311169412" lon="-6.830320373459761"><ele>1158.2</ele><time>2026-03-26T11:40:39.931Z</time></trkpt><trkpt lat="30.84386568214872" lon="-6.830325773767829"><ele>1158.8</ele><time>2026-03-26T11:40:40.931Z</time></trkpt><trkpt lat="30.843966779895325" lon="-6.830356007455968"><ele>1159.4</ele><time>2026-03-26T11:40:41.931Z</time></trkpt><trkpt lat="30.844066056457937" lon="-6.830393837015199"><ele>1160.0</ele><time>2026-03-26T11:40:42.931Z</time></trkpt><trkpt lat="30.844164135262634" lon="-6.830433115071268"><ele>1160.0</ele><time>2026-03-26T11:40:43.931Z</time></trkpt><trkpt lat="30.844267517608536" lon="-6.830479420056357"><ele>1160.0</ele><time>2026-03-26T11:40:44.931Z</time></trkpt><trkpt lat="30.844379634257063" lon="-6.830540197081681"><ele>1160.0</ele><time>2026-03-26T11:40:45.931Z</time></trkpt><trkpt lat="30.84450538800758" lon="-6.83060155172634"><ele>1160.0</ele><time>2026-03-26T11:40:46.931Z</time></trkpt><trkpt lat="30.84462217239345" lon="-6.830685751616222"><ele>1159.75</ele><time>2026-03-26T11:40:47.931Z</time></trkpt><trkpt lat="30.84473330360944" lon="-6.830783654863794"><ele>1159.5</ele><time>2026-03-26T11:40:48.931Z</time></trkpt><trkpt lat="30.84483296329565" lon="-6.83085946586179"><ele>1159.25</ele><time>2026-03-26T11:40:49.931Z</time></trkpt><trkpt lat="30.844920977814997" lon="-6.830925167394878"><ele>1159.0</ele><time>2026-03-26T11:40:50.931Z</time></trkpt><trkpt lat="30.845008137103047" lon="-6.83098408492318"><ele>1158.8</ele><time>2026-03-26T11:40:51.931Z</time></trkpt><trkpt lat="30.845104056258204" lon="-6.831028738938541"><ele>1158.6000000000001</ele><time>2026-03-26T11:40:52.931Z</time></trkpt><trkpt lat="30.84520023257031" lon="-6.831059608738347"><ele>1158.4</ele><time>2026-03-26T11:40:53.931Z</time></trkpt><trkpt lat="30.845298552556407" lon="-6.831073121515526"><ele>1158.2</ele><time>2026-03-26T11:40:54.931Z</time></trkpt><trkpt lat="30.845400918771" lon="-6.83106251730251"><ele>1158.0</ele><time>2026-03-26T11:40:55.931Z</time></trkpt><trkpt lat="30.84549732827376" lon="-6.831037638016865"><ele>1158.0</ele><time>2026-03-26T11:40:56.931Z</time></trkpt><trkpt lat="30.84559176623436" lon="-6.831008070854795"><ele>1158.0</ele><time>2026-03-26T11:40:57.931Z</time></trkpt><trkpt lat="30.845680908988463" lon="-6.830982439817453"><ele>1158.0</ele><time>2026-03-26T11:40:58.931Z</time></trkpt><trkpt lat="30.8457712107283" lon="-6.8309580422300105"><ele>1158.0</ele><time>2026-03-26T11:40:59.931Z</time></trkpt><trkpt lat="30.845879465891937" lon="-6.830941626980284"><ele>1158.0</ele><time>2026-03-26T11:41:00.931Z</time></trkpt><trkpt lat="30.84599244918641" lon="-6.830953260925857"><ele>1156.25</ele><time>2026-03-26T11:41:01.931Z</time></trkpt><trkpt lat="30.846114837399043" lon="-6.830992852386351"><ele>1154.5</ele><time>2026-03-26T11:41:02.931Z</time></trkpt><trkpt lat="30.846240608333765" lon="-6.83105807113052"><ele>1152.75</ele><time>2026-03-26T11:41:03.931Z</time></trkpt><trkpt lat="30.8463583856722" lon="-6.831105039282102"><ele>1151.0</ele><time>2026-03-26T11:41:04.931Z</time></trkpt><trkpt lat="30.84647506129897" lon="-6.8311193821965945"><ele>1151.0</ele><time>2026-03-26T11:41:05.931Z</time></trkpt><trkpt lat="30.84659504825287" lon="-6.831120822308815"><ele>1151.0</ele><time>2026-03-26T11:41:06.931Z</time></trkpt><trkpt lat="30.846716212494613" lon="-6.831123210592079"><ele>1151.0</ele><time>2026-03-26T11:41:07.931Z</time></trkpt><trkpt lat="30.84684415735138" lon="-6.831134189610596"><ele>1151.0</ele><time>2026-03-26T11:41:08.931Z</time></trkpt><trkpt lat="30.846961864947275" lon="-6.831153528909387"><ele>1151.0</ele><time>2026-03-26T11:41:09.931Z</time></trkpt><trkpt lat="30.847077776466147" lon="-6.831176537480394"><ele>1151.0</ele><time>2026-03-26T11:41:10.931Z</time></trkpt><trkpt lat="30.847189579492166" lon="-6.831200388285508"><ele>1151.0</ele><time>2026-03-26T11:41:11.931Z</time></trkpt><trkpt lat="30.847309773443104" lon="-6.831214973978581"><ele>1151.0</ele><time>2026-03-26T11:41:12.931Z</time></trkpt><trkpt lat="30.847431155319764" lon="-6.831224236182146"><ele>1151.0</ele><time>2026-03-26T11:41:13.931Z</time></trkpt><trkpt lat="30.847546388916218" lon="-6.831212723062138"><ele>1151.0</ele><time>2026-03-26T11:41:14.931Z</time></trkpt><trkpt lat="30.847664857785805" lon="-6.831180754369025"><ele>1151.0</ele><time>2026-03-26T11:41:15.931Z</time></trkpt><trkpt lat="30.847779541744515" lon="-6.831132227107101"><ele>1151.0</ele><time>2026-03-26T11:41:16.931Z</time></trkpt><trkpt lat="30.847883574958836" lon="-6.831087859090994"><ele>1151.5</ele><time>2026-03-26T11:41:17.931Z</time></trkpt><trkpt lat="30.847985988570777" lon="-6.8310522570782926"><ele>1152.0</ele><time>2026-03-26T11:41:18.932Z</time></trkpt><trkpt lat="30.848088404017776" lon="-6.8310229454985745"><ele>1152.5</ele><time>2026-03-26T11:41:19.932Z</time></trkpt><trkpt lat="30.84819868083934" lon="-6.830989683515719"><ele>1153.0</ele><time>2026-03-26T11:41:20.932Z</time></trkpt><trkpt lat="30.84831985888917" lon="-6.830960425653613"><ele>1153.0</ele><time>2026-03-26T11:41:21.932Z</time></trkpt><trkpt lat="30.848452655065408" lon="-6.830941686916929"><ele>1153.0</ele><time>2026-03-26T11:41:22.931Z</time></trkpt><trkpt lat="30.848586003592757" lon="-6.830922167672207"><ele>1153.0</ele><time>2026-03-26T11:41:23.931Z</time></trkpt><trkpt lat="30.848715146881123" lon="-6.830914139132816"><ele>1153.0</ele><time>2026-03-26T11:41:24.931Z</time></trkpt><trkpt lat="30.848845669601957" lon="-6.830909637266365"><ele>1152.0</ele><time>2026-03-26T11:41:25.931Z</time></trkpt><trkpt lat="30.8489747074587" lon="-6.830899425418825"><ele>1151.0</ele><time>2026-03-26T11:41:26.931Z</time></trkpt><trkpt lat="30.849097251329905" lon="-6.830886724362636"><ele>1150.0</ele><time>2026-03-26T11:41:27.931Z</time></trkpt><trkpt lat="30.84921840258152" lon="-6.830878667883088"><ele>1149.0</ele><time>2026-03-26T11:41:28.931Z</time></trkpt><trkpt lat="30.849330302151103" lon="-6.8308771960243275"><ele>1148.5</ele><time>2026-03-26T11:41:29.931Z</time></trkpt><trkpt lat="30.849459440431726" lon="-6.830865665916776"><ele>1148.0</ele><time>2026-03-26T11:41:30.931Z</time></trkpt><trkpt lat="30.849592842394948" lon="-6.830857920232585"><ele>1147.5</ele><time>2026-03-26T11:41:31.931Z</time></trkpt><trkpt lat="30.849712087712035" lon="-6.830861209980547"><ele>1147.0</ele><time>2026-03-26T11:41:32.931Z</time></trkpt><trkpt lat="30.849817407201336" lon="-6.830870347624433"><ele>1147.0</ele><time>2026-03-26T11:41:33.931Z</time></trkpt><trkpt lat="30.849903414443627" lon="-6.830881094174936"><ele>1147.0</ele><time>2026-03-26T11:41:34.931Z</time></trkpt><trkpt lat="30.84998896631514" lon="-6.830894790995849"><ele>1147.0</ele><time>2026-03-26T11:41:35.931Z</time></trkpt><trkpt lat="30.85006960535669" lon="-6.830905045798387"><ele>1147.0</ele><time>2026-03-26T11:41:36.931Z</time></trkpt><trkpt lat="30.85014862285303" lon="-6.8309016328346335"><ele>1147.0</ele><time>2026-03-26T11:41:37.931Z</time></trkpt><trkpt lat="30.850236249440485" lon="-6.830863289770519"><ele>1147.0</ele><time>2026-03-26T11:41:38.931Z</time></trkpt><trkpt lat="30.85031819377634" lon="-6.830814929675727"><ele>1146.0</ele><time>2026-03-26T11:41:39.931Z</time></trkpt><trkpt lat="30.850398400974093" lon="-6.830777330249649"><ele>1145.0</ele><time>2026-03-26T11:41:40.931Z</time></trkpt><trkpt lat="30.85048245595066" lon="-6.8307462708183815"><ele>1144.0</ele><time>2026-03-26T11:41:41.931Z</time></trkpt><trkpt lat="30.850564404962718" lon="-6.830728671459645"><ele>1143.0</ele><time>2026-03-26T11:41:42.931Z</time></trkpt><trkpt lat="30.850637479320465" lon="-6.830700048472121"><ele>1142.0</ele><time>2026-03-26T11:41:43.931Z</time></trkpt><trkpt lat="30.850701993635834" lon="-6.830681041913527"><ele>1141.0</ele><time>2026-03-26T11:41:44.931Z</time></trkpt><trkpt lat="30.850765758639298" lon="-6.8306601267488265"><ele>1141.0</ele><time>2026-03-26T11:41:45.931Z</time></trkpt><trkpt lat="30.850881243449596" lon="-6.830653833080751"><ele>1141.0</ele><time>2026-03-26T11:41:47.931Z</time></trkpt><trkpt lat="30.8509762003384" lon="-6.830733002662887"><ele>1141.0</ele><time>2026-03-26T11:41:49.931Z</time></trkpt><trkpt lat="30.851002309171403" lon="-6.830814760824023"><ele>1141.0</ele><time>2026-03-26T11:41:50.931Z</time></trkpt><trkpt lat="30.851010136584723" lon="-6.83092826690843"><ele>1141.0</ele><time>2026-03-26T11:41:51.931Z</time></trkpt><trkpt lat="30.851027750233932" lon="-6.831035970889155"><ele>1140.1666666666665</ele><time>2026-03-26T11:41:52.931Z</time></trkpt><trkpt lat="30.851043615102824" lon="-6.8311543298677355"><ele>1139.3333333333333</ele><time>2026-03-26T11:41:53.931Z</time></trkpt><trkpt lat="30.851062673185503" lon="-6.831255311243457"><ele>1138.5</ele><time>2026-03-26T11:41:54.931Z</time></trkpt><trkpt lat="30.851078517273475" lon="-6.831353902244301"><ele>1137.6666666666667</ele><time>2026-03-26T11:41:55.931Z</time></trkpt><trkpt lat="30.85109518699783" lon="-6.831438657309239"><ele>1136.8333333333335</ele><time>2026-03-26T11:41:56.931Z</time></trkpt><trkpt lat="30.851114038599967" lon="-6.831518484009517"><ele>1136.0</ele><time>2026-03-26T11:41:57.931Z</time></trkpt><trkpt lat="30.851129624037018" lon="-6.8315924821068545"><ele>1136.0</ele><time>2026-03-26T11:41:58.931Z</time></trkpt><trkpt lat="30.851181502791757" lon="-6.831689141554823"><ele>1136.0</ele><time>2026-03-26T11:42:00.931Z</time></trkpt><trkpt lat="30.851241229248433" lon="-6.83166194731743"><ele>1136.0</ele><time>2026-03-26T11:42:03.931Z</time></trkpt><trkpt lat="30.851337699019773" lon="-6.8316246557432825"><ele>1136.0</ele><time>2026-03-26T11:42:58.931Z</time></trkpt><trkpt lat="30.85141160251961" lon="-6.831606874663502"><ele>1136.0</ele><time>2026-03-26T11:42:59.931Z</time></trkpt><trkpt lat="30.85148235978847" lon="-6.831574668917751"><ele>1136.0</ele><time>2026-03-26T11:43:00.931Z</time></trkpt><trkpt lat="30.85156856192621" lon="-6.831528462290054"><ele>1136.0</ele><time>2026-03-26T11:43:02.931Z</time></trkpt><trkpt lat="30.851668568103555" lon="-6.831522892069407"><ele>1136.0</ele><time>2026-03-26T11:43:04.931Z</time></trkpt><trkpt lat="30.85177698915365" lon="-6.831574775449194"><ele>1136.0</ele><time>2026-03-26T11:43:06.931Z</time></trkpt><trkpt lat="30.851841021773936" lon="-6.831627238500616"><ele>1136.0</ele><time>2026-03-26T11:43:07.931Z</time></trkpt><trkpt lat="30.851901018497973" lon="-6.831724386878931"><ele>1136.0</ele><time>2026-03-26T11:43:08.931Z</time></trkpt><trkpt lat="30.851964279057665" lon="-6.831765632826795"><ele>1135.6666666666667</ele><time>2026-03-26T11:43:09.931Z</time></trkpt><trkpt lat="30.852033450437528" lon="-6.831795800214303"><ele>1135.3333333333335</ele><time>2026-03-26T11:43:10.931Z</time></trkpt><trkpt lat="30.85209661645759" lon="-6.831840804600433"><ele>1135.0</ele><time>2026-03-26T11:43:11.931Z</time></trkpt><trkpt lat="30.852186148403348" lon="-6.831896612773968"><ele>1134.6666666666667</ele><time>2026-03-26T11:43:12.931Z</time></trkpt><trkpt lat="30.852262508989824" lon="-6.831963007392076"><ele>1134.3333333333333</ele><time>2026-03-26T11:43:13.931Z</time></trkpt><trkpt lat="30.85233640388677" lon="-6.832042205772084"><ele>1134.0</ele><time>2026-03-26T11:43:14.931Z</time></trkpt><trkpt lat="30.85241791496591" lon="-6.832133667139475"><ele>1134.0</ele><time>2026-03-26T11:43:15.931Z</time></trkpt><trkpt lat="30.852498342459132" lon="-6.832235680526055"><ele>1134.0</ele><time>2026-03-26T11:43:16.931Z</time></trkpt><trkpt lat="30.852596889870288" lon="-6.832344478868787"><ele>1134.0</ele><time>2026-03-26T11:43:17.931Z</time></trkpt><trkpt lat="30.852706915603537" lon="-6.832457032778705"><ele>1134.0</ele><time>2026-03-26T11:43:18.931Z</time></trkpt><trkpt lat="30.85282199829326" lon="-6.832587179340249"><ele>1132.3333333333333</ele><time>2026-03-26T11:43:19.931Z</time></trkpt><trkpt lat="30.852952006768586" lon="-6.832746774086173"><ele>1130.6666666666665</ele><time>2026-03-26T11:43:20.931Z</time></trkpt><trkpt lat="30.85308752818994" lon="-6.8329223509463235"><ele>1129.0</ele><time>2026-03-26T11:43:21.931Z</time></trkpt><trkpt lat="30.85322746889031" lon="-6.83310447419183"><ele>1129.0</ele><time>2026-03-26T11:43:22.93Z</time></trkpt><trkpt lat="30.853360568109373" lon="-6.833286721691334"><ele>1129.0</ele><time>2026-03-26T11:43:23.93Z</time></trkpt><trkpt lat="30.853489931713284" lon="-6.833462019675448"><ele>1129.0</ele><time>2026-03-26T11:43:24.931Z</time></trkpt><trkpt lat="30.853607402910413" lon="-6.833622095697551"><ele>1129.0</ele><time>2026-03-26T11:43:25.931Z</time></trkpt><trkpt lat="30.853713601507355" lon="-6.833773000838939"><ele>1129.0</ele><time>2026-03-26T11:43:26.931Z</time></trkpt><trkpt lat="30.853820181093695" lon="-6.833933278679212"><ele>1129.0</ele><time>2026-03-26T11:43:27.931Z</time></trkpt><trkpt lat="30.85393562032267" lon="-6.834099616033783"><ele>1129.0</ele><time>2026-03-26T11:43:28.931Z</time></trkpt><trkpt lat="30.85404880960644" lon="-6.834267701703071"><ele>1129.0</ele><time>2026-03-26T11:43:29.931Z</time></trkpt><trkpt lat="30.854168474433628" lon="-6.8344357182671835"><ele>1129.0</ele><time>2026-03-26T11:43:30.931Z</time></trkpt><trkpt lat="30.854283802443575" lon="-6.834605436720213"><ele>1128.0</ele><time>2026-03-26T11:43:31.931Z</time></trkpt><trkpt lat="30.854395718173866" lon="-6.834770059231641"><ele>1127.0</ele><time>2026-03-26T11:43:32.931Z</time></trkpt><trkpt lat="30.854508289073443" lon="-6.8349308683382874"><ele>1126.0</ele><time>2026-03-26T11:43:33.931Z</time></trkpt><trkpt lat="30.854626375496952" lon="-6.8350894302574075"><ele>1127.0</ele><time>2026-03-26T11:43:34.931Z</time></trkpt><trkpt lat="30.854738147174466" lon="-6.8352508632091835"><ele>1128.0</ele><time>2026-03-26T11:43:35.931Z</time></trkpt><trkpt lat="30.854855269407278" lon="-6.835408176144656"><ele>1129.0</ele><time>2026-03-26T11:43:36.931Z</time></trkpt><trkpt lat="30.8549975793434" lon="-6.83554345219385"><ele>1128.3333333333333</ele><time>2026-03-26T11:43:37.931Z</time></trkpt><trkpt lat="30.855134519169102" lon="-6.835691792715105"><ele>1127.6666666666667</ele><time>2026-03-26T11:43:38.931Z</time></trkpt><trkpt lat="30.855275395981444" lon="-6.8358357459954115"><ele>1127.0</ele><time>2026-03-26T11:43:39.931Z</time></trkpt><trkpt lat="30.855416692992517" lon="-6.835980460721404"><ele>1126.6666666666667</ele><time>2026-03-26T11:43:40.931Z</time></trkpt><trkpt lat="30.85557037804544" lon="-6.8361316423557605"><ele>1126.3333333333333</ele><time>2026-03-26T11:43:41.931Z</time></trkpt><trkpt lat="30.855725531656997" lon="-6.836282963324071"><ele>1126.0</ele><time>2026-03-26T11:43:42.931Z</time></trkpt><trkpt lat="30.85587892782855" lon="-6.8364245512578075"><ele>1125.0</ele><time>2026-03-26T11:43:43.931Z</time></trkpt><trkpt lat="30.856030728319936" lon="-6.836563889022439"><ele>1124.0</ele><time>2026-03-26T11:43:44.931Z</time></trkpt><trkpt lat="30.856176144608977" lon="-6.836695720655487"><ele>1123.0</ele><time>2026-03-26T11:43:45.931Z</time></trkpt><trkpt lat="30.8563255098382" lon="-6.836823571743523"><ele>1125.3333333333333</ele><time>2026-03-26T11:43:46.931Z</time></trkpt><trkpt lat="30.856476189618856" lon="-6.8369535793451295"><ele>1127.6666666666667</ele><time>2026-03-26T11:43:47.931Z</time></trkpt><trkpt lat="30.856620575171146" lon="-6.837077647203761"><ele>1130.0</ele><time>2026-03-26T11:43:48.931Z</time></trkpt><trkpt lat="30.856762021686137" lon="-6.8372156134855295"><ele>1129.0</ele><time>2026-03-26T11:43:49.931Z</time></trkpt><trkpt lat="30.85692248370839" lon="-6.837326331424853"><ele>1128.0</ele><time>2026-03-26T11:43:50.931Z</time></trkpt><trkpt lat="30.857091722819327" lon="-6.837434394552141"><ele>1127.0</ele><time>2026-03-26T11:43:51.931Z</time></trkpt><trkpt lat="30.857266044507753" lon="-6.837541045402781"><ele>1126.6666666666667</ele><time>2026-03-26T11:43:52.931Z</time></trkpt><trkpt lat="30.85744619936249" lon="-6.837646531671336"><ele>1126.3333333333333</ele><time>2026-03-26T11:43:53.931Z</time></trkpt><trkpt lat="30.85762624931179" lon="-6.837749821657869"><ele>1126.0</ele><time>2026-03-26T11:43:54.931Z</time></trkpt><trkpt lat="30.857811980676026" lon="-6.837857002795965"><ele>1126.0</ele><time>2026-03-26T11:43:55.931Z</time></trkpt><trkpt lat="30.857997462730555" lon="-6.837967239320112"><ele>1126.0</ele><time>2026-03-26T11:43:56.931Z</time></trkpt><trkpt lat="30.858180512247973" lon="-6.83807460467"><ele>1126.0</ele><time>2026-03-26T11:43:57.931Z</time></trkpt><trkpt lat="30.858364499736755" lon="-6.8381788506803005"><ele>1125.3333333333333</ele><time>2026-03-26T11:43:58.931Z</time></trkpt><trkpt lat="30.85854464970143" lon="-6.838287204551642"><ele>1124.6666666666667</ele><time>2026-03-26T11:43:59.931Z</time></trkpt><trkpt lat="30.858726964021265" lon="-6.8383936148682345"><ele>1124.0</ele><time>2026-03-26T11:44:00.931Z</time></trkpt><trkpt lat="30.858908952172136" lon="-6.838500902725003"><ele>1126.3333333333335</ele><time>2026-03-26T11:44:01.931Z</time></trkpt><trkpt lat="30.859088602145622" lon="-6.8386055708736695"><ele>1128.6666666666667</ele><time>2026-03-26T11:44:02.931Z</time></trkpt><trkpt lat="30.859269630450374" lon="-6.838707592882951"><ele>1131.0</ele><time>2026-03-26T11:44:03.931Z</time></trkpt><trkpt lat="30.859450796374574" lon="-6.838806062007061"><ele>1131.0</ele><time>2026-03-26T11:44:04.931Z</time></trkpt><trkpt lat="30.859628075019586" lon="-6.838907035037625"><ele>1131.0</ele><time>2026-03-26T11:44:05.931Z</time></trkpt><trkpt lat="30.859800305905093" lon="-6.839009510170803"><ele>1131.0</ele><time>2026-03-26T11:44:06.931Z</time></trkpt><trkpt lat="30.859966240863052" lon="-6.839107253902684"><ele>1130.3333333333333</ele><time>2026-03-26T11:44:07.931Z</time></trkpt><trkpt lat="30.860117155039358" lon="-6.8391945468480415"><ele>1129.6666666666665</ele><time>2026-03-26T11:44:08.931Z</time></trkpt><trkpt lat="30.860263817614314" lon="-6.839273909711628"><ele>1129.0</ele><time>2026-03-26T11:44:09.931Z</time></trkpt><trkpt lat="30.860409678792927" lon="-6.839365937219567"><ele>1133.6666666666665</ele><time>2026-03-26T11:44:10.931Z</time></trkpt><trkpt lat="30.860552997855077" lon="-6.839453880461023"><ele>1138.3333333333333</ele><time>2026-03-26T11:44:11.931Z</time></trkpt><trkpt lat="30.860696668724184" lon="-6.8395502707376705"><ele>1143.0</ele><time>2026-03-26T11:44:12.931Z</time></trkpt><trkpt lat="30.86083747092761" lon="-6.839658008824003"><ele>1141.3333333333333</ele><time>2026-03-26T11:44:13.931Z</time></trkpt><trkpt lat="30.860976072970328" lon="-6.839777830703637"><ele>1139.6666666666665</ele><time>2026-03-26T11:44:14.931Z</time></trkpt><trkpt lat="30.861110533404435" lon="-6.839905536032286"><ele>1138.0</ele><time>2026-03-26T11:44:15.931Z</time></trkpt><trkpt lat="30.861234786485802" lon="-6.8400404309352085"><ele>1138.6666666666665</ele><time>2026-03-26T11:44:16.931Z</time></trkpt><trkpt lat="30.86135185053801" lon="-6.840181451270703"><ele>1139.3333333333333</ele><time>2026-03-26T11:44:17.931Z</time></trkpt><trkpt lat="30.86146229908384" lon="-6.840333162445847"><ele>1140.0</ele><time>2026-03-26T11:44:18.931Z</time></trkpt><trkpt lat="30.86156898953359" lon="-6.840498159143667"><ele>1140.0</ele><time>2026-03-26T11:44:19.931Z</time></trkpt><trkpt lat="30.86169713578019" lon="-6.840662197237963"><ele>1140.0</ele><time>2026-03-26T11:44:20.931Z</time></trkpt><trkpt lat="30.861791777144795" lon="-6.840843914940105"><ele>1140.0</ele><time>2026-03-26T11:44:21.931Z</time></trkpt><trkpt lat="30.86187443329292" lon="-6.841012300690452"><ele>1137.0</ele><time>2026-03-26T11:44:22.931Z</time></trkpt><trkpt lat="30.861942259472446" lon="-6.841181657268617"><ele>1134.0</ele><time>2026-03-26T11:44:23.931Z</time></trkpt><trkpt lat="30.862007404087542" lon="-6.841355726715075"><ele>1131.0</ele><time>2026-03-26T11:44:24.931Z</time></trkpt><trkpt lat="30.862060543315568" lon="-6.841536652452521"><ele>1131.0</ele><time>2026-03-26T11:44:25.931Z</time></trkpt><trkpt lat="30.862106853065754" lon="-6.841722459990823"><ele>1131.0</ele><time>2026-03-26T11:44:26.931Z</time></trkpt><trkpt lat="30.86214406960231" lon="-6.841913636771596"><ele>1131.0</ele><time>2026-03-26T11:44:27.931Z</time></trkpt><trkpt lat="30.86217600575303" lon="-6.842109399150995"><ele>1130.6666666666667</ele><time>2026-03-26T11:44:28.931Z</time></trkpt><trkpt lat="30.862206363586957" lon="-6.842306828470541"><ele>1130.3333333333335</ele><time>2026-03-26T11:44:29.931Z</time></trkpt><trkpt lat="30.86223700273412" lon="-6.842508467728143"><ele>1130.0</ele><time>2026-03-26T11:44:30.931Z</time></trkpt><trkpt lat="30.862263461250055" lon="-6.842711083456798"><ele>1130.0</ele><time>2026-03-26T11:44:31.931Z</time></trkpt><trkpt lat="30.862295921839774" lon="-6.842919989131334"><ele>1130.0</ele><time>2026-03-26T11:44:32.931Z</time></trkpt><trkpt lat="30.862330299510795" lon="-6.8431465871864265"><ele>1130.0</ele><time>2026-03-26T11:44:33.931Z</time></trkpt><trkpt lat="30.862362616617286" lon="-6.843361796544492"><ele>1128.6666666666667</ele><time>2026-03-26T11:44:34.931Z</time></trkpt><trkpt lat="30.86239376735392" lon="-6.8435757127224495"><ele>1127.3333333333333</ele><time>2026-03-26T11:44:35.931Z</time></trkpt><trkpt lat="30.862426441661913" lon="-6.8437872013141225"><ele>1126.0</ele><time>2026-03-26T11:44:36.931Z</time></trkpt><trkpt lat="30.862453983232736" lon="-6.843999583278721"><ele>1126.0</ele><time>2026-03-26T11:44:37.931Z</time></trkpt><trkpt lat="30.862481476285975" lon="-6.844215955935565"><ele>1126.0</ele><time>2026-03-26T11:44:38.931Z</time></trkpt><trkpt lat="30.86251137229845" lon="-6.844435190866105"><ele>1126.0</ele><time>2026-03-26T11:44:39.931Z</time></trkpt><trkpt lat="30.862544320280957" lon="-6.844652787600718"><ele>1125.6666666666665</ele><time>2026-03-26T11:44:40.931Z</time></trkpt><trkpt lat="30.86257730237875" lon="-6.8448686623327015"><ele>1125.3333333333333</ele><time>2026-03-26T11:44:41.931Z</time></trkpt><trkpt lat="30.862610360583513" lon="-6.845087278054807"><ele>1125.0</ele><time>2026-03-26T11:44:42.931Z</time></trkpt><trkpt lat="30.862644593014526" lon="-6.845311504120996"><ele>1124.0</ele><time>2026-03-26T11:44:43.931Z</time></trkpt><trkpt lat="30.862677192873264" lon="-6.845536988634017"><ele>1123.0</ele><time>2026-03-26T11:44:44.931Z</time></trkpt><trkpt lat="30.86270979539389" lon="-6.8457783063830675"><ele>1122.0</ele><time>2026-03-26T11:44:45.931Z</time></trkpt><trkpt lat="30.862746192313768" lon="-6.846024958881488"><ele>1122.0</ele><time>2026-03-26T11:44:46.931Z</time></trkpt><trkpt lat="30.862782389388226" lon="-6.846269043566933"><ele>1122.0</ele><time>2026-03-26T11:44:47.931Z</time></trkpt><trkpt lat="30.862817626017893" lon="-6.846512718428034"><ele>1122.0</ele><time>2026-03-26T11:44:48.931Z</time></trkpt><trkpt lat="30.86285470441241" lon="-6.846758263465184"><ele>1122.5</ele><time>2026-03-26T11:44:49.93Z</time></trkpt><trkpt lat="30.862894608540138" lon="-6.847021875444008"><ele>1123.0</ele><time>2026-03-26T11:44:50.93Z</time></trkpt><trkpt lat="30.862936139284855" lon="-6.847292757333381"><ele>1123.0</ele><time>2026-03-26T11:44:51.93Z</time></trkpt><trkpt lat="30.86297588883838" lon="-6.847531503866898"><ele>1123.0</ele><time>2026-03-26T11:44:52.93Z</time></trkpt><trkpt lat="30.86300981971735" lon="-6.8477636671431155"><ele>1123.0</ele><time>2026-03-26T11:44:53.93Z</time></trkpt><trkpt lat="30.86303870694218" lon="-6.847992863158923"><ele>1124.0</ele><time>2026-03-26T11:44:54.93Z</time></trkpt><trkpt lat="30.863068545135356" lon="-6.848213859819123"><ele>1125.0</ele><time>2026-03-26T11:44:55.93Z</time></trkpt><trkpt lat="30.863099429539652" lon="-6.84843146544791"><ele>1126.0</ele><time>2026-03-26T11:44:56.93Z</time></trkpt><trkpt lat="30.863131838438953" lon="-6.848649125939367"><ele>1126.6666666666665</ele><time>2026-03-26T11:44:57.93Z</time></trkpt><trkpt lat="30.86316494971997" lon="-6.8488708722030935"><ele>1127.3333333333333</ele><time>2026-03-26T11:44:58.93Z</time></trkpt><trkpt lat="30.863194896549338" lon="-6.849090694126847"><ele>1128.0</ele><time>2026-03-26T11:44:59.93Z</time></trkpt><trkpt lat="30.863231353859028" lon="-6.849307278229628"><ele>1128.6666666666667</ele><time>2026-03-26T11:45:00.93Z</time></trkpt><trkpt lat="30.863265475562507" lon="-6.849520199004242"><ele>1129.3333333333335</ele><time>2026-03-26T11:45:01.93Z</time></trkpt><trkpt lat="30.863300849370876" lon="-6.849729156800187"><ele>1130.0</ele><time>2026-03-26T11:45:02.93Z</time></trkpt><trkpt lat="30.863334814217932" lon="-6.849932511435735"><ele>1130.6666666666667</ele><time>2026-03-26T11:45:03.93Z</time></trkpt><trkpt lat="30.86336891901667" lon="-6.850133664090012"><ele>1131.3333333333333</ele><time>2026-03-26T11:45:04.93Z</time></trkpt><trkpt lat="30.863408055094926" lon="-6.850336338210558"><ele>1132.0</ele><time>2026-03-26T11:45:05.93Z</time></trkpt><trkpt lat="30.863447790047033" lon="-6.8505402627616245"><ele>1131.0</ele><time>2026-03-26T11:45:06.93Z</time></trkpt><trkpt lat="30.86348963802234" lon="-6.8507442516490835"><ele>1130.0</ele><time>2026-03-26T11:45:07.93Z</time></trkpt><trkpt lat="30.86353378350025" lon="-6.850946468254492"><ele>1129.0</ele><time>2026-03-26T11:45:08.93Z</time></trkpt><trkpt lat="30.863576811740955" lon="-6.851151383543834"><ele>1129.0</ele><time>2026-03-26T11:45:09.93Z</time></trkpt><trkpt lat="30.863620110591974" lon="-6.851360958319205"><ele>1129.0</ele><time>2026-03-26T11:45:10.93Z</time></trkpt><trkpt lat="30.863666079110406" lon="-6.851570952203864"><ele>1129.0</ele><time>2026-03-26T11:45:11.93Z</time></trkpt><trkpt lat="30.863713340446175" lon="-6.851785235965847"><ele>1129.6666666666665</ele><time>2026-03-26T11:45:12.93Z</time></trkpt><trkpt lat="30.86375540506194" lon="-6.852000366018388"><ele>1130.3333333333333</ele><time>2026-03-26T11:45:13.93Z</time></trkpt><trkpt lat="30.86380422408552" lon="-6.852221069649872"><ele>1131.0</ele><time>2026-03-26T11:45:14.93Z</time></trkpt><trkpt lat="30.863857377673156" lon="-6.852443559860176"><ele>1130.6666666666667</ele><time>2026-03-26T11:45:15.93Z</time></trkpt><trkpt lat="30.86390153464095" lon="-6.852658426716315"><ele>1130.3333333333335</ele><time>2026-03-26T11:45:16.93Z</time></trkpt><trkpt lat="30.863942843739743" lon="-6.8528685878891"><ele>1130.0</ele><time>2026-03-26T11:45:17.93Z</time></trkpt><trkpt lat="30.863988714220575" lon="-6.853079375487682"><ele>1130.0</ele><time>2026-03-26T11:45:18.93Z</time></trkpt><trkpt lat="30.864033198155155" lon="-6.8532880992033185"><ele>1130.0</ele><time>2026-03-26T11:45:19.93Z</time></trkpt><trkpt lat="30.864077180059663" lon="-6.853498717196838"><ele>1130.0</ele><time>2026-03-26T11:45:20.93Z</time></trkpt><trkpt lat="30.864125038972126" lon="-6.853707979194729"><ele>1130.6666666666667</ele><time>2026-03-26T11:45:21.93Z</time></trkpt><trkpt lat="30.864172101956164" lon="-6.85390783486907"><ele>1131.3333333333333</ele><time>2026-03-26T11:45:22.93Z</time></trkpt><trkpt lat="30.86421586187078" lon="-6.854113333576216"><ele>1132.0</ele><time>2026-03-26T11:45:23.93Z</time></trkpt><trkpt lat="30.864268629207213" lon="-6.854316017751126"><ele>1131.6666666666665</ele><time>2026-03-26T11:45:24.931Z</time></trkpt><trkpt lat="30.864310502660704" lon="-6.854520132136457"><ele>1131.3333333333333</ele><time>2026-03-26T11:45:25.93Z</time></trkpt><trkpt lat="30.864358179200803" lon="-6.8547261829075365"><ele>1131.0</ele><time>2026-03-26T11:45:26.93Z</time></trkpt><trkpt lat="30.864404678062712" lon="-6.854933389000115"><ele>1131.0</ele><time>2026-03-26T11:45:27.931Z</time></trkpt><trkpt lat="30.86446562182092" lon="-6.8551371689255145"><ele>1131.0</ele><time>2026-03-26T11:45:28.93Z</time></trkpt><trkpt lat="30.864512257430444" lon="-6.855349948196853"><ele>1131.0</ele><time>2026-03-26T11:45:29.93Z</time></trkpt><trkpt lat="30.864560130544696" lon="-6.85556952923112"><ele>1131.0</ele><time>2026-03-26T11:45:30.93Z</time></trkpt><trkpt lat="30.864605945278438" lon="-6.855779616818691"><ele>1131.0</ele><time>2026-03-26T11:45:31.93Z</time></trkpt><trkpt lat="30.864634977383485" lon="-6.85598826915312"><ele>1131.0</ele><time>2026-03-26T11:45:32.93Z</time></trkpt><trkpt lat="30.864694014245487" lon="-6.8561834650334275"><ele>1131.0</ele><time>2026-03-26T11:45:33.93Z</time></trkpt><trkpt lat="30.86473719334965" lon="-6.856381466656558"><ele>1131.0</ele><time>2026-03-26T11:45:34.93Z</time></trkpt><trkpt lat="30.864773249569765" lon="-6.856583733747504"><ele>1131.0</ele><time>2026-03-26T11:45:35.93Z</time></trkpt><trkpt lat="30.864806161919457" lon="-6.856786710853237"><ele>1131.0</ele><time>2026-03-26T11:45:36.93Z</time></trkpt><trkpt lat="30.864826601926765" lon="-6.856994522002995"><ele>1131.0</ele><time>2026-03-26T11:45:37.93Z</time></trkpt><trkpt lat="30.864842963977534" lon="-6.857189177601345"><ele>1131.0</ele><time>2026-03-26T11:45:38.93Z</time></trkpt><trkpt lat="30.864822887630012" lon="-6.857391201907845"><ele>1131.0</ele><time>2026-03-26T11:45:39.93Z</time></trkpt><trkpt lat="30.86483305391691" lon="-6.857589000807109"><ele>1131.0</ele><time>2026-03-26T11:45:40.93Z</time></trkpt><trkpt lat="30.864819210676288" lon="-6.857786047906701"><ele>1131.0</ele><time>2026-03-26T11:45:41.93Z</time></trkpt><trkpt lat="30.864803716873386" lon="-6.8579946424970775"><ele>1131.0</ele><time>2026-03-26T11:45:42.93Z</time></trkpt><trkpt lat="30.86478462560688" lon="-6.858201880199495"><ele>1131.0</ele><time>2026-03-26T11:45:43.93Z</time></trkpt><trkpt lat="30.864765588466494" lon="-6.858414194273184"><ele>1131.0</ele><time>2026-03-26T11:45:44.93Z</time></trkpt><trkpt lat="30.864747071481663" lon="-6.858608327056843"><ele>1131.0</ele><time>2026-03-26T11:45:45.93Z</time></trkpt><trkpt lat="30.864726788279675" lon="-6.858783229181134"><ele>1131.0</ele><time>2026-03-26T11:45:46.93Z</time></trkpt><trkpt lat="30.86471346809531" lon="-6.858950851502774"><ele>1131.0</ele><time>2026-03-26T11:45:47.93Z</time></trkpt><trkpt lat="30.864704444141555" lon="-6.85912096000158"><ele>1131.0</ele><time>2026-03-26T11:45:48.93Z</time></trkpt><trkpt lat="30.86470255125621" lon="-6.859298571076289"><ele>1131.3333333333333</ele><time>2026-03-26T11:45:49.93Z</time></trkpt><trkpt lat="30.864710100561314" lon="-6.859474190268735"><ele>1131.6666666666665</ele><time>2026-03-26T11:45:50.93Z</time></trkpt><trkpt lat="30.864722033465767" lon="-6.859651864071714"><ele>1132.0</ele><time>2026-03-26T11:45:51.93Z</time></trkpt><trkpt lat="30.86474056390542" lon="-6.8598282837982145"><ele>1132.0</ele><time>2026-03-26T11:45:52.93Z</time></trkpt><trkpt lat="30.864764359406212" lon="-6.8600074529476975"><ele>1132.0</ele><time>2026-03-26T11:45:53.929Z</time></trkpt><trkpt lat="30.864800828931664" lon="-6.860178278191714"><ele>1132.0</ele><time>2026-03-26T11:45:54.929Z</time></trkpt><trkpt lat="30.86484003128223" lon="-6.860344623722418"><ele>1131.5</ele><time>2026-03-26T11:45:55.929Z</time></trkpt><trkpt lat="30.86488369760474" lon="-6.860502562128558"><ele>1131.0</ele><time>2026-03-26T11:45:56.929Z</time></trkpt><trkpt lat="30.864931591746387" lon="-6.860655774905421"><ele>1130.5</ele><time>2026-03-26T11:45:57.929Z</time></trkpt><trkpt lat="30.86498688288875" lon="-6.860814017681445"><ele>1130.0</ele><time>2026-03-26T11:45:58.929Z</time></trkpt><trkpt lat="30.86504535769838" lon="-6.860974651439159"><ele>1128.5</ele><time>2026-03-26T11:45:59.929Z</time></trkpt><trkpt lat="30.865105141289053" lon="-6.861127946717195"><ele>1127.0</ele><time>2026-03-26T11:46:00.929Z</time></trkpt><trkpt lat="30.865154362002528" lon="-6.861256942526409"><ele>1125.5</ele><time>2026-03-26T11:46:01.929Z</time></trkpt><trkpt lat="30.865198501959014" lon="-6.861378572421184"><ele>1124.0</ele><time>2026-03-26T11:46:02.929Z</time></trkpt><trkpt lat="30.86523914200891" lon="-6.8614916983243495"><ele>1123.2</ele><time>2026-03-26T11:46:03.929Z</time></trkpt><trkpt lat="30.86529583664698" lon="-6.861585830134475"><ele>1122.4</ele><time>2026-03-26T11:46:04.929Z</time></trkpt><trkpt lat="30.865343535804605" lon="-6.861682212823527"><ele>1121.6</ele><time>2026-03-26T11:46:05.929Z</time></trkpt><trkpt lat="30.865379162566125" lon="-6.861777683637926"><ele>1120.8</ele><time>2026-03-26T11:46:06.929Z</time></trkpt><trkpt lat="30.865416968594854" lon="-6.8618789943283325"><ele>1120.0</ele><time>2026-03-26T11:46:07.929Z</time></trkpt><trkpt lat="30.865458028219805" lon="-6.861989023841516"><ele>1119.6</ele><time>2026-03-26T11:46:08.929Z</time></trkpt><trkpt lat="30.865500146526625" lon="-6.862101890355752"><ele>1119.2</ele><time>2026-03-26T11:46:09.929Z</time></trkpt><trkpt lat="30.86554412321723" lon="-6.8622197368680515"><ele>1118.8</ele><time>2026-03-26T11:46:10.929Z</time></trkpt><trkpt lat="30.865588655066155" lon="-6.862339071067637"><ele>1118.4</ele><time>2026-03-26T11:46:11.929Z</time></trkpt><trkpt lat="30.865635601064913" lon="-6.862463457623692"><ele>1118.0</ele><time>2026-03-26T11:46:12.929Z</time></trkpt><trkpt lat="30.865676244919907" lon="-6.8625874792919"><ele>1118.5</ele><time>2026-03-26T11:46:13.929Z</time></trkpt><trkpt lat="30.865721324922728" lon="-6.862712353384812"><ele>1119.0</ele><time>2026-03-26T11:46:14.929Z</time></trkpt><trkpt lat="30.865765627112275" lon="-6.8628397062371125"><ele>1119.5</ele><time>2026-03-26T11:46:15.929Z</time></trkpt><trkpt lat="30.865814380086064" lon="-6.8629632441612465"><ele>1120.0</ele><time>2026-03-26T11:46:16.929Z</time></trkpt><trkpt lat="30.865870657388566" lon="-6.863085348262535"><ele>1120.0</ele><time>2026-03-26T11:46:17.929Z</time></trkpt><trkpt lat="30.86591721061579" lon="-6.863209540471436"><ele>1120.0</ele><time>2026-03-26T11:46:18.929Z</time></trkpt><trkpt lat="30.86596562482231" lon="-6.863341117051485"><ele>1120.0</ele><time>2026-03-26T11:46:19.929Z</time></trkpt><trkpt lat="30.86601322782661" lon="-6.863475546249517"><ele>1120.0</ele><time>2026-03-26T11:46:20.929Z</time></trkpt><trkpt lat="30.866069207441225" lon="-6.863614215897656"><ele>1121.25</ele><time>2026-03-26T11:46:21.929Z</time></trkpt><trkpt lat="30.866120703503036" lon="-6.863744718988908"><ele>1122.5</ele><time>2026-03-26T11:46:22.929Z</time></trkpt><trkpt lat="30.866164453646952" lon="-6.863867429627529"><ele>1123.75</ele><time>2026-03-26T11:46:23.929Z</time></trkpt><trkpt lat="30.866213206493132" lon="-6.863996411559599"><ele>1125.0</ele><time>2026-03-26T11:46:24.929Z</time></trkpt><trkpt lat="30.866265296598236" lon="-6.864133512308952"><ele>1125.0</ele><time>2026-03-26T11:46:25.929Z</time></trkpt><trkpt lat="30.866321539433915" lon="-6.8642787769440625"><ele>1125.0</ele><time>2026-03-26T11:46:26.929Z</time></trkpt><trkpt lat="30.866378183270353" lon="-6.864435355663311"><ele>1125.0</ele><time>2026-03-26T11:46:27.929Z</time></trkpt><trkpt lat="30.866436026981408" lon="-6.864595891763361"><ele>1125.0</ele><time>2026-03-26T11:46:28.929Z</time></trkpt><trkpt lat="30.866498409368692" lon="-6.86476301946238"><ele>1125.6666666666667</ele><time>2026-03-26T11:46:29.929Z</time></trkpt><trkpt lat="30.866568631356497" lon="-6.864944786492047"><ele>1126.3333333333335</ele><time>2026-03-26T11:46:30.929Z</time></trkpt><trkpt lat="30.866645217454668" lon="-6.865153520099553"><ele>1127.0</ele><time>2026-03-26T11:46:31.929Z</time></trkpt><trkpt lat="30.866720980306" lon="-6.865357293489704"><ele>1127.0</ele><time>2026-03-26T11:46:32.929Z</time></trkpt><trkpt lat="30.866816051577533" lon="-6.865542304175658"><ele>1127.0</ele><time>2026-03-26T11:46:33.929Z</time></trkpt><trkpt lat="30.86688941446216" lon="-6.865730425110272"><ele>1127.0</ele><time>2026-03-26T11:46:34.929Z</time></trkpt><trkpt lat="30.86696090806224" lon="-6.865921452322367"><ele>1127.6666666666667</ele><time>2026-03-26T11:46:35.929Z</time></trkpt><trkpt lat="30.86703006033927" lon="-6.86610809207438"><ele>1128.3333333333333</ele><time>2026-03-26T11:46:36.929Z</time></trkpt><trkpt lat="30.86709924861933" lon="-6.866292034427265"><ele>1129.0</ele><time>2026-03-26T11:46:37.929Z</time></trkpt><trkpt lat="30.867163351935563" lon="-6.866471698342637"><ele>1129.0</ele><time>2026-03-26T11:46:38.929Z</time></trkpt><trkpt lat="30.867219202699108" lon="-6.866652274401338"><ele>1129.0</ele><time>2026-03-26T11:46:39.929Z</time></trkpt><trkpt lat="30.867265518807926" lon="-6.86683689634312"><ele>1129.0</ele><time>2026-03-26T11:46:40.929Z</time></trkpt><trkpt lat="30.867302195473616" lon="-6.867025383138908"><ele>1130.0</ele><time>2026-03-26T11:46:41.929Z</time></trkpt><trkpt lat="30.86733568811584" lon="-6.867219207792503"><ele>1131.0</ele><time>2026-03-26T11:46:42.929Z</time></trkpt><trkpt lat="30.867363035043194" lon="-6.867418593046019"><ele>1132.0</ele><time>2026-03-26T11:46:43.929Z</time></trkpt><trkpt lat="30.867379491844513" lon="-6.867623570744818"><ele>1133.0</ele><time>2026-03-26T11:46:44.929Z</time></trkpt><trkpt lat="30.867387160286036" lon="-6.867832641998899"><ele>1134.0</ele><time>2026-03-26T11:46:45.929Z</time></trkpt><trkpt lat="30.86738820217482" lon="-6.868041073315814"><ele>1135.0</ele><time>2026-03-26T11:46:46.929Z</time></trkpt><trkpt lat="30.86738060054487" lon="-6.868250679378202"><ele>1135.6666666666665</ele><time>2026-03-26T11:46:47.929Z</time></trkpt><trkpt lat="30.867363906662078" lon="-6.868453747671983"><ele>1136.3333333333333</ele><time>2026-03-26T11:46:48.929Z</time></trkpt><trkpt lat="30.867342371041524" lon="-6.868651925973775"><ele>1137.0</ele><time>2026-03-26T11:46:49.929Z</time></trkpt><trkpt lat="30.867324298239815" lon="-6.868848559855551"><ele>1137.0</ele><time>2026-03-26T11:46:50.929Z</time></trkpt><trkpt lat="30.867306582065726" lon="-6.86904900796876"><ele>1137.0</ele><time>2026-03-26T11:46:51.929Z</time></trkpt><trkpt lat="30.867287589726413" lon="-6.869254095439141"><ele>1137.0</ele><time>2026-03-26T11:46:52.929Z</time></trkpt><trkpt lat="30.867269218248914" lon="-6.869462945734948"><ele>1138.3333333333333</ele><time>2026-03-26T11:46:53.929Z</time></trkpt><trkpt lat="30.867255550752436" lon="-6.869666274549294"><ele>1139.6666666666665</ele><time>2026-03-26T11:46:54.929Z</time></trkpt><trkpt lat="30.867259605118573" lon="-6.869865723984854"><ele>1141.0</ele><time>2026-03-26T11:46:55.929Z</time></trkpt><trkpt lat="30.867236463119333" lon="-6.8700569269261855"><ele>1141.3333333333333</ele><time>2026-03-26T11:46:56.929Z</time></trkpt><trkpt lat="30.867254452038683" lon="-6.87024667406878"><ele>1141.6666666666667</ele><time>2026-03-26T11:46:57.929Z</time></trkpt><trkpt lat="30.867260375422102" lon="-6.870438647642792"><ele>1142.0</ele><time>2026-03-26T11:46:58.929Z</time></trkpt><trkpt lat="30.867279081608267" lon="-6.870633028433348"><ele>1142.0</ele><time>2026-03-26T11:46:59.929Z</time></trkpt><trkpt lat="30.867306219783284" lon="-6.870835979417404"><ele>1142.0</ele><time>2026-03-26T11:47:00.929Z</time></trkpt><trkpt lat="30.867354748207145" lon="-6.871037014992427"><ele>1142.0</ele><time>2026-03-26T11:47:01.929Z</time></trkpt><trkpt lat="30.86740546295205" lon="-6.871228219923159"><ele>1140.6666666666667</ele><time>2026-03-26T11:47:02.929Z</time></trkpt><trkpt lat="30.867464082738167" lon="-6.871413227141274"><ele>1139.3333333333333</ele><time>2026-03-26T11:47:03.929Z</time></trkpt><trkpt lat="30.867526022424737" lon="-6.871591504710481"><ele>1138.0</ele><time>2026-03-26T11:47:04.929Z</time></trkpt><trkpt lat="30.86759701913109" lon="-6.8717638972243895"><ele>1139.0</ele><time>2026-03-26T11:47:05.929Z</time></trkpt><trkpt lat="30.86767452054266" lon="-6.871934346628342"><ele>1140.0</ele><time>2026-03-26T11:47:06.929Z</time></trkpt><trkpt lat="30.8677562284037" lon="-6.872106167643285"><ele>1141.0</ele><time>2026-03-26T11:47:07.929Z</time></trkpt><trkpt lat="30.867848840502784" lon="-6.87227917058209"><ele>1141.0</ele><time>2026-03-26T11:47:08.929Z</time></trkpt><trkpt lat="30.867939324167025" lon="-6.872450054373517"><ele>1141.0</ele><time>2026-03-26T11:47:09.929Z</time></trkpt><trkpt lat="30.868028154706547" lon="-6.872613483111379"><ele>1141.0</ele><time>2026-03-26T11:47:10.929Z</time></trkpt><trkpt lat="30.868113757328842" lon="-6.872772735433885"><ele>1140.6666666666665</ele><time>2026-03-26T11:47:11.929Z</time></trkpt><trkpt lat="30.86820107757458" lon="-6.87293944184628"><ele>1140.3333333333333</ele><time>2026-03-26T11:47:12.929Z</time></trkpt><trkpt lat="30.868294823512848" lon="-6.873112845322144"><ele>1140.0</ele><time>2026-03-26T11:47:13.929Z</time></trkpt><trkpt lat="30.868389192396158" lon="-6.873283767152435"><ele>1141.6666666666667</ele><time>2026-03-26T11:47:14.929Z</time></trkpt><trkpt lat="30.868485317848965" lon="-6.873455964807503"><ele>1143.3333333333335</ele><time>2026-03-26T11:47:15.929Z</time></trkpt><trkpt lat="30.868580550076192" lon="-6.873631475624651"><ele>1145.0</ele><time>2026-03-26T11:47:16.929Z</time></trkpt><trkpt lat="30.868676170103114" lon="-6.873806741230825"><ele>1145.0</ele><time>2026-03-26T11:47:17.929Z</time></trkpt><trkpt lat="30.868780047533452" lon="-6.8739791946576005"><ele>1145.0</ele><time>2026-03-26T11:47:18.929Z</time></trkpt><trkpt lat="30.868888858954737" lon="-6.874150786668434"><ele>1145.0</ele><time>2026-03-26T11:47:19.929Z</time></trkpt><trkpt lat="30.869001330928597" lon="-6.874324452338319"><ele>1144.6666666666667</ele><time>2026-03-26T11:47:20.929Z</time></trkpt><trkpt lat="30.86911899113049" lon="-6.874510349986857"><ele>1144.3333333333333</ele><time>2026-03-26T11:47:21.929Z</time></trkpt><trkpt lat="30.86924022893963" lon="-6.87469709205202"><ele>1144.0</ele><time>2026-03-26T11:47:22.929Z</time></trkpt><trkpt lat="30.86935595378079" lon="-6.8748751531595085"><ele>1145.0</ele><time>2026-03-26T11:47:23.929Z</time></trkpt><trkpt lat="30.869469406610037" lon="-6.875050497965615"><ele>1146.0</ele><time>2026-03-26T11:47:24.929Z</time></trkpt><trkpt lat="30.869578921956386" lon="-6.875223754125783"><ele>1147.0</ele><time>2026-03-26T11:47:25.929Z</time></trkpt><trkpt lat="30.86968793662572" lon="-6.875396938199588"><ele>1147.0</ele><time>2026-03-26T11:47:26.929Z</time></trkpt><trkpt lat="30.869791959430053" lon="-6.875571110540732"><ele>1147.0</ele><time>2026-03-26T11:47:27.929Z</time></trkpt><trkpt lat="30.869889470680945" lon="-6.87574795903238"><ele>1147.0</ele><time>2026-03-26T11:47:28.929Z</time></trkpt><trkpt lat="30.869983204487184" lon="-6.875925815348005"><ele>1147.0</ele><time>2026-03-26T11:47:29.929Z</time></trkpt><trkpt lat="30.87007829553635" lon="-6.876104415678383"><ele>1147.0</ele><time>2026-03-26T11:47:30.929Z</time></trkpt><trkpt lat="30.870174705430873" lon="-6.876298072726194"><ele>1147.0</ele><time>2026-03-26T11:47:31.93Z</time></trkpt><trkpt lat="30.87027558299486" lon="-6.876502083215618"><ele>1147.0</ele><time>2026-03-26T11:47:32.93Z</time></trkpt><trkpt lat="30.870367904990424" lon="-6.876680624184169"><ele>1147.0</ele><time>2026-03-26T11:47:33.929Z</time></trkpt><trkpt lat="30.870453241214843" lon="-6.8768496389271485"><ele>1147.0</ele><time>2026-03-26T11:47:34.93Z</time></trkpt><trkpt lat="30.870552749902583" lon="-6.87700673170867"><ele>1147.0</ele><time>2026-03-26T11:47:35.93Z</time></trkpt><trkpt lat="30.8706308549279" lon="-6.87719215024447"><ele>1147.0</ele><time>2026-03-26T11:47:36.929Z</time></trkpt><trkpt lat="30.870746269419584" lon="-6.8773618180349185"><ele>1147.0</ele><time>2026-03-26T11:47:37.929Z</time></trkpt><trkpt lat="30.870846876232104" lon="-6.87752390334978"><ele>1147.6666666666665</ele><time>2026-03-26T11:47:38.929Z</time></trkpt><trkpt lat="30.87094484325782" lon="-6.877679756834142"><ele>1148.3333333333333</ele><time>2026-03-26T11:47:39.93Z</time></trkpt><trkpt lat="30.871049220438998" lon="-6.8778445252649725"><ele>1149.0</ele><time>2026-03-26T11:47:40.93Z</time></trkpt><trkpt lat="30.871157792925242" lon="-6.87802224244303"><ele>1149.0</ele><time>2026-03-26T11:47:41.93Z</time></trkpt><trkpt lat="30.871271641141263" lon="-6.878195645124585"><ele>1149.0</ele><time>2026-03-26T11:47:42.93Z</time></trkpt><trkpt lat="30.871384351067224" lon="-6.878373426802253"><ele>1149.0</ele><time>2026-03-26T11:47:43.93Z</time></trkpt><trkpt lat="30.871496228933616" lon="-6.878549758782755"><ele>1149.6666666666667</ele><time>2026-03-26T11:47:44.93Z</time></trkpt><trkpt lat="30.871610434102866" lon="-6.878722900673425"><ele>1150.3333333333335</ele><time>2026-03-26T11:47:45.93Z</time></trkpt><trkpt lat="30.871722494114916" lon="-6.878895512371058"><ele>1151.0</ele><time>2026-03-26T11:47:46.93Z</time></trkpt><trkpt lat="30.871835067228147" lon="-6.87906664552404"><ele>1151.0</ele><time>2026-03-26T11:47:47.93Z</time></trkpt><trkpt lat="30.871946233617408" lon="-6.879241373640123"><ele>1151.0</ele><time>2026-03-26T11:47:48.93Z</time></trkpt><trkpt lat="30.87205480207212" lon="-6.879415513787534"><ele>1151.0</ele><time>2026-03-26T11:47:49.93Z</time></trkpt><trkpt lat="30.87215798225165" lon="-6.8795835592887045"><ele>1152.0</ele><time>2026-03-26T11:47:50.93Z</time></trkpt><trkpt lat="30.872258501685298" lon="-6.8797524883511665"><ele>1153.0</ele><time>2026-03-26T11:47:51.93Z</time></trkpt><trkpt lat="30.872358255220995" lon="-6.879926113110375"><ele>1154.0</ele><time>2026-03-26T11:47:52.93Z</time></trkpt><trkpt lat="30.872461905651875" lon="-6.880109120535648"><ele>1154.3333333333335</ele><time>2026-03-26T11:47:53.93Z</time></trkpt><trkpt lat="30.872563346894907" lon="-6.880288749629243"><ele>1154.6666666666667</ele><time>2026-03-26T11:47:54.93Z</time></trkpt><trkpt lat="30.872658084077482" lon="-6.880463791028408"><ele>1155.0</ele><time>2026-03-26T11:47:55.93Z</time></trkpt><trkpt lat="30.872752183177475" lon="-6.880638958574462"><ele>1155.0</ele><time>2026-03-26T11:47:56.93Z</time></trkpt><trkpt lat="30.87285263004362" lon="-6.880819699922806"><ele>1155.0</ele><time>2026-03-26T11:47:57.93Z</time></trkpt><trkpt lat="30.872958792693492" lon="-6.881004334098132"><ele>1155.0</ele><time>2026-03-26T11:47:58.93Z</time></trkpt><trkpt lat="30.8730497412704" lon="-6.881168295822773"><ele>1155.5</ele><time>2026-03-26T11:47:59.93Z</time></trkpt><trkpt lat="30.87313350845397" lon="-6.881308862055575"><ele>1156.0</ele><time>2026-03-26T11:48:00.93Z</time></trkpt><trkpt lat="30.873203867938894" lon="-6.881432975800535"><ele>1156.5</ele><time>2026-03-26T11:48:01.93Z</time></trkpt><trkpt lat="30.87326575218819" lon="-6.881532616006905"><ele>1157.0</ele><time>2026-03-26T11:48:02.93Z</time></trkpt><trkpt lat="30.873318787431447" lon="-6.88161401106481"><ele>1157.0</ele><time>2026-03-26T11:48:03.93Z</time></trkpt><trkpt lat="30.873362052571604" lon="-6.881684193543756"><ele>1157.0</ele><time>2026-03-26T11:48:04.93Z</time></trkpt><trkpt lat="30.873423635425063" lon="-6.881775148739105"><ele>1157.0</ele><time>2026-03-26T11:48:06.93Z</time></trkpt><trkpt lat="30.873472406163888" lon="-6.881837713432172"><ele>1157.0</ele><time>2026-03-26T11:48:08.93Z</time></trkpt><trkpt lat="30.873519953425248" lon="-6.881897017652713"><ele>1157.0</ele><time>2026-03-26T11:48:13.93Z</time></trkpt><trkpt lat="30.873578826898623" lon="-6.881924582279081"><ele>1157.0</ele><time>2026-03-26T11:50:12.922Z</time></trkpt><trkpt lat="30.873614868623786" lon="-6.881989844561891"><ele>1157.0</ele><time>2026-03-26T11:53:15.92Z</time></trkpt><trkpt lat="30.873673895569137" lon="-6.881951382197835"><ele>1157.1666666666667</ele><time>2026-03-26T11:53:18.92Z</time></trkpt><trkpt lat="30.873707735908315" lon="-6.881868304574459"><ele>1157.3333333333335</ele><time>2026-03-26T11:53:19.92Z</time></trkpt><trkpt lat="30.87373253431434" lon="-6.881797727707629"><ele>1157.5</ele><time>2026-03-26T11:53:20.92Z</time></trkpt><trkpt lat="30.873797426750247" lon="-6.881674443275894"><ele>1157.6666666666667</ele><time>2026-03-26T11:53:22.92Z</time></trkpt><trkpt lat="30.873848913338815" lon="-6.881627661272498"><ele>1157.8333333333333</ele><time>2026-03-26T11:53:23.92Z</time></trkpt><trkpt lat="30.873913555674388" lon="-6.88160403407665"><ele>1158.0</ele><time>2026-03-26T11:53:24.92Z</time></trkpt><trkpt lat="30.874007978666082" lon="-6.881574793598156"><ele>1158.0</ele><time>2026-03-26T11:53:25.92Z</time></trkpt><trkpt lat="30.874112505267565" lon="-6.881629843959436"><ele>1158.0</ele><time>2026-03-26T11:53:26.92Z</time></trkpt><trkpt lat="30.87423466692954" lon="-6.881698878329794"><ele>1158.0</ele><time>2026-03-26T11:53:27.92Z</time></trkpt><trkpt lat="30.87436695038723" lon="-6.881819665542347"><ele>1158.0</ele><time>2026-03-26T11:53:28.92Z</time></trkpt><trkpt lat="30.874480432147497" lon="-6.881865891907048"><ele>1158.75</ele><time>2026-03-26T11:53:29.92Z</time></trkpt><trkpt lat="30.874595575705207" lon="-6.881878342300786"><ele>1159.5</ele><time>2026-03-26T11:53:30.92Z</time></trkpt><trkpt lat="30.874697731714523" lon="-6.881847976876001"><ele>1160.25</ele><time>2026-03-26T11:53:31.92Z</time></trkpt><trkpt lat="30.874807116585867" lon="-6.881776533703426"><ele>1161.0</ele><time>2026-03-26T11:53:32.92Z</time></trkpt><trkpt lat="30.874915035654293" lon="-6.881663357079744"><ele>1162.3333333333333</ele><time>2026-03-26T11:53:33.92Z</time></trkpt><trkpt lat="30.875041378832385" lon="-6.881544867158187"><ele>1163.6666666666665</ele><time>2026-03-26T11:53:34.92Z</time></trkpt><trkpt lat="30.875186111298387" lon="-6.881464148649533"><ele>1165.0</ele><time>2026-03-26T11:53:35.92Z</time></trkpt><trkpt lat="30.875329378942737" lon="-6.88141423108093"><ele>1168.3333333333333</ele><time>2026-03-26T11:53:36.92Z</time></trkpt><trkpt lat="30.875482465896134" lon="-6.881386901625676"><ele>1171.6666666666667</ele><time>2026-03-26T11:53:37.92Z</time></trkpt><trkpt lat="30.87566006477067" lon="-6.881390868809298"><ele>1175.0</ele><time>2026-03-26T11:53:38.92Z</time></trkpt><trkpt lat="30.87583842162969" lon="-6.881383163280105"><ele>1179.0</ele><time>2026-03-26T11:53:39.92Z</time></trkpt><trkpt lat="30.875982840354762" lon="-6.881351100858626"><ele>1183.0</ele><time>2026-03-26T11:53:40.92Z</time></trkpt><trkpt lat="30.876102671046983" lon="-6.881288942504948"><ele>1187.0</ele><time>2026-03-26T11:53:41.92Z</time></trkpt><trkpt lat="30.876214726152703" lon="-6.881213135709912"><ele>1191.0</ele><time>2026-03-26T11:53:42.92Z</time></trkpt><trkpt lat="30.876308748281403" lon="-6.88115092284931"><ele>1191.0</ele><time>2026-03-26T11:53:43.92Z</time></trkpt><trkpt lat="30.87637875007197" lon="-6.881073540270554"><ele>1191.0</ele><time>2026-03-26T11:53:44.92Z</time></trkpt><trkpt lat="30.87642269549985" lon="-6.880988307907836"><ele>1191.0</ele><time>2026-03-26T11:53:45.92Z</time></trkpt><trkpt lat="30.876473962401857" lon="-6.880869258908599"><ele>1191.0</ele><time>2026-03-26T11:53:46.92Z</time></trkpt><trkpt lat="30.876513442828212" lon="-6.880775284763372"><ele>1191.0</ele><time>2026-03-26T11:53:47.92Z</time></trkpt><trkpt lat="30.876533203665936" lon="-6.880691406767435"><ele>1190.1666666666667</ele><time>2026-03-26T11:53:48.921Z</time></trkpt><trkpt lat="30.87653602229259" lon="-6.8806149445108655"><ele>1189.3333333333333</ele><time>2026-03-26T11:53:49.92Z</time></trkpt><trkpt lat="30.876520440485933" lon="-6.880534480731124"><ele>1188.5</ele><time>2026-03-26T11:53:50.92Z</time></trkpt><trkpt lat="30.876483735770353" lon="-6.880447771331112"><ele>1187.6666666666665</ele><time>2026-03-26T11:53:51.921Z</time></trkpt><trkpt lat="30.87643814684545" lon="-6.880358103475174"><ele>1186.8333333333333</ele><time>2026-03-26T11:53:52.921Z</time></trkpt><trkpt lat="30.876396957153943" lon="-6.880236442975448"><ele>1186.0</ele><time>2026-03-26T11:53:53.921Z</time></trkpt><trkpt lat="30.876382790971363" lon="-6.880124064243223"><ele>1185.6</ele><time>2026-03-26T11:53:54.92Z</time></trkpt><trkpt lat="30.876384259095474" lon="-6.8799965650489"><ele>1185.1999999999998</ele><time>2026-03-26T11:53:55.92Z</time></trkpt><trkpt lat="30.876390133265517" lon="-6.879867289330389"><ele>1184.8000000000002</ele><time>2026-03-26T11:53:56.92Z</time></trkpt><trkpt lat="30.87638816629077" lon="-6.879748866395071"><ele>1184.4</ele><time>2026-03-26T11:53:57.92Z</time></trkpt><trkpt lat="30.876379218839745" lon="-6.879626028042691"><ele>1184.0</ele><time>2026-03-26T11:53:58.92Z</time></trkpt><trkpt lat="30.876362180568897" lon="-6.879504350294035"><ele>1184.0</ele><time>2026-03-26T11:53:59.92Z</time></trkpt><trkpt lat="30.876338887391682" lon="-6.879349136462991"><ele>1184.0</ele><time>2026-03-26T11:54:00.92Z</time></trkpt><trkpt lat="30.87631299724963" lon="-6.879196171680322"><ele>1184.0</ele><time>2026-03-26T11:54:01.92Z</time></trkpt><trkpt lat="30.876292855735816" lon="-6.879033692148096"><ele>1184.0</ele><time>2026-03-26T11:54:02.92Z</time></trkpt><trkpt lat="30.87628269961065" lon="-6.878860399471372"><ele>1184.25</ele><time>2026-03-26T11:54:03.92Z</time></trkpt><trkpt lat="30.876295852856508" lon="-6.878704645388005"><ele>1184.5</ele><time>2026-03-26T11:54:04.92Z</time></trkpt><trkpt lat="30.87632266535464" lon="-6.878585318245643"><ele>1184.75</ele><time>2026-03-26T11:54:05.92Z</time></trkpt><trkpt lat="30.87637854318438" lon="-6.878495090597088"><ele>1185.0</ele><time>2026-03-26T11:54:06.92Z</time></trkpt><trkpt lat="30.876470465695707" lon="-6.87840691148075"><ele>1185.0</ele><time>2026-03-26T11:54:07.92Z</time></trkpt><trkpt lat="30.87656463081255" lon="-6.878293021897568"><ele>1185.0</ele><time>2026-03-26T11:54:08.92Z</time></trkpt><trkpt lat="30.876629042664614" lon="-6.878152686154091"><ele>1185.0</ele><time>2026-03-26T11:54:09.92Z</time></trkpt><trkpt lat="30.876692081981105" lon="-6.877988823453127"><ele>1185.0</ele><time>2026-03-26T11:54:10.92Z</time></trkpt><trkpt lat="30.876766944355282" lon="-6.877814482495647"><ele>1185.0</ele><time>2026-03-26T11:54:11.92Z</time></trkpt><trkpt lat="30.876859730485318" lon="-6.877597576148699"><ele>1185.0</ele><time>2026-03-26T11:54:12.92Z</time></trkpt><trkpt lat="30.87694954275596" lon="-6.877373939375082"><ele>1185.0</ele><time>2026-03-26T11:54:13.92Z</time></trkpt><trkpt lat="30.87702060112694" lon="-6.87719149043097"><ele>1185.0</ele><time>2026-03-26T11:54:14.92Z</time></trkpt><trkpt lat="30.877078658277085" lon="-6.877035719420419"><ele>1185.0</ele><time>2026-03-26T11:54:15.92Z</time></trkpt><trkpt lat="30.877129855325364" lon="-6.876885068688395"><ele>1185.0</ele><time>2026-03-26T11:54:16.92Z</time></trkpt><trkpt lat="30.8771845174281" lon="-6.8767177325548445"><ele>1185.0</ele><time>2026-03-26T11:54:17.92Z</time></trkpt><trkpt lat="30.87725004634893" lon="-6.876543975278439"><ele>1185.0</ele><time>2026-03-26T11:54:18.92Z</time></trkpt><trkpt lat="30.87732475728381" lon="-6.87637641749597"><ele>1185.0</ele><time>2026-03-26T11:54:19.92Z</time></trkpt><trkpt lat="30.87740991424649" lon="-6.876220139690934"><ele>1185.0</ele><time>2026-03-26T11:54:20.92Z</time></trkpt><trkpt lat="30.877499866285753" lon="-6.876085537354141"><ele>1185.0</ele><time>2026-03-26T11:54:21.92Z</time></trkpt><trkpt lat="30.877591197902024" lon="-6.875966681026674"><ele>1185.0</ele><time>2026-03-26T11:54:22.92Z</time></trkpt><trkpt lat="30.877685468673562" lon="-6.875856248343552"><ele>1185.0</ele><time>2026-03-26T11:54:23.92Z</time></trkpt><trkpt lat="30.877769454017606" lon="-6.875742440370138"><ele>1185.0</ele><time>2026-03-26T11:54:24.92Z</time></trkpt><trkpt lat="30.877844867892986" lon="-6.875605870289083"><ele>1184.6666666666667</ele><time>2026-03-26T11:54:25.92Z</time></trkpt><trkpt lat="30.87791935638692" lon="-6.87543689186317"><ele>1184.3333333333335</ele><time>2026-03-26T11:54:26.92Z</time></trkpt><trkpt lat="30.87799711165152" lon="-6.875264880611429"><ele>1184.0</ele><time>2026-03-26T11:54:27.92Z</time></trkpt><trkpt lat="30.878075403254478" lon="-6.875104500188296"><ele>1183.75</ele><time>2026-03-26T11:54:28.92Z</time></trkpt><trkpt lat="30.87814679685994" lon="-6.874977545079588"><ele>1183.5</ele><time>2026-03-26T11:54:29.92Z</time></trkpt><trkpt lat="30.8782161340392" lon="-6.874865009719478"><ele>1183.25</ele><time>2026-03-26T11:54:30.92Z</time></trkpt><trkpt lat="30.878285887646523" lon="-6.8747696407108005"><ele>1183.0</ele><time>2026-03-26T11:54:31.92Z</time></trkpt><trkpt lat="30.878355307388414" lon="-6.874691664222324"><ele>1183.0</ele><time>2026-03-26T11:54:32.92Z</time></trkpt><trkpt lat="30.878421699192714" lon="-6.874628733929367"><ele>1183.0</ele><time>2026-03-26T11:54:33.92Z</time></trkpt><trkpt lat="30.8784871726984" lon="-6.874570297660763"><ele>1183.0</ele><time>2026-03-26T11:54:34.92Z</time></trkpt><trkpt lat="30.878549336337827" lon="-6.874512056059418"><ele>1183.0</ele><time>2026-03-26T11:54:35.92Z</time></trkpt><trkpt lat="30.8786055286267" lon="-6.874442253107677"><ele>1183.0</ele><time>2026-03-26T11:54:36.92Z</time></trkpt><trkpt lat="30.878657789537233" lon="-6.874360640823697"><ele>1183.0</ele><time>2026-03-26T11:54:37.92Z</time></trkpt><trkpt lat="30.878710093121434" lon="-6.874274579589726"><ele>1183.3333333333333</ele><time>2026-03-26T11:54:38.92Z</time></trkpt><trkpt lat="30.87875449719641" lon="-6.874193545703105"><ele>1183.6666666666665</ele><time>2026-03-26T11:54:39.92Z</time></trkpt><trkpt lat="30.87879978196332" lon="-6.874122685548311"><ele>1184.0</ele><time>2026-03-26T11:54:40.92Z</time></trkpt><trkpt lat="30.878841169575406" lon="-6.87405827656832"><ele>1184.3333333333333</ele><time>2026-03-26T11:54:41.92Z</time></trkpt><trkpt lat="30.87888656454598" lon="-6.873995168235014"><ele>1184.6666666666667</ele><time>2026-03-26T11:54:42.92Z</time></trkpt><trkpt lat="30.878934253051128" lon="-6.873939074560351"><ele>1185.0</ele><time>2026-03-26T11:54:43.92Z</time></trkpt><trkpt lat="30.87902812710303" lon="-6.873848937676807"><ele>1185.0</ele><time>2026-03-26T11:54:45.92Z</time></trkpt><trkpt lat="30.879072128750348" lon="-6.873796194009578"><ele>1185.0</ele><time>2026-03-26T11:54:46.92Z</time></trkpt><trkpt lat="30.8791108932991" lon="-6.873702490839761"><ele>1185.0</ele><time>2026-03-26T11:54:48.92Z</time></trkpt><trkpt lat="30.879129007620506" lon="-6.8735822693123225"><ele>1185.0</ele><time>2026-03-26T11:54:50.919Z</time></trkpt><trkpt lat="30.87916972610954" lon="-6.873430411260032"><ele>1185.0</ele><time>2026-03-26T11:54:52.919Z</time></trkpt><trkpt lat="30.87921728810925" lon="-6.873345305029008"><ele>1185.0</ele><time>2026-03-26T11:54:53.919Z</time></trkpt><trkpt lat="30.879278306405073" lon="-6.873266948116744"><ele>1185.0</ele><time>2026-03-26T11:54:54.919Z</time></trkpt><trkpt lat="30.879353814911696" lon="-6.873193773182483"><ele>1185.0</ele><time>2026-03-26T11:54:55.919Z</time></trkpt><trkpt lat="30.879443436711924" lon="-6.873119784123661"><ele>1185.0</ele><time>2026-03-26T11:54:56.919Z</time></trkpt><trkpt lat="30.87954108243047" lon="-6.873065057712965"><ele>1185.0</ele><time>2026-03-26T11:54:57.919Z</time></trkpt><trkpt lat="30.87966403549939" lon="-6.873041532680009"><ele>1185.0</ele><time>2026-03-26T11:54:58.919Z</time></trkpt><trkpt lat="30.87982492662943" lon="-6.873025502287175"><ele>1185.0</ele><time>2026-03-26T11:54:59.919Z</time></trkpt><trkpt lat="30.87994924462276" lon="-6.873000674891057"><ele>1185.0</ele><time>2026-03-26T11:55:00.919Z</time></trkpt><trkpt lat="30.88004478696393" lon="-6.872963698440984"><ele>1185.0</ele><time>2026-03-26T11:55:01.919Z</time></trkpt><trkpt lat="30.880133888450914" lon="-6.872904994121705"><ele>1184.6</ele><time>2026-03-26T11:55:02.919Z</time></trkpt><trkpt lat="30.880236677572345" lon="-6.8728485132941355"><ele>1184.2</ele><time>2026-03-26T11:55:03.919Z</time></trkpt><trkpt lat="30.880341312486877" lon="-6.8728086397584445"><ele>1183.8</ele><time>2026-03-26T11:55:04.919Z</time></trkpt><trkpt lat="30.88043371685706" lon="-6.8728242382533695"><ele>1183.4</ele><time>2026-03-26T11:55:05.919Z</time></trkpt><trkpt lat="30.88051533541282" lon="-6.8728820687615375"><ele>1183.0</ele><time>2026-03-26T11:55:06.919Z</time></trkpt><trkpt lat="30.88058401770808" lon="-6.872928605066043"><ele>1183.0</ele><time>2026-03-26T11:55:07.919Z</time></trkpt><trkpt lat="30.88065305941961" lon="-6.872943139669289"><ele>1183.0</ele><time>2026-03-26T11:55:08.919Z</time></trkpt><trkpt lat="30.880720780782845" lon="-6.872931989637343"><ele>1183.0</ele><time>2026-03-26T11:55:09.919Z</time></trkpt><trkpt lat="30.880783160359226" lon="-6.872921722688061"><ele>1183.0</ele><time>2026-03-26T11:55:10.919Z</time></trkpt><trkpt lat="30.88088711050503" lon="-6.872900395107971"><ele>1183.0</ele><time>2026-03-26T11:55:12.919Z</time></trkpt><trkpt lat="30.88100008932776" lon="-6.872901220483657"><ele>1183.0</ele><time>2026-03-26T11:55:14.919Z</time></trkpt><trkpt lat="30.88107682823244" lon="-6.872920888633911"><ele>1184.4</ele><time>2026-03-26T11:55:15.919Z</time></trkpt><trkpt lat="30.881170012334344" lon="-6.872938872806052"><ele>1185.8</ele><time>2026-03-26T11:55:16.919Z</time></trkpt><trkpt lat="30.881260406745554" lon="-6.872971333116306"><ele>1187.2</ele><time>2026-03-26T11:55:17.919Z</time></trkpt><trkpt lat="30.88133566988375" lon="-6.873019693014643"><ele>1188.6</ele><time>2026-03-26T11:55:18.919Z</time></trkpt><trkpt lat="30.881408895350216" lon="-6.873089714215835"><ele>1190.0</ele><time>2026-03-26T11:55:19.919Z</time></trkpt><trkpt lat="30.881465850684034" lon="-6.873163321567617"><ele>1190.0</ele><time>2026-03-26T11:55:20.919Z</time></trkpt><trkpt lat="30.88151644956119" lon="-6.873242861295339"><ele>1190.0</ele><time>2026-03-26T11:55:21.919Z</time></trkpt><trkpt lat="30.88156585765549" lon="-6.87331649580425"><ele>1190.0</ele><time>2026-03-26T11:55:22.919Z</time></trkpt><trkpt lat="30.88161288428505" lon="-6.873385561387492"><ele>1190.0</ele><time>2026-03-26T11:55:23.919Z</time></trkpt><trkpt lat="30.881655059519066" lon="-6.873445452443574"><ele>1190.0</ele><time>2026-03-26T11:55:24.919Z</time></trkpt><trkpt lat="30.881716654640012" lon="-6.873527690855787"><ele>1190.0</ele><time>2026-03-26T11:55:26.919Z</time></trkpt><trkpt lat="30.881778158350354" lon="-6.873553776212524"><ele>1191.0</ele><time>2026-03-26T11:55:28.919Z</time></trkpt><trkpt lat="30.881886682463414" lon="-6.873554053899499"><ele>1192.0</ele><time>2026-03-26T11:55:30.919Z</time></trkpt><trkpt lat="30.88195051545381" lon="-6.873544142017383"><ele>1193.0</ele><time>2026-03-26T11:55:31.919Z</time></trkpt><trkpt lat="30.882077296031966" lon="-6.873541974181499"><ele>1194.0</ele><time>2026-03-26T11:55:33.919Z</time></trkpt><trkpt lat="30.88219368680251" lon="-6.873577784473707"><ele>1195.0</ele><time>2026-03-26T11:55:35.919Z</time></trkpt><trkpt lat="30.882305008915417" lon="-6.8736226892227155"><ele>1195.0</ele><time>2026-03-26T11:55:37.919Z</time></trkpt><trkpt lat="30.882370045800887" lon="-6.873634250663887"><ele>1195.0</ele><time>2026-03-26T11:55:38.919Z</time></trkpt><trkpt lat="30.882436565275448" lon="-6.873637698166359"><ele>1195.0</ele><time>2026-03-26T11:55:39.919Z</time></trkpt><trkpt lat="30.882505251267865" lon="-6.873636889385335"><ele>1195.0</ele><time>2026-03-26T11:55:40.919Z</time></trkpt><trkpt lat="30.882578387683278" lon="-6.873636620701096"><ele>1195.0</ele><time>2026-03-26T11:55:41.919Z</time></trkpt><trkpt lat="30.882653161508905" lon="-6.873641874554077"><ele>1195.0</ele><time>2026-03-26T11:55:42.919Z</time></trkpt><trkpt lat="30.882724849503326" lon="-6.873645187244395"><ele>1195.0</ele><time>2026-03-26T11:55:43.919Z</time></trkpt><trkpt lat="30.882790184712587" lon="-6.873647912207235"><ele>1195.1666666666665</ele><time>2026-03-26T11:55:44.919Z</time></trkpt><trkpt lat="30.882857601574862" lon="-6.873651549460354"><ele>1195.3333333333333</ele><time>2026-03-26T11:55:45.919Z</time></trkpt><trkpt lat="30.882929108344218" lon="-6.873656335703509"><ele>1195.5</ele><time>2026-03-26T11:55:46.919Z</time></trkpt><trkpt lat="30.883012224211523" lon="-6.873653639321582"><ele>1195.6666666666667</ele><time>2026-03-26T11:55:47.919Z</time></trkpt><trkpt lat="30.883112232197117" lon="-6.873652143104892"><ele>1195.8333333333335</ele><time>2026-03-26T11:55:48.919Z</time></trkpt><trkpt lat="30.88320375728007" lon="-6.873651728069566"><ele>1196.0</ele><time>2026-03-26T11:55:49.919Z</time></trkpt><trkpt lat="30.883271927259806" lon="-6.873661722063319"><ele>1196.0</ele><time>2026-03-26T11:55:50.919Z</time></trkpt><trkpt lat="30.883384235815882" lon="-6.873675318969748"><ele>1196.0</ele><time>2026-03-26T11:55:52.919Z</time></trkpt><trkpt lat="30.88346895626641" lon="-6.87369672559857"><ele>1196.0</ele><time>2026-03-26T11:55:54.92Z</time></trkpt><trkpt lat="30.88353834056776" lon="-6.873766985504457"><ele>1196.0</ele><time>2026-03-26T11:55:56.919Z</time></trkpt><trkpt lat="30.8835878074874" lon="-6.873854619879437"><ele>1196.0</ele><time>2026-03-26T11:55:58.919Z</time></trkpt><trkpt lat="30.883631221541325" lon="-6.873927436915501"><ele>1193.3999999999999</ele><time>2026-03-26T11:56:00.919Z</time></trkpt><trkpt lat="30.88368864494104" lon="-6.873986819940766"><ele>1190.8</ele><time>2026-03-26T11:56:03.92Z</time></trkpt><trkpt lat="30.883726381537222" lon="-6.873876619433568"><ele>1188.1999999999998</ele><time>2026-03-26T11:58:36.919Z</time></trkpt><trkpt lat="30.883687564029174" lon="-6.873801209919419"><ele>1185.6</ele><time>2026-03-26T11:58:37.919Z</time></trkpt><trkpt lat="30.883615476858637" lon="-6.873715116483058"><ele>1183.0</ele><time>2026-03-26T11:58:38.919Z</time></trkpt><trkpt lat="30.88352465184086" lon="-6.8736315960267405"><ele>1186.6666666666665</ele><time>2026-03-26T11:58:39.919Z</time></trkpt><trkpt lat="30.883415368313923" lon="-6.873554823178719"><ele>1190.3333333333333</ele><time>2026-03-26T11:58:40.919Z</time></trkpt><trkpt lat="30.88326570681677" lon="-6.873493358033746"><ele>1194.0</ele><time>2026-03-26T11:58:41.919Z</time></trkpt><trkpt lat="30.883105161424233" lon="-6.8734230843832"><ele>1194.0</ele><time>2026-03-26T11:58:42.919Z</time></trkpt><trkpt lat="30.88295040603301" lon="-6.873355177602619"><ele>1194.0</ele><time>2026-03-26T11:58:43.919Z</time></trkpt><trkpt lat="30.882809373969526" lon="-6.873264906558962"><ele>1194.0</ele><time>2026-03-26T11:58:44.919Z</time></trkpt><trkpt lat="30.88270197978179" lon="-6.873194965466499"><ele>1194.0</ele><time>2026-03-26T11:58:45.919Z</time></trkpt><trkpt lat="30.882605978496084" lon="-6.873109820297395"><ele>1194.0</ele><time>2026-03-26T11:58:46.919Z</time></trkpt><trkpt lat="30.882508251084698" lon="-6.873003997905344"><ele>1194.0</ele><time>2026-03-26T11:58:47.919Z</time></trkpt><trkpt lat="30.88243889053889" lon="-6.872910079368659"><ele>1194.0</ele><time>2026-03-26T11:58:48.919Z</time></trkpt><trkpt lat="30.88237532690733" lon="-6.872808037889646"><ele>1194.0</ele><time>2026-03-26T11:58:49.919Z</time></trkpt><trkpt lat="30.882334864634363" lon="-6.87267871469722"><ele>1193.8</ele><time>2026-03-26T11:58:50.919Z</time></trkpt><trkpt lat="30.882313522525696" lon="-6.872536885731055"><ele>1193.6000000000001</ele><time>2026-03-26T11:58:51.919Z</time></trkpt><trkpt lat="30.882294903173634" lon="-6.8724174545591135"><ele>1193.4</ele><time>2026-03-26T11:58:52.919Z</time></trkpt><trkpt lat="30.882284663283112" lon="-6.872319539463542"><ele>1193.2</ele><time>2026-03-26T11:58:53.919Z</time></trkpt><trkpt lat="30.882309800131456" lon="-6.872191295908501"><ele>1193.0</ele><time>2026-03-26T11:58:55.919Z</time></trkpt><trkpt lat="30.88236806454362" lon="-6.872088128572541"><ele>1192.9999999999998</ele><time>2026-03-26T11:58:57.919Z</time></trkpt><trkpt lat="30.882425785087445" lon="-6.872028027757716"><ele>1193.0</ele><time>2026-03-26T11:58:59.919Z</time></trkpt><trkpt lat="30.8824890712587" lon="-6.871970523842217"><ele>1193.0</ele><time>2026-03-26T11:59:01.919Z</time></trkpt><trkpt lat="30.8825533455334" lon="-6.87191145700773"><ele>1193.0</ele><time>2026-03-26T11:59:04.919Z</time></trkpt><trkpt lat="30.882625143723704" lon="-6.8718882097478575"><ele>1193.0</ele><time>2026-03-26T12:00:02.918Z</time></trkpt><trkpt lat="30.88268765295608" lon="-6.87187456772988"><ele>1192.9999999999998</ele><time>2026-03-26T12:01:28.917Z</time></trkpt><trkpt lat="30.882710297341404" lon="-6.871943058694593"><ele>1193.0</ele><time>2026-03-26T12:01:30.917Z</time></trkpt><trkpt lat="30.882662951355027" lon="-6.872022145725564"><ele>1193.0</ele><time>2026-03-26T12:01:32.917Z</time></trkpt><trkpt lat="30.882563102753075" lon="-6.872064941557895"><ele>1193.0</ele><time>2026-03-26T12:01:34.917Z</time></trkpt><trkpt lat="30.88247633570296" lon="-6.872112144526673"><ele>1193.0</ele><time>2026-03-26T12:01:36.917Z</time></trkpt><trkpt lat="30.88240832476976" lon="-6.872201118488552"><ele>1193.0</ele><time>2026-03-26T12:01:38.917Z</time></trkpt><trkpt lat="30.882389911872806" lon="-6.872292944425494"><ele>1193.0</ele><time>2026-03-26T12:01:40.917Z</time></trkpt><trkpt lat="30.882391049081107" lon="-6.8724480692699474"><ele>1193.0</ele><time>2026-03-26T12:01:42.917Z</time></trkpt><trkpt lat="30.882393766934214" lon="-6.872561766057466"><ele>1193.0</ele><time>2026-03-26T12:01:43.917Z</time></trkpt><trkpt lat="30.8823873741875" lon="-6.87264618998226"><ele>1193.0</ele><time>2026-03-26T12:01:44.917Z</time></trkpt><trkpt lat="30.88236465627018" lon="-6.872714780109527"><ele>1193.0</ele><time>2026-03-26T12:01:45.917Z</time></trkpt><trkpt lat="30.882284915938808" lon="-6.872813774290491"><ele>1193.0</ele><time>2026-03-26T12:01:47.917Z</time></trkpt><trkpt lat="30.88220911953445" lon="-6.872831584323607"><ele>1193.0</ele><time>2026-03-26T12:01:48.917Z</time></trkpt><trkpt lat="30.882112652841275" lon="-6.872832998418131"><ele>1193.2</ele><time>2026-03-26T12:01:49.917Z</time></trkpt><trkpt lat="30.88204515840688" lon="-6.872824234923391"><ele>1193.4</ele><time>2026-03-26T12:01:50.917Z</time></trkpt><trkpt lat="30.881940072361697" lon="-6.872836955135758"><ele>1193.6000000000001</ele><time>2026-03-26T12:01:52.917Z</time></trkpt><trkpt lat="30.88186404185924" lon="-6.872909785702118"><ele>1193.8</ele><time>2026-03-26T12:01:54.917Z</time></trkpt><trkpt lat="30.881732802330703" lon="-6.872974858149993"><ele>1194.0</ele><time>2026-03-26T12:01:56.917Z</time></trkpt><trkpt lat="30.881651629018606" lon="-6.873000579886894"><ele>1193.3333333333333</ele><time>2026-03-26T12:01:57.917Z</time></trkpt><trkpt lat="30.88157498348658" lon="-6.873018672939473"><ele>1192.6666666666667</ele><time>2026-03-26T12:01:58.917Z</time></trkpt><trkpt lat="30.881508207123996" lon="-6.87300409190433"><ele>1192.0</ele><time>2026-03-26T12:01:59.917Z</time></trkpt><trkpt lat="30.881436694484314" lon="-6.872982854235396"><ele>1191.3333333333335</ele><time>2026-03-26T12:02:00.917Z</time></trkpt><trkpt lat="30.881314245361786" lon="-6.872972860605143"><ele>1190.6666666666667</ele><time>2026-03-26T12:02:02.917Z</time></trkpt><trkpt lat="30.881238871621804" lon="-6.8729737455822795"><ele>1190.0</ele><time>2026-03-26T12:02:03.917Z</time></trkpt><trkpt lat="30.881173720929493" lon="-6.872974984196299"><ele>1190.0</ele><time>2026-03-26T12:02:04.917Z</time></trkpt><trkpt lat="30.88111883576123" lon="-6.873060566883163"><ele>1190.0</ele><time>2026-03-26T12:02:06.917Z</time></trkpt><trkpt lat="30.88112105829456" lon="-6.873141963995603"><ele>1190.0</ele><time>2026-03-26T12:02:07.917Z</time></trkpt><trkpt lat="30.881114442458486" lon="-6.873218832133214"><ele>1190.0</ele><time>2026-03-26T12:02:08.917Z</time></trkpt><trkpt lat="30.881104137548178" lon="-6.873330911427671"><ele>1190.0</ele><time>2026-03-26T12:02:10.917Z</time></trkpt><trkpt lat="30.881085319938354" lon="-6.873411844870023"><ele>1190.0</ele><time>2026-03-26T12:02:13.917Z</time></trkpt><trkpt lat="30.881072464709867" lon="-6.873500818497383"><ele>1189.3333333333335</ele><time>2026-03-26T12:02:15.917Z</time></trkpt><trkpt lat="30.881062207431413" lon="-6.873587061203409"><ele>1188.6666666666667</ele><time>2026-03-26T12:02:16.917Z</time></trkpt><trkpt lat="30.88106680143792" lon="-6.873706129882896"><ele>1188.0</ele><time>2026-03-26T12:02:17.917Z</time></trkpt><trkpt lat="30.881074300263055" lon="-6.873815448025932"><ele>1187.3333333333333</ele><time>2026-03-26T12:02:18.918Z</time></trkpt><trkpt lat="30.881062148471944" lon="-6.873911086447303"><ele>1186.6666666666665</ele><time>2026-03-26T12:02:19.917Z</time></trkpt><trkpt lat="30.881029565619283" lon="-6.873991108194882"><ele>1186.0</ele><time>2026-03-26T12:02:20.917Z</time></trkpt><trkpt lat="30.88099297335671" lon="-6.874069365920645"><ele>1186.0</ele><time>2026-03-26T12:02:21.917Z</time></trkpt><trkpt lat="30.880969450529047" lon="-6.874160194565998"><ele>1186.0</ele><time>2026-03-26T12:02:22.917Z</time></trkpt><trkpt lat="30.880961842573893" lon="-6.874242959074185"><ele>1186.0</ele><time>2026-03-26T12:02:23.917Z</time></trkpt><trkpt lat="30.880989871359198" lon="-6.874322127729569"><ele>1186.0</ele><time>2026-03-26T12:02:24.917Z</time></trkpt><trkpt lat="30.881023786198462" lon="-6.874426228889047"><ele>1186.0</ele><time>2026-03-26T12:02:25.917Z</time></trkpt><trkpt lat="30.881036873713633" lon="-6.874584468229281"><ele>1183.3333333333333</ele><time>2026-03-26T12:02:26.917Z</time></trkpt><trkpt lat="30.881046391484002" lon="-6.874781828104464"><ele>1180.6666666666667</ele><time>2026-03-26T12:02:27.917Z</time></trkpt><trkpt lat="30.881058847306583" lon="-6.874963915724125"><ele>1178.0</ele><time>2026-03-26T12:02:28.917Z</time></trkpt><trkpt lat="30.881094390356626" lon="-6.87511271032923"><ele>1175.25</ele><time>2026-03-26T12:02:29.917Z</time></trkpt><trkpt lat="30.881124079835153" lon="-6.875250936243267"><ele>1172.5</ele><time>2026-03-26T12:02:30.917Z</time></trkpt><trkpt lat="30.881158663779757" lon="-6.875397779748872"><ele>1169.75</ele><time>2026-03-26T12:02:31.917Z</time></trkpt><trkpt lat="30.88118643110019" lon="-6.875540021260828"><ele>1167.0</ele><time>2026-03-26T12:02:32.917Z</time></trkpt><trkpt lat="30.881184431421065" lon="-6.875648514649213"><ele>1167.0</ele><time>2026-03-26T12:02:33.917Z</time></trkpt><trkpt lat="30.881173826130116" lon="-6.875762551216618"><ele>1167.0</ele><time>2026-03-26T12:02:34.917Z</time></trkpt><trkpt lat="30.881170731893405" lon="-6.8758543389444"><ele>1167.0</ele><time>2026-03-26T12:02:35.917Z</time></trkpt><trkpt lat="30.88120220345545" lon="-6.875936915844658"><ele>1167.0</ele><time>2026-03-26T12:02:36.917Z</time></trkpt><trkpt lat="30.881262330684056" lon="-6.876004768963094"><ele>1167.0</ele><time>2026-03-26T12:02:37.917Z</time></trkpt><trkpt lat="30.881335058929928" lon="-6.8760720302623115"><ele>1167.0</ele><time>2026-03-26T12:02:38.917Z</time></trkpt><trkpt lat="30.88140983353116" lon="-6.876144128328686"><ele>1165.3333333333333</ele><time>2026-03-26T12:02:39.917Z</time></trkpt><trkpt lat="30.881464575267735" lon="-6.876224465815347"><ele>1163.6666666666667</ele><time>2026-03-26T12:02:40.917Z</time></trkpt><trkpt lat="30.881510933915838" lon="-6.876293478028112"><ele>1162.0</ele><time>2026-03-26T12:02:41.917Z</time></trkpt><trkpt lat="30.88155256163771" lon="-6.876350997997669"><ele>1160.3333333333335</ele><time>2026-03-26T12:02:42.917Z</time></trkpt><trkpt lat="30.881614248767672" lon="-6.87647285011903"><ele>1158.6666666666667</ele><time>2026-03-26T12:02:44.917Z</time></trkpt><trkpt lat="30.88165516326939" lon="-6.876537332423447"><ele>1157.0</ele><time>2026-03-26T12:02:45.917Z</time></trkpt><trkpt lat="30.88171735032983" lon="-6.876588003773374"><ele>1156.5714285714284</ele><time>2026-03-26T12:02:46.917Z</time></trkpt><trkpt lat="30.881783954579618" lon="-6.876634102926496"><ele>1156.142857142857</ele><time>2026-03-26T12:02:47.917Z</time></trkpt><trkpt lat="30.881851303614926" lon="-6.876629467934398"><ele>1155.7142857142858</ele><time>2026-03-26T12:02:48.917Z</time></trkpt><trkpt lat="30.881913464241656" lon="-6.876616678110068"><ele>1155.2857142857142</ele><time>2026-03-26T12:02:49.917Z</time></trkpt><trkpt lat="30.881982783742405" lon="-6.876615517425625"><ele>1154.857142857143</ele><time>2026-03-26T12:02:50.917Z</time></trkpt><trkpt lat="30.882060668450176" lon="-6.87661930317197"><ele>1154.4285714285713</ele><time>2026-03-26T12:02:51.917Z</time></trkpt><trkpt lat="30.882140794971374" lon="-6.876646261329517"><ele>1154.0</ele><time>2026-03-26T12:02:52.917Z</time></trkpt><trkpt lat="30.88221447251949" lon="-6.876679711818344"><ele>1154.0</ele><time>2026-03-26T12:02:53.917Z</time></trkpt><trkpt lat="30.88229202496659" lon="-6.876709582961083"><ele>1154.0</ele><time>2026-03-26T12:02:54.917Z</time></trkpt><trkpt lat="30.88236809398875" lon="-6.876750862285804"><ele>1154.0</ele><time>2026-03-26T12:02:55.917Z</time></trkpt><trkpt lat="30.882469155481523" lon="-6.8767755220620925"><ele>1154.0</ele><time>2026-03-26T12:02:56.917Z</time></trkpt><trkpt lat="30.882583387705473" lon="-6.876796855583556"><ele>1154.0</ele><time>2026-03-26T12:02:57.917Z</time></trkpt><trkpt lat="30.88270452474079" lon="-6.876853010143956"><ele>1153.0</ele><time>2026-03-26T12:02:58.917Z</time></trkpt><trkpt lat="30.882792660834397" lon="-6.876924043845147"><ele>1152.0</ele><time>2026-03-26T12:02:59.917Z</time></trkpt><trkpt lat="30.882889852889235" lon="-6.87695853998609"><ele>1151.0</ele><time>2026-03-26T12:03:00.917Z</time></trkpt><trkpt lat="30.88296346285352" lon="-6.876954775468136"><ele>1150.0</ele><time>2026-03-26T12:03:01.917Z</time></trkpt><trkpt lat="30.88303902934706" lon="-6.876940390446649"><ele>1149.0</ele><time>2026-03-26T12:03:02.917Z</time></trkpt><trkpt lat="30.88312429980435" lon="-6.876932948420544"><ele>1148.0</ele><time>2026-03-26T12:03:03.917Z</time></trkpt><trkpt lat="30.883206098783727" lon="-6.8769213109545015"><ele>1148.0</ele><time>2026-03-26T12:03:04.917Z</time></trkpt><trkpt lat="30.883283217528597" lon="-6.876900833233145"><ele>1148.0</ele><time>2026-03-26T12:03:05.916Z</time></trkpt><trkpt lat="30.883359652842397" lon="-6.876857022961768"><ele>1148.0</ele><time>2026-03-26T12:03:06.916Z</time></trkpt><trkpt lat="30.883434864212738" lon="-6.876810323127711"><ele>1148.0</ele><time>2026-03-26T12:03:07.916Z</time></trkpt><trkpt lat="30.88351098749103" lon="-6.876774433222944"><ele>1148.0</ele><time>2026-03-26T12:03:08.916Z</time></trkpt><trkpt lat="30.88359836755704" lon="-6.87675891210003"><ele>1148.0</ele><time>2026-03-26T12:03:09.916Z</time></trkpt><trkpt lat="30.883695692693742" lon="-6.876745284154379"><ele>1147.4</ele><time>2026-03-26T12:03:10.916Z</time></trkpt><trkpt lat="30.88379459671965" lon="-6.876728333897986"><ele>1146.8</ele><time>2026-03-26T12:03:11.916Z</time></trkpt><trkpt lat="30.883890952421392" lon="-6.8767028387857865"><ele>1146.2</ele><time>2026-03-26T12:03:12.916Z</time></trkpt><trkpt lat="30.883982659208392" lon="-6.876672767603381"><ele>1145.6</ele><time>2026-03-26T12:03:13.916Z</time></trkpt><trkpt lat="30.884073832978544" lon="-6.876638172030452"><ele>1145.0</ele><time>2026-03-26T12:03:14.916Z</time></trkpt><trkpt lat="30.88417135346236" lon="-6.876614033435946"><ele>1144.8</ele><time>2026-03-26T12:03:15.916Z</time></trkpt><trkpt lat="30.884277472100496" lon="-6.876616835649557"><ele>1144.6</ele><time>2026-03-26T12:03:16.916Z</time></trkpt><trkpt lat="30.88439713512724" lon="-6.876655825803903"><ele>1144.4</ele><time>2026-03-26T12:03:17.916Z</time></trkpt><trkpt lat="30.884503117026913" lon="-6.876678981120473"><ele>1144.2</ele><time>2026-03-26T12:03:18.916Z</time></trkpt><trkpt lat="30.884584005003187" lon="-6.876689303949568"><ele>1144.0</ele><time>2026-03-26T12:03:19.916Z</time></trkpt><trkpt lat="30.884666900864165" lon="-6.87671210369368"><ele>1144.0</ele><time>2026-03-26T12:03:20.916Z</time></trkpt><trkpt lat="30.88474858830703" lon="-6.876772477296537"><ele>1144.0</ele><time>2026-03-26T12:03:21.916Z</time></trkpt><trkpt lat="30.884828798487" lon="-6.876863296365064"><ele>1144.0</ele><time>2026-03-26T12:03:22.916Z</time></trkpt><trkpt lat="30.884923788374643" lon="-6.876975407330117"><ele>1144.0</ele><time>2026-03-26T12:03:23.916Z</time></trkpt><trkpt lat="30.885024263889164" lon="-6.877091510997935"><ele>1143.6666666666665</ele><time>2026-03-26T12:03:24.916Z</time></trkpt><trkpt lat="30.885111977459598" lon="-6.877186318685586"><ele>1143.3333333333333</ele><time>2026-03-26T12:03:25.916Z</time></trkpt><trkpt lat="30.88517904598224" lon="-6.877243232091124"><ele>1143.0</ele><time>2026-03-26T12:03:26.916Z</time></trkpt><trkpt lat="30.88524443044354" lon="-6.877284923362881"><ele>1142.6666666666667</ele><time>2026-03-26T12:03:27.916Z</time></trkpt><trkpt lat="30.88529811582146" lon="-6.877345863061822"><ele>1142.3333333333335</ele><time>2026-03-26T12:03:28.916Z</time></trkpt><trkpt lat="30.885337966528766" lon="-6.877407918956603"><ele>1142.0</ele><time>2026-03-26T12:03:29.916Z</time></trkpt><trkpt lat="30.885392448802065" lon="-6.877465611734656"><ele>1142.0</ele><time>2026-03-26T12:03:30.916Z</time></trkpt><trkpt lat="30.88552866587014" lon="-6.877445086108086"><ele>1142.0</ele><time>2026-03-26T12:03:32.916Z</time></trkpt><trkpt lat="30.885611036481496" lon="-6.877432128762462"><ele>1142.0</ele><time>2026-03-26T12:03:33.916Z</time></trkpt><trkpt lat="30.885723192850946" lon="-6.877438638276055"><ele>1142.0</ele><time>2026-03-26T12:03:35.916Z</time></trkpt><trkpt lat="30.88580053319408" lon="-6.877483195006662"><ele>1142.0</ele><time>2026-03-26T12:03:36.916Z</time></trkpt><trkpt lat="30.88588645223328" lon="-6.877534239761919"><ele>1141.8333333333335</ele><time>2026-03-26T12:03:37.916Z</time></trkpt><trkpt lat="30.88596343421761" lon="-6.877538986551499"><ele>1141.6666666666667</ele><time>2026-03-26T12:03:38.916Z</time></trkpt><trkpt lat="30.886048292110083" lon="-6.877507733478802"><ele>1141.5</ele><time>2026-03-26T12:03:39.916Z</time></trkpt><trkpt lat="30.88613841278707" lon="-6.877488062305621"><ele>1141.3333333333333</ele><time>2026-03-26T12:03:40.916Z</time></trkpt><trkpt lat="30.88622847723582" lon="-6.877505126405984"><ele>1141.1666666666665</ele><time>2026-03-26T12:03:41.916Z</time></trkpt><trkpt lat="30.886312770498133" lon="-6.877531911683238"><ele>1141.0</ele><time>2026-03-26T12:03:42.916Z</time></trkpt><trkpt lat="30.886402824375292" lon="-6.877535255642163"><ele>1141.0</ele><time>2026-03-26T12:03:43.916Z</time></trkpt><trkpt lat="30.886494930217424" lon="-6.877526999886097"><ele>1141.0</ele><time>2026-03-26T12:03:44.916Z</time></trkpt><trkpt lat="30.886575037750042" lon="-6.877528911854656"><ele>1141.0</ele><time>2026-03-26T12:03:45.916Z</time></trkpt><trkpt lat="30.88665013528491" lon="-6.8775297748090605"><ele>1141.0</ele><time>2026-03-26T12:03:46.916Z</time></trkpt><trkpt lat="30.886721579918504" lon="-6.877542433637443"><ele>1141.0</ele><time>2026-03-26T12:03:47.916Z</time></trkpt><trkpt lat="30.886793028264417" lon="-6.877555162216905"><ele>1141.0</ele><time>2026-03-26T12:03:48.916Z</time></trkpt><trkpt lat="30.886858521819676" lon="-6.877582320772293"><ele>1140.857142857143</ele><time>2026-03-26T12:03:49.916Z</time></trkpt><trkpt lat="30.88691575331691" lon="-6.87761398593379"><ele>1140.7142857142858</ele><time>2026-03-26T12:03:50.916Z</time></trkpt><trkpt lat="30.886981398009805" lon="-6.877636118011265"><ele>1140.5714285714284</ele><time>2026-03-26T12:03:51.916Z</time></trkpt><trkpt lat="30.88704688701548" lon="-6.8776268598680605"><ele>1140.4285714285716</ele><time>2026-03-26T12:03:52.916Z</time></trkpt><trkpt lat="30.887124407757163" lon="-6.877578583872921"><ele>1140.2857142857142</ele><time>2026-03-26T12:03:53.916Z</time></trkpt><trkpt lat="30.887195758246943" lon="-6.877541252216019"><ele>1140.142857142857</ele><time>2026-03-26T12:03:54.916Z</time></trkpt><trkpt lat="30.887264859356442" lon="-6.877533835506188"><ele>1140.0</ele><time>2026-03-26T12:03:55.916Z</time></trkpt><trkpt lat="30.887329327932367" lon="-6.877538392342636"><ele>1140.0</ele><time>2026-03-26T12:03:56.916Z</time></trkpt><trkpt lat="30.88740468131936" lon="-6.87753101944273"><ele>1140.0</ele><time>2026-03-26T12:03:57.916Z</time></trkpt><trkpt lat="30.887468362220492" lon="-6.877540766780995"><ele>1140.0</ele><time>2026-03-26T12:03:58.916Z</time></trkpt><trkpt lat="30.887524976453427" lon="-6.8775893785041085"><ele>1140.0</ele><time>2026-03-26T12:03:59.916Z</time></trkpt><trkpt lat="30.88758222511143" lon="-6.877651463647483"><ele>1140.0</ele><time>2026-03-26T12:04:00.916Z</time></trkpt><trkpt lat="30.887632079633327" lon="-6.877725588862402"><ele>1140.0</ele><time>2026-03-26T12:04:01.916Z</time></trkpt><trkpt lat="30.887678912204695" lon="-6.8778172912376645"><ele>1140.3333333333333</ele><time>2026-03-26T12:04:02.916Z</time></trkpt><trkpt lat="30.88772709805287" lon="-6.877918537651346"><ele>1140.6666666666667</ele><time>2026-03-26T12:04:03.916Z</time></trkpt><trkpt lat="30.887774573180835" lon="-6.878015290749556"><ele>1141.0</ele><time>2026-03-26T12:04:04.916Z</time></trkpt><trkpt lat="30.88783634367616" lon="-6.8780829490546305"><ele>1141.3333333333335</ele><time>2026-03-26T12:04:05.916Z</time></trkpt><trkpt lat="30.887913712909867" lon="-6.878119101873384"><ele>1141.6666666666667</ele><time>2026-03-26T12:04:06.916Z</time></trkpt><trkpt lat="30.88799206764039" lon="-6.878154786543324"><ele>1142.0</ele><time>2026-03-26T12:04:07.916Z</time></trkpt><trkpt lat="30.888083029039734" lon="-6.878161434468587"><ele>1142.0</ele><time>2026-03-26T12:04:08.916Z</time></trkpt><trkpt lat="30.88816953705696" lon="-6.878165955421393"><ele>1142.0</ele><time>2026-03-26T12:04:09.916Z</time></trkpt><trkpt lat="30.888249912100406" lon="-6.878177344398455"><ele>1142.0</ele><time>2026-03-26T12:04:10.916Z</time></trkpt><trkpt lat="30.88832742890703" lon="-6.878192834267008"><ele>1142.0</ele><time>2026-03-26T12:04:11.916Z</time></trkpt><trkpt lat="30.88840147245663" lon="-6.8782090231489565"><ele>1142.0</ele><time>2026-03-26T12:04:12.916Z</time></trkpt><trkpt lat="30.8884738124821" lon="-6.87822951339045"><ele>1142.0</ele><time>2026-03-26T12:04:13.916Z</time></trkpt><trkpt lat="30.888592621404875" lon="-6.878291088091519"><ele>1141.8</ele><time>2026-03-26T12:04:15.916Z</time></trkpt><trkpt lat="30.888669667269923" lon="-6.8783460228196995"><ele>1141.6</ele><time>2026-03-26T12:04:16.916Z</time></trkpt><trkpt lat="30.888761371875173" lon="-6.8783978400181915"><ele>1141.3999999999999</ele><time>2026-03-26T12:04:17.916Z</time></trkpt><trkpt lat="30.888861728443214" lon="-6.878443321168742"><ele>1141.2</ele><time>2026-03-26T12:04:18.917Z</time></trkpt><trkpt lat="30.888972653936296" lon="-6.878443710047553"><ele>1141.0</ele><time>2026-03-26T12:04:19.916Z</time></trkpt><trkpt lat="30.889105064281043" lon="-6.878438179713556"><ele>1140.5</ele><time>2026-03-26T12:04:20.916Z</time></trkpt><trkpt lat="30.88922757344195" lon="-6.8784522554576615"><ele>1140.0</ele><time>2026-03-26T12:04:21.917Z</time></trkpt><trkpt lat="30.889344067811674" lon="-6.878509129435026"><ele>1139.5</ele><time>2026-03-26T12:04:22.916Z</time></trkpt><trkpt lat="30.889473679231205" lon="-6.878589055785058"><ele>1139.0</ele><time>2026-03-26T12:04:23.916Z</time></trkpt><trkpt lat="30.889584750311272" lon="-6.878645598455115"><ele>1139.0</ele><time>2026-03-26T12:04:24.917Z</time></trkpt><trkpt lat="30.889689730163465" lon="-6.878664810405396"><ele>1139.0</ele><time>2026-03-26T12:04:25.916Z</time></trkpt><trkpt lat="30.889780189917097" lon="-6.878663773847057"><ele>1139.0</ele><time>2026-03-26T12:04:26.916Z</time></trkpt><trkpt lat="30.889866175588523" lon="-6.878646099820896"><ele>1139.0</ele><time>2026-03-26T12:04:27.916Z</time></trkpt><trkpt lat="30.88995925628859" lon="-6.878629077745341"><ele>1139.0</ele><time>2026-03-26T12:04:28.916Z</time></trkpt><trkpt lat="30.890046272293894" lon="-6.878649183080092"><ele>1138.2</ele><time>2026-03-26T12:04:29.916Z</time></trkpt><trkpt lat="30.890131655627243" lon="-6.87869612986984"><ele>1137.4</ele><time>2026-03-26T12:04:30.917Z</time></trkpt><trkpt lat="30.890222981276697" lon="-6.878742376010191"><ele>1136.6</ele><time>2026-03-26T12:04:31.916Z</time></trkpt><trkpt lat="30.89033685645143" lon="-6.878770194566531"><ele>1135.8</ele><time>2026-03-26T12:04:32.916Z</time></trkpt><trkpt lat="30.89043743132788" lon="-6.878791711903578"><ele>1135.0</ele><time>2026-03-26T12:04:33.916Z</time></trkpt><trkpt lat="30.890524943656906" lon="-6.878823681847564"><ele>1135.0</ele><time>2026-03-26T12:04:34.916Z</time></trkpt><trkpt lat="30.89060997021962" lon="-6.87887323232055"><ele>1135.0</ele><time>2026-03-26T12:04:35.916Z</time></trkpt><trkpt lat="30.890684421388617" lon="-6.878924170862678"><ele>1135.0</ele><time>2026-03-26T12:04:36.916Z</time></trkpt><trkpt lat="30.89075426939898" lon="-6.878967323758843"><ele>1135.0</ele><time>2026-03-26T12:04:37.916Z</time></trkpt><trkpt lat="30.890817354332288" lon="-6.879007467113912"><ele>1135.0</ele><time>2026-03-26T12:04:38.916Z</time></trkpt><trkpt lat="30.890879490212324" lon="-6.879056129578714"><ele>1135.0</ele><time>2026-03-26T12:04:39.916Z</time></trkpt><trkpt lat="30.89094151267131" lon="-6.879095142990095"><ele>1135.0</ele><time>2026-03-26T12:04:40.916Z</time></trkpt><trkpt lat="30.891015356602487" lon="-6.879138122614952"><ele>1135.0</ele><time>2026-03-26T12:04:41.916Z</time></trkpt><trkpt lat="30.89110677162809" lon="-6.879191431785394"><ele>1135.0</ele><time>2026-03-26T12:04:42.916Z</time></trkpt><trkpt lat="30.891197447557197" lon="-6.879256108292153"><ele>1135.0</ele><time>2026-03-26T12:04:43.916Z</time></trkpt><trkpt lat="30.89126521736872" lon="-6.879325891678903"><ele>1135.0</ele><time>2026-03-26T12:04:44.916Z</time></trkpt><trkpt lat="30.89133524048555" lon="-6.879389016581119"><ele>1135.6666666666665</ele><time>2026-03-26T12:04:45.916Z</time></trkpt><trkpt lat="30.891413824421257" lon="-6.879446756925479"><ele>1136.3333333333333</ele><time>2026-03-26T12:04:46.916Z</time></trkpt><trkpt lat="30.891490663861294" lon="-6.879479245280684"><ele>1137.0</ele><time>2026-03-26T12:04:47.916Z</time></trkpt><trkpt lat="30.891565242833867" lon="-6.879509304679397"><ele>1137.6666666666667</ele><time>2026-03-26T12:04:48.916Z</time></trkpt><trkpt lat="30.891645224319564" lon="-6.879546195273003"><ele>1138.3333333333335</ele><time>2026-03-26T12:04:49.916Z</time></trkpt><trkpt lat="30.89173009953485" lon="-6.87958618636111"><ele>1139.0</ele><time>2026-03-26T12:04:50.916Z</time></trkpt><trkpt lat="30.891811188197902" lon="-6.879636371320219"><ele>1139.0</ele><time>2026-03-26T12:04:51.916Z</time></trkpt><trkpt lat="30.891890312117734" lon="-6.879690162135386"><ele>1139.0</ele><time>2026-03-26T12:04:52.916Z</time></trkpt><trkpt lat="30.891963470712845" lon="-6.879738063332906"><ele>1139.0</ele><time>2026-03-26T12:04:53.916Z</time></trkpt><trkpt lat="30.892031660206815" lon="-6.879778122903336"><ele>1139.0</ele><time>2026-03-26T12:04:54.916Z</time></trkpt><trkpt lat="30.892094256158412" lon="-6.87981094567049"><ele>1139.0</ele><time>2026-03-26T12:04:55.916Z</time></trkpt><trkpt lat="30.8921924221497" lon="-6.8798706385271355"><ele>1139.0</ele><time>2026-03-26T12:04:57.916Z</time></trkpt><trkpt lat="30.892259488457878" lon="-6.879910458743941"><ele>1139.0</ele><time>2026-03-26T12:04:58.916Z</time></trkpt><trkpt lat="30.89232417412094" lon="-6.879949189999413"><ele>1139.0</ele><time>2026-03-26T12:04:59.916Z</time></trkpt><trkpt lat="30.892393384141513" lon="-6.879990912196268"><ele>1139.0</ele><time>2026-03-26T12:05:00.916Z</time></trkpt><trkpt lat="30.89247291834307" lon="-6.880037767269397"><ele>1139.0</ele><time>2026-03-26T12:05:01.916Z</time></trkpt><trkpt lat="30.8925722566762" lon="-6.880078898163274"><ele>1139.0</ele><time>2026-03-26T12:05:02.916Z</time></trkpt><trkpt lat="30.89268904404381" lon="-6.880113360214493"><ele>1138.3333333333335</ele><time>2026-03-26T12:05:03.916Z</time></trkpt><trkpt lat="30.89282925909186" lon="-6.880171246111189"><ele>1137.6666666666667</ele><time>2026-03-26T12:05:04.916Z</time></trkpt><trkpt lat="30.892986281950765" lon="-6.880226795549384"><ele>1137.0</ele><time>2026-03-26T12:05:05.916Z</time></trkpt><trkpt lat="30.893135077262848" lon="-6.880245932097634"><ele>1137.0</ele><time>2026-03-26T12:05:06.916Z</time></trkpt><trkpt lat="30.893286766237495" lon="-6.880265572273923"><ele>1137.0</ele><time>2026-03-26T12:05:07.916Z</time></trkpt><trkpt lat="30.89341910001821" lon="-6.8802868872358065"><ele>1137.0</ele><time>2026-03-26T12:05:08.916Z</time></trkpt><trkpt lat="30.893536071385604" lon="-6.880334010358882"><ele>1137.0</ele><time>2026-03-26T12:05:09.915Z</time></trkpt><trkpt lat="30.89364830172417" lon="-6.880394422395391"><ele>1136.4</ele><time>2026-03-26T12:05:10.915Z</time></trkpt><trkpt lat="30.893746727503498" lon="-6.880443591534125"><ele>1135.8000000000002</ele><time>2026-03-26T12:05:11.915Z</time></trkpt><trkpt lat="30.89383721810006" lon="-6.880498460172279"><ele>1135.2</ele><time>2026-03-26T12:05:12.914Z</time></trkpt><trkpt lat="30.893894554969606" lon="-6.880542252751644"><ele>1134.6000000000001</ele><time>2026-03-26T12:05:13.914Z</time></trkpt><trkpt lat="30.894003396845505" lon="-6.88056777356164"><ele>1134.0</ele><time>2026-03-26T12:05:15.913Z</time></trkpt><trkpt lat="30.89409435724081" lon="-6.880595450170457"><ele>1134.0</ele><time>2026-03-26T12:05:17.913Z</time></trkpt><trkpt lat="30.894210669166167" lon="-6.880686246002334"><ele>1134.0</ele><time>2026-03-26T12:05:19.912Z</time></trkpt><trkpt lat="30.894289757193363" lon="-6.880720999188908"><ele>1134.0</ele><time>2026-03-26T12:05:20.912Z</time></trkpt><trkpt lat="30.894385602069157" lon="-6.880751037781499"><ele>1134.0</ele><time>2026-03-26T12:05:21.912Z</time></trkpt><trkpt lat="30.89448829995608" lon="-6.880788179313603"><ele>1134.0</ele><time>2026-03-26T12:05:22.912Z</time></trkpt><trkpt lat="30.894581663636597" lon="-6.880837351366317"><ele>1133.75</ele><time>2026-03-26T12:05:23.912Z</time></trkpt><trkpt lat="30.89468188259484" lon="-6.880888239845624"><ele>1133.5</ele><time>2026-03-26T12:05:24.912Z</time></trkpt><trkpt lat="30.89479179689045" lon="-6.880943969893339"><ele>1133.25</ele><time>2026-03-26T12:05:25.911Z</time></trkpt><trkpt lat="30.89491255856353" lon="-6.881000206490592"><ele>1133.0</ele><time>2026-03-26T12:05:26.911Z</time></trkpt><trkpt lat="30.895035748893207" lon="-6.88107062230956"><ele>1133.5</ele><time>2026-03-26T12:05:27.911Z</time></trkpt><trkpt lat="30.895150756067935" lon="-6.881123395873702"><ele>1134.0</ele><time>2026-03-26T12:05:28.911Z</time></trkpt><trkpt lat="30.89526722560874" lon="-6.881157955240997"><ele>1134.5</ele><time>2026-03-26T12:05:29.911Z</time></trkpt><trkpt lat="30.895401985632986" lon="-6.881173629895415"><ele>1135.0</ele><time>2026-03-26T12:05:30.911Z</time></trkpt><trkpt lat="30.89556373872089" lon="-6.881179834750668"><ele>1135.0</ele><time>2026-03-26T12:05:31.911Z</time></trkpt><trkpt lat="30.895726187121912" lon="-6.88117038189108"><ele>1135.0</ele><time>2026-03-26T12:05:32.911Z</time></trkpt><trkpt lat="30.895840614168424" lon="-6.8811431134718255"><ele>1135.0</ele><time>2026-03-26T12:05:33.911Z</time></trkpt><trkpt lat="30.89596680502823" lon="-6.8811108142011665"><ele>1135.0</ele><time>2026-03-26T12:05:34.91Z</time></trkpt><trkpt lat="30.89608128441244" lon="-6.881065510942956"><ele>1134.25</ele><time>2026-03-26T12:05:35.91Z</time></trkpt><trkpt lat="30.896178414564012" lon="-6.881044880347761"><ele>1133.5</ele><time>2026-03-26T12:05:36.91Z</time></trkpt><trkpt lat="30.896290023086937" lon="-6.881054687231614"><ele>1132.75</ele><time>2026-03-26T12:05:37.91Z</time></trkpt><trkpt lat="30.896418028970988" lon="-6.88108941354519"><ele>1132.0</ele><time>2026-03-26T12:05:38.91Z</time></trkpt><trkpt lat="30.896523598698643" lon="-6.881131706204635"><ele>1132.0</ele><time>2026-03-26T12:05:39.91Z</time></trkpt><trkpt lat="30.896623816410035" lon="-6.881155312376387"><ele>1132.0</ele><time>2026-03-26T12:05:40.91Z</time></trkpt><trkpt lat="30.896738909707526" lon="-6.881184298604085"><ele>1132.0</ele><time>2026-03-26T12:05:41.91Z</time></trkpt><trkpt lat="30.8968608798177" lon="-6.881209766043187"><ele>1132.0</ele><time>2026-03-26T12:05:42.91Z</time></trkpt><trkpt lat="30.89699663742491" lon="-6.881202045766419"><ele>1131.8</ele><time>2026-03-26T12:05:43.91Z</time></trkpt><trkpt lat="30.897119618774834" lon="-6.881192840881165"><ele>1131.6</ele><time>2026-03-26T12:05:44.91Z</time></trkpt><trkpt lat="30.897225966227136" lon="-6.881194347375429"><ele>1131.3999999999999</ele><time>2026-03-26T12:05:45.91Z</time></trkpt><trkpt lat="30.897317409626858" lon="-6.881192481720005"><ele>1131.2</ele><time>2026-03-26T12:05:46.91Z</time></trkpt><trkpt lat="30.897385209978424" lon="-6.881195217909013"><ele>1131.0</ele><time>2026-03-26T12:05:47.91Z</time></trkpt><trkpt lat="30.897493068572953" lon="-6.881209940858028"><ele>1131.0</ele><time>2026-03-26T12:05:49.91Z</time></trkpt><trkpt lat="30.89758193901152" lon="-6.881278432479506"><ele>1131.0</ele><time>2026-03-26T12:05:51.91Z</time></trkpt><trkpt lat="30.897632679162097" lon="-6.881380677798659"><ele>1131.0</ele><time>2026-03-26T12:05:53.91Z</time></trkpt><trkpt lat="30.897649278505355" lon="-6.881458047402779"><ele>1131.0</ele><time>2026-03-26T12:05:55.91Z</time></trkpt><trkpt lat="30.89767388219368" lon="-6.881587272288638"><ele>1131.0</ele><time>2026-03-26T12:05:57.909Z</time></trkpt><trkpt lat="30.897686620688365" lon="-6.881677580377578"><ele>1130.3999999999999</ele><time>2026-03-26T12:05:58.909Z</time></trkpt><trkpt lat="30.897714252294413" lon="-6.881782330043149"><ele>1129.8</ele><time>2026-03-26T12:05:59.909Z</time></trkpt><trkpt lat="30.897748360708203" lon="-6.8818950149031135"><ele>1129.1999999999998</ele><time>2026-03-26T12:06:00.909Z</time></trkpt><trkpt lat="30.897773276205612" lon="-6.8820110140098"><ele>1128.6</ele><time>2026-03-26T12:06:01.909Z</time></trkpt><trkpt lat="30.897792678261233" lon="-6.882130547569167"><ele>1128.0</ele><time>2026-03-26T12:06:02.909Z</time></trkpt><trkpt lat="30.897832210570954" lon="-6.882238921001333"><ele>1128.0</ele><time>2026-03-26T12:06:03.909Z</time></trkpt><trkpt lat="30.897872461992907" lon="-6.882333827694465"><ele>1128.0</ele><time>2026-03-26T12:06:04.909Z</time></trkpt><trkpt lat="30.89790864531607" lon="-6.882445350113261"><ele>1128.0</ele><time>2026-03-26T12:06:05.909Z</time></trkpt><trkpt lat="30.897948545121057" lon="-6.8825801377170155"><ele>1128.0</ele><time>2026-03-26T12:06:06.909Z</time></trkpt><trkpt lat="30.89797719923655" lon="-6.882716915432779"><ele>1128.0</ele><time>2026-03-26T12:06:07.909Z</time></trkpt><trkpt lat="30.898005486756897" lon="-6.882830804353038"><ele>1128.0</ele><time>2026-03-26T12:06:08.909Z</time></trkpt><trkpt lat="30.898034329984043" lon="-6.882940167004193"><ele>1128.0</ele><time>2026-03-26T12:06:09.909Z</time></trkpt><trkpt lat="30.898060735804297" lon="-6.883056453070093"><ele>1128.0</ele><time>2026-03-26T12:06:10.909Z</time></trkpt><trkpt lat="30.89809938188613" lon="-6.883174124186611"><ele>1128.0</ele><time>2026-03-26T12:06:11.909Z</time></trkpt><trkpt lat="30.89815985904578" lon="-6.883259169089847"><ele>1128.0</ele><time>2026-03-26T12:06:12.909Z</time></trkpt><trkpt lat="30.898260368945987" lon="-6.883338393010701"><ele>1128.0</ele><time>2026-03-26T12:06:13.909Z</time></trkpt><trkpt lat="30.898371928280312" lon="-6.88340090896845"><ele>1128.0</ele><time>2026-03-26T12:06:14.909Z</time></trkpt><trkpt lat="30.898474854302638" lon="-6.883489368162954"><ele>1128.0</ele><time>2026-03-26T12:06:15.909Z</time></trkpt><trkpt lat="30.89855746925368" lon="-6.883581138723028"><ele>1128.0</ele><time>2026-03-26T12:06:16.909Z</time></trkpt><trkpt lat="30.898639582034395" lon="-6.883650451184185"><ele>1127.4</ele><time>2026-03-26T12:06:17.909Z</time></trkpt><trkpt lat="30.89872197630662" lon="-6.883733329845921"><ele>1126.8</ele><time>2026-03-26T12:06:18.909Z</time></trkpt><trkpt lat="30.898800596449043" lon="-6.8838189092047255"><ele>1126.2</ele><time>2026-03-26T12:06:19.909Z</time></trkpt><trkpt lat="30.898883313760354" lon="-6.883915512047356"><ele>1125.6</ele><time>2026-03-26T12:06:20.909Z</time></trkpt><trkpt lat="30.898940609637435" lon="-6.884010852098265"><ele>1125.0</ele><time>2026-03-26T12:06:21.909Z</time></trkpt><trkpt lat="30.899005479483307" lon="-6.8840990427160555"><ele>1125.0</ele><time>2026-03-26T12:06:22.909Z</time></trkpt><trkpt lat="30.899064015042377" lon="-6.884201680845446"><ele>1125.0</ele><time>2026-03-26T12:06:23.909Z</time></trkpt><trkpt lat="30.89910423888861" lon="-6.884316582169422"><ele>1125.0</ele><time>2026-03-26T12:06:24.909Z</time></trkpt><trkpt lat="30.899121744928433" lon="-6.884445563490878"><ele>1125.0</ele><time>2026-03-26T12:06:25.908Z</time></trkpt><trkpt lat="30.899118409786436" lon="-6.884579898366684"><ele>1125.0</ele><time>2026-03-26T12:06:26.908Z</time></trkpt><trkpt lat="30.89911482380824" lon="-6.884721577841657"><ele>1125.8</ele><time>2026-03-26T12:06:27.909Z</time></trkpt><trkpt lat="30.899120156632616" lon="-6.884860445212724"><ele>1126.6</ele><time>2026-03-26T12:06:28.909Z</time></trkpt><trkpt lat="30.899114771399127" lon="-6.884988409255453"><ele>1127.4</ele><time>2026-03-26T12:06:29.909Z</time></trkpt><trkpt lat="30.899107273693975" lon="-6.885118420595641"><ele>1128.2</ele><time>2026-03-26T12:06:30.909Z</time></trkpt><trkpt lat="30.899093395282033" lon="-6.885240201547018"><ele>1129.0</ele><time>2026-03-26T12:06:31.909Z</time></trkpt><trkpt lat="30.899081635455627" lon="-6.885344029981774"><ele>1129.0</ele><time>2026-03-26T12:06:32.909Z</time></trkpt><trkpt lat="30.89907506460448" lon="-6.8854390232287805"><ele>1129.0</ele><time>2026-03-26T12:06:33.909Z</time></trkpt><trkpt lat="30.899062583892505" lon="-6.885525444622805"><ele>1129.0</ele><time>2026-03-26T12:06:34.909Z</time></trkpt><trkpt lat="30.899033722344335" lon="-6.8856032994730025"><ele>1129.0</ele><time>2026-03-26T12:06:35.909Z</time></trkpt><trkpt lat="30.899000661830826" lon="-6.885670669488928"><ele>1129.0</ele><time>2026-03-26T12:06:36.909Z</time></trkpt><trkpt lat="30.898972799121285" lon="-6.885737711164657"><ele>1129.0</ele><time>2026-03-26T12:06:37.908Z</time></trkpt><trkpt lat="30.898921401495514" lon="-6.8858660645569065"><ele>1129.1666666666665</ele><time>2026-03-26T12:06:39.908Z</time></trkpt><trkpt lat="30.898837621980203" lon="-6.885943301174168"><ele>1129.3333333333333</ele><time>2026-03-26T12:06:41.908Z</time></trkpt><trkpt lat="30.89877496368172" lon="-6.885958757206247"><ele>1129.5</ele><time>2026-03-26T12:06:42.908Z</time></trkpt><trkpt lat="30.89871073453386" lon="-6.8859663405144556"><ele>1129.6666666666667</ele><time>2026-03-26T12:06:43.908Z</time></trkpt><trkpt lat="30.898640942033964" lon="-6.885978161506036"><ele>1129.8333333333335</ele><time>2026-03-26T12:06:44.908Z</time></trkpt><trkpt lat="30.89857543125412" lon="-6.886006528650128"><ele>1130.0</ele><time>2026-03-26T12:06:45.908Z</time></trkpt><trkpt lat="30.89851015241897" lon="-6.886051215809998"><ele>1130.0</ele><time>2026-03-26T12:06:46.908Z</time></trkpt><trkpt lat="30.898448622369383" lon="-6.886118829447573"><ele>1130.0</ele><time>2026-03-26T12:06:47.908Z</time></trkpt><trkpt lat="30.898390935725008" lon="-6.88621699025044"><ele>1130.0</ele><time>2026-03-26T12:06:48.908Z</time></trkpt><trkpt lat="30.898339750735687" lon="-6.886312755660741"><ele>1130.0</ele><time>2026-03-26T12:06:49.908Z</time></trkpt><trkpt lat="30.898295502571646" lon="-6.8864033887083345"><ele>1130.0</ele><time>2026-03-26T12:06:50.908Z</time></trkpt><trkpt lat="30.898242688764174" lon="-6.886502091537841"><ele>1131.0</ele><time>2026-03-26T12:06:51.908Z</time></trkpt><trkpt lat="30.898182900246923" lon="-6.8865798174812065"><ele>1132.0</ele><time>2026-03-26T12:06:52.908Z</time></trkpt><trkpt lat="30.898114716349408" lon="-6.886674531390717"><ele>1133.0</ele><time>2026-03-26T12:06:53.908Z</time></trkpt><trkpt lat="30.898064392468676" lon="-6.8867828388660115"><ele>1134.0</ele><time>2026-03-26T12:06:54.908Z</time></trkpt><trkpt lat="30.898014077796034" lon="-6.8869097102006"><ele>1135.0</ele><time>2026-03-26T12:06:55.908Z</time></trkpt><trkpt lat="30.897979044022037" lon="-6.887027889134552"><ele>1136.2</ele><time>2026-03-26T12:06:56.908Z</time></trkpt><trkpt lat="30.89796805937693" lon="-6.88715730242486"><ele>1137.4</ele><time>2026-03-26T12:06:57.908Z</time></trkpt><trkpt lat="30.897966603865218" lon="-6.887274755770772"><ele>1138.6</ele><time>2026-03-26T12:06:58.908Z</time></trkpt><trkpt lat="30.897933714204438" lon="-6.887350452455082"><ele>1139.8</ele><time>2026-03-26T12:06:59.908Z</time></trkpt><trkpt lat="30.897890245345675" lon="-6.8874286907118565"><ele>1141.0</ele><time>2026-03-26T12:07:00.908Z</time></trkpt><trkpt lat="30.8978431899847" lon="-6.887534159878298"><ele>1142.3999999999999</ele><time>2026-03-26T12:07:01.908Z</time></trkpt><trkpt lat="30.89782385295762" lon="-6.88765236716425"><ele>1143.8</ele><time>2026-03-26T12:07:02.908Z</time></trkpt><trkpt lat="30.897804993714864" lon="-6.887745418326735"><ele>1145.1999999999998</ele><time>2026-03-26T12:07:03.908Z</time></trkpt><trkpt lat="30.89778707375115" lon="-6.887835003131583"><ele>1146.6</ele><time>2026-03-26T12:07:04.908Z</time></trkpt><trkpt lat="30.897762025915412" lon="-6.887936683428493"><ele>1148.0</ele><time>2026-03-26T12:07:05.908Z</time></trkpt><trkpt lat="30.89773371570855" lon="-6.888042454325619"><ele>1148.0</ele><time>2026-03-26T12:07:06.908Z</time></trkpt><trkpt lat="30.8976953722342" lon="-6.888168845530036"><ele>1148.0</ele><time>2026-03-26T12:07:07.908Z</time></trkpt><trkpt lat="30.897669238097844" lon="-6.888281956953929"><ele>1148.0</ele><time>2026-03-26T12:07:08.908Z</time></trkpt><trkpt lat="30.897636483314148" lon="-6.888387913208173"><ele>1148.0</ele><time>2026-03-26T12:07:09.908Z</time></trkpt><trkpt lat="30.897599162720642" lon="-6.888502895038686"><ele>1148.0</ele><time>2026-03-26T12:07:10.908Z</time></trkpt><trkpt lat="30.89756568177201" lon="-6.888597857125006"><ele>1148.3333333333335</ele><time>2026-03-26T12:07:11.908Z</time></trkpt><trkpt lat="30.897530775049653" lon="-6.888696233679775"><ele>1148.6666666666667</ele><time>2026-03-26T12:07:12.908Z</time></trkpt><trkpt lat="30.89750291736394" lon="-6.888790918223365"><ele>1149.0</ele><time>2026-03-26T12:07:13.908Z</time></trkpt><trkpt lat="30.897473906738018" lon="-6.888884890315367"><ele>1149.3333333333333</ele><time>2026-03-26T12:07:14.908Z</time></trkpt><trkpt lat="30.897444053515287" lon="-6.8889828351716655"><ele>1149.6666666666665</ele><time>2026-03-26T12:07:15.908Z</time></trkpt><trkpt lat="30.897409015749204" lon="-6.889087637535386"><ele>1150.0</ele><time>2026-03-26T12:07:16.908Z</time></trkpt><trkpt lat="30.89738348461445" lon="-6.889200747780711"><ele>1150.6</ele><time>2026-03-26T12:07:17.908Z</time></trkpt><trkpt lat="30.897363208713823" lon="-6.889308041533299"><ele>1151.2</ele><time>2026-03-26T12:07:18.908Z</time></trkpt><trkpt lat="30.897351019447942" lon="-6.889407265735774"><ele>1151.8</ele><time>2026-03-26T12:07:19.908Z</time></trkpt><trkpt lat="30.89734951891957" lon="-6.889510583426596"><ele>1152.4</ele><time>2026-03-26T12:07:20.908Z</time></trkpt><trkpt lat="30.897356400456513" lon="-6.889615771859072"><ele>1153.0</ele><time>2026-03-26T12:07:21.908Z</time></trkpt><trkpt lat="30.897363522203687" lon="-6.889746806025933"><ele>1153.0</ele><time>2026-03-26T12:07:22.908Z</time></trkpt><trkpt lat="30.897367769221134" lon="-6.88984259292296"><ele>1153.0</ele><time>2026-03-26T12:07:23.908Z</time></trkpt><trkpt lat="30.897372943825513" lon="-6.889975772256091"><ele>1153.0</ele><time>2026-03-26T12:07:25.908Z</time></trkpt><trkpt lat="30.897363629959646" lon="-6.8901033182009375"><ele>1153.0</ele><time>2026-03-26T12:07:27.908Z</time></trkpt><trkpt lat="30.89735023100642" lon="-6.8902134423699675"><ele>1153.0</ele><time>2026-03-26T12:07:29.908Z</time></trkpt><trkpt lat="30.89733710017516" lon="-6.8903754664368275"><ele>1152.0</ele><time>2026-03-26T12:07:31.908Z</time></trkpt><trkpt lat="30.897338940596505" lon="-6.890497650081219"><ele>1151.0</ele><time>2026-03-26T12:07:32.908Z</time></trkpt><trkpt lat="30.897339806746345" lon="-6.890601554046288"><ele>1150.0</ele><time>2026-03-26T12:07:33.908Z</time></trkpt><trkpt lat="30.897342626706486" lon="-6.890681663737847"><ele>1149.0</ele><time>2026-03-26T12:07:34.908Z</time></trkpt><trkpt lat="30.897346563175432" lon="-6.890779005829341"><ele>1148.0</ele><time>2026-03-26T12:07:35.908Z</time></trkpt><trkpt lat="30.897353789671115" lon="-6.8908653383090535"><ele>1147.0</ele><time>2026-03-26T12:07:36.908Z</time></trkpt><trkpt lat="30.897367104620702" lon="-6.891016137165345"><ele>1146.2</ele><time>2026-03-26T12:07:38.908Z</time></trkpt><trkpt lat="30.897373560237597" lon="-6.891094294641438"><ele>1145.4</ele><time>2026-03-26T12:07:39.908Z</time></trkpt><trkpt lat="30.897379500042206" lon="-6.891185033638958"><ele>1144.6</ele><time>2026-03-26T12:07:40.908Z</time></trkpt><trkpt lat="30.897387440862154" lon="-6.891276650192543"><ele>1143.8</ele><time>2026-03-26T12:07:41.908Z</time></trkpt><trkpt lat="30.89740263630998" lon="-6.891415146769004"><ele>1143.0</ele><time>2026-03-26T12:07:43.908Z</time></trkpt><trkpt lat="30.89741821832906" lon="-6.891539520033515"><ele>1143.0</ele><time>2026-03-26T12:07:45.908Z</time></trkpt><trkpt lat="30.89743166759687" lon="-6.891618669502288"><ele>1143.0</ele><time>2026-03-26T12:07:46.908Z</time></trkpt><trkpt lat="30.897454394789946" lon="-6.8917751796614555"><ele>1143.0</ele><time>2026-03-26T12:07:48.908Z</time></trkpt><trkpt lat="30.897474468456736" lon="-6.891867263154194"><ele>1143.0</ele><time>2026-03-26T12:07:49.908Z</time></trkpt><trkpt lat="30.897471986587306" lon="-6.891947089176644"><ele>1143.0</ele><time>2026-03-26T12:07:50.908Z</time></trkpt><trkpt lat="30.897467847115692" lon="-6.892033505330269"><ele>1143.0</ele><time>2026-03-26T12:07:51.908Z</time></trkpt><trkpt lat="30.89747147033326" lon="-6.892114046788074"><ele>1142.142857142857</ele><time>2026-03-26T12:07:52.908Z</time></trkpt><trkpt lat="30.897469644778447" lon="-6.892196077075197"><ele>1141.2857142857142</ele><time>2026-03-26T12:07:53.908Z</time></trkpt><trkpt lat="30.897468947861196" lon="-6.89227994055241"><ele>1140.4285714285713</ele><time>2026-03-26T12:07:54.908Z</time></trkpt><trkpt lat="30.89746498671282" lon="-6.892356820036145"><ele>1139.5714285714284</ele><time>2026-03-26T12:07:55.908Z</time></trkpt><trkpt lat="30.897464209627476" lon="-6.892439464767888"><ele>1138.7142857142858</ele><time>2026-03-26T12:07:56.908Z</time></trkpt><trkpt lat="30.897473210200097" lon="-6.89252844801143"><ele>1137.8571428571427</ele><time>2026-03-26T12:07:57.908Z</time></trkpt><trkpt lat="30.897478845809843" lon="-6.892617636005212"><ele>1137.0</ele><time>2026-03-26T12:07:58.908Z</time></trkpt><trkpt lat="30.897491507007082" lon="-6.89276614111733"><ele>1137.0</ele><time>2026-03-26T12:08:00.908Z</time></trkpt><trkpt lat="30.897502016332936" lon="-6.892840126954516"><ele>1137.0</ele><time>2026-03-26T12:08:01.908Z</time></trkpt><trkpt lat="30.897510903768104" lon="-6.892920184430347"><ele>1137.0</ele><time>2026-03-26T12:08:02.908Z</time></trkpt><trkpt lat="30.897505427574515" lon="-6.892996940176962"><ele>1137.0</ele><time>2026-03-26T12:08:03.908Z</time></trkpt><trkpt lat="30.897502526489934" lon="-6.8930748827542265"><ele>1137.0</ele><time>2026-03-26T12:08:04.908Z</time></trkpt><trkpt lat="30.89749832697934" lon="-6.893186410936569"><ele>1137.0</ele><time>2026-03-26T12:08:06.908Z</time></trkpt><trkpt lat="30.89748383042702" lon="-6.8933088131295905"><ele>1137.0</ele><time>2026-03-26T12:08:08.908Z</time></trkpt><trkpt lat="30.89746059022376" lon="-6.8934127418761"><ele>1137.0</ele><time>2026-03-26T12:08:10.908Z</time></trkpt><trkpt lat="30.897426469476592" lon="-6.893528296334025"><ele>1137.0</ele><time>2026-03-26T12:08:12.908Z</time></trkpt><trkpt lat="30.89739125708201" lon="-6.893630930807141"><ele>1137.0</ele><time>2026-03-26T12:08:14.908Z</time></trkpt><trkpt lat="30.89737697571627" lon="-6.893721873668966"><ele>1137.0</ele><time>2026-03-26T12:08:16.908Z</time></trkpt><trkpt lat="30.897373944168947" lon="-6.8938172817564425"><ele>1136.8333333333333</ele><time>2026-03-26T12:08:19.908Z</time></trkpt><trkpt lat="30.897347516517932" lon="-6.893941291243088"><ele>1136.6666666666667</ele><time>2026-03-26T12:08:21.908Z</time></trkpt><trkpt lat="30.897323734399457" lon="-6.894037177389556"><ele>1136.5</ele><time>2026-03-26T12:08:23.908Z</time></trkpt><trkpt lat="30.897307887815256" lon="-6.894124303055662"><ele>1136.3333333333335</ele><time>2026-03-26T12:08:25.908Z</time></trkpt><trkpt lat="30.897297798172154" lon="-6.8942152993169055"><ele>1136.1666666666667</ele><time>2026-03-26T12:08:28.908Z</time></trkpt><trkpt lat="30.897291262699937" lon="-6.894296127850341"><ele>1136.0</ele><time>2026-03-26T12:08:31.908Z</time></trkpt><trkpt lat="30.89730543823847" lon="-6.894390135385688"><ele>1135.8</ele><time>2026-03-26T12:08:34.908Z</time></trkpt><trkpt lat="30.89728230998285" lon="-6.894472781392796"><ele>1135.6</ele><time>2026-03-26T12:08:37.908Z</time></trkpt><trkpt lat="30.89728116551042" lon="-6.8945937822792205"><ele>1135.4</ele><time>2026-03-26T12:08:39.909Z</time></trkpt><trkpt lat="30.897227220271727" lon="-6.894733656857362"><ele>1135.2</ele><time>2026-03-26T12:08:41.908Z</time></trkpt><trkpt lat="30.897211863369904" lon="-6.894810296239467"><ele>1135.0</ele><time>2026-03-26T12:08:42.908Z</time></trkpt><trkpt lat="30.897184965266558" lon="-6.894900995003797"><ele>1135.0</ele><time>2026-03-26T12:08:44.908Z</time></trkpt><trkpt lat="30.897213052889033" lon="-6.895024220061774"><ele>1135.0</ele><time>2026-03-26T12:08:47.908Z</time></trkpt><trkpt lat="30.897220849967958" lon="-6.895114513880612"><ele>1135.0</ele><time>2026-03-26T12:08:49.908Z</time></trkpt><trkpt lat="30.89724697736554" lon="-6.8951952501743"><ele>1135.0</ele><time>2026-03-26T12:08:51.908Z</time></trkpt><trkpt lat="30.897255843284658" lon="-6.895304861301667"><ele>1135.0</ele><time>2026-03-26T12:08:53.908Z</time></trkpt><trkpt lat="30.897262305664515" lon="-6.895387212952536"><ele>1135.0</ele><time>2026-03-26T12:08:55.908Z</time></trkpt><trkpt lat="30.89727207067601" lon="-6.895472003570964"><ele>1135.0</ele><time>2026-03-26T12:08:59.908Z</time></trkpt><trkpt lat="30.89729251188358" lon="-6.8955428731107"><ele>1135.0</ele><time>2026-03-26T12:09:25.908Z</time></trkpt><trkpt lat="30.897414430122087" lon="-6.895571223431883"><ele>1135.0</ele><time>2026-03-26T12:09:32.908Z</time></trkpt><trkpt lat="30.89747897451501" lon="-6.895612001875969"><ele>1135.0</ele><time>2026-03-26T12:09:34.908Z</time></trkpt><trkpt lat="30.897499353524303" lon="-6.8957338307514275"><ele>1135.0</ele><time>2026-03-26T12:09:36.908Z</time></trkpt><trkpt lat="30.89751333006308" lon="-6.895853943353336"><ele>1135.0</ele><time>2026-03-26T12:09:38.908Z</time></trkpt><trkpt lat="30.897521204230895" lon="-6.895991301072587"><ele>1135.0</ele><time>2026-03-26T12:09:40.908Z</time></trkpt><trkpt lat="30.897534903870106" lon="-6.89606662009245"><ele>1135.0</ele><time>2026-03-26T12:09:41.908Z</time></trkpt><trkpt lat="30.897547939800297" lon="-6.896198622716564"><ele>1135.0</ele><time>2026-03-26T12:09:43.908Z</time></trkpt><trkpt lat="30.897558024022352" lon="-6.896330317056701"><ele>1135.0</ele><time>2026-03-26T12:09:45.908Z</time></trkpt><trkpt lat="30.897579956418785" lon="-6.896478510555179"><ele>1135.0</ele><time>2026-03-26T12:09:47.908Z</time></trkpt><trkpt lat="30.897592543306168" lon="-6.896601922482709"><ele>1135.0</ele><time>2026-03-26T12:09:49.908Z</time></trkpt><trkpt lat="30.89760632157577" lon="-6.8967086007848595"><ele>1135.0</ele><time>2026-03-26T12:09:51.908Z</time></trkpt><trkpt lat="30.89768768156387" lon="-6.896761815026041"><ele>1135.0</ele><time>2026-03-26T12:09:54.908Z</time></trkpt><trkpt lat="30.897770996639682" lon="-6.896765630096713"><ele>1135.0</ele><time>2026-03-26T12:09:56.908Z</time></trkpt><trkpt lat="30.897846750302442" lon="-6.896744126532417"><ele>1134.4</ele><time>2026-03-26T12:09:58.908Z</time></trkpt><trkpt lat="30.8979544511082" lon="-6.896732867594414"><ele>1133.8</ele><time>2026-03-26T12:10:00.908Z</time></trkpt><trkpt lat="30.898079492300806" lon="-6.896721656234027"><ele>1133.2</ele><time>2026-03-26T12:10:02.907Z</time></trkpt><trkpt lat="30.8981663970403" lon="-6.89670704259041"><ele>1132.6</ele><time>2026-03-26T12:10:03.907Z</time></trkpt><trkpt lat="30.898262850709166" lon="-6.896700748230678"><ele>1132.0</ele><time>2026-03-26T12:10:04.907Z</time></trkpt><trkpt lat="30.89834203947377" lon="-6.8966880557853445"><ele>1132.0</ele><time>2026-03-26T12:10:05.907Z</time></trkpt><trkpt lat="30.8984059624771" lon="-6.896679396705057"><ele>1132.0</ele><time>2026-03-26T12:10:06.907Z</time></trkpt><trkpt lat="30.8985226301712" lon="-6.896665424093512"><ele>1132.0</ele><time>2026-03-26T12:10:08.907Z</time></trkpt><trkpt lat="30.898605031222505" lon="-6.896668502064448"><ele>1132.0</ele><time>2026-03-26T12:10:10.907Z</time></trkpt><trkpt lat="30.898675395378234" lon="-6.896765038148052"><ele>1132.0</ele><time>2026-03-26T12:10:12.907Z</time></trkpt><trkpt lat="30.898697785824748" lon="-6.89684377377796"><ele>1132.0</ele><time>2026-03-26T12:10:13.907Z</time></trkpt><trkpt lat="30.898738863043896" lon="-6.896917289844656"><ele>1132.3333333333333</ele><time>2026-03-26T12:10:14.907Z</time></trkpt><trkpt lat="30.898768979588286" lon="-6.896993345171577"><ele>1132.6666666666665</ele><time>2026-03-26T12:10:15.907Z</time></trkpt><trkpt lat="30.89881231261519" lon="-6.8970670007833155"><ele>1133.0</ele><time>2026-03-26T12:10:16.907Z</time></trkpt><trkpt lat="30.89884098618704" lon="-6.897136966436589"><ele>1133.3333333333333</ele><time>2026-03-26T12:10:17.907Z</time></trkpt><trkpt lat="30.89886823728522" lon="-6.897204701806463"><ele>1133.6666666666667</ele><time>2026-03-26T12:10:18.907Z</time></trkpt><trkpt lat="30.898912925833017" lon="-6.897328282040045"><ele>1134.0</ele><time>2026-03-26T12:10:20.907Z</time></trkpt><trkpt lat="30.89894374149558" lon="-6.897426185148347"><ele>1134.0</ele><time>2026-03-26T12:10:22.907Z</time></trkpt><trkpt lat="30.89896079822036" lon="-6.8975367044305225"><ele>1134.0</ele><time>2026-03-26T12:10:24.907Z</time></trkpt><trkpt lat="30.898988695292914" lon="-6.897670753712181"><ele>1134.0</ele><time>2026-03-26T12:10:26.907Z</time></trkpt><trkpt lat="30.899002077049424" lon="-6.8977579704956025"><ele>1134.0</ele><time>2026-03-26T12:10:27.907Z</time></trkpt><trkpt lat="30.899023475369123" lon="-6.897840894157492"><ele>1134.0</ele><time>2026-03-26T12:10:28.907Z</time></trkpt><trkpt lat="30.899059401331957" lon="-6.897953154975904"><ele>1134.0</ele><time>2026-03-26T12:10:30.907Z</time></trkpt><trkpt lat="30.899072405762457" lon="-6.898039066959116"><ele>1134.0</ele><time>2026-03-26T12:10:32.907Z</time></trkpt><trkpt lat="30.899078466151213" lon="-6.898117940938943"><ele>1134.0</ele><time>2026-03-26T12:10:34.907Z</time></trkpt><trkpt lat="30.899197836229597" lon="-6.898114618981032"><ele>1134.0</ele><time>2026-03-26T12:10:41.908Z</time></trkpt><trkpt lat="30.899289068340895" lon="-6.898096557681659"><ele>1134.0</ele><time>2026-03-26T12:10:42.908Z</time></trkpt><trkpt lat="30.899384582084043" lon="-6.898083128576099"><ele>1133.0</ele><time>2026-03-26T12:10:43.907Z</time></trkpt><trkpt lat="30.899492098190905" lon="-6.898064264994912"><ele>1132.0</ele><time>2026-03-26T12:10:44.907Z</time></trkpt><trkpt lat="30.899577628356774" lon="-6.898044191931523"><ele>1131.0</ele><time>2026-03-26T12:10:45.907Z</time></trkpt><trkpt lat="30.89966689424582" lon="-6.898034892111862"><ele>1130.0</ele><time>2026-03-26T12:10:46.907Z</time></trkpt><trkpt lat="30.899745084712936" lon="-6.8980206376288"><ele>1129.0</ele><time>2026-03-26T12:10:47.907Z</time></trkpt><trkpt lat="30.899818217659497" lon="-6.898014908582248"><ele>1128.0</ele><time>2026-03-26T12:10:48.907Z</time></trkpt><trkpt lat="30.899894080080344" lon="-6.8979963874078285"><ele>1128.0</ele><time>2026-03-26T12:10:49.908Z</time></trkpt><trkpt lat="30.899974995539775" lon="-6.897984146670196"><ele>1128.0</ele><time>2026-03-26T12:10:50.908Z</time></trkpt><trkpt lat="30.90006108623144" lon="-6.897974148702402"><ele>1128.0</ele><time>2026-03-26T12:10:51.908Z</time></trkpt><trkpt lat="30.90013458399611" lon="-6.897959724611383"><ele>1128.0</ele><time>2026-03-26T12:10:52.908Z</time></trkpt><trkpt lat="30.900213633980705" lon="-6.897942451204628"><ele>1128.0</ele><time>2026-03-26T12:10:53.908Z</time></trkpt><trkpt lat="30.900299490777098" lon="-6.897934763062296"><ele>1128.0</ele><time>2026-03-26T12:10:54.908Z</time></trkpt><trkpt lat="30.900386481868996" lon="-6.897923989498955"><ele>1127.6666666666667</ele><time>2026-03-26T12:10:55.908Z</time></trkpt><trkpt lat="30.90047563564111" lon="-6.897910180184992"><ele>1127.3333333333333</ele><time>2026-03-26T12:10:56.908Z</time></trkpt><trkpt lat="30.900554841020487" lon="-6.897904476126265"><ele>1127.0</ele><time>2026-03-26T12:10:57.908Z</time></trkpt><trkpt lat="30.900636726525413" lon="-6.897902317977299"><ele>1126.6666666666665</ele><time>2026-03-26T12:10:58.908Z</time></trkpt><trkpt lat="30.90072048483327" lon="-6.8978992469328535"><ele>1126.3333333333333</ele><time>2026-03-26T12:10:59.908Z</time></trkpt><trkpt lat="30.90081467470696" lon="-6.897890096299453"><ele>1126.0</ele><time>2026-03-26T12:11:00.908Z</time></trkpt><trkpt lat="30.90089952659038" lon="-6.897879119111339"><ele>1125.5</ele><time>2026-03-26T12:11:01.908Z</time></trkpt><trkpt lat="30.900975151777825" lon="-6.897867646199541"><ele>1125.0</ele><time>2026-03-26T12:11:02.908Z</time></trkpt><trkpt lat="30.901110395820258" lon="-6.897846452771462"><ele>1124.5</ele><time>2026-03-26T12:11:04.908Z</time></trkpt><trkpt lat="30.90118029317613" lon="-6.897834353705259"><ele>1124.0</ele><time>2026-03-26T12:11:05.908Z</time></trkpt><trkpt lat="30.901243608169384" lon="-6.897817441876264"><ele>1123.5</ele><time>2026-03-26T12:11:06.908Z</time></trkpt><trkpt lat="30.901309442686728" lon="-6.897804628287639"><ele>1123.0</ele><time>2026-03-26T12:11:07.908Z</time></trkpt><trkpt lat="30.901373227787065" lon="-6.897802838976635"><ele>1123.0</ele><time>2026-03-26T12:11:08.908Z</time></trkpt><trkpt lat="30.90146482585927" lon="-6.897842081649553"><ele>1123.0</ele><time>2026-03-26T12:11:10.907Z</time></trkpt><trkpt lat="30.901551082218184" lon="-6.897906586249994"><ele>1123.0</ele><time>2026-03-26T12:11:12.907Z</time></trkpt><trkpt lat="30.90161418251882" lon="-6.897970374490769"><ele>1123.0</ele><time>2026-03-26T12:11:14.907Z</time></trkpt><trkpt lat="30.901667532725213" lon="-6.898044333612926"><ele>1123.0</ele><time>2026-03-26T12:11:16.907Z</time></trkpt><trkpt lat="30.90163157804109" lon="-6.898130804840736"><ele>1123.0</ele><time>2026-03-26T12:11:19.907Z</time></trkpt><trkpt lat="30.90160730747825" lon="-6.898211461623325"><ele>1123.0</ele><time>2026-03-26T12:11:22.907Z</time></trkpt><trkpt lat="30.90158966605543" lon="-6.898312675566798"><ele>1123.0</ele><time>2026-03-26T12:11:24.907Z</time></trkpt><trkpt lat="30.901560641751086" lon="-6.898397612322011"><ele>1123.0</ele><time>2026-03-26T12:11:25.907Z</time></trkpt><trkpt lat="30.90151308665852" lon="-6.898487130992527"><ele>1123.0</ele><time>2026-03-26T12:11:26.907Z</time></trkpt><trkpt lat="30.901468176786313" lon="-6.898553873551197"><ele>1123.0</ele><time>2026-03-26T12:11:27.907Z</time></trkpt><trkpt lat="30.901427116883863" lon="-6.89861280984101"><ele>1123.0</ele><time>2026-03-26T12:11:28.907Z</time></trkpt><trkpt lat="30.90138448409573" lon="-6.898668866227909"><ele>1122.8</ele><time>2026-03-26T12:11:29.907Z</time></trkpt><trkpt lat="30.901340585990706" lon="-6.898737877286705"><ele>1122.6</ele><time>2026-03-26T12:11:30.907Z</time></trkpt><trkpt lat="30.901298788923928" lon="-6.89880159990838"><ele>1122.4</ele><time>2026-03-26T12:11:31.907Z</time></trkpt><trkpt lat="30.90122703019493" lon="-6.898912704699316"><ele>1122.2</ele><time>2026-03-26T12:11:33.907Z</time></trkpt><trkpt lat="30.901158129709174" lon="-6.89901162620179"><ele>1122.0</ele><time>2026-03-26T12:11:35.907Z</time></trkpt><trkpt lat="30.901082491539526" lon="-6.899112487950243"><ele>1122.0</ele><time>2026-03-26T12:11:37.907Z</time></trkpt><trkpt lat="30.901012062535564" lon="-6.89922235120931"><ele>1122.0</ele><time>2026-03-26T12:11:39.907Z</time></trkpt><trkpt lat="30.90097522419359" lon="-6.8993524192722715"><ele>1122.0</ele><time>2026-03-26T12:11:41.907Z</time></trkpt><trkpt lat="30.900956490218285" lon="-6.899498494989855"><ele>1122.0</ele><time>2026-03-26T12:11:43.907Z</time></trkpt><trkpt lat="30.90093997745264" lon="-6.899634274084766"><ele>1122.2</ele><time>2026-03-26T12:11:45.907Z</time></trkpt><trkpt lat="30.900911844679634" lon="-6.899770023140236"><ele>1122.4</ele><time>2026-03-26T12:11:47.907Z</time></trkpt><trkpt lat="30.900920395703768" lon="-6.899848303761397"><ele>1122.6</ele><time>2026-03-26T12:11:48.907Z</time></trkpt><trkpt lat="30.90092463053549" lon="-6.8999232661419585"><ele>1122.8</ele><time>2026-03-26T12:11:49.907Z</time></trkpt><trkpt lat="30.900957360608565" lon="-6.9000493944109484"><ele>1123.0</ele><time>2026-03-26T12:11:51.907Z</time></trkpt><trkpt lat="30.900963212799198" lon="-6.900159556459977"><ele>1123.0</ele><time>2026-03-26T12:11:53.907Z</time></trkpt><trkpt lat="30.900983442707346" lon="-6.900246928130417"><ele>1123.0</ele><time>2026-03-26T12:11:55.907Z</time></trkpt><trkpt lat="30.901016241186017" lon="-6.900362672239741"><ele>1123.0</ele><time>2026-03-26T12:11:57.907Z</time></trkpt><trkpt lat="30.90102543606743" lon="-6.900469198002772"><ele>1123.0</ele><time>2026-03-26T12:11:59.907Z</time></trkpt><trkpt lat="30.901050258888553" lon="-6.90058387006895"><ele>1123.0</ele><time>2026-03-26T12:12:01.907Z</time></trkpt><trkpt lat="30.901083071053026" lon="-6.900692281343058"><ele>1123.0</ele><time>2026-03-26T12:12:03.907Z</time></trkpt><trkpt lat="30.901088537800476" lon="-6.900796164288836"><ele>1123.0</ele><time>2026-03-26T12:12:05.907Z</time></trkpt><trkpt lat="30.90113307887485" lon="-6.900864965679052"><ele>1123.0</ele><time>2026-03-26T12:12:07.907Z</time></trkpt><trkpt lat="30.901169108158683" lon="-6.900941605898855"><ele>1123.0</ele><time>2026-03-26T12:12:09.907Z</time></trkpt><trkpt lat="30.90121938860221" lon="-6.900986863124683"><ele>1123.0</ele><time>2026-03-26T12:12:10.907Z</time></trkpt><trkpt lat="30.901287715114897" lon="-6.901040603472274"><ele>1123.0</ele><time>2026-03-26T12:12:11.907Z</time></trkpt><trkpt lat="30.901349132572513" lon="-6.9011112545081055"><ele>1122.8333333333333</ele><time>2026-03-26T12:12:12.907Z</time></trkpt><trkpt lat="30.901405217459402" lon="-6.901171585897805"><ele>1122.6666666666665</ele><time>2026-03-26T12:12:13.907Z</time></trkpt><trkpt lat="30.90146475137196" lon="-6.90123249059821"><ele>1122.5</ele><time>2026-03-26T12:12:14.907Z</time></trkpt><trkpt lat="30.901527442542385" lon="-6.901283775637584"><ele>1122.3333333333333</ele><time>2026-03-26T12:12:15.907Z</time></trkpt><trkpt lat="30.901583723636804" lon="-6.9013242363010034"><ele>1122.1666666666667</ele><time>2026-03-26T12:12:16.907Z</time></trkpt><trkpt lat="30.901663009067452" lon="-6.901446652435729"><ele>1122.0</ele><time>2026-03-26T12:12:18.907Z</time></trkpt><trkpt lat="30.90173214167622" lon="-6.901520805584415"><ele>1121.3333333333333</ele><time>2026-03-26T12:12:20.907Z</time></trkpt><trkpt lat="30.901809369512723" lon="-6.901576503509678"><ele>1120.6666666666667</ele><time>2026-03-26T12:12:22.907Z</time></trkpt><trkpt lat="30.90187844044832" lon="-6.901628701671888"><ele>1120.0</ele><time>2026-03-26T12:12:25.907Z</time></trkpt><trkpt lat="30.901944706739492" lon="-6.90163562302092"><ele>1119.3333333333335</ele><time>2026-03-26T12:12:28.907Z</time></trkpt><trkpt lat="30.902005124885072" lon="-6.901685169054851"><ele>1118.6666666666667</ele><time>2026-03-26T12:12:31.907Z</time></trkpt><trkpt lat="30.902076776244154" lon="-6.9017173250772625"><ele>1118.0</ele><time>2026-03-26T12:12:34.907Z</time></trkpt><trkpt lat="30.90213001666177" lon="-6.901814348213291"><ele>1118.0</ele><time>2026-03-26T12:12:38.907Z</time></trkpt><trkpt lat="30.902173797219735" lon="-6.901933275701797"><ele>1118.0</ele><time>2026-03-26T12:12:40.907Z</time></trkpt><trkpt lat="30.90217861667517" lon="-6.902074433094356"><ele>1118.0</ele><time>2026-03-26T12:12:42.907Z</time></trkpt><trkpt lat="30.902168702140273" lon="-6.902176943359248"><ele>1118.0</ele><time>2026-03-26T12:12:44.906Z</time></trkpt><trkpt lat="30.90215937497348" lon="-6.902267430183423"><ele>1118.0</ele><time>2026-03-26T12:12:47.906Z</time></trkpt><trkpt lat="30.902143774546353" lon="-6.9023393292966935"><ele>1118.0</ele><time>2026-03-26T12:12:50.907Z</time></trkpt><trkpt lat="30.90212752601113" lon="-6.902425894460947"><ele>1118.0</ele><time>2026-03-26T12:12:58.906Z</time></trkpt><trkpt lat="30.9020980495157" lon="-6.902504874350876"><ele>1118.0</ele><time>2026-03-26T12:13:00.906Z</time></trkpt><trkpt lat="30.902068528470995" lon="-6.902649299612153"><ele>1118.0</ele><time>2026-03-26T12:13:02.906Z</time></trkpt><trkpt lat="30.902055462018176" lon="-6.902721618909717"><ele>1118.0</ele><time>2026-03-26T12:13:03.906Z</time></trkpt><trkpt lat="30.90204955520651" lon="-6.902855496858832"><ele>1118.1666666666667</ele><time>2026-03-26T12:13:05.906Z</time></trkpt><trkpt lat="30.902058208775447" lon="-6.9030035241337515"><ele>1118.3333333333335</ele><time>2026-03-26T12:13:07.906Z</time></trkpt><trkpt lat="30.90206618620966" lon="-6.903092093932838"><ele>1118.5</ele><time>2026-03-26T12:13:08.906Z</time></trkpt><trkpt lat="30.90207672012611" lon="-6.903176022174495"><ele>1118.6666666666667</ele><time>2026-03-26T12:13:09.906Z</time></trkpt><trkpt lat="30.90208642601221" lon="-6.903255691918428"><ele>1118.8333333333333</ele><time>2026-03-26T12:13:10.906Z</time></trkpt><trkpt lat="30.902089007928158" lon="-6.9033431820037645"><ele>1119.0</ele><time>2026-03-26T12:13:11.906Z</time></trkpt><trkpt lat="30.902089006653615" lon="-6.903447480572032"><ele>1119.0</ele><time>2026-03-26T12:13:12.906Z</time></trkpt><trkpt lat="30.90209333599683" lon="-6.903556152669874"><ele>1119.0</ele><time>2026-03-26T12:13:13.906Z</time></trkpt><trkpt lat="30.902097515039067" lon="-6.903663936573933"><ele>1119.0</ele><time>2026-03-26T12:13:14.906Z</time></trkpt><trkpt lat="30.902096498957505" lon="-6.903787389247327"><ele>1119.0</ele><time>2026-03-26T12:13:15.906Z</time></trkpt><trkpt lat="30.902100526780924" lon="-6.903901852494553"><ele>1119.0</ele><time>2026-03-26T12:13:16.906Z</time></trkpt><trkpt lat="30.902100242756468" lon="-6.904007768466422"><ele>1119.0</ele><time>2026-03-26T12:13:17.906Z</time></trkpt><trkpt lat="30.90209949342755" lon="-6.904118045701036"><ele>1119.0</ele><time>2026-03-26T12:13:18.906Z</time></trkpt><trkpt lat="30.90209842628094" lon="-6.904224878940621"><ele>1119.0</ele><time>2026-03-26T12:13:19.906Z</time></trkpt><trkpt lat="30.90209270809345" lon="-6.904336444170485"><ele>1119.0</ele><time>2026-03-26T12:13:20.906Z</time></trkpt><trkpt lat="30.902087871360404" lon="-6.90444417195667"><ele>1119.0</ele><time>2026-03-26T12:13:21.906Z</time></trkpt><trkpt lat="30.902079719115992" lon="-6.904538263995276"><ele>1119.3333333333333</ele><time>2026-03-26T12:13:22.906Z</time></trkpt><trkpt lat="30.902072949134887" lon="-6.9046236012568745"><ele>1119.6666666666667</ele><time>2026-03-26T12:13:23.906Z</time></trkpt><trkpt lat="30.90206619906509" lon="-6.904698941920113"><ele>1120.0</ele><time>2026-03-26T12:13:24.906Z</time></trkpt><trkpt lat="30.902056319917108" lon="-6.904773723910588"><ele>1120.3333333333335</ele><time>2026-03-26T12:13:25.906Z</time></trkpt><trkpt lat="30.902040416747266" lon="-6.904903087055956"><ele>1120.6666666666667</ele><time>2026-03-26T12:13:27.906Z</time></trkpt><trkpt lat="30.90202850324709" lon="-6.904987620256682"><ele>1121.0</ele><time>2026-03-26T12:13:28.906Z</time></trkpt><trkpt lat="30.902008283085802" lon="-6.9050941609477405"><ele>1121.0</ele><time>2026-03-26T12:13:30.906Z</time></trkpt><trkpt lat="30.90201162479089" lon="-6.9052082253615685"><ele>1121.0</ele><time>2026-03-26T12:13:32.906Z</time></trkpt><trkpt lat="30.902021513431887" lon="-6.905289536957253"><ele>1121.0</ele><time>2026-03-26T12:13:33.906Z</time></trkpt><trkpt lat="30.902037059429574" lon="-6.905361652366996"><ele>1121.0</ele><time>2026-03-26T12:13:34.906Z</time></trkpt><trkpt lat="30.90204562759686" lon="-6.905440256142368"><ele>1121.0</ele><time>2026-03-26T12:13:35.906Z</time></trkpt><trkpt lat="30.902063102032717" lon="-6.905525285635474"><ele>1121.0</ele><time>2026-03-26T12:13:36.906Z</time></trkpt><trkpt lat="30.902076164300446" lon="-6.905611511758862"><ele>1121.0</ele><time>2026-03-26T12:13:37.906Z</time></trkpt><trkpt lat="30.902091723227873" lon="-6.905690530762109"><ele>1121.0</ele><time>2026-03-26T12:13:38.906Z</time></trkpt><trkpt lat="30.902094591424408" lon="-6.905773285614442"><ele>1121.0</ele><time>2026-03-26T12:13:39.906Z</time></trkpt><trkpt lat="30.902127394966026" lon="-6.905916148074754"><ele>1121.0</ele><time>2026-03-26T12:13:41.906Z</time></trkpt><trkpt lat="30.90212986671744" lon="-6.9060253776568805"><ele>1121.0</ele><time>2026-03-26T12:13:42.906Z</time></trkpt><trkpt lat="30.902132015316482" lon="-6.906128661993178"><ele>1121.3333333333335</ele><time>2026-03-26T12:13:43.906Z</time></trkpt><trkpt lat="30.902157452489906" lon="-6.906229781051546"><ele>1121.6666666666667</ele><time>2026-03-26T12:13:44.906Z</time></trkpt><trkpt lat="30.902172859615305" lon="-6.906331631572511"><ele>1122.0</ele><time>2026-03-26T12:13:45.906Z</time></trkpt><trkpt lat="30.902177996600823" lon="-6.906429784232892"><ele>1122.3333333333333</ele><time>2026-03-26T12:13:46.906Z</time></trkpt><trkpt lat="30.902176130171366" lon="-6.906531811317811"><ele>1122.6666666666665</ele><time>2026-03-26T12:13:47.906Z</time></trkpt><trkpt lat="30.902168931521565" lon="-6.906619759790751"><ele>1123.0</ele><time>2026-03-26T12:13:48.906Z</time></trkpt><trkpt lat="30.90217950825818" lon="-6.906708773551502"><ele>1123.3333333333333</ele><time>2026-03-26T12:13:49.906Z</time></trkpt><trkpt lat="30.902199948333756" lon="-6.906801551433255"><ele>1123.6666666666665</ele><time>2026-03-26T12:13:50.906Z</time></trkpt><trkpt lat="30.90220199562666" lon="-6.906895626652297"><ele>1124.0</ele><time>2026-03-26T12:13:51.906Z</time></trkpt><trkpt lat="30.902207467605084" lon="-6.906995931371104"><ele>1124.3333333333333</ele><time>2026-03-26T12:13:52.906Z</time></trkpt><trkpt lat="30.902204253007476" lon="-6.907089954498035"><ele>1124.6666666666667</ele><time>2026-03-26T12:13:53.906Z</time></trkpt><trkpt lat="30.902204482858096" lon="-6.907193279900394"><ele>1125.0</ele><time>2026-03-26T12:13:54.906Z</time></trkpt><trkpt lat="30.902214242450267" lon="-6.907293310774704"><ele>1125.0</ele><time>2026-03-26T12:13:55.906Z</time></trkpt><trkpt lat="30.902227341995218" lon="-6.907389933854121"><ele>1125.0</ele><time>2026-03-26T12:13:56.906Z</time></trkpt><trkpt lat="30.9022243101429" lon="-6.907486126206795"><ele>1125.0</ele><time>2026-03-26T12:13:57.906Z</time></trkpt><trkpt lat="30.902220794066167" lon="-6.907590936950254"><ele>1125.0</ele><time>2026-03-26T12:13:58.906Z</time></trkpt><trkpt lat="30.902216110149862" lon="-6.90768771194748"><ele>1125.0</ele><time>2026-03-26T12:13:59.906Z</time></trkpt><trkpt lat="30.902216365314715" lon="-6.907786169231581"><ele>1125.0</ele><time>2026-03-26T12:14:00.906Z</time></trkpt><trkpt lat="30.90220799819215" lon="-6.907899301548995"><ele>1124.8</ele><time>2026-03-26T12:14:01.906Z</time></trkpt><trkpt lat="30.90218288635422" lon="-6.908011888384461"><ele>1124.6</ele><time>2026-03-26T12:14:02.906Z</time></trkpt><trkpt lat="30.902156927070674" lon="-6.908115189409968"><ele>1124.4</ele><time>2026-03-26T12:14:03.906Z</time></trkpt><trkpt lat="30.902113880949038" lon="-6.90821399698738"><ele>1124.2</ele><time>2026-03-26T12:14:04.906Z</time></trkpt><trkpt lat="30.902077238105214" lon="-6.908299299293012"><ele>1124.0</ele><time>2026-03-26T12:14:05.906Z</time></trkpt><trkpt lat="30.902048399529324" lon="-6.908403458973294"><ele>1124.0</ele><time>2026-03-26T12:14:06.906Z</time></trkpt><trkpt lat="30.90203256832936" lon="-6.908508864117423"><ele>1124.0</ele><time>2026-03-26T12:14:07.906Z</time></trkpt><trkpt lat="30.90201331980267" lon="-6.9085815820306555"><ele>1124.0</ele><time>2026-03-26T12:14:08.906Z</time></trkpt><trkpt lat="30.901972273933513" lon="-6.9087300986167"><ele>1124.0</ele><time>2026-03-26T12:14:10.906Z</time></trkpt><trkpt lat="30.90194668775167" lon="-6.908822083064645"><ele>1124.0</ele><time>2026-03-26T12:14:11.906Z</time></trkpt><trkpt lat="30.901931012449708" lon="-6.90891762585709"><ele>1124.0</ele><time>2026-03-26T12:14:12.906Z</time></trkpt><trkpt lat="30.901922296425568" lon="-6.909001111525345"><ele>1124.0</ele><time>2026-03-26T12:14:13.906Z</time></trkpt><trkpt lat="30.90193276606529" lon="-6.909141228589767"><ele>1124.0</ele><time>2026-03-26T12:14:15.906Z</time></trkpt><trkpt lat="30.90193233476016" lon="-6.909226719898481"><ele>1124.0</ele><time>2026-03-26T12:14:16.906Z</time></trkpt><trkpt lat="30.901933421862598" lon="-6.909306271831029"><ele>1124.0</ele><time>2026-03-26T12:14:17.906Z</time></trkpt><trkpt lat="30.901944092961966" lon="-6.909398718024274"><ele>1124.0</ele><time>2026-03-26T12:14:18.906Z</time></trkpt><trkpt lat="30.901944806884764" lon="-6.909488420181035"><ele>1124.3333333333335</ele><time>2026-03-26T12:14:19.906Z</time></trkpt><trkpt lat="30.90194912209183" lon="-6.909571115876389"><ele>1124.6666666666667</ele><time>2026-03-26T12:14:20.906Z</time></trkpt><trkpt lat="30.901959122620234" lon="-6.909650964778023"><ele>1125.0</ele><time>2026-03-26T12:14:21.906Z</time></trkpt><trkpt lat="30.901977998405545" lon="-6.909729121462339"><ele>1125.3333333333333</ele><time>2026-03-26T12:14:22.906Z</time></trkpt><trkpt lat="30.90200377015502" lon="-6.909883573096644"><ele>1125.6666666666665</ele><time>2026-03-26T12:14:24.906Z</time></trkpt><trkpt lat="30.902003428646058" lon="-6.91000184685594"><ele>1126.0</ele><time>2026-03-26T12:14:25.906Z</time></trkpt><trkpt lat="30.90201663071585" lon="-6.910113766072749"><ele>1126.1666666666665</ele><time>2026-03-26T12:14:26.906Z</time></trkpt><trkpt lat="30.90203266581469" lon="-6.9102110832541515"><ele>1126.3333333333333</ele><time>2026-03-26T12:14:27.906Z</time></trkpt><trkpt lat="30.902048103882773" lon="-6.910299341496702"><ele>1126.5</ele><time>2026-03-26T12:14:28.905Z</time></trkpt><trkpt lat="30.902063907033558" lon="-6.910389239032854"><ele>1126.6666666666667</ele><time>2026-03-26T12:14:29.905Z</time></trkpt><trkpt lat="30.902081039816068" lon="-6.910499482582158"><ele>1126.8333333333335</ele><time>2026-03-26T12:14:30.905Z</time></trkpt><trkpt lat="30.902086599246683" lon="-6.910610942357181"><ele>1127.0</ele><time>2026-03-26T12:14:31.905Z</time></trkpt><trkpt lat="30.902089298954262" lon="-6.9107071554189545"><ele>1127.0</ele><time>2026-03-26T12:14:32.905Z</time></trkpt><trkpt lat="30.902089821312188" lon="-6.910791373424546"><ele>1127.0</ele><time>2026-03-26T12:14:33.905Z</time></trkpt><trkpt lat="30.9021169470584" lon="-6.910921764237416"><ele>1127.0</ele><time>2026-03-26T12:14:35.905Z</time></trkpt><trkpt lat="30.902135588337636" lon="-6.91099420878138"><ele>1127.0</ele><time>2026-03-26T12:14:37.905Z</time></trkpt><trkpt lat="30.902137913056546" lon="-6.911088377635169"><ele>1127.0</ele><time>2026-03-26T12:14:39.905Z</time></trkpt><trkpt lat="30.90213941882701" lon="-6.911187212445681"><ele>1127.0</ele><time>2026-03-26T12:14:41.905Z</time></trkpt><trkpt lat="30.90215828491757" lon="-6.911268957579275"><ele>1127.0</ele><time>2026-03-26T12:14:43.905Z</time></trkpt><trkpt lat="30.90224952432313" lon="-6.9113633909286785"><ele>1127.0</ele><time>2026-03-26T12:14:45.905Z</time></trkpt><trkpt lat="30.902319863014604" lon="-6.911366782584513"><ele>1127.0</ele><time>2026-03-26T12:14:46.905Z</time></trkpt><trkpt lat="30.90240158066506" lon="-6.911373538643209"><ele>1127.0</ele><time>2026-03-26T12:14:47.905Z</time></trkpt><trkpt lat="30.902487966773503" lon="-6.911375971544083"><ele>1127.0</ele><time>2026-03-26T12:14:48.906Z</time></trkpt><trkpt lat="30.90256753122676" lon="-6.9113796769441205"><ele>1127.0</ele><time>2026-03-26T12:14:49.906Z</time></trkpt><trkpt lat="30.902673470159773" lon="-6.911376197741464"><ele>1126.1666666666667</ele><time>2026-03-26T12:14:51.906Z</time></trkpt><trkpt lat="30.90276961160842" lon="-6.911364300156298"><ele>1125.3333333333335</ele><time>2026-03-26T12:14:53.906Z</time></trkpt><trkpt lat="30.90286304966395" lon="-6.911351049243364"><ele>1124.5</ele><time>2026-03-26T12:14:55.906Z</time></trkpt><trkpt lat="30.902929780017438" lon="-6.9113589531321775"><ele>1123.6666666666667</ele><time>2026-03-26T12:14:56.906Z</time></trkpt><trkpt lat="30.902994523381455" lon="-6.911361432825445"><ele>1122.8333333333333</ele><time>2026-03-26T12:14:57.906Z</time></trkpt><trkpt lat="30.903069463242634" lon="-6.911363958005391"><ele>1122.0</ele><time>2026-03-26T12:14:58.906Z</time></trkpt><trkpt lat="30.903161878569147" lon="-6.911366877374658"><ele>1122.0</ele><time>2026-03-26T12:14:59.906Z</time></trkpt><trkpt lat="30.90326294195489" lon="-6.911383033802966"><ele>1122.0</ele><time>2026-03-26T12:15:00.906Z</time></trkpt><trkpt lat="30.903368072797328" lon="-6.911404848468117"><ele>1122.0</ele><time>2026-03-26T12:15:01.906Z</time></trkpt><trkpt lat="30.903458812090793" lon="-6.911408880038269"><ele>1122.0</ele><time>2026-03-26T12:15:02.906Z</time></trkpt><trkpt lat="30.903549610637224" lon="-6.911403459422176"><ele>1122.0</ele><time>2026-03-26T12:15:03.906Z</time></trkpt><trkpt lat="30.903666631559116" lon="-6.911403571034922"><ele>1121.75</ele><time>2026-03-26T12:15:04.906Z</time></trkpt><trkpt lat="30.903805539018805" lon="-6.911412270251145"><ele>1121.5</ele><time>2026-03-26T12:15:05.906Z</time></trkpt><trkpt lat="30.90393157098814" lon="-6.911417347447697"><ele>1121.25</ele><time>2026-03-26T12:15:06.906Z</time></trkpt><trkpt lat="30.90405526880989" lon="-6.911416485531215"><ele>1121.0</ele><time>2026-03-26T12:15:07.906Z</time></trkpt><trkpt lat="30.904192686403004" lon="-6.911421562906991"><ele>1121.0</ele><time>2026-03-26T12:15:08.906Z</time></trkpt><trkpt lat="30.904339183468323" lon="-6.911422672801033"><ele>1121.0</ele><time>2026-03-26T12:15:09.906Z</time></trkpt><trkpt lat="30.904480051930346" lon="-6.911419436383691"><ele>1121.0</ele><time>2026-03-26T12:15:10.906Z</time></trkpt><trkpt lat="30.90461300322225" lon="-6.911417924008502"><ele>1121.0</ele><time>2026-03-26T12:15:11.906Z</time></trkpt><trkpt lat="30.90475083436302" lon="-6.911428188944138"><ele>1121.0</ele><time>2026-03-26T12:15:12.906Z</time></trkpt><trkpt lat="30.90488116336075" lon="-6.91143003991061"><ele>1121.0</ele><time>2026-03-26T12:15:13.906Z</time></trkpt><trkpt lat="30.905013060853616" lon="-6.911433889637688"><ele>1121.0</ele><time>2026-03-26T12:15:14.906Z</time></trkpt><trkpt lat="30.90513671999684" lon="-6.911438700766102"><ele>1121.0</ele><time>2026-03-26T12:15:15.906Z</time></trkpt><trkpt lat="30.905262452355664" lon="-6.91144129726798"><ele>1120.75</ele><time>2026-03-26T12:15:16.906Z</time></trkpt><trkpt lat="30.905385286832402" lon="-6.9114439044297065"><ele>1120.5</ele><time>2026-03-26T12:15:17.906Z</time></trkpt><trkpt lat="30.90552100750774" lon="-6.911444360363091"><ele>1120.25</ele><time>2026-03-26T12:15:18.906Z</time></trkpt><trkpt lat="30.90565314456369" lon="-6.911446419054178"><ele>1120.0</ele><time>2026-03-26T12:15:19.906Z</time></trkpt><trkpt lat="30.905784115613248" lon="-6.9114488442535595"><ele>1119.25</ele><time>2026-03-26T12:15:20.906Z</time></trkpt><trkpt lat="30.905914114170265" lon="-6.911452058894819"><ele>1118.5</ele><time>2026-03-26T12:15:21.906Z</time></trkpt><trkpt lat="30.90604780656602" lon="-6.911453122552912"><ele>1117.75</ele><time>2026-03-26T12:15:22.906Z</time></trkpt><trkpt lat="30.906176600241338" lon="-6.911455550881283"><ele>1117.0</ele><time>2026-03-26T12:15:23.906Z</time></trkpt><trkpt lat="30.906298566117105" lon="-6.9114593591828966"><ele>1117.0</ele><time>2026-03-26T12:15:24.906Z</time></trkpt><trkpt lat="30.906424625746673" lon="-6.911462214320195"><ele>1117.0</ele><time>2026-03-26T12:15:25.906Z</time></trkpt><trkpt lat="30.90655423589894" lon="-6.9114649192378135"><ele>1117.0</ele><time>2026-03-26T12:15:26.906Z</time></trkpt><trkpt lat="30.906677683870498" lon="-6.91146716273007"><ele>1117.0</ele><time>2026-03-26T12:15:27.906Z</time></trkpt><trkpt lat="30.90680870104421" lon="-6.911468688031774"><ele>1116.75</ele><time>2026-03-26T12:15:28.906Z</time></trkpt><trkpt lat="30.906940642617617" lon="-6.91147592874544"><ele>1116.5</ele><time>2026-03-26T12:15:29.906Z</time></trkpt><trkpt lat="30.90707523793902" lon="-6.911479359698057"><ele>1116.25</ele><time>2026-03-26T12:15:30.906Z</time></trkpt><trkpt lat="30.9072091034509" lon="-6.91148586415714"><ele>1116.0</ele><time>2026-03-26T12:15:31.906Z</time></trkpt><trkpt lat="30.9073540608852" lon="-6.911481278570172"><ele>1116.0</ele><time>2026-03-26T12:15:32.906Z</time></trkpt><trkpt lat="30.907496628226987" lon="-6.911481741087206"><ele>1116.0</ele><time>2026-03-26T12:15:33.906Z</time></trkpt><trkpt lat="30.907623475225694" lon="-6.911486596927178"><ele>1116.0</ele><time>2026-03-26T12:15:34.906Z</time></trkpt><trkpt lat="30.90774671879923" lon="-6.91149113748047"><ele>1116.0</ele><time>2026-03-26T12:15:35.906Z</time></trkpt><trkpt lat="30.907873297883206" lon="-6.911494181983696"><ele>1115.75</ele><time>2026-03-26T12:15:36.906Z</time></trkpt><trkpt lat="30.907993929858538" lon="-6.911494409927212"><ele>1115.5</ele><time>2026-03-26T12:15:37.906Z</time></trkpt><trkpt lat="30.908113739805884" lon="-6.911497303727297"><ele>1115.25</ele><time>2026-03-26T12:15:38.906Z</time></trkpt><trkpt lat="30.90823782445776" lon="-6.9114976180851935"><ele>1115.0</ele><time>2026-03-26T12:15:39.906Z</time></trkpt><trkpt lat="30.908346652924866" lon="-6.911499834976296"><ele>1115.4</ele><time>2026-03-26T12:15:40.906Z</time></trkpt><trkpt lat="30.908465870578475" lon="-6.911502832433121"><ele>1115.8</ele><time>2026-03-26T12:15:41.906Z</time></trkpt><trkpt lat="30.908573989766708" lon="-6.911505370799404"><ele>1116.2</ele><time>2026-03-26T12:15:42.906Z</time></trkpt><trkpt lat="30.90868656971682" lon="-6.911488860970048"><ele>1116.6</ele><time>2026-03-26T12:15:43.906Z</time></trkpt><trkpt lat="30.908785353155633" lon="-6.911464779869171"><ele>1117.0</ele><time>2026-03-26T12:15:44.906Z</time></trkpt><trkpt lat="30.908890158777645" lon="-6.911441396721362"><ele>1117.0</ele><time>2026-03-26T12:15:45.906Z</time></trkpt><trkpt lat="30.909007664748355" lon="-6.911438799916208"><ele>1117.0</ele><time>2026-03-26T12:15:46.906Z</time></trkpt><trkpt lat="30.90913442539129" lon="-6.911469981529736"><ele>1117.0</ele><time>2026-03-26T12:15:47.906Z</time></trkpt><trkpt lat="30.90927277446018" lon="-6.911494380940225"><ele>1117.0</ele><time>2026-03-26T12:15:48.906Z</time></trkpt><trkpt lat="30.90939945759506" lon="-6.911511950822784"><ele>1116.75</ele><time>2026-03-26T12:15:49.906Z</time></trkpt><trkpt lat="30.909541418557716" lon="-6.911512682715894"><ele>1116.5</ele><time>2026-03-26T12:15:50.906Z</time></trkpt><trkpt lat="30.909688257952162" lon="-6.911513685332163"><ele>1116.25</ele><time>2026-03-26T12:15:51.906Z</time></trkpt><trkpt lat="30.90982881310089" lon="-6.911522229673007"><ele>1116.0</ele><time>2026-03-26T12:15:52.906Z</time></trkpt><trkpt lat="30.90996613428018" lon="-6.91152691854916"><ele>1115.75</ele><time>2026-03-26T12:15:53.906Z</time></trkpt><trkpt lat="30.910102520660182" lon="-6.911529309371756"><ele>1115.5</ele><time>2026-03-26T12:15:54.906Z</time></trkpt><trkpt lat="30.91024559672751" lon="-6.911525539546667"><ele>1115.25</ele><time>2026-03-26T12:15:55.906Z</time></trkpt><trkpt lat="30.910391239001665" lon="-6.9115157710166795"><ele>1115.0</ele><time>2026-03-26T12:15:56.906Z</time></trkpt><trkpt lat="30.910547279240784" lon="-6.911496334900279"><ele>1115.0</ele><time>2026-03-26T12:15:57.906Z</time></trkpt><trkpt lat="30.91069836891913" lon="-6.91147267369263"><ele>1115.0</ele><time>2026-03-26T12:15:58.906Z</time></trkpt><trkpt lat="30.910836359427947" lon="-6.91144235127594"><ele>1115.0</ele><time>2026-03-26T12:15:59.906Z</time></trkpt><trkpt lat="30.91097410446806" lon="-6.911401604004095"><ele>1115.0</ele><time>2026-03-26T12:16:00.905Z</time></trkpt><trkpt lat="30.911111207886755" lon="-6.911357505277982"><ele>1115.0</ele><time>2026-03-26T12:16:01.905Z</time></trkpt><trkpt lat="30.911244131190617" lon="-6.911311332735041"><ele>1115.0</ele><time>2026-03-26T12:16:02.905Z</time></trkpt><trkpt lat="30.911375916065683" lon="-6.911260739376942"><ele>1115.0</ele><time>2026-03-26T12:16:03.905Z</time></trkpt><trkpt lat="30.911501871337528" lon="-6.9111995437122475"><ele>1115.0</ele><time>2026-03-26T12:16:04.905Z</time></trkpt><trkpt lat="30.9116301673925" lon="-6.91113171161461"><ele>1115.0</ele><time>2026-03-26T12:16:05.905Z</time></trkpt><trkpt lat="30.911748826609294" lon="-6.911075290646123"><ele>1115.0</ele><time>2026-03-26T12:16:06.905Z</time></trkpt><trkpt lat="30.911865158285902" lon="-6.91101228057714"><ele>1115.0</ele><time>2026-03-26T12:16:07.905Z</time></trkpt><trkpt lat="30.911987151318698" lon="-6.910919667158551"><ele>1115.0</ele><time>2026-03-26T12:16:08.905Z</time></trkpt><trkpt lat="30.912106403625224" lon="-6.910837142089516"><ele>1114.5</ele><time>2026-03-26T12:16:09.905Z</time></trkpt><trkpt lat="30.91220713500579" lon="-6.910756999098362"><ele>1114.0</ele><time>2026-03-26T12:16:10.905Z</time></trkpt><trkpt lat="30.912303433158502" lon="-6.9106818957971665"><ele>1113.5</ele><time>2026-03-26T12:16:11.905Z</time></trkpt><trkpt lat="30.912397159031848" lon="-6.910595243723869"><ele>1113.0</ele><time>2026-03-26T12:16:12.905Z</time></trkpt><trkpt lat="30.912488633515874" lon="-6.9105042068835845"><ele>1113.0</ele><time>2026-03-26T12:16:13.905Z</time></trkpt><trkpt lat="30.912582896332317" lon="-6.910411434626894"><ele>1113.0</ele><time>2026-03-26T12:16:14.905Z</time></trkpt><trkpt lat="30.912681183242025" lon="-6.910319939082426"><ele>1113.0</ele><time>2026-03-26T12:16:15.905Z</time></trkpt><trkpt lat="30.912778511859855" lon="-6.9102335302818245"><ele>1113.0</ele><time>2026-03-26T12:16:16.905Z</time></trkpt><trkpt lat="30.912875810767265" lon="-6.910140334231742"><ele>1113.0</ele><time>2026-03-26T12:16:17.905Z</time></trkpt><trkpt lat="30.91297255825251" lon="-6.91004776412585"><ele>1113.0</ele><time>2026-03-26T12:16:18.905Z</time></trkpt><trkpt lat="30.913069260925287" lon="-6.909954756240002"><ele>1113.0</ele><time>2026-03-26T12:16:19.905Z</time></trkpt><trkpt lat="30.913166372703433" lon="-6.909857303121023"><ele>1113.0</ele><time>2026-03-26T12:16:20.905Z</time></trkpt><trkpt lat="30.91326113374004" lon="-6.90976371849924"><ele>1113.0</ele><time>2026-03-26T12:16:21.905Z</time></trkpt><trkpt lat="30.913361013160454" lon="-6.909671508502024"><ele>1113.0</ele><time>2026-03-26T12:16:22.905Z</time></trkpt><trkpt lat="30.91345944230267" lon="-6.9095790291288575"><ele>1113.0</ele><time>2026-03-26T12:16:23.905Z</time></trkpt><trkpt lat="30.91355935191975" lon="-6.909483593647334"><ele>1113.0</ele><time>2026-03-26T12:16:24.905Z</time></trkpt><trkpt lat="30.913659866034273" lon="-6.909386244976021"><ele>1113.0</ele><time>2026-03-26T12:16:25.905Z</time></trkpt><trkpt lat="30.913760086175508" lon="-6.909288588928582"><ele>1113.0</ele><time>2026-03-26T12:16:26.905Z</time></trkpt><trkpt lat="30.91386442467367" lon="-6.909192471596212"><ele>1113.0</ele><time>2026-03-26T12:16:27.905Z</time></trkpt><trkpt lat="30.913953983787437" lon="-6.909077706931629"><ele>1113.0</ele><time>2026-03-26T12:16:28.905Z</time></trkpt><trkpt lat="30.91406243554522" lon="-6.9089773985091005"><ele>1113.0</ele><time>2026-03-26T12:16:29.905Z</time></trkpt><trkpt lat="30.91416520980881" lon="-6.908875868069795"><ele>1113.0</ele><time>2026-03-26T12:16:30.905Z</time></trkpt><trkpt lat="30.914271410578717" lon="-6.908773604329063"><ele>1113.0</ele><time>2026-03-26T12:16:31.905Z</time></trkpt><trkpt lat="30.914375005291415" lon="-6.90867609959392"><ele>1113.0</ele><time>2026-03-26T12:16:32.905Z</time></trkpt><trkpt lat="30.914479626654295" lon="-6.9085792204374785"><ele>1113.25</ele><time>2026-03-26T12:16:33.905Z</time></trkpt><trkpt lat="30.914585268298627" lon="-6.908479349877158"><ele>1113.5</ele><time>2026-03-26T12:16:34.905Z</time></trkpt><trkpt lat="30.914690194593785" lon="-6.9083790405893035"><ele>1113.75</ele><time>2026-03-26T12:16:35.905Z</time></trkpt><trkpt lat="30.91479785357669" lon="-6.908279273329665"><ele>1114.0</ele><time>2026-03-26T12:16:36.905Z</time></trkpt><trkpt lat="30.914898214609607" lon="-6.908182177317009"><ele>1114.0</ele><time>2026-03-26T12:16:37.905Z</time></trkpt><trkpt lat="30.915000162544533" lon="-6.908086462652632"><ele>1114.0</ele><time>2026-03-26T12:16:38.905Z</time></trkpt><trkpt lat="30.91510323652102" lon="-6.907989141441185"><ele>1114.0</ele><time>2026-03-26T12:16:39.905Z</time></trkpt><trkpt lat="30.91519999021679" lon="-6.907899090879384"><ele>1114.0</ele><time>2026-03-26T12:16:40.905Z</time></trkpt><trkpt lat="30.915288868388306" lon="-6.907811878535648"><ele>1114.0</ele><time>2026-03-26T12:16:41.905Z</time></trkpt><trkpt lat="30.9153733047191" lon="-6.907737963620958"><ele>1114.0</ele><time>2026-03-26T12:16:42.905Z</time></trkpt><trkpt lat="30.915452289018962" lon="-6.9076629111318635"><ele>1114.0</ele><time>2026-03-26T12:16:43.905Z</time></trkpt><trkpt lat="30.915526799870545" lon="-6.907594193285383"><ele>1114.0</ele><time>2026-03-26T12:16:44.905Z</time></trkpt><trkpt lat="30.915602135948625" lon="-6.907522132826895"><ele>1114.0</ele><time>2026-03-26T12:16:45.905Z</time></trkpt><trkpt lat="30.91567285382483" lon="-6.907461437979657"><ele>1114.0</ele><time>2026-03-26T12:16:46.905Z</time></trkpt><trkpt lat="30.91573306360742" lon="-6.907402418566404"><ele>1114.0</ele><time>2026-03-26T12:16:47.905Z</time></trkpt><trkpt lat="30.915792784380592" lon="-6.9073437142829555"><ele>1114.0</ele><time>2026-03-26T12:16:48.905Z</time></trkpt><trkpt lat="30.915843981709656" lon="-6.907298559315673"><ele>1114.0</ele><time>2026-03-26T12:16:49.905Z</time></trkpt><trkpt lat="30.915948078666403" lon="-6.907201000988744"><ele>1114.0</ele><time>2026-03-26T12:16:51.905Z</time></trkpt><trkpt lat="30.916003174897636" lon="-6.90714450855302"><ele>1114.0</ele><time>2026-03-26T12:16:52.905Z</time></trkpt><trkpt lat="30.91609863137997" lon="-6.907038104150099"><ele>1114.8</ele><time>2026-03-26T12:16:54.905Z</time></trkpt><trkpt lat="30.916148784427854" lon="-6.90696464649214"><ele>1115.6000000000001</ele><time>2026-03-26T12:16:55.904Z</time></trkpt><trkpt lat="30.916200651958167" lon="-6.906879981894332"><ele>1116.4</ele><time>2026-03-26T12:16:56.904Z</time></trkpt><trkpt lat="30.916245126464162" lon="-6.9067811313557685"><ele>1117.2</ele><time>2026-03-26T12:16:57.905Z</time></trkpt><trkpt lat="30.916281906600254" lon="-6.906672670135077"><ele>1118.0</ele><time>2026-03-26T12:16:58.905Z</time></trkpt><trkpt lat="30.916300005058805" lon="-6.906559155869758"><ele>1118.0</ele><time>2026-03-26T12:16:59.905Z</time></trkpt><trkpt lat="30.916312289588877" lon="-6.906426221202764"><ele>1118.0</ele><time>2026-03-26T12:17:00.905Z</time></trkpt><trkpt lat="30.916327693693407" lon="-6.906286329259693"><ele>1118.0</ele><time>2026-03-26T12:17:01.905Z</time></trkpt><trkpt lat="30.916354817183528" lon="-6.906148704089944"><ele>1118.0</ele><time>2026-03-26T12:17:02.905Z</time></trkpt><trkpt lat="30.91639204428714" lon="-6.906000094455849"><ele>1118.0</ele><time>2026-03-26T12:17:03.905Z</time></trkpt><trkpt lat="30.916451066924775" lon="-6.905862738051987"><ele>1118.0</ele><time>2026-03-26T12:17:04.905Z</time></trkpt><trkpt lat="30.916511710163793" lon="-6.905746539551026"><ele>1118.0</ele><time>2026-03-26T12:17:05.905Z</time></trkpt><trkpt lat="30.916573294239136" lon="-6.9056289732928935"><ele>1118.0</ele><time>2026-03-26T12:17:06.905Z</time></trkpt><trkpt lat="30.916634179186044" lon="-6.905513080325786"><ele>1118.0</ele><time>2026-03-26T12:17:07.905Z</time></trkpt><trkpt lat="30.91670979472554" lon="-6.905420248492646"><ele>1118.0</ele><time>2026-03-26T12:17:08.905Z</time></trkpt><trkpt lat="30.91678010656795" lon="-6.905315783254166"><ele>1118.0</ele><time>2026-03-26T12:17:09.905Z</time></trkpt><trkpt lat="30.91679869145574" lon="-6.905213196306288"><ele>1118.0</ele><time>2026-03-26T12:17:10.905Z</time></trkpt><trkpt lat="30.916836469756074" lon="-6.905103222571227"><ele>1118.0</ele><time>2026-03-26T12:17:11.905Z</time></trkpt><trkpt lat="30.916852858800027" lon="-6.904985799628273"><ele>1118.0</ele><time>2026-03-26T12:17:12.905Z</time></trkpt><trkpt lat="30.91685621710417" lon="-6.904862807855737"><ele>1118.0</ele><time>2026-03-26T12:17:13.905Z</time></trkpt><trkpt lat="30.91685359625835" lon="-6.904740309586298"><ele>1118.0</ele><time>2026-03-26T12:17:14.905Z</time></trkpt><trkpt lat="30.91685544196449" lon="-6.904620761628263"><ele>1118.0</ele><time>2026-03-26T12:17:15.905Z</time></trkpt><trkpt lat="30.916857503859763" lon="-6.904500797372563"><ele>1118.0</ele><time>2026-03-26T12:17:16.905Z</time></trkpt><trkpt lat="30.916854850612786" lon="-6.904388380833941"><ele>1118.0</ele><time>2026-03-26T12:17:17.905Z</time></trkpt><trkpt lat="30.916853391510166" lon="-6.904290828842502"><ele>1118.0</ele><time>2026-03-26T12:17:18.905Z</time></trkpt><trkpt lat="30.91685525618037" lon="-6.904207669713503"><ele>1118.0</ele><time>2026-03-26T12:17:19.905Z</time></trkpt><trkpt lat="30.916869368780738" lon="-6.904118392281495"><ele>1118.0</ele><time>2026-03-26T12:17:20.905Z</time></trkpt><trkpt lat="30.916893049878432" lon="-6.904039817916004"><ele>1118.0</ele><time>2026-03-26T12:17:21.905Z</time></trkpt><trkpt lat="30.91694939163469" lon="-6.903981774336586"><ele>1118.0</ele><time>2026-03-26T12:17:22.905Z</time></trkpt><trkpt lat="30.91701327238065" lon="-6.903946351473159"><ele>1117.8</ele><time>2026-03-26T12:17:23.905Z</time></trkpt><trkpt lat="30.917097323030628" lon="-6.903906715557084"><ele>1117.6</ele><time>2026-03-26T12:17:24.905Z</time></trkpt><trkpt lat="30.917194022405685" lon="-6.903898606936735"><ele>1117.4</ele><time>2026-03-26T12:17:25.905Z</time></trkpt><trkpt lat="30.917282982360465" lon="-6.903877067917794"><ele>1117.2</ele><time>2026-03-26T12:17:26.905Z</time></trkpt><trkpt lat="30.917374921349097" lon="-6.90385620483942"><ele>1117.0</ele><time>2026-03-26T12:17:27.905Z</time></trkpt><trkpt lat="30.91745818427865" lon="-6.9038373105589175"><ele>1117.0</ele><time>2026-03-26T12:17:28.905Z</time></trkpt><trkpt lat="30.91754914791205" lon="-6.903816668811781"><ele>1117.0</ele><time>2026-03-26T12:17:29.905Z</time></trkpt><trkpt lat="30.91765966389198" lon="-6.9038125596226525"><ele>1117.0</ele><time>2026-03-26T12:17:30.905Z</time></trkpt><trkpt lat="30.917761696715914" lon="-6.903807887044206"><ele>1117.0</ele><time>2026-03-26T12:17:31.905Z</time></trkpt><trkpt lat="30.917859102049444" lon="-6.903805657325298"><ele>1117.0</ele><time>2026-03-26T12:17:32.905Z</time></trkpt><trkpt lat="30.917962235487835" lon="-6.903803207474027"><ele>1117.4</ele><time>2026-03-26T12:17:33.905Z</time></trkpt><trkpt lat="30.918054296718864" lon="-6.903808854453508"><ele>1117.8000000000002</ele><time>2026-03-26T12:17:34.905Z</time></trkpt><trkpt lat="30.918140859758747" lon="-6.903809552766983"><ele>1118.2</ele><time>2026-03-26T12:17:35.905Z</time></trkpt><trkpt lat="30.918212708749355" lon="-6.903806576888599"><ele>1118.6000000000001</ele><time>2026-03-26T12:17:36.905Z</time></trkpt><trkpt lat="30.918330811683266" lon="-6.903816153851558"><ele>1119.0</ele><time>2026-03-26T12:17:38.905Z</time></trkpt><trkpt lat="30.918444452260307" lon="-6.903814672235268"><ele>1120.4</ele><time>2026-03-26T12:17:40.905Z</time></trkpt><trkpt lat="30.91855838937962" lon="-6.903808386455981"><ele>1121.8000000000002</ele><time>2026-03-26T12:17:42.905Z</time></trkpt><trkpt lat="30.91866353858658" lon="-6.903811374564596"><ele>1123.1999999999998</ele><time>2026-03-26T12:17:44.905Z</time></trkpt><trkpt lat="30.91873884140078" lon="-6.903820250976518"><ele>1124.6</ele><time>2026-03-26T12:17:46.905Z</time></trkpt><trkpt lat="30.9188102945347" lon="-6.903820554154197"><ele>1126.0</ele><time>2026-03-26T12:17:49.905Z</time></trkpt><trkpt lat="30.918897164502933" lon="-6.903819017302704"><ele>1126.0</ele><time>2026-03-26T12:17:55.905Z</time></trkpt><trkpt lat="30.918967068910067" lon="-6.903821636050365"><ele>1126.0</ele><time>2026-03-26T12:17:58.905Z</time></trkpt><trkpt lat="30.918940478873363" lon="-6.903628783467331"><ele>1126.0</ele><time>2026-03-26T12:18:01.905Z</time></trkpt><trkpt lat="30.918913375449105" lon="-6.903489711361601"><ele>1126.0</ele><time>2026-03-26T12:18:03.905Z</time></trkpt><trkpt lat="30.918898950172633" lon="-6.903416650641651"><ele>1126.0</ele><time>2026-03-26T12:18:04.905Z</time></trkpt><trkpt lat="30.91888163798624" lon="-6.903328968381226"><ele>1126.6</ele><time>2026-03-26T12:18:05.905Z</time></trkpt><trkpt lat="30.918858772266777" lon="-6.903213158750074"><ele>1127.1999999999998</ele><time>2026-03-26T12:18:06.905Z</time></trkpt><trkpt lat="30.918838454654004" lon="-6.9030783901421"><ele>1127.8000000000002</ele><time>2026-03-26T12:18:07.905Z</time></trkpt><trkpt lat="30.918804270109334" lon="-6.902954392757313"><ele>1128.4</ele><time>2026-03-26T12:18:08.905Z</time></trkpt><trkpt lat="30.91877744284244" lon="-6.902838001516575"><ele>1129.0</ele><time>2026-03-26T12:18:09.905Z</time></trkpt><trkpt lat="30.918748840428243" lon="-6.902708957307077"><ele>1129.25</ele><time>2026-03-26T12:18:10.905Z</time></trkpt><trkpt lat="30.918722974406045" lon="-6.902579647765674"><ele>1129.5</ele><time>2026-03-26T12:18:11.905Z</time></trkpt><trkpt lat="30.91869839456739" lon="-6.902449737263011"><ele>1129.75</ele><time>2026-03-26T12:18:12.905Z</time></trkpt><trkpt lat="30.91867325090465" lon="-6.9023203062981295"><ele>1130.0</ele><time>2026-03-26T12:18:13.905Z</time></trkpt><trkpt lat="30.91865589758199" lon="-6.9021928027262245"><ele>1130.0</ele><time>2026-03-26T12:18:14.905Z</time></trkpt><trkpt lat="30.918652895027513" lon="-6.902064731308443"><ele>1130.0</ele><time>2026-03-26T12:18:15.905Z</time></trkpt><trkpt lat="30.918661612206588" lon="-6.901927680810017"><ele>1130.0</ele><time>2026-03-26T12:18:16.905Z</time></trkpt><trkpt lat="30.918685192315667" lon="-6.901789931656557"><ele>1130.0</ele><time>2026-03-26T12:18:17.905Z</time></trkpt><trkpt lat="30.91872318540672" lon="-6.9016590359440055"><ele>1129.0</ele><time>2026-03-26T12:18:18.905Z</time></trkpt><trkpt lat="30.918774894678712" lon="-6.901547135513836"><ele>1128.0</ele><time>2026-03-26T12:18:19.905Z</time></trkpt><trkpt lat="30.91883571971091" lon="-6.901454527793162"><ele>1127.0</ele><time>2026-03-26T12:18:20.905Z</time></trkpt><trkpt lat="30.918889413346044" lon="-6.901372184609667"><ele>1126.0</ele><time>2026-03-26T12:18:21.905Z</time></trkpt><trkpt lat="30.91894182148911" lon="-6.90130644004633"><ele>1125.0</ele><time>2026-03-26T12:18:22.905Z</time></trkpt><trkpt lat="30.918993410022622" lon="-6.901253465683878"><ele>1124.0</ele><time>2026-03-26T12:18:23.905Z</time></trkpt><trkpt lat="30.919068727500168" lon="-6.901192591121117"><ele>1124.0</ele><time>2026-03-26T12:18:25.905Z</time></trkpt><trkpt lat="30.919129615386762" lon="-6.901159129180414"><ele>1124.0</ele><time>2026-03-26T12:18:28.905Z</time></trkpt><trkpt lat="30.91918975898599" lon="-6.90111902681094"><ele>1124.0</ele><time>2026-03-26T12:18:37.904Z</time></trkpt><trkpt lat="30.91927744271937" lon="-6.9010722696241125"><ele>1124.0</ele><time>2026-03-26T12:18:39.904Z</time></trkpt><trkpt lat="30.919369106449096" lon="-6.901040837310646"><ele>1124.0</ele><time>2026-03-26T12:18:41.904Z</time></trkpt><trkpt lat="30.919455697373916" lon="-6.901010013958297"><ele>1124.0</ele><time>2026-03-26T12:18:43.904Z</time></trkpt><trkpt lat="30.919561139664193" lon="-6.900969238634311"><ele>1123.6666666666667</ele><time>2026-03-26T12:18:45.904Z</time></trkpt><trkpt lat="30.91962540478582" lon="-6.900963513988575"><ele>1123.3333333333335</ele><time>2026-03-26T12:18:46.904Z</time></trkpt><trkpt lat="30.91973995522209" lon="-6.900964690193054"><ele>1123.0</ele><time>2026-03-26T12:18:48.904Z</time></trkpt><trkpt lat="30.919807950942403" lon="-6.90095780435668"><ele>1122.6666666666667</ele><time>2026-03-26T12:18:49.904Z</time></trkpt><trkpt lat="30.919888055781954" lon="-6.900948618736306"><ele>1122.3333333333333</ele><time>2026-03-26T12:18:50.904Z</time></trkpt><trkpt lat="30.91998321236365" lon="-6.900932914284965"><ele>1122.0</ele><time>2026-03-26T12:18:51.904Z</time></trkpt><trkpt lat="30.920049443858186" lon="-6.900922925981556"><ele>1122.5</ele><time>2026-03-26T12:18:52.904Z</time></trkpt><trkpt lat="30.920179222741762" lon="-6.900899948001218"><ele>1123.0</ele><time>2026-03-26T12:18:54.904Z</time></trkpt><trkpt lat="30.9202513386562" lon="-6.900869267503809"><ele>1123.5</ele><time>2026-03-26T12:18:55.904Z</time></trkpt><trkpt lat="30.92031597964845" lon="-6.900837590953262"><ele>1124.0</ele><time>2026-03-26T12:18:56.904Z</time></trkpt><trkpt lat="30.920380730682673" lon="-6.900817503613385"><ele>1124.5</ele><time>2026-03-26T12:18:57.904Z</time></trkpt><trkpt lat="30.920454160757007" lon="-6.900771988418044"><ele>1125.0</ele><time>2026-03-26T12:18:58.904Z</time></trkpt><trkpt lat="30.920506189703808" lon="-6.90071136340808"><ele>1125.0</ele><time>2026-03-26T12:18:59.904Z</time></trkpt><trkpt lat="30.920489079009943" lon="-6.900568250364514"><ele>1125.0</ele><time>2026-03-26T12:19:00.905Z</time></trkpt><trkpt lat="30.92050269749548" lon="-6.900475784035222"><ele>1125.0</ele><time>2026-03-26T12:19:01.905Z</time></trkpt><trkpt lat="30.920504885265977" lon="-6.900367293802843"><ele>1125.0</ele><time>2026-03-26T12:19:02.905Z</time></trkpt><trkpt lat="30.920507481739367" lon="-6.900252946742559"><ele>1125.0</ele><time>2026-03-26T12:19:03.904Z</time></trkpt><trkpt lat="30.920485213641637" lon="-6.900148767524069"><ele>1125.8333333333333</ele><time>2026-03-26T12:19:04.904Z</time></trkpt><trkpt lat="30.92048159576691" lon="-6.900041583972035"><ele>1126.6666666666667</ele><time>2026-03-26T12:19:05.904Z</time></trkpt><trkpt lat="30.92047758287386" lon="-6.899922697590108"><ele>1127.5</ele><time>2026-03-26T12:19:06.904Z</time></trkpt><trkpt lat="30.920473689852464" lon="-6.899812086197885"><ele>1128.3333333333335</ele><time>2026-03-26T12:19:07.904Z</time></trkpt><trkpt lat="30.920470345852024" lon="-6.899718999373811"><ele>1129.1666666666667</ele><time>2026-03-26T12:19:08.904Z</time></trkpt><trkpt lat="30.92046757938417" lon="-6.899641989312482"><ele>1130.0</ele><time>2026-03-26T12:19:09.904Z</time></trkpt><trkpt lat="30.92046453552358" lon="-6.899551868053051"><ele>1129.9999999999998</ele><time>2026-03-26T12:19:10.904Z</time></trkpt><trkpt lat="30.920462481399227" lon="-6.899469998488498"><ele>1130.0</ele><time>2026-03-26T12:19:11.904Z</time></trkpt><trkpt lat="30.920460002674744" lon="-6.899380454765286"><ele>1130.0</ele><time>2026-03-26T12:19:12.904Z</time></trkpt><trkpt lat="30.9204582731995" lon="-6.899290966740068"><ele>1130.0</ele><time>2026-03-26T12:19:13.904Z</time></trkpt><trkpt lat="30.920456480804095" lon="-6.899201275761485"><ele>1130.0</ele><time>2026-03-26T12:19:14.904Z</time></trkpt><trkpt lat="30.920454290617897" lon="-6.89911566803606"><ele>1129.9999999999998</ele><time>2026-03-26T12:19:15.904Z</time></trkpt><trkpt lat="30.92045790855383" lon="-6.8990355264453225"><ele>1130.0</ele><time>2026-03-26T12:19:16.904Z</time></trkpt><trkpt lat="30.920461037227646" lon="-6.898959991245667"><ele>1130.6</ele><time>2026-03-26T12:19:17.904Z</time></trkpt><trkpt lat="30.920484995086934" lon="-6.8988226757207896"><ele>1131.2</ele><time>2026-03-26T12:19:19.904Z</time></trkpt><trkpt lat="30.920515604134376" lon="-6.89874279127353"><ele>1131.8</ele><time>2026-03-26T12:19:22.904Z</time></trkpt><trkpt lat="30.920544804333247" lon="-6.898643549556818"><ele>1132.4</ele><time>2026-03-26T12:19:25.904Z</time></trkpt><trkpt lat="30.920560825292476" lon="-6.89855012153203"><ele>1133.0</ele><time>2026-03-26T12:19:27.904Z</time></trkpt><trkpt lat="30.920598493153694" lon="-6.898452820109037"><ele>1133.0</ele><time>2026-03-26T12:19:30.904Z</time></trkpt><trkpt lat="30.92065283786964" lon="-6.898388549282015"><ele>1133.0</ele><time>2026-03-26T12:19:34.904Z</time></trkpt><trkpt lat="30.920679673850852" lon="-6.898304903009184"><ele>1133.0</ele><time>2026-03-26T12:19:36.904Z</time></trkpt><trkpt lat="30.920732601852887" lon="-6.898250893894627"><ele>1133.0</ele><time>2026-03-26T12:19:39.904Z</time></trkpt><trkpt lat="30.920673521928723" lon="-6.898279828801317"><ele>1133.0</ele><time>2026-03-26T12:21:03.904Z</time></trkpt><trkpt lat="30.92061901651689" lon="-6.8983351939890465"><ele>1133.0</ele><time>2026-03-26T12:21:10.903Z</time></trkpt><trkpt lat="30.92055744174044" lon="-6.898356867806449"><ele>1133.0</ele><time>2026-03-26T12:21:19.901Z</time></trkpt><trkpt lat="30.920511935966363" lon="-6.898427331152325"><ele>1133.0</ele><time>2026-03-26T12:22:02.898Z</time></trkpt><trkpt lat="30.920455887502648" lon="-6.898467094555118"><ele>1133.0</ele><time>2026-03-26T12:22:12.898Z</time></trkpt><trkpt lat="30.92043999858003" lon="-6.898540074816201"><ele>1133.0</ele><time>2026-03-26T12:22:22.898Z</time></trkpt><trkpt lat="30.920434727605624" lon="-6.898462601846455"><ele>1133.0</ele><time>2026-03-26T12:22:53.897Z</time></trkpt><trkpt lat="30.920432261709742" lon="-6.8983867566595425"><ele>1133.0</ele><time>2026-03-26T12:23:03.897Z</time></trkpt><trkpt lat="30.920395126860605" lon="-6.898323339075681"><ele>1133.0</ele><time>2026-03-26T12:23:10.897Z</time></trkpt><trkpt lat="30.920361187508945" lon="-6.898252977711003"><ele>1133.0</ele><time>2026-03-26T12:23:23.897Z</time></trkpt><trkpt lat="30.920425621280415" lon="-6.898190407409912"><ele>1128.0</ele><time>2026-03-26T12:23:47.896Z</time></trkpt><trkpt lat="30.92046669929148" lon="-6.89812367893909"><ele>1128.0</ele><time>2026-03-26T12:29:30Z</time></trkpt><trkpt lat="30.920473147805577" lon="-6.898203703479008"><ele>1128.0</ele><time>2026-03-26T12:30:19Z</time></trkpt></trkseg></trk></gpx>